<?xml version="1.0" encoding="UTF-8" standalone="no" ?>
<gpx xmlns="http://www.topografix.com/GPX/1/1" xmlns:xsi="http://www.w3.org/2001/XMLSchema-instance" xsi:schemaLocation="http://www.topografix.com/GPX/1/1 http://www.topografix.com/GPX/1/1/gpx.xsd" version="1.1" creator="VisuGPX - https://www.visugpx.com">
  <metadata>
    <name>Trek dans l'Yonne - 5 Jours</name>
    <desc><![CDATA[Trek de 5 jours dans le sud de l'Yonne
Séjour avec le Rando Club Yerrois
Avril 2019

Parcours complet
Animateur Jean Luc
]]></desc>
  </metadata>
  <trk>
    <name><![CDATA[20190406110906-zDB7D]]></name>
    <trkseg>
      <trkpt lat="47.96303" lon="3.50031">
        <ele>82.6</ele>
        <time>2019-04-01T07:07:20Z</time>
      </trkpt>
      <trkpt lat="47.96303" lon="3.50031">
        <ele>82.6</ele>
        <time>2019-04-01T07:07:20Z</time>
      </trkpt>
      <trkpt lat="47.96303" lon="3.50031">
        <ele>129</ele>
        <time>2019-04-01T07:07:26Z</time>
      </trkpt>
      <trkpt lat="47.96303" lon="3.50024">
        <ele>130</ele>
        <time>2019-04-01T07:08:36Z</time>
      </trkpt>
      <trkpt lat="47.96299" lon="3.50019">
        <ele>130</ele>
        <time>2019-04-01T07:08:45Z</time>
      </trkpt>
      <trkpt lat="47.963" lon="3.50011">
        <ele>130</ele>
        <time>2019-04-01T07:08:52Z</time>
      </trkpt>
      <trkpt lat="47.96302" lon="3.50005">
        <ele>132</ele>
        <time>2019-04-01T07:08:57Z</time>
      </trkpt>
      <trkpt lat="47.96302" lon="3.49998">
        <ele>133</ele>
        <time>2019-04-01T07:09:02Z</time>
      </trkpt>
      <trkpt lat="47.96297" lon="3.49993">
        <ele>133</ele>
        <time>2019-04-01T07:09:09Z</time>
      </trkpt>
      <trkpt lat="47.96294" lon="3.49987">
        <ele>133</ele>
        <time>2019-04-01T07:09:18Z</time>
      </trkpt>
      <trkpt lat="47.96292" lon="3.49982">
        <ele>133</ele>
        <time>2019-04-01T07:09:22Z</time>
      </trkpt>
      <trkpt lat="47.9629" lon="3.49979">
        <ele>132</ele>
        <time>2019-04-01T07:09:25Z</time>
      </trkpt>
      <trkpt lat="47.96286" lon="3.49975">
        <ele>133</ele>
        <time>2019-04-01T07:09:31Z</time>
      </trkpt>
      <trkpt lat="47.96279" lon="3.49972">
        <ele>133</ele>
        <time>2019-04-01T07:09:36Z</time>
      </trkpt>
      <trkpt lat="47.96274" lon="3.49968">
        <ele>132</ele>
        <time>2019-04-01T07:09:40Z</time>
      </trkpt>
      <trkpt lat="47.96268" lon="3.49966">
        <ele>129</ele>
        <time>2019-04-01T07:09:43Z</time>
      </trkpt>
      <trkpt lat="47.96265" lon="3.49965">
        <ele>128</ele>
        <time>2019-04-01T07:09:45Z</time>
      </trkpt>
      <trkpt lat="47.96258" lon="3.49963">
        <ele>127</ele>
        <time>2019-04-01T07:09:50Z</time>
      </trkpt>
      <trkpt lat="47.96256" lon="3.49959">
        <ele>125</ele>
        <time>2019-04-01T07:09:59Z</time>
      </trkpt>
      <trkpt lat="47.9625" lon="3.49956">
        <ele>126</ele>
        <time>2019-04-01T07:10:05Z</time>
      </trkpt>
      <trkpt lat="47.96244" lon="3.49958">
        <ele>126</ele>
        <time>2019-04-01T07:10:11Z</time>
      </trkpt>
      <trkpt lat="47.9624" lon="3.49963">
        <ele>126</ele>
        <time>2019-04-01T07:10:15Z</time>
      </trkpt>
      <trkpt lat="47.96237" lon="3.49966">
        <ele>127</ele>
        <time>2019-04-01T07:10:19Z</time>
      </trkpt>
      <trkpt lat="47.96235" lon="3.49969">
        <ele>127</ele>
        <time>2019-04-01T07:10:22Z</time>
      </trkpt>
      <trkpt lat="47.96232" lon="3.49975">
        <ele>126</ele>
        <time>2019-04-01T07:10:26Z</time>
      </trkpt>
      <trkpt lat="47.96231" lon="3.49979">
        <ele>127</ele>
        <time>2019-04-01T07:10:28Z</time>
      </trkpt>
      <trkpt lat="47.96228" lon="3.49984">
        <ele>128</ele>
        <time>2019-04-01T07:10:32Z</time>
      </trkpt>
      <trkpt lat="47.96224" lon="3.4999">
        <ele>129</ele>
        <time>2019-04-01T07:10:36Z</time>
      </trkpt>
      <trkpt lat="47.96221" lon="3.49994">
        <ele>129</ele>
        <time>2019-04-01T07:10:39Z</time>
      </trkpt>
      <trkpt lat="47.96218" lon="3.49999">
        <ele>126</ele>
        <time>2019-04-01T07:10:43Z</time>
      </trkpt>
      <trkpt lat="47.96215" lon="3.50002">
        <ele>127</ele>
        <time>2019-04-01T07:10:48Z</time>
      </trkpt>
      <trkpt lat="47.96214" lon="3.50005">
        <ele>126</ele>
        <time>2019-04-01T07:10:50Z</time>
      </trkpt>
      <trkpt lat="47.96209" lon="3.50011">
        <ele>127</ele>
        <time>2019-04-01T07:10:55Z</time>
      </trkpt>
      <trkpt lat="47.96205" lon="3.50019">
        <ele>127</ele>
        <time>2019-04-01T07:10:59Z</time>
      </trkpt>
      <trkpt lat="47.96202" lon="3.50025">
        <ele>127</ele>
        <time>2019-04-01T07:11:02Z</time>
      </trkpt>
      <trkpt lat="47.962" lon="3.50028">
        <ele>127</ele>
        <time>2019-04-01T07:11:04Z</time>
      </trkpt>
      <trkpt lat="47.96197" lon="3.50033">
        <ele>127</ele>
        <time>2019-04-01T07:11:08Z</time>
      </trkpt>
      <trkpt lat="47.96193" lon="3.50041">
        <ele>127</ele>
        <time>2019-04-01T07:11:12Z</time>
      </trkpt>
      <trkpt lat="47.9619" lon="3.50046">
        <ele>128</ele>
        <time>2019-04-01T07:11:15Z</time>
      </trkpt>
      <trkpt lat="47.96184" lon="3.50053">
        <ele>129</ele>
        <time>2019-04-01T07:11:20Z</time>
      </trkpt>
      <trkpt lat="47.9618" lon="3.50057">
        <ele>129</ele>
        <time>2019-04-01T07:11:24Z</time>
      </trkpt>
      <trkpt lat="47.96177" lon="3.50065">
        <ele>129</ele>
        <time>2019-04-01T07:11:28Z</time>
      </trkpt>
      <trkpt lat="47.96176" lon="3.50072">
        <ele>128</ele>
        <time>2019-04-01T07:11:32Z</time>
      </trkpt>
      <trkpt lat="47.96173" lon="3.50079">
        <ele>128</ele>
        <time>2019-04-01T07:11:36Z</time>
      </trkpt>
      <trkpt lat="47.96169" lon="3.50084">
        <ele>130</ele>
        <time>2019-04-01T07:11:41Z</time>
      </trkpt>
      <trkpt lat="47.96166" lon="3.50091">
        <ele>129</ele>
        <time>2019-04-01T07:11:45Z</time>
      </trkpt>
      <trkpt lat="47.96163" lon="3.50095">
        <ele>129</ele>
        <time>2019-04-01T07:11:48Z</time>
      </trkpt>
      <trkpt lat="47.96161" lon="3.50101">
        <ele>128</ele>
        <time>2019-04-01T07:11:52Z</time>
      </trkpt>
      <trkpt lat="47.96159" lon="3.50106">
        <ele>129</ele>
        <time>2019-04-01T07:11:55Z</time>
      </trkpt>
      <trkpt lat="47.96155" lon="3.50113">
        <ele>128</ele>
        <time>2019-04-01T07:11:59Z</time>
      </trkpt>
      <trkpt lat="47.96152" lon="3.50117">
        <ele>128</ele>
        <time>2019-04-01T07:12:03Z</time>
      </trkpt>
      <trkpt lat="47.96149" lon="3.50121">
        <ele>128</ele>
        <time>2019-04-01T07:12:06Z</time>
      </trkpt>
      <trkpt lat="47.96146" lon="3.50126">
        <ele>127</ele>
        <time>2019-04-01T07:12:10Z</time>
      </trkpt>
      <trkpt lat="47.96143" lon="3.50133">
        <ele>129</ele>
        <time>2019-04-01T07:12:14Z</time>
      </trkpt>
      <trkpt lat="47.96139" lon="3.50138">
        <ele>127</ele>
        <time>2019-04-01T07:12:19Z</time>
      </trkpt>
      <trkpt lat="47.96136" lon="3.50145">
        <ele>128</ele>
        <time>2019-04-01T07:12:23Z</time>
      </trkpt>
      <trkpt lat="47.96134" lon="3.50147">
        <ele>128</ele>
        <time>2019-04-01T07:12:25Z</time>
      </trkpt>
      <trkpt lat="47.96131" lon="3.50152">
        <ele>130</ele>
        <time>2019-04-01T07:12:28Z</time>
      </trkpt>
      <trkpt lat="47.96128" lon="3.5016">
        <ele>130</ele>
        <time>2019-04-01T07:12:31Z</time>
      </trkpt>
      <trkpt lat="47.96126" lon="3.50167">
        <ele>132</ele>
        <time>2019-04-01T07:12:35Z</time>
      </trkpt>
      <trkpt lat="47.96122" lon="3.50175">
        <ele>133</ele>
        <time>2019-04-01T07:12:38Z</time>
      </trkpt>
      <trkpt lat="47.96118" lon="3.50181">
        <ele>132</ele>
        <time>2019-04-01T07:12:44Z</time>
      </trkpt>
      <trkpt lat="47.96116" lon="3.50184">
        <ele>132</ele>
        <time>2019-04-01T07:12:47Z</time>
      </trkpt>
      <trkpt lat="47.96114" lon="3.50187">
        <ele>131</ele>
        <time>2019-04-01T07:12:49Z</time>
      </trkpt>
      <trkpt lat="47.9611" lon="3.50193">
        <ele>131</ele>
        <time>2019-04-01T07:12:53Z</time>
      </trkpt>
      <trkpt lat="47.96108" lon="3.50199">
        <ele>131</ele>
        <time>2019-04-01T07:12:57Z</time>
      </trkpt>
      <trkpt lat="47.96108" lon="3.50207">
        <ele>132</ele>
        <time>2019-04-01T07:13:01Z</time>
      </trkpt>
      <trkpt lat="47.96109" lon="3.50213">
        <ele>132</ele>
        <time>2019-04-01T07:13:04Z</time>
      </trkpt>
      <trkpt lat="47.96109" lon="3.5022">
        <ele>132</ele>
        <time>2019-04-01T07:13:08Z</time>
      </trkpt>
      <trkpt lat="47.96108" lon="3.50226">
        <ele>131</ele>
        <time>2019-04-01T07:13:11Z</time>
      </trkpt>
      <trkpt lat="47.96111" lon="3.50234">
        <ele>132</ele>
        <time>2019-04-01T07:13:16Z</time>
      </trkpt>
      <trkpt lat="47.96111" lon="3.50243">
        <ele>133</ele>
        <time>2019-04-01T07:13:21Z</time>
      </trkpt>
      <trkpt lat="47.96112" lon="3.50251">
        <ele>133</ele>
        <time>2019-04-01T07:13:25Z</time>
      </trkpt>
      <trkpt lat="47.96113" lon="3.5026">
        <ele>132</ele>
        <time>2019-04-01T07:13:30Z</time>
      </trkpt>
      <trkpt lat="47.96113" lon="3.50268">
        <ele>131</ele>
        <time>2019-04-01T07:13:34Z</time>
      </trkpt>
      <trkpt lat="47.96114" lon="3.50276">
        <ele>130</ele>
        <time>2019-04-01T07:13:38Z</time>
      </trkpt>
      <trkpt lat="47.96116" lon="3.50283">
        <ele>128</ele>
        <time>2019-04-01T07:13:41Z</time>
      </trkpt>
      <trkpt lat="47.96117" lon="3.50291">
        <ele>127</ele>
        <time>2019-04-01T07:13:45Z</time>
      </trkpt>
      <trkpt lat="47.96118" lon="3.50299">
        <ele>127</ele>
        <time>2019-04-01T07:13:50Z</time>
      </trkpt>
      <trkpt lat="47.9612" lon="3.50306">
        <ele>127</ele>
        <time>2019-04-01T07:13:54Z</time>
      </trkpt>
      <trkpt lat="47.9612" lon="3.50315">
        <ele>126</ele>
        <time>2019-04-01T07:13:59Z</time>
      </trkpt>
      <trkpt lat="47.96121" lon="3.5032">
        <ele>126</ele>
        <time>2019-04-01T07:14:01Z</time>
      </trkpt>
      <trkpt lat="47.96122" lon="3.50324">
        <ele>126</ele>
        <time>2019-04-01T07:14:03Z</time>
      </trkpt>
      <trkpt lat="47.96122" lon="3.50334">
        <ele>126</ele>
        <time>2019-04-01T07:14:08Z</time>
      </trkpt>
      <trkpt lat="47.96121" lon="3.50342">
        <ele>126</ele>
        <time>2019-04-01T07:14:11Z</time>
      </trkpt>
      <trkpt lat="47.96121" lon="3.50346">
        <ele>126</ele>
        <time>2019-04-01T07:14:13Z</time>
      </trkpt>
      <trkpt lat="47.96124" lon="3.50354">
        <ele>127</ele>
        <time>2019-04-01T07:14:17Z</time>
      </trkpt>
      <trkpt lat="47.96124" lon="3.50362">
        <ele>127</ele>
        <time>2019-04-01T07:14:21Z</time>
      </trkpt>
      <trkpt lat="47.96124" lon="3.50366">
        <ele>126</ele>
        <time>2019-04-01T07:14:24Z</time>
      </trkpt>
      <trkpt lat="47.96124" lon="3.50373">
        <ele>127</ele>
        <time>2019-04-01T07:14:27Z</time>
      </trkpt>
      <trkpt lat="47.96126" lon="3.50381">
        <ele>127</ele>
        <time>2019-04-01T07:14:31Z</time>
      </trkpt>
      <trkpt lat="47.96126" lon="3.50389">
        <ele>127</ele>
        <time>2019-04-01T07:14:35Z</time>
      </trkpt>
      <trkpt lat="47.96127" lon="3.50393">
        <ele>126</ele>
        <time>2019-04-01T07:14:37Z</time>
      </trkpt>
      <trkpt lat="47.96127" lon="3.50401">
        <ele>125</ele>
        <time>2019-04-01T07:14:41Z</time>
      </trkpt>
      <trkpt lat="47.96128" lon="3.5041">
        <ele>125</ele>
        <time>2019-04-01T07:14:45Z</time>
      </trkpt>
      <trkpt lat="47.96129" lon="3.50418">
        <ele>125</ele>
        <time>2019-04-01T07:14:50Z</time>
      </trkpt>
      <trkpt lat="47.9613" lon="3.50426">
        <ele>125</ele>
        <time>2019-04-01T07:14:54Z</time>
      </trkpt>
      <trkpt lat="47.96131" lon="3.50433">
        <ele>126</ele>
        <time>2019-04-01T07:14:59Z</time>
      </trkpt>
      <trkpt lat="47.96131" lon="3.50441">
        <ele>127</ele>
        <time>2019-04-01T07:15:03Z</time>
      </trkpt>
      <trkpt lat="47.96131" lon="3.50444">
        <ele>126</ele>
        <time>2019-04-01T07:15:05Z</time>
      </trkpt>
      <trkpt lat="47.96131" lon="3.50444">
        <ele>126</ele>
        <time>2019-04-01T07:15:10Z</time>
      </trkpt>
      <trkpt lat="47.96126" lon="3.50447">
        <ele>128</ele>
        <time>2019-04-01T07:15:11Z</time>
      </trkpt>
      <trkpt lat="47.96121" lon="3.50449">
        <ele>128</ele>
        <time>2019-04-01T07:15:15Z</time>
      </trkpt>
      <trkpt lat="47.96117" lon="3.50452">
        <ele>129</ele>
        <time>2019-04-01T07:15:19Z</time>
      </trkpt>
      <trkpt lat="47.96113" lon="3.50455">
        <ele>131</ele>
        <time>2019-04-01T07:15:23Z</time>
      </trkpt>
      <trkpt lat="47.9611" lon="3.50457">
        <ele>130</ele>
        <time>2019-04-01T07:15:26Z</time>
      </trkpt>
      <trkpt lat="47.96105" lon="3.50458">
        <ele>129</ele>
        <time>2019-04-01T07:15:30Z</time>
      </trkpt>
      <trkpt lat="47.961" lon="3.50458">
        <ele>130</ele>
        <time>2019-04-01T07:15:35Z</time>
      </trkpt>
      <trkpt lat="47.96098" lon="3.50458">
        <ele>130</ele>
        <time>2019-04-01T07:15:37Z</time>
      </trkpt>
      <trkpt lat="47.96094" lon="3.50458">
        <ele>130</ele>
        <time>2019-04-01T07:15:39Z</time>
      </trkpt>
      <trkpt lat="47.96089" lon="3.50457">
        <ele>130</ele>
        <time>2019-04-01T07:15:43Z</time>
      </trkpt>
      <trkpt lat="47.96086" lon="3.50457">
        <ele>130</ele>
        <time>2019-04-01T07:15:45Z</time>
      </trkpt>
      <trkpt lat="47.9608" lon="3.50452">
        <ele>132</ele>
        <time>2019-04-01T07:15:51Z</time>
      </trkpt>
      <trkpt lat="47.96078" lon="3.50451">
        <ele>131</ele>
        <time>2019-04-01T07:15:55Z</time>
      </trkpt>
      <trkpt lat="47.96076" lon="3.50452">
        <ele>131</ele>
        <time>2019-04-01T07:16:05Z</time>
      </trkpt>
      <trkpt lat="47.9608" lon="3.50469">
        <ele>131</ele>
        <time>2019-04-01T07:16:39Z</time>
      </trkpt>
      <trkpt lat="47.96085" lon="3.50474">
        <ele>131</ele>
        <time>2019-04-01T07:16:43Z</time>
      </trkpt>
      <trkpt lat="47.96087" lon="3.50475">
        <ele>129</ele>
        <time>2019-04-01T07:16:49Z</time>
      </trkpt>
      <trkpt lat="47.96081" lon="3.50457">
        <ele>129</ele>
        <time>2019-04-01T07:17:07Z</time>
      </trkpt>
      <trkpt lat="47.96081" lon="3.50448">
        <ele>128</ele>
        <time>2019-04-01T07:17:13Z</time>
      </trkpt>
      <trkpt lat="47.9608" lon="3.50444">
        <ele>129</ele>
        <time>2019-04-01T07:17:16Z</time>
      </trkpt>
      <trkpt lat="47.9608" lon="3.50436">
        <ele>130</ele>
        <time>2019-04-01T07:17:20Z</time>
      </trkpt>
      <trkpt lat="47.9608" lon="3.50428">
        <ele>130</ele>
        <time>2019-04-01T07:17:24Z</time>
      </trkpt>
      <trkpt lat="47.96079" lon="3.50422">
        <ele>129</ele>
        <time>2019-04-01T07:17:28Z</time>
      </trkpt>
      <trkpt lat="47.96078" lon="3.50417">
        <ele>129</ele>
        <time>2019-04-01T07:17:30Z</time>
      </trkpt>
      <trkpt lat="47.96078" lon="3.50411">
        <ele>129</ele>
        <time>2019-04-01T07:17:33Z</time>
      </trkpt>
      <trkpt lat="47.96077" lon="3.50404">
        <ele>128</ele>
        <time>2019-04-01T07:17:36Z</time>
      </trkpt>
      <trkpt lat="47.96076" lon="3.50398">
        <ele>129</ele>
        <time>2019-04-01T07:17:39Z</time>
      </trkpt>
      <trkpt lat="47.96076" lon="3.50391">
        <ele>129</ele>
        <time>2019-04-01T07:17:43Z</time>
      </trkpt>
      <trkpt lat="47.96075" lon="3.50383">
        <ele>130</ele>
        <time>2019-04-01T07:17:47Z</time>
      </trkpt>
      <trkpt lat="47.96075" lon="3.50383">
        <ele>130</ele>
        <time>2019-04-01T07:17:55Z</time>
      </trkpt>
      <trkpt lat="47.96075" lon="3.50383">
        <ele>130</ele>
        <time>2019-04-01T07:17:56Z</time>
      </trkpt>
      <trkpt lat="47.9607" lon="3.50379">
        <ele>126</ele>
        <time>2019-04-01T07:18:39Z</time>
      </trkpt>
      <trkpt lat="47.9607" lon="3.50367">
        <ele>125</ele>
        <time>2019-04-01T07:18:50Z</time>
      </trkpt>
      <trkpt lat="47.96071" lon="3.50363">
        <ele>126</ele>
        <time>2019-04-01T07:18:52Z</time>
      </trkpt>
      <trkpt lat="47.96071" lon="3.50358">
        <ele>127</ele>
        <time>2019-04-01T07:18:55Z</time>
      </trkpt>
      <trkpt lat="47.96069" lon="3.50351">
        <ele>125</ele>
        <time>2019-04-01T07:19:00Z</time>
      </trkpt>
      <trkpt lat="47.96069" lon="3.50343">
        <ele>125</ele>
        <time>2019-04-01T07:19:04Z</time>
      </trkpt>
      <trkpt lat="47.9607" lon="3.50335">
        <ele>126</ele>
        <time>2019-04-01T07:19:08Z</time>
      </trkpt>
      <trkpt lat="47.96069" lon="3.50328">
        <ele>126</ele>
        <time>2019-04-01T07:19:12Z</time>
      </trkpt>
      <trkpt lat="47.96069" lon="3.50321">
        <ele>126</ele>
        <time>2019-04-01T07:19:16Z</time>
      </trkpt>
      <trkpt lat="47.96069" lon="3.50313">
        <ele>126</ele>
        <time>2019-04-01T07:19:21Z</time>
      </trkpt>
      <trkpt lat="47.96069" lon="3.50304">
        <ele>127</ele>
        <time>2019-04-01T07:19:25Z</time>
      </trkpt>
      <trkpt lat="47.9607" lon="3.50295">
        <ele>129</ele>
        <time>2019-04-01T07:19:29Z</time>
      </trkpt>
      <trkpt lat="47.96068" lon="3.50289">
        <ele>129</ele>
        <time>2019-04-01T07:19:33Z</time>
      </trkpt>
      <trkpt lat="47.96067" lon="3.50282">
        <ele>127</ele>
        <time>2019-04-01T07:19:37Z</time>
      </trkpt>
      <trkpt lat="47.96068" lon="3.50275">
        <ele>128</ele>
        <time>2019-04-01T07:19:41Z</time>
      </trkpt>
      <trkpt lat="47.96068" lon="3.50272">
        <ele>129</ele>
        <time>2019-04-01T07:19:45Z</time>
      </trkpt>
      <trkpt lat="47.96068" lon="3.50264">
        <ele>129</ele>
        <time>2019-04-01T07:19:51Z</time>
      </trkpt>
      <trkpt lat="47.96066" lon="3.50257">
        <ele>130</ele>
        <time>2019-04-01T07:19:55Z</time>
      </trkpt>
      <trkpt lat="47.96065" lon="3.5025">
        <ele>129</ele>
        <time>2019-04-01T07:19:58Z</time>
      </trkpt>
      <trkpt lat="47.96066" lon="3.50242">
        <ele>127</ele>
        <time>2019-04-01T07:20:02Z</time>
      </trkpt>
      <trkpt lat="47.96064" lon="3.50235">
        <ele>126</ele>
        <time>2019-04-01T07:20:06Z</time>
      </trkpt>
      <trkpt lat="47.96064" lon="3.50227">
        <ele>126</ele>
        <time>2019-04-01T07:20:10Z</time>
      </trkpt>
      <trkpt lat="47.96062" lon="3.50219">
        <ele>126</ele>
        <time>2019-04-01T07:20:14Z</time>
      </trkpt>
      <trkpt lat="47.96061" lon="3.50216">
        <ele>125</ele>
        <time>2019-04-01T07:20:16Z</time>
      </trkpt>
      <trkpt lat="47.9606" lon="3.5021">
        <ele>125</ele>
        <time>2019-04-01T07:20:19Z</time>
      </trkpt>
      <trkpt lat="47.96059" lon="3.50206">
        <ele>126</ele>
        <time>2019-04-01T07:20:22Z</time>
      </trkpt>
      <trkpt lat="47.96057" lon="3.50201">
        <ele>126</ele>
        <time>2019-04-01T07:20:25Z</time>
      </trkpt>
      <trkpt lat="47.96054" lon="3.50195">
        <ele>126</ele>
        <time>2019-04-01T07:20:28Z</time>
      </trkpt>
      <trkpt lat="47.96052" lon="3.50192">
        <ele>126</ele>
        <time>2019-04-01T07:20:30Z</time>
      </trkpt>
      <trkpt lat="47.96048" lon="3.50187">
        <ele>127</ele>
        <time>2019-04-01T07:20:35Z</time>
      </trkpt>
      <trkpt lat="47.96043" lon="3.50186">
        <ele>128</ele>
        <time>2019-04-01T07:20:39Z</time>
      </trkpt>
      <trkpt lat="47.96037" lon="3.50185">
        <ele>129</ele>
        <time>2019-04-01T07:20:43Z</time>
      </trkpt>
      <trkpt lat="47.96033" lon="3.50184">
        <ele>129</ele>
        <time>2019-04-01T07:20:46Z</time>
      </trkpt>
      <trkpt lat="47.96027" lon="3.50185">
        <ele>129</ele>
        <time>2019-04-01T07:20:53Z</time>
      </trkpt>
      <trkpt lat="47.9602" lon="3.50183">
        <ele>129</ele>
        <time>2019-04-01T07:20:58Z</time>
      </trkpt>
      <trkpt lat="47.96018" lon="3.50181">
        <ele>129</ele>
        <time>2019-04-01T07:21:01Z</time>
      </trkpt>
      <trkpt lat="47.96015" lon="3.5018">
        <ele>129</ele>
        <time>2019-04-01T07:21:02Z</time>
      </trkpt>
      <trkpt lat="47.96006" lon="3.50181">
        <ele>129</ele>
        <time>2019-04-01T07:21:06Z</time>
      </trkpt>
      <trkpt lat="47.96" lon="3.50184">
        <ele>131</ele>
        <time>2019-04-01T07:21:08Z</time>
      </trkpt>
      <trkpt lat="47.95997" lon="3.50191">
        <ele>134</ele>
        <time>2019-04-01T07:21:13Z</time>
      </trkpt>
      <trkpt lat="47.95993" lon="3.50196">
        <ele>134</ele>
        <time>2019-04-01T07:21:16Z</time>
      </trkpt>
      <trkpt lat="47.9599" lon="3.50204">
        <ele>134</ele>
        <time>2019-04-01T07:21:20Z</time>
      </trkpt>
      <trkpt lat="47.95988" lon="3.50209">
        <ele>133</ele>
        <time>2019-04-01T07:21:24Z</time>
      </trkpt>
      <trkpt lat="47.95986" lon="3.50213">
        <ele>131</ele>
        <time>2019-04-01T07:21:26Z</time>
      </trkpt>
      <trkpt lat="47.95982" lon="3.50218">
        <ele>130</ele>
        <time>2019-04-01T07:21:30Z</time>
      </trkpt>
      <trkpt lat="47.95977" lon="3.50221">
        <ele>129</ele>
        <time>2019-04-01T07:21:34Z</time>
      </trkpt>
      <trkpt lat="47.95971" lon="3.50221">
        <ele>129</ele>
        <time>2019-04-01T07:21:40Z</time>
      </trkpt>
      <trkpt lat="47.95967" lon="3.50217">
        <ele>129</ele>
        <time>2019-04-01T07:21:44Z</time>
      </trkpt>
      <trkpt lat="47.95962" lon="3.50213">
        <ele>130</ele>
        <time>2019-04-01T07:21:48Z</time>
      </trkpt>
      <trkpt lat="47.95957" lon="3.50212">
        <ele>129</ele>
        <time>2019-04-01T07:21:52Z</time>
      </trkpt>
      <trkpt lat="47.95953" lon="3.50211">
        <ele>130</ele>
        <time>2019-04-01T07:21:54Z</time>
      </trkpt>
      <trkpt lat="47.95948" lon="3.50208">
        <ele>130</ele>
        <time>2019-04-01T07:21:58Z</time>
      </trkpt>
      <trkpt lat="47.95943" lon="3.50207">
        <ele>130</ele>
        <time>2019-04-01T07:22:02Z</time>
      </trkpt>
      <trkpt lat="47.95938" lon="3.50206">
        <ele>129</ele>
        <time>2019-04-01T07:22:06Z</time>
      </trkpt>
      <trkpt lat="47.95935" lon="3.50205">
        <ele>129</ele>
        <time>2019-04-01T07:22:08Z</time>
      </trkpt>
      <trkpt lat="47.95931" lon="3.50205">
        <ele>128</ele>
        <time>2019-04-01T07:22:11Z</time>
      </trkpt>
      <trkpt lat="47.95922" lon="3.50204">
        <ele>128</ele>
        <time>2019-04-01T07:22:17Z</time>
      </trkpt>
      <trkpt lat="47.95919" lon="3.50204">
        <ele>128</ele>
        <time>2019-04-01T07:22:19Z</time>
      </trkpt>
      <trkpt lat="47.95914" lon="3.50204">
        <ele>128</ele>
        <time>2019-04-01T07:22:22Z</time>
      </trkpt>
      <trkpt lat="47.95911" lon="3.50205">
        <ele>128</ele>
        <time>2019-04-01T07:22:24Z</time>
      </trkpt>
      <trkpt lat="47.95908" lon="3.50205">
        <ele>129</ele>
        <time>2019-04-01T07:22:26Z</time>
      </trkpt>
      <trkpt lat="47.95902" lon="3.50207">
        <ele>128</ele>
        <time>2019-04-01T07:22:31Z</time>
      </trkpt>
      <trkpt lat="47.95899" lon="3.50208">
        <ele>128</ele>
        <time>2019-04-01T07:22:33Z</time>
      </trkpt>
      <trkpt lat="47.95893" lon="3.50207">
        <ele>128</ele>
        <time>2019-04-01T07:22:37Z</time>
      </trkpt>
      <trkpt lat="47.95888" lon="3.50206">
        <ele>129</ele>
        <time>2019-04-01T07:22:42Z</time>
      </trkpt>
      <trkpt lat="47.95885" lon="3.50204">
        <ele>128</ele>
        <time>2019-04-01T07:22:45Z</time>
      </trkpt>
      <trkpt lat="47.95879" lon="3.50204">
        <ele>128</ele>
        <time>2019-04-01T07:22:49Z</time>
      </trkpt>
      <trkpt lat="47.95877" lon="3.50204">
        <ele>129</ele>
        <time>2019-04-01T07:22:51Z</time>
      </trkpt>
      <trkpt lat="47.95874" lon="3.50204">
        <ele>129</ele>
        <time>2019-04-01T07:22:53Z</time>
      </trkpt>
      <trkpt lat="47.95871" lon="3.50205">
        <ele>129</ele>
        <time>2019-04-01T07:22:55Z</time>
      </trkpt>
      <trkpt lat="47.95866" lon="3.50206">
        <ele>129</ele>
        <time>2019-04-01T07:22:59Z</time>
      </trkpt>
      <trkpt lat="47.95861" lon="3.50208">
        <ele>128</ele>
        <time>2019-04-01T07:23:03Z</time>
      </trkpt>
      <trkpt lat="47.95856" lon="3.50208">
        <ele>128</ele>
        <time>2019-04-01T07:23:07Z</time>
      </trkpt>
      <trkpt lat="47.95852" lon="3.50208">
        <ele>128</ele>
        <time>2019-04-01T07:23:10Z</time>
      </trkpt>
      <trkpt lat="47.95849" lon="3.50208">
        <ele>128</ele>
        <time>2019-04-01T07:23:12Z</time>
      </trkpt>
      <trkpt lat="47.95845" lon="3.50208">
        <ele>128</ele>
        <time>2019-04-01T07:23:14Z</time>
      </trkpt>
      <trkpt lat="47.95841" lon="3.50208">
        <ele>128</ele>
        <time>2019-04-01T07:23:17Z</time>
      </trkpt>
      <trkpt lat="47.95838" lon="3.50208">
        <ele>128</ele>
        <time>2019-04-01T07:23:19Z</time>
      </trkpt>
      <trkpt lat="47.95834" lon="3.50208">
        <ele>129</ele>
        <time>2019-04-01T07:23:22Z</time>
      </trkpt>
      <trkpt lat="47.95829" lon="3.5021">
        <ele>129</ele>
        <time>2019-04-01T07:23:26Z</time>
      </trkpt>
      <trkpt lat="47.95825" lon="3.50211">
        <ele>129</ele>
        <time>2019-04-01T07:23:30Z</time>
      </trkpt>
      <trkpt lat="47.9582" lon="3.50212">
        <ele>129</ele>
        <time>2019-04-01T07:23:35Z</time>
      </trkpt>
      <trkpt lat="47.95819" lon="3.5021">
        <ele>127</ele>
        <time>2019-04-01T07:23:43Z</time>
      </trkpt>
      <trkpt lat="47.95815" lon="3.50204">
        <ele>128</ele>
        <time>2019-04-01T07:23:52Z</time>
      </trkpt>
      <trkpt lat="47.9581" lon="3.50204">
        <ele>128</ele>
        <time>2019-04-01T07:23:55Z</time>
      </trkpt>
      <trkpt lat="47.95805" lon="3.50203">
        <ele>129</ele>
        <time>2019-04-01T07:24:02Z</time>
      </trkpt>
      <trkpt lat="47.95801" lon="3.50202">
        <ele>130</ele>
        <time>2019-04-01T07:24:05Z</time>
      </trkpt>
      <trkpt lat="47.95796" lon="3.50204">
        <ele>130</ele>
        <time>2019-04-01T07:24:08Z</time>
      </trkpt>
      <trkpt lat="47.95792" lon="3.50207">
        <ele>129</ele>
        <time>2019-04-01T07:24:11Z</time>
      </trkpt>
      <trkpt lat="47.95789" lon="3.50208">
        <ele>130</ele>
        <time>2019-04-01T07:24:13Z</time>
      </trkpt>
      <trkpt lat="47.95787" lon="3.5021">
        <ele>129</ele>
        <time>2019-04-01T07:24:15Z</time>
      </trkpt>
      <trkpt lat="47.95784" lon="3.50212">
        <ele>129</ele>
        <time>2019-04-01T07:24:17Z</time>
      </trkpt>
      <trkpt lat="47.95782" lon="3.50214">
        <ele>130</ele>
        <time>2019-04-01T07:24:19Z</time>
      </trkpt>
      <trkpt lat="47.95777" lon="3.50215">
        <ele>129</ele>
        <time>2019-04-01T07:24:22Z</time>
      </trkpt>
      <trkpt lat="47.95773" lon="3.50216">
        <ele>129</ele>
        <time>2019-04-01T07:24:25Z</time>
      </trkpt>
      <trkpt lat="47.95768" lon="3.50216">
        <ele>130</ele>
        <time>2019-04-01T07:24:28Z</time>
      </trkpt>
      <trkpt lat="47.95764" lon="3.50217">
        <ele>130</ele>
        <time>2019-04-01T07:24:31Z</time>
      </trkpt>
      <trkpt lat="47.95761" lon="3.50217">
        <ele>131</ele>
        <time>2019-04-01T07:24:33Z</time>
      </trkpt>
      <trkpt lat="47.95756" lon="3.50217">
        <ele>131</ele>
        <time>2019-04-01T07:24:37Z</time>
      </trkpt>
      <trkpt lat="47.95751" lon="3.50217">
        <ele>131</ele>
        <time>2019-04-01T07:24:40Z</time>
      </trkpt>
      <trkpt lat="47.95746" lon="3.5022">
        <ele>131</ele>
        <time>2019-04-01T07:24:44Z</time>
      </trkpt>
      <trkpt lat="47.95742" lon="3.50221">
        <ele>131</ele>
        <time>2019-04-01T07:24:48Z</time>
      </trkpt>
      <trkpt lat="47.95737" lon="3.50223">
        <ele>132</ele>
        <time>2019-04-01T07:24:53Z</time>
      </trkpt>
      <trkpt lat="47.9573" lon="3.50221">
        <ele>132</ele>
        <time>2019-04-01T07:24:58Z</time>
      </trkpt>
      <trkpt lat="47.95722" lon="3.5022">
        <ele>131</ele>
        <time>2019-04-01T07:25:03Z</time>
      </trkpt>
      <trkpt lat="47.95719" lon="3.50222">
        <ele>132</ele>
        <time>2019-04-01T07:25:12Z</time>
      </trkpt>
      <trkpt lat="47.95713" lon="3.50224">
        <ele>133</ele>
        <time>2019-04-01T07:26:08Z</time>
      </trkpt>
      <trkpt lat="47.95707" lon="3.50227">
        <ele>134</ele>
        <time>2019-04-01T07:26:13Z</time>
      </trkpt>
      <trkpt lat="47.95703" lon="3.50232">
        <ele>132</ele>
        <time>2019-04-01T07:26:17Z</time>
      </trkpt>
      <trkpt lat="47.95703" lon="3.50232">
        <ele>132</ele>
        <time>2019-04-01T07:26:25Z</time>
      </trkpt>
      <trkpt lat="47.95698" lon="3.50234">
        <ele>131</ele>
        <time>2019-04-01T07:26:26Z</time>
      </trkpt>
      <trkpt lat="47.95694" lon="3.50234">
        <ele>131</ele>
        <time>2019-04-01T07:26:31Z</time>
      </trkpt>
      <trkpt lat="47.95689" lon="3.50235">
        <ele>132</ele>
        <time>2019-04-01T07:26:35Z</time>
      </trkpt>
      <trkpt lat="47.95683" lon="3.50233">
        <ele>131</ele>
        <time>2019-04-01T07:26:41Z</time>
      </trkpt>
      <trkpt lat="47.95679" lon="3.50228">
        <ele>132</ele>
        <time>2019-04-01T07:26:47Z</time>
      </trkpt>
      <trkpt lat="47.95677" lon="3.50221">
        <ele>132</ele>
        <time>2019-04-01T07:26:53Z</time>
      </trkpt>
      <trkpt lat="47.9567" lon="3.50223">
        <ele>134</ele>
        <time>2019-04-01T07:27:24Z</time>
      </trkpt>
      <trkpt lat="47.95668" lon="3.50213">
        <ele>132</ele>
        <time>2019-04-01T07:27:31Z</time>
      </trkpt>
      <trkpt lat="47.95668" lon="3.50206">
        <ele>131</ele>
        <time>2019-04-01T07:27:35Z</time>
      </trkpt>
      <trkpt lat="47.95667" lon="3.50199">
        <ele>131</ele>
        <time>2019-04-01T07:27:39Z</time>
      </trkpt>
      <trkpt lat="47.95667" lon="3.50191">
        <ele>131</ele>
        <time>2019-04-01T07:27:43Z</time>
      </trkpt>
      <trkpt lat="47.95665" lon="3.50183">
        <ele>130</ele>
        <time>2019-04-01T07:27:46Z</time>
      </trkpt>
      <trkpt lat="47.95665" lon="3.50176">
        <ele>131</ele>
        <time>2019-04-01T07:27:50Z</time>
      </trkpt>
      <trkpt lat="47.95662" lon="3.50176">
        <ele>131</ele>
        <time>2019-04-01T07:27:57Z</time>
      </trkpt>
      <trkpt lat="47.95662" lon="3.50169">
        <ele>132</ele>
        <time>2019-04-01T07:28:03Z</time>
      </trkpt>
      <trkpt lat="47.95663" lon="3.50161">
        <ele>132</ele>
        <time>2019-04-01T07:28:08Z</time>
      </trkpt>
      <trkpt lat="47.95663" lon="3.50158">
        <ele>132</ele>
        <time>2019-04-01T07:28:10Z</time>
      </trkpt>
      <trkpt lat="47.95662" lon="3.50149">
        <ele>132</ele>
        <time>2019-04-01T07:28:15Z</time>
      </trkpt>
      <trkpt lat="47.95661" lon="3.50145">
        <ele>133</ele>
        <time>2019-04-01T07:28:17Z</time>
      </trkpt>
      <trkpt lat="47.95661" lon="3.50137">
        <ele>133</ele>
        <time>2019-04-01T07:28:21Z</time>
      </trkpt>
      <trkpt lat="47.95659" lon="3.50132">
        <ele>133</ele>
        <time>2019-04-01T07:28:25Z</time>
      </trkpt>
      <trkpt lat="47.95658" lon="3.50123">
        <ele>132</ele>
        <time>2019-04-01T07:28:29Z</time>
      </trkpt>
      <trkpt lat="47.95659" lon="3.50114">
        <ele>132</ele>
        <time>2019-04-01T07:28:33Z</time>
      </trkpt>
      <trkpt lat="47.95658" lon="3.50106">
        <ele>132</ele>
        <time>2019-04-01T07:28:37Z</time>
      </trkpt>
      <trkpt lat="47.95659" lon="3.50098">
        <ele>133</ele>
        <time>2019-04-01T07:28:41Z</time>
      </trkpt>
      <trkpt lat="47.95659" lon="3.50088">
        <ele>134</ele>
        <time>2019-04-01T07:28:47Z</time>
      </trkpt>
      <trkpt lat="47.95658" lon="3.5008">
        <ele>133</ele>
        <time>2019-04-01T07:28:51Z</time>
      </trkpt>
      <trkpt lat="47.95657" lon="3.50073">
        <ele>133</ele>
        <time>2019-04-01T07:28:55Z</time>
      </trkpt>
      <trkpt lat="47.95657" lon="3.50069">
        <ele>133</ele>
        <time>2019-04-01T07:28:58Z</time>
      </trkpt>
      <trkpt lat="47.95657" lon="3.50068">
        <ele>134</ele>
        <time>2019-04-01T07:29:07Z</time>
      </trkpt>
      <trkpt lat="47.9565" lon="3.50079">
        <ele>131</ele>
        <time>2019-04-01T07:29:25Z</time>
      </trkpt>
      <trkpt lat="47.95644" lon="3.50074">
        <ele>132</ele>
        <time>2019-04-01T07:29:29Z</time>
      </trkpt>
      <trkpt lat="47.95638" lon="3.50072">
        <ele>133</ele>
        <time>2019-04-01T07:29:34Z</time>
      </trkpt>
      <trkpt lat="47.95634" lon="3.50073">
        <ele>131</ele>
        <time>2019-04-01T07:29:44Z</time>
      </trkpt>
      <trkpt lat="47.95631" lon="3.50074">
        <ele>132</ele>
        <time>2019-04-01T07:29:46Z</time>
      </trkpt>
      <trkpt lat="47.95626" lon="3.50074">
        <ele>132</ele>
        <time>2019-04-01T07:29:50Z</time>
      </trkpt>
      <trkpt lat="47.95619" lon="3.50074">
        <ele>133</ele>
        <time>2019-04-01T07:29:55Z</time>
      </trkpt>
      <trkpt lat="47.95614" lon="3.50073">
        <ele>131</ele>
        <time>2019-04-01T07:29:58Z</time>
      </trkpt>
      <trkpt lat="47.95611" lon="3.50073">
        <ele>131</ele>
        <time>2019-04-01T07:30:00Z</time>
      </trkpt>
      <trkpt lat="47.95606" lon="3.50074">
        <ele>131</ele>
        <time>2019-04-01T07:30:04Z</time>
      </trkpt>
      <trkpt lat="47.95602" lon="3.50074">
        <ele>130</ele>
        <time>2019-04-01T07:30:06Z</time>
      </trkpt>
      <trkpt lat="47.95599" lon="3.50075">
        <ele>130</ele>
        <time>2019-04-01T07:30:08Z</time>
      </trkpt>
      <trkpt lat="47.95594" lon="3.50075">
        <ele>130</ele>
        <time>2019-04-01T07:30:11Z</time>
      </trkpt>
      <trkpt lat="47.95589" lon="3.50076">
        <ele>130</ele>
        <time>2019-04-01T07:30:16Z</time>
      </trkpt>
      <trkpt lat="47.95585" lon="3.50077">
        <ele>130</ele>
        <time>2019-04-01T07:30:20Z</time>
      </trkpt>
      <trkpt lat="47.95582" lon="3.50078">
        <ele>130</ele>
        <time>2019-04-01T07:30:22Z</time>
      </trkpt>
      <trkpt lat="47.95579" lon="3.50079">
        <ele>130</ele>
        <time>2019-04-01T07:30:25Z</time>
      </trkpt>
      <trkpt lat="47.95575" lon="3.50081">
        <ele>130</ele>
        <time>2019-04-01T07:30:29Z</time>
      </trkpt>
      <trkpt lat="47.9557" lon="3.50084">
        <ele>130</ele>
        <time>2019-04-01T07:30:32Z</time>
      </trkpt>
      <trkpt lat="47.95565" lon="3.50085">
        <ele>129</ele>
        <time>2019-04-01T07:30:35Z</time>
      </trkpt>
      <trkpt lat="47.9556" lon="3.50084">
        <ele>130</ele>
        <time>2019-04-01T07:30:40Z</time>
      </trkpt>
      <trkpt lat="47.95556" lon="3.50083">
        <ele>131</ele>
        <time>2019-04-01T07:30:45Z</time>
      </trkpt>
      <trkpt lat="47.95549" lon="3.50085">
        <ele>130</ele>
        <time>2019-04-01T07:30:50Z</time>
      </trkpt>
      <trkpt lat="47.95544" lon="3.50085">
        <ele>130</ele>
        <time>2019-04-01T07:30:53Z</time>
      </trkpt>
      <trkpt lat="47.95539" lon="3.50087">
        <ele>129</ele>
        <time>2019-04-01T07:30:57Z</time>
      </trkpt>
      <trkpt lat="47.95536" lon="3.50088">
        <ele>129</ele>
        <time>2019-04-01T07:31:00Z</time>
      </trkpt>
      <trkpt lat="47.95528" lon="3.5009">
        <ele>128</ele>
        <time>2019-04-01T07:31:08Z</time>
      </trkpt>
      <trkpt lat="47.95521" lon="3.50092">
        <ele>129</ele>
        <time>2019-04-01T07:31:13Z</time>
      </trkpt>
      <trkpt lat="47.95517" lon="3.50093">
        <ele>129</ele>
        <time>2019-04-01T07:31:15Z</time>
      </trkpt>
      <trkpt lat="47.95515" lon="3.50093">
        <ele>128</ele>
        <time>2019-04-01T07:31:17Z</time>
      </trkpt>
      <trkpt lat="47.9551" lon="3.50096">
        <ele>129</ele>
        <time>2019-04-01T07:31:20Z</time>
      </trkpt>
      <trkpt lat="47.95506" lon="3.50098">
        <ele>128</ele>
        <time>2019-04-01T07:31:23Z</time>
      </trkpt>
      <trkpt lat="47.95501" lon="3.50101">
        <ele>129</ele>
        <time>2019-04-01T07:31:27Z</time>
      </trkpt>
      <trkpt lat="47.95496" lon="3.50105">
        <ele>129</ele>
        <time>2019-04-01T07:31:32Z</time>
      </trkpt>
      <trkpt lat="47.95493" lon="3.50108">
        <ele>129</ele>
        <time>2019-04-01T07:31:34Z</time>
      </trkpt>
      <trkpt lat="47.95488" lon="3.50111">
        <ele>130</ele>
        <time>2019-04-01T07:31:38Z</time>
      </trkpt>
      <trkpt lat="47.95483" lon="3.50113">
        <ele>128</ele>
        <time>2019-04-01T07:31:42Z</time>
      </trkpt>
      <trkpt lat="47.95479" lon="3.50114">
        <ele>128</ele>
        <time>2019-04-01T07:31:45Z</time>
      </trkpt>
      <trkpt lat="47.95476" lon="3.5012">
        <ele>129</ele>
        <time>2019-04-01T07:31:50Z</time>
      </trkpt>
      <trkpt lat="47.95471" lon="3.50127">
        <ele>131</ele>
        <time>2019-04-01T07:31:56Z</time>
      </trkpt>
      <trkpt lat="47.95469" lon="3.5013">
        <ele>130</ele>
        <time>2019-04-01T07:31:59Z</time>
      </trkpt>
      <trkpt lat="47.95467" lon="3.50138">
        <ele>130</ele>
        <time>2019-04-01T07:32:05Z</time>
      </trkpt>
      <trkpt lat="47.95464" lon="3.50144">
        <ele>130</ele>
        <time>2019-04-01T07:32:09Z</time>
      </trkpt>
      <trkpt lat="47.9546" lon="3.5015">
        <ele>130</ele>
        <time>2019-04-01T07:32:13Z</time>
      </trkpt>
      <trkpt lat="47.95457" lon="3.50154">
        <ele>132</ele>
        <time>2019-04-01T07:32:17Z</time>
      </trkpt>
      <trkpt lat="47.95455" lon="3.5016">
        <ele>132</ele>
        <time>2019-04-01T07:32:20Z</time>
      </trkpt>
      <trkpt lat="47.95453" lon="3.50163">
        <ele>132</ele>
        <time>2019-04-01T07:32:22Z</time>
      </trkpt>
      <trkpt lat="47.95453" lon="3.5017">
        <ele>134</ele>
        <time>2019-04-01T07:32:27Z</time>
      </trkpt>
      <trkpt lat="47.9545" lon="3.50177">
        <ele>135</ele>
        <time>2019-04-01T07:32:32Z</time>
      </trkpt>
      <trkpt lat="47.95447" lon="3.50182">
        <ele>135</ele>
        <time>2019-04-01T07:32:36Z</time>
      </trkpt>
      <trkpt lat="47.95444" lon="3.50186">
        <ele>136</ele>
        <time>2019-04-01T07:32:38Z</time>
      </trkpt>
      <trkpt lat="47.95442" lon="3.50192">
        <ele>135</ele>
        <time>2019-04-01T07:32:42Z</time>
      </trkpt>
      <trkpt lat="47.9544" lon="3.50201">
        <ele>134</ele>
        <time>2019-04-01T07:32:47Z</time>
      </trkpt>
      <trkpt lat="47.95436" lon="3.50209">
        <ele>133</ele>
        <time>2019-04-01T07:32:52Z</time>
      </trkpt>
      <trkpt lat="47.95435" lon="3.50216">
        <ele>133</ele>
        <time>2019-04-01T07:32:55Z</time>
      </trkpt>
      <trkpt lat="47.95434" lon="3.50223">
        <ele>134</ele>
        <time>2019-04-01T07:32:58Z</time>
      </trkpt>
      <trkpt lat="47.95434" lon="3.50231">
        <ele>134</ele>
        <time>2019-04-01T07:33:01Z</time>
      </trkpt>
      <trkpt lat="47.95434" lon="3.50235">
        <ele>133</ele>
        <time>2019-04-01T07:33:03Z</time>
      </trkpt>
      <trkpt lat="47.95434" lon="3.50241">
        <ele>134</ele>
        <time>2019-04-01T07:33:05Z</time>
      </trkpt>
      <trkpt lat="47.95434" lon="3.50246">
        <ele>134</ele>
        <time>2019-04-01T07:33:07Z</time>
      </trkpt>
      <trkpt lat="47.95434" lon="3.5025">
        <ele>134</ele>
        <time>2019-04-01T07:33:09Z</time>
      </trkpt>
      <trkpt lat="47.95434" lon="3.50256">
        <ele>133</ele>
        <time>2019-04-01T07:33:12Z</time>
      </trkpt>
      <trkpt lat="47.95434" lon="3.5026">
        <ele>133</ele>
        <time>2019-04-01T07:33:14Z</time>
      </trkpt>
      <trkpt lat="47.95435" lon="3.50266">
        <ele>133</ele>
        <time>2019-04-01T07:33:18Z</time>
      </trkpt>
      <trkpt lat="47.95435" lon="3.50269">
        <ele>132</ele>
        <time>2019-04-01T07:33:20Z</time>
      </trkpt>
      <trkpt lat="47.95435" lon="3.50278">
        <ele>133</ele>
        <time>2019-04-01T07:33:25Z</time>
      </trkpt>
      <trkpt lat="47.95435" lon="3.50282">
        <ele>133</ele>
        <time>2019-04-01T07:33:27Z</time>
      </trkpt>
      <trkpt lat="47.95437" lon="3.50289">
        <ele>132</ele>
        <time>2019-04-01T07:33:32Z</time>
      </trkpt>
      <trkpt lat="47.95438" lon="3.50293">
        <ele>133</ele>
        <time>2019-04-01T07:33:35Z</time>
      </trkpt>
      <trkpt lat="47.95437" lon="3.50302">
        <ele>133</ele>
        <time>2019-04-01T07:33:40Z</time>
      </trkpt>
      <trkpt lat="47.95437" lon="3.5031">
        <ele>133</ele>
        <time>2019-04-01T07:33:44Z</time>
      </trkpt>
      <trkpt lat="47.95437" lon="3.50314">
        <ele>133</ele>
        <time>2019-04-01T07:33:46Z</time>
      </trkpt>
      <trkpt lat="47.95437" lon="3.50321">
        <ele>134</ele>
        <time>2019-04-01T07:33:49Z</time>
      </trkpt>
      <trkpt lat="47.95437" lon="3.50326">
        <ele>134</ele>
        <time>2019-04-01T07:33:51Z</time>
      </trkpt>
      <trkpt lat="47.95437" lon="3.50331">
        <ele>134</ele>
        <time>2019-04-01T07:33:54Z</time>
      </trkpt>
      <trkpt lat="47.95437" lon="3.50337">
        <ele>133</ele>
        <time>2019-04-01T07:33:57Z</time>
      </trkpt>
      <trkpt lat="47.95437" lon="3.50341">
        <ele>133</ele>
        <time>2019-04-01T07:33:59Z</time>
      </trkpt>
      <trkpt lat="47.95438" lon="3.50348">
        <ele>134</ele>
        <time>2019-04-01T07:34:03Z</time>
      </trkpt>
      <trkpt lat="47.95438" lon="3.50356">
        <ele>134</ele>
        <time>2019-04-01T07:34:07Z</time>
      </trkpt>
      <trkpt lat="47.95437" lon="3.5036">
        <ele>134</ele>
        <time>2019-04-01T07:34:09Z</time>
      </trkpt>
      <trkpt lat="47.95437" lon="3.50368">
        <ele>134</ele>
        <time>2019-04-01T07:34:13Z</time>
      </trkpt>
      <trkpt lat="47.95437" lon="3.50373">
        <ele>134</ele>
        <time>2019-04-01T07:34:16Z</time>
      </trkpt>
      <trkpt lat="47.95436" lon="3.50377">
        <ele>134</ele>
        <time>2019-04-01T07:34:18Z</time>
      </trkpt>
      <trkpt lat="47.95436" lon="3.50383">
        <ele>134</ele>
        <time>2019-04-01T07:34:21Z</time>
      </trkpt>
      <trkpt lat="47.95435" lon="3.50388">
        <ele>134</ele>
        <time>2019-04-01T07:34:23Z</time>
      </trkpt>
      <trkpt lat="47.95435" lon="3.50391">
        <ele>134</ele>
        <time>2019-04-01T07:34:25Z</time>
      </trkpt>
      <trkpt lat="47.95435" lon="3.50398">
        <ele>134</ele>
        <time>2019-04-01T07:34:28Z</time>
      </trkpt>
      <trkpt lat="47.95434" lon="3.50405">
        <ele>134</ele>
        <time>2019-04-01T07:34:34Z</time>
      </trkpt>
      <trkpt lat="47.95433" lon="3.50409">
        <ele>135</ele>
        <time>2019-04-01T07:34:36Z</time>
      </trkpt>
      <trkpt lat="47.95433" lon="3.50416">
        <ele>134</ele>
        <time>2019-04-01T07:34:40Z</time>
      </trkpt>
      <trkpt lat="47.95433" lon="3.5042">
        <ele>134</ele>
        <time>2019-04-01T07:34:42Z</time>
      </trkpt>
      <trkpt lat="47.95433" lon="3.50424">
        <ele>133</ele>
        <time>2019-04-01T07:34:44Z</time>
      </trkpt>
      <trkpt lat="47.95432" lon="3.50428">
        <ele>133</ele>
        <time>2019-04-01T07:34:46Z</time>
      </trkpt>
      <trkpt lat="47.95432" lon="3.50434">
        <ele>132</ele>
        <time>2019-04-01T07:34:49Z</time>
      </trkpt>
      <trkpt lat="47.95429" lon="3.5044">
        <ele>132</ele>
        <time>2019-04-01T07:34:53Z</time>
      </trkpt>
      <trkpt lat="47.95428" lon="3.50444">
        <ele>132</ele>
        <time>2019-04-01T07:34:55Z</time>
      </trkpt>
      <trkpt lat="47.95423" lon="3.50446">
        <ele>132</ele>
        <time>2019-04-01T07:35:00Z</time>
      </trkpt>
      <trkpt lat="47.95425" lon="3.5046">
        <ele>130</ele>
        <time>2019-04-01T07:35:09Z</time>
      </trkpt>
      <trkpt lat="47.95425" lon="3.50469">
        <ele>130</ele>
        <time>2019-04-01T07:35:12Z</time>
      </trkpt>
      <trkpt lat="47.95426" lon="3.50479">
        <ele>129</ele>
        <time>2019-04-01T07:35:15Z</time>
      </trkpt>
      <trkpt lat="47.95425" lon="3.50488">
        <ele>128</ele>
        <time>2019-04-01T07:35:18Z</time>
      </trkpt>
      <trkpt lat="47.95425" lon="3.50492">
        <ele>128</ele>
        <time>2019-04-01T07:35:19Z</time>
      </trkpt>
      <trkpt lat="47.95424" lon="3.50497">
        <ele>128</ele>
        <time>2019-04-01T07:35:21Z</time>
      </trkpt>
      <trkpt lat="47.95423" lon="3.50505">
        <ele>127</ele>
        <time>2019-04-01T07:35:25Z</time>
      </trkpt>
      <trkpt lat="47.95423" lon="3.50508">
        <ele>127</ele>
        <time>2019-04-01T07:35:27Z</time>
      </trkpt>
      <trkpt lat="47.9542" lon="3.50517">
        <ele>129</ele>
        <time>2019-04-01T07:35:32Z</time>
      </trkpt>
      <trkpt lat="47.95417" lon="3.50524">
        <ele>129</ele>
        <time>2019-04-01T07:35:37Z</time>
      </trkpt>
      <trkpt lat="47.95413" lon="3.50527">
        <ele>131</ele>
        <time>2019-04-01T07:35:44Z</time>
      </trkpt>
      <trkpt lat="47.95409" lon="3.5053">
        <ele>131</ele>
        <time>2019-04-01T07:35:49Z</time>
      </trkpt>
      <trkpt lat="47.95407" lon="3.50531">
        <ele>132</ele>
        <time>2019-04-01T07:35:51Z</time>
      </trkpt>
      <trkpt lat="47.95404" lon="3.50538">
        <ele>133</ele>
        <time>2019-04-01T07:35:54Z</time>
      </trkpt>
      <trkpt lat="47.954" lon="3.50543">
        <ele>132</ele>
        <time>2019-04-01T07:36:00Z</time>
      </trkpt>
      <trkpt lat="47.95396" lon="3.50548">
        <ele>132</ele>
        <time>2019-04-01T07:36:04Z</time>
      </trkpt>
      <trkpt lat="47.95394" lon="3.50554">
        <ele>133</ele>
        <time>2019-04-01T07:36:08Z</time>
      </trkpt>
      <trkpt lat="47.95389" lon="3.50559">
        <ele>134</ele>
        <time>2019-04-01T07:36:13Z</time>
      </trkpt>
      <trkpt lat="47.95386" lon="3.50567">
        <ele>135</ele>
        <time>2019-04-01T07:36:17Z</time>
      </trkpt>
      <trkpt lat="47.95383" lon="3.50572">
        <ele>135</ele>
        <time>2019-04-01T07:36:21Z</time>
      </trkpt>
      <trkpt lat="47.95378" lon="3.50577">
        <ele>134</ele>
        <time>2019-04-01T07:36:25Z</time>
      </trkpt>
      <trkpt lat="47.95374" lon="3.5058">
        <ele>134</ele>
        <time>2019-04-01T07:36:28Z</time>
      </trkpt>
      <trkpt lat="47.9537" lon="3.50584">
        <ele>133</ele>
        <time>2019-04-01T07:36:32Z</time>
      </trkpt>
      <trkpt lat="47.95368" lon="3.50587">
        <ele>134</ele>
        <time>2019-04-01T07:36:34Z</time>
      </trkpt>
      <trkpt lat="47.95365" lon="3.50593">
        <ele>134</ele>
        <time>2019-04-01T07:36:38Z</time>
      </trkpt>
      <trkpt lat="47.95361" lon="3.506">
        <ele>135</ele>
        <time>2019-04-01T07:36:42Z</time>
      </trkpt>
      <trkpt lat="47.95357" lon="3.50605">
        <ele>135</ele>
        <time>2019-04-01T07:36:46Z</time>
      </trkpt>
      <trkpt lat="47.95354" lon="3.50608">
        <ele>134</ele>
        <time>2019-04-01T07:36:48Z</time>
      </trkpt>
      <trkpt lat="47.95351" lon="3.5061">
        <ele>134</ele>
        <time>2019-04-01T07:36:50Z</time>
      </trkpt>
      <trkpt lat="47.95349" lon="3.50612">
        <ele>133</ele>
        <time>2019-04-01T07:36:52Z</time>
      </trkpt>
      <trkpt lat="47.95346" lon="3.50616">
        <ele>134</ele>
        <time>2019-04-01T07:36:56Z</time>
      </trkpt>
      <trkpt lat="47.95342" lon="3.5062">
        <ele>134</ele>
        <time>2019-04-01T07:37:00Z</time>
      </trkpt>
      <trkpt lat="47.95338" lon="3.50627">
        <ele>134</ele>
        <time>2019-04-01T07:37:04Z</time>
      </trkpt>
      <trkpt lat="47.95333" lon="3.50633">
        <ele>133</ele>
        <time>2019-04-01T07:37:09Z</time>
      </trkpt>
      <trkpt lat="47.95329" lon="3.50637">
        <ele>133</ele>
        <time>2019-04-01T07:37:12Z</time>
      </trkpt>
      <trkpt lat="47.95324" lon="3.5064">
        <ele>134</ele>
        <time>2019-04-01T07:37:17Z</time>
      </trkpt>
      <trkpt lat="47.95319" lon="3.50644">
        <ele>134</ele>
        <time>2019-04-01T07:37:21Z</time>
      </trkpt>
      <trkpt lat="47.95316" lon="3.50646">
        <ele>134</ele>
        <time>2019-04-01T07:37:23Z</time>
      </trkpt>
      <trkpt lat="47.95313" lon="3.50651">
        <ele>134</ele>
        <time>2019-04-01T07:37:27Z</time>
      </trkpt>
      <trkpt lat="47.95309" lon="3.50653">
        <ele>135</ele>
        <time>2019-04-01T07:37:31Z</time>
      </trkpt>
      <trkpt lat="47.95304" lon="3.50656">
        <ele>134</ele>
        <time>2019-04-01T07:37:35Z</time>
      </trkpt>
      <trkpt lat="47.953" lon="3.5066">
        <ele>133</ele>
        <time>2019-04-01T07:37:39Z</time>
      </trkpt>
      <trkpt lat="47.95295" lon="3.50664">
        <ele>134</ele>
        <time>2019-04-01T07:37:44Z</time>
      </trkpt>
      <trkpt lat="47.9529" lon="3.50666">
        <ele>134</ele>
        <time>2019-04-01T07:37:47Z</time>
      </trkpt>
      <trkpt lat="47.95286" lon="3.50669">
        <ele>133</ele>
        <time>2019-04-01T07:37:51Z</time>
      </trkpt>
      <trkpt lat="47.95282" lon="3.50675">
        <ele>133</ele>
        <time>2019-04-01T07:37:57Z</time>
      </trkpt>
      <trkpt lat="47.95277" lon="3.50676">
        <ele>132</ele>
        <time>2019-04-01T07:38:01Z</time>
      </trkpt>
      <trkpt lat="47.95273" lon="3.50676">
        <ele>133</ele>
        <time>2019-04-01T07:38:04Z</time>
      </trkpt>
      <trkpt lat="47.95268" lon="3.50681">
        <ele>133</ele>
        <time>2019-04-01T07:38:11Z</time>
      </trkpt>
      <trkpt lat="47.95265" lon="3.50683">
        <ele>133</ele>
        <time>2019-04-01T07:38:13Z</time>
      </trkpt>
      <trkpt lat="47.95261" lon="3.50686">
        <ele>134</ele>
        <time>2019-04-01T07:38:17Z</time>
      </trkpt>
      <trkpt lat="47.95258" lon="3.50688">
        <ele>135</ele>
        <time>2019-04-01T07:38:19Z</time>
      </trkpt>
      <trkpt lat="47.95252" lon="3.50691">
        <ele>134</ele>
        <time>2019-04-01T07:38:25Z</time>
      </trkpt>
      <trkpt lat="47.95247" lon="3.50693">
        <ele>135</ele>
        <time>2019-04-01T07:38:29Z</time>
      </trkpt>
      <trkpt lat="47.95241" lon="3.50695">
        <ele>135</ele>
        <time>2019-04-01T07:38:33Z</time>
      </trkpt>
      <trkpt lat="47.95237" lon="3.50696">
        <ele>137</ele>
        <time>2019-04-01T07:38:37Z</time>
      </trkpt>
      <trkpt lat="47.95232" lon="3.50695">
        <ele>137</ele>
        <time>2019-04-01T07:38:42Z</time>
      </trkpt>
      <trkpt lat="47.95227" lon="3.50694">
        <ele>137</ele>
        <time>2019-04-01T07:38:45Z</time>
      </trkpt>
      <trkpt lat="47.95221" lon="3.50694">
        <ele>136</ele>
        <time>2019-04-01T07:38:48Z</time>
      </trkpt>
      <trkpt lat="47.95219" lon="3.50694">
        <ele>136</ele>
        <time>2019-04-01T07:38:50Z</time>
      </trkpt>
      <trkpt lat="47.95215" lon="3.50694">
        <ele>137</ele>
        <time>2019-04-01T07:38:53Z</time>
      </trkpt>
      <trkpt lat="47.9521" lon="3.50695">
        <ele>137</ele>
        <time>2019-04-01T07:38:58Z</time>
      </trkpt>
      <trkpt lat="47.95205" lon="3.50696">
        <ele>136</ele>
        <time>2019-04-01T07:39:02Z</time>
      </trkpt>
      <trkpt lat="47.95201" lon="3.50696">
        <ele>136</ele>
        <time>2019-04-01T07:39:06Z</time>
      </trkpt>
      <trkpt lat="47.95196" lon="3.50695">
        <ele>136</ele>
        <time>2019-04-01T07:39:10Z</time>
      </trkpt>
      <trkpt lat="47.95191" lon="3.50693">
        <ele>136</ele>
        <time>2019-04-01T07:39:15Z</time>
      </trkpt>
      <trkpt lat="47.95183" lon="3.50692">
        <ele>137</ele>
        <time>2019-04-01T07:39:23Z</time>
      </trkpt>
      <trkpt lat="47.95179" lon="3.50692">
        <ele>138</ele>
        <time>2019-04-01T07:39:26Z</time>
      </trkpt>
      <trkpt lat="47.95174" lon="3.50691">
        <ele>138</ele>
        <time>2019-04-01T07:39:29Z</time>
      </trkpt>
      <trkpt lat="47.95168" lon="3.50689">
        <ele>139</ele>
        <time>2019-04-01T07:39:34Z</time>
      </trkpt>
      <trkpt lat="47.95165" lon="3.50688">
        <ele>139</ele>
        <time>2019-04-01T07:39:37Z</time>
      </trkpt>
      <trkpt lat="47.9516" lon="3.50688">
        <ele>137</ele>
        <time>2019-04-01T07:39:40Z</time>
      </trkpt>
      <trkpt lat="47.95154" lon="3.50685">
        <ele>137</ele>
        <time>2019-04-01T07:39:45Z</time>
      </trkpt>
      <trkpt lat="47.95151" lon="3.50685">
        <ele>137</ele>
        <time>2019-04-01T07:39:48Z</time>
      </trkpt>
      <trkpt lat="47.95146" lon="3.50682">
        <ele>137</ele>
        <time>2019-04-01T07:39:52Z</time>
      </trkpt>
      <trkpt lat="47.95141" lon="3.50683">
        <ele>137</ele>
        <time>2019-04-01T07:39:55Z</time>
      </trkpt>
      <trkpt lat="47.95136" lon="3.50683">
        <ele>137</ele>
        <time>2019-04-01T07:39:58Z</time>
      </trkpt>
      <trkpt lat="47.95131" lon="3.5068">
        <ele>136</ele>
        <time>2019-04-01T07:40:01Z</time>
      </trkpt>
      <trkpt lat="47.95129" lon="3.50679">
        <ele>137</ele>
        <time>2019-04-01T07:40:03Z</time>
      </trkpt>
      <trkpt lat="47.95125" lon="3.50678">
        <ele>138</ele>
        <time>2019-04-01T07:40:08Z</time>
      </trkpt>
      <trkpt lat="47.95123" lon="3.50677">
        <ele>137</ele>
        <time>2019-04-01T07:40:10Z</time>
      </trkpt>
      <trkpt lat="47.95118" lon="3.50674">
        <ele>138</ele>
        <time>2019-04-01T07:40:14Z</time>
      </trkpt>
      <trkpt lat="47.95114" lon="3.5067">
        <ele>138</ele>
        <time>2019-04-01T07:40:18Z</time>
      </trkpt>
      <trkpt lat="47.95109" lon="3.50667">
        <ele>139</ele>
        <time>2019-04-01T07:40:22Z</time>
      </trkpt>
      <trkpt lat="47.95106" lon="3.50665">
        <ele>139</ele>
        <time>2019-04-01T07:40:24Z</time>
      </trkpt>
      <trkpt lat="47.95101" lon="3.50663">
        <ele>139</ele>
        <time>2019-04-01T07:40:28Z</time>
      </trkpt>
      <trkpt lat="47.95097" lon="3.50659">
        <ele>139</ele>
        <time>2019-04-01T07:40:32Z</time>
      </trkpt>
      <trkpt lat="47.95093" lon="3.50654">
        <ele>138</ele>
        <time>2019-04-01T07:40:37Z</time>
      </trkpt>
      <trkpt lat="47.95089" lon="3.5065">
        <ele>139</ele>
        <time>2019-04-01T07:40:41Z</time>
      </trkpt>
      <trkpt lat="47.95087" lon="3.50648">
        <ele>140</ele>
        <time>2019-04-01T07:40:43Z</time>
      </trkpt>
      <trkpt lat="47.95085" lon="3.50645">
        <ele>140</ele>
        <time>2019-04-01T07:40:45Z</time>
      </trkpt>
      <trkpt lat="47.95081" lon="3.5064">
        <ele>139</ele>
        <time>2019-04-01T07:40:49Z</time>
      </trkpt>
      <trkpt lat="47.95077" lon="3.50637">
        <ele>138</ele>
        <time>2019-04-01T07:40:53Z</time>
      </trkpt>
      <trkpt lat="47.95074" lon="3.50631">
        <ele>139</ele>
        <time>2019-04-01T07:40:58Z</time>
      </trkpt>
      <trkpt lat="47.9507" lon="3.50625">
        <ele>138</ele>
        <time>2019-04-01T07:41:03Z</time>
      </trkpt>
      <trkpt lat="47.95065" lon="3.5062">
        <ele>137</ele>
        <time>2019-04-01T07:41:07Z</time>
      </trkpt>
      <trkpt lat="47.95061" lon="3.50615">
        <ele>139</ele>
        <time>2019-04-01T07:41:11Z</time>
      </trkpt>
      <trkpt lat="47.95059" lon="3.50612">
        <ele>139</ele>
        <time>2019-04-01T07:41:14Z</time>
      </trkpt>
      <trkpt lat="47.95054" lon="3.50608">
        <ele>139</ele>
        <time>2019-04-01T07:41:18Z</time>
      </trkpt>
      <trkpt lat="47.95051" lon="3.50603">
        <ele>139</ele>
        <time>2019-04-01T07:41:22Z</time>
      </trkpt>
      <trkpt lat="47.95046" lon="3.50599">
        <ele>139</ele>
        <time>2019-04-01T07:41:26Z</time>
      </trkpt>
      <trkpt lat="47.95044" lon="3.50596">
        <ele>138</ele>
        <time>2019-04-01T07:41:28Z</time>
      </trkpt>
      <trkpt lat="47.95037" lon="3.50592">
        <ele>137</ele>
        <time>2019-04-01T07:41:32Z</time>
      </trkpt>
      <trkpt lat="47.95033" lon="3.50587">
        <ele>136</ele>
        <time>2019-04-01T07:41:36Z</time>
      </trkpt>
      <trkpt lat="47.95028" lon="3.50583">
        <ele>136</ele>
        <time>2019-04-01T07:41:40Z</time>
      </trkpt>
      <trkpt lat="47.95024" lon="3.50578">
        <ele>136</ele>
        <time>2019-04-01T07:41:43Z</time>
      </trkpt>
      <trkpt lat="47.95022" lon="3.50575">
        <ele>136</ele>
        <time>2019-04-01T07:41:45Z</time>
      </trkpt>
      <trkpt lat="47.95019" lon="3.50572">
        <ele>136</ele>
        <time>2019-04-01T07:41:48Z</time>
      </trkpt>
      <trkpt lat="47.95014" lon="3.50568">
        <ele>136</ele>
        <time>2019-04-01T07:41:51Z</time>
      </trkpt>
      <trkpt lat="47.95011" lon="3.50565">
        <ele>136</ele>
        <time>2019-04-01T07:41:53Z</time>
      </trkpt>
      <trkpt lat="47.95005" lon="3.50563">
        <ele>134</ele>
        <time>2019-04-01T07:41:56Z</time>
      </trkpt>
      <trkpt lat="47.95001" lon="3.50559">
        <ele>135</ele>
        <time>2019-04-01T07:42:00Z</time>
      </trkpt>
      <trkpt lat="47.94999" lon="3.50557">
        <ele>134</ele>
        <time>2019-04-01T07:42:03Z</time>
      </trkpt>
      <trkpt lat="47.94996" lon="3.50554">
        <ele>133</ele>
        <time>2019-04-01T07:42:06Z</time>
      </trkpt>
      <trkpt lat="47.94994" lon="3.50552">
        <ele>133</ele>
        <time>2019-04-01T07:42:08Z</time>
      </trkpt>
      <trkpt lat="47.94991" lon="3.50545">
        <ele>133</ele>
        <time>2019-04-01T07:42:12Z</time>
      </trkpt>
      <trkpt lat="47.94986" lon="3.50541">
        <ele>133</ele>
        <time>2019-04-01T07:42:18Z</time>
      </trkpt>
      <trkpt lat="47.94984" lon="3.50535">
        <ele>133</ele>
        <time>2019-04-01T07:42:24Z</time>
      </trkpt>
      <trkpt lat="47.94979" lon="3.50528">
        <ele>134</ele>
        <time>2019-04-01T07:42:29Z</time>
      </trkpt>
      <trkpt lat="47.94974" lon="3.50523">
        <ele>134</ele>
        <time>2019-04-01T07:42:33Z</time>
      </trkpt>
      <trkpt lat="47.94971" lon="3.5052">
        <ele>134</ele>
        <time>2019-04-01T07:42:36Z</time>
      </trkpt>
      <trkpt lat="47.94966" lon="3.50515">
        <ele>136</ele>
        <time>2019-04-01T07:42:40Z</time>
      </trkpt>
      <trkpt lat="47.94964" lon="3.50511">
        <ele>136</ele>
        <time>2019-04-01T07:42:42Z</time>
      </trkpt>
      <trkpt lat="47.9496" lon="3.50505">
        <ele>136</ele>
        <time>2019-04-01T07:42:47Z</time>
      </trkpt>
      <trkpt lat="47.94957" lon="3.50501">
        <ele>135</ele>
        <time>2019-04-01T07:42:51Z</time>
      </trkpt>
      <trkpt lat="47.94954" lon="3.50496">
        <ele>136</ele>
        <time>2019-04-01T07:42:55Z</time>
      </trkpt>
      <trkpt lat="47.94949" lon="3.50489">
        <ele>135</ele>
        <time>2019-04-01T07:43:01Z</time>
      </trkpt>
      <trkpt lat="47.94945" lon="3.50484">
        <ele>135</ele>
        <time>2019-04-01T07:43:05Z</time>
      </trkpt>
      <trkpt lat="47.94941" lon="3.50479">
        <ele>135</ele>
        <time>2019-04-01T07:43:09Z</time>
      </trkpt>
      <trkpt lat="47.94938" lon="3.50477">
        <ele>135</ele>
        <time>2019-04-01T07:43:11Z</time>
      </trkpt>
      <trkpt lat="47.94934" lon="3.50472">
        <ele>135</ele>
        <time>2019-04-01T07:43:16Z</time>
      </trkpt>
      <trkpt lat="47.94931" lon="3.50469">
        <ele>135</ele>
        <time>2019-04-01T07:43:19Z</time>
      </trkpt>
      <trkpt lat="47.94929" lon="3.50466">
        <ele>135</ele>
        <time>2019-04-01T07:43:21Z</time>
      </trkpt>
      <trkpt lat="47.94925" lon="3.5046">
        <ele>136</ele>
        <time>2019-04-01T07:43:25Z</time>
      </trkpt>
      <trkpt lat="47.94921" lon="3.50456">
        <ele>137</ele>
        <time>2019-04-01T07:43:29Z</time>
      </trkpt>
      <trkpt lat="47.94917" lon="3.50451">
        <ele>137</ele>
        <time>2019-04-01T07:43:34Z</time>
      </trkpt>
      <trkpt lat="47.94912" lon="3.50447">
        <ele>137</ele>
        <time>2019-04-01T07:43:38Z</time>
      </trkpt>
      <trkpt lat="47.94908" lon="3.50445">
        <ele>135</ele>
        <time>2019-04-01T07:43:42Z</time>
      </trkpt>
      <trkpt lat="47.94905" lon="3.50448">
        <ele>134</ele>
        <time>2019-04-01T07:43:51Z</time>
      </trkpt>
      <trkpt lat="47.94901" lon="3.50444">
        <ele>130</ele>
        <time>2019-04-01T07:48:59Z</time>
      </trkpt>
      <trkpt lat="47.94897" lon="3.50437">
        <ele>131</ele>
        <time>2019-04-01T07:49:05Z</time>
      </trkpt>
      <trkpt lat="47.94895" lon="3.50433">
        <ele>131</ele>
        <time>2019-04-01T07:49:08Z</time>
      </trkpt>
      <trkpt lat="47.94893" lon="3.50428">
        <ele>131</ele>
        <time>2019-04-01T07:49:11Z</time>
      </trkpt>
      <trkpt lat="47.94888" lon="3.50423">
        <ele>132</ele>
        <time>2019-04-01T07:49:15Z</time>
      </trkpt>
      <trkpt lat="47.94886" lon="3.50421">
        <ele>132</ele>
        <time>2019-04-01T07:49:17Z</time>
      </trkpt>
      <trkpt lat="47.94881" lon="3.50418">
        <ele>132</ele>
        <time>2019-04-01T07:49:21Z</time>
      </trkpt>
      <trkpt lat="47.94878" lon="3.50414">
        <ele>132</ele>
        <time>2019-04-01T07:49:25Z</time>
      </trkpt>
      <trkpt lat="47.94876" lon="3.50411">
        <ele>132</ele>
        <time>2019-04-01T07:49:28Z</time>
      </trkpt>
      <trkpt lat="47.94874" lon="3.50409">
        <ele>133</ele>
        <time>2019-04-01T07:49:30Z</time>
      </trkpt>
      <trkpt lat="47.94872" lon="3.50406">
        <ele>132</ele>
        <time>2019-04-01T07:49:32Z</time>
      </trkpt>
      <trkpt lat="47.9487" lon="3.50403">
        <ele>132</ele>
        <time>2019-04-01T07:49:34Z</time>
      </trkpt>
      <trkpt lat="47.94867" lon="3.50401">
        <ele>132</ele>
        <time>2019-04-01T07:49:36Z</time>
      </trkpt>
      <trkpt lat="47.94863" lon="3.50396">
        <ele>132</ele>
        <time>2019-04-01T07:49:40Z</time>
      </trkpt>
      <trkpt lat="47.94861" lon="3.50394">
        <ele>131</ele>
        <time>2019-04-01T07:49:42Z</time>
      </trkpt>
      <trkpt lat="47.94859" lon="3.50391">
        <ele>131</ele>
        <time>2019-04-01T07:49:44Z</time>
      </trkpt>
      <trkpt lat="47.94855" lon="3.50387">
        <ele>131</ele>
        <time>2019-04-01T07:49:47Z</time>
      </trkpt>
      <trkpt lat="47.94853" lon="3.50385">
        <ele>131</ele>
        <time>2019-04-01T07:49:49Z</time>
      </trkpt>
      <trkpt lat="47.94851" lon="3.50383">
        <ele>132</ele>
        <time>2019-04-01T07:49:51Z</time>
      </trkpt>
      <trkpt lat="47.94849" lon="3.5038">
        <ele>131</ele>
        <time>2019-04-01T07:49:53Z</time>
      </trkpt>
      <trkpt lat="47.94846" lon="3.50378">
        <ele>131</ele>
        <time>2019-04-01T07:49:55Z</time>
      </trkpt>
      <trkpt lat="47.94844" lon="3.50376">
        <ele>132</ele>
        <time>2019-04-01T07:49:57Z</time>
      </trkpt>
      <trkpt lat="47.94842" lon="3.50374">
        <ele>131</ele>
        <time>2019-04-01T07:49:59Z</time>
      </trkpt>
      <trkpt lat="47.9484" lon="3.50371">
        <ele>131</ele>
        <time>2019-04-01T07:50:02Z</time>
      </trkpt>
      <trkpt lat="47.94835" lon="3.50367">
        <ele>132</ele>
        <time>2019-04-01T07:50:06Z</time>
      </trkpt>
      <trkpt lat="47.94832" lon="3.50365">
        <ele>131</ele>
        <time>2019-04-01T07:50:08Z</time>
      </trkpt>
      <trkpt lat="47.94829" lon="3.50362">
        <ele>131</ele>
        <time>2019-04-01T07:50:10Z</time>
      </trkpt>
      <trkpt lat="47.94824" lon="3.50358">
        <ele>131</ele>
        <time>2019-04-01T07:50:14Z</time>
      </trkpt>
      <trkpt lat="47.94822" lon="3.50357">
        <ele>130</ele>
        <time>2019-04-01T07:50:16Z</time>
      </trkpt>
      <trkpt lat="47.94818" lon="3.50352">
        <ele>131</ele>
        <time>2019-04-01T07:50:20Z</time>
      </trkpt>
      <trkpt lat="47.94815" lon="3.5035">
        <ele>131</ele>
        <time>2019-04-01T07:50:22Z</time>
      </trkpt>
      <trkpt lat="47.94811" lon="3.50345">
        <ele>131</ele>
        <time>2019-04-01T07:50:25Z</time>
      </trkpt>
      <trkpt lat="47.94807" lon="3.50342">
        <ele>131</ele>
        <time>2019-04-01T07:50:29Z</time>
      </trkpt>
      <trkpt lat="47.94804" lon="3.50339">
        <ele>131</ele>
        <time>2019-04-01T07:50:31Z</time>
      </trkpt>
      <trkpt lat="47.94802" lon="3.50338">
        <ele>131</ele>
        <time>2019-04-01T07:50:33Z</time>
      </trkpt>
      <trkpt lat="47.948" lon="3.50336">
        <ele>131</ele>
        <time>2019-04-01T07:50:35Z</time>
      </trkpt>
      <trkpt lat="47.94798" lon="3.50333">
        <ele>132</ele>
        <time>2019-04-01T07:50:37Z</time>
      </trkpt>
      <trkpt lat="47.94793" lon="3.5033">
        <ele>131</ele>
        <time>2019-04-01T07:50:41Z</time>
      </trkpt>
      <trkpt lat="47.94788" lon="3.50327">
        <ele>131</ele>
        <time>2019-04-01T07:50:45Z</time>
      </trkpt>
      <trkpt lat="47.94781" lon="3.50322">
        <ele>131</ele>
        <time>2019-04-01T07:50:50Z</time>
      </trkpt>
      <trkpt lat="47.94778" lon="3.50321">
        <ele>131</ele>
        <time>2019-04-01T07:50:52Z</time>
      </trkpt>
      <trkpt lat="47.94774" lon="3.50317">
        <ele>131</ele>
        <time>2019-04-01T07:50:57Z</time>
      </trkpt>
      <trkpt lat="47.9477" lon="3.50314">
        <ele>131</ele>
        <time>2019-04-01T07:51:00Z</time>
      </trkpt>
      <trkpt lat="47.94766" lon="3.50313">
        <ele>132</ele>
        <time>2019-04-01T07:51:04Z</time>
      </trkpt>
      <trkpt lat="47.94763" lon="3.50312">
        <ele>131</ele>
        <time>2019-04-01T07:51:06Z</time>
      </trkpt>
      <trkpt lat="47.9476" lon="3.5031">
        <ele>132</ele>
        <time>2019-04-01T07:51:08Z</time>
      </trkpt>
      <trkpt lat="47.94754" lon="3.50307">
        <ele>131</ele>
        <time>2019-04-01T07:51:12Z</time>
      </trkpt>
      <trkpt lat="47.94752" lon="3.50306">
        <ele>132</ele>
        <time>2019-04-01T07:51:14Z</time>
      </trkpt>
      <trkpt lat="47.94747" lon="3.50305">
        <ele>132</ele>
        <time>2019-04-01T07:51:18Z</time>
      </trkpt>
      <trkpt lat="47.94742" lon="3.50304">
        <ele>132</ele>
        <time>2019-04-01T07:51:21Z</time>
      </trkpt>
      <trkpt lat="47.94739" lon="3.50303">
        <ele>133</ele>
        <time>2019-04-01T07:51:23Z</time>
      </trkpt>
      <trkpt lat="47.94733" lon="3.50302">
        <ele>133</ele>
        <time>2019-04-01T07:51:26Z</time>
      </trkpt>
      <trkpt lat="47.94728" lon="3.50302">
        <ele>133</ele>
        <time>2019-04-01T07:51:29Z</time>
      </trkpt>
      <trkpt lat="47.94724" lon="3.50301">
        <ele>133</ele>
        <time>2019-04-01T07:51:33Z</time>
      </trkpt>
      <trkpt lat="47.94719" lon="3.503">
        <ele>133</ele>
        <time>2019-04-01T07:51:37Z</time>
      </trkpt>
      <trkpt lat="47.94714" lon="3.50299">
        <ele>133</ele>
        <time>2019-04-01T07:51:41Z</time>
      </trkpt>
      <trkpt lat="47.94707" lon="3.503">
        <ele>132</ele>
        <time>2019-04-01T07:51:45Z</time>
      </trkpt>
      <trkpt lat="47.94704" lon="3.503">
        <ele>132</ele>
        <time>2019-04-01T07:51:48Z</time>
      </trkpt>
      <trkpt lat="47.94702" lon="3.503">
        <ele>132</ele>
        <time>2019-04-01T07:51:50Z</time>
      </trkpt>
      <trkpt lat="47.94696" lon="3.50299">
        <ele>131</ele>
        <time>2019-04-01T07:51:54Z</time>
      </trkpt>
      <trkpt lat="47.94693" lon="3.50299">
        <ele>131</ele>
        <time>2019-04-01T07:51:56Z</time>
      </trkpt>
      <trkpt lat="47.94687" lon="3.50299">
        <ele>131</ele>
        <time>2019-04-01T07:52:00Z</time>
      </trkpt>
      <trkpt lat="47.94683" lon="3.50298">
        <ele>132</ele>
        <time>2019-04-01T07:52:04Z</time>
      </trkpt>
      <trkpt lat="47.94677" lon="3.50299">
        <ele>132</ele>
        <time>2019-04-01T07:52:08Z</time>
      </trkpt>
      <trkpt lat="47.94672" lon="3.503">
        <ele>132</ele>
        <time>2019-04-01T07:52:12Z</time>
      </trkpt>
      <trkpt lat="47.94667" lon="3.503">
        <ele>131</ele>
        <time>2019-04-01T07:52:16Z</time>
      </trkpt>
      <trkpt lat="47.94661" lon="3.50301">
        <ele>131</ele>
        <time>2019-04-01T07:52:20Z</time>
      </trkpt>
      <trkpt lat="47.94659" lon="3.50302">
        <ele>131</ele>
        <time>2019-04-01T07:52:22Z</time>
      </trkpt>
      <trkpt lat="47.94654" lon="3.50301">
        <ele>132</ele>
        <time>2019-04-01T07:52:26Z</time>
      </trkpt>
      <trkpt lat="47.94649" lon="3.50304">
        <ele>132</ele>
        <time>2019-04-01T07:52:31Z</time>
      </trkpt>
      <trkpt lat="47.94644" lon="3.50304">
        <ele>132</ele>
        <time>2019-04-01T07:52:34Z</time>
      </trkpt>
      <trkpt lat="47.94639" lon="3.50305">
        <ele>132</ele>
        <time>2019-04-01T07:52:38Z</time>
      </trkpt>
      <trkpt lat="47.94635" lon="3.50307">
        <ele>131</ele>
        <time>2019-04-01T07:52:42Z</time>
      </trkpt>
      <trkpt lat="47.9463" lon="3.50309">
        <ele>131</ele>
        <time>2019-04-01T07:52:46Z</time>
      </trkpt>
      <trkpt lat="47.94626" lon="3.5031">
        <ele>131</ele>
        <time>2019-04-01T07:52:50Z</time>
      </trkpt>
      <trkpt lat="47.94622" lon="3.50309">
        <ele>131</ele>
        <time>2019-04-01T07:52:53Z</time>
      </trkpt>
      <trkpt lat="47.94616" lon="3.5031">
        <ele>131</ele>
        <time>2019-04-01T07:52:57Z</time>
      </trkpt>
      <trkpt lat="47.94613" lon="3.50311">
        <ele>131</ele>
        <time>2019-04-01T07:52:59Z</time>
      </trkpt>
      <trkpt lat="47.94609" lon="3.50313">
        <ele>131</ele>
        <time>2019-04-01T07:53:02Z</time>
      </trkpt>
      <trkpt lat="47.94604" lon="3.50316">
        <ele>130</ele>
        <time>2019-04-01T07:53:06Z</time>
      </trkpt>
      <trkpt lat="47.94598" lon="3.50318">
        <ele>131</ele>
        <time>2019-04-01T07:53:10Z</time>
      </trkpt>
      <trkpt lat="47.94594" lon="3.50319">
        <ele>131</ele>
        <time>2019-04-01T07:53:13Z</time>
      </trkpt>
      <trkpt lat="47.94588" lon="3.50321">
        <ele>130</ele>
        <time>2019-04-01T07:53:18Z</time>
      </trkpt>
      <trkpt lat="47.94582" lon="3.50325">
        <ele>130</ele>
        <time>2019-04-01T07:53:22Z</time>
      </trkpt>
      <trkpt lat="47.94579" lon="3.50327">
        <ele>130</ele>
        <time>2019-04-01T07:53:24Z</time>
      </trkpt>
      <trkpt lat="47.94573" lon="3.50329">
        <ele>129</ele>
        <time>2019-04-01T07:53:28Z</time>
      </trkpt>
      <trkpt lat="47.94567" lon="3.5033">
        <ele>128</ele>
        <time>2019-04-01T07:53:32Z</time>
      </trkpt>
      <trkpt lat="47.94562" lon="3.50334">
        <ele>129</ele>
        <time>2019-04-01T07:53:36Z</time>
      </trkpt>
      <trkpt lat="47.94558" lon="3.50336">
        <ele>128</ele>
        <time>2019-04-01T07:53:38Z</time>
      </trkpt>
      <trkpt lat="47.94556" lon="3.50338">
        <ele>128</ele>
        <time>2019-04-01T07:53:40Z</time>
      </trkpt>
      <trkpt lat="47.94553" lon="3.5034">
        <ele>128</ele>
        <time>2019-04-01T07:53:42Z</time>
      </trkpt>
      <trkpt lat="47.94548" lon="3.50343">
        <ele>128</ele>
        <time>2019-04-01T07:53:46Z</time>
      </trkpt>
      <trkpt lat="47.94546" lon="3.50344">
        <ele>128</ele>
        <time>2019-04-01T07:53:48Z</time>
      </trkpt>
      <trkpt lat="47.94542" lon="3.50348">
        <ele>128</ele>
        <time>2019-04-01T07:53:52Z</time>
      </trkpt>
      <trkpt lat="47.94537" lon="3.5035">
        <ele>128</ele>
        <time>2019-04-01T07:53:55Z</time>
      </trkpt>
      <trkpt lat="47.94534" lon="3.50351">
        <ele>127</ele>
        <time>2019-04-01T07:53:57Z</time>
      </trkpt>
      <trkpt lat="47.94531" lon="3.50353">
        <ele>128</ele>
        <time>2019-04-01T07:53:59Z</time>
      </trkpt>
      <trkpt lat="47.94529" lon="3.50355">
        <ele>128</ele>
        <time>2019-04-01T07:54:01Z</time>
      </trkpt>
      <trkpt lat="47.94524" lon="3.50356">
        <ele>129</ele>
        <time>2019-04-01T07:54:04Z</time>
      </trkpt>
      <trkpt lat="47.94519" lon="3.50359">
        <ele>128</ele>
        <time>2019-04-01T07:54:08Z</time>
      </trkpt>
      <trkpt lat="47.94514" lon="3.50362">
        <ele>128</ele>
        <time>2019-04-01T07:54:12Z</time>
      </trkpt>
      <trkpt lat="47.94511" lon="3.50364">
        <ele>128</ele>
        <time>2019-04-01T07:54:14Z</time>
      </trkpt>
      <trkpt lat="47.94506" lon="3.50367">
        <ele>129</ele>
        <time>2019-04-01T07:54:18Z</time>
      </trkpt>
      <trkpt lat="47.94502" lon="3.50371">
        <ele>129</ele>
        <time>2019-04-01T07:54:21Z</time>
      </trkpt>
      <trkpt lat="47.94497" lon="3.50373">
        <ele>129</ele>
        <time>2019-04-01T07:54:25Z</time>
      </trkpt>
      <trkpt lat="47.94492" lon="3.50377">
        <ele>128</ele>
        <time>2019-04-01T07:54:29Z</time>
      </trkpt>
      <trkpt lat="47.94486" lon="3.5038">
        <ele>129</ele>
        <time>2019-04-01T07:54:34Z</time>
      </trkpt>
      <trkpt lat="47.94483" lon="3.50382">
        <ele>129</ele>
        <time>2019-04-01T07:54:36Z</time>
      </trkpt>
      <trkpt lat="47.94478" lon="3.50382">
        <ele>129</ele>
        <time>2019-04-01T07:54:40Z</time>
      </trkpt>
      <trkpt lat="47.94473" lon="3.50384">
        <ele>130</ele>
        <time>2019-04-01T07:54:44Z</time>
      </trkpt>
      <trkpt lat="47.94466" lon="3.50384">
        <ele>130</ele>
        <time>2019-04-01T07:54:50Z</time>
      </trkpt>
      <trkpt lat="47.94462" lon="3.50388">
        <ele>131</ele>
        <time>2019-04-01T07:54:54Z</time>
      </trkpt>
      <trkpt lat="47.9446" lon="3.5039">
        <ele>133</ele>
        <time>2019-04-01T07:54:56Z</time>
      </trkpt>
      <trkpt lat="47.94457" lon="3.50392">
        <ele>133</ele>
        <time>2019-04-01T07:54:58Z</time>
      </trkpt>
      <trkpt lat="47.94455" lon="3.50398">
        <ele>133</ele>
        <time>2019-04-01T07:55:02Z</time>
      </trkpt>
      <trkpt lat="47.9445" lon="3.50403">
        <ele>135</ele>
        <time>2019-04-01T07:55:07Z</time>
      </trkpt>
      <trkpt lat="47.94445" lon="3.50407">
        <ele>136</ele>
        <time>2019-04-01T07:55:11Z</time>
      </trkpt>
      <trkpt lat="47.94439" lon="3.50412">
        <ele>136</ele>
        <time>2019-04-01T07:55:16Z</time>
      </trkpt>
      <trkpt lat="47.94437" lon="3.50415">
        <ele>137</ele>
        <time>2019-04-01T07:55:18Z</time>
      </trkpt>
      <trkpt lat="47.94433" lon="3.50419">
        <ele>136</ele>
        <time>2019-04-01T07:55:22Z</time>
      </trkpt>
      <trkpt lat="47.94431" lon="3.50422">
        <ele>136</ele>
        <time>2019-04-01T07:55:26Z</time>
      </trkpt>
      <trkpt lat="47.94426" lon="3.50427">
        <ele>138</ele>
        <time>2019-04-01T07:55:30Z</time>
      </trkpt>
      <trkpt lat="47.94424" lon="3.50432">
        <ele>138</ele>
        <time>2019-04-01T07:55:33Z</time>
      </trkpt>
      <trkpt lat="47.94419" lon="3.50435">
        <ele>138</ele>
        <time>2019-04-01T07:55:37Z</time>
      </trkpt>
      <trkpt lat="47.94415" lon="3.50437">
        <ele>138</ele>
        <time>2019-04-01T07:55:40Z</time>
      </trkpt>
      <trkpt lat="47.94412" lon="3.50438">
        <ele>138</ele>
        <time>2019-04-01T07:55:44Z</time>
      </trkpt>
      <trkpt lat="47.94409" lon="3.5044">
        <ele>139</ele>
        <time>2019-04-01T07:55:47Z</time>
      </trkpt>
      <trkpt lat="47.94403" lon="3.50444">
        <ele>139</ele>
        <time>2019-04-01T07:55:51Z</time>
      </trkpt>
      <trkpt lat="47.944" lon="3.50449">
        <ele>140</ele>
        <time>2019-04-01T07:55:56Z</time>
      </trkpt>
      <trkpt lat="47.94395" lon="3.50452">
        <ele>141</ele>
        <time>2019-04-01T07:56:00Z</time>
      </trkpt>
      <trkpt lat="47.94391" lon="3.50459">
        <ele>142</ele>
        <time>2019-04-01T07:56:04Z</time>
      </trkpt>
      <trkpt lat="47.94387" lon="3.50465">
        <ele>144</ele>
        <time>2019-04-01T07:56:09Z</time>
      </trkpt>
      <trkpt lat="47.94384" lon="3.50472">
        <ele>145</ele>
        <time>2019-04-01T07:56:13Z</time>
      </trkpt>
      <trkpt lat="47.9438" lon="3.50477">
        <ele>144</ele>
        <time>2019-04-01T07:56:18Z</time>
      </trkpt>
      <trkpt lat="47.94377" lon="3.50481">
        <ele>144</ele>
        <time>2019-04-01T07:56:22Z</time>
      </trkpt>
      <trkpt lat="47.94373" lon="3.50485">
        <ele>144</ele>
        <time>2019-04-01T07:56:26Z</time>
      </trkpt>
      <trkpt lat="47.9437" lon="3.50492">
        <ele>144</ele>
        <time>2019-04-01T07:56:30Z</time>
      </trkpt>
      <trkpt lat="47.94366" lon="3.50499">
        <ele>144</ele>
        <time>2019-04-01T07:56:35Z</time>
      </trkpt>
      <trkpt lat="47.94363" lon="3.50503">
        <ele>146</ele>
        <time>2019-04-01T07:56:40Z</time>
      </trkpt>
      <trkpt lat="47.94359" lon="3.50508">
        <ele>145</ele>
        <time>2019-04-01T07:56:43Z</time>
      </trkpt>
      <trkpt lat="47.94355" lon="3.50512">
        <ele>145</ele>
        <time>2019-04-01T07:56:47Z</time>
      </trkpt>
      <trkpt lat="47.94351" lon="3.50517">
        <ele>144</ele>
        <time>2019-04-01T07:56:51Z</time>
      </trkpt>
      <trkpt lat="47.94346" lon="3.5052">
        <ele>143</ele>
        <time>2019-04-01T07:56:55Z</time>
      </trkpt>
      <trkpt lat="47.94344" lon="3.50526">
        <ele>141</ele>
        <time>2019-04-01T07:56:58Z</time>
      </trkpt>
      <trkpt lat="47.9434" lon="3.50531">
        <ele>142</ele>
        <time>2019-04-01T07:57:01Z</time>
      </trkpt>
      <trkpt lat="47.94337" lon="3.50535">
        <ele>141</ele>
        <time>2019-04-01T07:57:03Z</time>
      </trkpt>
      <trkpt lat="47.94333" lon="3.5054">
        <ele>141</ele>
        <time>2019-04-01T07:57:07Z</time>
      </trkpt>
      <trkpt lat="47.94331" lon="3.50542">
        <ele>140</ele>
        <time>2019-04-01T07:57:09Z</time>
      </trkpt>
      <trkpt lat="47.94328" lon="3.50547">
        <ele>139</ele>
        <time>2019-04-01T07:57:12Z</time>
      </trkpt>
      <trkpt lat="47.94324" lon="3.50551">
        <ele>138</ele>
        <time>2019-04-01T07:57:16Z</time>
      </trkpt>
      <trkpt lat="47.94321" lon="3.50553">
        <ele>138</ele>
        <time>2019-04-01T07:57:18Z</time>
      </trkpt>
      <trkpt lat="47.94317" lon="3.50558">
        <ele>138</ele>
        <time>2019-04-01T07:57:21Z</time>
      </trkpt>
      <trkpt lat="47.94313" lon="3.50564">
        <ele>137</ele>
        <time>2019-04-01T07:57:26Z</time>
      </trkpt>
      <trkpt lat="47.9431" lon="3.50568">
        <ele>136</ele>
        <time>2019-04-01T07:57:29Z</time>
      </trkpt>
      <trkpt lat="47.94308" lon="3.50576">
        <ele>135</ele>
        <time>2019-04-01T07:57:32Z</time>
      </trkpt>
      <trkpt lat="47.94307" lon="3.5058">
        <ele>134</ele>
        <time>2019-04-01T07:57:34Z</time>
      </trkpt>
      <trkpt lat="47.94304" lon="3.50586">
        <ele>133</ele>
        <time>2019-04-01T07:57:38Z</time>
      </trkpt>
      <trkpt lat="47.94302" lon="3.50589">
        <ele>132</ele>
        <time>2019-04-01T07:57:40Z</time>
      </trkpt>
      <trkpt lat="47.943" lon="3.50596">
        <ele>131</ele>
        <time>2019-04-01T07:57:44Z</time>
      </trkpt>
      <trkpt lat="47.94297" lon="3.50602">
        <ele>132</ele>
        <time>2019-04-01T07:57:48Z</time>
      </trkpt>
      <trkpt lat="47.94294" lon="3.50607">
        <ele>132</ele>
        <time>2019-04-01T07:57:51Z</time>
      </trkpt>
      <trkpt lat="47.94293" lon="3.50613">
        <ele>132</ele>
        <time>2019-04-01T07:57:54Z</time>
      </trkpt>
      <trkpt lat="47.94291" lon="3.50617">
        <ele>131</ele>
        <time>2019-04-01T07:57:56Z</time>
      </trkpt>
      <trkpt lat="47.94288" lon="3.50624">
        <ele>129</ele>
        <time>2019-04-01T07:58:00Z</time>
      </trkpt>
      <trkpt lat="47.94286" lon="3.50629">
        <ele>129</ele>
        <time>2019-04-01T07:58:03Z</time>
      </trkpt>
      <trkpt lat="47.94282" lon="3.50632">
        <ele>128</ele>
        <time>2019-04-01T07:58:07Z</time>
      </trkpt>
      <trkpt lat="47.94279" lon="3.5064">
        <ele>128</ele>
        <time>2019-04-01T07:58:11Z</time>
      </trkpt>
      <trkpt lat="47.94276" lon="3.50646">
        <ele>128</ele>
        <time>2019-04-01T07:58:14Z</time>
      </trkpt>
      <trkpt lat="47.94273" lon="3.50653">
        <ele>128</ele>
        <time>2019-04-01T07:58:18Z</time>
      </trkpt>
      <trkpt lat="47.9427" lon="3.50658">
        <ele>128</ele>
        <time>2019-04-01T07:58:21Z</time>
      </trkpt>
      <trkpt lat="47.94268" lon="3.50661">
        <ele>129</ele>
        <time>2019-04-01T07:58:23Z</time>
      </trkpt>
      <trkpt lat="47.94264" lon="3.5067">
        <ele>128</ele>
        <time>2019-04-01T07:58:28Z</time>
      </trkpt>
      <trkpt lat="47.94261" lon="3.50678">
        <ele>128</ele>
        <time>2019-04-01T07:58:32Z</time>
      </trkpt>
      <trkpt lat="47.94257" lon="3.50683">
        <ele>128</ele>
        <time>2019-04-01T07:58:38Z</time>
      </trkpt>
      <trkpt lat="47.94254" lon="3.50687">
        <ele>129</ele>
        <time>2019-04-01T07:58:41Z</time>
      </trkpt>
      <trkpt lat="47.9425" lon="3.50694">
        <ele>128</ele>
        <time>2019-04-01T07:58:45Z</time>
      </trkpt>
      <trkpt lat="47.94247" lon="3.50703">
        <ele>127</ele>
        <time>2019-04-01T07:58:50Z</time>
      </trkpt>
      <trkpt lat="47.94243" lon="3.50709">
        <ele>126</ele>
        <time>2019-04-01T07:58:55Z</time>
      </trkpt>
      <trkpt lat="47.94241" lon="3.50716">
        <ele>126</ele>
        <time>2019-04-01T07:58:59Z</time>
      </trkpt>
      <trkpt lat="47.94239" lon="3.50719">
        <ele>127</ele>
        <time>2019-04-01T07:59:01Z</time>
      </trkpt>
      <trkpt lat="47.94235" lon="3.50727">
        <ele>126</ele>
        <time>2019-04-01T07:59:06Z</time>
      </trkpt>
      <trkpt lat="47.94233" lon="3.50732">
        <ele>127</ele>
        <time>2019-04-01T07:59:09Z</time>
      </trkpt>
      <trkpt lat="47.94229" lon="3.50737">
        <ele>127</ele>
        <time>2019-04-01T07:59:13Z</time>
      </trkpt>
      <trkpt lat="47.94224" lon="3.50745">
        <ele>127</ele>
        <time>2019-04-01T07:59:18Z</time>
      </trkpt>
      <trkpt lat="47.94222" lon="3.50748">
        <ele>127</ele>
        <time>2019-04-01T07:59:20Z</time>
      </trkpt>
      <trkpt lat="47.9422" lon="3.50755">
        <ele>127</ele>
        <time>2019-04-01T07:59:24Z</time>
      </trkpt>
      <trkpt lat="47.94217" lon="3.50761">
        <ele>127</ele>
        <time>2019-04-01T07:59:28Z</time>
      </trkpt>
      <trkpt lat="47.94214" lon="3.50766">
        <ele>127</ele>
        <time>2019-04-01T07:59:32Z</time>
      </trkpt>
      <trkpt lat="47.94209" lon="3.5077">
        <ele>127</ele>
        <time>2019-04-01T07:59:36Z</time>
      </trkpt>
      <trkpt lat="47.94206" lon="3.50776">
        <ele>128</ele>
        <time>2019-04-01T07:59:40Z</time>
      </trkpt>
      <trkpt lat="47.94202" lon="3.50785">
        <ele>127</ele>
        <time>2019-04-01T07:59:46Z</time>
      </trkpt>
      <trkpt lat="47.94198" lon="3.5079">
        <ele>126</ele>
        <time>2019-04-01T07:59:50Z</time>
      </trkpt>
      <trkpt lat="47.94196" lon="3.50794">
        <ele>126</ele>
        <time>2019-04-01T07:59:52Z</time>
      </trkpt>
      <trkpt lat="47.94192" lon="3.50799">
        <ele>126</ele>
        <time>2019-04-01T07:59:56Z</time>
      </trkpt>
      <trkpt lat="47.9419" lon="3.50806">
        <ele>127</ele>
        <time>2019-04-01T08:00:00Z</time>
      </trkpt>
      <trkpt lat="47.94186" lon="3.50811">
        <ele>127</ele>
        <time>2019-04-01T08:00:04Z</time>
      </trkpt>
      <trkpt lat="47.94184" lon="3.50817">
        <ele>127</ele>
        <time>2019-04-01T08:00:08Z</time>
      </trkpt>
      <trkpt lat="47.9418" lon="3.50823">
        <ele>129</ele>
        <time>2019-04-01T08:00:12Z</time>
      </trkpt>
      <trkpt lat="47.94175" lon="3.50831">
        <ele>129</ele>
        <time>2019-04-01T08:00:17Z</time>
      </trkpt>
      <trkpt lat="47.94172" lon="3.50838">
        <ele>129</ele>
        <time>2019-04-01T08:00:21Z</time>
      </trkpt>
      <trkpt lat="47.94171" lon="3.50841">
        <ele>129</ele>
        <time>2019-04-01T08:00:23Z</time>
      </trkpt>
      <trkpt lat="47.94168" lon="3.50847">
        <ele>129</ele>
        <time>2019-04-01T08:00:27Z</time>
      </trkpt>
      <trkpt lat="47.94167" lon="3.5085">
        <ele>130</ele>
        <time>2019-04-01T08:00:29Z</time>
      </trkpt>
      <trkpt lat="47.94164" lon="3.50858">
        <ele>129</ele>
        <time>2019-04-01T08:00:33Z</time>
      </trkpt>
      <trkpt lat="47.94162" lon="3.50867">
        <ele>128</ele>
        <time>2019-04-01T08:00:37Z</time>
      </trkpt>
      <trkpt lat="47.94161" lon="3.5087">
        <ele>128</ele>
        <time>2019-04-01T08:00:39Z</time>
      </trkpt>
      <trkpt lat="47.94157" lon="3.50877">
        <ele>129</ele>
        <time>2019-04-01T08:00:43Z</time>
      </trkpt>
      <trkpt lat="47.94155" lon="3.50884">
        <ele>129</ele>
        <time>2019-04-01T08:00:47Z</time>
      </trkpt>
      <trkpt lat="47.94152" lon="3.5089">
        <ele>129</ele>
        <time>2019-04-01T08:00:51Z</time>
      </trkpt>
      <trkpt lat="47.9415" lon="3.50894">
        <ele>128</ele>
        <time>2019-04-01T08:00:54Z</time>
      </trkpt>
      <trkpt lat="47.94147" lon="3.50899">
        <ele>128</ele>
        <time>2019-04-01T08:00:57Z</time>
      </trkpt>
      <trkpt lat="47.94145" lon="3.50906">
        <ele>128</ele>
        <time>2019-04-01T08:01:01Z</time>
      </trkpt>
      <trkpt lat="47.94142" lon="3.50915">
        <ele>127</ele>
        <time>2019-04-01T08:01:06Z</time>
      </trkpt>
      <trkpt lat="47.94139" lon="3.50919">
        <ele>128</ele>
        <time>2019-04-01T08:01:10Z</time>
      </trkpt>
      <trkpt lat="47.94136" lon="3.50929">
        <ele>128</ele>
        <time>2019-04-01T08:01:15Z</time>
      </trkpt>
      <trkpt lat="47.94134" lon="3.50938">
        <ele>128</ele>
        <time>2019-04-01T08:01:19Z</time>
      </trkpt>
      <trkpt lat="47.94131" lon="3.50946">
        <ele>128</ele>
        <time>2019-04-01T08:01:24Z</time>
      </trkpt>
      <trkpt lat="47.9413" lon="3.50954">
        <ele>128</ele>
        <time>2019-04-01T08:01:28Z</time>
      </trkpt>
      <trkpt lat="47.94129" lon="3.50959">
        <ele>129</ele>
        <time>2019-04-01T08:01:31Z</time>
      </trkpt>
      <trkpt lat="47.94128" lon="3.50967">
        <ele>129</ele>
        <time>2019-04-01T08:01:35Z</time>
      </trkpt>
      <trkpt lat="47.94127" lon="3.50972">
        <ele>129</ele>
        <time>2019-04-01T08:01:38Z</time>
      </trkpt>
      <trkpt lat="47.94126" lon="3.50977">
        <ele>129</ele>
        <time>2019-04-01T08:01:41Z</time>
      </trkpt>
      <trkpt lat="47.94124" lon="3.50983">
        <ele>130</ele>
        <time>2019-04-01T08:01:44Z</time>
      </trkpt>
      <trkpt lat="47.94123" lon="3.50989">
        <ele>129</ele>
        <time>2019-04-01T08:01:47Z</time>
      </trkpt>
      <trkpt lat="47.94121" lon="3.50996">
        <ele>131</ele>
        <time>2019-04-01T08:01:51Z</time>
      </trkpt>
      <trkpt lat="47.9412" lon="3.51003">
        <ele>130</ele>
        <time>2019-04-01T08:01:54Z</time>
      </trkpt>
      <trkpt lat="47.94119" lon="3.51007">
        <ele>129</ele>
        <time>2019-04-01T08:01:56Z</time>
      </trkpt>
      <trkpt lat="47.94119" lon="3.51016">
        <ele>129</ele>
        <time>2019-04-01T08:02:00Z</time>
      </trkpt>
      <trkpt lat="47.94119" lon="3.51021">
        <ele>131</ele>
        <time>2019-04-01T08:02:04Z</time>
      </trkpt>
      <trkpt lat="47.94119" lon="3.51026">
        <ele>131</ele>
        <time>2019-04-01T08:02:06Z</time>
      </trkpt>
      <trkpt lat="47.9412" lon="3.51031">
        <ele>132</ele>
        <time>2019-04-01T08:02:09Z</time>
      </trkpt>
      <trkpt lat="47.94119" lon="3.51038">
        <ele>133</ele>
        <time>2019-04-01T08:02:13Z</time>
      </trkpt>
      <trkpt lat="47.94118" lon="3.51046">
        <ele>132</ele>
        <time>2019-04-01T08:02:17Z</time>
      </trkpt>
      <trkpt lat="47.94118" lon="3.51053">
        <ele>132</ele>
        <time>2019-04-01T08:02:20Z</time>
      </trkpt>
      <trkpt lat="47.94118" lon="3.51058">
        <ele>132</ele>
        <time>2019-04-01T08:02:22Z</time>
      </trkpt>
      <trkpt lat="47.94119" lon="3.51068">
        <ele>132</ele>
        <time>2019-04-01T08:02:27Z</time>
      </trkpt>
      <trkpt lat="47.94119" lon="3.51074">
        <ele>133</ele>
        <time>2019-04-01T08:02:30Z</time>
      </trkpt>
      <trkpt lat="47.9412" lon="3.51079">
        <ele>133</ele>
        <time>2019-04-01T08:02:32Z</time>
      </trkpt>
      <trkpt lat="47.94121" lon="3.51084">
        <ele>133</ele>
        <time>2019-04-01T08:02:35Z</time>
      </trkpt>
      <trkpt lat="47.94121" lon="3.51094">
        <ele>133</ele>
        <time>2019-04-01T08:02:39Z</time>
      </trkpt>
      <trkpt lat="47.94121" lon="3.51097">
        <ele>132</ele>
        <time>2019-04-01T08:02:41Z</time>
      </trkpt>
      <trkpt lat="47.94121" lon="3.51101">
        <ele>133</ele>
        <time>2019-04-01T08:02:43Z</time>
      </trkpt>
      <trkpt lat="47.94122" lon="3.51109">
        <ele>133</ele>
        <time>2019-04-01T08:02:47Z</time>
      </trkpt>
      <trkpt lat="47.94121" lon="3.51116">
        <ele>132</ele>
        <time>2019-04-01T08:02:50Z</time>
      </trkpt>
      <trkpt lat="47.94121" lon="3.5112">
        <ele>132</ele>
        <time>2019-04-01T08:02:52Z</time>
      </trkpt>
      <trkpt lat="47.94121" lon="3.51128">
        <ele>130</ele>
        <time>2019-04-01T08:02:56Z</time>
      </trkpt>
      <trkpt lat="47.94121" lon="3.51132">
        <ele>131</ele>
        <time>2019-04-01T08:02:58Z</time>
      </trkpt>
      <trkpt lat="47.9412" lon="3.51142">
        <ele>130</ele>
        <time>2019-04-01T08:03:03Z</time>
      </trkpt>
      <trkpt lat="47.9412" lon="3.51145">
        <ele>130</ele>
        <time>2019-04-01T08:03:05Z</time>
      </trkpt>
      <trkpt lat="47.9412" lon="3.51154">
        <ele>130</ele>
        <time>2019-04-01T08:03:09Z</time>
      </trkpt>
      <trkpt lat="47.94121" lon="3.51161">
        <ele>130</ele>
        <time>2019-04-01T08:03:13Z</time>
      </trkpt>
      <trkpt lat="47.94121" lon="3.51169">
        <ele>129</ele>
        <time>2019-04-01T08:03:16Z</time>
      </trkpt>
      <trkpt lat="47.9412" lon="3.51173">
        <ele>130</ele>
        <time>2019-04-01T08:03:18Z</time>
      </trkpt>
      <trkpt lat="47.9412" lon="3.51177">
        <ele>129</ele>
        <time>2019-04-01T08:03:20Z</time>
      </trkpt>
      <trkpt lat="47.94119" lon="3.51185">
        <ele>130</ele>
        <time>2019-04-01T08:03:24Z</time>
      </trkpt>
      <trkpt lat="47.94119" lon="3.51191">
        <ele>129</ele>
        <time>2019-04-01T08:03:27Z</time>
      </trkpt>
      <trkpt lat="47.94117" lon="3.512">
        <ele>129</ele>
        <time>2019-04-01T08:03:32Z</time>
      </trkpt>
      <trkpt lat="47.94116" lon="3.51207">
        <ele>129</ele>
        <time>2019-04-01T08:03:36Z</time>
      </trkpt>
      <trkpt lat="47.94114" lon="3.51215">
        <ele>130</ele>
        <time>2019-04-01T08:03:40Z</time>
      </trkpt>
      <trkpt lat="47.94111" lon="3.51222">
        <ele>129</ele>
        <time>2019-04-01T08:03:44Z</time>
      </trkpt>
      <trkpt lat="47.94108" lon="3.51228">
        <ele>129</ele>
        <time>2019-04-01T08:03:48Z</time>
      </trkpt>
      <trkpt lat="47.94107" lon="3.51231">
        <ele>129</ele>
        <time>2019-04-01T08:03:50Z</time>
      </trkpt>
      <trkpt lat="47.94106" lon="3.51234">
        <ele>130</ele>
        <time>2019-04-01T08:03:52Z</time>
      </trkpt>
      <trkpt lat="47.94104" lon="3.51237">
        <ele>130</ele>
        <time>2019-04-01T08:03:54Z</time>
      </trkpt>
      <trkpt lat="47.941" lon="3.51243">
        <ele>130</ele>
        <time>2019-04-01T08:03:59Z</time>
      </trkpt>
      <trkpt lat="47.94096" lon="3.51249">
        <ele>130</ele>
        <time>2019-04-01T08:04:03Z</time>
      </trkpt>
      <trkpt lat="47.94091" lon="3.51255">
        <ele>130</ele>
        <time>2019-04-01T08:04:08Z</time>
      </trkpt>
      <trkpt lat="47.94089" lon="3.51258">
        <ele>130</ele>
        <time>2019-04-01T08:04:11Z</time>
      </trkpt>
      <trkpt lat="47.94086" lon="3.51262">
        <ele>130</ele>
        <time>2019-04-01T08:04:14Z</time>
      </trkpt>
      <trkpt lat="47.94081" lon="3.5127">
        <ele>131</ele>
        <time>2019-04-01T08:04:19Z</time>
      </trkpt>
      <trkpt lat="47.9408" lon="3.51274">
        <ele>131</ele>
        <time>2019-04-01T08:04:21Z</time>
      </trkpt>
      <trkpt lat="47.94075" lon="3.51278">
        <ele>131</ele>
        <time>2019-04-01T08:04:25Z</time>
      </trkpt>
      <trkpt lat="47.94071" lon="3.51282">
        <ele>130</ele>
        <time>2019-04-01T08:04:28Z</time>
      </trkpt>
      <trkpt lat="47.94066" lon="3.51288">
        <ele>130</ele>
        <time>2019-04-01T08:04:32Z</time>
      </trkpt>
      <trkpt lat="47.94062" lon="3.51291">
        <ele>129</ele>
        <time>2019-04-01T08:04:35Z</time>
      </trkpt>
      <trkpt lat="47.9406" lon="3.51293">
        <ele>129</ele>
        <time>2019-04-01T08:04:38Z</time>
      </trkpt>
      <trkpt lat="47.94056" lon="3.51297">
        <ele>130</ele>
        <time>2019-04-01T08:04:42Z</time>
      </trkpt>
      <trkpt lat="47.94051" lon="3.51299">
        <ele>129</ele>
        <time>2019-04-01T08:04:46Z</time>
      </trkpt>
      <trkpt lat="47.94047" lon="3.513">
        <ele>131</ele>
        <time>2019-04-01T08:04:51Z</time>
      </trkpt>
      <trkpt lat="47.94044" lon="3.51301">
        <ele>130</ele>
        <time>2019-04-01T08:04:54Z</time>
      </trkpt>
      <trkpt lat="47.94039" lon="3.51304">
        <ele>132</ele>
        <time>2019-04-01T08:04:59Z</time>
      </trkpt>
      <trkpt lat="47.94034" lon="3.51306">
        <ele>133</ele>
        <time>2019-04-01T08:05:02Z</time>
      </trkpt>
      <trkpt lat="47.94029" lon="3.51308">
        <ele>132</ele>
        <time>2019-04-01T08:05:05Z</time>
      </trkpt>
      <trkpt lat="47.94026" lon="3.51309">
        <ele>133</ele>
        <time>2019-04-01T08:05:08Z</time>
      </trkpt>
      <trkpt lat="47.94022" lon="3.51312">
        <ele>134</ele>
        <time>2019-04-01T08:05:11Z</time>
      </trkpt>
      <trkpt lat="47.94018" lon="3.51314">
        <ele>133</ele>
        <time>2019-04-01T08:05:14Z</time>
      </trkpt>
      <trkpt lat="47.94015" lon="3.51316">
        <ele>133</ele>
        <time>2019-04-01T08:05:16Z</time>
      </trkpt>
      <trkpt lat="47.94012" lon="3.51318">
        <ele>132</ele>
        <time>2019-04-01T08:05:19Z</time>
      </trkpt>
      <trkpt lat="47.94009" lon="3.5132">
        <ele>133</ele>
        <time>2019-04-01T08:05:22Z</time>
      </trkpt>
      <trkpt lat="47.94004" lon="3.5132">
        <ele>132</ele>
        <time>2019-04-01T08:05:26Z</time>
      </trkpt>
      <trkpt lat="47.93998" lon="3.51322">
        <ele>131</ele>
        <time>2019-04-01T08:05:29Z</time>
      </trkpt>
      <trkpt lat="47.93995" lon="3.51322">
        <ele>131</ele>
        <time>2019-04-01T08:05:31Z</time>
      </trkpt>
      <trkpt lat="47.93992" lon="3.51323">
        <ele>132</ele>
        <time>2019-04-01T08:05:33Z</time>
      </trkpt>
      <trkpt lat="47.93988" lon="3.51327">
        <ele>131</ele>
        <time>2019-04-01T08:05:37Z</time>
      </trkpt>
      <trkpt lat="47.93983" lon="3.51331">
        <ele>132</ele>
        <time>2019-04-01T08:05:41Z</time>
      </trkpt>
      <trkpt lat="47.9398" lon="3.51336">
        <ele>133</ele>
        <time>2019-04-01T08:05:46Z</time>
      </trkpt>
      <trkpt lat="47.93975" lon="3.51338">
        <ele>134</ele>
        <time>2019-04-01T08:05:51Z</time>
      </trkpt>
      <trkpt lat="47.9397" lon="3.51343">
        <ele>137</ele>
        <time>2019-04-01T08:05:57Z</time>
      </trkpt>
      <trkpt lat="47.93965" lon="3.51347">
        <ele>138</ele>
        <time>2019-04-01T08:06:01Z</time>
      </trkpt>
      <trkpt lat="47.93959" lon="3.51349">
        <ele>136</ele>
        <time>2019-04-01T08:06:06Z</time>
      </trkpt>
      <trkpt lat="47.93957" lon="3.5135">
        <ele>135</ele>
        <time>2019-04-01T08:06:08Z</time>
      </trkpt>
      <trkpt lat="47.93955" lon="3.51351">
        <ele>135</ele>
        <time>2019-04-01T08:06:10Z</time>
      </trkpt>
      <trkpt lat="47.9395" lon="3.51349">
        <ele>136</ele>
        <time>2019-04-01T08:06:13Z</time>
      </trkpt>
      <trkpt lat="47.93944" lon="3.51351">
        <ele>136</ele>
        <time>2019-04-01T08:06:17Z</time>
      </trkpt>
      <trkpt lat="47.9394" lon="3.51352">
        <ele>137</ele>
        <time>2019-04-01T08:06:20Z</time>
      </trkpt>
      <trkpt lat="47.93932" lon="3.51354">
        <ele>137</ele>
        <time>2019-04-01T08:06:24Z</time>
      </trkpt>
      <trkpt lat="47.93929" lon="3.51355">
        <ele>138</ele>
        <time>2019-04-01T08:06:26Z</time>
      </trkpt>
      <trkpt lat="47.93925" lon="3.51355">
        <ele>137</ele>
        <time>2019-04-01T08:06:28Z</time>
      </trkpt>
      <trkpt lat="47.93921" lon="3.51357">
        <ele>138</ele>
        <time>2019-04-01T08:06:30Z</time>
      </trkpt>
      <trkpt lat="47.93915" lon="3.51359">
        <ele>139</ele>
        <time>2019-04-01T08:06:35Z</time>
      </trkpt>
      <trkpt lat="47.93912" lon="3.5136">
        <ele>140</ele>
        <time>2019-04-01T08:06:37Z</time>
      </trkpt>
      <trkpt lat="47.93907" lon="3.51365">
        <ele>140</ele>
        <time>2019-04-01T08:06:41Z</time>
      </trkpt>
      <trkpt lat="47.93902" lon="3.51368">
        <ele>139</ele>
        <time>2019-04-01T08:06:46Z</time>
      </trkpt>
      <trkpt lat="47.939" lon="3.51369">
        <ele>139</ele>
        <time>2019-04-01T08:06:49Z</time>
      </trkpt>
      <trkpt lat="47.93894" lon="3.5137">
        <ele>139</ele>
        <time>2019-04-01T08:06:53Z</time>
      </trkpt>
      <trkpt lat="47.93889" lon="3.51374">
        <ele>139</ele>
        <time>2019-04-01T08:06:57Z</time>
      </trkpt>
      <trkpt lat="47.93883" lon="3.51376">
        <ele>137</ele>
        <time>2019-04-01T08:07:02Z</time>
      </trkpt>
      <trkpt lat="47.93877" lon="3.51377">
        <ele>137</ele>
        <time>2019-04-01T08:07:07Z</time>
      </trkpt>
      <trkpt lat="47.93874" lon="3.51377">
        <ele>137</ele>
        <time>2019-04-01T08:07:09Z</time>
      </trkpt>
      <trkpt lat="47.93869" lon="3.51377">
        <ele>136</ele>
        <time>2019-04-01T08:07:13Z</time>
      </trkpt>
      <trkpt lat="47.93865" lon="3.51377">
        <ele>136</ele>
        <time>2019-04-01T08:07:15Z</time>
      </trkpt>
      <trkpt lat="47.93861" lon="3.51377">
        <ele>135</ele>
        <time>2019-04-01T08:07:18Z</time>
      </trkpt>
      <trkpt lat="47.93858" lon="3.51377">
        <ele>135</ele>
        <time>2019-04-01T08:07:20Z</time>
      </trkpt>
      <trkpt lat="47.93853" lon="3.51377">
        <ele>135</ele>
        <time>2019-04-01T08:07:23Z</time>
      </trkpt>
      <trkpt lat="47.9385" lon="3.51376">
        <ele>135</ele>
        <time>2019-04-01T08:07:25Z</time>
      </trkpt>
      <trkpt lat="47.93846" lon="3.51376">
        <ele>136</ele>
        <time>2019-04-01T08:07:27Z</time>
      </trkpt>
      <trkpt lat="47.93842" lon="3.5138">
        <ele>136</ele>
        <time>2019-04-01T08:07:32Z</time>
      </trkpt>
      <trkpt lat="47.93836" lon="3.5138">
        <ele>134</ele>
        <time>2019-04-01T08:07:37Z</time>
      </trkpt>
      <trkpt lat="47.93832" lon="3.51379">
        <ele>133</ele>
        <time>2019-04-01T08:07:40Z</time>
      </trkpt>
      <trkpt lat="47.93827" lon="3.51381">
        <ele>134</ele>
        <time>2019-04-01T08:07:43Z</time>
      </trkpt>
      <trkpt lat="47.93822" lon="3.51381">
        <ele>135</ele>
        <time>2019-04-01T08:07:47Z</time>
      </trkpt>
      <trkpt lat="47.93819" lon="3.51381">
        <ele>134</ele>
        <time>2019-04-01T08:07:49Z</time>
      </trkpt>
      <trkpt lat="47.93814" lon="3.5138">
        <ele>132</ele>
        <time>2019-04-01T08:07:53Z</time>
      </trkpt>
      <trkpt lat="47.93811" lon="3.5138">
        <ele>132</ele>
        <time>2019-04-01T08:07:55Z</time>
      </trkpt>
      <trkpt lat="47.93808" lon="3.51379">
        <ele>132</ele>
        <time>2019-04-01T08:07:58Z</time>
      </trkpt>
      <trkpt lat="47.93803" lon="3.5138">
        <ele>133</ele>
        <time>2019-04-01T08:08:01Z</time>
      </trkpt>
      <trkpt lat="47.93798" lon="3.51382">
        <ele>134</ele>
        <time>2019-04-01T08:08:04Z</time>
      </trkpt>
      <trkpt lat="47.93794" lon="3.51384">
        <ele>133</ele>
        <time>2019-04-01T08:08:07Z</time>
      </trkpt>
      <trkpt lat="47.93791" lon="3.51385">
        <ele>133</ele>
        <time>2019-04-01T08:08:09Z</time>
      </trkpt>
      <trkpt lat="47.93787" lon="3.51385">
        <ele>134</ele>
        <time>2019-04-01T08:08:11Z</time>
      </trkpt>
      <trkpt lat="47.93781" lon="3.51388">
        <ele>135</ele>
        <time>2019-04-01T08:08:15Z</time>
      </trkpt>
      <trkpt lat="47.93774" lon="3.51386">
        <ele>137</ele>
        <time>2019-04-01T08:08:22Z</time>
      </trkpt>
      <trkpt lat="47.93767" lon="3.51391">
        <ele>136</ele>
        <time>2019-04-01T08:08:28Z</time>
      </trkpt>
      <trkpt lat="47.93762" lon="3.5139">
        <ele>137</ele>
        <time>2019-04-01T08:08:32Z</time>
      </trkpt>
      <trkpt lat="47.93758" lon="3.5139">
        <ele>137</ele>
        <time>2019-04-01T08:08:36Z</time>
      </trkpt>
      <trkpt lat="47.93753" lon="3.51392">
        <ele>139</ele>
        <time>2019-04-01T08:08:40Z</time>
      </trkpt>
      <trkpt lat="47.93747" lon="3.51392">
        <ele>138</ele>
        <time>2019-04-01T08:08:44Z</time>
      </trkpt>
      <trkpt lat="47.93742" lon="3.5139">
        <ele>137</ele>
        <time>2019-04-01T08:08:49Z</time>
      </trkpt>
      <trkpt lat="47.93739" lon="3.51389">
        <ele>138</ele>
        <time>2019-04-01T08:08:51Z</time>
      </trkpt>
      <trkpt lat="47.93736" lon="3.51388">
        <ele>138</ele>
        <time>2019-04-01T08:08:53Z</time>
      </trkpt>
      <trkpt lat="47.93733" lon="3.51387">
        <ele>138</ele>
        <time>2019-04-01T08:08:55Z</time>
      </trkpt>
      <trkpt lat="47.93727" lon="3.51385">
        <ele>138</ele>
        <time>2019-04-01T08:09:00Z</time>
      </trkpt>
      <trkpt lat="47.9372" lon="3.51385">
        <ele>137</ele>
        <time>2019-04-01T08:09:04Z</time>
      </trkpt>
      <trkpt lat="47.93717" lon="3.51385">
        <ele>138</ele>
        <time>2019-04-01T08:09:06Z</time>
      </trkpt>
      <trkpt lat="47.93714" lon="3.51384">
        <ele>137</ele>
        <time>2019-04-01T08:09:08Z</time>
      </trkpt>
      <trkpt lat="47.93708" lon="3.51386">
        <ele>137</ele>
        <time>2019-04-01T08:09:12Z</time>
      </trkpt>
      <trkpt lat="47.93702" lon="3.51384">
        <ele>137</ele>
        <time>2019-04-01T08:09:17Z</time>
      </trkpt>
      <trkpt lat="47.93697" lon="3.51384">
        <ele>136</ele>
        <time>2019-04-01T08:09:21Z</time>
      </trkpt>
      <trkpt lat="47.9369" lon="3.51383">
        <ele>136</ele>
        <time>2019-04-01T08:09:26Z</time>
      </trkpt>
      <trkpt lat="47.93684" lon="3.51384">
        <ele>136</ele>
        <time>2019-04-01T08:09:29Z</time>
      </trkpt>
      <trkpt lat="47.93679" lon="3.51385">
        <ele>136</ele>
        <time>2019-04-01T08:09:33Z</time>
      </trkpt>
      <trkpt lat="47.93674" lon="3.51384">
        <ele>135</ele>
        <time>2019-04-01T08:09:37Z</time>
      </trkpt>
      <trkpt lat="47.93671" lon="3.51383">
        <ele>134</ele>
        <time>2019-04-01T08:09:40Z</time>
      </trkpt>
      <trkpt lat="47.93666" lon="3.51384">
        <ele>135</ele>
        <time>2019-04-01T08:09:44Z</time>
      </trkpt>
      <trkpt lat="47.93662" lon="3.51384">
        <ele>135</ele>
        <time>2019-04-01T08:09:46Z</time>
      </trkpt>
      <trkpt lat="47.93657" lon="3.51381">
        <ele>135</ele>
        <time>2019-04-01T08:09:49Z</time>
      </trkpt>
      <trkpt lat="47.93653" lon="3.51383">
        <ele>135</ele>
        <time>2019-04-01T08:09:52Z</time>
      </trkpt>
      <trkpt lat="47.9365" lon="3.51385">
        <ele>135</ele>
        <time>2019-04-01T08:09:54Z</time>
      </trkpt>
      <trkpt lat="47.93647" lon="3.51385">
        <ele>135</ele>
        <time>2019-04-01T08:09:56Z</time>
      </trkpt>
      <trkpt lat="47.93641" lon="3.51385">
        <ele>134</ele>
        <time>2019-04-01T08:10:00Z</time>
      </trkpt>
      <trkpt lat="47.93636" lon="3.51385">
        <ele>135</ele>
        <time>2019-04-01T08:10:03Z</time>
      </trkpt>
      <trkpt lat="47.9363" lon="3.51387">
        <ele>135</ele>
        <time>2019-04-01T08:10:08Z</time>
      </trkpt>
      <trkpt lat="47.93624" lon="3.51389">
        <ele>135</ele>
        <time>2019-04-01T08:10:13Z</time>
      </trkpt>
      <trkpt lat="47.9362" lon="3.5139">
        <ele>135</ele>
        <time>2019-04-01T08:10:16Z</time>
      </trkpt>
      <trkpt lat="47.93616" lon="3.51392">
        <ele>134</ele>
        <time>2019-04-01T08:10:22Z</time>
      </trkpt>
      <trkpt lat="47.93611" lon="3.51393">
        <ele>134</ele>
        <time>2019-04-01T08:10:27Z</time>
      </trkpt>
      <trkpt lat="47.93606" lon="3.51394">
        <ele>133</ele>
        <time>2019-04-01T08:10:31Z</time>
      </trkpt>
      <trkpt lat="47.93604" lon="3.51394">
        <ele>133</ele>
        <time>2019-04-01T08:10:33Z</time>
      </trkpt>
      <trkpt lat="47.936" lon="3.51396">
        <ele>133</ele>
        <time>2019-04-01T08:10:36Z</time>
      </trkpt>
      <trkpt lat="47.93595" lon="3.51398">
        <ele>133</ele>
        <time>2019-04-01T08:10:40Z</time>
      </trkpt>
      <trkpt lat="47.9359" lon="3.51398">
        <ele>133</ele>
        <time>2019-04-01T08:10:44Z</time>
      </trkpt>
      <trkpt lat="47.93585" lon="3.51401">
        <ele>132</ele>
        <time>2019-04-01T08:10:48Z</time>
      </trkpt>
      <trkpt lat="47.93581" lon="3.51402">
        <ele>133</ele>
        <time>2019-04-01T08:10:50Z</time>
      </trkpt>
      <trkpt lat="47.93577" lon="3.51403">
        <ele>133</ele>
        <time>2019-04-01T08:10:53Z</time>
      </trkpt>
      <trkpt lat="47.93571" lon="3.51406">
        <ele>133</ele>
        <time>2019-04-01T08:10:58Z</time>
      </trkpt>
      <trkpt lat="47.93566" lon="3.51408">
        <ele>133</ele>
        <time>2019-04-01T08:11:01Z</time>
      </trkpt>
      <trkpt lat="47.93563" lon="3.51409">
        <ele>134</ele>
        <time>2019-04-01T08:11:03Z</time>
      </trkpt>
      <trkpt lat="47.93559" lon="3.51411">
        <ele>133</ele>
        <time>2019-04-01T08:11:06Z</time>
      </trkpt>
      <trkpt lat="47.93555" lon="3.51412">
        <ele>134</ele>
        <time>2019-04-01T08:11:09Z</time>
      </trkpt>
      <trkpt lat="47.93551" lon="3.51414">
        <ele>132</ele>
        <time>2019-04-01T08:11:11Z</time>
      </trkpt>
      <trkpt lat="47.93548" lon="3.51415">
        <ele>133</ele>
        <time>2019-04-01T08:11:14Z</time>
      </trkpt>
      <trkpt lat="47.93545" lon="3.51416">
        <ele>132</ele>
        <time>2019-04-01T08:11:16Z</time>
      </trkpt>
      <trkpt lat="47.93542" lon="3.51416">
        <ele>133</ele>
        <time>2019-04-01T08:11:18Z</time>
      </trkpt>
      <trkpt lat="47.9354" lon="3.51417">
        <ele>132</ele>
        <time>2019-04-01T08:11:20Z</time>
      </trkpt>
      <trkpt lat="47.93535" lon="3.51419">
        <ele>134</ele>
        <time>2019-04-01T08:11:25Z</time>
      </trkpt>
      <trkpt lat="47.9353" lon="3.51421">
        <ele>133</ele>
        <time>2019-04-01T08:11:29Z</time>
      </trkpt>
      <trkpt lat="47.93527" lon="3.51422">
        <ele>133</ele>
        <time>2019-04-01T08:11:31Z</time>
      </trkpt>
      <trkpt lat="47.93524" lon="3.51423">
        <ele>133</ele>
        <time>2019-04-01T08:11:33Z</time>
      </trkpt>
      <trkpt lat="47.93521" lon="3.51424">
        <ele>133</ele>
        <time>2019-04-01T08:11:35Z</time>
      </trkpt>
      <trkpt lat="47.93515" lon="3.51428">
        <ele>133</ele>
        <time>2019-04-01T08:11:39Z</time>
      </trkpt>
      <trkpt lat="47.93512" lon="3.5143">
        <ele>132</ele>
        <time>2019-04-01T08:11:41Z</time>
      </trkpt>
      <trkpt lat="47.9351" lon="3.51431">
        <ele>132</ele>
        <time>2019-04-01T08:11:43Z</time>
      </trkpt>
      <trkpt lat="47.93505" lon="3.51433">
        <ele>131</ele>
        <time>2019-04-01T08:11:47Z</time>
      </trkpt>
      <trkpt lat="47.935" lon="3.51435">
        <ele>132</ele>
        <time>2019-04-01T08:11:51Z</time>
      </trkpt>
      <trkpt lat="47.93497" lon="3.51437">
        <ele>132</ele>
        <time>2019-04-01T08:11:53Z</time>
      </trkpt>
      <trkpt lat="47.93493" lon="3.51441">
        <ele>132</ele>
        <time>2019-04-01T08:11:56Z</time>
      </trkpt>
      <trkpt lat="47.9349" lon="3.51444">
        <ele>131</ele>
        <time>2019-04-01T08:11:59Z</time>
      </trkpt>
      <trkpt lat="47.93485" lon="3.51446">
        <ele>131</ele>
        <time>2019-04-01T08:12:03Z</time>
      </trkpt>
      <trkpt lat="47.93481" lon="3.51448">
        <ele>131</ele>
        <time>2019-04-01T08:12:07Z</time>
      </trkpt>
      <trkpt lat="47.93476" lon="3.51453">
        <ele>131</ele>
        <time>2019-04-01T08:12:11Z</time>
      </trkpt>
      <trkpt lat="47.93471" lon="3.51456">
        <ele>131</ele>
        <time>2019-04-01T08:12:14Z</time>
      </trkpt>
      <trkpt lat="47.93469" lon="3.51457">
        <ele>131</ele>
        <time>2019-04-01T08:12:16Z</time>
      </trkpt>
      <trkpt lat="47.93465" lon="3.51459">
        <ele>131</ele>
        <time>2019-04-01T08:12:19Z</time>
      </trkpt>
      <trkpt lat="47.93461" lon="3.51461">
        <ele>132</ele>
        <time>2019-04-01T08:12:22Z</time>
      </trkpt>
      <trkpt lat="47.93458" lon="3.51462">
        <ele>132</ele>
        <time>2019-04-01T08:12:24Z</time>
      </trkpt>
      <trkpt lat="47.93451" lon="3.51466">
        <ele>132</ele>
        <time>2019-04-01T08:12:29Z</time>
      </trkpt>
      <trkpt lat="47.93445" lon="3.51472">
        <ele>132</ele>
        <time>2019-04-01T08:12:34Z</time>
      </trkpt>
      <trkpt lat="47.9344" lon="3.51474">
        <ele>133</ele>
        <time>2019-04-01T08:12:38Z</time>
      </trkpt>
      <trkpt lat="47.93433" lon="3.51476">
        <ele>132</ele>
        <time>2019-04-01T08:12:43Z</time>
      </trkpt>
      <trkpt lat="47.93428" lon="3.5148">
        <ele>132</ele>
        <time>2019-04-01T08:12:47Z</time>
      </trkpt>
      <trkpt lat="47.93426" lon="3.51481">
        <ele>132</ele>
        <time>2019-04-01T08:12:49Z</time>
      </trkpt>
      <trkpt lat="47.93422" lon="3.51484">
        <ele>132</ele>
        <time>2019-04-01T08:12:52Z</time>
      </trkpt>
      <trkpt lat="47.93417" lon="3.51487">
        <ele>132</ele>
        <time>2019-04-01T08:12:56Z</time>
      </trkpt>
      <trkpt lat="47.93412" lon="3.51491">
        <ele>132</ele>
        <time>2019-04-01T08:13:00Z</time>
      </trkpt>
      <trkpt lat="47.9341" lon="3.51493">
        <ele>132</ele>
        <time>2019-04-01T08:13:02Z</time>
      </trkpt>
      <trkpt lat="47.93405" lon="3.51495">
        <ele>132</ele>
        <time>2019-04-01T08:13:06Z</time>
      </trkpt>
      <trkpt lat="47.93402" lon="3.51496">
        <ele>132</ele>
        <time>2019-04-01T08:13:08Z</time>
      </trkpt>
      <trkpt lat="47.93397" lon="3.51499">
        <ele>132</ele>
        <time>2019-04-01T08:13:12Z</time>
      </trkpt>
      <trkpt lat="47.9339" lon="3.51501">
        <ele>132</ele>
        <time>2019-04-01T08:13:17Z</time>
      </trkpt>
      <trkpt lat="47.93384" lon="3.51504">
        <ele>133</ele>
        <time>2019-04-01T08:13:21Z</time>
      </trkpt>
      <trkpt lat="47.9338" lon="3.51508">
        <ele>133</ele>
        <time>2019-04-01T08:13:25Z</time>
      </trkpt>
      <trkpt lat="47.93375" lon="3.5151">
        <ele>133</ele>
        <time>2019-04-01T08:13:29Z</time>
      </trkpt>
      <trkpt lat="47.93372" lon="3.51512">
        <ele>134</ele>
        <time>2019-04-01T08:13:32Z</time>
      </trkpt>
      <trkpt lat="47.93369" lon="3.51514">
        <ele>135</ele>
        <time>2019-04-01T08:13:34Z</time>
      </trkpt>
      <trkpt lat="47.93363" lon="3.51515">
        <ele>135</ele>
        <time>2019-04-01T08:13:38Z</time>
      </trkpt>
      <trkpt lat="47.93358" lon="3.51519">
        <ele>135</ele>
        <time>2019-04-01T08:13:42Z</time>
      </trkpt>
      <trkpt lat="47.93354" lon="3.51521">
        <ele>134</ele>
        <time>2019-04-01T08:13:47Z</time>
      </trkpt>
      <trkpt lat="47.93351" lon="3.51523">
        <ele>134</ele>
        <time>2019-04-01T08:13:50Z</time>
      </trkpt>
      <trkpt lat="47.93349" lon="3.51523">
        <ele>135</ele>
        <time>2019-04-01T08:13:59Z</time>
      </trkpt>
      <trkpt lat="47.93343" lon="3.51527">
        <ele>136</ele>
        <time>2019-04-01T08:14:36Z</time>
      </trkpt>
      <trkpt lat="47.93341" lon="3.51529">
        <ele>136</ele>
        <time>2019-04-01T08:14:38Z</time>
      </trkpt>
      <trkpt lat="47.93335" lon="3.5153">
        <ele>136</ele>
        <time>2019-04-01T08:14:42Z</time>
      </trkpt>
      <trkpt lat="47.93333" lon="3.5153">
        <ele>137</ele>
        <time>2019-04-01T08:14:44Z</time>
      </trkpt>
      <trkpt lat="47.93328" lon="3.51535">
        <ele>138</ele>
        <time>2019-04-01T08:14:49Z</time>
      </trkpt>
      <trkpt lat="47.93324" lon="3.51539">
        <ele>138</ele>
        <time>2019-04-01T08:14:53Z</time>
      </trkpt>
      <trkpt lat="47.9332" lon="3.51541">
        <ele>137</ele>
        <time>2019-04-01T08:14:57Z</time>
      </trkpt>
      <trkpt lat="47.93313" lon="3.51544">
        <ele>136</ele>
        <time>2019-04-01T08:15:03Z</time>
      </trkpt>
      <trkpt lat="47.93309" lon="3.51548">
        <ele>136</ele>
        <time>2019-04-01T08:15:07Z</time>
      </trkpt>
      <trkpt lat="47.93304" lon="3.5155">
        <ele>135</ele>
        <time>2019-04-01T08:15:11Z</time>
      </trkpt>
      <trkpt lat="47.93298" lon="3.51552">
        <ele>135</ele>
        <time>2019-04-01T08:15:15Z</time>
      </trkpt>
      <trkpt lat="47.93294" lon="3.51555">
        <ele>133</ele>
        <time>2019-04-01T08:15:19Z</time>
      </trkpt>
      <trkpt lat="47.93291" lon="3.51558">
        <ele>133</ele>
        <time>2019-04-01T08:15:22Z</time>
      </trkpt>
      <trkpt lat="47.93286" lon="3.51562">
        <ele>134</ele>
        <time>2019-04-01T08:15:27Z</time>
      </trkpt>
      <trkpt lat="47.93283" lon="3.51564">
        <ele>134</ele>
        <time>2019-04-01T08:15:29Z</time>
      </trkpt>
      <trkpt lat="47.93279" lon="3.51566">
        <ele>134</ele>
        <time>2019-04-01T08:15:33Z</time>
      </trkpt>
      <trkpt lat="47.93276" lon="3.51568">
        <ele>133</ele>
        <time>2019-04-01T08:15:36Z</time>
      </trkpt>
      <trkpt lat="47.93273" lon="3.51569">
        <ele>133</ele>
        <time>2019-04-01T08:15:38Z</time>
      </trkpt>
      <trkpt lat="47.93271" lon="3.5157">
        <ele>132</ele>
        <time>2019-04-01T08:15:41Z</time>
      </trkpt>
      <trkpt lat="47.93268" lon="3.51571">
        <ele>131</ele>
        <time>2019-04-01T08:15:43Z</time>
      </trkpt>
      <trkpt lat="47.93262" lon="3.51572">
        <ele>132</ele>
        <time>2019-04-01T08:15:48Z</time>
      </trkpt>
      <trkpt lat="47.93258" lon="3.51573">
        <ele>131</ele>
        <time>2019-04-01T08:15:51Z</time>
      </trkpt>
      <trkpt lat="47.93253" lon="3.51574">
        <ele>132</ele>
        <time>2019-04-01T08:15:55Z</time>
      </trkpt>
      <trkpt lat="47.9325" lon="3.51576">
        <ele>131</ele>
        <time>2019-04-01T08:15:58Z</time>
      </trkpt>
      <trkpt lat="47.93247" lon="3.51577">
        <ele>131</ele>
        <time>2019-04-01T08:16:00Z</time>
      </trkpt>
      <trkpt lat="47.93244" lon="3.51578">
        <ele>132</ele>
        <time>2019-04-01T08:16:02Z</time>
      </trkpt>
      <trkpt lat="47.9324" lon="3.51578">
        <ele>131</ele>
        <time>2019-04-01T08:16:06Z</time>
      </trkpt>
      <trkpt lat="47.93234" lon="3.51579">
        <ele>132</ele>
        <time>2019-04-01T08:16:11Z</time>
      </trkpt>
      <trkpt lat="47.93229" lon="3.5158">
        <ele>131</ele>
        <time>2019-04-01T08:16:15Z</time>
      </trkpt>
      <trkpt lat="47.93227" lon="3.5158">
        <ele>131</ele>
        <time>2019-04-01T08:16:17Z</time>
      </trkpt>
      <trkpt lat="47.93222" lon="3.5158">
        <ele>131</ele>
        <time>2019-04-01T08:16:21Z</time>
      </trkpt>
      <trkpt lat="47.93217" lon="3.51581">
        <ele>132</ele>
        <time>2019-04-01T08:16:25Z</time>
      </trkpt>
      <trkpt lat="47.93214" lon="3.51581">
        <ele>132</ele>
        <time>2019-04-01T08:16:27Z</time>
      </trkpt>
      <trkpt lat="47.93209" lon="3.51582">
        <ele>132</ele>
        <time>2019-04-01T08:16:30Z</time>
      </trkpt>
      <trkpt lat="47.93204" lon="3.51582">
        <ele>132</ele>
        <time>2019-04-01T08:16:34Z</time>
      </trkpt>
      <trkpt lat="47.93201" lon="3.51583">
        <ele>132</ele>
        <time>2019-04-01T08:16:36Z</time>
      </trkpt>
      <trkpt lat="47.93196" lon="3.51584">
        <ele>133</ele>
        <time>2019-04-01T08:16:40Z</time>
      </trkpt>
      <trkpt lat="47.93191" lon="3.51584">
        <ele>133</ele>
        <time>2019-04-01T08:16:43Z</time>
      </trkpt>
      <trkpt lat="47.93189" lon="3.51583">
        <ele>133</ele>
        <time>2019-04-01T08:16:45Z</time>
      </trkpt>
      <trkpt lat="47.93184" lon="3.51584">
        <ele>133</ele>
        <time>2019-04-01T08:16:49Z</time>
      </trkpt>
      <trkpt lat="47.93179" lon="3.51584">
        <ele>133</ele>
        <time>2019-04-01T08:16:53Z</time>
      </trkpt>
      <trkpt lat="47.93176" lon="3.51583">
        <ele>132</ele>
        <time>2019-04-01T08:16:56Z</time>
      </trkpt>
      <trkpt lat="47.93172" lon="3.51583">
        <ele>132</ele>
        <time>2019-04-01T08:16:59Z</time>
      </trkpt>
      <trkpt lat="47.93167" lon="3.51584">
        <ele>132</ele>
        <time>2019-04-01T08:17:03Z</time>
      </trkpt>
      <trkpt lat="47.93161" lon="3.51583">
        <ele>131</ele>
        <time>2019-04-01T08:17:07Z</time>
      </trkpt>
      <trkpt lat="47.93159" lon="3.51582">
        <ele>132</ele>
        <time>2019-04-01T08:17:09Z</time>
      </trkpt>
      <trkpt lat="47.93156" lon="3.51581">
        <ele>132</ele>
        <time>2019-04-01T08:17:11Z</time>
      </trkpt>
      <trkpt lat="47.93151" lon="3.51581">
        <ele>133</ele>
        <time>2019-04-01T08:17:16Z</time>
      </trkpt>
      <trkpt lat="47.93147" lon="3.5158">
        <ele>132</ele>
        <time>2019-04-01T08:17:21Z</time>
      </trkpt>
      <trkpt lat="47.93143" lon="3.51579">
        <ele>132</ele>
        <time>2019-04-01T08:17:24Z</time>
      </trkpt>
      <trkpt lat="47.93141" lon="3.51579">
        <ele>132</ele>
        <time>2019-04-01T08:17:26Z</time>
      </trkpt>
      <trkpt lat="47.93136" lon="3.51576">
        <ele>133</ele>
        <time>2019-04-01T08:17:31Z</time>
      </trkpt>
      <trkpt lat="47.93133" lon="3.51575">
        <ele>134</ele>
        <time>2019-04-01T08:17:33Z</time>
      </trkpt>
      <trkpt lat="47.93128" lon="3.51573">
        <ele>134</ele>
        <time>2019-04-01T08:17:37Z</time>
      </trkpt>
      <trkpt lat="47.93124" lon="3.5157">
        <ele>134</ele>
        <time>2019-04-01T08:17:41Z</time>
      </trkpt>
      <trkpt lat="47.93119" lon="3.51568">
        <ele>133</ele>
        <time>2019-04-01T08:17:44Z</time>
      </trkpt>
      <trkpt lat="47.93117" lon="3.51567">
        <ele>133</ele>
        <time>2019-04-01T08:17:46Z</time>
      </trkpt>
      <trkpt lat="47.93113" lon="3.51563">
        <ele>132</ele>
        <time>2019-04-01T08:17:49Z</time>
      </trkpt>
      <trkpt lat="47.93108" lon="3.51561">
        <ele>133</ele>
        <time>2019-04-01T08:17:53Z</time>
      </trkpt>
      <trkpt lat="47.93103" lon="3.51557">
        <ele>134</ele>
        <time>2019-04-01T08:17:57Z</time>
      </trkpt>
      <trkpt lat="47.93101" lon="3.51555">
        <ele>134</ele>
        <time>2019-04-01T08:18:00Z</time>
      </trkpt>
      <trkpt lat="47.93096" lon="3.51552">
        <ele>134</ele>
        <time>2019-04-01T08:18:04Z</time>
      </trkpt>
      <trkpt lat="47.93093" lon="3.51551">
        <ele>133</ele>
        <time>2019-04-01T08:18:06Z</time>
      </trkpt>
      <trkpt lat="47.93089" lon="3.51547">
        <ele>133</ele>
        <time>2019-04-01T08:18:10Z</time>
      </trkpt>
      <trkpt lat="47.93087" lon="3.51546">
        <ele>133</ele>
        <time>2019-04-01T08:18:12Z</time>
      </trkpt>
      <trkpt lat="47.93081" lon="3.51541">
        <ele>133</ele>
        <time>2019-04-01T08:18:17Z</time>
      </trkpt>
      <trkpt lat="47.93079" lon="3.51539">
        <ele>133</ele>
        <time>2019-04-01T08:18:19Z</time>
      </trkpt>
      <trkpt lat="47.93077" lon="3.51538">
        <ele>134</ele>
        <time>2019-04-01T08:18:21Z</time>
      </trkpt>
      <trkpt lat="47.93073" lon="3.51535">
        <ele>135</ele>
        <time>2019-04-01T08:18:25Z</time>
      </trkpt>
      <trkpt lat="47.93071" lon="3.51533">
        <ele>134</ele>
        <time>2019-04-01T08:18:27Z</time>
      </trkpt>
      <trkpt lat="47.93067" lon="3.51528">
        <ele>135</ele>
        <time>2019-04-01T08:18:32Z</time>
      </trkpt>
      <trkpt lat="47.93062" lon="3.51523">
        <ele>137</ele>
        <time>2019-04-01T08:18:38Z</time>
      </trkpt>
      <trkpt lat="47.93058" lon="3.5152">
        <ele>138</ele>
        <time>2019-04-01T08:18:43Z</time>
      </trkpt>
      <trkpt lat="47.93053" lon="3.51517">
        <ele>138</ele>
        <time>2019-04-01T08:18:47Z</time>
      </trkpt>
      <trkpt lat="47.93048" lon="3.51516">
        <ele>138</ele>
        <time>2019-04-01T08:18:51Z</time>
      </trkpt>
      <trkpt lat="47.93042" lon="3.51512">
        <ele>137</ele>
        <time>2019-04-01T08:18:55Z</time>
      </trkpt>
      <trkpt lat="47.93038" lon="3.51511">
        <ele>136</ele>
        <time>2019-04-01T08:18:59Z</time>
      </trkpt>
      <trkpt lat="47.93032" lon="3.51509">
        <ele>135</ele>
        <time>2019-04-01T08:19:03Z</time>
      </trkpt>
      <trkpt lat="47.93028" lon="3.51507">
        <ele>134</ele>
        <time>2019-04-01T08:19:06Z</time>
      </trkpt>
      <trkpt lat="47.93023" lon="3.51503">
        <ele>134</ele>
        <time>2019-04-01T08:19:10Z</time>
      </trkpt>
      <trkpt lat="47.93018" lon="3.51502">
        <ele>133</ele>
        <time>2019-04-01T08:19:14Z</time>
      </trkpt>
      <trkpt lat="47.93015" lon="3.51502">
        <ele>133</ele>
        <time>2019-04-01T08:19:16Z</time>
      </trkpt>
      <trkpt lat="47.93011" lon="3.515">
        <ele>133</ele>
        <time>2019-04-01T08:19:19Z</time>
      </trkpt>
      <trkpt lat="47.93008" lon="3.51499">
        <ele>133</ele>
        <time>2019-04-01T08:19:22Z</time>
      </trkpt>
      <trkpt lat="47.93003" lon="3.51497">
        <ele>133</ele>
        <time>2019-04-01T08:19:26Z</time>
      </trkpt>
      <trkpt lat="47.92999" lon="3.51496">
        <ele>133</ele>
        <time>2019-04-01T08:19:29Z</time>
      </trkpt>
      <trkpt lat="47.92996" lon="3.51496">
        <ele>134</ele>
        <time>2019-04-01T08:19:31Z</time>
      </trkpt>
      <trkpt lat="47.92991" lon="3.51493">
        <ele>134</ele>
        <time>2019-04-01T08:19:34Z</time>
      </trkpt>
      <trkpt lat="47.92986" lon="3.51492">
        <ele>134</ele>
        <time>2019-04-01T08:19:38Z</time>
      </trkpt>
      <trkpt lat="47.92982" lon="3.51491">
        <ele>134</ele>
        <time>2019-04-01T08:19:40Z</time>
      </trkpt>
      <trkpt lat="47.9298" lon="3.5149">
        <ele>134</ele>
        <time>2019-04-01T08:19:42Z</time>
      </trkpt>
      <trkpt lat="47.92975" lon="3.51489">
        <ele>133</ele>
        <time>2019-04-01T08:19:45Z</time>
      </trkpt>
      <trkpt lat="47.92972" lon="3.51488">
        <ele>133</ele>
        <time>2019-04-01T08:19:48Z</time>
      </trkpt>
      <trkpt lat="47.92966" lon="3.51488">
        <ele>134</ele>
        <time>2019-04-01T08:19:53Z</time>
      </trkpt>
      <trkpt lat="47.92961" lon="3.51486">
        <ele>134</ele>
        <time>2019-04-01T08:19:56Z</time>
      </trkpt>
      <trkpt lat="47.92956" lon="3.51485">
        <ele>133</ele>
        <time>2019-04-01T08:19:59Z</time>
      </trkpt>
      <trkpt lat="47.92953" lon="3.51484">
        <ele>134</ele>
        <time>2019-04-01T08:20:01Z</time>
      </trkpt>
      <trkpt lat="47.92949" lon="3.51483">
        <ele>135</ele>
        <time>2019-04-01T08:20:03Z</time>
      </trkpt>
      <trkpt lat="47.92945" lon="3.51482">
        <ele>134</ele>
        <time>2019-04-01T08:20:06Z</time>
      </trkpt>
      <trkpt lat="47.9294" lon="3.5148">
        <ele>133</ele>
        <time>2019-04-01T08:20:09Z</time>
      </trkpt>
      <trkpt lat="47.92936" lon="3.51479">
        <ele>133</ele>
        <time>2019-04-01T08:20:12Z</time>
      </trkpt>
      <trkpt lat="47.92933" lon="3.51478">
        <ele>133</ele>
        <time>2019-04-01T08:20:14Z</time>
      </trkpt>
      <trkpt lat="47.92928" lon="3.51478">
        <ele>133</ele>
        <time>2019-04-01T08:20:19Z</time>
      </trkpt>
      <trkpt lat="47.92923" lon="3.51476">
        <ele>134</ele>
        <time>2019-04-01T08:20:24Z</time>
      </trkpt>
      <trkpt lat="47.92919" lon="3.5148">
        <ele>133</ele>
        <time>2019-04-01T08:20:31Z</time>
      </trkpt>
      <trkpt lat="47.92917" lon="3.51482">
        <ele>134</ele>
        <time>2019-04-01T08:20:34Z</time>
      </trkpt>
      <trkpt lat="47.92913" lon="3.51484">
        <ele>135</ele>
        <time>2019-04-01T08:20:38Z</time>
      </trkpt>
      <trkpt lat="47.92907" lon="3.51485">
        <ele>134</ele>
        <time>2019-04-01T08:20:41Z</time>
      </trkpt>
      <trkpt lat="47.92903" lon="3.51485">
        <ele>134</ele>
        <time>2019-04-01T08:20:44Z</time>
      </trkpt>
      <trkpt lat="47.92896" lon="3.51487">
        <ele>133</ele>
        <time>2019-04-01T08:20:48Z</time>
      </trkpt>
      <trkpt lat="47.92892" lon="3.51488">
        <ele>133</ele>
        <time>2019-04-01T08:20:50Z</time>
      </trkpt>
      <trkpt lat="47.92889" lon="3.51489">
        <ele>132</ele>
        <time>2019-04-01T08:20:52Z</time>
      </trkpt>
      <trkpt lat="47.92886" lon="3.51489">
        <ele>132</ele>
        <time>2019-04-01T08:20:54Z</time>
      </trkpt>
      <trkpt lat="47.92881" lon="3.51489">
        <ele>132</ele>
        <time>2019-04-01T08:20:57Z</time>
      </trkpt>
      <trkpt lat="47.92878" lon="3.51489">
        <ele>132</ele>
        <time>2019-04-01T08:20:59Z</time>
      </trkpt>
      <trkpt lat="47.92873" lon="3.51491">
        <ele>132</ele>
        <time>2019-04-01T08:21:03Z</time>
      </trkpt>
      <trkpt lat="47.9287" lon="3.51493">
        <ele>131</ele>
        <time>2019-04-01T08:21:05Z</time>
      </trkpt>
      <trkpt lat="47.92866" lon="3.51494">
        <ele>132</ele>
        <time>2019-04-01T08:21:08Z</time>
      </trkpt>
      <trkpt lat="47.92863" lon="3.51495">
        <ele>131</ele>
        <time>2019-04-01T08:21:10Z</time>
      </trkpt>
      <trkpt lat="47.92859" lon="3.51495">
        <ele>131</ele>
        <time>2019-04-01T08:21:14Z</time>
      </trkpt>
      <trkpt lat="47.92854" lon="3.51498">
        <ele>132</ele>
        <time>2019-04-01T08:21:19Z</time>
      </trkpt>
      <trkpt lat="47.92848" lon="3.51498">
        <ele>132</ele>
        <time>2019-04-01T08:21:23Z</time>
      </trkpt>
      <trkpt lat="47.92843" lon="3.515">
        <ele>131</ele>
        <time>2019-04-01T08:21:27Z</time>
      </trkpt>
      <trkpt lat="47.92838" lon="3.515">
        <ele>131</ele>
        <time>2019-04-01T08:21:30Z</time>
      </trkpt>
      <trkpt lat="47.9283" lon="3.51501">
        <ele>132</ele>
        <time>2019-04-01T08:21:35Z</time>
      </trkpt>
      <trkpt lat="47.92828" lon="3.51501">
        <ele>132</ele>
        <time>2019-04-01T08:21:37Z</time>
      </trkpt>
      <trkpt lat="47.92822" lon="3.515">
        <ele>131</ele>
        <time>2019-04-01T08:21:42Z</time>
      </trkpt>
      <trkpt lat="47.92815" lon="3.51501">
        <ele>133</ele>
        <time>2019-04-01T08:21:48Z</time>
      </trkpt>
      <trkpt lat="47.92812" lon="3.51502">
        <ele>133</ele>
        <time>2019-04-01T08:21:51Z</time>
      </trkpt>
      <trkpt lat="47.9281" lon="3.51502">
        <ele>134</ele>
        <time>2019-04-01T08:21:53Z</time>
      </trkpt>
      <trkpt lat="47.92805" lon="3.51503">
        <ele>134</ele>
        <time>2019-04-01T08:21:56Z</time>
      </trkpt>
      <trkpt lat="47.928" lon="3.51501">
        <ele>133</ele>
        <time>2019-04-01T08:22:02Z</time>
      </trkpt>
      <trkpt lat="47.92797" lon="3.51501">
        <ele>133</ele>
        <time>2019-04-01T08:22:04Z</time>
      </trkpt>
      <trkpt lat="47.92791" lon="3.51502">
        <ele>134</ele>
        <time>2019-04-01T08:22:09Z</time>
      </trkpt>
      <trkpt lat="47.92785" lon="3.51502">
        <ele>135</ele>
        <time>2019-04-01T08:22:12Z</time>
      </trkpt>
      <trkpt lat="47.92779" lon="3.51501">
        <ele>135</ele>
        <time>2019-04-01T08:22:16Z</time>
      </trkpt>
      <trkpt lat="47.92775" lon="3.51501">
        <ele>135</ele>
        <time>2019-04-01T08:22:20Z</time>
      </trkpt>
      <trkpt lat="47.92771" lon="3.51502">
        <ele>135</ele>
        <time>2019-04-01T08:22:22Z</time>
      </trkpt>
      <trkpt lat="47.92767" lon="3.51502">
        <ele>134</ele>
        <time>2019-04-01T08:22:25Z</time>
      </trkpt>
      <trkpt lat="47.92762" lon="3.515">
        <ele>134</ele>
        <time>2019-04-01T08:22:29Z</time>
      </trkpt>
      <trkpt lat="47.92756" lon="3.51502">
        <ele>134</ele>
        <time>2019-04-01T08:22:34Z</time>
      </trkpt>
      <trkpt lat="47.9275" lon="3.51501">
        <ele>134</ele>
        <time>2019-04-01T08:22:40Z</time>
      </trkpt>
      <trkpt lat="47.92745" lon="3.51499">
        <ele>133</ele>
        <time>2019-04-01T08:22:44Z</time>
      </trkpt>
      <trkpt lat="47.92739" lon="3.515">
        <ele>131</ele>
        <time>2019-04-01T08:22:49Z</time>
      </trkpt>
      <trkpt lat="47.92734" lon="3.51499">
        <ele>129</ele>
        <time>2019-04-01T08:22:54Z</time>
      </trkpt>
      <trkpt lat="47.92729" lon="3.51499">
        <ele>130</ele>
        <time>2019-04-01T08:22:58Z</time>
      </trkpt>
      <trkpt lat="47.92724" lon="3.51496">
        <ele>131</ele>
        <time>2019-04-01T08:23:02Z</time>
      </trkpt>
      <trkpt lat="47.92718" lon="3.51497">
        <ele>131</ele>
        <time>2019-04-01T08:23:06Z</time>
      </trkpt>
      <trkpt lat="47.92714" lon="3.51497">
        <ele>130</ele>
        <time>2019-04-01T08:23:09Z</time>
      </trkpt>
      <trkpt lat="47.92711" lon="3.51498">
        <ele>131</ele>
        <time>2019-04-01T08:23:11Z</time>
      </trkpt>
      <trkpt lat="47.92708" lon="3.51498">
        <ele>132</ele>
        <time>2019-04-01T08:23:13Z</time>
      </trkpt>
      <trkpt lat="47.92702" lon="3.51501">
        <ele>133</ele>
        <time>2019-04-01T08:23:18Z</time>
      </trkpt>
      <trkpt lat="47.92697" lon="3.515">
        <ele>132</ele>
        <time>2019-04-01T08:23:22Z</time>
      </trkpt>
      <trkpt lat="47.92695" lon="3.51504">
        <ele>135</ele>
        <time>2019-04-01T08:23:32Z</time>
      </trkpt>
      <trkpt lat="47.9269" lon="3.51504">
        <ele>135</ele>
        <time>2019-04-01T08:23:38Z</time>
      </trkpt>
      <trkpt lat="47.92686" lon="3.51507">
        <ele>136</ele>
        <time>2019-04-01T08:23:42Z</time>
      </trkpt>
      <trkpt lat="47.92682" lon="3.51511">
        <ele>136</ele>
        <time>2019-04-01T08:23:45Z</time>
      </trkpt>
      <trkpt lat="47.9268" lon="3.51512">
        <ele>135</ele>
        <time>2019-04-01T08:23:47Z</time>
      </trkpt>
      <trkpt lat="47.92675" lon="3.51511">
        <ele>136</ele>
        <time>2019-04-01T08:23:51Z</time>
      </trkpt>
      <trkpt lat="47.92673" lon="3.51511">
        <ele>136</ele>
        <time>2019-04-01T08:23:53Z</time>
      </trkpt>
      <trkpt lat="47.92667" lon="3.51511">
        <ele>137</ele>
        <time>2019-04-01T08:23:58Z</time>
      </trkpt>
      <trkpt lat="47.92662" lon="3.51515">
        <ele>138</ele>
        <time>2019-04-01T08:24:03Z</time>
      </trkpt>
      <trkpt lat="47.92657" lon="3.51518">
        <ele>137</ele>
        <time>2019-04-01T08:24:07Z</time>
      </trkpt>
      <trkpt lat="47.92655" lon="3.51521">
        <ele>136</ele>
        <time>2019-04-01T08:24:10Z</time>
      </trkpt>
      <trkpt lat="47.92651" lon="3.51522">
        <ele>136</ele>
        <time>2019-04-01T08:24:14Z</time>
      </trkpt>
      <trkpt lat="47.92646" lon="3.51526">
        <ele>136</ele>
        <time>2019-04-01T08:24:18Z</time>
      </trkpt>
      <trkpt lat="47.92641" lon="3.51529">
        <ele>135</ele>
        <time>2019-04-01T08:24:22Z</time>
      </trkpt>
      <trkpt lat="47.92639" lon="3.51531">
        <ele>134</ele>
        <time>2019-04-01T08:24:25Z</time>
      </trkpt>
      <trkpt lat="47.92637" lon="3.51532">
        <ele>134</ele>
        <time>2019-04-01T08:24:27Z</time>
      </trkpt>
      <trkpt lat="47.92634" lon="3.51534">
        <ele>133</ele>
        <time>2019-04-01T08:24:30Z</time>
      </trkpt>
      <trkpt lat="47.9263" lon="3.51537">
        <ele>133</ele>
        <time>2019-04-01T08:24:33Z</time>
      </trkpt>
      <trkpt lat="47.92628" lon="3.51538">
        <ele>133</ele>
        <time>2019-04-01T08:24:35Z</time>
      </trkpt>
      <trkpt lat="47.92626" lon="3.5154">
        <ele>133</ele>
        <time>2019-04-01T08:24:37Z</time>
      </trkpt>
      <trkpt lat="47.9262" lon="3.51543">
        <ele>133</ele>
        <time>2019-04-01T08:24:41Z</time>
      </trkpt>
      <trkpt lat="47.92616" lon="3.51545">
        <ele>133</ele>
        <time>2019-04-01T08:24:44Z</time>
      </trkpt>
      <trkpt lat="47.92613" lon="3.51548">
        <ele>134</ele>
        <time>2019-04-01T08:24:47Z</time>
      </trkpt>
      <trkpt lat="47.92611" lon="3.51549">
        <ele>134</ele>
        <time>2019-04-01T08:24:49Z</time>
      </trkpt>
      <trkpt lat="47.92608" lon="3.51551">
        <ele>134</ele>
        <time>2019-04-01T08:24:51Z</time>
      </trkpt>
      <trkpt lat="47.92604" lon="3.51555">
        <ele>133</ele>
        <time>2019-04-01T08:24:55Z</time>
      </trkpt>
      <trkpt lat="47.92599" lon="3.51558">
        <ele>134</ele>
        <time>2019-04-01T08:24:58Z</time>
      </trkpt>
      <trkpt lat="47.92594" lon="3.51561">
        <ele>134</ele>
        <time>2019-04-01T08:25:03Z</time>
      </trkpt>
      <trkpt lat="47.92592" lon="3.51563">
        <ele>134</ele>
        <time>2019-04-01T08:25:05Z</time>
      </trkpt>
      <trkpt lat="47.9259" lon="3.51565">
        <ele>135</ele>
        <time>2019-04-01T08:25:07Z</time>
      </trkpt>
      <trkpt lat="47.92587" lon="3.51566">
        <ele>135</ele>
        <time>2019-04-01T08:25:09Z</time>
      </trkpt>
      <trkpt lat="47.92583" lon="3.51564">
        <ele>135</ele>
        <time>2019-04-01T08:25:15Z</time>
      </trkpt>
      <trkpt lat="47.92579" lon="3.51558">
        <ele>137</ele>
        <time>2019-04-01T08:25:20Z</time>
      </trkpt>
      <trkpt lat="47.92577" lon="3.51556">
        <ele>137</ele>
        <time>2019-04-01T08:25:22Z</time>
      </trkpt>
      <trkpt lat="47.92575" lon="3.51547">
        <ele>136</ele>
        <time>2019-04-01T08:25:27Z</time>
      </trkpt>
      <trkpt lat="47.92574" lon="3.5154">
        <ele>137</ele>
        <time>2019-04-01T08:25:31Z</time>
      </trkpt>
      <trkpt lat="47.92571" lon="3.51533">
        <ele>137</ele>
        <time>2019-04-01T08:25:35Z</time>
      </trkpt>
      <trkpt lat="47.9257" lon="3.51526">
        <ele>138</ele>
        <time>2019-04-01T08:25:39Z</time>
      </trkpt>
      <trkpt lat="47.92566" lon="3.5152">
        <ele>137</ele>
        <time>2019-04-01T08:25:43Z</time>
      </trkpt>
      <trkpt lat="47.92565" lon="3.51512">
        <ele>138</ele>
        <time>2019-04-01T08:25:48Z</time>
      </trkpt>
      <trkpt lat="47.92566" lon="3.51503">
        <ele>139</ele>
        <time>2019-04-01T08:25:53Z</time>
      </trkpt>
      <trkpt lat="47.92566" lon="3.51496">
        <ele>140</ele>
        <time>2019-04-01T08:25:58Z</time>
      </trkpt>
      <trkpt lat="47.92565" lon="3.51487">
        <ele>139</ele>
        <time>2019-04-01T08:26:03Z</time>
      </trkpt>
      <trkpt lat="47.92566" lon="3.5148">
        <ele>141</ele>
        <time>2019-04-01T08:26:07Z</time>
      </trkpt>
      <trkpt lat="47.92566" lon="3.51475">
        <ele>141</ele>
        <time>2019-04-01T08:26:09Z</time>
      </trkpt>
      <trkpt lat="47.92568" lon="3.51466">
        <ele>140</ele>
        <time>2019-04-01T08:26:13Z</time>
      </trkpt>
      <trkpt lat="47.9257" lon="3.51462">
        <ele>140</ele>
        <time>2019-04-01T08:26:16Z</time>
      </trkpt>
      <trkpt lat="47.92571" lon="3.51454">
        <ele>138</ele>
        <time>2019-04-01T08:26:21Z</time>
      </trkpt>
      <trkpt lat="47.92573" lon="3.51448">
        <ele>138</ele>
        <time>2019-04-01T08:26:24Z</time>
      </trkpt>
      <trkpt lat="47.92574" lon="3.51443">
        <ele>138</ele>
        <time>2019-04-01T08:26:27Z</time>
      </trkpt>
      <trkpt lat="47.92576" lon="3.51436">
        <ele>139</ele>
        <time>2019-04-01T08:26:31Z</time>
      </trkpt>
      <trkpt lat="47.92577" lon="3.5143">
        <ele>138</ele>
        <time>2019-04-01T08:26:35Z</time>
      </trkpt>
      <trkpt lat="47.92579" lon="3.51421">
        <ele>139</ele>
        <time>2019-04-01T08:26:39Z</time>
      </trkpt>
      <trkpt lat="47.9258" lon="3.51414">
        <ele>140</ele>
        <time>2019-04-01T08:26:43Z</time>
      </trkpt>
      <trkpt lat="47.9258" lon="3.51406">
        <ele>142</ele>
        <time>2019-04-01T08:26:47Z</time>
      </trkpt>
      <trkpt lat="47.9258" lon="3.51399">
        <ele>142</ele>
        <time>2019-04-01T08:26:50Z</time>
      </trkpt>
      <trkpt lat="47.92581" lon="3.51392">
        <ele>142</ele>
        <time>2019-04-01T08:26:54Z</time>
      </trkpt>
      <trkpt lat="47.92581" lon="3.51384">
        <ele>140</ele>
        <time>2019-04-01T08:26:59Z</time>
      </trkpt>
      <trkpt lat="47.92582" lon="3.51376">
        <ele>141</ele>
        <time>2019-04-01T08:27:04Z</time>
      </trkpt>
      <trkpt lat="47.92582" lon="3.51371">
        <ele>142</ele>
        <time>2019-04-01T08:27:07Z</time>
      </trkpt>
      <trkpt lat="47.92579" lon="3.51364">
        <ele>143</ele>
        <time>2019-04-01T08:27:11Z</time>
      </trkpt>
      <trkpt lat="47.92577" lon="3.51358">
        <ele>142</ele>
        <time>2019-04-01T08:27:15Z</time>
      </trkpt>
      <trkpt lat="47.92573" lon="3.51355">
        <ele>142</ele>
        <time>2019-04-01T08:27:18Z</time>
      </trkpt>
      <trkpt lat="47.92569" lon="3.51352">
        <ele>143</ele>
        <time>2019-04-01T08:27:21Z</time>
      </trkpt>
      <trkpt lat="47.92563" lon="3.51353">
        <ele>144</ele>
        <time>2019-04-01T08:27:26Z</time>
      </trkpt>
      <trkpt lat="47.92558" lon="3.51355">
        <ele>145</ele>
        <time>2019-04-01T08:27:29Z</time>
      </trkpt>
      <trkpt lat="47.92554" lon="3.51355">
        <ele>144</ele>
        <time>2019-04-01T08:27:31Z</time>
      </trkpt>
      <trkpt lat="47.92548" lon="3.51356">
        <ele>145</ele>
        <time>2019-04-01T08:27:35Z</time>
      </trkpt>
      <trkpt lat="47.92543" lon="3.51359">
        <ele>146</ele>
        <time>2019-04-01T08:27:39Z</time>
      </trkpt>
      <trkpt lat="47.92538" lon="3.51361">
        <ele>146</ele>
        <time>2019-04-01T08:27:45Z</time>
      </trkpt>
      <trkpt lat="47.92534" lon="3.51362">
        <ele>145</ele>
        <time>2019-04-01T08:27:48Z</time>
      </trkpt>
      <trkpt lat="47.92529" lon="3.51365">
        <ele>145</ele>
        <time>2019-04-01T08:27:51Z</time>
      </trkpt>
      <trkpt lat="47.92524" lon="3.51365">
        <ele>146</ele>
        <time>2019-04-01T08:27:54Z</time>
      </trkpt>
      <trkpt lat="47.92519" lon="3.51369">
        <ele>147</ele>
        <time>2019-04-01T08:28:00Z</time>
      </trkpt>
      <trkpt lat="47.92516" lon="3.51372">
        <ele>147</ele>
        <time>2019-04-01T08:28:04Z</time>
      </trkpt>
      <trkpt lat="47.92511" lon="3.51373">
        <ele>148</ele>
        <time>2019-04-01T08:28:08Z</time>
      </trkpt>
      <trkpt lat="47.92505" lon="3.51376">
        <ele>149</ele>
        <time>2019-04-01T08:28:12Z</time>
      </trkpt>
      <trkpt lat="47.92499" lon="3.51376">
        <ele>147</ele>
        <time>2019-04-01T08:28:15Z</time>
      </trkpt>
      <trkpt lat="47.92493" lon="3.51379">
        <ele>147</ele>
        <time>2019-04-01T08:28:19Z</time>
      </trkpt>
      <trkpt lat="47.92487" lon="3.51379">
        <ele>147</ele>
        <time>2019-04-01T08:28:23Z</time>
      </trkpt>
      <trkpt lat="47.92485" lon="3.5138">
        <ele>146</ele>
        <time>2019-04-01T08:28:25Z</time>
      </trkpt>
      <trkpt lat="47.9248" lon="3.51382">
        <ele>146</ele>
        <time>2019-04-01T08:28:28Z</time>
      </trkpt>
      <trkpt lat="47.92476" lon="3.51383">
        <ele>146</ele>
        <time>2019-04-01T08:28:32Z</time>
      </trkpt>
      <trkpt lat="47.92471" lon="3.51384">
        <ele>146</ele>
        <time>2019-04-01T08:28:36Z</time>
      </trkpt>
      <trkpt lat="47.92466" lon="3.51388">
        <ele>147</ele>
        <time>2019-04-01T08:28:40Z</time>
      </trkpt>
      <trkpt lat="47.92463" lon="3.51389">
        <ele>146</ele>
        <time>2019-04-01T08:28:43Z</time>
      </trkpt>
      <trkpt lat="47.92459" lon="3.51392">
        <ele>146</ele>
        <time>2019-04-01T08:28:48Z</time>
      </trkpt>
      <trkpt lat="47.92452" lon="3.51396">
        <ele>146</ele>
        <time>2019-04-01T08:28:53Z</time>
      </trkpt>
      <trkpt lat="47.92447" lon="3.51399">
        <ele>147</ele>
        <time>2019-04-01T08:28:57Z</time>
      </trkpt>
      <trkpt lat="47.92441" lon="3.51401">
        <ele>147</ele>
        <time>2019-04-01T08:29:00Z</time>
      </trkpt>
      <trkpt lat="47.92436" lon="3.51398">
        <ele>145</ele>
        <time>2019-04-01T08:29:03Z</time>
      </trkpt>
      <trkpt lat="47.92431" lon="3.51398">
        <ele>144</ele>
        <time>2019-04-01T08:29:07Z</time>
      </trkpt>
      <trkpt lat="47.92428" lon="3.51397">
        <ele>143</ele>
        <time>2019-04-01T08:29:09Z</time>
      </trkpt>
      <trkpt lat="47.92426" lon="3.51397">
        <ele>142</ele>
        <time>2019-04-01T08:29:11Z</time>
      </trkpt>
      <trkpt lat="47.92421" lon="3.51399">
        <ele>142</ele>
        <time>2019-04-01T08:29:16Z</time>
      </trkpt>
      <trkpt lat="47.92418" lon="3.51399">
        <ele>143</ele>
        <time>2019-04-01T08:29:18Z</time>
      </trkpt>
      <trkpt lat="47.92415" lon="3.514">
        <ele>144</ele>
        <time>2019-04-01T08:29:20Z</time>
      </trkpt>
      <trkpt lat="47.92412" lon="3.51401">
        <ele>145</ele>
        <time>2019-04-01T08:29:22Z</time>
      </trkpt>
      <trkpt lat="47.92406" lon="3.51402">
        <ele>144</ele>
        <time>2019-04-01T08:29:26Z</time>
      </trkpt>
      <trkpt lat="47.92403" lon="3.51402">
        <ele>145</ele>
        <time>2019-04-01T08:29:28Z</time>
      </trkpt>
      <trkpt lat="47.924" lon="3.51403">
        <ele>145</ele>
        <time>2019-04-01T08:29:30Z</time>
      </trkpt>
      <trkpt lat="47.92396" lon="3.51404">
        <ele>145</ele>
        <time>2019-04-01T08:29:34Z</time>
      </trkpt>
      <trkpt lat="47.92393" lon="3.51404">
        <ele>144</ele>
        <time>2019-04-01T08:29:36Z</time>
      </trkpt>
      <trkpt lat="47.9239" lon="3.51405">
        <ele>145</ele>
        <time>2019-04-01T08:29:38Z</time>
      </trkpt>
      <trkpt lat="47.92387" lon="3.51405">
        <ele>147</ele>
        <time>2019-04-01T08:29:41Z</time>
      </trkpt>
      <trkpt lat="47.92382" lon="3.51407">
        <ele>146</ele>
        <time>2019-04-01T08:29:45Z</time>
      </trkpt>
      <trkpt lat="47.92377" lon="3.51408">
        <ele>147</ele>
        <time>2019-04-01T08:29:49Z</time>
      </trkpt>
      <trkpt lat="47.92371" lon="3.5141">
        <ele>147</ele>
        <time>2019-04-01T08:29:53Z</time>
      </trkpt>
      <trkpt lat="47.92366" lon="3.51412">
        <ele>147</ele>
        <time>2019-04-01T08:29:56Z</time>
      </trkpt>
      <trkpt lat="47.92361" lon="3.51413">
        <ele>148</ele>
        <time>2019-04-01T08:30:01Z</time>
      </trkpt>
      <trkpt lat="47.92355" lon="3.51413">
        <ele>147</ele>
        <time>2019-04-01T08:30:05Z</time>
      </trkpt>
      <trkpt lat="47.9235" lon="3.51414">
        <ele>143</ele>
        <time>2019-04-01T08:30:10Z</time>
      </trkpt>
      <trkpt lat="47.92345" lon="3.51417">
        <ele>142</ele>
        <time>2019-04-01T08:30:14Z</time>
      </trkpt>
      <trkpt lat="47.9234" lon="3.51418">
        <ele>142</ele>
        <time>2019-04-01T08:30:18Z</time>
      </trkpt>
      <trkpt lat="47.92334" lon="3.51417">
        <ele>142</ele>
        <time>2019-04-01T08:30:22Z</time>
      </trkpt>
      <trkpt lat="47.92329" lon="3.51418">
        <ele>143</ele>
        <time>2019-04-01T08:30:26Z</time>
      </trkpt>
      <trkpt lat="47.92324" lon="3.51421">
        <ele>143</ele>
        <time>2019-04-01T08:30:30Z</time>
      </trkpt>
      <trkpt lat="47.92318" lon="3.51423">
        <ele>144</ele>
        <time>2019-04-01T08:30:34Z</time>
      </trkpt>
      <trkpt lat="47.92314" lon="3.51424">
        <ele>143</ele>
        <time>2019-04-01T08:30:37Z</time>
      </trkpt>
      <trkpt lat="47.9231" lon="3.51428">
        <ele>143</ele>
        <time>2019-04-01T08:30:41Z</time>
      </trkpt>
      <trkpt lat="47.92301" lon="3.51428">
        <ele>143</ele>
        <time>2019-04-01T08:30:47Z</time>
      </trkpt>
      <trkpt lat="47.92295" lon="3.51429">
        <ele>144</ele>
        <time>2019-04-01T08:30:51Z</time>
      </trkpt>
      <trkpt lat="47.92289" lon="3.51428">
        <ele>144</ele>
        <time>2019-04-01T08:30:56Z</time>
      </trkpt>
      <trkpt lat="47.92286" lon="3.51428">
        <ele>144</ele>
        <time>2019-04-01T08:30:58Z</time>
      </trkpt>
      <trkpt lat="47.92281" lon="3.51429">
        <ele>142</ele>
        <time>2019-04-01T08:31:03Z</time>
      </trkpt>
      <trkpt lat="47.92278" lon="3.51429">
        <ele>143</ele>
        <time>2019-04-01T08:31:06Z</time>
      </trkpt>
      <trkpt lat="47.92274" lon="3.51429">
        <ele>142</ele>
        <time>2019-04-01T08:31:09Z</time>
      </trkpt>
      <trkpt lat="47.92271" lon="3.5143">
        <ele>142</ele>
        <time>2019-04-01T08:31:11Z</time>
      </trkpt>
      <trkpt lat="47.92266" lon="3.51432">
        <ele>142</ele>
        <time>2019-04-01T08:31:14Z</time>
      </trkpt>
      <trkpt lat="47.92262" lon="3.51434">
        <ele>143</ele>
        <time>2019-04-01T08:31:18Z</time>
      </trkpt>
      <trkpt lat="47.92256" lon="3.51435">
        <ele>144</ele>
        <time>2019-04-01T08:31:22Z</time>
      </trkpt>
      <trkpt lat="47.92252" lon="3.51435">
        <ele>143</ele>
        <time>2019-04-01T08:31:26Z</time>
      </trkpt>
      <trkpt lat="47.92245" lon="3.51439">
        <ele>144</ele>
        <time>2019-04-01T08:31:31Z</time>
      </trkpt>
      <trkpt lat="47.9224" lon="3.51439">
        <ele>144</ele>
        <time>2019-04-01T08:31:34Z</time>
      </trkpt>
      <trkpt lat="47.92236" lon="3.51441">
        <ele>143</ele>
        <time>2019-04-01T08:31:37Z</time>
      </trkpt>
      <trkpt lat="47.9223" lon="3.51442">
        <ele>144</ele>
        <time>2019-04-01T08:31:41Z</time>
      </trkpt>
      <trkpt lat="47.92228" lon="3.51444">
        <ele>142</ele>
        <time>2019-04-01T08:31:43Z</time>
      </trkpt>
      <trkpt lat="47.92226" lon="3.51445">
        <ele>142</ele>
        <time>2019-04-01T08:31:45Z</time>
      </trkpt>
      <trkpt lat="47.9222" lon="3.51446">
        <ele>143</ele>
        <time>2019-04-01T08:31:49Z</time>
      </trkpt>
      <trkpt lat="47.92216" lon="3.51447">
        <ele>143</ele>
        <time>2019-04-01T08:31:52Z</time>
      </trkpt>
      <trkpt lat="47.92213" lon="3.51448">
        <ele>143</ele>
        <time>2019-04-01T08:31:54Z</time>
      </trkpt>
      <trkpt lat="47.92207" lon="3.51453">
        <ele>144</ele>
        <time>2019-04-01T08:31:59Z</time>
      </trkpt>
      <trkpt lat="47.92204" lon="3.51455">
        <ele>145</ele>
        <time>2019-04-01T08:32:01Z</time>
      </trkpt>
      <trkpt lat="47.922" lon="3.51456">
        <ele>144</ele>
        <time>2019-04-01T08:32:04Z</time>
      </trkpt>
      <trkpt lat="47.92195" lon="3.51456">
        <ele>144</ele>
        <time>2019-04-01T08:32:08Z</time>
      </trkpt>
      <trkpt lat="47.9219" lon="3.51457">
        <ele>143</ele>
        <time>2019-04-01T08:32:12Z</time>
      </trkpt>
      <trkpt lat="47.92185" lon="3.5146">
        <ele>143</ele>
        <time>2019-04-01T08:32:17Z</time>
      </trkpt>
      <trkpt lat="47.9218" lon="3.51463">
        <ele>145</ele>
        <time>2019-04-01T08:32:21Z</time>
      </trkpt>
      <trkpt lat="47.92175" lon="3.51463">
        <ele>144</ele>
        <time>2019-04-01T08:32:24Z</time>
      </trkpt>
      <trkpt lat="47.9217" lon="3.51465">
        <ele>142</ele>
        <time>2019-04-01T08:32:29Z</time>
      </trkpt>
      <trkpt lat="47.92164" lon="3.51465">
        <ele>145</ele>
        <time>2019-04-01T08:32:32Z</time>
      </trkpt>
      <trkpt lat="47.92159" lon="3.51468">
        <ele>145</ele>
        <time>2019-04-01T08:32:36Z</time>
      </trkpt>
      <trkpt lat="47.92154" lon="3.51469">
        <ele>145</ele>
        <time>2019-04-01T08:32:40Z</time>
      </trkpt>
      <trkpt lat="47.92151" lon="3.51469">
        <ele>144</ele>
        <time>2019-04-01T08:32:43Z</time>
      </trkpt>
      <trkpt lat="47.92148" lon="3.51469">
        <ele>144</ele>
        <time>2019-04-01T08:32:45Z</time>
      </trkpt>
      <trkpt lat="47.92142" lon="3.51471">
        <ele>141</ele>
        <time>2019-04-01T08:32:50Z</time>
      </trkpt>
      <trkpt lat="47.92138" lon="3.51472">
        <ele>140</ele>
        <time>2019-04-01T08:32:53Z</time>
      </trkpt>
      <trkpt lat="47.92134" lon="3.51473">
        <ele>139</ele>
        <time>2019-04-01T08:32:56Z</time>
      </trkpt>
      <trkpt lat="47.92129" lon="3.51472">
        <ele>140</ele>
        <time>2019-04-01T08:33:02Z</time>
      </trkpt>
      <trkpt lat="47.92124" lon="3.51473">
        <ele>139</ele>
        <time>2019-04-01T08:33:06Z</time>
      </trkpt>
      <trkpt lat="47.92121" lon="3.51474">
        <ele>140</ele>
        <time>2019-04-01T08:33:08Z</time>
      </trkpt>
      <trkpt lat="47.92117" lon="3.51476">
        <ele>140</ele>
        <time>2019-04-01T08:33:11Z</time>
      </trkpt>
      <trkpt lat="47.92112" lon="3.51478">
        <ele>138</ele>
        <time>2019-04-01T08:33:14Z</time>
      </trkpt>
      <trkpt lat="47.92108" lon="3.5148">
        <ele>138</ele>
        <time>2019-04-01T08:33:16Z</time>
      </trkpt>
      <trkpt lat="47.92106" lon="3.51481">
        <ele>139</ele>
        <time>2019-04-01T08:33:19Z</time>
      </trkpt>
      <trkpt lat="47.921" lon="3.51483">
        <ele>139</ele>
        <time>2019-04-01T08:33:23Z</time>
      </trkpt>
      <trkpt lat="47.92095" lon="3.51485">
        <ele>139</ele>
        <time>2019-04-01T08:33:27Z</time>
      </trkpt>
      <trkpt lat="47.92092" lon="3.51487">
        <ele>139</ele>
        <time>2019-04-01T08:33:29Z</time>
      </trkpt>
      <trkpt lat="47.92089" lon="3.51488">
        <ele>140</ele>
        <time>2019-04-01T08:33:31Z</time>
      </trkpt>
      <trkpt lat="47.92083" lon="3.51489">
        <ele>140</ele>
        <time>2019-04-01T08:33:36Z</time>
      </trkpt>
      <trkpt lat="47.92079" lon="3.5149">
        <ele>140</ele>
        <time>2019-04-01T08:33:39Z</time>
      </trkpt>
      <trkpt lat="47.92076" lon="3.51491">
        <ele>140</ele>
        <time>2019-04-01T08:33:41Z</time>
      </trkpt>
      <trkpt lat="47.92073" lon="3.51492">
        <ele>140</ele>
        <time>2019-04-01T08:33:43Z</time>
      </trkpt>
      <trkpt lat="47.92067" lon="3.51495">
        <ele>138</ele>
        <time>2019-04-01T08:33:48Z</time>
      </trkpt>
      <trkpt lat="47.92062" lon="3.51496">
        <ele>139</ele>
        <time>2019-04-01T08:33:52Z</time>
      </trkpt>
      <trkpt lat="47.92057" lon="3.51499">
        <ele>139</ele>
        <time>2019-04-01T08:33:56Z</time>
      </trkpt>
      <trkpt lat="47.92053" lon="3.51501">
        <ele>139</ele>
        <time>2019-04-01T08:33:59Z</time>
      </trkpt>
      <trkpt lat="47.92047" lon="3.515">
        <ele>140</ele>
        <time>2019-04-01T08:34:03Z</time>
      </trkpt>
      <trkpt lat="47.92043" lon="3.51502">
        <ele>140</ele>
        <time>2019-04-01T08:34:06Z</time>
      </trkpt>
      <trkpt lat="47.92039" lon="3.51504">
        <ele>140</ele>
        <time>2019-04-01T08:34:09Z</time>
      </trkpt>
      <trkpt lat="47.92036" lon="3.51505">
        <ele>139</ele>
        <time>2019-04-01T08:34:11Z</time>
      </trkpt>
      <trkpt lat="47.92033" lon="3.51506">
        <ele>141</ele>
        <time>2019-04-01T08:34:14Z</time>
      </trkpt>
      <trkpt lat="47.92029" lon="3.51506">
        <ele>139</ele>
        <time>2019-04-01T08:34:17Z</time>
      </trkpt>
      <trkpt lat="47.92024" lon="3.51509">
        <ele>139</ele>
        <time>2019-04-01T08:34:21Z</time>
      </trkpt>
      <trkpt lat="47.92019" lon="3.51509">
        <ele>141</ele>
        <time>2019-04-01T08:34:25Z</time>
      </trkpt>
      <trkpt lat="47.92016" lon="3.5151">
        <ele>139</ele>
        <time>2019-04-01T08:34:30Z</time>
      </trkpt>
      <trkpt lat="47.92014" lon="3.5151">
        <ele>139</ele>
        <time>2019-04-01T08:34:33Z</time>
      </trkpt>
      <trkpt lat="47.9201" lon="3.51513">
        <ele>140</ele>
        <time>2019-04-01T08:34:36Z</time>
      </trkpt>
      <trkpt lat="47.92003" lon="3.51515">
        <ele>141</ele>
        <time>2019-04-01T08:34:40Z</time>
      </trkpt>
      <trkpt lat="47.91997" lon="3.51513">
        <ele>138</ele>
        <time>2019-04-01T08:34:45Z</time>
      </trkpt>
      <trkpt lat="47.91992" lon="3.51516">
        <ele>138</ele>
        <time>2019-04-01T08:34:50Z</time>
      </trkpt>
      <trkpt lat="47.91987" lon="3.51516">
        <ele>138</ele>
        <time>2019-04-01T08:34:53Z</time>
      </trkpt>
      <trkpt lat="47.91981" lon="3.51518">
        <ele>136</ele>
        <time>2019-04-01T08:34:57Z</time>
      </trkpt>
      <trkpt lat="47.91976" lon="3.51519">
        <ele>136</ele>
        <time>2019-04-01T08:35:00Z</time>
      </trkpt>
      <trkpt lat="47.91971" lon="3.51521">
        <ele>137</ele>
        <time>2019-04-01T08:35:04Z</time>
      </trkpt>
      <trkpt lat="47.91968" lon="3.51523">
        <ele>137</ele>
        <time>2019-04-01T08:35:06Z</time>
      </trkpt>
      <trkpt lat="47.91962" lon="3.51523">
        <ele>138</ele>
        <time>2019-04-01T08:35:10Z</time>
      </trkpt>
      <trkpt lat="47.91958" lon="3.51524">
        <ele>137</ele>
        <time>2019-04-01T08:35:13Z</time>
      </trkpt>
      <trkpt lat="47.91955" lon="3.51525">
        <ele>137</ele>
        <time>2019-04-01T08:35:16Z</time>
      </trkpt>
      <trkpt lat="47.91952" lon="3.51526">
        <ele>138</ele>
        <time>2019-04-01T08:35:18Z</time>
      </trkpt>
      <trkpt lat="47.91947" lon="3.51528">
        <ele>139</ele>
        <time>2019-04-01T08:35:21Z</time>
      </trkpt>
      <trkpt lat="47.91944" lon="3.51529">
        <ele>138</ele>
        <time>2019-04-01T08:35:23Z</time>
      </trkpt>
      <trkpt lat="47.9194" lon="3.51529">
        <ele>137</ele>
        <time>2019-04-01T08:35:27Z</time>
      </trkpt>
      <trkpt lat="47.91935" lon="3.51532">
        <ele>138</ele>
        <time>2019-04-01T08:35:31Z</time>
      </trkpt>
      <trkpt lat="47.91933" lon="3.51533">
        <ele>137</ele>
        <time>2019-04-01T08:35:33Z</time>
      </trkpt>
      <trkpt lat="47.91926" lon="3.51534">
        <ele>136</ele>
        <time>2019-04-01T08:35:38Z</time>
      </trkpt>
      <trkpt lat="47.91923" lon="3.51534">
        <ele>136</ele>
        <time>2019-04-01T08:35:40Z</time>
      </trkpt>
      <trkpt lat="47.91917" lon="3.51536">
        <ele>136</ele>
        <time>2019-04-01T08:35:44Z</time>
      </trkpt>
      <trkpt lat="47.91913" lon="3.51538">
        <ele>135</ele>
        <time>2019-04-01T08:35:48Z</time>
      </trkpt>
      <trkpt lat="47.91907" lon="3.51539">
        <ele>137</ele>
        <time>2019-04-01T08:35:52Z</time>
      </trkpt>
      <trkpt lat="47.91905" lon="3.5154">
        <ele>138</ele>
        <time>2019-04-01T08:35:54Z</time>
      </trkpt>
      <trkpt lat="47.91902" lon="3.51541">
        <ele>138</ele>
        <time>2019-04-01T08:35:56Z</time>
      </trkpt>
      <trkpt lat="47.91896" lon="3.51542">
        <ele>138</ele>
        <time>2019-04-01T08:36:00Z</time>
      </trkpt>
      <trkpt lat="47.91891" lon="3.51544">
        <ele>137</ele>
        <time>2019-04-01T08:36:04Z</time>
      </trkpt>
      <trkpt lat="47.91887" lon="3.51546">
        <ele>137</ele>
        <time>2019-04-01T08:36:07Z</time>
      </trkpt>
      <trkpt lat="47.91883" lon="3.51548">
        <ele>136</ele>
        <time>2019-04-01T08:36:11Z</time>
      </trkpt>
      <trkpt lat="47.91878" lon="3.51549">
        <ele>137</ele>
        <time>2019-04-01T08:36:14Z</time>
      </trkpt>
      <trkpt lat="47.91873" lon="3.51551">
        <ele>137</ele>
        <time>2019-04-01T08:36:17Z</time>
      </trkpt>
      <trkpt lat="47.91867" lon="3.51551">
        <ele>137</ele>
        <time>2019-04-01T08:36:21Z</time>
      </trkpt>
      <trkpt lat="47.91862" lon="3.51554">
        <ele>137</ele>
        <time>2019-04-01T08:36:25Z</time>
      </trkpt>
      <trkpt lat="47.91855" lon="3.51556">
        <ele>137</ele>
        <time>2019-04-01T08:36:30Z</time>
      </trkpt>
      <trkpt lat="47.91852" lon="3.51556">
        <ele>137</ele>
        <time>2019-04-01T08:36:32Z</time>
      </trkpt>
      <trkpt lat="47.91847" lon="3.51555">
        <ele>137</ele>
        <time>2019-04-01T08:36:36Z</time>
      </trkpt>
      <trkpt lat="47.91842" lon="3.51556">
        <ele>137</ele>
        <time>2019-04-01T08:36:40Z</time>
      </trkpt>
      <trkpt lat="47.91839" lon="3.51557">
        <ele>137</ele>
        <time>2019-04-01T08:36:43Z</time>
      </trkpt>
      <trkpt lat="47.91835" lon="3.51559">
        <ele>137</ele>
        <time>2019-04-01T08:36:46Z</time>
      </trkpt>
      <trkpt lat="47.91829" lon="3.51559">
        <ele>137</ele>
        <time>2019-04-01T08:36:50Z</time>
      </trkpt>
      <trkpt lat="47.91825" lon="3.51559">
        <ele>138</ele>
        <time>2019-04-01T08:36:53Z</time>
      </trkpt>
      <trkpt lat="47.9182" lon="3.5156">
        <ele>138</ele>
        <time>2019-04-01T08:36:57Z</time>
      </trkpt>
      <trkpt lat="47.91814" lon="3.51564">
        <ele>136</ele>
        <time>2019-04-01T08:37:02Z</time>
      </trkpt>
      <trkpt lat="47.91809" lon="3.51565">
        <ele>136</ele>
        <time>2019-04-01T08:37:06Z</time>
      </trkpt>
      <trkpt lat="47.91804" lon="3.51565">
        <ele>135</ele>
        <time>2019-04-01T08:37:10Z</time>
      </trkpt>
      <trkpt lat="47.91799" lon="3.51568">
        <ele>136</ele>
        <time>2019-04-01T08:37:14Z</time>
      </trkpt>
      <trkpt lat="47.91795" lon="3.51569">
        <ele>136</ele>
        <time>2019-04-01T08:37:17Z</time>
      </trkpt>
      <trkpt lat="47.9179" lon="3.51569">
        <ele>136</ele>
        <time>2019-04-01T08:37:21Z</time>
      </trkpt>
      <trkpt lat="47.91785" lon="3.5157">
        <ele>136</ele>
        <time>2019-04-01T08:37:25Z</time>
      </trkpt>
      <trkpt lat="47.91781" lon="3.5157">
        <ele>137</ele>
        <time>2019-04-01T08:37:28Z</time>
      </trkpt>
      <trkpt lat="47.91776" lon="3.51568">
        <ele>137</ele>
        <time>2019-04-01T08:37:33Z</time>
      </trkpt>
      <trkpt lat="47.91772" lon="3.51565">
        <ele>137</ele>
        <time>2019-04-01T08:37:37Z</time>
      </trkpt>
      <trkpt lat="47.91769" lon="3.51559">
        <ele>137</ele>
        <time>2019-04-01T08:37:42Z</time>
      </trkpt>
      <trkpt lat="47.91767" lon="3.51557">
        <ele>136</ele>
        <time>2019-04-01T08:37:44Z</time>
      </trkpt>
      <trkpt lat="47.91764" lon="3.51551">
        <ele>137</ele>
        <time>2019-04-01T08:37:48Z</time>
      </trkpt>
      <trkpt lat="47.91762" lon="3.51548">
        <ele>137</ele>
        <time>2019-04-01T08:37:51Z</time>
      </trkpt>
      <trkpt lat="47.91758" lon="3.51544">
        <ele>137</ele>
        <time>2019-04-01T08:37:54Z</time>
      </trkpt>
      <trkpt lat="47.91754" lon="3.51539">
        <ele>136</ele>
        <time>2019-04-01T08:37:58Z</time>
      </trkpt>
      <trkpt lat="47.9175" lon="3.51532">
        <ele>136</ele>
        <time>2019-04-01T08:38:02Z</time>
      </trkpt>
      <trkpt lat="47.91747" lon="3.51527">
        <ele>138</ele>
        <time>2019-04-01T08:38:06Z</time>
      </trkpt>
      <trkpt lat="47.91745" lon="3.51523">
        <ele>137</ele>
        <time>2019-04-01T08:38:09Z</time>
      </trkpt>
      <trkpt lat="47.91744" lon="3.51516">
        <ele>137</ele>
        <time>2019-04-01T08:38:14Z</time>
      </trkpt>
      <trkpt lat="47.91743" lon="3.51511">
        <ele>137</ele>
        <time>2019-04-01T08:38:17Z</time>
      </trkpt>
      <trkpt lat="47.91742" lon="3.51504">
        <ele>137</ele>
        <time>2019-04-01T08:38:22Z</time>
      </trkpt>
      <trkpt lat="47.91742" lon="3.51499">
        <ele>138</ele>
        <time>2019-04-01T08:38:25Z</time>
      </trkpt>
      <trkpt lat="47.91742" lon="3.51493">
        <ele>137</ele>
        <time>2019-04-01T08:38:29Z</time>
      </trkpt>
      <trkpt lat="47.91742" lon="3.51488">
        <ele>136</ele>
        <time>2019-04-01T08:38:31Z</time>
      </trkpt>
      <trkpt lat="47.91741" lon="3.51481">
        <ele>136</ele>
        <time>2019-04-01T08:38:34Z</time>
      </trkpt>
      <trkpt lat="47.91738" lon="3.51474">
        <ele>137</ele>
        <time>2019-04-01T08:38:37Z</time>
      </trkpt>
      <trkpt lat="47.91736" lon="3.51469">
        <ele>137</ele>
        <time>2019-04-01T08:38:45Z</time>
      </trkpt>
      <trkpt lat="47.91734" lon="3.51463">
        <ele>137</ele>
        <time>2019-04-01T08:38:49Z</time>
      </trkpt>
      <trkpt lat="47.91731" lon="3.51455">
        <ele>138</ele>
        <time>2019-04-01T08:38:53Z</time>
      </trkpt>
      <trkpt lat="47.91726" lon="3.5145">
        <ele>138</ele>
        <time>2019-04-01T08:38:57Z</time>
      </trkpt>
      <trkpt lat="47.91724" lon="3.51447">
        <ele>137</ele>
        <time>2019-04-01T08:38:59Z</time>
      </trkpt>
      <trkpt lat="47.91719" lon="3.51445">
        <ele>138</ele>
        <time>2019-04-01T08:39:03Z</time>
      </trkpt>
      <trkpt lat="47.91714" lon="3.51443">
        <ele>138</ele>
        <time>2019-04-01T08:39:07Z</time>
      </trkpt>
      <trkpt lat="47.91708" lon="3.51443">
        <ele>137</ele>
        <time>2019-04-01T08:39:11Z</time>
      </trkpt>
      <trkpt lat="47.91703" lon="3.51443">
        <ele>138</ele>
        <time>2019-04-01T08:39:15Z</time>
      </trkpt>
      <trkpt lat="47.91698" lon="3.51441">
        <ele>140</ele>
        <time>2019-04-01T08:39:19Z</time>
      </trkpt>
      <trkpt lat="47.91694" lon="3.51438">
        <ele>139</ele>
        <time>2019-04-01T08:39:23Z</time>
      </trkpt>
      <trkpt lat="47.91689" lon="3.51433">
        <ele>138</ele>
        <time>2019-04-01T08:39:28Z</time>
      </trkpt>
      <trkpt lat="47.91686" lon="3.5143">
        <ele>139</ele>
        <time>2019-04-01T08:39:30Z</time>
      </trkpt>
      <trkpt lat="47.91684" lon="3.51428">
        <ele>139</ele>
        <time>2019-04-01T08:39:32Z</time>
      </trkpt>
      <trkpt lat="47.9168" lon="3.51423">
        <ele>139</ele>
        <time>2019-04-01T08:39:36Z</time>
      </trkpt>
      <trkpt lat="47.91676" lon="3.51419">
        <ele>138</ele>
        <time>2019-04-01T08:39:40Z</time>
      </trkpt>
      <trkpt lat="47.91674" lon="3.51417">
        <ele>138</ele>
        <time>2019-04-01T08:39:42Z</time>
      </trkpt>
      <trkpt lat="47.91668" lon="3.51412">
        <ele>138</ele>
        <time>2019-04-01T08:39:47Z</time>
      </trkpt>
      <trkpt lat="47.91666" lon="3.51409">
        <ele>138</ele>
        <time>2019-04-01T08:39:49Z</time>
      </trkpt>
      <trkpt lat="47.91661" lon="3.51404">
        <ele>137</ele>
        <time>2019-04-01T08:39:53Z</time>
      </trkpt>
      <trkpt lat="47.91659" lon="3.51401">
        <ele>137</ele>
        <time>2019-04-01T08:39:55Z</time>
      </trkpt>
      <trkpt lat="47.91657" lon="3.51399">
        <ele>137</ele>
        <time>2019-04-01T08:39:57Z</time>
      </trkpt>
      <trkpt lat="47.91655" lon="3.51396">
        <ele>137</ele>
        <time>2019-04-01T08:39:59Z</time>
      </trkpt>
      <trkpt lat="47.9165" lon="3.51391">
        <ele>137</ele>
        <time>2019-04-01T08:40:03Z</time>
      </trkpt>
      <trkpt lat="47.91647" lon="3.51388">
        <ele>138</ele>
        <time>2019-04-01T08:40:06Z</time>
      </trkpt>
      <trkpt lat="47.91643" lon="3.51384">
        <ele>139</ele>
        <time>2019-04-01T08:40:10Z</time>
      </trkpt>
      <trkpt lat="47.9164" lon="3.51381">
        <ele>139</ele>
        <time>2019-04-01T08:40:12Z</time>
      </trkpt>
      <trkpt lat="47.91638" lon="3.51379">
        <ele>138</ele>
        <time>2019-04-01T08:40:14Z</time>
      </trkpt>
      <trkpt lat="47.91635" lon="3.51376">
        <ele>138</ele>
        <time>2019-04-01T08:40:17Z</time>
      </trkpt>
      <trkpt lat="47.91633" lon="3.51374">
        <ele>138</ele>
        <time>2019-04-01T08:40:19Z</time>
      </trkpt>
      <trkpt lat="47.91631" lon="3.51372">
        <ele>138</ele>
        <time>2019-04-01T08:40:21Z</time>
      </trkpt>
      <trkpt lat="47.91627" lon="3.51366">
        <ele>139</ele>
        <time>2019-04-01T08:40:25Z</time>
      </trkpt>
      <trkpt lat="47.91626" lon="3.51364">
        <ele>138</ele>
        <time>2019-04-01T08:40:27Z</time>
      </trkpt>
      <trkpt lat="47.91623" lon="3.5136">
        <ele>138</ele>
        <time>2019-04-01T08:40:29Z</time>
      </trkpt>
      <trkpt lat="47.91621" lon="3.51354">
        <ele>138</ele>
        <time>2019-04-01T08:40:33Z</time>
      </trkpt>
      <trkpt lat="47.91619" lon="3.51351">
        <ele>138</ele>
        <time>2019-04-01T08:40:35Z</time>
      </trkpt>
      <trkpt lat="47.91616" lon="3.51343">
        <ele>139</ele>
        <time>2019-04-01T08:40:39Z</time>
      </trkpt>
      <trkpt lat="47.91613" lon="3.51337">
        <ele>137</ele>
        <time>2019-04-01T08:40:43Z</time>
      </trkpt>
      <trkpt lat="47.91611" lon="3.5133">
        <ele>138</ele>
        <time>2019-04-01T08:40:47Z</time>
      </trkpt>
      <trkpt lat="47.9161" lon="3.51323">
        <ele>137</ele>
        <time>2019-04-01T08:40:50Z</time>
      </trkpt>
      <trkpt lat="47.91608" lon="3.51315">
        <ele>137</ele>
        <time>2019-04-01T08:40:54Z</time>
      </trkpt>
      <trkpt lat="47.91607" lon="3.51311">
        <ele>137</ele>
        <time>2019-04-01T08:40:57Z</time>
      </trkpt>
      <trkpt lat="47.91606" lon="3.51304">
        <ele>137</ele>
        <time>2019-04-01T08:41:01Z</time>
      </trkpt>
      <trkpt lat="47.91605" lon="3.513">
        <ele>138</ele>
        <time>2019-04-01T08:41:03Z</time>
      </trkpt>
      <trkpt lat="47.91605" lon="3.51296">
        <ele>138</ele>
        <time>2019-04-01T08:41:05Z</time>
      </trkpt>
      <trkpt lat="47.91604" lon="3.51291">
        <ele>137</ele>
        <time>2019-04-01T08:41:08Z</time>
      </trkpt>
      <trkpt lat="47.91604" lon="3.51283">
        <ele>137</ele>
        <time>2019-04-01T08:41:12Z</time>
      </trkpt>
      <trkpt lat="47.91603" lon="3.51276">
        <ele>138</ele>
        <time>2019-04-01T08:41:16Z</time>
      </trkpt>
      <trkpt lat="47.91602" lon="3.51271">
        <ele>137</ele>
        <time>2019-04-01T08:41:18Z</time>
      </trkpt>
      <trkpt lat="47.91602" lon="3.51263">
        <ele>137</ele>
        <time>2019-04-01T08:41:23Z</time>
      </trkpt>
      <trkpt lat="47.916" lon="3.51253">
        <ele>137</ele>
        <time>2019-04-01T08:41:28Z</time>
      </trkpt>
      <trkpt lat="47.916" lon="3.51245">
        <ele>137</ele>
        <time>2019-04-01T08:41:32Z</time>
      </trkpt>
      <trkpt lat="47.91599" lon="3.51239">
        <ele>137</ele>
        <time>2019-04-01T08:41:35Z</time>
      </trkpt>
      <trkpt lat="47.91599" lon="3.51234">
        <ele>137</ele>
        <time>2019-04-01T08:41:37Z</time>
      </trkpt>
      <trkpt lat="47.91599" lon="3.51225">
        <ele>137</ele>
        <time>2019-04-01T08:41:41Z</time>
      </trkpt>
      <trkpt lat="47.91597" lon="3.51217">
        <ele>137</ele>
        <time>2019-04-01T08:41:45Z</time>
      </trkpt>
      <trkpt lat="47.91597" lon="3.51209">
        <ele>137</ele>
        <time>2019-04-01T08:41:49Z</time>
      </trkpt>
      <trkpt lat="47.91596" lon="3.51201">
        <ele>136</ele>
        <time>2019-04-01T08:41:53Z</time>
      </trkpt>
      <trkpt lat="47.91596" lon="3.51194">
        <ele>137</ele>
        <time>2019-04-01T08:41:57Z</time>
      </trkpt>
      <trkpt lat="47.91595" lon="3.51189">
        <ele>137</ele>
        <time>2019-04-01T08:42:00Z</time>
      </trkpt>
      <trkpt lat="47.91594" lon="3.51183">
        <ele>137</ele>
        <time>2019-04-01T08:42:03Z</time>
      </trkpt>
      <trkpt lat="47.91594" lon="3.51176">
        <ele>138</ele>
        <time>2019-04-01T08:42:07Z</time>
      </trkpt>
      <trkpt lat="47.91593" lon="3.51169">
        <ele>138</ele>
        <time>2019-04-01T08:42:10Z</time>
      </trkpt>
      <trkpt lat="47.91593" lon="3.51161">
        <ele>138</ele>
        <time>2019-04-01T08:42:14Z</time>
      </trkpt>
      <trkpt lat="47.91593" lon="3.51155">
        <ele>139</ele>
        <time>2019-04-01T08:42:17Z</time>
      </trkpt>
      <trkpt lat="47.91593" lon="3.5115">
        <ele>139</ele>
        <time>2019-04-01T08:42:19Z</time>
      </trkpt>
      <trkpt lat="47.91593" lon="3.51146">
        <ele>138</ele>
        <time>2019-04-01T08:42:21Z</time>
      </trkpt>
      <trkpt lat="47.91593" lon="3.51142">
        <ele>139</ele>
        <time>2019-04-01T08:42:23Z</time>
      </trkpt>
      <trkpt lat="47.91592" lon="3.51139">
        <ele>139</ele>
        <time>2019-04-01T08:42:25Z</time>
      </trkpt>
      <trkpt lat="47.91592" lon="3.51131">
        <ele>138</ele>
        <time>2019-04-01T08:42:29Z</time>
      </trkpt>
      <trkpt lat="47.91592" lon="3.51127">
        <ele>138</ele>
        <time>2019-04-01T08:42:31Z</time>
      </trkpt>
      <trkpt lat="47.91591" lon="3.51118">
        <ele>138</ele>
        <time>2019-04-01T08:42:35Z</time>
      </trkpt>
      <trkpt lat="47.91591" lon="3.51112">
        <ele>138</ele>
        <time>2019-04-01T08:42:38Z</time>
      </trkpt>
      <trkpt lat="47.91591" lon="3.51107">
        <ele>137</ele>
        <time>2019-04-01T08:42:41Z</time>
      </trkpt>
      <trkpt lat="47.9159" lon="3.51103">
        <ele>137</ele>
        <time>2019-04-01T08:42:43Z</time>
      </trkpt>
      <trkpt lat="47.9159" lon="3.511">
        <ele>137</ele>
        <time>2019-04-01T08:42:45Z</time>
      </trkpt>
      <trkpt lat="47.9159" lon="3.51095">
        <ele>137</ele>
        <time>2019-04-01T08:42:47Z</time>
      </trkpt>
      <trkpt lat="47.9159" lon="3.51088">
        <ele>137</ele>
        <time>2019-04-01T08:42:50Z</time>
      </trkpt>
      <trkpt lat="47.91589" lon="3.5108">
        <ele>137</ele>
        <time>2019-04-01T08:42:54Z</time>
      </trkpt>
      <trkpt lat="47.91588" lon="3.51072">
        <ele>138</ele>
        <time>2019-04-01T08:42:58Z</time>
      </trkpt>
      <trkpt lat="47.91588" lon="3.51069">
        <ele>138</ele>
        <time>2019-04-01T08:43:00Z</time>
      </trkpt>
      <trkpt lat="47.91587" lon="3.51058">
        <ele>138</ele>
        <time>2019-04-01T08:43:05Z</time>
      </trkpt>
      <trkpt lat="47.91588" lon="3.51054">
        <ele>138</ele>
        <time>2019-04-01T08:43:07Z</time>
      </trkpt>
      <trkpt lat="47.91587" lon="3.51049">
        <ele>138</ele>
        <time>2019-04-01T08:43:10Z</time>
      </trkpt>
      <trkpt lat="47.91587" lon="3.51045">
        <ele>138</ele>
        <time>2019-04-01T08:43:12Z</time>
      </trkpt>
      <trkpt lat="47.91587" lon="3.51041">
        <ele>139</ele>
        <time>2019-04-01T08:43:14Z</time>
      </trkpt>
      <trkpt lat="47.91585" lon="3.51033">
        <ele>139</ele>
        <time>2019-04-01T08:43:19Z</time>
      </trkpt>
      <trkpt lat="47.91582" lon="3.51027">
        <ele>140</ele>
        <time>2019-04-01T08:43:23Z</time>
      </trkpt>
      <trkpt lat="47.91578" lon="3.51023">
        <ele>141</ele>
        <time>2019-04-01T08:43:27Z</time>
      </trkpt>
      <trkpt lat="47.91575" lon="3.51018">
        <ele>142</ele>
        <time>2019-04-01T08:43:31Z</time>
      </trkpt>
      <trkpt lat="47.9157" lon="3.51011">
        <ele>142</ele>
        <time>2019-04-01T08:43:36Z</time>
      </trkpt>
      <trkpt lat="47.91568" lon="3.51008">
        <ele>141</ele>
        <time>2019-04-01T08:43:39Z</time>
      </trkpt>
      <trkpt lat="47.91565" lon="3.51004">
        <ele>141</ele>
        <time>2019-04-01T08:43:42Z</time>
      </trkpt>
      <trkpt lat="47.91563" lon="3.51002">
        <ele>140</ele>
        <time>2019-04-01T08:43:44Z</time>
      </trkpt>
      <trkpt lat="47.9156" lon="3.50999">
        <ele>140</ele>
        <time>2019-04-01T08:43:46Z</time>
      </trkpt>
      <trkpt lat="47.91557" lon="3.50993">
        <ele>140</ele>
        <time>2019-04-01T08:43:50Z</time>
      </trkpt>
      <trkpt lat="47.91552" lon="3.50989">
        <ele>140</ele>
        <time>2019-04-01T08:43:54Z</time>
      </trkpt>
      <trkpt lat="47.91549" lon="3.50983">
        <ele>140</ele>
        <time>2019-04-01T08:43:58Z</time>
      </trkpt>
      <trkpt lat="47.91547" lon="3.5098">
        <ele>140</ele>
        <time>2019-04-01T08:44:01Z</time>
      </trkpt>
      <trkpt lat="47.91544" lon="3.50973">
        <ele>140</ele>
        <time>2019-04-01T08:44:06Z</time>
      </trkpt>
      <trkpt lat="47.91541" lon="3.50968">
        <ele>141</ele>
        <time>2019-04-01T08:44:10Z</time>
      </trkpt>
      <trkpt lat="47.91539" lon="3.50963">
        <ele>142</ele>
        <time>2019-04-01T08:44:13Z</time>
      </trkpt>
      <trkpt lat="47.91536" lon="3.50951">
        <ele>143</ele>
        <time>2019-04-01T08:44:20Z</time>
      </trkpt>
      <trkpt lat="47.91535" lon="3.50946">
        <ele>143</ele>
        <time>2019-04-01T08:44:24Z</time>
      </trkpt>
      <trkpt lat="47.91534" lon="3.50938">
        <ele>144</ele>
        <time>2019-04-01T08:44:28Z</time>
      </trkpt>
      <trkpt lat="47.91531" lon="3.5093">
        <ele>144</ele>
        <time>2019-04-01T08:44:32Z</time>
      </trkpt>
      <trkpt lat="47.91531" lon="3.50922">
        <ele>145</ele>
        <time>2019-04-01T08:44:36Z</time>
      </trkpt>
      <trkpt lat="47.91531" lon="3.50918">
        <ele>145</ele>
        <time>2019-04-01T08:44:38Z</time>
      </trkpt>
      <trkpt lat="47.91532" lon="3.5091">
        <ele>146</ele>
        <time>2019-04-01T08:44:43Z</time>
      </trkpt>
      <trkpt lat="47.9153" lon="3.50901">
        <ele>147</ele>
        <time>2019-04-01T08:44:48Z</time>
      </trkpt>
      <trkpt lat="47.9153" lon="3.50894">
        <ele>149</ele>
        <time>2019-04-01T08:44:53Z</time>
      </trkpt>
      <trkpt lat="47.91528" lon="3.50887">
        <ele>148</ele>
        <time>2019-04-01T08:44:57Z</time>
      </trkpt>
      <trkpt lat="47.91527" lon="3.50881">
        <ele>148</ele>
        <time>2019-04-01T08:45:00Z</time>
      </trkpt>
      <trkpt lat="47.91525" lon="3.50875">
        <ele>148</ele>
        <time>2019-04-01T08:45:03Z</time>
      </trkpt>
      <trkpt lat="47.91521" lon="3.50869">
        <ele>149</ele>
        <time>2019-04-01T08:45:07Z</time>
      </trkpt>
      <trkpt lat="47.91519" lon="3.50865">
        <ele>149</ele>
        <time>2019-04-01T08:45:09Z</time>
      </trkpt>
      <trkpt lat="47.91517" lon="3.50858">
        <ele>149</ele>
        <time>2019-04-01T08:45:13Z</time>
      </trkpt>
      <trkpt lat="47.91516" lon="3.50851">
        <ele>148</ele>
        <time>2019-04-01T08:45:17Z</time>
      </trkpt>
      <trkpt lat="47.91515" lon="3.50846">
        <ele>148</ele>
        <time>2019-04-01T08:45:20Z</time>
      </trkpt>
      <trkpt lat="47.91511" lon="3.50839">
        <ele>148</ele>
        <time>2019-04-01T08:45:24Z</time>
      </trkpt>
      <trkpt lat="47.9151" lon="3.50831">
        <ele>148</ele>
        <time>2019-04-01T08:45:28Z</time>
      </trkpt>
      <trkpt lat="47.9151" lon="3.50826">
        <ele>148</ele>
        <time>2019-04-01T08:45:30Z</time>
      </trkpt>
      <trkpt lat="47.91507" lon="3.50815">
        <ele>147</ele>
        <time>2019-04-01T08:45:36Z</time>
      </trkpt>
      <trkpt lat="47.91507" lon="3.50811">
        <ele>147</ele>
        <time>2019-04-01T08:45:38Z</time>
      </trkpt>
      <trkpt lat="47.91506" lon="3.50807">
        <ele>148</ele>
        <time>2019-04-01T08:45:41Z</time>
      </trkpt>
      <trkpt lat="47.91505" lon="3.50801">
        <ele>148</ele>
        <time>2019-04-01T08:45:44Z</time>
      </trkpt>
      <trkpt lat="47.91502" lon="3.50796">
        <ele>148</ele>
        <time>2019-04-01T08:45:48Z</time>
      </trkpt>
      <trkpt lat="47.91501" lon="3.5079">
        <ele>149</ele>
        <time>2019-04-01T08:45:52Z</time>
      </trkpt>
      <trkpt lat="47.91501" lon="3.50781">
        <ele>150</ele>
        <time>2019-04-01T08:45:56Z</time>
      </trkpt>
      <trkpt lat="47.915" lon="3.50773">
        <ele>151</ele>
        <time>2019-04-01T08:46:00Z</time>
      </trkpt>
      <trkpt lat="47.91499" lon="3.50769">
        <ele>151</ele>
        <time>2019-04-01T08:46:02Z</time>
      </trkpt>
      <trkpt lat="47.91499" lon="3.50765">
        <ele>151</ele>
        <time>2019-04-01T08:46:04Z</time>
      </trkpt>
      <trkpt lat="47.91497" lon="3.50758">
        <ele>150</ele>
        <time>2019-04-01T08:46:08Z</time>
      </trkpt>
      <trkpt lat="47.91494" lon="3.50747">
        <ele>151</ele>
        <time>2019-04-01T08:46:13Z</time>
      </trkpt>
      <trkpt lat="47.91494" lon="3.5074">
        <ele>151</ele>
        <time>2019-04-01T08:46:17Z</time>
      </trkpt>
      <trkpt lat="47.91494" lon="3.50736">
        <ele>151</ele>
        <time>2019-04-01T08:46:19Z</time>
      </trkpt>
      <trkpt lat="47.91494" lon="3.50731">
        <ele>151</ele>
        <time>2019-04-01T08:46:21Z</time>
      </trkpt>
      <trkpt lat="47.91493" lon="3.50727">
        <ele>152</ele>
        <time>2019-04-01T08:46:23Z</time>
      </trkpt>
      <trkpt lat="47.91493" lon="3.50722">
        <ele>152</ele>
        <time>2019-04-01T08:46:26Z</time>
      </trkpt>
      <trkpt lat="47.91493" lon="3.50715">
        <ele>152</ele>
        <time>2019-04-01T08:46:30Z</time>
      </trkpt>
      <trkpt lat="47.91493" lon="3.50711">
        <ele>152</ele>
        <time>2019-04-01T08:46:33Z</time>
      </trkpt>
      <trkpt lat="47.9149" lon="3.50705">
        <ele>153</ele>
        <time>2019-04-01T08:46:37Z</time>
      </trkpt>
      <trkpt lat="47.91489" lon="3.50701">
        <ele>152</ele>
        <time>2019-04-01T08:46:39Z</time>
      </trkpt>
      <trkpt lat="47.91488" lon="3.50694">
        <ele>152</ele>
        <time>2019-04-01T08:46:43Z</time>
      </trkpt>
      <trkpt lat="47.91487" lon="3.50686">
        <ele>153</ele>
        <time>2019-04-01T08:46:47Z</time>
      </trkpt>
      <trkpt lat="47.91487" lon="3.50679">
        <ele>152</ele>
        <time>2019-04-01T08:46:50Z</time>
      </trkpt>
      <trkpt lat="47.91486" lon="3.50672">
        <ele>153</ele>
        <time>2019-04-01T08:46:53Z</time>
      </trkpt>
      <trkpt lat="47.91485" lon="3.50665">
        <ele>153</ele>
        <time>2019-04-01T08:46:57Z</time>
      </trkpt>
      <trkpt lat="47.91484" lon="3.50657">
        <ele>153</ele>
        <time>2019-04-01T08:47:01Z</time>
      </trkpt>
      <trkpt lat="47.91484" lon="3.50649">
        <ele>153</ele>
        <time>2019-04-01T08:47:05Z</time>
      </trkpt>
      <trkpt lat="47.91482" lon="3.50643">
        <ele>153</ele>
        <time>2019-04-01T08:47:09Z</time>
      </trkpt>
      <trkpt lat="47.9148" lon="3.50635">
        <ele>154</ele>
        <time>2019-04-01T08:47:14Z</time>
      </trkpt>
      <trkpt lat="47.91479" lon="3.50627">
        <ele>154</ele>
        <time>2019-04-01T08:47:18Z</time>
      </trkpt>
      <trkpt lat="47.91478" lon="3.5062">
        <ele>154</ele>
        <time>2019-04-01T08:47:22Z</time>
      </trkpt>
      <trkpt lat="47.91474" lon="3.50613">
        <ele>153</ele>
        <time>2019-04-01T08:47:26Z</time>
      </trkpt>
      <trkpt lat="47.91472" lon="3.5061">
        <ele>153</ele>
        <time>2019-04-01T08:47:28Z</time>
      </trkpt>
      <trkpt lat="47.91469" lon="3.50604">
        <ele>153</ele>
        <time>2019-04-01T08:47:31Z</time>
      </trkpt>
      <trkpt lat="47.91466" lon="3.50598">
        <ele>153</ele>
        <time>2019-04-01T08:47:34Z</time>
      </trkpt>
      <trkpt lat="47.91462" lon="3.50593">
        <ele>154</ele>
        <time>2019-04-01T08:47:37Z</time>
      </trkpt>
      <trkpt lat="47.9146" lon="3.5059">
        <ele>156</ele>
        <time>2019-04-01T08:47:39Z</time>
      </trkpt>
      <trkpt lat="47.91456" lon="3.50584">
        <ele>155</ele>
        <time>2019-04-01T08:47:42Z</time>
      </trkpt>
      <trkpt lat="47.91453" lon="3.50577">
        <ele>154</ele>
        <time>2019-04-01T08:47:46Z</time>
      </trkpt>
      <trkpt lat="47.91451" lon="3.50573">
        <ele>153</ele>
        <time>2019-04-01T08:47:48Z</time>
      </trkpt>
      <trkpt lat="47.91449" lon="3.50566">
        <ele>153</ele>
        <time>2019-04-01T08:47:52Z</time>
      </trkpt>
      <trkpt lat="47.91446" lon="3.5056">
        <ele>153</ele>
        <time>2019-04-01T08:47:56Z</time>
      </trkpt>
      <trkpt lat="47.91444" lon="3.50557">
        <ele>153</ele>
        <time>2019-04-01T08:47:58Z</time>
      </trkpt>
      <trkpt lat="47.9144" lon="3.50546">
        <ele>153</ele>
        <time>2019-04-01T08:48:04Z</time>
      </trkpt>
      <trkpt lat="47.91437" lon="3.5054">
        <ele>153</ele>
        <time>2019-04-01T08:48:07Z</time>
      </trkpt>
      <trkpt lat="47.91435" lon="3.50533">
        <ele>153</ele>
        <time>2019-04-01T08:48:11Z</time>
      </trkpt>
      <trkpt lat="47.91433" lon="3.50526">
        <ele>153</ele>
        <time>2019-04-01T08:48:14Z</time>
      </trkpt>
      <trkpt lat="47.9143" lon="3.50514">
        <ele>154</ele>
        <time>2019-04-01T08:48:20Z</time>
      </trkpt>
      <trkpt lat="47.91429" lon="3.50509">
        <ele>153</ele>
        <time>2019-04-01T08:48:22Z</time>
      </trkpt>
      <trkpt lat="47.91428" lon="3.50505">
        <ele>153</ele>
        <time>2019-04-01T08:48:24Z</time>
      </trkpt>
      <trkpt lat="47.91427" lon="3.50501">
        <ele>154</ele>
        <time>2019-04-01T08:48:26Z</time>
      </trkpt>
      <trkpt lat="47.91426" lon="3.50493">
        <ele>154</ele>
        <time>2019-04-01T08:48:30Z</time>
      </trkpt>
      <trkpt lat="47.91425" lon="3.50487">
        <ele>154</ele>
        <time>2019-04-01T08:48:35Z</time>
      </trkpt>
      <trkpt lat="47.91424" lon="3.50483">
        <ele>156</ele>
        <time>2019-04-01T08:48:37Z</time>
      </trkpt>
      <trkpt lat="47.91423" lon="3.50476">
        <ele>154</ele>
        <time>2019-04-01T08:48:41Z</time>
      </trkpt>
      <trkpt lat="47.91421" lon="3.50468">
        <ele>155</ele>
        <time>2019-04-01T08:48:45Z</time>
      </trkpt>
      <trkpt lat="47.9142" lon="3.50462">
        <ele>155</ele>
        <time>2019-04-01T08:48:48Z</time>
      </trkpt>
      <trkpt lat="47.9142" lon="3.50458">
        <ele>154</ele>
        <time>2019-04-01T08:48:50Z</time>
      </trkpt>
      <trkpt lat="47.91419" lon="3.50454">
        <ele>155</ele>
        <time>2019-04-01T08:48:52Z</time>
      </trkpt>
      <trkpt lat="47.91418" lon="3.50448">
        <ele>155</ele>
        <time>2019-04-01T08:48:55Z</time>
      </trkpt>
      <trkpt lat="47.91417" lon="3.5044">
        <ele>154</ele>
        <time>2019-04-01T08:49:00Z</time>
      </trkpt>
      <trkpt lat="47.91416" lon="3.50433">
        <ele>154</ele>
        <time>2019-04-01T08:49:04Z</time>
      </trkpt>
      <trkpt lat="47.91414" lon="3.50427">
        <ele>155</ele>
        <time>2019-04-01T08:49:07Z</time>
      </trkpt>
      <trkpt lat="47.91413" lon="3.5042">
        <ele>156</ele>
        <time>2019-04-01T08:49:11Z</time>
      </trkpt>
      <trkpt lat="47.91413" lon="3.50417">
        <ele>156</ele>
        <time>2019-04-01T08:49:13Z</time>
      </trkpt>
      <trkpt lat="47.9141" lon="3.50407">
        <ele>157</ele>
        <time>2019-04-01T08:49:18Z</time>
      </trkpt>
      <trkpt lat="47.91409" lon="3.50401">
        <ele>157</ele>
        <time>2019-04-01T08:49:21Z</time>
      </trkpt>
      <trkpt lat="47.91408" lon="3.50397">
        <ele>157</ele>
        <time>2019-04-01T08:49:23Z</time>
      </trkpt>
      <trkpt lat="47.91405" lon="3.5039">
        <ele>157</ele>
        <time>2019-04-01T08:49:27Z</time>
      </trkpt>
      <trkpt lat="47.91404" lon="3.50387">
        <ele>157</ele>
        <time>2019-04-01T08:49:29Z</time>
      </trkpt>
      <trkpt lat="47.91403" lon="3.50383">
        <ele>157</ele>
        <time>2019-04-01T08:49:31Z</time>
      </trkpt>
      <trkpt lat="47.91402" lon="3.50379">
        <ele>157</ele>
        <time>2019-04-01T08:49:33Z</time>
      </trkpt>
      <trkpt lat="47.91399" lon="3.50373">
        <ele>158</ele>
        <time>2019-04-01T08:49:36Z</time>
      </trkpt>
      <trkpt lat="47.91397" lon="3.50367">
        <ele>158</ele>
        <time>2019-04-01T08:49:40Z</time>
      </trkpt>
      <trkpt lat="47.91394" lon="3.50361">
        <ele>158</ele>
        <time>2019-04-01T08:49:44Z</time>
      </trkpt>
      <trkpt lat="47.91392" lon="3.50358">
        <ele>158</ele>
        <time>2019-04-01T08:49:46Z</time>
      </trkpt>
      <trkpt lat="47.91389" lon="3.50354">
        <ele>158</ele>
        <time>2019-04-01T08:49:50Z</time>
      </trkpt>
      <trkpt lat="47.91387" lon="3.50349">
        <ele>158</ele>
        <time>2019-04-01T08:49:53Z</time>
      </trkpt>
      <trkpt lat="47.91384" lon="3.50341">
        <ele>158</ele>
        <time>2019-04-01T08:49:57Z</time>
      </trkpt>
      <trkpt lat="47.91382" lon="3.50336">
        <ele>159</ele>
        <time>2019-04-01T08:50:01Z</time>
      </trkpt>
      <trkpt lat="47.9138" lon="3.5033">
        <ele>158</ele>
        <time>2019-04-01T08:50:05Z</time>
      </trkpt>
      <trkpt lat="47.91377" lon="3.50324">
        <ele>158</ele>
        <time>2019-04-01T08:50:09Z</time>
      </trkpt>
      <trkpt lat="47.91373" lon="3.50318">
        <ele>158</ele>
        <time>2019-04-01T08:50:13Z</time>
      </trkpt>
      <trkpt lat="47.91371" lon="3.50314">
        <ele>158</ele>
        <time>2019-04-01T08:50:15Z</time>
      </trkpt>
      <trkpt lat="47.91369" lon="3.50312">
        <ele>158</ele>
        <time>2019-04-01T08:50:17Z</time>
      </trkpt>
      <trkpt lat="47.91368" lon="3.50308">
        <ele>158</ele>
        <time>2019-04-01T08:50:22Z</time>
      </trkpt>
      <trkpt lat="47.91365" lon="3.50303">
        <ele>159</ele>
        <time>2019-04-01T08:50:30Z</time>
      </trkpt>
      <trkpt lat="47.91365" lon="3.50295">
        <ele>158</ele>
        <time>2019-04-01T08:50:47Z</time>
      </trkpt>
      <trkpt lat="47.91366" lon="3.50288">
        <ele>159</ele>
        <time>2019-04-01T08:50:51Z</time>
      </trkpt>
      <trkpt lat="47.9137" lon="3.50282">
        <ele>158</ele>
        <time>2019-04-01T08:50:55Z</time>
      </trkpt>
      <trkpt lat="47.91373" lon="3.50278">
        <ele>160</ele>
        <time>2019-04-01T08:50:59Z</time>
      </trkpt>
      <trkpt lat="47.91378" lon="3.50275">
        <ele>159</ele>
        <time>2019-04-01T08:51:04Z</time>
      </trkpt>
      <trkpt lat="47.9138" lon="3.50274">
        <ele>161</ele>
        <time>2019-04-01T08:51:07Z</time>
      </trkpt>
      <trkpt lat="47.91384" lon="3.50269">
        <ele>163</ele>
        <time>2019-04-01T08:51:11Z</time>
      </trkpt>
      <trkpt lat="47.91387" lon="3.50264">
        <ele>162</ele>
        <time>2019-04-01T08:51:15Z</time>
      </trkpt>
      <trkpt lat="47.91389" lon="3.50261">
        <ele>163</ele>
        <time>2019-04-01T08:51:17Z</time>
      </trkpt>
      <trkpt lat="47.91393" lon="3.50257">
        <ele>164</ele>
        <time>2019-04-01T08:51:21Z</time>
      </trkpt>
      <trkpt lat="47.91397" lon="3.50254">
        <ele>164</ele>
        <time>2019-04-01T08:51:25Z</time>
      </trkpt>
      <trkpt lat="47.91401" lon="3.50249">
        <ele>165</ele>
        <time>2019-04-01T08:51:29Z</time>
      </trkpt>
      <trkpt lat="47.91405" lon="3.50245">
        <ele>166</ele>
        <time>2019-04-01T08:51:33Z</time>
      </trkpt>
      <trkpt lat="47.91409" lon="3.5024">
        <ele>168</ele>
        <time>2019-04-01T08:51:38Z</time>
      </trkpt>
      <trkpt lat="47.91412" lon="3.50237">
        <ele>168</ele>
        <time>2019-04-01T08:51:42Z</time>
      </trkpt>
      <trkpt lat="47.91416" lon="3.50232">
        <ele>168</ele>
        <time>2019-04-01T08:51:47Z</time>
      </trkpt>
      <trkpt lat="47.91421" lon="3.50228">
        <ele>169</ele>
        <time>2019-04-01T08:51:53Z</time>
      </trkpt>
      <trkpt lat="47.91425" lon="3.50224">
        <ele>170</ele>
        <time>2019-04-01T08:51:58Z</time>
      </trkpt>
      <trkpt lat="47.91427" lon="3.50222">
        <ele>171</ele>
        <time>2019-04-01T08:52:02Z</time>
      </trkpt>
      <trkpt lat="47.9143" lon="3.50218">
        <ele>171</ele>
        <time>2019-04-01T08:52:05Z</time>
      </trkpt>
      <trkpt lat="47.91432" lon="3.50216">
        <ele>172</ele>
        <time>2019-04-01T08:52:08Z</time>
      </trkpt>
      <trkpt lat="47.91435" lon="3.50213">
        <ele>172</ele>
        <time>2019-04-01T08:52:11Z</time>
      </trkpt>
      <trkpt lat="47.91437" lon="3.50211">
        <ele>174</ele>
        <time>2019-04-01T08:52:14Z</time>
      </trkpt>
      <trkpt lat="47.91439" lon="3.50208">
        <ele>175</ele>
        <time>2019-04-01T08:52:16Z</time>
      </trkpt>
      <trkpt lat="47.91443" lon="3.50205">
        <ele>176</ele>
        <time>2019-04-01T08:52:20Z</time>
      </trkpt>
      <trkpt lat="47.91445" lon="3.50203">
        <ele>176</ele>
        <time>2019-04-01T08:52:22Z</time>
      </trkpt>
      <trkpt lat="47.91448" lon="3.50201">
        <ele>177</ele>
        <time>2019-04-01T08:52:27Z</time>
      </trkpt>
      <trkpt lat="47.91452" lon="3.50198">
        <ele>178</ele>
        <time>2019-04-01T08:52:32Z</time>
      </trkpt>
      <trkpt lat="47.91456" lon="3.50192">
        <ele>180</ele>
        <time>2019-04-01T08:52:38Z</time>
      </trkpt>
      <trkpt lat="47.91461" lon="3.5019">
        <ele>181</ele>
        <time>2019-04-01T08:52:44Z</time>
      </trkpt>
      <trkpt lat="47.91464" lon="3.50185">
        <ele>183</ele>
        <time>2019-04-01T08:52:49Z</time>
      </trkpt>
      <trkpt lat="47.91468" lon="3.50181">
        <ele>185</ele>
        <time>2019-04-01T08:52:55Z</time>
      </trkpt>
      <trkpt lat="47.9147" lon="3.50178">
        <ele>186</ele>
        <time>2019-04-01T08:52:57Z</time>
      </trkpt>
      <trkpt lat="47.91472" lon="3.50176">
        <ele>186</ele>
        <time>2019-04-01T08:53:00Z</time>
      </trkpt>
      <trkpt lat="47.91474" lon="3.50173">
        <ele>187</ele>
        <time>2019-04-01T08:53:03Z</time>
      </trkpt>
      <trkpt lat="47.91477" lon="3.5017">
        <ele>187</ele>
        <time>2019-04-01T08:53:06Z</time>
      </trkpt>
      <trkpt lat="47.9148" lon="3.50166">
        <ele>187</ele>
        <time>2019-04-01T08:53:10Z</time>
      </trkpt>
      <trkpt lat="47.91484" lon="3.50162">
        <ele>188</ele>
        <time>2019-04-01T08:53:17Z</time>
      </trkpt>
      <trkpt lat="47.91486" lon="3.5016">
        <ele>188</ele>
        <time>2019-04-01T08:53:20Z</time>
      </trkpt>
      <trkpt lat="47.9149" lon="3.50156">
        <ele>192</ele>
        <time>2019-04-01T08:53:27Z</time>
      </trkpt>
      <trkpt lat="47.91492" lon="3.50154">
        <ele>192</ele>
        <time>2019-04-01T08:53:31Z</time>
      </trkpt>
      <trkpt lat="47.91497" lon="3.50151">
        <ele>192</ele>
        <time>2019-04-01T08:53:36Z</time>
      </trkpt>
      <trkpt lat="47.91501" lon="3.50147">
        <ele>193</ele>
        <time>2019-04-01T08:53:41Z</time>
      </trkpt>
      <trkpt lat="47.91503" lon="3.50144">
        <ele>193</ele>
        <time>2019-04-01T08:53:44Z</time>
      </trkpt>
      <trkpt lat="47.91506" lon="3.5014">
        <ele>194</ele>
        <time>2019-04-01T08:53:48Z</time>
      </trkpt>
      <trkpt lat="47.91509" lon="3.50137">
        <ele>194</ele>
        <time>2019-04-01T08:53:51Z</time>
      </trkpt>
      <trkpt lat="47.91514" lon="3.50134">
        <ele>194</ele>
        <time>2019-04-01T08:53:56Z</time>
      </trkpt>
      <trkpt lat="47.91518" lon="3.50128">
        <ele>195</ele>
        <time>2019-04-01T08:54:02Z</time>
      </trkpt>
      <trkpt lat="47.91518" lon="3.5012">
        <ele>196</ele>
        <time>2019-04-01T08:54:07Z</time>
      </trkpt>
      <trkpt lat="47.91518" lon="3.5012">
        <ele>196</ele>
        <time>2019-04-01T08:54:15Z</time>
      </trkpt>
      <trkpt lat="47.91518" lon="3.5012">
        <ele>196</ele>
        <time>2019-04-01T08:54:17Z</time>
      </trkpt>
      <trkpt lat="47.91514" lon="3.50114">
        <ele>198</ele>
        <time>2019-04-01T09:09:18Z</time>
      </trkpt>
      <trkpt lat="47.91512" lon="3.50108">
        <ele>198</ele>
        <time>2019-04-01T09:09:23Z</time>
      </trkpt>
      <trkpt lat="47.91508" lon="3.50103">
        <ele>198</ele>
        <time>2019-04-01T09:09:28Z</time>
      </trkpt>
      <trkpt lat="47.91506" lon="3.50097">
        <ele>198</ele>
        <time>2019-04-01T09:09:33Z</time>
      </trkpt>
      <trkpt lat="47.91502" lon="3.50092">
        <ele>198</ele>
        <time>2019-04-01T09:09:38Z</time>
      </trkpt>
      <trkpt lat="47.915" lon="3.50089">
        <ele>197</ele>
        <time>2019-04-01T09:09:41Z</time>
      </trkpt>
      <trkpt lat="47.91498" lon="3.50086">
        <ele>197</ele>
        <time>2019-04-01T09:09:44Z</time>
      </trkpt>
      <trkpt lat="47.91496" lon="3.50083">
        <ele>197</ele>
        <time>2019-04-01T09:09:46Z</time>
      </trkpt>
      <trkpt lat="47.91493" lon="3.50078">
        <ele>197</ele>
        <time>2019-04-01T09:09:51Z</time>
      </trkpt>
      <trkpt lat="47.91491" lon="3.50074">
        <ele>197</ele>
        <time>2019-04-01T09:09:54Z</time>
      </trkpt>
      <trkpt lat="47.91488" lon="3.5007">
        <ele>198</ele>
        <time>2019-04-01T09:09:59Z</time>
      </trkpt>
      <trkpt lat="47.91484" lon="3.50062">
        <ele>198</ele>
        <time>2019-04-01T09:10:04Z</time>
      </trkpt>
      <trkpt lat="47.9148" lon="3.50056">
        <ele>198</ele>
        <time>2019-04-01T09:10:08Z</time>
      </trkpt>
      <trkpt lat="47.91478" lon="3.50051">
        <ele>198</ele>
        <time>2019-04-01T09:10:12Z</time>
      </trkpt>
      <trkpt lat="47.91475" lon="3.50047">
        <ele>199</ele>
        <time>2019-04-01T09:10:15Z</time>
      </trkpt>
      <trkpt lat="47.91473" lon="3.50039">
        <ele>198</ele>
        <time>2019-04-01T09:10:19Z</time>
      </trkpt>
      <trkpt lat="47.9147" lon="3.50033">
        <ele>198</ele>
        <time>2019-04-01T09:10:23Z</time>
      </trkpt>
      <trkpt lat="47.91468" lon="3.5003">
        <ele>199</ele>
        <time>2019-04-01T09:10:26Z</time>
      </trkpt>
      <trkpt lat="47.91467" lon="3.50027">
        <ele>199</ele>
        <time>2019-04-01T09:10:28Z</time>
      </trkpt>
      <trkpt lat="47.91465" lon="3.50024">
        <ele>199</ele>
        <time>2019-04-01T09:10:30Z</time>
      </trkpt>
      <trkpt lat="47.91463" lon="3.50017">
        <ele>199</ele>
        <time>2019-04-01T09:10:36Z</time>
      </trkpt>
      <trkpt lat="47.9146" lon="3.50011">
        <ele>200</ele>
        <time>2019-04-01T09:10:40Z</time>
      </trkpt>
      <trkpt lat="47.91458" lon="3.50008">
        <ele>200</ele>
        <time>2019-04-01T09:10:42Z</time>
      </trkpt>
      <trkpt lat="47.91455" lon="3.50004">
        <ele>200</ele>
        <time>2019-04-01T09:10:45Z</time>
      </trkpt>
      <trkpt lat="47.91454" lon="3.50001">
        <ele>200</ele>
        <time>2019-04-01T09:10:47Z</time>
      </trkpt>
      <trkpt lat="47.91452" lon="3.49998">
        <ele>200</ele>
        <time>2019-04-01T09:10:49Z</time>
      </trkpt>
      <trkpt lat="47.91449" lon="3.49992">
        <ele>200</ele>
        <time>2019-04-01T09:10:53Z</time>
      </trkpt>
      <trkpt lat="47.91446" lon="3.49988">
        <ele>200</ele>
        <time>2019-04-01T09:10:56Z</time>
      </trkpt>
      <trkpt lat="47.91443" lon="3.49983">
        <ele>201</ele>
        <time>2019-04-01T09:11:00Z</time>
      </trkpt>
      <trkpt lat="47.9144" lon="3.49976">
        <ele>200</ele>
        <time>2019-04-01T09:11:05Z</time>
      </trkpt>
      <trkpt lat="47.91437" lon="3.49973">
        <ele>200</ele>
        <time>2019-04-01T09:11:08Z</time>
      </trkpt>
      <trkpt lat="47.91435" lon="3.49971">
        <ele>200</ele>
        <time>2019-04-01T09:11:10Z</time>
      </trkpt>
      <trkpt lat="47.91432" lon="3.49964">
        <ele>200</ele>
        <time>2019-04-01T09:11:15Z</time>
      </trkpt>
      <trkpt lat="47.91429" lon="3.49957">
        <ele>200</ele>
        <time>2019-04-01T09:11:19Z</time>
      </trkpt>
      <trkpt lat="47.91427" lon="3.49954">
        <ele>200</ele>
        <time>2019-04-01T09:11:22Z</time>
      </trkpt>
      <trkpt lat="47.91425" lon="3.4995">
        <ele>201</ele>
        <time>2019-04-01T09:11:25Z</time>
      </trkpt>
      <trkpt lat="47.91423" lon="3.49947">
        <ele>201</ele>
        <time>2019-04-01T09:11:28Z</time>
      </trkpt>
      <trkpt lat="47.91421" lon="3.49945">
        <ele>201</ele>
        <time>2019-04-01T09:11:30Z</time>
      </trkpt>
      <trkpt lat="47.91419" lon="3.49942">
        <ele>202</ele>
        <time>2019-04-01T09:11:32Z</time>
      </trkpt>
      <trkpt lat="47.91416" lon="3.49935">
        <ele>202</ele>
        <time>2019-04-01T09:11:36Z</time>
      </trkpt>
      <trkpt lat="47.91412" lon="3.4993">
        <ele>202</ele>
        <time>2019-04-01T09:11:41Z</time>
      </trkpt>
      <trkpt lat="47.91409" lon="3.49924">
        <ele>202</ele>
        <time>2019-04-01T09:11:45Z</time>
      </trkpt>
      <trkpt lat="47.91406" lon="3.49919">
        <ele>203</ele>
        <time>2019-04-01T09:11:49Z</time>
      </trkpt>
      <trkpt lat="47.91403" lon="3.49913">
        <ele>202</ele>
        <time>2019-04-01T09:11:54Z</time>
      </trkpt>
      <trkpt lat="47.91398" lon="3.49905">
        <ele>202</ele>
        <time>2019-04-01T09:11:59Z</time>
      </trkpt>
      <trkpt lat="47.91395" lon="3.49899">
        <ele>203</ele>
        <time>2019-04-01T09:12:04Z</time>
      </trkpt>
      <trkpt lat="47.91391" lon="3.49895">
        <ele>202</ele>
        <time>2019-04-01T09:12:07Z</time>
      </trkpt>
      <trkpt lat="47.91388" lon="3.49889">
        <ele>202</ele>
        <time>2019-04-01T09:12:11Z</time>
      </trkpt>
      <trkpt lat="47.91386" lon="3.49883">
        <ele>202</ele>
        <time>2019-04-01T09:12:15Z</time>
      </trkpt>
      <trkpt lat="47.91384" lon="3.4988">
        <ele>202</ele>
        <time>2019-04-01T09:12:17Z</time>
      </trkpt>
      <trkpt lat="47.91382" lon="3.49878">
        <ele>203</ele>
        <time>2019-04-01T09:12:20Z</time>
      </trkpt>
      <trkpt lat="47.91379" lon="3.49872">
        <ele>203</ele>
        <time>2019-04-01T09:12:24Z</time>
      </trkpt>
      <trkpt lat="47.91376" lon="3.49867">
        <ele>203</ele>
        <time>2019-04-01T09:12:27Z</time>
      </trkpt>
      <trkpt lat="47.91375" lon="3.49863">
        <ele>202</ele>
        <time>2019-04-01T09:12:29Z</time>
      </trkpt>
      <trkpt lat="47.91373" lon="3.4986">
        <ele>202</ele>
        <time>2019-04-01T09:12:32Z</time>
      </trkpt>
      <trkpt lat="47.9137" lon="3.49855">
        <ele>202</ele>
        <time>2019-04-01T09:12:35Z</time>
      </trkpt>
      <trkpt lat="47.91369" lon="3.49852">
        <ele>203</ele>
        <time>2019-04-01T09:12:37Z</time>
      </trkpt>
      <trkpt lat="47.91367" lon="3.49848">
        <ele>203</ele>
        <time>2019-04-01T09:12:40Z</time>
      </trkpt>
      <trkpt lat="47.91364" lon="3.49844">
        <ele>203</ele>
        <time>2019-04-01T09:12:43Z</time>
      </trkpt>
      <trkpt lat="47.91362" lon="3.4984">
        <ele>203</ele>
        <time>2019-04-01T09:12:46Z</time>
      </trkpt>
      <trkpt lat="47.91359" lon="3.49834">
        <ele>204</ele>
        <time>2019-04-01T09:12:51Z</time>
      </trkpt>
      <trkpt lat="47.91356" lon="3.49828">
        <ele>203</ele>
        <time>2019-04-01T09:12:55Z</time>
      </trkpt>
      <trkpt lat="47.91353" lon="3.49822">
        <ele>204</ele>
        <time>2019-04-01T09:13:00Z</time>
      </trkpt>
      <trkpt lat="47.9135" lon="3.49817">
        <ele>205</ele>
        <time>2019-04-01T09:13:04Z</time>
      </trkpt>
      <trkpt lat="47.91348" lon="3.49814">
        <ele>204</ele>
        <time>2019-04-01T09:13:06Z</time>
      </trkpt>
      <trkpt lat="47.91346" lon="3.49811">
        <ele>205</ele>
        <time>2019-04-01T09:13:08Z</time>
      </trkpt>
      <trkpt lat="47.91343" lon="3.49806">
        <ele>204</ele>
        <time>2019-04-01T09:13:12Z</time>
      </trkpt>
      <trkpt lat="47.9134" lon="3.49801">
        <ele>204</ele>
        <time>2019-04-01T09:13:15Z</time>
      </trkpt>
      <trkpt lat="47.91337" lon="3.49795">
        <ele>205</ele>
        <time>2019-04-01T09:13:19Z</time>
      </trkpt>
      <trkpt lat="47.91333" lon="3.4979">
        <ele>205</ele>
        <time>2019-04-01T09:13:23Z</time>
      </trkpt>
      <trkpt lat="47.9133" lon="3.49784">
        <ele>205</ele>
        <time>2019-04-01T09:13:27Z</time>
      </trkpt>
      <trkpt lat="47.91327" lon="3.49779">
        <ele>206</ele>
        <time>2019-04-01T09:13:31Z</time>
      </trkpt>
      <trkpt lat="47.91324" lon="3.49773">
        <ele>205</ele>
        <time>2019-04-01T09:13:35Z</time>
      </trkpt>
      <trkpt lat="47.91321" lon="3.49768">
        <ele>205</ele>
        <time>2019-04-01T09:13:38Z</time>
      </trkpt>
      <trkpt lat="47.91318" lon="3.49761">
        <ele>205</ele>
        <time>2019-04-01T09:13:42Z</time>
      </trkpt>
      <trkpt lat="47.91315" lon="3.49757">
        <ele>206</ele>
        <time>2019-04-01T09:13:45Z</time>
      </trkpt>
      <trkpt lat="47.91312" lon="3.49749">
        <ele>206</ele>
        <time>2019-04-01T09:13:50Z</time>
      </trkpt>
      <trkpt lat="47.91309" lon="3.49744">
        <ele>206</ele>
        <time>2019-04-01T09:13:54Z</time>
      </trkpt>
      <trkpt lat="47.91306" lon="3.49739">
        <ele>206</ele>
        <time>2019-04-01T09:13:57Z</time>
      </trkpt>
      <trkpt lat="47.91304" lon="3.49736">
        <ele>206</ele>
        <time>2019-04-01T09:14:00Z</time>
      </trkpt>
      <trkpt lat="47.91303" lon="3.49733">
        <ele>206</ele>
        <time>2019-04-01T09:14:02Z</time>
      </trkpt>
      <trkpt lat="47.91301" lon="3.49729">
        <ele>206</ele>
        <time>2019-04-01T09:14:04Z</time>
      </trkpt>
      <trkpt lat="47.91298" lon="3.49725">
        <ele>207</ele>
        <time>2019-04-01T09:14:07Z</time>
      </trkpt>
      <trkpt lat="47.91296" lon="3.49717">
        <ele>205</ele>
        <time>2019-04-01T09:14:11Z</time>
      </trkpt>
      <trkpt lat="47.91291" lon="3.49709">
        <ele>205</ele>
        <time>2019-04-01T09:14:17Z</time>
      </trkpt>
      <trkpt lat="47.91288" lon="3.49703">
        <ele>205</ele>
        <time>2019-04-01T09:14:21Z</time>
      </trkpt>
      <trkpt lat="47.91285" lon="3.49696">
        <ele>205</ele>
        <time>2019-04-01T09:14:26Z</time>
      </trkpt>
      <trkpt lat="47.91282" lon="3.4969">
        <ele>206</ele>
        <time>2019-04-01T09:14:30Z</time>
      </trkpt>
      <trkpt lat="47.9128" lon="3.49687">
        <ele>206</ele>
        <time>2019-04-01T09:14:32Z</time>
      </trkpt>
      <trkpt lat="47.91279" lon="3.49684">
        <ele>206</ele>
        <time>2019-04-01T09:14:34Z</time>
      </trkpt>
      <trkpt lat="47.91277" lon="3.49677">
        <ele>206</ele>
        <time>2019-04-01T09:14:39Z</time>
      </trkpt>
      <trkpt lat="47.91276" lon="3.49674">
        <ele>206</ele>
        <time>2019-04-01T09:14:41Z</time>
      </trkpt>
      <trkpt lat="47.91275" lon="3.4967">
        <ele>206</ele>
        <time>2019-04-01T09:14:43Z</time>
      </trkpt>
      <trkpt lat="47.91272" lon="3.49663">
        <ele>206</ele>
        <time>2019-04-01T09:14:47Z</time>
      </trkpt>
      <trkpt lat="47.91269" lon="3.49656">
        <ele>207</ele>
        <time>2019-04-01T09:14:51Z</time>
      </trkpt>
      <trkpt lat="47.91268" lon="3.49654">
        <ele>207</ele>
        <time>2019-04-01T09:14:53Z</time>
      </trkpt>
      <trkpt lat="47.91264" lon="3.49648">
        <ele>207</ele>
        <time>2019-04-01T09:14:57Z</time>
      </trkpt>
      <trkpt lat="47.91261" lon="3.49645">
        <ele>207</ele>
        <time>2019-04-01T09:15:00Z</time>
      </trkpt>
      <trkpt lat="47.91259" lon="3.49642">
        <ele>207</ele>
        <time>2019-04-01T09:15:02Z</time>
      </trkpt>
      <trkpt lat="47.91255" lon="3.49638">
        <ele>207</ele>
        <time>2019-04-01T09:15:06Z</time>
      </trkpt>
      <trkpt lat="47.91253" lon="3.49636">
        <ele>207</ele>
        <time>2019-04-01T09:15:08Z</time>
      </trkpt>
      <trkpt lat="47.91249" lon="3.49632">
        <ele>208</ele>
        <time>2019-04-01T09:15:13Z</time>
      </trkpt>
      <trkpt lat="47.91245" lon="3.49629">
        <ele>207</ele>
        <time>2019-04-01T09:15:16Z</time>
      </trkpt>
      <trkpt lat="47.91243" lon="3.49627">
        <ele>207</ele>
        <time>2019-04-01T09:15:18Z</time>
      </trkpt>
      <trkpt lat="47.9124" lon="3.49624">
        <ele>208</ele>
        <time>2019-04-01T09:15:21Z</time>
      </trkpt>
      <trkpt lat="47.91237" lon="3.49622">
        <ele>208</ele>
        <time>2019-04-01T09:15:24Z</time>
      </trkpt>
      <trkpt lat="47.91234" lon="3.4962">
        <ele>208</ele>
        <time>2019-04-01T09:15:26Z</time>
      </trkpt>
      <trkpt lat="47.9123" lon="3.49617">
        <ele>209</ele>
        <time>2019-04-01T09:15:29Z</time>
      </trkpt>
      <trkpt lat="47.91225" lon="3.49615">
        <ele>208</ele>
        <time>2019-04-01T09:15:33Z</time>
      </trkpt>
      <trkpt lat="47.9122" lon="3.49611">
        <ele>209</ele>
        <time>2019-04-01T09:15:38Z</time>
      </trkpt>
      <trkpt lat="47.91216" lon="3.49609">
        <ele>208</ele>
        <time>2019-04-01T09:15:41Z</time>
      </trkpt>
      <trkpt lat="47.91211" lon="3.49607">
        <ele>208</ele>
        <time>2019-04-01T09:15:45Z</time>
      </trkpt>
      <trkpt lat="47.91208" lon="3.49606">
        <ele>208</ele>
        <time>2019-04-01T09:15:48Z</time>
      </trkpt>
      <trkpt lat="47.91206" lon="3.49604">
        <ele>209</ele>
        <time>2019-04-01T09:15:50Z</time>
      </trkpt>
      <trkpt lat="47.91202" lon="3.49602">
        <ele>210</ele>
        <time>2019-04-01T09:15:53Z</time>
      </trkpt>
      <trkpt lat="47.91198" lon="3.496">
        <ele>209</ele>
        <time>2019-04-01T09:15:57Z</time>
      </trkpt>
      <trkpt lat="47.91193" lon="3.49597">
        <ele>209</ele>
        <time>2019-04-01T09:16:01Z</time>
      </trkpt>
      <trkpt lat="47.91191" lon="3.49596">
        <ele>209</ele>
        <time>2019-04-01T09:16:03Z</time>
      </trkpt>
      <trkpt lat="47.91186" lon="3.49592">
        <ele>208</ele>
        <time>2019-04-01T09:16:07Z</time>
      </trkpt>
      <trkpt lat="47.91181" lon="3.49589">
        <ele>209</ele>
        <time>2019-04-01T09:16:12Z</time>
      </trkpt>
      <trkpt lat="47.91178" lon="3.49588">
        <ele>209</ele>
        <time>2019-04-01T09:16:14Z</time>
      </trkpt>
      <trkpt lat="47.91174" lon="3.49585">
        <ele>208</ele>
        <time>2019-04-01T09:16:18Z</time>
      </trkpt>
      <trkpt lat="47.9117" lon="3.49583">
        <ele>209</ele>
        <time>2019-04-01T09:16:29Z</time>
      </trkpt>
      <trkpt lat="47.91164" lon="3.4958">
        <ele>209</ele>
        <time>2019-04-01T09:16:34Z</time>
      </trkpt>
      <trkpt lat="47.91157" lon="3.49575">
        <ele>210</ele>
        <time>2019-04-01T09:16:40Z</time>
      </trkpt>
      <trkpt lat="47.91153" lon="3.49574">
        <ele>210</ele>
        <time>2019-04-01T09:16:44Z</time>
      </trkpt>
      <trkpt lat="47.91148" lon="3.49571">
        <ele>210</ele>
        <time>2019-04-01T09:16:47Z</time>
      </trkpt>
      <trkpt lat="47.91146" lon="3.4957">
        <ele>211</ele>
        <time>2019-04-01T09:16:49Z</time>
      </trkpt>
      <trkpt lat="47.91144" lon="3.49569">
        <ele>211</ele>
        <time>2019-04-01T09:16:51Z</time>
      </trkpt>
      <trkpt lat="47.9114" lon="3.49567">
        <ele>211</ele>
        <time>2019-04-01T09:16:55Z</time>
      </trkpt>
      <trkpt lat="47.91137" lon="3.49566">
        <ele>211</ele>
        <time>2019-04-01T09:16:57Z</time>
      </trkpt>
      <trkpt lat="47.91134" lon="3.49564">
        <ele>211</ele>
        <time>2019-04-01T09:17:00Z</time>
      </trkpt>
      <trkpt lat="47.91131" lon="3.49562">
        <ele>211</ele>
        <time>2019-04-01T09:17:02Z</time>
      </trkpt>
      <trkpt lat="47.91125" lon="3.4956">
        <ele>210</ele>
        <time>2019-04-01T09:17:07Z</time>
      </trkpt>
      <trkpt lat="47.91122" lon="3.49558">
        <ele>211</ele>
        <time>2019-04-01T09:17:10Z</time>
      </trkpt>
      <trkpt lat="47.91119" lon="3.49557">
        <ele>212</ele>
        <time>2019-04-01T09:17:12Z</time>
      </trkpt>
      <trkpt lat="47.91114" lon="3.49554">
        <ele>211</ele>
        <time>2019-04-01T09:17:16Z</time>
      </trkpt>
      <trkpt lat="47.91109" lon="3.49552">
        <ele>212</ele>
        <time>2019-04-01T09:17:21Z</time>
      </trkpt>
      <trkpt lat="47.91103" lon="3.49548">
        <ele>212</ele>
        <time>2019-04-01T09:17:25Z</time>
      </trkpt>
      <trkpt lat="47.911" lon="3.49546">
        <ele>212</ele>
        <time>2019-04-01T09:17:27Z</time>
      </trkpt>
      <trkpt lat="47.91096" lon="3.49545">
        <ele>212</ele>
        <time>2019-04-01T09:17:30Z</time>
      </trkpt>
      <trkpt lat="47.91092" lon="3.49541">
        <ele>212</ele>
        <time>2019-04-01T09:17:34Z</time>
      </trkpt>
      <trkpt lat="47.91089" lon="3.49539">
        <ele>213</ele>
        <time>2019-04-01T09:17:36Z</time>
      </trkpt>
      <trkpt lat="47.91085" lon="3.49539">
        <ele>213</ele>
        <time>2019-04-01T09:17:40Z</time>
      </trkpt>
      <trkpt lat="47.9108" lon="3.49536">
        <ele>214</ele>
        <time>2019-04-01T09:17:44Z</time>
      </trkpt>
      <trkpt lat="47.91077" lon="3.49534">
        <ele>214</ele>
        <time>2019-04-01T09:17:46Z</time>
      </trkpt>
      <trkpt lat="47.91075" lon="3.49532">
        <ele>214</ele>
        <time>2019-04-01T09:17:48Z</time>
      </trkpt>
      <trkpt lat="47.91072" lon="3.4953">
        <ele>215</ele>
        <time>2019-04-01T09:17:51Z</time>
      </trkpt>
      <trkpt lat="47.91069" lon="3.49529">
        <ele>214</ele>
        <time>2019-04-01T09:17:53Z</time>
      </trkpt>
      <trkpt lat="47.91064" lon="3.49527">
        <ele>215</ele>
        <time>2019-04-01T09:17:57Z</time>
      </trkpt>
      <trkpt lat="47.91059" lon="3.49524">
        <ele>214</ele>
        <time>2019-04-01T09:18:00Z</time>
      </trkpt>
      <trkpt lat="47.91055" lon="3.49523">
        <ele>214</ele>
        <time>2019-04-01T09:18:03Z</time>
      </trkpt>
      <trkpt lat="47.91052" lon="3.49521">
        <ele>214</ele>
        <time>2019-04-01T09:18:05Z</time>
      </trkpt>
      <trkpt lat="47.91049" lon="3.49519">
        <ele>214</ele>
        <time>2019-04-01T09:18:08Z</time>
      </trkpt>
      <trkpt lat="47.91046" lon="3.49517">
        <ele>214</ele>
        <time>2019-04-01T09:18:11Z</time>
      </trkpt>
      <trkpt lat="47.9104" lon="3.49514">
        <ele>214</ele>
        <time>2019-04-01T09:18:16Z</time>
      </trkpt>
      <trkpt lat="47.91034" lon="3.49511">
        <ele>214</ele>
        <time>2019-04-01T09:18:20Z</time>
      </trkpt>
      <trkpt lat="47.9103" lon="3.49508">
        <ele>214</ele>
        <time>2019-04-01T09:18:24Z</time>
      </trkpt>
      <trkpt lat="47.91025" lon="3.49506">
        <ele>216</ele>
        <time>2019-04-01T09:18:28Z</time>
      </trkpt>
      <trkpt lat="47.9102" lon="3.49503">
        <ele>215</ele>
        <time>2019-04-01T09:18:32Z</time>
      </trkpt>
      <trkpt lat="47.91017" lon="3.49502">
        <ele>215</ele>
        <time>2019-04-01T09:18:34Z</time>
      </trkpt>
      <trkpt lat="47.91013" lon="3.49499">
        <ele>215</ele>
        <time>2019-04-01T09:18:38Z</time>
      </trkpt>
      <trkpt lat="47.91009" lon="3.49497">
        <ele>215</ele>
        <time>2019-04-01T09:18:41Z</time>
      </trkpt>
      <trkpt lat="47.91007" lon="3.49495">
        <ele>215</ele>
        <time>2019-04-01T09:18:43Z</time>
      </trkpt>
      <trkpt lat="47.91001" lon="3.49492">
        <ele>215</ele>
        <time>2019-04-01T09:18:47Z</time>
      </trkpt>
      <trkpt lat="47.90996" lon="3.49491">
        <ele>215</ele>
        <time>2019-04-01T09:18:51Z</time>
      </trkpt>
      <trkpt lat="47.90991" lon="3.49487">
        <ele>216</ele>
        <time>2019-04-01T09:18:55Z</time>
      </trkpt>
      <trkpt lat="47.90985" lon="3.49486">
        <ele>216</ele>
        <time>2019-04-01T09:19:00Z</time>
      </trkpt>
      <trkpt lat="47.90982" lon="3.49486">
        <ele>217</ele>
        <time>2019-04-01T09:19:04Z</time>
      </trkpt>
      <trkpt lat="47.90979" lon="3.49491">
        <ele>217</ele>
        <time>2019-04-01T09:19:09Z</time>
      </trkpt>
      <trkpt lat="47.90973" lon="3.49498">
        <ele>216</ele>
        <time>2019-04-01T09:19:14Z</time>
      </trkpt>
      <trkpt lat="47.9097" lon="3.49504">
        <ele>216</ele>
        <time>2019-04-01T09:19:18Z</time>
      </trkpt>
      <trkpt lat="47.90968" lon="3.49507">
        <ele>216</ele>
        <time>2019-04-01T09:19:20Z</time>
      </trkpt>
      <trkpt lat="47.90966" lon="3.49513">
        <ele>215</ele>
        <time>2019-04-01T09:19:23Z</time>
      </trkpt>
      <trkpt lat="47.90963" lon="3.49519">
        <ele>215</ele>
        <time>2019-04-01T09:19:27Z</time>
      </trkpt>
      <trkpt lat="47.90961" lon="3.49522">
        <ele>215</ele>
        <time>2019-04-01T09:19:29Z</time>
      </trkpt>
      <trkpt lat="47.9096" lon="3.49525">
        <ele>216</ele>
        <time>2019-04-01T09:19:31Z</time>
      </trkpt>
      <trkpt lat="47.90959" lon="3.49528">
        <ele>215</ele>
        <time>2019-04-01T09:19:33Z</time>
      </trkpt>
      <trkpt lat="47.90957" lon="3.49532">
        <ele>215</ele>
        <time>2019-04-01T09:19:35Z</time>
      </trkpt>
      <trkpt lat="47.90956" lon="3.49536">
        <ele>216</ele>
        <time>2019-04-01T09:19:38Z</time>
      </trkpt>
      <trkpt lat="47.90954" lon="3.4954">
        <ele>217</ele>
        <time>2019-04-01T09:19:41Z</time>
      </trkpt>
      <trkpt lat="47.90953" lon="3.49544">
        <ele>216</ele>
        <time>2019-04-01T09:19:44Z</time>
      </trkpt>
      <trkpt lat="47.90951" lon="3.49547">
        <ele>216</ele>
        <time>2019-04-01T09:19:46Z</time>
      </trkpt>
      <trkpt lat="47.9095" lon="3.4955">
        <ele>216</ele>
        <time>2019-04-01T09:19:48Z</time>
      </trkpt>
      <trkpt lat="47.90946" lon="3.49557">
        <ele>216</ele>
        <time>2019-04-01T09:19:52Z</time>
      </trkpt>
      <trkpt lat="47.90944" lon="3.4956">
        <ele>215</ele>
        <time>2019-04-01T09:19:54Z</time>
      </trkpt>
      <trkpt lat="47.9094" lon="3.49565">
        <ele>215</ele>
        <time>2019-04-01T09:19:58Z</time>
      </trkpt>
      <trkpt lat="47.90939" lon="3.49568">
        <ele>215</ele>
        <time>2019-04-01T09:20:00Z</time>
      </trkpt>
      <trkpt lat="47.90937" lon="3.49571">
        <ele>215</ele>
        <time>2019-04-01T09:20:02Z</time>
      </trkpt>
      <trkpt lat="47.90935" lon="3.49574">
        <ele>215</ele>
        <time>2019-04-01T09:20:04Z</time>
      </trkpt>
      <trkpt lat="47.90933" lon="3.49581">
        <ele>215</ele>
        <time>2019-04-01T09:20:08Z</time>
      </trkpt>
      <trkpt lat="47.90932" lon="3.49587">
        <ele>214</ele>
        <time>2019-04-01T09:20:11Z</time>
      </trkpt>
      <trkpt lat="47.90929" lon="3.49594">
        <ele>214</ele>
        <time>2019-04-01T09:20:16Z</time>
      </trkpt>
      <trkpt lat="47.90926" lon="3.49601">
        <ele>214</ele>
        <time>2019-04-01T09:20:20Z</time>
      </trkpt>
      <trkpt lat="47.90922" lon="3.49607">
        <ele>214</ele>
        <time>2019-04-01T09:20:24Z</time>
      </trkpt>
      <trkpt lat="47.90918" lon="3.49612">
        <ele>214</ele>
        <time>2019-04-01T09:20:28Z</time>
      </trkpt>
      <trkpt lat="47.90915" lon="3.49618">
        <ele>214</ele>
        <time>2019-04-01T09:20:31Z</time>
      </trkpt>
      <trkpt lat="47.90913" lon="3.49621">
        <ele>213</ele>
        <time>2019-04-01T09:20:34Z</time>
      </trkpt>
      <trkpt lat="47.90912" lon="3.49625">
        <ele>214</ele>
        <time>2019-04-01T09:20:37Z</time>
      </trkpt>
      <trkpt lat="47.9091" lon="3.49628">
        <ele>213</ele>
        <time>2019-04-01T09:20:39Z</time>
      </trkpt>
      <trkpt lat="47.90907" lon="3.49634">
        <ele>213</ele>
        <time>2019-04-01T09:20:43Z</time>
      </trkpt>
      <trkpt lat="47.90904" lon="3.49643">
        <ele>214</ele>
        <time>2019-04-01T09:20:48Z</time>
      </trkpt>
      <trkpt lat="47.90902" lon="3.49647">
        <ele>214</ele>
        <time>2019-04-01T09:20:51Z</time>
      </trkpt>
      <trkpt lat="47.909" lon="3.49653">
        <ele>213</ele>
        <time>2019-04-01T09:20:55Z</time>
      </trkpt>
      <trkpt lat="47.90898" lon="3.49657">
        <ele>213</ele>
        <time>2019-04-01T09:20:58Z</time>
      </trkpt>
      <trkpt lat="47.90893" lon="3.49664">
        <ele>213</ele>
        <time>2019-04-01T09:21:03Z</time>
      </trkpt>
      <trkpt lat="47.9089" lon="3.49668">
        <ele>212</ele>
        <time>2019-04-01T09:21:06Z</time>
      </trkpt>
      <trkpt lat="47.90886" lon="3.49674">
        <ele>213</ele>
        <time>2019-04-01T09:21:10Z</time>
      </trkpt>
      <trkpt lat="47.90882" lon="3.49679">
        <ele>213</ele>
        <time>2019-04-01T09:21:14Z</time>
      </trkpt>
      <trkpt lat="47.90878" lon="3.49685">
        <ele>212</ele>
        <time>2019-04-01T09:21:18Z</time>
      </trkpt>
      <trkpt lat="47.90874" lon="3.49691">
        <ele>211</ele>
        <time>2019-04-01T09:21:23Z</time>
      </trkpt>
      <trkpt lat="47.90871" lon="3.49696">
        <ele>211</ele>
        <time>2019-04-01T09:21:27Z</time>
      </trkpt>
      <trkpt lat="47.90867" lon="3.49701">
        <ele>210</ele>
        <time>2019-04-01T09:21:31Z</time>
      </trkpt>
      <trkpt lat="47.90863" lon="3.49708">
        <ele>210</ele>
        <time>2019-04-01T09:21:36Z</time>
      </trkpt>
      <trkpt lat="47.90861" lon="3.49711">
        <ele>209</ele>
        <time>2019-04-01T09:21:38Z</time>
      </trkpt>
      <trkpt lat="47.90859" lon="3.49714">
        <ele>209</ele>
        <time>2019-04-01T09:21:41Z</time>
      </trkpt>
      <trkpt lat="47.90855" lon="3.49718">
        <ele>209</ele>
        <time>2019-04-01T09:21:45Z</time>
      </trkpt>
      <trkpt lat="47.9085" lon="3.49724">
        <ele>210</ele>
        <time>2019-04-01T09:21:50Z</time>
      </trkpt>
      <trkpt lat="47.90845" lon="3.49729">
        <ele>208</ele>
        <time>2019-04-01T09:21:55Z</time>
      </trkpt>
      <trkpt lat="47.90842" lon="3.49731">
        <ele>209</ele>
        <time>2019-04-01T09:21:59Z</time>
      </trkpt>
      <trkpt lat="47.90837" lon="3.49737">
        <ele>208</ele>
        <time>2019-04-01T09:22:03Z</time>
      </trkpt>
      <trkpt lat="47.90835" lon="3.49739">
        <ele>208</ele>
        <time>2019-04-01T09:22:05Z</time>
      </trkpt>
      <trkpt lat="47.90833" lon="3.49741">
        <ele>208</ele>
        <time>2019-04-01T09:22:07Z</time>
      </trkpt>
      <trkpt lat="47.90829" lon="3.49744">
        <ele>208</ele>
        <time>2019-04-01T09:22:11Z</time>
      </trkpt>
      <trkpt lat="47.90825" lon="3.49748">
        <ele>206</ele>
        <time>2019-04-01T09:22:15Z</time>
      </trkpt>
      <trkpt lat="47.90821" lon="3.49754">
        <ele>206</ele>
        <time>2019-04-01T09:22:20Z</time>
      </trkpt>
      <trkpt lat="47.90817" lon="3.49758">
        <ele>206</ele>
        <time>2019-04-01T09:22:23Z</time>
      </trkpt>
      <trkpt lat="47.90812" lon="3.49763">
        <ele>205</ele>
        <time>2019-04-01T09:22:27Z</time>
      </trkpt>
      <trkpt lat="47.9081" lon="3.49765">
        <ele>204</ele>
        <time>2019-04-01T09:22:29Z</time>
      </trkpt>
      <trkpt lat="47.90807" lon="3.49767">
        <ele>204</ele>
        <time>2019-04-01T09:22:31Z</time>
      </trkpt>
      <trkpt lat="47.90804" lon="3.49771">
        <ele>204</ele>
        <time>2019-04-01T09:22:34Z</time>
      </trkpt>
      <trkpt lat="47.908" lon="3.49775">
        <ele>202</ele>
        <time>2019-04-01T09:22:39Z</time>
      </trkpt>
      <trkpt lat="47.90796" lon="3.49779">
        <ele>202</ele>
        <time>2019-04-01T09:22:44Z</time>
      </trkpt>
      <trkpt lat="47.90792" lon="3.49784">
        <ele>201</ele>
        <time>2019-04-01T09:22:49Z</time>
      </trkpt>
      <trkpt lat="47.90788" lon="3.4979">
        <ele>200</ele>
        <time>2019-04-01T09:22:53Z</time>
      </trkpt>
      <trkpt lat="47.90783" lon="3.49792">
        <ele>200</ele>
        <time>2019-04-01T09:22:56Z</time>
      </trkpt>
      <trkpt lat="47.90779" lon="3.49796">
        <ele>199</ele>
        <time>2019-04-01T09:22:59Z</time>
      </trkpt>
      <trkpt lat="47.90775" lon="3.49802">
        <ele>198</ele>
        <time>2019-04-01T09:23:04Z</time>
      </trkpt>
      <trkpt lat="47.90771" lon="3.49805">
        <ele>197</ele>
        <time>2019-04-01T09:23:09Z</time>
      </trkpt>
      <trkpt lat="47.90767" lon="3.49809">
        <ele>196</ele>
        <time>2019-04-01T09:23:13Z</time>
      </trkpt>
      <trkpt lat="47.90762" lon="3.49814">
        <ele>196</ele>
        <time>2019-04-01T09:23:17Z</time>
      </trkpt>
      <trkpt lat="47.9076" lon="3.49816">
        <ele>195</ele>
        <time>2019-04-01T09:23:19Z</time>
      </trkpt>
      <trkpt lat="47.90758" lon="3.49818">
        <ele>195</ele>
        <time>2019-04-01T09:23:21Z</time>
      </trkpt>
      <trkpt lat="47.90755" lon="3.49821">
        <ele>195</ele>
        <time>2019-04-01T09:23:24Z</time>
      </trkpt>
      <trkpt lat="47.90751" lon="3.49827">
        <ele>194</ele>
        <time>2019-04-01T09:23:29Z</time>
      </trkpt>
      <trkpt lat="47.90746" lon="3.4983">
        <ele>194</ele>
        <time>2019-04-01T09:23:32Z</time>
      </trkpt>
      <trkpt lat="47.90741" lon="3.49837">
        <ele>192</ele>
        <time>2019-04-01T09:23:38Z</time>
      </trkpt>
      <trkpt lat="47.90737" lon="3.49843">
        <ele>191</ele>
        <time>2019-04-01T09:23:43Z</time>
      </trkpt>
      <trkpt lat="47.90731" lon="3.49848">
        <ele>190</ele>
        <time>2019-04-01T09:23:48Z</time>
      </trkpt>
      <trkpt lat="47.90729" lon="3.4985">
        <ele>190</ele>
        <time>2019-04-01T09:23:50Z</time>
      </trkpt>
      <trkpt lat="47.90725" lon="3.49853">
        <ele>189</ele>
        <time>2019-04-01T09:23:53Z</time>
      </trkpt>
      <trkpt lat="47.90722" lon="3.49857">
        <ele>189</ele>
        <time>2019-04-01T09:23:56Z</time>
      </trkpt>
      <trkpt lat="47.90718" lon="3.49862">
        <ele>189</ele>
        <time>2019-04-01T09:23:59Z</time>
      </trkpt>
      <trkpt lat="47.90716" lon="3.49866">
        <ele>188</ele>
        <time>2019-04-01T09:24:02Z</time>
      </trkpt>
      <trkpt lat="47.90715" lon="3.49869">
        <ele>188</ele>
        <time>2019-04-01T09:24:04Z</time>
      </trkpt>
      <trkpt lat="47.90711" lon="3.49874">
        <ele>188</ele>
        <time>2019-04-01T09:24:07Z</time>
      </trkpt>
      <trkpt lat="47.90708" lon="3.49877">
        <ele>187</ele>
        <time>2019-04-01T09:24:11Z</time>
      </trkpt>
      <trkpt lat="47.90705" lon="3.49884">
        <ele>186</ele>
        <time>2019-04-01T09:24:17Z</time>
      </trkpt>
      <trkpt lat="47.90701" lon="3.49887">
        <ele>186</ele>
        <time>2019-04-01T09:24:21Z</time>
      </trkpt>
      <trkpt lat="47.90698" lon="3.49893">
        <ele>185</ele>
        <time>2019-04-01T09:24:25Z</time>
      </trkpt>
      <trkpt lat="47.90694" lon="3.49899">
        <ele>185</ele>
        <time>2019-04-01T09:24:29Z</time>
      </trkpt>
      <trkpt lat="47.90691" lon="3.49904">
        <ele>183</ele>
        <time>2019-04-01T09:24:35Z</time>
      </trkpt>
      <trkpt lat="47.90688" lon="3.4991">
        <ele>184</ele>
        <time>2019-04-01T09:24:39Z</time>
      </trkpt>
      <trkpt lat="47.90684" lon="3.49916">
        <ele>183</ele>
        <time>2019-04-01T09:24:44Z</time>
      </trkpt>
      <trkpt lat="47.90681" lon="3.49921">
        <ele>182</ele>
        <time>2019-04-01T09:24:48Z</time>
      </trkpt>
      <trkpt lat="47.90677" lon="3.49926">
        <ele>183</ele>
        <time>2019-04-01T09:24:52Z</time>
      </trkpt>
      <trkpt lat="47.90674" lon="3.49931">
        <ele>183</ele>
        <time>2019-04-01T09:24:56Z</time>
      </trkpt>
      <trkpt lat="47.90669" lon="3.49936">
        <ele>182</ele>
        <time>2019-04-01T09:25:00Z</time>
      </trkpt>
      <trkpt lat="47.90666" lon="3.49942">
        <ele>182</ele>
        <time>2019-04-01T09:25:04Z</time>
      </trkpt>
      <trkpt lat="47.90661" lon="3.49948">
        <ele>181</ele>
        <time>2019-04-01T09:25:09Z</time>
      </trkpt>
      <trkpt lat="47.90657" lon="3.49955">
        <ele>181</ele>
        <time>2019-04-01T09:25:13Z</time>
      </trkpt>
      <trkpt lat="47.90654" lon="3.49959">
        <ele>181</ele>
        <time>2019-04-01T09:25:17Z</time>
      </trkpt>
      <trkpt lat="47.90651" lon="3.49964">
        <ele>181</ele>
        <time>2019-04-01T09:25:21Z</time>
      </trkpt>
      <trkpt lat="47.90648" lon="3.4997">
        <ele>181</ele>
        <time>2019-04-01T09:25:25Z</time>
      </trkpt>
      <trkpt lat="47.90645" lon="3.49977">
        <ele>181</ele>
        <time>2019-04-01T09:25:29Z</time>
      </trkpt>
      <trkpt lat="47.90641" lon="3.49982">
        <ele>181</ele>
        <time>2019-04-01T09:25:33Z</time>
      </trkpt>
      <trkpt lat="47.90639" lon="3.49985">
        <ele>181</ele>
        <time>2019-04-01T09:25:35Z</time>
      </trkpt>
      <trkpt lat="47.90635" lon="3.4999">
        <ele>181</ele>
        <time>2019-04-01T09:25:40Z</time>
      </trkpt>
      <trkpt lat="47.90631" lon="3.49994">
        <ele>181</ele>
        <time>2019-04-01T09:25:43Z</time>
      </trkpt>
      <trkpt lat="47.90628" lon="3.49999">
        <ele>181</ele>
        <time>2019-04-01T09:25:48Z</time>
      </trkpt>
      <trkpt lat="47.90626" lon="3.50003">
        <ele>181</ele>
        <time>2019-04-01T09:25:50Z</time>
      </trkpt>
      <trkpt lat="47.90623" lon="3.5001">
        <ele>181</ele>
        <time>2019-04-01T09:25:54Z</time>
      </trkpt>
      <trkpt lat="47.90618" lon="3.50015">
        <ele>181</ele>
        <time>2019-04-01T09:25:58Z</time>
      </trkpt>
      <trkpt lat="47.90615" lon="3.5002">
        <ele>182</ele>
        <time>2019-04-01T09:26:01Z</time>
      </trkpt>
      <trkpt lat="47.90613" lon="3.50027">
        <ele>181</ele>
        <time>2019-04-01T09:26:06Z</time>
      </trkpt>
      <trkpt lat="47.90611" lon="3.50032">
        <ele>181</ele>
        <time>2019-04-01T09:26:09Z</time>
      </trkpt>
      <trkpt lat="47.90607" lon="3.50037">
        <ele>181</ele>
        <time>2019-04-01T09:26:13Z</time>
      </trkpt>
      <trkpt lat="47.90604" lon="3.50039">
        <ele>181</ele>
        <time>2019-04-01T09:26:15Z</time>
      </trkpt>
      <trkpt lat="47.90601" lon="3.50045">
        <ele>182</ele>
        <time>2019-04-01T09:26:20Z</time>
      </trkpt>
      <trkpt lat="47.90597" lon="3.50049">
        <ele>183</ele>
        <time>2019-04-01T09:26:24Z</time>
      </trkpt>
      <trkpt lat="47.90594" lon="3.50052">
        <ele>183</ele>
        <time>2019-04-01T09:26:27Z</time>
      </trkpt>
      <trkpt lat="47.90591" lon="3.50055">
        <ele>182</ele>
        <time>2019-04-01T09:26:30Z</time>
      </trkpt>
      <trkpt lat="47.90589" lon="3.50058">
        <ele>182</ele>
        <time>2019-04-01T09:26:32Z</time>
      </trkpt>
      <trkpt lat="47.90587" lon="3.5006">
        <ele>182</ele>
        <time>2019-04-01T09:26:34Z</time>
      </trkpt>
      <trkpt lat="47.90584" lon="3.50063">
        <ele>182</ele>
        <time>2019-04-01T09:26:36Z</time>
      </trkpt>
      <trkpt lat="47.90581" lon="3.50069">
        <ele>181</ele>
        <time>2019-04-01T09:26:39Z</time>
      </trkpt>
      <trkpt lat="47.90579" lon="3.50074">
        <ele>181</ele>
        <time>2019-04-01T09:26:42Z</time>
      </trkpt>
      <trkpt lat="47.90576" lon="3.50079">
        <ele>181</ele>
        <time>2019-04-01T09:26:46Z</time>
      </trkpt>
      <trkpt lat="47.90572" lon="3.50085">
        <ele>180</ele>
        <time>2019-04-01T09:26:50Z</time>
      </trkpt>
      <trkpt lat="47.90568" lon="3.50089">
        <ele>180</ele>
        <time>2019-04-01T09:26:55Z</time>
      </trkpt>
      <trkpt lat="47.90566" lon="3.50096">
        <ele>180</ele>
        <time>2019-04-01T09:26:59Z</time>
      </trkpt>
      <trkpt lat="47.90562" lon="3.50101">
        <ele>179</ele>
        <time>2019-04-01T09:27:03Z</time>
      </trkpt>
      <trkpt lat="47.90559" lon="3.50106">
        <ele>179</ele>
        <time>2019-04-01T09:27:07Z</time>
      </trkpt>
      <trkpt lat="47.90555" lon="3.50111">
        <ele>180</ele>
        <time>2019-04-01T09:27:11Z</time>
      </trkpt>
      <trkpt lat="47.90553" lon="3.50113">
        <ele>179</ele>
        <time>2019-04-01T09:27:13Z</time>
      </trkpt>
      <trkpt lat="47.90549" lon="3.50118">
        <ele>178</ele>
        <time>2019-04-01T09:27:18Z</time>
      </trkpt>
      <trkpt lat="47.90546" lon="3.50124">
        <ele>178</ele>
        <time>2019-04-01T09:27:23Z</time>
      </trkpt>
      <trkpt lat="47.90541" lon="3.50128">
        <ele>178</ele>
        <time>2019-04-01T09:27:27Z</time>
      </trkpt>
      <trkpt lat="47.90537" lon="3.50134">
        <ele>177</ele>
        <time>2019-04-01T09:27:32Z</time>
      </trkpt>
      <trkpt lat="47.90536" lon="3.50137">
        <ele>177</ele>
        <time>2019-04-01T09:27:34Z</time>
      </trkpt>
      <trkpt lat="47.90533" lon="3.5014">
        <ele>176</ele>
        <time>2019-04-01T09:27:36Z</time>
      </trkpt>
      <trkpt lat="47.90531" lon="3.50143">
        <ele>176</ele>
        <time>2019-04-01T09:27:39Z</time>
      </trkpt>
      <trkpt lat="47.90525" lon="3.50147">
        <ele>176</ele>
        <time>2019-04-01T09:27:45Z</time>
      </trkpt>
      <trkpt lat="47.90521" lon="3.50151">
        <ele>175</ele>
        <time>2019-04-01T09:27:50Z</time>
      </trkpt>
      <trkpt lat="47.90516" lon="3.50154">
        <ele>174</ele>
        <time>2019-04-01T09:27:54Z</time>
      </trkpt>
      <trkpt lat="47.90512" lon="3.50156">
        <ele>174</ele>
        <time>2019-04-01T09:27:56Z</time>
      </trkpt>
      <trkpt lat="47.90508" lon="3.50158">
        <ele>173</ele>
        <time>2019-04-01T09:27:59Z</time>
      </trkpt>
      <trkpt lat="47.90504" lon="3.50163">
        <ele>172</ele>
        <time>2019-04-01T09:28:03Z</time>
      </trkpt>
      <trkpt lat="47.905" lon="3.50167">
        <ele>172</ele>
        <time>2019-04-01T09:28:06Z</time>
      </trkpt>
      <trkpt lat="47.90497" lon="3.50169">
        <ele>172</ele>
        <time>2019-04-01T09:28:09Z</time>
      </trkpt>
      <trkpt lat="47.90493" lon="3.50175">
        <ele>171</ele>
        <time>2019-04-01T09:28:14Z</time>
      </trkpt>
      <trkpt lat="47.90489" lon="3.50179">
        <ele>170</ele>
        <time>2019-04-01T09:28:18Z</time>
      </trkpt>
      <trkpt lat="47.90488" lon="3.50182">
        <ele>170</ele>
        <time>2019-04-01T09:28:20Z</time>
      </trkpt>
      <trkpt lat="47.90485" lon="3.50185">
        <ele>169</ele>
        <time>2019-04-01T09:28:23Z</time>
      </trkpt>
      <trkpt lat="47.90482" lon="3.5019">
        <ele>169</ele>
        <time>2019-04-01T09:28:27Z</time>
      </trkpt>
      <trkpt lat="47.90477" lon="3.50196">
        <ele>167</ele>
        <time>2019-04-01T09:28:32Z</time>
      </trkpt>
      <trkpt lat="47.90475" lon="3.50198">
        <ele>167</ele>
        <time>2019-04-01T09:28:34Z</time>
      </trkpt>
      <trkpt lat="47.9047" lon="3.50201">
        <ele>167</ele>
        <time>2019-04-01T09:28:38Z</time>
      </trkpt>
      <trkpt lat="47.90467" lon="3.50206">
        <ele>165</ele>
        <time>2019-04-01T09:28:42Z</time>
      </trkpt>
      <trkpt lat="47.90464" lon="3.50213">
        <ele>164</ele>
        <time>2019-04-01T09:28:47Z</time>
      </trkpt>
      <trkpt lat="47.9046" lon="3.50218">
        <ele>162</ele>
        <time>2019-04-01T09:28:51Z</time>
      </trkpt>
      <trkpt lat="47.90456" lon="3.50224">
        <ele>162</ele>
        <time>2019-04-01T09:28:56Z</time>
      </trkpt>
      <trkpt lat="47.90454" lon="3.50228">
        <ele>161</ele>
        <time>2019-04-01T09:28:59Z</time>
      </trkpt>
      <trkpt lat="47.90452" lon="3.50231">
        <ele>161</ele>
        <time>2019-04-01T09:29:01Z</time>
      </trkpt>
      <trkpt lat="47.9045" lon="3.50234">
        <ele>161</ele>
        <time>2019-04-01T09:29:03Z</time>
      </trkpt>
      <trkpt lat="47.90446" lon="3.5024">
        <ele>161</ele>
        <time>2019-04-01T09:29:07Z</time>
      </trkpt>
      <trkpt lat="47.90444" lon="3.50244">
        <ele>161</ele>
        <time>2019-04-01T09:29:09Z</time>
      </trkpt>
      <trkpt lat="47.90442" lon="3.50246">
        <ele>161</ele>
        <time>2019-04-01T09:29:11Z</time>
      </trkpt>
      <trkpt lat="47.90438" lon="3.50251">
        <ele>162</ele>
        <time>2019-04-01T09:29:15Z</time>
      </trkpt>
      <trkpt lat="47.90435" lon="3.50256">
        <ele>162</ele>
        <time>2019-04-01T09:29:18Z</time>
      </trkpt>
      <trkpt lat="47.90432" lon="3.50261">
        <ele>161</ele>
        <time>2019-04-01T09:29:21Z</time>
      </trkpt>
      <trkpt lat="47.90428" lon="3.50266">
        <ele>162</ele>
        <time>2019-04-01T09:29:24Z</time>
      </trkpt>
      <trkpt lat="47.90425" lon="3.50272">
        <ele>162</ele>
        <time>2019-04-01T09:29:29Z</time>
      </trkpt>
      <trkpt lat="47.90423" lon="3.50276">
        <ele>161</ele>
        <time>2019-04-01T09:29:31Z</time>
      </trkpt>
      <trkpt lat="47.9042" lon="3.50281">
        <ele>161</ele>
        <time>2019-04-01T09:29:34Z</time>
      </trkpt>
      <trkpt lat="47.90417" lon="3.50284">
        <ele>161</ele>
        <time>2019-04-01T09:29:36Z</time>
      </trkpt>
      <trkpt lat="47.90412" lon="3.50291">
        <ele>161</ele>
        <time>2019-04-01T09:29:41Z</time>
      </trkpt>
      <trkpt lat="47.90408" lon="3.50296">
        <ele>160</ele>
        <time>2019-04-01T09:29:45Z</time>
      </trkpt>
      <trkpt lat="47.90406" lon="3.503">
        <ele>160</ele>
        <time>2019-04-01T09:29:48Z</time>
      </trkpt>
      <trkpt lat="47.90402" lon="3.50307">
        <ele>160</ele>
        <time>2019-04-01T09:29:53Z</time>
      </trkpt>
      <trkpt lat="47.90398" lon="3.50314">
        <ele>160</ele>
        <time>2019-04-01T09:29:57Z</time>
      </trkpt>
      <trkpt lat="47.90396" lon="3.50318">
        <ele>160</ele>
        <time>2019-04-01T09:30:00Z</time>
      </trkpt>
      <trkpt lat="47.90394" lon="3.50321">
        <ele>160</ele>
        <time>2019-04-01T09:30:02Z</time>
      </trkpt>
      <trkpt lat="47.9039" lon="3.50325">
        <ele>160</ele>
        <time>2019-04-01T09:30:05Z</time>
      </trkpt>
      <trkpt lat="47.90386" lon="3.5033">
        <ele>160</ele>
        <time>2019-04-01T09:30:09Z</time>
      </trkpt>
      <trkpt lat="47.90382" lon="3.50334">
        <ele>160</ele>
        <time>2019-04-01T09:30:14Z</time>
      </trkpt>
      <trkpt lat="47.90379" lon="3.50341">
        <ele>160</ele>
        <time>2019-04-01T09:30:18Z</time>
      </trkpt>
      <trkpt lat="47.90376" lon="3.50346">
        <ele>160</ele>
        <time>2019-04-01T09:30:22Z</time>
      </trkpt>
      <trkpt lat="47.90373" lon="3.50351">
        <ele>160</ele>
        <time>2019-04-01T09:30:25Z</time>
      </trkpt>
      <trkpt lat="47.9037" lon="3.50355">
        <ele>159</ele>
        <time>2019-04-01T09:30:28Z</time>
      </trkpt>
      <trkpt lat="47.90368" lon="3.5036">
        <ele>159</ele>
        <time>2019-04-01T09:30:31Z</time>
      </trkpt>
      <trkpt lat="47.90364" lon="3.50365">
        <ele>160</ele>
        <time>2019-04-01T09:30:35Z</time>
      </trkpt>
      <trkpt lat="47.9036" lon="3.50371">
        <ele>160</ele>
        <time>2019-04-01T09:30:40Z</time>
      </trkpt>
      <trkpt lat="47.90358" lon="3.50374">
        <ele>161</ele>
        <time>2019-04-01T09:30:43Z</time>
      </trkpt>
      <trkpt lat="47.90354" lon="3.5038">
        <ele>160</ele>
        <time>2019-04-01T09:30:47Z</time>
      </trkpt>
      <trkpt lat="47.90351" lon="3.50387">
        <ele>161</ele>
        <time>2019-04-01T09:30:51Z</time>
      </trkpt>
      <trkpt lat="47.90348" lon="3.50391">
        <ele>160</ele>
        <time>2019-04-01T09:30:55Z</time>
      </trkpt>
      <trkpt lat="47.90344" lon="3.50395">
        <ele>161</ele>
        <time>2019-04-01T09:30:58Z</time>
      </trkpt>
      <trkpt lat="47.90341" lon="3.50398">
        <ele>161</ele>
        <time>2019-04-01T09:31:00Z</time>
      </trkpt>
      <trkpt lat="47.90338" lon="3.50403">
        <ele>160</ele>
        <time>2019-04-01T09:31:03Z</time>
      </trkpt>
      <trkpt lat="47.90335" lon="3.50407">
        <ele>160</ele>
        <time>2019-04-01T09:31:06Z</time>
      </trkpt>
      <trkpt lat="47.90331" lon="3.50412">
        <ele>161</ele>
        <time>2019-04-01T09:31:09Z</time>
      </trkpt>
      <trkpt lat="47.90328" lon="3.50416">
        <ele>161</ele>
        <time>2019-04-01T09:31:12Z</time>
      </trkpt>
      <trkpt lat="47.90326" lon="3.50419">
        <ele>160</ele>
        <time>2019-04-01T09:31:14Z</time>
      </trkpt>
      <trkpt lat="47.90322" lon="3.50425">
        <ele>159</ele>
        <time>2019-04-01T09:31:18Z</time>
      </trkpt>
      <trkpt lat="47.90318" lon="3.50429">
        <ele>159</ele>
        <time>2019-04-01T09:31:22Z</time>
      </trkpt>
      <trkpt lat="47.90314" lon="3.50434">
        <ele>158</ele>
        <time>2019-04-01T09:31:26Z</time>
      </trkpt>
      <trkpt lat="47.9031" lon="3.50439">
        <ele>158</ele>
        <time>2019-04-01T09:31:30Z</time>
      </trkpt>
      <trkpt lat="47.90306" lon="3.50445">
        <ele>157</ele>
        <time>2019-04-01T09:31:34Z</time>
      </trkpt>
      <trkpt lat="47.90301" lon="3.50449">
        <ele>159</ele>
        <time>2019-04-01T09:31:38Z</time>
      </trkpt>
      <trkpt lat="47.90296" lon="3.50454">
        <ele>158</ele>
        <time>2019-04-01T09:31:42Z</time>
      </trkpt>
      <trkpt lat="47.90294" lon="3.50456">
        <ele>158</ele>
        <time>2019-04-01T09:31:44Z</time>
      </trkpt>
      <trkpt lat="47.90291" lon="3.50461">
        <ele>157</ele>
        <time>2019-04-01T09:31:47Z</time>
      </trkpt>
      <trkpt lat="47.90286" lon="3.50466">
        <ele>158</ele>
        <time>2019-04-01T09:31:51Z</time>
      </trkpt>
      <trkpt lat="47.90282" lon="3.50472">
        <ele>158</ele>
        <time>2019-04-01T09:31:57Z</time>
      </trkpt>
      <trkpt lat="47.9028" lon="3.50475">
        <ele>158</ele>
        <time>2019-04-01T09:32:00Z</time>
      </trkpt>
      <trkpt lat="47.90278" lon="3.50477">
        <ele>158</ele>
        <time>2019-04-01T09:32:02Z</time>
      </trkpt>
      <trkpt lat="47.90276" lon="3.5048">
        <ele>158</ele>
        <time>2019-04-01T09:32:04Z</time>
      </trkpt>
      <trkpt lat="47.90272" lon="3.50484">
        <ele>159</ele>
        <time>2019-04-01T09:32:08Z</time>
      </trkpt>
      <trkpt lat="47.90268" lon="3.50488">
        <ele>160</ele>
        <time>2019-04-01T09:32:12Z</time>
      </trkpt>
      <trkpt lat="47.90263" lon="3.50493">
        <ele>161</ele>
        <time>2019-04-01T09:32:16Z</time>
      </trkpt>
      <trkpt lat="47.90259" lon="3.505">
        <ele>160</ele>
        <time>2019-04-01T09:32:20Z</time>
      </trkpt>
      <trkpt lat="47.90256" lon="3.50504">
        <ele>159</ele>
        <time>2019-04-01T09:32:23Z</time>
      </trkpt>
      <trkpt lat="47.90252" lon="3.50509">
        <ele>158</ele>
        <time>2019-04-01T09:32:26Z</time>
      </trkpt>
      <trkpt lat="47.90248" lon="3.50514">
        <ele>158</ele>
        <time>2019-04-01T09:32:31Z</time>
      </trkpt>
      <trkpt lat="47.90245" lon="3.50519">
        <ele>158</ele>
        <time>2019-04-01T09:32:35Z</time>
      </trkpt>
      <trkpt lat="47.90241" lon="3.50525">
        <ele>157</ele>
        <time>2019-04-01T09:32:39Z</time>
      </trkpt>
      <trkpt lat="47.90238" lon="3.5053">
        <ele>157</ele>
        <time>2019-04-01T09:32:43Z</time>
      </trkpt>
      <trkpt lat="47.90236" lon="3.50535">
        <ele>157</ele>
        <time>2019-04-01T09:32:46Z</time>
      </trkpt>
      <trkpt lat="47.90234" lon="3.50538">
        <ele>158</ele>
        <time>2019-04-01T09:32:48Z</time>
      </trkpt>
      <trkpt lat="47.90232" lon="3.50541">
        <ele>159</ele>
        <time>2019-04-01T09:32:50Z</time>
      </trkpt>
      <trkpt lat="47.90231" lon="3.50543">
        <ele>159</ele>
        <time>2019-04-01T09:32:52Z</time>
      </trkpt>
      <trkpt lat="47.90226" lon="3.50551">
        <ele>159</ele>
        <time>2019-04-01T09:32:57Z</time>
      </trkpt>
      <trkpt lat="47.90224" lon="3.50555">
        <ele>160</ele>
        <time>2019-04-01T09:33:00Z</time>
      </trkpt>
      <trkpt lat="47.90221" lon="3.50561">
        <ele>161</ele>
        <time>2019-04-01T09:33:05Z</time>
      </trkpt>
      <trkpt lat="47.9022" lon="3.50565">
        <ele>161</ele>
        <time>2019-04-01T09:33:08Z</time>
      </trkpt>
      <trkpt lat="47.90216" lon="3.5057">
        <ele>162</ele>
        <time>2019-04-01T09:33:13Z</time>
      </trkpt>
      <trkpt lat="47.90213" lon="3.50577">
        <ele>162</ele>
        <time>2019-04-01T09:33:18Z</time>
      </trkpt>
      <trkpt lat="47.9021" lon="3.50581">
        <ele>163</ele>
        <time>2019-04-01T09:33:21Z</time>
      </trkpt>
      <trkpt lat="47.90209" lon="3.50584">
        <ele>164</ele>
        <time>2019-04-01T09:33:23Z</time>
      </trkpt>
      <trkpt lat="47.90207" lon="3.50587">
        <ele>164</ele>
        <time>2019-04-01T09:33:25Z</time>
      </trkpt>
      <trkpt lat="47.90205" lon="3.50593">
        <ele>164</ele>
        <time>2019-04-01T09:33:29Z</time>
      </trkpt>
      <trkpt lat="47.90201" lon="3.50598">
        <ele>165</ele>
        <time>2019-04-01T09:33:33Z</time>
      </trkpt>
      <trkpt lat="47.90198" lon="3.50604">
        <ele>166</ele>
        <time>2019-04-01T09:33:37Z</time>
      </trkpt>
      <trkpt lat="47.90196" lon="3.5061">
        <ele>167</ele>
        <time>2019-04-01T09:33:41Z</time>
      </trkpt>
      <trkpt lat="47.90195" lon="3.50613">
        <ele>167</ele>
        <time>2019-04-01T09:33:44Z</time>
      </trkpt>
      <trkpt lat="47.90192" lon="3.5062">
        <ele>169</ele>
        <time>2019-04-01T09:33:49Z</time>
      </trkpt>
      <trkpt lat="47.90192" lon="3.5062">
        <ele>169</ele>
        <time>2019-04-01T09:33:57Z</time>
      </trkpt>
      <trkpt lat="47.90192" lon="3.5062">
        <ele>169</ele>
        <time>2019-04-01T09:33:58Z</time>
      </trkpt>
      <trkpt lat="47.90188" lon="3.50623">
        <ele>170</ele>
        <time>2019-04-01T09:34:33Z</time>
      </trkpt>
      <trkpt lat="47.90184" lon="3.50616">
        <ele>170</ele>
        <time>2019-04-01T09:34:42Z</time>
      </trkpt>
      <trkpt lat="47.90182" lon="3.5061">
        <ele>170</ele>
        <time>2019-04-01T09:34:47Z</time>
      </trkpt>
      <trkpt lat="47.90178" lon="3.50605">
        <ele>171</ele>
        <time>2019-04-01T09:34:51Z</time>
      </trkpt>
      <trkpt lat="47.90175" lon="3.506">
        <ele>171</ele>
        <time>2019-04-01T09:34:56Z</time>
      </trkpt>
      <trkpt lat="47.90172" lon="3.50594">
        <ele>172</ele>
        <time>2019-04-01T09:35:01Z</time>
      </trkpt>
      <trkpt lat="47.90168" lon="3.50589">
        <ele>172</ele>
        <time>2019-04-01T09:35:06Z</time>
      </trkpt>
      <trkpt lat="47.90164" lon="3.50584">
        <ele>171</ele>
        <time>2019-04-01T09:35:11Z</time>
      </trkpt>
      <trkpt lat="47.9016" lon="3.50579">
        <ele>171</ele>
        <time>2019-04-01T09:35:15Z</time>
      </trkpt>
      <trkpt lat="47.90159" lon="3.50576">
        <ele>172</ele>
        <time>2019-04-01T09:35:17Z</time>
      </trkpt>
      <trkpt lat="47.90154" lon="3.50571">
        <ele>172</ele>
        <time>2019-04-01T09:35:21Z</time>
      </trkpt>
      <trkpt lat="47.90151" lon="3.50565">
        <ele>172</ele>
        <time>2019-04-01T09:35:26Z</time>
      </trkpt>
      <trkpt lat="47.90147" lon="3.50561">
        <ele>172</ele>
        <time>2019-04-01T09:35:30Z</time>
      </trkpt>
      <trkpt lat="47.90143" lon="3.50554">
        <ele>172</ele>
        <time>2019-04-01T09:35:36Z</time>
      </trkpt>
      <trkpt lat="47.9014" lon="3.50549">
        <ele>171</ele>
        <time>2019-04-01T09:35:40Z</time>
      </trkpt>
      <trkpt lat="47.90137" lon="3.50543">
        <ele>171</ele>
        <time>2019-04-01T09:35:45Z</time>
      </trkpt>
      <trkpt lat="47.90135" lon="3.5054">
        <ele>171</ele>
        <time>2019-04-01T09:35:47Z</time>
      </trkpt>
      <trkpt lat="47.90133" lon="3.50537">
        <ele>171</ele>
        <time>2019-04-01T09:35:49Z</time>
      </trkpt>
      <trkpt lat="47.90131" lon="3.50534">
        <ele>172</ele>
        <time>2019-04-01T09:35:51Z</time>
      </trkpt>
      <trkpt lat="47.90129" lon="3.50531">
        <ele>172</ele>
        <time>2019-04-01T09:35:53Z</time>
      </trkpt>
      <trkpt lat="47.90127" lon="3.50528">
        <ele>172</ele>
        <time>2019-04-01T09:35:56Z</time>
      </trkpt>
      <trkpt lat="47.90124" lon="3.50523">
        <ele>172</ele>
        <time>2019-04-01T09:36:00Z</time>
      </trkpt>
      <trkpt lat="47.90121" lon="3.5052">
        <ele>174</ele>
        <time>2019-04-01T09:36:03Z</time>
      </trkpt>
      <trkpt lat="47.90119" lon="3.50518">
        <ele>174</ele>
        <time>2019-04-01T09:36:05Z</time>
      </trkpt>
      <trkpt lat="47.90117" lon="3.50516">
        <ele>175</ele>
        <time>2019-04-01T09:36:06Z</time>
      </trkpt>
      <trkpt lat="47.90114" lon="3.50511">
        <ele>175</ele>
        <time>2019-04-01T09:36:10Z</time>
      </trkpt>
      <trkpt lat="47.90112" lon="3.50508">
        <ele>176</ele>
        <time>2019-04-01T09:36:12Z</time>
      </trkpt>
      <trkpt lat="47.9011" lon="3.50505">
        <ele>176</ele>
        <time>2019-04-01T09:36:14Z</time>
      </trkpt>
      <trkpt lat="47.90108" lon="3.50502">
        <ele>175</ele>
        <time>2019-04-01T09:36:16Z</time>
      </trkpt>
      <trkpt lat="47.90104" lon="3.50498">
        <ele>175</ele>
        <time>2019-04-01T09:36:20Z</time>
      </trkpt>
      <trkpt lat="47.90101" lon="3.50495">
        <ele>175</ele>
        <time>2019-04-01T09:36:24Z</time>
      </trkpt>
      <trkpt lat="47.90097" lon="3.50489">
        <ele>177</ele>
        <time>2019-04-01T09:36:29Z</time>
      </trkpt>
      <trkpt lat="47.90094" lon="3.50485">
        <ele>177</ele>
        <time>2019-04-01T09:36:32Z</time>
      </trkpt>
      <trkpt lat="47.9009" lon="3.50479">
        <ele>177</ele>
        <time>2019-04-01T09:36:36Z</time>
      </trkpt>
      <trkpt lat="47.90086" lon="3.50472">
        <ele>177</ele>
        <time>2019-04-01T09:36:40Z</time>
      </trkpt>
      <trkpt lat="47.90082" lon="3.50467">
        <ele>176</ele>
        <time>2019-04-01T09:36:45Z</time>
      </trkpt>
      <trkpt lat="47.9008" lon="3.50463">
        <ele>176</ele>
        <time>2019-04-01T09:36:48Z</time>
      </trkpt>
      <trkpt lat="47.90078" lon="3.50459">
        <ele>177</ele>
        <time>2019-04-01T09:36:51Z</time>
      </trkpt>
      <trkpt lat="47.90075" lon="3.50456">
        <ele>178</ele>
        <time>2019-04-01T09:36:53Z</time>
      </trkpt>
      <trkpt lat="47.90072" lon="3.5045">
        <ele>178</ele>
        <time>2019-04-01T09:36:58Z</time>
      </trkpt>
      <trkpt lat="47.9007" lon="3.50446">
        <ele>177</ele>
        <time>2019-04-01T09:37:01Z</time>
      </trkpt>
      <trkpt lat="47.90068" lon="3.50442">
        <ele>178</ele>
        <time>2019-04-01T09:37:05Z</time>
      </trkpt>
      <trkpt lat="47.90066" lon="3.50438">
        <ele>178</ele>
        <time>2019-04-01T09:37:07Z</time>
      </trkpt>
      <trkpt lat="47.90064" lon="3.50434">
        <ele>178</ele>
        <time>2019-04-01T09:37:09Z</time>
      </trkpt>
      <trkpt lat="47.90063" lon="3.50431">
        <ele>179</ele>
        <time>2019-04-01T09:37:11Z</time>
      </trkpt>
      <trkpt lat="47.90061" lon="3.50427">
        <ele>180</ele>
        <time>2019-04-01T09:37:13Z</time>
      </trkpt>
      <trkpt lat="47.90058" lon="3.50422">
        <ele>179</ele>
        <time>2019-04-01T09:37:17Z</time>
      </trkpt>
      <trkpt lat="47.90056" lon="3.50419">
        <ele>180</ele>
        <time>2019-04-01T09:37:20Z</time>
      </trkpt>
      <trkpt lat="47.90055" lon="3.50416">
        <ele>179</ele>
        <time>2019-04-01T09:37:22Z</time>
      </trkpt>
      <trkpt lat="47.90052" lon="3.50411">
        <ele>180</ele>
        <time>2019-04-01T09:37:26Z</time>
      </trkpt>
      <trkpt lat="47.90049" lon="3.50404">
        <ele>181</ele>
        <time>2019-04-01T09:37:30Z</time>
      </trkpt>
      <trkpt lat="47.90047" lon="3.50396">
        <ele>180</ele>
        <time>2019-04-01T09:37:34Z</time>
      </trkpt>
      <trkpt lat="47.90044" lon="3.5039">
        <ele>180</ele>
        <time>2019-04-01T09:37:38Z</time>
      </trkpt>
      <trkpt lat="47.90041" lon="3.50385">
        <ele>179</ele>
        <time>2019-04-01T09:37:42Z</time>
      </trkpt>
      <trkpt lat="47.90038" lon="3.50379">
        <ele>179</ele>
        <time>2019-04-01T09:37:47Z</time>
      </trkpt>
      <trkpt lat="47.90035" lon="3.50374">
        <ele>180</ele>
        <time>2019-04-01T09:37:50Z</time>
      </trkpt>
      <trkpt lat="47.90033" lon="3.50368">
        <ele>180</ele>
        <time>2019-04-01T09:37:54Z</time>
      </trkpt>
      <trkpt lat="47.90032" lon="3.50364">
        <ele>180</ele>
        <time>2019-04-01T09:37:56Z</time>
      </trkpt>
      <trkpt lat="47.90031" lon="3.5036">
        <ele>181</ele>
        <time>2019-04-01T09:37:59Z</time>
      </trkpt>
      <trkpt lat="47.90029" lon="3.50356">
        <ele>180</ele>
        <time>2019-04-01T09:38:01Z</time>
      </trkpt>
      <trkpt lat="47.90028" lon="3.5035">
        <ele>181</ele>
        <time>2019-04-01T09:38:05Z</time>
      </trkpt>
      <trkpt lat="47.90024" lon="3.50342">
        <ele>182</ele>
        <time>2019-04-01T09:38:10Z</time>
      </trkpt>
      <trkpt lat="47.90022" lon="3.50338">
        <ele>182</ele>
        <time>2019-04-01T09:38:13Z</time>
      </trkpt>
      <trkpt lat="47.90021" lon="3.50335">
        <ele>183</ele>
        <time>2019-04-01T09:38:15Z</time>
      </trkpt>
      <trkpt lat="47.90019" lon="3.50329">
        <ele>182</ele>
        <time>2019-04-01T09:38:19Z</time>
      </trkpt>
      <trkpt lat="47.90016" lon="3.50323">
        <ele>182</ele>
        <time>2019-04-01T09:38:23Z</time>
      </trkpt>
      <trkpt lat="47.90014" lon="3.50319">
        <ele>182</ele>
        <time>2019-04-01T09:38:25Z</time>
      </trkpt>
      <trkpt lat="47.90013" lon="3.50316">
        <ele>182</ele>
        <time>2019-04-01T09:38:27Z</time>
      </trkpt>
      <trkpt lat="47.90011" lon="3.50313">
        <ele>182</ele>
        <time>2019-04-01T09:38:29Z</time>
      </trkpt>
      <trkpt lat="47.90009" lon="3.50307">
        <ele>183</ele>
        <time>2019-04-01T09:38:33Z</time>
      </trkpt>
      <trkpt lat="47.90008" lon="3.50303">
        <ele>183</ele>
        <time>2019-04-01T09:38:36Z</time>
      </trkpt>
      <trkpt lat="47.90007" lon="3.503">
        <ele>184</ele>
        <time>2019-04-01T09:38:38Z</time>
      </trkpt>
      <trkpt lat="47.90004" lon="3.50294">
        <ele>185</ele>
        <time>2019-04-01T09:38:42Z</time>
      </trkpt>
      <trkpt lat="47.90003" lon="3.50291">
        <ele>184</ele>
        <time>2019-04-01T09:38:45Z</time>
      </trkpt>
      <trkpt lat="47.89999" lon="3.50284">
        <ele>184</ele>
        <time>2019-04-01T09:38:49Z</time>
      </trkpt>
      <trkpt lat="47.89997" lon="3.50279">
        <ele>185</ele>
        <time>2019-04-01T09:38:53Z</time>
      </trkpt>
      <trkpt lat="47.89996" lon="3.50275">
        <ele>185</ele>
        <time>2019-04-01T09:38:56Z</time>
      </trkpt>
      <trkpt lat="47.89993" lon="3.50268">
        <ele>186</ele>
        <time>2019-04-01T09:39:00Z</time>
      </trkpt>
      <trkpt lat="47.89991" lon="3.50264">
        <ele>186</ele>
        <time>2019-04-01T09:39:02Z</time>
      </trkpt>
      <trkpt lat="47.89988" lon="3.50258">
        <ele>186</ele>
        <time>2019-04-01T09:39:06Z</time>
      </trkpt>
      <trkpt lat="47.89986" lon="3.50255">
        <ele>186</ele>
        <time>2019-04-01T09:39:08Z</time>
      </trkpt>
      <trkpt lat="47.89984" lon="3.50248">
        <ele>187</ele>
        <time>2019-04-01T09:39:13Z</time>
      </trkpt>
      <trkpt lat="47.89983" lon="3.50244">
        <ele>187</ele>
        <time>2019-04-01T09:39:16Z</time>
      </trkpt>
      <trkpt lat="47.8998" lon="3.50239">
        <ele>188</ele>
        <time>2019-04-01T09:39:20Z</time>
      </trkpt>
      <trkpt lat="47.89977" lon="3.50232">
        <ele>188</ele>
        <time>2019-04-01T09:39:24Z</time>
      </trkpt>
      <trkpt lat="47.8997" lon="3.50233">
        <ele>190</ele>
        <time>2019-04-01T09:39:30Z</time>
      </trkpt>
      <trkpt lat="47.89965" lon="3.50237">
        <ele>190</ele>
        <time>2019-04-01T09:39:35Z</time>
      </trkpt>
      <trkpt lat="47.89962" lon="3.5024">
        <ele>191</ele>
        <time>2019-04-01T09:39:38Z</time>
      </trkpt>
      <trkpt lat="47.89956" lon="3.50246">
        <ele>191</ele>
        <time>2019-04-01T09:39:44Z</time>
      </trkpt>
      <trkpt lat="47.89953" lon="3.50249">
        <ele>192</ele>
        <time>2019-04-01T09:39:47Z</time>
      </trkpt>
      <trkpt lat="47.89948" lon="3.50251">
        <ele>192</ele>
        <time>2019-04-01T09:39:52Z</time>
      </trkpt>
      <trkpt lat="47.89946" lon="3.50254">
        <ele>192</ele>
        <time>2019-04-01T09:40:00Z</time>
      </trkpt>
      <trkpt lat="47.89941" lon="3.50257">
        <ele>192</ele>
        <time>2019-04-01T09:40:47Z</time>
      </trkpt>
      <trkpt lat="47.89939" lon="3.50258">
        <ele>192</ele>
        <time>2019-04-01T09:40:49Z</time>
      </trkpt>
      <trkpt lat="47.89936" lon="3.50259">
        <ele>192</ele>
        <time>2019-04-01T09:40:51Z</time>
      </trkpt>
      <trkpt lat="47.89933" lon="3.5026">
        <ele>192</ele>
        <time>2019-04-01T09:40:54Z</time>
      </trkpt>
      <trkpt lat="47.89928" lon="3.50265">
        <ele>192</ele>
        <time>2019-04-01T09:41:00Z</time>
      </trkpt>
      <trkpt lat="47.89923" lon="3.50268">
        <ele>192</ele>
        <time>2019-04-01T09:41:04Z</time>
      </trkpt>
      <trkpt lat="47.89919" lon="3.50273">
        <ele>192</ele>
        <time>2019-04-01T09:41:09Z</time>
      </trkpt>
      <trkpt lat="47.89914" lon="3.50276">
        <ele>193</ele>
        <time>2019-04-01T09:41:13Z</time>
      </trkpt>
      <trkpt lat="47.89911" lon="3.50278">
        <ele>193</ele>
        <time>2019-04-01T09:41:15Z</time>
      </trkpt>
      <trkpt lat="47.89909" lon="3.50279">
        <ele>193</ele>
        <time>2019-04-01T09:41:17Z</time>
      </trkpt>
      <trkpt lat="47.89904" lon="3.50282">
        <ele>192</ele>
        <time>2019-04-01T09:41:21Z</time>
      </trkpt>
      <trkpt lat="47.89901" lon="3.50284">
        <ele>193</ele>
        <time>2019-04-01T09:41:23Z</time>
      </trkpt>
      <trkpt lat="47.89896" lon="3.50286">
        <ele>192</ele>
        <time>2019-04-01T09:41:26Z</time>
      </trkpt>
      <trkpt lat="47.89892" lon="3.50288">
        <ele>192</ele>
        <time>2019-04-01T09:41:29Z</time>
      </trkpt>
      <trkpt lat="47.89888" lon="3.50292">
        <ele>191</ele>
        <time>2019-04-01T09:41:34Z</time>
      </trkpt>
      <trkpt lat="47.89883" lon="3.50295">
        <ele>192</ele>
        <time>2019-04-01T09:41:37Z</time>
      </trkpt>
      <trkpt lat="47.89878" lon="3.50299">
        <ele>191</ele>
        <time>2019-04-01T09:41:41Z</time>
      </trkpt>
      <trkpt lat="47.89876" lon="3.50301">
        <ele>191</ele>
        <time>2019-04-01T09:41:43Z</time>
      </trkpt>
      <trkpt lat="47.89874" lon="3.50303">
        <ele>191</ele>
        <time>2019-04-01T09:41:45Z</time>
      </trkpt>
      <trkpt lat="47.89871" lon="3.50304">
        <ele>192</ele>
        <time>2019-04-01T09:41:47Z</time>
      </trkpt>
      <trkpt lat="47.89869" lon="3.50306">
        <ele>192</ele>
        <time>2019-04-01T09:41:49Z</time>
      </trkpt>
      <trkpt lat="47.89867" lon="3.50307">
        <ele>192</ele>
        <time>2019-04-01T09:41:51Z</time>
      </trkpt>
      <trkpt lat="47.89861" lon="3.50313">
        <ele>193</ele>
        <time>2019-04-01T09:41:56Z</time>
      </trkpt>
      <trkpt lat="47.89858" lon="3.50316">
        <ele>191</ele>
        <time>2019-04-01T09:41:59Z</time>
      </trkpt>
      <trkpt lat="47.89853" lon="3.50318">
        <ele>192</ele>
        <time>2019-04-01T09:42:03Z</time>
      </trkpt>
      <trkpt lat="47.8985" lon="3.50321">
        <ele>192</ele>
        <time>2019-04-01T09:42:06Z</time>
      </trkpt>
      <trkpt lat="47.89846" lon="3.50323">
        <ele>193</ele>
        <time>2019-04-01T09:42:10Z</time>
      </trkpt>
      <trkpt lat="47.89843" lon="3.50324">
        <ele>194</ele>
        <time>2019-04-01T09:42:12Z</time>
      </trkpt>
      <trkpt lat="47.89839" lon="3.50328">
        <ele>194</ele>
        <time>2019-04-01T09:42:16Z</time>
      </trkpt>
      <trkpt lat="47.89837" lon="3.50329">
        <ele>194</ele>
        <time>2019-04-01T09:42:18Z</time>
      </trkpt>
      <trkpt lat="47.89834" lon="3.50331">
        <ele>194</ele>
        <time>2019-04-01T09:42:20Z</time>
      </trkpt>
      <trkpt lat="47.8983" lon="3.50334">
        <ele>194</ele>
        <time>2019-04-01T09:42:24Z</time>
      </trkpt>
      <trkpt lat="47.89827" lon="3.50336">
        <ele>195</ele>
        <time>2019-04-01T09:42:27Z</time>
      </trkpt>
      <trkpt lat="47.89825" lon="3.50338">
        <ele>195</ele>
        <time>2019-04-01T09:42:30Z</time>
      </trkpt>
      <trkpt lat="47.8982" lon="3.50341">
        <ele>196</ele>
        <time>2019-04-01T09:42:34Z</time>
      </trkpt>
      <trkpt lat="47.89816" lon="3.50344">
        <ele>198</ele>
        <time>2019-04-01T09:42:38Z</time>
      </trkpt>
      <trkpt lat="47.89812" lon="3.50347">
        <ele>199</ele>
        <time>2019-04-01T09:42:42Z</time>
      </trkpt>
      <trkpt lat="47.89808" lon="3.5035">
        <ele>200</ele>
        <time>2019-04-01T09:42:46Z</time>
      </trkpt>
      <trkpt lat="47.89804" lon="3.50354">
        <ele>200</ele>
        <time>2019-04-01T09:42:52Z</time>
      </trkpt>
      <trkpt lat="47.89799" lon="3.50357">
        <ele>201</ele>
        <time>2019-04-01T09:42:57Z</time>
      </trkpt>
      <trkpt lat="47.89795" lon="3.50359">
        <ele>201</ele>
        <time>2019-04-01T09:43:01Z</time>
      </trkpt>
      <trkpt lat="47.89792" lon="3.5036">
        <ele>201</ele>
        <time>2019-04-01T09:43:03Z</time>
      </trkpt>
      <trkpt lat="47.89788" lon="3.50363">
        <ele>202</ele>
        <time>2019-04-01T09:43:09Z</time>
      </trkpt>
      <trkpt lat="47.89785" lon="3.50365">
        <ele>203</ele>
        <time>2019-04-01T09:43:12Z</time>
      </trkpt>
      <trkpt lat="47.89783" lon="3.50366">
        <ele>203</ele>
        <time>2019-04-01T09:43:14Z</time>
      </trkpt>
      <trkpt lat="47.8978" lon="3.50368">
        <ele>204</ele>
        <time>2019-04-01T09:43:16Z</time>
      </trkpt>
      <trkpt lat="47.89777" lon="3.50372">
        <ele>204</ele>
        <time>2019-04-01T09:43:20Z</time>
      </trkpt>
      <trkpt lat="47.89773" lon="3.50375">
        <ele>205</ele>
        <time>2019-04-01T09:43:25Z</time>
      </trkpt>
      <trkpt lat="47.89769" lon="3.50377">
        <ele>206</ele>
        <time>2019-04-01T09:43:30Z</time>
      </trkpt>
      <trkpt lat="47.89767" lon="3.50379">
        <ele>207</ele>
        <time>2019-04-01T09:43:32Z</time>
      </trkpt>
      <trkpt lat="47.89764" lon="3.5038">
        <ele>207</ele>
        <time>2019-04-01T09:43:35Z</time>
      </trkpt>
      <trkpt lat="47.89762" lon="3.50382">
        <ele>208</ele>
        <time>2019-04-01T09:43:38Z</time>
      </trkpt>
      <trkpt lat="47.89757" lon="3.50385">
        <ele>209</ele>
        <time>2019-04-01T09:43:42Z</time>
      </trkpt>
      <trkpt lat="47.89754" lon="3.50387">
        <ele>209</ele>
        <time>2019-04-01T09:43:46Z</time>
      </trkpt>
      <trkpt lat="47.8975" lon="3.50391">
        <ele>211</ele>
        <time>2019-04-01T09:43:51Z</time>
      </trkpt>
      <trkpt lat="47.89747" lon="3.50394">
        <ele>211</ele>
        <time>2019-04-01T09:43:55Z</time>
      </trkpt>
      <trkpt lat="47.89741" lon="3.50398">
        <ele>213</ele>
        <time>2019-04-01T09:44:03Z</time>
      </trkpt>
      <trkpt lat="47.89738" lon="3.504">
        <ele>214</ele>
        <time>2019-04-01T09:44:06Z</time>
      </trkpt>
      <trkpt lat="47.89733" lon="3.50404">
        <ele>215</ele>
        <time>2019-04-01T09:44:10Z</time>
      </trkpt>
      <trkpt lat="47.89729" lon="3.50407">
        <ele>216</ele>
        <time>2019-04-01T09:44:15Z</time>
      </trkpt>
      <trkpt lat="47.89724" lon="3.5041">
        <ele>218</ele>
        <time>2019-04-01T09:44:20Z</time>
      </trkpt>
      <trkpt lat="47.89722" lon="3.50412">
        <ele>216</ele>
        <time>2019-04-01T09:44:28Z</time>
      </trkpt>
      <trkpt lat="47.89717" lon="3.50407">
        <ele>217</ele>
        <time>2019-04-01T09:44:40Z</time>
      </trkpt>
      <trkpt lat="47.89714" lon="3.50403">
        <ele>217</ele>
        <time>2019-04-01T09:44:43Z</time>
      </trkpt>
      <trkpt lat="47.8971" lon="3.50399">
        <ele>217</ele>
        <time>2019-04-01T09:44:48Z</time>
      </trkpt>
      <trkpt lat="47.89706" lon="3.50393">
        <ele>218</ele>
        <time>2019-04-01T09:44:53Z</time>
      </trkpt>
      <trkpt lat="47.89704" lon="3.50391">
        <ele>217</ele>
        <time>2019-04-01T09:44:55Z</time>
      </trkpt>
      <trkpt lat="47.89699" lon="3.50386">
        <ele>218</ele>
        <time>2019-04-01T09:45:00Z</time>
      </trkpt>
      <trkpt lat="47.89697" lon="3.50384">
        <ele>218</ele>
        <time>2019-04-01T09:45:02Z</time>
      </trkpt>
      <trkpt lat="47.89693" lon="3.50379">
        <ele>218</ele>
        <time>2019-04-01T09:45:06Z</time>
      </trkpt>
      <trkpt lat="47.89689" lon="3.50375">
        <ele>218</ele>
        <time>2019-04-01T09:45:10Z</time>
      </trkpt>
      <trkpt lat="47.89687" lon="3.50373">
        <ele>218</ele>
        <time>2019-04-01T09:45:12Z</time>
      </trkpt>
      <trkpt lat="47.89685" lon="3.50371">
        <ele>217</ele>
        <time>2019-04-01T09:45:15Z</time>
      </trkpt>
      <trkpt lat="47.89681" lon="3.50366">
        <ele>218</ele>
        <time>2019-04-01T09:45:19Z</time>
      </trkpt>
      <trkpt lat="47.89677" lon="3.50363">
        <ele>218</ele>
        <time>2019-04-01T09:45:23Z</time>
      </trkpt>
      <trkpt lat="47.89673" lon="3.50359">
        <ele>219</ele>
        <time>2019-04-01T09:45:26Z</time>
      </trkpt>
      <trkpt lat="47.89671" lon="3.50356">
        <ele>219</ele>
        <time>2019-04-01T09:45:28Z</time>
      </trkpt>
      <trkpt lat="47.89667" lon="3.50351">
        <ele>220</ele>
        <time>2019-04-01T09:45:32Z</time>
      </trkpt>
      <trkpt lat="47.89665" lon="3.50349">
        <ele>220</ele>
        <time>2019-04-01T09:45:34Z</time>
      </trkpt>
      <trkpt lat="47.89661" lon="3.50344">
        <ele>221</ele>
        <time>2019-04-01T09:45:39Z</time>
      </trkpt>
      <trkpt lat="47.89657" lon="3.5034">
        <ele>221</ele>
        <time>2019-04-01T09:45:43Z</time>
      </trkpt>
      <trkpt lat="47.89655" lon="3.50338">
        <ele>222</ele>
        <time>2019-04-01T09:45:45Z</time>
      </trkpt>
      <trkpt lat="47.89652" lon="3.50335">
        <ele>222</ele>
        <time>2019-04-01T09:45:48Z</time>
      </trkpt>
      <trkpt lat="47.89647" lon="3.5033">
        <ele>223</ele>
        <time>2019-04-01T09:45:52Z</time>
      </trkpt>
      <trkpt lat="47.89643" lon="3.50326">
        <ele>223</ele>
        <time>2019-04-01T09:45:56Z</time>
      </trkpt>
      <trkpt lat="47.89641" lon="3.50324">
        <ele>223</ele>
        <time>2019-04-01T09:45:58Z</time>
      </trkpt>
      <trkpt lat="47.89638" lon="3.50321">
        <ele>224</ele>
        <time>2019-04-01T09:46:01Z</time>
      </trkpt>
      <trkpt lat="47.89635" lon="3.50318">
        <ele>223</ele>
        <time>2019-04-01T09:46:04Z</time>
      </trkpt>
      <trkpt lat="47.89633" lon="3.50315">
        <ele>224</ele>
        <time>2019-04-01T09:46:06Z</time>
      </trkpt>
      <trkpt lat="47.89628" lon="3.50311">
        <ele>224</ele>
        <time>2019-04-01T09:46:10Z</time>
      </trkpt>
      <trkpt lat="47.89624" lon="3.50307">
        <ele>225</ele>
        <time>2019-04-01T09:46:14Z</time>
      </trkpt>
      <trkpt lat="47.89622" lon="3.50305">
        <ele>225</ele>
        <time>2019-04-01T09:46:17Z</time>
      </trkpt>
      <trkpt lat="47.89619" lon="3.50302">
        <ele>226</ele>
        <time>2019-04-01T09:46:20Z</time>
      </trkpt>
      <trkpt lat="47.89617" lon="3.503">
        <ele>225</ele>
        <time>2019-04-01T09:46:22Z</time>
      </trkpt>
      <trkpt lat="47.89613" lon="3.50296">
        <ele>226</ele>
        <time>2019-04-01T09:46:26Z</time>
      </trkpt>
      <trkpt lat="47.89611" lon="3.50293">
        <ele>226</ele>
        <time>2019-04-01T09:46:28Z</time>
      </trkpt>
      <trkpt lat="47.89608" lon="3.5029">
        <ele>227</ele>
        <time>2019-04-01T09:46:31Z</time>
      </trkpt>
      <trkpt lat="47.89606" lon="3.50287">
        <ele>227</ele>
        <time>2019-04-01T09:46:33Z</time>
      </trkpt>
      <trkpt lat="47.89601" lon="3.50283">
        <ele>227</ele>
        <time>2019-04-01T09:46:38Z</time>
      </trkpt>
      <trkpt lat="47.89598" lon="3.5028">
        <ele>227</ele>
        <time>2019-04-01T09:46:40Z</time>
      </trkpt>
      <trkpt lat="47.89596" lon="3.50278">
        <ele>227</ele>
        <time>2019-04-01T09:46:42Z</time>
      </trkpt>
      <trkpt lat="47.89594" lon="3.50275">
        <ele>228</ele>
        <time>2019-04-01T09:46:44Z</time>
      </trkpt>
      <trkpt lat="47.89589" lon="3.50271">
        <ele>227</ele>
        <time>2019-04-01T09:46:48Z</time>
      </trkpt>
      <trkpt lat="47.89587" lon="3.50269">
        <ele>227</ele>
        <time>2019-04-01T09:46:50Z</time>
      </trkpt>
      <trkpt lat="47.89583" lon="3.50265">
        <ele>227</ele>
        <time>2019-04-01T09:46:54Z</time>
      </trkpt>
      <trkpt lat="47.89578" lon="3.50259">
        <ele>227</ele>
        <time>2019-04-01T09:47:00Z</time>
      </trkpt>
      <trkpt lat="47.89574" lon="3.50254">
        <ele>227</ele>
        <time>2019-04-01T09:47:04Z</time>
      </trkpt>
      <trkpt lat="47.89569" lon="3.5025">
        <ele>228</ele>
        <time>2019-04-01T09:47:08Z</time>
      </trkpt>
      <trkpt lat="47.89567" lon="3.50247">
        <ele>228</ele>
        <time>2019-04-01T09:47:10Z</time>
      </trkpt>
      <trkpt lat="47.89564" lon="3.50245">
        <ele>228</ele>
        <time>2019-04-01T09:47:12Z</time>
      </trkpt>
      <trkpt lat="47.89561" lon="3.50243">
        <ele>229</ele>
        <time>2019-04-01T09:47:14Z</time>
      </trkpt>
      <trkpt lat="47.89558" lon="3.50239">
        <ele>228</ele>
        <time>2019-04-01T09:47:17Z</time>
      </trkpt>
      <trkpt lat="47.89554" lon="3.50235">
        <ele>229</ele>
        <time>2019-04-01T09:47:21Z</time>
      </trkpt>
      <trkpt lat="47.89552" lon="3.50232">
        <ele>229</ele>
        <time>2019-04-01T09:47:24Z</time>
      </trkpt>
      <trkpt lat="47.89549" lon="3.50229">
        <ele>229</ele>
        <time>2019-04-01T09:47:26Z</time>
      </trkpt>
      <trkpt lat="47.89545" lon="3.50224">
        <ele>230</ele>
        <time>2019-04-01T09:47:31Z</time>
      </trkpt>
      <trkpt lat="47.89543" lon="3.50222">
        <ele>230</ele>
        <time>2019-04-01T09:47:33Z</time>
      </trkpt>
      <trkpt lat="47.89539" lon="3.50217">
        <ele>231</ele>
        <time>2019-04-01T09:47:37Z</time>
      </trkpt>
      <trkpt lat="47.89535" lon="3.50214">
        <ele>231</ele>
        <time>2019-04-01T09:47:42Z</time>
      </trkpt>
      <trkpt lat="47.89532" lon="3.50211">
        <ele>232</ele>
        <time>2019-04-01T09:47:44Z</time>
      </trkpt>
      <trkpt lat="47.89528" lon="3.50206">
        <ele>231</ele>
        <time>2019-04-01T09:47:48Z</time>
      </trkpt>
      <trkpt lat="47.89525" lon="3.50203">
        <ele>231</ele>
        <time>2019-04-01T09:47:50Z</time>
      </trkpt>
      <trkpt lat="47.89521" lon="3.502">
        <ele>232</ele>
        <time>2019-04-01T09:47:53Z</time>
      </trkpt>
      <trkpt lat="47.89517" lon="3.50194">
        <ele>232</ele>
        <time>2019-04-01T09:47:57Z</time>
      </trkpt>
      <trkpt lat="47.89513" lon="3.50191">
        <ele>232</ele>
        <time>2019-04-01T09:48:00Z</time>
      </trkpt>
      <trkpt lat="47.89509" lon="3.50187">
        <ele>232</ele>
        <time>2019-04-01T09:48:03Z</time>
      </trkpt>
      <trkpt lat="47.89507" lon="3.50184">
        <ele>231</ele>
        <time>2019-04-01T09:48:05Z</time>
      </trkpt>
      <trkpt lat="47.89504" lon="3.50181">
        <ele>231</ele>
        <time>2019-04-01T09:48:08Z</time>
      </trkpt>
      <trkpt lat="47.89502" lon="3.50179">
        <ele>232</ele>
        <time>2019-04-01T09:48:10Z</time>
      </trkpt>
      <trkpt lat="47.895" lon="3.50177">
        <ele>232</ele>
        <time>2019-04-01T09:48:12Z</time>
      </trkpt>
      <trkpt lat="47.89498" lon="3.50174">
        <ele>233</ele>
        <time>2019-04-01T09:48:14Z</time>
      </trkpt>
      <trkpt lat="47.89494" lon="3.5017">
        <ele>233</ele>
        <time>2019-04-01T09:48:18Z</time>
      </trkpt>
      <trkpt lat="47.89491" lon="3.50167">
        <ele>233</ele>
        <time>2019-04-01T09:48:20Z</time>
      </trkpt>
      <trkpt lat="47.89489" lon="3.50165">
        <ele>233</ele>
        <time>2019-04-01T09:48:22Z</time>
      </trkpt>
      <trkpt lat="47.89486" lon="3.50161">
        <ele>234</ele>
        <time>2019-04-01T09:48:26Z</time>
      </trkpt>
      <trkpt lat="47.89484" lon="3.50159">
        <ele>234</ele>
        <time>2019-04-01T09:48:28Z</time>
      </trkpt>
      <trkpt lat="47.8948" lon="3.50156">
        <ele>234</ele>
        <time>2019-04-01T09:48:31Z</time>
      </trkpt>
      <trkpt lat="47.89475" lon="3.50151">
        <ele>234</ele>
        <time>2019-04-01T09:48:35Z</time>
      </trkpt>
      <trkpt lat="47.89473" lon="3.50149">
        <ele>234</ele>
        <time>2019-04-01T09:48:37Z</time>
      </trkpt>
      <trkpt lat="47.8947" lon="3.50144">
        <ele>234</ele>
        <time>2019-04-01T09:48:41Z</time>
      </trkpt>
      <trkpt lat="47.89467" lon="3.50141">
        <ele>234</ele>
        <time>2019-04-01T09:48:44Z</time>
      </trkpt>
      <trkpt lat="47.89465" lon="3.50138">
        <ele>234</ele>
        <time>2019-04-01T09:48:46Z</time>
      </trkpt>
      <trkpt lat="47.89462" lon="3.50136">
        <ele>234</ele>
        <time>2019-04-01T09:48:48Z</time>
      </trkpt>
      <trkpt lat="47.89458" lon="3.50132">
        <ele>234</ele>
        <time>2019-04-01T09:48:52Z</time>
      </trkpt>
      <trkpt lat="47.89456" lon="3.50129">
        <ele>234</ele>
        <time>2019-04-01T09:48:55Z</time>
      </trkpt>
      <trkpt lat="47.89453" lon="3.50127">
        <ele>234</ele>
        <time>2019-04-01T09:48:57Z</time>
      </trkpt>
      <trkpt lat="47.89451" lon="3.50125">
        <ele>235</ele>
        <time>2019-04-01T09:48:59Z</time>
      </trkpt>
      <trkpt lat="47.89448" lon="3.50121">
        <ele>235</ele>
        <time>2019-04-01T09:49:02Z</time>
      </trkpt>
      <trkpt lat="47.89444" lon="3.50117">
        <ele>236</ele>
        <time>2019-04-01T09:49:06Z</time>
      </trkpt>
      <trkpt lat="47.89442" lon="3.50114">
        <ele>236</ele>
        <time>2019-04-01T09:49:08Z</time>
      </trkpt>
      <trkpt lat="47.8944" lon="3.50112">
        <ele>236</ele>
        <time>2019-04-01T09:49:10Z</time>
      </trkpt>
      <trkpt lat="47.89437" lon="3.50109">
        <ele>236</ele>
        <time>2019-04-01T09:49:12Z</time>
      </trkpt>
      <trkpt lat="47.89435" lon="3.50107">
        <ele>236</ele>
        <time>2019-04-01T09:49:14Z</time>
      </trkpt>
      <trkpt lat="47.89432" lon="3.50102">
        <ele>236</ele>
        <time>2019-04-01T09:49:18Z</time>
      </trkpt>
      <trkpt lat="47.89427" lon="3.50097">
        <ele>237</ele>
        <time>2019-04-01T09:49:22Z</time>
      </trkpt>
      <trkpt lat="47.89423" lon="3.50093">
        <ele>236</ele>
        <time>2019-04-01T09:49:26Z</time>
      </trkpt>
      <trkpt lat="47.8942" lon="3.5009">
        <ele>236</ele>
        <time>2019-04-01T09:49:28Z</time>
      </trkpt>
      <trkpt lat="47.89415" lon="3.50086">
        <ele>236</ele>
        <time>2019-04-01T09:49:32Z</time>
      </trkpt>
      <trkpt lat="47.89412" lon="3.50084">
        <ele>237</ele>
        <time>2019-04-01T09:49:35Z</time>
      </trkpt>
      <trkpt lat="47.89406" lon="3.50085">
        <ele>237</ele>
        <time>2019-04-01T09:49:39Z</time>
      </trkpt>
      <trkpt lat="47.89401" lon="3.50088">
        <ele>237</ele>
        <time>2019-04-01T09:49:42Z</time>
      </trkpt>
      <trkpt lat="47.89397" lon="3.50092">
        <ele>237</ele>
        <time>2019-04-01T09:49:46Z</time>
      </trkpt>
      <trkpt lat="47.89394" lon="3.50097">
        <ele>237</ele>
        <time>2019-04-01T09:49:50Z</time>
      </trkpt>
      <trkpt lat="47.89394" lon="3.50097">
        <ele>237</ele>
        <time>2019-04-01T09:49:57Z</time>
      </trkpt>
      <trkpt lat="47.89391" lon="3.50101">
        <ele>238</ele>
        <time>2019-04-01T09:49:59Z</time>
      </trkpt>
      <trkpt lat="47.89389" lon="3.50103">
        <ele>238</ele>
        <time>2019-04-01T09:50:01Z</time>
      </trkpt>
      <trkpt lat="47.89386" lon="3.50106">
        <ele>238</ele>
        <time>2019-04-01T09:50:04Z</time>
      </trkpt>
      <trkpt lat="47.89382" lon="3.50113">
        <ele>239</ele>
        <time>2019-04-01T09:50:09Z</time>
      </trkpt>
      <trkpt lat="47.89378" lon="3.50118">
        <ele>239</ele>
        <time>2019-04-01T09:50:13Z</time>
      </trkpt>
      <trkpt lat="47.89376" lon="3.5012">
        <ele>239</ele>
        <time>2019-04-01T09:50:15Z</time>
      </trkpt>
      <trkpt lat="47.89373" lon="3.50124">
        <ele>239</ele>
        <time>2019-04-01T09:50:18Z</time>
      </trkpt>
      <trkpt lat="47.89369" lon="3.50128">
        <ele>239</ele>
        <time>2019-04-01T09:50:22Z</time>
      </trkpt>
      <trkpt lat="47.89366" lon="3.50131">
        <ele>239</ele>
        <time>2019-04-01T09:50:25Z</time>
      </trkpt>
      <trkpt lat="47.89364" lon="3.50134">
        <ele>239</ele>
        <time>2019-04-01T09:50:28Z</time>
      </trkpt>
      <trkpt lat="47.8936" lon="3.50138">
        <ele>239</ele>
        <time>2019-04-01T09:50:32Z</time>
      </trkpt>
      <trkpt lat="47.89355" lon="3.50142">
        <ele>239</ele>
        <time>2019-04-01T09:50:36Z</time>
      </trkpt>
      <trkpt lat="47.89351" lon="3.50147">
        <ele>239</ele>
        <time>2019-04-01T09:50:40Z</time>
      </trkpt>
      <trkpt lat="47.89349" lon="3.5015">
        <ele>239</ele>
        <time>2019-04-01T09:50:42Z</time>
      </trkpt>
      <trkpt lat="47.89346" lon="3.50154">
        <ele>240</ele>
        <time>2019-04-01T09:50:46Z</time>
      </trkpt>
      <trkpt lat="47.89342" lon="3.5016">
        <ele>240</ele>
        <time>2019-04-01T09:50:50Z</time>
      </trkpt>
      <trkpt lat="47.89339" lon="3.50165">
        <ele>240</ele>
        <time>2019-04-01T09:50:53Z</time>
      </trkpt>
      <trkpt lat="47.89337" lon="3.50167">
        <ele>240</ele>
        <time>2019-04-01T09:50:55Z</time>
      </trkpt>
      <trkpt lat="47.89333" lon="3.50171">
        <ele>239</ele>
        <time>2019-04-01T09:51:00Z</time>
      </trkpt>
      <trkpt lat="47.89332" lon="3.50172">
        <ele>238</ele>
        <time>2019-04-01T09:51:09Z</time>
      </trkpt>
      <trkpt lat="47.89327" lon="3.50172">
        <ele>239</ele>
        <time>2019-04-01T09:51:37Z</time>
      </trkpt>
      <trkpt lat="47.89323" lon="3.50169">
        <ele>239</ele>
        <time>2019-04-01T09:51:41Z</time>
      </trkpt>
      <trkpt lat="47.89319" lon="3.50164">
        <ele>238</ele>
        <time>2019-04-01T09:51:45Z</time>
      </trkpt>
      <trkpt lat="47.89317" lon="3.50162">
        <ele>238</ele>
        <time>2019-04-01T09:51:47Z</time>
      </trkpt>
      <trkpt lat="47.89315" lon="3.5016">
        <ele>238</ele>
        <time>2019-04-01T09:51:49Z</time>
      </trkpt>
      <trkpt lat="47.89312" lon="3.50156">
        <ele>239</ele>
        <time>2019-04-01T09:51:52Z</time>
      </trkpt>
      <trkpt lat="47.89309" lon="3.50153">
        <ele>238</ele>
        <time>2019-04-01T09:51:55Z</time>
      </trkpt>
      <trkpt lat="47.89305" lon="3.50149">
        <ele>239</ele>
        <time>2019-04-01T09:51:59Z</time>
      </trkpt>
      <trkpt lat="47.89301" lon="3.50144">
        <ele>240</ele>
        <time>2019-04-01T09:52:03Z</time>
      </trkpt>
      <trkpt lat="47.89299" lon="3.50141">
        <ele>240</ele>
        <time>2019-04-01T09:52:05Z</time>
      </trkpt>
      <trkpt lat="47.89296" lon="3.50138">
        <ele>240</ele>
        <time>2019-04-01T09:52:08Z</time>
      </trkpt>
      <trkpt lat="47.89294" lon="3.50136">
        <ele>240</ele>
        <time>2019-04-01T09:52:11Z</time>
      </trkpt>
      <trkpt lat="47.89291" lon="3.50132">
        <ele>240</ele>
        <time>2019-04-01T09:52:14Z</time>
      </trkpt>
      <trkpt lat="47.89287" lon="3.50128">
        <ele>240</ele>
        <time>2019-04-01T09:52:18Z</time>
      </trkpt>
      <trkpt lat="47.89283" lon="3.50123">
        <ele>240</ele>
        <time>2019-04-01T09:52:22Z</time>
      </trkpt>
      <trkpt lat="47.8928" lon="3.50121">
        <ele>240</ele>
        <time>2019-04-01T09:52:24Z</time>
      </trkpt>
      <trkpt lat="47.89278" lon="3.50119">
        <ele>240</ele>
        <time>2019-04-01T09:52:26Z</time>
      </trkpt>
      <trkpt lat="47.89276" lon="3.50116">
        <ele>240</ele>
        <time>2019-04-01T09:52:29Z</time>
      </trkpt>
      <trkpt lat="47.89272" lon="3.50111">
        <ele>239</ele>
        <time>2019-04-01T09:52:33Z</time>
      </trkpt>
      <trkpt lat="47.89269" lon="3.50108">
        <ele>239</ele>
        <time>2019-04-01T09:52:37Z</time>
      </trkpt>
      <trkpt lat="47.89266" lon="3.50104">
        <ele>239</ele>
        <time>2019-04-01T09:52:40Z</time>
      </trkpt>
      <trkpt lat="47.89262" lon="3.501">
        <ele>239</ele>
        <time>2019-04-01T09:52:43Z</time>
      </trkpt>
      <trkpt lat="47.89261" lon="3.50098">
        <ele>240</ele>
        <time>2019-04-01T09:52:45Z</time>
      </trkpt>
      <trkpt lat="47.89257" lon="3.50095">
        <ele>240</ele>
        <time>2019-04-01T09:52:47Z</time>
      </trkpt>
      <trkpt lat="47.89255" lon="3.50094">
        <ele>240</ele>
        <time>2019-04-01T09:52:49Z</time>
      </trkpt>
      <trkpt lat="47.89253" lon="3.50092">
        <ele>240</ele>
        <time>2019-04-01T09:52:51Z</time>
      </trkpt>
      <trkpt lat="47.8925" lon="3.50089">
        <ele>241</ele>
        <time>2019-04-01T09:52:54Z</time>
      </trkpt>
      <trkpt lat="47.89247" lon="3.50087">
        <ele>241</ele>
        <time>2019-04-01T09:52:56Z</time>
      </trkpt>
      <trkpt lat="47.89245" lon="3.50086">
        <ele>242</ele>
        <time>2019-04-01T09:52:58Z</time>
      </trkpt>
      <trkpt lat="47.89241" lon="3.50083">
        <ele>242</ele>
        <time>2019-04-01T09:53:02Z</time>
      </trkpt>
      <trkpt lat="47.89237" lon="3.50079">
        <ele>242</ele>
        <time>2019-04-01T09:53:06Z</time>
      </trkpt>
      <trkpt lat="47.89232" lon="3.50076">
        <ele>242</ele>
        <time>2019-04-01T09:53:10Z</time>
      </trkpt>
      <trkpt lat="47.89229" lon="3.50074">
        <ele>242</ele>
        <time>2019-04-01T09:53:13Z</time>
      </trkpt>
      <trkpt lat="47.89226" lon="3.50072">
        <ele>242</ele>
        <time>2019-04-01T09:53:15Z</time>
      </trkpt>
      <trkpt lat="47.89221" lon="3.50069">
        <ele>241</ele>
        <time>2019-04-01T09:53:19Z</time>
      </trkpt>
      <trkpt lat="47.89217" lon="3.50065">
        <ele>241</ele>
        <time>2019-04-01T09:53:23Z</time>
      </trkpt>
      <trkpt lat="47.89212" lon="3.50062">
        <ele>241</ele>
        <time>2019-04-01T09:53:27Z</time>
      </trkpt>
      <trkpt lat="47.89207" lon="3.5006">
        <ele>241</ele>
        <time>2019-04-01T09:53:31Z</time>
      </trkpt>
      <trkpt lat="47.89202" lon="3.50056">
        <ele>242</ele>
        <time>2019-04-01T09:53:35Z</time>
      </trkpt>
      <trkpt lat="47.892" lon="3.50054">
        <ele>241</ele>
        <time>2019-04-01T09:53:37Z</time>
      </trkpt>
      <trkpt lat="47.89198" lon="3.50052">
        <ele>241</ele>
        <time>2019-04-01T09:53:39Z</time>
      </trkpt>
      <trkpt lat="47.89195" lon="3.50051">
        <ele>241</ele>
        <time>2019-04-01T09:53:41Z</time>
      </trkpt>
      <trkpt lat="47.89193" lon="3.50049">
        <ele>242</ele>
        <time>2019-04-01T09:53:43Z</time>
      </trkpt>
      <trkpt lat="47.89191" lon="3.50047">
        <ele>243</ele>
        <time>2019-04-01T09:53:45Z</time>
      </trkpt>
      <trkpt lat="47.89186" lon="3.50043">
        <ele>243</ele>
        <time>2019-04-01T09:53:49Z</time>
      </trkpt>
      <trkpt lat="47.89181" lon="3.50039">
        <ele>243</ele>
        <time>2019-04-01T09:53:53Z</time>
      </trkpt>
      <trkpt lat="47.89176" lon="3.50036">
        <ele>243</ele>
        <time>2019-04-01T09:53:58Z</time>
      </trkpt>
      <trkpt lat="47.89173" lon="3.50034">
        <ele>243</ele>
        <time>2019-04-01T09:54:01Z</time>
      </trkpt>
      <trkpt lat="47.8917" lon="3.50033">
        <ele>242</ele>
        <time>2019-04-01T09:54:03Z</time>
      </trkpt>
      <trkpt lat="47.89168" lon="3.50031">
        <ele>242</ele>
        <time>2019-04-01T09:54:05Z</time>
      </trkpt>
      <trkpt lat="47.89164" lon="3.50029">
        <ele>243</ele>
        <time>2019-04-01T09:54:08Z</time>
      </trkpt>
      <trkpt lat="47.89162" lon="3.50027">
        <ele>243</ele>
        <time>2019-04-01T09:54:10Z</time>
      </trkpt>
      <trkpt lat="47.89157" lon="3.50024">
        <ele>244</ele>
        <time>2019-04-01T09:54:14Z</time>
      </trkpt>
      <trkpt lat="47.89154" lon="3.50022">
        <ele>243</ele>
        <time>2019-04-01T09:54:17Z</time>
      </trkpt>
      <trkpt lat="47.8915" lon="3.50018">
        <ele>243</ele>
        <time>2019-04-01T09:54:20Z</time>
      </trkpt>
      <trkpt lat="47.89146" lon="3.50015">
        <ele>243</ele>
        <time>2019-04-01T09:54:24Z</time>
      </trkpt>
      <trkpt lat="47.89143" lon="3.50013">
        <ele>244</ele>
        <time>2019-04-01T09:54:26Z</time>
      </trkpt>
      <trkpt lat="47.89141" lon="3.50011">
        <ele>244</ele>
        <time>2019-04-01T09:54:29Z</time>
      </trkpt>
      <trkpt lat="47.89139" lon="3.50009">
        <ele>243</ele>
        <time>2019-04-01T09:54:31Z</time>
      </trkpt>
      <trkpt lat="47.89136" lon="3.50007">
        <ele>244</ele>
        <time>2019-04-01T09:54:33Z</time>
      </trkpt>
      <trkpt lat="47.89131" lon="3.50005">
        <ele>244</ele>
        <time>2019-04-01T09:54:37Z</time>
      </trkpt>
      <trkpt lat="47.89127" lon="3.50002">
        <ele>245</ele>
        <time>2019-04-01T09:54:41Z</time>
      </trkpt>
      <trkpt lat="47.89125" lon="3.5">
        <ele>245</ele>
        <time>2019-04-01T09:54:43Z</time>
      </trkpt>
      <trkpt lat="47.89123" lon="3.49997">
        <ele>245</ele>
        <time>2019-04-01T09:54:45Z</time>
      </trkpt>
      <trkpt lat="47.89121" lon="3.49996">
        <ele>245</ele>
        <time>2019-04-01T09:54:47Z</time>
      </trkpt>
      <trkpt lat="47.89118" lon="3.49994">
        <ele>245</ele>
        <time>2019-04-01T09:54:49Z</time>
      </trkpt>
      <trkpt lat="47.89116" lon="3.49992">
        <ele>245</ele>
        <time>2019-04-01T09:54:51Z</time>
      </trkpt>
      <trkpt lat="47.89114" lon="3.4999">
        <ele>245</ele>
        <time>2019-04-01T09:54:53Z</time>
      </trkpt>
      <trkpt lat="47.89111" lon="3.49988">
        <ele>246</ele>
        <time>2019-04-01T09:54:55Z</time>
      </trkpt>
      <trkpt lat="47.89109" lon="3.49987">
        <ele>245</ele>
        <time>2019-04-01T09:54:57Z</time>
      </trkpt>
      <trkpt lat="47.89107" lon="3.49985">
        <ele>245</ele>
        <time>2019-04-01T09:54:59Z</time>
      </trkpt>
      <trkpt lat="47.89105" lon="3.49983">
        <ele>245</ele>
        <time>2019-04-01T09:55:01Z</time>
      </trkpt>
      <trkpt lat="47.89101" lon="3.49979">
        <ele>246</ele>
        <time>2019-04-01T09:55:05Z</time>
      </trkpt>
      <trkpt lat="47.89096" lon="3.49975">
        <ele>246</ele>
        <time>2019-04-01T09:55:09Z</time>
      </trkpt>
      <trkpt lat="47.89092" lon="3.49972">
        <ele>246</ele>
        <time>2019-04-01T09:55:13Z</time>
      </trkpt>
      <trkpt lat="47.8909" lon="3.49971">
        <ele>246</ele>
        <time>2019-04-01T09:55:15Z</time>
      </trkpt>
      <trkpt lat="47.89088" lon="3.49969">
        <ele>245</ele>
        <time>2019-04-01T09:55:17Z</time>
      </trkpt>
      <trkpt lat="47.89086" lon="3.49967">
        <ele>245</ele>
        <time>2019-04-01T09:55:19Z</time>
      </trkpt>
      <trkpt lat="47.89083" lon="3.49966">
        <ele>245</ele>
        <time>2019-04-01T09:55:21Z</time>
      </trkpt>
      <trkpt lat="47.89079" lon="3.49962">
        <ele>244</ele>
        <time>2019-04-01T09:55:25Z</time>
      </trkpt>
      <trkpt lat="47.89074" lon="3.49958">
        <ele>243</ele>
        <time>2019-04-01T09:55:29Z</time>
      </trkpt>
      <trkpt lat="47.89072" lon="3.49956">
        <ele>243</ele>
        <time>2019-04-01T09:55:30Z</time>
      </trkpt>
      <trkpt lat="47.8907" lon="3.49954">
        <ele>243</ele>
        <time>2019-04-01T09:55:32Z</time>
      </trkpt>
      <trkpt lat="47.89067" lon="3.49951">
        <ele>243</ele>
        <time>2019-04-01T09:55:36Z</time>
      </trkpt>
      <trkpt lat="47.89063" lon="3.49947">
        <ele>243</ele>
        <time>2019-04-01T09:55:39Z</time>
      </trkpt>
      <trkpt lat="47.89061" lon="3.49945">
        <ele>243</ele>
        <time>2019-04-01T09:55:41Z</time>
      </trkpt>
      <trkpt lat="47.89059" lon="3.49943">
        <ele>244</ele>
        <time>2019-04-01T09:55:43Z</time>
      </trkpt>
      <trkpt lat="47.89056" lon="3.49942">
        <ele>244</ele>
        <time>2019-04-01T09:55:45Z</time>
      </trkpt>
      <trkpt lat="47.89054" lon="3.4994">
        <ele>245</ele>
        <time>2019-04-01T09:55:47Z</time>
      </trkpt>
      <trkpt lat="47.89052" lon="3.49938">
        <ele>245</ele>
        <time>2019-04-01T09:55:49Z</time>
      </trkpt>
      <trkpt lat="47.89048" lon="3.49935">
        <ele>245</ele>
        <time>2019-04-01T09:55:52Z</time>
      </trkpt>
      <trkpt lat="47.89044" lon="3.49931">
        <ele>245</ele>
        <time>2019-04-01T09:55:57Z</time>
      </trkpt>
      <trkpt lat="47.8904" lon="3.49928">
        <ele>245</ele>
        <time>2019-04-01T09:56:01Z</time>
      </trkpt>
      <trkpt lat="47.89035" lon="3.49923">
        <ele>245</ele>
        <time>2019-04-01T09:56:05Z</time>
      </trkpt>
      <trkpt lat="47.8903" lon="3.49919">
        <ele>245</ele>
        <time>2019-04-01T09:56:09Z</time>
      </trkpt>
      <trkpt lat="47.89028" lon="3.49917">
        <ele>246</ele>
        <time>2019-04-01T09:56:11Z</time>
      </trkpt>
      <trkpt lat="47.89023" lon="3.49914">
        <ele>245</ele>
        <time>2019-04-01T09:56:15Z</time>
      </trkpt>
      <trkpt lat="47.89017" lon="3.4991">
        <ele>245</ele>
        <time>2019-04-01T09:56:19Z</time>
      </trkpt>
      <trkpt lat="47.89013" lon="3.49906">
        <ele>245</ele>
        <time>2019-04-01T09:56:23Z</time>
      </trkpt>
      <trkpt lat="47.89011" lon="3.49904">
        <ele>243</ele>
        <time>2019-04-01T09:56:26Z</time>
      </trkpt>
      <trkpt lat="47.89006" lon="3.499">
        <ele>243</ele>
        <time>2019-04-01T09:56:30Z</time>
      </trkpt>
      <trkpt lat="47.89002" lon="3.49895">
        <ele>242</ele>
        <time>2019-04-01T09:56:34Z</time>
      </trkpt>
      <trkpt lat="47.88998" lon="3.49891">
        <ele>243</ele>
        <time>2019-04-01T09:56:38Z</time>
      </trkpt>
      <trkpt lat="47.88995" lon="3.49887">
        <ele>243</ele>
        <time>2019-04-01T09:56:42Z</time>
      </trkpt>
      <trkpt lat="47.88992" lon="3.49883">
        <ele>244</ele>
        <time>2019-04-01T09:56:45Z</time>
      </trkpt>
      <trkpt lat="47.88988" lon="3.49878">
        <ele>243</ele>
        <time>2019-04-01T09:56:49Z</time>
      </trkpt>
      <trkpt lat="47.88983" lon="3.49872">
        <ele>244</ele>
        <time>2019-04-01T09:56:54Z</time>
      </trkpt>
      <trkpt lat="47.8898" lon="3.49869">
        <ele>244</ele>
        <time>2019-04-01T09:56:57Z</time>
      </trkpt>
      <trkpt lat="47.88978" lon="3.49867">
        <ele>244</ele>
        <time>2019-04-01T09:56:59Z</time>
      </trkpt>
      <trkpt lat="47.88976" lon="3.49865">
        <ele>244</ele>
        <time>2019-04-01T09:57:01Z</time>
      </trkpt>
      <trkpt lat="47.88973" lon="3.49862">
        <ele>245</ele>
        <time>2019-04-01T09:57:04Z</time>
      </trkpt>
      <trkpt lat="47.88969" lon="3.49858">
        <ele>245</ele>
        <time>2019-04-01T09:57:08Z</time>
      </trkpt>
      <trkpt lat="47.88965" lon="3.49855">
        <ele>246</ele>
        <time>2019-04-01T09:57:11Z</time>
      </trkpt>
      <trkpt lat="47.88963" lon="3.49852">
        <ele>245</ele>
        <time>2019-04-01T09:57:13Z</time>
      </trkpt>
      <trkpt lat="47.88961" lon="3.4985">
        <ele>246</ele>
        <time>2019-04-01T09:57:15Z</time>
      </trkpt>
      <trkpt lat="47.88957" lon="3.49846">
        <ele>246</ele>
        <time>2019-04-01T09:57:19Z</time>
      </trkpt>
      <trkpt lat="47.88953" lon="3.4984">
        <ele>246</ele>
        <time>2019-04-01T09:57:24Z</time>
      </trkpt>
      <trkpt lat="47.88949" lon="3.49837">
        <ele>246</ele>
        <time>2019-04-01T09:57:27Z</time>
      </trkpt>
      <trkpt lat="47.88946" lon="3.49834">
        <ele>246</ele>
        <time>2019-04-01T09:57:29Z</time>
      </trkpt>
      <trkpt lat="47.88943" lon="3.49831">
        <ele>246</ele>
        <time>2019-04-01T09:57:32Z</time>
      </trkpt>
      <trkpt lat="47.88939" lon="3.49827">
        <ele>246</ele>
        <time>2019-04-01T09:57:36Z</time>
      </trkpt>
      <trkpt lat="47.88936" lon="3.49825">
        <ele>246</ele>
        <time>2019-04-01T09:57:38Z</time>
      </trkpt>
      <trkpt lat="47.88931" lon="3.49822">
        <ele>247</ele>
        <time>2019-04-01T09:57:42Z</time>
      </trkpt>
      <trkpt lat="47.88929" lon="3.4982">
        <ele>247</ele>
        <time>2019-04-01T09:57:44Z</time>
      </trkpt>
      <trkpt lat="47.88926" lon="3.49819">
        <ele>247</ele>
        <time>2019-04-01T09:57:46Z</time>
      </trkpt>
      <trkpt lat="47.88921" lon="3.49815">
        <ele>248</ele>
        <time>2019-04-01T09:57:50Z</time>
      </trkpt>
      <trkpt lat="47.88919" lon="3.49813">
        <ele>248</ele>
        <time>2019-04-01T09:57:52Z</time>
      </trkpt>
      <trkpt lat="47.88913" lon="3.49812">
        <ele>249</ele>
        <time>2019-04-01T09:57:56Z</time>
      </trkpt>
      <trkpt lat="47.8891" lon="3.49811">
        <ele>249</ele>
        <time>2019-04-01T09:57:58Z</time>
      </trkpt>
      <trkpt lat="47.88908" lon="3.4981">
        <ele>248</ele>
        <time>2019-04-01T09:58:00Z</time>
      </trkpt>
      <trkpt lat="47.88905" lon="3.49808">
        <ele>248</ele>
        <time>2019-04-01T09:58:02Z</time>
      </trkpt>
      <trkpt lat="47.88903" lon="3.49807">
        <ele>249</ele>
        <time>2019-04-01T09:58:04Z</time>
      </trkpt>
      <trkpt lat="47.889" lon="3.49805">
        <ele>248</ele>
        <time>2019-04-01T09:58:07Z</time>
      </trkpt>
      <trkpt lat="47.88897" lon="3.49804">
        <ele>248</ele>
        <time>2019-04-01T09:58:08Z</time>
      </trkpt>
      <trkpt lat="47.88892" lon="3.49802">
        <ele>248</ele>
        <time>2019-04-01T09:58:13Z</time>
      </trkpt>
      <trkpt lat="47.8889" lon="3.49801">
        <ele>248</ele>
        <time>2019-04-01T09:58:16Z</time>
      </trkpt>
      <trkpt lat="47.88887" lon="3.498">
        <ele>248</ele>
        <time>2019-04-01T09:58:18Z</time>
      </trkpt>
      <trkpt lat="47.88882" lon="3.49797">
        <ele>248</ele>
        <time>2019-04-01T09:58:22Z</time>
      </trkpt>
      <trkpt lat="47.88879" lon="3.49795">
        <ele>248</ele>
        <time>2019-04-01T09:58:24Z</time>
      </trkpt>
      <trkpt lat="47.88876" lon="3.49793">
        <ele>247</ele>
        <time>2019-04-01T09:58:26Z</time>
      </trkpt>
      <trkpt lat="47.88872" lon="3.49791">
        <ele>247</ele>
        <time>2019-04-01T09:58:29Z</time>
      </trkpt>
      <trkpt lat="47.8887" lon="3.4979">
        <ele>247</ele>
        <time>2019-04-01T09:58:31Z</time>
      </trkpt>
      <trkpt lat="47.88868" lon="3.49789">
        <ele>247</ele>
        <time>2019-04-01T09:58:33Z</time>
      </trkpt>
      <trkpt lat="47.88862" lon="3.49786">
        <ele>248</ele>
        <time>2019-04-01T09:58:37Z</time>
      </trkpt>
      <trkpt lat="47.8886" lon="3.49785">
        <ele>248</ele>
        <time>2019-04-01T09:58:39Z</time>
      </trkpt>
      <trkpt lat="47.88856" lon="3.49781">
        <ele>248</ele>
        <time>2019-04-01T09:58:43Z</time>
      </trkpt>
      <trkpt lat="47.88851" lon="3.49779">
        <ele>247</ele>
        <time>2019-04-01T09:58:47Z</time>
      </trkpt>
      <trkpt lat="47.88849" lon="3.49778">
        <ele>247</ele>
        <time>2019-04-01T09:58:49Z</time>
      </trkpt>
      <trkpt lat="47.88843" lon="3.49772">
        <ele>247</ele>
        <time>2019-04-01T09:58:54Z</time>
      </trkpt>
      <trkpt lat="47.88841" lon="3.4977">
        <ele>247</ele>
        <time>2019-04-01T09:58:56Z</time>
      </trkpt>
      <trkpt lat="47.88835" lon="3.49765">
        <ele>247</ele>
        <time>2019-04-01T09:59:00Z</time>
      </trkpt>
      <trkpt lat="47.88831" lon="3.49762">
        <ele>247</ele>
        <time>2019-04-01T09:59:04Z</time>
      </trkpt>
      <trkpt lat="47.88826" lon="3.49757">
        <ele>248</ele>
        <time>2019-04-01T09:59:08Z</time>
      </trkpt>
      <trkpt lat="47.88824" lon="3.49753">
        <ele>248</ele>
        <time>2019-04-01T09:59:10Z</time>
      </trkpt>
      <trkpt lat="47.88822" lon="3.49751">
        <ele>247</ele>
        <time>2019-04-01T09:59:12Z</time>
      </trkpt>
      <trkpt lat="47.88817" lon="3.49747">
        <ele>247</ele>
        <time>2019-04-01T09:59:16Z</time>
      </trkpt>
      <trkpt lat="47.88814" lon="3.49742">
        <ele>248</ele>
        <time>2019-04-01T09:59:20Z</time>
      </trkpt>
      <trkpt lat="47.88811" lon="3.49738">
        <ele>247</ele>
        <time>2019-04-01T09:59:23Z</time>
      </trkpt>
      <trkpt lat="47.88809" lon="3.49735">
        <ele>247</ele>
        <time>2019-04-01T09:59:25Z</time>
      </trkpt>
      <trkpt lat="47.88804" lon="3.49731">
        <ele>246</ele>
        <time>2019-04-01T09:59:30Z</time>
      </trkpt>
      <trkpt lat="47.88801" lon="3.49725">
        <ele>247</ele>
        <time>2019-04-01T09:59:34Z</time>
      </trkpt>
      <trkpt lat="47.88798" lon="3.49721">
        <ele>247</ele>
        <time>2019-04-01T09:59:37Z</time>
      </trkpt>
      <trkpt lat="47.88795" lon="3.49717">
        <ele>246</ele>
        <time>2019-04-01T09:59:40Z</time>
      </trkpt>
      <trkpt lat="47.88793" lon="3.49715">
        <ele>247</ele>
        <time>2019-04-01T09:59:42Z</time>
      </trkpt>
      <trkpt lat="47.88791" lon="3.49712">
        <ele>246</ele>
        <time>2019-04-01T09:59:44Z</time>
      </trkpt>
      <trkpt lat="47.88787" lon="3.49707">
        <ele>247</ele>
        <time>2019-04-01T09:59:48Z</time>
      </trkpt>
      <trkpt lat="47.88783" lon="3.49703">
        <ele>248</ele>
        <time>2019-04-01T09:59:53Z</time>
      </trkpt>
      <trkpt lat="47.88779" lon="3.497">
        <ele>247</ele>
        <time>2019-04-01T09:59:58Z</time>
      </trkpt>
      <trkpt lat="47.88775" lon="3.49697">
        <ele>248</ele>
        <time>2019-04-01T10:00:03Z</time>
      </trkpt>
      <trkpt lat="47.88773" lon="3.49696">
        <ele>248</ele>
        <time>2019-04-01T10:00:06Z</time>
      </trkpt>
      <trkpt lat="47.88775" lon="3.49697">
        <ele>248</ele>
        <time>2019-04-01T10:00:14Z</time>
      </trkpt>
      <trkpt lat="47.88769" lon="3.49691">
        <ele>247</ele>
        <time>2019-04-01T10:08:10Z</time>
      </trkpt>
      <trkpt lat="47.88768" lon="3.49683">
        <ele>246</ele>
        <time>2019-04-01T10:08:17Z</time>
      </trkpt>
      <trkpt lat="47.88767" lon="3.49679">
        <ele>247</ele>
        <time>2019-04-01T10:08:20Z</time>
      </trkpt>
      <trkpt lat="47.88767" lon="3.49675">
        <ele>247</ele>
        <time>2019-04-01T10:08:22Z</time>
      </trkpt>
      <trkpt lat="47.88766" lon="3.49671">
        <ele>247</ele>
        <time>2019-04-01T10:08:26Z</time>
      </trkpt>
      <trkpt lat="47.88762" lon="3.49664">
        <ele>247</ele>
        <time>2019-04-01T10:08:31Z</time>
      </trkpt>
      <trkpt lat="47.88761" lon="3.49661">
        <ele>246</ele>
        <time>2019-04-01T10:08:33Z</time>
      </trkpt>
      <trkpt lat="47.88757" lon="3.49657">
        <ele>246</ele>
        <time>2019-04-01T10:08:37Z</time>
      </trkpt>
      <trkpt lat="47.88755" lon="3.49655">
        <ele>247</ele>
        <time>2019-04-01T10:08:40Z</time>
      </trkpt>
      <trkpt lat="47.88751" lon="3.49651">
        <ele>247</ele>
        <time>2019-04-01T10:08:45Z</time>
      </trkpt>
      <trkpt lat="47.88747" lon="3.49646">
        <ele>246</ele>
        <time>2019-04-01T10:08:49Z</time>
      </trkpt>
      <trkpt lat="47.88743" lon="3.49641">
        <ele>246</ele>
        <time>2019-04-01T10:08:54Z</time>
      </trkpt>
      <trkpt lat="47.88739" lon="3.49637">
        <ele>247</ele>
        <time>2019-04-01T10:08:58Z</time>
      </trkpt>
      <trkpt lat="47.88735" lon="3.49632">
        <ele>246</ele>
        <time>2019-04-01T10:09:03Z</time>
      </trkpt>
      <trkpt lat="47.88733" lon="3.49629">
        <ele>246</ele>
        <time>2019-04-01T10:09:06Z</time>
      </trkpt>
      <trkpt lat="47.88731" lon="3.49627">
        <ele>246</ele>
        <time>2019-04-01T10:09:08Z</time>
      </trkpt>
      <trkpt lat="47.88727" lon="3.4962">
        <ele>246</ele>
        <time>2019-04-01T10:09:13Z</time>
      </trkpt>
      <trkpt lat="47.88724" lon="3.49615">
        <ele>245</ele>
        <time>2019-04-01T10:09:17Z</time>
      </trkpt>
      <trkpt lat="47.8872" lon="3.49611">
        <ele>246</ele>
        <time>2019-04-01T10:09:21Z</time>
      </trkpt>
      <trkpt lat="47.88717" lon="3.49608">
        <ele>246</ele>
        <time>2019-04-01T10:09:24Z</time>
      </trkpt>
      <trkpt lat="47.88715" lon="3.49605">
        <ele>246</ele>
        <time>2019-04-01T10:09:26Z</time>
      </trkpt>
      <trkpt lat="47.88713" lon="3.49603">
        <ele>246</ele>
        <time>2019-04-01T10:09:28Z</time>
      </trkpt>
      <trkpt lat="47.88711" lon="3.496">
        <ele>246</ele>
        <time>2019-04-01T10:09:30Z</time>
      </trkpt>
      <trkpt lat="47.88708" lon="3.49594">
        <ele>247</ele>
        <time>2019-04-01T10:09:35Z</time>
      </trkpt>
      <trkpt lat="47.88706" lon="3.49591">
        <ele>247</ele>
        <time>2019-04-01T10:09:37Z</time>
      </trkpt>
      <trkpt lat="47.88703" lon="3.49586">
        <ele>247</ele>
        <time>2019-04-01T10:09:41Z</time>
      </trkpt>
      <trkpt lat="47.887" lon="3.49579">
        <ele>248</ele>
        <time>2019-04-01T10:09:46Z</time>
      </trkpt>
      <trkpt lat="47.88697" lon="3.49574">
        <ele>247</ele>
        <time>2019-04-01T10:09:50Z</time>
      </trkpt>
      <trkpt lat="47.88695" lon="3.4957">
        <ele>247</ele>
        <time>2019-04-01T10:09:53Z</time>
      </trkpt>
      <trkpt lat="47.88691" lon="3.49564">
        <ele>247</ele>
        <time>2019-04-01T10:09:57Z</time>
      </trkpt>
      <trkpt lat="47.8869" lon="3.49561">
        <ele>247</ele>
        <time>2019-04-01T10:09:59Z</time>
      </trkpt>
      <trkpt lat="47.88687" lon="3.49556">
        <ele>246</ele>
        <time>2019-04-01T10:10:02Z</time>
      </trkpt>
      <trkpt lat="47.88685" lon="3.49554">
        <ele>246</ele>
        <time>2019-04-01T10:10:04Z</time>
      </trkpt>
      <trkpt lat="47.88682" lon="3.49549">
        <ele>245</ele>
        <time>2019-04-01T10:10:08Z</time>
      </trkpt>
      <trkpt lat="47.88679" lon="3.49543">
        <ele>245</ele>
        <time>2019-04-01T10:10:12Z</time>
      </trkpt>
      <trkpt lat="47.88678" lon="3.4954">
        <ele>246</ele>
        <time>2019-04-01T10:10:14Z</time>
      </trkpt>
      <trkpt lat="47.88675" lon="3.49535">
        <ele>245</ele>
        <time>2019-04-01T10:10:17Z</time>
      </trkpt>
      <trkpt lat="47.88672" lon="3.4953">
        <ele>246</ele>
        <time>2019-04-01T10:10:21Z</time>
      </trkpt>
      <trkpt lat="47.8867" lon="3.49527">
        <ele>246</ele>
        <time>2019-04-01T10:10:23Z</time>
      </trkpt>
      <trkpt lat="47.88666" lon="3.49521">
        <ele>246</ele>
        <time>2019-04-01T10:10:27Z</time>
      </trkpt>
      <trkpt lat="47.88663" lon="3.49515">
        <ele>246</ele>
        <time>2019-04-01T10:10:32Z</time>
      </trkpt>
      <trkpt lat="47.88661" lon="3.4951">
        <ele>246</ele>
        <time>2019-04-01T10:10:35Z</time>
      </trkpt>
      <trkpt lat="47.8866" lon="3.49507">
        <ele>246</ele>
        <time>2019-04-01T10:10:38Z</time>
      </trkpt>
      <trkpt lat="47.88658" lon="3.49504">
        <ele>246</ele>
        <time>2019-04-01T10:10:40Z</time>
      </trkpt>
      <trkpt lat="47.88656" lon="3.49501">
        <ele>246</ele>
        <time>2019-04-01T10:10:42Z</time>
      </trkpt>
      <trkpt lat="47.88654" lon="3.49494">
        <ele>247</ele>
        <time>2019-04-01T10:10:46Z</time>
      </trkpt>
      <trkpt lat="47.8865" lon="3.49489">
        <ele>247</ele>
        <time>2019-04-01T10:10:50Z</time>
      </trkpt>
      <trkpt lat="47.88647" lon="3.49483">
        <ele>246</ele>
        <time>2019-04-01T10:10:54Z</time>
      </trkpt>
      <trkpt lat="47.88644" lon="3.49477">
        <ele>246</ele>
        <time>2019-04-01T10:10:58Z</time>
      </trkpt>
      <trkpt lat="47.88642" lon="3.49475">
        <ele>246</ele>
        <time>2019-04-01T10:11:00Z</time>
      </trkpt>
      <trkpt lat="47.8864" lon="3.49468">
        <ele>247</ele>
        <time>2019-04-01T10:11:04Z</time>
      </trkpt>
      <trkpt lat="47.88637" lon="3.49463">
        <ele>246</ele>
        <time>2019-04-01T10:11:07Z</time>
      </trkpt>
      <trkpt lat="47.88636" lon="3.4946">
        <ele>247</ele>
        <time>2019-04-01T10:11:09Z</time>
      </trkpt>
      <trkpt lat="47.88633" lon="3.49453">
        <ele>246</ele>
        <time>2019-04-01T10:11:13Z</time>
      </trkpt>
      <trkpt lat="47.88631" lon="3.49448">
        <ele>246</ele>
        <time>2019-04-01T10:11:16Z</time>
      </trkpt>
      <trkpt lat="47.88627" lon="3.49443">
        <ele>246</ele>
        <time>2019-04-01T10:11:20Z</time>
      </trkpt>
      <trkpt lat="47.88625" lon="3.49437">
        <ele>246</ele>
        <time>2019-04-01T10:11:24Z</time>
      </trkpt>
      <trkpt lat="47.88623" lon="3.49434">
        <ele>246</ele>
        <time>2019-04-01T10:11:26Z</time>
      </trkpt>
      <trkpt lat="47.88622" lon="3.49429">
        <ele>246</ele>
        <time>2019-04-01T10:11:29Z</time>
      </trkpt>
      <trkpt lat="47.88621" lon="3.49426">
        <ele>246</ele>
        <time>2019-04-01T10:11:31Z</time>
      </trkpt>
      <trkpt lat="47.88619" lon="3.49422">
        <ele>246</ele>
        <time>2019-04-01T10:11:34Z</time>
      </trkpt>
      <trkpt lat="47.88618" lon="3.49419">
        <ele>246</ele>
        <time>2019-04-01T10:11:36Z</time>
      </trkpt>
      <trkpt lat="47.88615" lon="3.49414">
        <ele>246</ele>
        <time>2019-04-01T10:11:39Z</time>
      </trkpt>
      <trkpt lat="47.88614" lon="3.49411">
        <ele>245</ele>
        <time>2019-04-01T10:11:41Z</time>
      </trkpt>
      <trkpt lat="47.88611" lon="3.49405">
        <ele>245</ele>
        <time>2019-04-01T10:11:45Z</time>
      </trkpt>
      <trkpt lat="47.8861" lon="3.49401">
        <ele>246</ele>
        <time>2019-04-01T10:11:47Z</time>
      </trkpt>
      <trkpt lat="47.88608" lon="3.49398">
        <ele>246</ele>
        <time>2019-04-01T10:11:49Z</time>
      </trkpt>
      <trkpt lat="47.88605" lon="3.49393">
        <ele>245</ele>
        <time>2019-04-01T10:11:53Z</time>
      </trkpt>
      <trkpt lat="47.88602" lon="3.49386">
        <ele>246</ele>
        <time>2019-04-01T10:11:57Z</time>
      </trkpt>
      <trkpt lat="47.886" lon="3.4938">
        <ele>245</ele>
        <time>2019-04-01T10:12:01Z</time>
      </trkpt>
      <trkpt lat="47.88597" lon="3.49375">
        <ele>245</ele>
        <time>2019-04-01T10:12:04Z</time>
      </trkpt>
      <trkpt lat="47.88595" lon="3.49369">
        <ele>246</ele>
        <time>2019-04-01T10:12:07Z</time>
      </trkpt>
      <trkpt lat="47.88592" lon="3.49364">
        <ele>246</ele>
        <time>2019-04-01T10:12:10Z</time>
      </trkpt>
      <trkpt lat="47.8859" lon="3.4936">
        <ele>246</ele>
        <time>2019-04-01T10:12:13Z</time>
      </trkpt>
      <trkpt lat="47.88588" lon="3.49353">
        <ele>245</ele>
        <time>2019-04-01T10:12:17Z</time>
      </trkpt>
      <trkpt lat="47.88587" lon="3.4935">
        <ele>245</ele>
        <time>2019-04-01T10:12:19Z</time>
      </trkpt>
      <trkpt lat="47.88585" lon="3.49346">
        <ele>245</ele>
        <time>2019-04-01T10:12:22Z</time>
      </trkpt>
      <trkpt lat="47.88583" lon="3.49343">
        <ele>245</ele>
        <time>2019-04-01T10:12:24Z</time>
      </trkpt>
      <trkpt lat="47.88581" lon="3.49339">
        <ele>246</ele>
        <time>2019-04-01T10:12:27Z</time>
      </trkpt>
      <trkpt lat="47.8858" lon="3.49336">
        <ele>245</ele>
        <time>2019-04-01T10:12:29Z</time>
      </trkpt>
      <trkpt lat="47.88578" lon="3.49332">
        <ele>244</ele>
        <time>2019-04-01T10:12:31Z</time>
      </trkpt>
      <trkpt lat="47.88576" lon="3.49329">
        <ele>244</ele>
        <time>2019-04-01T10:12:33Z</time>
      </trkpt>
      <trkpt lat="47.88574" lon="3.49327">
        <ele>245</ele>
        <time>2019-04-01T10:12:35Z</time>
      </trkpt>
      <trkpt lat="47.88572" lon="3.4932">
        <ele>244</ele>
        <time>2019-04-01T10:12:39Z</time>
      </trkpt>
      <trkpt lat="47.88569" lon="3.49313">
        <ele>244</ele>
        <time>2019-04-01T10:12:43Z</time>
      </trkpt>
      <trkpt lat="47.88567" lon="3.49309">
        <ele>243</ele>
        <time>2019-04-01T10:12:46Z</time>
      </trkpt>
      <trkpt lat="47.88565" lon="3.49303">
        <ele>244</ele>
        <time>2019-04-01T10:12:50Z</time>
      </trkpt>
      <trkpt lat="47.88563" lon="3.493">
        <ele>245</ele>
        <time>2019-04-01T10:12:52Z</time>
      </trkpt>
      <trkpt lat="47.8856" lon="3.49293">
        <ele>243</ele>
        <time>2019-04-01T10:12:56Z</time>
      </trkpt>
      <trkpt lat="47.88558" lon="3.49287">
        <ele>244</ele>
        <time>2019-04-01T10:13:00Z</time>
      </trkpt>
      <trkpt lat="47.88555" lon="3.49281">
        <ele>244</ele>
        <time>2019-04-01T10:13:04Z</time>
      </trkpt>
      <trkpt lat="47.88554" lon="3.49277">
        <ele>244</ele>
        <time>2019-04-01T10:13:06Z</time>
      </trkpt>
      <trkpt lat="47.8855" lon="3.4927">
        <ele>244</ele>
        <time>2019-04-01T10:13:10Z</time>
      </trkpt>
      <trkpt lat="47.88548" lon="3.49267">
        <ele>244</ele>
        <time>2019-04-01T10:13:12Z</time>
      </trkpt>
      <trkpt lat="47.88547" lon="3.49264">
        <ele>243</ele>
        <time>2019-04-01T10:13:14Z</time>
      </trkpt>
      <trkpt lat="47.88544" lon="3.49259">
        <ele>243</ele>
        <time>2019-04-01T10:13:17Z</time>
      </trkpt>
      <trkpt lat="47.88542" lon="3.49253">
        <ele>244</ele>
        <time>2019-04-01T10:13:21Z</time>
      </trkpt>
      <trkpt lat="47.88538" lon="3.49246">
        <ele>243</ele>
        <time>2019-04-01T10:13:26Z</time>
      </trkpt>
      <trkpt lat="47.88537" lon="3.49239">
        <ele>243</ele>
        <time>2019-04-01T10:13:30Z</time>
      </trkpt>
      <trkpt lat="47.88536" lon="3.49235">
        <ele>243</ele>
        <time>2019-04-01T10:13:33Z</time>
      </trkpt>
      <trkpt lat="47.88533" lon="3.49228">
        <ele>243</ele>
        <time>2019-04-01T10:13:37Z</time>
      </trkpt>
      <trkpt lat="47.88531" lon="3.49221">
        <ele>243</ele>
        <time>2019-04-01T10:13:41Z</time>
      </trkpt>
      <trkpt lat="47.88529" lon="3.49214">
        <ele>243</ele>
        <time>2019-04-01T10:13:45Z</time>
      </trkpt>
      <trkpt lat="47.88526" lon="3.49206">
        <ele>243</ele>
        <time>2019-04-01T10:13:49Z</time>
      </trkpt>
      <trkpt lat="47.88524" lon="3.492">
        <ele>242</ele>
        <time>2019-04-01T10:13:53Z</time>
      </trkpt>
      <trkpt lat="47.88522" lon="3.49193">
        <ele>242</ele>
        <time>2019-04-01T10:13:57Z</time>
      </trkpt>
      <trkpt lat="47.88521" lon="3.4919">
        <ele>241</ele>
        <time>2019-04-01T10:13:59Z</time>
      </trkpt>
      <trkpt lat="47.88519" lon="3.49183">
        <ele>241</ele>
        <time>2019-04-01T10:14:03Z</time>
      </trkpt>
      <trkpt lat="47.88517" lon="3.49176">
        <ele>240</ele>
        <time>2019-04-01T10:14:07Z</time>
      </trkpt>
      <trkpt lat="47.88515" lon="3.49171">
        <ele>241</ele>
        <time>2019-04-01T10:14:10Z</time>
      </trkpt>
      <trkpt lat="47.88513" lon="3.49165">
        <ele>240</ele>
        <time>2019-04-01T10:14:14Z</time>
      </trkpt>
      <trkpt lat="47.88511" lon="3.49158">
        <ele>239</ele>
        <time>2019-04-01T10:14:18Z</time>
      </trkpt>
      <trkpt lat="47.8851" lon="3.49155">
        <ele>238</ele>
        <time>2019-04-01T10:14:20Z</time>
      </trkpt>
      <trkpt lat="47.88507" lon="3.49149">
        <ele>238</ele>
        <time>2019-04-01T10:14:24Z</time>
      </trkpt>
      <trkpt lat="47.88504" lon="3.49143">
        <ele>238</ele>
        <time>2019-04-01T10:14:27Z</time>
      </trkpt>
      <trkpt lat="47.88502" lon="3.49137">
        <ele>238</ele>
        <time>2019-04-01T10:14:31Z</time>
      </trkpt>
      <trkpt lat="47.885" lon="3.4913">
        <ele>239</ele>
        <time>2019-04-01T10:14:35Z</time>
      </trkpt>
      <trkpt lat="47.88498" lon="3.49124">
        <ele>238</ele>
        <time>2019-04-01T10:14:38Z</time>
      </trkpt>
      <trkpt lat="47.88495" lon="3.49118">
        <ele>238</ele>
        <time>2019-04-01T10:14:42Z</time>
      </trkpt>
      <trkpt lat="47.88492" lon="3.49114">
        <ele>237</ele>
        <time>2019-04-01T10:14:45Z</time>
      </trkpt>
      <trkpt lat="47.88489" lon="3.49109">
        <ele>237</ele>
        <time>2019-04-01T10:14:48Z</time>
      </trkpt>
      <trkpt lat="47.88486" lon="3.49103">
        <ele>238</ele>
        <time>2019-04-01T10:14:52Z</time>
      </trkpt>
      <trkpt lat="47.88484" lon="3.491">
        <ele>238</ele>
        <time>2019-04-01T10:14:54Z</time>
      </trkpt>
      <trkpt lat="47.88482" lon="3.49095">
        <ele>238</ele>
        <time>2019-04-01T10:14:57Z</time>
      </trkpt>
      <trkpt lat="47.88481" lon="3.49092">
        <ele>237</ele>
        <time>2019-04-01T10:14:59Z</time>
      </trkpt>
      <trkpt lat="47.88479" lon="3.49089">
        <ele>238</ele>
        <time>2019-04-01T10:15:01Z</time>
      </trkpt>
      <trkpt lat="47.88477" lon="3.49087">
        <ele>238</ele>
        <time>2019-04-01T10:15:03Z</time>
      </trkpt>
      <trkpt lat="47.88474" lon="3.4908">
        <ele>238</ele>
        <time>2019-04-01T10:15:07Z</time>
      </trkpt>
      <trkpt lat="47.88473" lon="3.49077">
        <ele>238</ele>
        <time>2019-04-01T10:15:09Z</time>
      </trkpt>
      <trkpt lat="47.88472" lon="3.49073">
        <ele>238</ele>
        <time>2019-04-01T10:15:11Z</time>
      </trkpt>
      <trkpt lat="47.88468" lon="3.49068">
        <ele>237</ele>
        <time>2019-04-01T10:15:14Z</time>
      </trkpt>
      <trkpt lat="47.88466" lon="3.49062">
        <ele>237</ele>
        <time>2019-04-01T10:15:19Z</time>
      </trkpt>
      <trkpt lat="47.88464" lon="3.49058">
        <ele>236</ele>
        <time>2019-04-01T10:15:21Z</time>
      </trkpt>
      <trkpt lat="47.88462" lon="3.49054">
        <ele>237</ele>
        <time>2019-04-01T10:15:23Z</time>
      </trkpt>
      <trkpt lat="47.88459" lon="3.4905">
        <ele>236</ele>
        <time>2019-04-01T10:15:27Z</time>
      </trkpt>
      <trkpt lat="47.88457" lon="3.49045">
        <ele>235</ele>
        <time>2019-04-01T10:15:36Z</time>
      </trkpt>
      <trkpt lat="47.88452" lon="3.49045">
        <ele>234</ele>
        <time>2019-04-01T10:15:57Z</time>
      </trkpt>
      <trkpt lat="47.88449" lon="3.4905">
        <ele>234</ele>
        <time>2019-04-01T10:16:03Z</time>
      </trkpt>
      <trkpt lat="47.88446" lon="3.49053">
        <ele>234</ele>
        <time>2019-04-01T10:16:08Z</time>
      </trkpt>
      <trkpt lat="47.88445" lon="3.49055">
        <ele>235</ele>
        <time>2019-04-01T10:16:11Z</time>
      </trkpt>
      <trkpt lat="47.8844" lon="3.49061">
        <ele>233</ele>
        <time>2019-04-01T10:16:16Z</time>
      </trkpt>
      <trkpt lat="47.88436" lon="3.49068">
        <ele>233</ele>
        <time>2019-04-01T10:16:21Z</time>
      </trkpt>
      <trkpt lat="47.88431" lon="3.49073">
        <ele>233</ele>
        <time>2019-04-01T10:16:26Z</time>
      </trkpt>
      <trkpt lat="47.88427" lon="3.49081">
        <ele>233</ele>
        <time>2019-04-01T10:16:32Z</time>
      </trkpt>
      <trkpt lat="47.88425" lon="3.49084">
        <ele>233</ele>
        <time>2019-04-01T10:16:34Z</time>
      </trkpt>
      <trkpt lat="47.8842" lon="3.4909">
        <ele>233</ele>
        <time>2019-04-01T10:16:41Z</time>
      </trkpt>
      <trkpt lat="47.88418" lon="3.49093">
        <ele>232</ele>
        <time>2019-04-01T10:16:44Z</time>
      </trkpt>
      <trkpt lat="47.88416" lon="3.49096">
        <ele>231</ele>
        <time>2019-04-01T10:16:46Z</time>
      </trkpt>
      <trkpt lat="47.88412" lon="3.49103">
        <ele>230</ele>
        <time>2019-04-01T10:16:52Z</time>
      </trkpt>
      <trkpt lat="47.88408" lon="3.49107">
        <ele>230</ele>
        <time>2019-04-01T10:16:56Z</time>
      </trkpt>
      <trkpt lat="47.88406" lon="3.4911">
        <ele>230</ele>
        <time>2019-04-01T10:16:59Z</time>
      </trkpt>
      <trkpt lat="47.88403" lon="3.49113">
        <ele>230</ele>
        <time>2019-04-01T10:17:03Z</time>
      </trkpt>
      <trkpt lat="47.884" lon="3.49116">
        <ele>229</ele>
        <time>2019-04-01T10:17:06Z</time>
      </trkpt>
      <trkpt lat="47.88397" lon="3.49119">
        <ele>229</ele>
        <time>2019-04-01T10:17:10Z</time>
      </trkpt>
      <trkpt lat="47.88394" lon="3.49124">
        <ele>229</ele>
        <time>2019-04-01T10:17:15Z</time>
      </trkpt>
      <trkpt lat="47.88392" lon="3.49128">
        <ele>228</ele>
        <time>2019-04-01T10:17:18Z</time>
      </trkpt>
      <trkpt lat="47.88387" lon="3.49134">
        <ele>227</ele>
        <time>2019-04-01T10:17:24Z</time>
      </trkpt>
      <trkpt lat="47.88384" lon="3.49137">
        <ele>228</ele>
        <time>2019-04-01T10:17:27Z</time>
      </trkpt>
      <trkpt lat="47.88381" lon="3.49144">
        <ele>226</ele>
        <time>2019-04-01T10:17:32Z</time>
      </trkpt>
      <trkpt lat="47.88377" lon="3.49149">
        <ele>225</ele>
        <time>2019-04-01T10:17:36Z</time>
      </trkpt>
      <trkpt lat="47.88375" lon="3.49152">
        <ele>226</ele>
        <time>2019-04-01T10:17:39Z</time>
      </trkpt>
      <trkpt lat="47.88371" lon="3.49157">
        <ele>224</ele>
        <time>2019-04-01T10:17:45Z</time>
      </trkpt>
      <trkpt lat="47.88368" lon="3.4916">
        <ele>224</ele>
        <time>2019-04-01T10:17:47Z</time>
      </trkpt>
      <trkpt lat="47.88365" lon="3.49163">
        <ele>224</ele>
        <time>2019-04-01T10:17:51Z</time>
      </trkpt>
      <trkpt lat="47.88361" lon="3.49168">
        <ele>224</ele>
        <time>2019-04-01T10:17:55Z</time>
      </trkpt>
      <trkpt lat="47.88357" lon="3.49174">
        <ele>223</ele>
        <time>2019-04-01T10:18:00Z</time>
      </trkpt>
      <trkpt lat="47.88355" lon="3.49176">
        <ele>222</ele>
        <time>2019-04-01T10:18:03Z</time>
      </trkpt>
      <trkpt lat="47.88352" lon="3.49182">
        <ele>222</ele>
        <time>2019-04-01T10:18:08Z</time>
      </trkpt>
      <trkpt lat="47.88351" lon="3.49185">
        <ele>222</ele>
        <time>2019-04-01T10:18:10Z</time>
      </trkpt>
      <trkpt lat="47.88349" lon="3.49189">
        <ele>221</ele>
        <time>2019-04-01T10:18:12Z</time>
      </trkpt>
      <trkpt lat="47.88347" lon="3.49192">
        <ele>220</ele>
        <time>2019-04-01T10:18:14Z</time>
      </trkpt>
      <trkpt lat="47.88343" lon="3.49196">
        <ele>219</ele>
        <time>2019-04-01T10:18:19Z</time>
      </trkpt>
      <trkpt lat="47.88338" lon="3.492">
        <ele>219</ele>
        <time>2019-04-01T10:18:24Z</time>
      </trkpt>
      <trkpt lat="47.88335" lon="3.49202">
        <ele>219</ele>
        <time>2019-04-01T10:18:27Z</time>
      </trkpt>
      <trkpt lat="47.88331" lon="3.49208">
        <ele>219</ele>
        <time>2019-04-01T10:18:31Z</time>
      </trkpt>
      <trkpt lat="47.88329" lon="3.49214">
        <ele>217</ele>
        <time>2019-04-01T10:18:34Z</time>
      </trkpt>
      <trkpt lat="47.88326" lon="3.49222">
        <ele>216</ele>
        <time>2019-04-01T10:18:39Z</time>
      </trkpt>
      <trkpt lat="47.88324" lon="3.49227">
        <ele>215</ele>
        <time>2019-04-01T10:18:43Z</time>
      </trkpt>
      <trkpt lat="47.88322" lon="3.4923">
        <ele>215</ele>
        <time>2019-04-01T10:18:46Z</time>
      </trkpt>
      <trkpt lat="47.8832" lon="3.49235">
        <ele>214</ele>
        <time>2019-04-01T10:18:51Z</time>
      </trkpt>
      <trkpt lat="47.88317" lon="3.49242">
        <ele>213</ele>
        <time>2019-04-01T10:18:55Z</time>
      </trkpt>
      <trkpt lat="47.88315" lon="3.49247">
        <ele>211</ele>
        <time>2019-04-01T10:18:59Z</time>
      </trkpt>
      <trkpt lat="47.88313" lon="3.49251">
        <ele>211</ele>
        <time>2019-04-01T10:19:01Z</time>
      </trkpt>
      <trkpt lat="47.88311" lon="3.49253">
        <ele>210</ele>
        <time>2019-04-01T10:19:03Z</time>
      </trkpt>
      <trkpt lat="47.88309" lon="3.49258">
        <ele>209</ele>
        <time>2019-04-01T10:19:06Z</time>
      </trkpt>
      <trkpt lat="47.88307" lon="3.49261">
        <ele>209</ele>
        <time>2019-04-01T10:19:08Z</time>
      </trkpt>
      <trkpt lat="47.88305" lon="3.49267">
        <ele>208</ele>
        <time>2019-04-01T10:19:12Z</time>
      </trkpt>
      <trkpt lat="47.88301" lon="3.49273">
        <ele>208</ele>
        <time>2019-04-01T10:19:16Z</time>
      </trkpt>
      <trkpt lat="47.883" lon="3.4928">
        <ele>207</ele>
        <time>2019-04-01T10:19:20Z</time>
      </trkpt>
      <trkpt lat="47.88297" lon="3.49288">
        <ele>207</ele>
        <time>2019-04-01T10:19:25Z</time>
      </trkpt>
      <trkpt lat="47.88294" lon="3.49295">
        <ele>206</ele>
        <time>2019-04-01T10:19:29Z</time>
      </trkpt>
      <trkpt lat="47.88293" lon="3.49298">
        <ele>206</ele>
        <time>2019-04-01T10:19:31Z</time>
      </trkpt>
      <trkpt lat="47.8829" lon="3.49306">
        <ele>206</ele>
        <time>2019-04-01T10:19:36Z</time>
      </trkpt>
      <trkpt lat="47.88287" lon="3.49312">
        <ele>206</ele>
        <time>2019-04-01T10:19:40Z</time>
      </trkpt>
      <trkpt lat="47.88284" lon="3.49319">
        <ele>206</ele>
        <time>2019-04-01T10:19:45Z</time>
      </trkpt>
      <trkpt lat="47.88282" lon="3.49325">
        <ele>204</ele>
        <time>2019-04-01T10:19:49Z</time>
      </trkpt>
      <trkpt lat="47.8828" lon="3.49331">
        <ele>203</ele>
        <time>2019-04-01T10:19:54Z</time>
      </trkpt>
      <trkpt lat="47.88277" lon="3.49337">
        <ele>203</ele>
        <time>2019-04-01T10:19:59Z</time>
      </trkpt>
      <trkpt lat="47.88274" lon="3.49344">
        <ele>202</ele>
        <time>2019-04-01T10:20:03Z</time>
      </trkpt>
      <trkpt lat="47.88273" lon="3.49349">
        <ele>202</ele>
        <time>2019-04-01T10:20:06Z</time>
      </trkpt>
      <trkpt lat="47.88271" lon="3.49353">
        <ele>201</ele>
        <time>2019-04-01T10:20:08Z</time>
      </trkpt>
      <trkpt lat="47.8827" lon="3.49356">
        <ele>200</ele>
        <time>2019-04-01T10:20:10Z</time>
      </trkpt>
      <trkpt lat="47.88267" lon="3.49363">
        <ele>199</ele>
        <time>2019-04-01T10:20:15Z</time>
      </trkpt>
      <trkpt lat="47.88265" lon="3.49366">
        <ele>199</ele>
        <time>2019-04-01T10:20:17Z</time>
      </trkpt>
      <trkpt lat="47.88264" lon="3.49369">
        <ele>199</ele>
        <time>2019-04-01T10:20:19Z</time>
      </trkpt>
      <trkpt lat="47.88261" lon="3.49376">
        <ele>199</ele>
        <time>2019-04-01T10:20:23Z</time>
      </trkpt>
      <trkpt lat="47.88258" lon="3.49381">
        <ele>199</ele>
        <time>2019-04-01T10:20:27Z</time>
      </trkpt>
      <trkpt lat="47.88256" lon="3.49389">
        <ele>199</ele>
        <time>2019-04-01T10:20:32Z</time>
      </trkpt>
      <trkpt lat="47.88254" lon="3.49394">
        <ele>199</ele>
        <time>2019-04-01T10:20:35Z</time>
      </trkpt>
      <trkpt lat="47.88253" lon="3.49397">
        <ele>199</ele>
        <time>2019-04-01T10:20:37Z</time>
      </trkpt>
      <trkpt lat="47.8825" lon="3.49404">
        <ele>198</ele>
        <time>2019-04-01T10:20:41Z</time>
      </trkpt>
      <trkpt lat="47.88249" lon="3.49407">
        <ele>198</ele>
        <time>2019-04-01T10:20:43Z</time>
      </trkpt>
      <trkpt lat="47.88248" lon="3.49411">
        <ele>198</ele>
        <time>2019-04-01T10:20:45Z</time>
      </trkpt>
      <trkpt lat="47.88247" lon="3.49414">
        <ele>198</ele>
        <time>2019-04-01T10:20:47Z</time>
      </trkpt>
      <trkpt lat="47.88244" lon="3.49419">
        <ele>198</ele>
        <time>2019-04-01T10:20:50Z</time>
      </trkpt>
      <trkpt lat="47.88243" lon="3.49422">
        <ele>197</ele>
        <time>2019-04-01T10:20:51Z</time>
      </trkpt>
      <trkpt lat="47.8824" lon="3.4943">
        <ele>196</ele>
        <time>2019-04-01T10:20:56Z</time>
      </trkpt>
      <trkpt lat="47.88238" lon="3.49434">
        <ele>196</ele>
        <time>2019-04-01T10:21:00Z</time>
      </trkpt>
      <trkpt lat="47.88234" lon="3.4944">
        <ele>196</ele>
        <time>2019-04-01T10:21:04Z</time>
      </trkpt>
      <trkpt lat="47.88232" lon="3.49447">
        <ele>196</ele>
        <time>2019-04-01T10:21:08Z</time>
      </trkpt>
      <trkpt lat="47.88231" lon="3.4945">
        <ele>195</ele>
        <time>2019-04-01T10:21:10Z</time>
      </trkpt>
      <trkpt lat="47.88229" lon="3.49455">
        <ele>195</ele>
        <time>2019-04-01T10:21:13Z</time>
      </trkpt>
      <trkpt lat="47.88227" lon="3.49458">
        <ele>194</ele>
        <time>2019-04-01T10:21:15Z</time>
      </trkpt>
      <trkpt lat="47.88225" lon="3.49463">
        <ele>195</ele>
        <time>2019-04-01T10:21:18Z</time>
      </trkpt>
      <trkpt lat="47.88223" lon="3.49468">
        <ele>194</ele>
        <time>2019-04-01T10:21:21Z</time>
      </trkpt>
      <trkpt lat="47.88221" lon="3.49472">
        <ele>194</ele>
        <time>2019-04-01T10:21:23Z</time>
      </trkpt>
      <trkpt lat="47.88219" lon="3.49476">
        <ele>193</ele>
        <time>2019-04-01T10:21:26Z</time>
      </trkpt>
      <trkpt lat="47.88216" lon="3.49482">
        <ele>193</ele>
        <time>2019-04-01T10:21:30Z</time>
      </trkpt>
      <trkpt lat="47.88213" lon="3.49489">
        <ele>194</ele>
        <time>2019-04-01T10:21:35Z</time>
      </trkpt>
      <trkpt lat="47.8821" lon="3.49494">
        <ele>194</ele>
        <time>2019-04-01T10:21:38Z</time>
      </trkpt>
      <trkpt lat="47.88208" lon="3.49499">
        <ele>193</ele>
        <time>2019-04-01T10:21:42Z</time>
      </trkpt>
      <trkpt lat="47.88205" lon="3.49505">
        <ele>193</ele>
        <time>2019-04-01T10:21:46Z</time>
      </trkpt>
      <trkpt lat="47.88204" lon="3.49508">
        <ele>193</ele>
        <time>2019-04-01T10:21:48Z</time>
      </trkpt>
      <trkpt lat="47.88202" lon="3.49512">
        <ele>192</ele>
        <time>2019-04-01T10:21:51Z</time>
      </trkpt>
      <trkpt lat="47.88199" lon="3.49517">
        <ele>192</ele>
        <time>2019-04-01T10:21:54Z</time>
      </trkpt>
      <trkpt lat="47.88196" lon="3.49524">
        <ele>192</ele>
        <time>2019-04-01T10:21:58Z</time>
      </trkpt>
      <trkpt lat="47.88195" lon="3.49526">
        <ele>192</ele>
        <time>2019-04-01T10:22:00Z</time>
      </trkpt>
      <trkpt lat="47.88193" lon="3.4953">
        <ele>192</ele>
        <time>2019-04-01T10:22:03Z</time>
      </trkpt>
      <trkpt lat="47.88191" lon="3.49535">
        <ele>191</ele>
        <time>2019-04-01T10:22:06Z</time>
      </trkpt>
      <trkpt lat="47.88189" lon="3.49538">
        <ele>191</ele>
        <time>2019-04-01T10:22:08Z</time>
      </trkpt>
      <trkpt lat="47.88187" lon="3.49543">
        <ele>191</ele>
        <time>2019-04-01T10:22:11Z</time>
      </trkpt>
      <trkpt lat="47.88184" lon="3.4955">
        <ele>190</ele>
        <time>2019-04-01T10:22:15Z</time>
      </trkpt>
      <trkpt lat="47.88182" lon="3.49554">
        <ele>190</ele>
        <time>2019-04-01T10:22:18Z</time>
      </trkpt>
      <trkpt lat="47.8818" lon="3.4956">
        <ele>190</ele>
        <time>2019-04-01T10:22:22Z</time>
      </trkpt>
      <trkpt lat="47.88178" lon="3.49564">
        <ele>190</ele>
        <time>2019-04-01T10:22:24Z</time>
      </trkpt>
      <trkpt lat="47.88176" lon="3.49569">
        <ele>191</ele>
        <time>2019-04-01T10:22:27Z</time>
      </trkpt>
      <trkpt lat="47.88175" lon="3.49572">
        <ele>191</ele>
        <time>2019-04-01T10:22:29Z</time>
      </trkpt>
      <trkpt lat="47.88173" lon="3.49577">
        <ele>190</ele>
        <time>2019-04-01T10:22:32Z</time>
      </trkpt>
      <trkpt lat="47.88172" lon="3.49582">
        <ele>189</ele>
        <time>2019-04-01T10:22:35Z</time>
      </trkpt>
      <trkpt lat="47.88169" lon="3.49587">
        <ele>190</ele>
        <time>2019-04-01T10:22:39Z</time>
      </trkpt>
      <trkpt lat="47.88165" lon="3.49594">
        <ele>189</ele>
        <time>2019-04-01T10:22:43Z</time>
      </trkpt>
      <trkpt lat="47.88164" lon="3.49602">
        <ele>190</ele>
        <time>2019-04-01T10:22:47Z</time>
      </trkpt>
      <trkpt lat="47.88161" lon="3.49608">
        <ele>189</ele>
        <time>2019-04-01T10:22:51Z</time>
      </trkpt>
      <trkpt lat="47.8816" lon="3.49611">
        <ele>189</ele>
        <time>2019-04-01T10:22:53Z</time>
      </trkpt>
      <trkpt lat="47.88159" lon="3.49614">
        <ele>188</ele>
        <time>2019-04-01T10:22:55Z</time>
      </trkpt>
      <trkpt lat="47.88157" lon="3.49622">
        <ele>188</ele>
        <time>2019-04-01T10:22:59Z</time>
      </trkpt>
      <trkpt lat="47.88154" lon="3.49628">
        <ele>188</ele>
        <time>2019-04-01T10:23:04Z</time>
      </trkpt>
      <trkpt lat="47.88153" lon="3.49632">
        <ele>189</ele>
        <time>2019-04-01T10:23:07Z</time>
      </trkpt>
      <trkpt lat="47.8815" lon="3.49639">
        <ele>188</ele>
        <time>2019-04-01T10:23:11Z</time>
      </trkpt>
      <trkpt lat="47.88148" lon="3.49646">
        <ele>188</ele>
        <time>2019-04-01T10:23:16Z</time>
      </trkpt>
      <trkpt lat="47.88146" lon="3.49649">
        <ele>189</ele>
        <time>2019-04-01T10:23:18Z</time>
      </trkpt>
      <trkpt lat="47.88144" lon="3.49654">
        <ele>188</ele>
        <time>2019-04-01T10:23:22Z</time>
      </trkpt>
      <trkpt lat="47.88142" lon="3.49659">
        <ele>189</ele>
        <time>2019-04-01T10:23:25Z</time>
      </trkpt>
      <trkpt lat="47.8814" lon="3.49664">
        <ele>189</ele>
        <time>2019-04-01T10:23:28Z</time>
      </trkpt>
      <trkpt lat="47.88138" lon="3.49671">
        <ele>188</ele>
        <time>2019-04-01T10:23:32Z</time>
      </trkpt>
      <trkpt lat="47.88136" lon="3.49675">
        <ele>187</ele>
        <time>2019-04-01T10:23:35Z</time>
      </trkpt>
      <trkpt lat="47.88135" lon="3.49678">
        <ele>187</ele>
        <time>2019-04-01T10:23:37Z</time>
      </trkpt>
      <trkpt lat="47.88133" lon="3.49684">
        <ele>187</ele>
        <time>2019-04-01T10:23:40Z</time>
      </trkpt>
      <trkpt lat="47.88131" lon="3.49688">
        <ele>185</ele>
        <time>2019-04-01T10:23:44Z</time>
      </trkpt>
      <trkpt lat="47.8813" lon="3.49692">
        <ele>185</ele>
        <time>2019-04-01T10:23:47Z</time>
      </trkpt>
      <trkpt lat="47.88127" lon="3.49698">
        <ele>184</ele>
        <time>2019-04-01T10:23:51Z</time>
      </trkpt>
      <trkpt lat="47.88124" lon="3.49703">
        <ele>183</ele>
        <time>2019-04-01T10:23:55Z</time>
      </trkpt>
      <trkpt lat="47.88121" lon="3.49708">
        <ele>183</ele>
        <time>2019-04-01T10:24:00Z</time>
      </trkpt>
      <trkpt lat="47.88116" lon="3.49714">
        <ele>182</ele>
        <time>2019-04-01T10:24:06Z</time>
      </trkpt>
      <trkpt lat="47.88113" lon="3.4972">
        <ele>181</ele>
        <time>2019-04-01T10:24:11Z</time>
      </trkpt>
      <trkpt lat="47.88109" lon="3.49725">
        <ele>180</ele>
        <time>2019-04-01T10:24:16Z</time>
      </trkpt>
      <trkpt lat="47.88105" lon="3.49729">
        <ele>179</ele>
        <time>2019-04-01T10:24:20Z</time>
      </trkpt>
      <trkpt lat="47.88101" lon="3.49734">
        <ele>180</ele>
        <time>2019-04-01T10:24:25Z</time>
      </trkpt>
      <trkpt lat="47.88099" lon="3.49737">
        <ele>180</ele>
        <time>2019-04-01T10:24:27Z</time>
      </trkpt>
      <trkpt lat="47.88095" lon="3.49741">
        <ele>180</ele>
        <time>2019-04-01T10:24:32Z</time>
      </trkpt>
      <trkpt lat="47.88093" lon="3.49743">
        <ele>179</ele>
        <time>2019-04-01T10:24:34Z</time>
      </trkpt>
      <trkpt lat="47.88089" lon="3.49749">
        <ele>179</ele>
        <time>2019-04-01T10:24:39Z</time>
      </trkpt>
      <trkpt lat="47.88086" lon="3.49752">
        <ele>179</ele>
        <time>2019-04-01T10:24:41Z</time>
      </trkpt>
      <trkpt lat="47.88084" lon="3.49756">
        <ele>179</ele>
        <time>2019-04-01T10:24:44Z</time>
      </trkpt>
      <trkpt lat="47.8808" lon="3.4976">
        <ele>178</ele>
        <time>2019-04-01T10:24:48Z</time>
      </trkpt>
      <trkpt lat="47.88078" lon="3.49762">
        <ele>179</ele>
        <time>2019-04-01T10:24:50Z</time>
      </trkpt>
      <trkpt lat="47.88076" lon="3.49765">
        <ele>178</ele>
        <time>2019-04-01T10:24:53Z</time>
      </trkpt>
      <trkpt lat="47.88071" lon="3.49772">
        <ele>178</ele>
        <time>2019-04-01T10:24:59Z</time>
      </trkpt>
      <trkpt lat="47.8807" lon="3.49775">
        <ele>178</ele>
        <time>2019-04-01T10:25:01Z</time>
      </trkpt>
      <trkpt lat="47.88066" lon="3.49779">
        <ele>177</ele>
        <time>2019-04-01T10:25:05Z</time>
      </trkpt>
      <trkpt lat="47.88062" lon="3.49785">
        <ele>178</ele>
        <time>2019-04-01T10:25:09Z</time>
      </trkpt>
      <trkpt lat="47.88058" lon="3.49789">
        <ele>176</ele>
        <time>2019-04-01T10:25:13Z</time>
      </trkpt>
      <trkpt lat="47.88054" lon="3.49799">
        <ele>175</ele>
        <time>2019-04-01T10:25:18Z</time>
      </trkpt>
      <trkpt lat="47.88051" lon="3.49805">
        <ele>175</ele>
        <time>2019-04-01T10:25:22Z</time>
      </trkpt>
      <trkpt lat="47.88048" lon="3.49812">
        <ele>172</ele>
        <time>2019-04-01T10:25:26Z</time>
      </trkpt>
      <trkpt lat="47.88047" lon="3.49815">
        <ele>173</ele>
        <time>2019-04-01T10:25:28Z</time>
      </trkpt>
      <trkpt lat="47.88043" lon="3.49822">
        <ele>173</ele>
        <time>2019-04-01T10:25:32Z</time>
      </trkpt>
      <trkpt lat="47.88039" lon="3.49828">
        <ele>171</ele>
        <time>2019-04-01T10:25:37Z</time>
      </trkpt>
      <trkpt lat="47.88037" lon="3.49834">
        <ele>171</ele>
        <time>2019-04-01T10:25:40Z</time>
      </trkpt>
      <trkpt lat="47.88034" lon="3.49842">
        <ele>171</ele>
        <time>2019-04-01T10:25:44Z</time>
      </trkpt>
      <trkpt lat="47.88032" lon="3.49846">
        <ele>170</ele>
        <time>2019-04-01T10:25:46Z</time>
      </trkpt>
      <trkpt lat="47.88029" lon="3.49851">
        <ele>169</ele>
        <time>2019-04-01T10:25:50Z</time>
      </trkpt>
      <trkpt lat="47.88028" lon="3.49859">
        <ele>169</ele>
        <time>2019-04-01T10:25:55Z</time>
      </trkpt>
      <trkpt lat="47.88025" lon="3.49866">
        <ele>168</ele>
        <time>2019-04-01T10:25:59Z</time>
      </trkpt>
      <trkpt lat="47.88023" lon="3.4987">
        <ele>168</ele>
        <time>2019-04-01T10:26:02Z</time>
      </trkpt>
      <trkpt lat="47.8802" lon="3.49875">
        <ele>168</ele>
        <time>2019-04-01T10:26:06Z</time>
      </trkpt>
      <trkpt lat="47.88015" lon="3.4988">
        <ele>168</ele>
        <time>2019-04-01T10:26:10Z</time>
      </trkpt>
      <trkpt lat="47.88013" lon="3.49883">
        <ele>168</ele>
        <time>2019-04-01T10:26:12Z</time>
      </trkpt>
      <trkpt lat="47.88008" lon="3.49888">
        <ele>167</ele>
        <time>2019-04-01T10:26:16Z</time>
      </trkpt>
      <trkpt lat="47.88004" lon="3.49893">
        <ele>166</ele>
        <time>2019-04-01T10:26:19Z</time>
      </trkpt>
      <trkpt lat="47.88002" lon="3.49897">
        <ele>166</ele>
        <time>2019-04-01T10:26:21Z</time>
      </trkpt>
      <trkpt lat="47.88" lon="3.49899">
        <ele>167</ele>
        <time>2019-04-01T10:26:23Z</time>
      </trkpt>
      <trkpt lat="47.87997" lon="3.49906">
        <ele>168</ele>
        <time>2019-04-01T10:26:27Z</time>
      </trkpt>
      <trkpt lat="47.87992" lon="3.49912">
        <ele>169</ele>
        <time>2019-04-01T10:26:31Z</time>
      </trkpt>
      <trkpt lat="47.8799" lon="3.49917">
        <ele>169</ele>
        <time>2019-04-01T10:26:34Z</time>
      </trkpt>
      <trkpt lat="47.87986" lon="3.49924">
        <ele>168</ele>
        <time>2019-04-01T10:26:38Z</time>
      </trkpt>
      <trkpt lat="47.87983" lon="3.49928">
        <ele>168</ele>
        <time>2019-04-01T10:26:41Z</time>
      </trkpt>
      <trkpt lat="47.87981" lon="3.49935">
        <ele>168</ele>
        <time>2019-04-01T10:26:45Z</time>
      </trkpt>
      <trkpt lat="47.87976" lon="3.49942">
        <ele>169</ele>
        <time>2019-04-01T10:26:51Z</time>
      </trkpt>
      <trkpt lat="47.87971" lon="3.49946">
        <ele>171</ele>
        <time>2019-04-01T10:26:56Z</time>
      </trkpt>
      <trkpt lat="47.87967" lon="3.49948">
        <ele>170</ele>
        <time>2019-04-01T10:27:00Z</time>
      </trkpt>
      <trkpt lat="47.87964" lon="3.49953">
        <ele>169</ele>
        <time>2019-04-01T10:27:04Z</time>
      </trkpt>
      <trkpt lat="47.87957" lon="3.49957">
        <ele>169</ele>
        <time>2019-04-01T10:27:10Z</time>
      </trkpt>
      <trkpt lat="47.87953" lon="3.49961">
        <ele>170</ele>
        <time>2019-04-01T10:27:16Z</time>
      </trkpt>
      <trkpt lat="47.87949" lon="3.49964">
        <ele>172</ele>
        <time>2019-04-01T10:27:20Z</time>
      </trkpt>
      <trkpt lat="47.87944" lon="3.49966">
        <ele>174</ele>
        <time>2019-04-01T10:27:25Z</time>
      </trkpt>
      <trkpt lat="47.87941" lon="3.49968">
        <ele>175</ele>
        <time>2019-04-01T10:27:27Z</time>
      </trkpt>
      <trkpt lat="47.87937" lon="3.4997">
        <ele>176</ele>
        <time>2019-04-01T10:27:30Z</time>
      </trkpt>
      <trkpt lat="47.87935" lon="3.49972">
        <ele>177</ele>
        <time>2019-04-01T10:27:32Z</time>
      </trkpt>
      <trkpt lat="47.87931" lon="3.49977">
        <ele>175</ele>
        <time>2019-04-01T10:27:36Z</time>
      </trkpt>
      <trkpt lat="47.87927" lon="3.49983">
        <ele>175</ele>
        <time>2019-04-01T10:27:40Z</time>
      </trkpt>
      <trkpt lat="47.87925" lon="3.4999">
        <ele>175</ele>
        <time>2019-04-01T10:27:44Z</time>
      </trkpt>
      <trkpt lat="47.8792" lon="3.49995">
        <ele>174</ele>
        <time>2019-04-01T10:27:48Z</time>
      </trkpt>
      <trkpt lat="47.87916" lon="3.50002">
        <ele>175</ele>
        <time>2019-04-01T10:27:52Z</time>
      </trkpt>
      <trkpt lat="47.87912" lon="3.50007">
        <ele>175</ele>
        <time>2019-04-01T10:27:56Z</time>
      </trkpt>
      <trkpt lat="47.87907" lon="3.50012">
        <ele>176</ele>
        <time>2019-04-01T10:28:01Z</time>
      </trkpt>
      <trkpt lat="47.87903" lon="3.50016">
        <ele>178</ele>
        <time>2019-04-01T10:28:05Z</time>
      </trkpt>
      <trkpt lat="47.87899" lon="3.50018">
        <ele>179</ele>
        <time>2019-04-01T10:28:09Z</time>
      </trkpt>
      <trkpt lat="47.87895" lon="3.50023">
        <ele>181</ele>
        <time>2019-04-01T10:28:13Z</time>
      </trkpt>
      <trkpt lat="47.87891" lon="3.50028">
        <ele>181</ele>
        <time>2019-04-01T10:28:16Z</time>
      </trkpt>
      <trkpt lat="47.87889" lon="3.50031">
        <ele>181</ele>
        <time>2019-04-01T10:28:18Z</time>
      </trkpt>
      <trkpt lat="47.87887" lon="3.50034">
        <ele>182</ele>
        <time>2019-04-01T10:28:20Z</time>
      </trkpt>
      <trkpt lat="47.87882" lon="3.50041">
        <ele>181</ele>
        <time>2019-04-01T10:28:24Z</time>
      </trkpt>
      <trkpt lat="47.87879" lon="3.50048">
        <ele>181</ele>
        <time>2019-04-01T10:28:28Z</time>
      </trkpt>
      <trkpt lat="47.87877" lon="3.50053">
        <ele>179</ele>
        <time>2019-04-01T10:28:31Z</time>
      </trkpt>
      <trkpt lat="47.87875" lon="3.50057">
        <ele>179</ele>
        <time>2019-04-01T10:28:34Z</time>
      </trkpt>
      <trkpt lat="47.87872" lon="3.50063">
        <ele>178</ele>
        <time>2019-04-01T10:28:38Z</time>
      </trkpt>
      <trkpt lat="47.8787" lon="3.50066">
        <ele>177</ele>
        <time>2019-04-01T10:28:40Z</time>
      </trkpt>
      <trkpt lat="47.87868" lon="3.50069">
        <ele>177</ele>
        <time>2019-04-01T10:28:42Z</time>
      </trkpt>
      <trkpt lat="47.87865" lon="3.50073">
        <ele>177</ele>
        <time>2019-04-01T10:28:45Z</time>
      </trkpt>
      <trkpt lat="47.87862" lon="3.50079">
        <ele>177</ele>
        <time>2019-04-01T10:28:49Z</time>
      </trkpt>
      <trkpt lat="47.87859" lon="3.50086">
        <ele>176</ele>
        <time>2019-04-01T10:28:53Z</time>
      </trkpt>
      <trkpt lat="47.87857" lon="3.50089">
        <ele>175</ele>
        <time>2019-04-01T10:28:55Z</time>
      </trkpt>
      <trkpt lat="47.87853" lon="3.50098">
        <ele>174</ele>
        <time>2019-04-01T10:29:00Z</time>
      </trkpt>
      <trkpt lat="47.8785" lon="3.50103">
        <ele>173</ele>
        <time>2019-04-01T10:29:04Z</time>
      </trkpt>
      <trkpt lat="47.87847" lon="3.50107">
        <ele>173</ele>
        <time>2019-04-01T10:29:07Z</time>
      </trkpt>
      <trkpt lat="47.87844" lon="3.50113">
        <ele>174</ele>
        <time>2019-04-01T10:29:11Z</time>
      </trkpt>
      <trkpt lat="47.8784" lon="3.50119">
        <ele>173</ele>
        <time>2019-04-01T10:29:15Z</time>
      </trkpt>
      <trkpt lat="47.87838" lon="3.50122">
        <ele>172</ele>
        <time>2019-04-01T10:29:17Z</time>
      </trkpt>
      <trkpt lat="47.87834" lon="3.50126">
        <ele>173</ele>
        <time>2019-04-01T10:29:21Z</time>
      </trkpt>
      <trkpt lat="47.8783" lon="3.50132">
        <ele>172</ele>
        <time>2019-04-01T10:29:26Z</time>
      </trkpt>
      <trkpt lat="47.87826" lon="3.50138">
        <ele>172</ele>
        <time>2019-04-01T10:29:30Z</time>
      </trkpt>
      <trkpt lat="47.87822" lon="3.50144">
        <ele>172</ele>
        <time>2019-04-01T10:29:34Z</time>
      </trkpt>
      <trkpt lat="47.87821" lon="3.50147">
        <ele>172</ele>
        <time>2019-04-01T10:29:36Z</time>
      </trkpt>
      <trkpt lat="47.87819" lon="3.50151">
        <ele>171</ele>
        <time>2019-04-01T10:29:39Z</time>
      </trkpt>
      <trkpt lat="47.87815" lon="3.50156">
        <ele>171</ele>
        <time>2019-04-01T10:29:42Z</time>
      </trkpt>
      <trkpt lat="47.87812" lon="3.50161">
        <ele>172</ele>
        <time>2019-04-01T10:29:45Z</time>
      </trkpt>
      <trkpt lat="47.8781" lon="3.50163">
        <ele>171</ele>
        <time>2019-04-01T10:29:47Z</time>
      </trkpt>
      <trkpt lat="47.87809" lon="3.50166">
        <ele>171</ele>
        <time>2019-04-01T10:29:49Z</time>
      </trkpt>
      <trkpt lat="47.87807" lon="3.50169">
        <ele>172</ele>
        <time>2019-04-01T10:29:52Z</time>
      </trkpt>
      <trkpt lat="47.87806" lon="3.50172">
        <ele>171</ele>
        <time>2019-04-01T10:29:54Z</time>
      </trkpt>
      <trkpt lat="47.87801" lon="3.50179">
        <ele>171</ele>
        <time>2019-04-01T10:29:59Z</time>
      </trkpt>
      <trkpt lat="47.87797" lon="3.50186">
        <ele>171</ele>
        <time>2019-04-01T10:30:04Z</time>
      </trkpt>
      <trkpt lat="47.87794" lon="3.50191">
        <ele>171</ele>
        <time>2019-04-01T10:30:08Z</time>
      </trkpt>
      <trkpt lat="47.87791" lon="3.50193">
        <ele>170</ele>
        <time>2019-04-01T10:30:10Z</time>
      </trkpt>
      <trkpt lat="47.87789" lon="3.50196">
        <ele>170</ele>
        <time>2019-04-01T10:30:12Z</time>
      </trkpt>
      <trkpt lat="47.87787" lon="3.50201">
        <ele>171</ele>
        <time>2019-04-01T10:30:15Z</time>
      </trkpt>
      <trkpt lat="47.87785" lon="3.50203">
        <ele>170</ele>
        <time>2019-04-01T10:30:17Z</time>
      </trkpt>
      <trkpt lat="47.87783" lon="3.50207">
        <ele>171</ele>
        <time>2019-04-01T10:30:20Z</time>
      </trkpt>
      <trkpt lat="47.8778" lon="3.50215">
        <ele>171</ele>
        <time>2019-04-01T10:30:24Z</time>
      </trkpt>
      <trkpt lat="47.87777" lon="3.50221">
        <ele>171</ele>
        <time>2019-04-01T10:30:28Z</time>
      </trkpt>
      <trkpt lat="47.87775" lon="3.50224">
        <ele>170</ele>
        <time>2019-04-01T10:30:30Z</time>
      </trkpt>
      <trkpt lat="47.87771" lon="3.5023">
        <ele>171</ele>
        <time>2019-04-01T10:30:34Z</time>
      </trkpt>
      <trkpt lat="47.87769" lon="3.50234">
        <ele>170</ele>
        <time>2019-04-01T10:30:36Z</time>
      </trkpt>
      <trkpt lat="47.87767" lon="3.50237">
        <ele>170</ele>
        <time>2019-04-01T10:30:38Z</time>
      </trkpt>
      <trkpt lat="47.87765" lon="3.50241">
        <ele>170</ele>
        <time>2019-04-01T10:30:41Z</time>
      </trkpt>
      <trkpt lat="47.87762" lon="3.50247">
        <ele>170</ele>
        <time>2019-04-01T10:30:45Z</time>
      </trkpt>
      <trkpt lat="47.8776" lon="3.50249">
        <ele>170</ele>
        <time>2019-04-01T10:30:47Z</time>
      </trkpt>
      <trkpt lat="47.87758" lon="3.50255">
        <ele>169</ele>
        <time>2019-04-01T10:30:50Z</time>
      </trkpt>
      <trkpt lat="47.87755" lon="3.50261">
        <ele>168</ele>
        <time>2019-04-01T10:30:54Z</time>
      </trkpt>
      <trkpt lat="47.8775" lon="3.50268">
        <ele>168</ele>
        <time>2019-04-01T10:31:00Z</time>
      </trkpt>
      <trkpt lat="47.87746" lon="3.50274">
        <ele>167</ele>
        <time>2019-04-01T10:31:04Z</time>
      </trkpt>
      <trkpt lat="47.87744" lon="3.50278">
        <ele>167</ele>
        <time>2019-04-01T10:31:07Z</time>
      </trkpt>
      <trkpt lat="47.87743" lon="3.50281">
        <ele>168</ele>
        <time>2019-04-01T10:31:10Z</time>
      </trkpt>
      <trkpt lat="47.87739" lon="3.50285">
        <ele>168</ele>
        <time>2019-04-01T10:31:14Z</time>
      </trkpt>
      <trkpt lat="47.87737" lon="3.50288">
        <ele>167</ele>
        <time>2019-04-01T10:31:16Z</time>
      </trkpt>
      <trkpt lat="47.87734" lon="3.50293">
        <ele>167</ele>
        <time>2019-04-01T10:31:20Z</time>
      </trkpt>
      <trkpt lat="47.87732" lon="3.50295">
        <ele>167</ele>
        <time>2019-04-01T10:31:22Z</time>
      </trkpt>
      <trkpt lat="47.87731" lon="3.50298">
        <ele>168</ele>
        <time>2019-04-01T10:31:24Z</time>
      </trkpt>
      <trkpt lat="47.87729" lon="3.50302">
        <ele>167</ele>
        <time>2019-04-01T10:31:26Z</time>
      </trkpt>
      <trkpt lat="47.87727" lon="3.50305">
        <ele>167</ele>
        <time>2019-04-01T10:31:28Z</time>
      </trkpt>
      <trkpt lat="47.87723" lon="3.50311">
        <ele>167</ele>
        <time>2019-04-01T10:31:32Z</time>
      </trkpt>
      <trkpt lat="47.8772" lon="3.50317">
        <ele>167</ele>
        <time>2019-04-01T10:31:37Z</time>
      </trkpt>
      <trkpt lat="47.87718" lon="3.5032">
        <ele>167</ele>
        <time>2019-04-01T10:31:39Z</time>
      </trkpt>
      <trkpt lat="47.87715" lon="3.50327">
        <ele>165</ele>
        <time>2019-04-01T10:31:43Z</time>
      </trkpt>
      <trkpt lat="47.87712" lon="3.50332">
        <ele>166</ele>
        <time>2019-04-01T10:31:47Z</time>
      </trkpt>
      <trkpt lat="47.87709" lon="3.50337">
        <ele>165</ele>
        <time>2019-04-01T10:31:51Z</time>
      </trkpt>
      <trkpt lat="47.87708" lon="3.5034">
        <ele>166</ele>
        <time>2019-04-01T10:31:53Z</time>
      </trkpt>
      <trkpt lat="47.87705" lon="3.50346">
        <ele>166</ele>
        <time>2019-04-01T10:31:57Z</time>
      </trkpt>
      <trkpt lat="47.87702" lon="3.50352">
        <ele>166</ele>
        <time>2019-04-01T10:32:01Z</time>
      </trkpt>
      <trkpt lat="47.877" lon="3.50359">
        <ele>166</ele>
        <time>2019-04-01T10:32:05Z</time>
      </trkpt>
      <trkpt lat="47.87699" lon="3.50362">
        <ele>167</ele>
        <time>2019-04-01T10:32:07Z</time>
      </trkpt>
      <trkpt lat="47.87696" lon="3.50368">
        <ele>167</ele>
        <time>2019-04-01T10:32:11Z</time>
      </trkpt>
      <trkpt lat="47.87694" lon="3.50371">
        <ele>168</ele>
        <time>2019-04-01T10:32:14Z</time>
      </trkpt>
      <trkpt lat="47.87693" lon="3.50375">
        <ele>168</ele>
        <time>2019-04-01T10:32:16Z</time>
      </trkpt>
      <trkpt lat="47.87691" lon="3.50378">
        <ele>167</ele>
        <time>2019-04-01T10:32:18Z</time>
      </trkpt>
      <trkpt lat="47.87689" lon="3.50385">
        <ele>167</ele>
        <time>2019-04-01T10:32:22Z</time>
      </trkpt>
      <trkpt lat="47.87687" lon="3.50391">
        <ele>167</ele>
        <time>2019-04-01T10:32:25Z</time>
      </trkpt>
      <trkpt lat="47.87684" lon="3.50397">
        <ele>167</ele>
        <time>2019-04-01T10:32:29Z</time>
      </trkpt>
      <trkpt lat="47.87682" lon="3.50403">
        <ele>167</ele>
        <time>2019-04-01T10:32:33Z</time>
      </trkpt>
      <trkpt lat="47.8768" lon="3.50407">
        <ele>166</ele>
        <time>2019-04-01T10:32:35Z</time>
      </trkpt>
      <trkpt lat="47.87679" lon="3.50411">
        <ele>165</ele>
        <time>2019-04-01T10:32:37Z</time>
      </trkpt>
      <trkpt lat="47.87677" lon="3.50414">
        <ele>165</ele>
        <time>2019-04-01T10:32:39Z</time>
      </trkpt>
      <trkpt lat="47.87674" lon="3.50421">
        <ele>166</ele>
        <time>2019-04-01T10:32:44Z</time>
      </trkpt>
      <trkpt lat="47.87672" lon="3.50425">
        <ele>166</ele>
        <time>2019-04-01T10:32:46Z</time>
      </trkpt>
      <trkpt lat="47.87671" lon="3.50428">
        <ele>165</ele>
        <time>2019-04-01T10:32:48Z</time>
      </trkpt>
      <trkpt lat="47.87668" lon="3.50436">
        <ele>164</ele>
        <time>2019-04-01T10:32:52Z</time>
      </trkpt>
      <trkpt lat="47.87667" lon="3.5044">
        <ele>164</ele>
        <time>2019-04-01T10:32:54Z</time>
      </trkpt>
      <trkpt lat="47.87666" lon="3.50444">
        <ele>163</ele>
        <time>2019-04-01T10:32:56Z</time>
      </trkpt>
      <trkpt lat="47.87663" lon="3.50451">
        <ele>163</ele>
        <time>2019-04-01T10:33:00Z</time>
      </trkpt>
      <trkpt lat="47.8766" lon="3.50458">
        <ele>163</ele>
        <time>2019-04-01T10:33:04Z</time>
      </trkpt>
      <trkpt lat="47.87659" lon="3.50461">
        <ele>162</ele>
        <time>2019-04-01T10:33:06Z</time>
      </trkpt>
      <trkpt lat="47.87656" lon="3.50466">
        <ele>162</ele>
        <time>2019-04-01T10:33:09Z</time>
      </trkpt>
      <trkpt lat="47.87653" lon="3.50473">
        <ele>162</ele>
        <time>2019-04-01T10:33:13Z</time>
      </trkpt>
      <trkpt lat="47.8765" lon="3.50479">
        <ele>161</ele>
        <time>2019-04-01T10:33:17Z</time>
      </trkpt>
      <trkpt lat="47.87648" lon="3.50482">
        <ele>159</ele>
        <time>2019-04-01T10:33:19Z</time>
      </trkpt>
      <trkpt lat="47.87646" lon="3.50488">
        <ele>158</ele>
        <time>2019-04-01T10:33:23Z</time>
      </trkpt>
      <trkpt lat="47.87643" lon="3.50495">
        <ele>158</ele>
        <time>2019-04-01T10:33:26Z</time>
      </trkpt>
      <trkpt lat="47.87642" lon="3.50498">
        <ele>157</ele>
        <time>2019-04-01T10:33:28Z</time>
      </trkpt>
      <trkpt lat="47.8764" lon="3.50502">
        <ele>156</ele>
        <time>2019-04-01T10:33:30Z</time>
      </trkpt>
      <trkpt lat="47.87639" lon="3.50507">
        <ele>157</ele>
        <time>2019-04-01T10:33:33Z</time>
      </trkpt>
      <trkpt lat="47.87636" lon="3.50513">
        <ele>157</ele>
        <time>2019-04-01T10:33:38Z</time>
      </trkpt>
      <trkpt lat="47.87634" lon="3.50516">
        <ele>157</ele>
        <time>2019-04-01T10:33:40Z</time>
      </trkpt>
      <trkpt lat="47.87632" lon="3.5052">
        <ele>156</ele>
        <time>2019-04-01T10:33:43Z</time>
      </trkpt>
      <trkpt lat="47.87629" lon="3.50527">
        <ele>156</ele>
        <time>2019-04-01T10:33:47Z</time>
      </trkpt>
      <trkpt lat="47.87627" lon="3.50531">
        <ele>156</ele>
        <time>2019-04-01T10:33:50Z</time>
      </trkpt>
      <trkpt lat="47.87625" lon="3.50533">
        <ele>156</ele>
        <time>2019-04-01T10:33:52Z</time>
      </trkpt>
      <trkpt lat="47.87622" lon="3.50538">
        <ele>156</ele>
        <time>2019-04-01T10:33:55Z</time>
      </trkpt>
      <trkpt lat="47.8762" lon="3.50544">
        <ele>156</ele>
        <time>2019-04-01T10:33:59Z</time>
      </trkpt>
      <trkpt lat="47.87616" lon="3.50551">
        <ele>156</ele>
        <time>2019-04-01T10:34:03Z</time>
      </trkpt>
      <trkpt lat="47.87612" lon="3.50558">
        <ele>156</ele>
        <time>2019-04-01T10:34:08Z</time>
      </trkpt>
      <trkpt lat="47.8761" lon="3.50563">
        <ele>156</ele>
        <time>2019-04-01T10:34:11Z</time>
      </trkpt>
      <trkpt lat="47.87608" lon="3.50565">
        <ele>156</ele>
        <time>2019-04-01T10:34:13Z</time>
      </trkpt>
      <trkpt lat="47.87604" lon="3.50572">
        <ele>155</ele>
        <time>2019-04-01T10:34:17Z</time>
      </trkpt>
      <trkpt lat="47.87601" lon="3.50577">
        <ele>155</ele>
        <time>2019-04-01T10:34:20Z</time>
      </trkpt>
      <trkpt lat="47.87599" lon="3.50581">
        <ele>156</ele>
        <time>2019-04-01T10:34:22Z</time>
      </trkpt>
      <trkpt lat="47.87597" lon="3.50586">
        <ele>157</ele>
        <time>2019-04-01T10:34:26Z</time>
      </trkpt>
      <trkpt lat="47.87593" lon="3.50591">
        <ele>157</ele>
        <time>2019-04-01T10:34:30Z</time>
      </trkpt>
      <trkpt lat="47.8759" lon="3.50597">
        <ele>157</ele>
        <time>2019-04-01T10:34:34Z</time>
      </trkpt>
      <trkpt lat="47.87586" lon="3.50602">
        <ele>157</ele>
        <time>2019-04-01T10:34:38Z</time>
      </trkpt>
      <trkpt lat="47.87583" lon="3.50606">
        <ele>158</ele>
        <time>2019-04-01T10:34:42Z</time>
      </trkpt>
      <trkpt lat="47.87579" lon="3.5061">
        <ele>161</ele>
        <time>2019-04-01T10:34:48Z</time>
      </trkpt>
      <trkpt lat="47.87576" lon="3.50613">
        <ele>161</ele>
        <time>2019-04-01T10:34:51Z</time>
      </trkpt>
      <trkpt lat="47.87573" lon="3.50616">
        <ele>161</ele>
        <time>2019-04-01T10:34:54Z</time>
      </trkpt>
      <trkpt lat="47.8757" lon="3.50623">
        <ele>162</ele>
        <time>2019-04-01T10:34:59Z</time>
      </trkpt>
      <trkpt lat="47.87566" lon="3.50628">
        <ele>161</ele>
        <time>2019-04-01T10:35:04Z</time>
      </trkpt>
      <trkpt lat="47.87563" lon="3.50635">
        <ele>161</ele>
        <time>2019-04-01T10:35:08Z</time>
      </trkpt>
      <trkpt lat="47.87559" lon="3.5064">
        <ele>161</ele>
        <time>2019-04-01T10:35:12Z</time>
      </trkpt>
      <trkpt lat="47.87555" lon="3.50645">
        <ele>161</ele>
        <time>2019-04-01T10:35:16Z</time>
      </trkpt>
      <trkpt lat="47.87553" lon="3.50649">
        <ele>162</ele>
        <time>2019-04-01T10:35:19Z</time>
      </trkpt>
      <trkpt lat="47.8755" lon="3.50656">
        <ele>163</ele>
        <time>2019-04-01T10:35:23Z</time>
      </trkpt>
      <trkpt lat="47.87548" lon="3.50661">
        <ele>164</ele>
        <time>2019-04-01T10:35:26Z</time>
      </trkpt>
      <trkpt lat="47.87546" lon="3.50666">
        <ele>164</ele>
        <time>2019-04-01T10:35:29Z</time>
      </trkpt>
      <trkpt lat="47.87545" lon="3.50669">
        <ele>164</ele>
        <time>2019-04-01T10:35:31Z</time>
      </trkpt>
      <trkpt lat="47.87544" lon="3.50672">
        <ele>165</ele>
        <time>2019-04-01T10:35:33Z</time>
      </trkpt>
      <trkpt lat="47.87541" lon="3.50678">
        <ele>165</ele>
        <time>2019-04-01T10:35:37Z</time>
      </trkpt>
      <trkpt lat="47.87537" lon="3.50683">
        <ele>165</ele>
        <time>2019-04-01T10:35:41Z</time>
      </trkpt>
      <trkpt lat="47.87533" lon="3.50686">
        <ele>167</ele>
        <time>2019-04-01T10:35:46Z</time>
      </trkpt>
      <trkpt lat="47.8753" lon="3.50692">
        <ele>169</ele>
        <time>2019-04-01T10:35:50Z</time>
      </trkpt>
      <trkpt lat="47.87527" lon="3.50697">
        <ele>170</ele>
        <time>2019-04-01T10:35:53Z</time>
      </trkpt>
      <trkpt lat="47.87525" lon="3.507">
        <ele>170</ele>
        <time>2019-04-01T10:35:55Z</time>
      </trkpt>
      <trkpt lat="47.87521" lon="3.50704">
        <ele>170</ele>
        <time>2019-04-01T10:35:59Z</time>
      </trkpt>
      <trkpt lat="47.87518" lon="3.5071">
        <ele>172</ele>
        <time>2019-04-01T10:36:03Z</time>
      </trkpt>
      <trkpt lat="47.87516" lon="3.50714">
        <ele>172</ele>
        <time>2019-04-01T10:36:06Z</time>
      </trkpt>
      <trkpt lat="47.87514" lon="3.50718">
        <ele>172</ele>
        <time>2019-04-01T10:36:08Z</time>
      </trkpt>
      <trkpt lat="47.87513" lon="3.50722">
        <ele>171</ele>
        <time>2019-04-01T10:36:10Z</time>
      </trkpt>
      <trkpt lat="47.87511" lon="3.50729">
        <ele>170</ele>
        <time>2019-04-01T10:36:13Z</time>
      </trkpt>
      <trkpt lat="47.87508" lon="3.50736">
        <ele>169</ele>
        <time>2019-04-01T10:36:17Z</time>
      </trkpt>
      <trkpt lat="47.87506" lon="3.5074">
        <ele>168</ele>
        <time>2019-04-01T10:36:20Z</time>
      </trkpt>
      <trkpt lat="47.87502" lon="3.50747">
        <ele>170</ele>
        <time>2019-04-01T10:36:24Z</time>
      </trkpt>
      <trkpt lat="47.87499" lon="3.50755">
        <ele>169</ele>
        <time>2019-04-01T10:36:28Z</time>
      </trkpt>
      <trkpt lat="47.87498" lon="3.50759">
        <ele>169</ele>
        <time>2019-04-01T10:36:31Z</time>
      </trkpt>
      <trkpt lat="47.87494" lon="3.50764">
        <ele>169</ele>
        <time>2019-04-01T10:36:34Z</time>
      </trkpt>
      <trkpt lat="47.87492" lon="3.50767">
        <ele>168</ele>
        <time>2019-04-01T10:36:36Z</time>
      </trkpt>
      <trkpt lat="47.8749" lon="3.50773">
        <ele>168</ele>
        <time>2019-04-01T10:36:41Z</time>
      </trkpt>
      <trkpt lat="47.87487" lon="3.50778">
        <ele>168</ele>
        <time>2019-04-01T10:36:45Z</time>
      </trkpt>
      <trkpt lat="47.87485" lon="3.50786">
        <ele>169</ele>
        <time>2019-04-01T10:36:49Z</time>
      </trkpt>
      <trkpt lat="47.87482" lon="3.50793">
        <ele>169</ele>
        <time>2019-04-01T10:36:53Z</time>
      </trkpt>
      <trkpt lat="47.87479" lon="3.50798">
        <ele>169</ele>
        <time>2019-04-01T10:36:56Z</time>
      </trkpt>
      <trkpt lat="47.87476" lon="3.50805">
        <ele>170</ele>
        <time>2019-04-01T10:37:00Z</time>
      </trkpt>
      <trkpt lat="47.87475" lon="3.50809">
        <ele>170</ele>
        <time>2019-04-01T10:37:02Z</time>
      </trkpt>
      <trkpt lat="47.87472" lon="3.50814">
        <ele>169</ele>
        <time>2019-04-01T10:37:06Z</time>
      </trkpt>
      <trkpt lat="47.8747" lon="3.50817">
        <ele>170</ele>
        <time>2019-04-01T10:37:08Z</time>
      </trkpt>
      <trkpt lat="47.87468" lon="3.5082">
        <ele>170</ele>
        <time>2019-04-01T10:37:10Z</time>
      </trkpt>
      <trkpt lat="47.87465" lon="3.50823">
        <ele>171</ele>
        <time>2019-04-01T10:37:13Z</time>
      </trkpt>
      <trkpt lat="47.87462" lon="3.50829">
        <ele>172</ele>
        <time>2019-04-01T10:37:17Z</time>
      </trkpt>
      <trkpt lat="47.8746" lon="3.50833">
        <ele>172</ele>
        <time>2019-04-01T10:37:19Z</time>
      </trkpt>
      <trkpt lat="47.87456" lon="3.50841">
        <ele>171</ele>
        <time>2019-04-01T10:37:23Z</time>
      </trkpt>
      <trkpt lat="47.87452" lon="3.50847">
        <ele>170</ele>
        <time>2019-04-01T10:37:27Z</time>
      </trkpt>
      <trkpt lat="47.87449" lon="3.50853">
        <ele>170</ele>
        <time>2019-04-01T10:37:31Z</time>
      </trkpt>
      <trkpt lat="47.87446" lon="3.50858">
        <ele>169</ele>
        <time>2019-04-01T10:37:35Z</time>
      </trkpt>
      <trkpt lat="47.87441" lon="3.50861">
        <ele>169</ele>
        <time>2019-04-01T10:37:40Z</time>
      </trkpt>
      <trkpt lat="47.87436" lon="3.50865">
        <ele>169</ele>
        <time>2019-04-01T10:37:44Z</time>
      </trkpt>
      <trkpt lat="47.87432" lon="3.50869">
        <ele>172</ele>
        <time>2019-04-01T10:37:49Z</time>
      </trkpt>
      <trkpt lat="47.8743" lon="3.50875">
        <ele>172</ele>
        <time>2019-04-01T10:37:53Z</time>
      </trkpt>
      <trkpt lat="47.87426" lon="3.50879">
        <ele>174</ele>
        <time>2019-04-01T10:37:58Z</time>
      </trkpt>
      <trkpt lat="47.87423" lon="3.50885">
        <ele>174</ele>
        <time>2019-04-01T10:38:01Z</time>
      </trkpt>
      <trkpt lat="47.87421" lon="3.50888">
        <ele>176</ele>
        <time>2019-04-01T10:38:04Z</time>
      </trkpt>
      <trkpt lat="47.87417" lon="3.50893">
        <ele>176</ele>
        <time>2019-04-01T10:38:08Z</time>
      </trkpt>
      <trkpt lat="47.87414" lon="3.50898">
        <ele>176</ele>
        <time>2019-04-01T10:38:12Z</time>
      </trkpt>
      <trkpt lat="47.8741" lon="3.50903">
        <ele>176</ele>
        <time>2019-04-01T10:38:15Z</time>
      </trkpt>
      <trkpt lat="47.87407" lon="3.5091">
        <ele>176</ele>
        <time>2019-04-01T10:38:19Z</time>
      </trkpt>
      <trkpt lat="47.87405" lon="3.50913">
        <ele>175</ele>
        <time>2019-04-01T10:38:21Z</time>
      </trkpt>
      <trkpt lat="47.87401" lon="3.50916">
        <ele>175</ele>
        <time>2019-04-01T10:38:24Z</time>
      </trkpt>
      <trkpt lat="47.87398" lon="3.50923">
        <ele>174</ele>
        <time>2019-04-01T10:38:29Z</time>
      </trkpt>
      <trkpt lat="47.87392" lon="3.50926">
        <ele>175</ele>
        <time>2019-04-01T10:38:34Z</time>
      </trkpt>
      <trkpt lat="47.8739" lon="3.50927">
        <ele>174</ele>
        <time>2019-04-01T10:38:36Z</time>
      </trkpt>
      <trkpt lat="47.87386" lon="3.50931">
        <ele>176</ele>
        <time>2019-04-01T10:38:40Z</time>
      </trkpt>
      <trkpt lat="47.87382" lon="3.50934">
        <ele>176</ele>
        <time>2019-04-01T10:38:43Z</time>
      </trkpt>
      <trkpt lat="47.87376" lon="3.5094">
        <ele>178</ele>
        <time>2019-04-01T10:38:48Z</time>
      </trkpt>
      <trkpt lat="47.87371" lon="3.50943">
        <ele>177</ele>
        <time>2019-04-01T10:38:52Z</time>
      </trkpt>
      <trkpt lat="47.87366" lon="3.50946">
        <ele>177</ele>
        <time>2019-04-01T10:38:55Z</time>
      </trkpt>
      <trkpt lat="47.87363" lon="3.5095">
        <ele>177</ele>
        <time>2019-04-01T10:38:58Z</time>
      </trkpt>
      <trkpt lat="47.87359" lon="3.50961">
        <ele>176</ele>
        <time>2019-04-01T10:39:04Z</time>
      </trkpt>
      <trkpt lat="47.87357" lon="3.50965">
        <ele>176</ele>
        <time>2019-04-01T10:39:07Z</time>
      </trkpt>
      <trkpt lat="47.87355" lon="3.50969">
        <ele>176</ele>
        <time>2019-04-01T10:39:10Z</time>
      </trkpt>
      <trkpt lat="47.87351" lon="3.50974">
        <ele>176</ele>
        <time>2019-04-01T10:39:14Z</time>
      </trkpt>
      <trkpt lat="47.87349" lon="3.50976">
        <ele>177</ele>
        <time>2019-04-01T10:39:16Z</time>
      </trkpt>
      <trkpt lat="47.87346" lon="3.50981">
        <ele>177</ele>
        <time>2019-04-01T10:39:19Z</time>
      </trkpt>
      <trkpt lat="47.87345" lon="3.50984">
        <ele>177</ele>
        <time>2019-04-01T10:39:21Z</time>
      </trkpt>
      <trkpt lat="47.87343" lon="3.50988">
        <ele>176</ele>
        <time>2019-04-01T10:39:25Z</time>
      </trkpt>
      <trkpt lat="47.8734" lon="3.50991">
        <ele>176</ele>
        <time>2019-04-01T10:39:28Z</time>
      </trkpt>
      <trkpt lat="47.87338" lon="3.50999">
        <ele>177</ele>
        <time>2019-04-01T10:39:33Z</time>
      </trkpt>
      <trkpt lat="47.87336" lon="3.51005">
        <ele>178</ele>
        <time>2019-04-01T10:39:36Z</time>
      </trkpt>
      <trkpt lat="47.87333" lon="3.51012">
        <ele>176</ele>
        <time>2019-04-01T10:39:40Z</time>
      </trkpt>
      <trkpt lat="47.87332" lon="3.51019">
        <ele>175</ele>
        <time>2019-04-01T10:39:44Z</time>
      </trkpt>
      <trkpt lat="47.8733" lon="3.51025">
        <ele>174</ele>
        <time>2019-04-01T10:39:47Z</time>
      </trkpt>
      <trkpt lat="47.87328" lon="3.51033">
        <ele>173</ele>
        <time>2019-04-01T10:39:51Z</time>
      </trkpt>
      <trkpt lat="47.87326" lon="3.51042">
        <ele>173</ele>
        <time>2019-04-01T10:39:56Z</time>
      </trkpt>
      <trkpt lat="47.87323" lon="3.5105">
        <ele>174</ele>
        <time>2019-04-01T10:40:00Z</time>
      </trkpt>
      <trkpt lat="47.87322" lon="3.51054">
        <ele>174</ele>
        <time>2019-04-01T10:40:02Z</time>
      </trkpt>
      <trkpt lat="47.8732" lon="3.51061">
        <ele>175</ele>
        <time>2019-04-01T10:40:06Z</time>
      </trkpt>
      <trkpt lat="47.87319" lon="3.51065">
        <ele>175</ele>
        <time>2019-04-01T10:40:08Z</time>
      </trkpt>
      <trkpt lat="47.87318" lon="3.5107">
        <ele>175</ele>
        <time>2019-04-01T10:40:10Z</time>
      </trkpt>
      <trkpt lat="47.87317" lon="3.51078">
        <ele>175</ele>
        <time>2019-04-01T10:40:13Z</time>
      </trkpt>
      <trkpt lat="47.87317" lon="3.51083">
        <ele>176</ele>
        <time>2019-04-01T10:40:15Z</time>
      </trkpt>
      <trkpt lat="47.87317" lon="3.51088">
        <ele>176</ele>
        <time>2019-04-01T10:40:17Z</time>
      </trkpt>
      <trkpt lat="47.87315" lon="3.51095">
        <ele>177</ele>
        <time>2019-04-01T10:40:20Z</time>
      </trkpt>
      <trkpt lat="47.87314" lon="3.511">
        <ele>178</ele>
        <time>2019-04-01T10:40:23Z</time>
      </trkpt>
      <trkpt lat="47.87312" lon="3.51105">
        <ele>177</ele>
        <time>2019-04-01T10:40:25Z</time>
      </trkpt>
      <trkpt lat="47.87311" lon="3.51113">
        <ele>177</ele>
        <time>2019-04-01T10:40:28Z</time>
      </trkpt>
      <trkpt lat="47.87311" lon="3.51121">
        <ele>177</ele>
        <time>2019-04-01T10:40:31Z</time>
      </trkpt>
      <trkpt lat="47.87311" lon="3.51128">
        <ele>177</ele>
        <time>2019-04-01T10:40:34Z</time>
      </trkpt>
      <trkpt lat="47.87312" lon="3.51133">
        <ele>177</ele>
        <time>2019-04-01T10:40:36Z</time>
      </trkpt>
      <trkpt lat="47.87311" lon="3.51142">
        <ele>177</ele>
        <time>2019-04-01T10:40:41Z</time>
      </trkpt>
      <trkpt lat="47.87313" lon="3.51149">
        <ele>177</ele>
        <time>2019-04-01T10:40:45Z</time>
      </trkpt>
      <trkpt lat="47.87313" lon="3.51157">
        <ele>176</ele>
        <time>2019-04-01T10:40:49Z</time>
      </trkpt>
      <trkpt lat="47.87312" lon="3.51166">
        <ele>174</ele>
        <time>2019-04-01T10:40:54Z</time>
      </trkpt>
      <trkpt lat="47.87311" lon="3.51175">
        <ele>172</ele>
        <time>2019-04-01T10:40:58Z</time>
      </trkpt>
      <trkpt lat="47.87312" lon="3.51183">
        <ele>171</ele>
        <time>2019-04-01T10:41:02Z</time>
      </trkpt>
      <trkpt lat="47.87312" lon="3.51187">
        <ele>171</ele>
        <time>2019-04-01T10:41:04Z</time>
      </trkpt>
      <trkpt lat="47.87312" lon="3.51193">
        <ele>170</ele>
        <time>2019-04-01T10:41:07Z</time>
      </trkpt>
      <trkpt lat="47.87313" lon="3.51198">
        <ele>169</ele>
        <time>2019-04-01T10:41:10Z</time>
      </trkpt>
      <trkpt lat="47.87314" lon="3.51206">
        <ele>169</ele>
        <time>2019-04-01T10:41:14Z</time>
      </trkpt>
      <trkpt lat="47.87314" lon="3.51213">
        <ele>168</ele>
        <time>2019-04-01T10:41:17Z</time>
      </trkpt>
      <trkpt lat="47.87312" lon="3.51219">
        <ele>168</ele>
        <time>2019-04-01T10:41:20Z</time>
      </trkpt>
      <trkpt lat="47.87312" lon="3.51227">
        <ele>167</ele>
        <time>2019-04-01T10:41:24Z</time>
      </trkpt>
      <trkpt lat="47.87312" lon="3.51234">
        <ele>166</ele>
        <time>2019-04-01T10:41:27Z</time>
      </trkpt>
      <trkpt lat="47.87312" lon="3.51239">
        <ele>166</ele>
        <time>2019-04-01T10:41:29Z</time>
      </trkpt>
      <trkpt lat="47.87314" lon="3.51246">
        <ele>166</ele>
        <time>2019-04-01T10:41:33Z</time>
      </trkpt>
      <trkpt lat="47.87314" lon="3.5125">
        <ele>165</ele>
        <time>2019-04-01T10:41:35Z</time>
      </trkpt>
      <trkpt lat="47.87315" lon="3.51255">
        <ele>166</ele>
        <time>2019-04-01T10:41:37Z</time>
      </trkpt>
      <trkpt lat="47.87316" lon="3.51262">
        <ele>166</ele>
        <time>2019-04-01T10:41:41Z</time>
      </trkpt>
      <trkpt lat="47.87318" lon="3.5127">
        <ele>166</ele>
        <time>2019-04-01T10:41:45Z</time>
      </trkpt>
      <trkpt lat="47.87318" lon="3.51278">
        <ele>166</ele>
        <time>2019-04-01T10:41:48Z</time>
      </trkpt>
      <trkpt lat="47.87318" lon="3.51282">
        <ele>165</ele>
        <time>2019-04-01T10:41:50Z</time>
      </trkpt>
      <trkpt lat="47.87317" lon="3.51289">
        <ele>166</ele>
        <time>2019-04-01T10:41:56Z</time>
      </trkpt>
      <trkpt lat="47.87317" lon="3.51289">
        <ele>166</ele>
        <time>2019-04-01T10:42:04Z</time>
      </trkpt>
      <trkpt lat="47.87317" lon="3.51289">
        <ele>166</ele>
        <time>2019-04-01T10:42:05Z</time>
      </trkpt>
      <trkpt lat="47.87318" lon="3.51297">
        <ele>165</ele>
        <time>2019-04-01T10:42:06Z</time>
      </trkpt>
      <trkpt lat="47.87318" lon="3.51302">
        <ele>164</ele>
        <time>2019-04-01T10:42:09Z</time>
      </trkpt>
      <trkpt lat="47.8732" lon="3.51311">
        <ele>164</ele>
        <time>2019-04-01T10:42:13Z</time>
      </trkpt>
      <trkpt lat="47.87321" lon="3.51318">
        <ele>164</ele>
        <time>2019-04-01T10:42:17Z</time>
      </trkpt>
      <trkpt lat="47.87323" lon="3.51324">
        <ele>165</ele>
        <time>2019-04-01T10:42:20Z</time>
      </trkpt>
      <trkpt lat="47.87324" lon="3.51327">
        <ele>165</ele>
        <time>2019-04-01T10:42:22Z</time>
      </trkpt>
      <trkpt lat="47.87326" lon="3.51334">
        <ele>165</ele>
        <time>2019-04-01T10:42:25Z</time>
      </trkpt>
      <trkpt lat="47.87326" lon="3.51341">
        <ele>164</ele>
        <time>2019-04-01T10:42:29Z</time>
      </trkpt>
      <trkpt lat="47.87326" lon="3.51348">
        <ele>165</ele>
        <time>2019-04-01T10:42:33Z</time>
      </trkpt>
      <trkpt lat="47.87327" lon="3.51352">
        <ele>165</ele>
        <time>2019-04-01T10:42:35Z</time>
      </trkpt>
      <trkpt lat="47.87328" lon="3.51359">
        <ele>166</ele>
        <time>2019-04-01T10:42:38Z</time>
      </trkpt>
      <trkpt lat="47.87329" lon="3.51363">
        <ele>167</ele>
        <time>2019-04-01T10:42:40Z</time>
      </trkpt>
      <trkpt lat="47.8733" lon="3.5137">
        <ele>166</ele>
        <time>2019-04-01T10:42:43Z</time>
      </trkpt>
      <trkpt lat="47.8733" lon="3.51375">
        <ele>166</ele>
        <time>2019-04-01T10:42:45Z</time>
      </trkpt>
      <trkpt lat="47.8733" lon="3.51379">
        <ele>165</ele>
        <time>2019-04-01T10:42:47Z</time>
      </trkpt>
      <trkpt lat="47.87331" lon="3.51388">
        <ele>166</ele>
        <time>2019-04-01T10:42:52Z</time>
      </trkpt>
      <trkpt lat="47.87331" lon="3.51392">
        <ele>166</ele>
        <time>2019-04-01T10:42:54Z</time>
      </trkpt>
      <trkpt lat="47.87333" lon="3.51398">
        <ele>166</ele>
        <time>2019-04-01T10:42:58Z</time>
      </trkpt>
      <trkpt lat="47.87335" lon="3.51404">
        <ele>167</ele>
        <time>2019-04-01T10:43:01Z</time>
      </trkpt>
      <trkpt lat="47.87337" lon="3.51414">
        <ele>166</ele>
        <time>2019-04-01T10:43:05Z</time>
      </trkpt>
      <trkpt lat="47.8734" lon="3.51421">
        <ele>167</ele>
        <time>2019-04-01T10:43:09Z</time>
      </trkpt>
      <trkpt lat="47.87341" lon="3.51427">
        <ele>166</ele>
        <time>2019-04-01T10:43:13Z</time>
      </trkpt>
      <trkpt lat="47.87344" lon="3.51437">
        <ele>165</ele>
        <time>2019-04-01T10:43:18Z</time>
      </trkpt>
      <trkpt lat="47.87343" lon="3.51444">
        <ele>165</ele>
        <time>2019-04-01T10:43:23Z</time>
      </trkpt>
      <trkpt lat="47.87345" lon="3.5145">
        <ele>165</ele>
        <time>2019-04-01T10:43:26Z</time>
      </trkpt>
      <trkpt lat="47.87346" lon="3.51458">
        <ele>164</ele>
        <time>2019-04-01T10:43:29Z</time>
      </trkpt>
      <trkpt lat="47.87347" lon="3.51463">
        <ele>163</ele>
        <time>2019-04-01T10:43:31Z</time>
      </trkpt>
      <trkpt lat="47.87348" lon="3.51468">
        <ele>162</ele>
        <time>2019-04-01T10:43:33Z</time>
      </trkpt>
      <trkpt lat="47.87349" lon="3.51472">
        <ele>162</ele>
        <time>2019-04-01T10:43:35Z</time>
      </trkpt>
      <trkpt lat="47.87349" lon="3.5148">
        <ele>163</ele>
        <time>2019-04-01T10:43:39Z</time>
      </trkpt>
      <trkpt lat="47.87349" lon="3.5148">
        <ele>163</ele>
        <time>2019-04-01T10:43:48Z</time>
      </trkpt>
      <trkpt lat="47.87349" lon="3.5148">
        <ele>163</ele>
        <time>2019-04-01T10:43:49Z</time>
      </trkpt>
      <trkpt lat="47.87345" lon="3.51474">
        <ele>160</ele>
        <time>2019-04-01T10:43:52Z</time>
      </trkpt>
      <trkpt lat="47.87343" lon="3.51472">
        <ele>160</ele>
        <time>2019-04-01T10:43:56Z</time>
      </trkpt>
      <trkpt lat="47.87338" lon="3.51468">
        <ele>161</ele>
        <time>2019-04-01T10:44:00Z</time>
      </trkpt>
      <trkpt lat="47.87336" lon="3.51467">
        <ele>161</ele>
        <time>2019-04-01T10:44:02Z</time>
      </trkpt>
      <trkpt lat="47.87331" lon="3.51463">
        <ele>162</ele>
        <time>2019-04-01T10:44:07Z</time>
      </trkpt>
      <trkpt lat="47.87325" lon="3.51461">
        <ele>163</ele>
        <time>2019-04-01T10:44:13Z</time>
      </trkpt>
      <trkpt lat="47.8732" lon="3.5146">
        <ele>163</ele>
        <time>2019-04-01T10:44:17Z</time>
      </trkpt>
      <trkpt lat="47.87315" lon="3.51458">
        <ele>162</ele>
        <time>2019-04-01T10:44:21Z</time>
      </trkpt>
      <trkpt lat="47.8731" lon="3.51455">
        <ele>162</ele>
        <time>2019-04-01T10:44:24Z</time>
      </trkpt>
      <trkpt lat="47.87306" lon="3.51454">
        <ele>163</ele>
        <time>2019-04-01T10:44:27Z</time>
      </trkpt>
      <trkpt lat="47.87303" lon="3.51453">
        <ele>164</ele>
        <time>2019-04-01T10:44:30Z</time>
      </trkpt>
      <trkpt lat="47.873" lon="3.51452">
        <ele>164</ele>
        <time>2019-04-01T10:44:34Z</time>
      </trkpt>
      <trkpt lat="47.87297" lon="3.51451">
        <ele>165</ele>
        <time>2019-04-01T10:44:36Z</time>
      </trkpt>
      <trkpt lat="47.87294" lon="3.51451">
        <ele>165</ele>
        <time>2019-04-01T10:44:39Z</time>
      </trkpt>
      <trkpt lat="47.87291" lon="3.5145">
        <ele>165</ele>
        <time>2019-04-01T10:44:42Z</time>
      </trkpt>
      <trkpt lat="47.87286" lon="3.5145">
        <ele>167</ele>
        <time>2019-04-01T10:44:46Z</time>
      </trkpt>
      <trkpt lat="47.87283" lon="3.5145">
        <ele>166</ele>
        <time>2019-04-01T10:44:49Z</time>
      </trkpt>
      <trkpt lat="47.87278" lon="3.51451">
        <ele>166</ele>
        <time>2019-04-01T10:44:55Z</time>
      </trkpt>
      <trkpt lat="47.87275" lon="3.51451">
        <ele>166</ele>
        <time>2019-04-01T10:44:57Z</time>
      </trkpt>
      <trkpt lat="47.87272" lon="3.51452">
        <ele>165</ele>
        <time>2019-04-01T10:44:59Z</time>
      </trkpt>
      <trkpt lat="47.87267" lon="3.5145">
        <ele>166</ele>
        <time>2019-04-01T10:45:03Z</time>
      </trkpt>
      <trkpt lat="47.87263" lon="3.51452">
        <ele>165</ele>
        <time>2019-04-01T10:45:06Z</time>
      </trkpt>
      <trkpt lat="47.87257" lon="3.51454">
        <ele>166</ele>
        <time>2019-04-01T10:45:09Z</time>
      </trkpt>
      <trkpt lat="47.87254" lon="3.51454">
        <ele>166</ele>
        <time>2019-04-01T10:45:11Z</time>
      </trkpt>
      <trkpt lat="47.87252" lon="3.51455">
        <ele>166</ele>
        <time>2019-04-01T10:45:13Z</time>
      </trkpt>
      <trkpt lat="47.87248" lon="3.51457">
        <ele>165</ele>
        <time>2019-04-01T10:45:15Z</time>
      </trkpt>
      <trkpt lat="47.87243" lon="3.51458">
        <ele>166</ele>
        <time>2019-04-01T10:45:19Z</time>
      </trkpt>
      <trkpt lat="47.87236" lon="3.51459">
        <ele>165</ele>
        <time>2019-04-01T10:45:24Z</time>
      </trkpt>
      <trkpt lat="47.87232" lon="3.51462">
        <ele>165</ele>
        <time>2019-04-01T10:45:27Z</time>
      </trkpt>
      <trkpt lat="47.87227" lon="3.51466">
        <ele>164</ele>
        <time>2019-04-01T10:45:31Z</time>
      </trkpt>
      <trkpt lat="47.87223" lon="3.51467">
        <ele>164</ele>
        <time>2019-04-01T10:45:34Z</time>
      </trkpt>
      <trkpt lat="47.87217" lon="3.51471">
        <ele>166</ele>
        <time>2019-04-01T10:45:39Z</time>
      </trkpt>
      <trkpt lat="47.87214" lon="3.51474">
        <ele>166</ele>
        <time>2019-04-01T10:45:42Z</time>
      </trkpt>
      <trkpt lat="47.8721" lon="3.51476">
        <ele>166</ele>
        <time>2019-04-01T10:45:45Z</time>
      </trkpt>
      <trkpt lat="47.87207" lon="3.51481">
        <ele>166</ele>
        <time>2019-04-01T10:45:49Z</time>
      </trkpt>
      <trkpt lat="47.87203" lon="3.51486">
        <ele>168</ele>
        <time>2019-04-01T10:45:54Z</time>
      </trkpt>
      <trkpt lat="47.872" lon="3.5149">
        <ele>168</ele>
        <time>2019-04-01T10:45:58Z</time>
      </trkpt>
      <trkpt lat="47.87193" lon="3.51493">
        <ele>169</ele>
        <time>2019-04-01T10:46:03Z</time>
      </trkpt>
      <trkpt lat="47.87189" lon="3.51496">
        <ele>169</ele>
        <time>2019-04-01T10:46:08Z</time>
      </trkpt>
      <trkpt lat="47.87184" lon="3.515">
        <ele>170</ele>
        <time>2019-04-01T10:46:13Z</time>
      </trkpt>
      <trkpt lat="47.87182" lon="3.51502">
        <ele>169</ele>
        <time>2019-04-01T10:46:15Z</time>
      </trkpt>
      <trkpt lat="47.87178" lon="3.51504">
        <ele>172</ele>
        <time>2019-04-01T10:46:19Z</time>
      </trkpt>
      <trkpt lat="47.87173" lon="3.51507">
        <ele>172</ele>
        <time>2019-04-01T10:46:23Z</time>
      </trkpt>
      <trkpt lat="47.87168" lon="3.51511">
        <ele>173</ele>
        <time>2019-04-01T10:46:28Z</time>
      </trkpt>
      <trkpt lat="47.87163" lon="3.51512">
        <ele>173</ele>
        <time>2019-04-01T10:46:32Z</time>
      </trkpt>
      <trkpt lat="47.8716" lon="3.51513">
        <ele>173</ele>
        <time>2019-04-01T10:46:34Z</time>
      </trkpt>
      <trkpt lat="47.87155" lon="3.51516">
        <ele>173</ele>
        <time>2019-04-01T10:46:38Z</time>
      </trkpt>
      <trkpt lat="47.87152" lon="3.51519">
        <ele>173</ele>
        <time>2019-04-01T10:46:40Z</time>
      </trkpt>
      <trkpt lat="47.87147" lon="3.51521">
        <ele>173</ele>
        <time>2019-04-01T10:46:44Z</time>
      </trkpt>
      <trkpt lat="47.87143" lon="3.51525">
        <ele>174</ele>
        <time>2019-04-01T10:46:48Z</time>
      </trkpt>
      <trkpt lat="47.87138" lon="3.51528">
        <ele>173</ele>
        <time>2019-04-01T10:46:52Z</time>
      </trkpt>
      <trkpt lat="47.87134" lon="3.5153">
        <ele>175</ele>
        <time>2019-04-01T10:46:58Z</time>
      </trkpt>
      <trkpt lat="47.8713" lon="3.51532">
        <ele>176</ele>
        <time>2019-04-01T10:47:01Z</time>
      </trkpt>
      <trkpt lat="47.87127" lon="3.51533">
        <ele>177</ele>
        <time>2019-04-01T10:47:04Z</time>
      </trkpt>
      <trkpt lat="47.87124" lon="3.51534">
        <ele>178</ele>
        <time>2019-04-01T10:47:06Z</time>
      </trkpt>
      <trkpt lat="47.87119" lon="3.51535">
        <ele>179</ele>
        <time>2019-04-01T10:47:09Z</time>
      </trkpt>
      <trkpt lat="47.87114" lon="3.51538">
        <ele>179</ele>
        <time>2019-04-01T10:47:13Z</time>
      </trkpt>
      <trkpt lat="47.87109" lon="3.51539">
        <ele>180</ele>
        <time>2019-04-01T10:47:17Z</time>
      </trkpt>
      <trkpt lat="47.87103" lon="3.51541">
        <ele>180</ele>
        <time>2019-04-01T10:47:23Z</time>
      </trkpt>
      <trkpt lat="47.87099" lon="3.51544">
        <ele>180</ele>
        <time>2019-04-01T10:47:27Z</time>
      </trkpt>
      <trkpt lat="47.87094" lon="3.51546">
        <ele>180</ele>
        <time>2019-04-01T10:47:31Z</time>
      </trkpt>
      <trkpt lat="47.87088" lon="3.51548">
        <ele>179</ele>
        <time>2019-04-01T10:47:35Z</time>
      </trkpt>
      <trkpt lat="47.87085" lon="3.51549">
        <ele>179</ele>
        <time>2019-04-01T10:47:38Z</time>
      </trkpt>
      <trkpt lat="47.87082" lon="3.51551">
        <ele>180</ele>
        <time>2019-04-01T10:47:40Z</time>
      </trkpt>
      <trkpt lat="47.8708" lon="3.51552">
        <ele>180</ele>
        <time>2019-04-01T10:47:42Z</time>
      </trkpt>
      <trkpt lat="47.87077" lon="3.51554">
        <ele>180</ele>
        <time>2019-04-01T10:47:45Z</time>
      </trkpt>
      <trkpt lat="47.87072" lon="3.51554">
        <ele>178</ele>
        <time>2019-04-01T10:47:49Z</time>
      </trkpt>
      <trkpt lat="47.87067" lon="3.51556">
        <ele>177</ele>
        <time>2019-04-01T10:47:54Z</time>
      </trkpt>
      <trkpt lat="47.87063" lon="3.51558">
        <ele>176</ele>
        <time>2019-04-01T10:47:57Z</time>
      </trkpt>
      <trkpt lat="47.8706" lon="3.5156">
        <ele>176</ele>
        <time>2019-04-01T10:47:59Z</time>
      </trkpt>
      <trkpt lat="47.87057" lon="3.51561">
        <ele>176</ele>
        <time>2019-04-01T10:48:01Z</time>
      </trkpt>
      <trkpt lat="47.87051" lon="3.51562">
        <ele>178</ele>
        <time>2019-04-01T10:48:05Z</time>
      </trkpt>
      <trkpt lat="47.87047" lon="3.51565">
        <ele>178</ele>
        <time>2019-04-01T10:48:09Z</time>
      </trkpt>
      <trkpt lat="47.87042" lon="3.51567">
        <ele>178</ele>
        <time>2019-04-01T10:48:13Z</time>
      </trkpt>
      <trkpt lat="47.87037" lon="3.51569">
        <ele>179</ele>
        <time>2019-04-01T10:48:16Z</time>
      </trkpt>
      <trkpt lat="47.87035" lon="3.51571">
        <ele>178</ele>
        <time>2019-04-01T10:48:18Z</time>
      </trkpt>
      <trkpt lat="47.8703" lon="3.51572">
        <ele>178</ele>
        <time>2019-04-01T10:48:21Z</time>
      </trkpt>
      <trkpt lat="47.87025" lon="3.51574">
        <ele>177</ele>
        <time>2019-04-01T10:48:25Z</time>
      </trkpt>
      <trkpt lat="47.8702" lon="3.51577">
        <ele>176</ele>
        <time>2019-04-01T10:48:28Z</time>
      </trkpt>
      <trkpt lat="47.87015" lon="3.51578">
        <ele>176</ele>
        <time>2019-04-01T10:48:33Z</time>
      </trkpt>
      <trkpt lat="47.87012" lon="3.51582">
        <ele>175</ele>
        <time>2019-04-01T10:48:42Z</time>
      </trkpt>
      <trkpt lat="47.87008" lon="3.51583">
        <ele>175</ele>
        <time>2019-04-01T10:48:48Z</time>
      </trkpt>
      <trkpt lat="47.87003" lon="3.51586">
        <ele>175</ele>
        <time>2019-04-01T10:48:52Z</time>
      </trkpt>
      <trkpt lat="47.86999" lon="3.51588">
        <ele>175</ele>
        <time>2019-04-01T10:48:55Z</time>
      </trkpt>
      <trkpt lat="47.86994" lon="3.51589">
        <ele>174</ele>
        <time>2019-04-01T10:49:00Z</time>
      </trkpt>
      <trkpt lat="47.86991" lon="3.51589">
        <ele>175</ele>
        <time>2019-04-01T10:49:02Z</time>
      </trkpt>
      <trkpt lat="47.86985" lon="3.5159">
        <ele>176</ele>
        <time>2019-04-01T10:49:07Z</time>
      </trkpt>
      <trkpt lat="47.8698" lon="3.51592">
        <ele>177</ele>
        <time>2019-04-01T10:49:11Z</time>
      </trkpt>
      <trkpt lat="47.86975" lon="3.51593">
        <ele>178</ele>
        <time>2019-04-01T10:49:15Z</time>
      </trkpt>
      <trkpt lat="47.86972" lon="3.51599">
        <ele>176</ele>
        <time>2019-04-01T10:49:18Z</time>
      </trkpt>
      <trkpt lat="47.86968" lon="3.51603">
        <ele>174</ele>
        <time>2019-04-01T10:49:21Z</time>
      </trkpt>
      <trkpt lat="47.86964" lon="3.51608">
        <ele>173</ele>
        <time>2019-04-01T10:49:24Z</time>
      </trkpt>
      <trkpt lat="47.86958" lon="3.5161">
        <ele>174</ele>
        <time>2019-04-01T10:49:29Z</time>
      </trkpt>
      <trkpt lat="47.86953" lon="3.51611">
        <ele>175</ele>
        <time>2019-04-01T10:49:33Z</time>
      </trkpt>
      <trkpt lat="47.8695" lon="3.51611">
        <ele>177</ele>
        <time>2019-04-01T10:49:36Z</time>
      </trkpt>
      <trkpt lat="47.86945" lon="3.51613">
        <ele>177</ele>
        <time>2019-04-01T10:49:40Z</time>
      </trkpt>
      <trkpt lat="47.8694" lon="3.51615">
        <ele>178</ele>
        <time>2019-04-01T10:49:45Z</time>
      </trkpt>
      <trkpt lat="47.86936" lon="3.51619">
        <ele>179</ele>
        <time>2019-04-01T10:49:49Z</time>
      </trkpt>
      <trkpt lat="47.86931" lon="3.51622">
        <ele>178</ele>
        <time>2019-04-01T10:49:53Z</time>
      </trkpt>
      <trkpt lat="47.86928" lon="3.51624">
        <ele>177</ele>
        <time>2019-04-01T10:49:55Z</time>
      </trkpt>
      <trkpt lat="47.86924" lon="3.51626">
        <ele>177</ele>
        <time>2019-04-01T10:50:00Z</time>
      </trkpt>
      <trkpt lat="47.8692" lon="3.51627">
        <ele>177</ele>
        <time>2019-04-01T10:50:03Z</time>
      </trkpt>
      <trkpt lat="47.86916" lon="3.5163">
        <ele>176</ele>
        <time>2019-04-01T10:50:07Z</time>
      </trkpt>
      <trkpt lat="47.86912" lon="3.51632">
        <ele>177</ele>
        <time>2019-04-01T10:50:10Z</time>
      </trkpt>
      <trkpt lat="47.86907" lon="3.51635">
        <ele>175</ele>
        <time>2019-04-01T10:50:14Z</time>
      </trkpt>
      <trkpt lat="47.86904" lon="3.51637">
        <ele>175</ele>
        <time>2019-04-01T10:50:17Z</time>
      </trkpt>
      <trkpt lat="47.86901" lon="3.51638">
        <ele>175</ele>
        <time>2019-04-01T10:50:19Z</time>
      </trkpt>
      <trkpt lat="47.86896" lon="3.51642">
        <ele>174</ele>
        <time>2019-04-01T10:50:23Z</time>
      </trkpt>
      <trkpt lat="47.86891" lon="3.51644">
        <ele>175</ele>
        <time>2019-04-01T10:50:27Z</time>
      </trkpt>
      <trkpt lat="47.86886" lon="3.51647">
        <ele>176</ele>
        <time>2019-04-01T10:50:32Z</time>
      </trkpt>
      <trkpt lat="47.86883" lon="3.5165">
        <ele>175</ele>
        <time>2019-04-01T10:50:36Z</time>
      </trkpt>
      <trkpt lat="47.8688" lon="3.51652">
        <ele>174</ele>
        <time>2019-04-01T10:50:38Z</time>
      </trkpt>
      <trkpt lat="47.86876" lon="3.51654">
        <ele>174</ele>
        <time>2019-04-01T10:50:41Z</time>
      </trkpt>
      <trkpt lat="47.8687" lon="3.51658">
        <ele>175</ele>
        <time>2019-04-01T10:50:45Z</time>
      </trkpt>
      <trkpt lat="47.86865" lon="3.5166">
        <ele>174</ele>
        <time>2019-04-01T10:50:48Z</time>
      </trkpt>
      <trkpt lat="47.86859" lon="3.5166">
        <ele>173</ele>
        <time>2019-04-01T10:50:53Z</time>
      </trkpt>
      <trkpt lat="47.86855" lon="3.51665">
        <ele>174</ele>
        <time>2019-04-01T10:50:57Z</time>
      </trkpt>
      <trkpt lat="47.86851" lon="3.51669">
        <ele>173</ele>
        <time>2019-04-01T10:51:01Z</time>
      </trkpt>
      <trkpt lat="47.86847" lon="3.51673">
        <ele>172</ele>
        <time>2019-04-01T10:51:05Z</time>
      </trkpt>
      <trkpt lat="47.86842" lon="3.51676">
        <ele>172</ele>
        <time>2019-04-01T10:51:09Z</time>
      </trkpt>
      <trkpt lat="47.86837" lon="3.5168">
        <ele>172</ele>
        <time>2019-04-01T10:51:14Z</time>
      </trkpt>
      <trkpt lat="47.86832" lon="3.51682">
        <ele>172</ele>
        <time>2019-04-01T10:51:19Z</time>
      </trkpt>
      <trkpt lat="47.86828" lon="3.51685">
        <ele>171</ele>
        <time>2019-04-01T10:51:23Z</time>
      </trkpt>
      <trkpt lat="47.86825" lon="3.51688">
        <ele>171</ele>
        <time>2019-04-01T10:51:25Z</time>
      </trkpt>
      <trkpt lat="47.86822" lon="3.51693">
        <ele>169</ele>
        <time>2019-04-01T10:51:29Z</time>
      </trkpt>
      <trkpt lat="47.86818" lon="3.51697">
        <ele>167</ele>
        <time>2019-04-01T10:51:33Z</time>
      </trkpt>
      <trkpt lat="47.86815" lon="3.51699">
        <ele>169</ele>
        <time>2019-04-01T10:51:36Z</time>
      </trkpt>
      <trkpt lat="47.86813" lon="3.51701">
        <ele>169</ele>
        <time>2019-04-01T10:51:39Z</time>
      </trkpt>
      <trkpt lat="47.86807" lon="3.51704">
        <ele>169</ele>
        <time>2019-04-01T10:51:44Z</time>
      </trkpt>
      <trkpt lat="47.86801" lon="3.51704">
        <ele>170</ele>
        <time>2019-04-01T10:51:48Z</time>
      </trkpt>
      <trkpt lat="47.86794" lon="3.51703">
        <ele>171</ele>
        <time>2019-04-01T10:51:54Z</time>
      </trkpt>
      <trkpt lat="47.86789" lon="3.51703">
        <ele>172</ele>
        <time>2019-04-01T10:51:58Z</time>
      </trkpt>
      <trkpt lat="47.86785" lon="3.51703">
        <ele>172</ele>
        <time>2019-04-01T10:52:01Z</time>
      </trkpt>
      <trkpt lat="47.8678" lon="3.51702">
        <ele>174</ele>
        <time>2019-04-01T10:52:05Z</time>
      </trkpt>
      <trkpt lat="47.86774" lon="3.51703">
        <ele>174</ele>
        <time>2019-04-01T10:52:09Z</time>
      </trkpt>
      <trkpt lat="47.8677" lon="3.51704">
        <ele>173</ele>
        <time>2019-04-01T10:52:13Z</time>
      </trkpt>
      <trkpt lat="47.86766" lon="3.51704">
        <ele>173</ele>
        <time>2019-04-01T10:52:17Z</time>
      </trkpt>
      <trkpt lat="47.8676" lon="3.51704">
        <ele>172</ele>
        <time>2019-04-01T10:52:23Z</time>
      </trkpt>
      <trkpt lat="47.86755" lon="3.51703">
        <ele>171</ele>
        <time>2019-04-01T10:52:28Z</time>
      </trkpt>
      <trkpt lat="47.86749" lon="3.51702">
        <ele>172</ele>
        <time>2019-04-01T10:52:33Z</time>
      </trkpt>
      <trkpt lat="47.86745" lon="3.51699">
        <ele>171</ele>
        <time>2019-04-01T10:52:36Z</time>
      </trkpt>
      <trkpt lat="47.8674" lon="3.51697">
        <ele>170</ele>
        <time>2019-04-01T10:52:40Z</time>
      </trkpt>
      <trkpt lat="47.86735" lon="3.51695">
        <ele>170</ele>
        <time>2019-04-01T10:52:44Z</time>
      </trkpt>
      <trkpt lat="47.8673" lon="3.51694">
        <ele>168</ele>
        <time>2019-04-01T10:52:49Z</time>
      </trkpt>
      <trkpt lat="47.86725" lon="3.51691">
        <ele>170</ele>
        <time>2019-04-01T10:52:54Z</time>
      </trkpt>
      <trkpt lat="47.8672" lon="3.51688">
        <ele>171</ele>
        <time>2019-04-01T10:52:58Z</time>
      </trkpt>
      <trkpt lat="47.86714" lon="3.51687">
        <ele>172</ele>
        <time>2019-04-01T10:53:02Z</time>
      </trkpt>
      <trkpt lat="47.86708" lon="3.51687">
        <ele>171</ele>
        <time>2019-04-01T10:53:08Z</time>
      </trkpt>
      <trkpt lat="47.86704" lon="3.51684">
        <ele>171</ele>
        <time>2019-04-01T10:53:11Z</time>
      </trkpt>
      <trkpt lat="47.86699" lon="3.51683">
        <ele>172</ele>
        <time>2019-04-01T10:53:14Z</time>
      </trkpt>
      <trkpt lat="47.86694" lon="3.5168">
        <ele>172</ele>
        <time>2019-04-01T10:53:18Z</time>
      </trkpt>
      <trkpt lat="47.86692" lon="3.5168">
        <ele>172</ele>
        <time>2019-04-01T10:53:20Z</time>
      </trkpt>
      <trkpt lat="47.86687" lon="3.51676">
        <ele>172</ele>
        <time>2019-04-01T10:53:23Z</time>
      </trkpt>
      <trkpt lat="47.86682" lon="3.51675">
        <ele>173</ele>
        <time>2019-04-01T10:53:27Z</time>
      </trkpt>
      <trkpt lat="47.86679" lon="3.51675">
        <ele>172</ele>
        <time>2019-04-01T10:53:30Z</time>
      </trkpt>
      <trkpt lat="47.86677" lon="3.51674">
        <ele>172</ele>
        <time>2019-04-01T10:53:32Z</time>
      </trkpt>
      <trkpt lat="47.86671" lon="3.51674">
        <ele>172</ele>
        <time>2019-04-01T10:53:37Z</time>
      </trkpt>
      <trkpt lat="47.86666" lon="3.51672">
        <ele>173</ele>
        <time>2019-04-01T10:53:40Z</time>
      </trkpt>
      <trkpt lat="47.86662" lon="3.51671">
        <ele>172</ele>
        <time>2019-04-01T10:53:42Z</time>
      </trkpt>
      <trkpt lat="47.8666" lon="3.5167">
        <ele>172</ele>
        <time>2019-04-01T10:53:44Z</time>
      </trkpt>
      <trkpt lat="47.86655" lon="3.51668">
        <ele>171</ele>
        <time>2019-04-01T10:53:47Z</time>
      </trkpt>
      <trkpt lat="47.86651" lon="3.51668">
        <ele>171</ele>
        <time>2019-04-01T10:53:50Z</time>
      </trkpt>
      <trkpt lat="47.86647" lon="3.51666">
        <ele>171</ele>
        <time>2019-04-01T10:53:54Z</time>
      </trkpt>
      <trkpt lat="47.86642" lon="3.51666">
        <ele>171</ele>
        <time>2019-04-01T10:53:57Z</time>
      </trkpt>
      <trkpt lat="47.8664" lon="3.51666">
        <ele>170</ele>
        <time>2019-04-01T10:53:59Z</time>
      </trkpt>
      <trkpt lat="47.86635" lon="3.51667">
        <ele>170</ele>
        <time>2019-04-01T10:54:02Z</time>
      </trkpt>
      <trkpt lat="47.8663" lon="3.51666">
        <ele>171</ele>
        <time>2019-04-01T10:54:05Z</time>
      </trkpt>
      <trkpt lat="47.86624" lon="3.51669">
        <ele>169</ele>
        <time>2019-04-01T10:54:08Z</time>
      </trkpt>
      <trkpt lat="47.8662" lon="3.51677">
        <ele>167</ele>
        <time>2019-04-01T10:54:11Z</time>
      </trkpt>
      <trkpt lat="47.86618" lon="3.51685">
        <ele>167</ele>
        <time>2019-04-01T10:54:15Z</time>
      </trkpt>
      <trkpt lat="47.86615" lon="3.51691">
        <ele>166</ele>
        <time>2019-04-01T10:54:21Z</time>
      </trkpt>
      <trkpt lat="47.8661" lon="3.51692">
        <ele>167</ele>
        <time>2019-04-01T10:54:25Z</time>
      </trkpt>
      <trkpt lat="47.86608" lon="3.51681">
        <ele>161</ele>
        <time>2019-04-01T10:54:42Z</time>
      </trkpt>
      <trkpt lat="47.86604" lon="3.51675">
        <ele>160</ele>
        <time>2019-04-01T10:54:48Z</time>
      </trkpt>
      <trkpt lat="47.866" lon="3.51671">
        <ele>160</ele>
        <time>2019-04-01T10:54:53Z</time>
      </trkpt>
      <trkpt lat="47.86596" lon="3.51669">
        <ele>161</ele>
        <time>2019-04-01T10:54:57Z</time>
      </trkpt>
      <trkpt lat="47.86593" lon="3.51667">
        <ele>161</ele>
        <time>2019-04-01T10:55:00Z</time>
      </trkpt>
      <trkpt lat="47.86588" lon="3.51665">
        <ele>160</ele>
        <time>2019-04-01T10:55:04Z</time>
      </trkpt>
      <trkpt lat="47.86584" lon="3.51663">
        <ele>161</ele>
        <time>2019-04-01T10:55:07Z</time>
      </trkpt>
      <trkpt lat="47.86581" lon="3.5166">
        <ele>162</ele>
        <time>2019-04-01T10:55:09Z</time>
      </trkpt>
      <trkpt lat="47.86579" lon="3.51659">
        <ele>161</ele>
        <time>2019-04-01T10:55:11Z</time>
      </trkpt>
      <trkpt lat="47.86573" lon="3.51656">
        <ele>159</ele>
        <time>2019-04-01T10:55:15Z</time>
      </trkpt>
      <trkpt lat="47.8657" lon="3.51654">
        <ele>159</ele>
        <time>2019-04-01T10:55:17Z</time>
      </trkpt>
      <trkpt lat="47.86568" lon="3.51653">
        <ele>160</ele>
        <time>2019-04-01T10:55:19Z</time>
      </trkpt>
      <trkpt lat="47.86562" lon="3.51649">
        <ele>160</ele>
        <time>2019-04-01T10:55:22Z</time>
      </trkpt>
      <trkpt lat="47.86557" lon="3.51647">
        <ele>159</ele>
        <time>2019-04-01T10:55:25Z</time>
      </trkpt>
      <trkpt lat="47.86555" lon="3.51646">
        <ele>159</ele>
        <time>2019-04-01T10:55:27Z</time>
      </trkpt>
      <trkpt lat="47.86552" lon="3.51644">
        <ele>159</ele>
        <time>2019-04-01T10:55:29Z</time>
      </trkpt>
      <trkpt lat="47.86547" lon="3.51642">
        <ele>160</ele>
        <time>2019-04-01T10:55:33Z</time>
      </trkpt>
      <trkpt lat="47.86542" lon="3.51638">
        <ele>161</ele>
        <time>2019-04-01T10:55:36Z</time>
      </trkpt>
      <trkpt lat="47.86537" lon="3.51636">
        <ele>161</ele>
        <time>2019-04-01T10:55:40Z</time>
      </trkpt>
      <trkpt lat="47.86533" lon="3.51635">
        <ele>161</ele>
        <time>2019-04-01T10:55:42Z</time>
      </trkpt>
      <trkpt lat="47.8653" lon="3.51634">
        <ele>162</ele>
        <time>2019-04-01T10:55:44Z</time>
      </trkpt>
      <trkpt lat="47.86526" lon="3.51632">
        <ele>162</ele>
        <time>2019-04-01T10:55:47Z</time>
      </trkpt>
      <trkpt lat="47.86523" lon="3.5163">
        <ele>162</ele>
        <time>2019-04-01T10:55:50Z</time>
      </trkpt>
      <trkpt lat="47.86516" lon="3.51625">
        <ele>161</ele>
        <time>2019-04-01T10:55:56Z</time>
      </trkpt>
      <trkpt lat="47.86512" lon="3.51621">
        <ele>159</ele>
        <time>2019-04-01T10:56:00Z</time>
      </trkpt>
      <trkpt lat="47.8651" lon="3.51619">
        <ele>159</ele>
        <time>2019-04-01T10:56:02Z</time>
      </trkpt>
      <trkpt lat="47.86505" lon="3.51615">
        <ele>158</ele>
        <time>2019-04-01T10:56:07Z</time>
      </trkpt>
      <trkpt lat="47.86502" lon="3.51614">
        <ele>157</ele>
        <time>2019-04-01T10:56:09Z</time>
      </trkpt>
      <trkpt lat="47.86499" lon="3.51612">
        <ele>157</ele>
        <time>2019-04-01T10:56:11Z</time>
      </trkpt>
      <trkpt lat="47.86496" lon="3.5161">
        <ele>157</ele>
        <time>2019-04-01T10:56:13Z</time>
      </trkpt>
      <trkpt lat="47.86492" lon="3.51607">
        <ele>157</ele>
        <time>2019-04-01T10:56:16Z</time>
      </trkpt>
      <trkpt lat="47.8649" lon="3.51606">
        <ele>157</ele>
        <time>2019-04-01T10:56:18Z</time>
      </trkpt>
      <trkpt lat="47.86486" lon="3.51604">
        <ele>155</ele>
        <time>2019-04-01T10:56:21Z</time>
      </trkpt>
      <trkpt lat="47.8648" lon="3.516">
        <ele>154</ele>
        <time>2019-04-01T10:56:26Z</time>
      </trkpt>
      <trkpt lat="47.86475" lon="3.51597">
        <ele>154</ele>
        <time>2019-04-01T10:56:31Z</time>
      </trkpt>
      <trkpt lat="47.8647" lon="3.51594">
        <ele>153</ele>
        <time>2019-04-01T10:56:35Z</time>
      </trkpt>
      <trkpt lat="47.86468" lon="3.51591">
        <ele>153</ele>
        <time>2019-04-01T10:56:37Z</time>
      </trkpt>
      <trkpt lat="47.86465" lon="3.51589">
        <ele>152</ele>
        <time>2019-04-01T10:56:39Z</time>
      </trkpt>
      <trkpt lat="47.86458" lon="3.51585">
        <ele>152</ele>
        <time>2019-04-01T10:56:43Z</time>
      </trkpt>
      <trkpt lat="47.86454" lon="3.5158">
        <ele>153</ele>
        <time>2019-04-01T10:56:48Z</time>
      </trkpt>
      <trkpt lat="47.86451" lon="3.51578">
        <ele>155</ele>
        <time>2019-04-01T10:56:52Z</time>
      </trkpt>
      <trkpt lat="47.86448" lon="3.51575">
        <ele>155</ele>
        <time>2019-04-01T10:56:54Z</time>
      </trkpt>
      <trkpt lat="47.86443" lon="3.51573">
        <ele>155</ele>
        <time>2019-04-01T10:56:58Z</time>
      </trkpt>
      <trkpt lat="47.86441" lon="3.51571">
        <ele>155</ele>
        <time>2019-04-01T10:57:00Z</time>
      </trkpt>
      <trkpt lat="47.86437" lon="3.51569">
        <ele>156</ele>
        <time>2019-04-01T10:57:04Z</time>
      </trkpt>
      <trkpt lat="47.86432" lon="3.51566">
        <ele>155</ele>
        <time>2019-04-01T10:57:08Z</time>
      </trkpt>
      <trkpt lat="47.86428" lon="3.51561">
        <ele>155</ele>
        <time>2019-04-01T10:57:13Z</time>
      </trkpt>
      <trkpt lat="47.86426" lon="3.51559">
        <ele>155</ele>
        <time>2019-04-01T10:57:15Z</time>
      </trkpt>
      <trkpt lat="47.86423" lon="3.51556">
        <ele>156</ele>
        <time>2019-04-01T10:57:19Z</time>
      </trkpt>
      <trkpt lat="47.86421" lon="3.51554">
        <ele>156</ele>
        <time>2019-04-01T10:57:21Z</time>
      </trkpt>
      <trkpt lat="47.86418" lon="3.51549">
        <ele>155</ele>
        <time>2019-04-01T10:57:24Z</time>
      </trkpt>
      <trkpt lat="47.86415" lon="3.51546">
        <ele>155</ele>
        <time>2019-04-01T10:57:26Z</time>
      </trkpt>
      <trkpt lat="47.8641" lon="3.51543">
        <ele>156</ele>
        <time>2019-04-01T10:57:30Z</time>
      </trkpt>
      <trkpt lat="47.86406" lon="3.5154">
        <ele>156</ele>
        <time>2019-04-01T10:57:33Z</time>
      </trkpt>
      <trkpt lat="47.86401" lon="3.51537">
        <ele>157</ele>
        <time>2019-04-01T10:57:36Z</time>
      </trkpt>
      <trkpt lat="47.86397" lon="3.51532">
        <ele>156</ele>
        <time>2019-04-01T10:57:39Z</time>
      </trkpt>
      <trkpt lat="47.86393" lon="3.51528">
        <ele>157</ele>
        <time>2019-04-01T10:57:43Z</time>
      </trkpt>
      <trkpt lat="47.86389" lon="3.51525">
        <ele>155</ele>
        <time>2019-04-01T10:57:46Z</time>
      </trkpt>
      <trkpt lat="47.86385" lon="3.51522">
        <ele>154</ele>
        <time>2019-04-01T10:57:49Z</time>
      </trkpt>
      <trkpt lat="47.86378" lon="3.51518">
        <ele>154</ele>
        <time>2019-04-01T10:57:54Z</time>
      </trkpt>
      <trkpt lat="47.86375" lon="3.51517">
        <ele>154</ele>
        <time>2019-04-01T10:57:57Z</time>
      </trkpt>
      <trkpt lat="47.8637" lon="3.51513">
        <ele>154</ele>
        <time>2019-04-01T10:58:02Z</time>
      </trkpt>
      <trkpt lat="47.86365" lon="3.51509">
        <ele>154</ele>
        <time>2019-04-01T10:58:05Z</time>
      </trkpt>
      <trkpt lat="47.86361" lon="3.51505">
        <ele>155</ele>
        <time>2019-04-01T10:58:09Z</time>
      </trkpt>
      <trkpt lat="47.86357" lon="3.51501">
        <ele>155</ele>
        <time>2019-04-01T10:58:14Z</time>
      </trkpt>
      <trkpt lat="47.86351" lon="3.51497">
        <ele>154</ele>
        <time>2019-04-01T10:58:19Z</time>
      </trkpt>
      <trkpt lat="47.86343" lon="3.51491">
        <ele>154</ele>
        <time>2019-04-01T10:58:26Z</time>
      </trkpt>
      <trkpt lat="47.86339" lon="3.51487">
        <ele>153</ele>
        <time>2019-04-01T10:58:29Z</time>
      </trkpt>
      <trkpt lat="47.86333" lon="3.51481">
        <ele>151</ele>
        <time>2019-04-01T10:58:34Z</time>
      </trkpt>
      <trkpt lat="47.86331" lon="3.51478">
        <ele>150</ele>
        <time>2019-04-01T10:58:36Z</time>
      </trkpt>
      <trkpt lat="47.86326" lon="3.51473">
        <ele>149</ele>
        <time>2019-04-01T10:58:40Z</time>
      </trkpt>
      <trkpt lat="47.8632" lon="3.5147">
        <ele>149</ele>
        <time>2019-04-01T10:58:45Z</time>
      </trkpt>
      <trkpt lat="47.86316" lon="3.51466">
        <ele>149</ele>
        <time>2019-04-01T10:58:48Z</time>
      </trkpt>
      <trkpt lat="47.86311" lon="3.51462">
        <ele>150</ele>
        <time>2019-04-01T10:58:51Z</time>
      </trkpt>
      <trkpt lat="47.86309" lon="3.51461">
        <ele>150</ele>
        <time>2019-04-01T10:58:53Z</time>
      </trkpt>
      <trkpt lat="47.86304" lon="3.51458">
        <ele>149</ele>
        <time>2019-04-01T10:58:57Z</time>
      </trkpt>
      <trkpt lat="47.86298" lon="3.51451">
        <ele>149</ele>
        <time>2019-04-01T10:59:03Z</time>
      </trkpt>
      <trkpt lat="47.86295" lon="3.51446">
        <ele>147</ele>
        <time>2019-04-01T10:59:07Z</time>
      </trkpt>
      <trkpt lat="47.86293" lon="3.51438">
        <ele>150</ele>
        <time>2019-04-01T10:59:13Z</time>
      </trkpt>
      <trkpt lat="47.86289" lon="3.51433">
        <ele>150</ele>
        <time>2019-04-01T10:59:17Z</time>
      </trkpt>
      <trkpt lat="47.86285" lon="3.51425">
        <ele>152</ele>
        <time>2019-04-01T10:59:22Z</time>
      </trkpt>
      <trkpt lat="47.86282" lon="3.51418">
        <ele>152</ele>
        <time>2019-04-01T10:59:27Z</time>
      </trkpt>
      <trkpt lat="47.86278" lon="3.51413">
        <ele>153</ele>
        <time>2019-04-01T10:59:30Z</time>
      </trkpt>
      <trkpt lat="47.86273" lon="3.5141">
        <ele>152</ele>
        <time>2019-04-01T10:59:34Z</time>
      </trkpt>
      <trkpt lat="47.86269" lon="3.51403">
        <ele>152</ele>
        <time>2019-04-01T10:59:40Z</time>
      </trkpt>
      <trkpt lat="47.86266" lon="3.51397">
        <ele>153</ele>
        <time>2019-04-01T10:59:43Z</time>
      </trkpt>
      <trkpt lat="47.86264" lon="3.51391">
        <ele>155</ele>
        <time>2019-04-01T10:59:47Z</time>
      </trkpt>
      <trkpt lat="47.86263" lon="3.51388">
        <ele>156</ele>
        <time>2019-04-01T10:59:49Z</time>
      </trkpt>
      <trkpt lat="47.8626" lon="3.51383">
        <ele>157</ele>
        <time>2019-04-01T10:59:53Z</time>
      </trkpt>
      <trkpt lat="47.86258" lon="3.5138">
        <ele>156</ele>
        <time>2019-04-01T10:59:56Z</time>
      </trkpt>
      <trkpt lat="47.86254" lon="3.51375">
        <ele>157</ele>
        <time>2019-04-01T11:00:00Z</time>
      </trkpt>
      <trkpt lat="47.86251" lon="3.51373">
        <ele>158</ele>
        <time>2019-04-01T11:00:02Z</time>
      </trkpt>
      <trkpt lat="47.86249" lon="3.5137">
        <ele>159</ele>
        <time>2019-04-01T11:00:04Z</time>
      </trkpt>
      <trkpt lat="47.86246" lon="3.51363">
        <ele>161</ele>
        <time>2019-04-01T11:00:08Z</time>
      </trkpt>
      <trkpt lat="47.86244" lon="3.51358">
        <ele>161</ele>
        <time>2019-04-01T11:00:11Z</time>
      </trkpt>
      <trkpt lat="47.86239" lon="3.51353">
        <ele>162</ele>
        <time>2019-04-01T11:00:15Z</time>
      </trkpt>
      <trkpt lat="47.86235" lon="3.51348">
        <ele>163</ele>
        <time>2019-04-01T11:00:20Z</time>
      </trkpt>
      <trkpt lat="47.86231" lon="3.51343">
        <ele>162</ele>
        <time>2019-04-01T11:00:24Z</time>
      </trkpt>
      <trkpt lat="47.86229" lon="3.5134">
        <ele>162</ele>
        <time>2019-04-01T11:00:26Z</time>
      </trkpt>
      <trkpt lat="47.86223" lon="3.51334">
        <ele>163</ele>
        <time>2019-04-01T11:00:31Z</time>
      </trkpt>
      <trkpt lat="47.86219" lon="3.51328">
        <ele>162</ele>
        <time>2019-04-01T11:00:35Z</time>
      </trkpt>
      <trkpt lat="47.86215" lon="3.51325">
        <ele>163</ele>
        <time>2019-04-01T11:00:38Z</time>
      </trkpt>
      <trkpt lat="47.86209" lon="3.51316">
        <ele>163</ele>
        <time>2019-04-01T11:00:42Z</time>
      </trkpt>
      <trkpt lat="47.86206" lon="3.5131">
        <ele>162</ele>
        <time>2019-04-01T11:00:47Z</time>
      </trkpt>
      <trkpt lat="47.86203" lon="3.51304">
        <ele>163</ele>
        <time>2019-04-01T11:00:52Z</time>
      </trkpt>
      <trkpt lat="47.86198" lon="3.51299">
        <ele>163</ele>
        <time>2019-04-01T11:00:56Z</time>
      </trkpt>
      <trkpt lat="47.86194" lon="3.51293">
        <ele>162</ele>
        <time>2019-04-01T11:01:00Z</time>
      </trkpt>
      <trkpt lat="47.8619" lon="3.51288">
        <ele>162</ele>
        <time>2019-04-01T11:01:04Z</time>
      </trkpt>
      <trkpt lat="47.86181" lon="3.51281">
        <ele>163</ele>
        <time>2019-04-01T11:01:10Z</time>
      </trkpt>
      <trkpt lat="47.86178" lon="3.51278">
        <ele>163</ele>
        <time>2019-04-01T11:01:11Z</time>
      </trkpt>
      <trkpt lat="47.86176" lon="3.51276">
        <ele>163</ele>
        <time>2019-04-01T11:01:14Z</time>
      </trkpt>
      <trkpt lat="47.86172" lon="3.51271">
        <ele>162</ele>
        <time>2019-04-01T11:01:18Z</time>
      </trkpt>
      <trkpt lat="47.86166" lon="3.51268">
        <ele>163</ele>
        <time>2019-04-01T11:01:22Z</time>
      </trkpt>
      <trkpt lat="47.86162" lon="3.51263">
        <ele>161</ele>
        <time>2019-04-01T11:01:26Z</time>
      </trkpt>
      <trkpt lat="47.86159" lon="3.51256">
        <ele>162</ele>
        <time>2019-04-01T11:01:31Z</time>
      </trkpt>
      <trkpt lat="47.86156" lon="3.51253">
        <ele>162</ele>
        <time>2019-04-01T11:01:33Z</time>
      </trkpt>
      <trkpt lat="47.86154" lon="3.51249">
        <ele>162</ele>
        <time>2019-04-01T11:01:36Z</time>
      </trkpt>
      <trkpt lat="47.86152" lon="3.51246">
        <ele>162</ele>
        <time>2019-04-01T11:01:38Z</time>
      </trkpt>
      <trkpt lat="47.86147" lon="3.51242">
        <ele>162</ele>
        <time>2019-04-01T11:01:42Z</time>
      </trkpt>
      <trkpt lat="47.86145" lon="3.51239">
        <ele>161</ele>
        <time>2019-04-01T11:01:44Z</time>
      </trkpt>
      <trkpt lat="47.86143" lon="3.51237">
        <ele>162</ele>
        <time>2019-04-01T11:01:46Z</time>
      </trkpt>
      <trkpt lat="47.8614" lon="3.5123">
        <ele>162</ele>
        <time>2019-04-01T11:01:50Z</time>
      </trkpt>
      <trkpt lat="47.86138" lon="3.51226">
        <ele>162</ele>
        <time>2019-04-01T11:01:52Z</time>
      </trkpt>
      <trkpt lat="47.86134" lon="3.51221">
        <ele>163</ele>
        <time>2019-04-01T11:01:56Z</time>
      </trkpt>
      <trkpt lat="47.86131" lon="3.51217">
        <ele>163</ele>
        <time>2019-04-01T11:01:59Z</time>
      </trkpt>
      <trkpt lat="47.86129" lon="3.51215">
        <ele>164</ele>
        <time>2019-04-01T11:02:02Z</time>
      </trkpt>
      <trkpt lat="47.86126" lon="3.51212">
        <ele>164</ele>
        <time>2019-04-01T11:02:05Z</time>
      </trkpt>
      <trkpt lat="47.86124" lon="3.51206">
        <ele>167</ele>
        <time>2019-04-01T11:02:09Z</time>
      </trkpt>
      <trkpt lat="47.86119" lon="3.51202">
        <ele>167</ele>
        <time>2019-04-01T11:02:13Z</time>
      </trkpt>
      <trkpt lat="47.86115" lon="3.51196">
        <ele>167</ele>
        <time>2019-04-01T11:02:17Z</time>
      </trkpt>
      <trkpt lat="47.86113" lon="3.51192">
        <ele>167</ele>
        <time>2019-04-01T11:02:20Z</time>
      </trkpt>
      <trkpt lat="47.86111" lon="3.51189">
        <ele>166</ele>
        <time>2019-04-01T11:02:23Z</time>
      </trkpt>
      <trkpt lat="47.86107" lon="3.51185">
        <ele>166</ele>
        <time>2019-04-01T11:02:26Z</time>
      </trkpt>
      <trkpt lat="47.86102" lon="3.51182">
        <ele>167</ele>
        <time>2019-04-01T11:02:30Z</time>
      </trkpt>
      <trkpt lat="47.86099" lon="3.51177">
        <ele>167</ele>
        <time>2019-04-01T11:02:33Z</time>
      </trkpt>
      <trkpt lat="47.86096" lon="3.5117">
        <ele>165</ele>
        <time>2019-04-01T11:02:37Z</time>
      </trkpt>
      <trkpt lat="47.86093" lon="3.51163">
        <ele>166</ele>
        <time>2019-04-01T11:02:42Z</time>
      </trkpt>
      <trkpt lat="47.8609" lon="3.51157">
        <ele>168</ele>
        <time>2019-04-01T11:02:47Z</time>
      </trkpt>
      <trkpt lat="47.86085" lon="3.51152">
        <ele>167</ele>
        <time>2019-04-01T11:02:50Z</time>
      </trkpt>
      <trkpt lat="47.86082" lon="3.51147">
        <ele>166</ele>
        <time>2019-04-01T11:02:54Z</time>
      </trkpt>
      <trkpt lat="47.8608" lon="3.51143">
        <ele>168</ele>
        <time>2019-04-01T11:02:57Z</time>
      </trkpt>
      <trkpt lat="47.86078" lon="3.51138">
        <ele>167</ele>
        <time>2019-04-01T11:03:00Z</time>
      </trkpt>
      <trkpt lat="47.86074" lon="3.51134">
        <ele>168</ele>
        <time>2019-04-01T11:03:04Z</time>
      </trkpt>
      <trkpt lat="47.8607" lon="3.51129">
        <ele>169</ele>
        <time>2019-04-01T11:03:06Z</time>
      </trkpt>
      <trkpt lat="47.86066" lon="3.51123">
        <ele>169</ele>
        <time>2019-04-01T11:03:10Z</time>
      </trkpt>
      <trkpt lat="47.86062" lon="3.51119">
        <ele>168</ele>
        <time>2019-04-01T11:03:14Z</time>
      </trkpt>
      <trkpt lat="47.8606" lon="3.51117">
        <ele>169</ele>
        <time>2019-04-01T11:03:23Z</time>
      </trkpt>
      <trkpt lat="47.86057" lon="3.51114">
        <ele>169</ele>
        <time>2019-04-01T11:03:27Z</time>
      </trkpt>
      <trkpt lat="47.86054" lon="3.51108">
        <ele>171</ele>
        <time>2019-04-01T11:03:31Z</time>
      </trkpt>
      <trkpt lat="47.86052" lon="3.51104">
        <ele>171</ele>
        <time>2019-04-01T11:03:33Z</time>
      </trkpt>
      <trkpt lat="47.86051" lon="3.51101">
        <ele>172</ele>
        <time>2019-04-01T11:03:35Z</time>
      </trkpt>
      <trkpt lat="47.86048" lon="3.51096">
        <ele>172</ele>
        <time>2019-04-01T11:03:39Z</time>
      </trkpt>
      <trkpt lat="47.86044" lon="3.51091">
        <ele>172</ele>
        <time>2019-04-01T11:03:44Z</time>
      </trkpt>
      <trkpt lat="47.86038" lon="3.51086">
        <ele>173</ele>
        <time>2019-04-01T11:03:49Z</time>
      </trkpt>
      <trkpt lat="47.86035" lon="3.51084">
        <ele>174</ele>
        <time>2019-04-01T11:03:50Z</time>
      </trkpt>
      <trkpt lat="47.86033" lon="3.51082">
        <ele>173</ele>
        <time>2019-04-01T11:03:53Z</time>
      </trkpt>
      <trkpt lat="47.86029" lon="3.51078">
        <ele>174</ele>
        <time>2019-04-01T11:03:55Z</time>
      </trkpt>
      <trkpt lat="47.86025" lon="3.51075">
        <ele>174</ele>
        <time>2019-04-01T11:03:58Z</time>
      </trkpt>
      <trkpt lat="47.86021" lon="3.51071">
        <ele>172</ele>
        <time>2019-04-01T11:04:02Z</time>
      </trkpt>
      <trkpt lat="47.86021" lon="3.51071">
        <ele>172</ele>
        <time>2019-04-01T11:04:10Z</time>
      </trkpt>
      <trkpt lat="47.86021" lon="3.51071">
        <ele>172</ele>
        <time>2019-04-01T11:04:11Z</time>
      </trkpt>
      <trkpt lat="47.86019" lon="3.51063">
        <ele>171</ele>
        <time>2019-04-01T11:04:14Z</time>
      </trkpt>
      <trkpt lat="47.86019" lon="3.51059">
        <ele>170</ele>
        <time>2019-04-01T11:04:16Z</time>
      </trkpt>
      <trkpt lat="47.86018" lon="3.51052">
        <ele>171</ele>
        <time>2019-04-01T11:04:21Z</time>
      </trkpt>
      <trkpt lat="47.86015" lon="3.51045">
        <ele>170</ele>
        <time>2019-04-01T11:04:25Z</time>
      </trkpt>
      <trkpt lat="47.86012" lon="3.51039">
        <ele>170</ele>
        <time>2019-04-01T11:04:30Z</time>
      </trkpt>
      <trkpt lat="47.8601" lon="3.51031">
        <ele>169</ele>
        <time>2019-04-01T11:04:35Z</time>
      </trkpt>
      <trkpt lat="47.86007" lon="3.51025">
        <ele>167</ele>
        <time>2019-04-01T11:04:39Z</time>
      </trkpt>
      <trkpt lat="47.86004" lon="3.51018">
        <ele>168</ele>
        <time>2019-04-01T11:04:45Z</time>
      </trkpt>
      <trkpt lat="47.86001" lon="3.51012">
        <ele>168</ele>
        <time>2019-04-01T11:04:48Z</time>
      </trkpt>
      <trkpt lat="47.85999" lon="3.51005">
        <ele>167</ele>
        <time>2019-04-01T11:04:52Z</time>
      </trkpt>
      <trkpt lat="47.85995" lon="3.50998">
        <ele>168</ele>
        <time>2019-04-01T11:04:56Z</time>
      </trkpt>
      <trkpt lat="47.8599" lon="3.50994">
        <ele>169</ele>
        <time>2019-04-01T11:05:00Z</time>
      </trkpt>
      <trkpt lat="47.85987" lon="3.50987">
        <ele>168</ele>
        <time>2019-04-01T11:05:06Z</time>
      </trkpt>
      <trkpt lat="47.85984" lon="3.50983">
        <ele>169</ele>
        <time>2019-04-01T11:05:13Z</time>
      </trkpt>
      <trkpt lat="47.85983" lon="3.50981">
        <ele>169</ele>
        <time>2019-04-01T11:05:22Z</time>
      </trkpt>
      <trkpt lat="47.85967" lon="3.50967">
        <ele>176</ele>
        <time>2019-04-01T11:14:36Z</time>
      </trkpt>
      <trkpt lat="47.85962" lon="3.50974">
        <ele>169</ele>
        <time>2019-04-01T11:14:48Z</time>
      </trkpt>
      <trkpt lat="47.85957" lon="3.50975">
        <ele>171</ele>
        <time>2019-04-01T11:15:03Z</time>
      </trkpt>
      <trkpt lat="47.85957" lon="3.50975">
        <ele>171</ele>
        <time>2019-04-01T11:18:37Z</time>
      </trkpt>
      <trkpt lat="47.85975" lon="3.50993">
        <ele>172</ele>
        <time>2019-04-01T11:33:34Z</time>
      </trkpt>
      <trkpt lat="47.85977" lon="3.50996">
        <ele>171</ele>
        <time>2019-04-01T11:33:40Z</time>
      </trkpt>
      <trkpt lat="47.8598" lon="3.51003">
        <ele>173</ele>
        <time>2019-04-01T11:33:46Z</time>
      </trkpt>
      <trkpt lat="47.85984" lon="3.51007">
        <ele>173</ele>
        <time>2019-04-01T11:33:50Z</time>
      </trkpt>
      <trkpt lat="47.85988" lon="3.51013">
        <ele>174</ele>
        <time>2019-04-01T11:33:55Z</time>
      </trkpt>
      <trkpt lat="47.85993" lon="3.51015">
        <ele>176</ele>
        <time>2019-04-01T11:33:59Z</time>
      </trkpt>
      <trkpt lat="47.85996" lon="3.51017">
        <ele>178</ele>
        <time>2019-04-01T11:34:03Z</time>
      </trkpt>
      <trkpt lat="47.86003" lon="3.51018">
        <ele>179</ele>
        <time>2019-04-01T11:34:10Z</time>
      </trkpt>
      <trkpt lat="47.86008" lon="3.51019">
        <ele>179</ele>
        <time>2019-04-01T11:34:15Z</time>
      </trkpt>
      <trkpt lat="47.86015" lon="3.51022">
        <ele>178</ele>
        <time>2019-04-01T11:34:19Z</time>
      </trkpt>
      <trkpt lat="47.8602" lon="3.5102">
        <ele>177</ele>
        <time>2019-04-01T11:34:23Z</time>
      </trkpt>
      <trkpt lat="47.86026" lon="3.5102">
        <ele>175</ele>
        <time>2019-04-01T11:34:28Z</time>
      </trkpt>
      <trkpt lat="47.86031" lon="3.5102">
        <ele>175</ele>
        <time>2019-04-01T11:34:32Z</time>
      </trkpt>
      <trkpt lat="47.86036" lon="3.51019">
        <ele>173</ele>
        <time>2019-04-01T11:34:38Z</time>
      </trkpt>
      <trkpt lat="47.86039" lon="3.51017">
        <ele>175</ele>
        <time>2019-04-01T11:34:43Z</time>
      </trkpt>
      <trkpt lat="47.86044" lon="3.51018">
        <ele>173</ele>
        <time>2019-04-01T11:34:48Z</time>
      </trkpt>
      <trkpt lat="47.86049" lon="3.51018">
        <ele>169</ele>
        <time>2019-04-01T11:34:51Z</time>
      </trkpt>
      <trkpt lat="47.86053" lon="3.51014">
        <ele>171</ele>
        <time>2019-04-01T11:34:56Z</time>
      </trkpt>
      <trkpt lat="47.86056" lon="3.51007">
        <ele>172</ele>
        <time>2019-04-01T11:35:00Z</time>
      </trkpt>
      <trkpt lat="47.86057" lon="3.50998">
        <ele>168</ele>
        <time>2019-04-01T11:35:05Z</time>
      </trkpt>
      <trkpt lat="47.86057" lon="3.50998">
        <ele>168</ele>
        <time>2019-04-01T11:35:13Z</time>
      </trkpt>
      <trkpt lat="47.86057" lon="3.50998">
        <ele>168</ele>
        <time>2019-04-01T11:35:14Z</time>
      </trkpt>
      <trkpt lat="47.86052" lon="3.50989">
        <ele>166</ele>
        <time>2019-04-01T11:39:44Z</time>
      </trkpt>
      <trkpt lat="47.86047" lon="3.50989">
        <ele>163</ele>
        <time>2019-04-01T11:39:50Z</time>
      </trkpt>
      <trkpt lat="47.86044" lon="3.50993">
        <ele>165</ele>
        <time>2019-04-01T11:39:58Z</time>
      </trkpt>
      <trkpt lat="47.86039" lon="3.50987">
        <ele>167</ele>
        <time>2019-04-01T11:40:28Z</time>
      </trkpt>
      <trkpt lat="47.86034" lon="3.50986">
        <ele>166</ele>
        <time>2019-04-01T11:40:36Z</time>
      </trkpt>
      <trkpt lat="47.86029" lon="3.50984">
        <ele>164</ele>
        <time>2019-04-01T11:40:41Z</time>
      </trkpt>
      <trkpt lat="47.86027" lon="3.50984">
        <ele>165</ele>
        <time>2019-04-01T11:40:43Z</time>
      </trkpt>
      <trkpt lat="47.86024" lon="3.50983">
        <ele>166</ele>
        <time>2019-04-01T11:40:45Z</time>
      </trkpt>
      <trkpt lat="47.86019" lon="3.50987">
        <ele>163</ele>
        <time>2019-04-01T11:40:49Z</time>
      </trkpt>
      <trkpt lat="47.86015" lon="3.5099">
        <ele>164</ele>
        <time>2019-04-01T11:41:00Z</time>
      </trkpt>
      <trkpt lat="47.86012" lon="3.50992">
        <ele>169</ele>
        <time>2019-04-01T11:41:08Z</time>
      </trkpt>
      <trkpt lat="47.86007" lon="3.50996">
        <ele>170</ele>
        <time>2019-04-01T11:41:23Z</time>
      </trkpt>
      <trkpt lat="47.86004" lon="3.51001">
        <ele>171</ele>
        <time>2019-04-01T11:41:29Z</time>
      </trkpt>
      <trkpt lat="47.85998" lon="3.51005">
        <ele>173</ele>
        <time>2019-04-01T11:41:36Z</time>
      </trkpt>
      <trkpt lat="47.85994" lon="3.51008">
        <ele>173</ele>
        <time>2019-04-01T11:41:41Z</time>
      </trkpt>
      <trkpt lat="47.8599" lon="3.51008">
        <ele>172</ele>
        <time>2019-04-01T11:41:45Z</time>
      </trkpt>
      <trkpt lat="47.8599" lon="3.51008">
        <ele>172</ele>
        <time>2019-04-01T11:41:52Z</time>
      </trkpt>
      <trkpt lat="47.8599" lon="3.51008">
        <ele>172</ele>
        <time>2019-04-01T11:41:53Z</time>
      </trkpt>
      <trkpt lat="47.85972" lon="3.50969">
        <ele>165</ele>
        <time>2019-04-01T11:48:25Z</time>
      </trkpt>
      <trkpt lat="47.85971" lon="3.5096">
        <ele>167</ele>
        <time>2019-04-01T11:48:31Z</time>
      </trkpt>
      <trkpt lat="47.85968" lon="3.50953">
        <ele>173</ele>
        <time>2019-04-01T11:48:39Z</time>
      </trkpt>
      <trkpt lat="47.85965" lon="3.50948">
        <ele>172</ele>
        <time>2019-04-01T11:48:45Z</time>
      </trkpt>
      <trkpt lat="47.85962" lon="3.50943">
        <ele>171</ele>
        <time>2019-04-01T11:48:51Z</time>
      </trkpt>
      <trkpt lat="47.85957" lon="3.50937">
        <ele>174</ele>
        <time>2019-04-01T11:48:58Z</time>
      </trkpt>
      <trkpt lat="47.85954" lon="3.50933">
        <ele>175</ele>
        <time>2019-04-01T11:49:01Z</time>
      </trkpt>
      <trkpt lat="47.8595" lon="3.50929">
        <ele>176</ele>
        <time>2019-04-01T11:49:06Z</time>
      </trkpt>
      <trkpt lat="47.85943" lon="3.5092">
        <ele>176</ele>
        <time>2019-04-01T11:49:14Z</time>
      </trkpt>
      <trkpt lat="47.85939" lon="3.50917">
        <ele>175</ele>
        <time>2019-04-01T11:49:17Z</time>
      </trkpt>
      <trkpt lat="47.85933" lon="3.50914">
        <ele>174</ele>
        <time>2019-04-01T11:49:21Z</time>
      </trkpt>
      <trkpt lat="47.85926" lon="3.50909">
        <ele>174</ele>
        <time>2019-04-01T11:49:27Z</time>
      </trkpt>
      <trkpt lat="47.85923" lon="3.50904">
        <ele>173</ele>
        <time>2019-04-01T11:49:31Z</time>
      </trkpt>
      <trkpt lat="47.85918" lon="3.509">
        <ele>170</ele>
        <time>2019-04-01T11:49:37Z</time>
      </trkpt>
      <trkpt lat="47.85916" lon="3.50898">
        <ele>170</ele>
        <time>2019-04-01T11:49:39Z</time>
      </trkpt>
      <trkpt lat="47.85912" lon="3.50895">
        <ele>170</ele>
        <time>2019-04-01T11:49:43Z</time>
      </trkpt>
      <trkpt lat="47.85907" lon="3.5089">
        <ele>167</ele>
        <time>2019-04-01T11:49:47Z</time>
      </trkpt>
      <trkpt lat="47.85903" lon="3.50885">
        <ele>166</ele>
        <time>2019-04-01T11:49:52Z</time>
      </trkpt>
      <trkpt lat="47.85898" lon="3.50878">
        <ele>166</ele>
        <time>2019-04-01T11:49:57Z</time>
      </trkpt>
      <trkpt lat="47.85895" lon="3.50875">
        <ele>165</ele>
        <time>2019-04-01T11:50:00Z</time>
      </trkpt>
      <trkpt lat="47.85893" lon="3.50873">
        <ele>166</ele>
        <time>2019-04-01T11:50:02Z</time>
      </trkpt>
      <trkpt lat="47.8589" lon="3.50867">
        <ele>166</ele>
        <time>2019-04-01T11:50:06Z</time>
      </trkpt>
      <trkpt lat="47.85888" lon="3.50863">
        <ele>167</ele>
        <time>2019-04-01T11:50:10Z</time>
      </trkpt>
      <trkpt lat="47.85886" lon="3.50859">
        <ele>166</ele>
        <time>2019-04-01T11:50:13Z</time>
      </trkpt>
      <trkpt lat="47.85883" lon="3.50854">
        <ele>165</ele>
        <time>2019-04-01T11:50:17Z</time>
      </trkpt>
      <trkpt lat="47.8588" lon="3.50851">
        <ele>166</ele>
        <time>2019-04-01T11:50:19Z</time>
      </trkpt>
      <trkpt lat="47.85876" lon="3.50849">
        <ele>167</ele>
        <time>2019-04-01T11:50:23Z</time>
      </trkpt>
      <trkpt lat="47.85873" lon="3.50847">
        <ele>166</ele>
        <time>2019-04-01T11:50:26Z</time>
      </trkpt>
      <trkpt lat="47.8587" lon="3.50842">
        <ele>166</ele>
        <time>2019-04-01T11:50:29Z</time>
      </trkpt>
      <trkpt lat="47.85866" lon="3.50835">
        <ele>166</ele>
        <time>2019-04-01T11:50:34Z</time>
      </trkpt>
      <trkpt lat="47.85863" lon="3.5083">
        <ele>166</ele>
        <time>2019-04-01T11:50:38Z</time>
      </trkpt>
      <trkpt lat="47.85861" lon="3.50826">
        <ele>167</ele>
        <time>2019-04-01T11:50:40Z</time>
      </trkpt>
      <trkpt lat="47.85857" lon="3.50822">
        <ele>168</ele>
        <time>2019-04-01T11:50:44Z</time>
      </trkpt>
      <trkpt lat="47.85853" lon="3.50817">
        <ele>170</ele>
        <time>2019-04-01T11:50:50Z</time>
      </trkpt>
      <trkpt lat="47.8585" lon="3.50813">
        <ele>170</ele>
        <time>2019-04-01T11:50:54Z</time>
      </trkpt>
      <trkpt lat="47.85846" lon="3.50809">
        <ele>169</ele>
        <time>2019-04-01T11:50:58Z</time>
      </trkpt>
      <trkpt lat="47.85843" lon="3.50803">
        <ele>170</ele>
        <time>2019-04-01T11:51:01Z</time>
      </trkpt>
      <trkpt lat="47.85839" lon="3.50798">
        <ele>170</ele>
        <time>2019-04-01T11:51:05Z</time>
      </trkpt>
      <trkpt lat="47.85834" lon="3.50793">
        <ele>169</ele>
        <time>2019-04-01T11:51:09Z</time>
      </trkpt>
      <trkpt lat="47.85831" lon="3.50787">
        <ele>170</ele>
        <time>2019-04-01T11:51:13Z</time>
      </trkpt>
      <trkpt lat="47.85829" lon="3.50783">
        <ele>170</ele>
        <time>2019-04-01T11:51:16Z</time>
      </trkpt>
      <trkpt lat="47.85825" lon="3.50777">
        <ele>171</ele>
        <time>2019-04-01T11:51:21Z</time>
      </trkpt>
      <trkpt lat="47.85823" lon="3.50773">
        <ele>172</ele>
        <time>2019-04-01T11:51:24Z</time>
      </trkpt>
      <trkpt lat="47.85818" lon="3.50766">
        <ele>172</ele>
        <time>2019-04-01T11:51:29Z</time>
      </trkpt>
      <trkpt lat="47.85814" lon="3.50759">
        <ele>171</ele>
        <time>2019-04-01T11:51:34Z</time>
      </trkpt>
      <trkpt lat="47.85813" lon="3.50756">
        <ele>171</ele>
        <time>2019-04-01T11:51:36Z</time>
      </trkpt>
      <trkpt lat="47.8581" lon="3.50751">
        <ele>173</ele>
        <time>2019-04-01T11:51:40Z</time>
      </trkpt>
      <trkpt lat="47.85806" lon="3.50744">
        <ele>174</ele>
        <time>2019-04-01T11:51:45Z</time>
      </trkpt>
      <trkpt lat="47.85804" lon="3.50741">
        <ele>174</ele>
        <time>2019-04-01T11:51:49Z</time>
      </trkpt>
      <trkpt lat="47.85801" lon="3.50736">
        <ele>176</ele>
        <time>2019-04-01T11:51:54Z</time>
      </trkpt>
      <trkpt lat="47.858" lon="3.50734">
        <ele>176</ele>
        <time>2019-04-01T11:51:56Z</time>
      </trkpt>
      <trkpt lat="47.85798" lon="3.50726">
        <ele>177</ele>
        <time>2019-04-01T11:52:01Z</time>
      </trkpt>
      <trkpt lat="47.85795" lon="3.5072">
        <ele>178</ele>
        <time>2019-04-01T11:52:05Z</time>
      </trkpt>
      <trkpt lat="47.85792" lon="3.50715">
        <ele>178</ele>
        <time>2019-04-01T11:52:09Z</time>
      </trkpt>
      <trkpt lat="47.85789" lon="3.50708">
        <ele>177</ele>
        <time>2019-04-01T11:52:14Z</time>
      </trkpt>
      <trkpt lat="47.85786" lon="3.50702">
        <ele>179</ele>
        <time>2019-04-01T11:52:19Z</time>
      </trkpt>
      <trkpt lat="47.85783" lon="3.50697">
        <ele>182</ele>
        <time>2019-04-01T11:52:23Z</time>
      </trkpt>
      <trkpt lat="47.85781" lon="3.50697">
        <ele>183</ele>
        <time>2019-04-01T11:52:32Z</time>
      </trkpt>
      <trkpt lat="47.85776" lon="3.50694">
        <ele>179</ele>
        <time>2019-04-01T11:52:40Z</time>
      </trkpt>
      <trkpt lat="47.85772" lon="3.50689">
        <ele>178</ele>
        <time>2019-04-01T11:52:44Z</time>
      </trkpt>
      <trkpt lat="47.85769" lon="3.50684">
        <ele>179</ele>
        <time>2019-04-01T11:52:48Z</time>
      </trkpt>
      <trkpt lat="47.85768" lon="3.50677">
        <ele>179</ele>
        <time>2019-04-01T11:52:53Z</time>
      </trkpt>
      <trkpt lat="47.85764" lon="3.50672">
        <ele>179</ele>
        <time>2019-04-01T11:52:57Z</time>
      </trkpt>
      <trkpt lat="47.85761" lon="3.50669">
        <ele>179</ele>
        <time>2019-04-01T11:52:59Z</time>
      </trkpt>
      <trkpt lat="47.85756" lon="3.50663">
        <ele>180</ele>
        <time>2019-04-01T11:53:08Z</time>
      </trkpt>
      <trkpt lat="47.85752" lon="3.50658">
        <ele>182</ele>
        <time>2019-04-01T11:53:12Z</time>
      </trkpt>
      <trkpt lat="47.85748" lon="3.50652">
        <ele>182</ele>
        <time>2019-04-01T11:53:18Z</time>
      </trkpt>
      <trkpt lat="47.85744" lon="3.50646">
        <ele>183</ele>
        <time>2019-04-01T11:53:22Z</time>
      </trkpt>
      <trkpt lat="47.85742" lon="3.5064">
        <ele>183</ele>
        <time>2019-04-01T11:53:27Z</time>
      </trkpt>
      <trkpt lat="47.85741" lon="3.50637">
        <ele>184</ele>
        <time>2019-04-01T11:53:29Z</time>
      </trkpt>
      <trkpt lat="47.85736" lon="3.50632">
        <ele>184</ele>
        <time>2019-04-01T11:53:34Z</time>
      </trkpt>
      <trkpt lat="47.85732" lon="3.50625">
        <ele>185</ele>
        <time>2019-04-01T11:53:39Z</time>
      </trkpt>
      <trkpt lat="47.85728" lon="3.50621">
        <ele>186</ele>
        <time>2019-04-01T11:53:44Z</time>
      </trkpt>
      <trkpt lat="47.85724" lon="3.50617">
        <ele>185</ele>
        <time>2019-04-01T11:53:48Z</time>
      </trkpt>
      <trkpt lat="47.8572" lon="3.50609">
        <ele>186</ele>
        <time>2019-04-01T11:53:53Z</time>
      </trkpt>
      <trkpt lat="47.85717" lon="3.50604">
        <ele>184</ele>
        <time>2019-04-01T11:53:58Z</time>
      </trkpt>
      <trkpt lat="47.85714" lon="3.50598">
        <ele>184</ele>
        <time>2019-04-01T11:54:02Z</time>
      </trkpt>
      <trkpt lat="47.8571" lon="3.50592">
        <ele>185</ele>
        <time>2019-04-01T11:54:06Z</time>
      </trkpt>
      <trkpt lat="47.85705" lon="3.50588">
        <ele>184</ele>
        <time>2019-04-01T11:54:09Z</time>
      </trkpt>
      <trkpt lat="47.857" lon="3.50579">
        <ele>186</ele>
        <time>2019-04-01T11:54:16Z</time>
      </trkpt>
      <trkpt lat="47.85699" lon="3.50577">
        <ele>186</ele>
        <time>2019-04-01T11:54:18Z</time>
      </trkpt>
      <trkpt lat="47.85697" lon="3.50573">
        <ele>186</ele>
        <time>2019-04-01T11:54:20Z</time>
      </trkpt>
      <trkpt lat="47.85693" lon="3.5057">
        <ele>187</ele>
        <time>2019-04-01T11:54:24Z</time>
      </trkpt>
      <trkpt lat="47.85689" lon="3.50567">
        <ele>188</ele>
        <time>2019-04-01T11:54:27Z</time>
      </trkpt>
      <trkpt lat="47.85686" lon="3.50561">
        <ele>188</ele>
        <time>2019-04-01T11:54:32Z</time>
      </trkpt>
      <trkpt lat="47.85682" lon="3.50557">
        <ele>185</ele>
        <time>2019-04-01T11:54:37Z</time>
      </trkpt>
      <trkpt lat="47.85679" lon="3.50551">
        <ele>183</ele>
        <time>2019-04-01T11:54:42Z</time>
      </trkpt>
      <trkpt lat="47.85674" lon="3.50544">
        <ele>184</ele>
        <time>2019-04-01T11:54:47Z</time>
      </trkpt>
      <trkpt lat="47.85669" lon="3.50537">
        <ele>185</ele>
        <time>2019-04-01T11:54:51Z</time>
      </trkpt>
      <trkpt lat="47.85665" lon="3.50532">
        <ele>184</ele>
        <time>2019-04-01T11:54:55Z</time>
      </trkpt>
      <trkpt lat="47.8566" lon="3.50527">
        <ele>185</ele>
        <time>2019-04-01T11:54:59Z</time>
      </trkpt>
      <trkpt lat="47.85656" lon="3.50521">
        <ele>188</ele>
        <time>2019-04-01T11:55:04Z</time>
      </trkpt>
      <trkpt lat="47.85652" lon="3.50517">
        <ele>187</ele>
        <time>2019-04-01T11:55:08Z</time>
      </trkpt>
      <trkpt lat="47.85649" lon="3.50514">
        <ele>187</ele>
        <time>2019-04-01T11:55:10Z</time>
      </trkpt>
      <trkpt lat="47.85644" lon="3.50507">
        <ele>187</ele>
        <time>2019-04-01T11:55:15Z</time>
      </trkpt>
      <trkpt lat="47.85641" lon="3.505">
        <ele>188</ele>
        <time>2019-04-01T11:55:19Z</time>
      </trkpt>
      <trkpt lat="47.85639" lon="3.50494">
        <ele>188</ele>
        <time>2019-04-01T11:55:24Z</time>
      </trkpt>
      <trkpt lat="47.85635" lon="3.50488">
        <ele>187</ele>
        <time>2019-04-01T11:55:29Z</time>
      </trkpt>
      <trkpt lat="47.85633" lon="3.50482">
        <ele>187</ele>
        <time>2019-04-01T11:55:33Z</time>
      </trkpt>
      <trkpt lat="47.85631" lon="3.50477">
        <ele>188</ele>
        <time>2019-04-01T11:55:36Z</time>
      </trkpt>
      <trkpt lat="47.85628" lon="3.50472">
        <ele>189</ele>
        <time>2019-04-01T11:55:40Z</time>
      </trkpt>
      <trkpt lat="47.85624" lon="3.50467">
        <ele>190</ele>
        <time>2019-04-01T11:55:43Z</time>
      </trkpt>
      <trkpt lat="47.85621" lon="3.50462">
        <ele>190</ele>
        <time>2019-04-01T11:55:46Z</time>
      </trkpt>
      <trkpt lat="47.85617" lon="3.50458">
        <ele>191</ele>
        <time>2019-04-01T11:55:50Z</time>
      </trkpt>
      <trkpt lat="47.85611" lon="3.50452">
        <ele>193</ele>
        <time>2019-04-01T11:55:56Z</time>
      </trkpt>
      <trkpt lat="47.85608" lon="3.50444">
        <ele>191</ele>
        <time>2019-04-01T11:56:00Z</time>
      </trkpt>
      <trkpt lat="47.85607" lon="3.5044">
        <ele>191</ele>
        <time>2019-04-01T11:56:03Z</time>
      </trkpt>
      <trkpt lat="47.85602" lon="3.50433">
        <ele>196</ele>
        <time>2019-04-01T11:56:10Z</time>
      </trkpt>
      <trkpt lat="47.85598" lon="3.50429">
        <ele>197</ele>
        <time>2019-04-01T11:56:14Z</time>
      </trkpt>
      <trkpt lat="47.85594" lon="3.50426">
        <ele>197</ele>
        <time>2019-04-01T11:56:18Z</time>
      </trkpt>
      <trkpt lat="47.8559" lon="3.50423">
        <ele>197</ele>
        <time>2019-04-01T11:56:21Z</time>
      </trkpt>
      <trkpt lat="47.85587" lon="3.50416">
        <ele>197</ele>
        <time>2019-04-01T11:56:26Z</time>
      </trkpt>
      <trkpt lat="47.85583" lon="3.5041">
        <ele>195</ele>
        <time>2019-04-01T11:56:30Z</time>
      </trkpt>
      <trkpt lat="47.85578" lon="3.50404">
        <ele>195</ele>
        <time>2019-04-01T11:56:35Z</time>
      </trkpt>
      <trkpt lat="47.85577" lon="3.50402">
        <ele>195</ele>
        <time>2019-04-01T11:56:37Z</time>
      </trkpt>
      <trkpt lat="47.85573" lon="3.50397">
        <ele>196</ele>
        <time>2019-04-01T11:56:40Z</time>
      </trkpt>
      <trkpt lat="47.85571" lon="3.50392">
        <ele>196</ele>
        <time>2019-04-01T11:56:43Z</time>
      </trkpt>
      <trkpt lat="47.85563" lon="3.50384">
        <ele>194</ele>
        <time>2019-04-01T11:56:50Z</time>
      </trkpt>
      <trkpt lat="47.8556" lon="3.50377">
        <ele>192</ele>
        <time>2019-04-01T11:56:54Z</time>
      </trkpt>
      <trkpt lat="47.85555" lon="3.50369">
        <ele>192</ele>
        <time>2019-04-01T11:56:59Z</time>
      </trkpt>
      <trkpt lat="47.85551" lon="3.50363">
        <ele>193</ele>
        <time>2019-04-01T11:57:02Z</time>
      </trkpt>
      <trkpt lat="47.85548" lon="3.50358">
        <ele>194</ele>
        <time>2019-04-01T11:57:09Z</time>
      </trkpt>
      <trkpt lat="47.85545" lon="3.50353">
        <ele>197</ele>
        <time>2019-04-01T11:57:13Z</time>
      </trkpt>
      <trkpt lat="47.85541" lon="3.50348">
        <ele>198</ele>
        <time>2019-04-01T11:57:17Z</time>
      </trkpt>
      <trkpt lat="47.85539" lon="3.50345">
        <ele>198</ele>
        <time>2019-04-01T11:57:19Z</time>
      </trkpt>
      <trkpt lat="47.85536" lon="3.50341">
        <ele>198</ele>
        <time>2019-04-01T11:57:23Z</time>
      </trkpt>
      <trkpt lat="47.85534" lon="3.50334">
        <ele>199</ele>
        <time>2019-04-01T11:57:28Z</time>
      </trkpt>
      <trkpt lat="47.8553" lon="3.5033">
        <ele>200</ele>
        <time>2019-04-01T11:57:31Z</time>
      </trkpt>
      <trkpt lat="47.85524" lon="3.50324">
        <ele>201</ele>
        <time>2019-04-01T11:57:34Z</time>
      </trkpt>
      <trkpt lat="47.85518" lon="3.50319">
        <ele>202</ele>
        <time>2019-04-01T11:57:39Z</time>
      </trkpt>
      <trkpt lat="47.85514" lon="3.50312">
        <ele>199</ele>
        <time>2019-04-01T11:57:43Z</time>
      </trkpt>
      <trkpt lat="47.8551" lon="3.50307">
        <ele>199</ele>
        <time>2019-04-01T11:57:46Z</time>
      </trkpt>
      <trkpt lat="47.85507" lon="3.50303">
        <ele>198</ele>
        <time>2019-04-01T11:57:48Z</time>
      </trkpt>
      <trkpt lat="47.85505" lon="3.503">
        <ele>197</ele>
        <time>2019-04-01T11:57:50Z</time>
      </trkpt>
      <trkpt lat="47.855" lon="3.50294">
        <ele>196</ele>
        <time>2019-04-01T11:57:55Z</time>
      </trkpt>
      <trkpt lat="47.85495" lon="3.50289">
        <ele>194</ele>
        <time>2019-04-01T11:57:59Z</time>
      </trkpt>
      <trkpt lat="47.85492" lon="3.50286">
        <ele>194</ele>
        <time>2019-04-01T11:58:01Z</time>
      </trkpt>
      <trkpt lat="47.85486" lon="3.5028">
        <ele>195</ele>
        <time>2019-04-01T11:58:06Z</time>
      </trkpt>
      <trkpt lat="47.85484" lon="3.50278">
        <ele>194</ele>
        <time>2019-04-01T11:58:08Z</time>
      </trkpt>
      <trkpt lat="47.85479" lon="3.50271">
        <ele>194</ele>
        <time>2019-04-01T11:58:13Z</time>
      </trkpt>
      <trkpt lat="47.85475" lon="3.50265">
        <ele>195</ele>
        <time>2019-04-01T11:58:17Z</time>
      </trkpt>
      <trkpt lat="47.85472" lon="3.50259">
        <ele>194</ele>
        <time>2019-04-01T11:58:21Z</time>
      </trkpt>
      <trkpt lat="47.85468" lon="3.50253">
        <ele>195</ele>
        <time>2019-04-01T11:58:24Z</time>
      </trkpt>
      <trkpt lat="47.85466" lon="3.5025">
        <ele>196</ele>
        <time>2019-04-01T11:58:27Z</time>
      </trkpt>
      <trkpt lat="47.85462" lon="3.50243">
        <ele>196</ele>
        <time>2019-04-01T11:58:32Z</time>
      </trkpt>
      <trkpt lat="47.85457" lon="3.50239">
        <ele>197</ele>
        <time>2019-04-01T11:58:36Z</time>
      </trkpt>
      <trkpt lat="47.85453" lon="3.50233">
        <ele>197</ele>
        <time>2019-04-01T11:58:40Z</time>
      </trkpt>
      <trkpt lat="47.85451" lon="3.50231">
        <ele>196</ele>
        <time>2019-04-01T11:58:42Z</time>
      </trkpt>
      <trkpt lat="47.85448" lon="3.50227">
        <ele>197</ele>
        <time>2019-04-01T11:58:45Z</time>
      </trkpt>
      <trkpt lat="47.85445" lon="3.50221">
        <ele>195</ele>
        <time>2019-04-01T11:58:49Z</time>
      </trkpt>
      <trkpt lat="47.85444" lon="3.50218">
        <ele>194</ele>
        <time>2019-04-01T11:58:51Z</time>
      </trkpt>
      <trkpt lat="47.8544" lon="3.50213">
        <ele>194</ele>
        <time>2019-04-01T11:58:55Z</time>
      </trkpt>
      <trkpt lat="47.85437" lon="3.50208">
        <ele>195</ele>
        <time>2019-04-01T11:58:58Z</time>
      </trkpt>
      <trkpt lat="47.85434" lon="3.50204">
        <ele>194</ele>
        <time>2019-04-01T11:59:02Z</time>
      </trkpt>
      <trkpt lat="47.8543" lon="3.50197">
        <ele>197</ele>
        <time>2019-04-01T11:59:08Z</time>
      </trkpt>
      <trkpt lat="47.85428" lon="3.50193">
        <ele>198</ele>
        <time>2019-04-01T11:59:11Z</time>
      </trkpt>
      <trkpt lat="47.85424" lon="3.50189">
        <ele>198</ele>
        <time>2019-04-01T11:59:15Z</time>
      </trkpt>
      <trkpt lat="47.8542" lon="3.50181">
        <ele>197</ele>
        <time>2019-04-01T11:59:19Z</time>
      </trkpt>
      <trkpt lat="47.85416" lon="3.50176">
        <ele>197</ele>
        <time>2019-04-01T11:59:22Z</time>
      </trkpt>
      <trkpt lat="47.85412" lon="3.50173">
        <ele>197</ele>
        <time>2019-04-01T11:59:25Z</time>
      </trkpt>
      <trkpt lat="47.8541" lon="3.50167">
        <ele>196</ele>
        <time>2019-04-01T11:59:28Z</time>
      </trkpt>
      <trkpt lat="47.85406" lon="3.50162">
        <ele>195</ele>
        <time>2019-04-01T11:59:32Z</time>
      </trkpt>
      <trkpt lat="47.85402" lon="3.50157">
        <ele>195</ele>
        <time>2019-04-01T11:59:36Z</time>
      </trkpt>
      <trkpt lat="47.85398" lon="3.50154">
        <ele>197</ele>
        <time>2019-04-01T11:59:41Z</time>
      </trkpt>
      <trkpt lat="47.85396" lon="3.50152">
        <ele>198</ele>
        <time>2019-04-01T11:59:43Z</time>
      </trkpt>
      <trkpt lat="47.85394" lon="3.50146">
        <ele>198</ele>
        <time>2019-04-01T11:59:46Z</time>
      </trkpt>
      <trkpt lat="47.85391" lon="3.50141">
        <ele>201</ele>
        <time>2019-04-01T11:59:51Z</time>
      </trkpt>
      <trkpt lat="47.85387" lon="3.50136">
        <ele>200</ele>
        <time>2019-04-01T11:59:54Z</time>
      </trkpt>
      <trkpt lat="47.85383" lon="3.50132">
        <ele>197</ele>
        <time>2019-04-01T11:59:57Z</time>
      </trkpt>
      <trkpt lat="47.85378" lon="3.50125">
        <ele>198</ele>
        <time>2019-04-01T12:00:02Z</time>
      </trkpt>
      <trkpt lat="47.85376" lon="3.50121">
        <ele>198</ele>
        <time>2019-04-01T12:00:05Z</time>
      </trkpt>
      <trkpt lat="47.85374" lon="3.50118">
        <ele>198</ele>
        <time>2019-04-01T12:00:07Z</time>
      </trkpt>
      <trkpt lat="47.8537" lon="3.50113">
        <ele>198</ele>
        <time>2019-04-01T12:00:10Z</time>
      </trkpt>
      <trkpt lat="47.85366" lon="3.50107">
        <ele>198</ele>
        <time>2019-04-01T12:00:15Z</time>
      </trkpt>
      <trkpt lat="47.85362" lon="3.501">
        <ele>199</ele>
        <time>2019-04-01T12:00:19Z</time>
      </trkpt>
      <trkpt lat="47.8536" lon="3.50097">
        <ele>198</ele>
        <time>2019-04-01T12:00:21Z</time>
      </trkpt>
      <trkpt lat="47.85356" lon="3.50092">
        <ele>199</ele>
        <time>2019-04-01T12:00:26Z</time>
      </trkpt>
      <trkpt lat="47.85352" lon="3.50084">
        <ele>201</ele>
        <time>2019-04-01T12:00:32Z</time>
      </trkpt>
      <trkpt lat="47.8535" lon="3.5008">
        <ele>200</ele>
        <time>2019-04-01T12:00:35Z</time>
      </trkpt>
      <trkpt lat="47.85345" lon="3.50073">
        <ele>201</ele>
        <time>2019-04-01T12:00:40Z</time>
      </trkpt>
      <trkpt lat="47.85342" lon="3.50069">
        <ele>202</ele>
        <time>2019-04-01T12:00:42Z</time>
      </trkpt>
      <trkpt lat="47.85339" lon="3.50064">
        <ele>204</ele>
        <time>2019-04-01T12:00:46Z</time>
      </trkpt>
      <trkpt lat="47.85335" lon="3.50059">
        <ele>205</ele>
        <time>2019-04-01T12:00:51Z</time>
      </trkpt>
      <trkpt lat="47.85331" lon="3.50054">
        <ele>205</ele>
        <time>2019-04-01T12:00:54Z</time>
      </trkpt>
      <trkpt lat="47.85327" lon="3.50047">
        <ele>206</ele>
        <time>2019-04-01T12:00:59Z</time>
      </trkpt>
      <trkpt lat="47.85323" lon="3.50043">
        <ele>206</ele>
        <time>2019-04-01T12:01:03Z</time>
      </trkpt>
      <trkpt lat="47.85319" lon="3.50039">
        <ele>206</ele>
        <time>2019-04-01T12:01:06Z</time>
      </trkpt>
      <trkpt lat="47.85316" lon="3.50032">
        <ele>206</ele>
        <time>2019-04-01T12:01:10Z</time>
      </trkpt>
      <trkpt lat="47.85313" lon="3.50028">
        <ele>206</ele>
        <time>2019-04-01T12:01:13Z</time>
      </trkpt>
      <trkpt lat="47.85311" lon="3.50025">
        <ele>206</ele>
        <time>2019-04-01T12:01:15Z</time>
      </trkpt>
      <trkpt lat="47.85306" lon="3.5002">
        <ele>205</ele>
        <time>2019-04-01T12:01:19Z</time>
      </trkpt>
      <trkpt lat="47.85301" lon="3.50018">
        <ele>206</ele>
        <time>2019-04-01T12:01:22Z</time>
      </trkpt>
      <trkpt lat="47.85296" lon="3.50018">
        <ele>206</ele>
        <time>2019-04-01T12:01:25Z</time>
      </trkpt>
      <trkpt lat="47.8529" lon="3.5002">
        <ele>206</ele>
        <time>2019-04-01T12:01:28Z</time>
      </trkpt>
      <trkpt lat="47.85285" lon="3.50022">
        <ele>207</ele>
        <time>2019-04-01T12:01:31Z</time>
      </trkpt>
      <trkpt lat="47.8528" lon="3.50026">
        <ele>207</ele>
        <time>2019-04-01T12:01:35Z</time>
      </trkpt>
      <trkpt lat="47.85273" lon="3.50027">
        <ele>207</ele>
        <time>2019-04-01T12:01:40Z</time>
      </trkpt>
      <trkpt lat="47.85268" lon="3.50028">
        <ele>208</ele>
        <time>2019-04-01T12:01:45Z</time>
      </trkpt>
      <trkpt lat="47.85263" lon="3.50032">
        <ele>211</ele>
        <time>2019-04-01T12:01:51Z</time>
      </trkpt>
      <trkpt lat="47.8526" lon="3.50034">
        <ele>212</ele>
        <time>2019-04-01T12:01:54Z</time>
      </trkpt>
      <trkpt lat="47.85254" lon="3.50038">
        <ele>211</ele>
        <time>2019-04-01T12:01:59Z</time>
      </trkpt>
      <trkpt lat="47.85249" lon="3.50039">
        <ele>210</ele>
        <time>2019-04-01T12:02:03Z</time>
      </trkpt>
      <trkpt lat="47.85245" lon="3.50044">
        <ele>210</ele>
        <time>2019-04-01T12:02:07Z</time>
      </trkpt>
      <trkpt lat="47.85241" lon="3.50047">
        <ele>211</ele>
        <time>2019-04-01T12:02:11Z</time>
      </trkpt>
      <trkpt lat="47.85238" lon="3.50048">
        <ele>211</ele>
        <time>2019-04-01T12:02:13Z</time>
      </trkpt>
      <trkpt lat="47.85236" lon="3.50049">
        <ele>211</ele>
        <time>2019-04-01T12:02:15Z</time>
      </trkpt>
      <trkpt lat="47.85231" lon="3.50051">
        <ele>210</ele>
        <time>2019-04-01T12:02:18Z</time>
      </trkpt>
      <trkpt lat="47.85226" lon="3.50055">
        <ele>211</ele>
        <time>2019-04-01T12:02:22Z</time>
      </trkpt>
      <trkpt lat="47.85224" lon="3.50057">
        <ele>210</ele>
        <time>2019-04-01T12:02:24Z</time>
      </trkpt>
      <trkpt lat="47.85221" lon="3.5006">
        <ele>211</ele>
        <time>2019-04-01T12:02:26Z</time>
      </trkpt>
      <trkpt lat="47.85216" lon="3.50063">
        <ele>210</ele>
        <time>2019-04-01T12:02:29Z</time>
      </trkpt>
      <trkpt lat="47.85211" lon="3.50065">
        <ele>208</ele>
        <time>2019-04-01T12:02:33Z</time>
      </trkpt>
      <trkpt lat="47.85206" lon="3.50068">
        <ele>210</ele>
        <time>2019-04-01T12:02:37Z</time>
      </trkpt>
      <trkpt lat="47.85198" lon="3.50075">
        <ele>210</ele>
        <time>2019-04-01T12:02:42Z</time>
      </trkpt>
      <trkpt lat="47.85195" lon="3.50082">
        <ele>210</ele>
        <time>2019-04-01T12:02:46Z</time>
      </trkpt>
      <trkpt lat="47.85192" lon="3.50088">
        <ele>209</ele>
        <time>2019-04-01T12:02:50Z</time>
      </trkpt>
      <trkpt lat="47.85187" lon="3.5009">
        <ele>209</ele>
        <time>2019-04-01T12:02:54Z</time>
      </trkpt>
      <trkpt lat="47.85182" lon="3.50089">
        <ele>209</ele>
        <time>2019-04-01T12:02:57Z</time>
      </trkpt>
      <trkpt lat="47.85179" lon="3.50088">
        <ele>207</ele>
        <time>2019-04-01T12:02:59Z</time>
      </trkpt>
      <trkpt lat="47.85175" lon="3.50091">
        <ele>208</ele>
        <time>2019-04-01T12:03:02Z</time>
      </trkpt>
      <trkpt lat="47.8517" lon="3.50094">
        <ele>210</ele>
        <time>2019-04-01T12:03:09Z</time>
      </trkpt>
      <trkpt lat="47.85166" lon="3.50097">
        <ele>211</ele>
        <time>2019-04-01T12:03:14Z</time>
      </trkpt>
      <trkpt lat="47.85162" lon="3.50099">
        <ele>211</ele>
        <time>2019-04-01T12:03:17Z</time>
      </trkpt>
      <trkpt lat="47.85159" lon="3.50104">
        <ele>211</ele>
        <time>2019-04-01T12:03:21Z</time>
      </trkpt>
      <trkpt lat="47.85154" lon="3.50107">
        <ele>212</ele>
        <time>2019-04-01T12:03:25Z</time>
      </trkpt>
      <trkpt lat="47.8515" lon="3.50111">
        <ele>211</ele>
        <time>2019-04-01T12:03:29Z</time>
      </trkpt>
      <trkpt lat="47.85146" lon="3.50113">
        <ele>212</ele>
        <time>2019-04-01T12:03:31Z</time>
      </trkpt>
      <trkpt lat="47.85142" lon="3.50115">
        <ele>213</ele>
        <time>2019-04-01T12:03:34Z</time>
      </trkpt>
      <trkpt lat="47.85138" lon="3.5012">
        <ele>214</ele>
        <time>2019-04-01T12:03:37Z</time>
      </trkpt>
      <trkpt lat="47.85135" lon="3.50124">
        <ele>216</ele>
        <time>2019-04-01T12:03:40Z</time>
      </trkpt>
      <trkpt lat="47.85131" lon="3.50128">
        <ele>217</ele>
        <time>2019-04-01T12:03:44Z</time>
      </trkpt>
      <trkpt lat="47.85127" lon="3.50133">
        <ele>217</ele>
        <time>2019-04-01T12:03:48Z</time>
      </trkpt>
      <trkpt lat="47.85122" lon="3.50136">
        <ele>217</ele>
        <time>2019-04-01T12:03:51Z</time>
      </trkpt>
      <trkpt lat="47.85116" lon="3.50139">
        <ele>216</ele>
        <time>2019-04-01T12:03:54Z</time>
      </trkpt>
      <trkpt lat="47.85112" lon="3.50141">
        <ele>215</ele>
        <time>2019-04-01T12:03:56Z</time>
      </trkpt>
      <trkpt lat="47.85107" lon="3.50144">
        <ele>216</ele>
        <time>2019-04-01T12:04:00Z</time>
      </trkpt>
      <trkpt lat="47.85101" lon="3.50147">
        <ele>214</ele>
        <time>2019-04-01T12:04:04Z</time>
      </trkpt>
      <trkpt lat="47.85098" lon="3.50149">
        <ele>214</ele>
        <time>2019-04-01T12:04:06Z</time>
      </trkpt>
      <trkpt lat="47.85094" lon="3.50151">
        <ele>214</ele>
        <time>2019-04-01T12:04:10Z</time>
      </trkpt>
      <trkpt lat="47.85091" lon="3.50153">
        <ele>214</ele>
        <time>2019-04-01T12:04:13Z</time>
      </trkpt>
      <trkpt lat="47.85087" lon="3.50159">
        <ele>214</ele>
        <time>2019-04-01T12:04:18Z</time>
      </trkpt>
      <trkpt lat="47.85083" lon="3.50163">
        <ele>214</ele>
        <time>2019-04-01T12:04:22Z</time>
      </trkpt>
      <trkpt lat="47.85078" lon="3.50168">
        <ele>215</ele>
        <time>2019-04-01T12:04:26Z</time>
      </trkpt>
      <trkpt lat="47.85074" lon="3.50171">
        <ele>214</ele>
        <time>2019-04-01T12:04:30Z</time>
      </trkpt>
      <trkpt lat="47.8507" lon="3.50173">
        <ele>213</ele>
        <time>2019-04-01T12:04:34Z</time>
      </trkpt>
      <trkpt lat="47.85064" lon="3.50177">
        <ele>211</ele>
        <time>2019-04-01T12:04:39Z</time>
      </trkpt>
      <trkpt lat="47.85059" lon="3.5018">
        <ele>212</ele>
        <time>2019-04-01T12:04:43Z</time>
      </trkpt>
      <trkpt lat="47.85056" lon="3.50183">
        <ele>211</ele>
        <time>2019-04-01T12:04:46Z</time>
      </trkpt>
      <trkpt lat="47.85052" lon="3.50187">
        <ele>212</ele>
        <time>2019-04-01T12:04:50Z</time>
      </trkpt>
      <trkpt lat="47.85049" lon="3.50192">
        <ele>213</ele>
        <time>2019-04-01T12:04:54Z</time>
      </trkpt>
      <trkpt lat="47.85044" lon="3.50195">
        <ele>210</ele>
        <time>2019-04-01T12:04:58Z</time>
      </trkpt>
      <trkpt lat="47.85039" lon="3.50199">
        <ele>209</ele>
        <time>2019-04-01T12:05:02Z</time>
      </trkpt>
      <trkpt lat="47.85035" lon="3.502">
        <ele>207</ele>
        <time>2019-04-01T12:05:05Z</time>
      </trkpt>
      <trkpt lat="47.8503" lon="3.50203">
        <ele>205</ele>
        <time>2019-04-01T12:05:09Z</time>
      </trkpt>
      <trkpt lat="47.85024" lon="3.50206">
        <ele>205</ele>
        <time>2019-04-01T12:05:13Z</time>
      </trkpt>
      <trkpt lat="47.8502" lon="3.50211">
        <ele>205</ele>
        <time>2019-04-01T12:05:17Z</time>
      </trkpt>
      <trkpt lat="47.85016" lon="3.50214">
        <ele>205</ele>
        <time>2019-04-01T12:05:20Z</time>
      </trkpt>
      <trkpt lat="47.85011" lon="3.50218">
        <ele>205</ele>
        <time>2019-04-01T12:05:24Z</time>
      </trkpt>
      <trkpt lat="47.85007" lon="3.50221">
        <ele>205</ele>
        <time>2019-04-01T12:05:28Z</time>
      </trkpt>
      <trkpt lat="47.85002" lon="3.50224">
        <ele>206</ele>
        <time>2019-04-01T12:05:31Z</time>
      </trkpt>
      <trkpt lat="47.84999" lon="3.50227">
        <ele>206</ele>
        <time>2019-04-01T12:05:33Z</time>
      </trkpt>
      <trkpt lat="47.84996" lon="3.50228">
        <ele>206</ele>
        <time>2019-04-01T12:05:35Z</time>
      </trkpt>
      <trkpt lat="47.84992" lon="3.50231">
        <ele>206</ele>
        <time>2019-04-01T12:05:38Z</time>
      </trkpt>
      <trkpt lat="47.84987" lon="3.50232">
        <ele>208</ele>
        <time>2019-04-01T12:05:42Z</time>
      </trkpt>
      <trkpt lat="47.84984" lon="3.50233">
        <ele>208</ele>
        <time>2019-04-01T12:05:45Z</time>
      </trkpt>
      <trkpt lat="47.8498" lon="3.50234">
        <ele>207</ele>
        <time>2019-04-01T12:05:48Z</time>
      </trkpt>
      <trkpt lat="47.84975" lon="3.50238">
        <ele>207</ele>
        <time>2019-04-01T12:05:53Z</time>
      </trkpt>
      <trkpt lat="47.8497" lon="3.50242">
        <ele>208</ele>
        <time>2019-04-01T12:05:57Z</time>
      </trkpt>
      <trkpt lat="47.84968" lon="3.50243">
        <ele>208</ele>
        <time>2019-04-01T12:05:59Z</time>
      </trkpt>
      <trkpt lat="47.84965" lon="3.50245">
        <ele>208</ele>
        <time>2019-04-01T12:06:02Z</time>
      </trkpt>
      <trkpt lat="47.84961" lon="3.50247">
        <ele>209</ele>
        <time>2019-04-01T12:06:06Z</time>
      </trkpt>
      <trkpt lat="47.84957" lon="3.5025">
        <ele>209</ele>
        <time>2019-04-01T12:06:09Z</time>
      </trkpt>
      <trkpt lat="47.84954" lon="3.50251">
        <ele>209</ele>
        <time>2019-04-01T12:06:11Z</time>
      </trkpt>
      <trkpt lat="47.8495" lon="3.50254">
        <ele>209</ele>
        <time>2019-04-01T12:06:15Z</time>
      </trkpt>
      <trkpt lat="47.84946" lon="3.50258">
        <ele>207</ele>
        <time>2019-04-01T12:06:19Z</time>
      </trkpt>
      <trkpt lat="47.84942" lon="3.50263">
        <ele>206</ele>
        <time>2019-04-01T12:06:23Z</time>
      </trkpt>
      <trkpt lat="47.84938" lon="3.50265">
        <ele>205</ele>
        <time>2019-04-01T12:06:27Z</time>
      </trkpt>
      <trkpt lat="47.84935" lon="3.50267">
        <ele>205</ele>
        <time>2019-04-01T12:06:29Z</time>
      </trkpt>
      <trkpt lat="47.84931" lon="3.50271">
        <ele>205</ele>
        <time>2019-04-01T12:06:33Z</time>
      </trkpt>
      <trkpt lat="47.84926" lon="3.50275">
        <ele>204</ele>
        <time>2019-04-01T12:06:37Z</time>
      </trkpt>
      <trkpt lat="47.84923" lon="3.50277">
        <ele>201</ele>
        <time>2019-04-01T12:06:39Z</time>
      </trkpt>
      <trkpt lat="47.84922" lon="3.50277">
        <ele>201</ele>
        <time>2019-04-01T12:06:47Z</time>
      </trkpt>
      <trkpt lat="47.84918" lon="3.50281">
        <ele>198</ele>
        <time>2019-04-01T12:08:48Z</time>
      </trkpt>
      <trkpt lat="47.84914" lon="3.50285">
        <ele>200</ele>
        <time>2019-04-01T12:08:53Z</time>
      </trkpt>
      <trkpt lat="47.84909" lon="3.50287">
        <ele>201</ele>
        <time>2019-04-01T12:08:59Z</time>
      </trkpt>
      <trkpt lat="47.84906" lon="3.50288">
        <ele>201</ele>
        <time>2019-04-01T12:09:02Z</time>
      </trkpt>
      <trkpt lat="47.84902" lon="3.50287">
        <ele>202</ele>
        <time>2019-04-01T12:09:07Z</time>
      </trkpt>
      <trkpt lat="47.84897" lon="3.50282">
        <ele>201</ele>
        <time>2019-04-01T12:09:12Z</time>
      </trkpt>
      <trkpt lat="47.84891" lon="3.5028">
        <ele>202</ele>
        <time>2019-04-01T12:09:16Z</time>
      </trkpt>
      <trkpt lat="47.84889" lon="3.50279">
        <ele>202</ele>
        <time>2019-04-01T12:09:19Z</time>
      </trkpt>
      <trkpt lat="47.84884" lon="3.50277">
        <ele>202</ele>
        <time>2019-04-01T12:09:23Z</time>
      </trkpt>
      <trkpt lat="47.84879" lon="3.50276">
        <ele>202</ele>
        <time>2019-04-01T12:09:27Z</time>
      </trkpt>
      <trkpt lat="47.84876" lon="3.50275">
        <ele>202</ele>
        <time>2019-04-01T12:09:29Z</time>
      </trkpt>
      <trkpt lat="47.84871" lon="3.50275">
        <ele>203</ele>
        <time>2019-04-01T12:09:33Z</time>
      </trkpt>
      <trkpt lat="47.84864" lon="3.50272">
        <ele>203</ele>
        <time>2019-04-01T12:09:37Z</time>
      </trkpt>
      <trkpt lat="47.84858" lon="3.50271">
        <ele>204</ele>
        <time>2019-04-01T12:09:41Z</time>
      </trkpt>
      <trkpt lat="47.84855" lon="3.50271">
        <ele>204</ele>
        <time>2019-04-01T12:09:43Z</time>
      </trkpt>
      <trkpt lat="47.84851" lon="3.50271">
        <ele>204</ele>
        <time>2019-04-01T12:09:46Z</time>
      </trkpt>
      <trkpt lat="47.84847" lon="3.50271">
        <ele>204</ele>
        <time>2019-04-01T12:09:50Z</time>
      </trkpt>
      <trkpt lat="47.84842" lon="3.5027">
        <ele>203</ele>
        <time>2019-04-01T12:09:53Z</time>
      </trkpt>
      <trkpt lat="47.84838" lon="3.50269">
        <ele>203</ele>
        <time>2019-04-01T12:09:55Z</time>
      </trkpt>
      <trkpt lat="47.84832" lon="3.50269">
        <ele>202</ele>
        <time>2019-04-01T12:10:01Z</time>
      </trkpt>
      <trkpt lat="47.84828" lon="3.50269">
        <ele>202</ele>
        <time>2019-04-01T12:10:04Z</time>
      </trkpt>
      <trkpt lat="47.84821" lon="3.50271">
        <ele>203</ele>
        <time>2019-04-01T12:10:09Z</time>
      </trkpt>
      <trkpt lat="47.84815" lon="3.50269">
        <ele>203</ele>
        <time>2019-04-01T12:10:15Z</time>
      </trkpt>
      <trkpt lat="47.8481" lon="3.50267">
        <ele>203</ele>
        <time>2019-04-01T12:10:18Z</time>
      </trkpt>
      <trkpt lat="47.84805" lon="3.50266">
        <ele>202</ele>
        <time>2019-04-01T12:10:22Z</time>
      </trkpt>
      <trkpt lat="47.84803" lon="3.50265">
        <ele>202</ele>
        <time>2019-04-01T12:10:24Z</time>
      </trkpt>
      <trkpt lat="47.848" lon="3.50265">
        <ele>204</ele>
        <time>2019-04-01T12:10:27Z</time>
      </trkpt>
      <trkpt lat="47.84793" lon="3.50264">
        <ele>204</ele>
        <time>2019-04-01T12:10:31Z</time>
      </trkpt>
      <trkpt lat="47.84791" lon="3.50264">
        <ele>205</ele>
        <time>2019-04-01T12:10:33Z</time>
      </trkpt>
      <trkpt lat="47.84786" lon="3.50262">
        <ele>205</ele>
        <time>2019-04-01T12:10:37Z</time>
      </trkpt>
      <trkpt lat="47.84781" lon="3.50261">
        <ele>205</ele>
        <time>2019-04-01T12:10:42Z</time>
      </trkpt>
      <trkpt lat="47.84774" lon="3.50261">
        <ele>204</ele>
        <time>2019-04-01T12:10:48Z</time>
      </trkpt>
      <trkpt lat="47.84769" lon="3.50261">
        <ele>203</ele>
        <time>2019-04-01T12:10:51Z</time>
      </trkpt>
      <trkpt lat="47.84764" lon="3.50259">
        <ele>203</ele>
        <time>2019-04-01T12:10:56Z</time>
      </trkpt>
      <trkpt lat="47.84759" lon="3.50258">
        <ele>204</ele>
        <time>2019-04-01T12:10:59Z</time>
      </trkpt>
      <trkpt lat="47.84756" lon="3.50258">
        <ele>205</ele>
        <time>2019-04-01T12:11:01Z</time>
      </trkpt>
      <trkpt lat="47.84751" lon="3.50256">
        <ele>204</ele>
        <time>2019-04-01T12:11:05Z</time>
      </trkpt>
      <trkpt lat="47.84748" lon="3.50255">
        <ele>204</ele>
        <time>2019-04-01T12:11:07Z</time>
      </trkpt>
      <trkpt lat="47.84744" lon="3.50252">
        <ele>204</ele>
        <time>2019-04-01T12:11:10Z</time>
      </trkpt>
      <trkpt lat="47.84737" lon="3.50251">
        <ele>204</ele>
        <time>2019-04-01T12:11:14Z</time>
      </trkpt>
      <trkpt lat="47.84732" lon="3.50248">
        <ele>204</ele>
        <time>2019-04-01T12:11:18Z</time>
      </trkpt>
      <trkpt lat="47.84726" lon="3.50247">
        <ele>205</ele>
        <time>2019-04-01T12:11:22Z</time>
      </trkpt>
      <trkpt lat="47.84723" lon="3.50247">
        <ele>206</ele>
        <time>2019-04-01T12:11:25Z</time>
      </trkpt>
      <trkpt lat="47.84719" lon="3.50246">
        <ele>207</ele>
        <time>2019-04-01T12:11:27Z</time>
      </trkpt>
      <trkpt lat="47.84716" lon="3.50246">
        <ele>207</ele>
        <time>2019-04-01T12:11:29Z</time>
      </trkpt>
      <trkpt lat="47.84711" lon="3.50245">
        <ele>206</ele>
        <time>2019-04-01T12:11:32Z</time>
      </trkpt>
      <trkpt lat="47.84706" lon="3.50244">
        <ele>205</ele>
        <time>2019-04-01T12:11:36Z</time>
      </trkpt>
      <trkpt lat="47.84701" lon="3.50244">
        <ele>204</ele>
        <time>2019-04-01T12:11:40Z</time>
      </trkpt>
      <trkpt lat="47.84695" lon="3.50241">
        <ele>204</ele>
        <time>2019-04-01T12:11:44Z</time>
      </trkpt>
      <trkpt lat="47.84691" lon="3.5024">
        <ele>203</ele>
        <time>2019-04-01T12:11:48Z</time>
      </trkpt>
      <trkpt lat="47.84684" lon="3.50239">
        <ele>204</ele>
        <time>2019-04-01T12:11:53Z</time>
      </trkpt>
      <trkpt lat="47.8468" lon="3.50238">
        <ele>204</ele>
        <time>2019-04-01T12:11:56Z</time>
      </trkpt>
      <trkpt lat="47.84677" lon="3.50238">
        <ele>204</ele>
        <time>2019-04-01T12:11:58Z</time>
      </trkpt>
      <trkpt lat="47.84672" lon="3.50238">
        <ele>204</ele>
        <time>2019-04-01T12:12:02Z</time>
      </trkpt>
      <trkpt lat="47.84667" lon="3.50237">
        <ele>204</ele>
        <time>2019-04-01T12:12:06Z</time>
      </trkpt>
      <trkpt lat="47.84665" lon="3.50237">
        <ele>204</ele>
        <time>2019-04-01T12:12:08Z</time>
      </trkpt>
      <trkpt lat="47.8466" lon="3.50236">
        <ele>204</ele>
        <time>2019-04-01T12:12:11Z</time>
      </trkpt>
      <trkpt lat="47.84655" lon="3.50235">
        <ele>204</ele>
        <time>2019-04-01T12:12:15Z</time>
      </trkpt>
      <trkpt lat="47.84652" lon="3.50235">
        <ele>205</ele>
        <time>2019-04-01T12:12:17Z</time>
      </trkpt>
      <trkpt lat="47.8465" lon="3.50235">
        <ele>205</ele>
        <time>2019-04-01T12:12:19Z</time>
      </trkpt>
      <trkpt lat="47.84646" lon="3.50235">
        <ele>204</ele>
        <time>2019-04-01T12:12:22Z</time>
      </trkpt>
      <trkpt lat="47.84643" lon="3.50235">
        <ele>204</ele>
        <time>2019-04-01T12:12:24Z</time>
      </trkpt>
      <trkpt lat="47.8464" lon="3.50234">
        <ele>204</ele>
        <time>2019-04-01T12:12:26Z</time>
      </trkpt>
      <trkpt lat="47.84636" lon="3.50234">
        <ele>204</ele>
        <time>2019-04-01T12:12:30Z</time>
      </trkpt>
      <trkpt lat="47.84631" lon="3.50232">
        <ele>204</ele>
        <time>2019-04-01T12:12:34Z</time>
      </trkpt>
      <trkpt lat="47.84628" lon="3.50232">
        <ele>205</ele>
        <time>2019-04-01T12:12:36Z</time>
      </trkpt>
      <trkpt lat="47.84624" lon="3.50231">
        <ele>204</ele>
        <time>2019-04-01T12:12:40Z</time>
      </trkpt>
      <trkpt lat="47.84621" lon="3.5023">
        <ele>204</ele>
        <time>2019-04-01T12:12:42Z</time>
      </trkpt>
      <trkpt lat="47.84618" lon="3.5023">
        <ele>204</ele>
        <time>2019-04-01T12:12:44Z</time>
      </trkpt>
      <trkpt lat="47.84616" lon="3.5023">
        <ele>204</ele>
        <time>2019-04-01T12:12:46Z</time>
      </trkpt>
      <trkpt lat="47.84613" lon="3.50229">
        <ele>205</ele>
        <time>2019-04-01T12:12:48Z</time>
      </trkpt>
      <trkpt lat="47.84608" lon="3.50228">
        <ele>204</ele>
        <time>2019-04-01T12:12:53Z</time>
      </trkpt>
      <trkpt lat="47.84604" lon="3.50227">
        <ele>204</ele>
        <time>2019-04-01T12:12:56Z</time>
      </trkpt>
      <trkpt lat="47.84598" lon="3.50225">
        <ele>205</ele>
        <time>2019-04-01T12:12:59Z</time>
      </trkpt>
      <trkpt lat="47.84593" lon="3.50225">
        <ele>206</ele>
        <time>2019-04-01T12:13:03Z</time>
      </trkpt>
      <trkpt lat="47.84588" lon="3.50224">
        <ele>206</ele>
        <time>2019-04-01T12:13:07Z</time>
      </trkpt>
      <trkpt lat="47.84586" lon="3.50224">
        <ele>206</ele>
        <time>2019-04-01T12:13:09Z</time>
      </trkpt>
      <trkpt lat="47.84581" lon="3.50221">
        <ele>207</ele>
        <time>2019-04-01T12:13:13Z</time>
      </trkpt>
      <trkpt lat="47.84575" lon="3.5022">
        <ele>206</ele>
        <time>2019-04-01T12:13:18Z</time>
      </trkpt>
      <trkpt lat="47.8457" lon="3.5022">
        <ele>207</ele>
        <time>2019-04-01T12:13:22Z</time>
      </trkpt>
      <trkpt lat="47.84566" lon="3.50219">
        <ele>207</ele>
        <time>2019-04-01T12:13:25Z</time>
      </trkpt>
      <trkpt lat="47.84562" lon="3.50218">
        <ele>208</ele>
        <time>2019-04-01T12:13:28Z</time>
      </trkpt>
      <trkpt lat="47.84559" lon="3.50217">
        <ele>208</ele>
        <time>2019-04-01T12:13:30Z</time>
      </trkpt>
      <trkpt lat="47.84554" lon="3.50216">
        <ele>209</ele>
        <time>2019-04-01T12:13:34Z</time>
      </trkpt>
      <trkpt lat="47.8455" lon="3.50216">
        <ele>208</ele>
        <time>2019-04-01T12:13:38Z</time>
      </trkpt>
      <trkpt lat="47.84548" lon="3.50216">
        <ele>208</ele>
        <time>2019-04-01T12:13:40Z</time>
      </trkpt>
      <trkpt lat="47.84543" lon="3.50214">
        <ele>208</ele>
        <time>2019-04-01T12:13:44Z</time>
      </trkpt>
      <trkpt lat="47.84538" lon="3.50213">
        <ele>208</ele>
        <time>2019-04-01T12:13:48Z</time>
      </trkpt>
      <trkpt lat="47.84534" lon="3.50213">
        <ele>208</ele>
        <time>2019-04-01T12:13:51Z</time>
      </trkpt>
      <trkpt lat="47.84528" lon="3.50212">
        <ele>208</ele>
        <time>2019-04-01T12:13:55Z</time>
      </trkpt>
      <trkpt lat="47.84523" lon="3.5021">
        <ele>209</ele>
        <time>2019-04-01T12:13:59Z</time>
      </trkpt>
      <trkpt lat="47.84519" lon="3.50209">
        <ele>209</ele>
        <time>2019-04-01T12:14:02Z</time>
      </trkpt>
      <trkpt lat="47.84514" lon="3.50208">
        <ele>208</ele>
        <time>2019-04-01T12:14:06Z</time>
      </trkpt>
      <trkpt lat="47.84509" lon="3.50206">
        <ele>209</ele>
        <time>2019-04-01T12:14:10Z</time>
      </trkpt>
      <trkpt lat="47.84504" lon="3.50205">
        <ele>209</ele>
        <time>2019-04-01T12:14:14Z</time>
      </trkpt>
      <trkpt lat="47.84501" lon="3.50204">
        <ele>209</ele>
        <time>2019-04-01T12:14:16Z</time>
      </trkpt>
      <trkpt lat="47.84496" lon="3.50203">
        <ele>210</ele>
        <time>2019-04-01T12:14:20Z</time>
      </trkpt>
      <trkpt lat="47.84494" lon="3.50203">
        <ele>210</ele>
        <time>2019-04-01T12:14:29Z</time>
      </trkpt>
      <trkpt lat="47.84489" lon="3.50204">
        <ele>211</ele>
        <time>2019-04-01T12:14:33Z</time>
      </trkpt>
      <trkpt lat="47.84484" lon="3.50203">
        <ele>212</ele>
        <time>2019-04-01T12:14:38Z</time>
      </trkpt>
      <trkpt lat="47.84482" lon="3.50205">
        <ele>211</ele>
        <time>2019-04-01T12:14:46Z</time>
      </trkpt>
      <trkpt lat="47.84477" lon="3.50203">
        <ele>212</ele>
        <time>2019-04-01T12:14:50Z</time>
      </trkpt>
      <trkpt lat="47.84474" lon="3.50202">
        <ele>212</ele>
        <time>2019-04-01T12:14:52Z</time>
      </trkpt>
      <trkpt lat="47.84468" lon="3.50202">
        <ele>212</ele>
        <time>2019-04-01T12:14:56Z</time>
      </trkpt>
      <trkpt lat="47.84463" lon="3.502">
        <ele>212</ele>
        <time>2019-04-01T12:15:00Z</time>
      </trkpt>
      <trkpt lat="47.8446" lon="3.50199">
        <ele>212</ele>
        <time>2019-04-01T12:15:02Z</time>
      </trkpt>
      <trkpt lat="47.84455" lon="3.50194">
        <ele>214</ele>
        <time>2019-04-01T12:15:06Z</time>
      </trkpt>
      <trkpt lat="47.8445" lon="3.50195">
        <ele>214</ele>
        <time>2019-04-01T12:15:11Z</time>
      </trkpt>
      <trkpt lat="47.84444" lon="3.50195">
        <ele>214</ele>
        <time>2019-04-01T12:15:16Z</time>
      </trkpt>
      <trkpt lat="47.84437" lon="3.50193">
        <ele>215</ele>
        <time>2019-04-01T12:15:21Z</time>
      </trkpt>
      <trkpt lat="47.84428" lon="3.50193">
        <ele>216</ele>
        <time>2019-04-01T12:15:27Z</time>
      </trkpt>
      <trkpt lat="47.84422" lon="3.50188">
        <ele>215</ele>
        <time>2019-04-01T12:15:32Z</time>
      </trkpt>
      <trkpt lat="47.84417" lon="3.50185">
        <ele>214</ele>
        <time>2019-04-01T12:15:35Z</time>
      </trkpt>
      <trkpt lat="47.84415" lon="3.50184">
        <ele>214</ele>
        <time>2019-04-01T12:15:37Z</time>
      </trkpt>
      <trkpt lat="47.84409" lon="3.50181">
        <ele>214</ele>
        <time>2019-04-01T12:15:42Z</time>
      </trkpt>
      <trkpt lat="47.84404" lon="3.50182">
        <ele>212</ele>
        <time>2019-04-01T12:15:46Z</time>
      </trkpt>
      <trkpt lat="47.84399" lon="3.5018">
        <ele>212</ele>
        <time>2019-04-01T12:15:50Z</time>
      </trkpt>
      <trkpt lat="47.84397" lon="3.50179">
        <ele>212</ele>
        <time>2019-04-01T12:15:52Z</time>
      </trkpt>
      <trkpt lat="47.84391" lon="3.5018">
        <ele>212</ele>
        <time>2019-04-01T12:15:56Z</time>
      </trkpt>
      <trkpt lat="47.84386" lon="3.50177">
        <ele>212</ele>
        <time>2019-04-01T12:16:00Z</time>
      </trkpt>
      <trkpt lat="47.84382" lon="3.50176">
        <ele>211</ele>
        <time>2019-04-01T12:16:04Z</time>
      </trkpt>
      <trkpt lat="47.84377" lon="3.50171">
        <ele>208</ele>
        <time>2019-04-01T12:16:09Z</time>
      </trkpt>
      <trkpt lat="47.84375" lon="3.50169">
        <ele>209</ele>
        <time>2019-04-01T12:16:11Z</time>
      </trkpt>
      <trkpt lat="47.84369" lon="3.50168">
        <ele>210</ele>
        <time>2019-04-01T12:16:15Z</time>
      </trkpt>
      <trkpt lat="47.84364" lon="3.50171">
        <ele>211</ele>
        <time>2019-04-01T12:16:18Z</time>
      </trkpt>
      <trkpt lat="47.84362" lon="3.50173">
        <ele>213</ele>
        <time>2019-04-01T12:16:20Z</time>
      </trkpt>
      <trkpt lat="47.84357" lon="3.50172">
        <ele>213</ele>
        <time>2019-04-01T12:16:25Z</time>
      </trkpt>
      <trkpt lat="47.84352" lon="3.50171">
        <ele>214</ele>
        <time>2019-04-01T12:16:28Z</time>
      </trkpt>
      <trkpt lat="47.84347" lon="3.50169">
        <ele>215</ele>
        <time>2019-04-01T12:16:32Z</time>
      </trkpt>
      <trkpt lat="47.84341" lon="3.50168">
        <ele>217</ele>
        <time>2019-04-01T12:16:36Z</time>
      </trkpt>
      <trkpt lat="47.84338" lon="3.50174">
        <ele>215</ele>
        <time>2019-04-01T12:16:41Z</time>
      </trkpt>
      <trkpt lat="47.84335" lon="3.50169">
        <ele>213</ele>
        <time>2019-04-01T12:16:50Z</time>
      </trkpt>
      <trkpt lat="47.84331" lon="3.50166">
        <ele>214</ele>
        <time>2019-04-01T12:16:56Z</time>
      </trkpt>
      <trkpt lat="47.84327" lon="3.50167">
        <ele>215</ele>
        <time>2019-04-01T12:17:00Z</time>
      </trkpt>
      <trkpt lat="47.84323" lon="3.50168">
        <ele>214</ele>
        <time>2019-04-01T12:17:02Z</time>
      </trkpt>
      <trkpt lat="47.84318" lon="3.50166">
        <ele>214</ele>
        <time>2019-04-01T12:17:06Z</time>
      </trkpt>
      <trkpt lat="47.84313" lon="3.50164">
        <ele>214</ele>
        <time>2019-04-01T12:17:09Z</time>
      </trkpt>
      <trkpt lat="47.84308" lon="3.50162">
        <ele>213</ele>
        <time>2019-04-01T12:17:12Z</time>
      </trkpt>
      <trkpt lat="47.84305" lon="3.5016">
        <ele>213</ele>
        <time>2019-04-01T12:17:15Z</time>
      </trkpt>
      <trkpt lat="47.843" lon="3.5016">
        <ele>213</ele>
        <time>2019-04-01T12:17:18Z</time>
      </trkpt>
      <trkpt lat="47.84296" lon="3.50159">
        <ele>214</ele>
        <time>2019-04-01T12:17:21Z</time>
      </trkpt>
      <trkpt lat="47.8429" lon="3.50157">
        <ele>213</ele>
        <time>2019-04-01T12:17:25Z</time>
      </trkpt>
      <trkpt lat="47.84285" lon="3.50154">
        <ele>212</ele>
        <time>2019-04-01T12:17:29Z</time>
      </trkpt>
      <trkpt lat="47.8428" lon="3.50155">
        <ele>213</ele>
        <time>2019-04-01T12:17:33Z</time>
      </trkpt>
      <trkpt lat="47.84277" lon="3.50155">
        <ele>212</ele>
        <time>2019-04-01T12:17:35Z</time>
      </trkpt>
      <trkpt lat="47.84274" lon="3.50156">
        <ele>212</ele>
        <time>2019-04-01T12:17:38Z</time>
      </trkpt>
      <trkpt lat="47.84268" lon="3.50153">
        <ele>212</ele>
        <time>2019-04-01T12:17:42Z</time>
      </trkpt>
      <trkpt lat="47.84266" lon="3.50152">
        <ele>212</ele>
        <time>2019-04-01T12:17:44Z</time>
      </trkpt>
      <trkpt lat="47.84263" lon="3.5015">
        <ele>213</ele>
        <time>2019-04-01T12:17:46Z</time>
      </trkpt>
      <trkpt lat="47.84257" lon="3.5015">
        <ele>213</ele>
        <time>2019-04-01T12:17:50Z</time>
      </trkpt>
      <trkpt lat="47.84253" lon="3.5015">
        <ele>214</ele>
        <time>2019-04-01T12:17:54Z</time>
      </trkpt>
      <trkpt lat="47.84248" lon="3.50148">
        <ele>213</ele>
        <time>2019-04-01T12:17:58Z</time>
      </trkpt>
      <trkpt lat="47.84245" lon="3.50147">
        <ele>213</ele>
        <time>2019-04-01T12:18:00Z</time>
      </trkpt>
      <trkpt lat="47.84243" lon="3.50147">
        <ele>214</ele>
        <time>2019-04-01T12:18:02Z</time>
      </trkpt>
      <trkpt lat="47.84238" lon="3.50146">
        <ele>215</ele>
        <time>2019-04-01T12:18:05Z</time>
      </trkpt>
      <trkpt lat="47.84235" lon="3.50146">
        <ele>215</ele>
        <time>2019-04-01T12:18:07Z</time>
      </trkpt>
      <trkpt lat="47.84231" lon="3.50145">
        <ele>215</ele>
        <time>2019-04-01T12:18:10Z</time>
      </trkpt>
      <trkpt lat="47.84228" lon="3.50144">
        <ele>215</ele>
        <time>2019-04-01T12:18:12Z</time>
      </trkpt>
      <trkpt lat="47.84223" lon="3.50143">
        <ele>214</ele>
        <time>2019-04-01T12:18:16Z</time>
      </trkpt>
      <trkpt lat="47.84217" lon="3.50142">
        <ele>213</ele>
        <time>2019-04-01T12:18:21Z</time>
      </trkpt>
      <trkpt lat="47.84214" lon="3.50142">
        <ele>213</ele>
        <time>2019-04-01T12:18:23Z</time>
      </trkpt>
      <trkpt lat="47.84208" lon="3.50141">
        <ele>212</ele>
        <time>2019-04-01T12:18:28Z</time>
      </trkpt>
      <trkpt lat="47.84203" lon="3.5014">
        <ele>213</ele>
        <time>2019-04-01T12:18:31Z</time>
      </trkpt>
      <trkpt lat="47.84198" lon="3.50139">
        <ele>212</ele>
        <time>2019-04-01T12:18:35Z</time>
      </trkpt>
      <trkpt lat="47.84193" lon="3.5014">
        <ele>212</ele>
        <time>2019-04-01T12:18:39Z</time>
      </trkpt>
      <trkpt lat="47.84188" lon="3.50139">
        <ele>212</ele>
        <time>2019-04-01T12:18:43Z</time>
      </trkpt>
      <trkpt lat="47.84183" lon="3.50137">
        <ele>211</ele>
        <time>2019-04-01T12:18:47Z</time>
      </trkpt>
      <trkpt lat="47.8418" lon="3.50136">
        <ele>211</ele>
        <time>2019-04-01T12:18:49Z</time>
      </trkpt>
      <trkpt lat="47.84176" lon="3.50135">
        <ele>212</ele>
        <time>2019-04-01T12:18:53Z</time>
      </trkpt>
      <trkpt lat="47.84172" lon="3.50134">
        <ele>212</ele>
        <time>2019-04-01T12:18:56Z</time>
      </trkpt>
      <trkpt lat="47.84167" lon="3.50135">
        <ele>211</ele>
        <time>2019-04-01T12:19:00Z</time>
      </trkpt>
      <trkpt lat="47.84162" lon="3.50133">
        <ele>211</ele>
        <time>2019-04-01T12:19:04Z</time>
      </trkpt>
      <trkpt lat="47.84156" lon="3.50133">
        <ele>210</ele>
        <time>2019-04-01T12:19:08Z</time>
      </trkpt>
      <trkpt lat="47.84154" lon="3.50132">
        <ele>210</ele>
        <time>2019-04-01T12:19:10Z</time>
      </trkpt>
      <trkpt lat="47.84151" lon="3.50132">
        <ele>210</ele>
        <time>2019-04-01T12:19:12Z</time>
      </trkpt>
      <trkpt lat="47.84148" lon="3.50131">
        <ele>210</ele>
        <time>2019-04-01T12:19:14Z</time>
      </trkpt>
      <trkpt lat="47.84144" lon="3.50131">
        <ele>211</ele>
        <time>2019-04-01T12:19:19Z</time>
      </trkpt>
      <trkpt lat="47.84141" lon="3.50137">
        <ele>211</ele>
        <time>2019-04-01T12:19:24Z</time>
      </trkpt>
      <trkpt lat="47.84141" lon="3.50137">
        <ele>211</ele>
        <time>2019-04-01T12:19:32Z</time>
      </trkpt>
      <trkpt lat="47.84141" lon="3.50137">
        <ele>211</ele>
        <time>2019-04-01T12:19:33Z</time>
      </trkpt>
      <trkpt lat="47.84139" lon="3.50143">
        <ele>211</ele>
        <time>2019-04-01T12:20:24Z</time>
      </trkpt>
      <trkpt lat="47.84137" lon="3.50146">
        <ele>213</ele>
        <time>2019-04-01T12:20:27Z</time>
      </trkpt>
      <trkpt lat="47.84134" lon="3.50152">
        <ele>214</ele>
        <time>2019-04-01T12:20:32Z</time>
      </trkpt>
      <trkpt lat="47.84133" lon="3.50159">
        <ele>215</ele>
        <time>2019-04-01T12:20:37Z</time>
      </trkpt>
      <trkpt lat="47.84133" lon="3.50167">
        <ele>215</ele>
        <time>2019-04-01T12:20:42Z</time>
      </trkpt>
      <trkpt lat="47.84133" lon="3.50171">
        <ele>216</ele>
        <time>2019-04-01T12:20:44Z</time>
      </trkpt>
      <trkpt lat="47.84132" lon="3.50178">
        <ele>216</ele>
        <time>2019-04-01T12:20:47Z</time>
      </trkpt>
      <trkpt lat="47.84132" lon="3.50182">
        <ele>217</ele>
        <time>2019-04-01T12:20:50Z</time>
      </trkpt>
      <trkpt lat="47.8413" lon="3.5019">
        <ele>217</ele>
        <time>2019-04-01T12:20:54Z</time>
      </trkpt>
      <trkpt lat="47.84129" lon="3.50194">
        <ele>217</ele>
        <time>2019-04-01T12:20:58Z</time>
      </trkpt>
      <trkpt lat="47.84127" lon="3.50201">
        <ele>216</ele>
        <time>2019-04-01T12:21:02Z</time>
      </trkpt>
      <trkpt lat="47.84125" lon="3.50211">
        <ele>217</ele>
        <time>2019-04-01T12:21:06Z</time>
      </trkpt>
      <trkpt lat="47.84121" lon="3.50219">
        <ele>215</ele>
        <time>2019-04-01T12:21:10Z</time>
      </trkpt>
      <trkpt lat="47.84122" lon="3.50226">
        <ele>216</ele>
        <time>2019-04-01T12:21:13Z</time>
      </trkpt>
      <trkpt lat="47.84121" lon="3.50234">
        <ele>217</ele>
        <time>2019-04-01T12:21:16Z</time>
      </trkpt>
      <trkpt lat="47.84119" lon="3.50241">
        <ele>215</ele>
        <time>2019-04-01T12:21:20Z</time>
      </trkpt>
      <trkpt lat="47.84113" lon="3.50247">
        <ele>215</ele>
        <time>2019-04-01T12:21:27Z</time>
      </trkpt>
      <trkpt lat="47.84111" lon="3.50253">
        <ele>216</ele>
        <time>2019-04-01T12:21:30Z</time>
      </trkpt>
      <trkpt lat="47.8411" lon="3.50257">
        <ele>215</ele>
        <time>2019-04-01T12:21:32Z</time>
      </trkpt>
      <trkpt lat="47.84108" lon="3.50264">
        <ele>215</ele>
        <time>2019-04-01T12:21:36Z</time>
      </trkpt>
      <trkpt lat="47.84108" lon="3.50272">
        <ele>214</ele>
        <time>2019-04-01T12:21:40Z</time>
      </trkpt>
      <trkpt lat="47.84107" lon="3.5028">
        <ele>213</ele>
        <time>2019-04-01T12:21:43Z</time>
      </trkpt>
      <trkpt lat="47.84106" lon="3.50287">
        <ele>213</ele>
        <time>2019-04-01T12:21:46Z</time>
      </trkpt>
      <trkpt lat="47.84106" lon="3.50292">
        <ele>213</ele>
        <time>2019-04-01T12:21:48Z</time>
      </trkpt>
      <trkpt lat="47.84105" lon="3.50299">
        <ele>214</ele>
        <time>2019-04-01T12:21:51Z</time>
      </trkpt>
      <trkpt lat="47.84105" lon="3.50306">
        <ele>213</ele>
        <time>2019-04-01T12:21:54Z</time>
      </trkpt>
      <trkpt lat="47.84104" lon="3.50314">
        <ele>214</ele>
        <time>2019-04-01T12:21:57Z</time>
      </trkpt>
      <trkpt lat="47.84104" lon="3.50321">
        <ele>213</ele>
        <time>2019-04-01T12:22:01Z</time>
      </trkpt>
      <trkpt lat="47.84104" lon="3.50328">
        <ele>213</ele>
        <time>2019-04-01T12:22:04Z</time>
      </trkpt>
      <trkpt lat="47.84102" lon="3.50336">
        <ele>213</ele>
        <time>2019-04-01T12:22:09Z</time>
      </trkpt>
      <trkpt lat="47.84102" lon="3.5034">
        <ele>214</ele>
        <time>2019-04-01T12:22:11Z</time>
      </trkpt>
      <trkpt lat="47.84101" lon="3.50347">
        <ele>215</ele>
        <time>2019-04-01T12:22:15Z</time>
      </trkpt>
      <trkpt lat="47.84101" lon="3.50352">
        <ele>215</ele>
        <time>2019-04-01T12:22:18Z</time>
      </trkpt>
      <trkpt lat="47.84101" lon="3.50356">
        <ele>214</ele>
        <time>2019-04-01T12:22:20Z</time>
      </trkpt>
      <trkpt lat="47.841" lon="3.50359">
        <ele>214</ele>
        <time>2019-04-01T12:22:21Z</time>
      </trkpt>
      <trkpt lat="47.84098" lon="3.50369">
        <ele>215</ele>
        <time>2019-04-01T12:22:26Z</time>
      </trkpt>
      <trkpt lat="47.84097" lon="3.50376">
        <ele>215</ele>
        <time>2019-04-01T12:22:31Z</time>
      </trkpt>
      <trkpt lat="47.84095" lon="3.50381">
        <ele>216</ele>
        <time>2019-04-01T12:22:34Z</time>
      </trkpt>
      <trkpt lat="47.84096" lon="3.50388">
        <ele>215</ele>
        <time>2019-04-01T12:22:38Z</time>
      </trkpt>
      <trkpt lat="47.84096" lon="3.50392">
        <ele>216</ele>
        <time>2019-04-01T12:22:40Z</time>
      </trkpt>
      <trkpt lat="47.84095" lon="3.50401">
        <ele>215</ele>
        <time>2019-04-01T12:22:44Z</time>
      </trkpt>
      <trkpt lat="47.84095" lon="3.50404">
        <ele>216</ele>
        <time>2019-04-01T12:22:46Z</time>
      </trkpt>
      <trkpt lat="47.84093" lon="3.50412">
        <ele>215</ele>
        <time>2019-04-01T12:22:50Z</time>
      </trkpt>
      <trkpt lat="47.84093" lon="3.50416">
        <ele>215</ele>
        <time>2019-04-01T12:22:52Z</time>
      </trkpt>
      <trkpt lat="47.84092" lon="3.50419">
        <ele>216</ele>
        <time>2019-04-01T12:22:54Z</time>
      </trkpt>
      <trkpt lat="47.84093" lon="3.50429">
        <ele>217</ele>
        <time>2019-04-01T12:23:00Z</time>
      </trkpt>
      <trkpt lat="47.84091" lon="3.50435">
        <ele>217</ele>
        <time>2019-04-01T12:23:04Z</time>
      </trkpt>
      <trkpt lat="47.84089" lon="3.50443">
        <ele>217</ele>
        <time>2019-04-01T12:23:08Z</time>
      </trkpt>
      <trkpt lat="47.84088" lon="3.50447">
        <ele>216</ele>
        <time>2019-04-01T12:23:11Z</time>
      </trkpt>
      <trkpt lat="47.84086" lon="3.50454">
        <ele>217</ele>
        <time>2019-04-01T12:23:15Z</time>
      </trkpt>
      <trkpt lat="47.84084" lon="3.50461">
        <ele>218</ele>
        <time>2019-04-01T12:23:19Z</time>
      </trkpt>
      <trkpt lat="47.84083" lon="3.50464">
        <ele>218</ele>
        <time>2019-04-01T12:23:21Z</time>
      </trkpt>
      <trkpt lat="47.84083" lon="3.50471">
        <ele>221</ele>
        <time>2019-04-01T12:23:28Z</time>
      </trkpt>
      <trkpt lat="47.84085" lon="3.50477">
        <ele>221</ele>
        <time>2019-04-01T12:23:33Z</time>
      </trkpt>
      <trkpt lat="47.84086" lon="3.50485">
        <ele>221</ele>
        <time>2019-04-01T12:23:38Z</time>
      </trkpt>
      <trkpt lat="47.84084" lon="3.50492">
        <ele>219</ele>
        <time>2019-04-01T12:23:44Z</time>
      </trkpt>
      <trkpt lat="47.84081" lon="3.50499">
        <ele>217</ele>
        <time>2019-04-01T12:23:50Z</time>
      </trkpt>
      <trkpt lat="47.84079" lon="3.50505">
        <ele>219</ele>
        <time>2019-04-01T12:23:53Z</time>
      </trkpt>
      <trkpt lat="47.84077" lon="3.50512">
        <ele>219</ele>
        <time>2019-04-01T12:23:58Z</time>
      </trkpt>
      <trkpt lat="47.84075" lon="3.50519">
        <ele>220</ele>
        <time>2019-04-01T12:24:02Z</time>
      </trkpt>
      <trkpt lat="47.84071" lon="3.50529">
        <ele>219</ele>
        <time>2019-04-01T12:24:07Z</time>
      </trkpt>
      <trkpt lat="47.84069" lon="3.50538">
        <ele>219</ele>
        <time>2019-04-01T12:24:12Z</time>
      </trkpt>
      <trkpt lat="47.84069" lon="3.50546">
        <ele>220</ele>
        <time>2019-04-01T12:24:16Z</time>
      </trkpt>
      <trkpt lat="47.84069" lon="3.50551">
        <ele>222</ele>
        <time>2019-04-01T12:24:20Z</time>
      </trkpt>
      <trkpt lat="47.84068" lon="3.50559">
        <ele>222</ele>
        <time>2019-04-01T12:24:24Z</time>
      </trkpt>
      <trkpt lat="47.84066" lon="3.50566">
        <ele>223</ele>
        <time>2019-04-01T12:24:29Z</time>
      </trkpt>
      <trkpt lat="47.84065" lon="3.50571">
        <ele>223</ele>
        <time>2019-04-01T12:24:31Z</time>
      </trkpt>
      <trkpt lat="47.84063" lon="3.50576">
        <ele>223</ele>
        <time>2019-04-01T12:24:34Z</time>
      </trkpt>
      <trkpt lat="47.84063" lon="3.50584">
        <ele>223</ele>
        <time>2019-04-01T12:24:38Z</time>
      </trkpt>
      <trkpt lat="47.84062" lon="3.50592">
        <ele>222</ele>
        <time>2019-04-01T12:24:42Z</time>
      </trkpt>
      <trkpt lat="47.84062" lon="3.50597">
        <ele>222</ele>
        <time>2019-04-01T12:24:45Z</time>
      </trkpt>
      <trkpt lat="47.84062" lon="3.50602">
        <ele>222</ele>
        <time>2019-04-01T12:24:48Z</time>
      </trkpt>
      <trkpt lat="47.84061" lon="3.50606">
        <ele>220</ele>
        <time>2019-04-01T12:24:50Z</time>
      </trkpt>
      <trkpt lat="47.8406" lon="3.50613">
        <ele>221</ele>
        <time>2019-04-01T12:24:53Z</time>
      </trkpt>
      <trkpt lat="47.84057" lon="3.50619">
        <ele>221</ele>
        <time>2019-04-01T12:24:57Z</time>
      </trkpt>
      <trkpt lat="47.84055" lon="3.50628">
        <ele>221</ele>
        <time>2019-04-01T12:25:01Z</time>
      </trkpt>
      <trkpt lat="47.84052" lon="3.50634">
        <ele>222</ele>
        <time>2019-04-01T12:25:04Z</time>
      </trkpt>
      <trkpt lat="47.84051" lon="3.50642">
        <ele>221</ele>
        <time>2019-04-01T12:25:08Z</time>
      </trkpt>
      <trkpt lat="47.84052" lon="3.50651">
        <ele>220</ele>
        <time>2019-04-01T12:25:13Z</time>
      </trkpt>
      <trkpt lat="47.84051" lon="3.50659">
        <ele>220</ele>
        <time>2019-04-01T12:25:16Z</time>
      </trkpt>
      <trkpt lat="47.84049" lon="3.50665">
        <ele>220</ele>
        <time>2019-04-01T12:25:19Z</time>
      </trkpt>
      <trkpt lat="47.84048" lon="3.50674">
        <ele>219</ele>
        <time>2019-04-01T12:25:24Z</time>
      </trkpt>
      <trkpt lat="47.84048" lon="3.50681">
        <ele>218</ele>
        <time>2019-04-01T12:25:28Z</time>
      </trkpt>
      <trkpt lat="47.84048" lon="3.50686">
        <ele>218</ele>
        <time>2019-04-01T12:25:30Z</time>
      </trkpt>
      <trkpt lat="47.84046" lon="3.50694">
        <ele>218</ele>
        <time>2019-04-01T12:25:34Z</time>
      </trkpt>
      <trkpt lat="47.84045" lon="3.50702">
        <ele>216</ele>
        <time>2019-04-01T12:25:38Z</time>
      </trkpt>
      <trkpt lat="47.84044" lon="3.50709">
        <ele>214</ele>
        <time>2019-04-01T12:25:42Z</time>
      </trkpt>
      <trkpt lat="47.84041" lon="3.50716">
        <ele>215</ele>
        <time>2019-04-01T12:25:46Z</time>
      </trkpt>
      <trkpt lat="47.84039" lon="3.50719">
        <ele>216</ele>
        <time>2019-04-01T12:25:48Z</time>
      </trkpt>
      <trkpt lat="47.84037" lon="3.50723">
        <ele>217</ele>
        <time>2019-04-01T12:25:51Z</time>
      </trkpt>
      <trkpt lat="47.84035" lon="3.50728">
        <ele>216</ele>
        <time>2019-04-01T12:25:56Z</time>
      </trkpt>
      <trkpt lat="47.8403" lon="3.50732">
        <ele>216</ele>
        <time>2019-04-01T12:26:04Z</time>
      </trkpt>
      <trkpt lat="47.84025" lon="3.50733">
        <ele>217</ele>
        <time>2019-04-01T12:26:10Z</time>
      </trkpt>
      <trkpt lat="47.84021" lon="3.5073">
        <ele>216</ele>
        <time>2019-04-01T12:26:16Z</time>
      </trkpt>
      <trkpt lat="47.84017" lon="3.50727">
        <ele>214</ele>
        <time>2019-04-01T12:26:21Z</time>
      </trkpt>
      <trkpt lat="47.84009" lon="3.50727">
        <ele>214</ele>
        <time>2019-04-01T12:26:27Z</time>
      </trkpt>
      <trkpt lat="47.84005" lon="3.50727">
        <ele>214</ele>
        <time>2019-04-01T12:26:29Z</time>
      </trkpt>
      <trkpt lat="47.84002" lon="3.50728">
        <ele>214</ele>
        <time>2019-04-01T12:26:31Z</time>
      </trkpt>
      <trkpt lat="47.83999" lon="3.50729">
        <ele>213</ele>
        <time>2019-04-01T12:26:33Z</time>
      </trkpt>
      <trkpt lat="47.83994" lon="3.50727">
        <ele>213</ele>
        <time>2019-04-01T12:26:38Z</time>
      </trkpt>
      <trkpt lat="47.83989" lon="3.50723">
        <ele>210</ele>
        <time>2019-04-01T12:26:43Z</time>
      </trkpt>
      <trkpt lat="47.83984" lon="3.50721">
        <ele>210</ele>
        <time>2019-04-01T12:26:48Z</time>
      </trkpt>
      <trkpt lat="47.83977" lon="3.50718">
        <ele>210</ele>
        <time>2019-04-01T12:26:54Z</time>
      </trkpt>
      <trkpt lat="47.8397" lon="3.50719">
        <ele>209</ele>
        <time>2019-04-01T12:26:58Z</time>
      </trkpt>
      <trkpt lat="47.83966" lon="3.50717">
        <ele>208</ele>
        <time>2019-04-01T12:27:02Z</time>
      </trkpt>
      <trkpt lat="47.83961" lon="3.50716">
        <ele>208</ele>
        <time>2019-04-01T12:27:05Z</time>
      </trkpt>
      <trkpt lat="47.83956" lon="3.50714">
        <ele>207</ele>
        <time>2019-04-01T12:27:10Z</time>
      </trkpt>
      <trkpt lat="47.83952" lon="3.50711">
        <ele>207</ele>
        <time>2019-04-01T12:27:13Z</time>
      </trkpt>
      <trkpt lat="47.83947" lon="3.50707">
        <ele>207</ele>
        <time>2019-04-01T12:27:17Z</time>
      </trkpt>
      <trkpt lat="47.83942" lon="3.50706">
        <ele>206</ele>
        <time>2019-04-01T12:27:21Z</time>
      </trkpt>
      <trkpt lat="47.83937" lon="3.50706">
        <ele>205</ele>
        <time>2019-04-01T12:27:24Z</time>
      </trkpt>
      <trkpt lat="47.83934" lon="3.50705">
        <ele>205</ele>
        <time>2019-04-01T12:27:27Z</time>
      </trkpt>
      <trkpt lat="47.83932" lon="3.50705">
        <ele>204</ele>
        <time>2019-04-01T12:27:30Z</time>
      </trkpt>
      <trkpt lat="47.83926" lon="3.50702">
        <ele>204</ele>
        <time>2019-04-01T12:27:35Z</time>
      </trkpt>
      <trkpt lat="47.83919" lon="3.507">
        <ele>203</ele>
        <time>2019-04-01T12:27:40Z</time>
      </trkpt>
      <trkpt lat="47.83915" lon="3.50699">
        <ele>203</ele>
        <time>2019-04-01T12:27:43Z</time>
      </trkpt>
      <trkpt lat="47.83909" lon="3.50698">
        <ele>204</ele>
        <time>2019-04-01T12:27:47Z</time>
      </trkpt>
      <trkpt lat="47.83904" lon="3.50698">
        <ele>205</ele>
        <time>2019-04-01T12:27:50Z</time>
      </trkpt>
      <trkpt lat="47.83899" lon="3.50695">
        <ele>205</ele>
        <time>2019-04-01T12:27:55Z</time>
      </trkpt>
      <trkpt lat="47.83893" lon="3.50694">
        <ele>206</ele>
        <time>2019-04-01T12:28:00Z</time>
      </trkpt>
      <trkpt lat="47.83888" lon="3.50693">
        <ele>207</ele>
        <time>2019-04-01T12:28:05Z</time>
      </trkpt>
      <trkpt lat="47.83884" lon="3.5069">
        <ele>205</ele>
        <time>2019-04-01T12:28:10Z</time>
      </trkpt>
      <trkpt lat="47.83881" lon="3.50689">
        <ele>204</ele>
        <time>2019-04-01T12:28:12Z</time>
      </trkpt>
      <trkpt lat="47.83876" lon="3.50689">
        <ele>205</ele>
        <time>2019-04-01T12:28:16Z</time>
      </trkpt>
      <trkpt lat="47.83871" lon="3.50686">
        <ele>204</ele>
        <time>2019-04-01T12:28:20Z</time>
      </trkpt>
      <trkpt lat="47.83869" lon="3.50685">
        <ele>204</ele>
        <time>2019-04-01T12:28:22Z</time>
      </trkpt>
      <trkpt lat="47.83863" lon="3.50681">
        <ele>205</ele>
        <time>2019-04-01T12:28:27Z</time>
      </trkpt>
      <trkpt lat="47.83856" lon="3.50679">
        <ele>206</ele>
        <time>2019-04-01T12:28:31Z</time>
      </trkpt>
      <trkpt lat="47.83851" lon="3.50675">
        <ele>205</ele>
        <time>2019-04-01T12:28:35Z</time>
      </trkpt>
      <trkpt lat="47.83848" lon="3.50674">
        <ele>205</ele>
        <time>2019-04-01T12:28:37Z</time>
      </trkpt>
      <trkpt lat="47.83842" lon="3.50672">
        <ele>206</ele>
        <time>2019-04-01T12:28:41Z</time>
      </trkpt>
      <trkpt lat="47.83839" lon="3.50671">
        <ele>206</ele>
        <time>2019-04-01T12:28:43Z</time>
      </trkpt>
      <trkpt lat="47.83834" lon="3.50668">
        <ele>205</ele>
        <time>2019-04-01T12:28:47Z</time>
      </trkpt>
      <trkpt lat="47.83831" lon="3.50663">
        <ele>205</ele>
        <time>2019-04-01T12:28:53Z</time>
      </trkpt>
      <trkpt lat="47.83826" lon="3.50661">
        <ele>206</ele>
        <time>2019-04-01T12:28:58Z</time>
      </trkpt>
      <trkpt lat="47.83821" lon="3.50661">
        <ele>207</ele>
        <time>2019-04-01T12:29:01Z</time>
      </trkpt>
      <trkpt lat="47.83813" lon="3.50662">
        <ele>208</ele>
        <time>2019-04-01T12:29:06Z</time>
      </trkpt>
      <trkpt lat="47.8381" lon="3.50663">
        <ele>207</ele>
        <time>2019-04-01T12:29:08Z</time>
      </trkpt>
      <trkpt lat="47.83805" lon="3.50666">
        <ele>208</ele>
        <time>2019-04-01T12:29:12Z</time>
      </trkpt>
      <trkpt lat="47.83802" lon="3.50668">
        <ele>207</ele>
        <time>2019-04-01T12:29:14Z</time>
      </trkpt>
      <trkpt lat="47.83798" lon="3.5067">
        <ele>207</ele>
        <time>2019-04-01T12:29:16Z</time>
      </trkpt>
      <trkpt lat="47.83792" lon="3.50672">
        <ele>209</ele>
        <time>2019-04-01T12:29:20Z</time>
      </trkpt>
      <trkpt lat="47.83788" lon="3.50678">
        <ele>211</ele>
        <time>2019-04-01T12:29:24Z</time>
      </trkpt>
      <trkpt lat="47.83784" lon="3.50683">
        <ele>210</ele>
        <time>2019-04-01T12:29:27Z</time>
      </trkpt>
      <trkpt lat="47.83781" lon="3.50687">
        <ele>210</ele>
        <time>2019-04-01T12:29:30Z</time>
      </trkpt>
      <trkpt lat="47.83777" lon="3.50693">
        <ele>210</ele>
        <time>2019-04-01T12:29:34Z</time>
      </trkpt>
      <trkpt lat="47.83776" lon="3.50696">
        <ele>208</ele>
        <time>2019-04-01T12:29:37Z</time>
      </trkpt>
      <trkpt lat="47.83774" lon="3.50703">
        <ele>208</ele>
        <time>2019-04-01T12:29:41Z</time>
      </trkpt>
      <trkpt lat="47.8377" lon="3.50707">
        <ele>207</ele>
        <time>2019-04-01T12:29:45Z</time>
      </trkpt>
      <trkpt lat="47.83766" lon="3.50714">
        <ele>206</ele>
        <time>2019-04-01T12:29:51Z</time>
      </trkpt>
      <trkpt lat="47.83761" lon="3.50722">
        <ele>204</ele>
        <time>2019-04-01T12:29:56Z</time>
      </trkpt>
      <trkpt lat="47.83758" lon="3.50727">
        <ele>204</ele>
        <time>2019-04-01T12:29:59Z</time>
      </trkpt>
      <trkpt lat="47.83755" lon="3.50733">
        <ele>202</ele>
        <time>2019-04-01T12:30:03Z</time>
      </trkpt>
      <trkpt lat="47.8375" lon="3.50738">
        <ele>201</ele>
        <time>2019-04-01T12:30:07Z</time>
      </trkpt>
      <trkpt lat="47.83745" lon="3.50742">
        <ele>200</ele>
        <time>2019-04-01T12:30:11Z</time>
      </trkpt>
      <trkpt lat="47.83743" lon="3.50748">
        <ele>199</ele>
        <time>2019-04-01T12:30:14Z</time>
      </trkpt>
      <trkpt lat="47.83739" lon="3.50754">
        <ele>198</ele>
        <time>2019-04-01T12:30:18Z</time>
      </trkpt>
      <trkpt lat="47.83735" lon="3.50759">
        <ele>199</ele>
        <time>2019-04-01T12:30:21Z</time>
      </trkpt>
      <trkpt lat="47.83732" lon="3.50763">
        <ele>198</ele>
        <time>2019-04-01T12:30:24Z</time>
      </trkpt>
      <trkpt lat="47.8373" lon="3.50765">
        <ele>199</ele>
        <time>2019-04-01T12:30:26Z</time>
      </trkpt>
      <trkpt lat="47.83725" lon="3.5077">
        <ele>200</ele>
        <time>2019-04-01T12:30:30Z</time>
      </trkpt>
      <trkpt lat="47.83723" lon="3.50772">
        <ele>200</ele>
        <time>2019-04-01T12:30:32Z</time>
      </trkpt>
      <trkpt lat="47.83721" lon="3.50774">
        <ele>202</ele>
        <time>2019-04-01T12:30:36Z</time>
      </trkpt>
      <trkpt lat="47.83719" lon="3.50781">
        <ele>201</ele>
        <time>2019-04-01T12:30:41Z</time>
      </trkpt>
      <trkpt lat="47.83717" lon="3.50788">
        <ele>202</ele>
        <time>2019-04-01T12:30:45Z</time>
      </trkpt>
      <trkpt lat="47.83716" lon="3.50792">
        <ele>202</ele>
        <time>2019-04-01T12:30:48Z</time>
      </trkpt>
      <trkpt lat="47.83713" lon="3.50796">
        <ele>204</ele>
        <time>2019-04-01T12:30:52Z</time>
      </trkpt>
      <trkpt lat="47.83708" lon="3.508">
        <ele>204</ele>
        <time>2019-04-01T12:30:55Z</time>
      </trkpt>
      <trkpt lat="47.83705" lon="3.50803">
        <ele>205</ele>
        <time>2019-04-01T12:30:57Z</time>
      </trkpt>
      <trkpt lat="47.83701" lon="3.50806">
        <ele>204</ele>
        <time>2019-04-01T12:31:00Z</time>
      </trkpt>
      <trkpt lat="47.83699" lon="3.50809">
        <ele>205</ele>
        <time>2019-04-01T12:31:02Z</time>
      </trkpt>
      <trkpt lat="47.83694" lon="3.50812">
        <ele>205</ele>
        <time>2019-04-01T12:31:06Z</time>
      </trkpt>
      <trkpt lat="47.83691" lon="3.50815">
        <ele>205</ele>
        <time>2019-04-01T12:31:08Z</time>
      </trkpt>
      <trkpt lat="47.83687" lon="3.50819">
        <ele>203</ele>
        <time>2019-04-01T12:31:11Z</time>
      </trkpt>
      <trkpt lat="47.83685" lon="3.50822">
        <ele>203</ele>
        <time>2019-04-01T12:31:13Z</time>
      </trkpt>
      <trkpt lat="47.83683" lon="3.50824">
        <ele>204</ele>
        <time>2019-04-01T12:31:15Z</time>
      </trkpt>
      <trkpt lat="47.83681" lon="3.50832">
        <ele>203</ele>
        <time>2019-04-01T12:31:19Z</time>
      </trkpt>
      <trkpt lat="47.83679" lon="3.50836">
        <ele>203</ele>
        <time>2019-04-01T12:31:22Z</time>
      </trkpt>
      <trkpt lat="47.83676" lon="3.50841">
        <ele>201</ele>
        <time>2019-04-01T12:31:26Z</time>
      </trkpt>
      <trkpt lat="47.83671" lon="3.50846">
        <ele>200</ele>
        <time>2019-04-01T12:31:30Z</time>
      </trkpt>
      <trkpt lat="47.83668" lon="3.50849">
        <ele>198</ele>
        <time>2019-04-01T12:31:33Z</time>
      </trkpt>
      <trkpt lat="47.83665" lon="3.50856">
        <ele>199</ele>
        <time>2019-04-01T12:31:38Z</time>
      </trkpt>
      <trkpt lat="47.83664" lon="3.50859">
        <ele>201</ele>
        <time>2019-04-01T12:31:40Z</time>
      </trkpt>
      <trkpt lat="47.8366" lon="3.50864">
        <ele>200</ele>
        <time>2019-04-01T12:31:44Z</time>
      </trkpt>
      <trkpt lat="47.83657" lon="3.50871">
        <ele>199</ele>
        <time>2019-04-01T12:31:47Z</time>
      </trkpt>
      <trkpt lat="47.83655" lon="3.50876">
        <ele>198</ele>
        <time>2019-04-01T12:31:49Z</time>
      </trkpt>
      <trkpt lat="47.83654" lon="3.50879">
        <ele>197</ele>
        <time>2019-04-01T12:31:51Z</time>
      </trkpt>
      <trkpt lat="47.83651" lon="3.50884">
        <ele>194</ele>
        <time>2019-04-01T12:31:54Z</time>
      </trkpt>
      <trkpt lat="47.83647" lon="3.50889">
        <ele>188</ele>
        <time>2019-04-01T12:32:00Z</time>
      </trkpt>
      <trkpt lat="47.83648" lon="3.50895">
        <ele>187</ele>
        <time>2019-04-01T12:32:05Z</time>
      </trkpt>
      <trkpt lat="47.83648" lon="3.50895">
        <ele>187</ele>
        <time>2019-04-01T12:32:12Z</time>
      </trkpt>
      <trkpt lat="47.83648" lon="3.50895">
        <ele>187</ele>
        <time>2019-04-01T12:32:13Z</time>
      </trkpt>
      <trkpt lat="47.83629" lon="3.50885">
        <ele>184</ele>
        <time>2019-04-01T12:36:42Z</time>
      </trkpt>
      <trkpt lat="47.83624" lon="3.5088">
        <ele>184</ele>
        <time>2019-04-01T12:36:46Z</time>
      </trkpt>
      <trkpt lat="47.83621" lon="3.50875">
        <ele>185</ele>
        <time>2019-04-01T12:36:50Z</time>
      </trkpt>
      <trkpt lat="47.83616" lon="3.50873">
        <ele>186</ele>
        <time>2019-04-01T12:36:54Z</time>
      </trkpt>
      <trkpt lat="47.83613" lon="3.50871">
        <ele>185</ele>
        <time>2019-04-01T12:36:56Z</time>
      </trkpt>
      <trkpt lat="47.83606" lon="3.50865">
        <ele>186</ele>
        <time>2019-04-01T12:37:01Z</time>
      </trkpt>
      <trkpt lat="47.83603" lon="3.5086">
        <ele>185</ele>
        <time>2019-04-01T12:37:05Z</time>
      </trkpt>
      <trkpt lat="47.83599" lon="3.50856">
        <ele>186</ele>
        <time>2019-04-01T12:37:08Z</time>
      </trkpt>
      <trkpt lat="47.83597" lon="3.50854">
        <ele>187</ele>
        <time>2019-04-01T12:37:11Z</time>
      </trkpt>
      <trkpt lat="47.83595" lon="3.50852">
        <ele>188</ele>
        <time>2019-04-01T12:37:13Z</time>
      </trkpt>
      <trkpt lat="47.83592" lon="3.5085">
        <ele>188</ele>
        <time>2019-04-01T12:37:15Z</time>
      </trkpt>
      <trkpt lat="47.83587" lon="3.50846">
        <ele>190</ele>
        <time>2019-04-01T12:37:19Z</time>
      </trkpt>
      <trkpt lat="47.83583" lon="3.5084">
        <ele>190</ele>
        <time>2019-04-01T12:37:23Z</time>
      </trkpt>
      <trkpt lat="47.8358" lon="3.50837">
        <ele>190</ele>
        <time>2019-04-01T12:37:25Z</time>
      </trkpt>
      <trkpt lat="47.83578" lon="3.50834">
        <ele>189</ele>
        <time>2019-04-01T12:37:27Z</time>
      </trkpt>
      <trkpt lat="47.83574" lon="3.5083">
        <ele>190</ele>
        <time>2019-04-01T12:37:32Z</time>
      </trkpt>
      <trkpt lat="47.83571" lon="3.50827">
        <ele>191</ele>
        <time>2019-04-01T12:37:35Z</time>
      </trkpt>
      <trkpt lat="47.83567" lon="3.50822">
        <ele>190</ele>
        <time>2019-04-01T12:37:40Z</time>
      </trkpt>
      <trkpt lat="47.83562" lon="3.50818">
        <ele>190</ele>
        <time>2019-04-01T12:37:44Z</time>
      </trkpt>
      <trkpt lat="47.8356" lon="3.50816">
        <ele>190</ele>
        <time>2019-04-01T12:37:46Z</time>
      </trkpt>
      <trkpt lat="47.83557" lon="3.50814">
        <ele>190</ele>
        <time>2019-04-01T12:37:48Z</time>
      </trkpt>
      <trkpt lat="47.83554" lon="3.50811">
        <ele>190</ele>
        <time>2019-04-01T12:37:50Z</time>
      </trkpt>
      <trkpt lat="47.8355" lon="3.50808">
        <ele>190</ele>
        <time>2019-04-01T12:37:53Z</time>
      </trkpt>
      <trkpt lat="47.83545" lon="3.50804">
        <ele>190</ele>
        <time>2019-04-01T12:37:57Z</time>
      </trkpt>
      <trkpt lat="47.83541" lon="3.508">
        <ele>191</ele>
        <time>2019-04-01T12:38:01Z</time>
      </trkpt>
      <trkpt lat="47.83538" lon="3.50797">
        <ele>190</ele>
        <time>2019-04-01T12:38:03Z</time>
      </trkpt>
      <trkpt lat="47.83535" lon="3.50794">
        <ele>190</ele>
        <time>2019-04-01T12:38:06Z</time>
      </trkpt>
      <trkpt lat="47.8353" lon="3.5079">
        <ele>190</ele>
        <time>2019-04-01T12:38:10Z</time>
      </trkpt>
      <trkpt lat="47.83526" lon="3.50785">
        <ele>191</ele>
        <time>2019-04-01T12:38:14Z</time>
      </trkpt>
      <trkpt lat="47.83524" lon="3.50784">
        <ele>191</ele>
        <time>2019-04-01T12:38:16Z</time>
      </trkpt>
      <trkpt lat="47.83522" lon="3.50781">
        <ele>190</ele>
        <time>2019-04-01T12:38:18Z</time>
      </trkpt>
      <trkpt lat="47.83517" lon="3.50777">
        <ele>190</ele>
        <time>2019-04-01T12:38:22Z</time>
      </trkpt>
      <trkpt lat="47.83513" lon="3.50773">
        <ele>190</ele>
        <time>2019-04-01T12:38:26Z</time>
      </trkpt>
      <trkpt lat="47.83511" lon="3.50771">
        <ele>190</ele>
        <time>2019-04-01T12:38:28Z</time>
      </trkpt>
      <trkpt lat="47.83506" lon="3.50766">
        <ele>190</ele>
        <time>2019-04-01T12:38:32Z</time>
      </trkpt>
      <trkpt lat="47.83502" lon="3.50761">
        <ele>190</ele>
        <time>2019-04-01T12:38:36Z</time>
      </trkpt>
      <trkpt lat="47.83498" lon="3.50758">
        <ele>190</ele>
        <time>2019-04-01T12:38:40Z</time>
      </trkpt>
      <trkpt lat="47.83495" lon="3.50756">
        <ele>191</ele>
        <time>2019-04-01T12:38:42Z</time>
      </trkpt>
      <trkpt lat="47.83491" lon="3.50752">
        <ele>191</ele>
        <time>2019-04-01T12:38:46Z</time>
      </trkpt>
      <trkpt lat="47.83487" lon="3.50747">
        <ele>190</ele>
        <time>2019-04-01T12:38:50Z</time>
      </trkpt>
      <trkpt lat="47.83483" lon="3.50743">
        <ele>191</ele>
        <time>2019-04-01T12:38:54Z</time>
      </trkpt>
      <trkpt lat="47.83479" lon="3.50739">
        <ele>191</ele>
        <time>2019-04-01T12:38:58Z</time>
      </trkpt>
      <trkpt lat="47.83474" lon="3.50746">
        <ele>191</ele>
        <time>2019-04-01T12:39:05Z</time>
      </trkpt>
      <trkpt lat="47.83472" lon="3.50749">
        <ele>189</ele>
        <time>2019-04-01T12:39:07Z</time>
      </trkpt>
      <trkpt lat="47.8347" lon="3.50752">
        <ele>189</ele>
        <time>2019-04-01T12:39:10Z</time>
      </trkpt>
      <trkpt lat="47.83468" lon="3.50754">
        <ele>189</ele>
        <time>2019-04-01T12:39:13Z</time>
      </trkpt>
      <trkpt lat="47.83466" lon="3.50757">
        <ele>188</ele>
        <time>2019-04-01T12:39:16Z</time>
      </trkpt>
      <trkpt lat="47.83464" lon="3.50759">
        <ele>187</ele>
        <time>2019-04-01T12:39:18Z</time>
      </trkpt>
      <trkpt lat="47.8346" lon="3.50764">
        <ele>184</ele>
        <time>2019-04-01T12:39:22Z</time>
      </trkpt>
      <trkpt lat="47.83457" lon="3.50769">
        <ele>183</ele>
        <time>2019-04-01T12:39:25Z</time>
      </trkpt>
      <trkpt lat="47.83454" lon="3.50776">
        <ele>183</ele>
        <time>2019-04-01T12:39:29Z</time>
      </trkpt>
      <trkpt lat="47.83451" lon="3.50783">
        <ele>184</ele>
        <time>2019-04-01T12:39:33Z</time>
      </trkpt>
      <trkpt lat="47.8345" lon="3.5079">
        <ele>185</ele>
        <time>2019-04-01T12:39:37Z</time>
      </trkpt>
      <trkpt lat="47.83449" lon="3.50795">
        <ele>186</ele>
        <time>2019-04-01T12:39:40Z</time>
      </trkpt>
      <trkpt lat="47.83444" lon="3.50802">
        <ele>187</ele>
        <time>2019-04-01T12:39:45Z</time>
      </trkpt>
      <trkpt lat="47.83442" lon="3.50808">
        <ele>188</ele>
        <time>2019-04-01T12:39:49Z</time>
      </trkpt>
      <trkpt lat="47.8344" lon="3.50812">
        <ele>187</ele>
        <time>2019-04-01T12:39:51Z</time>
      </trkpt>
      <trkpt lat="47.83438" lon="3.50815">
        <ele>186</ele>
        <time>2019-04-01T12:39:53Z</time>
      </trkpt>
      <trkpt lat="47.83437" lon="3.50818">
        <ele>186</ele>
        <time>2019-04-01T12:39:55Z</time>
      </trkpt>
      <trkpt lat="47.83433" lon="3.50824">
        <ele>184</ele>
        <time>2019-04-01T12:39:59Z</time>
      </trkpt>
      <trkpt lat="47.83431" lon="3.50832">
        <ele>185</ele>
        <time>2019-04-01T12:40:03Z</time>
      </trkpt>
      <trkpt lat="47.83427" lon="3.50837">
        <ele>184</ele>
        <time>2019-04-01T12:40:06Z</time>
      </trkpt>
      <trkpt lat="47.83425" lon="3.5084">
        <ele>183</ele>
        <time>2019-04-01T12:40:08Z</time>
      </trkpt>
      <trkpt lat="47.83422" lon="3.50846">
        <ele>184</ele>
        <time>2019-04-01T12:40:13Z</time>
      </trkpt>
      <trkpt lat="47.8342" lon="3.50852">
        <ele>184</ele>
        <time>2019-04-01T12:40:16Z</time>
      </trkpt>
      <trkpt lat="47.83419" lon="3.50856">
        <ele>183</ele>
        <time>2019-04-01T12:40:18Z</time>
      </trkpt>
      <trkpt lat="47.83417" lon="3.50861">
        <ele>182</ele>
        <time>2019-04-01T12:40:20Z</time>
      </trkpt>
      <trkpt lat="47.83415" lon="3.50868">
        <ele>183</ele>
        <time>2019-04-01T12:40:24Z</time>
      </trkpt>
      <trkpt lat="47.83413" lon="3.50872">
        <ele>183</ele>
        <time>2019-04-01T12:40:27Z</time>
      </trkpt>
      <trkpt lat="47.83412" lon="3.50875">
        <ele>183</ele>
        <time>2019-04-01T12:40:29Z</time>
      </trkpt>
      <trkpt lat="47.83408" lon="3.50881">
        <ele>185</ele>
        <time>2019-04-01T12:40:33Z</time>
      </trkpt>
      <trkpt lat="47.83404" lon="3.50886">
        <ele>187</ele>
        <time>2019-04-01T12:40:37Z</time>
      </trkpt>
      <trkpt lat="47.834" lon="3.50893">
        <ele>188</ele>
        <time>2019-04-01T12:40:42Z</time>
      </trkpt>
      <trkpt lat="47.83397" lon="3.509">
        <ele>189</ele>
        <time>2019-04-01T12:40:46Z</time>
      </trkpt>
      <trkpt lat="47.83396" lon="3.50903">
        <ele>189</ele>
        <time>2019-04-01T12:40:48Z</time>
      </trkpt>
      <trkpt lat="47.83394" lon="3.5091">
        <ele>190</ele>
        <time>2019-04-01T12:40:51Z</time>
      </trkpt>
      <trkpt lat="47.83391" lon="3.50918">
        <ele>188</ele>
        <time>2019-04-01T12:40:55Z</time>
      </trkpt>
      <trkpt lat="47.83388" lon="3.50924">
        <ele>189</ele>
        <time>2019-04-01T12:40:58Z</time>
      </trkpt>
      <trkpt lat="47.83387" lon="3.50928">
        <ele>189</ele>
        <time>2019-04-01T12:41:00Z</time>
      </trkpt>
      <trkpt lat="47.83385" lon="3.50933">
        <ele>190</ele>
        <time>2019-04-01T12:41:03Z</time>
      </trkpt>
      <trkpt lat="47.83382" lon="3.50941">
        <ele>190</ele>
        <time>2019-04-01T12:41:07Z</time>
      </trkpt>
      <trkpt lat="47.83379" lon="3.50948">
        <ele>190</ele>
        <time>2019-04-01T12:41:11Z</time>
      </trkpt>
      <trkpt lat="47.83376" lon="3.50954">
        <ele>190</ele>
        <time>2019-04-01T12:41:15Z</time>
      </trkpt>
      <trkpt lat="47.83372" lon="3.50961">
        <ele>189</ele>
        <time>2019-04-01T12:41:20Z</time>
      </trkpt>
      <trkpt lat="47.8337" lon="3.50966">
        <ele>189</ele>
        <time>2019-04-01T12:41:24Z</time>
      </trkpt>
      <trkpt lat="47.83367" lon="3.50973">
        <ele>190</ele>
        <time>2019-04-01T12:41:28Z</time>
      </trkpt>
      <trkpt lat="47.83364" lon="3.50979">
        <ele>190</ele>
        <time>2019-04-01T12:41:32Z</time>
      </trkpt>
      <trkpt lat="47.8336" lon="3.50986">
        <ele>192</ele>
        <time>2019-04-01T12:41:36Z</time>
      </trkpt>
      <trkpt lat="47.83358" lon="3.50992">
        <ele>192</ele>
        <time>2019-04-01T12:41:40Z</time>
      </trkpt>
      <trkpt lat="47.83355" lon="3.50998">
        <ele>191</ele>
        <time>2019-04-01T12:41:44Z</time>
      </trkpt>
      <trkpt lat="47.83353" lon="3.51002">
        <ele>192</ele>
        <time>2019-04-01T12:41:46Z</time>
      </trkpt>
      <trkpt lat="47.83352" lon="3.51005">
        <ele>191</ele>
        <time>2019-04-01T12:41:48Z</time>
      </trkpt>
      <trkpt lat="47.83349" lon="3.51011">
        <ele>190</ele>
        <time>2019-04-01T12:41:52Z</time>
      </trkpt>
      <trkpt lat="47.83347" lon="3.51018">
        <ele>189</ele>
        <time>2019-04-01T12:41:55Z</time>
      </trkpt>
      <trkpt lat="47.83343" lon="3.51024">
        <ele>188</ele>
        <time>2019-04-01T12:41:59Z</time>
      </trkpt>
      <trkpt lat="47.83341" lon="3.51031">
        <ele>191</ele>
        <time>2019-04-01T12:42:03Z</time>
      </trkpt>
      <trkpt lat="47.83339" lon="3.51037">
        <ele>191</ele>
        <time>2019-04-01T12:42:06Z</time>
      </trkpt>
      <trkpt lat="47.83337" lon="3.51041">
        <ele>192</ele>
        <time>2019-04-01T12:42:08Z</time>
      </trkpt>
      <trkpt lat="47.83335" lon="3.51044">
        <ele>193</ele>
        <time>2019-04-01T12:42:10Z</time>
      </trkpt>
      <trkpt lat="47.83333" lon="3.51051">
        <ele>194</ele>
        <time>2019-04-01T12:42:13Z</time>
      </trkpt>
      <trkpt lat="47.83331" lon="3.51058">
        <ele>192</ele>
        <time>2019-04-01T12:42:17Z</time>
      </trkpt>
      <trkpt lat="47.83328" lon="3.51065">
        <ele>192</ele>
        <time>2019-04-01T12:42:21Z</time>
      </trkpt>
      <trkpt lat="47.83325" lon="3.51071">
        <ele>191</ele>
        <time>2019-04-01T12:42:25Z</time>
      </trkpt>
      <trkpt lat="47.83323" lon="3.51077">
        <ele>190</ele>
        <time>2019-04-01T12:42:28Z</time>
      </trkpt>
      <trkpt lat="47.83319" lon="3.51085">
        <ele>191</ele>
        <time>2019-04-01T12:42:33Z</time>
      </trkpt>
      <trkpt lat="47.83317" lon="3.51092">
        <ele>190</ele>
        <time>2019-04-01T12:42:37Z</time>
      </trkpt>
      <trkpt lat="47.83315" lon="3.51097">
        <ele>189</ele>
        <time>2019-04-01T12:42:40Z</time>
      </trkpt>
      <trkpt lat="47.83313" lon="3.51104">
        <ele>189</ele>
        <time>2019-04-01T12:42:44Z</time>
      </trkpt>
      <trkpt lat="47.83309" lon="3.51112">
        <ele>190</ele>
        <time>2019-04-01T12:42:49Z</time>
      </trkpt>
      <trkpt lat="47.83305" lon="3.5112">
        <ele>191</ele>
        <time>2019-04-01T12:42:54Z</time>
      </trkpt>
      <trkpt lat="47.83305" lon="3.5112">
        <ele>191</ele>
        <time>2019-04-01T12:43:02Z</time>
      </trkpt>
      <trkpt lat="47.83305" lon="3.5112">
        <ele>191</ele>
        <time>2019-04-01T12:43:03Z</time>
      </trkpt>
      <trkpt lat="47.83301" lon="3.51125">
        <ele>191</ele>
        <time>2019-04-01T12:43:22Z</time>
      </trkpt>
      <trkpt lat="47.83296" lon="3.51113">
        <ele>192</ele>
        <time>2019-04-01T12:43:30Z</time>
      </trkpt>
      <trkpt lat="47.83292" lon="3.51108">
        <ele>193</ele>
        <time>2019-04-01T12:43:34Z</time>
      </trkpt>
      <trkpt lat="47.83289" lon="3.51101">
        <ele>194</ele>
        <time>2019-04-01T12:43:40Z</time>
      </trkpt>
      <trkpt lat="47.83287" lon="3.51097">
        <ele>194</ele>
        <time>2019-04-01T12:43:43Z</time>
      </trkpt>
      <trkpt lat="47.83285" lon="3.51094">
        <ele>193</ele>
        <time>2019-04-01T12:43:45Z</time>
      </trkpt>
      <trkpt lat="47.83281" lon="3.51089">
        <ele>193</ele>
        <time>2019-04-01T12:43:48Z</time>
      </trkpt>
      <trkpt lat="47.83278" lon="3.51082">
        <ele>194</ele>
        <time>2019-04-01T12:43:52Z</time>
      </trkpt>
      <trkpt lat="47.83275" lon="3.51076">
        <ele>195</ele>
        <time>2019-04-01T12:43:55Z</time>
      </trkpt>
      <trkpt lat="47.83273" lon="3.51073">
        <ele>195</ele>
        <time>2019-04-01T12:43:58Z</time>
      </trkpt>
      <trkpt lat="47.83269" lon="3.51068">
        <ele>195</ele>
        <time>2019-04-01T12:44:01Z</time>
      </trkpt>
      <trkpt lat="47.83266" lon="3.51063">
        <ele>195</ele>
        <time>2019-04-01T12:44:05Z</time>
      </trkpt>
      <trkpt lat="47.83263" lon="3.51057">
        <ele>195</ele>
        <time>2019-04-01T12:44:10Z</time>
      </trkpt>
      <trkpt lat="47.8326" lon="3.51051">
        <ele>196</ele>
        <time>2019-04-01T12:44:14Z</time>
      </trkpt>
      <trkpt lat="47.83257" lon="3.51044">
        <ele>198</ele>
        <time>2019-04-01T12:44:20Z</time>
      </trkpt>
      <trkpt lat="47.83253" lon="3.51039">
        <ele>198</ele>
        <time>2019-04-01T12:44:24Z</time>
      </trkpt>
      <trkpt lat="47.8325" lon="3.51033">
        <ele>198</ele>
        <time>2019-04-01T12:44:28Z</time>
      </trkpt>
      <trkpt lat="47.83248" lon="3.51029">
        <ele>200</ele>
        <time>2019-04-01T12:44:31Z</time>
      </trkpt>
      <trkpt lat="47.83246" lon="3.51026">
        <ele>200</ele>
        <time>2019-04-01T12:44:33Z</time>
      </trkpt>
      <trkpt lat="47.83243" lon="3.51021">
        <ele>201</ele>
        <time>2019-04-01T12:44:37Z</time>
      </trkpt>
      <trkpt lat="47.8324" lon="3.51018">
        <ele>201</ele>
        <time>2019-04-01T12:44:40Z</time>
      </trkpt>
      <trkpt lat="47.83237" lon="3.51014">
        <ele>200</ele>
        <time>2019-04-01T12:44:43Z</time>
      </trkpt>
      <trkpt lat="47.83234" lon="3.51009">
        <ele>200</ele>
        <time>2019-04-01T12:44:47Z</time>
      </trkpt>
      <trkpt lat="47.83229" lon="3.51003">
        <ele>200</ele>
        <time>2019-04-01T12:44:51Z</time>
      </trkpt>
      <trkpt lat="47.83226" lon="3.50998">
        <ele>201</ele>
        <time>2019-04-01T12:44:54Z</time>
      </trkpt>
      <trkpt lat="47.83223" lon="3.50993">
        <ele>200</ele>
        <time>2019-04-01T12:44:57Z</time>
      </trkpt>
      <trkpt lat="47.83221" lon="3.50988">
        <ele>199</ele>
        <time>2019-04-01T12:45:00Z</time>
      </trkpt>
      <trkpt lat="47.83218" lon="3.50982">
        <ele>199</ele>
        <time>2019-04-01T12:45:04Z</time>
      </trkpt>
      <trkpt lat="47.83214" lon="3.50977">
        <ele>200</ele>
        <time>2019-04-01T12:45:08Z</time>
      </trkpt>
      <trkpt lat="47.83212" lon="3.50974">
        <ele>200</ele>
        <time>2019-04-01T12:45:10Z</time>
      </trkpt>
      <trkpt lat="47.83209" lon="3.50968">
        <ele>200</ele>
        <time>2019-04-01T12:45:14Z</time>
      </trkpt>
      <trkpt lat="47.83207" lon="3.50965">
        <ele>201</ele>
        <time>2019-04-01T12:45:16Z</time>
      </trkpt>
      <trkpt lat="47.83204" lon="3.50961">
        <ele>201</ele>
        <time>2019-04-01T12:45:19Z</time>
      </trkpt>
      <trkpt lat="47.83201" lon="3.50956">
        <ele>202</ele>
        <time>2019-04-01T12:45:23Z</time>
      </trkpt>
      <trkpt lat="47.83199" lon="3.50952">
        <ele>202</ele>
        <time>2019-04-01T12:45:27Z</time>
      </trkpt>
      <trkpt lat="47.83195" lon="3.50947">
        <ele>203</ele>
        <time>2019-04-01T12:45:32Z</time>
      </trkpt>
      <trkpt lat="47.83193" lon="3.50945">
        <ele>203</ele>
        <time>2019-04-01T12:45:34Z</time>
      </trkpt>
      <trkpt lat="47.8319" lon="3.50941">
        <ele>202</ele>
        <time>2019-04-01T12:45:37Z</time>
      </trkpt>
      <trkpt lat="47.83186" lon="3.50936">
        <ele>202</ele>
        <time>2019-04-01T12:45:40Z</time>
      </trkpt>
      <trkpt lat="47.83183" lon="3.5093">
        <ele>201</ele>
        <time>2019-04-01T12:45:44Z</time>
      </trkpt>
      <trkpt lat="47.83179" lon="3.50924">
        <ele>200</ele>
        <time>2019-04-01T12:45:48Z</time>
      </trkpt>
      <trkpt lat="47.83175" lon="3.50918">
        <ele>200</ele>
        <time>2019-04-01T12:45:52Z</time>
      </trkpt>
      <trkpt lat="47.83173" lon="3.50915">
        <ele>200</ele>
        <time>2019-04-01T12:45:54Z</time>
      </trkpt>
      <trkpt lat="47.83171" lon="3.50912">
        <ele>201</ele>
        <time>2019-04-01T12:45:56Z</time>
      </trkpt>
      <trkpt lat="47.83168" lon="3.50906">
        <ele>202</ele>
        <time>2019-04-01T12:46:01Z</time>
      </trkpt>
      <trkpt lat="47.83163" lon="3.509">
        <ele>202</ele>
        <time>2019-04-01T12:46:06Z</time>
      </trkpt>
      <trkpt lat="47.83159" lon="3.50896">
        <ele>203</ele>
        <time>2019-04-01T12:46:10Z</time>
      </trkpt>
      <trkpt lat="47.83156" lon="3.5089">
        <ele>203</ele>
        <time>2019-04-01T12:46:14Z</time>
      </trkpt>
      <trkpt lat="47.83152" lon="3.50885">
        <ele>202</ele>
        <time>2019-04-01T12:46:18Z</time>
      </trkpt>
      <trkpt lat="47.83148" lon="3.5088">
        <ele>203</ele>
        <time>2019-04-01T12:46:22Z</time>
      </trkpt>
      <trkpt lat="47.83146" lon="3.50874">
        <ele>204</ele>
        <time>2019-04-01T12:46:26Z</time>
      </trkpt>
      <trkpt lat="47.83143" lon="3.50868">
        <ele>205</ele>
        <time>2019-04-01T12:46:29Z</time>
      </trkpt>
      <trkpt lat="47.8314" lon="3.50862">
        <ele>204</ele>
        <time>2019-04-01T12:46:32Z</time>
      </trkpt>
      <trkpt lat="47.83139" lon="3.50855">
        <ele>205</ele>
        <time>2019-04-01T12:46:36Z</time>
      </trkpt>
      <trkpt lat="47.83135" lon="3.50851">
        <ele>205</ele>
        <time>2019-04-01T12:46:40Z</time>
      </trkpt>
      <trkpt lat="47.83132" lon="3.50844">
        <ele>206</ele>
        <time>2019-04-01T12:46:45Z</time>
      </trkpt>
      <trkpt lat="47.83128" lon="3.50839">
        <ele>206</ele>
        <time>2019-04-01T12:46:50Z</time>
      </trkpt>
      <trkpt lat="47.83126" lon="3.50836">
        <ele>205</ele>
        <time>2019-04-01T12:46:53Z</time>
      </trkpt>
      <trkpt lat="47.83124" lon="3.5083">
        <ele>206</ele>
        <time>2019-04-01T12:46:57Z</time>
      </trkpt>
      <trkpt lat="47.83121" lon="3.50825">
        <ele>205</ele>
        <time>2019-04-01T12:47:01Z</time>
      </trkpt>
      <trkpt lat="47.83119" lon="3.5082">
        <ele>206</ele>
        <time>2019-04-01T12:47:03Z</time>
      </trkpt>
      <trkpt lat="47.83115" lon="3.50815">
        <ele>205</ele>
        <time>2019-04-01T12:47:07Z</time>
      </trkpt>
      <trkpt lat="47.83111" lon="3.50809">
        <ele>205</ele>
        <time>2019-04-01T12:47:10Z</time>
      </trkpt>
      <trkpt lat="47.8311" lon="3.50803">
        <ele>204</ele>
        <time>2019-04-01T12:47:13Z</time>
      </trkpt>
      <trkpt lat="47.83109" lon="3.50797">
        <ele>205</ele>
        <time>2019-04-01T12:47:19Z</time>
      </trkpt>
      <trkpt lat="47.83107" lon="3.5079">
        <ele>207</ele>
        <time>2019-04-01T12:47:22Z</time>
      </trkpt>
      <trkpt lat="47.83102" lon="3.50783">
        <ele>210</ele>
        <time>2019-04-01T12:47:26Z</time>
      </trkpt>
      <trkpt lat="47.83099" lon="3.50778">
        <ele>211</ele>
        <time>2019-04-01T12:47:30Z</time>
      </trkpt>
      <trkpt lat="47.83095" lon="3.50774">
        <ele>211</ele>
        <time>2019-04-01T12:47:33Z</time>
      </trkpt>
      <trkpt lat="47.83091" lon="3.50768">
        <ele>211</ele>
        <time>2019-04-01T12:47:37Z</time>
      </trkpt>
      <trkpt lat="47.83088" lon="3.50764">
        <ele>213</ele>
        <time>2019-04-01T12:47:40Z</time>
      </trkpt>
      <trkpt lat="47.83086" lon="3.50762">
        <ele>213</ele>
        <time>2019-04-01T12:47:42Z</time>
      </trkpt>
      <trkpt lat="47.83084" lon="3.50756">
        <ele>212</ele>
        <time>2019-04-01T12:47:46Z</time>
      </trkpt>
      <trkpt lat="47.8308" lon="3.50752">
        <ele>212</ele>
        <time>2019-04-01T12:47:49Z</time>
      </trkpt>
      <trkpt lat="47.83076" lon="3.50747">
        <ele>213</ele>
        <time>2019-04-01T12:47:52Z</time>
      </trkpt>
      <trkpt lat="47.83075" lon="3.50738">
        <ele>210</ele>
        <time>2019-04-01T12:47:57Z</time>
      </trkpt>
      <trkpt lat="47.83071" lon="3.50732">
        <ele>212</ele>
        <time>2019-04-01T12:48:01Z</time>
      </trkpt>
      <trkpt lat="47.8307" lon="3.50729">
        <ele>212</ele>
        <time>2019-04-01T12:48:03Z</time>
      </trkpt>
      <trkpt lat="47.83067" lon="3.50724">
        <ele>213</ele>
        <time>2019-04-01T12:48:06Z</time>
      </trkpt>
      <trkpt lat="47.83062" lon="3.5072">
        <ele>212</ele>
        <time>2019-04-01T12:48:11Z</time>
      </trkpt>
      <trkpt lat="47.83058" lon="3.50713">
        <ele>215</ele>
        <time>2019-04-01T12:48:16Z</time>
      </trkpt>
      <trkpt lat="47.83054" lon="3.50707">
        <ele>215</ele>
        <time>2019-04-01T12:48:20Z</time>
      </trkpt>
      <trkpt lat="47.83052" lon="3.50701">
        <ele>214</ele>
        <time>2019-04-01T12:48:24Z</time>
      </trkpt>
      <trkpt lat="47.8305" lon="3.50697">
        <ele>213</ele>
        <time>2019-04-01T12:48:27Z</time>
      </trkpt>
      <trkpt lat="47.83044" lon="3.5069">
        <ele>214</ele>
        <time>2019-04-01T12:48:33Z</time>
      </trkpt>
      <trkpt lat="47.8304" lon="3.50684">
        <ele>214</ele>
        <time>2019-04-01T12:48:36Z</time>
      </trkpt>
      <trkpt lat="47.83037" lon="3.5068">
        <ele>212</ele>
        <time>2019-04-01T12:48:39Z</time>
      </trkpt>
      <trkpt lat="47.83033" lon="3.50675">
        <ele>211</ele>
        <time>2019-04-01T12:48:42Z</time>
      </trkpt>
      <trkpt lat="47.8303" lon="3.5067">
        <ele>211</ele>
        <time>2019-04-01T12:48:46Z</time>
      </trkpt>
      <trkpt lat="47.83028" lon="3.50668">
        <ele>211</ele>
        <time>2019-04-01T12:48:48Z</time>
      </trkpt>
      <trkpt lat="47.83026" lon="3.50664">
        <ele>210</ele>
        <time>2019-04-01T12:48:50Z</time>
      </trkpt>
      <trkpt lat="47.83024" lon="3.5066">
        <ele>211</ele>
        <time>2019-04-01T12:48:52Z</time>
      </trkpt>
      <trkpt lat="47.8302" lon="3.50656">
        <ele>210</ele>
        <time>2019-04-01T12:48:56Z</time>
      </trkpt>
      <trkpt lat="47.83016" lon="3.50652">
        <ele>210</ele>
        <time>2019-04-01T12:48:59Z</time>
      </trkpt>
      <trkpt lat="47.83014" lon="3.5065">
        <ele>207</ele>
        <time>2019-04-01T12:49:01Z</time>
      </trkpt>
      <trkpt lat="47.83011" lon="3.50647">
        <ele>207</ele>
        <time>2019-04-01T12:49:03Z</time>
      </trkpt>
      <trkpt lat="47.83008" lon="3.50645">
        <ele>206</ele>
        <time>2019-04-01T12:49:05Z</time>
      </trkpt>
      <trkpt lat="47.83004" lon="3.5064">
        <ele>207</ele>
        <time>2019-04-01T12:49:08Z</time>
      </trkpt>
      <trkpt lat="47.83002" lon="3.50634">
        <ele>207</ele>
        <time>2019-04-01T12:49:12Z</time>
      </trkpt>
      <trkpt lat="47.82997" lon="3.5063">
        <ele>206</ele>
        <time>2019-04-01T12:49:16Z</time>
      </trkpt>
      <trkpt lat="47.82993" lon="3.50621">
        <ele>206</ele>
        <time>2019-04-01T12:49:23Z</time>
      </trkpt>
      <trkpt lat="47.82991" lon="3.50615">
        <ele>207</ele>
        <time>2019-04-01T12:49:26Z</time>
      </trkpt>
      <trkpt lat="47.82987" lon="3.50611">
        <ele>207</ele>
        <time>2019-04-01T12:49:30Z</time>
      </trkpt>
      <trkpt lat="47.82984" lon="3.50605">
        <ele>208</ele>
        <time>2019-04-01T12:49:34Z</time>
      </trkpt>
      <trkpt lat="47.82982" lon="3.506">
        <ele>207</ele>
        <time>2019-04-01T12:49:37Z</time>
      </trkpt>
      <trkpt lat="47.82981" lon="3.50593">
        <ele>209</ele>
        <time>2019-04-01T12:49:41Z</time>
      </trkpt>
      <trkpt lat="47.82977" lon="3.50586">
        <ele>209</ele>
        <time>2019-04-01T12:49:45Z</time>
      </trkpt>
      <trkpt lat="47.82974" lon="3.50581">
        <ele>209</ele>
        <time>2019-04-01T12:49:48Z</time>
      </trkpt>
      <trkpt lat="47.82972" lon="3.50577">
        <ele>209</ele>
        <time>2019-04-01T12:49:50Z</time>
      </trkpt>
      <trkpt lat="47.82966" lon="3.50577">
        <ele>209</ele>
        <time>2019-04-01T12:49:56Z</time>
      </trkpt>
      <trkpt lat="47.82966" lon="3.50577">
        <ele>209</ele>
        <time>2019-04-01T12:50:03Z</time>
      </trkpt>
      <trkpt lat="47.82966" lon="3.50577">
        <ele>209</ele>
        <time>2019-04-01T12:50:05Z</time>
      </trkpt>
      <trkpt lat="47.82962" lon="3.50572">
        <ele>208</ele>
        <time>2019-04-01T12:50:27Z</time>
      </trkpt>
      <trkpt lat="47.82959" lon="3.50567">
        <ele>209</ele>
        <time>2019-04-01T12:50:31Z</time>
      </trkpt>
      <trkpt lat="47.82955" lon="3.50564">
        <ele>209</ele>
        <time>2019-04-01T12:50:35Z</time>
      </trkpt>
      <trkpt lat="47.82952" lon="3.50559">
        <ele>210</ele>
        <time>2019-04-01T12:50:39Z</time>
      </trkpt>
      <trkpt lat="47.82947" lon="3.50554">
        <ele>210</ele>
        <time>2019-04-01T12:50:43Z</time>
      </trkpt>
      <trkpt lat="47.82944" lon="3.50552">
        <ele>210</ele>
        <time>2019-04-01T12:50:45Z</time>
      </trkpt>
      <trkpt lat="47.8294" lon="3.5055">
        <ele>211</ele>
        <time>2019-04-01T12:50:49Z</time>
      </trkpt>
      <trkpt lat="47.82935" lon="3.50547">
        <ele>212</ele>
        <time>2019-04-01T12:50:52Z</time>
      </trkpt>
      <trkpt lat="47.82927" lon="3.50544">
        <ele>212</ele>
        <time>2019-04-01T12:50:57Z</time>
      </trkpt>
      <trkpt lat="47.82924" lon="3.50543">
        <ele>212</ele>
        <time>2019-04-01T12:50:59Z</time>
      </trkpt>
      <trkpt lat="47.8292" lon="3.50541">
        <ele>212</ele>
        <time>2019-04-01T12:51:02Z</time>
      </trkpt>
      <trkpt lat="47.82916" lon="3.50541">
        <ele>212</ele>
        <time>2019-04-01T12:51:06Z</time>
      </trkpt>
      <trkpt lat="47.82909" lon="3.50539">
        <ele>212</ele>
        <time>2019-04-01T12:51:11Z</time>
      </trkpt>
      <trkpt lat="47.82906" lon="3.50538">
        <ele>211</ele>
        <time>2019-04-01T12:51:13Z</time>
      </trkpt>
      <trkpt lat="47.82901" lon="3.50539">
        <ele>209</ele>
        <time>2019-04-01T12:51:16Z</time>
      </trkpt>
      <trkpt lat="47.82898" lon="3.50539">
        <ele>209</ele>
        <time>2019-04-01T12:51:18Z</time>
      </trkpt>
      <trkpt lat="47.82894" lon="3.50535">
        <ele>209</ele>
        <time>2019-04-01T12:51:23Z</time>
      </trkpt>
      <trkpt lat="47.82889" lon="3.50534">
        <ele>210</ele>
        <time>2019-04-01T12:51:26Z</time>
      </trkpt>
      <trkpt lat="47.82886" lon="3.50534">
        <ele>210</ele>
        <time>2019-04-01T12:51:28Z</time>
      </trkpt>
      <trkpt lat="47.82881" lon="3.50531">
        <ele>211</ele>
        <time>2019-04-01T12:51:32Z</time>
      </trkpt>
      <trkpt lat="47.82878" lon="3.5053">
        <ele>212</ele>
        <time>2019-04-01T12:51:34Z</time>
      </trkpt>
      <trkpt lat="47.82874" lon="3.5053">
        <ele>212</ele>
        <time>2019-04-01T12:51:37Z</time>
      </trkpt>
      <trkpt lat="47.82869" lon="3.50527">
        <ele>208</ele>
        <time>2019-04-01T12:51:41Z</time>
      </trkpt>
      <trkpt lat="47.82865" lon="3.50525">
        <ele>207</ele>
        <time>2019-04-01T12:51:44Z</time>
      </trkpt>
      <trkpt lat="47.82862" lon="3.50524">
        <ele>209</ele>
        <time>2019-04-01T12:51:47Z</time>
      </trkpt>
      <trkpt lat="47.82857" lon="3.50524">
        <ele>209</ele>
        <time>2019-04-01T12:51:50Z</time>
      </trkpt>
      <trkpt lat="47.82852" lon="3.50523">
        <ele>208</ele>
        <time>2019-04-01T12:51:53Z</time>
      </trkpt>
      <trkpt lat="47.82849" lon="3.50522">
        <ele>208</ele>
        <time>2019-04-01T12:51:55Z</time>
      </trkpt>
      <trkpt lat="47.82847" lon="3.50521">
        <ele>208</ele>
        <time>2019-04-01T12:51:57Z</time>
      </trkpt>
      <trkpt lat="47.82844" lon="3.5052">
        <ele>208</ele>
        <time>2019-04-01T12:52:00Z</time>
      </trkpt>
      <trkpt lat="47.82838" lon="3.5052">
        <ele>209</ele>
        <time>2019-04-01T12:52:06Z</time>
      </trkpt>
      <trkpt lat="47.82832" lon="3.5052">
        <ele>208</ele>
        <time>2019-04-01T12:52:11Z</time>
      </trkpt>
      <trkpt lat="47.82829" lon="3.5052">
        <ele>208</ele>
        <time>2019-04-01T12:52:14Z</time>
      </trkpt>
      <trkpt lat="47.82823" lon="3.50518">
        <ele>208</ele>
        <time>2019-04-01T12:52:18Z</time>
      </trkpt>
      <trkpt lat="47.82819" lon="3.50517">
        <ele>208</ele>
        <time>2019-04-01T12:52:20Z</time>
      </trkpt>
      <trkpt lat="47.82815" lon="3.50515">
        <ele>207</ele>
        <time>2019-04-01T12:52:22Z</time>
      </trkpt>
      <trkpt lat="47.82813" lon="3.50515">
        <ele>205</ele>
        <time>2019-04-01T12:52:24Z</time>
      </trkpt>
      <trkpt lat="47.82809" lon="3.50513">
        <ele>206</ele>
        <time>2019-04-01T12:52:27Z</time>
      </trkpt>
      <trkpt lat="47.82805" lon="3.50512">
        <ele>206</ele>
        <time>2019-04-01T12:52:30Z</time>
      </trkpt>
      <trkpt lat="47.82803" lon="3.50511">
        <ele>206</ele>
        <time>2019-04-01T12:52:32Z</time>
      </trkpt>
      <trkpt lat="47.82799" lon="3.50509">
        <ele>206</ele>
        <time>2019-04-01T12:52:35Z</time>
      </trkpt>
      <trkpt lat="47.82794" lon="3.50509">
        <ele>207</ele>
        <time>2019-04-01T12:52:39Z</time>
      </trkpt>
      <trkpt lat="47.82789" lon="3.50509">
        <ele>206</ele>
        <time>2019-04-01T12:52:42Z</time>
      </trkpt>
      <trkpt lat="47.82782" lon="3.50508">
        <ele>206</ele>
        <time>2019-04-01T12:52:46Z</time>
      </trkpt>
      <trkpt lat="47.82777" lon="3.50508">
        <ele>205</ele>
        <time>2019-04-01T12:52:49Z</time>
      </trkpt>
      <trkpt lat="47.82772" lon="3.50505">
        <ele>205</ele>
        <time>2019-04-01T12:52:54Z</time>
      </trkpt>
      <trkpt lat="47.82767" lon="3.50501">
        <ele>205</ele>
        <time>2019-04-01T12:52:58Z</time>
      </trkpt>
      <trkpt lat="47.82761" lon="3.505">
        <ele>205</ele>
        <time>2019-04-01T12:53:02Z</time>
      </trkpt>
      <trkpt lat="47.82758" lon="3.50499">
        <ele>204</ele>
        <time>2019-04-01T12:53:04Z</time>
      </trkpt>
      <trkpt lat="47.82754" lon="3.50497">
        <ele>203</ele>
        <time>2019-04-01T12:53:08Z</time>
      </trkpt>
      <trkpt lat="47.8275" lon="3.50495">
        <ele>204</ele>
        <time>2019-04-01T12:53:11Z</time>
      </trkpt>
      <trkpt lat="47.82746" lon="3.50493">
        <ele>203</ele>
        <time>2019-04-01T12:53:14Z</time>
      </trkpt>
      <trkpt lat="47.82739" lon="3.50491">
        <ele>204</ele>
        <time>2019-04-01T12:53:21Z</time>
      </trkpt>
      <trkpt lat="47.82734" lon="3.5049">
        <ele>205</ele>
        <time>2019-04-01T12:53:24Z</time>
      </trkpt>
      <trkpt lat="47.82732" lon="3.50489">
        <ele>206</ele>
        <time>2019-04-01T12:53:26Z</time>
      </trkpt>
      <trkpt lat="47.82727" lon="3.5049">
        <ele>205</ele>
        <time>2019-04-01T12:53:30Z</time>
      </trkpt>
      <trkpt lat="47.82723" lon="3.5049">
        <ele>204</ele>
        <time>2019-04-01T12:53:32Z</time>
      </trkpt>
      <trkpt lat="47.82718" lon="3.50491">
        <ele>204</ele>
        <time>2019-04-01T12:53:36Z</time>
      </trkpt>
      <trkpt lat="47.82716" lon="3.50492">
        <ele>204</ele>
        <time>2019-04-01T12:53:38Z</time>
      </trkpt>
      <trkpt lat="47.8271" lon="3.50494">
        <ele>203</ele>
        <time>2019-04-01T12:53:43Z</time>
      </trkpt>
      <trkpt lat="47.82704" lon="3.50495">
        <ele>204</ele>
        <time>2019-04-01T12:53:48Z</time>
      </trkpt>
      <trkpt lat="47.82699" lon="3.50496">
        <ele>205</ele>
        <time>2019-04-01T12:53:51Z</time>
      </trkpt>
      <trkpt lat="47.82694" lon="3.50495">
        <ele>204</ele>
        <time>2019-04-01T12:53:54Z</time>
      </trkpt>
      <trkpt lat="47.82689" lon="3.50494">
        <ele>205</ele>
        <time>2019-04-01T12:53:58Z</time>
      </trkpt>
      <trkpt lat="47.82687" lon="3.50493">
        <ele>205</ele>
        <time>2019-04-01T12:54:01Z</time>
      </trkpt>
      <trkpt lat="47.82681" lon="3.50495">
        <ele>204</ele>
        <time>2019-04-01T12:54:05Z</time>
      </trkpt>
      <trkpt lat="47.82676" lon="3.50493">
        <ele>206</ele>
        <time>2019-04-01T12:54:10Z</time>
      </trkpt>
      <trkpt lat="47.82671" lon="3.50492">
        <ele>206</ele>
        <time>2019-04-01T12:54:13Z</time>
      </trkpt>
      <trkpt lat="47.82664" lon="3.5049">
        <ele>205</ele>
        <time>2019-04-01T12:54:17Z</time>
      </trkpt>
      <trkpt lat="47.82658" lon="3.50489">
        <ele>204</ele>
        <time>2019-04-01T12:54:20Z</time>
      </trkpt>
      <trkpt lat="47.82653" lon="3.50489">
        <ele>203</ele>
        <time>2019-04-01T12:54:24Z</time>
      </trkpt>
      <trkpt lat="47.82648" lon="3.50488">
        <ele>203</ele>
        <time>2019-04-01T12:54:28Z</time>
      </trkpt>
      <trkpt lat="47.82644" lon="3.50487">
        <ele>202</ele>
        <time>2019-04-01T12:54:32Z</time>
      </trkpt>
      <trkpt lat="47.82639" lon="3.50486">
        <ele>201</ele>
        <time>2019-04-01T12:54:35Z</time>
      </trkpt>
      <trkpt lat="47.82635" lon="3.50483">
        <ele>201</ele>
        <time>2019-04-01T12:54:38Z</time>
      </trkpt>
      <trkpt lat="47.8263" lon="3.5048">
        <ele>200</ele>
        <time>2019-04-01T12:54:44Z</time>
      </trkpt>
      <trkpt lat="47.82625" lon="3.5048">
        <ele>202</ele>
        <time>2019-04-01T12:54:50Z</time>
      </trkpt>
      <trkpt lat="47.82618" lon="3.50478">
        <ele>202</ele>
        <time>2019-04-01T12:54:55Z</time>
      </trkpt>
      <trkpt lat="47.82616" lon="3.50478">
        <ele>202</ele>
        <time>2019-04-01T12:54:57Z</time>
      </trkpt>
      <trkpt lat="47.8261" lon="3.50474">
        <ele>200</ele>
        <time>2019-04-01T12:55:01Z</time>
      </trkpt>
      <trkpt lat="47.82603" lon="3.50474">
        <ele>201</ele>
        <time>2019-04-01T12:55:06Z</time>
      </trkpt>
      <trkpt lat="47.826" lon="3.50473">
        <ele>201</ele>
        <time>2019-04-01T12:55:09Z</time>
      </trkpt>
      <trkpt lat="47.82593" lon="3.50471">
        <ele>199</ele>
        <time>2019-04-01T12:55:15Z</time>
      </trkpt>
      <trkpt lat="47.82588" lon="3.50469">
        <ele>199</ele>
        <time>2019-04-01T12:55:19Z</time>
      </trkpt>
      <trkpt lat="47.82582" lon="3.50469">
        <ele>199</ele>
        <time>2019-04-01T12:55:22Z</time>
      </trkpt>
      <trkpt lat="47.82579" lon="3.50468">
        <ele>197</ele>
        <time>2019-04-01T12:55:25Z</time>
      </trkpt>
      <trkpt lat="47.82576" lon="3.50468">
        <ele>197</ele>
        <time>2019-04-01T12:55:28Z</time>
      </trkpt>
      <trkpt lat="47.82573" lon="3.50468">
        <ele>197</ele>
        <time>2019-04-01T12:55:31Z</time>
      </trkpt>
      <trkpt lat="47.82567" lon="3.50466">
        <ele>196</ele>
        <time>2019-04-01T12:55:36Z</time>
      </trkpt>
      <trkpt lat="47.82563" lon="3.50464">
        <ele>195</ele>
        <time>2019-04-01T12:55:41Z</time>
      </trkpt>
      <trkpt lat="47.82559" lon="3.50464">
        <ele>195</ele>
        <time>2019-04-01T12:55:44Z</time>
      </trkpt>
      <trkpt lat="47.82554" lon="3.50463">
        <ele>195</ele>
        <time>2019-04-01T12:55:47Z</time>
      </trkpt>
      <trkpt lat="47.82551" lon="3.50463">
        <ele>194</ele>
        <time>2019-04-01T12:55:49Z</time>
      </trkpt>
      <trkpt lat="47.82545" lon="3.50465">
        <ele>193</ele>
        <time>2019-04-01T12:55:55Z</time>
      </trkpt>
      <trkpt lat="47.82539" lon="3.50464">
        <ele>194</ele>
        <time>2019-04-01T12:55:59Z</time>
      </trkpt>
      <trkpt lat="47.82534" lon="3.50463">
        <ele>192</ele>
        <time>2019-04-01T12:56:02Z</time>
      </trkpt>
      <trkpt lat="47.82528" lon="3.50459">
        <ele>191</ele>
        <time>2019-04-01T12:56:05Z</time>
      </trkpt>
      <trkpt lat="47.82526" lon="3.50458">
        <ele>191</ele>
        <time>2019-04-01T12:56:06Z</time>
      </trkpt>
      <trkpt lat="47.82523" lon="3.50456">
        <ele>191</ele>
        <time>2019-04-01T12:56:08Z</time>
      </trkpt>
      <trkpt lat="47.82519" lon="3.50452">
        <ele>192</ele>
        <time>2019-04-01T12:56:14Z</time>
      </trkpt>
      <trkpt lat="47.82514" lon="3.5045">
        <ele>190</ele>
        <time>2019-04-01T12:56:19Z</time>
      </trkpt>
      <trkpt lat="47.82508" lon="3.50445">
        <ele>190</ele>
        <time>2019-04-01T12:56:23Z</time>
      </trkpt>
      <trkpt lat="47.82505" lon="3.50443">
        <ele>190</ele>
        <time>2019-04-01T12:56:25Z</time>
      </trkpt>
      <trkpt lat="47.825" lon="3.50439">
        <ele>191</ele>
        <time>2019-04-01T12:56:29Z</time>
      </trkpt>
      <trkpt lat="47.82496" lon="3.50437">
        <ele>191</ele>
        <time>2019-04-01T12:56:32Z</time>
      </trkpt>
      <trkpt lat="47.82492" lon="3.50431">
        <ele>191</ele>
        <time>2019-04-01T12:56:36Z</time>
      </trkpt>
      <trkpt lat="47.82488" lon="3.50426">
        <ele>192</ele>
        <time>2019-04-01T12:56:40Z</time>
      </trkpt>
      <trkpt lat="47.82483" lon="3.50422">
        <ele>192</ele>
        <time>2019-04-01T12:56:45Z</time>
      </trkpt>
      <trkpt lat="47.82476" lon="3.50418">
        <ele>191</ele>
        <time>2019-04-01T12:56:49Z</time>
      </trkpt>
      <trkpt lat="47.82472" lon="3.50414">
        <ele>191</ele>
        <time>2019-04-01T12:56:52Z</time>
      </trkpt>
      <trkpt lat="47.82467" lon="3.50411">
        <ele>190</ele>
        <time>2019-04-01T12:56:55Z</time>
      </trkpt>
      <trkpt lat="47.82465" lon="3.50409">
        <ele>190</ele>
        <time>2019-04-01T12:56:57Z</time>
      </trkpt>
      <trkpt lat="47.82461" lon="3.50404">
        <ele>190</ele>
        <time>2019-04-01T12:57:02Z</time>
      </trkpt>
      <trkpt lat="47.82456" lon="3.50402">
        <ele>191</ele>
        <time>2019-04-01T12:57:05Z</time>
      </trkpt>
      <trkpt lat="47.82451" lon="3.50399">
        <ele>192</ele>
        <time>2019-04-01T12:57:09Z</time>
      </trkpt>
      <trkpt lat="47.82446" lon="3.50394">
        <ele>191</ele>
        <time>2019-04-01T12:57:13Z</time>
      </trkpt>
      <trkpt lat="47.82442" lon="3.50389">
        <ele>190</ele>
        <time>2019-04-01T12:57:18Z</time>
      </trkpt>
      <trkpt lat="47.8244" lon="3.50387">
        <ele>191</ele>
        <time>2019-04-01T12:57:20Z</time>
      </trkpt>
      <trkpt lat="47.82435" lon="3.50382">
        <ele>191</ele>
        <time>2019-04-01T12:57:24Z</time>
      </trkpt>
      <trkpt lat="47.82433" lon="3.50375">
        <ele>192</ele>
        <time>2019-04-01T12:57:30Z</time>
      </trkpt>
      <trkpt lat="47.82432" lon="3.50368">
        <ele>192</ele>
        <time>2019-04-01T12:57:35Z</time>
      </trkpt>
      <trkpt lat="47.82431" lon="3.50357">
        <ele>192</ele>
        <time>2019-04-01T12:57:39Z</time>
      </trkpt>
      <trkpt lat="47.82427" lon="3.50351">
        <ele>192</ele>
        <time>2019-04-01T12:57:43Z</time>
      </trkpt>
      <trkpt lat="47.82426" lon="3.50343">
        <ele>190</ele>
        <time>2019-04-01T12:57:49Z</time>
      </trkpt>
      <trkpt lat="47.82425" lon="3.50337">
        <ele>192</ele>
        <time>2019-04-01T12:57:53Z</time>
      </trkpt>
      <trkpt lat="47.82423" lon="3.5033">
        <ele>191</ele>
        <time>2019-04-01T12:57:57Z</time>
      </trkpt>
      <trkpt lat="47.82421" lon="3.50323">
        <ele>191</ele>
        <time>2019-04-01T12:58:01Z</time>
      </trkpt>
      <trkpt lat="47.82416" lon="3.50319">
        <ele>192</ele>
        <time>2019-04-01T12:58:04Z</time>
      </trkpt>
      <trkpt lat="47.82414" lon="3.50316">
        <ele>193</ele>
        <time>2019-04-01T12:58:06Z</time>
      </trkpt>
      <trkpt lat="47.82412" lon="3.50314">
        <ele>193</ele>
        <time>2019-04-01T12:58:08Z</time>
      </trkpt>
      <trkpt lat="47.82407" lon="3.50311">
        <ele>192</ele>
        <time>2019-04-01T12:58:12Z</time>
      </trkpt>
      <trkpt lat="47.82404" lon="3.50305">
        <ele>191</ele>
        <time>2019-04-01T12:58:19Z</time>
      </trkpt>
      <trkpt lat="47.82401" lon="3.50296">
        <ele>192</ele>
        <time>2019-04-01T12:58:23Z</time>
      </trkpt>
      <trkpt lat="47.82398" lon="3.5029">
        <ele>191</ele>
        <time>2019-04-01T12:58:26Z</time>
      </trkpt>
      <trkpt lat="47.82397" lon="3.50285">
        <ele>192</ele>
        <time>2019-04-01T12:58:30Z</time>
      </trkpt>
      <trkpt lat="47.82395" lon="3.50281">
        <ele>191</ele>
        <time>2019-04-01T12:58:32Z</time>
      </trkpt>
      <trkpt lat="47.82391" lon="3.50275">
        <ele>193</ele>
        <time>2019-04-01T12:58:38Z</time>
      </trkpt>
      <trkpt lat="47.8239" lon="3.50265">
        <ele>190</ele>
        <time>2019-04-01T12:58:44Z</time>
      </trkpt>
      <trkpt lat="47.82391" lon="3.50258">
        <ele>189</ele>
        <time>2019-04-01T12:58:49Z</time>
      </trkpt>
      <trkpt lat="47.82392" lon="3.5025">
        <ele>192</ele>
        <time>2019-04-01T12:58:53Z</time>
      </trkpt>
      <trkpt lat="47.82392" lon="3.50243">
        <ele>192</ele>
        <time>2019-04-01T12:58:57Z</time>
      </trkpt>
      <trkpt lat="47.82392" lon="3.50238">
        <ele>192</ele>
        <time>2019-04-01T12:58:59Z</time>
      </trkpt>
      <trkpt lat="47.82389" lon="3.50231">
        <ele>191</ele>
        <time>2019-04-01T12:59:02Z</time>
      </trkpt>
      <trkpt lat="47.82385" lon="3.50224">
        <ele>188</ele>
        <time>2019-04-01T12:59:06Z</time>
      </trkpt>
      <trkpt lat="47.82381" lon="3.50214">
        <ele>188</ele>
        <time>2019-04-01T12:59:12Z</time>
      </trkpt>
      <trkpt lat="47.8238" lon="3.50207">
        <ele>188</ele>
        <time>2019-04-01T12:59:15Z</time>
      </trkpt>
      <trkpt lat="47.82379" lon="3.50202">
        <ele>188</ele>
        <time>2019-04-01T12:59:18Z</time>
      </trkpt>
      <trkpt lat="47.82377" lon="3.50194">
        <ele>189</ele>
        <time>2019-04-01T12:59:22Z</time>
      </trkpt>
      <trkpt lat="47.82376" lon="3.50189">
        <ele>188</ele>
        <time>2019-04-01T12:59:24Z</time>
      </trkpt>
      <trkpt lat="47.82377" lon="3.50181">
        <ele>187</ele>
        <time>2019-04-01T12:59:29Z</time>
      </trkpt>
      <trkpt lat="47.82374" lon="3.50169">
        <ele>190</ele>
        <time>2019-04-01T12:59:34Z</time>
      </trkpt>
      <trkpt lat="47.8237" lon="3.50163">
        <ele>190</ele>
        <time>2019-04-01T12:59:37Z</time>
      </trkpt>
      <trkpt lat="47.82368" lon="3.5016">
        <ele>191</ele>
        <time>2019-04-01T12:59:39Z</time>
      </trkpt>
      <trkpt lat="47.82364" lon="3.5015">
        <ele>189</ele>
        <time>2019-04-01T12:59:44Z</time>
      </trkpt>
      <trkpt lat="47.82357" lon="3.50145">
        <ele>189</ele>
        <time>2019-04-01T12:59:48Z</time>
      </trkpt>
      <trkpt lat="47.82354" lon="3.50142">
        <ele>188</ele>
        <time>2019-04-01T12:59:51Z</time>
      </trkpt>
      <trkpt lat="47.8235" lon="3.50137">
        <ele>188</ele>
        <time>2019-04-01T12:59:55Z</time>
      </trkpt>
      <trkpt lat="47.82346" lon="3.5013">
        <ele>191</ele>
        <time>2019-04-01T13:00:03Z</time>
      </trkpt>
      <trkpt lat="47.82344" lon="3.50122">
        <ele>191</ele>
        <time>2019-04-01T13:00:09Z</time>
      </trkpt>
      <trkpt lat="47.82342" lon="3.50116">
        <ele>190</ele>
        <time>2019-04-01T13:00:12Z</time>
      </trkpt>
      <trkpt lat="47.82337" lon="3.50111">
        <ele>190</ele>
        <time>2019-04-01T13:00:16Z</time>
      </trkpt>
      <trkpt lat="47.82334" lon="3.50108">
        <ele>190</ele>
        <time>2019-04-01T13:00:18Z</time>
      </trkpt>
      <trkpt lat="47.82331" lon="3.50106">
        <ele>191</ele>
        <time>2019-04-01T13:00:22Z</time>
      </trkpt>
      <trkpt lat="47.82329" lon="3.50099">
        <ele>187</ele>
        <time>2019-04-01T13:00:27Z</time>
      </trkpt>
      <trkpt lat="47.82325" lon="3.50098">
        <ele>188</ele>
        <time>2019-04-01T13:00:33Z</time>
      </trkpt>
      <trkpt lat="47.82322" lon="3.5009">
        <ele>186</ele>
        <time>2019-04-01T13:00:40Z</time>
      </trkpt>
      <trkpt lat="47.8232" lon="3.50086">
        <ele>187</ele>
        <time>2019-04-01T13:00:42Z</time>
      </trkpt>
      <trkpt lat="47.82317" lon="3.50075">
        <ele>188</ele>
        <time>2019-04-01T13:00:47Z</time>
      </trkpt>
      <trkpt lat="47.82313" lon="3.50071">
        <ele>190</ele>
        <time>2019-04-01T13:00:50Z</time>
      </trkpt>
      <trkpt lat="47.82307" lon="3.50069">
        <ele>190</ele>
        <time>2019-04-01T13:00:54Z</time>
      </trkpt>
      <trkpt lat="47.82304" lon="3.50068">
        <ele>190</ele>
        <time>2019-04-01T13:00:57Z</time>
      </trkpt>
      <trkpt lat="47.823" lon="3.50065">
        <ele>190</ele>
        <time>2019-04-01T13:01:00Z</time>
      </trkpt>
      <trkpt lat="47.82296" lon="3.5006">
        <ele>190</ele>
        <time>2019-04-01T13:01:03Z</time>
      </trkpt>
      <trkpt lat="47.82294" lon="3.50058">
        <ele>191</ele>
        <time>2019-04-01T13:01:04Z</time>
      </trkpt>
      <trkpt lat="47.82289" lon="3.50055">
        <ele>191</ele>
        <time>2019-04-01T13:01:07Z</time>
      </trkpt>
      <trkpt lat="47.82285" lon="3.50052">
        <ele>191</ele>
        <time>2019-04-01T13:01:11Z</time>
      </trkpt>
      <trkpt lat="47.8228" lon="3.50049">
        <ele>190</ele>
        <time>2019-04-01T13:01:14Z</time>
      </trkpt>
      <trkpt lat="47.82274" lon="3.50047">
        <ele>189</ele>
        <time>2019-04-01T13:01:18Z</time>
      </trkpt>
      <trkpt lat="47.82269" lon="3.50046">
        <ele>190</ele>
        <time>2019-04-01T13:01:21Z</time>
      </trkpt>
      <trkpt lat="47.82264" lon="3.50047">
        <ele>189</ele>
        <time>2019-04-01T13:01:25Z</time>
      </trkpt>
      <trkpt lat="47.82258" lon="3.50045">
        <ele>190</ele>
        <time>2019-04-01T13:01:30Z</time>
      </trkpt>
      <trkpt lat="47.82252" lon="3.50044">
        <ele>189</ele>
        <time>2019-04-01T13:01:34Z</time>
      </trkpt>
      <trkpt lat="47.82249" lon="3.50042">
        <ele>189</ele>
        <time>2019-04-01T13:01:39Z</time>
      </trkpt>
      <trkpt lat="47.82246" lon="3.50041">
        <ele>188</ele>
        <time>2019-04-01T13:01:43Z</time>
      </trkpt>
      <trkpt lat="47.82249" lon="3.50042">
        <ele>189</ele>
        <time>2019-04-01T13:01:51Z</time>
      </trkpt>
      <trkpt lat="47.82243" lon="3.5004">
        <ele>186</ele>
        <time>2019-04-01T13:07:40Z</time>
      </trkpt>
      <trkpt lat="47.82238" lon="3.50038">
        <ele>188</ele>
        <time>2019-04-01T13:07:47Z</time>
      </trkpt>
      <trkpt lat="47.82233" lon="3.50039">
        <ele>190</ele>
        <time>2019-04-01T13:07:55Z</time>
      </trkpt>
      <trkpt lat="47.8223" lon="3.50039">
        <ele>192</ele>
        <time>2019-04-01T13:07:57Z</time>
      </trkpt>
      <trkpt lat="47.82225" lon="3.5004">
        <ele>192</ele>
        <time>2019-04-01T13:08:02Z</time>
      </trkpt>
      <trkpt lat="47.8222" lon="3.50042">
        <ele>193</ele>
        <time>2019-04-01T13:08:07Z</time>
      </trkpt>
      <trkpt lat="47.82215" lon="3.50045">
        <ele>193</ele>
        <time>2019-04-01T13:08:13Z</time>
      </trkpt>
      <trkpt lat="47.82213" lon="3.50047">
        <ele>194</ele>
        <time>2019-04-01T13:08:15Z</time>
      </trkpt>
      <trkpt lat="47.82208" lon="3.5005">
        <ele>194</ele>
        <time>2019-04-01T13:08:19Z</time>
      </trkpt>
      <trkpt lat="47.82206" lon="3.50051">
        <ele>193</ele>
        <time>2019-04-01T13:08:21Z</time>
      </trkpt>
      <trkpt lat="47.82201" lon="3.50052">
        <ele>194</ele>
        <time>2019-04-01T13:08:24Z</time>
      </trkpt>
      <trkpt lat="47.82195" lon="3.50055">
        <ele>194</ele>
        <time>2019-04-01T13:08:30Z</time>
      </trkpt>
      <trkpt lat="47.82192" lon="3.50058">
        <ele>193</ele>
        <time>2019-04-01T13:08:34Z</time>
      </trkpt>
      <trkpt lat="47.82188" lon="3.50061">
        <ele>193</ele>
        <time>2019-04-01T13:08:37Z</time>
      </trkpt>
      <trkpt lat="47.82185" lon="3.50064">
        <ele>192</ele>
        <time>2019-04-01T13:08:39Z</time>
      </trkpt>
      <trkpt lat="47.8218" lon="3.50069">
        <ele>192</ele>
        <time>2019-04-01T13:08:43Z</time>
      </trkpt>
      <trkpt lat="47.82176" lon="3.50072">
        <ele>192</ele>
        <time>2019-04-01T13:08:47Z</time>
      </trkpt>
      <trkpt lat="47.8217" lon="3.50074">
        <ele>195</ele>
        <time>2019-04-01T13:08:52Z</time>
      </trkpt>
      <trkpt lat="47.82166" lon="3.5008">
        <ele>193</ele>
        <time>2019-04-01T13:08:56Z</time>
      </trkpt>
      <trkpt lat="47.82164" lon="3.50083">
        <ele>192</ele>
        <time>2019-04-01T13:08:58Z</time>
      </trkpt>
      <trkpt lat="47.82159" lon="3.50088">
        <ele>194</ele>
        <time>2019-04-01T13:09:02Z</time>
      </trkpt>
      <trkpt lat="47.82156" lon="3.50093">
        <ele>193</ele>
        <time>2019-04-01T13:09:06Z</time>
      </trkpt>
      <trkpt lat="47.82151" lon="3.50096">
        <ele>193</ele>
        <time>2019-04-01T13:09:10Z</time>
      </trkpt>
      <trkpt lat="47.82147" lon="3.50099">
        <ele>193</ele>
        <time>2019-04-01T13:09:13Z</time>
      </trkpt>
      <trkpt lat="47.82143" lon="3.50103">
        <ele>193</ele>
        <time>2019-04-01T13:09:17Z</time>
      </trkpt>
      <trkpt lat="47.8214" lon="3.50108">
        <ele>193</ele>
        <time>2019-04-01T13:09:21Z</time>
      </trkpt>
      <trkpt lat="47.82137" lon="3.50113">
        <ele>194</ele>
        <time>2019-04-01T13:09:24Z</time>
      </trkpt>
      <trkpt lat="47.82133" lon="3.50117">
        <ele>194</ele>
        <time>2019-04-01T13:09:28Z</time>
      </trkpt>
      <trkpt lat="47.82129" lon="3.50121">
        <ele>194</ele>
        <time>2019-04-01T13:09:31Z</time>
      </trkpt>
      <trkpt lat="47.82125" lon="3.50124">
        <ele>192</ele>
        <time>2019-04-01T13:09:34Z</time>
      </trkpt>
      <trkpt lat="47.8212" lon="3.50128">
        <ele>192</ele>
        <time>2019-04-01T13:09:39Z</time>
      </trkpt>
      <trkpt lat="47.82115" lon="3.5013">
        <ele>191</ele>
        <time>2019-04-01T13:09:42Z</time>
      </trkpt>
      <trkpt lat="47.82112" lon="3.50134">
        <ele>191</ele>
        <time>2019-04-01T13:09:47Z</time>
      </trkpt>
      <trkpt lat="47.82107" lon="3.50135">
        <ele>191</ele>
        <time>2019-04-01T13:09:51Z</time>
      </trkpt>
      <trkpt lat="47.82104" lon="3.50136">
        <ele>191</ele>
        <time>2019-04-01T13:09:53Z</time>
      </trkpt>
      <trkpt lat="47.82101" lon="3.50137">
        <ele>191</ele>
        <time>2019-04-01T13:09:55Z</time>
      </trkpt>
      <trkpt lat="47.82097" lon="3.50137">
        <ele>192</ele>
        <time>2019-04-01T13:09:58Z</time>
      </trkpt>
      <trkpt lat="47.82092" lon="3.50138">
        <ele>190</ele>
        <time>2019-04-01T13:10:02Z</time>
      </trkpt>
      <trkpt lat="47.82088" lon="3.5014">
        <ele>188</ele>
        <time>2019-04-01T13:10:08Z</time>
      </trkpt>
      <trkpt lat="47.82084" lon="3.50142">
        <ele>188</ele>
        <time>2019-04-01T13:10:12Z</time>
      </trkpt>
      <trkpt lat="47.82079" lon="3.50143">
        <ele>189</ele>
        <time>2019-04-01T13:10:16Z</time>
      </trkpt>
      <trkpt lat="47.82077" lon="3.50143">
        <ele>190</ele>
        <time>2019-04-01T13:10:18Z</time>
      </trkpt>
      <trkpt lat="47.82071" lon="3.50144">
        <ele>190</ele>
        <time>2019-04-01T13:10:23Z</time>
      </trkpt>
      <trkpt lat="47.82065" lon="3.50143">
        <ele>189</ele>
        <time>2019-04-01T13:10:28Z</time>
      </trkpt>
      <trkpt lat="47.82061" lon="3.50143">
        <ele>189</ele>
        <time>2019-04-01T13:10:31Z</time>
      </trkpt>
      <trkpt lat="47.82057" lon="3.50142">
        <ele>189</ele>
        <time>2019-04-01T13:10:34Z</time>
      </trkpt>
      <trkpt lat="47.82052" lon="3.50142">
        <ele>189</ele>
        <time>2019-04-01T13:10:40Z</time>
      </trkpt>
      <trkpt lat="47.82048" lon="3.50144">
        <ele>190</ele>
        <time>2019-04-01T13:10:44Z</time>
      </trkpt>
      <trkpt lat="47.82044" lon="3.50146">
        <ele>190</ele>
        <time>2019-04-01T13:10:47Z</time>
      </trkpt>
      <trkpt lat="47.82041" lon="3.50148">
        <ele>190</ele>
        <time>2019-04-01T13:10:49Z</time>
      </trkpt>
      <trkpt lat="47.82038" lon="3.50149">
        <ele>189</ele>
        <time>2019-04-01T13:10:51Z</time>
      </trkpt>
      <trkpt lat="47.82033" lon="3.50153">
        <ele>188</ele>
        <time>2019-04-01T13:10:56Z</time>
      </trkpt>
      <trkpt lat="47.82027" lon="3.50153">
        <ele>188</ele>
        <time>2019-04-01T13:11:00Z</time>
      </trkpt>
      <trkpt lat="47.82022" lon="3.50155">
        <ele>189</ele>
        <time>2019-04-01T13:11:04Z</time>
      </trkpt>
      <trkpt lat="47.82017" lon="3.50158">
        <ele>189</ele>
        <time>2019-04-01T13:11:07Z</time>
      </trkpt>
      <trkpt lat="47.82013" lon="3.5016">
        <ele>191</ele>
        <time>2019-04-01T13:11:10Z</time>
      </trkpt>
      <trkpt lat="47.82008" lon="3.50162">
        <ele>189</ele>
        <time>2019-04-01T13:11:13Z</time>
      </trkpt>
      <trkpt lat="47.82008" lon="3.50162">
        <ele>189</ele>
        <time>2019-04-01T13:11:18Z</time>
      </trkpt>
      <trkpt lat="47.82008" lon="3.50162">
        <ele>189</ele>
        <time>2019-04-01T13:11:19Z</time>
      </trkpt>
      <trkpt lat="47.82" lon="3.50167">
        <ele>187</ele>
        <time>2019-04-01T13:11:23Z</time>
      </trkpt>
      <trkpt lat="47.81993" lon="3.5017">
        <ele>186</ele>
        <time>2019-04-01T13:11:28Z</time>
      </trkpt>
      <trkpt lat="47.81988" lon="3.50171">
        <ele>187</ele>
        <time>2019-04-01T13:11:32Z</time>
      </trkpt>
      <trkpt lat="47.81983" lon="3.50175">
        <ele>186</ele>
        <time>2019-04-01T13:11:36Z</time>
      </trkpt>
      <trkpt lat="47.81977" lon="3.50178">
        <ele>186</ele>
        <time>2019-04-01T13:11:40Z</time>
      </trkpt>
      <trkpt lat="47.81974" lon="3.5018">
        <ele>185</ele>
        <time>2019-04-01T13:11:42Z</time>
      </trkpt>
      <trkpt lat="47.81972" lon="3.50182">
        <ele>184</ele>
        <time>2019-04-01T13:11:44Z</time>
      </trkpt>
      <trkpt lat="47.81969" lon="3.50184">
        <ele>182</ele>
        <time>2019-04-01T13:11:47Z</time>
      </trkpt>
      <trkpt lat="47.81965" lon="3.50189">
        <ele>181</ele>
        <time>2019-04-01T13:11:51Z</time>
      </trkpt>
      <trkpt lat="47.81961" lon="3.50191">
        <ele>183</ele>
        <time>2019-04-01T13:11:56Z</time>
      </trkpt>
      <trkpt lat="47.81957" lon="3.50193">
        <ele>180</ele>
        <time>2019-04-01T13:11:59Z</time>
      </trkpt>
      <trkpt lat="47.81953" lon="3.50196">
        <ele>179</ele>
        <time>2019-04-01T13:12:02Z</time>
      </trkpt>
      <trkpt lat="47.8195" lon="3.50198">
        <ele>179</ele>
        <time>2019-04-01T13:12:05Z</time>
      </trkpt>
      <trkpt lat="47.81945" lon="3.50196">
        <ele>178</ele>
        <time>2019-04-01T13:12:11Z</time>
      </trkpt>
      <trkpt lat="47.81941" lon="3.502">
        <ele>180</ele>
        <time>2019-04-01T13:12:15Z</time>
      </trkpt>
      <trkpt lat="47.81935" lon="3.50202">
        <ele>179</ele>
        <time>2019-04-01T13:12:18Z</time>
      </trkpt>
      <trkpt lat="47.81931" lon="3.50205">
        <ele>179</ele>
        <time>2019-04-01T13:12:22Z</time>
      </trkpt>
      <trkpt lat="47.81928" lon="3.50207">
        <ele>180</ele>
        <time>2019-04-01T13:12:25Z</time>
      </trkpt>
      <trkpt lat="47.81925" lon="3.50209">
        <ele>179</ele>
        <time>2019-04-01T13:12:28Z</time>
      </trkpt>
      <trkpt lat="47.8192" lon="3.50214">
        <ele>178</ele>
        <time>2019-04-01T13:12:32Z</time>
      </trkpt>
      <trkpt lat="47.81919" lon="3.50221">
        <ele>177</ele>
        <time>2019-04-01T13:12:36Z</time>
      </trkpt>
      <trkpt lat="47.81918" lon="3.50225">
        <ele>178</ele>
        <time>2019-04-01T13:12:38Z</time>
      </trkpt>
      <trkpt lat="47.81916" lon="3.50231">
        <ele>177</ele>
        <time>2019-04-01T13:12:41Z</time>
      </trkpt>
      <trkpt lat="47.81913" lon="3.50236">
        <ele>176</ele>
        <time>2019-04-01T13:12:45Z</time>
      </trkpt>
      <trkpt lat="47.8191" lon="3.50243">
        <ele>176</ele>
        <time>2019-04-01T13:12:49Z</time>
      </trkpt>
      <trkpt lat="47.81907" lon="3.50248">
        <ele>175</ele>
        <time>2019-04-01T13:12:54Z</time>
      </trkpt>
      <trkpt lat="47.81902" lon="3.50253">
        <ele>175</ele>
        <time>2019-04-01T13:13:00Z</time>
      </trkpt>
      <trkpt lat="47.81899" lon="3.50258">
        <ele>174</ele>
        <time>2019-04-01T13:13:04Z</time>
      </trkpt>
      <trkpt lat="47.81897" lon="3.50261">
        <ele>175</ele>
        <time>2019-04-01T13:13:07Z</time>
      </trkpt>
      <trkpt lat="47.81895" lon="3.50268">
        <ele>175</ele>
        <time>2019-04-01T13:13:10Z</time>
      </trkpt>
      <trkpt lat="47.81894" lon="3.50274">
        <ele>174</ele>
        <time>2019-04-01T13:13:14Z</time>
      </trkpt>
      <trkpt lat="47.8189" lon="3.50279">
        <ele>174</ele>
        <time>2019-04-01T13:13:18Z</time>
      </trkpt>
      <trkpt lat="47.81888" lon="3.50285">
        <ele>176</ele>
        <time>2019-04-01T13:13:22Z</time>
      </trkpt>
      <trkpt lat="47.81883" lon="3.50291">
        <ele>176</ele>
        <time>2019-04-01T13:13:27Z</time>
      </trkpt>
      <trkpt lat="47.81879" lon="3.50296">
        <ele>175</ele>
        <time>2019-04-01T13:13:31Z</time>
      </trkpt>
      <trkpt lat="47.81875" lon="3.50301">
        <ele>176</ele>
        <time>2019-04-01T13:13:35Z</time>
      </trkpt>
      <trkpt lat="47.81873" lon="3.50305">
        <ele>177</ele>
        <time>2019-04-01T13:13:38Z</time>
      </trkpt>
      <trkpt lat="47.8187" lon="3.50309">
        <ele>176</ele>
        <time>2019-04-01T13:13:41Z</time>
      </trkpt>
      <trkpt lat="47.81866" lon="3.50315">
        <ele>175</ele>
        <time>2019-04-01T13:13:45Z</time>
      </trkpt>
      <trkpt lat="47.81861" lon="3.50323">
        <ele>175</ele>
        <time>2019-04-01T13:13:52Z</time>
      </trkpt>
      <trkpt lat="47.81856" lon="3.50326">
        <ele>176</ele>
        <time>2019-04-01T13:13:58Z</time>
      </trkpt>
      <trkpt lat="47.81854" lon="3.50328">
        <ele>175</ele>
        <time>2019-04-01T13:14:00Z</time>
      </trkpt>
      <trkpt lat="47.81847" lon="3.50333">
        <ele>174</ele>
        <time>2019-04-01T13:14:05Z</time>
      </trkpt>
      <trkpt lat="47.81841" lon="3.50335">
        <ele>175</ele>
        <time>2019-04-01T13:14:09Z</time>
      </trkpt>
      <trkpt lat="47.81836" lon="3.50341">
        <ele>175</ele>
        <time>2019-04-01T13:14:14Z</time>
      </trkpt>
      <trkpt lat="47.81831" lon="3.50342">
        <ele>175</ele>
        <time>2019-04-01T13:14:17Z</time>
      </trkpt>
      <trkpt lat="47.81826" lon="3.50346">
        <ele>174</ele>
        <time>2019-04-01T13:14:21Z</time>
      </trkpt>
      <trkpt lat="47.8182" lon="3.50349">
        <ele>174</ele>
        <time>2019-04-01T13:14:26Z</time>
      </trkpt>
      <trkpt lat="47.81814" lon="3.50353">
        <ele>176</ele>
        <time>2019-04-01T13:14:33Z</time>
      </trkpt>
      <trkpt lat="47.8181" lon="3.50357">
        <ele>176</ele>
        <time>2019-04-01T13:14:39Z</time>
      </trkpt>
      <trkpt lat="47.81805" lon="3.50359">
        <ele>177</ele>
        <time>2019-04-01T13:14:42Z</time>
      </trkpt>
      <trkpt lat="47.81799" lon="3.50363">
        <ele>177</ele>
        <time>2019-04-01T13:14:46Z</time>
      </trkpt>
      <trkpt lat="47.81795" lon="3.50366">
        <ele>176</ele>
        <time>2019-04-01T13:14:49Z</time>
      </trkpt>
      <trkpt lat="47.81791" lon="3.50368">
        <ele>177</ele>
        <time>2019-04-01T13:14:53Z</time>
      </trkpt>
      <trkpt lat="47.81787" lon="3.50372">
        <ele>178</ele>
        <time>2019-04-01T13:14:58Z</time>
      </trkpt>
      <trkpt lat="47.81787" lon="3.50372">
        <ele>178</ele>
        <time>2019-04-01T13:15:06Z</time>
      </trkpt>
      <trkpt lat="47.81787" lon="3.50372">
        <ele>178</ele>
        <time>2019-04-01T13:15:07Z</time>
      </trkpt>
      <trkpt lat="47.81775" lon="3.50371">
        <ele>169</ele>
        <time>2019-04-01T13:15:50Z</time>
      </trkpt>
      <trkpt lat="47.8177" lon="3.50368">
        <ele>169</ele>
        <time>2019-04-01T13:15:54Z</time>
      </trkpt>
      <trkpt lat="47.81765" lon="3.50367">
        <ele>171</ele>
        <time>2019-04-01T13:15:58Z</time>
      </trkpt>
      <trkpt lat="47.8176" lon="3.50369">
        <ele>173</ele>
        <time>2019-04-01T13:16:02Z</time>
      </trkpt>
      <trkpt lat="47.81754" lon="3.50373">
        <ele>174</ele>
        <time>2019-04-01T13:16:07Z</time>
      </trkpt>
      <trkpt lat="47.81747" lon="3.50376">
        <ele>174</ele>
        <time>2019-04-01T13:16:13Z</time>
      </trkpt>
      <trkpt lat="47.81741" lon="3.50381">
        <ele>174</ele>
        <time>2019-04-01T13:16:18Z</time>
      </trkpt>
      <trkpt lat="47.81738" lon="3.50383">
        <ele>175</ele>
        <time>2019-04-01T13:16:21Z</time>
      </trkpt>
      <trkpt lat="47.81732" lon="3.50386">
        <ele>176</ele>
        <time>2019-04-01T13:16:27Z</time>
      </trkpt>
      <trkpt lat="47.81728" lon="3.50387">
        <ele>176</ele>
        <time>2019-04-01T13:16:30Z</time>
      </trkpt>
      <trkpt lat="47.81724" lon="3.50389">
        <ele>174</ele>
        <time>2019-04-01T13:16:38Z</time>
      </trkpt>
      <trkpt lat="47.81719" lon="3.5039">
        <ele>174</ele>
        <time>2019-04-01T13:16:44Z</time>
      </trkpt>
      <trkpt lat="47.81716" lon="3.50391">
        <ele>173</ele>
        <time>2019-04-01T13:16:49Z</time>
      </trkpt>
      <trkpt lat="47.81711" lon="3.5039">
        <ele>172</ele>
        <time>2019-04-01T13:16:53Z</time>
      </trkpt>
      <trkpt lat="47.81708" lon="3.50389">
        <ele>172</ele>
        <time>2019-04-01T13:16:55Z</time>
      </trkpt>
      <trkpt lat="47.81705" lon="3.50392">
        <ele>172</ele>
        <time>2019-04-01T13:17:03Z</time>
      </trkpt>
      <trkpt lat="47.81699" lon="3.50388">
        <ele>172</ele>
        <time>2019-04-01T13:17:07Z</time>
      </trkpt>
      <trkpt lat="47.81691" lon="3.50387">
        <ele>171</ele>
        <time>2019-04-01T13:17:12Z</time>
      </trkpt>
      <trkpt lat="47.81688" lon="3.50387">
        <ele>170</ele>
        <time>2019-04-01T13:17:13Z</time>
      </trkpt>
      <trkpt lat="47.81684" lon="3.50387">
        <ele>171</ele>
        <time>2019-04-01T13:17:15Z</time>
      </trkpt>
      <trkpt lat="47.8168" lon="3.50388">
        <ele>172</ele>
        <time>2019-04-01T13:17:19Z</time>
      </trkpt>
      <trkpt lat="47.81675" lon="3.50387">
        <ele>173</ele>
        <time>2019-04-01T13:17:21Z</time>
      </trkpt>
      <trkpt lat="47.81669" lon="3.50388">
        <ele>173</ele>
        <time>2019-04-01T13:17:25Z</time>
      </trkpt>
      <trkpt lat="47.81665" lon="3.50394">
        <ele>174</ele>
        <time>2019-04-01T13:17:29Z</time>
      </trkpt>
      <trkpt lat="47.81661" lon="3.50398">
        <ele>176</ele>
        <time>2019-04-01T13:17:32Z</time>
      </trkpt>
      <trkpt lat="47.81657" lon="3.50403">
        <ele>177</ele>
        <time>2019-04-01T13:17:35Z</time>
      </trkpt>
      <trkpt lat="47.81653" lon="3.50406">
        <ele>177</ele>
        <time>2019-04-01T13:17:38Z</time>
      </trkpt>
      <trkpt lat="47.81651" lon="3.50409">
        <ele>177</ele>
        <time>2019-04-01T13:17:40Z</time>
      </trkpt>
      <trkpt lat="47.81651" lon="3.50409">
        <ele>177</ele>
        <time>2019-04-01T13:17:46Z</time>
      </trkpt>
      <trkpt lat="47.81647" lon="3.50416">
        <ele>179</ele>
        <time>2019-04-01T13:17:47Z</time>
      </trkpt>
      <trkpt lat="47.81643" lon="3.5042">
        <ele>181</ele>
        <time>2019-04-01T13:17:51Z</time>
      </trkpt>
      <trkpt lat="47.8164" lon="3.50423">
        <ele>182</ele>
        <time>2019-04-01T13:17:53Z</time>
      </trkpt>
      <trkpt lat="47.81635" lon="3.50427">
        <ele>182</ele>
        <time>2019-04-01T13:17:56Z</time>
      </trkpt>
      <trkpt lat="47.81631" lon="3.50432">
        <ele>183</ele>
        <time>2019-04-01T13:17:59Z</time>
      </trkpt>
      <trkpt lat="47.81628" lon="3.50436">
        <ele>183</ele>
        <time>2019-04-01T13:18:02Z</time>
      </trkpt>
      <trkpt lat="47.81625" lon="3.5044">
        <ele>182</ele>
        <time>2019-04-01T13:18:05Z</time>
      </trkpt>
      <trkpt lat="47.81622" lon="3.50445">
        <ele>183</ele>
        <time>2019-04-01T13:18:09Z</time>
      </trkpt>
      <trkpt lat="47.81617" lon="3.5045">
        <ele>183</ele>
        <time>2019-04-01T13:18:12Z</time>
      </trkpt>
      <trkpt lat="47.81615" lon="3.50452">
        <ele>183</ele>
        <time>2019-04-01T13:18:15Z</time>
      </trkpt>
      <trkpt lat="47.81612" lon="3.5046">
        <ele>183</ele>
        <time>2019-04-01T13:18:19Z</time>
      </trkpt>
      <trkpt lat="47.81607" lon="3.50462">
        <ele>182</ele>
        <time>2019-04-01T13:18:23Z</time>
      </trkpt>
      <trkpt lat="47.81603" lon="3.50469">
        <ele>183</ele>
        <time>2019-04-01T13:18:27Z</time>
      </trkpt>
      <trkpt lat="47.81599" lon="3.50477">
        <ele>181</ele>
        <time>2019-04-01T13:18:33Z</time>
      </trkpt>
      <trkpt lat="47.81594" lon="3.50483">
        <ele>182</ele>
        <time>2019-04-01T13:18:38Z</time>
      </trkpt>
      <trkpt lat="47.81591" lon="3.50486">
        <ele>182</ele>
        <time>2019-04-01T13:18:41Z</time>
      </trkpt>
      <trkpt lat="47.81587" lon="3.50491">
        <ele>185</ele>
        <time>2019-04-01T13:18:45Z</time>
      </trkpt>
      <trkpt lat="47.81585" lon="3.50494">
        <ele>186</ele>
        <time>2019-04-01T13:18:47Z</time>
      </trkpt>
      <trkpt lat="47.81581" lon="3.50498">
        <ele>186</ele>
        <time>2019-04-01T13:18:51Z</time>
      </trkpt>
      <trkpt lat="47.81578" lon="3.50505">
        <ele>187</ele>
        <time>2019-04-01T13:18:57Z</time>
      </trkpt>
      <trkpt lat="47.81575" lon="3.50511">
        <ele>188</ele>
        <time>2019-04-01T13:19:01Z</time>
      </trkpt>
      <trkpt lat="47.81573" lon="3.50516">
        <ele>189</ele>
        <time>2019-04-01T13:19:04Z</time>
      </trkpt>
      <trkpt lat="47.81569" lon="3.5052">
        <ele>188</ele>
        <time>2019-04-01T13:19:08Z</time>
      </trkpt>
      <trkpt lat="47.81564" lon="3.50525">
        <ele>189</ele>
        <time>2019-04-01T13:19:12Z</time>
      </trkpt>
      <trkpt lat="47.81561" lon="3.50527">
        <ele>190</ele>
        <time>2019-04-01T13:19:14Z</time>
      </trkpt>
      <trkpt lat="47.81557" lon="3.50531">
        <ele>193</ele>
        <time>2019-04-01T13:19:18Z</time>
      </trkpt>
      <trkpt lat="47.81553" lon="3.50535">
        <ele>193</ele>
        <time>2019-04-01T13:19:22Z</time>
      </trkpt>
      <trkpt lat="47.8155" lon="3.50537">
        <ele>192</ele>
        <time>2019-04-01T13:19:25Z</time>
      </trkpt>
      <trkpt lat="47.81546" lon="3.50542">
        <ele>191</ele>
        <time>2019-04-01T13:19:29Z</time>
      </trkpt>
      <trkpt lat="47.81542" lon="3.50545">
        <ele>193</ele>
        <time>2019-04-01T13:19:35Z</time>
      </trkpt>
      <trkpt lat="47.81539" lon="3.50547">
        <ele>194</ele>
        <time>2019-04-01T13:19:38Z</time>
      </trkpt>
      <trkpt lat="47.81534" lon="3.50553">
        <ele>193</ele>
        <time>2019-04-01T13:19:43Z</time>
      </trkpt>
      <trkpt lat="47.81533" lon="3.50563">
        <ele>189</ele>
        <time>2019-04-01T13:19:46Z</time>
      </trkpt>
      <trkpt lat="47.8153" lon="3.5057">
        <ele>190</ele>
        <time>2019-04-01T13:19:51Z</time>
      </trkpt>
      <trkpt lat="47.8153" lon="3.50578">
        <ele>191</ele>
        <time>2019-04-01T13:19:57Z</time>
      </trkpt>
      <trkpt lat="47.81528" lon="3.50587">
        <ele>191</ele>
        <time>2019-04-01T13:20:02Z</time>
      </trkpt>
      <trkpt lat="47.81526" lon="3.50595">
        <ele>191</ele>
        <time>2019-04-01T13:20:07Z</time>
      </trkpt>
      <trkpt lat="47.81525" lon="3.50604">
        <ele>193</ele>
        <time>2019-04-01T13:20:13Z</time>
      </trkpt>
      <trkpt lat="47.81525" lon="3.50611">
        <ele>194</ele>
        <time>2019-04-01T13:20:17Z</time>
      </trkpt>
      <trkpt lat="47.81524" lon="3.50614">
        <ele>194</ele>
        <time>2019-04-01T13:20:19Z</time>
      </trkpt>
      <trkpt lat="47.81524" lon="3.50619">
        <ele>196</ele>
        <time>2019-04-01T13:20:22Z</time>
      </trkpt>
      <trkpt lat="47.81522" lon="3.50627">
        <ele>198</ele>
        <time>2019-04-01T13:20:28Z</time>
      </trkpt>
      <trkpt lat="47.81521" lon="3.50636">
        <ele>199</ele>
        <time>2019-04-01T13:20:33Z</time>
      </trkpt>
      <trkpt lat="47.8152" lon="3.50639">
        <ele>199</ele>
        <time>2019-04-01T13:20:36Z</time>
      </trkpt>
      <trkpt lat="47.81519" lon="3.50643">
        <ele>199</ele>
        <time>2019-04-01T13:20:38Z</time>
      </trkpt>
      <trkpt lat="47.81518" lon="3.50649">
        <ele>199</ele>
        <time>2019-04-01T13:20:40Z</time>
      </trkpt>
      <trkpt lat="47.81517" lon="3.50653">
        <ele>199</ele>
        <time>2019-04-01T13:20:42Z</time>
      </trkpt>
      <trkpt lat="47.81517" lon="3.50661">
        <ele>199</ele>
        <time>2019-04-01T13:20:46Z</time>
      </trkpt>
      <trkpt lat="47.81516" lon="3.50668">
        <ele>200</ele>
        <time>2019-04-01T13:20:50Z</time>
      </trkpt>
      <trkpt lat="47.81515" lon="3.50675">
        <ele>199</ele>
        <time>2019-04-01T13:20:54Z</time>
      </trkpt>
      <trkpt lat="47.81515" lon="3.50685">
        <ele>198</ele>
        <time>2019-04-01T13:21:01Z</time>
      </trkpt>
      <trkpt lat="47.81514" lon="3.50692">
        <ele>199</ele>
        <time>2019-04-01T13:21:05Z</time>
      </trkpt>
      <trkpt lat="47.81513" lon="3.50695">
        <ele>199</ele>
        <time>2019-04-01T13:21:07Z</time>
      </trkpt>
      <trkpt lat="47.81511" lon="3.50704">
        <ele>201</ele>
        <time>2019-04-01T13:21:14Z</time>
      </trkpt>
      <trkpt lat="47.8151" lon="3.50711">
        <ele>201</ele>
        <time>2019-04-01T13:21:19Z</time>
      </trkpt>
      <trkpt lat="47.8151" lon="3.50718">
        <ele>202</ele>
        <time>2019-04-01T13:21:22Z</time>
      </trkpt>
      <trkpt lat="47.81507" lon="3.50727">
        <ele>204</ele>
        <time>2019-04-01T13:21:28Z</time>
      </trkpt>
      <trkpt lat="47.81504" lon="3.50734">
        <ele>203</ele>
        <time>2019-04-01T13:21:32Z</time>
      </trkpt>
      <trkpt lat="47.81503" lon="3.50741">
        <ele>204</ele>
        <time>2019-04-01T13:21:36Z</time>
      </trkpt>
      <trkpt lat="47.81502" lon="3.5075">
        <ele>206</ele>
        <time>2019-04-01T13:21:40Z</time>
      </trkpt>
      <trkpt lat="47.81502" lon="3.50753">
        <ele>205</ele>
        <time>2019-04-01T13:21:42Z</time>
      </trkpt>
      <trkpt lat="47.81501" lon="3.50762">
        <ele>205</ele>
        <time>2019-04-01T13:21:46Z</time>
      </trkpt>
      <trkpt lat="47.81501" lon="3.50769">
        <ele>206</ele>
        <time>2019-04-01T13:21:49Z</time>
      </trkpt>
      <trkpt lat="47.81498" lon="3.50776">
        <ele>205</ele>
        <time>2019-04-01T13:21:55Z</time>
      </trkpt>
      <trkpt lat="47.81498" lon="3.50784">
        <ele>206</ele>
        <time>2019-04-01T13:22:00Z</time>
      </trkpt>
      <trkpt lat="47.81497" lon="3.5079">
        <ele>208</ele>
        <time>2019-04-01T13:22:03Z</time>
      </trkpt>
      <trkpt lat="47.81497" lon="3.50794">
        <ele>207</ele>
        <time>2019-04-01T13:22:06Z</time>
      </trkpt>
      <trkpt lat="47.81497" lon="3.50798">
        <ele>208</ele>
        <time>2019-04-01T13:22:08Z</time>
      </trkpt>
      <trkpt lat="47.81497" lon="3.50806">
        <ele>208</ele>
        <time>2019-04-01T13:22:11Z</time>
      </trkpt>
      <trkpt lat="47.81496" lon="3.5081">
        <ele>208</ele>
        <time>2019-04-01T13:22:13Z</time>
      </trkpt>
      <trkpt lat="47.81496" lon="3.50814">
        <ele>208</ele>
        <time>2019-04-01T13:22:15Z</time>
      </trkpt>
      <trkpt lat="47.81493" lon="3.50819">
        <ele>208</ele>
        <time>2019-04-01T13:22:20Z</time>
      </trkpt>
      <trkpt lat="47.81491" lon="3.50823">
        <ele>210</ele>
        <time>2019-04-01T13:22:24Z</time>
      </trkpt>
      <trkpt lat="47.81489" lon="3.50831">
        <ele>212</ele>
        <time>2019-04-01T13:22:29Z</time>
      </trkpt>
      <trkpt lat="47.81488" lon="3.50838">
        <ele>213</ele>
        <time>2019-04-01T13:22:32Z</time>
      </trkpt>
      <trkpt lat="47.81487" lon="3.50842">
        <ele>213</ele>
        <time>2019-04-01T13:22:34Z</time>
      </trkpt>
      <trkpt lat="47.81486" lon="3.50846">
        <ele>214</ele>
        <time>2019-04-01T13:22:36Z</time>
      </trkpt>
      <trkpt lat="47.81485" lon="3.5085">
        <ele>212</ele>
        <time>2019-04-01T13:22:39Z</time>
      </trkpt>
      <trkpt lat="47.81483" lon="3.50857">
        <ele>213</ele>
        <time>2019-04-01T13:22:43Z</time>
      </trkpt>
      <trkpt lat="47.81481" lon="3.50862">
        <ele>212</ele>
        <time>2019-04-01T13:22:46Z</time>
      </trkpt>
      <trkpt lat="47.81478" lon="3.50871">
        <ele>211</ele>
        <time>2019-04-01T13:22:50Z</time>
      </trkpt>
      <trkpt lat="47.81476" lon="3.50879">
        <ele>213</ele>
        <time>2019-04-01T13:22:53Z</time>
      </trkpt>
      <trkpt lat="47.81475" lon="3.50882">
        <ele>212</ele>
        <time>2019-04-01T13:22:55Z</time>
      </trkpt>
      <trkpt lat="47.81471" lon="3.50889">
        <ele>210</ele>
        <time>2019-04-01T13:22:59Z</time>
      </trkpt>
      <trkpt lat="47.81469" lon="3.50894">
        <ele>208</ele>
        <time>2019-04-01T13:23:02Z</time>
      </trkpt>
      <trkpt lat="47.81464" lon="3.509">
        <ele>207</ele>
        <time>2019-04-01T13:23:07Z</time>
      </trkpt>
      <trkpt lat="47.81461" lon="3.50907">
        <ele>207</ele>
        <time>2019-04-01T13:23:11Z</time>
      </trkpt>
      <trkpt lat="47.81459" lon="3.50914">
        <ele>208</ele>
        <time>2019-04-01T13:23:16Z</time>
      </trkpt>
      <trkpt lat="47.81455" lon="3.50921">
        <ele>209</ele>
        <time>2019-04-01T13:23:20Z</time>
      </trkpt>
      <trkpt lat="47.81454" lon="3.50924">
        <ele>209</ele>
        <time>2019-04-01T13:23:22Z</time>
      </trkpt>
      <trkpt lat="47.81451" lon="3.50931">
        <ele>207</ele>
        <time>2019-04-01T13:23:26Z</time>
      </trkpt>
      <trkpt lat="47.81449" lon="3.50934">
        <ele>207</ele>
        <time>2019-04-01T13:23:28Z</time>
      </trkpt>
      <trkpt lat="47.81447" lon="3.50941">
        <ele>207</ele>
        <time>2019-04-01T13:23:32Z</time>
      </trkpt>
      <trkpt lat="47.81444" lon="3.5095">
        <ele>207</ele>
        <time>2019-04-01T13:23:37Z</time>
      </trkpt>
      <trkpt lat="47.8144" lon="3.50956">
        <ele>208</ele>
        <time>2019-04-01T13:23:42Z</time>
      </trkpt>
      <trkpt lat="47.81437" lon="3.50962">
        <ele>208</ele>
        <time>2019-04-01T13:23:46Z</time>
      </trkpt>
      <trkpt lat="47.81434" lon="3.50966">
        <ele>207</ele>
        <time>2019-04-01T13:23:49Z</time>
      </trkpt>
      <trkpt lat="47.81431" lon="3.5097">
        <ele>206</ele>
        <time>2019-04-01T13:23:52Z</time>
      </trkpt>
      <trkpt lat="47.81429" lon="3.50973">
        <ele>205</ele>
        <time>2019-04-01T13:23:54Z</time>
      </trkpt>
      <trkpt lat="47.81426" lon="3.50979">
        <ele>205</ele>
        <time>2019-04-01T13:23:58Z</time>
      </trkpt>
      <trkpt lat="47.81423" lon="3.50985">
        <ele>205</ele>
        <time>2019-04-01T13:24:03Z</time>
      </trkpt>
      <trkpt lat="47.8142" lon="3.5099">
        <ele>205</ele>
        <time>2019-04-01T13:24:06Z</time>
      </trkpt>
      <trkpt lat="47.81418" lon="3.50994">
        <ele>206</ele>
        <time>2019-04-01T13:24:09Z</time>
      </trkpt>
      <trkpt lat="47.81415" lon="3.51">
        <ele>207</ele>
        <time>2019-04-01T13:24:13Z</time>
      </trkpt>
      <trkpt lat="47.81412" lon="3.51006">
        <ele>208</ele>
        <time>2019-04-01T13:24:16Z</time>
      </trkpt>
      <trkpt lat="47.8141" lon="3.5101">
        <ele>208</ele>
        <time>2019-04-01T13:24:18Z</time>
      </trkpt>
      <trkpt lat="47.81407" lon="3.51015">
        <ele>208</ele>
        <time>2019-04-01T13:24:21Z</time>
      </trkpt>
      <trkpt lat="47.81405" lon="3.51018">
        <ele>208</ele>
        <time>2019-04-01T13:24:23Z</time>
      </trkpt>
      <trkpt lat="47.81403" lon="3.51026">
        <ele>210</ele>
        <time>2019-04-01T13:24:27Z</time>
      </trkpt>
      <trkpt lat="47.81401" lon="3.51032">
        <ele>210</ele>
        <time>2019-04-01T13:24:30Z</time>
      </trkpt>
      <trkpt lat="47.81398" lon="3.51037">
        <ele>209</ele>
        <time>2019-04-01T13:24:33Z</time>
      </trkpt>
      <trkpt lat="47.81395" lon="3.51044">
        <ele>208</ele>
        <time>2019-04-01T13:24:36Z</time>
      </trkpt>
      <trkpt lat="47.81394" lon="3.51048">
        <ele>208</ele>
        <time>2019-04-01T13:24:38Z</time>
      </trkpt>
      <trkpt lat="47.81392" lon="3.51051">
        <ele>208</ele>
        <time>2019-04-01T13:24:40Z</time>
      </trkpt>
      <trkpt lat="47.81389" lon="3.51059">
        <ele>207</ele>
        <time>2019-04-01T13:24:44Z</time>
      </trkpt>
      <trkpt lat="47.81387" lon="3.51065">
        <ele>207</ele>
        <time>2019-04-01T13:24:47Z</time>
      </trkpt>
      <trkpt lat="47.81384" lon="3.51073">
        <ele>206</ele>
        <time>2019-04-01T13:24:51Z</time>
      </trkpt>
      <trkpt lat="47.81383" lon="3.51077">
        <ele>206</ele>
        <time>2019-04-01T13:24:53Z</time>
      </trkpt>
      <trkpt lat="47.81381" lon="3.51084">
        <ele>207</ele>
        <time>2019-04-01T13:24:57Z</time>
      </trkpt>
      <trkpt lat="47.81381" lon="3.51091">
        <ele>208</ele>
        <time>2019-04-01T13:25:01Z</time>
      </trkpt>
      <trkpt lat="47.81379" lon="3.51098">
        <ele>208</ele>
        <time>2019-04-01T13:25:04Z</time>
      </trkpt>
      <trkpt lat="47.81378" lon="3.51103">
        <ele>207</ele>
        <time>2019-04-01T13:25:06Z</time>
      </trkpt>
      <trkpt lat="47.81376" lon="3.51107">
        <ele>207</ele>
        <time>2019-04-01T13:25:08Z</time>
      </trkpt>
      <trkpt lat="47.81373" lon="3.51113">
        <ele>207</ele>
        <time>2019-04-01T13:25:11Z</time>
      </trkpt>
      <trkpt lat="47.8137" lon="3.51119">
        <ele>207</ele>
        <time>2019-04-01T13:25:14Z</time>
      </trkpt>
      <trkpt lat="47.81369" lon="3.51126">
        <ele>207</ele>
        <time>2019-04-01T13:25:18Z</time>
      </trkpt>
      <trkpt lat="47.81367" lon="3.51132">
        <ele>208</ele>
        <time>2019-04-01T13:25:21Z</time>
      </trkpt>
      <trkpt lat="47.81363" lon="3.51139">
        <ele>207</ele>
        <time>2019-04-01T13:25:25Z</time>
      </trkpt>
      <trkpt lat="47.81362" lon="3.51147">
        <ele>207</ele>
        <time>2019-04-01T13:25:28Z</time>
      </trkpt>
      <trkpt lat="47.81362" lon="3.51157">
        <ele>208</ele>
        <time>2019-04-01T13:25:33Z</time>
      </trkpt>
      <trkpt lat="47.81359" lon="3.51164">
        <ele>208</ele>
        <time>2019-04-01T13:25:36Z</time>
      </trkpt>
      <trkpt lat="47.81356" lon="3.51174">
        <ele>208</ele>
        <time>2019-04-01T13:25:41Z</time>
      </trkpt>
      <trkpt lat="47.81355" lon="3.51181">
        <ele>207</ele>
        <time>2019-04-01T13:25:44Z</time>
      </trkpt>
      <trkpt lat="47.81352" lon="3.51189">
        <ele>207</ele>
        <time>2019-04-01T13:25:49Z</time>
      </trkpt>
      <trkpt lat="47.81351" lon="3.51192">
        <ele>207</ele>
        <time>2019-04-01T13:25:51Z</time>
      </trkpt>
      <trkpt lat="47.81348" lon="3.51198">
        <ele>207</ele>
        <time>2019-04-01T13:25:55Z</time>
      </trkpt>
      <trkpt lat="47.81345" lon="3.51206">
        <ele>206</ele>
        <time>2019-04-01T13:25:59Z</time>
      </trkpt>
      <trkpt lat="47.81343" lon="3.51211">
        <ele>206</ele>
        <time>2019-04-01T13:26:02Z</time>
      </trkpt>
      <trkpt lat="47.81342" lon="3.51214">
        <ele>206</ele>
        <time>2019-04-01T13:26:04Z</time>
      </trkpt>
      <trkpt lat="47.81341" lon="3.51218">
        <ele>206</ele>
        <time>2019-04-01T13:26:06Z</time>
      </trkpt>
      <trkpt lat="47.81339" lon="3.51223">
        <ele>206</ele>
        <time>2019-04-01T13:26:08Z</time>
      </trkpt>
      <trkpt lat="47.81338" lon="3.51227">
        <ele>206</ele>
        <time>2019-04-01T13:26:10Z</time>
      </trkpt>
      <trkpt lat="47.81337" lon="3.51236">
        <ele>207</ele>
        <time>2019-04-01T13:26:13Z</time>
      </trkpt>
      <trkpt lat="47.81334" lon="3.51243">
        <ele>206</ele>
        <time>2019-04-01T13:26:17Z</time>
      </trkpt>
      <trkpt lat="47.81331" lon="3.51249">
        <ele>204</ele>
        <time>2019-04-01T13:26:21Z</time>
      </trkpt>
      <trkpt lat="47.81329" lon="3.51252">
        <ele>205</ele>
        <time>2019-04-01T13:26:23Z</time>
      </trkpt>
      <trkpt lat="47.81327" lon="3.51261">
        <ele>206</ele>
        <time>2019-04-01T13:26:27Z</time>
      </trkpt>
      <trkpt lat="47.81326" lon="3.51265">
        <ele>206</ele>
        <time>2019-04-01T13:26:29Z</time>
      </trkpt>
      <trkpt lat="47.81324" lon="3.51273">
        <ele>206</ele>
        <time>2019-04-01T13:26:32Z</time>
      </trkpt>
      <trkpt lat="47.8132" lon="3.5128">
        <ele>205</ele>
        <time>2019-04-01T13:26:36Z</time>
      </trkpt>
      <trkpt lat="47.81317" lon="3.51285">
        <ele>204</ele>
        <time>2019-04-01T13:26:39Z</time>
      </trkpt>
      <trkpt lat="47.81316" lon="3.51288">
        <ele>204</ele>
        <time>2019-04-01T13:26:41Z</time>
      </trkpt>
      <trkpt lat="47.81314" lon="3.51295">
        <ele>203</ele>
        <time>2019-04-01T13:26:44Z</time>
      </trkpt>
      <trkpt lat="47.81314" lon="3.51299">
        <ele>203</ele>
        <time>2019-04-01T13:26:46Z</time>
      </trkpt>
      <trkpt lat="47.81311" lon="3.51307">
        <ele>203</ele>
        <time>2019-04-01T13:26:50Z</time>
      </trkpt>
      <trkpt lat="47.8131" lon="3.5131">
        <ele>203</ele>
        <time>2019-04-01T13:26:52Z</time>
      </trkpt>
      <trkpt lat="47.81309" lon="3.51317">
        <ele>203</ele>
        <time>2019-04-01T13:26:55Z</time>
      </trkpt>
      <trkpt lat="47.81309" lon="3.51324">
        <ele>202</ele>
        <time>2019-04-01T13:26:57Z</time>
      </trkpt>
      <trkpt lat="47.81309" lon="3.5133">
        <ele>201</ele>
        <time>2019-04-01T13:26:59Z</time>
      </trkpt>
      <trkpt lat="47.81309" lon="3.51334">
        <ele>200</ele>
        <time>2019-04-01T13:27:01Z</time>
      </trkpt>
      <trkpt lat="47.81309" lon="3.51338">
        <ele>198</ele>
        <time>2019-04-01T13:27:04Z</time>
      </trkpt>
      <trkpt lat="47.81309" lon="3.5134">
        <ele>200</ele>
        <time>2019-04-01T13:27:13Z</time>
      </trkpt>
      <trkpt lat="47.81315" lon="3.51348">
        <ele>190</ele>
        <time>2019-04-01T13:33:56Z</time>
      </trkpt>
      <trkpt lat="47.81313" lon="3.51355">
        <ele>191</ele>
        <time>2019-04-01T13:34:02Z</time>
      </trkpt>
      <trkpt lat="47.81309" lon="3.51361">
        <ele>190</ele>
        <time>2019-04-01T13:34:08Z</time>
      </trkpt>
      <trkpt lat="47.81307" lon="3.51368">
        <ele>190</ele>
        <time>2019-04-01T13:34:12Z</time>
      </trkpt>
      <trkpt lat="47.81305" lon="3.51374">
        <ele>191</ele>
        <time>2019-04-01T13:34:15Z</time>
      </trkpt>
      <trkpt lat="47.81302" lon="3.51381">
        <ele>191</ele>
        <time>2019-04-01T13:34:20Z</time>
      </trkpt>
      <trkpt lat="47.81301" lon="3.51384">
        <ele>190</ele>
        <time>2019-04-01T13:34:22Z</time>
      </trkpt>
      <trkpt lat="47.813" lon="3.51388">
        <ele>190</ele>
        <time>2019-04-01T13:34:24Z</time>
      </trkpt>
      <trkpt lat="47.81299" lon="3.51395">
        <ele>190</ele>
        <time>2019-04-01T13:34:27Z</time>
      </trkpt>
      <trkpt lat="47.81298" lon="3.51399">
        <ele>189</ele>
        <time>2019-04-01T13:34:30Z</time>
      </trkpt>
      <trkpt lat="47.81296" lon="3.51405">
        <ele>189</ele>
        <time>2019-04-01T13:34:34Z</time>
      </trkpt>
      <trkpt lat="47.81296" lon="3.51405">
        <ele>189</ele>
        <time>2019-04-01T13:34:41Z</time>
      </trkpt>
      <trkpt lat="47.81294" lon="3.51414">
        <ele>188</ele>
        <time>2019-04-01T13:34:43Z</time>
      </trkpt>
      <trkpt lat="47.81292" lon="3.51421">
        <ele>189</ele>
        <time>2019-04-01T13:34:48Z</time>
      </trkpt>
      <trkpt lat="47.8129" lon="3.51424">
        <ele>188</ele>
        <time>2019-04-01T13:34:50Z</time>
      </trkpt>
      <trkpt lat="47.81289" lon="3.5143">
        <ele>189</ele>
        <time>2019-04-01T13:34:54Z</time>
      </trkpt>
      <trkpt lat="47.81286" lon="3.51436">
        <ele>189</ele>
        <time>2019-04-01T13:34:58Z</time>
      </trkpt>
      <trkpt lat="47.81284" lon="3.51442">
        <ele>189</ele>
        <time>2019-04-01T13:35:02Z</time>
      </trkpt>
      <trkpt lat="47.81281" lon="3.51446">
        <ele>190</ele>
        <time>2019-04-01T13:35:06Z</time>
      </trkpt>
      <trkpt lat="47.81277" lon="3.51453">
        <ele>190</ele>
        <time>2019-04-01T13:35:10Z</time>
      </trkpt>
      <trkpt lat="47.81274" lon="3.51458">
        <ele>190</ele>
        <time>2019-04-01T13:35:14Z</time>
      </trkpt>
      <trkpt lat="47.81273" lon="3.51461">
        <ele>190</ele>
        <time>2019-04-01T13:35:16Z</time>
      </trkpt>
      <trkpt lat="47.81269" lon="3.51467">
        <ele>189</ele>
        <time>2019-04-01T13:35:20Z</time>
      </trkpt>
      <trkpt lat="47.81267" lon="3.51473">
        <ele>188</ele>
        <time>2019-04-01T13:35:24Z</time>
      </trkpt>
      <trkpt lat="47.81265" lon="3.5148">
        <ele>188</ele>
        <time>2019-04-01T13:35:27Z</time>
      </trkpt>
      <trkpt lat="47.81262" lon="3.51486">
        <ele>187</ele>
        <time>2019-04-01T13:35:31Z</time>
      </trkpt>
      <trkpt lat="47.8126" lon="3.51493">
        <ele>187</ele>
        <time>2019-04-01T13:35:34Z</time>
      </trkpt>
      <trkpt lat="47.81257" lon="3.51499">
        <ele>186</ele>
        <time>2019-04-01T13:35:38Z</time>
      </trkpt>
      <trkpt lat="47.81255" lon="3.51502">
        <ele>185</ele>
        <time>2019-04-01T13:35:41Z</time>
      </trkpt>
      <trkpt lat="47.81254" lon="3.51506">
        <ele>185</ele>
        <time>2019-04-01T13:35:43Z</time>
      </trkpt>
      <trkpt lat="47.81253" lon="3.51509">
        <ele>185</ele>
        <time>2019-04-01T13:35:45Z</time>
      </trkpt>
      <trkpt lat="47.81248" lon="3.51515">
        <ele>184</ele>
        <time>2019-04-01T13:35:49Z</time>
      </trkpt>
      <trkpt lat="47.81246" lon="3.51518">
        <ele>183</ele>
        <time>2019-04-01T13:35:51Z</time>
      </trkpt>
      <trkpt lat="47.81243" lon="3.51521">
        <ele>183</ele>
        <time>2019-04-01T13:35:53Z</time>
      </trkpt>
      <trkpt lat="47.8124" lon="3.51524">
        <ele>182</ele>
        <time>2019-04-01T13:35:56Z</time>
      </trkpt>
      <trkpt lat="47.81238" lon="3.51527">
        <ele>182</ele>
        <time>2019-04-01T13:35:58Z</time>
      </trkpt>
      <trkpt lat="47.81233" lon="3.51531">
        <ele>183</ele>
        <time>2019-04-01T13:36:02Z</time>
      </trkpt>
      <trkpt lat="47.81228" lon="3.51535">
        <ele>181</ele>
        <time>2019-04-01T13:36:06Z</time>
      </trkpt>
      <trkpt lat="47.81224" lon="3.51537">
        <ele>181</ele>
        <time>2019-04-01T13:36:09Z</time>
      </trkpt>
      <trkpt lat="47.8122" lon="3.51542">
        <ele>179</ele>
        <time>2019-04-01T13:36:13Z</time>
      </trkpt>
      <trkpt lat="47.81216" lon="3.51545">
        <ele>178</ele>
        <time>2019-04-01T13:36:16Z</time>
      </trkpt>
      <trkpt lat="47.81212" lon="3.51548">
        <ele>178</ele>
        <time>2019-04-01T13:36:19Z</time>
      </trkpt>
      <trkpt lat="47.81208" lon="3.51553">
        <ele>178</ele>
        <time>2019-04-01T13:36:22Z</time>
      </trkpt>
      <trkpt lat="47.81205" lon="3.51555">
        <ele>177</ele>
        <time>2019-04-01T13:36:24Z</time>
      </trkpt>
      <trkpt lat="47.81202" lon="3.51562">
        <ele>176</ele>
        <time>2019-04-01T13:36:28Z</time>
      </trkpt>
      <trkpt lat="47.81198" lon="3.51567">
        <ele>175</ele>
        <time>2019-04-01T13:36:33Z</time>
      </trkpt>
      <trkpt lat="47.81195" lon="3.51574">
        <ele>174</ele>
        <time>2019-04-01T13:36:37Z</time>
      </trkpt>
      <trkpt lat="47.81193" lon="3.51577">
        <ele>174</ele>
        <time>2019-04-01T13:36:39Z</time>
      </trkpt>
      <trkpt lat="47.81192" lon="3.51581">
        <ele>174</ele>
        <time>2019-04-01T13:36:42Z</time>
      </trkpt>
      <trkpt lat="47.81191" lon="3.51584">
        <ele>174</ele>
        <time>2019-04-01T13:36:45Z</time>
      </trkpt>
      <trkpt lat="47.81189" lon="3.51587">
        <ele>174</ele>
        <time>2019-04-01T13:36:47Z</time>
      </trkpt>
      <trkpt lat="47.81185" lon="3.51592">
        <ele>174</ele>
        <time>2019-04-01T13:36:52Z</time>
      </trkpt>
      <trkpt lat="47.81182" lon="3.51595">
        <ele>175</ele>
        <time>2019-04-01T13:36:55Z</time>
      </trkpt>
      <trkpt lat="47.81179" lon="3.51602">
        <ele>174</ele>
        <time>2019-04-01T13:36:59Z</time>
      </trkpt>
      <trkpt lat="47.81177" lon="3.51605">
        <ele>174</ele>
        <time>2019-04-01T13:37:01Z</time>
      </trkpt>
      <trkpt lat="47.81174" lon="3.51614">
        <ele>173</ele>
        <time>2019-04-01T13:37:06Z</time>
      </trkpt>
      <trkpt lat="47.81171" lon="3.51619">
        <ele>171</ele>
        <time>2019-04-01T13:37:10Z</time>
      </trkpt>
      <trkpt lat="47.81169" lon="3.51627">
        <ele>172</ele>
        <time>2019-04-01T13:37:14Z</time>
      </trkpt>
      <trkpt lat="47.81166" lon="3.51634">
        <ele>172</ele>
        <time>2019-04-01T13:37:18Z</time>
      </trkpt>
      <trkpt lat="47.81162" lon="3.5164">
        <ele>170</ele>
        <time>2019-04-01T13:37:22Z</time>
      </trkpt>
      <trkpt lat="47.81159" lon="3.51646">
        <ele>171</ele>
        <time>2019-04-01T13:37:26Z</time>
      </trkpt>
      <trkpt lat="47.81158" lon="3.51651">
        <ele>171</ele>
        <time>2019-04-01T13:37:29Z</time>
      </trkpt>
      <trkpt lat="47.81155" lon="3.51657">
        <ele>169</ele>
        <time>2019-04-01T13:37:33Z</time>
      </trkpt>
      <trkpt lat="47.81151" lon="3.51665">
        <ele>168</ele>
        <time>2019-04-01T13:37:37Z</time>
      </trkpt>
      <trkpt lat="47.81149" lon="3.5167">
        <ele>166</ele>
        <time>2019-04-01T13:37:40Z</time>
      </trkpt>
      <trkpt lat="47.81147" lon="3.51673">
        <ele>166</ele>
        <time>2019-04-01T13:37:42Z</time>
      </trkpt>
      <trkpt lat="47.81143" lon="3.5168">
        <ele>167</ele>
        <time>2019-04-01T13:37:45Z</time>
      </trkpt>
      <trkpt lat="47.8114" lon="3.51685">
        <ele>167</ele>
        <time>2019-04-01T13:37:50Z</time>
      </trkpt>
      <trkpt lat="47.81135" lon="3.51692">
        <ele>167</ele>
        <time>2019-04-01T13:37:55Z</time>
      </trkpt>
      <trkpt lat="47.81131" lon="3.51701">
        <ele>167</ele>
        <time>2019-04-01T13:38:00Z</time>
      </trkpt>
      <trkpt lat="47.81129" lon="3.51709">
        <ele>166</ele>
        <time>2019-04-01T13:38:04Z</time>
      </trkpt>
      <trkpt lat="47.81126" lon="3.51716">
        <ele>166</ele>
        <time>2019-04-01T13:38:08Z</time>
      </trkpt>
      <trkpt lat="47.81122" lon="3.51722">
        <ele>165</ele>
        <time>2019-04-01T13:38:11Z</time>
      </trkpt>
      <trkpt lat="47.8112" lon="3.51726">
        <ele>165</ele>
        <time>2019-04-01T13:38:14Z</time>
      </trkpt>
      <trkpt lat="47.81116" lon="3.51735">
        <ele>165</ele>
        <time>2019-04-01T13:38:19Z</time>
      </trkpt>
      <trkpt lat="47.81112" lon="3.51742">
        <ele>164</ele>
        <time>2019-04-01T13:38:24Z</time>
      </trkpt>
      <trkpt lat="47.81109" lon="3.51748">
        <ele>162</ele>
        <time>2019-04-01T13:38:27Z</time>
      </trkpt>
      <trkpt lat="47.81106" lon="3.51754">
        <ele>162</ele>
        <time>2019-04-01T13:38:31Z</time>
      </trkpt>
      <trkpt lat="47.81103" lon="3.51758">
        <ele>162</ele>
        <time>2019-04-01T13:38:34Z</time>
      </trkpt>
      <trkpt lat="47.811" lon="3.51764">
        <ele>161</ele>
        <time>2019-04-01T13:38:37Z</time>
      </trkpt>
      <trkpt lat="47.81097" lon="3.51771">
        <ele>161</ele>
        <time>2019-04-01T13:38:41Z</time>
      </trkpt>
      <trkpt lat="47.81093" lon="3.51777">
        <ele>160</ele>
        <time>2019-04-01T13:38:46Z</time>
      </trkpt>
      <trkpt lat="47.81091" lon="3.51784">
        <ele>159</ele>
        <time>2019-04-01T13:38:50Z</time>
      </trkpt>
      <trkpt lat="47.81089" lon="3.51787">
        <ele>159</ele>
        <time>2019-04-01T13:38:52Z</time>
      </trkpt>
      <trkpt lat="47.81086" lon="3.51793">
        <ele>157</ele>
        <time>2019-04-01T13:38:56Z</time>
      </trkpt>
      <trkpt lat="47.81082" lon="3.51799">
        <ele>156</ele>
        <time>2019-04-01T13:39:00Z</time>
      </trkpt>
      <trkpt lat="47.8108" lon="3.51807">
        <ele>157</ele>
        <time>2019-04-01T13:39:04Z</time>
      </trkpt>
      <trkpt lat="47.81078" lon="3.51811">
        <ele>156</ele>
        <time>2019-04-01T13:39:06Z</time>
      </trkpt>
      <trkpt lat="47.81075" lon="3.51817">
        <ele>156</ele>
        <time>2019-04-01T13:39:10Z</time>
      </trkpt>
      <trkpt lat="47.81073" lon="3.51822">
        <ele>157</ele>
        <time>2019-04-01T13:39:13Z</time>
      </trkpt>
      <trkpt lat="47.8107" lon="3.51827">
        <ele>155</ele>
        <time>2019-04-01T13:39:16Z</time>
      </trkpt>
      <trkpt lat="47.81067" lon="3.51834">
        <ele>154</ele>
        <time>2019-04-01T13:39:20Z</time>
      </trkpt>
      <trkpt lat="47.81063" lon="3.5184">
        <ele>153</ele>
        <time>2019-04-01T13:39:24Z</time>
      </trkpt>
      <trkpt lat="47.8106" lon="3.51847">
        <ele>154</ele>
        <time>2019-04-01T13:39:27Z</time>
      </trkpt>
      <trkpt lat="47.81056" lon="3.51852">
        <ele>155</ele>
        <time>2019-04-01T13:39:31Z</time>
      </trkpt>
      <trkpt lat="47.81054" lon="3.51855">
        <ele>156</ele>
        <time>2019-04-01T13:39:33Z</time>
      </trkpt>
      <trkpt lat="47.81052" lon="3.51858">
        <ele>156</ele>
        <time>2019-04-01T13:39:35Z</time>
      </trkpt>
      <trkpt lat="47.8105" lon="3.51861">
        <ele>156</ele>
        <time>2019-04-01T13:39:37Z</time>
      </trkpt>
      <trkpt lat="47.81048" lon="3.51867">
        <ele>157</ele>
        <time>2019-04-01T13:39:40Z</time>
      </trkpt>
      <trkpt lat="47.81047" lon="3.51871">
        <ele>157</ele>
        <time>2019-04-01T13:39:42Z</time>
      </trkpt>
      <trkpt lat="47.81045" lon="3.51874">
        <ele>156</ele>
        <time>2019-04-01T13:39:44Z</time>
      </trkpt>
      <trkpt lat="47.81044" lon="3.51878">
        <ele>156</ele>
        <time>2019-04-01T13:39:46Z</time>
      </trkpt>
      <trkpt lat="47.81042" lon="3.51881">
        <ele>156</ele>
        <time>2019-04-01T13:39:48Z</time>
      </trkpt>
      <trkpt lat="47.81039" lon="3.51887">
        <ele>155</ele>
        <time>2019-04-01T13:39:52Z</time>
      </trkpt>
      <trkpt lat="47.81037" lon="3.5189">
        <ele>157</ele>
        <time>2019-04-01T13:39:57Z</time>
      </trkpt>
      <trkpt lat="47.81035" lon="3.51894">
        <ele>155</ele>
        <time>2019-04-01T13:39:59Z</time>
      </trkpt>
      <trkpt lat="47.81032" lon="3.519">
        <ele>155</ele>
        <time>2019-04-01T13:40:03Z</time>
      </trkpt>
      <trkpt lat="47.81031" lon="3.51904">
        <ele>156</ele>
        <time>2019-04-01T13:40:05Z</time>
      </trkpt>
      <trkpt lat="47.8103" lon="3.51907">
        <ele>156</ele>
        <time>2019-04-01T13:40:07Z</time>
      </trkpt>
      <trkpt lat="47.81027" lon="3.51913">
        <ele>155</ele>
        <time>2019-04-01T13:40:11Z</time>
      </trkpt>
      <trkpt lat="47.81023" lon="3.51917">
        <ele>156</ele>
        <time>2019-04-01T13:40:14Z</time>
      </trkpt>
      <trkpt lat="47.81021" lon="3.5192">
        <ele>156</ele>
        <time>2019-04-01T13:40:16Z</time>
      </trkpt>
      <trkpt lat="47.81019" lon="3.51925">
        <ele>157</ele>
        <time>2019-04-01T13:40:19Z</time>
      </trkpt>
      <trkpt lat="47.81016" lon="3.5193">
        <ele>157</ele>
        <time>2019-04-01T13:40:21Z</time>
      </trkpt>
      <trkpt lat="47.81014" lon="3.51934">
        <ele>157</ele>
        <time>2019-04-01T13:40:23Z</time>
      </trkpt>
      <trkpt lat="47.81013" lon="3.51938">
        <ele>157</ele>
        <time>2019-04-01T13:40:25Z</time>
      </trkpt>
      <trkpt lat="47.8101" lon="3.51942">
        <ele>157</ele>
        <time>2019-04-01T13:40:28Z</time>
      </trkpt>
      <trkpt lat="47.81007" lon="3.51947">
        <ele>156</ele>
        <time>2019-04-01T13:40:31Z</time>
      </trkpt>
      <trkpt lat="47.81005" lon="3.51953">
        <ele>155</ele>
        <time>2019-04-01T13:40:35Z</time>
      </trkpt>
      <trkpt lat="47.81001" lon="3.51959">
        <ele>154</ele>
        <time>2019-04-01T13:40:39Z</time>
      </trkpt>
      <trkpt lat="47.81" lon="3.51962">
        <ele>154</ele>
        <time>2019-04-01T13:40:41Z</time>
      </trkpt>
      <trkpt lat="47.80996" lon="3.51967">
        <ele>153</ele>
        <time>2019-04-01T13:40:44Z</time>
      </trkpt>
      <trkpt lat="47.80994" lon="3.51971">
        <ele>154</ele>
        <time>2019-04-01T13:40:47Z</time>
      </trkpt>
      <trkpt lat="47.80991" lon="3.51981">
        <ele>155</ele>
        <time>2019-04-01T13:40:51Z</time>
      </trkpt>
      <trkpt lat="47.80987" lon="3.51987">
        <ele>152</ele>
        <time>2019-04-01T13:40:55Z</time>
      </trkpt>
      <trkpt lat="47.80984" lon="3.51994">
        <ele>153</ele>
        <time>2019-04-01T13:41:01Z</time>
      </trkpt>
      <trkpt lat="47.80979" lon="3.51997">
        <ele>150</ele>
        <time>2019-04-01T13:41:06Z</time>
      </trkpt>
      <trkpt lat="47.80976" lon="3.52003">
        <ele>151</ele>
        <time>2019-04-01T13:41:10Z</time>
      </trkpt>
      <trkpt lat="47.80973" lon="3.5201">
        <ele>152</ele>
        <time>2019-04-01T13:41:13Z</time>
      </trkpt>
      <trkpt lat="47.80972" lon="3.52017">
        <ele>151</ele>
        <time>2019-04-01T13:41:16Z</time>
      </trkpt>
      <trkpt lat="47.80971" lon="3.52025">
        <ele>150</ele>
        <time>2019-04-01T13:41:19Z</time>
      </trkpt>
      <trkpt lat="47.80971" lon="3.52034">
        <ele>149</ele>
        <time>2019-04-01T13:41:23Z</time>
      </trkpt>
      <trkpt lat="47.8097" lon="3.52041">
        <ele>150</ele>
        <time>2019-04-01T13:41:26Z</time>
      </trkpt>
      <trkpt lat="47.80967" lon="3.52051">
        <ele>153</ele>
        <time>2019-04-01T13:41:31Z</time>
      </trkpt>
      <trkpt lat="47.80966" lon="3.52059">
        <ele>154</ele>
        <time>2019-04-01T13:41:34Z</time>
      </trkpt>
      <trkpt lat="47.80964" lon="3.52066">
        <ele>153</ele>
        <time>2019-04-01T13:41:38Z</time>
      </trkpt>
      <trkpt lat="47.80962" lon="3.5207">
        <ele>153</ele>
        <time>2019-04-01T13:41:40Z</time>
      </trkpt>
      <trkpt lat="47.80961" lon="3.52075">
        <ele>153</ele>
        <time>2019-04-01T13:41:42Z</time>
      </trkpt>
      <trkpt lat="47.80959" lon="3.52082">
        <ele>152</ele>
        <time>2019-04-01T13:41:45Z</time>
      </trkpt>
      <trkpt lat="47.80956" lon="3.5209">
        <ele>151</ele>
        <time>2019-04-01T13:41:48Z</time>
      </trkpt>
      <trkpt lat="47.80954" lon="3.52099">
        <ele>154</ele>
        <time>2019-04-01T13:41:53Z</time>
      </trkpt>
      <trkpt lat="47.80951" lon="3.52107">
        <ele>155</ele>
        <time>2019-04-01T13:41:57Z</time>
      </trkpt>
      <trkpt lat="47.80949" lon="3.5211">
        <ele>155</ele>
        <time>2019-04-01T13:41:59Z</time>
      </trkpt>
      <trkpt lat="47.80948" lon="3.52115">
        <ele>155</ele>
        <time>2019-04-01T13:42:01Z</time>
      </trkpt>
      <trkpt lat="47.80946" lon="3.52119">
        <ele>155</ele>
        <time>2019-04-01T13:42:03Z</time>
      </trkpt>
      <trkpt lat="47.80945" lon="3.52122">
        <ele>155</ele>
        <time>2019-04-01T13:42:06Z</time>
      </trkpt>
      <trkpt lat="47.80944" lon="3.52126">
        <ele>155</ele>
        <time>2019-04-01T13:42:08Z</time>
      </trkpt>
      <trkpt lat="47.80942" lon="3.52129">
        <ele>154</ele>
        <time>2019-04-01T13:42:10Z</time>
      </trkpt>
      <trkpt lat="47.80941" lon="3.52134">
        <ele>153</ele>
        <time>2019-04-01T13:42:12Z</time>
      </trkpt>
      <trkpt lat="47.80939" lon="3.52141">
        <ele>153</ele>
        <time>2019-04-01T13:42:16Z</time>
      </trkpt>
      <trkpt lat="47.80937" lon="3.52148">
        <ele>153</ele>
        <time>2019-04-01T13:42:20Z</time>
      </trkpt>
      <trkpt lat="47.80936" lon="3.52151">
        <ele>153</ele>
        <time>2019-04-01T13:42:21Z</time>
      </trkpt>
      <trkpt lat="47.80934" lon="3.52157">
        <ele>154</ele>
        <time>2019-04-01T13:42:24Z</time>
      </trkpt>
      <trkpt lat="47.80933" lon="3.5216">
        <ele>154</ele>
        <time>2019-04-01T13:42:26Z</time>
      </trkpt>
      <trkpt lat="47.80932" lon="3.52165">
        <ele>155</ele>
        <time>2019-04-01T13:42:30Z</time>
      </trkpt>
      <trkpt lat="47.80928" lon="3.52173">
        <ele>156</ele>
        <time>2019-04-01T13:42:34Z</time>
      </trkpt>
      <trkpt lat="47.80926" lon="3.52183">
        <ele>157</ele>
        <time>2019-04-01T13:42:38Z</time>
      </trkpt>
      <trkpt lat="47.80925" lon="3.52188">
        <ele>157</ele>
        <time>2019-04-01T13:42:41Z</time>
      </trkpt>
      <trkpt lat="47.80923" lon="3.52194">
        <ele>157</ele>
        <time>2019-04-01T13:42:44Z</time>
      </trkpt>
      <trkpt lat="47.80921" lon="3.52201">
        <ele>156</ele>
        <time>2019-04-01T13:42:47Z</time>
      </trkpt>
      <trkpt lat="47.80918" lon="3.52208">
        <ele>155</ele>
        <time>2019-04-01T13:42:51Z</time>
      </trkpt>
      <trkpt lat="47.80915" lon="3.52215">
        <ele>156</ele>
        <time>2019-04-01T13:42:55Z</time>
      </trkpt>
      <trkpt lat="47.80912" lon="3.52221">
        <ele>156</ele>
        <time>2019-04-01T13:43:00Z</time>
      </trkpt>
      <trkpt lat="47.80911" lon="3.52229">
        <ele>156</ele>
        <time>2019-04-01T13:43:04Z</time>
      </trkpt>
      <trkpt lat="47.80908" lon="3.52235">
        <ele>157</ele>
        <time>2019-04-01T13:43:08Z</time>
      </trkpt>
      <trkpt lat="47.80907" lon="3.52239">
        <ele>157</ele>
        <time>2019-04-01T13:43:09Z</time>
      </trkpt>
      <trkpt lat="47.80905" lon="3.52244">
        <ele>158</ele>
        <time>2019-04-01T13:43:12Z</time>
      </trkpt>
      <trkpt lat="47.80904" lon="3.52248">
        <ele>158</ele>
        <time>2019-04-01T13:43:14Z</time>
      </trkpt>
      <trkpt lat="47.80903" lon="3.52253">
        <ele>159</ele>
        <time>2019-04-01T13:43:17Z</time>
      </trkpt>
      <trkpt lat="47.809" lon="3.52259">
        <ele>159</ele>
        <time>2019-04-01T13:43:21Z</time>
      </trkpt>
      <trkpt lat="47.80899" lon="3.52261">
        <ele>159</ele>
        <time>2019-04-01T13:43:23Z</time>
      </trkpt>
      <trkpt lat="47.80898" lon="3.52265">
        <ele>159</ele>
        <time>2019-04-01T13:43:26Z</time>
      </trkpt>
      <trkpt lat="47.80896" lon="3.52272">
        <ele>159</ele>
        <time>2019-04-01T13:43:30Z</time>
      </trkpt>
      <trkpt lat="47.80895" lon="3.52276">
        <ele>160</ele>
        <time>2019-04-01T13:43:32Z</time>
      </trkpt>
      <trkpt lat="47.80894" lon="3.5228">
        <ele>160</ele>
        <time>2019-04-01T13:43:34Z</time>
      </trkpt>
      <trkpt lat="47.80891" lon="3.52286">
        <ele>160</ele>
        <time>2019-04-01T13:43:38Z</time>
      </trkpt>
      <trkpt lat="47.80889" lon="3.52291">
        <ele>162</ele>
        <time>2019-04-01T13:43:41Z</time>
      </trkpt>
      <trkpt lat="47.80888" lon="3.52294">
        <ele>162</ele>
        <time>2019-04-01T13:43:43Z</time>
      </trkpt>
      <trkpt lat="47.80887" lon="3.52298">
        <ele>162</ele>
        <time>2019-04-01T13:43:45Z</time>
      </trkpt>
      <trkpt lat="47.80885" lon="3.52304">
        <ele>162</ele>
        <time>2019-04-01T13:43:50Z</time>
      </trkpt>
      <trkpt lat="47.80885" lon="3.52308">
        <ele>162</ele>
        <time>2019-04-01T13:43:52Z</time>
      </trkpt>
      <trkpt lat="47.80882" lon="3.52316">
        <ele>162</ele>
        <time>2019-04-01T13:43:56Z</time>
      </trkpt>
      <trkpt lat="47.80882" lon="3.52319">
        <ele>162</ele>
        <time>2019-04-01T13:43:58Z</time>
      </trkpt>
      <trkpt lat="47.80879" lon="3.52324">
        <ele>162</ele>
        <time>2019-04-01T13:44:02Z</time>
      </trkpt>
      <trkpt lat="47.80877" lon="3.52332">
        <ele>162</ele>
        <time>2019-04-01T13:44:06Z</time>
      </trkpt>
      <trkpt lat="47.80875" lon="3.52335">
        <ele>162</ele>
        <time>2019-04-01T13:44:08Z</time>
      </trkpt>
      <trkpt lat="47.80874" lon="3.52339">
        <ele>162</ele>
        <time>2019-04-01T13:44:10Z</time>
      </trkpt>
      <trkpt lat="47.80872" lon="3.52347">
        <ele>163</ele>
        <time>2019-04-01T13:44:14Z</time>
      </trkpt>
      <trkpt lat="47.80869" lon="3.52353">
        <ele>163</ele>
        <time>2019-04-01T13:44:19Z</time>
      </trkpt>
      <trkpt lat="47.80868" lon="3.52356">
        <ele>164</ele>
        <time>2019-04-01T13:44:21Z</time>
      </trkpt>
      <trkpt lat="47.80866" lon="3.52363">
        <ele>165</ele>
        <time>2019-04-01T13:44:25Z</time>
      </trkpt>
      <trkpt lat="47.80864" lon="3.52368">
        <ele>164</ele>
        <time>2019-04-01T13:44:28Z</time>
      </trkpt>
      <trkpt lat="47.80863" lon="3.52371">
        <ele>163</ele>
        <time>2019-04-01T13:44:30Z</time>
      </trkpt>
      <trkpt lat="47.80861" lon="3.52377">
        <ele>164</ele>
        <time>2019-04-01T13:44:32Z</time>
      </trkpt>
      <trkpt lat="47.80858" lon="3.52384">
        <ele>165</ele>
        <time>2019-04-01T13:44:37Z</time>
      </trkpt>
      <trkpt lat="47.80856" lon="3.52391">
        <ele>166</ele>
        <time>2019-04-01T13:44:41Z</time>
      </trkpt>
      <trkpt lat="47.80854" lon="3.52398">
        <ele>166</ele>
        <time>2019-04-01T13:44:45Z</time>
      </trkpt>
      <trkpt lat="47.80853" lon="3.52405">
        <ele>167</ele>
        <time>2019-04-01T13:44:50Z</time>
      </trkpt>
      <trkpt lat="47.80851" lon="3.52412">
        <ele>168</ele>
        <time>2019-04-01T13:44:53Z</time>
      </trkpt>
      <trkpt lat="47.8085" lon="3.52415">
        <ele>168</ele>
        <time>2019-04-01T13:44:55Z</time>
      </trkpt>
      <trkpt lat="47.80848" lon="3.5242">
        <ele>168</ele>
        <time>2019-04-01T13:44:57Z</time>
      </trkpt>
      <trkpt lat="47.80846" lon="3.52427">
        <ele>169</ele>
        <time>2019-04-01T13:45:01Z</time>
      </trkpt>
      <trkpt lat="47.80844" lon="3.52435">
        <ele>170</ele>
        <time>2019-04-01T13:45:06Z</time>
      </trkpt>
      <trkpt lat="47.80842" lon="3.52443">
        <ele>171</ele>
        <time>2019-04-01T13:45:09Z</time>
      </trkpt>
      <trkpt lat="47.80839" lon="3.5245">
        <ele>170</ele>
        <time>2019-04-01T13:45:14Z</time>
      </trkpt>
      <trkpt lat="47.80837" lon="3.52458">
        <ele>170</ele>
        <time>2019-04-01T13:45:18Z</time>
      </trkpt>
      <trkpt lat="47.80835" lon="3.52462">
        <ele>170</ele>
        <time>2019-04-01T13:45:20Z</time>
      </trkpt>
      <trkpt lat="47.80832" lon="3.52469">
        <ele>171</ele>
        <time>2019-04-01T13:45:24Z</time>
      </trkpt>
      <trkpt lat="47.80831" lon="3.52472">
        <ele>170</ele>
        <time>2019-04-01T13:45:26Z</time>
      </trkpt>
      <trkpt lat="47.80828" lon="3.52479">
        <ele>171</ele>
        <time>2019-04-01T13:45:30Z</time>
      </trkpt>
      <trkpt lat="47.80827" lon="3.52483">
        <ele>172</ele>
        <time>2019-04-01T13:45:32Z</time>
      </trkpt>
      <trkpt lat="47.80826" lon="3.52487">
        <ele>172</ele>
        <time>2019-04-01T13:45:34Z</time>
      </trkpt>
      <trkpt lat="47.80825" lon="3.52491">
        <ele>172</ele>
        <time>2019-04-01T13:45:36Z</time>
      </trkpt>
      <trkpt lat="47.80822" lon="3.52499">
        <ele>172</ele>
        <time>2019-04-01T13:45:40Z</time>
      </trkpt>
      <trkpt lat="47.80821" lon="3.52507">
        <ele>172</ele>
        <time>2019-04-01T13:45:44Z</time>
      </trkpt>
      <trkpt lat="47.80819" lon="3.52511">
        <ele>173</ele>
        <time>2019-04-01T13:45:46Z</time>
      </trkpt>
      <trkpt lat="47.80817" lon="3.52518">
        <ele>172</ele>
        <time>2019-04-01T13:45:50Z</time>
      </trkpt>
      <trkpt lat="47.80816" lon="3.52522">
        <ele>172</ele>
        <time>2019-04-01T13:45:52Z</time>
      </trkpt>
      <trkpt lat="47.80815" lon="3.52525">
        <ele>172</ele>
        <time>2019-04-01T13:45:54Z</time>
      </trkpt>
      <trkpt lat="47.80813" lon="3.52532">
        <ele>173</ele>
        <time>2019-04-01T13:45:58Z</time>
      </trkpt>
      <trkpt lat="47.80811" lon="3.5254">
        <ele>174</ele>
        <time>2019-04-01T13:46:03Z</time>
      </trkpt>
      <trkpt lat="47.80809" lon="3.52545">
        <ele>174</ele>
        <time>2019-04-01T13:46:05Z</time>
      </trkpt>
      <trkpt lat="47.80807" lon="3.5255">
        <ele>174</ele>
        <time>2019-04-01T13:46:08Z</time>
      </trkpt>
      <trkpt lat="47.80806" lon="3.52554">
        <ele>174</ele>
        <time>2019-04-01T13:46:11Z</time>
      </trkpt>
      <trkpt lat="47.80804" lon="3.52559">
        <ele>175</ele>
        <time>2019-04-01T13:46:15Z</time>
      </trkpt>
      <trkpt lat="47.80802" lon="3.52565">
        <ele>175</ele>
        <time>2019-04-01T13:46:19Z</time>
      </trkpt>
      <trkpt lat="47.808" lon="3.52569">
        <ele>175</ele>
        <time>2019-04-01T13:46:22Z</time>
      </trkpt>
      <trkpt lat="47.80798" lon="3.52574">
        <ele>175</ele>
        <time>2019-04-01T13:46:25Z</time>
      </trkpt>
      <trkpt lat="47.80797" lon="3.52577">
        <ele>176</ele>
        <time>2019-04-01T13:46:27Z</time>
      </trkpt>
      <trkpt lat="47.80794" lon="3.52583">
        <ele>176</ele>
        <time>2019-04-01T13:46:31Z</time>
      </trkpt>
      <trkpt lat="47.80793" lon="3.52585">
        <ele>175</ele>
        <time>2019-04-01T13:46:33Z</time>
      </trkpt>
      <trkpt lat="47.80791" lon="3.52589">
        <ele>176</ele>
        <time>2019-04-01T13:46:36Z</time>
      </trkpt>
      <trkpt lat="47.80788" lon="3.52594">
        <ele>177</ele>
        <time>2019-04-01T13:46:40Z</time>
      </trkpt>
      <trkpt lat="47.80784" lon="3.52599">
        <ele>176</ele>
        <time>2019-04-01T13:46:44Z</time>
      </trkpt>
      <trkpt lat="47.8078" lon="3.52604">
        <ele>177</ele>
        <time>2019-04-01T13:46:48Z</time>
      </trkpt>
      <trkpt lat="47.80777" lon="3.52611">
        <ele>178</ele>
        <time>2019-04-01T13:46:52Z</time>
      </trkpt>
      <trkpt lat="47.80775" lon="3.52614">
        <ele>178</ele>
        <time>2019-04-01T13:46:54Z</time>
      </trkpt>
      <trkpt lat="47.80772" lon="3.52619">
        <ele>179</ele>
        <time>2019-04-01T13:46:58Z</time>
      </trkpt>
      <trkpt lat="47.8077" lon="3.52621">
        <ele>179</ele>
        <time>2019-04-01T13:47:00Z</time>
      </trkpt>
      <trkpt lat="47.80767" lon="3.52627">
        <ele>180</ele>
        <time>2019-04-01T13:47:03Z</time>
      </trkpt>
      <trkpt lat="47.80762" lon="3.52633">
        <ele>179</ele>
        <time>2019-04-01T13:47:09Z</time>
      </trkpt>
      <trkpt lat="47.80759" lon="3.52639">
        <ele>180</ele>
        <time>2019-04-01T13:47:13Z</time>
      </trkpt>
      <trkpt lat="47.80757" lon="3.52642">
        <ele>179</ele>
        <time>2019-04-01T13:47:15Z</time>
      </trkpt>
      <trkpt lat="47.80755" lon="3.52646">
        <ele>180</ele>
        <time>2019-04-01T13:47:18Z</time>
      </trkpt>
      <trkpt lat="47.80752" lon="3.52651">
        <ele>179</ele>
        <time>2019-04-01T13:47:21Z</time>
      </trkpt>
      <trkpt lat="47.80749" lon="3.52657">
        <ele>180</ele>
        <time>2019-04-01T13:47:25Z</time>
      </trkpt>
      <trkpt lat="47.80747" lon="3.52661">
        <ele>181</ele>
        <time>2019-04-01T13:47:28Z</time>
      </trkpt>
      <trkpt lat="47.80744" lon="3.52668">
        <ele>181</ele>
        <time>2019-04-01T13:47:32Z</time>
      </trkpt>
      <trkpt lat="47.80742" lon="3.52672">
        <ele>181</ele>
        <time>2019-04-01T13:47:34Z</time>
      </trkpt>
      <trkpt lat="47.80739" lon="3.52678">
        <ele>181</ele>
        <time>2019-04-01T13:47:38Z</time>
      </trkpt>
      <trkpt lat="47.80737" lon="3.52686">
        <ele>181</ele>
        <time>2019-04-01T13:47:42Z</time>
      </trkpt>
      <trkpt lat="47.80737" lon="3.5269">
        <ele>181</ele>
        <time>2019-04-01T13:47:43Z</time>
      </trkpt>
      <trkpt lat="47.80736" lon="3.52697">
        <ele>181</ele>
        <time>2019-04-01T13:47:48Z</time>
      </trkpt>
      <trkpt lat="47.80733" lon="3.52704">
        <ele>181</ele>
        <time>2019-04-01T13:47:52Z</time>
      </trkpt>
      <trkpt lat="47.80733" lon="3.52704">
        <ele>181</ele>
        <time>2019-04-01T13:48:00Z</time>
      </trkpt>
      <trkpt lat="47.80733" lon="3.52704">
        <ele>181</ele>
        <time>2019-04-01T13:48:02Z</time>
      </trkpt>
      <trkpt lat="47.80729" lon="3.52709">
        <ele>183</ele>
        <time>2019-04-01T13:48:05Z</time>
      </trkpt>
      <trkpt lat="47.80727" lon="3.52716">
        <ele>184</ele>
        <time>2019-04-01T13:48:10Z</time>
      </trkpt>
      <trkpt lat="47.80729" lon="3.52724">
        <ele>184</ele>
        <time>2019-04-01T13:48:15Z</time>
      </trkpt>
      <trkpt lat="47.8073" lon="3.52728">
        <ele>184</ele>
        <time>2019-04-01T13:48:17Z</time>
      </trkpt>
      <trkpt lat="47.80731" lon="3.52733">
        <ele>185</ele>
        <time>2019-04-01T13:48:20Z</time>
      </trkpt>
      <trkpt lat="47.80732" lon="3.52737">
        <ele>185</ele>
        <time>2019-04-01T13:48:22Z</time>
      </trkpt>
      <trkpt lat="47.80734" lon="3.52745">
        <ele>185</ele>
        <time>2019-04-01T13:48:25Z</time>
      </trkpt>
      <trkpt lat="47.80735" lon="3.52753">
        <ele>185</ele>
        <time>2019-04-01T13:48:29Z</time>
      </trkpt>
      <trkpt lat="47.80736" lon="3.52758">
        <ele>185</ele>
        <time>2019-04-01T13:48:32Z</time>
      </trkpt>
      <trkpt lat="47.80736" lon="3.52766">
        <ele>185</ele>
        <time>2019-04-01T13:48:36Z</time>
      </trkpt>
      <trkpt lat="47.80736" lon="3.52774">
        <ele>185</ele>
        <time>2019-04-01T13:48:39Z</time>
      </trkpt>
      <trkpt lat="47.80736" lon="3.52778">
        <ele>184</ele>
        <time>2019-04-01T13:48:41Z</time>
      </trkpt>
      <trkpt lat="47.80736" lon="3.52784">
        <ele>184</ele>
        <time>2019-04-01T13:48:45Z</time>
      </trkpt>
      <trkpt lat="47.80737" lon="3.52792">
        <ele>184</ele>
        <time>2019-04-01T13:48:49Z</time>
      </trkpt>
      <trkpt lat="47.80737" lon="3.52797">
        <ele>184</ele>
        <time>2019-04-01T13:48:52Z</time>
      </trkpt>
      <trkpt lat="47.80737" lon="3.52809">
        <ele>184</ele>
        <time>2019-04-01T13:48:58Z</time>
      </trkpt>
      <trkpt lat="47.80736" lon="3.52815">
        <ele>184</ele>
        <time>2019-04-01T13:49:02Z</time>
      </trkpt>
      <trkpt lat="47.80735" lon="3.52823">
        <ele>183</ele>
        <time>2019-04-01T13:49:06Z</time>
      </trkpt>
      <trkpt lat="47.80735" lon="3.52826">
        <ele>184</ele>
        <time>2019-04-01T13:49:08Z</time>
      </trkpt>
      <trkpt lat="47.80734" lon="3.52832">
        <ele>184</ele>
        <time>2019-04-01T13:49:11Z</time>
      </trkpt>
      <trkpt lat="47.80735" lon="3.52838">
        <ele>185</ele>
        <time>2019-04-01T13:49:15Z</time>
      </trkpt>
      <trkpt lat="47.80733" lon="3.52846">
        <ele>187</ele>
        <time>2019-04-01T13:49:20Z</time>
      </trkpt>
      <trkpt lat="47.80732" lon="3.5285">
        <ele>186</ele>
        <time>2019-04-01T13:49:22Z</time>
      </trkpt>
      <trkpt lat="47.80731" lon="3.52858">
        <ele>187</ele>
        <time>2019-04-01T13:49:26Z</time>
      </trkpt>
      <trkpt lat="47.80731" lon="3.52862">
        <ele>188</ele>
        <time>2019-04-01T13:49:28Z</time>
      </trkpt>
      <trkpt lat="47.80731" lon="3.52867">
        <ele>189</ele>
        <time>2019-04-01T13:49:31Z</time>
      </trkpt>
      <trkpt lat="47.8073" lon="3.5287">
        <ele>189</ele>
        <time>2019-04-01T13:49:33Z</time>
      </trkpt>
      <trkpt lat="47.80729" lon="3.52877">
        <ele>191</ele>
        <time>2019-04-01T13:49:37Z</time>
      </trkpt>
      <trkpt lat="47.80729" lon="3.52885">
        <ele>190</ele>
        <time>2019-04-01T13:49:41Z</time>
      </trkpt>
      <trkpt lat="47.80727" lon="3.52893">
        <ele>190</ele>
        <time>2019-04-01T13:49:45Z</time>
      </trkpt>
      <trkpt lat="47.80727" lon="3.529">
        <ele>190</ele>
        <time>2019-04-01T13:49:49Z</time>
      </trkpt>
      <trkpt lat="47.80727" lon="3.52906">
        <ele>190</ele>
        <time>2019-04-01T13:49:52Z</time>
      </trkpt>
      <trkpt lat="47.80726" lon="3.5291">
        <ele>190</ele>
        <time>2019-04-01T13:49:54Z</time>
      </trkpt>
      <trkpt lat="47.80726" lon="3.52913">
        <ele>190</ele>
        <time>2019-04-01T13:49:56Z</time>
      </trkpt>
      <trkpt lat="47.80724" lon="3.5292">
        <ele>191</ele>
        <time>2019-04-01T13:49:59Z</time>
      </trkpt>
      <trkpt lat="47.80723" lon="3.52928">
        <ele>191</ele>
        <time>2019-04-01T13:50:04Z</time>
      </trkpt>
      <trkpt lat="47.8072" lon="3.52934">
        <ele>190</ele>
        <time>2019-04-01T13:50:08Z</time>
      </trkpt>
      <trkpt lat="47.80719" lon="3.52941">
        <ele>190</ele>
        <time>2019-04-01T13:50:11Z</time>
      </trkpt>
      <trkpt lat="47.80718" lon="3.52952">
        <ele>192</ele>
        <time>2019-04-01T13:50:16Z</time>
      </trkpt>
      <trkpt lat="47.80716" lon="3.52958">
        <ele>192</ele>
        <time>2019-04-01T13:50:20Z</time>
      </trkpt>
      <trkpt lat="47.80715" lon="3.52964">
        <ele>192</ele>
        <time>2019-04-01T13:50:24Z</time>
      </trkpt>
      <trkpt lat="47.80711" lon="3.5297">
        <ele>192</ele>
        <time>2019-04-01T13:50:27Z</time>
      </trkpt>
      <trkpt lat="47.80708" lon="3.52977">
        <ele>193</ele>
        <time>2019-04-01T13:50:31Z</time>
      </trkpt>
      <trkpt lat="47.80707" lon="3.52985">
        <ele>195</ele>
        <time>2019-04-01T13:50:35Z</time>
      </trkpt>
      <trkpt lat="47.80705" lon="3.5299">
        <ele>194</ele>
        <time>2019-04-01T13:50:37Z</time>
      </trkpt>
      <trkpt lat="47.80703" lon="3.52997">
        <ele>194</ele>
        <time>2019-04-01T13:50:41Z</time>
      </trkpt>
      <trkpt lat="47.80701" lon="3.53002">
        <ele>195</ele>
        <time>2019-04-01T13:50:44Z</time>
      </trkpt>
      <trkpt lat="47.80696" lon="3.5301">
        <ele>195</ele>
        <time>2019-04-01T13:50:50Z</time>
      </trkpt>
      <trkpt lat="47.80693" lon="3.53014">
        <ele>194</ele>
        <time>2019-04-01T13:50:53Z</time>
      </trkpt>
      <trkpt lat="47.8069" lon="3.53021">
        <ele>195</ele>
        <time>2019-04-01T13:50:57Z</time>
      </trkpt>
      <trkpt lat="47.80685" lon="3.53027">
        <ele>194</ele>
        <time>2019-04-01T13:51:03Z</time>
      </trkpt>
      <trkpt lat="47.80686" lon="3.53035">
        <ele>195</ele>
        <time>2019-04-01T13:51:07Z</time>
      </trkpt>
      <trkpt lat="47.80682" lon="3.53041">
        <ele>197</ele>
        <time>2019-04-01T13:51:11Z</time>
      </trkpt>
      <trkpt lat="47.80678" lon="3.53045">
        <ele>198</ele>
        <time>2019-04-01T13:51:15Z</time>
      </trkpt>
      <trkpt lat="47.80675" lon="3.53054">
        <ele>198</ele>
        <time>2019-04-01T13:51:19Z</time>
      </trkpt>
      <trkpt lat="47.80673" lon="3.53059">
        <ele>198</ele>
        <time>2019-04-01T13:51:22Z</time>
      </trkpt>
      <trkpt lat="47.80671" lon="3.53063">
        <ele>198</ele>
        <time>2019-04-01T13:51:24Z</time>
      </trkpt>
      <trkpt lat="47.80669" lon="3.53066">
        <ele>199</ele>
        <time>2019-04-01T13:51:26Z</time>
      </trkpt>
      <trkpt lat="47.80665" lon="3.5307">
        <ele>198</ele>
        <time>2019-04-01T13:51:29Z</time>
      </trkpt>
      <trkpt lat="47.8066" lon="3.53075">
        <ele>197</ele>
        <time>2019-04-01T13:51:33Z</time>
      </trkpt>
      <trkpt lat="47.80657" lon="3.53083">
        <ele>197</ele>
        <time>2019-04-01T13:51:38Z</time>
      </trkpt>
      <trkpt lat="47.8066" lon="3.53089">
        <ele>197</ele>
        <time>2019-04-01T13:51:42Z</time>
      </trkpt>
      <trkpt lat="47.80663" lon="3.53095">
        <ele>197</ele>
        <time>2019-04-01T13:51:45Z</time>
      </trkpt>
      <trkpt lat="47.80667" lon="3.53101">
        <ele>197</ele>
        <time>2019-04-01T13:51:49Z</time>
      </trkpt>
      <trkpt lat="47.8067" lon="3.53105">
        <ele>196</ele>
        <time>2019-04-01T13:51:52Z</time>
      </trkpt>
      <trkpt lat="47.80672" lon="3.53107">
        <ele>196</ele>
        <time>2019-04-01T13:51:54Z</time>
      </trkpt>
      <trkpt lat="47.80675" lon="3.53113">
        <ele>197</ele>
        <time>2019-04-01T13:51:58Z</time>
      </trkpt>
      <trkpt lat="47.80677" lon="3.5312">
        <ele>196</ele>
        <time>2019-04-01T13:52:02Z</time>
      </trkpt>
      <trkpt lat="47.8068" lon="3.53125">
        <ele>196</ele>
        <time>2019-04-01T13:52:07Z</time>
      </trkpt>
      <trkpt lat="47.80681" lon="3.53132">
        <ele>197</ele>
        <time>2019-04-01T13:52:11Z</time>
      </trkpt>
      <trkpt lat="47.8068" lon="3.5314">
        <ele>198</ele>
        <time>2019-04-01T13:52:15Z</time>
      </trkpt>
      <trkpt lat="47.8068" lon="3.53145">
        <ele>198</ele>
        <time>2019-04-01T13:52:17Z</time>
      </trkpt>
      <trkpt lat="47.80679" lon="3.5315">
        <ele>198</ele>
        <time>2019-04-01T13:52:20Z</time>
      </trkpt>
      <trkpt lat="47.80678" lon="3.53157">
        <ele>198</ele>
        <time>2019-04-01T13:52:24Z</time>
      </trkpt>
      <trkpt lat="47.80675" lon="3.53163">
        <ele>199</ele>
        <time>2019-04-01T13:52:28Z</time>
      </trkpt>
      <trkpt lat="47.80672" lon="3.53167">
        <ele>200</ele>
        <time>2019-04-01T13:52:31Z</time>
      </trkpt>
      <trkpt lat="47.80671" lon="3.53173">
        <ele>203</ele>
        <time>2019-04-01T13:52:36Z</time>
      </trkpt>
      <trkpt lat="47.80667" lon="3.53178">
        <ele>203</ele>
        <time>2019-04-01T13:52:39Z</time>
      </trkpt>
      <trkpt lat="47.80665" lon="3.53181">
        <ele>203</ele>
        <time>2019-04-01T13:52:42Z</time>
      </trkpt>
      <trkpt lat="47.80663" lon="3.53188">
        <ele>202</ele>
        <time>2019-04-01T13:52:45Z</time>
      </trkpt>
      <trkpt lat="47.80661" lon="3.53192">
        <ele>202</ele>
        <time>2019-04-01T13:52:47Z</time>
      </trkpt>
      <trkpt lat="47.80656" lon="3.53199">
        <ele>201</ele>
        <time>2019-04-01T13:52:52Z</time>
      </trkpt>
      <trkpt lat="47.80653" lon="3.53208">
        <ele>203</ele>
        <time>2019-04-01T13:52:57Z</time>
      </trkpt>
      <trkpt lat="47.8065" lon="3.53217">
        <ele>203</ele>
        <time>2019-04-01T13:53:02Z</time>
      </trkpt>
      <trkpt lat="47.80648" lon="3.53225">
        <ele>202</ele>
        <time>2019-04-01T13:53:07Z</time>
      </trkpt>
      <trkpt lat="47.80644" lon="3.5323">
        <ele>202</ele>
        <time>2019-04-01T13:53:10Z</time>
      </trkpt>
      <trkpt lat="47.80639" lon="3.53232">
        <ele>201</ele>
        <time>2019-04-01T13:53:13Z</time>
      </trkpt>
      <trkpt lat="47.80635" lon="3.53239">
        <ele>201</ele>
        <time>2019-04-01T13:53:17Z</time>
      </trkpt>
      <trkpt lat="47.80634" lon="3.53245">
        <ele>200</ele>
        <time>2019-04-01T13:53:21Z</time>
      </trkpt>
      <trkpt lat="47.80637" lon="3.53253">
        <ele>201</ele>
        <time>2019-04-01T13:53:25Z</time>
      </trkpt>
      <trkpt lat="47.8064" lon="3.53259">
        <ele>202</ele>
        <time>2019-04-01T13:53:29Z</time>
      </trkpt>
      <trkpt lat="47.80643" lon="3.53266">
        <ele>202</ele>
        <time>2019-04-01T13:53:33Z</time>
      </trkpt>
      <trkpt lat="47.80645" lon="3.53271">
        <ele>202</ele>
        <time>2019-04-01T13:53:35Z</time>
      </trkpt>
      <trkpt lat="47.80647" lon="3.53277">
        <ele>202</ele>
        <time>2019-04-01T13:53:38Z</time>
      </trkpt>
      <trkpt lat="47.80648" lon="3.53281">
        <ele>202</ele>
        <time>2019-04-01T13:53:40Z</time>
      </trkpt>
      <trkpt lat="47.80649" lon="3.53284">
        <ele>202</ele>
        <time>2019-04-01T13:53:42Z</time>
      </trkpt>
      <trkpt lat="47.80651" lon="3.53289">
        <ele>202</ele>
        <time>2019-04-01T13:53:45Z</time>
      </trkpt>
      <trkpt lat="47.80651" lon="3.53297">
        <ele>203</ele>
        <time>2019-04-01T13:53:49Z</time>
      </trkpt>
      <trkpt lat="47.8065" lon="3.53301">
        <ele>203</ele>
        <time>2019-04-01T13:53:51Z</time>
      </trkpt>
      <trkpt lat="47.80649" lon="3.53309">
        <ele>203</ele>
        <time>2019-04-01T13:53:57Z</time>
      </trkpt>
      <trkpt lat="47.80649" lon="3.53313">
        <ele>203</ele>
        <time>2019-04-01T13:53:59Z</time>
      </trkpt>
      <trkpt lat="47.80647" lon="3.53322">
        <ele>203</ele>
        <time>2019-04-01T13:54:04Z</time>
      </trkpt>
      <trkpt lat="47.80645" lon="3.53327">
        <ele>204</ele>
        <time>2019-04-01T13:54:07Z</time>
      </trkpt>
      <trkpt lat="47.80644" lon="3.5333">
        <ele>204</ele>
        <time>2019-04-01T13:54:09Z</time>
      </trkpt>
      <trkpt lat="47.80641" lon="3.53337">
        <ele>204</ele>
        <time>2019-04-01T13:54:13Z</time>
      </trkpt>
      <trkpt lat="47.80638" lon="3.53341">
        <ele>205</ele>
        <time>2019-04-01T13:54:16Z</time>
      </trkpt>
      <trkpt lat="47.80635" lon="3.53345">
        <ele>205</ele>
        <time>2019-04-01T13:54:20Z</time>
      </trkpt>
      <trkpt lat="47.80632" lon="3.5335">
        <ele>205</ele>
        <time>2019-04-01T13:54:23Z</time>
      </trkpt>
      <trkpt lat="47.80627" lon="3.53356">
        <ele>206</ele>
        <time>2019-04-01T13:54:29Z</time>
      </trkpt>
      <trkpt lat="47.80627" lon="3.53357">
        <ele>206</ele>
        <time>2019-04-01T13:54:41Z</time>
      </trkpt>
      <trkpt lat="47.80622" lon="3.53357">
        <ele>204</ele>
        <time>2019-04-01T13:55:17Z</time>
      </trkpt>
      <trkpt lat="47.80617" lon="3.53358">
        <ele>203</ele>
        <time>2019-04-01T13:55:23Z</time>
      </trkpt>
      <trkpt lat="47.80612" lon="3.53365">
        <ele>207</ele>
        <time>2019-04-01T13:55:30Z</time>
      </trkpt>
      <trkpt lat="47.80609" lon="3.53371">
        <ele>208</ele>
        <time>2019-04-01T13:55:34Z</time>
      </trkpt>
      <trkpt lat="47.80607" lon="3.53378">
        <ele>209</ele>
        <time>2019-04-01T13:55:40Z</time>
      </trkpt>
      <trkpt lat="47.80605" lon="3.53385">
        <ele>207</ele>
        <time>2019-04-01T13:55:45Z</time>
      </trkpt>
      <trkpt lat="47.80604" lon="3.53388">
        <ele>207</ele>
        <time>2019-04-01T13:55:47Z</time>
      </trkpt>
      <trkpt lat="47.80602" lon="3.53395">
        <ele>207</ele>
        <time>2019-04-01T13:55:51Z</time>
      </trkpt>
      <trkpt lat="47.80601" lon="3.53403">
        <ele>207</ele>
        <time>2019-04-01T13:55:56Z</time>
      </trkpt>
      <trkpt lat="47.806" lon="3.53407">
        <ele>207</ele>
        <time>2019-04-01T13:55:58Z</time>
      </trkpt>
      <trkpt lat="47.80596" lon="3.53415">
        <ele>207</ele>
        <time>2019-04-01T13:56:03Z</time>
      </trkpt>
      <trkpt lat="47.80594" lon="3.53417">
        <ele>207</ele>
        <time>2019-04-01T13:56:05Z</time>
      </trkpt>
      <trkpt lat="47.80591" lon="3.53424">
        <ele>207</ele>
        <time>2019-04-01T13:56:09Z</time>
      </trkpt>
      <trkpt lat="47.8059" lon="3.53433">
        <ele>208</ele>
        <time>2019-04-01T13:56:14Z</time>
      </trkpt>
      <trkpt lat="47.80589" lon="3.5344">
        <ele>207</ele>
        <time>2019-04-01T13:56:18Z</time>
      </trkpt>
      <trkpt lat="47.80588" lon="3.53448">
        <ele>206</ele>
        <time>2019-04-01T13:56:22Z</time>
      </trkpt>
      <trkpt lat="47.80585" lon="3.53456">
        <ele>208</ele>
        <time>2019-04-01T13:56:27Z</time>
      </trkpt>
      <trkpt lat="47.80583" lon="3.53463">
        <ele>208</ele>
        <time>2019-04-01T13:56:31Z</time>
      </trkpt>
      <trkpt lat="47.80582" lon="3.53466">
        <ele>208</ele>
        <time>2019-04-01T13:56:33Z</time>
      </trkpt>
      <trkpt lat="47.80581" lon="3.5347">
        <ele>208</ele>
        <time>2019-04-01T13:56:35Z</time>
      </trkpt>
      <trkpt lat="47.8058" lon="3.53474">
        <ele>208</ele>
        <time>2019-04-01T13:56:37Z</time>
      </trkpt>
      <trkpt lat="47.80577" lon="3.5348">
        <ele>207</ele>
        <time>2019-04-01T13:56:42Z</time>
      </trkpt>
      <trkpt lat="47.80575" lon="3.53483">
        <ele>208</ele>
        <time>2019-04-01T13:56:45Z</time>
      </trkpt>
      <trkpt lat="47.80574" lon="3.53487">
        <ele>208</ele>
        <time>2019-04-01T13:56:47Z</time>
      </trkpt>
      <trkpt lat="47.80572" lon="3.53495">
        <ele>209</ele>
        <time>2019-04-01T13:56:52Z</time>
      </trkpt>
      <trkpt lat="47.80572" lon="3.53499">
        <ele>210</ele>
        <time>2019-04-01T13:56:54Z</time>
      </trkpt>
      <trkpt lat="47.80571" lon="3.53502">
        <ele>209</ele>
        <time>2019-04-01T13:56:56Z</time>
      </trkpt>
      <trkpt lat="47.8057" lon="3.53506">
        <ele>209</ele>
        <time>2019-04-01T13:56:58Z</time>
      </trkpt>
      <trkpt lat="47.80569" lon="3.5351">
        <ele>210</ele>
        <time>2019-04-01T13:57:00Z</time>
      </trkpt>
      <trkpt lat="47.80568" lon="3.53514">
        <ele>211</ele>
        <time>2019-04-01T13:57:02Z</time>
      </trkpt>
      <trkpt lat="47.80566" lon="3.53521">
        <ele>211</ele>
        <time>2019-04-01T13:57:06Z</time>
      </trkpt>
      <trkpt lat="47.80564" lon="3.53524">
        <ele>211</ele>
        <time>2019-04-01T13:57:08Z</time>
      </trkpt>
      <trkpt lat="47.8056" lon="3.5353">
        <ele>210</ele>
        <time>2019-04-01T13:57:12Z</time>
      </trkpt>
      <trkpt lat="47.80559" lon="3.53533">
        <ele>209</ele>
        <time>2019-04-01T13:57:14Z</time>
      </trkpt>
      <trkpt lat="47.80556" lon="3.53538">
        <ele>209</ele>
        <time>2019-04-01T13:57:17Z</time>
      </trkpt>
      <trkpt lat="47.80553" lon="3.53542">
        <ele>210</ele>
        <time>2019-04-01T13:57:20Z</time>
      </trkpt>
      <trkpt lat="47.80551" lon="3.53546">
        <ele>210</ele>
        <time>2019-04-01T13:57:23Z</time>
      </trkpt>
      <trkpt lat="47.80548" lon="3.5355">
        <ele>211</ele>
        <time>2019-04-01T13:57:26Z</time>
      </trkpt>
      <trkpt lat="47.80545" lon="3.53554">
        <ele>211</ele>
        <time>2019-04-01T13:57:29Z</time>
      </trkpt>
      <trkpt lat="47.80543" lon="3.53556">
        <ele>211</ele>
        <time>2019-04-01T13:57:31Z</time>
      </trkpt>
      <trkpt lat="47.80539" lon="3.53562">
        <ele>212</ele>
        <time>2019-04-01T13:57:36Z</time>
      </trkpt>
      <trkpt lat="47.80536" lon="3.53566">
        <ele>212</ele>
        <time>2019-04-01T13:57:39Z</time>
      </trkpt>
      <trkpt lat="47.8053" lon="3.53573">
        <ele>214</ele>
        <time>2019-04-01T13:57:44Z</time>
      </trkpt>
      <trkpt lat="47.80528" lon="3.53576">
        <ele>215</ele>
        <time>2019-04-01T13:57:46Z</time>
      </trkpt>
      <trkpt lat="47.80526" lon="3.53579">
        <ele>215</ele>
        <time>2019-04-01T13:57:48Z</time>
      </trkpt>
      <trkpt lat="47.80522" lon="3.53584">
        <ele>217</ele>
        <time>2019-04-01T13:57:52Z</time>
      </trkpt>
      <trkpt lat="47.8052" lon="3.53587">
        <ele>216</ele>
        <time>2019-04-01T13:57:55Z</time>
      </trkpt>
      <trkpt lat="47.80518" lon="3.53589">
        <ele>216</ele>
        <time>2019-04-01T13:57:57Z</time>
      </trkpt>
      <trkpt lat="47.80514" lon="3.53595">
        <ele>216</ele>
        <time>2019-04-01T13:58:01Z</time>
      </trkpt>
      <trkpt lat="47.8051" lon="3.536">
        <ele>217</ele>
        <time>2019-04-01T13:58:05Z</time>
      </trkpt>
      <trkpt lat="47.80508" lon="3.53602">
        <ele>216</ele>
        <time>2019-04-01T13:58:07Z</time>
      </trkpt>
      <trkpt lat="47.80505" lon="3.53605">
        <ele>216</ele>
        <time>2019-04-01T13:58:09Z</time>
      </trkpt>
      <trkpt lat="47.80501" lon="3.53609">
        <ele>217</ele>
        <time>2019-04-01T13:58:13Z</time>
      </trkpt>
      <trkpt lat="47.80499" lon="3.53611">
        <ele>217</ele>
        <time>2019-04-01T13:58:15Z</time>
      </trkpt>
      <trkpt lat="47.80495" lon="3.53615">
        <ele>216</ele>
        <time>2019-04-01T13:58:19Z</time>
      </trkpt>
      <trkpt lat="47.80491" lon="3.53619">
        <ele>216</ele>
        <time>2019-04-01T13:58:23Z</time>
      </trkpt>
      <trkpt lat="47.80486" lon="3.53623">
        <ele>216</ele>
        <time>2019-04-01T13:58:27Z</time>
      </trkpt>
      <trkpt lat="47.80483" lon="3.53629">
        <ele>216</ele>
        <time>2019-04-01T13:58:31Z</time>
      </trkpt>
      <trkpt lat="47.80482" lon="3.53635">
        <ele>213</ele>
        <time>2019-04-01T13:58:37Z</time>
      </trkpt>
      <trkpt lat="47.80477" lon="3.53638">
        <ele>213</ele>
        <time>2019-04-01T13:58:42Z</time>
      </trkpt>
      <trkpt lat="47.80473" lon="3.53644">
        <ele>215</ele>
        <time>2019-04-01T13:58:46Z</time>
      </trkpt>
      <trkpt lat="47.80472" lon="3.53651">
        <ele>216</ele>
        <time>2019-04-01T13:58:50Z</time>
      </trkpt>
      <trkpt lat="47.80472" lon="3.53656">
        <ele>215</ele>
        <time>2019-04-01T13:58:52Z</time>
      </trkpt>
      <trkpt lat="47.80473" lon="3.53663">
        <ele>215</ele>
        <time>2019-04-01T13:58:55Z</time>
      </trkpt>
      <trkpt lat="47.80473" lon="3.53667">
        <ele>215</ele>
        <time>2019-04-01T13:58:57Z</time>
      </trkpt>
      <trkpt lat="47.80475" lon="3.53674">
        <ele>216</ele>
        <time>2019-04-01T13:59:02Z</time>
      </trkpt>
      <trkpt lat="47.80468" lon="3.53673">
        <ele>216</ele>
        <time>2019-04-01T13:59:11Z</time>
      </trkpt>
      <trkpt lat="47.80462" lon="3.5367">
        <ele>213</ele>
        <time>2019-04-01T13:59:19Z</time>
      </trkpt>
      <trkpt lat="47.80455" lon="3.53674">
        <ele>215</ele>
        <time>2019-04-01T13:59:24Z</time>
      </trkpt>
      <trkpt lat="47.80452" lon="3.53679">
        <ele>213</ele>
        <time>2019-04-01T13:59:28Z</time>
      </trkpt>
      <trkpt lat="47.8045" lon="3.53682">
        <ele>214</ele>
        <time>2019-04-01T13:59:30Z</time>
      </trkpt>
      <trkpt lat="47.80448" lon="3.53686">
        <ele>215</ele>
        <time>2019-04-01T13:59:32Z</time>
      </trkpt>
      <trkpt lat="47.80446" lon="3.53688">
        <ele>215</ele>
        <time>2019-04-01T13:59:34Z</time>
      </trkpt>
      <trkpt lat="47.80443" lon="3.53691">
        <ele>216</ele>
        <time>2019-04-01T13:59:37Z</time>
      </trkpt>
      <trkpt lat="47.8044" lon="3.53695">
        <ele>217</ele>
        <time>2019-04-01T13:59:40Z</time>
      </trkpt>
      <trkpt lat="47.80436" lon="3.53699">
        <ele>218</ele>
        <time>2019-04-01T13:59:42Z</time>
      </trkpt>
      <trkpt lat="47.80433" lon="3.53704">
        <ele>218</ele>
        <time>2019-04-01T13:59:45Z</time>
      </trkpt>
      <trkpt lat="47.80431" lon="3.53706">
        <ele>219</ele>
        <time>2019-04-01T13:59:47Z</time>
      </trkpt>
      <trkpt lat="47.80429" lon="3.53712">
        <ele>221</ele>
        <time>2019-04-01T13:59:51Z</time>
      </trkpt>
      <trkpt lat="47.80428" lon="3.53715">
        <ele>221</ele>
        <time>2019-04-01T13:59:53Z</time>
      </trkpt>
      <trkpt lat="47.80424" lon="3.53721">
        <ele>221</ele>
        <time>2019-04-01T13:59:57Z</time>
      </trkpt>
      <trkpt lat="47.8042" lon="3.53725">
        <ele>220</ele>
        <time>2019-04-01T14:00:01Z</time>
      </trkpt>
      <trkpt lat="47.80417" lon="3.53732">
        <ele>220</ele>
        <time>2019-04-01T14:00:05Z</time>
      </trkpt>
      <trkpt lat="47.80415" lon="3.53735">
        <ele>219</ele>
        <time>2019-04-01T14:00:07Z</time>
      </trkpt>
      <trkpt lat="47.80412" lon="3.53741">
        <ele>220</ele>
        <time>2019-04-01T14:00:12Z</time>
      </trkpt>
      <trkpt lat="47.80409" lon="3.53747">
        <ele>221</ele>
        <time>2019-04-01T14:00:16Z</time>
      </trkpt>
      <trkpt lat="47.80407" lon="3.53751">
        <ele>222</ele>
        <time>2019-04-01T14:00:18Z</time>
      </trkpt>
      <trkpt lat="47.80404" lon="3.53755">
        <ele>223</ele>
        <time>2019-04-01T14:00:21Z</time>
      </trkpt>
      <trkpt lat="47.80401" lon="3.53761">
        <ele>224</ele>
        <time>2019-04-01T14:00:24Z</time>
      </trkpt>
      <trkpt lat="47.80399" lon="3.53767">
        <ele>224</ele>
        <time>2019-04-01T14:00:27Z</time>
      </trkpt>
      <trkpt lat="47.80398" lon="3.53772">
        <ele>224</ele>
        <time>2019-04-01T14:00:29Z</time>
      </trkpt>
      <trkpt lat="47.80397" lon="3.53776">
        <ele>224</ele>
        <time>2019-04-01T14:00:31Z</time>
      </trkpt>
      <trkpt lat="47.80396" lon="3.53779">
        <ele>224</ele>
        <time>2019-04-01T14:00:33Z</time>
      </trkpt>
      <trkpt lat="47.80393" lon="3.53785">
        <ele>224</ele>
        <time>2019-04-01T14:00:36Z</time>
      </trkpt>
      <trkpt lat="47.8039" lon="3.53791">
        <ele>224</ele>
        <time>2019-04-01T14:00:40Z</time>
      </trkpt>
      <trkpt lat="47.80389" lon="3.53794">
        <ele>224</ele>
        <time>2019-04-01T14:00:42Z</time>
      </trkpt>
      <trkpt lat="47.80386" lon="3.538">
        <ele>224</ele>
        <time>2019-04-01T14:00:46Z</time>
      </trkpt>
      <trkpt lat="47.80385" lon="3.53804">
        <ele>224</ele>
        <time>2019-04-01T14:00:48Z</time>
      </trkpt>
      <trkpt lat="47.80382" lon="3.5381">
        <ele>224</ele>
        <time>2019-04-01T14:00:51Z</time>
      </trkpt>
      <trkpt lat="47.8038" lon="3.53815">
        <ele>224</ele>
        <time>2019-04-01T14:00:54Z</time>
      </trkpt>
      <trkpt lat="47.80377" lon="3.5382">
        <ele>225</ele>
        <time>2019-04-01T14:00:58Z</time>
      </trkpt>
      <trkpt lat="47.80373" lon="3.53825">
        <ele>225</ele>
        <time>2019-04-01T14:01:02Z</time>
      </trkpt>
      <trkpt lat="47.80371" lon="3.53832">
        <ele>224</ele>
        <time>2019-04-01T14:01:06Z</time>
      </trkpt>
      <trkpt lat="47.80369" lon="3.53837">
        <ele>225</ele>
        <time>2019-04-01T14:01:09Z</time>
      </trkpt>
      <trkpt lat="47.80366" lon="3.53844">
        <ele>224</ele>
        <time>2019-04-01T14:01:13Z</time>
      </trkpt>
      <trkpt lat="47.80364" lon="3.53851">
        <ele>224</ele>
        <time>2019-04-01T14:01:16Z</time>
      </trkpt>
      <trkpt lat="47.80364" lon="3.53855">
        <ele>223</ele>
        <time>2019-04-01T14:01:18Z</time>
      </trkpt>
      <trkpt lat="47.8036" lon="3.53862">
        <ele>223</ele>
        <time>2019-04-01T14:01:22Z</time>
      </trkpt>
      <trkpt lat="47.80359" lon="3.53865">
        <ele>224</ele>
        <time>2019-04-01T14:01:24Z</time>
      </trkpt>
      <trkpt lat="47.80356" lon="3.5387">
        <ele>224</ele>
        <time>2019-04-01T14:01:28Z</time>
      </trkpt>
      <trkpt lat="47.80353" lon="3.53874">
        <ele>225</ele>
        <time>2019-04-01T14:01:31Z</time>
      </trkpt>
      <trkpt lat="47.80351" lon="3.5388">
        <ele>224</ele>
        <time>2019-04-01T14:01:34Z</time>
      </trkpt>
      <trkpt lat="47.80347" lon="3.53886">
        <ele>226</ele>
        <time>2019-04-01T14:01:38Z</time>
      </trkpt>
      <trkpt lat="47.80344" lon="3.5389">
        <ele>227</ele>
        <time>2019-04-01T14:01:41Z</time>
      </trkpt>
      <trkpt lat="47.8034" lon="3.53894">
        <ele>228</ele>
        <time>2019-04-01T14:01:44Z</time>
      </trkpt>
      <trkpt lat="47.80338" lon="3.53898">
        <ele>227</ele>
        <time>2019-04-01T14:01:46Z</time>
      </trkpt>
      <trkpt lat="47.80335" lon="3.53903">
        <ele>228</ele>
        <time>2019-04-01T14:01:50Z</time>
      </trkpt>
      <trkpt lat="47.80332" lon="3.53909">
        <ele>231</ele>
        <time>2019-04-01T14:01:55Z</time>
      </trkpt>
      <trkpt lat="47.80327" lon="3.53916">
        <ele>232</ele>
        <time>2019-04-01T14:02:00Z</time>
      </trkpt>
      <trkpt lat="47.80325" lon="3.53919">
        <ele>233</ele>
        <time>2019-04-01T14:02:02Z</time>
      </trkpt>
      <trkpt lat="47.80323" lon="3.53925">
        <ele>233</ele>
        <time>2019-04-01T14:02:06Z</time>
      </trkpt>
      <trkpt lat="47.8032" lon="3.5393">
        <ele>231</ele>
        <time>2019-04-01T14:02:09Z</time>
      </trkpt>
      <trkpt lat="47.80316" lon="3.53936">
        <ele>229</ele>
        <time>2019-04-01T14:02:12Z</time>
      </trkpt>
      <trkpt lat="47.80312" lon="3.53944">
        <ele>227</ele>
        <time>2019-04-01T14:02:16Z</time>
      </trkpt>
      <trkpt lat="47.80309" lon="3.53952">
        <ele>226</ele>
        <time>2019-04-01T14:02:20Z</time>
      </trkpt>
      <trkpt lat="47.80308" lon="3.53955">
        <ele>227</ele>
        <time>2019-04-01T14:02:22Z</time>
      </trkpt>
      <trkpt lat="47.80306" lon="3.53958">
        <ele>227</ele>
        <time>2019-04-01T14:02:24Z</time>
      </trkpt>
      <trkpt lat="47.80303" lon="3.53964">
        <ele>226</ele>
        <time>2019-04-01T14:02:28Z</time>
      </trkpt>
      <trkpt lat="47.80299" lon="3.53968">
        <ele>224</ele>
        <time>2019-04-01T14:02:32Z</time>
      </trkpt>
      <trkpt lat="47.80296" lon="3.53971">
        <ele>224</ele>
        <time>2019-04-01T14:02:34Z</time>
      </trkpt>
      <trkpt lat="47.80293" lon="3.53976">
        <ele>225</ele>
        <time>2019-04-01T14:02:37Z</time>
      </trkpt>
      <trkpt lat="47.80289" lon="3.5398">
        <ele>226</ele>
        <time>2019-04-01T14:02:41Z</time>
      </trkpt>
      <trkpt lat="47.80287" lon="3.53987">
        <ele>226</ele>
        <time>2019-04-01T14:02:45Z</time>
      </trkpt>
      <trkpt lat="47.80284" lon="3.53992">
        <ele>226</ele>
        <time>2019-04-01T14:02:48Z</time>
      </trkpt>
      <trkpt lat="47.80283" lon="3.53998">
        <ele>228</ele>
        <time>2019-04-01T14:02:52Z</time>
      </trkpt>
      <trkpt lat="47.80279" lon="3.54003">
        <ele>230</ele>
        <time>2019-04-01T14:02:56Z</time>
      </trkpt>
      <trkpt lat="47.80275" lon="3.54007">
        <ele>231</ele>
        <time>2019-04-01T14:02:59Z</time>
      </trkpt>
      <trkpt lat="47.80271" lon="3.54013">
        <ele>235</ele>
        <time>2019-04-01T14:03:05Z</time>
      </trkpt>
      <trkpt lat="47.80266" lon="3.54016">
        <ele>240</ele>
        <time>2019-04-01T14:03:11Z</time>
      </trkpt>
      <trkpt lat="47.80264" lon="3.54025">
        <ele>239</ele>
        <time>2019-04-01T14:03:15Z</time>
      </trkpt>
      <trkpt lat="47.80261" lon="3.54031">
        <ele>237</ele>
        <time>2019-04-01T14:03:19Z</time>
      </trkpt>
      <trkpt lat="47.80259" lon="3.54035">
        <ele>238</ele>
        <time>2019-04-01T14:03:21Z</time>
      </trkpt>
      <trkpt lat="47.80257" lon="3.54043">
        <ele>238</ele>
        <time>2019-04-01T14:03:24Z</time>
      </trkpt>
      <trkpt lat="47.80254" lon="3.54051">
        <ele>237</ele>
        <time>2019-04-01T14:03:27Z</time>
      </trkpt>
      <trkpt lat="47.80252" lon="3.54058">
        <ele>235</ele>
        <time>2019-04-01T14:03:30Z</time>
      </trkpt>
      <trkpt lat="47.8025" lon="3.54068">
        <ele>238</ele>
        <time>2019-04-01T14:03:35Z</time>
      </trkpt>
      <trkpt lat="47.80247" lon="3.54074">
        <ele>237</ele>
        <time>2019-04-01T14:03:38Z</time>
      </trkpt>
      <trkpt lat="47.80244" lon="3.5408">
        <ele>236</ele>
        <time>2019-04-01T14:03:42Z</time>
      </trkpt>
      <trkpt lat="47.8024" lon="3.54087">
        <ele>237</ele>
        <time>2019-04-01T14:03:46Z</time>
      </trkpt>
      <trkpt lat="47.80238" lon="3.54093">
        <ele>237</ele>
        <time>2019-04-01T14:03:50Z</time>
      </trkpt>
      <trkpt lat="47.80237" lon="3.54097">
        <ele>237</ele>
        <time>2019-04-01T14:03:52Z</time>
      </trkpt>
      <trkpt lat="47.80236" lon="3.54101">
        <ele>237</ele>
        <time>2019-04-01T14:03:54Z</time>
      </trkpt>
      <trkpt lat="47.80233" lon="3.54111">
        <ele>235</ele>
        <time>2019-04-01T14:03:58Z</time>
      </trkpt>
      <trkpt lat="47.80232" lon="3.54116">
        <ele>236</ele>
        <time>2019-04-01T14:04:00Z</time>
      </trkpt>
      <trkpt lat="47.8023" lon="3.54124">
        <ele>233</ele>
        <time>2019-04-01T14:04:04Z</time>
      </trkpt>
      <trkpt lat="47.80229" lon="3.54127">
        <ele>234</ele>
        <time>2019-04-01T14:04:06Z</time>
      </trkpt>
      <trkpt lat="47.80228" lon="3.54131">
        <ele>233</ele>
        <time>2019-04-01T14:04:08Z</time>
      </trkpt>
      <trkpt lat="47.80224" lon="3.54135">
        <ele>231</ele>
        <time>2019-04-01T14:04:11Z</time>
      </trkpt>
      <trkpt lat="47.80221" lon="3.54142">
        <ele>229</ele>
        <time>2019-04-01T14:04:15Z</time>
      </trkpt>
      <trkpt lat="47.80219" lon="3.54149">
        <ele>229</ele>
        <time>2019-04-01T14:04:19Z</time>
      </trkpt>
      <trkpt lat="47.80218" lon="3.54157">
        <ele>232</ele>
        <time>2019-04-01T14:04:23Z</time>
      </trkpt>
      <trkpt lat="47.80217" lon="3.54161">
        <ele>232</ele>
        <time>2019-04-01T14:04:26Z</time>
      </trkpt>
      <trkpt lat="47.80214" lon="3.54167">
        <ele>235</ele>
        <time>2019-04-01T14:04:30Z</time>
      </trkpt>
      <trkpt lat="47.80213" lon="3.54176">
        <ele>236</ele>
        <time>2019-04-01T14:04:34Z</time>
      </trkpt>
      <trkpt lat="47.8021" lon="3.54184">
        <ele>235</ele>
        <time>2019-04-01T14:04:37Z</time>
      </trkpt>
      <trkpt lat="47.80209" lon="3.5419">
        <ele>234</ele>
        <time>2019-04-01T14:04:40Z</time>
      </trkpt>
      <trkpt lat="47.80208" lon="3.54195">
        <ele>235</ele>
        <time>2019-04-01T14:04:42Z</time>
      </trkpt>
      <trkpt lat="47.80208" lon="3.54202">
        <ele>235</ele>
        <time>2019-04-01T14:04:45Z</time>
      </trkpt>
      <trkpt lat="47.80206" lon="3.54208">
        <ele>234</ele>
        <time>2019-04-01T14:04:48Z</time>
      </trkpt>
      <trkpt lat="47.80205" lon="3.54214">
        <ele>234</ele>
        <time>2019-04-01T14:04:51Z</time>
      </trkpt>
      <trkpt lat="47.80204" lon="3.54218">
        <ele>234</ele>
        <time>2019-04-01T14:04:53Z</time>
      </trkpt>
      <trkpt lat="47.80201" lon="3.54226">
        <ele>234</ele>
        <time>2019-04-01T14:04:57Z</time>
      </trkpt>
      <trkpt lat="47.802" lon="3.54229">
        <ele>233</ele>
        <time>2019-04-01T14:04:59Z</time>
      </trkpt>
      <trkpt lat="47.80198" lon="3.54234">
        <ele>233</ele>
        <time>2019-04-01T14:05:01Z</time>
      </trkpt>
      <trkpt lat="47.80197" lon="3.54238">
        <ele>234</ele>
        <time>2019-04-01T14:05:03Z</time>
      </trkpt>
      <trkpt lat="47.80196" lon="3.54242">
        <ele>235</ele>
        <time>2019-04-01T14:05:06Z</time>
      </trkpt>
      <trkpt lat="47.80195" lon="3.54248">
        <ele>234</ele>
        <time>2019-04-01T14:05:09Z</time>
      </trkpt>
      <trkpt lat="47.80192" lon="3.54254">
        <ele>234</ele>
        <time>2019-04-01T14:05:12Z</time>
      </trkpt>
      <trkpt lat="47.80191" lon="3.54258">
        <ele>234</ele>
        <time>2019-04-01T14:05:14Z</time>
      </trkpt>
      <trkpt lat="47.8019" lon="3.54261">
        <ele>235</ele>
        <time>2019-04-01T14:05:16Z</time>
      </trkpt>
      <trkpt lat="47.80189" lon="3.54265">
        <ele>235</ele>
        <time>2019-04-01T14:05:18Z</time>
      </trkpt>
      <trkpt lat="47.80188" lon="3.54269">
        <ele>236</ele>
        <time>2019-04-01T14:05:20Z</time>
      </trkpt>
      <trkpt lat="47.80187" lon="3.54274">
        <ele>236</ele>
        <time>2019-04-01T14:05:22Z</time>
      </trkpt>
      <trkpt lat="47.80186" lon="3.54279">
        <ele>237</ele>
        <time>2019-04-01T14:05:25Z</time>
      </trkpt>
      <trkpt lat="47.80185" lon="3.54283">
        <ele>236</ele>
        <time>2019-04-01T14:05:27Z</time>
      </trkpt>
      <trkpt lat="47.80182" lon="3.5429">
        <ele>237</ele>
        <time>2019-04-01T14:05:31Z</time>
      </trkpt>
      <trkpt lat="47.8018" lon="3.54297">
        <ele>236</ele>
        <time>2019-04-01T14:05:35Z</time>
      </trkpt>
      <trkpt lat="47.80179" lon="3.54303">
        <ele>235</ele>
        <time>2019-04-01T14:05:38Z</time>
      </trkpt>
      <trkpt lat="47.80176" lon="3.54308">
        <ele>238</ele>
        <time>2019-04-01T14:05:43Z</time>
      </trkpt>
      <trkpt lat="47.80174" lon="3.54311">
        <ele>238</ele>
        <time>2019-04-01T14:05:45Z</time>
      </trkpt>
      <trkpt lat="47.80173" lon="3.54314">
        <ele>240</ele>
        <time>2019-04-01T14:05:47Z</time>
      </trkpt>
      <trkpt lat="47.80171" lon="3.54321">
        <ele>243</ele>
        <time>2019-04-01T14:05:51Z</time>
      </trkpt>
      <trkpt lat="47.80169" lon="3.54325">
        <ele>243</ele>
        <time>2019-04-01T14:05:53Z</time>
      </trkpt>
      <trkpt lat="47.80166" lon="3.54333">
        <ele>241</ele>
        <time>2019-04-01T14:05:57Z</time>
      </trkpt>
      <trkpt lat="47.80165" lon="3.54336">
        <ele>241</ele>
        <time>2019-04-01T14:05:59Z</time>
      </trkpt>
      <trkpt lat="47.80163" lon="3.5434">
        <ele>240</ele>
        <time>2019-04-01T14:06:01Z</time>
      </trkpt>
      <trkpt lat="47.80161" lon="3.54348">
        <ele>242</ele>
        <time>2019-04-01T14:06:06Z</time>
      </trkpt>
      <trkpt lat="47.80157" lon="3.54354">
        <ele>242</ele>
        <time>2019-04-01T14:06:11Z</time>
      </trkpt>
      <trkpt lat="47.80154" lon="3.54361">
        <ele>243</ele>
        <time>2019-04-01T14:06:15Z</time>
      </trkpt>
      <trkpt lat="47.8015" lon="3.54373">
        <ele>242</ele>
        <time>2019-04-01T14:06:21Z</time>
      </trkpt>
      <trkpt lat="47.80147" lon="3.54381">
        <ele>243</ele>
        <time>2019-04-01T14:06:25Z</time>
      </trkpt>
      <trkpt lat="47.80146" lon="3.54384">
        <ele>243</ele>
        <time>2019-04-01T14:06:27Z</time>
      </trkpt>
      <trkpt lat="47.80142" lon="3.5439">
        <ele>243</ele>
        <time>2019-04-01T14:06:31Z</time>
      </trkpt>
      <trkpt lat="47.8014" lon="3.54393">
        <ele>244</ele>
        <time>2019-04-01T14:06:33Z</time>
      </trkpt>
      <trkpt lat="47.80137" lon="3.54399">
        <ele>244</ele>
        <time>2019-04-01T14:06:36Z</time>
      </trkpt>
      <trkpt lat="47.80135" lon="3.54402">
        <ele>245</ele>
        <time>2019-04-01T14:06:38Z</time>
      </trkpt>
      <trkpt lat="47.80134" lon="3.54409">
        <ele>246</ele>
        <time>2019-04-01T14:06:41Z</time>
      </trkpt>
      <trkpt lat="47.80133" lon="3.54413">
        <ele>247</ele>
        <time>2019-04-01T14:06:43Z</time>
      </trkpt>
      <trkpt lat="47.80133" lon="3.5442">
        <ele>246</ele>
        <time>2019-04-01T14:06:46Z</time>
      </trkpt>
      <trkpt lat="47.80132" lon="3.54425">
        <ele>246</ele>
        <time>2019-04-01T14:06:48Z</time>
      </trkpt>
      <trkpt lat="47.80132" lon="3.54434">
        <ele>245</ele>
        <time>2019-04-01T14:06:51Z</time>
      </trkpt>
      <trkpt lat="47.80133" lon="3.54443">
        <ele>246</ele>
        <time>2019-04-01T14:06:54Z</time>
      </trkpt>
      <trkpt lat="47.80132" lon="3.54448">
        <ele>247</ele>
        <time>2019-04-01T14:06:56Z</time>
      </trkpt>
      <trkpt lat="47.80133" lon="3.54453">
        <ele>247</ele>
        <time>2019-04-01T14:06:58Z</time>
      </trkpt>
      <trkpt lat="47.80133" lon="3.54459">
        <ele>248</ele>
        <time>2019-04-01T14:07:00Z</time>
      </trkpt>
      <trkpt lat="47.80131" lon="3.54466">
        <ele>246</ele>
        <time>2019-04-01T14:07:04Z</time>
      </trkpt>
      <trkpt lat="47.8013" lon="3.54472">
        <ele>246</ele>
        <time>2019-04-01T14:07:07Z</time>
      </trkpt>
      <trkpt lat="47.80128" lon="3.54478">
        <ele>246</ele>
        <time>2019-04-01T14:07:10Z</time>
      </trkpt>
      <trkpt lat="47.80129" lon="3.54485">
        <ele>247</ele>
        <time>2019-04-01T14:07:13Z</time>
      </trkpt>
      <trkpt lat="47.80128" lon="3.54493">
        <ele>246</ele>
        <time>2019-04-01T14:07:16Z</time>
      </trkpt>
      <trkpt lat="47.80126" lon="3.545">
        <ele>246</ele>
        <time>2019-04-01T14:07:20Z</time>
      </trkpt>
      <trkpt lat="47.80125" lon="3.54508">
        <ele>247</ele>
        <time>2019-04-01T14:07:24Z</time>
      </trkpt>
      <trkpt lat="47.80125" lon="3.54511">
        <ele>246</ele>
        <time>2019-04-01T14:07:27Z</time>
      </trkpt>
      <trkpt lat="47.80122" lon="3.54518">
        <ele>246</ele>
        <time>2019-04-01T14:07:31Z</time>
      </trkpt>
      <trkpt lat="47.8012" lon="3.54526">
        <ele>246</ele>
        <time>2019-04-01T14:07:35Z</time>
      </trkpt>
      <trkpt lat="47.80119" lon="3.54531">
        <ele>245</ele>
        <time>2019-04-01T14:07:37Z</time>
      </trkpt>
      <trkpt lat="47.80118" lon="3.54535">
        <ele>244</ele>
        <time>2019-04-01T14:07:39Z</time>
      </trkpt>
      <trkpt lat="47.80117" lon="3.54538">
        <ele>244</ele>
        <time>2019-04-01T14:07:42Z</time>
      </trkpt>
      <trkpt lat="47.80115" lon="3.54544">
        <ele>245</ele>
        <time>2019-04-01T14:07:46Z</time>
      </trkpt>
      <trkpt lat="47.80115" lon="3.54544">
        <ele>245</ele>
        <time>2019-04-01T14:07:54Z</time>
      </trkpt>
      <trkpt lat="47.80115" lon="3.54544">
        <ele>245</ele>
        <time>2019-04-01T14:07:55Z</time>
      </trkpt>
      <trkpt lat="47.80116" lon="3.54555">
        <ele>244</ele>
        <time>2019-04-01T14:18:49Z</time>
      </trkpt>
      <trkpt lat="47.80116" lon="3.54559">
        <ele>245</ele>
        <time>2019-04-01T14:18:53Z</time>
      </trkpt>
      <trkpt lat="47.80116" lon="3.54563">
        <ele>247</ele>
        <time>2019-04-01T14:18:56Z</time>
      </trkpt>
      <trkpt lat="47.80117" lon="3.54569">
        <ele>250</ele>
        <time>2019-04-01T14:19:00Z</time>
      </trkpt>
      <trkpt lat="47.80115" lon="3.54576">
        <ele>250</ele>
        <time>2019-04-01T14:19:06Z</time>
      </trkpt>
      <trkpt lat="47.80113" lon="3.54585">
        <ele>252</ele>
        <time>2019-04-01T14:19:13Z</time>
      </trkpt>
      <trkpt lat="47.80112" lon="3.54593">
        <ele>252</ele>
        <time>2019-04-01T14:19:18Z</time>
      </trkpt>
      <trkpt lat="47.80111" lon="3.546">
        <ele>250</ele>
        <time>2019-04-01T14:19:23Z</time>
      </trkpt>
      <trkpt lat="47.80109" lon="3.54611">
        <ele>250</ele>
        <time>2019-04-01T14:19:30Z</time>
      </trkpt>
      <trkpt lat="47.80108" lon="3.54619">
        <ele>250</ele>
        <time>2019-04-01T14:19:35Z</time>
      </trkpt>
      <trkpt lat="47.80108" lon="3.54624">
        <ele>251</ele>
        <time>2019-04-01T14:19:39Z</time>
      </trkpt>
      <trkpt lat="47.80108" lon="3.54628">
        <ele>252</ele>
        <time>2019-04-01T14:19:42Z</time>
      </trkpt>
      <trkpt lat="47.80109" lon="3.54636">
        <ele>250</ele>
        <time>2019-04-01T14:19:47Z</time>
      </trkpt>
      <trkpt lat="47.80108" lon="3.54644">
        <ele>249</ele>
        <time>2019-04-01T14:19:51Z</time>
      </trkpt>
      <trkpt lat="47.80109" lon="3.54651">
        <ele>249</ele>
        <time>2019-04-01T14:19:56Z</time>
      </trkpt>
      <trkpt lat="47.80108" lon="3.5466">
        <ele>250</ele>
        <time>2019-04-01T14:20:02Z</time>
      </trkpt>
      <trkpt lat="47.80108" lon="3.54663">
        <ele>251</ele>
        <time>2019-04-01T14:20:04Z</time>
      </trkpt>
      <trkpt lat="47.80106" lon="3.54671">
        <ele>251</ele>
        <time>2019-04-01T14:20:09Z</time>
      </trkpt>
      <trkpt lat="47.80105" lon="3.54677">
        <ele>251</ele>
        <time>2019-04-01T14:20:13Z</time>
      </trkpt>
      <trkpt lat="47.80105" lon="3.54682">
        <ele>251</ele>
        <time>2019-04-01T14:20:16Z</time>
      </trkpt>
      <trkpt lat="47.80105" lon="3.5469">
        <ele>252</ele>
        <time>2019-04-01T14:20:20Z</time>
      </trkpt>
      <trkpt lat="47.80104" lon="3.54698">
        <ele>252</ele>
        <time>2019-04-01T14:20:25Z</time>
      </trkpt>
      <trkpt lat="47.80102" lon="3.54703">
        <ele>252</ele>
        <time>2019-04-01T14:20:28Z</time>
      </trkpt>
      <trkpt lat="47.80101" lon="3.54709">
        <ele>253</ele>
        <time>2019-04-01T14:20:33Z</time>
      </trkpt>
      <trkpt lat="47.80098" lon="3.54717">
        <ele>253</ele>
        <time>2019-04-01T14:20:38Z</time>
      </trkpt>
      <trkpt lat="47.80097" lon="3.54725">
        <ele>253</ele>
        <time>2019-04-01T14:20:42Z</time>
      </trkpt>
      <trkpt lat="47.80096" lon="3.54731">
        <ele>251</ele>
        <time>2019-04-01T14:20:46Z</time>
      </trkpt>
      <trkpt lat="47.80095" lon="3.54735">
        <ele>249</ele>
        <time>2019-04-01T14:20:49Z</time>
      </trkpt>
      <trkpt lat="47.80094" lon="3.54743">
        <ele>250</ele>
        <time>2019-04-01T14:20:54Z</time>
      </trkpt>
      <trkpt lat="47.80092" lon="3.54749">
        <ele>249</ele>
        <time>2019-04-01T14:20:57Z</time>
      </trkpt>
      <trkpt lat="47.80092" lon="3.54756">
        <ele>248</ele>
        <time>2019-04-01T14:21:00Z</time>
      </trkpt>
      <trkpt lat="47.80089" lon="3.54762">
        <ele>247</ele>
        <time>2019-04-01T14:21:04Z</time>
      </trkpt>
      <trkpt lat="47.80087" lon="3.54769">
        <ele>247</ele>
        <time>2019-04-01T14:21:08Z</time>
      </trkpt>
      <trkpt lat="47.80086" lon="3.54774">
        <ele>246</ele>
        <time>2019-04-01T14:21:10Z</time>
      </trkpt>
      <trkpt lat="47.80085" lon="3.54779">
        <ele>246</ele>
        <time>2019-04-01T14:21:13Z</time>
      </trkpt>
      <trkpt lat="47.80081" lon="3.54787">
        <ele>245</ele>
        <time>2019-04-01T14:21:17Z</time>
      </trkpt>
      <trkpt lat="47.8008" lon="3.54793">
        <ele>244</ele>
        <time>2019-04-01T14:21:21Z</time>
      </trkpt>
      <trkpt lat="47.80077" lon="3.54799">
        <ele>244</ele>
        <time>2019-04-01T14:21:25Z</time>
      </trkpt>
      <trkpt lat="47.80073" lon="3.54805">
        <ele>245</ele>
        <time>2019-04-01T14:21:32Z</time>
      </trkpt>
      <trkpt lat="47.80069" lon="3.54808">
        <ele>248</ele>
        <time>2019-04-01T14:21:36Z</time>
      </trkpt>
      <trkpt lat="47.80066" lon="3.54817">
        <ele>248</ele>
        <time>2019-04-01T14:21:41Z</time>
      </trkpt>
      <trkpt lat="47.80064" lon="3.54821">
        <ele>249</ele>
        <time>2019-04-01T14:21:44Z</time>
      </trkpt>
      <trkpt lat="47.80062" lon="3.54829">
        <ele>250</ele>
        <time>2019-04-01T14:21:48Z</time>
      </trkpt>
      <trkpt lat="47.8006" lon="3.54835">
        <ele>250</ele>
        <time>2019-04-01T14:21:51Z</time>
      </trkpt>
      <trkpt lat="47.80058" lon="3.54843">
        <ele>249</ele>
        <time>2019-04-01T14:21:56Z</time>
      </trkpt>
      <trkpt lat="47.80057" lon="3.54847">
        <ele>248</ele>
        <time>2019-04-01T14:21:58Z</time>
      </trkpt>
      <trkpt lat="47.80056" lon="3.54851">
        <ele>248</ele>
        <time>2019-04-01T14:22:00Z</time>
      </trkpt>
      <trkpt lat="47.80054" lon="3.54856">
        <ele>247</ele>
        <time>2019-04-01T14:22:02Z</time>
      </trkpt>
      <trkpt lat="47.80053" lon="3.5486">
        <ele>247</ele>
        <time>2019-04-01T14:22:04Z</time>
      </trkpt>
      <trkpt lat="47.80051" lon="3.54866">
        <ele>245</ele>
        <time>2019-04-01T14:22:08Z</time>
      </trkpt>
      <trkpt lat="47.80049" lon="3.54873">
        <ele>245</ele>
        <time>2019-04-01T14:22:12Z</time>
      </trkpt>
      <trkpt lat="47.80048" lon="3.54876">
        <ele>244</ele>
        <time>2019-04-01T14:22:14Z</time>
      </trkpt>
      <trkpt lat="47.80047" lon="3.54883">
        <ele>244</ele>
        <time>2019-04-01T14:22:18Z</time>
      </trkpt>
      <trkpt lat="47.80044" lon="3.5489">
        <ele>243</ele>
        <time>2019-04-01T14:22:23Z</time>
      </trkpt>
      <trkpt lat="47.8004" lon="3.54898">
        <ele>243</ele>
        <time>2019-04-01T14:22:28Z</time>
      </trkpt>
      <trkpt lat="47.80038" lon="3.54904">
        <ele>242</ele>
        <time>2019-04-01T14:22:31Z</time>
      </trkpt>
      <trkpt lat="47.80037" lon="3.54907">
        <ele>242</ele>
        <time>2019-04-01T14:22:33Z</time>
      </trkpt>
      <trkpt lat="47.80036" lon="3.54911">
        <ele>242</ele>
        <time>2019-04-01T14:22:35Z</time>
      </trkpt>
      <trkpt lat="47.80034" lon="3.54914">
        <ele>241</ele>
        <time>2019-04-01T14:22:37Z</time>
      </trkpt>
      <trkpt lat="47.80033" lon="3.54923">
        <ele>239</ele>
        <time>2019-04-01T14:22:42Z</time>
      </trkpt>
      <trkpt lat="47.80033" lon="3.54933">
        <ele>240</ele>
        <time>2019-04-01T14:22:48Z</time>
      </trkpt>
      <trkpt lat="47.80033" lon="3.54942">
        <ele>239</ele>
        <time>2019-04-01T14:22:52Z</time>
      </trkpt>
      <trkpt lat="47.80033" lon="3.54947">
        <ele>239</ele>
        <time>2019-04-01T14:22:55Z</time>
      </trkpt>
      <trkpt lat="47.80033" lon="3.54953">
        <ele>237</ele>
        <time>2019-04-01T14:22:58Z</time>
      </trkpt>
      <trkpt lat="47.80033" lon="3.5496">
        <ele>236</ele>
        <time>2019-04-01T14:23:02Z</time>
      </trkpt>
      <trkpt lat="47.80034" lon="3.54966">
        <ele>237</ele>
        <time>2019-04-01T14:23:05Z</time>
      </trkpt>
      <trkpt lat="47.80033" lon="3.54973">
        <ele>237</ele>
        <time>2019-04-01T14:23:09Z</time>
      </trkpt>
      <trkpt lat="47.80032" lon="3.54981">
        <ele>237</ele>
        <time>2019-04-01T14:23:13Z</time>
      </trkpt>
      <trkpt lat="47.80032" lon="3.54985">
        <ele>237</ele>
        <time>2019-04-01T14:23:15Z</time>
      </trkpt>
      <trkpt lat="47.80031" lon="3.54993">
        <ele>236</ele>
        <time>2019-04-01T14:23:19Z</time>
      </trkpt>
      <trkpt lat="47.80031" lon="3.54997">
        <ele>236</ele>
        <time>2019-04-01T14:23:21Z</time>
      </trkpt>
      <trkpt lat="47.80031" lon="3.55003">
        <ele>236</ele>
        <time>2019-04-01T14:23:25Z</time>
      </trkpt>
      <trkpt lat="47.80029" lon="3.5501">
        <ele>236</ele>
        <time>2019-04-01T14:23:29Z</time>
      </trkpt>
      <trkpt lat="47.80029" lon="3.55013">
        <ele>236</ele>
        <time>2019-04-01T14:23:31Z</time>
      </trkpt>
      <trkpt lat="47.80029" lon="3.5502">
        <ele>234</ele>
        <time>2019-04-01T14:23:35Z</time>
      </trkpt>
      <trkpt lat="47.8003" lon="3.55027">
        <ele>233</ele>
        <time>2019-04-01T14:23:39Z</time>
      </trkpt>
      <trkpt lat="47.80029" lon="3.55034">
        <ele>234</ele>
        <time>2019-04-01T14:23:43Z</time>
      </trkpt>
      <trkpt lat="47.80027" lon="3.55041">
        <ele>235</ele>
        <time>2019-04-01T14:23:46Z</time>
      </trkpt>
      <trkpt lat="47.80025" lon="3.55046">
        <ele>235</ele>
        <time>2019-04-01T14:23:49Z</time>
      </trkpt>
      <trkpt lat="47.80023" lon="3.55052">
        <ele>235</ele>
        <time>2019-04-01T14:23:53Z</time>
      </trkpt>
      <trkpt lat="47.80022" lon="3.5506">
        <ele>235</ele>
        <time>2019-04-01T14:23:58Z</time>
      </trkpt>
      <trkpt lat="47.8002" lon="3.55067">
        <ele>234</ele>
        <time>2019-04-01T14:24:02Z</time>
      </trkpt>
      <trkpt lat="47.8002" lon="3.55075">
        <ele>234</ele>
        <time>2019-04-01T14:24:06Z</time>
      </trkpt>
      <trkpt lat="47.8002" lon="3.5508">
        <ele>233</ele>
        <time>2019-04-01T14:24:10Z</time>
      </trkpt>
      <trkpt lat="47.80017" lon="3.55089">
        <ele>234</ele>
        <time>2019-04-01T14:24:15Z</time>
      </trkpt>
      <trkpt lat="47.80016" lon="3.55093">
        <ele>233</ele>
        <time>2019-04-01T14:24:18Z</time>
      </trkpt>
      <trkpt lat="47.80014" lon="3.55098">
        <ele>231</ele>
        <time>2019-04-01T14:24:21Z</time>
      </trkpt>
      <trkpt lat="47.80011" lon="3.55106">
        <ele>232</ele>
        <time>2019-04-01T14:24:26Z</time>
      </trkpt>
      <trkpt lat="47.80009" lon="3.55114">
        <ele>231</ele>
        <time>2019-04-01T14:24:30Z</time>
      </trkpt>
      <trkpt lat="47.80006" lon="3.55121">
        <ele>231</ele>
        <time>2019-04-01T14:24:35Z</time>
      </trkpt>
      <trkpt lat="47.80005" lon="3.5513">
        <ele>228</ele>
        <time>2019-04-01T14:24:40Z</time>
      </trkpt>
      <trkpt lat="47.80003" lon="3.55136">
        <ele>226</ele>
        <time>2019-04-01T14:24:44Z</time>
      </trkpt>
      <trkpt lat="47.80002" lon="3.5514">
        <ele>225</ele>
        <time>2019-04-01T14:24:46Z</time>
      </trkpt>
      <trkpt lat="47.79999" lon="3.55146">
        <ele>225</ele>
        <time>2019-04-01T14:24:50Z</time>
      </trkpt>
      <trkpt lat="47.79996" lon="3.55153">
        <ele>225</ele>
        <time>2019-04-01T14:24:54Z</time>
      </trkpt>
      <trkpt lat="47.79995" lon="3.55161">
        <ele>225</ele>
        <time>2019-04-01T14:24:59Z</time>
      </trkpt>
      <trkpt lat="47.79995" lon="3.55164">
        <ele>224</ele>
        <time>2019-04-01T14:25:01Z</time>
      </trkpt>
      <trkpt lat="47.79992" lon="3.5517">
        <ele>225</ele>
        <time>2019-04-01T14:25:05Z</time>
      </trkpt>
      <trkpt lat="47.79989" lon="3.55176">
        <ele>225</ele>
        <time>2019-04-01T14:25:09Z</time>
      </trkpt>
      <trkpt lat="47.79987" lon="3.5518">
        <ele>226</ele>
        <time>2019-04-01T14:25:12Z</time>
      </trkpt>
      <trkpt lat="47.79984" lon="3.55188">
        <ele>227</ele>
        <time>2019-04-01T14:25:17Z</time>
      </trkpt>
      <trkpt lat="47.7998" lon="3.55193">
        <ele>226</ele>
        <time>2019-04-01T14:25:20Z</time>
      </trkpt>
      <trkpt lat="47.79979" lon="3.55202">
        <ele>226</ele>
        <time>2019-04-01T14:25:24Z</time>
      </trkpt>
      <trkpt lat="47.79979" lon="3.55209">
        <ele>227</ele>
        <time>2019-04-01T14:25:28Z</time>
      </trkpt>
      <trkpt lat="47.79976" lon="3.55217">
        <ele>224</ele>
        <time>2019-04-01T14:25:33Z</time>
      </trkpt>
      <trkpt lat="47.79974" lon="3.55223">
        <ele>224</ele>
        <time>2019-04-01T14:25:36Z</time>
      </trkpt>
      <trkpt lat="47.79973" lon="3.5523">
        <ele>224</ele>
        <time>2019-04-01T14:25:39Z</time>
      </trkpt>
      <trkpt lat="47.79971" lon="3.55233">
        <ele>224</ele>
        <time>2019-04-01T14:25:41Z</time>
      </trkpt>
      <trkpt lat="47.7997" lon="3.55238">
        <ele>223</ele>
        <time>2019-04-01T14:25:44Z</time>
      </trkpt>
      <trkpt lat="47.79968" lon="3.55245">
        <ele>221</ele>
        <time>2019-04-01T14:25:49Z</time>
      </trkpt>
      <trkpt lat="47.79967" lon="3.55248">
        <ele>221</ele>
        <time>2019-04-01T14:25:51Z</time>
      </trkpt>
      <trkpt lat="47.79962" lon="3.55256">
        <ele>219</ele>
        <time>2019-04-01T14:25:57Z</time>
      </trkpt>
      <trkpt lat="47.79956" lon="3.55261">
        <ele>218</ele>
        <time>2019-04-01T14:26:02Z</time>
      </trkpt>
      <trkpt lat="47.79956" lon="3.55261">
        <ele>218</ele>
        <time>2019-04-01T14:26:11Z</time>
      </trkpt>
      <trkpt lat="47.79956" lon="3.55261">
        <ele>218</ele>
        <time>2019-04-01T14:26:12Z</time>
      </trkpt>
      <trkpt lat="47.7995" lon="3.55265">
        <ele>216</ele>
        <time>2019-04-01T14:26:45Z</time>
      </trkpt>
      <trkpt lat="47.79947" lon="3.55267">
        <ele>216</ele>
        <time>2019-04-01T14:26:47Z</time>
      </trkpt>
      <trkpt lat="47.79946" lon="3.55274">
        <ele>217</ele>
        <time>2019-04-01T14:26:51Z</time>
      </trkpt>
      <trkpt lat="47.79947" lon="3.55281">
        <ele>218</ele>
        <time>2019-04-01T14:26:57Z</time>
      </trkpt>
      <trkpt lat="47.79949" lon="3.55288">
        <ele>218</ele>
        <time>2019-04-01T14:27:02Z</time>
      </trkpt>
      <trkpt lat="47.7995" lon="3.55295">
        <ele>219</ele>
        <time>2019-04-01T14:27:08Z</time>
      </trkpt>
      <trkpt lat="47.79949" lon="3.55303">
        <ele>221</ele>
        <time>2019-04-01T14:27:12Z</time>
      </trkpt>
      <trkpt lat="47.79948" lon="3.55307">
        <ele>221</ele>
        <time>2019-04-01T14:27:14Z</time>
      </trkpt>
      <trkpt lat="47.79947" lon="3.55311">
        <ele>221</ele>
        <time>2019-04-01T14:27:17Z</time>
      </trkpt>
      <trkpt lat="47.79946" lon="3.55317">
        <ele>222</ele>
        <time>2019-04-01T14:27:21Z</time>
      </trkpt>
      <trkpt lat="47.79944" lon="3.55324">
        <ele>221</ele>
        <time>2019-04-01T14:27:25Z</time>
      </trkpt>
      <trkpt lat="47.79944" lon="3.55332">
        <ele>220</ele>
        <time>2019-04-01T14:27:29Z</time>
      </trkpt>
      <trkpt lat="47.79943" lon="3.55338">
        <ele>220</ele>
        <time>2019-04-01T14:27:32Z</time>
      </trkpt>
      <trkpt lat="47.79942" lon="3.55345">
        <ele>219</ele>
        <time>2019-04-01T14:27:36Z</time>
      </trkpt>
      <trkpt lat="47.79942" lon="3.55352">
        <ele>218</ele>
        <time>2019-04-01T14:27:40Z</time>
      </trkpt>
      <trkpt lat="47.7994" lon="3.55358">
        <ele>218</ele>
        <time>2019-04-01T14:27:44Z</time>
      </trkpt>
      <trkpt lat="47.7994" lon="3.55363">
        <ele>218</ele>
        <time>2019-04-01T14:27:47Z</time>
      </trkpt>
      <trkpt lat="47.79938" lon="3.5537">
        <ele>217</ele>
        <time>2019-04-01T14:27:50Z</time>
      </trkpt>
      <trkpt lat="47.79935" lon="3.55379">
        <ele>216</ele>
        <time>2019-04-01T14:27:55Z</time>
      </trkpt>
      <trkpt lat="47.79933" lon="3.55384">
        <ele>215</ele>
        <time>2019-04-01T14:27:58Z</time>
      </trkpt>
      <trkpt lat="47.79932" lon="3.55388">
        <ele>215</ele>
        <time>2019-04-01T14:28:00Z</time>
      </trkpt>
      <trkpt lat="47.79929" lon="3.55397">
        <ele>215</ele>
        <time>2019-04-01T14:28:05Z</time>
      </trkpt>
      <trkpt lat="47.79929" lon="3.55404">
        <ele>215</ele>
        <time>2019-04-01T14:28:09Z</time>
      </trkpt>
      <trkpt lat="47.79926" lon="3.55412">
        <ele>214</ele>
        <time>2019-04-01T14:28:14Z</time>
      </trkpt>
      <trkpt lat="47.79925" lon="3.55416">
        <ele>215</ele>
        <time>2019-04-01T14:28:17Z</time>
      </trkpt>
      <trkpt lat="47.79924" lon="3.55419">
        <ele>215</ele>
        <time>2019-04-01T14:28:19Z</time>
      </trkpt>
      <trkpt lat="47.7992" lon="3.55423">
        <ele>215</ele>
        <time>2019-04-01T14:28:22Z</time>
      </trkpt>
      <trkpt lat="47.79917" lon="3.55428">
        <ele>215</ele>
        <time>2019-04-01T14:28:25Z</time>
      </trkpt>
      <trkpt lat="47.79915" lon="3.55436">
        <ele>215</ele>
        <time>2019-04-01T14:28:29Z</time>
      </trkpt>
      <trkpt lat="47.79913" lon="3.55444">
        <ele>215</ele>
        <time>2019-04-01T14:28:33Z</time>
      </trkpt>
      <trkpt lat="47.7991" lon="3.55452">
        <ele>213</ele>
        <time>2019-04-01T14:28:37Z</time>
      </trkpt>
      <trkpt lat="47.79909" lon="3.55456">
        <ele>212</ele>
        <time>2019-04-01T14:28:39Z</time>
      </trkpt>
      <trkpt lat="47.79908" lon="3.55461">
        <ele>212</ele>
        <time>2019-04-01T14:28:42Z</time>
      </trkpt>
      <trkpt lat="47.79906" lon="3.55465">
        <ele>210</ele>
        <time>2019-04-01T14:28:45Z</time>
      </trkpt>
      <trkpt lat="47.79904" lon="3.55471">
        <ele>209</ele>
        <time>2019-04-01T14:28:49Z</time>
      </trkpt>
      <trkpt lat="47.79902" lon="3.55476">
        <ele>210</ele>
        <time>2019-04-01T14:28:52Z</time>
      </trkpt>
      <trkpt lat="47.799" lon="3.55482">
        <ele>210</ele>
        <time>2019-04-01T14:28:55Z</time>
      </trkpt>
      <trkpt lat="47.79898" lon="3.55489">
        <ele>210</ele>
        <time>2019-04-01T14:29:00Z</time>
      </trkpt>
      <trkpt lat="47.79895" lon="3.55495">
        <ele>209</ele>
        <time>2019-04-01T14:29:04Z</time>
      </trkpt>
      <trkpt lat="47.79893" lon="3.55503">
        <ele>209</ele>
        <time>2019-04-01T14:29:08Z</time>
      </trkpt>
      <trkpt lat="47.79892" lon="3.5551">
        <ele>208</ele>
        <time>2019-04-01T14:29:12Z</time>
      </trkpt>
      <trkpt lat="47.7989" lon="3.55518">
        <ele>207</ele>
        <time>2019-04-01T14:29:16Z</time>
      </trkpt>
      <trkpt lat="47.79885" lon="3.55523">
        <ele>207</ele>
        <time>2019-04-01T14:29:20Z</time>
      </trkpt>
      <trkpt lat="47.79883" lon="3.5553">
        <ele>206</ele>
        <time>2019-04-01T14:29:24Z</time>
      </trkpt>
      <trkpt lat="47.79882" lon="3.55534">
        <ele>205</ele>
        <time>2019-04-01T14:29:26Z</time>
      </trkpt>
      <trkpt lat="47.7988" lon="3.55541">
        <ele>203</ele>
        <time>2019-04-01T14:29:31Z</time>
      </trkpt>
      <trkpt lat="47.79876" lon="3.55548">
        <ele>204</ele>
        <time>2019-04-01T14:29:36Z</time>
      </trkpt>
      <trkpt lat="47.79875" lon="3.55551">
        <ele>203</ele>
        <time>2019-04-01T14:29:38Z</time>
      </trkpt>
      <trkpt lat="47.79872" lon="3.55558">
        <ele>203</ele>
        <time>2019-04-01T14:29:43Z</time>
      </trkpt>
      <trkpt lat="47.79869" lon="3.55565">
        <ele>203</ele>
        <time>2019-04-01T14:29:47Z</time>
      </trkpt>
      <trkpt lat="47.79867" lon="3.55572">
        <ele>204</ele>
        <time>2019-04-01T14:29:51Z</time>
      </trkpt>
      <trkpt lat="47.79863" lon="3.55578">
        <ele>204</ele>
        <time>2019-04-01T14:29:56Z</time>
      </trkpt>
      <trkpt lat="47.79861" lon="3.55584">
        <ele>203</ele>
        <time>2019-04-01T14:30:00Z</time>
      </trkpt>
      <trkpt lat="47.7986" lon="3.55588">
        <ele>203</ele>
        <time>2019-04-01T14:30:02Z</time>
      </trkpt>
      <trkpt lat="47.79858" lon="3.55594">
        <ele>203</ele>
        <time>2019-04-01T14:30:07Z</time>
      </trkpt>
      <trkpt lat="47.79856" lon="3.55601">
        <ele>202</ele>
        <time>2019-04-01T14:30:12Z</time>
      </trkpt>
      <trkpt lat="47.79853" lon="3.55608">
        <ele>202</ele>
        <time>2019-04-01T14:30:19Z</time>
      </trkpt>
      <trkpt lat="47.7985" lon="3.55614">
        <ele>200</ele>
        <time>2019-04-01T14:30:24Z</time>
      </trkpt>
      <trkpt lat="47.79848" lon="3.5562">
        <ele>200</ele>
        <time>2019-04-01T14:30:28Z</time>
      </trkpt>
      <trkpt lat="47.79847" lon="3.55626">
        <ele>199</ele>
        <time>2019-04-01T14:30:31Z</time>
      </trkpt>
      <trkpt lat="47.79845" lon="3.55632">
        <ele>199</ele>
        <time>2019-04-01T14:30:34Z</time>
      </trkpt>
      <trkpt lat="47.79841" lon="3.55637">
        <ele>198</ele>
        <time>2019-04-01T14:30:39Z</time>
      </trkpt>
      <trkpt lat="47.79836" lon="3.5564">
        <ele>194</ele>
        <time>2019-04-01T14:30:42Z</time>
      </trkpt>
      <trkpt lat="47.79834" lon="3.55641">
        <ele>191</ele>
        <time>2019-04-01T14:30:44Z</time>
      </trkpt>
      <trkpt lat="47.79832" lon="3.55648">
        <ele>191</ele>
        <time>2019-04-01T14:30:47Z</time>
      </trkpt>
      <trkpt lat="47.79831" lon="3.55652">
        <ele>191</ele>
        <time>2019-04-01T14:30:50Z</time>
      </trkpt>
      <trkpt lat="47.7983" lon="3.5566">
        <ele>193</ele>
        <time>2019-04-01T14:30:55Z</time>
      </trkpt>
      <trkpt lat="47.79827" lon="3.55667">
        <ele>194</ele>
        <time>2019-04-01T14:30:59Z</time>
      </trkpt>
      <trkpt lat="47.79825" lon="3.55676">
        <ele>193</ele>
        <time>2019-04-01T14:31:04Z</time>
      </trkpt>
      <trkpt lat="47.79822" lon="3.55682">
        <ele>193</ele>
        <time>2019-04-01T14:31:08Z</time>
      </trkpt>
      <trkpt lat="47.7982" lon="3.55685">
        <ele>193</ele>
        <time>2019-04-01T14:31:10Z</time>
      </trkpt>
      <trkpt lat="47.79817" lon="3.5569">
        <ele>192</ele>
        <time>2019-04-01T14:31:14Z</time>
      </trkpt>
      <trkpt lat="47.79815" lon="3.55695">
        <ele>192</ele>
        <time>2019-04-01T14:31:17Z</time>
      </trkpt>
      <trkpt lat="47.79812" lon="3.55702">
        <ele>191</ele>
        <time>2019-04-01T14:31:22Z</time>
      </trkpt>
      <trkpt lat="47.7981" lon="3.55708">
        <ele>192</ele>
        <time>2019-04-01T14:31:25Z</time>
      </trkpt>
      <trkpt lat="47.79807" lon="3.55714">
        <ele>191</ele>
        <time>2019-04-01T14:31:29Z</time>
      </trkpt>
      <trkpt lat="47.79805" lon="3.5572">
        <ele>191</ele>
        <time>2019-04-01T14:31:32Z</time>
      </trkpt>
      <trkpt lat="47.79801" lon="3.55726">
        <ele>191</ele>
        <time>2019-04-01T14:31:36Z</time>
      </trkpt>
      <trkpt lat="47.79799" lon="3.5573">
        <ele>192</ele>
        <time>2019-04-01T14:31:39Z</time>
      </trkpt>
      <trkpt lat="47.79796" lon="3.55737">
        <ele>191</ele>
        <time>2019-04-01T14:31:44Z</time>
      </trkpt>
      <trkpt lat="47.79794" lon="3.55744">
        <ele>191</ele>
        <time>2019-04-01T14:31:49Z</time>
      </trkpt>
      <trkpt lat="47.79793" lon="3.55748">
        <ele>190</ele>
        <time>2019-04-01T14:31:52Z</time>
      </trkpt>
      <trkpt lat="47.7979" lon="3.55754">
        <ele>189</ele>
        <time>2019-04-01T14:31:57Z</time>
      </trkpt>
      <trkpt lat="47.79789" lon="3.55758">
        <ele>188</ele>
        <time>2019-04-01T14:32:00Z</time>
      </trkpt>
      <trkpt lat="47.79785" lon="3.55764">
        <ele>189</ele>
        <time>2019-04-01T14:32:05Z</time>
      </trkpt>
      <trkpt lat="47.79783" lon="3.55771">
        <ele>189</ele>
        <time>2019-04-01T14:32:09Z</time>
      </trkpt>
      <trkpt lat="47.79782" lon="3.55774">
        <ele>188</ele>
        <time>2019-04-01T14:32:11Z</time>
      </trkpt>
      <trkpt lat="47.7978" lon="3.55778">
        <ele>188</ele>
        <time>2019-04-01T14:32:13Z</time>
      </trkpt>
      <trkpt lat="47.79779" lon="3.55785">
        <ele>188</ele>
        <time>2019-04-01T14:32:17Z</time>
      </trkpt>
      <trkpt lat="47.79776" lon="3.55791">
        <ele>188</ele>
        <time>2019-04-01T14:32:21Z</time>
      </trkpt>
      <trkpt lat="47.79775" lon="3.55794">
        <ele>188</ele>
        <time>2019-04-01T14:32:23Z</time>
      </trkpt>
      <trkpt lat="47.79771" lon="3.558">
        <ele>189</ele>
        <time>2019-04-01T14:32:28Z</time>
      </trkpt>
      <trkpt lat="47.7977" lon="3.55803">
        <ele>190</ele>
        <time>2019-04-01T14:32:31Z</time>
      </trkpt>
      <trkpt lat="47.79767" lon="3.55808">
        <ele>191</ele>
        <time>2019-04-01T14:32:34Z</time>
      </trkpt>
      <trkpt lat="47.79765" lon="3.55812">
        <ele>191</ele>
        <time>2019-04-01T14:32:37Z</time>
      </trkpt>
      <trkpt lat="47.79764" lon="3.55816">
        <ele>191</ele>
        <time>2019-04-01T14:32:39Z</time>
      </trkpt>
      <trkpt lat="47.79763" lon="3.5582">
        <ele>191</ele>
        <time>2019-04-01T14:32:41Z</time>
      </trkpt>
      <trkpt lat="47.79759" lon="3.55827">
        <ele>190</ele>
        <time>2019-04-01T14:32:45Z</time>
      </trkpt>
      <trkpt lat="47.79756" lon="3.55835">
        <ele>188</ele>
        <time>2019-04-01T14:32:50Z</time>
      </trkpt>
      <trkpt lat="47.79753" lon="3.55841">
        <ele>187</ele>
        <time>2019-04-01T14:32:54Z</time>
      </trkpt>
      <trkpt lat="47.79748" lon="3.55846">
        <ele>186</ele>
        <time>2019-04-01T14:32:58Z</time>
      </trkpt>
      <trkpt lat="47.79744" lon="3.55848">
        <ele>184</ele>
        <time>2019-04-01T14:33:03Z</time>
      </trkpt>
      <trkpt lat="47.7974" lon="3.5585">
        <ele>186</ele>
        <time>2019-04-01T14:33:06Z</time>
      </trkpt>
      <trkpt lat="47.79739" lon="3.55858">
        <ele>186</ele>
        <time>2019-04-01T14:33:10Z</time>
      </trkpt>
      <trkpt lat="47.79737" lon="3.55864">
        <ele>187</ele>
        <time>2019-04-01T14:33:13Z</time>
      </trkpt>
      <trkpt lat="47.79735" lon="3.5587">
        <ele>186</ele>
        <time>2019-04-01T14:33:16Z</time>
      </trkpt>
      <trkpt lat="47.79735" lon="3.55877">
        <ele>187</ele>
        <time>2019-04-01T14:33:20Z</time>
      </trkpt>
      <trkpt lat="47.79735" lon="3.55885">
        <ele>187</ele>
        <time>2019-04-01T14:33:24Z</time>
      </trkpt>
      <trkpt lat="47.79735" lon="3.5589">
        <ele>186</ele>
        <time>2019-04-01T14:33:27Z</time>
      </trkpt>
      <trkpt lat="47.79733" lon="3.55898">
        <ele>184</ele>
        <time>2019-04-01T14:33:32Z</time>
      </trkpt>
      <trkpt lat="47.79732" lon="3.55901">
        <ele>184</ele>
        <time>2019-04-01T14:33:34Z</time>
      </trkpt>
      <trkpt lat="47.7973" lon="3.55907">
        <ele>183</ele>
        <time>2019-04-01T14:33:37Z</time>
      </trkpt>
      <trkpt lat="47.79727" lon="3.55915">
        <ele>182</ele>
        <time>2019-04-01T14:33:42Z</time>
      </trkpt>
      <trkpt lat="47.79724" lon="3.5592">
        <ele>181</ele>
        <time>2019-04-01T14:33:45Z</time>
      </trkpt>
      <trkpt lat="47.79722" lon="3.55927">
        <ele>179</ele>
        <time>2019-04-01T14:33:48Z</time>
      </trkpt>
      <trkpt lat="47.79717" lon="3.55933">
        <ele>181</ele>
        <time>2019-04-01T14:33:53Z</time>
      </trkpt>
      <trkpt lat="47.79715" lon="3.55936">
        <ele>182</ele>
        <time>2019-04-01T14:33:55Z</time>
      </trkpt>
      <trkpt lat="47.79711" lon="3.55941">
        <ele>185</ele>
        <time>2019-04-01T14:33:59Z</time>
      </trkpt>
      <trkpt lat="47.79709" lon="3.55947">
        <ele>188</ele>
        <time>2019-04-01T14:34:03Z</time>
      </trkpt>
      <trkpt lat="47.79707" lon="3.55954">
        <ele>188</ele>
        <time>2019-04-01T14:34:07Z</time>
      </trkpt>
      <trkpt lat="47.79706" lon="3.55957">
        <ele>188</ele>
        <time>2019-04-01T14:34:09Z</time>
      </trkpt>
      <trkpt lat="47.79705" lon="3.55961">
        <ele>188</ele>
        <time>2019-04-01T14:34:11Z</time>
      </trkpt>
      <trkpt lat="47.79703" lon="3.55968">
        <ele>188</ele>
        <time>2019-04-01T14:34:15Z</time>
      </trkpt>
      <trkpt lat="47.79699" lon="3.55972">
        <ele>187</ele>
        <time>2019-04-01T14:34:18Z</time>
      </trkpt>
      <trkpt lat="47.79697" lon="3.55975">
        <ele>186</ele>
        <time>2019-04-01T14:34:20Z</time>
      </trkpt>
      <trkpt lat="47.79694" lon="3.55977">
        <ele>185</ele>
        <time>2019-04-01T14:34:22Z</time>
      </trkpt>
      <trkpt lat="47.7969" lon="3.55983">
        <ele>184</ele>
        <time>2019-04-01T14:34:26Z</time>
      </trkpt>
      <trkpt lat="47.79687" lon="3.55987">
        <ele>184</ele>
        <time>2019-04-01T14:34:29Z</time>
      </trkpt>
      <trkpt lat="47.79684" lon="3.55995">
        <ele>184</ele>
        <time>2019-04-01T14:34:34Z</time>
      </trkpt>
      <trkpt lat="47.79683" lon="3.56003">
        <ele>183</ele>
        <time>2019-04-01T14:34:38Z</time>
      </trkpt>
      <trkpt lat="47.79684" lon="3.56011">
        <ele>184</ele>
        <time>2019-04-01T14:34:42Z</time>
      </trkpt>
      <trkpt lat="47.79684" lon="3.56015">
        <ele>184</ele>
        <time>2019-04-01T14:34:44Z</time>
      </trkpt>
      <trkpt lat="47.79682" lon="3.56026">
        <ele>183</ele>
        <time>2019-04-01T14:34:49Z</time>
      </trkpt>
      <trkpt lat="47.7968" lon="3.56032">
        <ele>183</ele>
        <time>2019-04-01T14:34:52Z</time>
      </trkpt>
      <trkpt lat="47.7968" lon="3.5604">
        <ele>182</ele>
        <time>2019-04-01T14:34:56Z</time>
      </trkpt>
      <trkpt lat="47.79676" lon="3.56049">
        <ele>182</ele>
        <time>2019-04-01T14:35:01Z</time>
      </trkpt>
      <trkpt lat="47.79673" lon="3.56056">
        <ele>183</ele>
        <time>2019-04-01T14:35:05Z</time>
      </trkpt>
      <trkpt lat="47.79671" lon="3.5606">
        <ele>182</ele>
        <time>2019-04-01T14:35:08Z</time>
      </trkpt>
      <trkpt lat="47.79669" lon="3.56067">
        <ele>181</ele>
        <time>2019-04-01T14:35:12Z</time>
      </trkpt>
      <trkpt lat="47.79666" lon="3.56073">
        <ele>181</ele>
        <time>2019-04-01T14:35:17Z</time>
      </trkpt>
      <trkpt lat="47.79663" lon="3.56078">
        <ele>181</ele>
        <time>2019-04-01T14:35:21Z</time>
      </trkpt>
      <trkpt lat="47.79661" lon="3.56086">
        <ele>181</ele>
        <time>2019-04-01T14:35:25Z</time>
      </trkpt>
      <trkpt lat="47.7966" lon="3.5609">
        <ele>182</ele>
        <time>2019-04-01T14:35:27Z</time>
      </trkpt>
      <trkpt lat="47.79658" lon="3.56098">
        <ele>182</ele>
        <time>2019-04-01T14:35:32Z</time>
      </trkpt>
      <trkpt lat="47.79656" lon="3.56104">
        <ele>182</ele>
        <time>2019-04-01T14:35:35Z</time>
      </trkpt>
      <trkpt lat="47.79653" lon="3.5611">
        <ele>182</ele>
        <time>2019-04-01T14:35:38Z</time>
      </trkpt>
      <trkpt lat="47.79652" lon="3.56117">
        <ele>182</ele>
        <time>2019-04-01T14:35:43Z</time>
      </trkpt>
      <trkpt lat="47.79653" lon="3.56125">
        <ele>183</ele>
        <time>2019-04-01T14:35:47Z</time>
      </trkpt>
      <trkpt lat="47.7965" lon="3.56131">
        <ele>183</ele>
        <time>2019-04-01T14:35:52Z</time>
      </trkpt>
      <trkpt lat="47.79645" lon="3.56133">
        <ele>182</ele>
        <time>2019-04-01T14:35:56Z</time>
      </trkpt>
      <trkpt lat="47.79642" lon="3.56133">
        <ele>182</ele>
        <time>2019-04-01T14:35:59Z</time>
      </trkpt>
      <trkpt lat="47.79638" lon="3.56136">
        <ele>183</ele>
        <time>2019-04-01T14:36:02Z</time>
      </trkpt>
      <trkpt lat="47.79633" lon="3.56138">
        <ele>183</ele>
        <time>2019-04-01T14:36:05Z</time>
      </trkpt>
      <trkpt lat="47.7963" lon="3.56144">
        <ele>184</ele>
        <time>2019-04-01T14:36:09Z</time>
      </trkpt>
      <trkpt lat="47.79627" lon="3.56151">
        <ele>185</ele>
        <time>2019-04-01T14:36:12Z</time>
      </trkpt>
      <trkpt lat="47.79625" lon="3.56159">
        <ele>184</ele>
        <time>2019-04-01T14:36:16Z</time>
      </trkpt>
      <trkpt lat="47.79625" lon="3.56168">
        <ele>184</ele>
        <time>2019-04-01T14:36:20Z</time>
      </trkpt>
      <trkpt lat="47.79623" lon="3.56175">
        <ele>184</ele>
        <time>2019-04-01T14:36:24Z</time>
      </trkpt>
      <trkpt lat="47.79623" lon="3.56179">
        <ele>185</ele>
        <time>2019-04-01T14:36:26Z</time>
      </trkpt>
      <trkpt lat="47.7962" lon="3.56187">
        <ele>185</ele>
        <time>2019-04-01T14:36:30Z</time>
      </trkpt>
      <trkpt lat="47.79619" lon="3.56191">
        <ele>186</ele>
        <time>2019-04-01T14:36:32Z</time>
      </trkpt>
      <trkpt lat="47.79618" lon="3.56194">
        <ele>185</ele>
        <time>2019-04-01T14:36:34Z</time>
      </trkpt>
      <trkpt lat="47.79617" lon="3.56201">
        <ele>185</ele>
        <time>2019-04-01T14:36:38Z</time>
      </trkpt>
      <trkpt lat="47.79614" lon="3.5621">
        <ele>185</ele>
        <time>2019-04-01T14:36:43Z</time>
      </trkpt>
      <trkpt lat="47.79613" lon="3.56216">
        <ele>185</ele>
        <time>2019-04-01T14:36:46Z</time>
      </trkpt>
      <trkpt lat="47.79612" lon="3.5622">
        <ele>185</ele>
        <time>2019-04-01T14:36:48Z</time>
      </trkpt>
      <trkpt lat="47.7961" lon="3.56228">
        <ele>186</ele>
        <time>2019-04-01T14:36:53Z</time>
      </trkpt>
      <trkpt lat="47.79611" lon="3.56237">
        <ele>185</ele>
        <time>2019-04-01T14:36:57Z</time>
      </trkpt>
      <trkpt lat="47.7961" lon="3.56243">
        <ele>185</ele>
        <time>2019-04-01T14:37:00Z</time>
      </trkpt>
      <trkpt lat="47.79608" lon="3.56251">
        <ele>184</ele>
        <time>2019-04-01T14:37:04Z</time>
      </trkpt>
      <trkpt lat="47.79608" lon="3.56255">
        <ele>185</ele>
        <time>2019-04-01T14:37:06Z</time>
      </trkpt>
      <trkpt lat="47.79604" lon="3.56259">
        <ele>184</ele>
        <time>2019-04-01T14:37:10Z</time>
      </trkpt>
      <trkpt lat="47.79603" lon="3.56268">
        <ele>184</ele>
        <time>2019-04-01T14:37:15Z</time>
      </trkpt>
      <trkpt lat="47.79602" lon="3.56272">
        <ele>183</ele>
        <time>2019-04-01T14:37:17Z</time>
      </trkpt>
      <trkpt lat="47.79601" lon="3.56277">
        <ele>184</ele>
        <time>2019-04-01T14:37:19Z</time>
      </trkpt>
      <trkpt lat="47.79599" lon="3.56287">
        <ele>182</ele>
        <time>2019-04-01T14:37:25Z</time>
      </trkpt>
      <trkpt lat="47.79598" lon="3.5629">
        <ele>183</ele>
        <time>2019-04-01T14:37:28Z</time>
      </trkpt>
      <trkpt lat="47.79596" lon="3.563">
        <ele>184</ele>
        <time>2019-04-01T14:37:33Z</time>
      </trkpt>
      <trkpt lat="47.79597" lon="3.56309">
        <ele>184</ele>
        <time>2019-04-01T14:37:38Z</time>
      </trkpt>
      <trkpt lat="47.79592" lon="3.56316">
        <ele>186</ele>
        <time>2019-04-01T14:37:43Z</time>
      </trkpt>
      <trkpt lat="47.79589" lon="3.56322">
        <ele>185</ele>
        <time>2019-04-01T14:37:47Z</time>
      </trkpt>
      <trkpt lat="47.79586" lon="3.5633">
        <ele>186</ele>
        <time>2019-04-01T14:37:51Z</time>
      </trkpt>
      <trkpt lat="47.79585" lon="3.56334">
        <ele>185</ele>
        <time>2019-04-01T14:37:53Z</time>
      </trkpt>
      <trkpt lat="47.79583" lon="3.56342">
        <ele>185</ele>
        <time>2019-04-01T14:37:56Z</time>
      </trkpt>
      <trkpt lat="47.79583" lon="3.56345">
        <ele>185</ele>
        <time>2019-04-01T14:37:58Z</time>
      </trkpt>
      <trkpt lat="47.79581" lon="3.56354">
        <ele>185</ele>
        <time>2019-04-01T14:38:03Z</time>
      </trkpt>
      <trkpt lat="47.79576" lon="3.56359">
        <ele>182</ele>
        <time>2019-04-01T14:38:07Z</time>
      </trkpt>
      <trkpt lat="47.79575" lon="3.56365">
        <ele>182</ele>
        <time>2019-04-01T14:38:11Z</time>
      </trkpt>
      <trkpt lat="47.79573" lon="3.56372">
        <ele>181</ele>
        <time>2019-04-01T14:38:14Z</time>
      </trkpt>
      <trkpt lat="47.79572" lon="3.56379">
        <ele>181</ele>
        <time>2019-04-01T14:38:18Z</time>
      </trkpt>
      <trkpt lat="47.79568" lon="3.56384">
        <ele>183</ele>
        <time>2019-04-01T14:38:23Z</time>
      </trkpt>
      <trkpt lat="47.79564" lon="3.56387">
        <ele>183</ele>
        <time>2019-04-01T14:38:28Z</time>
      </trkpt>
      <trkpt lat="47.79562" lon="3.56389">
        <ele>184</ele>
        <time>2019-04-01T14:38:31Z</time>
      </trkpt>
      <trkpt lat="47.79558" lon="3.56391">
        <ele>184</ele>
        <time>2019-04-01T14:38:35Z</time>
      </trkpt>
      <trkpt lat="47.79554" lon="3.56394">
        <ele>186</ele>
        <time>2019-04-01T14:38:39Z</time>
      </trkpt>
      <trkpt lat="47.79549" lon="3.56397">
        <ele>186</ele>
        <time>2019-04-01T14:38:43Z</time>
      </trkpt>
      <trkpt lat="47.79544" lon="3.56398">
        <ele>186</ele>
        <time>2019-04-01T14:38:46Z</time>
      </trkpt>
      <trkpt lat="47.7954" lon="3.56402">
        <ele>186</ele>
        <time>2019-04-01T14:38:49Z</time>
      </trkpt>
      <trkpt lat="47.79535" lon="3.56404">
        <ele>186</ele>
        <time>2019-04-01T14:38:53Z</time>
      </trkpt>
      <trkpt lat="47.79529" lon="3.56401">
        <ele>183</ele>
        <time>2019-04-01T14:38:57Z</time>
      </trkpt>
      <trkpt lat="47.79525" lon="3.56403">
        <ele>180</ele>
        <time>2019-04-01T14:39:02Z</time>
      </trkpt>
      <trkpt lat="47.79524" lon="3.56405">
        <ele>181</ele>
        <time>2019-04-01T14:39:11Z</time>
      </trkpt>
      <trkpt lat="47.79523" lon="3.56412">
        <ele>180</ele>
        <time>2019-04-01T14:39:33Z</time>
      </trkpt>
      <trkpt lat="47.79524" lon="3.5642">
        <ele>180</ele>
        <time>2019-04-01T14:39:38Z</time>
      </trkpt>
      <trkpt lat="47.79528" lon="3.56428">
        <ele>178</ele>
        <time>2019-04-01T14:39:43Z</time>
      </trkpt>
      <trkpt lat="47.7953" lon="3.56435">
        <ele>177</ele>
        <time>2019-04-01T14:39:47Z</time>
      </trkpt>
      <trkpt lat="47.79534" lon="3.56441">
        <ele>179</ele>
        <time>2019-04-01T14:39:53Z</time>
      </trkpt>
      <trkpt lat="47.79536" lon="3.56443">
        <ele>180</ele>
        <time>2019-04-01T14:39:56Z</time>
      </trkpt>
      <trkpt lat="47.79541" lon="3.56446">
        <ele>181</ele>
        <time>2019-04-01T14:39:59Z</time>
      </trkpt>
      <trkpt lat="47.79542" lon="3.56454">
        <ele>180</ele>
        <time>2019-04-01T14:40:04Z</time>
      </trkpt>
      <trkpt lat="47.79544" lon="3.56462">
        <ele>179</ele>
        <time>2019-04-01T14:40:08Z</time>
      </trkpt>
      <trkpt lat="47.79544" lon="3.56469">
        <ele>179</ele>
        <time>2019-04-01T14:40:11Z</time>
      </trkpt>
      <trkpt lat="47.79545" lon="3.56476">
        <ele>179</ele>
        <time>2019-04-01T14:40:15Z</time>
      </trkpt>
      <trkpt lat="47.79547" lon="3.56483">
        <ele>178</ele>
        <time>2019-04-01T14:40:18Z</time>
      </trkpt>
      <trkpt lat="47.79549" lon="3.56491">
        <ele>178</ele>
        <time>2019-04-01T14:40:22Z</time>
      </trkpt>
      <trkpt lat="47.79548" lon="3.56498">
        <ele>178</ele>
        <time>2019-04-01T14:40:27Z</time>
      </trkpt>
      <trkpt lat="47.79548" lon="3.56502">
        <ele>179</ele>
        <time>2019-04-01T14:40:29Z</time>
      </trkpt>
      <trkpt lat="47.79548" lon="3.56509">
        <ele>178</ele>
        <time>2019-04-01T14:40:32Z</time>
      </trkpt>
      <trkpt lat="47.79547" lon="3.56516">
        <ele>176</ele>
        <time>2019-04-01T14:40:35Z</time>
      </trkpt>
      <trkpt lat="47.79547" lon="3.56524">
        <ele>176</ele>
        <time>2019-04-01T14:40:40Z</time>
      </trkpt>
      <trkpt lat="47.79545" lon="3.5653">
        <ele>177</ele>
        <time>2019-04-01T14:40:44Z</time>
      </trkpt>
      <trkpt lat="47.79546" lon="3.56538">
        <ele>177</ele>
        <time>2019-04-01T14:40:48Z</time>
      </trkpt>
      <trkpt lat="47.79546" lon="3.56543">
        <ele>177</ele>
        <time>2019-04-01T14:40:50Z</time>
      </trkpt>
      <trkpt lat="47.79546" lon="3.56554">
        <ele>175</ele>
        <time>2019-04-01T14:40:56Z</time>
      </trkpt>
      <trkpt lat="47.79544" lon="3.56562">
        <ele>175</ele>
        <time>2019-04-01T14:41:00Z</time>
      </trkpt>
      <trkpt lat="47.79545" lon="3.56569">
        <ele>175</ele>
        <time>2019-04-01T14:41:04Z</time>
      </trkpt>
      <trkpt lat="47.79542" lon="3.56576">
        <ele>175</ele>
        <time>2019-04-01T14:41:07Z</time>
      </trkpt>
      <trkpt lat="47.7954" lon="3.56581">
        <ele>174</ele>
        <time>2019-04-01T14:41:10Z</time>
      </trkpt>
      <trkpt lat="47.79538" lon="3.5659">
        <ele>174</ele>
        <time>2019-04-01T14:41:15Z</time>
      </trkpt>
      <trkpt lat="47.79538" lon="3.56594">
        <ele>174</ele>
        <time>2019-04-01T14:41:17Z</time>
      </trkpt>
      <trkpt lat="47.79537" lon="3.56598">
        <ele>174</ele>
        <time>2019-04-01T14:41:20Z</time>
      </trkpt>
      <trkpt lat="47.79538" lon="3.56606">
        <ele>174</ele>
        <time>2019-04-01T14:41:25Z</time>
      </trkpt>
      <trkpt lat="47.79538" lon="3.56611">
        <ele>173</ele>
        <time>2019-04-01T14:41:28Z</time>
      </trkpt>
      <trkpt lat="47.7954" lon="3.56618">
        <ele>174</ele>
        <time>2019-04-01T14:41:32Z</time>
      </trkpt>
      <trkpt lat="47.79541" lon="3.56623">
        <ele>175</ele>
        <time>2019-04-01T14:41:36Z</time>
      </trkpt>
      <trkpt lat="47.79543" lon="3.5663">
        <ele>175</ele>
        <time>2019-04-01T14:41:42Z</time>
      </trkpt>
      <trkpt lat="47.79543" lon="3.56641">
        <ele>175</ele>
        <time>2019-04-01T14:41:46Z</time>
      </trkpt>
      <trkpt lat="47.79542" lon="3.56649">
        <ele>175</ele>
        <time>2019-04-01T14:41:49Z</time>
      </trkpt>
      <trkpt lat="47.79544" lon="3.56658">
        <ele>173</ele>
        <time>2019-04-01T14:41:54Z</time>
      </trkpt>
      <trkpt lat="47.79546" lon="3.56666">
        <ele>175</ele>
        <time>2019-04-01T14:41:59Z</time>
      </trkpt>
      <trkpt lat="47.79548" lon="3.56673">
        <ele>175</ele>
        <time>2019-04-01T14:42:05Z</time>
      </trkpt>
      <trkpt lat="47.79549" lon="3.5668">
        <ele>175</ele>
        <time>2019-04-01T14:42:09Z</time>
      </trkpt>
      <trkpt lat="47.79549" lon="3.56687">
        <ele>174</ele>
        <time>2019-04-01T14:42:12Z</time>
      </trkpt>
      <trkpt lat="47.79551" lon="3.56694">
        <ele>174</ele>
        <time>2019-04-01T14:42:15Z</time>
      </trkpt>
      <trkpt lat="47.79553" lon="3.56701">
        <ele>173</ele>
        <time>2019-04-01T14:42:19Z</time>
      </trkpt>
      <trkpt lat="47.79554" lon="3.56704">
        <ele>173</ele>
        <time>2019-04-01T14:42:21Z</time>
      </trkpt>
      <trkpt lat="47.79557" lon="3.56711">
        <ele>171</ele>
        <time>2019-04-01T14:42:26Z</time>
      </trkpt>
      <trkpt lat="47.79557" lon="3.56718">
        <ele>171</ele>
        <time>2019-04-01T14:42:29Z</time>
      </trkpt>
      <trkpt lat="47.79557" lon="3.56726">
        <ele>172</ele>
        <time>2019-04-01T14:42:33Z</time>
      </trkpt>
      <trkpt lat="47.79556" lon="3.56733">
        <ele>173</ele>
        <time>2019-04-01T14:42:37Z</time>
      </trkpt>
      <trkpt lat="47.79558" lon="3.5674">
        <ele>173</ele>
        <time>2019-04-01T14:42:41Z</time>
      </trkpt>
      <trkpt lat="47.79557" lon="3.56747">
        <ele>172</ele>
        <time>2019-04-01T14:42:44Z</time>
      </trkpt>
      <trkpt lat="47.79557" lon="3.56754">
        <ele>173</ele>
        <time>2019-04-01T14:42:48Z</time>
      </trkpt>
      <trkpt lat="47.79557" lon="3.56761">
        <ele>174</ele>
        <time>2019-04-01T14:42:53Z</time>
      </trkpt>
      <trkpt lat="47.79556" lon="3.56764">
        <ele>176</ele>
        <time>2019-04-01T14:42:57Z</time>
      </trkpt>
      <trkpt lat="47.79557" lon="3.56771">
        <ele>175</ele>
        <time>2019-04-01T14:43:01Z</time>
      </trkpt>
      <trkpt lat="47.79557" lon="3.5678">
        <ele>174</ele>
        <time>2019-04-01T14:43:05Z</time>
      </trkpt>
      <trkpt lat="47.79558" lon="3.56788">
        <ele>176</ele>
        <time>2019-04-01T14:43:10Z</time>
      </trkpt>
      <trkpt lat="47.79563" lon="3.56798">
        <ele>176</ele>
        <time>2019-04-01T14:43:17Z</time>
      </trkpt>
      <trkpt lat="47.79566" lon="3.56804">
        <ele>176</ele>
        <time>2019-04-01T14:43:21Z</time>
      </trkpt>
      <trkpt lat="47.79568" lon="3.56811">
        <ele>175</ele>
        <time>2019-04-01T14:43:26Z</time>
      </trkpt>
      <trkpt lat="47.79568" lon="3.56819">
        <ele>177</ele>
        <time>2019-04-01T14:43:31Z</time>
      </trkpt>
      <trkpt lat="47.7957" lon="3.56826">
        <ele>176</ele>
        <time>2019-04-01T14:43:35Z</time>
      </trkpt>
      <trkpt lat="47.79571" lon="3.56835">
        <ele>176</ele>
        <time>2019-04-01T14:43:40Z</time>
      </trkpt>
      <trkpt lat="47.79571" lon="3.56842">
        <ele>177</ele>
        <time>2019-04-01T14:43:44Z</time>
      </trkpt>
      <trkpt lat="47.79574" lon="3.56852">
        <ele>175</ele>
        <time>2019-04-01T14:43:49Z</time>
      </trkpt>
      <trkpt lat="47.79571" lon="3.56858">
        <ele>176</ele>
        <time>2019-04-01T14:43:55Z</time>
      </trkpt>
      <trkpt lat="47.7957" lon="3.56864">
        <ele>177</ele>
        <time>2019-04-01T14:44:05Z</time>
      </trkpt>
      <trkpt lat="47.79572" lon="3.5687">
        <ele>186</ele>
        <time>2019-04-01T14:44:26Z</time>
      </trkpt>
      <trkpt lat="47.79576" lon="3.56877">
        <ele>188</ele>
        <time>2019-04-01T14:44:30Z</time>
      </trkpt>
      <trkpt lat="47.79577" lon="3.56887">
        <ele>190</ele>
        <time>2019-04-01T14:44:35Z</time>
      </trkpt>
      <trkpt lat="47.7958" lon="3.56893">
        <ele>191</ele>
        <time>2019-04-01T14:44:39Z</time>
      </trkpt>
      <trkpt lat="47.79581" lon="3.56896">
        <ele>190</ele>
        <time>2019-04-01T14:44:42Z</time>
      </trkpt>
      <trkpt lat="47.79588" lon="3.56893">
        <ele>191</ele>
        <time>2019-04-01T14:44:50Z</time>
      </trkpt>
      <trkpt lat="47.79592" lon="3.5689">
        <ele>191</ele>
        <time>2019-04-01T14:44:55Z</time>
      </trkpt>
      <trkpt lat="47.79598" lon="3.56891">
        <ele>190</ele>
        <time>2019-04-01T14:45:01Z</time>
      </trkpt>
      <trkpt lat="47.79602" lon="3.56893">
        <ele>188</ele>
        <time>2019-04-01T14:45:04Z</time>
      </trkpt>
      <trkpt lat="47.79608" lon="3.56896">
        <ele>187</ele>
        <time>2019-04-01T14:45:07Z</time>
      </trkpt>
      <trkpt lat="47.79612" lon="3.56901">
        <ele>188</ele>
        <time>2019-04-01T14:45:10Z</time>
      </trkpt>
      <trkpt lat="47.79614" lon="3.56907">
        <ele>187</ele>
        <time>2019-04-01T14:45:13Z</time>
      </trkpt>
      <trkpt lat="47.79616" lon="3.56911">
        <ele>187</ele>
        <time>2019-04-01T14:45:16Z</time>
      </trkpt>
      <trkpt lat="47.79618" lon="3.56918">
        <ele>187</ele>
        <time>2019-04-01T14:45:20Z</time>
      </trkpt>
      <trkpt lat="47.79624" lon="3.56926">
        <ele>186</ele>
        <time>2019-04-01T14:45:26Z</time>
      </trkpt>
      <trkpt lat="47.79626" lon="3.56929">
        <ele>185</ele>
        <time>2019-04-01T14:45:28Z</time>
      </trkpt>
      <trkpt lat="47.7963" lon="3.56933">
        <ele>184</ele>
        <time>2019-04-01T14:45:31Z</time>
      </trkpt>
      <trkpt lat="47.79631" lon="3.56939">
        <ele>183</ele>
        <time>2019-04-01T14:45:35Z</time>
      </trkpt>
      <trkpt lat="47.79631" lon="3.56947">
        <ele>179</ele>
        <time>2019-04-01T14:45:39Z</time>
      </trkpt>
      <trkpt lat="47.79631" lon="3.56952">
        <ele>177</ele>
        <time>2019-04-01T14:45:43Z</time>
      </trkpt>
      <trkpt lat="47.79631" lon="3.56957">
        <ele>176</ele>
        <time>2019-04-01T14:45:45Z</time>
      </trkpt>
      <trkpt lat="47.79631" lon="3.56964">
        <ele>175</ele>
        <time>2019-04-01T14:45:49Z</time>
      </trkpt>
      <trkpt lat="47.79631" lon="3.56969">
        <ele>173</ele>
        <time>2019-04-01T14:45:53Z</time>
      </trkpt>
      <trkpt lat="47.79631" lon="3.56975">
        <ele>174</ele>
        <time>2019-04-01T14:45:57Z</time>
      </trkpt>
      <trkpt lat="47.7963" lon="3.56982">
        <ele>174</ele>
        <time>2019-04-01T14:46:01Z</time>
      </trkpt>
      <trkpt lat="47.7963" lon="3.56991">
        <ele>173</ele>
        <time>2019-04-01T14:46:07Z</time>
      </trkpt>
      <trkpt lat="47.79632" lon="3.56997">
        <ele>173</ele>
        <time>2019-04-01T14:46:10Z</time>
      </trkpt>
      <trkpt lat="47.79633" lon="3.57004">
        <ele>173</ele>
        <time>2019-04-01T14:46:13Z</time>
      </trkpt>
      <trkpt lat="47.79636" lon="3.57013">
        <ele>174</ele>
        <time>2019-04-01T14:46:17Z</time>
      </trkpt>
      <trkpt lat="47.79637" lon="3.57016">
        <ele>173</ele>
        <time>2019-04-01T14:46:19Z</time>
      </trkpt>
      <trkpt lat="47.79638" lon="3.5702">
        <ele>173</ele>
        <time>2019-04-01T14:46:21Z</time>
      </trkpt>
      <trkpt lat="47.7964" lon="3.57024">
        <ele>174</ele>
        <time>2019-04-01T14:46:23Z</time>
      </trkpt>
      <trkpt lat="47.79641" lon="3.57027">
        <ele>174</ele>
        <time>2019-04-01T14:46:25Z</time>
      </trkpt>
      <trkpt lat="47.79644" lon="3.57035">
        <ele>173</ele>
        <time>2019-04-01T14:46:31Z</time>
      </trkpt>
      <trkpt lat="47.79644" lon="3.57035">
        <ele>173</ele>
        <time>2019-04-01T14:46:39Z</time>
      </trkpt>
      <trkpt lat="47.79644" lon="3.57035">
        <ele>173</ele>
        <time>2019-04-01T14:46:40Z</time>
      </trkpt>
      <trkpt lat="47.79651" lon="3.5704">
        <ele>173</ele>
        <time>2019-04-01T14:48:52Z</time>
      </trkpt>
      <trkpt lat="47.79652" lon="3.57047">
        <ele>174</ele>
        <time>2019-04-01T14:49:04Z</time>
      </trkpt>
      <trkpt lat="47.79653" lon="3.5705">
        <ele>174</ele>
        <time>2019-04-01T14:49:06Z</time>
      </trkpt>
      <trkpt lat="47.79655" lon="3.57056">
        <ele>174</ele>
        <time>2019-04-01T14:49:12Z</time>
      </trkpt>
      <trkpt lat="47.79656" lon="3.57061">
        <ele>174</ele>
        <time>2019-04-01T14:49:17Z</time>
      </trkpt>
      <trkpt lat="47.79661" lon="3.57064">
        <ele>174</ele>
        <time>2019-04-01T14:49:28Z</time>
      </trkpt>
      <trkpt lat="47.79664" lon="3.57071">
        <ele>174</ele>
        <time>2019-04-01T14:49:34Z</time>
      </trkpt>
      <trkpt lat="47.79666" lon="3.57075">
        <ele>173</ele>
        <time>2019-04-01T14:49:37Z</time>
      </trkpt>
      <trkpt lat="47.79667" lon="3.57081">
        <ele>174</ele>
        <time>2019-04-01T14:49:43Z</time>
      </trkpt>
      <trkpt lat="47.7967" lon="3.57088">
        <ele>175</ele>
        <time>2019-04-01T14:49:50Z</time>
      </trkpt>
      <trkpt lat="47.79674" lon="3.57094">
        <ele>176</ele>
        <time>2019-04-01T14:49:55Z</time>
      </trkpt>
      <trkpt lat="47.7968" lon="3.571">
        <ele>176</ele>
        <time>2019-04-01T14:49:59Z</time>
      </trkpt>
      <trkpt lat="47.79683" lon="3.57106">
        <ele>176</ele>
        <time>2019-04-01T14:50:03Z</time>
      </trkpt>
      <trkpt lat="47.79685" lon="3.57114">
        <ele>175</ele>
        <time>2019-04-01T14:50:07Z</time>
      </trkpt>
      <trkpt lat="47.79688" lon="3.57118">
        <ele>175</ele>
        <time>2019-04-01T14:50:10Z</time>
      </trkpt>
      <trkpt lat="47.7969" lon="3.5712">
        <ele>174</ele>
        <time>2019-04-01T14:50:12Z</time>
      </trkpt>
      <trkpt lat="47.79692" lon="3.57122">
        <ele>173</ele>
        <time>2019-04-01T14:50:15Z</time>
      </trkpt>
      <trkpt lat="47.79692" lon="3.57122">
        <ele>173</ele>
        <time>2019-04-01T14:50:26Z</time>
      </trkpt>
      <trkpt lat="47.79697" lon="3.57123">
        <ele>171</ele>
        <time>2019-04-01T14:50:35Z</time>
      </trkpt>
      <trkpt lat="47.79702" lon="3.57128">
        <ele>172</ele>
        <time>2019-04-01T14:50:39Z</time>
      </trkpt>
      <trkpt lat="47.79706" lon="3.57137">
        <ele>174</ele>
        <time>2019-04-01T14:50:45Z</time>
      </trkpt>
      <trkpt lat="47.79711" lon="3.57143">
        <ele>174</ele>
        <time>2019-04-01T14:50:51Z</time>
      </trkpt>
      <trkpt lat="47.79712" lon="3.57146">
        <ele>175</ele>
        <time>2019-04-01T14:50:54Z</time>
      </trkpt>
      <trkpt lat="47.79714" lon="3.57155">
        <ele>176</ele>
        <time>2019-04-01T14:50:58Z</time>
      </trkpt>
      <trkpt lat="47.79715" lon="3.57158">
        <ele>176</ele>
        <time>2019-04-01T14:51:00Z</time>
      </trkpt>
      <trkpt lat="47.79717" lon="3.57165">
        <ele>176</ele>
        <time>2019-04-01T14:51:05Z</time>
      </trkpt>
      <trkpt lat="47.79718" lon="3.57171">
        <ele>174</ele>
        <time>2019-04-01T14:51:10Z</time>
      </trkpt>
      <trkpt lat="47.79726" lon="3.5717">
        <ele>174</ele>
        <time>2019-04-01T14:51:15Z</time>
      </trkpt>
      <trkpt lat="47.7973" lon="3.57169">
        <ele>173</ele>
        <time>2019-04-01T14:51:22Z</time>
      </trkpt>
      <trkpt lat="47.7973" lon="3.57169">
        <ele>173</ele>
        <time>2019-04-01T14:53:24Z</time>
      </trkpt>
      <trkpt lat="47.79745" lon="3.57191">
        <ele>167</ele>
        <time>2019-04-01T14:53:29Z</time>
      </trkpt>
      <trkpt lat="47.79749" lon="3.57198">
        <ele>168</ele>
        <time>2019-04-01T14:53:35Z</time>
      </trkpt>
      <trkpt lat="47.7975" lon="3.57201">
        <ele>168</ele>
        <time>2019-04-01T14:53:39Z</time>
      </trkpt>
      <trkpt lat="47.79755" lon="3.57205">
        <ele>165</ele>
        <time>2019-04-01T14:53:43Z</time>
      </trkpt>
      <trkpt lat="47.79761" lon="3.5721">
        <ele>167</ele>
        <time>2019-04-01T14:53:50Z</time>
      </trkpt>
      <trkpt lat="47.79764" lon="3.57215">
        <ele>169</ele>
        <time>2019-04-01T14:53:58Z</time>
      </trkpt>
      <trkpt lat="47.79764" lon="3.57215">
        <ele>169</ele>
        <time>2019-04-01T14:56:21Z</time>
      </trkpt>
      <trkpt lat="47.79792" lon="3.57273">
        <ele>174</ele>
        <time>2019-04-01T14:56:28Z</time>
      </trkpt>
      <trkpt lat="47.79788" lon="3.5728">
        <ele>184</ele>
        <time>2019-04-01T14:56:33Z</time>
      </trkpt>
      <trkpt lat="47.79797" lon="3.57286">
        <ele>176</ele>
        <time>2019-04-01T14:56:39Z</time>
      </trkpt>
      <trkpt lat="47.79788" lon="3.5728">
        <ele>184</ele>
        <time>2019-04-01T14:56:49Z</time>
      </trkpt>
      <trkpt lat="47.79793" lon="3.57299">
        <ele>173</ele>
        <time>2019-04-01T14:57:41Z</time>
      </trkpt>
      <trkpt lat="47.79801" lon="3.5732">
        <ele>174</ele>
        <time>2019-04-01T14:57:49Z</time>
      </trkpt>
      <trkpt lat="47.79805" lon="3.57325">
        <ele>174</ele>
        <time>2019-04-01T14:57:51Z</time>
      </trkpt>
      <trkpt lat="47.79805" lon="3.57325">
        <ele>174</ele>
        <time>2019-04-01T14:57:56Z</time>
      </trkpt>
      <trkpt lat="47.79805" lon="3.57325">
        <ele>174</ele>
        <time>2019-04-01T14:57:57Z</time>
      </trkpt>
      <trkpt lat="47.79799" lon="3.57349">
        <ele>176</ele>
        <time>2019-04-01T14:58:46Z</time>
      </trkpt>
      <trkpt lat="47.79795" lon="3.57351">
        <ele>175</ele>
        <time>2019-04-01T14:58:52Z</time>
      </trkpt>
      <trkpt lat="47.79791" lon="3.57348">
        <ele>175</ele>
        <time>2019-04-01T14:58:58Z</time>
      </trkpt>
      <trkpt lat="47.79791" lon="3.57348">
        <ele>175</ele>
        <time>2019-04-01T14:59:06Z</time>
      </trkpt>
      <trkpt lat="47.79791" lon="3.57348">
        <ele>175</ele>
        <time>2019-04-01T14:59:07Z</time>
      </trkpt>
      <trkpt lat="47.79794" lon="3.57341">
        <ele>172</ele>
        <time>2019-04-01T14:59:09Z</time>
      </trkpt>
      <trkpt lat="47.79792" lon="3.57335">
        <ele>174</ele>
        <time>2019-04-01T14:59:22Z</time>
      </trkpt>
      <trkpt lat="47.79793" lon="3.57328">
        <ele>172</ele>
        <time>2019-04-01T14:59:30Z</time>
      </trkpt>
      <trkpt lat="47.79793" lon="3.5732">
        <ele>172</ele>
        <time>2019-04-01T14:59:40Z</time>
      </trkpt>
      <trkpt lat="47.79795" lon="3.57313">
        <ele>172</ele>
        <time>2019-04-01T14:59:47Z</time>
      </trkpt>
      <trkpt lat="47.79797" lon="3.57306">
        <ele>174</ele>
        <time>2019-04-01T14:59:51Z</time>
      </trkpt>
      <trkpt lat="47.79797" lon="3.57306">
        <ele>174</ele>
        <time>2019-04-01T14:59:58Z</time>
      </trkpt>
      <trkpt lat="47.79797" lon="3.57306">
        <ele>174</ele>
        <time>2019-04-01T15:00:00Z</time>
      </trkpt>
      <trkpt lat="47.79798" lon="3.57299">
        <ele>174</ele>
        <time>2019-04-01T15:00:06Z</time>
      </trkpt>
      <trkpt lat="47.798" lon="3.57292">
        <ele>176</ele>
        <time>2019-04-01T15:00:18Z</time>
      </trkpt>
      <trkpt lat="47.79796" lon="3.57286">
        <ele>176</ele>
        <time>2019-04-01T15:00:22Z</time>
      </trkpt>
      <trkpt lat="47.79793" lon="3.57277">
        <ele>177</ele>
        <time>2019-04-01T15:00:27Z</time>
      </trkpt>
      <trkpt lat="47.79793" lon="3.57269">
        <ele>176</ele>
        <time>2019-04-01T15:00:30Z</time>
      </trkpt>
      <trkpt lat="47.7979" lon="3.57258">
        <ele>175</ele>
        <time>2019-04-01T15:00:34Z</time>
      </trkpt>
      <trkpt lat="47.79788" lon="3.57252">
        <ele>174</ele>
        <time>2019-04-01T15:00:36Z</time>
      </trkpt>
      <trkpt lat="47.79783" lon="3.57244">
        <ele>173</ele>
        <time>2019-04-01T15:00:41Z</time>
      </trkpt>
      <trkpt lat="47.79776" lon="3.5724">
        <ele>173</ele>
        <time>2019-04-01T15:00:48Z</time>
      </trkpt>
      <trkpt lat="47.7978" lon="3.57227">
        <ele>174</ele>
        <time>2019-04-01T15:00:55Z</time>
      </trkpt>
      <trkpt lat="47.79773" lon="3.57206">
        <ele>174</ele>
        <time>2019-04-01T15:01:01Z</time>
      </trkpt>
      <trkpt lat="47.7977" lon="3.57189">
        <ele>174</ele>
        <time>2019-04-01T15:01:05Z</time>
      </trkpt>
      <trkpt lat="47.7977" lon="3.57196">
        <ele>182</ele>
        <time>2019-04-01T15:01:13Z</time>
      </trkpt>
      <trkpt lat="47.79765" lon="3.57195">
        <ele>181</ele>
        <time>2019-04-01T15:01:17Z</time>
      </trkpt>
      <trkpt lat="47.79761" lon="3.57198">
        <ele>177</ele>
        <time>2019-04-01T15:01:22Z</time>
      </trkpt>
      <trkpt lat="47.79758" lon="3.57204">
        <ele>177</ele>
        <time>2019-04-01T15:01:26Z</time>
      </trkpt>
      <trkpt lat="47.79756" lon="3.57211">
        <ele>176</ele>
        <time>2019-04-01T15:01:30Z</time>
      </trkpt>
      <trkpt lat="47.79755" lon="3.57217">
        <ele>176</ele>
        <time>2019-04-01T15:01:40Z</time>
      </trkpt>
      <trkpt lat="47.79758" lon="3.57224">
        <ele>173</ele>
        <time>2019-04-01T15:04:46Z</time>
      </trkpt>
      <trkpt lat="47.79763" lon="3.57224">
        <ele>173</ele>
        <time>2019-04-01T15:04:55Z</time>
      </trkpt>
      <trkpt lat="47.79767" lon="3.5722">
        <ele>173</ele>
        <time>2019-04-01T15:05:02Z</time>
      </trkpt>
      <trkpt lat="47.79773" lon="3.57217">
        <ele>175</ele>
        <time>2019-04-01T15:05:08Z</time>
      </trkpt>
      <trkpt lat="47.79778" lon="3.57216">
        <ele>175</ele>
        <time>2019-04-01T15:05:15Z</time>
      </trkpt>
      <trkpt lat="47.79783" lon="3.57214">
        <ele>174</ele>
        <time>2019-04-01T15:05:20Z</time>
      </trkpt>
      <trkpt lat="47.79786" lon="3.57213">
        <ele>175</ele>
        <time>2019-04-01T15:05:26Z</time>
      </trkpt>
      <trkpt lat="47.79793" lon="3.57218">
        <ele>173</ele>
        <time>2019-04-01T15:05:32Z</time>
      </trkpt>
      <trkpt lat="47.79797" lon="3.57224">
        <ele>170</ele>
        <time>2019-04-01T15:05:36Z</time>
      </trkpt>
      <trkpt lat="47.798" lon="3.57228">
        <ele>169</ele>
        <time>2019-04-01T15:05:39Z</time>
      </trkpt>
      <trkpt lat="47.79801" lon="3.57236">
        <ele>168</ele>
        <time>2019-04-01T15:05:44Z</time>
      </trkpt>
      <trkpt lat="47.79803" lon="3.57243">
        <ele>167</ele>
        <time>2019-04-01T15:05:49Z</time>
      </trkpt>
      <trkpt lat="47.79805" lon="3.57249">
        <ele>166</ele>
        <time>2019-04-01T15:05:54Z</time>
      </trkpt>
      <trkpt lat="47.79806" lon="3.57253">
        <ele>165</ele>
        <time>2019-04-01T15:05:56Z</time>
      </trkpt>
      <trkpt lat="47.79806" lon="3.57256">
        <ele>164</ele>
        <time>2019-04-01T15:05:58Z</time>
      </trkpt>
      <trkpt lat="47.79807" lon="3.57264">
        <ele>164</ele>
        <time>2019-04-01T15:06:03Z</time>
      </trkpt>
      <trkpt lat="47.79808" lon="3.57269">
        <ele>164</ele>
        <time>2019-04-01T15:06:06Z</time>
      </trkpt>
      <trkpt lat="47.79809" lon="3.57277">
        <ele>163</ele>
        <time>2019-04-01T15:06:11Z</time>
      </trkpt>
      <trkpt lat="47.79807" lon="3.57283">
        <ele>164</ele>
        <time>2019-04-01T15:06:16Z</time>
      </trkpt>
      <trkpt lat="47.7981" lon="3.57288">
        <ele>163</ele>
        <time>2019-04-01T15:06:21Z</time>
      </trkpt>
      <trkpt lat="47.79815" lon="3.5729">
        <ele>163</ele>
        <time>2019-04-01T15:06:27Z</time>
      </trkpt>
      <trkpt lat="47.79822" lon="3.57291">
        <ele>163</ele>
        <time>2019-04-01T15:06:32Z</time>
      </trkpt>
      <trkpt lat="47.79826" lon="3.57291">
        <ele>164</ele>
        <time>2019-04-01T15:06:34Z</time>
      </trkpt>
      <trkpt lat="47.79831" lon="3.57294">
        <ele>164</ele>
        <time>2019-04-01T15:06:38Z</time>
      </trkpt>
      <trkpt lat="47.79836" lon="3.57301">
        <ele>165</ele>
        <time>2019-04-01T15:06:43Z</time>
      </trkpt>
      <trkpt lat="47.79837" lon="3.5731">
        <ele>165</ele>
        <time>2019-04-01T15:06:48Z</time>
      </trkpt>
      <trkpt lat="47.79839" lon="3.57317">
        <ele>166</ele>
        <time>2019-04-01T15:06:52Z</time>
      </trkpt>
      <trkpt lat="47.79843" lon="3.5732">
        <ele>167</ele>
        <time>2019-04-01T15:06:56Z</time>
      </trkpt>
      <trkpt lat="47.79849" lon="3.57323">
        <ele>168</ele>
        <time>2019-04-01T15:07:03Z</time>
      </trkpt>
      <trkpt lat="47.79851" lon="3.57323">
        <ele>168</ele>
        <time>2019-04-01T15:07:06Z</time>
      </trkpt>
      <trkpt lat="47.79857" lon="3.57325">
        <ele>171</ele>
        <time>2019-04-01T15:07:12Z</time>
      </trkpt>
      <trkpt lat="47.79862" lon="3.57326">
        <ele>171</ele>
        <time>2019-04-01T15:07:15Z</time>
      </trkpt>
      <trkpt lat="47.79865" lon="3.57326">
        <ele>172</ele>
        <time>2019-04-01T15:07:17Z</time>
      </trkpt>
      <trkpt lat="47.7987" lon="3.5733">
        <ele>172</ele>
        <time>2019-04-01T15:07:21Z</time>
      </trkpt>
      <trkpt lat="47.79872" lon="3.57339">
        <ele>170</ele>
        <time>2019-04-01T15:07:25Z</time>
      </trkpt>
      <trkpt lat="47.79874" lon="3.57345">
        <ele>171</ele>
        <time>2019-04-01T15:07:29Z</time>
      </trkpt>
      <trkpt lat="47.79881" lon="3.57346">
        <ele>171</ele>
        <time>2019-04-01T15:07:33Z</time>
      </trkpt>
      <trkpt lat="47.79886" lon="3.57344">
        <ele>170</ele>
        <time>2019-04-01T15:07:36Z</time>
      </trkpt>
      <trkpt lat="47.79893" lon="3.57343">
        <ele>169</ele>
        <time>2019-04-01T15:07:41Z</time>
      </trkpt>
      <trkpt lat="47.79896" lon="3.57335">
        <ele>169</ele>
        <time>2019-04-01T15:07:45Z</time>
      </trkpt>
      <trkpt lat="47.799" lon="3.57331">
        <ele>170</ele>
        <time>2019-04-01T15:07:49Z</time>
      </trkpt>
      <trkpt lat="47.79904" lon="3.57328">
        <ele>171</ele>
        <time>2019-04-01T15:07:54Z</time>
      </trkpt>
      <trkpt lat="47.79909" lon="3.57327">
        <ele>171</ele>
        <time>2019-04-01T15:07:59Z</time>
      </trkpt>
      <trkpt lat="47.79911" lon="3.57339">
        <ele>169</ele>
        <time>2019-04-01T15:08:05Z</time>
      </trkpt>
      <trkpt lat="47.7991" lon="3.57347">
        <ele>167</ele>
        <time>2019-04-01T15:08:09Z</time>
      </trkpt>
      <trkpt lat="47.79909" lon="3.57354">
        <ele>165</ele>
        <time>2019-04-01T15:08:14Z</time>
      </trkpt>
      <trkpt lat="47.79909" lon="3.5736">
        <ele>165</ele>
        <time>2019-04-01T15:08:18Z</time>
      </trkpt>
      <trkpt lat="47.79912" lon="3.57368">
        <ele>165</ele>
        <time>2019-04-01T15:08:21Z</time>
      </trkpt>
      <trkpt lat="47.79914" lon="3.57371">
        <ele>164</ele>
        <time>2019-04-01T15:08:23Z</time>
      </trkpt>
      <trkpt lat="47.79911" lon="3.57378">
        <ele>162</ele>
        <time>2019-04-01T15:08:27Z</time>
      </trkpt>
      <trkpt lat="47.79913" lon="3.57387">
        <ele>162</ele>
        <time>2019-04-01T15:08:33Z</time>
      </trkpt>
      <trkpt lat="47.79914" lon="3.57391">
        <ele>162</ele>
        <time>2019-04-01T15:08:35Z</time>
      </trkpt>
      <trkpt lat="47.79915" lon="3.57399">
        <ele>162</ele>
        <time>2019-04-01T15:08:40Z</time>
      </trkpt>
      <trkpt lat="47.7992" lon="3.57401">
        <ele>160</ele>
        <time>2019-04-01T15:08:46Z</time>
      </trkpt>
      <trkpt lat="47.79923" lon="3.57402">
        <ele>159</ele>
        <time>2019-04-01T15:08:48Z</time>
      </trkpt>
      <trkpt lat="47.79925" lon="3.57403">
        <ele>158</ele>
        <time>2019-04-01T15:08:52Z</time>
      </trkpt>
      <trkpt lat="47.79929" lon="3.57397">
        <ele>159</ele>
        <time>2019-04-01T15:09:00Z</time>
      </trkpt>
      <trkpt lat="47.79935" lon="3.57397">
        <ele>160</ele>
        <time>2019-04-01T15:09:07Z</time>
      </trkpt>
      <trkpt lat="47.7994" lon="3.57398">
        <ele>158</ele>
        <time>2019-04-01T15:09:10Z</time>
      </trkpt>
      <trkpt lat="47.79945" lon="3.57398">
        <ele>157</ele>
        <time>2019-04-01T15:09:13Z</time>
      </trkpt>
      <trkpt lat="47.7995" lon="3.57403">
        <ele>153</ele>
        <time>2019-04-01T15:09:18Z</time>
      </trkpt>
      <trkpt lat="47.79951" lon="3.57406">
        <ele>150</ele>
        <time>2019-04-01T15:09:27Z</time>
      </trkpt>
      <trkpt lat="47.79951" lon="3.57436">
        <ele>146</ele>
        <time>2019-04-01T15:11:18Z</time>
      </trkpt>
      <trkpt lat="47.79949" lon="3.57444">
        <ele>147</ele>
        <time>2019-04-01T15:11:22Z</time>
      </trkpt>
      <trkpt lat="47.79948" lon="3.57452">
        <ele>147</ele>
        <time>2019-04-01T15:11:29Z</time>
      </trkpt>
      <trkpt lat="47.79948" lon="3.57456">
        <ele>145</ele>
        <time>2019-04-01T15:11:37Z</time>
      </trkpt>
      <trkpt lat="47.79945" lon="3.5746">
        <ele>145</ele>
        <time>2019-04-01T15:11:46Z</time>
      </trkpt>
      <trkpt lat="47.7994" lon="3.57459">
        <ele>147</ele>
        <time>2019-04-01T15:11:52Z</time>
      </trkpt>
      <trkpt lat="47.79935" lon="3.57458">
        <ele>148</ele>
        <time>2019-04-01T15:11:58Z</time>
      </trkpt>
      <trkpt lat="47.79932" lon="3.57457">
        <ele>149</ele>
        <time>2019-04-01T15:12:02Z</time>
      </trkpt>
      <trkpt lat="47.79928" lon="3.57457">
        <ele>148</ele>
        <time>2019-04-01T15:12:06Z</time>
      </trkpt>
      <trkpt lat="47.79923" lon="3.57458">
        <ele>148</ele>
        <time>2019-04-01T15:12:11Z</time>
      </trkpt>
      <trkpt lat="47.79919" lon="3.57456">
        <ele>145</ele>
        <time>2019-04-01T15:12:16Z</time>
      </trkpt>
      <trkpt lat="47.79916" lon="3.57455">
        <ele>144</ele>
        <time>2019-04-01T15:12:18Z</time>
      </trkpt>
      <trkpt lat="47.79911" lon="3.57457">
        <ele>145</ele>
        <time>2019-04-01T15:12:22Z</time>
      </trkpt>
      <trkpt lat="47.79906" lon="3.57457">
        <ele>144</ele>
        <time>2019-04-01T15:12:26Z</time>
      </trkpt>
      <trkpt lat="47.799" lon="3.57455">
        <ele>142</ele>
        <time>2019-04-01T15:12:30Z</time>
      </trkpt>
      <trkpt lat="47.79895" lon="3.57454">
        <ele>142</ele>
        <time>2019-04-01T15:12:34Z</time>
      </trkpt>
      <trkpt lat="47.7989" lon="3.57457">
        <ele>143</ele>
        <time>2019-04-01T15:12:38Z</time>
      </trkpt>
      <trkpt lat="47.79886" lon="3.57459">
        <ele>144</ele>
        <time>2019-04-01T15:12:42Z</time>
      </trkpt>
      <trkpt lat="47.79879" lon="3.57459">
        <ele>146</ele>
        <time>2019-04-01T15:12:49Z</time>
      </trkpt>
      <trkpt lat="47.79872" lon="3.57461">
        <ele>147</ele>
        <time>2019-04-01T15:12:55Z</time>
      </trkpt>
      <trkpt lat="47.79866" lon="3.57461">
        <ele>147</ele>
        <time>2019-04-01T15:13:01Z</time>
      </trkpt>
      <trkpt lat="47.79863" lon="3.57462">
        <ele>147</ele>
        <time>2019-04-01T15:13:04Z</time>
      </trkpt>
      <trkpt lat="47.7986" lon="3.57462">
        <ele>147</ele>
        <time>2019-04-01T15:13:06Z</time>
      </trkpt>
      <trkpt lat="47.79856" lon="3.57465">
        <ele>146</ele>
        <time>2019-04-01T15:13:10Z</time>
      </trkpt>
      <trkpt lat="47.79851" lon="3.57466">
        <ele>145</ele>
        <time>2019-04-01T15:13:14Z</time>
      </trkpt>
      <trkpt lat="47.79846" lon="3.57468">
        <ele>145</ele>
        <time>2019-04-01T15:13:19Z</time>
      </trkpt>
      <trkpt lat="47.79844" lon="3.5747">
        <ele>145</ele>
        <time>2019-04-01T15:13:21Z</time>
      </trkpt>
      <trkpt lat="47.79837" lon="3.5747">
        <ele>146</ele>
        <time>2019-04-01T15:13:27Z</time>
      </trkpt>
      <trkpt lat="47.79833" lon="3.57468">
        <ele>146</ele>
        <time>2019-04-01T15:13:31Z</time>
      </trkpt>
      <trkpt lat="47.79827" lon="3.57468">
        <ele>146</ele>
        <time>2019-04-01T15:13:35Z</time>
      </trkpt>
      <trkpt lat="47.79822" lon="3.57467">
        <ele>146</ele>
        <time>2019-04-01T15:13:39Z</time>
      </trkpt>
      <trkpt lat="47.7982" lon="3.57467">
        <ele>145</ele>
        <time>2019-04-01T15:13:41Z</time>
      </trkpt>
      <trkpt lat="47.79815" lon="3.57466">
        <ele>146</ele>
        <time>2019-04-01T15:13:45Z</time>
      </trkpt>
      <trkpt lat="47.79809" lon="3.57467">
        <ele>147</ele>
        <time>2019-04-01T15:13:51Z</time>
      </trkpt>
      <trkpt lat="47.79804" lon="3.57468">
        <ele>147</ele>
        <time>2019-04-01T15:13:57Z</time>
      </trkpt>
      <trkpt lat="47.79801" lon="3.57469">
        <ele>147</ele>
        <time>2019-04-01T15:14:00Z</time>
      </trkpt>
      <trkpt lat="47.79797" lon="3.57465">
        <ele>146</ele>
        <time>2019-04-01T15:14:09Z</time>
      </trkpt>
      <trkpt lat="47.79796" lon="3.57456">
        <ele>147</ele>
        <time>2019-04-01T15:14:17Z</time>
      </trkpt>
      <trkpt lat="47.79793" lon="3.57448">
        <ele>147</ele>
        <time>2019-04-01T15:14:22Z</time>
      </trkpt>
      <trkpt lat="47.79791" lon="3.57441">
        <ele>149</ele>
        <time>2019-04-01T15:14:26Z</time>
      </trkpt>
      <trkpt lat="47.7979" lon="3.57434">
        <ele>151</ele>
        <time>2019-04-01T15:14:33Z</time>
      </trkpt>
      <trkpt lat="47.79789" lon="3.57431">
        <ele>151</ele>
        <time>2019-04-01T15:14:35Z</time>
      </trkpt>
      <trkpt lat="47.79786" lon="3.57426">
        <ele>154</ele>
        <time>2019-04-01T15:14:41Z</time>
      </trkpt>
      <trkpt lat="47.79785" lon="3.57419">
        <ele>154</ele>
        <time>2019-04-01T15:14:45Z</time>
      </trkpt>
      <trkpt lat="47.79782" lon="3.57412">
        <ele>156</ele>
        <time>2019-04-01T15:14:53Z</time>
      </trkpt>
      <trkpt lat="47.79778" lon="3.57404">
        <ele>156</ele>
        <time>2019-04-01T15:14:57Z</time>
      </trkpt>
      <trkpt lat="47.79774" lon="3.57401">
        <ele>157</ele>
        <time>2019-04-01T15:15:06Z</time>
      </trkpt>
      <trkpt lat="47.79767" lon="3.57404">
        <ele>161</ele>
        <time>2019-04-01T15:15:15Z</time>
      </trkpt>
      <trkpt lat="47.79765" lon="3.57406">
        <ele>162</ele>
        <time>2019-04-01T15:15:17Z</time>
      </trkpt>
      <trkpt lat="47.7976" lon="3.57403">
        <ele>163</ele>
        <time>2019-04-01T15:15:22Z</time>
      </trkpt>
      <trkpt lat="47.79755" lon="3.57404">
        <ele>163</ele>
        <time>2019-04-01T15:15:25Z</time>
      </trkpt>
      <trkpt lat="47.79749" lon="3.57403">
        <ele>164</ele>
        <time>2019-04-01T15:15:28Z</time>
      </trkpt>
      <trkpt lat="47.79745" lon="3.57402">
        <ele>165</ele>
        <time>2019-04-01T15:15:32Z</time>
      </trkpt>
      <trkpt lat="47.7974" lon="3.57402">
        <ele>166</ele>
        <time>2019-04-01T15:15:37Z</time>
      </trkpt>
      <trkpt lat="47.79734" lon="3.57401">
        <ele>166</ele>
        <time>2019-04-01T15:15:42Z</time>
      </trkpt>
      <trkpt lat="47.79733" lon="3.57393">
        <ele>163</ele>
        <time>2019-04-01T15:15:48Z</time>
      </trkpt>
      <trkpt lat="47.79732" lon="3.57388">
        <ele>162</ele>
        <time>2019-04-01T15:15:53Z</time>
      </trkpt>
      <trkpt lat="47.79732" lon="3.57383">
        <ele>161</ele>
        <time>2019-04-01T15:15:58Z</time>
      </trkpt>
      <trkpt lat="47.79731" lon="3.57379">
        <ele>162</ele>
        <time>2019-04-01T15:16:01Z</time>
      </trkpt>
      <trkpt lat="47.79728" lon="3.57372">
        <ele>162</ele>
        <time>2019-04-01T15:16:06Z</time>
      </trkpt>
      <trkpt lat="47.79728" lon="3.57365">
        <ele>162</ele>
        <time>2019-04-01T15:16:10Z</time>
      </trkpt>
      <trkpt lat="47.79725" lon="3.5736">
        <ele>161</ele>
        <time>2019-04-01T15:16:13Z</time>
      </trkpt>
      <trkpt lat="47.79725" lon="3.57353">
        <ele>162</ele>
        <time>2019-04-01T15:16:17Z</time>
      </trkpt>
      <trkpt lat="47.79725" lon="3.57349">
        <ele>162</ele>
        <time>2019-04-01T15:16:19Z</time>
      </trkpt>
      <trkpt lat="47.79725" lon="3.57342">
        <ele>163</ele>
        <time>2019-04-01T15:16:24Z</time>
      </trkpt>
      <trkpt lat="47.79724" lon="3.57336">
        <ele>164</ele>
        <time>2019-04-01T15:16:29Z</time>
      </trkpt>
      <trkpt lat="47.79725" lon="3.57328">
        <ele>164</ele>
        <time>2019-04-01T15:16:33Z</time>
      </trkpt>
      <trkpt lat="47.79725" lon="3.5732">
        <ele>164</ele>
        <time>2019-04-01T15:16:39Z</time>
      </trkpt>
      <trkpt lat="47.79723" lon="3.57313">
        <ele>163</ele>
        <time>2019-04-01T15:16:45Z</time>
      </trkpt>
      <trkpt lat="47.79725" lon="3.57307">
        <ele>164</ele>
        <time>2019-04-01T15:16:53Z</time>
      </trkpt>
      <trkpt lat="47.79726" lon="3.57302">
        <ele>165</ele>
        <time>2019-04-01T15:16:57Z</time>
      </trkpt>
      <trkpt lat="47.79731" lon="3.57299">
        <ele>164</ele>
        <time>2019-04-01T15:17:00Z</time>
      </trkpt>
      <trkpt lat="47.79732" lon="3.57292">
        <ele>164</ele>
        <time>2019-04-01T15:17:06Z</time>
      </trkpt>
      <trkpt lat="47.79731" lon="3.57285">
        <ele>166</ele>
        <time>2019-04-01T15:17:11Z</time>
      </trkpt>
      <trkpt lat="47.7973" lon="3.57278">
        <ele>165</ele>
        <time>2019-04-01T15:17:16Z</time>
      </trkpt>
      <trkpt lat="47.79729" lon="3.57274">
        <ele>166</ele>
        <time>2019-04-01T15:17:19Z</time>
      </trkpt>
      <trkpt lat="47.79725" lon="3.57266">
        <ele>166</ele>
        <time>2019-04-01T15:17:25Z</time>
      </trkpt>
      <trkpt lat="47.79723" lon="3.57263">
        <ele>168</ele>
        <time>2019-04-01T15:17:28Z</time>
      </trkpt>
      <trkpt lat="47.79722" lon="3.5726">
        <ele>167</ele>
        <time>2019-04-01T15:17:30Z</time>
      </trkpt>
      <trkpt lat="47.79719" lon="3.57254">
        <ele>165</ele>
        <time>2019-04-01T15:17:38Z</time>
      </trkpt>
      <trkpt lat="47.79715" lon="3.57248">
        <ele>168</ele>
        <time>2019-04-01T15:17:44Z</time>
      </trkpt>
      <trkpt lat="47.79711" lon="3.57244">
        <ele>170</ele>
        <time>2019-04-01T15:17:50Z</time>
      </trkpt>
      <trkpt lat="47.79705" lon="3.57239">
        <ele>169</ele>
        <time>2019-04-01T15:17:56Z</time>
      </trkpt>
      <trkpt lat="47.79703" lon="3.57237">
        <ele>168</ele>
        <time>2019-04-01T15:17:58Z</time>
      </trkpt>
      <trkpt lat="47.79699" lon="3.57229">
        <ele>170</ele>
        <time>2019-04-01T15:18:05Z</time>
      </trkpt>
      <trkpt lat="47.79696" lon="3.57225">
        <ele>171</ele>
        <time>2019-04-01T15:18:09Z</time>
      </trkpt>
      <trkpt lat="47.79692" lon="3.57221">
        <ele>172</ele>
        <time>2019-04-01T15:18:15Z</time>
      </trkpt>
      <trkpt lat="47.7969" lon="3.57214">
        <ele>172</ele>
        <time>2019-04-01T15:18:19Z</time>
      </trkpt>
      <trkpt lat="47.79687" lon="3.57207">
        <ele>173</ele>
        <time>2019-04-01T15:18:24Z</time>
      </trkpt>
      <trkpt lat="47.79683" lon="3.57203">
        <ele>173</ele>
        <time>2019-04-01T15:18:28Z</time>
      </trkpt>
      <trkpt lat="47.79681" lon="3.57197">
        <ele>173</ele>
        <time>2019-04-01T15:18:32Z</time>
      </trkpt>
      <trkpt lat="47.79678" lon="3.57189">
        <ele>175</ele>
        <time>2019-04-01T15:18:37Z</time>
      </trkpt>
      <trkpt lat="47.79674" lon="3.57187">
        <ele>174</ele>
        <time>2019-04-01T15:18:45Z</time>
      </trkpt>
      <trkpt lat="47.7968" lon="3.57178">
        <ele>176</ele>
        <time>2019-04-01T15:18:54Z</time>
      </trkpt>
      <trkpt lat="47.79685" lon="3.57174">
        <ele>175</ele>
        <time>2019-04-01T15:18:58Z</time>
      </trkpt>
      <trkpt lat="47.79688" lon="3.57169">
        <ele>176</ele>
        <time>2019-04-01T15:19:05Z</time>
      </trkpt>
      <trkpt lat="47.7969" lon="3.57165">
        <ele>176</ele>
        <time>2019-04-01T15:19:08Z</time>
      </trkpt>
      <trkpt lat="47.79693" lon="3.57158">
        <ele>177</ele>
        <time>2019-04-01T15:19:13Z</time>
      </trkpt>
      <trkpt lat="47.79699" lon="3.57153">
        <ele>178</ele>
        <time>2019-04-01T15:19:19Z</time>
      </trkpt>
      <trkpt lat="47.79704" lon="3.57148">
        <ele>176</ele>
        <time>2019-04-01T15:19:23Z</time>
      </trkpt>
      <trkpt lat="47.79702" lon="3.5714">
        <ele>177</ele>
        <time>2019-04-01T15:19:29Z</time>
      </trkpt>
      <trkpt lat="47.79699" lon="3.57134">
        <ele>177</ele>
        <time>2019-04-01T15:19:35Z</time>
      </trkpt>
      <trkpt lat="47.79692" lon="3.57128">
        <ele>179</ele>
        <time>2019-04-01T15:19:42Z</time>
      </trkpt>
      <trkpt lat="47.79689" lon="3.57122">
        <ele>179</ele>
        <time>2019-04-01T15:19:45Z</time>
      </trkpt>
      <trkpt lat="47.79688" lon="3.57119">
        <ele>179</ele>
        <time>2019-04-01T15:19:47Z</time>
      </trkpt>
      <trkpt lat="47.79683" lon="3.57113">
        <ele>181</ele>
        <time>2019-04-01T15:19:53Z</time>
      </trkpt>
      <trkpt lat="47.79679" lon="3.57107">
        <ele>181</ele>
        <time>2019-04-01T15:19:57Z</time>
      </trkpt>
      <trkpt lat="47.79677" lon="3.57099">
        <ele>180</ele>
        <time>2019-04-01T15:20:01Z</time>
      </trkpt>
      <trkpt lat="47.79676" lon="3.57095">
        <ele>179</ele>
        <time>2019-04-01T15:20:03Z</time>
      </trkpt>
      <trkpt lat="47.79674" lon="3.57089">
        <ele>179</ele>
        <time>2019-04-01T15:20:06Z</time>
      </trkpt>
      <trkpt lat="47.79672" lon="3.57081">
        <ele>177</ele>
        <time>2019-04-01T15:20:10Z</time>
      </trkpt>
      <trkpt lat="47.79669" lon="3.57073">
        <ele>177</ele>
        <time>2019-04-01T15:20:15Z</time>
      </trkpt>
      <trkpt lat="47.79668" lon="3.57065">
        <ele>177</ele>
        <time>2019-04-01T15:20:21Z</time>
      </trkpt>
      <trkpt lat="47.79666" lon="3.57059">
        <ele>178</ele>
        <time>2019-04-01T15:20:26Z</time>
      </trkpt>
      <trkpt lat="47.79662" lon="3.57053">
        <ele>178</ele>
        <time>2019-04-01T15:20:31Z</time>
      </trkpt>
      <trkpt lat="47.79659" lon="3.57044">
        <ele>179</ele>
        <time>2019-04-01T15:20:36Z</time>
      </trkpt>
      <trkpt lat="47.79658" lon="3.57041">
        <ele>180</ele>
        <time>2019-04-01T15:20:38Z</time>
      </trkpt>
      <trkpt lat="47.79653" lon="3.57041">
        <ele>180</ele>
        <time>2019-04-01T15:20:41Z</time>
      </trkpt>
      <trkpt lat="47.79646" lon="3.57047">
        <ele>180</ele>
        <time>2019-04-01T15:20:44Z</time>
      </trkpt>
      <trkpt lat="47.79644" lon="3.57048">
        <ele>181</ele>
        <time>2019-04-01T15:20:47Z</time>
      </trkpt>
      <trkpt lat="47.7964" lon="3.57052">
        <ele>181</ele>
        <time>2019-04-01T15:20:50Z</time>
      </trkpt>
      <trkpt lat="47.79636" lon="3.57057">
        <ele>182</ele>
        <time>2019-04-01T15:20:53Z</time>
      </trkpt>
      <trkpt lat="47.79631" lon="3.57057">
        <ele>182</ele>
        <time>2019-04-01T15:20:56Z</time>
      </trkpt>
      <trkpt lat="47.79626" lon="3.57056">
        <ele>182</ele>
        <time>2019-04-01T15:21:02Z</time>
      </trkpt>
      <trkpt lat="47.79622" lon="3.57051">
        <ele>182</ele>
        <time>2019-04-01T15:21:11Z</time>
      </trkpt>
      <trkpt lat="47.7962" lon="3.57048">
        <ele>184</ele>
        <time>2019-04-01T15:21:23Z</time>
      </trkpt>
      <trkpt lat="47.79618" lon="3.57045">
        <ele>184</ele>
        <time>2019-04-01T15:21:40Z</time>
      </trkpt>
      <trkpt lat="47.79616" lon="3.57042">
        <ele>184</ele>
        <time>2019-04-01T15:21:47Z</time>
      </trkpt>
      <trkpt lat="47.79614" lon="3.57038">
        <ele>185</ele>
        <time>2019-04-01T15:21:51Z</time>
      </trkpt>
      <trkpt lat="47.79612" lon="3.57032">
        <ele>186</ele>
        <time>2019-04-01T15:22:01Z</time>
      </trkpt>
      <trkpt lat="47.79613" lon="3.57025">
        <ele>186</ele>
        <time>2019-04-01T15:22:06Z</time>
      </trkpt>
      <trkpt lat="47.7961" lon="3.57019">
        <ele>188</ele>
        <time>2019-04-01T15:22:32Z</time>
      </trkpt>
      <trkpt lat="47.79609" lon="3.57012">
        <ele>186</ele>
        <time>2019-04-01T15:22:42Z</time>
      </trkpt>
      <trkpt lat="47.79606" lon="3.57006">
        <ele>184</ele>
        <time>2019-04-01T15:22:46Z</time>
      </trkpt>
      <trkpt lat="47.79602" lon="3.56995">
        <ele>181</ele>
        <time>2019-04-01T15:22:53Z</time>
      </trkpt>
      <trkpt lat="47.79597" lon="3.5699">
        <ele>181</ele>
        <time>2019-04-01T15:23:08Z</time>
      </trkpt>
      <trkpt lat="47.79594" lon="3.56988">
        <ele>180</ele>
        <time>2019-04-01T15:23:11Z</time>
      </trkpt>
      <trkpt lat="47.79592" lon="3.56981">
        <ele>178</ele>
        <time>2019-04-01T15:23:20Z</time>
      </trkpt>
      <trkpt lat="47.79588" lon="3.56974">
        <ele>178</ele>
        <time>2019-04-01T15:23:24Z</time>
      </trkpt>
      <trkpt lat="47.79582" lon="3.56971">
        <ele>179</ele>
        <time>2019-04-01T15:23:34Z</time>
      </trkpt>
      <trkpt lat="47.7958" lon="3.56961">
        <ele>182</ele>
        <time>2019-04-01T15:23:46Z</time>
      </trkpt>
      <trkpt lat="47.79579" lon="3.56958">
        <ele>184</ele>
        <time>2019-04-01T15:23:50Z</time>
      </trkpt>
      <trkpt lat="47.79579" lon="3.56951">
        <ele>184</ele>
        <time>2019-04-01T15:23:53Z</time>
      </trkpt>
      <trkpt lat="47.79576" lon="3.56943">
        <ele>184</ele>
        <time>2019-04-01T15:23:56Z</time>
      </trkpt>
      <trkpt lat="47.79575" lon="3.56936">
        <ele>185</ele>
        <time>2019-04-01T15:24:00Z</time>
      </trkpt>
      <trkpt lat="47.79571" lon="3.5693">
        <ele>188</ele>
        <time>2019-04-01T15:24:06Z</time>
      </trkpt>
      <trkpt lat="47.79567" lon="3.56925">
        <ele>187</ele>
        <time>2019-04-01T15:24:14Z</time>
      </trkpt>
      <trkpt lat="47.7956" lon="3.56923">
        <ele>186</ele>
        <time>2019-04-01T15:24:30Z</time>
      </trkpt>
      <trkpt lat="47.79556" lon="3.56922">
        <ele>188</ele>
        <time>2019-04-01T15:24:34Z</time>
      </trkpt>
      <trkpt lat="47.7955" lon="3.56925">
        <ele>188</ele>
        <time>2019-04-01T15:24:39Z</time>
      </trkpt>
      <trkpt lat="47.79546" lon="3.56928">
        <ele>190</ele>
        <time>2019-04-01T15:24:44Z</time>
      </trkpt>
      <trkpt lat="47.79541" lon="3.56931">
        <ele>192</ele>
        <time>2019-04-01T15:24:51Z</time>
      </trkpt>
      <trkpt lat="47.79536" lon="3.56929">
        <ele>195</ele>
        <time>2019-04-01T15:24:58Z</time>
      </trkpt>
      <trkpt lat="47.79531" lon="3.56933">
        <ele>197</ele>
        <time>2019-04-01T15:25:03Z</time>
      </trkpt>
      <trkpt lat="47.79525" lon="3.56936">
        <ele>197</ele>
        <time>2019-04-01T15:25:06Z</time>
      </trkpt>
      <trkpt lat="47.79519" lon="3.56937">
        <ele>196</ele>
        <time>2019-04-01T15:25:09Z</time>
      </trkpt>
      <trkpt lat="47.79513" lon="3.56941">
        <ele>195</ele>
        <time>2019-04-01T15:25:14Z</time>
      </trkpt>
      <trkpt lat="47.79508" lon="3.56942">
        <ele>194</ele>
        <time>2019-04-01T15:25:20Z</time>
      </trkpt>
      <trkpt lat="47.79504" lon="3.56939">
        <ele>195</ele>
        <time>2019-04-01T15:25:25Z</time>
      </trkpt>
      <trkpt lat="47.79498" lon="3.56938">
        <ele>195</ele>
        <time>2019-04-01T15:25:29Z</time>
      </trkpt>
      <trkpt lat="47.79495" lon="3.56933">
        <ele>194</ele>
        <time>2019-04-01T15:25:33Z</time>
      </trkpt>
      <trkpt lat="47.79495" lon="3.56933">
        <ele>194</ele>
        <time>2019-04-01T15:25:40Z</time>
      </trkpt>
      <trkpt lat="47.79495" lon="3.56933">
        <ele>194</ele>
        <time>2019-04-01T15:25:41Z</time>
      </trkpt>
      <trkpt lat="47.79491" lon="3.56938">
        <ele>197</ele>
        <time>2019-04-01T15:25:56Z</time>
      </trkpt>
      <trkpt lat="47.79491" lon="3.56947">
        <ele>198</ele>
        <time>2019-04-01T15:26:00Z</time>
      </trkpt>
      <trkpt lat="47.79491" lon="3.56955">
        <ele>198</ele>
        <time>2019-04-01T15:26:04Z</time>
      </trkpt>
      <trkpt lat="47.79488" lon="3.56962">
        <ele>197</ele>
        <time>2019-04-01T15:26:08Z</time>
      </trkpt>
      <trkpt lat="47.79489" lon="3.56971">
        <ele>193</ele>
        <time>2019-04-01T15:26:12Z</time>
      </trkpt>
      <trkpt lat="47.79488" lon="3.56979">
        <ele>190</ele>
        <time>2019-04-01T15:26:16Z</time>
      </trkpt>
      <trkpt lat="47.79486" lon="3.56989">
        <ele>187</ele>
        <time>2019-04-01T15:26:22Z</time>
      </trkpt>
      <trkpt lat="47.79485" lon="3.56992">
        <ele>186</ele>
        <time>2019-04-01T15:26:24Z</time>
      </trkpt>
      <trkpt lat="47.79484" lon="3.56997">
        <ele>184</ele>
        <time>2019-04-01T15:26:27Z</time>
      </trkpt>
      <trkpt lat="47.79484" lon="3.57001">
        <ele>184</ele>
        <time>2019-04-01T15:26:29Z</time>
      </trkpt>
      <trkpt lat="47.79482" lon="3.57009">
        <ele>181</ele>
        <time>2019-04-01T15:26:34Z</time>
      </trkpt>
      <trkpt lat="47.79481" lon="3.57017">
        <ele>180</ele>
        <time>2019-04-01T15:26:38Z</time>
      </trkpt>
      <trkpt lat="47.79481" lon="3.57024">
        <ele>179</ele>
        <time>2019-04-01T15:26:43Z</time>
      </trkpt>
      <trkpt lat="47.79479" lon="3.57033">
        <ele>177</ele>
        <time>2019-04-01T15:26:49Z</time>
      </trkpt>
      <trkpt lat="47.79478" lon="3.57036">
        <ele>177</ele>
        <time>2019-04-01T15:26:51Z</time>
      </trkpt>
      <trkpt lat="47.79477" lon="3.57043">
        <ele>174</ele>
        <time>2019-04-01T15:26:57Z</time>
      </trkpt>
      <trkpt lat="47.79475" lon="3.5705">
        <ele>174</ele>
        <time>2019-04-01T15:27:01Z</time>
      </trkpt>
      <trkpt lat="47.79474" lon="3.57058">
        <ele>174</ele>
        <time>2019-04-01T15:27:06Z</time>
      </trkpt>
      <trkpt lat="47.79469" lon="3.57062">
        <ele>173</ele>
        <time>2019-04-01T15:27:12Z</time>
      </trkpt>
      <trkpt lat="47.79466" lon="3.57068">
        <ele>174</ele>
        <time>2019-04-01T15:27:17Z</time>
      </trkpt>
      <trkpt lat="47.79461" lon="3.57075">
        <ele>177</ele>
        <time>2019-04-01T15:27:23Z</time>
      </trkpt>
      <trkpt lat="47.79458" lon="3.57079">
        <ele>178</ele>
        <time>2019-04-01T15:27:27Z</time>
      </trkpt>
      <trkpt lat="47.79454" lon="3.57083">
        <ele>179</ele>
        <time>2019-04-01T15:27:30Z</time>
      </trkpt>
      <trkpt lat="47.79452" lon="3.57085">
        <ele>178</ele>
        <time>2019-04-01T15:27:33Z</time>
      </trkpt>
      <trkpt lat="47.79447" lon="3.57092">
        <ele>180</ele>
        <time>2019-04-01T15:27:42Z</time>
      </trkpt>
      <trkpt lat="47.79445" lon="3.57095">
        <ele>180</ele>
        <time>2019-04-01T15:27:44Z</time>
      </trkpt>
      <trkpt lat="47.7944" lon="3.571">
        <ele>182</ele>
        <time>2019-04-01T15:27:48Z</time>
      </trkpt>
      <trkpt lat="47.79436" lon="3.57106">
        <ele>182</ele>
        <time>2019-04-01T15:27:51Z</time>
      </trkpt>
      <trkpt lat="47.79433" lon="3.5711">
        <ele>183</ele>
        <time>2019-04-01T15:27:53Z</time>
      </trkpt>
      <trkpt lat="47.7943" lon="3.57112">
        <ele>184</ele>
        <time>2019-04-01T15:27:55Z</time>
      </trkpt>
      <trkpt lat="47.79424" lon="3.57116">
        <ele>185</ele>
        <time>2019-04-01T15:28:02Z</time>
      </trkpt>
      <trkpt lat="47.79421" lon="3.57118">
        <ele>185</ele>
        <time>2019-04-01T15:28:05Z</time>
      </trkpt>
      <trkpt lat="47.79416" lon="3.57125">
        <ele>188</ele>
        <time>2019-04-01T15:28:13Z</time>
      </trkpt>
      <trkpt lat="47.79413" lon="3.57131">
        <ele>188</ele>
        <time>2019-04-01T15:28:17Z</time>
      </trkpt>
      <trkpt lat="47.7941" lon="3.57138">
        <ele>187</ele>
        <time>2019-04-01T15:28:21Z</time>
      </trkpt>
      <trkpt lat="47.79404" lon="3.5714">
        <ele>187</ele>
        <time>2019-04-01T15:28:25Z</time>
      </trkpt>
      <trkpt lat="47.794" lon="3.57145">
        <ele>187</ele>
        <time>2019-04-01T15:28:28Z</time>
      </trkpt>
      <trkpt lat="47.79395" lon="3.57148">
        <ele>186</ele>
        <time>2019-04-01T15:28:31Z</time>
      </trkpt>
      <trkpt lat="47.79389" lon="3.57149">
        <ele>185</ele>
        <time>2019-04-01T15:28:37Z</time>
      </trkpt>
      <trkpt lat="47.79384" lon="3.57151">
        <ele>184</ele>
        <time>2019-04-01T15:28:41Z</time>
      </trkpt>
      <trkpt lat="47.7938" lon="3.57156">
        <ele>182</ele>
        <time>2019-04-01T15:28:46Z</time>
      </trkpt>
      <trkpt lat="47.79378" lon="3.57165">
        <ele>182</ele>
        <time>2019-04-01T15:28:51Z</time>
      </trkpt>
      <trkpt lat="47.79377" lon="3.57172">
        <ele>182</ele>
        <time>2019-04-01T15:28:56Z</time>
      </trkpt>
      <trkpt lat="47.79375" lon="3.57178">
        <ele>181</ele>
        <time>2019-04-01T15:29:01Z</time>
      </trkpt>
      <trkpt lat="47.79373" lon="3.57183">
        <ele>175</ele>
        <time>2019-04-01T15:29:08Z</time>
      </trkpt>
      <trkpt lat="47.79376" lon="3.57186">
        <ele>172</ele>
        <time>2019-04-01T15:29:17Z</time>
      </trkpt>
      <trkpt lat="47.79381" lon="3.57191">
        <ele>171</ele>
        <time>2019-04-01T15:29:23Z</time>
      </trkpt>
      <trkpt lat="47.79381" lon="3.57191">
        <ele>171</ele>
        <time>2019-04-01T15:29:30Z</time>
      </trkpt>
      <trkpt lat="47.79383" lon="3.57197">
        <ele>168</ele>
        <time>2019-04-01T15:29:32Z</time>
      </trkpt>
      <trkpt lat="47.79375" lon="3.5718">
        <ele>168</ele>
        <time>2019-04-01T15:30:27Z</time>
      </trkpt>
      <trkpt lat="47.7937" lon="3.57181">
        <ele>167</ele>
        <time>2019-04-01T15:30:32Z</time>
      </trkpt>
      <trkpt lat="47.79365" lon="3.5718">
        <ele>167</ele>
        <time>2019-04-01T15:30:38Z</time>
      </trkpt>
      <trkpt lat="47.79362" lon="3.5718">
        <ele>167</ele>
        <time>2019-04-01T15:30:41Z</time>
      </trkpt>
      <trkpt lat="47.79356" lon="3.57177">
        <ele>168</ele>
        <time>2019-04-01T15:30:47Z</time>
      </trkpt>
      <trkpt lat="47.79352" lon="3.57171">
        <ele>169</ele>
        <time>2019-04-01T15:30:52Z</time>
      </trkpt>
      <trkpt lat="47.79349" lon="3.57168">
        <ele>170</ele>
        <time>2019-04-01T15:30:55Z</time>
      </trkpt>
      <trkpt lat="47.79343" lon="3.57164">
        <ele>167</ele>
        <time>2019-04-01T15:30:59Z</time>
      </trkpt>
      <trkpt lat="47.79338" lon="3.57166">
        <ele>167</ele>
        <time>2019-04-01T15:31:03Z</time>
      </trkpt>
      <trkpt lat="47.79342" lon="3.5718">
        <ele>166</ele>
        <time>2019-04-01T15:31:13Z</time>
      </trkpt>
      <trkpt lat="47.79342" lon="3.57189">
        <ele>168</ele>
        <time>2019-04-01T15:31:16Z</time>
      </trkpt>
      <trkpt lat="47.79341" lon="3.57198">
        <ele>168</ele>
        <time>2019-04-01T15:31:20Z</time>
      </trkpt>
      <trkpt lat="47.79341" lon="3.57204">
        <ele>169</ele>
        <time>2019-04-01T15:31:23Z</time>
      </trkpt>
      <trkpt lat="47.79342" lon="3.57212">
        <ele>168</ele>
        <time>2019-04-01T15:31:27Z</time>
      </trkpt>
      <trkpt lat="47.7934" lon="3.57226">
        <ele>166</ele>
        <time>2019-04-01T15:31:36Z</time>
      </trkpt>
      <trkpt lat="47.79341" lon="3.57233">
        <ele>166</ele>
        <time>2019-04-01T15:31:40Z</time>
      </trkpt>
      <trkpt lat="47.79341" lon="3.57233">
        <ele>114.9</ele>
        <time>2019-04-01T15:31:49Z</time>
      </trkpt>
      <trkpt lat="47.79341" lon="3.57233">
        <ele>114.9</ele>
        <time>2019-04-01T15:32:24Z</time>
      </trkpt>
      <trkpt lat="47.79346" lon="3.57286">
        <ele>112.9</ele>
        <time>2019-04-02T06:03:55Z</time>
      </trkpt>
      <trkpt lat="47.79346" lon="3.57286">
        <ele>112.9</ele>
        <time>2019-04-02T06:03:55Z</time>
      </trkpt>
      <trkpt lat="47.79346" lon="3.57286">
        <ele>167</ele>
        <time>2019-04-02T06:04:05Z</time>
      </trkpt>
      <trkpt lat="47.79346" lon="3.57279">
        <ele>176</ele>
        <time>2019-04-02T06:05:59Z</time>
      </trkpt>
      <trkpt lat="47.79347" lon="3.57275">
        <ele>176</ele>
        <time>2019-04-02T06:06:02Z</time>
      </trkpt>
      <trkpt lat="47.79347" lon="3.57268">
        <ele>176</ele>
        <time>2019-04-02T06:06:05Z</time>
      </trkpt>
      <trkpt lat="47.79347" lon="3.57261">
        <ele>175</ele>
        <time>2019-04-02T06:06:08Z</time>
      </trkpt>
      <trkpt lat="47.79348" lon="3.5725">
        <ele>173</ele>
        <time>2019-04-02T06:06:13Z</time>
      </trkpt>
      <trkpt lat="47.7935" lon="3.57242">
        <ele>171</ele>
        <time>2019-04-02T06:06:17Z</time>
      </trkpt>
      <trkpt lat="47.79349" lon="3.57235">
        <ele>172</ele>
        <time>2019-04-02T06:06:20Z</time>
      </trkpt>
      <trkpt lat="47.79348" lon="3.57228">
        <ele>171</ele>
        <time>2019-04-02T06:06:23Z</time>
      </trkpt>
      <trkpt lat="47.79348" lon="3.57222">
        <ele>170</ele>
        <time>2019-04-02T06:06:26Z</time>
      </trkpt>
      <trkpt lat="47.79347" lon="3.57217">
        <ele>170</ele>
        <time>2019-04-02T06:06:29Z</time>
      </trkpt>
      <trkpt lat="47.79347" lon="3.5721">
        <ele>169</ele>
        <time>2019-04-02T06:06:34Z</time>
      </trkpt>
      <trkpt lat="47.79348" lon="3.57203">
        <ele>170</ele>
        <time>2019-04-02T06:06:40Z</time>
      </trkpt>
      <trkpt lat="47.79345" lon="3.57197">
        <ele>170</ele>
        <time>2019-04-02T06:06:45Z</time>
      </trkpt>
      <trkpt lat="47.79341" lon="3.57189">
        <ele>167</ele>
        <time>2019-04-02T06:06:49Z</time>
      </trkpt>
      <trkpt lat="47.79343" lon="3.57179">
        <ele>168</ele>
        <time>2019-04-02T06:06:55Z</time>
      </trkpt>
      <trkpt lat="47.79346" lon="3.57174">
        <ele>169</ele>
        <time>2019-04-02T06:07:01Z</time>
      </trkpt>
      <trkpt lat="47.79352" lon="3.57172">
        <ele>171</ele>
        <time>2019-04-02T06:07:07Z</time>
      </trkpt>
      <trkpt lat="47.79356" lon="3.57177">
        <ele>171</ele>
        <time>2019-04-02T06:07:12Z</time>
      </trkpt>
      <trkpt lat="47.79358" lon="3.57184">
        <ele>171</ele>
        <time>2019-04-02T06:07:16Z</time>
      </trkpt>
      <trkpt lat="47.79361" lon="3.57189">
        <ele>169</ele>
        <time>2019-04-02T06:07:20Z</time>
      </trkpt>
      <trkpt lat="47.79366" lon="3.57187">
        <ele>171</ele>
        <time>2019-04-02T06:07:29Z</time>
      </trkpt>
      <trkpt lat="47.79375" lon="3.57187">
        <ele>173</ele>
        <time>2019-04-02T06:07:39Z</time>
      </trkpt>
      <trkpt lat="47.79377" lon="3.57194">
        <ele>175</ele>
        <time>2019-04-02T06:07:44Z</time>
      </trkpt>
      <trkpt lat="47.79382" lon="3.57199">
        <ele>175</ele>
        <time>2019-04-02T06:07:48Z</time>
      </trkpt>
      <trkpt lat="47.79386" lon="3.57202">
        <ele>176</ele>
        <time>2019-04-02T06:07:51Z</time>
      </trkpt>
      <trkpt lat="47.79389" lon="3.5721">
        <ele>176</ele>
        <time>2019-04-02T06:07:54Z</time>
      </trkpt>
      <trkpt lat="47.79395" lon="3.57208">
        <ele>175</ele>
        <time>2019-04-02T06:08:00Z</time>
      </trkpt>
      <trkpt lat="47.79401" lon="3.57208">
        <ele>177</ele>
        <time>2019-04-02T06:08:04Z</time>
      </trkpt>
      <trkpt lat="47.79404" lon="3.57213">
        <ele>177</ele>
        <time>2019-04-02T06:08:07Z</time>
      </trkpt>
      <trkpt lat="47.79411" lon="3.57214">
        <ele>178</ele>
        <time>2019-04-02T06:08:12Z</time>
      </trkpt>
      <trkpt lat="47.79415" lon="3.57214">
        <ele>178</ele>
        <time>2019-04-02T06:08:14Z</time>
      </trkpt>
      <trkpt lat="47.7942" lon="3.57217">
        <ele>177</ele>
        <time>2019-04-02T06:08:18Z</time>
      </trkpt>
      <trkpt lat="47.79423" lon="3.57222">
        <ele>178</ele>
        <time>2019-04-02T06:08:22Z</time>
      </trkpt>
      <trkpt lat="47.79431" lon="3.57227">
        <ele>180</ele>
        <time>2019-04-02T06:08:29Z</time>
      </trkpt>
      <trkpt lat="47.79431" lon="3.57234">
        <ele>178</ele>
        <time>2019-04-02T06:08:32Z</time>
      </trkpt>
      <trkpt lat="47.79436" lon="3.57241">
        <ele>180</ele>
        <time>2019-04-02T06:08:38Z</time>
      </trkpt>
      <trkpt lat="47.79439" lon="3.57247">
        <ele>179</ele>
        <time>2019-04-02T06:08:42Z</time>
      </trkpt>
      <trkpt lat="47.79442" lon="3.57252">
        <ele>179</ele>
        <time>2019-04-02T06:08:45Z</time>
      </trkpt>
      <trkpt lat="47.79446" lon="3.57258">
        <ele>177</ele>
        <time>2019-04-02T06:08:49Z</time>
      </trkpt>
      <trkpt lat="47.79445" lon="3.57267">
        <ele>175</ele>
        <time>2019-04-02T06:08:55Z</time>
      </trkpt>
      <trkpt lat="47.79445" lon="3.57272">
        <ele>174</ele>
        <time>2019-04-02T06:08:57Z</time>
      </trkpt>
      <trkpt lat="47.79448" lon="3.5728">
        <ele>173</ele>
        <time>2019-04-02T06:09:01Z</time>
      </trkpt>
      <trkpt lat="47.79451" lon="3.57285">
        <ele>172</ele>
        <time>2019-04-02T06:09:04Z</time>
      </trkpt>
      <trkpt lat="47.79453" lon="3.57293">
        <ele>172</ele>
        <time>2019-04-02T06:09:08Z</time>
      </trkpt>
      <trkpt lat="47.79454" lon="3.573">
        <ele>171</ele>
        <time>2019-04-02T06:09:12Z</time>
      </trkpt>
      <trkpt lat="47.79458" lon="3.57306">
        <ele>171</ele>
        <time>2019-04-02T06:09:16Z</time>
      </trkpt>
      <trkpt lat="47.79457" lon="3.57314">
        <ele>171</ele>
        <time>2019-04-02T06:09:19Z</time>
      </trkpt>
      <trkpt lat="47.79457" lon="3.57318">
        <ele>170</ele>
        <time>2019-04-02T06:09:21Z</time>
      </trkpt>
      <trkpt lat="47.79457" lon="3.57324">
        <ele>170</ele>
        <time>2019-04-02T06:09:24Z</time>
      </trkpt>
      <trkpt lat="47.79457" lon="3.57333">
        <ele>168</ele>
        <time>2019-04-02T06:09:28Z</time>
      </trkpt>
      <trkpt lat="47.7946" lon="3.5734">
        <ele>164</ele>
        <time>2019-04-02T06:09:32Z</time>
      </trkpt>
      <trkpt lat="47.79459" lon="3.57348">
        <ele>164</ele>
        <time>2019-04-02T06:09:36Z</time>
      </trkpt>
      <trkpt lat="47.79461" lon="3.57355">
        <ele>163</ele>
        <time>2019-04-02T06:09:40Z</time>
      </trkpt>
      <trkpt lat="47.79464" lon="3.57361">
        <ele>162</ele>
        <time>2019-04-02T06:09:43Z</time>
      </trkpt>
      <trkpt lat="47.79464" lon="3.57369">
        <ele>162</ele>
        <time>2019-04-02T06:09:47Z</time>
      </trkpt>
      <trkpt lat="47.79465" lon="3.57377">
        <ele>162</ele>
        <time>2019-04-02T06:09:51Z</time>
      </trkpt>
      <trkpt lat="47.79463" lon="3.57383">
        <ele>163</ele>
        <time>2019-04-02T06:09:55Z</time>
      </trkpt>
      <trkpt lat="47.79462" lon="3.57388">
        <ele>164</ele>
        <time>2019-04-02T06:09:57Z</time>
      </trkpt>
      <trkpt lat="47.79461" lon="3.57395">
        <ele>165</ele>
        <time>2019-04-02T06:10:00Z</time>
      </trkpt>
      <trkpt lat="47.79461" lon="3.57401">
        <ele>165</ele>
        <time>2019-04-02T06:10:04Z</time>
      </trkpt>
      <trkpt lat="47.79459" lon="3.57408">
        <ele>165</ele>
        <time>2019-04-02T06:10:08Z</time>
      </trkpt>
      <trkpt lat="47.79455" lon="3.57412">
        <ele>166</ele>
        <time>2019-04-02T06:10:11Z</time>
      </trkpt>
      <trkpt lat="47.79452" lon="3.57419">
        <ele>167</ele>
        <time>2019-04-02T06:10:16Z</time>
      </trkpt>
      <trkpt lat="47.7945" lon="3.57425">
        <ele>169</ele>
        <time>2019-04-02T06:10:20Z</time>
      </trkpt>
      <trkpt lat="47.7945" lon="3.57432">
        <ele>168</ele>
        <time>2019-04-02T06:10:24Z</time>
      </trkpt>
      <trkpt lat="47.79448" lon="3.57439">
        <ele>168</ele>
        <time>2019-04-02T06:10:28Z</time>
      </trkpt>
      <trkpt lat="47.79446" lon="3.57445">
        <ele>168</ele>
        <time>2019-04-02T06:10:32Z</time>
      </trkpt>
      <trkpt lat="47.79448" lon="3.57452">
        <ele>168</ele>
        <time>2019-04-02T06:10:37Z</time>
      </trkpt>
      <trkpt lat="47.79448" lon="3.57461">
        <ele>167</ele>
        <time>2019-04-02T06:10:42Z</time>
      </trkpt>
      <trkpt lat="47.79449" lon="3.57469">
        <ele>165</ele>
        <time>2019-04-02T06:10:46Z</time>
      </trkpt>
      <trkpt lat="47.7945" lon="3.57475">
        <ele>166</ele>
        <time>2019-04-02T06:10:51Z</time>
      </trkpt>
      <trkpt lat="47.79447" lon="3.57482">
        <ele>167</ele>
        <time>2019-04-02T06:10:55Z</time>
      </trkpt>
      <trkpt lat="47.79447" lon="3.5749">
        <ele>166</ele>
        <time>2019-04-02T06:10:59Z</time>
      </trkpt>
      <trkpt lat="47.79447" lon="3.57493">
        <ele>165</ele>
        <time>2019-04-02T06:11:01Z</time>
      </trkpt>
      <trkpt lat="47.79447" lon="3.57499">
        <ele>165</ele>
        <time>2019-04-02T06:11:03Z</time>
      </trkpt>
      <trkpt lat="47.79447" lon="3.57507">
        <ele>161</ele>
        <time>2019-04-02T06:11:08Z</time>
      </trkpt>
      <trkpt lat="47.79448" lon="3.57515">
        <ele>159</ele>
        <time>2019-04-02T06:11:13Z</time>
      </trkpt>
      <trkpt lat="47.79448" lon="3.57522">
        <ele>158</ele>
        <time>2019-04-02T06:11:17Z</time>
      </trkpt>
      <trkpt lat="47.79445" lon="3.57531">
        <ele>155</ele>
        <time>2019-04-02T06:11:22Z</time>
      </trkpt>
      <trkpt lat="47.79443" lon="3.57541">
        <ele>154</ele>
        <time>2019-04-02T06:11:27Z</time>
      </trkpt>
      <trkpt lat="47.79441" lon="3.57548">
        <ele>155</ele>
        <time>2019-04-02T06:11:31Z</time>
      </trkpt>
      <trkpt lat="47.79441" lon="3.5755">
        <ele>155</ele>
        <time>2019-04-02T06:11:41Z</time>
      </trkpt>
      <trkpt lat="47.79444" lon="3.57554">
        <ele>167</ele>
        <time>2019-04-02T06:17:28Z</time>
      </trkpt>
      <trkpt lat="47.79445" lon="3.57564">
        <ele>167</ele>
        <time>2019-04-02T06:17:34Z</time>
      </trkpt>
      <trkpt lat="47.79448" lon="3.57569">
        <ele>166</ele>
        <time>2019-04-02T06:17:39Z</time>
      </trkpt>
      <trkpt lat="47.79448" lon="3.57576">
        <ele>166</ele>
        <time>2019-04-02T06:17:43Z</time>
      </trkpt>
      <trkpt lat="47.7945" lon="3.57584">
        <ele>166</ele>
        <time>2019-04-02T06:17:47Z</time>
      </trkpt>
      <trkpt lat="47.79453" lon="3.5759">
        <ele>166</ele>
        <time>2019-04-02T06:17:51Z</time>
      </trkpt>
      <trkpt lat="47.79455" lon="3.57594">
        <ele>166</ele>
        <time>2019-04-02T06:17:54Z</time>
      </trkpt>
      <trkpt lat="47.79459" lon="3.57598">
        <ele>166</ele>
        <time>2019-04-02T06:17:57Z</time>
      </trkpt>
      <trkpt lat="47.79462" lon="3.57606">
        <ele>165</ele>
        <time>2019-04-02T06:18:03Z</time>
      </trkpt>
      <trkpt lat="47.79463" lon="3.57612">
        <ele>165</ele>
        <time>2019-04-02T06:18:07Z</time>
      </trkpt>
      <trkpt lat="47.79464" lon="3.5762">
        <ele>164</ele>
        <time>2019-04-02T06:18:11Z</time>
      </trkpt>
      <trkpt lat="47.79466" lon="3.57626">
        <ele>165</ele>
        <time>2019-04-02T06:18:14Z</time>
      </trkpt>
      <trkpt lat="47.79467" lon="3.5763">
        <ele>165</ele>
        <time>2019-04-02T06:18:16Z</time>
      </trkpt>
      <trkpt lat="47.79469" lon="3.57636">
        <ele>163</ele>
        <time>2019-04-02T06:18:20Z</time>
      </trkpt>
      <trkpt lat="47.79469" lon="3.57644">
        <ele>162</ele>
        <time>2019-04-02T06:18:24Z</time>
      </trkpt>
      <trkpt lat="47.79467" lon="3.57651">
        <ele>161</ele>
        <time>2019-04-02T06:18:28Z</time>
      </trkpt>
      <trkpt lat="47.79469" lon="3.57661">
        <ele>161</ele>
        <time>2019-04-02T06:18:33Z</time>
      </trkpt>
      <trkpt lat="47.79473" lon="3.5767">
        <ele>161</ele>
        <time>2019-04-02T06:18:38Z</time>
      </trkpt>
      <trkpt lat="47.79477" lon="3.57677">
        <ele>161</ele>
        <time>2019-04-02T06:18:41Z</time>
      </trkpt>
      <trkpt lat="47.79477" lon="3.57685">
        <ele>160</ele>
        <time>2019-04-02T06:18:45Z</time>
      </trkpt>
      <trkpt lat="47.79478" lon="3.5769">
        <ele>161</ele>
        <time>2019-04-02T06:18:48Z</time>
      </trkpt>
      <trkpt lat="47.79479" lon="3.57699">
        <ele>161</ele>
        <time>2019-04-02T06:18:53Z</time>
      </trkpt>
      <trkpt lat="47.79479" lon="3.57706">
        <ele>161</ele>
        <time>2019-04-02T06:18:56Z</time>
      </trkpt>
      <trkpt lat="47.79474" lon="3.57712">
        <ele>161</ele>
        <time>2019-04-02T06:18:59Z</time>
      </trkpt>
      <trkpt lat="47.79467" lon="3.57716">
        <ele>162</ele>
        <time>2019-04-02T06:19:03Z</time>
      </trkpt>
      <trkpt lat="47.79464" lon="3.57718">
        <ele>162</ele>
        <time>2019-04-02T06:19:05Z</time>
      </trkpt>
      <trkpt lat="47.7947" lon="3.57718">
        <ele>162</ele>
        <time>2019-04-02T06:19:13Z</time>
      </trkpt>
      <trkpt lat="47.79478" lon="3.5772">
        <ele>165</ele>
        <time>2019-04-02T06:19:23Z</time>
      </trkpt>
      <trkpt lat="47.79482" lon="3.57724">
        <ele>166</ele>
        <time>2019-04-02T06:19:27Z</time>
      </trkpt>
      <trkpt lat="47.79486" lon="3.57729">
        <ele>167</ele>
        <time>2019-04-02T06:19:32Z</time>
      </trkpt>
      <trkpt lat="47.79491" lon="3.57733">
        <ele>169</ele>
        <time>2019-04-02T06:19:40Z</time>
      </trkpt>
      <trkpt lat="47.79496" lon="3.5774">
        <ele>168</ele>
        <time>2019-04-02T06:19:43Z</time>
      </trkpt>
      <trkpt lat="47.79497" lon="3.57751">
        <ele>167</ele>
        <time>2019-04-02T06:19:46Z</time>
      </trkpt>
      <trkpt lat="47.79499" lon="3.57758">
        <ele>162</ele>
        <time>2019-04-02T06:19:49Z</time>
      </trkpt>
      <trkpt lat="47.79503" lon="3.57766">
        <ele>161</ele>
        <time>2019-04-02T06:19:52Z</time>
      </trkpt>
      <trkpt lat="47.79508" lon="3.57772">
        <ele>160</ele>
        <time>2019-04-02T06:19:56Z</time>
      </trkpt>
      <trkpt lat="47.79508" lon="3.5778">
        <ele>160</ele>
        <time>2019-04-02T06:20:03Z</time>
      </trkpt>
      <trkpt lat="47.79508" lon="3.57786">
        <ele>157</ele>
        <time>2019-04-02T06:20:11Z</time>
      </trkpt>
      <trkpt lat="47.79516" lon="3.57789">
        <ele>147</ele>
        <time>2019-04-02T06:22:46Z</time>
      </trkpt>
      <trkpt lat="47.79518" lon="3.57796">
        <ele>149</ele>
        <time>2019-04-02T06:22:53Z</time>
      </trkpt>
      <trkpt lat="47.79519" lon="3.57801">
        <ele>148</ele>
        <time>2019-04-02T06:22:56Z</time>
      </trkpt>
      <trkpt lat="47.79519" lon="3.57801">
        <ele>148</ele>
        <time>2019-04-02T06:23:03Z</time>
      </trkpt>
      <trkpt lat="47.79521" lon="3.57808">
        <ele>150</ele>
        <time>2019-04-02T06:23:04Z</time>
      </trkpt>
      <trkpt lat="47.79518" lon="3.57814">
        <ele>150</ele>
        <time>2019-04-02T06:23:08Z</time>
      </trkpt>
      <trkpt lat="47.79516" lon="3.57817">
        <ele>151</ele>
        <time>2019-04-02T06:23:11Z</time>
      </trkpt>
      <trkpt lat="47.79515" lon="3.57825">
        <ele>151</ele>
        <time>2019-04-02T06:23:16Z</time>
      </trkpt>
      <trkpt lat="47.79514" lon="3.57831">
        <ele>151</ele>
        <time>2019-04-02T06:23:20Z</time>
      </trkpt>
      <trkpt lat="47.79511" lon="3.5784">
        <ele>150</ele>
        <time>2019-04-02T06:23:27Z</time>
      </trkpt>
      <trkpt lat="47.79509" lon="3.57844">
        <ele>151</ele>
        <time>2019-04-02T06:23:30Z</time>
      </trkpt>
      <trkpt lat="47.79506" lon="3.57849">
        <ele>151</ele>
        <time>2019-04-02T06:23:33Z</time>
      </trkpt>
      <trkpt lat="47.79503" lon="3.57855">
        <ele>152</ele>
        <time>2019-04-02T06:23:38Z</time>
      </trkpt>
      <trkpt lat="47.79501" lon="3.57858">
        <ele>151</ele>
        <time>2019-04-02T06:23:41Z</time>
      </trkpt>
      <trkpt lat="47.79501" lon="3.57864">
        <ele>154</ele>
        <time>2019-04-02T06:23:49Z</time>
      </trkpt>
      <trkpt lat="47.79503" lon="3.57872">
        <ele>153</ele>
        <time>2019-04-02T06:23:56Z</time>
      </trkpt>
      <trkpt lat="47.79503" lon="3.5788">
        <ele>151</ele>
        <time>2019-04-02T06:24:00Z</time>
      </trkpt>
      <trkpt lat="47.79501" lon="3.57887">
        <ele>152</ele>
        <time>2019-04-02T06:24:03Z</time>
      </trkpt>
      <trkpt lat="47.79499" lon="3.57895">
        <ele>151</ele>
        <time>2019-04-02T06:24:08Z</time>
      </trkpt>
      <trkpt lat="47.79498" lon="3.57902">
        <ele>150</ele>
        <time>2019-04-02T06:24:12Z</time>
      </trkpt>
      <trkpt lat="47.79497" lon="3.5791">
        <ele>149</ele>
        <time>2019-04-02T06:24:16Z</time>
      </trkpt>
      <trkpt lat="47.79494" lon="3.57916">
        <ele>147</ele>
        <time>2019-04-02T06:24:20Z</time>
      </trkpt>
      <trkpt lat="47.79492" lon="3.5792">
        <ele>146</ele>
        <time>2019-04-02T06:24:23Z</time>
      </trkpt>
      <trkpt lat="47.7949" lon="3.57923">
        <ele>147</ele>
        <time>2019-04-02T06:24:26Z</time>
      </trkpt>
      <trkpt lat="47.79489" lon="3.57928">
        <ele>148</ele>
        <time>2019-04-02T06:24:29Z</time>
      </trkpt>
      <trkpt lat="47.79487" lon="3.57936">
        <ele>148</ele>
        <time>2019-04-02T06:24:34Z</time>
      </trkpt>
      <trkpt lat="47.79485" lon="3.57942">
        <ele>146</ele>
        <time>2019-04-02T06:24:38Z</time>
      </trkpt>
      <trkpt lat="47.79484" lon="3.57949">
        <ele>146</ele>
        <time>2019-04-02T06:24:41Z</time>
      </trkpt>
      <trkpt lat="47.79482" lon="3.57955">
        <ele>146</ele>
        <time>2019-04-02T06:24:44Z</time>
      </trkpt>
      <trkpt lat="47.79479" lon="3.5796">
        <ele>145</ele>
        <time>2019-04-02T06:24:48Z</time>
      </trkpt>
      <trkpt lat="47.79477" lon="3.57963">
        <ele>146</ele>
        <time>2019-04-02T06:24:50Z</time>
      </trkpt>
      <trkpt lat="47.79474" lon="3.5797">
        <ele>146</ele>
        <time>2019-04-02T06:24:53Z</time>
      </trkpt>
      <trkpt lat="47.79472" lon="3.57977">
        <ele>147</ele>
        <time>2019-04-02T06:24:57Z</time>
      </trkpt>
      <trkpt lat="47.7947" lon="3.57981">
        <ele>147</ele>
        <time>2019-04-02T06:25:00Z</time>
      </trkpt>
      <trkpt lat="47.79469" lon="3.57991">
        <ele>147</ele>
        <time>2019-04-02T06:25:06Z</time>
      </trkpt>
      <trkpt lat="47.79466" lon="3.57998">
        <ele>147</ele>
        <time>2019-04-02T06:25:10Z</time>
      </trkpt>
      <trkpt lat="47.79462" lon="3.58004">
        <ele>146</ele>
        <time>2019-04-02T06:25:14Z</time>
      </trkpt>
      <trkpt lat="47.7946" lon="3.58011">
        <ele>147</ele>
        <time>2019-04-02T06:25:18Z</time>
      </trkpt>
      <trkpt lat="47.79458" lon="3.58018">
        <ele>147</ele>
        <time>2019-04-02T06:25:22Z</time>
      </trkpt>
      <trkpt lat="47.79455" lon="3.58023">
        <ele>146</ele>
        <time>2019-04-02T06:25:25Z</time>
      </trkpt>
      <trkpt lat="47.79452" lon="3.5803">
        <ele>145</ele>
        <time>2019-04-02T06:25:29Z</time>
      </trkpt>
      <trkpt lat="47.7945" lon="3.58038">
        <ele>145</ele>
        <time>2019-04-02T06:25:34Z</time>
      </trkpt>
      <trkpt lat="47.79448" lon="3.58045">
        <ele>147</ele>
        <time>2019-04-02T06:25:41Z</time>
      </trkpt>
      <trkpt lat="47.79448" lon="3.58053">
        <ele>148</ele>
        <time>2019-04-02T06:25:46Z</time>
      </trkpt>
      <trkpt lat="47.79449" lon="3.5806">
        <ele>151</ele>
        <time>2019-04-02T06:25:52Z</time>
      </trkpt>
      <trkpt lat="47.7945" lon="3.58068">
        <ele>152</ele>
        <time>2019-04-02T06:25:56Z</time>
      </trkpt>
      <trkpt lat="47.79447" lon="3.58076">
        <ele>153</ele>
        <time>2019-04-02T06:26:01Z</time>
      </trkpt>
      <trkpt lat="47.79445" lon="3.58085">
        <ele>152</ele>
        <time>2019-04-02T06:26:05Z</time>
      </trkpt>
      <trkpt lat="47.79441" lon="3.58092">
        <ele>151</ele>
        <time>2019-04-02T06:26:09Z</time>
      </trkpt>
      <trkpt lat="47.79439" lon="3.58095">
        <ele>150</ele>
        <time>2019-04-02T06:26:11Z</time>
      </trkpt>
      <trkpt lat="47.79436" lon="3.581">
        <ele>150</ele>
        <time>2019-04-02T06:26:14Z</time>
      </trkpt>
      <trkpt lat="47.79434" lon="3.58107">
        <ele>148</ele>
        <time>2019-04-02T06:26:19Z</time>
      </trkpt>
      <trkpt lat="47.7943" lon="3.58113">
        <ele>148</ele>
        <time>2019-04-02T06:26:23Z</time>
      </trkpt>
      <trkpt lat="47.79426" lon="3.58122">
        <ele>148</ele>
        <time>2019-04-02T06:26:28Z</time>
      </trkpt>
      <trkpt lat="47.79423" lon="3.58128">
        <ele>148</ele>
        <time>2019-04-02T06:26:32Z</time>
      </trkpt>
      <trkpt lat="47.79421" lon="3.58134">
        <ele>148</ele>
        <time>2019-04-02T06:26:35Z</time>
      </trkpt>
      <trkpt lat="47.79419" lon="3.58145">
        <ele>149</ele>
        <time>2019-04-02T06:26:42Z</time>
      </trkpt>
      <trkpt lat="47.79416" lon="3.58151">
        <ele>148</ele>
        <time>2019-04-02T06:26:46Z</time>
      </trkpt>
      <trkpt lat="47.79415" lon="3.58158">
        <ele>148</ele>
        <time>2019-04-02T06:26:50Z</time>
      </trkpt>
      <trkpt lat="47.79413" lon="3.58164">
        <ele>150</ele>
        <time>2019-04-02T06:26:53Z</time>
      </trkpt>
      <trkpt lat="47.79411" lon="3.58171">
        <ele>150</ele>
        <time>2019-04-02T06:26:56Z</time>
      </trkpt>
      <trkpt lat="47.7941" lon="3.58178">
        <ele>149</ele>
        <time>2019-04-02T06:27:00Z</time>
      </trkpt>
      <trkpt lat="47.79407" lon="3.58185">
        <ele>150</ele>
        <time>2019-04-02T06:27:04Z</time>
      </trkpt>
      <trkpt lat="47.79412" lon="3.58191">
        <ele>148</ele>
        <time>2019-04-02T06:27:09Z</time>
      </trkpt>
      <trkpt lat="47.79413" lon="3.58192">
        <ele>148</ele>
        <time>2019-04-02T06:27:18Z</time>
      </trkpt>
      <trkpt lat="47.79413" lon="3.582">
        <ele>145</ele>
        <time>2019-04-02T06:27:51Z</time>
      </trkpt>
      <trkpt lat="47.79404" lon="3.58199">
        <ele>146</ele>
        <time>2019-04-02T06:27:59Z</time>
      </trkpt>
      <trkpt lat="47.79399" lon="3.58202">
        <ele>146</ele>
        <time>2019-04-02T06:28:05Z</time>
      </trkpt>
      <trkpt lat="47.79395" lon="3.58206">
        <ele>146</ele>
        <time>2019-04-02T06:28:10Z</time>
      </trkpt>
      <trkpt lat="47.7939" lon="3.58209">
        <ele>142</ele>
        <time>2019-04-02T06:28:15Z</time>
      </trkpt>
      <trkpt lat="47.79387" lon="3.5821">
        <ele>142</ele>
        <time>2019-04-02T06:28:17Z</time>
      </trkpt>
      <trkpt lat="47.79384" lon="3.58212">
        <ele>141</ele>
        <time>2019-04-02T06:28:19Z</time>
      </trkpt>
      <trkpt lat="47.79381" lon="3.58214">
        <ele>142</ele>
        <time>2019-04-02T06:28:21Z</time>
      </trkpt>
      <trkpt lat="47.79375" lon="3.58219">
        <ele>141</ele>
        <time>2019-04-02T06:28:25Z</time>
      </trkpt>
      <trkpt lat="47.79373" lon="3.58221">
        <ele>142</ele>
        <time>2019-04-02T06:28:27Z</time>
      </trkpt>
      <trkpt lat="47.79372" lon="3.58229">
        <ele>141</ele>
        <time>2019-04-02T06:28:31Z</time>
      </trkpt>
      <trkpt lat="47.79371" lon="3.58233">
        <ele>140</ele>
        <time>2019-04-02T06:28:33Z</time>
      </trkpt>
      <trkpt lat="47.79369" lon="3.5824">
        <ele>141</ele>
        <time>2019-04-02T06:28:37Z</time>
      </trkpt>
      <trkpt lat="47.79366" lon="3.58245">
        <ele>143</ele>
        <time>2019-04-02T06:28:41Z</time>
      </trkpt>
      <trkpt lat="47.79364" lon="3.58248">
        <ele>144</ele>
        <time>2019-04-02T06:28:43Z</time>
      </trkpt>
      <trkpt lat="47.79362" lon="3.58251">
        <ele>145</ele>
        <time>2019-04-02T06:28:45Z</time>
      </trkpt>
      <trkpt lat="47.7936" lon="3.58254">
        <ele>146</ele>
        <time>2019-04-02T06:28:47Z</time>
      </trkpt>
      <trkpt lat="47.79358" lon="3.58257">
        <ele>146</ele>
        <time>2019-04-02T06:28:49Z</time>
      </trkpt>
      <trkpt lat="47.79354" lon="3.58262">
        <ele>146</ele>
        <time>2019-04-02T06:28:53Z</time>
      </trkpt>
      <trkpt lat="47.7935" lon="3.58266">
        <ele>147</ele>
        <time>2019-04-02T06:28:57Z</time>
      </trkpt>
      <trkpt lat="47.79346" lon="3.5827">
        <ele>147</ele>
        <time>2019-04-02T06:29:02Z</time>
      </trkpt>
      <trkpt lat="47.79342" lon="3.58275">
        <ele>148</ele>
        <time>2019-04-02T06:29:06Z</time>
      </trkpt>
      <trkpt lat="47.79338" lon="3.58279">
        <ele>147</ele>
        <time>2019-04-02T06:29:10Z</time>
      </trkpt>
      <trkpt lat="47.79333" lon="3.58282">
        <ele>146</ele>
        <time>2019-04-02T06:29:13Z</time>
      </trkpt>
      <trkpt lat="47.7933" lon="3.58284">
        <ele>146</ele>
        <time>2019-04-02T06:29:15Z</time>
      </trkpt>
      <trkpt lat="47.79327" lon="3.58285">
        <ele>147</ele>
        <time>2019-04-02T06:29:17Z</time>
      </trkpt>
      <trkpt lat="47.79324" lon="3.5829">
        <ele>149</ele>
        <time>2019-04-02T06:29:20Z</time>
      </trkpt>
      <trkpt lat="47.79318" lon="3.58293">
        <ele>148</ele>
        <time>2019-04-02T06:29:26Z</time>
      </trkpt>
      <trkpt lat="47.79315" lon="3.58303">
        <ele>147</ele>
        <time>2019-04-02T06:29:31Z</time>
      </trkpt>
      <trkpt lat="47.79308" lon="3.58305">
        <ele>147</ele>
        <time>2019-04-02T06:29:36Z</time>
      </trkpt>
      <trkpt lat="47.793" lon="3.58304">
        <ele>147</ele>
        <time>2019-04-02T06:29:40Z</time>
      </trkpt>
      <trkpt lat="47.79297" lon="3.58304">
        <ele>149</ele>
        <time>2019-04-02T06:29:43Z</time>
      </trkpt>
      <trkpt lat="47.79294" lon="3.58311">
        <ele>150</ele>
        <time>2019-04-02T06:29:49Z</time>
      </trkpt>
      <trkpt lat="47.7929" lon="3.58316">
        <ele>149</ele>
        <time>2019-04-02T06:29:53Z</time>
      </trkpt>
      <trkpt lat="47.79286" lon="3.5832">
        <ele>149</ele>
        <time>2019-04-02T06:29:57Z</time>
      </trkpt>
      <trkpt lat="47.79281" lon="3.58322">
        <ele>149</ele>
        <time>2019-04-02T06:30:00Z</time>
      </trkpt>
      <trkpt lat="47.79277" lon="3.58327">
        <ele>148</ele>
        <time>2019-04-02T06:30:04Z</time>
      </trkpt>
      <trkpt lat="47.79273" lon="3.58336">
        <ele>145</ele>
        <time>2019-04-02T06:30:10Z</time>
      </trkpt>
      <trkpt lat="47.7927" lon="3.58342">
        <ele>144</ele>
        <time>2019-04-02T06:30:13Z</time>
      </trkpt>
      <trkpt lat="47.79269" lon="3.58346">
        <ele>142</ele>
        <time>2019-04-02T06:30:15Z</time>
      </trkpt>
      <trkpt lat="47.79267" lon="3.58349">
        <ele>141</ele>
        <time>2019-04-02T06:30:17Z</time>
      </trkpt>
      <trkpt lat="47.79265" lon="3.58355">
        <ele>142</ele>
        <time>2019-04-02T06:30:21Z</time>
      </trkpt>
      <trkpt lat="47.79264" lon="3.58362">
        <ele>142</ele>
        <time>2019-04-02T06:30:25Z</time>
      </trkpt>
      <trkpt lat="47.79262" lon="3.5837">
        <ele>142</ele>
        <time>2019-04-02T06:30:30Z</time>
      </trkpt>
      <trkpt lat="47.79261" lon="3.58378">
        <ele>143</ele>
        <time>2019-04-02T06:30:33Z</time>
      </trkpt>
      <trkpt lat="47.7926" lon="3.58382">
        <ele>143</ele>
        <time>2019-04-02T06:30:35Z</time>
      </trkpt>
      <trkpt lat="47.79255" lon="3.58388">
        <ele>142</ele>
        <time>2019-04-02T06:30:38Z</time>
      </trkpt>
      <trkpt lat="47.79253" lon="3.5839">
        <ele>142</ele>
        <time>2019-04-02T06:30:40Z</time>
      </trkpt>
      <trkpt lat="47.7925" lon="3.58398">
        <ele>143</ele>
        <time>2019-04-02T06:30:45Z</time>
      </trkpt>
      <trkpt lat="47.79249" lon="3.58402">
        <ele>143</ele>
        <time>2019-04-02T06:30:48Z</time>
      </trkpt>
      <trkpt lat="47.79244" lon="3.58412">
        <ele>143</ele>
        <time>2019-04-02T06:30:54Z</time>
      </trkpt>
      <trkpt lat="47.79242" lon="3.58419">
        <ele>143</ele>
        <time>2019-04-02T06:30:58Z</time>
      </trkpt>
      <trkpt lat="47.7924" lon="3.58428">
        <ele>144</ele>
        <time>2019-04-02T06:31:02Z</time>
      </trkpt>
      <trkpt lat="47.7924" lon="3.58435">
        <ele>143</ele>
        <time>2019-04-02T06:31:05Z</time>
      </trkpt>
      <trkpt lat="47.79239" lon="3.58444">
        <ele>143</ele>
        <time>2019-04-02T06:31:09Z</time>
      </trkpt>
      <trkpt lat="47.79236" lon="3.5845">
        <ele>143</ele>
        <time>2019-04-02T06:31:12Z</time>
      </trkpt>
      <trkpt lat="47.79232" lon="3.58456">
        <ele>142</ele>
        <time>2019-04-02T06:31:16Z</time>
      </trkpt>
      <trkpt lat="47.79227" lon="3.58463">
        <ele>141</ele>
        <time>2019-04-02T06:31:20Z</time>
      </trkpt>
      <trkpt lat="47.79223" lon="3.58469">
        <ele>139</ele>
        <time>2019-04-02T06:31:23Z</time>
      </trkpt>
      <trkpt lat="47.79221" lon="3.58476">
        <ele>142</ele>
        <time>2019-04-02T06:31:28Z</time>
      </trkpt>
      <trkpt lat="47.79218" lon="3.58483">
        <ele>143</ele>
        <time>2019-04-02T06:31:33Z</time>
      </trkpt>
      <trkpt lat="47.79215" lon="3.5849">
        <ele>145</ele>
        <time>2019-04-02T06:31:37Z</time>
      </trkpt>
      <trkpt lat="47.79213" lon="3.58497">
        <ele>146</ele>
        <time>2019-04-02T06:31:40Z</time>
      </trkpt>
      <trkpt lat="47.79211" lon="3.58503">
        <ele>146</ele>
        <time>2019-04-02T06:31:44Z</time>
      </trkpt>
      <trkpt lat="47.79209" lon="3.58511">
        <ele>146</ele>
        <time>2019-04-02T06:31:48Z</time>
      </trkpt>
      <trkpt lat="47.79206" lon="3.58517">
        <ele>147</ele>
        <time>2019-04-02T06:31:53Z</time>
      </trkpt>
      <trkpt lat="47.79202" lon="3.58525">
        <ele>147</ele>
        <time>2019-04-02T06:31:59Z</time>
      </trkpt>
      <trkpt lat="47.792" lon="3.58531">
        <ele>146</ele>
        <time>2019-04-02T06:32:02Z</time>
      </trkpt>
      <trkpt lat="47.79197" lon="3.58538">
        <ele>146</ele>
        <time>2019-04-02T06:32:05Z</time>
      </trkpt>
      <trkpt lat="47.79194" lon="3.58544">
        <ele>145</ele>
        <time>2019-04-02T06:32:08Z</time>
      </trkpt>
      <trkpt lat="47.79193" lon="3.58547">
        <ele>145</ele>
        <time>2019-04-02T06:32:10Z</time>
      </trkpt>
      <trkpt lat="47.79192" lon="3.5855">
        <ele>144</ele>
        <time>2019-04-02T06:32:12Z</time>
      </trkpt>
      <trkpt lat="47.79189" lon="3.58556">
        <ele>146</ele>
        <time>2019-04-02T06:32:16Z</time>
      </trkpt>
      <trkpt lat="47.79188" lon="3.5856">
        <ele>147</ele>
        <time>2019-04-02T06:32:18Z</time>
      </trkpt>
      <trkpt lat="47.79182" lon="3.58567">
        <ele>147</ele>
        <time>2019-04-02T06:32:23Z</time>
      </trkpt>
      <trkpt lat="47.79179" lon="3.58573">
        <ele>147</ele>
        <time>2019-04-02T06:32:26Z</time>
      </trkpt>
      <trkpt lat="47.79176" lon="3.58581">
        <ele>147</ele>
        <time>2019-04-02T06:32:29Z</time>
      </trkpt>
      <trkpt lat="47.79173" lon="3.58586">
        <ele>146</ele>
        <time>2019-04-02T06:32:34Z</time>
      </trkpt>
      <trkpt lat="47.7917" lon="3.58592">
        <ele>145</ele>
        <time>2019-04-02T06:32:38Z</time>
      </trkpt>
      <trkpt lat="47.79167" lon="3.58597">
        <ele>145</ele>
        <time>2019-04-02T06:32:42Z</time>
      </trkpt>
      <trkpt lat="47.79164" lon="3.58602">
        <ele>144</ele>
        <time>2019-04-02T06:32:45Z</time>
      </trkpt>
      <trkpt lat="47.79161" lon="3.58608">
        <ele>144</ele>
        <time>2019-04-02T06:32:48Z</time>
      </trkpt>
      <trkpt lat="47.79158" lon="3.58614">
        <ele>144</ele>
        <time>2019-04-02T06:32:52Z</time>
      </trkpt>
      <trkpt lat="47.79153" lon="3.58622">
        <ele>145</ele>
        <time>2019-04-02T06:32:56Z</time>
      </trkpt>
      <trkpt lat="47.7915" lon="3.58628">
        <ele>146</ele>
        <time>2019-04-02T06:33:00Z</time>
      </trkpt>
      <trkpt lat="47.79147" lon="3.58633">
        <ele>147</ele>
        <time>2019-04-02T06:33:03Z</time>
      </trkpt>
      <trkpt lat="47.79143" lon="3.58638">
        <ele>146</ele>
        <time>2019-04-02T06:33:06Z</time>
      </trkpt>
      <trkpt lat="47.79139" lon="3.58645">
        <ele>147</ele>
        <time>2019-04-02T06:33:10Z</time>
      </trkpt>
      <trkpt lat="47.79137" lon="3.58648">
        <ele>147</ele>
        <time>2019-04-02T06:33:12Z</time>
      </trkpt>
      <trkpt lat="47.79135" lon="3.58654">
        <ele>147</ele>
        <time>2019-04-02T06:33:16Z</time>
      </trkpt>
      <trkpt lat="47.79131" lon="3.58659">
        <ele>148</ele>
        <time>2019-04-02T06:33:20Z</time>
      </trkpt>
      <trkpt lat="47.79127" lon="3.58662">
        <ele>148</ele>
        <time>2019-04-02T06:33:23Z</time>
      </trkpt>
      <trkpt lat="47.79123" lon="3.58665">
        <ele>148</ele>
        <time>2019-04-02T06:33:26Z</time>
      </trkpt>
      <trkpt lat="47.79119" lon="3.58669">
        <ele>147</ele>
        <time>2019-04-02T06:33:29Z</time>
      </trkpt>
      <trkpt lat="47.79117" lon="3.58672">
        <ele>146</ele>
        <time>2019-04-02T06:33:31Z</time>
      </trkpt>
      <trkpt lat="47.79113" lon="3.58678">
        <ele>146</ele>
        <time>2019-04-02T06:33:35Z</time>
      </trkpt>
      <trkpt lat="47.79111" lon="3.58681">
        <ele>147</ele>
        <time>2019-04-02T06:33:38Z</time>
      </trkpt>
      <trkpt lat="47.79107" lon="3.58685">
        <ele>147</ele>
        <time>2019-04-02T06:33:42Z</time>
      </trkpt>
      <trkpt lat="47.79104" lon="3.58692">
        <ele>146</ele>
        <time>2019-04-02T06:33:47Z</time>
      </trkpt>
      <trkpt lat="47.79099" lon="3.58697">
        <ele>146</ele>
        <time>2019-04-02T06:33:51Z</time>
      </trkpt>
      <trkpt lat="47.79096" lon="3.58701">
        <ele>145</ele>
        <time>2019-04-02T06:33:54Z</time>
      </trkpt>
      <trkpt lat="47.79094" lon="3.58704">
        <ele>146</ele>
        <time>2019-04-02T06:33:56Z</time>
      </trkpt>
      <trkpt lat="47.7909" lon="3.58708">
        <ele>145</ele>
        <time>2019-04-02T06:34:00Z</time>
      </trkpt>
      <trkpt lat="47.79086" lon="3.58712">
        <ele>143</ele>
        <time>2019-04-02T06:34:04Z</time>
      </trkpt>
      <trkpt lat="47.79083" lon="3.58715">
        <ele>143</ele>
        <time>2019-04-02T06:34:06Z</time>
      </trkpt>
      <trkpt lat="47.79079" lon="3.5872">
        <ele>144</ele>
        <time>2019-04-02T06:34:09Z</time>
      </trkpt>
      <trkpt lat="47.79077" lon="3.58722">
        <ele>144</ele>
        <time>2019-04-02T06:34:11Z</time>
      </trkpt>
      <trkpt lat="47.79072" lon="3.58724">
        <ele>145</ele>
        <time>2019-04-02T06:34:14Z</time>
      </trkpt>
      <trkpt lat="47.79065" lon="3.5873">
        <ele>145</ele>
        <time>2019-04-02T06:34:18Z</time>
      </trkpt>
      <trkpt lat="47.7906" lon="3.58732">
        <ele>145</ele>
        <time>2019-04-02T06:34:23Z</time>
      </trkpt>
      <trkpt lat="47.79055" lon="3.58737">
        <ele>145</ele>
        <time>2019-04-02T06:34:27Z</time>
      </trkpt>
      <trkpt lat="47.79052" lon="3.58739">
        <ele>145</ele>
        <time>2019-04-02T06:34:30Z</time>
      </trkpt>
      <trkpt lat="47.79048" lon="3.58744">
        <ele>146</ele>
        <time>2019-04-02T06:34:34Z</time>
      </trkpt>
      <trkpt lat="47.79045" lon="3.58748">
        <ele>146</ele>
        <time>2019-04-02T06:34:37Z</time>
      </trkpt>
      <trkpt lat="47.79041" lon="3.58751">
        <ele>147</ele>
        <time>2019-04-02T06:34:40Z</time>
      </trkpt>
      <trkpt lat="47.79036" lon="3.58753">
        <ele>147</ele>
        <time>2019-04-02T06:34:43Z</time>
      </trkpt>
      <trkpt lat="47.7903" lon="3.58759">
        <ele>147</ele>
        <time>2019-04-02T06:34:49Z</time>
      </trkpt>
      <trkpt lat="47.79026" lon="3.58762">
        <ele>147</ele>
        <time>2019-04-02T06:34:52Z</time>
      </trkpt>
      <trkpt lat="47.79024" lon="3.58764">
        <ele>147</ele>
        <time>2019-04-02T06:34:53Z</time>
      </trkpt>
      <trkpt lat="47.79019" lon="3.58768">
        <ele>147</ele>
        <time>2019-04-02T06:34:58Z</time>
      </trkpt>
      <trkpt lat="47.79017" lon="3.58771">
        <ele>147</ele>
        <time>2019-04-02T06:35:00Z</time>
      </trkpt>
      <trkpt lat="47.79015" lon="3.58773">
        <ele>146</ele>
        <time>2019-04-02T06:35:02Z</time>
      </trkpt>
      <trkpt lat="47.79011" lon="3.58775">
        <ele>147</ele>
        <time>2019-04-02T06:35:05Z</time>
      </trkpt>
      <trkpt lat="47.79006" lon="3.58779">
        <ele>147</ele>
        <time>2019-04-02T06:35:09Z</time>
      </trkpt>
      <trkpt lat="47.79003" lon="3.58783">
        <ele>147</ele>
        <time>2019-04-02T06:35:12Z</time>
      </trkpt>
      <trkpt lat="47.78999" lon="3.58786">
        <ele>147</ele>
        <time>2019-04-02T06:35:15Z</time>
      </trkpt>
      <trkpt lat="47.78996" lon="3.58789">
        <ele>147</ele>
        <time>2019-04-02T06:35:17Z</time>
      </trkpt>
      <trkpt lat="47.78993" lon="3.58792">
        <ele>147</ele>
        <time>2019-04-02T06:35:20Z</time>
      </trkpt>
      <trkpt lat="47.7899" lon="3.58797">
        <ele>147</ele>
        <time>2019-04-02T06:35:24Z</time>
      </trkpt>
      <trkpt lat="47.78989" lon="3.588">
        <ele>148</ele>
        <time>2019-04-02T06:35:26Z</time>
      </trkpt>
      <trkpt lat="47.78985" lon="3.58804">
        <ele>148</ele>
        <time>2019-04-02T06:35:29Z</time>
      </trkpt>
      <trkpt lat="47.78982" lon="3.58807">
        <ele>149</ele>
        <time>2019-04-02T06:35:31Z</time>
      </trkpt>
      <trkpt lat="47.78976" lon="3.58811">
        <ele>150</ele>
        <time>2019-04-02T06:35:35Z</time>
      </trkpt>
      <trkpt lat="47.78971" lon="3.58817">
        <ele>150</ele>
        <time>2019-04-02T06:35:40Z</time>
      </trkpt>
      <trkpt lat="47.78969" lon="3.58819">
        <ele>150</ele>
        <time>2019-04-02T06:35:42Z</time>
      </trkpt>
      <trkpt lat="47.78967" lon="3.58823">
        <ele>151</ele>
        <time>2019-04-02T06:35:44Z</time>
      </trkpt>
      <trkpt lat="47.78963" lon="3.58829">
        <ele>152</ele>
        <time>2019-04-02T06:35:48Z</time>
      </trkpt>
      <trkpt lat="47.78959" lon="3.58833">
        <ele>152</ele>
        <time>2019-04-02T06:35:51Z</time>
      </trkpt>
      <trkpt lat="47.78955" lon="3.58836">
        <ele>150</ele>
        <time>2019-04-02T06:35:54Z</time>
      </trkpt>
      <trkpt lat="47.78952" lon="3.58842">
        <ele>149</ele>
        <time>2019-04-02T06:35:58Z</time>
      </trkpt>
      <trkpt lat="47.78947" lon="3.58846">
        <ele>149</ele>
        <time>2019-04-02T06:36:02Z</time>
      </trkpt>
      <trkpt lat="47.78945" lon="3.58847">
        <ele>148</ele>
        <time>2019-04-02T06:36:04Z</time>
      </trkpt>
      <trkpt lat="47.78941" lon="3.58853">
        <ele>148</ele>
        <time>2019-04-02T06:36:08Z</time>
      </trkpt>
      <trkpt lat="47.78937" lon="3.58857">
        <ele>148</ele>
        <time>2019-04-02T06:36:12Z</time>
      </trkpt>
      <trkpt lat="47.78934" lon="3.58864">
        <ele>147</ele>
        <time>2019-04-02T06:36:16Z</time>
      </trkpt>
      <trkpt lat="47.78933" lon="3.58867">
        <ele>148</ele>
        <time>2019-04-02T06:36:18Z</time>
      </trkpt>
      <trkpt lat="47.78931" lon="3.5887">
        <ele>149</ele>
        <time>2019-04-02T06:36:20Z</time>
      </trkpt>
      <trkpt lat="47.7893" lon="3.58873">
        <ele>149</ele>
        <time>2019-04-02T06:36:22Z</time>
      </trkpt>
      <trkpt lat="47.78926" lon="3.58879">
        <ele>151</ele>
        <time>2019-04-02T06:36:25Z</time>
      </trkpt>
      <trkpt lat="47.78921" lon="3.58884">
        <ele>150</ele>
        <time>2019-04-02T06:36:28Z</time>
      </trkpt>
      <trkpt lat="47.78919" lon="3.5889">
        <ele>151</ele>
        <time>2019-04-02T06:36:32Z</time>
      </trkpt>
      <trkpt lat="47.78917" lon="3.58893">
        <ele>151</ele>
        <time>2019-04-02T06:36:33Z</time>
      </trkpt>
      <trkpt lat="47.78913" lon="3.58897">
        <ele>151</ele>
        <time>2019-04-02T06:36:37Z</time>
      </trkpt>
      <trkpt lat="47.78911" lon="3.589">
        <ele>151</ele>
        <time>2019-04-02T06:36:39Z</time>
      </trkpt>
      <trkpt lat="47.78908" lon="3.58903">
        <ele>151</ele>
        <time>2019-04-02T06:36:41Z</time>
      </trkpt>
      <trkpt lat="47.78904" lon="3.58906">
        <ele>151</ele>
        <time>2019-04-02T06:36:44Z</time>
      </trkpt>
      <trkpt lat="47.78899" lon="3.58909">
        <ele>151</ele>
        <time>2019-04-02T06:36:48Z</time>
      </trkpt>
      <trkpt lat="47.78896" lon="3.58914">
        <ele>152</ele>
        <time>2019-04-02T06:36:51Z</time>
      </trkpt>
      <trkpt lat="47.78892" lon="3.58918">
        <ele>151</ele>
        <time>2019-04-02T06:36:53Z</time>
      </trkpt>
      <trkpt lat="47.78887" lon="3.58923">
        <ele>152</ele>
        <time>2019-04-02T06:36:58Z</time>
      </trkpt>
      <trkpt lat="47.78882" lon="3.58926">
        <ele>151</ele>
        <time>2019-04-02T06:37:01Z</time>
      </trkpt>
      <trkpt lat="47.78878" lon="3.5893">
        <ele>152</ele>
        <time>2019-04-02T06:37:04Z</time>
      </trkpt>
      <trkpt lat="47.78876" lon="3.58933">
        <ele>151</ele>
        <time>2019-04-02T06:37:06Z</time>
      </trkpt>
      <trkpt lat="47.7887" lon="3.58938">
        <ele>151</ele>
        <time>2019-04-02T06:37:11Z</time>
      </trkpt>
      <trkpt lat="47.78866" lon="3.58943">
        <ele>149</ele>
        <time>2019-04-02T06:37:15Z</time>
      </trkpt>
      <trkpt lat="47.78864" lon="3.58946">
        <ele>150</ele>
        <time>2019-04-02T06:37:18Z</time>
      </trkpt>
      <trkpt lat="47.78861" lon="3.58949">
        <ele>151</ele>
        <time>2019-04-02T06:37:20Z</time>
      </trkpt>
      <trkpt lat="47.78857" lon="3.58953">
        <ele>150</ele>
        <time>2019-04-02T06:37:22Z</time>
      </trkpt>
      <trkpt lat="47.78853" lon="3.58955">
        <ele>150</ele>
        <time>2019-04-02T06:37:25Z</time>
      </trkpt>
      <trkpt lat="47.78848" lon="3.58959">
        <ele>150</ele>
        <time>2019-04-02T06:37:29Z</time>
      </trkpt>
      <trkpt lat="47.78844" lon="3.58964">
        <ele>150</ele>
        <time>2019-04-02T06:37:34Z</time>
      </trkpt>
      <trkpt lat="47.7884" lon="3.58968">
        <ele>150</ele>
        <time>2019-04-02T06:37:38Z</time>
      </trkpt>
      <trkpt lat="47.78835" lon="3.5897">
        <ele>149</ele>
        <time>2019-04-02T06:37:41Z</time>
      </trkpt>
      <trkpt lat="47.78832" lon="3.58972">
        <ele>148</ele>
        <time>2019-04-02T06:37:44Z</time>
      </trkpt>
      <trkpt lat="47.78828" lon="3.58977">
        <ele>148</ele>
        <time>2019-04-02T06:37:48Z</time>
      </trkpt>
      <trkpt lat="47.78826" lon="3.58979">
        <ele>148</ele>
        <time>2019-04-02T06:37:50Z</time>
      </trkpt>
      <trkpt lat="47.78821" lon="3.58982">
        <ele>148</ele>
        <time>2019-04-02T06:37:53Z</time>
      </trkpt>
      <trkpt lat="47.78817" lon="3.58985">
        <ele>148</ele>
        <time>2019-04-02T06:37:55Z</time>
      </trkpt>
      <trkpt lat="47.78815" lon="3.58987">
        <ele>148</ele>
        <time>2019-04-02T06:37:57Z</time>
      </trkpt>
      <trkpt lat="47.78812" lon="3.5899">
        <ele>148</ele>
        <time>2019-04-02T06:38:00Z</time>
      </trkpt>
      <trkpt lat="47.7881" lon="3.58992">
        <ele>148</ele>
        <time>2019-04-02T06:38:02Z</time>
      </trkpt>
      <trkpt lat="47.78808" lon="3.58994">
        <ele>149</ele>
        <time>2019-04-02T06:38:04Z</time>
      </trkpt>
      <trkpt lat="47.78806" lon="3.58997">
        <ele>149</ele>
        <time>2019-04-02T06:38:06Z</time>
      </trkpt>
      <trkpt lat="47.78803" lon="3.59">
        <ele>149</ele>
        <time>2019-04-02T06:38:09Z</time>
      </trkpt>
      <trkpt lat="47.78801" lon="3.59003">
        <ele>148</ele>
        <time>2019-04-02T06:38:11Z</time>
      </trkpt>
      <trkpt lat="47.78797" lon="3.59007">
        <ele>147</ele>
        <time>2019-04-02T06:38:15Z</time>
      </trkpt>
      <trkpt lat="47.78795" lon="3.59008">
        <ele>147</ele>
        <time>2019-04-02T06:38:17Z</time>
      </trkpt>
      <trkpt lat="47.78792" lon="3.59011">
        <ele>148</ele>
        <time>2019-04-02T06:38:19Z</time>
      </trkpt>
      <trkpt lat="47.78789" lon="3.59014">
        <ele>149</ele>
        <time>2019-04-02T06:38:22Z</time>
      </trkpt>
      <trkpt lat="47.78787" lon="3.59016">
        <ele>148</ele>
        <time>2019-04-02T06:38:24Z</time>
      </trkpt>
      <trkpt lat="47.78783" lon="3.5902">
        <ele>146</ele>
        <time>2019-04-02T06:38:28Z</time>
      </trkpt>
      <trkpt lat="47.78778" lon="3.59024">
        <ele>146</ele>
        <time>2019-04-02T06:38:31Z</time>
      </trkpt>
      <trkpt lat="47.78774" lon="3.59028">
        <ele>146</ele>
        <time>2019-04-02T06:38:34Z</time>
      </trkpt>
      <trkpt lat="47.78771" lon="3.5903">
        <ele>146</ele>
        <time>2019-04-02T06:38:36Z</time>
      </trkpt>
      <trkpt lat="47.78766" lon="3.59035">
        <ele>147</ele>
        <time>2019-04-02T06:38:40Z</time>
      </trkpt>
      <trkpt lat="47.78763" lon="3.59037">
        <ele>147</ele>
        <time>2019-04-02T06:38:43Z</time>
      </trkpt>
      <trkpt lat="47.78758" lon="3.5904">
        <ele>147</ele>
        <time>2019-04-02T06:38:47Z</time>
      </trkpt>
      <trkpt lat="47.78754" lon="3.59046">
        <ele>148</ele>
        <time>2019-04-02T06:38:51Z</time>
      </trkpt>
      <trkpt lat="47.78749" lon="3.5905">
        <ele>151</ele>
        <time>2019-04-02T06:38:56Z</time>
      </trkpt>
      <trkpt lat="47.78744" lon="3.59053">
        <ele>150</ele>
        <time>2019-04-02T06:39:00Z</time>
      </trkpt>
      <trkpt lat="47.78739" lon="3.59057">
        <ele>149</ele>
        <time>2019-04-02T06:39:03Z</time>
      </trkpt>
      <trkpt lat="47.78734" lon="3.5906">
        <ele>149</ele>
        <time>2019-04-02T06:39:07Z</time>
      </trkpt>
      <trkpt lat="47.78729" lon="3.59064">
        <ele>150</ele>
        <time>2019-04-02T06:39:12Z</time>
      </trkpt>
      <trkpt lat="47.78727" lon="3.59066">
        <ele>150</ele>
        <time>2019-04-02T06:39:14Z</time>
      </trkpt>
      <trkpt lat="47.78723" lon="3.59071">
        <ele>150</ele>
        <time>2019-04-02T06:39:17Z</time>
      </trkpt>
      <trkpt lat="47.78719" lon="3.59074">
        <ele>150</ele>
        <time>2019-04-02T06:39:20Z</time>
      </trkpt>
      <trkpt lat="47.78717" lon="3.59075">
        <ele>149</ele>
        <time>2019-04-02T06:39:22Z</time>
      </trkpt>
      <trkpt lat="47.78714" lon="3.59077">
        <ele>148</ele>
        <time>2019-04-02T06:39:24Z</time>
      </trkpt>
      <trkpt lat="47.78712" lon="3.59079">
        <ele>147</ele>
        <time>2019-04-02T06:39:26Z</time>
      </trkpt>
      <trkpt lat="47.78709" lon="3.59081">
        <ele>147</ele>
        <time>2019-04-02T06:39:28Z</time>
      </trkpt>
      <trkpt lat="47.78707" lon="3.59082">
        <ele>146</ele>
        <time>2019-04-02T06:39:30Z</time>
      </trkpt>
      <trkpt lat="47.78704" lon="3.59085">
        <ele>146</ele>
        <time>2019-04-02T06:39:32Z</time>
      </trkpt>
      <trkpt lat="47.78702" lon="3.59087">
        <ele>147</ele>
        <time>2019-04-02T06:39:34Z</time>
      </trkpt>
      <trkpt lat="47.78699" lon="3.59089">
        <ele>146</ele>
        <time>2019-04-02T06:39:37Z</time>
      </trkpt>
      <trkpt lat="47.78695" lon="3.59091">
        <ele>146</ele>
        <time>2019-04-02T06:39:40Z</time>
      </trkpt>
      <trkpt lat="47.7869" lon="3.59095">
        <ele>146</ele>
        <time>2019-04-02T06:39:44Z</time>
      </trkpt>
      <trkpt lat="47.78686" lon="3.59099">
        <ele>146</ele>
        <time>2019-04-02T06:39:48Z</time>
      </trkpt>
      <trkpt lat="47.78682" lon="3.59104">
        <ele>147</ele>
        <time>2019-04-02T06:39:52Z</time>
      </trkpt>
      <trkpt lat="47.78679" lon="3.59107">
        <ele>147</ele>
        <time>2019-04-02T06:39:55Z</time>
      </trkpt>
      <trkpt lat="47.78675" lon="3.59111">
        <ele>147</ele>
        <time>2019-04-02T06:39:58Z</time>
      </trkpt>
      <trkpt lat="47.78672" lon="3.59114">
        <ele>147</ele>
        <time>2019-04-02T06:40:00Z</time>
      </trkpt>
      <trkpt lat="47.7867" lon="3.59116">
        <ele>146</ele>
        <time>2019-04-02T06:40:02Z</time>
      </trkpt>
      <trkpt lat="47.78666" lon="3.59121">
        <ele>145</ele>
        <time>2019-04-02T06:40:05Z</time>
      </trkpt>
      <trkpt lat="47.78661" lon="3.59123">
        <ele>144</ele>
        <time>2019-04-02T06:40:08Z</time>
      </trkpt>
      <trkpt lat="47.78655" lon="3.59129">
        <ele>143</ele>
        <time>2019-04-02T06:40:13Z</time>
      </trkpt>
      <trkpt lat="47.78648" lon="3.59132">
        <ele>142</ele>
        <time>2019-04-02T06:40:18Z</time>
      </trkpt>
      <trkpt lat="47.78645" lon="3.59134">
        <ele>141</ele>
        <time>2019-04-02T06:40:21Z</time>
      </trkpt>
      <trkpt lat="47.78641" lon="3.59138">
        <ele>142</ele>
        <time>2019-04-02T06:40:24Z</time>
      </trkpt>
      <trkpt lat="47.78636" lon="3.59143">
        <ele>145</ele>
        <time>2019-04-02T06:40:28Z</time>
      </trkpt>
      <trkpt lat="47.78634" lon="3.59146">
        <ele>145</ele>
        <time>2019-04-02T06:40:30Z</time>
      </trkpt>
      <trkpt lat="47.78629" lon="3.5915">
        <ele>145</ele>
        <time>2019-04-02T06:40:33Z</time>
      </trkpt>
      <trkpt lat="47.78626" lon="3.59154">
        <ele>146</ele>
        <time>2019-04-02T06:40:36Z</time>
      </trkpt>
      <trkpt lat="47.78623" lon="3.59159">
        <ele>147</ele>
        <time>2019-04-02T06:40:39Z</time>
      </trkpt>
      <trkpt lat="47.78621" lon="3.59162">
        <ele>147</ele>
        <time>2019-04-02T06:40:41Z</time>
      </trkpt>
      <trkpt lat="47.78618" lon="3.59169">
        <ele>146</ele>
        <time>2019-04-02T06:40:45Z</time>
      </trkpt>
      <trkpt lat="47.78616" lon="3.59172">
        <ele>147</ele>
        <time>2019-04-02T06:40:47Z</time>
      </trkpt>
      <trkpt lat="47.78612" lon="3.59176">
        <ele>146</ele>
        <time>2019-04-02T06:40:50Z</time>
      </trkpt>
      <trkpt lat="47.7861" lon="3.59179">
        <ele>147</ele>
        <time>2019-04-02T06:40:52Z</time>
      </trkpt>
      <trkpt lat="47.78608" lon="3.59183">
        <ele>147</ele>
        <time>2019-04-02T06:40:55Z</time>
      </trkpt>
      <trkpt lat="47.78604" lon="3.5919">
        <ele>148</ele>
        <time>2019-04-02T06:40:59Z</time>
      </trkpt>
      <trkpt lat="47.78599" lon="3.59196">
        <ele>147</ele>
        <time>2019-04-02T06:41:03Z</time>
      </trkpt>
      <trkpt lat="47.78595" lon="3.59203">
        <ele>148</ele>
        <time>2019-04-02T06:41:08Z</time>
      </trkpt>
      <trkpt lat="47.78592" lon="3.59208">
        <ele>148</ele>
        <time>2019-04-02T06:41:11Z</time>
      </trkpt>
      <trkpt lat="47.78591" lon="3.59212">
        <ele>149</ele>
        <time>2019-04-02T06:41:14Z</time>
      </trkpt>
      <trkpt lat="47.78587" lon="3.59215">
        <ele>147</ele>
        <time>2019-04-02T06:41:18Z</time>
      </trkpt>
      <trkpt lat="47.78584" lon="3.59218">
        <ele>147</ele>
        <time>2019-04-02T06:41:20Z</time>
      </trkpt>
      <trkpt lat="47.78581" lon="3.59224">
        <ele>148</ele>
        <time>2019-04-02T06:41:24Z</time>
      </trkpt>
      <trkpt lat="47.78578" lon="3.5923">
        <ele>148</ele>
        <time>2019-04-02T06:41:28Z</time>
      </trkpt>
      <trkpt lat="47.78575" lon="3.59236">
        <ele>148</ele>
        <time>2019-04-02T06:41:33Z</time>
      </trkpt>
      <trkpt lat="47.78573" lon="3.59241">
        <ele>149</ele>
        <time>2019-04-02T06:41:37Z</time>
      </trkpt>
      <trkpt lat="47.78571" lon="3.59244">
        <ele>150</ele>
        <time>2019-04-02T06:41:39Z</time>
      </trkpt>
      <trkpt lat="47.78569" lon="3.59247">
        <ele>149</ele>
        <time>2019-04-02T06:41:41Z</time>
      </trkpt>
      <trkpt lat="47.78568" lon="3.59255">
        <ele>150</ele>
        <time>2019-04-02T06:41:45Z</time>
      </trkpt>
      <trkpt lat="47.78566" lon="3.59262">
        <ele>149</ele>
        <time>2019-04-02T06:41:49Z</time>
      </trkpt>
      <trkpt lat="47.78564" lon="3.59269">
        <ele>149</ele>
        <time>2019-04-02T06:41:55Z</time>
      </trkpt>
      <trkpt lat="47.78561" lon="3.59275">
        <ele>147</ele>
        <time>2019-04-02T06:42:00Z</time>
      </trkpt>
      <trkpt lat="47.78559" lon="3.59278">
        <ele>148</ele>
        <time>2019-04-02T06:42:02Z</time>
      </trkpt>
      <trkpt lat="47.78557" lon="3.59281">
        <ele>148</ele>
        <time>2019-04-02T06:42:04Z</time>
      </trkpt>
      <trkpt lat="47.78552" lon="3.59286">
        <ele>148</ele>
        <time>2019-04-02T06:42:09Z</time>
      </trkpt>
      <trkpt lat="47.78549" lon="3.59291">
        <ele>148</ele>
        <time>2019-04-02T06:42:13Z</time>
      </trkpt>
      <trkpt lat="47.78546" lon="3.59297">
        <ele>149</ele>
        <time>2019-04-02T06:42:17Z</time>
      </trkpt>
      <trkpt lat="47.78541" lon="3.59301">
        <ele>149</ele>
        <time>2019-04-02T06:42:21Z</time>
      </trkpt>
      <trkpt lat="47.78537" lon="3.59306">
        <ele>148</ele>
        <time>2019-04-02T06:42:26Z</time>
      </trkpt>
      <trkpt lat="47.78534" lon="3.5931">
        <ele>148</ele>
        <time>2019-04-02T06:42:29Z</time>
      </trkpt>
      <trkpt lat="47.78532" lon="3.59312">
        <ele>148</ele>
        <time>2019-04-02T06:42:31Z</time>
      </trkpt>
      <trkpt lat="47.78528" lon="3.59316">
        <ele>149</ele>
        <time>2019-04-02T06:42:35Z</time>
      </trkpt>
      <trkpt lat="47.78525" lon="3.59321">
        <ele>149</ele>
        <time>2019-04-02T06:42:38Z</time>
      </trkpt>
      <trkpt lat="47.78521" lon="3.59326">
        <ele>148</ele>
        <time>2019-04-02T06:42:43Z</time>
      </trkpt>
      <trkpt lat="47.78518" lon="3.59331">
        <ele>147</ele>
        <time>2019-04-02T06:42:48Z</time>
      </trkpt>
      <trkpt lat="47.78515" lon="3.59334">
        <ele>148</ele>
        <time>2019-04-02T06:42:51Z</time>
      </trkpt>
      <trkpt lat="47.7851" lon="3.59336">
        <ele>149</ele>
        <time>2019-04-02T06:42:56Z</time>
      </trkpt>
      <trkpt lat="47.78506" lon="3.5934">
        <ele>150</ele>
        <time>2019-04-02T06:42:59Z</time>
      </trkpt>
      <trkpt lat="47.78504" lon="3.59342">
        <ele>149</ele>
        <time>2019-04-02T06:43:03Z</time>
      </trkpt>
      <trkpt lat="47.78503" lon="3.59349">
        <ele>147</ele>
        <time>2019-04-02T06:43:12Z</time>
      </trkpt>
      <trkpt lat="47.78497" lon="3.59353">
        <ele>146</ele>
        <time>2019-04-02T06:43:49Z</time>
      </trkpt>
      <trkpt lat="47.78493" lon="3.59356">
        <ele>145</ele>
        <time>2019-04-02T06:43:53Z</time>
      </trkpt>
      <trkpt lat="47.78487" lon="3.59363">
        <ele>145</ele>
        <time>2019-04-02T06:44:00Z</time>
      </trkpt>
      <trkpt lat="47.78482" lon="3.59367">
        <ele>145</ele>
        <time>2019-04-02T06:44:04Z</time>
      </trkpt>
      <trkpt lat="47.78479" lon="3.59369">
        <ele>145</ele>
        <time>2019-04-02T06:44:06Z</time>
      </trkpt>
      <trkpt lat="47.78474" lon="3.59374">
        <ele>145</ele>
        <time>2019-04-02T06:44:11Z</time>
      </trkpt>
      <trkpt lat="47.7847" lon="3.59379">
        <ele>147</ele>
        <time>2019-04-02T06:44:15Z</time>
      </trkpt>
      <trkpt lat="47.78466" lon="3.59383">
        <ele>148</ele>
        <time>2019-04-02T06:44:19Z</time>
      </trkpt>
      <trkpt lat="47.78464" lon="3.59386">
        <ele>147</ele>
        <time>2019-04-02T06:44:22Z</time>
      </trkpt>
      <trkpt lat="47.7846" lon="3.5939">
        <ele>147</ele>
        <time>2019-04-02T06:44:25Z</time>
      </trkpt>
      <trkpt lat="47.78455" lon="3.59396">
        <ele>147</ele>
        <time>2019-04-02T06:44:29Z</time>
      </trkpt>
      <trkpt lat="47.7845" lon="3.594">
        <ele>145</ele>
        <time>2019-04-02T06:44:34Z</time>
      </trkpt>
      <trkpt lat="47.78445" lon="3.59403">
        <ele>145</ele>
        <time>2019-04-02T06:44:37Z</time>
      </trkpt>
      <trkpt lat="47.78442" lon="3.59405">
        <ele>145</ele>
        <time>2019-04-02T06:44:39Z</time>
      </trkpt>
      <trkpt lat="47.78438" lon="3.5941">
        <ele>144</ele>
        <time>2019-04-02T06:44:43Z</time>
      </trkpt>
      <trkpt lat="47.78436" lon="3.59416">
        <ele>144</ele>
        <time>2019-04-02T06:44:46Z</time>
      </trkpt>
      <trkpt lat="47.78431" lon="3.5942">
        <ele>146</ele>
        <time>2019-04-02T06:44:51Z</time>
      </trkpt>
      <trkpt lat="47.78428" lon="3.59425">
        <ele>147</ele>
        <time>2019-04-02T06:44:55Z</time>
      </trkpt>
      <trkpt lat="47.78424" lon="3.59428">
        <ele>148</ele>
        <time>2019-04-02T06:44:59Z</time>
      </trkpt>
      <trkpt lat="47.78419" lon="3.59433">
        <ele>149</ele>
        <time>2019-04-02T06:45:03Z</time>
      </trkpt>
      <trkpt lat="47.78416" lon="3.59437">
        <ele>149</ele>
        <time>2019-04-02T06:45:06Z</time>
      </trkpt>
      <trkpt lat="47.78411" lon="3.59442">
        <ele>148</ele>
        <time>2019-04-02T06:45:09Z</time>
      </trkpt>
      <trkpt lat="47.78406" lon="3.59446">
        <ele>149</ele>
        <time>2019-04-02T06:45:13Z</time>
      </trkpt>
      <trkpt lat="47.78403" lon="3.59449">
        <ele>148</ele>
        <time>2019-04-02T06:45:16Z</time>
      </trkpt>
      <trkpt lat="47.78399" lon="3.59453">
        <ele>148</ele>
        <time>2019-04-02T06:45:19Z</time>
      </trkpt>
      <trkpt lat="47.78394" lon="3.59456">
        <ele>147</ele>
        <time>2019-04-02T06:45:23Z</time>
      </trkpt>
      <trkpt lat="47.78389" lon="3.59463">
        <ele>147</ele>
        <time>2019-04-02T06:45:28Z</time>
      </trkpt>
      <trkpt lat="47.78385" lon="3.59472">
        <ele>148</ele>
        <time>2019-04-02T06:45:33Z</time>
      </trkpt>
      <trkpt lat="47.78381" lon="3.59477">
        <ele>148</ele>
        <time>2019-04-02T06:45:37Z</time>
      </trkpt>
      <trkpt lat="47.78379" lon="3.5948">
        <ele>149</ele>
        <time>2019-04-02T06:45:39Z</time>
      </trkpt>
      <trkpt lat="47.78377" lon="3.59485">
        <ele>148</ele>
        <time>2019-04-02T06:45:42Z</time>
      </trkpt>
      <trkpt lat="47.78372" lon="3.5949">
        <ele>148</ele>
        <time>2019-04-02T06:45:46Z</time>
      </trkpt>
      <trkpt lat="47.78366" lon="3.59492">
        <ele>147</ele>
        <time>2019-04-02T06:45:51Z</time>
      </trkpt>
      <trkpt lat="47.78363" lon="3.59493">
        <ele>147</ele>
        <time>2019-04-02T06:45:53Z</time>
      </trkpt>
      <trkpt lat="47.78359" lon="3.59497">
        <ele>147</ele>
        <time>2019-04-02T06:45:56Z</time>
      </trkpt>
      <trkpt lat="47.78356" lon="3.59503">
        <ele>146</ele>
        <time>2019-04-02T06:45:59Z</time>
      </trkpt>
      <trkpt lat="47.78353" lon="3.5951">
        <ele>148</ele>
        <time>2019-04-02T06:46:03Z</time>
      </trkpt>
      <trkpt lat="47.78349" lon="3.59513">
        <ele>146</ele>
        <time>2019-04-02T06:46:08Z</time>
      </trkpt>
      <trkpt lat="47.78346" lon="3.59521">
        <ele>146</ele>
        <time>2019-04-02T06:46:12Z</time>
      </trkpt>
      <trkpt lat="47.78343" lon="3.59529">
        <ele>148</ele>
        <time>2019-04-02T06:46:16Z</time>
      </trkpt>
      <trkpt lat="47.78341" lon="3.5954">
        <ele>148</ele>
        <time>2019-04-02T06:46:22Z</time>
      </trkpt>
      <trkpt lat="47.78339" lon="3.59548">
        <ele>149</ele>
        <time>2019-04-02T06:46:26Z</time>
      </trkpt>
      <trkpt lat="47.78338" lon="3.59551">
        <ele>148</ele>
        <time>2019-04-02T06:46:28Z</time>
      </trkpt>
      <trkpt lat="47.78336" lon="3.59558">
        <ele>149</ele>
        <time>2019-04-02T06:46:31Z</time>
      </trkpt>
      <trkpt lat="47.78335" lon="3.59563">
        <ele>148</ele>
        <time>2019-04-02T06:46:34Z</time>
      </trkpt>
      <trkpt lat="47.78334" lon="3.59568">
        <ele>148</ele>
        <time>2019-04-02T06:46:37Z</time>
      </trkpt>
      <trkpt lat="47.78332" lon="3.59576">
        <ele>148</ele>
        <time>2019-04-02T06:46:42Z</time>
      </trkpt>
      <trkpt lat="47.7833" lon="3.59582">
        <ele>149</ele>
        <time>2019-04-02T06:46:46Z</time>
      </trkpt>
      <trkpt lat="47.78329" lon="3.59585">
        <ele>148</ele>
        <time>2019-04-02T06:46:48Z</time>
      </trkpt>
      <trkpt lat="47.78328" lon="3.59589">
        <ele>149</ele>
        <time>2019-04-02T06:46:50Z</time>
      </trkpt>
      <trkpt lat="47.78325" lon="3.59598">
        <ele>149</ele>
        <time>2019-04-02T06:46:55Z</time>
      </trkpt>
      <trkpt lat="47.78323" lon="3.59601">
        <ele>150</ele>
        <time>2019-04-02T06:46:57Z</time>
      </trkpt>
      <trkpt lat="47.78322" lon="3.59604">
        <ele>151</ele>
        <time>2019-04-02T06:46:59Z</time>
      </trkpt>
      <trkpt lat="47.78321" lon="3.59607">
        <ele>152</ele>
        <time>2019-04-02T06:47:01Z</time>
      </trkpt>
      <trkpt lat="47.78319" lon="3.59611">
        <ele>152</ele>
        <time>2019-04-02T06:47:04Z</time>
      </trkpt>
      <trkpt lat="47.78317" lon="3.5962">
        <ele>152</ele>
        <time>2019-04-02T06:47:08Z</time>
      </trkpt>
      <trkpt lat="47.78315" lon="3.59627">
        <ele>153</ele>
        <time>2019-04-02T06:47:11Z</time>
      </trkpt>
      <trkpt lat="47.78313" lon="3.59633">
        <ele>153</ele>
        <time>2019-04-02T06:47:14Z</time>
      </trkpt>
      <trkpt lat="47.78311" lon="3.59638">
        <ele>153</ele>
        <time>2019-04-02T06:47:16Z</time>
      </trkpt>
      <trkpt lat="47.7831" lon="3.59643">
        <ele>153</ele>
        <time>2019-04-02T06:47:18Z</time>
      </trkpt>
      <trkpt lat="47.78308" lon="3.59647">
        <ele>152</ele>
        <time>2019-04-02T06:47:20Z</time>
      </trkpt>
      <trkpt lat="47.78306" lon="3.59652">
        <ele>152</ele>
        <time>2019-04-02T06:47:23Z</time>
      </trkpt>
      <trkpt lat="47.78304" lon="3.59658">
        <ele>153</ele>
        <time>2019-04-02T06:47:27Z</time>
      </trkpt>
      <trkpt lat="47.78301" lon="3.59663">
        <ele>153</ele>
        <time>2019-04-02T06:47:31Z</time>
      </trkpt>
      <trkpt lat="47.78298" lon="3.59669">
        <ele>153</ele>
        <time>2019-04-02T06:47:35Z</time>
      </trkpt>
      <trkpt lat="47.78295" lon="3.59675">
        <ele>153</ele>
        <time>2019-04-02T06:47:38Z</time>
      </trkpt>
      <trkpt lat="47.78292" lon="3.59685">
        <ele>153</ele>
        <time>2019-04-02T06:47:43Z</time>
      </trkpt>
      <trkpt lat="47.7829" lon="3.59688">
        <ele>153</ele>
        <time>2019-04-02T06:47:45Z</time>
      </trkpt>
      <trkpt lat="47.78289" lon="3.59695">
        <ele>153</ele>
        <time>2019-04-02T06:47:48Z</time>
      </trkpt>
      <trkpt lat="47.78287" lon="3.59702">
        <ele>152</ele>
        <time>2019-04-02T06:47:52Z</time>
      </trkpt>
      <trkpt lat="47.78284" lon="3.59708">
        <ele>152</ele>
        <time>2019-04-02T06:47:54Z</time>
      </trkpt>
      <trkpt lat="47.78282" lon="3.59718">
        <ele>151</ele>
        <time>2019-04-02T06:48:00Z</time>
      </trkpt>
      <trkpt lat="47.78281" lon="3.59722">
        <ele>150</ele>
        <time>2019-04-02T06:48:02Z</time>
      </trkpt>
      <trkpt lat="47.7828" lon="3.59726">
        <ele>150</ele>
        <time>2019-04-02T06:48:04Z</time>
      </trkpt>
      <trkpt lat="47.78279" lon="3.5973">
        <ele>149</ele>
        <time>2019-04-02T06:48:06Z</time>
      </trkpt>
      <trkpt lat="47.78278" lon="3.59734">
        <ele>148</ele>
        <time>2019-04-02T06:48:08Z</time>
      </trkpt>
      <trkpt lat="47.78277" lon="3.59738">
        <ele>148</ele>
        <time>2019-04-02T06:48:10Z</time>
      </trkpt>
      <trkpt lat="47.78276" lon="3.59742">
        <ele>148</ele>
        <time>2019-04-02T06:48:12Z</time>
      </trkpt>
      <trkpt lat="47.78274" lon="3.59749">
        <ele>148</ele>
        <time>2019-04-02T06:48:15Z</time>
      </trkpt>
      <trkpt lat="47.78273" lon="3.59752">
        <ele>148</ele>
        <time>2019-04-02T06:48:17Z</time>
      </trkpt>
      <trkpt lat="47.78271" lon="3.59759">
        <ele>148</ele>
        <time>2019-04-02T06:48:22Z</time>
      </trkpt>
      <trkpt lat="47.7827" lon="3.59764">
        <ele>147</ele>
        <time>2019-04-02T06:48:24Z</time>
      </trkpt>
      <trkpt lat="47.78269" lon="3.59768">
        <ele>147</ele>
        <time>2019-04-02T06:48:26Z</time>
      </trkpt>
      <trkpt lat="47.78266" lon="3.59776">
        <ele>148</ele>
        <time>2019-04-02T06:48:30Z</time>
      </trkpt>
      <trkpt lat="47.78264" lon="3.59785">
        <ele>148</ele>
        <time>2019-04-02T06:48:34Z</time>
      </trkpt>
      <trkpt lat="47.78262" lon="3.59792">
        <ele>147</ele>
        <time>2019-04-02T06:48:38Z</time>
      </trkpt>
      <trkpt lat="47.78261" lon="3.59799">
        <ele>148</ele>
        <time>2019-04-02T06:48:41Z</time>
      </trkpt>
      <trkpt lat="47.78259" lon="3.59804">
        <ele>148</ele>
        <time>2019-04-02T06:48:44Z</time>
      </trkpt>
      <trkpt lat="47.78258" lon="3.59808">
        <ele>149</ele>
        <time>2019-04-02T06:48:46Z</time>
      </trkpt>
      <trkpt lat="47.78257" lon="3.59812">
        <ele>149</ele>
        <time>2019-04-02T06:48:49Z</time>
      </trkpt>
      <trkpt lat="47.78255" lon="3.59816">
        <ele>149</ele>
        <time>2019-04-02T06:48:51Z</time>
      </trkpt>
      <trkpt lat="47.78254" lon="3.59821">
        <ele>150</ele>
        <time>2019-04-02T06:48:53Z</time>
      </trkpt>
      <trkpt lat="47.78253" lon="3.59828">
        <ele>149</ele>
        <time>2019-04-02T06:48:56Z</time>
      </trkpt>
      <trkpt lat="47.78252" lon="3.59831">
        <ele>150</ele>
        <time>2019-04-02T06:48:58Z</time>
      </trkpt>
      <trkpt lat="47.78252" lon="3.59835">
        <ele>150</ele>
        <time>2019-04-02T06:49:00Z</time>
      </trkpt>
      <trkpt lat="47.78249" lon="3.59841">
        <ele>149</ele>
        <time>2019-04-02T06:49:04Z</time>
      </trkpt>
      <trkpt lat="47.78248" lon="3.59848">
        <ele>149</ele>
        <time>2019-04-02T06:49:07Z</time>
      </trkpt>
      <trkpt lat="47.78245" lon="3.59855">
        <ele>150</ele>
        <time>2019-04-02T06:49:11Z</time>
      </trkpt>
      <trkpt lat="47.78243" lon="3.59865">
        <ele>149</ele>
        <time>2019-04-02T06:49:15Z</time>
      </trkpt>
      <trkpt lat="47.78241" lon="3.59872">
        <ele>149</ele>
        <time>2019-04-02T06:49:19Z</time>
      </trkpt>
      <trkpt lat="47.78239" lon="3.59875">
        <ele>149</ele>
        <time>2019-04-02T06:49:21Z</time>
      </trkpt>
      <trkpt lat="47.78237" lon="3.59881">
        <ele>149</ele>
        <time>2019-04-02T06:49:24Z</time>
      </trkpt>
      <trkpt lat="47.78236" lon="3.59885">
        <ele>148</ele>
        <time>2019-04-02T06:49:26Z</time>
      </trkpt>
      <trkpt lat="47.78234" lon="3.59891">
        <ele>149</ele>
        <time>2019-04-02T06:49:29Z</time>
      </trkpt>
      <trkpt lat="47.78233" lon="3.59895">
        <ele>149</ele>
        <time>2019-04-02T06:49:31Z</time>
      </trkpt>
      <trkpt lat="47.7823" lon="3.599">
        <ele>148</ele>
        <time>2019-04-02T06:49:34Z</time>
      </trkpt>
      <trkpt lat="47.78228" lon="3.59904">
        <ele>148</ele>
        <time>2019-04-02T06:49:37Z</time>
      </trkpt>
      <trkpt lat="47.78227" lon="3.59907">
        <ele>147</ele>
        <time>2019-04-02T06:49:39Z</time>
      </trkpt>
      <trkpt lat="47.78225" lon="3.59912">
        <ele>147</ele>
        <time>2019-04-02T06:49:42Z</time>
      </trkpt>
      <trkpt lat="47.78223" lon="3.59917">
        <ele>147</ele>
        <time>2019-04-02T06:49:46Z</time>
      </trkpt>
      <trkpt lat="47.78222" lon="3.59924">
        <ele>146</ele>
        <time>2019-04-02T06:49:50Z</time>
      </trkpt>
      <trkpt lat="47.78218" lon="3.59933">
        <ele>146</ele>
        <time>2019-04-02T06:49:55Z</time>
      </trkpt>
      <trkpt lat="47.78215" lon="3.5994">
        <ele>146</ele>
        <time>2019-04-02T06:50:00Z</time>
      </trkpt>
      <trkpt lat="47.78214" lon="3.59944">
        <ele>145</ele>
        <time>2019-04-02T06:50:02Z</time>
      </trkpt>
      <trkpt lat="47.78212" lon="3.59948">
        <ele>146</ele>
        <time>2019-04-02T06:50:04Z</time>
      </trkpt>
      <trkpt lat="47.7821" lon="3.59951">
        <ele>146</ele>
        <time>2019-04-02T06:50:06Z</time>
      </trkpt>
      <trkpt lat="47.78208" lon="3.59955">
        <ele>146</ele>
        <time>2019-04-02T06:50:09Z</time>
      </trkpt>
      <trkpt lat="47.78206" lon="3.59961">
        <ele>146</ele>
        <time>2019-04-02T06:50:13Z</time>
      </trkpt>
      <trkpt lat="47.78204" lon="3.59964">
        <ele>146</ele>
        <time>2019-04-02T06:50:15Z</time>
      </trkpt>
      <trkpt lat="47.78202" lon="3.5997">
        <ele>145</ele>
        <time>2019-04-02T06:50:19Z</time>
      </trkpt>
      <trkpt lat="47.78199" lon="3.59975">
        <ele>146</ele>
        <time>2019-04-02T06:50:22Z</time>
      </trkpt>
      <trkpt lat="47.78197" lon="3.59979">
        <ele>146</ele>
        <time>2019-04-02T06:50:25Z</time>
      </trkpt>
      <trkpt lat="47.78194" lon="3.59984">
        <ele>146</ele>
        <time>2019-04-02T06:50:28Z</time>
      </trkpt>
      <trkpt lat="47.7819" lon="3.5999">
        <ele>147</ele>
        <time>2019-04-02T06:50:33Z</time>
      </trkpt>
      <trkpt lat="47.78187" lon="3.59995">
        <ele>147</ele>
        <time>2019-04-02T06:50:37Z</time>
      </trkpt>
      <trkpt lat="47.78185" lon="3.60002">
        <ele>148</ele>
        <time>2019-04-02T06:50:41Z</time>
      </trkpt>
      <trkpt lat="47.78178" lon="3.6001">
        <ele>147</ele>
        <time>2019-04-02T06:50:47Z</time>
      </trkpt>
      <trkpt lat="47.78174" lon="3.60016">
        <ele>147</ele>
        <time>2019-04-02T06:50:50Z</time>
      </trkpt>
      <trkpt lat="47.78169" lon="3.6002">
        <ele>147</ele>
        <time>2019-04-02T06:50:54Z</time>
      </trkpt>
      <trkpt lat="47.78166" lon="3.60026">
        <ele>148</ele>
        <time>2019-04-02T06:50:58Z</time>
      </trkpt>
      <trkpt lat="47.78163" lon="3.6003">
        <ele>150</ele>
        <time>2019-04-02T06:51:02Z</time>
      </trkpt>
      <trkpt lat="47.78158" lon="3.60031">
        <ele>150</ele>
        <time>2019-04-02T06:51:06Z</time>
      </trkpt>
      <trkpt lat="47.78154" lon="3.60039">
        <ele>150</ele>
        <time>2019-04-02T06:51:11Z</time>
      </trkpt>
      <trkpt lat="47.78151" lon="3.60043">
        <ele>151</ele>
        <time>2019-04-02T06:51:14Z</time>
      </trkpt>
      <trkpt lat="47.78149" lon="3.60046">
        <ele>151</ele>
        <time>2019-04-02T06:51:16Z</time>
      </trkpt>
      <trkpt lat="47.78145" lon="3.60052">
        <ele>150</ele>
        <time>2019-04-02T06:51:20Z</time>
      </trkpt>
      <trkpt lat="47.78143" lon="3.60055">
        <ele>151</ele>
        <time>2019-04-02T06:51:22Z</time>
      </trkpt>
      <trkpt lat="47.7814" lon="3.6006">
        <ele>151</ele>
        <time>2019-04-02T06:51:25Z</time>
      </trkpt>
      <trkpt lat="47.78136" lon="3.60065">
        <ele>151</ele>
        <time>2019-04-02T06:51:28Z</time>
      </trkpt>
      <trkpt lat="47.78133" lon="3.60072">
        <ele>152</ele>
        <time>2019-04-02T06:51:33Z</time>
      </trkpt>
      <trkpt lat="47.7813" lon="3.60077">
        <ele>154</ele>
        <time>2019-04-02T06:51:37Z</time>
      </trkpt>
      <trkpt lat="47.78128" lon="3.60082">
        <ele>154</ele>
        <time>2019-04-02T06:51:39Z</time>
      </trkpt>
      <trkpt lat="47.78124" lon="3.60087">
        <ele>154</ele>
        <time>2019-04-02T06:51:42Z</time>
      </trkpt>
      <trkpt lat="47.78122" lon="3.60089">
        <ele>153</ele>
        <time>2019-04-02T06:51:44Z</time>
      </trkpt>
      <trkpt lat="47.78119" lon="3.60093">
        <ele>151</ele>
        <time>2019-04-02T06:51:47Z</time>
      </trkpt>
      <trkpt lat="47.78114" lon="3.601">
        <ele>152</ele>
        <time>2019-04-02T06:51:51Z</time>
      </trkpt>
      <trkpt lat="47.78112" lon="3.60102">
        <ele>151</ele>
        <time>2019-04-02T06:51:53Z</time>
      </trkpt>
      <trkpt lat="47.78107" lon="3.60107">
        <ele>152</ele>
        <time>2019-04-02T06:51:58Z</time>
      </trkpt>
      <trkpt lat="47.78103" lon="3.60111">
        <ele>154</ele>
        <time>2019-04-02T06:52:01Z</time>
      </trkpt>
      <trkpt lat="47.78099" lon="3.60117">
        <ele>153</ele>
        <time>2019-04-02T06:52:05Z</time>
      </trkpt>
      <trkpt lat="47.78096" lon="3.60122">
        <ele>152</ele>
        <time>2019-04-02T06:52:09Z</time>
      </trkpt>
      <trkpt lat="47.78093" lon="3.60125">
        <ele>152</ele>
        <time>2019-04-02T06:52:11Z</time>
      </trkpt>
      <trkpt lat="47.78089" lon="3.60132">
        <ele>151</ele>
        <time>2019-04-02T06:52:17Z</time>
      </trkpt>
      <trkpt lat="47.78084" lon="3.60137">
        <ele>150</ele>
        <time>2019-04-02T06:52:20Z</time>
      </trkpt>
      <trkpt lat="47.7808" lon="3.60142">
        <ele>150</ele>
        <time>2019-04-02T06:52:24Z</time>
      </trkpt>
      <trkpt lat="47.78078" lon="3.60144">
        <ele>151</ele>
        <time>2019-04-02T06:52:26Z</time>
      </trkpt>
      <trkpt lat="47.78075" lon="3.60152">
        <ele>152</ele>
        <time>2019-04-02T06:52:30Z</time>
      </trkpt>
      <trkpt lat="47.78072" lon="3.60157">
        <ele>152</ele>
        <time>2019-04-02T06:52:33Z</time>
      </trkpt>
      <trkpt lat="47.7807" lon="3.60161">
        <ele>154</ele>
        <time>2019-04-02T06:52:35Z</time>
      </trkpt>
      <trkpt lat="47.78065" lon="3.60169">
        <ele>153</ele>
        <time>2019-04-02T06:52:41Z</time>
      </trkpt>
      <trkpt lat="47.78061" lon="3.60174">
        <ele>153</ele>
        <time>2019-04-02T06:52:44Z</time>
      </trkpt>
      <trkpt lat="47.78059" lon="3.60178">
        <ele>153</ele>
        <time>2019-04-02T06:52:46Z</time>
      </trkpt>
      <trkpt lat="47.78057" lon="3.60184">
        <ele>154</ele>
        <time>2019-04-02T06:52:50Z</time>
      </trkpt>
      <trkpt lat="47.78056" lon="3.60191">
        <ele>155</ele>
        <time>2019-04-02T06:52:53Z</time>
      </trkpt>
      <trkpt lat="47.78053" lon="3.60199">
        <ele>156</ele>
        <time>2019-04-02T06:52:57Z</time>
      </trkpt>
      <trkpt lat="47.7805" lon="3.60204">
        <ele>156</ele>
        <time>2019-04-02T06:53:00Z</time>
      </trkpt>
      <trkpt lat="47.78048" lon="3.60207">
        <ele>156</ele>
        <time>2019-04-02T06:53:02Z</time>
      </trkpt>
      <trkpt lat="47.78046" lon="3.60214">
        <ele>156</ele>
        <time>2019-04-02T06:53:06Z</time>
      </trkpt>
      <trkpt lat="47.78043" lon="3.60219">
        <ele>154</ele>
        <time>2019-04-02T06:53:09Z</time>
      </trkpt>
      <trkpt lat="47.7804" lon="3.60225">
        <ele>154</ele>
        <time>2019-04-02T06:53:13Z</time>
      </trkpt>
      <trkpt lat="47.78038" lon="3.60229">
        <ele>153</ele>
        <time>2019-04-02T06:53:15Z</time>
      </trkpt>
      <trkpt lat="47.78035" lon="3.60237">
        <ele>153</ele>
        <time>2019-04-02T06:53:19Z</time>
      </trkpt>
      <trkpt lat="47.7803" lon="3.6024">
        <ele>152</ele>
        <time>2019-04-02T06:53:22Z</time>
      </trkpt>
      <trkpt lat="47.78026" lon="3.60245">
        <ele>152</ele>
        <time>2019-04-02T06:53:25Z</time>
      </trkpt>
      <trkpt lat="47.78023" lon="3.60255">
        <ele>153</ele>
        <time>2019-04-02T06:53:30Z</time>
      </trkpt>
      <trkpt lat="47.78022" lon="3.60258">
        <ele>153</ele>
        <time>2019-04-02T06:53:32Z</time>
      </trkpt>
      <trkpt lat="47.78019" lon="3.60265">
        <ele>152</ele>
        <time>2019-04-02T06:53:36Z</time>
      </trkpt>
      <trkpt lat="47.78017" lon="3.60272">
        <ele>153</ele>
        <time>2019-04-02T06:53:41Z</time>
      </trkpt>
      <trkpt lat="47.78013" lon="3.60281">
        <ele>154</ele>
        <time>2019-04-02T06:53:46Z</time>
      </trkpt>
      <trkpt lat="47.78011" lon="3.60289">
        <ele>154</ele>
        <time>2019-04-02T06:53:50Z</time>
      </trkpt>
      <trkpt lat="47.78007" lon="3.60297">
        <ele>153</ele>
        <time>2019-04-02T06:53:54Z</time>
      </trkpt>
      <trkpt lat="47.78003" lon="3.60303">
        <ele>152</ele>
        <time>2019-04-02T06:53:58Z</time>
      </trkpt>
      <trkpt lat="47.78" lon="3.60309">
        <ele>151</ele>
        <time>2019-04-02T06:54:02Z</time>
      </trkpt>
      <trkpt lat="47.77997" lon="3.60314">
        <ele>150</ele>
        <time>2019-04-02T06:54:05Z</time>
      </trkpt>
      <trkpt lat="47.77995" lon="3.6032">
        <ele>150</ele>
        <time>2019-04-02T06:54:08Z</time>
      </trkpt>
      <trkpt lat="47.77993" lon="3.60327">
        <ele>150</ele>
        <time>2019-04-02T06:54:12Z</time>
      </trkpt>
      <trkpt lat="47.7799" lon="3.60334">
        <ele>150</ele>
        <time>2019-04-02T06:54:17Z</time>
      </trkpt>
      <trkpt lat="47.77988" lon="3.60337">
        <ele>150</ele>
        <time>2019-04-02T06:54:20Z</time>
      </trkpt>
      <trkpt lat="47.77987" lon="3.6034">
        <ele>149</ele>
        <time>2019-04-02T06:54:22Z</time>
      </trkpt>
      <trkpt lat="47.77987" lon="3.60347">
        <ele>149</ele>
        <time>2019-04-02T06:54:26Z</time>
      </trkpt>
      <trkpt lat="47.77984" lon="3.60356">
        <ele>150</ele>
        <time>2019-04-02T06:54:30Z</time>
      </trkpt>
      <trkpt lat="47.77983" lon="3.60361">
        <ele>150</ele>
        <time>2019-04-02T06:54:32Z</time>
      </trkpt>
      <trkpt lat="47.77981" lon="3.60368">
        <ele>150</ele>
        <time>2019-04-02T06:54:35Z</time>
      </trkpt>
      <trkpt lat="47.77979" lon="3.60374">
        <ele>150</ele>
        <time>2019-04-02T06:54:38Z</time>
      </trkpt>
      <trkpt lat="47.77976" lon="3.60383">
        <ele>149</ele>
        <time>2019-04-02T06:54:42Z</time>
      </trkpt>
      <trkpt lat="47.77975" lon="3.60387">
        <ele>150</ele>
        <time>2019-04-02T06:54:44Z</time>
      </trkpt>
      <trkpt lat="47.77972" lon="3.60393">
        <ele>149</ele>
        <time>2019-04-02T06:54:48Z</time>
      </trkpt>
      <trkpt lat="47.77971" lon="3.60399">
        <ele>149</ele>
        <time>2019-04-02T06:54:51Z</time>
      </trkpt>
      <trkpt lat="47.77969" lon="3.60407">
        <ele>149</ele>
        <time>2019-04-02T06:54:54Z</time>
      </trkpt>
      <trkpt lat="47.77967" lon="3.60413">
        <ele>149</ele>
        <time>2019-04-02T06:54:57Z</time>
      </trkpt>
      <trkpt lat="47.77965" lon="3.6042">
        <ele>149</ele>
        <time>2019-04-02T06:55:02Z</time>
      </trkpt>
      <trkpt lat="47.77963" lon="3.60427">
        <ele>149</ele>
        <time>2019-04-02T06:55:06Z</time>
      </trkpt>
      <trkpt lat="47.77959" lon="3.60436">
        <ele>148</ele>
        <time>2019-04-02T06:55:10Z</time>
      </trkpt>
      <trkpt lat="47.77956" lon="3.60443">
        <ele>148</ele>
        <time>2019-04-02T06:55:14Z</time>
      </trkpt>
      <trkpt lat="47.77954" lon="3.60449">
        <ele>148</ele>
        <time>2019-04-02T06:55:18Z</time>
      </trkpt>
      <trkpt lat="47.77953" lon="3.60457">
        <ele>148</ele>
        <time>2019-04-02T06:55:22Z</time>
      </trkpt>
      <trkpt lat="47.77951" lon="3.60463">
        <ele>148</ele>
        <time>2019-04-02T06:55:25Z</time>
      </trkpt>
      <trkpt lat="47.77949" lon="3.60469">
        <ele>149</ele>
        <time>2019-04-02T06:55:29Z</time>
      </trkpt>
      <trkpt lat="47.77947" lon="3.60475">
        <ele>150</ele>
        <time>2019-04-02T06:55:32Z</time>
      </trkpt>
      <trkpt lat="47.77945" lon="3.60478">
        <ele>150</ele>
        <time>2019-04-02T06:55:34Z</time>
      </trkpt>
      <trkpt lat="47.77943" lon="3.60484">
        <ele>150</ele>
        <time>2019-04-02T06:55:38Z</time>
      </trkpt>
      <trkpt lat="47.77941" lon="3.60492">
        <ele>150</ele>
        <time>2019-04-02T06:55:42Z</time>
      </trkpt>
      <trkpt lat="47.7794" lon="3.60496">
        <ele>149</ele>
        <time>2019-04-02T06:55:44Z</time>
      </trkpt>
      <trkpt lat="47.77939" lon="3.60503">
        <ele>151</ele>
        <time>2019-04-02T06:55:48Z</time>
      </trkpt>
      <trkpt lat="47.77937" lon="3.6051">
        <ele>151</ele>
        <time>2019-04-02T06:55:52Z</time>
      </trkpt>
      <trkpt lat="47.77936" lon="3.60515">
        <ele>152</ele>
        <time>2019-04-02T06:55:54Z</time>
      </trkpt>
      <trkpt lat="47.77933" lon="3.60522">
        <ele>151</ele>
        <time>2019-04-02T06:55:57Z</time>
      </trkpt>
      <trkpt lat="47.7793" lon="3.60528">
        <ele>151</ele>
        <time>2019-04-02T06:56:01Z</time>
      </trkpt>
      <trkpt lat="47.77929" lon="3.60532">
        <ele>151</ele>
        <time>2019-04-02T06:56:04Z</time>
      </trkpt>
      <trkpt lat="47.77926" lon="3.60541">
        <ele>152</ele>
        <time>2019-04-02T06:56:08Z</time>
      </trkpt>
      <trkpt lat="47.77923" lon="3.60547">
        <ele>151</ele>
        <time>2019-04-02T06:56:12Z</time>
      </trkpt>
      <trkpt lat="47.77921" lon="3.60554">
        <ele>151</ele>
        <time>2019-04-02T06:56:15Z</time>
      </trkpt>
      <trkpt lat="47.7792" lon="3.60558">
        <ele>151</ele>
        <time>2019-04-02T06:56:18Z</time>
      </trkpt>
      <trkpt lat="47.77918" lon="3.60565">
        <ele>152</ele>
        <time>2019-04-02T06:56:21Z</time>
      </trkpt>
      <trkpt lat="47.77916" lon="3.60572">
        <ele>152</ele>
        <time>2019-04-02T06:56:25Z</time>
      </trkpt>
      <trkpt lat="47.77912" lon="3.60583">
        <ele>151</ele>
        <time>2019-04-02T06:56:31Z</time>
      </trkpt>
      <trkpt lat="47.77909" lon="3.6059">
        <ele>151</ele>
        <time>2019-04-02T06:56:35Z</time>
      </trkpt>
      <trkpt lat="47.77907" lon="3.60597">
        <ele>151</ele>
        <time>2019-04-02T06:56:38Z</time>
      </trkpt>
      <trkpt lat="47.77905" lon="3.60603">
        <ele>152</ele>
        <time>2019-04-02T06:56:41Z</time>
      </trkpt>
      <trkpt lat="47.77901" lon="3.60609">
        <ele>151</ele>
        <time>2019-04-02T06:56:45Z</time>
      </trkpt>
      <trkpt lat="47.77897" lon="3.60616">
        <ele>151</ele>
        <time>2019-04-02T06:56:49Z</time>
      </trkpt>
      <trkpt lat="47.77894" lon="3.60623">
        <ele>151</ele>
        <time>2019-04-02T06:56:52Z</time>
      </trkpt>
      <trkpt lat="47.77893" lon="3.60626">
        <ele>150</ele>
        <time>2019-04-02T06:56:54Z</time>
      </trkpt>
      <trkpt lat="47.7789" lon="3.6063">
        <ele>149</ele>
        <time>2019-04-02T06:56:57Z</time>
      </trkpt>
      <trkpt lat="47.77888" lon="3.60639">
        <ele>150</ele>
        <time>2019-04-02T06:57:01Z</time>
      </trkpt>
      <trkpt lat="47.77886" lon="3.60644">
        <ele>149</ele>
        <time>2019-04-02T06:57:04Z</time>
      </trkpt>
      <trkpt lat="47.77883" lon="3.6065">
        <ele>149</ele>
        <time>2019-04-02T06:57:08Z</time>
      </trkpt>
      <trkpt lat="47.77881" lon="3.60657">
        <ele>148</ele>
        <time>2019-04-02T06:57:11Z</time>
      </trkpt>
      <trkpt lat="47.77879" lon="3.60665">
        <ele>147</ele>
        <time>2019-04-02T06:57:15Z</time>
      </trkpt>
      <trkpt lat="47.77878" lon="3.60669">
        <ele>148</ele>
        <time>2019-04-02T06:57:17Z</time>
      </trkpt>
      <trkpt lat="47.77876" lon="3.60677">
        <ele>148</ele>
        <time>2019-04-02T06:57:22Z</time>
      </trkpt>
      <trkpt lat="47.77875" lon="3.60681">
        <ele>148</ele>
        <time>2019-04-02T06:57:24Z</time>
      </trkpt>
      <trkpt lat="47.77874" lon="3.6069">
        <ele>148</ele>
        <time>2019-04-02T06:57:28Z</time>
      </trkpt>
      <trkpt lat="47.77871" lon="3.60696">
        <ele>148</ele>
        <time>2019-04-02T06:57:31Z</time>
      </trkpt>
      <trkpt lat="47.7787" lon="3.60703">
        <ele>148</ele>
        <time>2019-04-02T06:57:34Z</time>
      </trkpt>
      <trkpt lat="47.77869" lon="3.6071">
        <ele>148</ele>
        <time>2019-04-02T06:57:37Z</time>
      </trkpt>
      <trkpt lat="47.77867" lon="3.60718">
        <ele>147</ele>
        <time>2019-04-02T06:57:41Z</time>
      </trkpt>
      <trkpt lat="47.77866" lon="3.60722">
        <ele>147</ele>
        <time>2019-04-02T06:57:43Z</time>
      </trkpt>
      <trkpt lat="47.77864" lon="3.60728">
        <ele>147</ele>
        <time>2019-04-02T06:57:47Z</time>
      </trkpt>
      <trkpt lat="47.77862" lon="3.60733">
        <ele>147</ele>
        <time>2019-04-02T06:57:50Z</time>
      </trkpt>
      <trkpt lat="47.7786" lon="3.60737">
        <ele>146</ele>
        <time>2019-04-02T06:57:52Z</time>
      </trkpt>
      <trkpt lat="47.77857" lon="3.60743">
        <ele>147</ele>
        <time>2019-04-02T06:57:56Z</time>
      </trkpt>
      <trkpt lat="47.77855" lon="3.60747">
        <ele>146</ele>
        <time>2019-04-02T06:57:58Z</time>
      </trkpt>
      <trkpt lat="47.77853" lon="3.60755">
        <ele>146</ele>
        <time>2019-04-02T06:58:02Z</time>
      </trkpt>
      <trkpt lat="47.77849" lon="3.60761">
        <ele>147</ele>
        <time>2019-04-02T06:58:06Z</time>
      </trkpt>
      <trkpt lat="47.77847" lon="3.60767">
        <ele>148</ele>
        <time>2019-04-02T06:58:10Z</time>
      </trkpt>
      <trkpt lat="47.77845" lon="3.60771">
        <ele>149</ele>
        <time>2019-04-02T06:58:12Z</time>
      </trkpt>
      <trkpt lat="47.77842" lon="3.60776">
        <ele>148</ele>
        <time>2019-04-02T06:58:15Z</time>
      </trkpt>
      <trkpt lat="47.7784" lon="3.6078">
        <ele>148</ele>
        <time>2019-04-02T06:58:17Z</time>
      </trkpt>
      <trkpt lat="47.77838" lon="3.60783">
        <ele>149</ele>
        <time>2019-04-02T06:58:19Z</time>
      </trkpt>
      <trkpt lat="47.77836" lon="3.6079">
        <ele>148</ele>
        <time>2019-04-02T06:58:23Z</time>
      </trkpt>
      <trkpt lat="47.77834" lon="3.60795">
        <ele>147</ele>
        <time>2019-04-02T06:58:26Z</time>
      </trkpt>
      <trkpt lat="47.77831" lon="3.60801">
        <ele>147</ele>
        <time>2019-04-02T06:58:30Z</time>
      </trkpt>
      <trkpt lat="47.77829" lon="3.60805">
        <ele>147</ele>
        <time>2019-04-02T06:58:33Z</time>
      </trkpt>
      <trkpt lat="47.77827" lon="3.6081">
        <ele>147</ele>
        <time>2019-04-02T06:58:36Z</time>
      </trkpt>
      <trkpt lat="47.77825" lon="3.60813">
        <ele>147</ele>
        <time>2019-04-02T06:58:38Z</time>
      </trkpt>
      <trkpt lat="47.77823" lon="3.60817">
        <ele>147</ele>
        <time>2019-04-02T06:58:40Z</time>
      </trkpt>
      <trkpt lat="47.77821" lon="3.6082">
        <ele>147</ele>
        <time>2019-04-02T06:58:42Z</time>
      </trkpt>
      <trkpt lat="47.77819" lon="3.60827">
        <ele>146</ele>
        <time>2019-04-02T06:58:46Z</time>
      </trkpt>
      <trkpt lat="47.77816" lon="3.60833">
        <ele>148</ele>
        <time>2019-04-02T06:58:50Z</time>
      </trkpt>
      <trkpt lat="47.77815" lon="3.6084">
        <ele>148</ele>
        <time>2019-04-02T06:58:53Z</time>
      </trkpt>
      <trkpt lat="47.77811" lon="3.60846">
        <ele>148</ele>
        <time>2019-04-02T06:58:57Z</time>
      </trkpt>
      <trkpt lat="47.77809" lon="3.60854">
        <ele>147</ele>
        <time>2019-04-02T06:59:01Z</time>
      </trkpt>
      <trkpt lat="47.77805" lon="3.60859">
        <ele>147</ele>
        <time>2019-04-02T06:59:05Z</time>
      </trkpt>
      <trkpt lat="47.77802" lon="3.60864">
        <ele>148</ele>
        <time>2019-04-02T06:59:08Z</time>
      </trkpt>
      <trkpt lat="47.77798" lon="3.60869">
        <ele>147</ele>
        <time>2019-04-02T06:59:12Z</time>
      </trkpt>
      <trkpt lat="47.77794" lon="3.60874">
        <ele>146</ele>
        <time>2019-04-02T06:59:16Z</time>
      </trkpt>
      <trkpt lat="47.77791" lon="3.60878">
        <ele>146</ele>
        <time>2019-04-02T06:59:18Z</time>
      </trkpt>
      <trkpt lat="47.77788" lon="3.60881">
        <ele>146</ele>
        <time>2019-04-02T06:59:21Z</time>
      </trkpt>
      <trkpt lat="47.77783" lon="3.60886">
        <ele>146</ele>
        <time>2019-04-02T06:59:26Z</time>
      </trkpt>
      <trkpt lat="47.77779" lon="3.60891">
        <ele>146</ele>
        <time>2019-04-02T06:59:30Z</time>
      </trkpt>
      <trkpt lat="47.77775" lon="3.60899">
        <ele>147</ele>
        <time>2019-04-02T06:59:35Z</time>
      </trkpt>
      <trkpt lat="47.77772" lon="3.60904">
        <ele>146</ele>
        <time>2019-04-02T06:59:39Z</time>
      </trkpt>
      <trkpt lat="47.7777" lon="3.60906">
        <ele>146</ele>
        <time>2019-04-02T06:59:41Z</time>
      </trkpt>
      <trkpt lat="47.77768" lon="3.60909">
        <ele>147</ele>
        <time>2019-04-02T06:59:43Z</time>
      </trkpt>
      <trkpt lat="47.77764" lon="3.60915">
        <ele>147</ele>
        <time>2019-04-02T06:59:47Z</time>
      </trkpt>
      <trkpt lat="47.7776" lon="3.6092">
        <ele>147</ele>
        <time>2019-04-02T06:59:51Z</time>
      </trkpt>
      <trkpt lat="47.77757" lon="3.60926">
        <ele>148</ele>
        <time>2019-04-02T06:59:55Z</time>
      </trkpt>
      <trkpt lat="47.77752" lon="3.60929">
        <ele>148</ele>
        <time>2019-04-02T06:59:59Z</time>
      </trkpt>
      <trkpt lat="47.77749" lon="3.60935">
        <ele>149</ele>
        <time>2019-04-02T07:00:02Z</time>
      </trkpt>
      <trkpt lat="47.77745" lon="3.6094">
        <ele>148</ele>
        <time>2019-04-02T07:00:05Z</time>
      </trkpt>
      <trkpt lat="47.77741" lon="3.60946">
        <ele>147</ele>
        <time>2019-04-02T07:00:10Z</time>
      </trkpt>
      <trkpt lat="47.77739" lon="3.60952">
        <ele>147</ele>
        <time>2019-04-02T07:00:14Z</time>
      </trkpt>
      <trkpt lat="47.77735" lon="3.60958">
        <ele>147</ele>
        <time>2019-04-02T07:00:18Z</time>
      </trkpt>
      <trkpt lat="47.77732" lon="3.60965">
        <ele>148</ele>
        <time>2019-04-02T07:00:22Z</time>
      </trkpt>
      <trkpt lat="47.77727" lon="3.6097">
        <ele>148</ele>
        <time>2019-04-02T07:00:26Z</time>
      </trkpt>
      <trkpt lat="47.77725" lon="3.60972">
        <ele>147</ele>
        <time>2019-04-02T07:00:28Z</time>
      </trkpt>
      <trkpt lat="47.77723" lon="3.60976">
        <ele>148</ele>
        <time>2019-04-02T07:00:30Z</time>
      </trkpt>
      <trkpt lat="47.77721" lon="3.60979">
        <ele>148</ele>
        <time>2019-04-02T07:00:32Z</time>
      </trkpt>
      <trkpt lat="47.77715" lon="3.60983">
        <ele>148</ele>
        <time>2019-04-02T07:00:36Z</time>
      </trkpt>
      <trkpt lat="47.77711" lon="3.60988">
        <ele>147</ele>
        <time>2019-04-02T07:00:39Z</time>
      </trkpt>
      <trkpt lat="47.77709" lon="3.6099">
        <ele>147</ele>
        <time>2019-04-02T07:00:41Z</time>
      </trkpt>
      <trkpt lat="47.77705" lon="3.60994">
        <ele>147</ele>
        <time>2019-04-02T07:00:45Z</time>
      </trkpt>
      <trkpt lat="47.77703" lon="3.60996">
        <ele>146</ele>
        <time>2019-04-02T07:00:47Z</time>
      </trkpt>
      <trkpt lat="47.777" lon="3.60999">
        <ele>146</ele>
        <time>2019-04-02T07:00:50Z</time>
      </trkpt>
      <trkpt lat="47.77697" lon="3.61004">
        <ele>146</ele>
        <time>2019-04-02T07:00:54Z</time>
      </trkpt>
      <trkpt lat="47.77693" lon="3.61008">
        <ele>146</ele>
        <time>2019-04-02T07:00:59Z</time>
      </trkpt>
      <trkpt lat="47.77687" lon="3.61011">
        <ele>146</ele>
        <time>2019-04-02T07:01:04Z</time>
      </trkpt>
      <trkpt lat="47.77683" lon="3.61015">
        <ele>145</ele>
        <time>2019-04-02T07:01:08Z</time>
      </trkpt>
      <trkpt lat="47.77678" lon="3.61015">
        <ele>146</ele>
        <time>2019-04-02T07:01:12Z</time>
      </trkpt>
      <trkpt lat="47.77675" lon="3.61016">
        <ele>147</ele>
        <time>2019-04-02T07:01:14Z</time>
      </trkpt>
      <trkpt lat="47.77672" lon="3.61017">
        <ele>147</ele>
        <time>2019-04-02T07:01:16Z</time>
      </trkpt>
      <trkpt lat="47.77665" lon="3.61017">
        <ele>147</ele>
        <time>2019-04-02T07:01:19Z</time>
      </trkpt>
      <trkpt lat="47.77659" lon="3.61018">
        <ele>147</ele>
        <time>2019-04-02T07:01:24Z</time>
      </trkpt>
      <trkpt lat="47.77657" lon="3.61019">
        <ele>147</ele>
        <time>2019-04-02T07:01:26Z</time>
      </trkpt>
      <trkpt lat="47.7765" lon="3.61018">
        <ele>146</ele>
        <time>2019-04-02T07:01:31Z</time>
      </trkpt>
      <trkpt lat="47.77644" lon="3.61019">
        <ele>145</ele>
        <time>2019-04-02T07:01:35Z</time>
      </trkpt>
      <trkpt lat="47.7764" lon="3.61019">
        <ele>145</ele>
        <time>2019-04-02T07:01:38Z</time>
      </trkpt>
      <trkpt lat="47.77635" lon="3.61021">
        <ele>146</ele>
        <time>2019-04-02T07:01:42Z</time>
      </trkpt>
      <trkpt lat="47.7763" lon="3.61023">
        <ele>147</ele>
        <time>2019-04-02T07:01:47Z</time>
      </trkpt>
      <trkpt lat="47.77628" lon="3.61025">
        <ele>147</ele>
        <time>2019-04-02T07:01:49Z</time>
      </trkpt>
      <trkpt lat="47.77621" lon="3.61024">
        <ele>147</ele>
        <time>2019-04-02T07:01:54Z</time>
      </trkpt>
      <trkpt lat="47.77616" lon="3.61025">
        <ele>147</ele>
        <time>2019-04-02T07:01:59Z</time>
      </trkpt>
      <trkpt lat="47.77613" lon="3.61025">
        <ele>148</ele>
        <time>2019-04-02T07:02:01Z</time>
      </trkpt>
      <trkpt lat="47.77609" lon="3.61025">
        <ele>148</ele>
        <time>2019-04-02T07:02:04Z</time>
      </trkpt>
      <trkpt lat="47.77603" lon="3.61027">
        <ele>149</ele>
        <time>2019-04-02T07:02:09Z</time>
      </trkpt>
      <trkpt lat="47.77601" lon="3.61028">
        <ele>149</ele>
        <time>2019-04-02T07:02:11Z</time>
      </trkpt>
      <trkpt lat="47.77593" lon="3.61027">
        <ele>150</ele>
        <time>2019-04-02T07:02:17Z</time>
      </trkpt>
      <trkpt lat="47.7759" lon="3.61027">
        <ele>150</ele>
        <time>2019-04-02T07:02:20Z</time>
      </trkpt>
      <trkpt lat="47.77585" lon="3.61029">
        <ele>150</ele>
        <time>2019-04-02T07:02:24Z</time>
      </trkpt>
      <trkpt lat="47.7758" lon="3.61028">
        <ele>149</ele>
        <time>2019-04-02T07:02:30Z</time>
      </trkpt>
      <trkpt lat="47.77575" lon="3.61027">
        <ele>150</ele>
        <time>2019-04-02T07:02:33Z</time>
      </trkpt>
      <trkpt lat="47.7757" lon="3.61028">
        <ele>151</ele>
        <time>2019-04-02T07:02:36Z</time>
      </trkpt>
      <trkpt lat="47.77567" lon="3.61029">
        <ele>151</ele>
        <time>2019-04-02T07:02:38Z</time>
      </trkpt>
      <trkpt lat="47.77563" lon="3.6103">
        <ele>150</ele>
        <time>2019-04-02T07:02:41Z</time>
      </trkpt>
      <trkpt lat="47.7756" lon="3.61031">
        <ele>150</ele>
        <time>2019-04-02T07:02:43Z</time>
      </trkpt>
      <trkpt lat="47.77555" lon="3.61031">
        <ele>149</ele>
        <time>2019-04-02T07:02:46Z</time>
      </trkpt>
      <trkpt lat="47.77549" lon="3.61034">
        <ele>149</ele>
        <time>2019-04-02T07:02:51Z</time>
      </trkpt>
      <trkpt lat="47.77543" lon="3.61033">
        <ele>149</ele>
        <time>2019-04-02T07:02:56Z</time>
      </trkpt>
      <trkpt lat="47.77539" lon="3.61033">
        <ele>149</ele>
        <time>2019-04-02T07:03:00Z</time>
      </trkpt>
      <trkpt lat="47.77534" lon="3.61034">
        <ele>150</ele>
        <time>2019-04-02T07:03:04Z</time>
      </trkpt>
      <trkpt lat="47.77532" lon="3.61035">
        <ele>151</ele>
        <time>2019-04-02T07:03:06Z</time>
      </trkpt>
      <trkpt lat="47.77527" lon="3.61035">
        <ele>150</ele>
        <time>2019-04-02T07:03:10Z</time>
      </trkpt>
      <trkpt lat="47.77524" lon="3.61035">
        <ele>149</ele>
        <time>2019-04-02T07:03:13Z</time>
      </trkpt>
      <trkpt lat="47.77519" lon="3.61034">
        <ele>150</ele>
        <time>2019-04-02T07:03:16Z</time>
      </trkpt>
      <trkpt lat="47.77517" lon="3.61034">
        <ele>150</ele>
        <time>2019-04-02T07:03:18Z</time>
      </trkpt>
      <trkpt lat="47.77511" lon="3.61034">
        <ele>151</ele>
        <time>2019-04-02T07:03:23Z</time>
      </trkpt>
      <trkpt lat="47.77507" lon="3.61033">
        <ele>151</ele>
        <time>2019-04-02T07:03:26Z</time>
      </trkpt>
      <trkpt lat="47.77502" lon="3.61033">
        <ele>150</ele>
        <time>2019-04-02T07:03:30Z</time>
      </trkpt>
      <trkpt lat="47.77499" lon="3.61032">
        <ele>150</ele>
        <time>2019-04-02T07:03:33Z</time>
      </trkpt>
      <trkpt lat="47.77494" lon="3.61029">
        <ele>151</ele>
        <time>2019-04-02T07:03:37Z</time>
      </trkpt>
      <trkpt lat="47.7749" lon="3.61028">
        <ele>151</ele>
        <time>2019-04-02T07:03:41Z</time>
      </trkpt>
      <trkpt lat="47.77486" lon="3.61024">
        <ele>151</ele>
        <time>2019-04-02T07:03:44Z</time>
      </trkpt>
      <trkpt lat="47.77483" lon="3.61021">
        <ele>152</ele>
        <time>2019-04-02T07:03:47Z</time>
      </trkpt>
      <trkpt lat="47.77478" lon="3.61019">
        <ele>152</ele>
        <time>2019-04-02T07:03:51Z</time>
      </trkpt>
      <trkpt lat="47.77474" lon="3.61016">
        <ele>153</ele>
        <time>2019-04-02T07:03:54Z</time>
      </trkpt>
      <trkpt lat="47.77467" lon="3.61013">
        <ele>156</ele>
        <time>2019-04-02T07:03:59Z</time>
      </trkpt>
      <trkpt lat="47.77463" lon="3.6101">
        <ele>156</ele>
        <time>2019-04-02T07:04:03Z</time>
      </trkpt>
      <trkpt lat="47.77459" lon="3.61006">
        <ele>156</ele>
        <time>2019-04-02T07:04:06Z</time>
      </trkpt>
      <trkpt lat="47.77456" lon="3.61003">
        <ele>156</ele>
        <time>2019-04-02T07:04:09Z</time>
      </trkpt>
      <trkpt lat="47.77451" lon="3.60999">
        <ele>155</ele>
        <time>2019-04-02T07:04:14Z</time>
      </trkpt>
      <trkpt lat="47.77446" lon="3.60995">
        <ele>155</ele>
        <time>2019-04-02T07:04:18Z</time>
      </trkpt>
      <trkpt lat="47.7744" lon="3.60994">
        <ele>156</ele>
        <time>2019-04-02T07:04:22Z</time>
      </trkpt>
      <trkpt lat="47.77436" lon="3.60989">
        <ele>157</ele>
        <time>2019-04-02T07:04:26Z</time>
      </trkpt>
      <trkpt lat="47.77432" lon="3.60985">
        <ele>157</ele>
        <time>2019-04-02T07:04:30Z</time>
      </trkpt>
      <trkpt lat="47.7743" lon="3.60984">
        <ele>158</ele>
        <time>2019-04-02T07:04:32Z</time>
      </trkpt>
      <trkpt lat="47.77425" lon="3.60979">
        <ele>159</ele>
        <time>2019-04-02T07:04:36Z</time>
      </trkpt>
      <trkpt lat="47.77422" lon="3.60974">
        <ele>159</ele>
        <time>2019-04-02T07:04:41Z</time>
      </trkpt>
      <trkpt lat="47.7742" lon="3.60971">
        <ele>159</ele>
        <time>2019-04-02T07:04:43Z</time>
      </trkpt>
      <trkpt lat="47.77417" lon="3.60966">
        <ele>159</ele>
        <time>2019-04-02T07:04:47Z</time>
      </trkpt>
      <trkpt lat="47.77412" lon="3.60962">
        <ele>159</ele>
        <time>2019-04-02T07:04:51Z</time>
      </trkpt>
      <trkpt lat="47.77407" lon="3.60956">
        <ele>159</ele>
        <time>2019-04-02T07:04:56Z</time>
      </trkpt>
      <trkpt lat="47.77403" lon="3.60953">
        <ele>158</ele>
        <time>2019-04-02T07:05:01Z</time>
      </trkpt>
      <trkpt lat="47.77399" lon="3.60951">
        <ele>159</ele>
        <time>2019-04-02T07:05:03Z</time>
      </trkpt>
      <trkpt lat="47.77395" lon="3.60946">
        <ele>159</ele>
        <time>2019-04-02T07:05:07Z</time>
      </trkpt>
      <trkpt lat="47.77392" lon="3.60942">
        <ele>160</ele>
        <time>2019-04-02T07:05:10Z</time>
      </trkpt>
      <trkpt lat="47.77387" lon="3.60938">
        <ele>161</ele>
        <time>2019-04-02T07:05:14Z</time>
      </trkpt>
      <trkpt lat="47.77381" lon="3.60934">
        <ele>161</ele>
        <time>2019-04-02T07:05:17Z</time>
      </trkpt>
      <trkpt lat="47.77375" lon="3.6093">
        <ele>161</ele>
        <time>2019-04-02T07:05:23Z</time>
      </trkpt>
      <trkpt lat="47.77371" lon="3.60925">
        <ele>161</ele>
        <time>2019-04-02T07:05:27Z</time>
      </trkpt>
      <trkpt lat="47.77369" lon="3.60923">
        <ele>159</ele>
        <time>2019-04-02T07:05:30Z</time>
      </trkpt>
      <trkpt lat="47.77364" lon="3.6092">
        <ele>159</ele>
        <time>2019-04-02T07:05:34Z</time>
      </trkpt>
      <trkpt lat="47.77359" lon="3.60917">
        <ele>157</ele>
        <time>2019-04-02T07:05:38Z</time>
      </trkpt>
      <trkpt lat="47.77355" lon="3.60912">
        <ele>156</ele>
        <time>2019-04-02T07:05:43Z</time>
      </trkpt>
      <trkpt lat="47.77352" lon="3.60909">
        <ele>155</ele>
        <time>2019-04-02T07:05:46Z</time>
      </trkpt>
      <trkpt lat="47.77348" lon="3.60906">
        <ele>154</ele>
        <time>2019-04-02T07:05:49Z</time>
      </trkpt>
      <trkpt lat="47.77344" lon="3.60899">
        <ele>154</ele>
        <time>2019-04-02T07:05:53Z</time>
      </trkpt>
      <trkpt lat="47.77342" lon="3.60896">
        <ele>154</ele>
        <time>2019-04-02T07:05:55Z</time>
      </trkpt>
      <trkpt lat="47.7734" lon="3.60893">
        <ele>154</ele>
        <time>2019-04-02T07:05:57Z</time>
      </trkpt>
      <trkpt lat="47.77336" lon="3.60889">
        <ele>154</ele>
        <time>2019-04-02T07:06:00Z</time>
      </trkpt>
      <trkpt lat="47.77332" lon="3.60885">
        <ele>153</ele>
        <time>2019-04-02T07:06:04Z</time>
      </trkpt>
      <trkpt lat="47.7733" lon="3.60883">
        <ele>153</ele>
        <time>2019-04-02T07:06:06Z</time>
      </trkpt>
      <trkpt lat="47.77324" lon="3.6088">
        <ele>153</ele>
        <time>2019-04-02T07:06:10Z</time>
      </trkpt>
      <trkpt lat="47.77321" lon="3.60875">
        <ele>153</ele>
        <time>2019-04-02T07:06:14Z</time>
      </trkpt>
      <trkpt lat="47.77318" lon="3.60871">
        <ele>154</ele>
        <time>2019-04-02T07:06:17Z</time>
      </trkpt>
      <trkpt lat="47.77313" lon="3.60867">
        <ele>154</ele>
        <time>2019-04-02T07:06:21Z</time>
      </trkpt>
      <trkpt lat="47.77311" lon="3.60866">
        <ele>155</ele>
        <time>2019-04-02T07:06:23Z</time>
      </trkpt>
      <trkpt lat="47.77307" lon="3.60861">
        <ele>155</ele>
        <time>2019-04-02T07:06:27Z</time>
      </trkpt>
      <trkpt lat="47.77303" lon="3.60858">
        <ele>156</ele>
        <time>2019-04-02T07:06:30Z</time>
      </trkpt>
      <trkpt lat="47.77299" lon="3.60856">
        <ele>155</ele>
        <time>2019-04-02T07:06:32Z</time>
      </trkpt>
      <trkpt lat="47.77297" lon="3.60854">
        <ele>155</ele>
        <time>2019-04-02T07:06:34Z</time>
      </trkpt>
      <trkpt lat="47.77292" lon="3.60848">
        <ele>156</ele>
        <time>2019-04-02T07:06:39Z</time>
      </trkpt>
      <trkpt lat="47.77288" lon="3.60845">
        <ele>157</ele>
        <time>2019-04-02T07:06:43Z</time>
      </trkpt>
      <trkpt lat="47.77284" lon="3.60843">
        <ele>157</ele>
        <time>2019-04-02T07:06:46Z</time>
      </trkpt>
      <trkpt lat="47.77282" lon="3.60841">
        <ele>157</ele>
        <time>2019-04-02T07:06:48Z</time>
      </trkpt>
      <trkpt lat="47.7728" lon="3.60839">
        <ele>157</ele>
        <time>2019-04-02T07:06:50Z</time>
      </trkpt>
      <trkpt lat="47.77275" lon="3.60836">
        <ele>156</ele>
        <time>2019-04-02T07:06:53Z</time>
      </trkpt>
      <trkpt lat="47.77271" lon="3.60833">
        <ele>156</ele>
        <time>2019-04-02T07:06:56Z</time>
      </trkpt>
      <trkpt lat="47.77269" lon="3.60831">
        <ele>156</ele>
        <time>2019-04-02T07:06:58Z</time>
      </trkpt>
      <trkpt lat="47.77266" lon="3.60825">
        <ele>157</ele>
        <time>2019-04-02T07:07:02Z</time>
      </trkpt>
      <trkpt lat="47.77264" lon="3.60822">
        <ele>157</ele>
        <time>2019-04-02T07:07:04Z</time>
      </trkpt>
      <trkpt lat="47.77259" lon="3.60817">
        <ele>157</ele>
        <time>2019-04-02T07:07:09Z</time>
      </trkpt>
      <trkpt lat="47.77257" lon="3.60814">
        <ele>157</ele>
        <time>2019-04-02T07:07:12Z</time>
      </trkpt>
      <trkpt lat="47.77255" lon="3.60811">
        <ele>158</ele>
        <time>2019-04-02T07:07:14Z</time>
      </trkpt>
      <trkpt lat="47.77252" lon="3.60808">
        <ele>158</ele>
        <time>2019-04-02T07:07:16Z</time>
      </trkpt>
      <trkpt lat="47.77248" lon="3.60805">
        <ele>158</ele>
        <time>2019-04-02T07:07:19Z</time>
      </trkpt>
      <trkpt lat="47.77244" lon="3.60799">
        <ele>158</ele>
        <time>2019-04-02T07:07:24Z</time>
      </trkpt>
      <trkpt lat="47.7724" lon="3.60796">
        <ele>158</ele>
        <time>2019-04-02T07:07:27Z</time>
      </trkpt>
      <trkpt lat="47.77236" lon="3.60791">
        <ele>157</ele>
        <time>2019-04-02T07:07:31Z</time>
      </trkpt>
      <trkpt lat="47.77234" lon="3.60788">
        <ele>157</ele>
        <time>2019-04-02T07:07:33Z</time>
      </trkpt>
      <trkpt lat="47.77232" lon="3.60786">
        <ele>157</ele>
        <time>2019-04-02T07:07:35Z</time>
      </trkpt>
      <trkpt lat="47.7723" lon="3.60784">
        <ele>156</ele>
        <time>2019-04-02T07:07:37Z</time>
      </trkpt>
      <trkpt lat="47.77226" lon="3.60776">
        <ele>156</ele>
        <time>2019-04-02T07:07:42Z</time>
      </trkpt>
      <trkpt lat="47.77222" lon="3.60771">
        <ele>156</ele>
        <time>2019-04-02T07:07:46Z</time>
      </trkpt>
      <trkpt lat="47.77218" lon="3.60768">
        <ele>156</ele>
        <time>2019-04-02T07:07:49Z</time>
      </trkpt>
      <trkpt lat="47.77213" lon="3.60763">
        <ele>157</ele>
        <time>2019-04-02T07:07:53Z</time>
      </trkpt>
      <trkpt lat="47.77209" lon="3.60757">
        <ele>156</ele>
        <time>2019-04-02T07:07:58Z</time>
      </trkpt>
      <trkpt lat="47.77205" lon="3.60752">
        <ele>156</ele>
        <time>2019-04-02T07:08:02Z</time>
      </trkpt>
      <trkpt lat="47.77203" lon="3.6075">
        <ele>156</ele>
        <time>2019-04-02T07:08:04Z</time>
      </trkpt>
      <trkpt lat="47.772" lon="3.60744">
        <ele>155</ele>
        <time>2019-04-02T07:08:08Z</time>
      </trkpt>
      <trkpt lat="47.77197" lon="3.60739">
        <ele>155</ele>
        <time>2019-04-02T07:08:12Z</time>
      </trkpt>
      <trkpt lat="47.77194" lon="3.60735">
        <ele>155</ele>
        <time>2019-04-02T07:08:16Z</time>
      </trkpt>
      <trkpt lat="47.77191" lon="3.60732">
        <ele>155</ele>
        <time>2019-04-02T07:08:18Z</time>
      </trkpt>
      <trkpt lat="47.77188" lon="3.60728">
        <ele>155</ele>
        <time>2019-04-02T07:08:21Z</time>
      </trkpt>
      <trkpt lat="47.77185" lon="3.60725">
        <ele>154</ele>
        <time>2019-04-02T07:08:24Z</time>
      </trkpt>
      <trkpt lat="47.77182" lon="3.60719">
        <ele>154</ele>
        <time>2019-04-02T07:08:28Z</time>
      </trkpt>
      <trkpt lat="47.77178" lon="3.60713">
        <ele>154</ele>
        <time>2019-04-02T07:08:32Z</time>
      </trkpt>
      <trkpt lat="47.77176" lon="3.6071">
        <ele>154</ele>
        <time>2019-04-02T07:08:34Z</time>
      </trkpt>
      <trkpt lat="47.77174" lon="3.60707">
        <ele>154</ele>
        <time>2019-04-02T07:08:37Z</time>
      </trkpt>
      <trkpt lat="47.7717" lon="3.60703">
        <ele>155</ele>
        <time>2019-04-02T07:08:40Z</time>
      </trkpt>
      <trkpt lat="47.77166" lon="3.60698">
        <ele>155</ele>
        <time>2019-04-02T07:08:45Z</time>
      </trkpt>
      <trkpt lat="47.77163" lon="3.60696">
        <ele>155</ele>
        <time>2019-04-02T07:08:47Z</time>
      </trkpt>
      <trkpt lat="47.77161" lon="3.60693">
        <ele>155</ele>
        <time>2019-04-02T07:08:50Z</time>
      </trkpt>
      <trkpt lat="47.77158" lon="3.60687">
        <ele>156</ele>
        <time>2019-04-02T07:08:54Z</time>
      </trkpt>
      <trkpt lat="47.77154" lon="3.60683">
        <ele>157</ele>
        <time>2019-04-02T07:08:58Z</time>
      </trkpt>
      <trkpt lat="47.7715" lon="3.60679">
        <ele>156</ele>
        <time>2019-04-02T07:09:01Z</time>
      </trkpt>
      <trkpt lat="47.77146" lon="3.60675">
        <ele>158</ele>
        <time>2019-04-02T07:09:05Z</time>
      </trkpt>
      <trkpt lat="47.77143" lon="3.60671">
        <ele>158</ele>
        <time>2019-04-02T07:09:08Z</time>
      </trkpt>
      <trkpt lat="47.77141" lon="3.60668">
        <ele>159</ele>
        <time>2019-04-02T07:09:10Z</time>
      </trkpt>
      <trkpt lat="47.77136" lon="3.60666">
        <ele>160</ele>
        <time>2019-04-02T07:09:14Z</time>
      </trkpt>
      <trkpt lat="47.77132" lon="3.60661">
        <ele>159</ele>
        <time>2019-04-02T07:09:18Z</time>
      </trkpt>
      <trkpt lat="47.77129" lon="3.60658">
        <ele>160</ele>
        <time>2019-04-02T07:09:21Z</time>
      </trkpt>
      <trkpt lat="47.77126" lon="3.60656">
        <ele>160</ele>
        <time>2019-04-02T07:09:24Z</time>
      </trkpt>
      <trkpt lat="47.77123" lon="3.60653">
        <ele>160</ele>
        <time>2019-04-02T07:09:26Z</time>
      </trkpt>
      <trkpt lat="47.7712" lon="3.60651">
        <ele>159</ele>
        <time>2019-04-02T07:09:28Z</time>
      </trkpt>
      <trkpt lat="47.77118" lon="3.6065">
        <ele>160</ele>
        <time>2019-04-02T07:09:30Z</time>
      </trkpt>
      <trkpt lat="47.77115" lon="3.60648">
        <ele>160</ele>
        <time>2019-04-02T07:09:32Z</time>
      </trkpt>
      <trkpt lat="47.7711" lon="3.60645">
        <ele>160</ele>
        <time>2019-04-02T07:09:35Z</time>
      </trkpt>
      <trkpt lat="47.77107" lon="3.60641">
        <ele>160</ele>
        <time>2019-04-02T07:09:40Z</time>
      </trkpt>
      <trkpt lat="47.77102" lon="3.60638">
        <ele>160</ele>
        <time>2019-04-02T07:09:44Z</time>
      </trkpt>
      <trkpt lat="47.771" lon="3.60637">
        <ele>161</ele>
        <time>2019-04-02T07:09:46Z</time>
      </trkpt>
      <trkpt lat="47.77097" lon="3.60636">
        <ele>161</ele>
        <time>2019-04-02T07:09:47Z</time>
      </trkpt>
      <trkpt lat="47.77095" lon="3.60635">
        <ele>160</ele>
        <time>2019-04-02T07:09:49Z</time>
      </trkpt>
      <trkpt lat="47.77093" lon="3.60634">
        <ele>161</ele>
        <time>2019-04-02T07:09:51Z</time>
      </trkpt>
      <trkpt lat="47.77089" lon="3.6063">
        <ele>161</ele>
        <time>2019-04-02T07:09:56Z</time>
      </trkpt>
      <trkpt lat="47.77086" lon="3.60629">
        <ele>161</ele>
        <time>2019-04-02T07:09:58Z</time>
      </trkpt>
      <trkpt lat="47.77084" lon="3.60627">
        <ele>161</ele>
        <time>2019-04-02T07:10:00Z</time>
      </trkpt>
      <trkpt lat="47.77079" lon="3.60624">
        <ele>162</ele>
        <time>2019-04-02T07:10:04Z</time>
      </trkpt>
      <trkpt lat="47.77075" lon="3.6062">
        <ele>161</ele>
        <time>2019-04-02T07:10:08Z</time>
      </trkpt>
      <trkpt lat="47.77072" lon="3.60618">
        <ele>161</ele>
        <time>2019-04-02T07:10:10Z</time>
      </trkpt>
      <trkpt lat="47.7707" lon="3.60616">
        <ele>161</ele>
        <time>2019-04-02T07:10:12Z</time>
      </trkpt>
      <trkpt lat="47.77065" lon="3.60614">
        <ele>161</ele>
        <time>2019-04-02T07:10:17Z</time>
      </trkpt>
      <trkpt lat="47.77061" lon="3.60609">
        <ele>161</ele>
        <time>2019-04-02T07:10:21Z</time>
      </trkpt>
      <trkpt lat="47.77056" lon="3.60606">
        <ele>162</ele>
        <time>2019-04-02T07:10:24Z</time>
      </trkpt>
      <trkpt lat="47.77052" lon="3.60602">
        <ele>162</ele>
        <time>2019-04-02T07:10:29Z</time>
      </trkpt>
      <trkpt lat="47.77049" lon="3.60599">
        <ele>162</ele>
        <time>2019-04-02T07:10:32Z</time>
      </trkpt>
      <trkpt lat="47.77046" lon="3.60597">
        <ele>163</ele>
        <time>2019-04-02T07:10:35Z</time>
      </trkpt>
      <trkpt lat="47.77041" lon="3.60593">
        <ele>164</ele>
        <time>2019-04-02T07:10:37Z</time>
      </trkpt>
      <trkpt lat="47.77037" lon="3.6059">
        <ele>164</ele>
        <time>2019-04-02T07:10:41Z</time>
      </trkpt>
      <trkpt lat="47.77032" lon="3.60586">
        <ele>163</ele>
        <time>2019-04-02T07:10:45Z</time>
      </trkpt>
      <trkpt lat="47.77028" lon="3.6058">
        <ele>165</ele>
        <time>2019-04-02T07:10:50Z</time>
      </trkpt>
      <trkpt lat="47.77024" lon="3.60577">
        <ele>165</ele>
        <time>2019-04-02T07:10:53Z</time>
      </trkpt>
      <trkpt lat="47.7702" lon="3.60573">
        <ele>166</ele>
        <time>2019-04-02T07:10:58Z</time>
      </trkpt>
      <trkpt lat="47.77015" lon="3.60567">
        <ele>167</ele>
        <time>2019-04-02T07:11:03Z</time>
      </trkpt>
      <trkpt lat="47.77011" lon="3.60564">
        <ele>166</ele>
        <time>2019-04-02T07:11:07Z</time>
      </trkpt>
      <trkpt lat="47.77008" lon="3.60561">
        <ele>166</ele>
        <time>2019-04-02T07:11:10Z</time>
      </trkpt>
      <trkpt lat="47.77003" lon="3.60556">
        <ele>165</ele>
        <time>2019-04-02T07:11:14Z</time>
      </trkpt>
      <trkpt lat="47.76999" lon="3.60553">
        <ele>164</ele>
        <time>2019-04-02T07:11:17Z</time>
      </trkpt>
      <trkpt lat="47.76994" lon="3.60549">
        <ele>164</ele>
        <time>2019-04-02T07:11:21Z</time>
      </trkpt>
      <trkpt lat="47.76989" lon="3.60545">
        <ele>164</ele>
        <time>2019-04-02T07:11:25Z</time>
      </trkpt>
      <trkpt lat="47.76986" lon="3.60544">
        <ele>164</ele>
        <time>2019-04-02T07:11:27Z</time>
      </trkpt>
      <trkpt lat="47.76983" lon="3.60539">
        <ele>164</ele>
        <time>2019-04-02T07:11:30Z</time>
      </trkpt>
      <trkpt lat="47.7698" lon="3.60535">
        <ele>165</ele>
        <time>2019-04-02T07:11:34Z</time>
      </trkpt>
      <trkpt lat="47.76975" lon="3.60532">
        <ele>165</ele>
        <time>2019-04-02T07:11:37Z</time>
      </trkpt>
      <trkpt lat="47.76971" lon="3.6053">
        <ele>165</ele>
        <time>2019-04-02T07:11:41Z</time>
      </trkpt>
      <trkpt lat="47.76967" lon="3.60527">
        <ele>164</ele>
        <time>2019-04-02T07:11:45Z</time>
      </trkpt>
      <trkpt lat="47.76963" lon="3.60524">
        <ele>164</ele>
        <time>2019-04-02T07:11:48Z</time>
      </trkpt>
      <trkpt lat="47.76958" lon="3.60519">
        <ele>162</ele>
        <time>2019-04-02T07:11:53Z</time>
      </trkpt>
      <trkpt lat="47.76956" lon="3.60516">
        <ele>163</ele>
        <time>2019-04-02T07:11:55Z</time>
      </trkpt>
      <trkpt lat="47.76951" lon="3.60514">
        <ele>161</ele>
        <time>2019-04-02T07:11:59Z</time>
      </trkpt>
      <trkpt lat="47.76948" lon="3.60508">
        <ele>160</ele>
        <time>2019-04-02T07:12:03Z</time>
      </trkpt>
      <trkpt lat="47.76945" lon="3.60501">
        <ele>157</ele>
        <time>2019-04-02T07:12:08Z</time>
      </trkpt>
      <trkpt lat="47.7694" lon="3.605">
        <ele>155</ele>
        <time>2019-04-02T07:12:13Z</time>
      </trkpt>
      <trkpt lat="47.76936" lon="3.60494">
        <ele>155</ele>
        <time>2019-04-02T07:12:17Z</time>
      </trkpt>
      <trkpt lat="47.76932" lon="3.60488">
        <ele>156</ele>
        <time>2019-04-02T07:12:21Z</time>
      </trkpt>
      <trkpt lat="47.7693" lon="3.60485">
        <ele>155</ele>
        <time>2019-04-02T07:12:23Z</time>
      </trkpt>
      <trkpt lat="47.76926" lon="3.60484">
        <ele>153</ele>
        <time>2019-04-02T07:12:31Z</time>
      </trkpt>
      <trkpt lat="47.76924" lon="3.60478">
        <ele>155</ele>
        <time>2019-04-02T07:17:33Z</time>
      </trkpt>
      <trkpt lat="47.7692" lon="3.6047">
        <ele>156</ele>
        <time>2019-04-02T07:17:41Z</time>
      </trkpt>
      <trkpt lat="47.76916" lon="3.60464">
        <ele>157</ele>
        <time>2019-04-02T07:17:45Z</time>
      </trkpt>
      <trkpt lat="47.76912" lon="3.60459">
        <ele>157</ele>
        <time>2019-04-02T07:17:50Z</time>
      </trkpt>
      <trkpt lat="47.7691" lon="3.60454">
        <ele>155</ele>
        <time>2019-04-02T07:17:55Z</time>
      </trkpt>
      <trkpt lat="47.76907" lon="3.60448">
        <ele>155</ele>
        <time>2019-04-02T07:17:59Z</time>
      </trkpt>
      <trkpt lat="47.76905" lon="3.60445">
        <ele>155</ele>
        <time>2019-04-02T07:18:01Z</time>
      </trkpt>
      <trkpt lat="47.769" lon="3.60439">
        <ele>157</ele>
        <time>2019-04-02T07:18:06Z</time>
      </trkpt>
      <trkpt lat="47.76896" lon="3.60431">
        <ele>157</ele>
        <time>2019-04-02T07:18:10Z</time>
      </trkpt>
      <trkpt lat="47.76894" lon="3.60427">
        <ele>156</ele>
        <time>2019-04-02T07:18:12Z</time>
      </trkpt>
      <trkpt lat="47.7689" lon="3.60423">
        <ele>157</ele>
        <time>2019-04-02T07:18:16Z</time>
      </trkpt>
      <trkpt lat="47.76887" lon="3.60416">
        <ele>157</ele>
        <time>2019-04-02T07:18:20Z</time>
      </trkpt>
      <trkpt lat="47.76884" lon="3.6041">
        <ele>156</ele>
        <time>2019-04-02T07:18:25Z</time>
      </trkpt>
      <trkpt lat="47.76881" lon="3.60404">
        <ele>156</ele>
        <time>2019-04-02T07:18:29Z</time>
      </trkpt>
      <trkpt lat="47.76879" lon="3.604">
        <ele>156</ele>
        <time>2019-04-02T07:18:32Z</time>
      </trkpt>
      <trkpt lat="47.76874" lon="3.60396">
        <ele>156</ele>
        <time>2019-04-02T07:18:36Z</time>
      </trkpt>
      <trkpt lat="47.76869" lon="3.60392">
        <ele>156</ele>
        <time>2019-04-02T07:18:41Z</time>
      </trkpt>
      <trkpt lat="47.76865" lon="3.60384">
        <ele>158</ele>
        <time>2019-04-02T07:18:46Z</time>
      </trkpt>
      <trkpt lat="47.76863" lon="3.60378">
        <ele>157</ele>
        <time>2019-04-02T07:18:49Z</time>
      </trkpt>
      <trkpt lat="47.76861" lon="3.60372">
        <ele>158</ele>
        <time>2019-04-02T07:18:53Z</time>
      </trkpt>
      <trkpt lat="47.76858" lon="3.60366">
        <ele>158</ele>
        <time>2019-04-02T07:18:56Z</time>
      </trkpt>
      <trkpt lat="47.76856" lon="3.60359">
        <ele>158</ele>
        <time>2019-04-02T07:19:00Z</time>
      </trkpt>
      <trkpt lat="47.76853" lon="3.60353">
        <ele>158</ele>
        <time>2019-04-02T07:19:04Z</time>
      </trkpt>
      <trkpt lat="47.7685" lon="3.60346">
        <ele>157</ele>
        <time>2019-04-02T07:19:08Z</time>
      </trkpt>
      <trkpt lat="47.76849" lon="3.60339">
        <ele>157</ele>
        <time>2019-04-02T07:19:12Z</time>
      </trkpt>
      <trkpt lat="47.76846" lon="3.60332">
        <ele>157</ele>
        <time>2019-04-02T07:19:16Z</time>
      </trkpt>
      <trkpt lat="47.76841" lon="3.60325">
        <ele>157</ele>
        <time>2019-04-02T07:19:21Z</time>
      </trkpt>
      <trkpt lat="47.76838" lon="3.6032">
        <ele>157</ele>
        <time>2019-04-02T07:19:24Z</time>
      </trkpt>
      <trkpt lat="47.76835" lon="3.60312">
        <ele>157</ele>
        <time>2019-04-02T07:19:28Z</time>
      </trkpt>
      <trkpt lat="47.76831" lon="3.60307">
        <ele>158</ele>
        <time>2019-04-02T07:19:32Z</time>
      </trkpt>
      <trkpt lat="47.76828" lon="3.60301">
        <ele>158</ele>
        <time>2019-04-02T07:19:36Z</time>
      </trkpt>
      <trkpt lat="47.76826" lon="3.60298">
        <ele>157</ele>
        <time>2019-04-02T07:19:38Z</time>
      </trkpt>
      <trkpt lat="47.76824" lon="3.60294">
        <ele>157</ele>
        <time>2019-04-02T07:19:41Z</time>
      </trkpt>
      <trkpt lat="47.76822" lon="3.60288">
        <ele>157</ele>
        <time>2019-04-02T07:19:45Z</time>
      </trkpt>
      <trkpt lat="47.76817" lon="3.60281">
        <ele>156</ele>
        <time>2019-04-02T07:19:51Z</time>
      </trkpt>
      <trkpt lat="47.76814" lon="3.60275">
        <ele>156</ele>
        <time>2019-04-02T07:19:55Z</time>
      </trkpt>
      <trkpt lat="47.76813" lon="3.60272">
        <ele>155</ele>
        <time>2019-04-02T07:19:57Z</time>
      </trkpt>
      <trkpt lat="47.76809" lon="3.60267">
        <ele>155</ele>
        <time>2019-04-02T07:20:01Z</time>
      </trkpt>
      <trkpt lat="47.76807" lon="3.60261">
        <ele>155</ele>
        <time>2019-04-02T07:20:05Z</time>
      </trkpt>
      <trkpt lat="47.76802" lon="3.60258">
        <ele>156</ele>
        <time>2019-04-02T07:20:08Z</time>
      </trkpt>
      <trkpt lat="47.76799" lon="3.60253">
        <ele>155</ele>
        <time>2019-04-02T07:20:11Z</time>
      </trkpt>
      <trkpt lat="47.76797" lon="3.60245">
        <ele>155</ele>
        <time>2019-04-02T07:20:15Z</time>
      </trkpt>
      <trkpt lat="47.76793" lon="3.60239">
        <ele>156</ele>
        <time>2019-04-02T07:20:19Z</time>
      </trkpt>
      <trkpt lat="47.76791" lon="3.60236">
        <ele>156</ele>
        <time>2019-04-02T07:20:22Z</time>
      </trkpt>
      <trkpt lat="47.76786" lon="3.60227">
        <ele>158</ele>
        <time>2019-04-02T07:20:27Z</time>
      </trkpt>
      <trkpt lat="47.76783" lon="3.60223">
        <ele>158</ele>
        <time>2019-04-02T07:20:30Z</time>
      </trkpt>
      <trkpt lat="47.76781" lon="3.6022">
        <ele>157</ele>
        <time>2019-04-02T07:20:32Z</time>
      </trkpt>
      <trkpt lat="47.76779" lon="3.60215">
        <ele>158</ele>
        <time>2019-04-02T07:20:35Z</time>
      </trkpt>
      <trkpt lat="47.76775" lon="3.60208">
        <ele>158</ele>
        <time>2019-04-02T07:20:39Z</time>
      </trkpt>
      <trkpt lat="47.76772" lon="3.602">
        <ele>158</ele>
        <time>2019-04-02T07:20:43Z</time>
      </trkpt>
      <trkpt lat="47.76768" lon="3.60193">
        <ele>158</ele>
        <time>2019-04-02T07:20:47Z</time>
      </trkpt>
      <trkpt lat="47.76766" lon="3.6019">
        <ele>158</ele>
        <time>2019-04-02T07:20:49Z</time>
      </trkpt>
      <trkpt lat="47.76762" lon="3.60185">
        <ele>158</ele>
        <time>2019-04-02T07:20:53Z</time>
      </trkpt>
      <trkpt lat="47.76759" lon="3.6018">
        <ele>158</ele>
        <time>2019-04-02T07:20:57Z</time>
      </trkpt>
      <trkpt lat="47.76757" lon="3.60177">
        <ele>157</ele>
        <time>2019-04-02T07:20:59Z</time>
      </trkpt>
      <trkpt lat="47.76753" lon="3.60173">
        <ele>157</ele>
        <time>2019-04-02T07:21:03Z</time>
      </trkpt>
      <trkpt lat="47.76751" lon="3.6017">
        <ele>157</ele>
        <time>2019-04-02T07:21:05Z</time>
      </trkpt>
      <trkpt lat="47.76747" lon="3.60164">
        <ele>156</ele>
        <time>2019-04-02T07:21:09Z</time>
      </trkpt>
      <trkpt lat="47.76745" lon="3.6016">
        <ele>156</ele>
        <time>2019-04-02T07:21:12Z</time>
      </trkpt>
      <trkpt lat="47.76742" lon="3.60153">
        <ele>156</ele>
        <time>2019-04-02T07:21:15Z</time>
      </trkpt>
      <trkpt lat="47.76738" lon="3.60147">
        <ele>156</ele>
        <time>2019-04-02T07:21:19Z</time>
      </trkpt>
      <trkpt lat="47.76735" lon="3.60139">
        <ele>157</ele>
        <time>2019-04-02T07:21:25Z</time>
      </trkpt>
      <trkpt lat="47.76732" lon="3.60133">
        <ele>157</ele>
        <time>2019-04-02T07:21:29Z</time>
      </trkpt>
      <trkpt lat="47.7673" lon="3.60129">
        <ele>156</ele>
        <time>2019-04-02T07:21:31Z</time>
      </trkpt>
      <trkpt lat="47.76726" lon="3.60124">
        <ele>154</ele>
        <time>2019-04-02T07:21:35Z</time>
      </trkpt>
      <trkpt lat="47.76724" lon="3.60121">
        <ele>154</ele>
        <time>2019-04-02T07:21:38Z</time>
      </trkpt>
      <trkpt lat="47.76721" lon="3.60114">
        <ele>154</ele>
        <time>2019-04-02T07:21:43Z</time>
      </trkpt>
      <trkpt lat="47.76717" lon="3.60109">
        <ele>155</ele>
        <time>2019-04-02T07:21:47Z</time>
      </trkpt>
      <trkpt lat="47.76714" lon="3.60105">
        <ele>156</ele>
        <time>2019-04-02T07:21:50Z</time>
      </trkpt>
      <trkpt lat="47.7671" lon="3.601">
        <ele>156</ele>
        <time>2019-04-02T07:21:54Z</time>
      </trkpt>
      <trkpt lat="47.76705" lon="3.60093">
        <ele>157</ele>
        <time>2019-04-02T07:21:59Z</time>
      </trkpt>
      <trkpt lat="47.76702" lon="3.60087">
        <ele>157</ele>
        <time>2019-04-02T07:22:02Z</time>
      </trkpt>
      <trkpt lat="47.76701" lon="3.60083">
        <ele>158</ele>
        <time>2019-04-02T07:22:04Z</time>
      </trkpt>
      <trkpt lat="47.76697" lon="3.60079">
        <ele>158</ele>
        <time>2019-04-02T07:22:09Z</time>
      </trkpt>
      <trkpt lat="47.76693" lon="3.60074">
        <ele>158</ele>
        <time>2019-04-02T07:22:13Z</time>
      </trkpt>
      <trkpt lat="47.76689" lon="3.60068">
        <ele>158</ele>
        <time>2019-04-02T07:22:17Z</time>
      </trkpt>
      <trkpt lat="47.76686" lon="3.60065">
        <ele>158</ele>
        <time>2019-04-02T07:22:19Z</time>
      </trkpt>
      <trkpt lat="47.76684" lon="3.60063">
        <ele>158</ele>
        <time>2019-04-02T07:22:21Z</time>
      </trkpt>
      <trkpt lat="47.76681" lon="3.60056">
        <ele>159</ele>
        <time>2019-04-02T07:22:25Z</time>
      </trkpt>
      <trkpt lat="47.76677" lon="3.60052">
        <ele>158</ele>
        <time>2019-04-02T07:22:28Z</time>
      </trkpt>
      <trkpt lat="47.76673" lon="3.60047">
        <ele>158</ele>
        <time>2019-04-02T07:22:31Z</time>
      </trkpt>
      <trkpt lat="47.76669" lon="3.60043">
        <ele>158</ele>
        <time>2019-04-02T07:22:34Z</time>
      </trkpt>
      <trkpt lat="47.76667" lon="3.6004">
        <ele>158</ele>
        <time>2019-04-02T07:22:36Z</time>
      </trkpt>
      <trkpt lat="47.76662" lon="3.60036">
        <ele>159</ele>
        <time>2019-04-02T07:22:41Z</time>
      </trkpt>
      <trkpt lat="47.76659" lon="3.60032">
        <ele>157</ele>
        <time>2019-04-02T07:22:44Z</time>
      </trkpt>
      <trkpt lat="47.76656" lon="3.60028">
        <ele>158</ele>
        <time>2019-04-02T07:22:47Z</time>
      </trkpt>
      <trkpt lat="47.76653" lon="3.60025">
        <ele>158</ele>
        <time>2019-04-02T07:22:49Z</time>
      </trkpt>
      <trkpt lat="47.7665" lon="3.6002">
        <ele>159</ele>
        <time>2019-04-02T07:22:53Z</time>
      </trkpt>
      <trkpt lat="47.76646" lon="3.60014">
        <ele>158</ele>
        <time>2019-04-02T07:22:57Z</time>
      </trkpt>
      <trkpt lat="47.76644" lon="3.6001">
        <ele>157</ele>
        <time>2019-04-02T07:23:00Z</time>
      </trkpt>
      <trkpt lat="47.7664" lon="3.60007">
        <ele>157</ele>
        <time>2019-04-02T07:23:04Z</time>
      </trkpt>
      <trkpt lat="47.76637" lon="3.60004">
        <ele>157</ele>
        <time>2019-04-02T07:23:07Z</time>
      </trkpt>
      <trkpt lat="47.76633" lon="3.59997">
        <ele>157</ele>
        <time>2019-04-02T07:23:11Z</time>
      </trkpt>
      <trkpt lat="47.76629" lon="3.59993">
        <ele>158</ele>
        <time>2019-04-02T07:23:14Z</time>
      </trkpt>
      <trkpt lat="47.76627" lon="3.5999">
        <ele>157</ele>
        <time>2019-04-02T07:23:16Z</time>
      </trkpt>
      <trkpt lat="47.76623" lon="3.59986">
        <ele>157</ele>
        <time>2019-04-02T07:23:20Z</time>
      </trkpt>
      <trkpt lat="47.76621" lon="3.59983">
        <ele>157</ele>
        <time>2019-04-02T07:23:22Z</time>
      </trkpt>
      <trkpt lat="47.76618" lon="3.59979">
        <ele>157</ele>
        <time>2019-04-02T07:23:25Z</time>
      </trkpt>
      <trkpt lat="47.76615" lon="3.59972">
        <ele>158</ele>
        <time>2019-04-02T07:23:29Z</time>
      </trkpt>
      <trkpt lat="47.76611" lon="3.59967">
        <ele>158</ele>
        <time>2019-04-02T07:23:33Z</time>
      </trkpt>
      <trkpt lat="47.76609" lon="3.59964">
        <ele>157</ele>
        <time>2019-04-02T07:23:35Z</time>
      </trkpt>
      <trkpt lat="47.76605" lon="3.59959">
        <ele>156</ele>
        <time>2019-04-02T07:23:40Z</time>
      </trkpt>
      <trkpt lat="47.76601" lon="3.59953">
        <ele>156</ele>
        <time>2019-04-02T07:23:43Z</time>
      </trkpt>
      <trkpt lat="47.76598" lon="3.59949">
        <ele>156</ele>
        <time>2019-04-02T07:23:46Z</time>
      </trkpt>
      <trkpt lat="47.76594" lon="3.59944">
        <ele>156</ele>
        <time>2019-04-02T07:23:50Z</time>
      </trkpt>
      <trkpt lat="47.76592" lon="3.59942">
        <ele>157</ele>
        <time>2019-04-02T07:23:52Z</time>
      </trkpt>
      <trkpt lat="47.76589" lon="3.59939">
        <ele>157</ele>
        <time>2019-04-02T07:23:54Z</time>
      </trkpt>
      <trkpt lat="47.76587" lon="3.59935">
        <ele>156</ele>
        <time>2019-04-02T07:23:56Z</time>
      </trkpt>
      <trkpt lat="47.76583" lon="3.5993">
        <ele>156</ele>
        <time>2019-04-02T07:24:00Z</time>
      </trkpt>
      <trkpt lat="47.76581" lon="3.59928">
        <ele>156</ele>
        <time>2019-04-02T07:24:02Z</time>
      </trkpt>
      <trkpt lat="47.76579" lon="3.59925">
        <ele>156</ele>
        <time>2019-04-02T07:24:04Z</time>
      </trkpt>
      <trkpt lat="47.76577" lon="3.59922">
        <ele>156</ele>
        <time>2019-04-02T07:24:06Z</time>
      </trkpt>
      <trkpt lat="47.76572" lon="3.59918">
        <ele>156</ele>
        <time>2019-04-02T07:24:09Z</time>
      </trkpt>
      <trkpt lat="47.76568" lon="3.59913">
        <ele>157</ele>
        <time>2019-04-02T07:24:13Z</time>
      </trkpt>
      <trkpt lat="47.76566" lon="3.5991">
        <ele>157</ele>
        <time>2019-04-02T07:24:15Z</time>
      </trkpt>
      <trkpt lat="47.76564" lon="3.59907">
        <ele>157</ele>
        <time>2019-04-02T07:24:17Z</time>
      </trkpt>
      <trkpt lat="47.7656" lon="3.59902">
        <ele>156</ele>
        <time>2019-04-02T07:24:21Z</time>
      </trkpt>
      <trkpt lat="47.76556" lon="3.59898">
        <ele>156</ele>
        <time>2019-04-02T07:24:25Z</time>
      </trkpt>
      <trkpt lat="47.76553" lon="3.59895">
        <ele>157</ele>
        <time>2019-04-02T07:24:28Z</time>
      </trkpt>
      <trkpt lat="47.7655" lon="3.59891">
        <ele>157</ele>
        <time>2019-04-02T07:24:31Z</time>
      </trkpt>
      <trkpt lat="47.76548" lon="3.59889">
        <ele>156</ele>
        <time>2019-04-02T07:24:33Z</time>
      </trkpt>
      <trkpt lat="47.76547" lon="3.59887">
        <ele>156</ele>
        <time>2019-04-02T07:24:35Z</time>
      </trkpt>
      <trkpt lat="47.76544" lon="3.59884">
        <ele>157</ele>
        <time>2019-04-02T07:24:37Z</time>
      </trkpt>
      <trkpt lat="47.7654" lon="3.59879">
        <ele>156</ele>
        <time>2019-04-02T07:24:41Z</time>
      </trkpt>
      <trkpt lat="47.76537" lon="3.59875">
        <ele>157</ele>
        <time>2019-04-02T07:24:44Z</time>
      </trkpt>
      <trkpt lat="47.76535" lon="3.59872">
        <ele>157</ele>
        <time>2019-04-02T07:24:45Z</time>
      </trkpt>
      <trkpt lat="47.76531" lon="3.59869">
        <ele>157</ele>
        <time>2019-04-02T07:24:48Z</time>
      </trkpt>
      <trkpt lat="47.76527" lon="3.59863">
        <ele>158</ele>
        <time>2019-04-02T07:24:52Z</time>
      </trkpt>
      <trkpt lat="47.76523" lon="3.59859">
        <ele>158</ele>
        <time>2019-04-02T07:24:55Z</time>
      </trkpt>
      <trkpt lat="47.76519" lon="3.59853">
        <ele>158</ele>
        <time>2019-04-02T07:24:59Z</time>
      </trkpt>
      <trkpt lat="47.76515" lon="3.59849">
        <ele>158</ele>
        <time>2019-04-02T07:25:03Z</time>
      </trkpt>
      <trkpt lat="47.7651" lon="3.59845">
        <ele>158</ele>
        <time>2019-04-02T07:25:07Z</time>
      </trkpt>
      <trkpt lat="47.76508" lon="3.59842">
        <ele>158</ele>
        <time>2019-04-02T07:25:09Z</time>
      </trkpt>
      <trkpt lat="47.76504" lon="3.59838">
        <ele>159</ele>
        <time>2019-04-02T07:25:13Z</time>
      </trkpt>
      <trkpt lat="47.765" lon="3.59834">
        <ele>158</ele>
        <time>2019-04-02T07:25:16Z</time>
      </trkpt>
      <trkpt lat="47.76498" lon="3.59828">
        <ele>158</ele>
        <time>2019-04-02T07:25:20Z</time>
      </trkpt>
      <trkpt lat="47.76495" lon="3.59821">
        <ele>157</ele>
        <time>2019-04-02T07:25:24Z</time>
      </trkpt>
      <trkpt lat="47.7649" lon="3.59816">
        <ele>157</ele>
        <time>2019-04-02T07:25:28Z</time>
      </trkpt>
      <trkpt lat="47.76488" lon="3.59813">
        <ele>158</ele>
        <time>2019-04-02T07:25:31Z</time>
      </trkpt>
      <trkpt lat="47.76482" lon="3.59809">
        <ele>158</ele>
        <time>2019-04-02T07:25:35Z</time>
      </trkpt>
      <trkpt lat="47.76478" lon="3.59806">
        <ele>158</ele>
        <time>2019-04-02T07:25:38Z</time>
      </trkpt>
      <trkpt lat="47.76475" lon="3.59801">
        <ele>158</ele>
        <time>2019-04-02T07:25:42Z</time>
      </trkpt>
      <trkpt lat="47.76468" lon="3.598">
        <ele>158</ele>
        <time>2019-04-02T07:25:46Z</time>
      </trkpt>
      <trkpt lat="47.76468" lon="3.598">
        <ele>158</ele>
        <time>2019-04-02T07:25:54Z</time>
      </trkpt>
      <trkpt lat="47.76468" lon="3.598">
        <ele>158</ele>
        <time>2019-04-02T07:25:56Z</time>
      </trkpt>
      <trkpt lat="47.76463" lon="3.598">
        <ele>156</ele>
        <time>2019-04-02T07:26:00Z</time>
      </trkpt>
      <trkpt lat="47.76459" lon="3.59804">
        <ele>156</ele>
        <time>2019-04-02T07:26:09Z</time>
      </trkpt>
      <trkpt lat="47.76455" lon="3.59793">
        <ele>156</ele>
        <time>2019-04-02T07:26:18Z</time>
      </trkpt>
      <trkpt lat="47.7645" lon="3.59788">
        <ele>156</ele>
        <time>2019-04-02T07:26:23Z</time>
      </trkpt>
      <trkpt lat="47.76447" lon="3.59783">
        <ele>156</ele>
        <time>2019-04-02T07:26:28Z</time>
      </trkpt>
      <trkpt lat="47.76444" lon="3.59779">
        <ele>156</ele>
        <time>2019-04-02T07:26:31Z</time>
      </trkpt>
      <trkpt lat="47.7644" lon="3.59774">
        <ele>156</ele>
        <time>2019-04-02T07:26:35Z</time>
      </trkpt>
      <trkpt lat="47.76437" lon="3.59767">
        <ele>156</ele>
        <time>2019-04-02T07:26:39Z</time>
      </trkpt>
      <trkpt lat="47.76433" lon="3.59761">
        <ele>156</ele>
        <time>2019-04-02T07:26:43Z</time>
      </trkpt>
      <trkpt lat="47.76429" lon="3.59755">
        <ele>155</ele>
        <time>2019-04-02T07:26:47Z</time>
      </trkpt>
      <trkpt lat="47.76426" lon="3.59751">
        <ele>155</ele>
        <time>2019-04-02T07:26:50Z</time>
      </trkpt>
      <trkpt lat="47.76422" lon="3.59745">
        <ele>155</ele>
        <time>2019-04-02T07:26:54Z</time>
      </trkpt>
      <trkpt lat="47.76417" lon="3.5974">
        <ele>154</ele>
        <time>2019-04-02T07:26:58Z</time>
      </trkpt>
      <trkpt lat="47.76415" lon="3.59738">
        <ele>155</ele>
        <time>2019-04-02T07:27:00Z</time>
      </trkpt>
      <trkpt lat="47.76412" lon="3.59733">
        <ele>156</ele>
        <time>2019-04-02T07:27:03Z</time>
      </trkpt>
      <trkpt lat="47.76409" lon="3.59726">
        <ele>155</ele>
        <time>2019-04-02T07:27:08Z</time>
      </trkpt>
      <trkpt lat="47.76402" lon="3.5972">
        <ele>155</ele>
        <time>2019-04-02T07:27:14Z</time>
      </trkpt>
      <trkpt lat="47.76398" lon="3.59717">
        <ele>156</ele>
        <time>2019-04-02T07:27:17Z</time>
      </trkpt>
      <trkpt lat="47.76394" lon="3.59711">
        <ele>156</ele>
        <time>2019-04-02T07:27:21Z</time>
      </trkpt>
      <trkpt lat="47.76392" lon="3.59709">
        <ele>156</ele>
        <time>2019-04-02T07:27:23Z</time>
      </trkpt>
      <trkpt lat="47.76389" lon="3.59704">
        <ele>155</ele>
        <time>2019-04-02T07:27:26Z</time>
      </trkpt>
      <trkpt lat="47.76387" lon="3.59702">
        <ele>155</ele>
        <time>2019-04-02T07:27:28Z</time>
      </trkpt>
      <trkpt lat="47.76385" lon="3.59699">
        <ele>156</ele>
        <time>2019-04-02T07:27:30Z</time>
      </trkpt>
      <trkpt lat="47.76381" lon="3.59695">
        <ele>155</ele>
        <time>2019-04-02T07:27:33Z</time>
      </trkpt>
      <trkpt lat="47.76379" lon="3.59692">
        <ele>155</ele>
        <time>2019-04-02T07:27:35Z</time>
      </trkpt>
      <trkpt lat="47.76375" lon="3.59689">
        <ele>155</ele>
        <time>2019-04-02T07:27:39Z</time>
      </trkpt>
      <trkpt lat="47.76372" lon="3.59685">
        <ele>155</ele>
        <time>2019-04-02T07:27:43Z</time>
      </trkpt>
      <trkpt lat="47.76367" lon="3.5968">
        <ele>154</ele>
        <time>2019-04-02T07:27:47Z</time>
      </trkpt>
      <trkpt lat="47.76363" lon="3.59674">
        <ele>155</ele>
        <time>2019-04-02T07:27:51Z</time>
      </trkpt>
      <trkpt lat="47.76356" lon="3.59669">
        <ele>155</ele>
        <time>2019-04-02T07:27:55Z</time>
      </trkpt>
      <trkpt lat="47.76354" lon="3.59667">
        <ele>155</ele>
        <time>2019-04-02T07:27:57Z</time>
      </trkpt>
      <trkpt lat="47.76351" lon="3.59664">
        <ele>154</ele>
        <time>2019-04-02T07:27:59Z</time>
      </trkpt>
      <trkpt lat="47.76347" lon="3.5966">
        <ele>154</ele>
        <time>2019-04-02T07:28:02Z</time>
      </trkpt>
      <trkpt lat="47.76344" lon="3.59656">
        <ele>155</ele>
        <time>2019-04-02T07:28:06Z</time>
      </trkpt>
      <trkpt lat="47.7634" lon="3.59652">
        <ele>155</ele>
        <time>2019-04-02T07:28:09Z</time>
      </trkpt>
      <trkpt lat="47.76337" lon="3.59649">
        <ele>155</ele>
        <time>2019-04-02T07:28:12Z</time>
      </trkpt>
      <trkpt lat="47.76333" lon="3.59644">
        <ele>155</ele>
        <time>2019-04-02T07:28:16Z</time>
      </trkpt>
      <trkpt lat="47.76328" lon="3.59641">
        <ele>156</ele>
        <time>2019-04-02T07:28:21Z</time>
      </trkpt>
      <trkpt lat="47.76322" lon="3.59636">
        <ele>156</ele>
        <time>2019-04-02T07:28:26Z</time>
      </trkpt>
      <trkpt lat="47.76318" lon="3.59634">
        <ele>156</ele>
        <time>2019-04-02T07:28:29Z</time>
      </trkpt>
      <trkpt lat="47.76314" lon="3.59629">
        <ele>157</ele>
        <time>2019-04-02T07:28:33Z</time>
      </trkpt>
      <trkpt lat="47.76312" lon="3.59625">
        <ele>159</ele>
        <time>2019-04-02T07:28:36Z</time>
      </trkpt>
      <trkpt lat="47.7631" lon="3.59622">
        <ele>159</ele>
        <time>2019-04-02T07:28:38Z</time>
      </trkpt>
      <trkpt lat="47.76308" lon="3.59619">
        <ele>159</ele>
        <time>2019-04-02T07:28:40Z</time>
      </trkpt>
      <trkpt lat="47.76304" lon="3.59616">
        <ele>159</ele>
        <time>2019-04-02T07:28:43Z</time>
      </trkpt>
      <trkpt lat="47.763" lon="3.59611">
        <ele>160</ele>
        <time>2019-04-02T07:28:47Z</time>
      </trkpt>
      <trkpt lat="47.76297" lon="3.59606">
        <ele>160</ele>
        <time>2019-04-02T07:28:51Z</time>
      </trkpt>
      <trkpt lat="47.76292" lon="3.59603">
        <ele>160</ele>
        <time>2019-04-02T07:28:55Z</time>
      </trkpt>
      <trkpt lat="47.76289" lon="3.59602">
        <ele>161</ele>
        <time>2019-04-02T07:28:57Z</time>
      </trkpt>
      <trkpt lat="47.76285" lon="3.59598">
        <ele>160</ele>
        <time>2019-04-02T07:29:01Z</time>
      </trkpt>
      <trkpt lat="47.76283" lon="3.59595">
        <ele>161</ele>
        <time>2019-04-02T07:29:03Z</time>
      </trkpt>
      <trkpt lat="47.7628" lon="3.59592">
        <ele>162</ele>
        <time>2019-04-02T07:29:06Z</time>
      </trkpt>
      <trkpt lat="47.76276" lon="3.59588">
        <ele>162</ele>
        <time>2019-04-02T07:29:09Z</time>
      </trkpt>
      <trkpt lat="47.76271" lon="3.59585">
        <ele>162</ele>
        <time>2019-04-02T07:29:13Z</time>
      </trkpt>
      <trkpt lat="47.76267" lon="3.59581">
        <ele>162</ele>
        <time>2019-04-02T07:29:16Z</time>
      </trkpt>
      <trkpt lat="47.76262" lon="3.59578">
        <ele>162</ele>
        <time>2019-04-02T07:29:20Z</time>
      </trkpt>
      <trkpt lat="47.76257" lon="3.59575">
        <ele>162</ele>
        <time>2019-04-02T07:29:24Z</time>
      </trkpt>
      <trkpt lat="47.76253" lon="3.59573">
        <ele>162</ele>
        <time>2019-04-02T07:29:27Z</time>
      </trkpt>
      <trkpt lat="47.76249" lon="3.59569">
        <ele>161</ele>
        <time>2019-04-02T07:29:31Z</time>
      </trkpt>
      <trkpt lat="47.76245" lon="3.59564">
        <ele>163</ele>
        <time>2019-04-02T07:29:35Z</time>
      </trkpt>
      <trkpt lat="47.7624" lon="3.59562">
        <ele>162</ele>
        <time>2019-04-02T07:29:39Z</time>
      </trkpt>
      <trkpt lat="47.76237" lon="3.5956">
        <ele>161</ele>
        <time>2019-04-02T07:29:42Z</time>
      </trkpt>
      <trkpt lat="47.76234" lon="3.59559">
        <ele>161</ele>
        <time>2019-04-02T07:29:44Z</time>
      </trkpt>
      <trkpt lat="47.76231" lon="3.59553">
        <ele>159</ele>
        <time>2019-04-02T07:29:50Z</time>
      </trkpt>
      <trkpt lat="47.76226" lon="3.5955">
        <ele>159</ele>
        <time>2019-04-02T07:29:53Z</time>
      </trkpt>
      <trkpt lat="47.76223" lon="3.59547">
        <ele>159</ele>
        <time>2019-04-02T07:29:55Z</time>
      </trkpt>
      <trkpt lat="47.76221" lon="3.59545">
        <ele>158</ele>
        <time>2019-04-02T07:29:57Z</time>
      </trkpt>
      <trkpt lat="47.76216" lon="3.59541">
        <ele>159</ele>
        <time>2019-04-02T07:30:01Z</time>
      </trkpt>
      <trkpt lat="47.76212" lon="3.59539">
        <ele>159</ele>
        <time>2019-04-02T07:30:06Z</time>
      </trkpt>
      <trkpt lat="47.76207" lon="3.59536">
        <ele>158</ele>
        <time>2019-04-02T07:30:10Z</time>
      </trkpt>
      <trkpt lat="47.76204" lon="3.59535">
        <ele>158</ele>
        <time>2019-04-02T07:30:12Z</time>
      </trkpt>
      <trkpt lat="47.762" lon="3.59531">
        <ele>159</ele>
        <time>2019-04-02T07:30:16Z</time>
      </trkpt>
      <trkpt lat="47.76196" lon="3.59525">
        <ele>156</ele>
        <time>2019-04-02T07:30:21Z</time>
      </trkpt>
      <trkpt lat="47.76192" lon="3.59521">
        <ele>156</ele>
        <time>2019-04-02T07:30:25Z</time>
      </trkpt>
      <trkpt lat="47.76186" lon="3.59516">
        <ele>156</ele>
        <time>2019-04-02T07:30:29Z</time>
      </trkpt>
      <trkpt lat="47.76183" lon="3.59514">
        <ele>156</ele>
        <time>2019-04-02T07:30:31Z</time>
      </trkpt>
      <trkpt lat="47.76178" lon="3.59512">
        <ele>157</ele>
        <time>2019-04-02T07:30:34Z</time>
      </trkpt>
      <trkpt lat="47.76169" lon="3.59514">
        <ele>159</ele>
        <time>2019-04-02T07:30:39Z</time>
      </trkpt>
      <trkpt lat="47.76166" lon="3.59521">
        <ele>159</ele>
        <time>2019-04-02T07:30:44Z</time>
      </trkpt>
      <trkpt lat="47.76162" lon="3.59526">
        <ele>157</ele>
        <time>2019-04-02T07:30:52Z</time>
      </trkpt>
      <trkpt lat="47.76158" lon="3.59527">
        <ele>158</ele>
        <time>2019-04-02T07:30:56Z</time>
      </trkpt>
      <trkpt lat="47.76155" lon="3.59527">
        <ele>160</ele>
        <time>2019-04-02T07:30:59Z</time>
      </trkpt>
      <trkpt lat="47.7615" lon="3.5953">
        <ele>158</ele>
        <time>2019-04-02T07:31:05Z</time>
      </trkpt>
      <trkpt lat="47.76145" lon="3.59531">
        <ele>155</ele>
        <time>2019-04-02T07:31:14Z</time>
      </trkpt>
      <trkpt lat="47.76139" lon="3.59531">
        <ele>154</ele>
        <time>2019-04-02T07:31:19Z</time>
      </trkpt>
      <trkpt lat="47.76134" lon="3.59531">
        <ele>154</ele>
        <time>2019-04-02T07:31:23Z</time>
      </trkpt>
      <trkpt lat="47.7613" lon="3.59532">
        <ele>154</ele>
        <time>2019-04-02T07:31:31Z</time>
      </trkpt>
      <trkpt lat="47.76125" lon="3.59534">
        <ele>155</ele>
        <time>2019-04-02T07:31:36Z</time>
      </trkpt>
      <trkpt lat="47.76119" lon="3.59534">
        <ele>156</ele>
        <time>2019-04-02T07:31:41Z</time>
      </trkpt>
      <trkpt lat="47.76115" lon="3.59534">
        <ele>156</ele>
        <time>2019-04-02T07:31:46Z</time>
      </trkpt>
      <trkpt lat="47.76112" lon="3.59541">
        <ele>157</ele>
        <time>2019-04-02T07:31:52Z</time>
      </trkpt>
      <trkpt lat="47.76107" lon="3.59542">
        <ele>155</ele>
        <time>2019-04-02T07:31:57Z</time>
      </trkpt>
      <trkpt lat="47.76102" lon="3.59544">
        <ele>156</ele>
        <time>2019-04-02T07:32:02Z</time>
      </trkpt>
      <trkpt lat="47.76098" lon="3.59544">
        <ele>155</ele>
        <time>2019-04-02T07:32:07Z</time>
      </trkpt>
      <trkpt lat="47.76093" lon="3.59543">
        <ele>155</ele>
        <time>2019-04-02T07:32:13Z</time>
      </trkpt>
      <trkpt lat="47.76089" lon="3.59543">
        <ele>156</ele>
        <time>2019-04-02T07:32:16Z</time>
      </trkpt>
      <trkpt lat="47.76087" lon="3.59542">
        <ele>155</ele>
        <time>2019-04-02T07:32:19Z</time>
      </trkpt>
      <trkpt lat="47.7608" lon="3.59542">
        <ele>154</ele>
        <time>2019-04-02T07:32:23Z</time>
      </trkpt>
      <trkpt lat="47.76078" lon="3.59541">
        <ele>154</ele>
        <time>2019-04-02T07:32:25Z</time>
      </trkpt>
      <trkpt lat="47.76073" lon="3.5954">
        <ele>155</ele>
        <time>2019-04-02T07:32:28Z</time>
      </trkpt>
      <trkpt lat="47.76069" lon="3.59541">
        <ele>157</ele>
        <time>2019-04-02T07:32:31Z</time>
      </trkpt>
      <trkpt lat="47.76066" lon="3.59542">
        <ele>157</ele>
        <time>2019-04-02T07:32:33Z</time>
      </trkpt>
      <trkpt lat="47.76056" lon="3.59542">
        <ele>158</ele>
        <time>2019-04-02T07:32:38Z</time>
      </trkpt>
      <trkpt lat="47.76051" lon="3.59541">
        <ele>157</ele>
        <time>2019-04-02T07:32:43Z</time>
      </trkpt>
      <trkpt lat="47.76046" lon="3.59539">
        <ele>154</ele>
        <time>2019-04-02T07:32:49Z</time>
      </trkpt>
      <trkpt lat="47.76043" lon="3.59536">
        <ele>152</ele>
        <time>2019-04-02T07:32:53Z</time>
      </trkpt>
      <trkpt lat="47.76038" lon="3.59536">
        <ele>152</ele>
        <time>2019-04-02T07:32:58Z</time>
      </trkpt>
      <trkpt lat="47.76033" lon="3.59534">
        <ele>150</ele>
        <time>2019-04-02T07:33:03Z</time>
      </trkpt>
      <trkpt lat="47.76028" lon="3.59531">
        <ele>151</ele>
        <time>2019-04-02T07:33:08Z</time>
      </trkpt>
      <trkpt lat="47.76025" lon="3.59529">
        <ele>151</ele>
        <time>2019-04-02T07:33:11Z</time>
      </trkpt>
      <trkpt lat="47.76019" lon="3.59526">
        <ele>151</ele>
        <time>2019-04-02T07:33:16Z</time>
      </trkpt>
      <trkpt lat="47.76013" lon="3.59524">
        <ele>151</ele>
        <time>2019-04-02T07:33:21Z</time>
      </trkpt>
      <trkpt lat="47.76008" lon="3.59521">
        <ele>152</ele>
        <time>2019-04-02T07:33:26Z</time>
      </trkpt>
      <trkpt lat="47.76002" lon="3.59515">
        <ele>154</ele>
        <time>2019-04-02T07:33:31Z</time>
      </trkpt>
      <trkpt lat="47.75997" lon="3.59512">
        <ele>155</ele>
        <time>2019-04-02T07:33:35Z</time>
      </trkpt>
      <trkpt lat="47.75994" lon="3.59511">
        <ele>156</ele>
        <time>2019-04-02T07:33:37Z</time>
      </trkpt>
      <trkpt lat="47.75991" lon="3.59509">
        <ele>156</ele>
        <time>2019-04-02T07:33:39Z</time>
      </trkpt>
      <trkpt lat="47.75987" lon="3.59506">
        <ele>157</ele>
        <time>2019-04-02T07:33:42Z</time>
      </trkpt>
      <trkpt lat="47.75983" lon="3.59501">
        <ele>156</ele>
        <time>2019-04-02T07:33:46Z</time>
      </trkpt>
      <trkpt lat="47.75978" lon="3.59498">
        <ele>156</ele>
        <time>2019-04-02T07:33:49Z</time>
      </trkpt>
      <trkpt lat="47.75973" lon="3.59497">
        <ele>157</ele>
        <time>2019-04-02T07:33:53Z</time>
      </trkpt>
      <trkpt lat="47.7597" lon="3.59496">
        <ele>157</ele>
        <time>2019-04-02T07:33:56Z</time>
      </trkpt>
      <trkpt lat="47.75967" lon="3.59495">
        <ele>157</ele>
        <time>2019-04-02T07:33:58Z</time>
      </trkpt>
      <trkpt lat="47.75962" lon="3.5949">
        <ele>157</ele>
        <time>2019-04-02T07:34:02Z</time>
      </trkpt>
      <trkpt lat="47.75958" lon="3.59486">
        <ele>156</ele>
        <time>2019-04-02T07:34:07Z</time>
      </trkpt>
      <trkpt lat="47.75955" lon="3.59483">
        <ele>155</ele>
        <time>2019-04-02T07:34:09Z</time>
      </trkpt>
      <trkpt lat="47.75953" lon="3.5948">
        <ele>156</ele>
        <time>2019-04-02T07:34:11Z</time>
      </trkpt>
      <trkpt lat="47.75951" lon="3.59478">
        <ele>156</ele>
        <time>2019-04-02T07:34:13Z</time>
      </trkpt>
      <trkpt lat="47.75946" lon="3.59472">
        <ele>156</ele>
        <time>2019-04-02T07:34:18Z</time>
      </trkpt>
      <trkpt lat="47.75942" lon="3.59468">
        <ele>156</ele>
        <time>2019-04-02T07:34:22Z</time>
      </trkpt>
      <trkpt lat="47.75935" lon="3.59465">
        <ele>156</ele>
        <time>2019-04-02T07:34:27Z</time>
      </trkpt>
      <trkpt lat="47.75932" lon="3.59463">
        <ele>156</ele>
        <time>2019-04-02T07:34:30Z</time>
      </trkpt>
      <trkpt lat="47.75927" lon="3.59458">
        <ele>155</ele>
        <time>2019-04-02T07:34:34Z</time>
      </trkpt>
      <trkpt lat="47.75925" lon="3.59456">
        <ele>155</ele>
        <time>2019-04-02T07:34:37Z</time>
      </trkpt>
      <trkpt lat="47.7592" lon="3.59453">
        <ele>155</ele>
        <time>2019-04-02T07:34:43Z</time>
      </trkpt>
      <trkpt lat="47.75918" lon="3.59451">
        <ele>155</ele>
        <time>2019-04-02T07:34:46Z</time>
      </trkpt>
      <trkpt lat="47.75913" lon="3.59447">
        <ele>154</ele>
        <time>2019-04-02T07:34:51Z</time>
      </trkpt>
      <trkpt lat="47.75909" lon="3.59443">
        <ele>155</ele>
        <time>2019-04-02T07:34:55Z</time>
      </trkpt>
      <trkpt lat="47.75907" lon="3.59441">
        <ele>155</ele>
        <time>2019-04-02T07:34:57Z</time>
      </trkpt>
      <trkpt lat="47.75903" lon="3.59438">
        <ele>156</ele>
        <time>2019-04-02T07:35:00Z</time>
      </trkpt>
      <trkpt lat="47.75897" lon="3.59435">
        <ele>156</ele>
        <time>2019-04-02T07:35:04Z</time>
      </trkpt>
      <trkpt lat="47.75892" lon="3.59432">
        <ele>155</ele>
        <time>2019-04-02T07:35:07Z</time>
      </trkpt>
      <trkpt lat="47.75888" lon="3.59429">
        <ele>155</ele>
        <time>2019-04-02T07:35:10Z</time>
      </trkpt>
      <trkpt lat="47.75885" lon="3.59427">
        <ele>155</ele>
        <time>2019-04-02T07:35:12Z</time>
      </trkpt>
      <trkpt lat="47.75881" lon="3.59423">
        <ele>155</ele>
        <time>2019-04-02T07:35:15Z</time>
      </trkpt>
      <trkpt lat="47.75879" lon="3.59422">
        <ele>155</ele>
        <time>2019-04-02T07:35:17Z</time>
      </trkpt>
      <trkpt lat="47.75876" lon="3.59419">
        <ele>155</ele>
        <time>2019-04-02T07:35:19Z</time>
      </trkpt>
      <trkpt lat="47.75873" lon="3.59416">
        <ele>154</ele>
        <time>2019-04-02T07:35:22Z</time>
      </trkpt>
      <trkpt lat="47.75869" lon="3.59413">
        <ele>155</ele>
        <time>2019-04-02T07:35:25Z</time>
      </trkpt>
      <trkpt lat="47.75866" lon="3.59411">
        <ele>155</ele>
        <time>2019-04-02T07:35:27Z</time>
      </trkpt>
      <trkpt lat="47.75861" lon="3.59409">
        <ele>155</ele>
        <time>2019-04-02T07:35:31Z</time>
      </trkpt>
      <trkpt lat="47.75858" lon="3.59408">
        <ele>155</ele>
        <time>2019-04-02T07:35:33Z</time>
      </trkpt>
      <trkpt lat="47.75853" lon="3.59405">
        <ele>156</ele>
        <time>2019-04-02T07:35:37Z</time>
      </trkpt>
      <trkpt lat="47.75851" lon="3.59403">
        <ele>154</ele>
        <time>2019-04-02T07:35:39Z</time>
      </trkpt>
      <trkpt lat="47.75846" lon="3.594">
        <ele>155</ele>
        <time>2019-04-02T07:35:43Z</time>
      </trkpt>
      <trkpt lat="47.75843" lon="3.59398">
        <ele>155</ele>
        <time>2019-04-02T07:35:45Z</time>
      </trkpt>
      <trkpt lat="47.75839" lon="3.59396">
        <ele>155</ele>
        <time>2019-04-02T07:35:49Z</time>
      </trkpt>
      <trkpt lat="47.75835" lon="3.59392">
        <ele>157</ele>
        <time>2019-04-02T07:35:55Z</time>
      </trkpt>
      <trkpt lat="47.75831" lon="3.59387">
        <ele>156</ele>
        <time>2019-04-02T07:35:59Z</time>
      </trkpt>
      <trkpt lat="47.75826" lon="3.59383">
        <ele>156</ele>
        <time>2019-04-02T07:36:03Z</time>
      </trkpt>
      <trkpt lat="47.75822" lon="3.59381">
        <ele>156</ele>
        <time>2019-04-02T07:36:05Z</time>
      </trkpt>
      <trkpt lat="47.75817" lon="3.59378">
        <ele>157</ele>
        <time>2019-04-02T07:36:09Z</time>
      </trkpt>
      <trkpt lat="47.75815" lon="3.59376">
        <ele>156</ele>
        <time>2019-04-02T07:36:11Z</time>
      </trkpt>
      <trkpt lat="47.75812" lon="3.59373">
        <ele>156</ele>
        <time>2019-04-02T07:36:13Z</time>
      </trkpt>
      <trkpt lat="47.75808" lon="3.59369">
        <ele>156</ele>
        <time>2019-04-02T07:36:17Z</time>
      </trkpt>
      <trkpt lat="47.75803" lon="3.59367">
        <ele>157</ele>
        <time>2019-04-02T07:36:20Z</time>
      </trkpt>
      <trkpt lat="47.75801" lon="3.59365">
        <ele>157</ele>
        <time>2019-04-02T07:36:22Z</time>
      </trkpt>
      <trkpt lat="47.75797" lon="3.59362">
        <ele>156</ele>
        <time>2019-04-02T07:36:26Z</time>
      </trkpt>
      <trkpt lat="47.75792" lon="3.59359">
        <ele>155</ele>
        <time>2019-04-02T07:36:30Z</time>
      </trkpt>
      <trkpt lat="47.75788" lon="3.59356">
        <ele>155</ele>
        <time>2019-04-02T07:36:33Z</time>
      </trkpt>
      <trkpt lat="47.75784" lon="3.59354">
        <ele>155</ele>
        <time>2019-04-02T07:36:36Z</time>
      </trkpt>
      <trkpt lat="47.7578" lon="3.59353">
        <ele>155</ele>
        <time>2019-04-02T07:36:40Z</time>
      </trkpt>
      <trkpt lat="47.75775" lon="3.59349">
        <ele>156</ele>
        <time>2019-04-02T07:36:44Z</time>
      </trkpt>
      <trkpt lat="47.7577" lon="3.59345">
        <ele>156</ele>
        <time>2019-04-02T07:36:48Z</time>
      </trkpt>
      <trkpt lat="47.75767" lon="3.59343">
        <ele>155</ele>
        <time>2019-04-02T07:36:50Z</time>
      </trkpt>
      <trkpt lat="47.75764" lon="3.59341">
        <ele>155</ele>
        <time>2019-04-02T07:36:52Z</time>
      </trkpt>
      <trkpt lat="47.75759" lon="3.59339">
        <ele>154</ele>
        <time>2019-04-02T07:36:55Z</time>
      </trkpt>
      <trkpt lat="47.75756" lon="3.59338">
        <ele>154</ele>
        <time>2019-04-02T07:36:57Z</time>
      </trkpt>
      <trkpt lat="47.7575" lon="3.59335">
        <ele>153</ele>
        <time>2019-04-02T07:37:01Z</time>
      </trkpt>
      <trkpt lat="47.75748" lon="3.59333">
        <ele>153</ele>
        <time>2019-04-02T07:37:03Z</time>
      </trkpt>
      <trkpt lat="47.75743" lon="3.59328">
        <ele>154</ele>
        <time>2019-04-02T07:37:07Z</time>
      </trkpt>
      <trkpt lat="47.75739" lon="3.59325">
        <ele>154</ele>
        <time>2019-04-02T07:37:10Z</time>
      </trkpt>
      <trkpt lat="47.75735" lon="3.59322">
        <ele>154</ele>
        <time>2019-04-02T07:37:14Z</time>
      </trkpt>
      <trkpt lat="47.75729" lon="3.59319">
        <ele>152</ele>
        <time>2019-04-02T07:37:19Z</time>
      </trkpt>
      <trkpt lat="47.75725" lon="3.59316">
        <ele>152</ele>
        <time>2019-04-02T07:37:22Z</time>
      </trkpt>
      <trkpt lat="47.75721" lon="3.59312">
        <ele>151</ele>
        <time>2019-04-02T07:37:25Z</time>
      </trkpt>
      <trkpt lat="47.75719" lon="3.59309">
        <ele>152</ele>
        <time>2019-04-02T07:37:28Z</time>
      </trkpt>
      <trkpt lat="47.75714" lon="3.59306">
        <ele>151</ele>
        <time>2019-04-02T07:37:32Z</time>
      </trkpt>
      <trkpt lat="47.75709" lon="3.59303">
        <ele>150</ele>
        <time>2019-04-02T07:37:36Z</time>
      </trkpt>
      <trkpt lat="47.75705" lon="3.59301">
        <ele>151</ele>
        <time>2019-04-02T07:37:40Z</time>
      </trkpt>
      <trkpt lat="47.757" lon="3.59299">
        <ele>150</ele>
        <time>2019-04-02T07:37:45Z</time>
      </trkpt>
      <trkpt lat="47.75695" lon="3.59295">
        <ele>150</ele>
        <time>2019-04-02T07:37:50Z</time>
      </trkpt>
      <trkpt lat="47.75691" lon="3.59293">
        <ele>151</ele>
        <time>2019-04-02T07:37:53Z</time>
      </trkpt>
      <trkpt lat="47.75687" lon="3.59291">
        <ele>151</ele>
        <time>2019-04-02T07:37:55Z</time>
      </trkpt>
      <trkpt lat="47.75685" lon="3.59289">
        <ele>151</ele>
        <time>2019-04-02T07:37:57Z</time>
      </trkpt>
      <trkpt lat="47.75679" lon="3.59286">
        <ele>151</ele>
        <time>2019-04-02T07:38:01Z</time>
      </trkpt>
      <trkpt lat="47.75677" lon="3.59284">
        <ele>151</ele>
        <time>2019-04-02T07:38:03Z</time>
      </trkpt>
      <trkpt lat="47.75674" lon="3.59282">
        <ele>151</ele>
        <time>2019-04-02T07:38:05Z</time>
      </trkpt>
      <trkpt lat="47.75671" lon="3.59279">
        <ele>151</ele>
        <time>2019-04-02T07:38:08Z</time>
      </trkpt>
      <trkpt lat="47.75667" lon="3.59275">
        <ele>151</ele>
        <time>2019-04-02T07:38:12Z</time>
      </trkpt>
      <trkpt lat="47.75665" lon="3.59272">
        <ele>151</ele>
        <time>2019-04-02T07:38:14Z</time>
      </trkpt>
      <trkpt lat="47.7566" lon="3.59269">
        <ele>151</ele>
        <time>2019-04-02T07:38:18Z</time>
      </trkpt>
      <trkpt lat="47.75657" lon="3.59267">
        <ele>151</ele>
        <time>2019-04-02T07:38:20Z</time>
      </trkpt>
      <trkpt lat="47.75655" lon="3.59266">
        <ele>151</ele>
        <time>2019-04-02T07:38:22Z</time>
      </trkpt>
      <trkpt lat="47.75651" lon="3.59264">
        <ele>151</ele>
        <time>2019-04-02T07:38:24Z</time>
      </trkpt>
      <trkpt lat="47.75647" lon="3.59262">
        <ele>151</ele>
        <time>2019-04-02T07:38:27Z</time>
      </trkpt>
      <trkpt lat="47.75643" lon="3.59258">
        <ele>151</ele>
        <time>2019-04-02T07:38:32Z</time>
      </trkpt>
      <trkpt lat="47.75638" lon="3.59254">
        <ele>152</ele>
        <time>2019-04-02T07:38:37Z</time>
      </trkpt>
      <trkpt lat="47.75636" lon="3.59252">
        <ele>153</ele>
        <time>2019-04-02T07:38:39Z</time>
      </trkpt>
      <trkpt lat="47.75632" lon="3.59249">
        <ele>153</ele>
        <time>2019-04-02T07:38:42Z</time>
      </trkpt>
      <trkpt lat="47.7563" lon="3.59246">
        <ele>152</ele>
        <time>2019-04-02T07:38:44Z</time>
      </trkpt>
      <trkpt lat="47.75627" lon="3.59241">
        <ele>153</ele>
        <time>2019-04-02T07:38:48Z</time>
      </trkpt>
      <trkpt lat="47.75622" lon="3.59236">
        <ele>153</ele>
        <time>2019-04-02T07:38:53Z</time>
      </trkpt>
      <trkpt lat="47.7562" lon="3.59234">
        <ele>153</ele>
        <time>2019-04-02T07:38:55Z</time>
      </trkpt>
      <trkpt lat="47.75616" lon="3.59229">
        <ele>154</ele>
        <time>2019-04-02T07:38:59Z</time>
      </trkpt>
      <trkpt lat="47.75613" lon="3.59227">
        <ele>154</ele>
        <time>2019-04-02T07:39:01Z</time>
      </trkpt>
      <trkpt lat="47.75609" lon="3.59224">
        <ele>153</ele>
        <time>2019-04-02T07:39:04Z</time>
      </trkpt>
      <trkpt lat="47.75606" lon="3.59222">
        <ele>153</ele>
        <time>2019-04-02T07:39:06Z</time>
      </trkpt>
      <trkpt lat="47.75601" lon="3.59216">
        <ele>153</ele>
        <time>2019-04-02T07:39:10Z</time>
      </trkpt>
      <trkpt lat="47.75599" lon="3.59209">
        <ele>152</ele>
        <time>2019-04-02T07:39:14Z</time>
      </trkpt>
      <trkpt lat="47.75597" lon="3.59204">
        <ele>151</ele>
        <time>2019-04-02T07:39:17Z</time>
      </trkpt>
      <trkpt lat="47.75592" lon="3.59202">
        <ele>151</ele>
        <time>2019-04-02T07:39:21Z</time>
      </trkpt>
      <trkpt lat="47.75588" lon="3.59198">
        <ele>152</ele>
        <time>2019-04-02T07:39:24Z</time>
      </trkpt>
      <trkpt lat="47.75584" lon="3.59191">
        <ele>152</ele>
        <time>2019-04-02T07:39:28Z</time>
      </trkpt>
      <trkpt lat="47.75581" lon="3.59186">
        <ele>151</ele>
        <time>2019-04-02T07:39:31Z</time>
      </trkpt>
      <trkpt lat="47.75579" lon="3.59183">
        <ele>151</ele>
        <time>2019-04-02T07:39:33Z</time>
      </trkpt>
      <trkpt lat="47.75575" lon="3.59179">
        <ele>151</ele>
        <time>2019-04-02T07:39:36Z</time>
      </trkpt>
      <trkpt lat="47.75573" lon="3.59177">
        <ele>152</ele>
        <time>2019-04-02T07:39:38Z</time>
      </trkpt>
      <trkpt lat="47.75569" lon="3.59173">
        <ele>152</ele>
        <time>2019-04-02T07:39:41Z</time>
      </trkpt>
      <trkpt lat="47.75565" lon="3.59167">
        <ele>154</ele>
        <time>2019-04-02T07:39:46Z</time>
      </trkpt>
      <trkpt lat="47.75561" lon="3.59163">
        <ele>154</ele>
        <time>2019-04-02T07:39:50Z</time>
      </trkpt>
      <trkpt lat="47.75557" lon="3.59157">
        <ele>152</ele>
        <time>2019-04-02T07:39:54Z</time>
      </trkpt>
      <trkpt lat="47.75555" lon="3.5915">
        <ele>153</ele>
        <time>2019-04-02T07:39:59Z</time>
      </trkpt>
      <trkpt lat="47.75556" lon="3.59143">
        <ele>154</ele>
        <time>2019-04-02T07:40:03Z</time>
      </trkpt>
      <trkpt lat="47.75556" lon="3.59139">
        <ele>154</ele>
        <time>2019-04-02T07:40:05Z</time>
      </trkpt>
      <trkpt lat="47.75558" lon="3.59131">
        <ele>154</ele>
        <time>2019-04-02T07:40:09Z</time>
      </trkpt>
      <trkpt lat="47.7556" lon="3.59126">
        <ele>155</ele>
        <time>2019-04-02T07:40:12Z</time>
      </trkpt>
      <trkpt lat="47.75562" lon="3.59118">
        <ele>157</ele>
        <time>2019-04-02T07:40:16Z</time>
      </trkpt>
      <trkpt lat="47.75563" lon="3.59114">
        <ele>157</ele>
        <time>2019-04-02T07:40:18Z</time>
      </trkpt>
      <trkpt lat="47.75565" lon="3.59107">
        <ele>157</ele>
        <time>2019-04-02T07:40:22Z</time>
      </trkpt>
      <trkpt lat="47.75567" lon="3.591">
        <ele>156</ele>
        <time>2019-04-02T07:40:25Z</time>
      </trkpt>
      <trkpt lat="47.75569" lon="3.59093">
        <ele>157</ele>
        <time>2019-04-02T07:40:29Z</time>
      </trkpt>
      <trkpt lat="47.7557" lon="3.5909">
        <ele>157</ele>
        <time>2019-04-02T07:40:31Z</time>
      </trkpt>
      <trkpt lat="47.75572" lon="3.59086">
        <ele>157</ele>
        <time>2019-04-02T07:40:33Z</time>
      </trkpt>
      <trkpt lat="47.75573" lon="3.59083">
        <ele>157</ele>
        <time>2019-04-02T07:40:35Z</time>
      </trkpt>
      <trkpt lat="47.75574" lon="3.59079">
        <ele>158</ele>
        <time>2019-04-02T07:40:38Z</time>
      </trkpt>
      <trkpt lat="47.75575" lon="3.59075">
        <ele>159</ele>
        <time>2019-04-02T07:40:40Z</time>
      </trkpt>
      <trkpt lat="47.75577" lon="3.59068">
        <ele>158</ele>
        <time>2019-04-02T07:40:44Z</time>
      </trkpt>
      <trkpt lat="47.7558" lon="3.59062">
        <ele>158</ele>
        <time>2019-04-02T07:40:47Z</time>
      </trkpt>
      <trkpt lat="47.75581" lon="3.59055">
        <ele>158</ele>
        <time>2019-04-02T07:40:51Z</time>
      </trkpt>
      <trkpt lat="47.75584" lon="3.59049">
        <ele>158</ele>
        <time>2019-04-02T07:40:54Z</time>
      </trkpt>
      <trkpt lat="47.75587" lon="3.59044">
        <ele>159</ele>
        <time>2019-04-02T07:40:58Z</time>
      </trkpt>
      <trkpt lat="47.75588" lon="3.59037">
        <ele>159</ele>
        <time>2019-04-02T07:41:02Z</time>
      </trkpt>
      <trkpt lat="47.75588" lon="3.59033">
        <ele>160</ele>
        <time>2019-04-02T07:41:04Z</time>
      </trkpt>
      <trkpt lat="47.75589" lon="3.59028">
        <ele>160</ele>
        <time>2019-04-02T07:41:07Z</time>
      </trkpt>
      <trkpt lat="47.75588" lon="3.5902">
        <ele>160</ele>
        <time>2019-04-02T07:41:12Z</time>
      </trkpt>
      <trkpt lat="47.75588" lon="3.59013">
        <ele>160</ele>
        <time>2019-04-02T07:41:16Z</time>
      </trkpt>
      <trkpt lat="47.75588" lon="3.59009">
        <ele>160</ele>
        <time>2019-04-02T07:41:18Z</time>
      </trkpt>
      <trkpt lat="47.75586" lon="3.59002">
        <ele>161</ele>
        <time>2019-04-02T07:41:21Z</time>
      </trkpt>
      <trkpt lat="47.75581" lon="3.58997">
        <ele>160</ele>
        <time>2019-04-02T07:41:25Z</time>
      </trkpt>
      <trkpt lat="47.75577" lon="3.58994">
        <ele>159</ele>
        <time>2019-04-02T07:41:30Z</time>
      </trkpt>
      <trkpt lat="47.75574" lon="3.58992">
        <ele>159</ele>
        <time>2019-04-02T07:41:32Z</time>
      </trkpt>
      <trkpt lat="47.7557" lon="3.5899">
        <ele>160</ele>
        <time>2019-04-02T07:41:36Z</time>
      </trkpt>
      <trkpt lat="47.75564" lon="3.58986">
        <ele>162</ele>
        <time>2019-04-02T07:41:41Z</time>
      </trkpt>
      <trkpt lat="47.75557" lon="3.58985">
        <ele>163</ele>
        <time>2019-04-02T07:41:47Z</time>
      </trkpt>
      <trkpt lat="47.75552" lon="3.58984">
        <ele>163</ele>
        <time>2019-04-02T07:41:50Z</time>
      </trkpt>
      <trkpt lat="47.75548" lon="3.58988">
        <ele>162</ele>
        <time>2019-04-02T07:41:55Z</time>
      </trkpt>
      <trkpt lat="47.75541" lon="3.58989">
        <ele>159</ele>
        <time>2019-04-02T07:42:00Z</time>
      </trkpt>
      <trkpt lat="47.75537" lon="3.5899">
        <ele>156</ele>
        <time>2019-04-02T07:42:04Z</time>
      </trkpt>
      <trkpt lat="47.75532" lon="3.5899">
        <ele>153</ele>
        <time>2019-04-02T07:42:11Z</time>
      </trkpt>
      <trkpt lat="47.75532" lon="3.5899">
        <ele>153</ele>
        <time>2019-04-02T07:46:01Z</time>
      </trkpt>
      <trkpt lat="47.75524" lon="3.58994">
        <ele>152</ele>
        <time>2019-04-02T07:50:50Z</time>
      </trkpt>
      <trkpt lat="47.7552" lon="3.58992">
        <ele>151</ele>
        <time>2019-04-02T07:50:54Z</time>
      </trkpt>
      <trkpt lat="47.75517" lon="3.5899">
        <ele>151</ele>
        <time>2019-04-02T07:50:56Z</time>
      </trkpt>
      <trkpt lat="47.75514" lon="3.58989">
        <ele>151</ele>
        <time>2019-04-02T07:50:58Z</time>
      </trkpt>
      <trkpt lat="47.7551" lon="3.58986">
        <ele>152</ele>
        <time>2019-04-02T07:51:01Z</time>
      </trkpt>
      <trkpt lat="47.75507" lon="3.58984">
        <ele>153</ele>
        <time>2019-04-02T07:51:03Z</time>
      </trkpt>
      <trkpt lat="47.75502" lon="3.58982">
        <ele>155</ele>
        <time>2019-04-02T07:51:07Z</time>
      </trkpt>
      <trkpt lat="47.75498" lon="3.58979">
        <ele>156</ele>
        <time>2019-04-02T07:51:10Z</time>
      </trkpt>
      <trkpt lat="47.75495" lon="3.58978">
        <ele>157</ele>
        <time>2019-04-02T07:51:12Z</time>
      </trkpt>
      <trkpt lat="47.75492" lon="3.58977">
        <ele>159</ele>
        <time>2019-04-02T07:51:15Z</time>
      </trkpt>
      <trkpt lat="47.75488" lon="3.58974">
        <ele>161</ele>
        <time>2019-04-02T07:51:18Z</time>
      </trkpt>
      <trkpt lat="47.75482" lon="3.58975">
        <ele>163</ele>
        <time>2019-04-02T07:51:22Z</time>
      </trkpt>
      <trkpt lat="47.75478" lon="3.58979">
        <ele>164</ele>
        <time>2019-04-02T07:51:26Z</time>
      </trkpt>
      <trkpt lat="47.75472" lon="3.58983">
        <ele>163</ele>
        <time>2019-04-02T07:51:30Z</time>
      </trkpt>
      <trkpt lat="47.75469" lon="3.58991">
        <ele>163</ele>
        <time>2019-04-02T07:51:34Z</time>
      </trkpt>
      <trkpt lat="47.75468" lon="3.58999">
        <ele>162</ele>
        <time>2019-04-02T07:51:38Z</time>
      </trkpt>
      <trkpt lat="47.75467" lon="3.59003">
        <ele>162</ele>
        <time>2019-04-02T07:51:40Z</time>
      </trkpt>
      <trkpt lat="47.75465" lon="3.59008">
        <ele>162</ele>
        <time>2019-04-02T07:51:42Z</time>
      </trkpt>
      <trkpt lat="47.75463" lon="3.59017">
        <ele>160</ele>
        <time>2019-04-02T07:51:47Z</time>
      </trkpt>
      <trkpt lat="47.75461" lon="3.59023">
        <ele>160</ele>
        <time>2019-04-02T07:51:50Z</time>
      </trkpt>
      <trkpt lat="47.75458" lon="3.59029">
        <ele>160</ele>
        <time>2019-04-02T07:51:54Z</time>
      </trkpt>
      <trkpt lat="47.75457" lon="3.59032">
        <ele>160</ele>
        <time>2019-04-02T07:51:56Z</time>
      </trkpt>
      <trkpt lat="47.75455" lon="3.59039">
        <ele>161</ele>
        <time>2019-04-02T07:52:00Z</time>
      </trkpt>
      <trkpt lat="47.75453" lon="3.59045">
        <ele>161</ele>
        <time>2019-04-02T07:52:04Z</time>
      </trkpt>
      <trkpt lat="47.75451" lon="3.59053">
        <ele>160</ele>
        <time>2019-04-02T07:52:07Z</time>
      </trkpt>
      <trkpt lat="47.7545" lon="3.5906">
        <ele>159</ele>
        <time>2019-04-02T07:52:11Z</time>
      </trkpt>
      <trkpt lat="47.75449" lon="3.59064">
        <ele>159</ele>
        <time>2019-04-02T07:52:13Z</time>
      </trkpt>
      <trkpt lat="47.75448" lon="3.59068">
        <ele>158</ele>
        <time>2019-04-02T07:52:15Z</time>
      </trkpt>
      <trkpt lat="47.75447" lon="3.59074">
        <ele>158</ele>
        <time>2019-04-02T07:52:19Z</time>
      </trkpt>
      <trkpt lat="47.75444" lon="3.59081">
        <ele>157</ele>
        <time>2019-04-02T07:52:23Z</time>
      </trkpt>
      <trkpt lat="47.75442" lon="3.59085">
        <ele>157</ele>
        <time>2019-04-02T07:52:26Z</time>
      </trkpt>
      <trkpt lat="47.75441" lon="3.59092">
        <ele>157</ele>
        <time>2019-04-02T07:52:30Z</time>
      </trkpt>
      <trkpt lat="47.75441" lon="3.59098">
        <ele>158</ele>
        <time>2019-04-02T07:52:33Z</time>
      </trkpt>
      <trkpt lat="47.75438" lon="3.59103">
        <ele>157</ele>
        <time>2019-04-02T07:52:36Z</time>
      </trkpt>
      <trkpt lat="47.75437" lon="3.5911">
        <ele>158</ele>
        <time>2019-04-02T07:52:41Z</time>
      </trkpt>
      <trkpt lat="47.75434" lon="3.59115">
        <ele>158</ele>
        <time>2019-04-02T07:52:46Z</time>
      </trkpt>
      <trkpt lat="47.75431" lon="3.59123">
        <ele>160</ele>
        <time>2019-04-02T07:52:51Z</time>
      </trkpt>
      <trkpt lat="47.75428" lon="3.59131">
        <ele>159</ele>
        <time>2019-04-02T07:52:55Z</time>
      </trkpt>
      <trkpt lat="47.75425" lon="3.59137">
        <ele>160</ele>
        <time>2019-04-02T07:52:59Z</time>
      </trkpt>
      <trkpt lat="47.75422" lon="3.59141">
        <ele>158</ele>
        <time>2019-04-02T07:53:01Z</time>
      </trkpt>
      <trkpt lat="47.7542" lon="3.59147">
        <ele>158</ele>
        <time>2019-04-02T07:53:05Z</time>
      </trkpt>
      <trkpt lat="47.75418" lon="3.59152">
        <ele>157</ele>
        <time>2019-04-02T07:53:08Z</time>
      </trkpt>
      <trkpt lat="47.75416" lon="3.59159">
        <ele>156</ele>
        <time>2019-04-02T07:53:11Z</time>
      </trkpt>
      <trkpt lat="47.75413" lon="3.59165">
        <ele>156</ele>
        <time>2019-04-02T07:53:15Z</time>
      </trkpt>
      <trkpt lat="47.75412" lon="3.59167">
        <ele>157</ele>
        <time>2019-04-02T07:53:17Z</time>
      </trkpt>
      <trkpt lat="47.75409" lon="3.59172">
        <ele>156</ele>
        <time>2019-04-02T07:53:20Z</time>
      </trkpt>
      <trkpt lat="47.75407" lon="3.59169">
        <ele>153</ele>
        <time>2019-04-02T07:53:28Z</time>
      </trkpt>
      <trkpt lat="47.75405" lon="3.59162">
        <ele>151</ele>
        <time>2019-04-02T07:53:39Z</time>
      </trkpt>
      <trkpt lat="47.75405" lon="3.59155">
        <ele>150</ele>
        <time>2019-04-02T07:53:44Z</time>
      </trkpt>
      <trkpt lat="47.75401" lon="3.59151">
        <ele>148</ele>
        <time>2019-04-02T07:53:49Z</time>
      </trkpt>
      <trkpt lat="47.75398" lon="3.59146">
        <ele>147</ele>
        <time>2019-04-02T07:53:53Z</time>
      </trkpt>
      <trkpt lat="47.75392" lon="3.59141">
        <ele>147</ele>
        <time>2019-04-02T07:53:57Z</time>
      </trkpt>
      <trkpt lat="47.75389" lon="3.59139">
        <ele>147</ele>
        <time>2019-04-02T07:53:59Z</time>
      </trkpt>
      <trkpt lat="47.75385" lon="3.59137">
        <ele>148</ele>
        <time>2019-04-02T07:54:03Z</time>
      </trkpt>
      <trkpt lat="47.7538" lon="3.59134">
        <ele>145</ele>
        <time>2019-04-02T07:54:06Z</time>
      </trkpt>
      <trkpt lat="47.75376" lon="3.5913">
        <ele>142</ele>
        <time>2019-04-02T07:54:09Z</time>
      </trkpt>
      <trkpt lat="47.75373" lon="3.59127">
        <ele>142</ele>
        <time>2019-04-02T07:54:12Z</time>
      </trkpt>
      <trkpt lat="47.7537" lon="3.59125">
        <ele>142</ele>
        <time>2019-04-02T07:54:14Z</time>
      </trkpt>
      <trkpt lat="47.75366" lon="3.59122">
        <ele>144</ele>
        <time>2019-04-02T07:54:18Z</time>
      </trkpt>
      <trkpt lat="47.75363" lon="3.59118">
        <ele>145</ele>
        <time>2019-04-02T07:54:23Z</time>
      </trkpt>
      <trkpt lat="47.75358" lon="3.59116">
        <ele>144</ele>
        <time>2019-04-02T07:54:27Z</time>
      </trkpt>
      <trkpt lat="47.75355" lon="3.59114">
        <ele>143</ele>
        <time>2019-04-02T07:54:30Z</time>
      </trkpt>
      <trkpt lat="47.75351" lon="3.59108">
        <ele>143</ele>
        <time>2019-04-02T07:54:34Z</time>
      </trkpt>
      <trkpt lat="47.75347" lon="3.59103">
        <ele>142</ele>
        <time>2019-04-02T07:54:37Z</time>
      </trkpt>
      <trkpt lat="47.75342" lon="3.59099">
        <ele>143</ele>
        <time>2019-04-02T07:54:41Z</time>
      </trkpt>
      <trkpt lat="47.75339" lon="3.59094">
        <ele>147</ele>
        <time>2019-04-02T07:54:48Z</time>
      </trkpt>
      <trkpt lat="47.75335" lon="3.5909">
        <ele>145</ele>
        <time>2019-04-02T07:54:51Z</time>
      </trkpt>
      <trkpt lat="47.7533" lon="3.59091">
        <ele>144</ele>
        <time>2019-04-02T07:54:54Z</time>
      </trkpt>
      <trkpt lat="47.75325" lon="3.59086">
        <ele>145</ele>
        <time>2019-04-02T07:54:58Z</time>
      </trkpt>
      <trkpt lat="47.75322" lon="3.59084">
        <ele>145</ele>
        <time>2019-04-02T07:55:00Z</time>
      </trkpt>
      <trkpt lat="47.7532" lon="3.59081">
        <ele>145</ele>
        <time>2019-04-02T07:55:02Z</time>
      </trkpt>
      <trkpt lat="47.75316" lon="3.59076">
        <ele>146</ele>
        <time>2019-04-02T07:55:06Z</time>
      </trkpt>
      <trkpt lat="47.75312" lon="3.5907">
        <ele>147</ele>
        <time>2019-04-02T07:55:10Z</time>
      </trkpt>
      <trkpt lat="47.75311" lon="3.59067">
        <ele>146</ele>
        <time>2019-04-02T07:55:12Z</time>
      </trkpt>
      <trkpt lat="47.75306" lon="3.59064">
        <ele>147</ele>
        <time>2019-04-02T07:55:17Z</time>
      </trkpt>
      <trkpt lat="47.75303" lon="3.59062">
        <ele>145</ele>
        <time>2019-04-02T07:55:20Z</time>
      </trkpt>
      <trkpt lat="47.75301" lon="3.5906">
        <ele>146</ele>
        <time>2019-04-02T07:55:23Z</time>
      </trkpt>
      <trkpt lat="47.75296" lon="3.59055">
        <ele>147</ele>
        <time>2019-04-02T07:55:29Z</time>
      </trkpt>
      <trkpt lat="47.75291" lon="3.59052">
        <ele>146</ele>
        <time>2019-04-02T07:55:33Z</time>
      </trkpt>
      <trkpt lat="47.75286" lon="3.59046">
        <ele>146</ele>
        <time>2019-04-02T07:55:37Z</time>
      </trkpt>
      <trkpt lat="47.75279" lon="3.59041">
        <ele>144</ele>
        <time>2019-04-02T07:55:42Z</time>
      </trkpt>
      <trkpt lat="47.75276" lon="3.59039">
        <ele>145</ele>
        <time>2019-04-02T07:55:44Z</time>
      </trkpt>
      <trkpt lat="47.75272" lon="3.59035">
        <ele>146</ele>
        <time>2019-04-02T07:55:49Z</time>
      </trkpt>
      <trkpt lat="47.75267" lon="3.59031">
        <ele>148</ele>
        <time>2019-04-02T07:55:56Z</time>
      </trkpt>
      <trkpt lat="47.75263" lon="3.59027">
        <ele>149</ele>
        <time>2019-04-02T07:56:00Z</time>
      </trkpt>
      <trkpt lat="47.75259" lon="3.59024">
        <ele>149</ele>
        <time>2019-04-02T07:56:03Z</time>
      </trkpt>
      <trkpt lat="47.75255" lon="3.59019">
        <ele>150</ele>
        <time>2019-04-02T07:56:06Z</time>
      </trkpt>
      <trkpt lat="47.75249" lon="3.59018">
        <ele>150</ele>
        <time>2019-04-02T07:56:09Z</time>
      </trkpt>
      <trkpt lat="47.75244" lon="3.59019">
        <ele>151</ele>
        <time>2019-04-02T07:56:13Z</time>
      </trkpt>
      <trkpt lat="47.7524" lon="3.59017">
        <ele>151</ele>
        <time>2019-04-02T07:56:17Z</time>
      </trkpt>
      <trkpt lat="47.75237" lon="3.59015">
        <ele>149</ele>
        <time>2019-04-02T07:56:19Z</time>
      </trkpt>
      <trkpt lat="47.75235" lon="3.59014">
        <ele>149</ele>
        <time>2019-04-02T07:56:22Z</time>
      </trkpt>
      <trkpt lat="47.7523" lon="3.59012">
        <ele>149</ele>
        <time>2019-04-02T07:56:25Z</time>
      </trkpt>
      <trkpt lat="47.75225" lon="3.59006">
        <ele>151</ele>
        <time>2019-04-02T07:56:29Z</time>
      </trkpt>
      <trkpt lat="47.7522" lon="3.59005">
        <ele>151</ele>
        <time>2019-04-02T07:56:33Z</time>
      </trkpt>
      <trkpt lat="47.75214" lon="3.59001">
        <ele>150</ele>
        <time>2019-04-02T07:56:39Z</time>
      </trkpt>
      <trkpt lat="47.7521" lon="3.58998">
        <ele>150</ele>
        <time>2019-04-02T07:56:45Z</time>
      </trkpt>
      <trkpt lat="47.75207" lon="3.58992">
        <ele>150</ele>
        <time>2019-04-02T07:56:49Z</time>
      </trkpt>
      <trkpt lat="47.75201" lon="3.58989">
        <ele>151</ele>
        <time>2019-04-02T07:56:54Z</time>
      </trkpt>
      <trkpt lat="47.75197" lon="3.58984">
        <ele>154</ele>
        <time>2019-04-02T07:56:58Z</time>
      </trkpt>
      <trkpt lat="47.75192" lon="3.58981">
        <ele>154</ele>
        <time>2019-04-02T07:57:02Z</time>
      </trkpt>
      <trkpt lat="47.7519" lon="3.58979">
        <ele>154</ele>
        <time>2019-04-02T07:57:04Z</time>
      </trkpt>
      <trkpt lat="47.75185" lon="3.58976">
        <ele>154</ele>
        <time>2019-04-02T07:57:08Z</time>
      </trkpt>
      <trkpt lat="47.75181" lon="3.58972">
        <ele>152</ele>
        <time>2019-04-02T07:57:11Z</time>
      </trkpt>
      <trkpt lat="47.75177" lon="3.58967">
        <ele>154</ele>
        <time>2019-04-02T07:57:15Z</time>
      </trkpt>
      <trkpt lat="47.75173" lon="3.58964">
        <ele>155</ele>
        <time>2019-04-02T07:57:18Z</time>
      </trkpt>
      <trkpt lat="47.75171" lon="3.58961">
        <ele>154</ele>
        <time>2019-04-02T07:57:20Z</time>
      </trkpt>
      <trkpt lat="47.75165" lon="3.58961">
        <ele>154</ele>
        <time>2019-04-02T07:57:24Z</time>
      </trkpt>
      <trkpt lat="47.7516" lon="3.58956">
        <ele>155</ele>
        <time>2019-04-02T07:57:29Z</time>
      </trkpt>
      <trkpt lat="47.75157" lon="3.58954">
        <ele>154</ele>
        <time>2019-04-02T07:57:32Z</time>
      </trkpt>
      <trkpt lat="47.75153" lon="3.5895">
        <ele>154</ele>
        <time>2019-04-02T07:57:38Z</time>
      </trkpt>
      <trkpt lat="47.7515" lon="3.58947">
        <ele>154</ele>
        <time>2019-04-02T07:57:40Z</time>
      </trkpt>
      <trkpt lat="47.75148" lon="3.58944">
        <ele>156</ele>
        <time>2019-04-02T07:57:43Z</time>
      </trkpt>
      <trkpt lat="47.75143" lon="3.58942">
        <ele>155</ele>
        <time>2019-04-02T07:57:47Z</time>
      </trkpt>
      <trkpt lat="47.75138" lon="3.58942">
        <ele>155</ele>
        <time>2019-04-02T07:57:51Z</time>
      </trkpt>
      <trkpt lat="47.75133" lon="3.58939">
        <ele>155</ele>
        <time>2019-04-02T07:57:55Z</time>
      </trkpt>
      <trkpt lat="47.75128" lon="3.58934">
        <ele>155</ele>
        <time>2019-04-02T07:57:59Z</time>
      </trkpt>
      <trkpt lat="47.75124" lon="3.58931">
        <ele>155</ele>
        <time>2019-04-02T07:58:02Z</time>
      </trkpt>
      <trkpt lat="47.75118" lon="3.58931">
        <ele>153</ele>
        <time>2019-04-02T07:58:06Z</time>
      </trkpt>
      <trkpt lat="47.75114" lon="3.58929">
        <ele>154</ele>
        <time>2019-04-02T07:58:10Z</time>
      </trkpt>
      <trkpt lat="47.75108" lon="3.58928">
        <ele>150</ele>
        <time>2019-04-02T07:58:16Z</time>
      </trkpt>
      <trkpt lat="47.75103" lon="3.58927">
        <ele>150</ele>
        <time>2019-04-02T07:58:19Z</time>
      </trkpt>
      <trkpt lat="47.75097" lon="3.58926">
        <ele>148</ele>
        <time>2019-04-02T07:58:23Z</time>
      </trkpt>
      <trkpt lat="47.75094" lon="3.58926">
        <ele>146</ele>
        <time>2019-04-02T07:58:26Z</time>
      </trkpt>
      <trkpt lat="47.7509" lon="3.58924">
        <ele>144</ele>
        <time>2019-04-02T07:58:31Z</time>
      </trkpt>
      <trkpt lat="47.75085" lon="3.58924">
        <ele>143</ele>
        <time>2019-04-02T07:58:35Z</time>
      </trkpt>
      <trkpt lat="47.75078" lon="3.58923">
        <ele>143</ele>
        <time>2019-04-02T07:58:41Z</time>
      </trkpt>
      <trkpt lat="47.75075" lon="3.58922">
        <ele>145</ele>
        <time>2019-04-02T07:58:43Z</time>
      </trkpt>
      <trkpt lat="47.7507" lon="3.58918">
        <ele>147</ele>
        <time>2019-04-02T07:58:48Z</time>
      </trkpt>
      <trkpt lat="47.75065" lon="3.58917">
        <ele>149</ele>
        <time>2019-04-02T07:58:55Z</time>
      </trkpt>
      <trkpt lat="47.75059" lon="3.58913">
        <ele>151</ele>
        <time>2019-04-02T07:59:04Z</time>
      </trkpt>
      <trkpt lat="47.75054" lon="3.58913">
        <ele>149</ele>
        <time>2019-04-02T07:59:10Z</time>
      </trkpt>
      <trkpt lat="47.75046" lon="3.5891">
        <ele>152</ele>
        <time>2019-04-02T07:59:16Z</time>
      </trkpt>
      <trkpt lat="47.75042" lon="3.58909">
        <ele>149</ele>
        <time>2019-04-02T07:59:22Z</time>
      </trkpt>
      <trkpt lat="47.75038" lon="3.58907">
        <ele>149</ele>
        <time>2019-04-02T07:59:24Z</time>
      </trkpt>
      <trkpt lat="47.75035" lon="3.58907">
        <ele>150</ele>
        <time>2019-04-02T07:59:26Z</time>
      </trkpt>
      <trkpt lat="47.75032" lon="3.58906">
        <ele>151</ele>
        <time>2019-04-02T07:59:28Z</time>
      </trkpt>
      <trkpt lat="47.75026" lon="3.58904">
        <ele>150</ele>
        <time>2019-04-02T07:59:32Z</time>
      </trkpt>
      <trkpt lat="47.75019" lon="3.58901">
        <ele>151</ele>
        <time>2019-04-02T07:59:38Z</time>
      </trkpt>
      <trkpt lat="47.75016" lon="3.589">
        <ele>151</ele>
        <time>2019-04-02T07:59:40Z</time>
      </trkpt>
      <trkpt lat="47.7501" lon="3.58899">
        <ele>152</ele>
        <time>2019-04-02T07:59:44Z</time>
      </trkpt>
      <trkpt lat="47.75003" lon="3.58896">
        <ele>153</ele>
        <time>2019-04-02T07:59:49Z</time>
      </trkpt>
      <trkpt lat="47.74998" lon="3.58897">
        <ele>152</ele>
        <time>2019-04-02T07:59:53Z</time>
      </trkpt>
      <trkpt lat="47.74995" lon="3.58898">
        <ele>152</ele>
        <time>2019-04-02T07:59:55Z</time>
      </trkpt>
      <trkpt lat="47.7499" lon="3.58897">
        <ele>154</ele>
        <time>2019-04-02T07:59:58Z</time>
      </trkpt>
      <trkpt lat="47.74987" lon="3.58896">
        <ele>154</ele>
        <time>2019-04-02T08:00:00Z</time>
      </trkpt>
      <trkpt lat="47.74985" lon="3.58894">
        <ele>155</ele>
        <time>2019-04-02T08:00:02Z</time>
      </trkpt>
      <trkpt lat="47.74981" lon="3.58892">
        <ele>156</ele>
        <time>2019-04-02T08:00:06Z</time>
      </trkpt>
      <trkpt lat="47.74976" lon="3.58888">
        <ele>155</ele>
        <time>2019-04-02T08:00:11Z</time>
      </trkpt>
      <trkpt lat="47.74971" lon="3.58886">
        <ele>153</ele>
        <time>2019-04-02T08:00:16Z</time>
      </trkpt>
      <trkpt lat="47.74964" lon="3.58884">
        <ele>153</ele>
        <time>2019-04-02T08:00:22Z</time>
      </trkpt>
      <trkpt lat="47.74959" lon="3.58885">
        <ele>154</ele>
        <time>2019-04-02T08:00:25Z</time>
      </trkpt>
      <trkpt lat="47.74956" lon="3.58885">
        <ele>153</ele>
        <time>2019-04-02T08:00:27Z</time>
      </trkpt>
      <trkpt lat="47.7495" lon="3.58884">
        <ele>152</ele>
        <time>2019-04-02T08:00:31Z</time>
      </trkpt>
      <trkpt lat="47.74946" lon="3.58882">
        <ele>151</ele>
        <time>2019-04-02T08:00:36Z</time>
      </trkpt>
      <trkpt lat="47.74942" lon="3.58876">
        <ele>151</ele>
        <time>2019-04-02T08:00:40Z</time>
      </trkpt>
      <trkpt lat="47.7494" lon="3.58874">
        <ele>152</ele>
        <time>2019-04-02T08:00:43Z</time>
      </trkpt>
      <trkpt lat="47.74936" lon="3.58869">
        <ele>152</ele>
        <time>2019-04-02T08:00:48Z</time>
      </trkpt>
      <trkpt lat="47.74932" lon="3.58865">
        <ele>153</ele>
        <time>2019-04-02T08:00:52Z</time>
      </trkpt>
      <trkpt lat="47.74927" lon="3.58863">
        <ele>155</ele>
        <time>2019-04-02T08:00:56Z</time>
      </trkpt>
      <trkpt lat="47.74923" lon="3.58861">
        <ele>155</ele>
        <time>2019-04-02T08:00:59Z</time>
      </trkpt>
      <trkpt lat="47.7492" lon="3.58857">
        <ele>155</ele>
        <time>2019-04-02T08:01:03Z</time>
      </trkpt>
      <trkpt lat="47.74915" lon="3.58854">
        <ele>153</ele>
        <time>2019-04-02T08:01:08Z</time>
      </trkpt>
      <trkpt lat="47.74912" lon="3.58853">
        <ele>153</ele>
        <time>2019-04-02T08:01:11Z</time>
      </trkpt>
      <trkpt lat="47.7491" lon="3.58852">
        <ele>153</ele>
        <time>2019-04-02T08:01:15Z</time>
      </trkpt>
      <trkpt lat="47.74905" lon="3.58848">
        <ele>154</ele>
        <time>2019-04-02T08:01:19Z</time>
      </trkpt>
      <trkpt lat="47.749" lon="3.58847">
        <ele>153</ele>
        <time>2019-04-02T08:01:22Z</time>
      </trkpt>
      <trkpt lat="47.74896" lon="3.58846">
        <ele>153</ele>
        <time>2019-04-02T08:01:25Z</time>
      </trkpt>
      <trkpt lat="47.74891" lon="3.58845">
        <ele>152</ele>
        <time>2019-04-02T08:01:28Z</time>
      </trkpt>
      <trkpt lat="47.74885" lon="3.58841">
        <ele>153</ele>
        <time>2019-04-02T08:01:32Z</time>
      </trkpt>
      <trkpt lat="47.74882" lon="3.58839">
        <ele>154</ele>
        <time>2019-04-02T08:01:35Z</time>
      </trkpt>
      <trkpt lat="47.74878" lon="3.58836">
        <ele>153</ele>
        <time>2019-04-02T08:01:39Z</time>
      </trkpt>
      <trkpt lat="47.74875" lon="3.58834">
        <ele>154</ele>
        <time>2019-04-02T08:01:41Z</time>
      </trkpt>
      <trkpt lat="47.74875" lon="3.58834">
        <ele>154</ele>
        <time>2019-04-02T08:01:46Z</time>
      </trkpt>
      <trkpt lat="47.74875" lon="3.58834">
        <ele>154</ele>
        <time>2019-04-02T08:01:47Z</time>
      </trkpt>
      <trkpt lat="47.74871" lon="3.58829">
        <ele>153</ele>
        <time>2019-04-02T08:01:49Z</time>
      </trkpt>
      <trkpt lat="47.74866" lon="3.58827">
        <ele>154</ele>
        <time>2019-04-02T08:01:53Z</time>
      </trkpt>
      <trkpt lat="47.74861" lon="3.58827">
        <ele>153</ele>
        <time>2019-04-02T08:01:57Z</time>
      </trkpt>
      <trkpt lat="47.74855" lon="3.58824">
        <ele>153</ele>
        <time>2019-04-02T08:02:02Z</time>
      </trkpt>
      <trkpt lat="47.74852" lon="3.58822">
        <ele>153</ele>
        <time>2019-04-02T08:02:04Z</time>
      </trkpt>
      <trkpt lat="47.74847" lon="3.58821">
        <ele>152</ele>
        <time>2019-04-02T08:02:08Z</time>
      </trkpt>
      <trkpt lat="47.74841" lon="3.58816">
        <ele>152</ele>
        <time>2019-04-02T08:02:11Z</time>
      </trkpt>
      <trkpt lat="47.74837" lon="3.58813">
        <ele>153</ele>
        <time>2019-04-02T08:02:15Z</time>
      </trkpt>
      <trkpt lat="47.74833" lon="3.58811">
        <ele>152</ele>
        <time>2019-04-02T08:02:18Z</time>
      </trkpt>
      <trkpt lat="47.74828" lon="3.5881">
        <ele>152</ele>
        <time>2019-04-02T08:02:23Z</time>
      </trkpt>
      <trkpt lat="47.74824" lon="3.58804">
        <ele>152</ele>
        <time>2019-04-02T08:02:29Z</time>
      </trkpt>
      <trkpt lat="47.7482" lon="3.588">
        <ele>151</ele>
        <time>2019-04-02T08:02:33Z</time>
      </trkpt>
      <trkpt lat="47.74814" lon="3.58799">
        <ele>152</ele>
        <time>2019-04-02T08:02:36Z</time>
      </trkpt>
      <trkpt lat="47.74809" lon="3.58797">
        <ele>151</ele>
        <time>2019-04-02T08:02:41Z</time>
      </trkpt>
      <trkpt lat="47.74805" lon="3.58794">
        <ele>152</ele>
        <time>2019-04-02T08:02:46Z</time>
      </trkpt>
      <trkpt lat="47.74799" lon="3.58795">
        <ele>153</ele>
        <time>2019-04-02T08:02:50Z</time>
      </trkpt>
      <trkpt lat="47.74795" lon="3.58792">
        <ele>153</ele>
        <time>2019-04-02T08:02:53Z</time>
      </trkpt>
      <trkpt lat="47.74791" lon="3.58789">
        <ele>154</ele>
        <time>2019-04-02T08:02:57Z</time>
      </trkpt>
      <trkpt lat="47.74787" lon="3.58786">
        <ele>154</ele>
        <time>2019-04-02T08:03:00Z</time>
      </trkpt>
      <trkpt lat="47.74783" lon="3.58784">
        <ele>154</ele>
        <time>2019-04-02T08:03:02Z</time>
      </trkpt>
      <trkpt lat="47.7478" lon="3.58781">
        <ele>154</ele>
        <time>2019-04-02T08:03:04Z</time>
      </trkpt>
      <trkpt lat="47.74777" lon="3.58779">
        <ele>153</ele>
        <time>2019-04-02T08:03:06Z</time>
      </trkpt>
      <trkpt lat="47.74772" lon="3.58776">
        <ele>153</ele>
        <time>2019-04-02T08:03:10Z</time>
      </trkpt>
      <trkpt lat="47.74769" lon="3.58776">
        <ele>154</ele>
        <time>2019-04-02T08:03:13Z</time>
      </trkpt>
      <trkpt lat="47.74764" lon="3.58771">
        <ele>153</ele>
        <time>2019-04-02T08:03:17Z</time>
      </trkpt>
      <trkpt lat="47.74758" lon="3.58769">
        <ele>153</ele>
        <time>2019-04-02T08:03:21Z</time>
      </trkpt>
      <trkpt lat="47.74753" lon="3.58765">
        <ele>155</ele>
        <time>2019-04-02T08:03:26Z</time>
      </trkpt>
      <trkpt lat="47.74748" lon="3.58762">
        <ele>153</ele>
        <time>2019-04-02T08:03:30Z</time>
      </trkpt>
      <trkpt lat="47.74746" lon="3.58761">
        <ele>154</ele>
        <time>2019-04-02T08:03:33Z</time>
      </trkpt>
      <trkpt lat="47.74742" lon="3.58756">
        <ele>155</ele>
        <time>2019-04-02T08:03:40Z</time>
      </trkpt>
      <trkpt lat="47.74737" lon="3.58755">
        <ele>155</ele>
        <time>2019-04-02T08:03:43Z</time>
      </trkpt>
      <trkpt lat="47.74732" lon="3.58753">
        <ele>154</ele>
        <time>2019-04-02T08:03:49Z</time>
      </trkpt>
      <trkpt lat="47.7473" lon="3.58746">
        <ele>155</ele>
        <time>2019-04-02T08:03:57Z</time>
      </trkpt>
      <trkpt lat="47.74727" lon="3.58739">
        <ele>154</ele>
        <time>2019-04-02T08:04:01Z</time>
      </trkpt>
      <trkpt lat="47.74721" lon="3.58734">
        <ele>152</ele>
        <time>2019-04-02T08:04:06Z</time>
      </trkpt>
      <trkpt lat="47.74717" lon="3.5873">
        <ele>151</ele>
        <time>2019-04-02T08:04:09Z</time>
      </trkpt>
      <trkpt lat="47.7471" lon="3.58731">
        <ele>152</ele>
        <time>2019-04-02T08:04:14Z</time>
      </trkpt>
      <trkpt lat="47.74705" lon="3.5873">
        <ele>152</ele>
        <time>2019-04-02T08:04:17Z</time>
      </trkpt>
      <trkpt lat="47.74701" lon="3.58728">
        <ele>151</ele>
        <time>2019-04-02T08:04:22Z</time>
      </trkpt>
      <trkpt lat="47.74697" lon="3.58724">
        <ele>151</ele>
        <time>2019-04-02T08:04:25Z</time>
      </trkpt>
      <trkpt lat="47.74692" lon="3.58722">
        <ele>148</ele>
        <time>2019-04-02T08:04:29Z</time>
      </trkpt>
      <trkpt lat="47.74686" lon="3.58722">
        <ele>146</ele>
        <time>2019-04-02T08:04:33Z</time>
      </trkpt>
      <trkpt lat="47.7468" lon="3.58724">
        <ele>144</ele>
        <time>2019-04-02T08:04:37Z</time>
      </trkpt>
      <trkpt lat="47.74676" lon="3.58725">
        <ele>144</ele>
        <time>2019-04-02T08:04:39Z</time>
      </trkpt>
      <trkpt lat="47.74674" lon="3.58725">
        <ele>145</ele>
        <time>2019-04-02T08:04:44Z</time>
      </trkpt>
      <trkpt lat="47.74669" lon="3.58722">
        <ele>143</ele>
        <time>2019-04-02T08:04:57Z</time>
      </trkpt>
      <trkpt lat="47.74662" lon="3.5872">
        <ele>144</ele>
        <time>2019-04-02T08:05:02Z</time>
      </trkpt>
      <trkpt lat="47.74656" lon="3.58717">
        <ele>142</ele>
        <time>2019-04-02T08:05:07Z</time>
      </trkpt>
      <trkpt lat="47.74653" lon="3.58716">
        <ele>142</ele>
        <time>2019-04-02T08:05:09Z</time>
      </trkpt>
      <trkpt lat="47.74647" lon="3.58717">
        <ele>140</ele>
        <time>2019-04-02T08:05:15Z</time>
      </trkpt>
      <trkpt lat="47.74644" lon="3.58718">
        <ele>140</ele>
        <time>2019-04-02T08:05:17Z</time>
      </trkpt>
      <trkpt lat="47.7464" lon="3.58716">
        <ele>142</ele>
        <time>2019-04-02T08:05:21Z</time>
      </trkpt>
      <trkpt lat="47.74635" lon="3.58718">
        <ele>141</ele>
        <time>2019-04-02T08:05:25Z</time>
      </trkpt>
      <trkpt lat="47.7463" lon="3.58716">
        <ele>142</ele>
        <time>2019-04-02T08:05:29Z</time>
      </trkpt>
      <trkpt lat="47.74625" lon="3.58714">
        <ele>141</ele>
        <time>2019-04-02T08:05:32Z</time>
      </trkpt>
      <trkpt lat="47.74621" lon="3.58713">
        <ele>141</ele>
        <time>2019-04-02T08:05:35Z</time>
      </trkpt>
      <trkpt lat="47.74618" lon="3.58712">
        <ele>142</ele>
        <time>2019-04-02T08:05:37Z</time>
      </trkpt>
      <trkpt lat="47.74613" lon="3.58712">
        <ele>142</ele>
        <time>2019-04-02T08:05:41Z</time>
      </trkpt>
      <trkpt lat="47.74608" lon="3.58715">
        <ele>141</ele>
        <time>2019-04-02T08:05:45Z</time>
      </trkpt>
      <trkpt lat="47.74605" lon="3.58716">
        <ele>140</ele>
        <time>2019-04-02T08:05:47Z</time>
      </trkpt>
      <trkpt lat="47.74599" lon="3.58717">
        <ele>140</ele>
        <time>2019-04-02T08:05:53Z</time>
      </trkpt>
      <trkpt lat="47.74592" lon="3.58716">
        <ele>138</ele>
        <time>2019-04-02T08:05:59Z</time>
      </trkpt>
      <trkpt lat="47.74586" lon="3.58715">
        <ele>138</ele>
        <time>2019-04-02T08:06:02Z</time>
      </trkpt>
      <trkpt lat="47.74581" lon="3.58717">
        <ele>139</ele>
        <time>2019-04-02T08:06:06Z</time>
      </trkpt>
      <trkpt lat="47.74579" lon="3.58718">
        <ele>139</ele>
        <time>2019-04-02T08:06:09Z</time>
      </trkpt>
      <trkpt lat="47.74576" lon="3.58718">
        <ele>138</ele>
        <time>2019-04-02T08:06:10Z</time>
      </trkpt>
      <trkpt lat="47.7457" lon="3.58719">
        <ele>139</ele>
        <time>2019-04-02T08:06:15Z</time>
      </trkpt>
      <trkpt lat="47.74567" lon="3.5872">
        <ele>138</ele>
        <time>2019-04-02T08:06:17Z</time>
      </trkpt>
      <trkpt lat="47.74563" lon="3.58722">
        <ele>140</ele>
        <time>2019-04-02T08:06:21Z</time>
      </trkpt>
      <trkpt lat="47.74556" lon="3.58724">
        <ele>140</ele>
        <time>2019-04-02T08:06:26Z</time>
      </trkpt>
      <trkpt lat="47.7455" lon="3.58724">
        <ele>140</ele>
        <time>2019-04-02T08:06:30Z</time>
      </trkpt>
      <trkpt lat="47.74546" lon="3.5873">
        <ele>137</ele>
        <time>2019-04-02T08:06:34Z</time>
      </trkpt>
      <trkpt lat="47.7454" lon="3.58731">
        <ele>137</ele>
        <time>2019-04-02T08:06:40Z</time>
      </trkpt>
      <trkpt lat="47.74536" lon="3.58733">
        <ele>136</ele>
        <time>2019-04-02T08:06:43Z</time>
      </trkpt>
      <trkpt lat="47.74531" lon="3.58734">
        <ele>134</ele>
        <time>2019-04-02T08:06:47Z</time>
      </trkpt>
      <trkpt lat="47.74527" lon="3.58733">
        <ele>133</ele>
        <time>2019-04-02T08:06:49Z</time>
      </trkpt>
      <trkpt lat="47.74523" lon="3.58737">
        <ele>133</ele>
        <time>2019-04-02T08:06:52Z</time>
      </trkpt>
      <trkpt lat="47.7452" lon="3.5874">
        <ele>134</ele>
        <time>2019-04-02T08:06:56Z</time>
      </trkpt>
      <trkpt lat="47.74515" lon="3.58741">
        <ele>130</ele>
        <time>2019-04-02T08:07:02Z</time>
      </trkpt>
      <trkpt lat="47.7451" lon="3.58745">
        <ele>131</ele>
        <time>2019-04-02T08:07:06Z</time>
      </trkpt>
      <trkpt lat="47.74504" lon="3.58742">
        <ele>133</ele>
        <time>2019-04-02T08:07:13Z</time>
      </trkpt>
      <trkpt lat="47.74497" lon="3.58745">
        <ele>131</ele>
        <time>2019-04-02T08:07:17Z</time>
      </trkpt>
      <trkpt lat="47.74492" lon="3.58748">
        <ele>130</ele>
        <time>2019-04-02T08:07:22Z</time>
      </trkpt>
      <trkpt lat="47.74488" lon="3.5875">
        <ele>126</ele>
        <time>2019-04-02T08:07:25Z</time>
      </trkpt>
      <trkpt lat="47.74485" lon="3.58751">
        <ele>126</ele>
        <time>2019-04-02T08:07:27Z</time>
      </trkpt>
      <trkpt lat="47.7448" lon="3.58754">
        <ele>125</ele>
        <time>2019-04-02T08:07:30Z</time>
      </trkpt>
      <trkpt lat="47.74477" lon="3.58755">
        <ele>124</ele>
        <time>2019-04-02T08:07:32Z</time>
      </trkpt>
      <trkpt lat="47.74474" lon="3.58757">
        <ele>123</ele>
        <time>2019-04-02T08:07:34Z</time>
      </trkpt>
      <trkpt lat="47.74469" lon="3.58762">
        <ele>117</ele>
        <time>2019-04-02T08:07:41Z</time>
      </trkpt>
      <trkpt lat="47.74466" lon="3.58768">
        <ele>119</ele>
        <time>2019-04-02T08:07:44Z</time>
      </trkpt>
      <trkpt lat="47.74462" lon="3.58771">
        <ele>121</ele>
        <time>2019-04-02T08:07:49Z</time>
      </trkpt>
      <trkpt lat="47.74456" lon="3.58772">
        <ele>124</ele>
        <time>2019-04-02T08:07:54Z</time>
      </trkpt>
      <trkpt lat="47.74451" lon="3.58775">
        <ele>126</ele>
        <time>2019-04-02T08:07:59Z</time>
      </trkpt>
      <trkpt lat="47.74445" lon="3.58775">
        <ele>126</ele>
        <time>2019-04-02T08:08:03Z</time>
      </trkpt>
      <trkpt lat="47.7444" lon="3.58778">
        <ele>125</ele>
        <time>2019-04-02T08:08:07Z</time>
      </trkpt>
      <trkpt lat="47.74435" lon="3.58781">
        <ele>126</ele>
        <time>2019-04-02T08:08:11Z</time>
      </trkpt>
      <trkpt lat="47.74432" lon="3.5879">
        <ele>128</ele>
        <time>2019-04-02T08:08:16Z</time>
      </trkpt>
      <trkpt lat="47.74429" lon="3.58794">
        <ele>131</ele>
        <time>2019-04-02T08:08:21Z</time>
      </trkpt>
      <trkpt lat="47.74424" lon="3.58797">
        <ele>131</ele>
        <time>2019-04-02T08:08:25Z</time>
      </trkpt>
      <trkpt lat="47.74419" lon="3.58797">
        <ele>135</ele>
        <time>2019-04-02T08:08:30Z</time>
      </trkpt>
      <trkpt lat="47.74414" lon="3.588">
        <ele>134</ele>
        <time>2019-04-02T08:08:34Z</time>
      </trkpt>
      <trkpt lat="47.74411" lon="3.58802">
        <ele>134</ele>
        <time>2019-04-02T08:08:36Z</time>
      </trkpt>
      <trkpt lat="47.74408" lon="3.58804">
        <ele>133</ele>
        <time>2019-04-02T08:08:38Z</time>
      </trkpt>
      <trkpt lat="47.74401" lon="3.58805">
        <ele>133</ele>
        <time>2019-04-02T08:08:43Z</time>
      </trkpt>
      <trkpt lat="47.74395" lon="3.58807">
        <ele>132</ele>
        <time>2019-04-02T08:08:46Z</time>
      </trkpt>
      <trkpt lat="47.74392" lon="3.58808">
        <ele>132</ele>
        <time>2019-04-02T08:08:50Z</time>
      </trkpt>
      <trkpt lat="47.74389" lon="3.58809">
        <ele>132</ele>
        <time>2019-04-02T08:08:53Z</time>
      </trkpt>
      <trkpt lat="47.74383" lon="3.58808">
        <ele>131</ele>
        <time>2019-04-02T08:08:59Z</time>
      </trkpt>
      <trkpt lat="47.74379" lon="3.58815">
        <ele>131</ele>
        <time>2019-04-02T08:09:03Z</time>
      </trkpt>
      <trkpt lat="47.74377" lon="3.58819">
        <ele>130</ele>
        <time>2019-04-02T08:09:05Z</time>
      </trkpt>
      <trkpt lat="47.74373" lon="3.58822">
        <ele>130</ele>
        <time>2019-04-02T08:09:09Z</time>
      </trkpt>
      <trkpt lat="47.74368" lon="3.58822">
        <ele>133</ele>
        <time>2019-04-02T08:09:14Z</time>
      </trkpt>
      <trkpt lat="47.74363" lon="3.58824">
        <ele>135</ele>
        <time>2019-04-02T08:09:18Z</time>
      </trkpt>
      <trkpt lat="47.74357" lon="3.58825">
        <ele>137</ele>
        <time>2019-04-02T08:09:23Z</time>
      </trkpt>
      <trkpt lat="47.7435" lon="3.58827">
        <ele>140</ele>
        <time>2019-04-02T08:09:30Z</time>
      </trkpt>
      <trkpt lat="47.74345" lon="3.58832">
        <ele>141</ele>
        <time>2019-04-02T08:09:34Z</time>
      </trkpt>
      <trkpt lat="47.74341" lon="3.58837">
        <ele>141</ele>
        <time>2019-04-02T08:09:37Z</time>
      </trkpt>
      <trkpt lat="47.74337" lon="3.5884">
        <ele>141</ele>
        <time>2019-04-02T08:09:41Z</time>
      </trkpt>
      <trkpt lat="47.74333" lon="3.58839">
        <ele>141</ele>
        <time>2019-04-02T08:09:45Z</time>
      </trkpt>
      <trkpt lat="47.7433" lon="3.58838">
        <ele>142</ele>
        <time>2019-04-02T08:09:47Z</time>
      </trkpt>
      <trkpt lat="47.74325" lon="3.58841">
        <ele>144</ele>
        <time>2019-04-02T08:09:52Z</time>
      </trkpt>
      <trkpt lat="47.74321" lon="3.58845">
        <ele>146</ele>
        <time>2019-04-02T08:09:56Z</time>
      </trkpt>
      <trkpt lat="47.74314" lon="3.58847">
        <ele>147</ele>
        <time>2019-04-02T08:10:01Z</time>
      </trkpt>
      <trkpt lat="47.74308" lon="3.58856">
        <ele>146</ele>
        <time>2019-04-02T08:10:07Z</time>
      </trkpt>
      <trkpt lat="47.74304" lon="3.58859">
        <ele>146</ele>
        <time>2019-04-02T08:10:10Z</time>
      </trkpt>
      <trkpt lat="47.74298" lon="3.58861">
        <ele>149</ele>
        <time>2019-04-02T08:10:16Z</time>
      </trkpt>
      <trkpt lat="47.74294" lon="3.58866">
        <ele>148</ele>
        <time>2019-04-02T08:10:20Z</time>
      </trkpt>
      <trkpt lat="47.74291" lon="3.58868">
        <ele>146</ele>
        <time>2019-04-02T08:10:28Z</time>
      </trkpt>
      <trkpt lat="47.74286" lon="3.5887">
        <ele>144</ele>
        <time>2019-04-02T08:10:34Z</time>
      </trkpt>
      <trkpt lat="47.74282" lon="3.58872">
        <ele>144</ele>
        <time>2019-04-02T08:10:37Z</time>
      </trkpt>
      <trkpt lat="47.7428" lon="3.58874">
        <ele>143</ele>
        <time>2019-04-02T08:10:39Z</time>
      </trkpt>
      <trkpt lat="47.74275" lon="3.58878">
        <ele>143</ele>
        <time>2019-04-02T08:10:43Z</time>
      </trkpt>
      <trkpt lat="47.74272" lon="3.58883">
        <ele>143</ele>
        <time>2019-04-02T08:10:47Z</time>
      </trkpt>
      <trkpt lat="47.74267" lon="3.58884">
        <ele>144</ele>
        <time>2019-04-02T08:10:52Z</time>
      </trkpt>
      <trkpt lat="47.74261" lon="3.58886">
        <ele>147</ele>
        <time>2019-04-02T08:10:57Z</time>
      </trkpt>
      <trkpt lat="47.74258" lon="3.58891">
        <ele>149</ele>
        <time>2019-04-02T08:11:02Z</time>
      </trkpt>
      <trkpt lat="47.74256" lon="3.58894">
        <ele>149</ele>
        <time>2019-04-02T08:11:04Z</time>
      </trkpt>
      <trkpt lat="47.74251" lon="3.58897">
        <ele>149</ele>
        <time>2019-04-02T08:11:08Z</time>
      </trkpt>
      <trkpt lat="47.74246" lon="3.589">
        <ele>147</ele>
        <time>2019-04-02T08:11:12Z</time>
      </trkpt>
      <trkpt lat="47.74243" lon="3.58902">
        <ele>148</ele>
        <time>2019-04-02T08:11:14Z</time>
      </trkpt>
      <trkpt lat="47.7424" lon="3.58903">
        <ele>149</ele>
        <time>2019-04-02T08:11:17Z</time>
      </trkpt>
      <trkpt lat="47.74235" lon="3.58905">
        <ele>148</ele>
        <time>2019-04-02T08:11:20Z</time>
      </trkpt>
      <trkpt lat="47.74231" lon="3.5891">
        <ele>148</ele>
        <time>2019-04-02T08:11:24Z</time>
      </trkpt>
      <trkpt lat="47.74229" lon="3.58913">
        <ele>147</ele>
        <time>2019-04-02T08:11:26Z</time>
      </trkpt>
      <trkpt lat="47.74224" lon="3.58915">
        <ele>148</ele>
        <time>2019-04-02T08:11:30Z</time>
      </trkpt>
      <trkpt lat="47.74219" lon="3.58919">
        <ele>147</ele>
        <time>2019-04-02T08:11:35Z</time>
      </trkpt>
      <trkpt lat="47.74214" lon="3.58921">
        <ele>147</ele>
        <time>2019-04-02T08:11:38Z</time>
      </trkpt>
      <trkpt lat="47.7421" lon="3.58926">
        <ele>147</ele>
        <time>2019-04-02T08:11:43Z</time>
      </trkpt>
      <trkpt lat="47.74207" lon="3.58931">
        <ele>146</ele>
        <time>2019-04-02T08:11:47Z</time>
      </trkpt>
      <trkpt lat="47.74201" lon="3.58934">
        <ele>145</ele>
        <time>2019-04-02T08:11:52Z</time>
      </trkpt>
      <trkpt lat="47.74196" lon="3.58937">
        <ele>146</ele>
        <time>2019-04-02T08:11:55Z</time>
      </trkpt>
      <trkpt lat="47.74191" lon="3.58939">
        <ele>146</ele>
        <time>2019-04-02T08:11:59Z</time>
      </trkpt>
      <trkpt lat="47.74188" lon="3.5894">
        <ele>146</ele>
        <time>2019-04-02T08:12:02Z</time>
      </trkpt>
      <trkpt lat="47.74184" lon="3.58944">
        <ele>145</ele>
        <time>2019-04-02T08:12:06Z</time>
      </trkpt>
      <trkpt lat="47.74181" lon="3.58951">
        <ele>144</ele>
        <time>2019-04-02T08:12:10Z</time>
      </trkpt>
      <trkpt lat="47.74175" lon="3.58957">
        <ele>144</ele>
        <time>2019-04-02T08:12:15Z</time>
      </trkpt>
      <trkpt lat="47.74171" lon="3.58961">
        <ele>142</ele>
        <time>2019-04-02T08:12:20Z</time>
      </trkpt>
      <trkpt lat="47.74168" lon="3.58965">
        <ele>140</ele>
        <time>2019-04-02T08:12:23Z</time>
      </trkpt>
      <trkpt lat="47.74161" lon="3.58969">
        <ele>142</ele>
        <time>2019-04-02T08:12:28Z</time>
      </trkpt>
      <trkpt lat="47.74159" lon="3.58971">
        <ele>142</ele>
        <time>2019-04-02T08:12:30Z</time>
      </trkpt>
      <trkpt lat="47.74155" lon="3.58974">
        <ele>142</ele>
        <time>2019-04-02T08:12:33Z</time>
      </trkpt>
      <trkpt lat="47.74152" lon="3.58975">
        <ele>143</ele>
        <time>2019-04-02T08:12:35Z</time>
      </trkpt>
      <trkpt lat="47.74149" lon="3.58977">
        <ele>143</ele>
        <time>2019-04-02T08:12:37Z</time>
      </trkpt>
      <trkpt lat="47.74144" lon="3.58979">
        <ele>144</ele>
        <time>2019-04-02T08:12:41Z</time>
      </trkpt>
      <trkpt lat="47.7414" lon="3.58984">
        <ele>145</ele>
        <time>2019-04-02T08:12:46Z</time>
      </trkpt>
      <trkpt lat="47.74135" lon="3.58987">
        <ele>146</ele>
        <time>2019-04-02T08:12:50Z</time>
      </trkpt>
      <trkpt lat="47.74133" lon="3.58989">
        <ele>147</ele>
        <time>2019-04-02T08:12:52Z</time>
      </trkpt>
      <trkpt lat="47.74129" lon="3.58994">
        <ele>145</ele>
        <time>2019-04-02T08:12:57Z</time>
      </trkpt>
      <trkpt lat="47.74124" lon="3.59">
        <ele>144</ele>
        <time>2019-04-02T08:13:00Z</time>
      </trkpt>
      <trkpt lat="47.74122" lon="3.59002">
        <ele>144</ele>
        <time>2019-04-02T08:13:03Z</time>
      </trkpt>
      <trkpt lat="47.74118" lon="3.59008">
        <ele>146</ele>
        <time>2019-04-02T08:13:07Z</time>
      </trkpt>
      <trkpt lat="47.74113" lon="3.59011">
        <ele>146</ele>
        <time>2019-04-02T08:13:11Z</time>
      </trkpt>
      <trkpt lat="47.74109" lon="3.59013">
        <ele>146</ele>
        <time>2019-04-02T08:13:13Z</time>
      </trkpt>
      <trkpt lat="47.74103" lon="3.59013">
        <ele>146</ele>
        <time>2019-04-02T08:13:17Z</time>
      </trkpt>
      <trkpt lat="47.741" lon="3.59013">
        <ele>146</ele>
        <time>2019-04-02T08:13:19Z</time>
      </trkpt>
      <trkpt lat="47.741" lon="3.59023">
        <ele>144</ele>
        <time>2019-04-02T08:13:25Z</time>
      </trkpt>
      <trkpt lat="47.741" lon="3.59023">
        <ele>144</ele>
        <time>2019-04-02T08:13:32Z</time>
      </trkpt>
      <trkpt lat="47.741" lon="3.59023">
        <ele>144</ele>
        <time>2019-04-02T08:13:34Z</time>
      </trkpt>
      <trkpt lat="47.74097" lon="3.59034">
        <ele>142</ele>
        <time>2019-04-02T08:16:45Z</time>
      </trkpt>
      <trkpt lat="47.74097" lon="3.59041">
        <ele>141</ele>
        <time>2019-04-02T08:16:51Z</time>
      </trkpt>
      <trkpt lat="47.74097" lon="3.59048">
        <ele>145</ele>
        <time>2019-04-02T08:16:57Z</time>
      </trkpt>
      <trkpt lat="47.74097" lon="3.59056">
        <ele>148</ele>
        <time>2019-04-02T08:17:02Z</time>
      </trkpt>
      <trkpt lat="47.74098" lon="3.59063">
        <ele>149</ele>
        <time>2019-04-02T08:17:07Z</time>
      </trkpt>
      <trkpt lat="47.74099" lon="3.59071">
        <ele>149</ele>
        <time>2019-04-02T08:17:11Z</time>
      </trkpt>
      <trkpt lat="47.74099" lon="3.59076">
        <ele>150</ele>
        <time>2019-04-02T08:17:13Z</time>
      </trkpt>
      <trkpt lat="47.741" lon="3.59083">
        <ele>150</ele>
        <time>2019-04-02T08:17:17Z</time>
      </trkpt>
      <trkpt lat="47.74101" lon="3.59087">
        <ele>151</ele>
        <time>2019-04-02T08:17:19Z</time>
      </trkpt>
      <trkpt lat="47.74101" lon="3.59091">
        <ele>150</ele>
        <time>2019-04-02T08:17:21Z</time>
      </trkpt>
      <trkpt lat="47.74102" lon="3.591">
        <ele>150</ele>
        <time>2019-04-02T08:17:25Z</time>
      </trkpt>
      <trkpt lat="47.74103" lon="3.59107">
        <ele>150</ele>
        <time>2019-04-02T08:17:28Z</time>
      </trkpt>
      <trkpt lat="47.74104" lon="3.59112">
        <ele>151</ele>
        <time>2019-04-02T08:17:30Z</time>
      </trkpt>
      <trkpt lat="47.74104" lon="3.59119">
        <ele>151</ele>
        <time>2019-04-02T08:17:33Z</time>
      </trkpt>
      <trkpt lat="47.74104" lon="3.59123">
        <ele>152</ele>
        <time>2019-04-02T08:17:35Z</time>
      </trkpt>
      <trkpt lat="47.74104" lon="3.5913">
        <ele>152</ele>
        <time>2019-04-02T08:17:39Z</time>
      </trkpt>
      <trkpt lat="47.74104" lon="3.59137">
        <ele>153</ele>
        <time>2019-04-02T08:17:43Z</time>
      </trkpt>
      <trkpt lat="47.74105" lon="3.59145">
        <ele>152</ele>
        <time>2019-04-02T08:17:47Z</time>
      </trkpt>
      <trkpt lat="47.74105" lon="3.59152">
        <ele>153</ele>
        <time>2019-04-02T08:17:51Z</time>
      </trkpt>
      <trkpt lat="47.74105" lon="3.59155">
        <ele>154</ele>
        <time>2019-04-02T08:17:53Z</time>
      </trkpt>
      <trkpt lat="47.74105" lon="3.59159">
        <ele>153</ele>
        <time>2019-04-02T08:17:55Z</time>
      </trkpt>
      <trkpt lat="47.74105" lon="3.59168">
        <ele>154</ele>
        <time>2019-04-02T08:17:59Z</time>
      </trkpt>
      <trkpt lat="47.74106" lon="3.59176">
        <ele>154</ele>
        <time>2019-04-02T08:18:03Z</time>
      </trkpt>
      <trkpt lat="47.74107" lon="3.59184">
        <ele>154</ele>
        <time>2019-04-02T08:18:07Z</time>
      </trkpt>
      <trkpt lat="47.74109" lon="3.59191">
        <ele>154</ele>
        <time>2019-04-02T08:18:11Z</time>
      </trkpt>
      <trkpt lat="47.74109" lon="3.59198">
        <ele>154</ele>
        <time>2019-04-02T08:18:14Z</time>
      </trkpt>
      <trkpt lat="47.74109" lon="3.59202">
        <ele>155</ele>
        <time>2019-04-02T08:18:16Z</time>
      </trkpt>
      <trkpt lat="47.74109" lon="3.59208">
        <ele>155</ele>
        <time>2019-04-02T08:18:19Z</time>
      </trkpt>
      <trkpt lat="47.74109" lon="3.59216">
        <ele>156</ele>
        <time>2019-04-02T08:18:24Z</time>
      </trkpt>
      <trkpt lat="47.74109" lon="3.59219">
        <ele>157</ele>
        <time>2019-04-02T08:18:26Z</time>
      </trkpt>
      <trkpt lat="47.74109" lon="3.59224">
        <ele>156</ele>
        <time>2019-04-02T08:18:29Z</time>
      </trkpt>
      <trkpt lat="47.74108" lon="3.59228">
        <ele>156</ele>
        <time>2019-04-02T08:18:31Z</time>
      </trkpt>
      <trkpt lat="47.74109" lon="3.59239">
        <ele>157</ele>
        <time>2019-04-02T08:18:37Z</time>
      </trkpt>
      <trkpt lat="47.74111" lon="3.59248">
        <ele>157</ele>
        <time>2019-04-02T08:18:42Z</time>
      </trkpt>
      <trkpt lat="47.74112" lon="3.59256">
        <ele>157</ele>
        <time>2019-04-02T08:18:46Z</time>
      </trkpt>
      <trkpt lat="47.74113" lon="3.59259">
        <ele>157</ele>
        <time>2019-04-02T08:18:48Z</time>
      </trkpt>
      <trkpt lat="47.74112" lon="3.59268">
        <ele>155</ele>
        <time>2019-04-02T08:18:53Z</time>
      </trkpt>
      <trkpt lat="47.74112" lon="3.59275">
        <ele>157</ele>
        <time>2019-04-02T08:18:58Z</time>
      </trkpt>
      <trkpt lat="47.74106" lon="3.59279">
        <ele>157</ele>
        <time>2019-04-02T08:19:05Z</time>
      </trkpt>
      <trkpt lat="47.74102" lon="3.59281">
        <ele>156</ele>
        <time>2019-04-02T08:19:08Z</time>
      </trkpt>
      <trkpt lat="47.74097" lon="3.59282">
        <ele>154</ele>
        <time>2019-04-02T08:19:13Z</time>
      </trkpt>
      <trkpt lat="47.74094" lon="3.59283">
        <ele>154</ele>
        <time>2019-04-02T08:19:16Z</time>
      </trkpt>
      <trkpt lat="47.74087" lon="3.59284">
        <ele>153</ele>
        <time>2019-04-02T08:19:21Z</time>
      </trkpt>
      <trkpt lat="47.74082" lon="3.59286">
        <ele>153</ele>
        <time>2019-04-02T08:19:26Z</time>
      </trkpt>
      <trkpt lat="47.74074" lon="3.59289">
        <ele>153</ele>
        <time>2019-04-02T08:19:31Z</time>
      </trkpt>
      <trkpt lat="47.74072" lon="3.59291">
        <ele>153</ele>
        <time>2019-04-02T08:19:32Z</time>
      </trkpt>
      <trkpt lat="47.74067" lon="3.5929">
        <ele>151</ele>
        <time>2019-04-02T08:19:35Z</time>
      </trkpt>
      <trkpt lat="47.74063" lon="3.59292">
        <ele>152</ele>
        <time>2019-04-02T08:19:39Z</time>
      </trkpt>
      <trkpt lat="47.74058" lon="3.59293">
        <ele>152</ele>
        <time>2019-04-02T08:19:43Z</time>
      </trkpt>
      <trkpt lat="47.74055" lon="3.59295">
        <ele>153</ele>
        <time>2019-04-02T08:19:46Z</time>
      </trkpt>
      <trkpt lat="47.74052" lon="3.59295">
        <ele>154</ele>
        <time>2019-04-02T08:19:49Z</time>
      </trkpt>
      <trkpt lat="47.74046" lon="3.59297">
        <ele>154</ele>
        <time>2019-04-02T08:19:52Z</time>
      </trkpt>
      <trkpt lat="47.74042" lon="3.59296">
        <ele>154</ele>
        <time>2019-04-02T08:19:55Z</time>
      </trkpt>
      <trkpt lat="47.74037" lon="3.59296">
        <ele>154</ele>
        <time>2019-04-02T08:19:58Z</time>
      </trkpt>
      <trkpt lat="47.74032" lon="3.59302">
        <ele>155</ele>
        <time>2019-04-02T08:20:02Z</time>
      </trkpt>
      <trkpt lat="47.74031" lon="3.5931">
        <ele>154</ele>
        <time>2019-04-02T08:20:05Z</time>
      </trkpt>
      <trkpt lat="47.74029" lon="3.59317">
        <ele>154</ele>
        <time>2019-04-02T08:20:08Z</time>
      </trkpt>
      <trkpt lat="47.74027" lon="3.59326">
        <ele>154</ele>
        <time>2019-04-02T08:20:12Z</time>
      </trkpt>
      <trkpt lat="47.74022" lon="3.59334">
        <ele>153</ele>
        <time>2019-04-02T08:20:18Z</time>
      </trkpt>
      <trkpt lat="47.74017" lon="3.59341">
        <ele>154</ele>
        <time>2019-04-02T08:20:21Z</time>
      </trkpt>
      <trkpt lat="47.74015" lon="3.59344">
        <ele>153</ele>
        <time>2019-04-02T08:20:24Z</time>
      </trkpt>
      <trkpt lat="47.74013" lon="3.59347">
        <ele>153</ele>
        <time>2019-04-02T08:20:26Z</time>
      </trkpt>
      <trkpt lat="47.7401" lon="3.59354">
        <ele>154</ele>
        <time>2019-04-02T08:20:30Z</time>
      </trkpt>
      <trkpt lat="47.74006" lon="3.5936">
        <ele>154</ele>
        <time>2019-04-02T08:20:34Z</time>
      </trkpt>
      <trkpt lat="47.74003" lon="3.59364">
        <ele>153</ele>
        <time>2019-04-02T08:20:37Z</time>
      </trkpt>
      <trkpt lat="47.73998" lon="3.59369">
        <ele>152</ele>
        <time>2019-04-02T08:20:41Z</time>
      </trkpt>
      <trkpt lat="47.73995" lon="3.59372">
        <ele>151</ele>
        <time>2019-04-02T08:20:43Z</time>
      </trkpt>
      <trkpt lat="47.73992" lon="3.59378">
        <ele>151</ele>
        <time>2019-04-02T08:20:47Z</time>
      </trkpt>
      <trkpt lat="47.73987" lon="3.59382">
        <ele>150</ele>
        <time>2019-04-02T08:20:51Z</time>
      </trkpt>
      <trkpt lat="47.73984" lon="3.59384">
        <ele>149</ele>
        <time>2019-04-02T08:20:53Z</time>
      </trkpt>
      <trkpt lat="47.73979" lon="3.59389">
        <ele>150</ele>
        <time>2019-04-02T08:20:58Z</time>
      </trkpt>
      <trkpt lat="47.73974" lon="3.59393">
        <ele>151</ele>
        <time>2019-04-02T08:21:03Z</time>
      </trkpt>
      <trkpt lat="47.73969" lon="3.59404">
        <ele>152</ele>
        <time>2019-04-02T08:21:08Z</time>
      </trkpt>
      <trkpt lat="47.73965" lon="3.59409">
        <ele>152</ele>
        <time>2019-04-02T08:21:12Z</time>
      </trkpt>
      <trkpt lat="47.73961" lon="3.59413">
        <ele>152</ele>
        <time>2019-04-02T08:21:15Z</time>
      </trkpt>
      <trkpt lat="47.73957" lon="3.59417">
        <ele>152</ele>
        <time>2019-04-02T08:21:20Z</time>
      </trkpt>
      <trkpt lat="47.73955" lon="3.59419">
        <ele>152</ele>
        <time>2019-04-02T08:21:22Z</time>
      </trkpt>
      <trkpt lat="47.73953" lon="3.59421">
        <ele>152</ele>
        <time>2019-04-02T08:21:24Z</time>
      </trkpt>
      <trkpt lat="47.73948" lon="3.59427">
        <ele>151</ele>
        <time>2019-04-02T08:21:28Z</time>
      </trkpt>
      <trkpt lat="47.73944" lon="3.59429">
        <ele>151</ele>
        <time>2019-04-02T08:21:31Z</time>
      </trkpt>
      <trkpt lat="47.7394" lon="3.59433">
        <ele>150</ele>
        <time>2019-04-02T08:21:34Z</time>
      </trkpt>
      <trkpt lat="47.73937" lon="3.59439">
        <ele>151</ele>
        <time>2019-04-02T08:21:39Z</time>
      </trkpt>
      <trkpt lat="47.73933" lon="3.59444">
        <ele>152</ele>
        <time>2019-04-02T08:21:42Z</time>
      </trkpt>
      <trkpt lat="47.73931" lon="3.59446">
        <ele>152</ele>
        <time>2019-04-02T08:21:44Z</time>
      </trkpt>
      <trkpt lat="47.73929" lon="3.59449">
        <ele>151</ele>
        <time>2019-04-02T08:21:46Z</time>
      </trkpt>
      <trkpt lat="47.73926" lon="3.59452">
        <ele>151</ele>
        <time>2019-04-02T08:21:48Z</time>
      </trkpt>
      <trkpt lat="47.73924" lon="3.59456">
        <ele>151</ele>
        <time>2019-04-02T08:21:50Z</time>
      </trkpt>
      <trkpt lat="47.73922" lon="3.59459">
        <ele>151</ele>
        <time>2019-04-02T08:21:52Z</time>
      </trkpt>
      <trkpt lat="47.73917" lon="3.59464">
        <ele>151</ele>
        <time>2019-04-02T08:21:56Z</time>
      </trkpt>
      <trkpt lat="47.73915" lon="3.59467">
        <ele>150</ele>
        <time>2019-04-02T08:21:58Z</time>
      </trkpt>
      <trkpt lat="47.73912" lon="3.59471">
        <ele>151</ele>
        <time>2019-04-02T08:22:01Z</time>
      </trkpt>
      <trkpt lat="47.73907" lon="3.59474">
        <ele>151</ele>
        <time>2019-04-02T08:22:05Z</time>
      </trkpt>
      <trkpt lat="47.73905" lon="3.59477">
        <ele>152</ele>
        <time>2019-04-02T08:22:07Z</time>
      </trkpt>
      <trkpt lat="47.73901" lon="3.59483">
        <ele>150</ele>
        <time>2019-04-02T08:22:12Z</time>
      </trkpt>
      <trkpt lat="47.73896" lon="3.59488">
        <ele>151</ele>
        <time>2019-04-02T08:22:16Z</time>
      </trkpt>
      <trkpt lat="47.73894" lon="3.59491">
        <ele>151</ele>
        <time>2019-04-02T08:22:18Z</time>
      </trkpt>
      <trkpt lat="47.73889" lon="3.59496">
        <ele>151</ele>
        <time>2019-04-02T08:22:22Z</time>
      </trkpt>
      <trkpt lat="47.73885" lon="3.595">
        <ele>150</ele>
        <time>2019-04-02T08:22:25Z</time>
      </trkpt>
      <trkpt lat="47.73881" lon="3.59504">
        <ele>150</ele>
        <time>2019-04-02T08:22:29Z</time>
      </trkpt>
      <trkpt lat="47.73877" lon="3.5951">
        <ele>149</ele>
        <time>2019-04-02T08:22:34Z</time>
      </trkpt>
      <trkpt lat="47.73875" lon="3.59512">
        <ele>150</ele>
        <time>2019-04-02T08:22:36Z</time>
      </trkpt>
      <trkpt lat="47.73873" lon="3.59515">
        <ele>150</ele>
        <time>2019-04-02T08:22:38Z</time>
      </trkpt>
      <trkpt lat="47.7387" lon="3.5952">
        <ele>150</ele>
        <time>2019-04-02T08:22:42Z</time>
      </trkpt>
      <trkpt lat="47.73866" lon="3.59524">
        <ele>149</ele>
        <time>2019-04-02T08:22:45Z</time>
      </trkpt>
      <trkpt lat="47.73864" lon="3.59526">
        <ele>150</ele>
        <time>2019-04-02T08:22:47Z</time>
      </trkpt>
      <trkpt lat="47.7386" lon="3.59529">
        <ele>150</ele>
        <time>2019-04-02T08:22:51Z</time>
      </trkpt>
      <trkpt lat="47.73854" lon="3.59537">
        <ele>149</ele>
        <time>2019-04-02T08:22:56Z</time>
      </trkpt>
      <trkpt lat="47.73852" lon="3.59541">
        <ele>149</ele>
        <time>2019-04-02T08:22:58Z</time>
      </trkpt>
      <trkpt lat="47.73847" lon="3.59545">
        <ele>149</ele>
        <time>2019-04-02T08:23:02Z</time>
      </trkpt>
      <trkpt lat="47.73844" lon="3.59549">
        <ele>149</ele>
        <time>2019-04-02T08:23:06Z</time>
      </trkpt>
      <trkpt lat="47.73841" lon="3.59553">
        <ele>148</ele>
        <time>2019-04-02T08:23:09Z</time>
      </trkpt>
      <trkpt lat="47.73836" lon="3.5956">
        <ele>148</ele>
        <time>2019-04-02T08:23:13Z</time>
      </trkpt>
      <trkpt lat="47.73831" lon="3.59565">
        <ele>147</ele>
        <time>2019-04-02T08:23:18Z</time>
      </trkpt>
      <trkpt lat="47.73827" lon="3.59568">
        <ele>145</ele>
        <time>2019-04-02T08:23:21Z</time>
      </trkpt>
      <trkpt lat="47.73823" lon="3.59572">
        <ele>146</ele>
        <time>2019-04-02T08:23:25Z</time>
      </trkpt>
      <trkpt lat="47.7382" lon="3.59575">
        <ele>145</ele>
        <time>2019-04-02T08:23:28Z</time>
      </trkpt>
      <trkpt lat="47.73818" lon="3.59577">
        <ele>145</ele>
        <time>2019-04-02T08:23:30Z</time>
      </trkpt>
      <trkpt lat="47.73813" lon="3.59583">
        <ele>147</ele>
        <time>2019-04-02T08:23:34Z</time>
      </trkpt>
      <trkpt lat="47.73809" lon="3.59587">
        <ele>147</ele>
        <time>2019-04-02T08:23:39Z</time>
      </trkpt>
      <trkpt lat="47.73805" lon="3.59593">
        <ele>148</ele>
        <time>2019-04-02T08:23:43Z</time>
      </trkpt>
      <trkpt lat="47.73802" lon="3.59599">
        <ele>148</ele>
        <time>2019-04-02T08:23:46Z</time>
      </trkpt>
      <trkpt lat="47.73799" lon="3.59605">
        <ele>149</ele>
        <time>2019-04-02T08:23:49Z</time>
      </trkpt>
      <trkpt lat="47.73797" lon="3.59609">
        <ele>150</ele>
        <time>2019-04-02T08:23:51Z</time>
      </trkpt>
      <trkpt lat="47.73796" lon="3.59614">
        <ele>150</ele>
        <time>2019-04-02T08:23:53Z</time>
      </trkpt>
      <trkpt lat="47.73795" lon="3.59623">
        <ele>153</ele>
        <time>2019-04-02T08:23:57Z</time>
      </trkpt>
      <trkpt lat="47.73795" lon="3.59631">
        <ele>153</ele>
        <time>2019-04-02T08:24:01Z</time>
      </trkpt>
      <trkpt lat="47.73797" lon="3.59638">
        <ele>155</ele>
        <time>2019-04-02T08:24:05Z</time>
      </trkpt>
      <trkpt lat="47.73798" lon="3.59646">
        <ele>155</ele>
        <time>2019-04-02T08:24:09Z</time>
      </trkpt>
      <trkpt lat="47.73799" lon="3.5965">
        <ele>155</ele>
        <time>2019-04-02T08:24:11Z</time>
      </trkpt>
      <trkpt lat="47.73799" lon="3.59656">
        <ele>155</ele>
        <time>2019-04-02T08:24:14Z</time>
      </trkpt>
      <trkpt lat="47.738" lon="3.5966">
        <ele>155</ele>
        <time>2019-04-02T08:24:16Z</time>
      </trkpt>
      <trkpt lat="47.73801" lon="3.59666">
        <ele>156</ele>
        <time>2019-04-02T08:24:19Z</time>
      </trkpt>
      <trkpt lat="47.73803" lon="3.59674">
        <ele>156</ele>
        <time>2019-04-02T08:24:24Z</time>
      </trkpt>
      <trkpt lat="47.73804" lon="3.59678">
        <ele>157</ele>
        <time>2019-04-02T08:24:27Z</time>
      </trkpt>
      <trkpt lat="47.73806" lon="3.59686">
        <ele>156</ele>
        <time>2019-04-02T08:24:31Z</time>
      </trkpt>
      <trkpt lat="47.73806" lon="3.59689">
        <ele>157</ele>
        <time>2019-04-02T08:24:33Z</time>
      </trkpt>
      <trkpt lat="47.73807" lon="3.59695">
        <ele>157</ele>
        <time>2019-04-02T08:24:37Z</time>
      </trkpt>
      <trkpt lat="47.73806" lon="3.59703">
        <ele>158</ele>
        <time>2019-04-02T08:24:42Z</time>
      </trkpt>
      <trkpt lat="47.73804" lon="3.59711">
        <ele>159</ele>
        <time>2019-04-02T08:24:47Z</time>
      </trkpt>
      <trkpt lat="47.73802" lon="3.59716">
        <ele>159</ele>
        <time>2019-04-02T08:24:51Z</time>
      </trkpt>
      <trkpt lat="47.738" lon="3.59721">
        <ele>160</ele>
        <time>2019-04-02T08:24:54Z</time>
      </trkpt>
      <trkpt lat="47.73798" lon="3.59726">
        <ele>160</ele>
        <time>2019-04-02T08:24:58Z</time>
      </trkpt>
      <trkpt lat="47.73796" lon="3.59729">
        <ele>160</ele>
        <time>2019-04-02T08:25:00Z</time>
      </trkpt>
      <trkpt lat="47.73793" lon="3.59736">
        <ele>161</ele>
        <time>2019-04-02T08:25:05Z</time>
      </trkpt>
      <trkpt lat="47.73789" lon="3.59742">
        <ele>161</ele>
        <time>2019-04-02T08:25:09Z</time>
      </trkpt>
      <trkpt lat="47.73787" lon="3.59747">
        <ele>161</ele>
        <time>2019-04-02T08:25:12Z</time>
      </trkpt>
      <trkpt lat="47.73784" lon="3.59754">
        <ele>161</ele>
        <time>2019-04-02T08:25:15Z</time>
      </trkpt>
      <trkpt lat="47.73782" lon="3.59761">
        <ele>161</ele>
        <time>2019-04-02T08:25:18Z</time>
      </trkpt>
      <trkpt lat="47.73778" lon="3.59765">
        <ele>161</ele>
        <time>2019-04-02T08:25:23Z</time>
      </trkpt>
      <trkpt lat="47.73775" lon="3.59773">
        <ele>159</ele>
        <time>2019-04-02T08:25:27Z</time>
      </trkpt>
      <trkpt lat="47.73773" lon="3.5978">
        <ele>159</ele>
        <time>2019-04-02T08:25:31Z</time>
      </trkpt>
      <trkpt lat="47.7377" lon="3.59786">
        <ele>158</ele>
        <time>2019-04-02T08:25:35Z</time>
      </trkpt>
      <trkpt lat="47.73767" lon="3.59792">
        <ele>157</ele>
        <time>2019-04-02T08:25:38Z</time>
      </trkpt>
      <trkpt lat="47.73766" lon="3.59798">
        <ele>156</ele>
        <time>2019-04-02T08:25:42Z</time>
      </trkpt>
      <trkpt lat="47.73765" lon="3.59807">
        <ele>154</ele>
        <time>2019-04-02T08:25:47Z</time>
      </trkpt>
      <trkpt lat="47.73761" lon="3.59812">
        <ele>153</ele>
        <time>2019-04-02T08:25:52Z</time>
      </trkpt>
      <trkpt lat="47.73756" lon="3.59816">
        <ele>151</ele>
        <time>2019-04-02T08:25:56Z</time>
      </trkpt>
      <trkpt lat="47.73753" lon="3.59821">
        <ele>153</ele>
        <time>2019-04-02T08:26:01Z</time>
      </trkpt>
      <trkpt lat="47.7375" lon="3.59828">
        <ele>153</ele>
        <time>2019-04-02T08:26:05Z</time>
      </trkpt>
      <trkpt lat="47.73748" lon="3.59837">
        <ele>154</ele>
        <time>2019-04-02T08:26:10Z</time>
      </trkpt>
      <trkpt lat="47.73746" lon="3.59843">
        <ele>154</ele>
        <time>2019-04-02T08:26:13Z</time>
      </trkpt>
      <trkpt lat="47.73745" lon="3.59846">
        <ele>155</ele>
        <time>2019-04-02T08:26:15Z</time>
      </trkpt>
      <trkpt lat="47.73741" lon="3.59851">
        <ele>155</ele>
        <time>2019-04-02T08:26:19Z</time>
      </trkpt>
      <trkpt lat="47.73737" lon="3.59856">
        <ele>155</ele>
        <time>2019-04-02T08:26:24Z</time>
      </trkpt>
      <trkpt lat="47.73733" lon="3.59863">
        <ele>156</ele>
        <time>2019-04-02T08:26:28Z</time>
      </trkpt>
      <trkpt lat="47.73729" lon="3.59867">
        <ele>157</ele>
        <time>2019-04-02T08:26:31Z</time>
      </trkpt>
      <trkpt lat="47.73722" lon="3.59866">
        <ele>155</ele>
        <time>2019-04-02T08:26:33Z</time>
      </trkpt>
      <trkpt lat="47.73717" lon="3.59864">
        <ele>154</ele>
        <time>2019-04-02T08:26:36Z</time>
      </trkpt>
      <trkpt lat="47.73717" lon="3.59856">
        <ele>154</ele>
        <time>2019-04-02T08:26:42Z</time>
      </trkpt>
      <trkpt lat="47.73729" lon="3.59851">
        <ele>163</ele>
        <time>2019-04-02T08:44:57Z</time>
      </trkpt>
      <trkpt lat="47.73733" lon="3.59846">
        <ele>164</ele>
        <time>2019-04-02T08:45:02Z</time>
      </trkpt>
      <trkpt lat="47.73737" lon="3.59843">
        <ele>164</ele>
        <time>2019-04-02T08:45:05Z</time>
      </trkpt>
      <trkpt lat="47.73739" lon="3.59841">
        <ele>164</ele>
        <time>2019-04-02T08:45:07Z</time>
      </trkpt>
      <trkpt lat="47.73743" lon="3.59839">
        <ele>163</ele>
        <time>2019-04-02T08:45:11Z</time>
      </trkpt>
      <trkpt lat="47.73747" lon="3.59833">
        <ele>163</ele>
        <time>2019-04-02T08:45:16Z</time>
      </trkpt>
      <trkpt lat="47.73753" lon="3.59841">
        <ele>157</ele>
        <time>2019-04-02T08:45:21Z</time>
      </trkpt>
      <trkpt lat="47.73758" lon="3.59841">
        <ele>153</ele>
        <time>2019-04-02T08:45:26Z</time>
      </trkpt>
      <trkpt lat="47.73761" lon="3.59841">
        <ele>152</ele>
        <time>2019-04-02T08:45:31Z</time>
      </trkpt>
      <trkpt lat="47.73764" lon="3.59848">
        <ele>153</ele>
        <time>2019-04-02T08:45:37Z</time>
      </trkpt>
      <trkpt lat="47.73767" lon="3.59852">
        <ele>152</ele>
        <time>2019-04-02T08:45:42Z</time>
      </trkpt>
      <trkpt lat="47.7377" lon="3.59858">
        <ele>153</ele>
        <time>2019-04-02T08:45:48Z</time>
      </trkpt>
      <trkpt lat="47.73773" lon="3.59863">
        <ele>154</ele>
        <time>2019-04-02T08:45:51Z</time>
      </trkpt>
      <trkpt lat="47.73777" lon="3.5987">
        <ele>155</ele>
        <time>2019-04-02T08:45:56Z</time>
      </trkpt>
      <trkpt lat="47.73779" lon="3.59876">
        <ele>155</ele>
        <time>2019-04-02T08:46:00Z</time>
      </trkpt>
      <trkpt lat="47.73781" lon="3.59883">
        <ele>155</ele>
        <time>2019-04-02T08:46:03Z</time>
      </trkpt>
      <trkpt lat="47.73784" lon="3.5989">
        <ele>155</ele>
        <time>2019-04-02T08:46:07Z</time>
      </trkpt>
      <trkpt lat="47.73787" lon="3.59897">
        <ele>155</ele>
        <time>2019-04-02T08:46:11Z</time>
      </trkpt>
      <trkpt lat="47.73787" lon="3.59901">
        <ele>154</ele>
        <time>2019-04-02T08:46:14Z</time>
      </trkpt>
      <trkpt lat="47.73788" lon="3.59904">
        <ele>153</ele>
        <time>2019-04-02T08:46:16Z</time>
      </trkpt>
      <trkpt lat="47.73792" lon="3.59909">
        <ele>153</ele>
        <time>2019-04-02T08:46:20Z</time>
      </trkpt>
      <trkpt lat="47.73794" lon="3.59916">
        <ele>152</ele>
        <time>2019-04-02T08:46:25Z</time>
      </trkpt>
      <trkpt lat="47.73795" lon="3.5992">
        <ele>153</ele>
        <time>2019-04-02T08:46:28Z</time>
      </trkpt>
      <trkpt lat="47.73797" lon="3.59925">
        <ele>153</ele>
        <time>2019-04-02T08:46:32Z</time>
      </trkpt>
      <trkpt lat="47.73799" lon="3.59928">
        <ele>154</ele>
        <time>2019-04-02T08:46:34Z</time>
      </trkpt>
      <trkpt lat="47.73799" lon="3.59935">
        <ele>153</ele>
        <time>2019-04-02T08:46:40Z</time>
      </trkpt>
      <trkpt lat="47.738" lon="3.59944">
        <ele>153</ele>
        <time>2019-04-02T08:46:44Z</time>
      </trkpt>
      <trkpt lat="47.738" lon="3.5995">
        <ele>152</ele>
        <time>2019-04-02T08:46:49Z</time>
      </trkpt>
      <trkpt lat="47.73802" lon="3.59958">
        <ele>154</ele>
        <time>2019-04-02T08:46:53Z</time>
      </trkpt>
      <trkpt lat="47.73804" lon="3.59966">
        <ele>155</ele>
        <time>2019-04-02T08:46:57Z</time>
      </trkpt>
      <trkpt lat="47.73805" lon="3.59974">
        <ele>156</ele>
        <time>2019-04-02T08:47:02Z</time>
      </trkpt>
      <trkpt lat="47.73805" lon="3.59981">
        <ele>157</ele>
        <time>2019-04-02T08:47:06Z</time>
      </trkpt>
      <trkpt lat="47.73806" lon="3.59988">
        <ele>155</ele>
        <time>2019-04-02T08:47:10Z</time>
      </trkpt>
      <trkpt lat="47.73807" lon="3.59993">
        <ele>155</ele>
        <time>2019-04-02T08:47:13Z</time>
      </trkpt>
      <trkpt lat="47.73808" lon="3.59997">
        <ele>155</ele>
        <time>2019-04-02T08:47:15Z</time>
      </trkpt>
      <trkpt lat="47.73809" lon="3.6">
        <ele>155</ele>
        <time>2019-04-02T08:47:17Z</time>
      </trkpt>
      <trkpt lat="47.7381" lon="3.60008">
        <ele>155</ele>
        <time>2019-04-02T08:47:21Z</time>
      </trkpt>
      <trkpt lat="47.73811" lon="3.60013">
        <ele>156</ele>
        <time>2019-04-02T08:47:23Z</time>
      </trkpt>
      <trkpt lat="47.73811" lon="3.60017">
        <ele>156</ele>
        <time>2019-04-02T08:47:26Z</time>
      </trkpt>
      <trkpt lat="47.73812" lon="3.60025">
        <ele>156</ele>
        <time>2019-04-02T08:47:31Z</time>
      </trkpt>
      <trkpt lat="47.73814" lon="3.60034">
        <ele>157</ele>
        <time>2019-04-02T08:47:36Z</time>
      </trkpt>
      <trkpt lat="47.73814" lon="3.60037">
        <ele>157</ele>
        <time>2019-04-02T08:47:38Z</time>
      </trkpt>
      <trkpt lat="47.73815" lon="3.6004">
        <ele>157</ele>
        <time>2019-04-02T08:47:40Z</time>
      </trkpt>
      <trkpt lat="47.73816" lon="3.60044">
        <ele>157</ele>
        <time>2019-04-02T08:47:42Z</time>
      </trkpt>
      <trkpt lat="47.73817" lon="3.60048">
        <ele>157</ele>
        <time>2019-04-02T08:47:44Z</time>
      </trkpt>
      <trkpt lat="47.7382" lon="3.60054">
        <ele>158</ele>
        <time>2019-04-02T08:47:49Z</time>
      </trkpt>
      <trkpt lat="47.73822" lon="3.60057">
        <ele>158</ele>
        <time>2019-04-02T08:47:51Z</time>
      </trkpt>
      <trkpt lat="47.73824" lon="3.60065">
        <ele>158</ele>
        <time>2019-04-02T08:47:55Z</time>
      </trkpt>
      <trkpt lat="47.73826" lon="3.60071">
        <ele>158</ele>
        <time>2019-04-02T08:47:59Z</time>
      </trkpt>
      <trkpt lat="47.73829" lon="3.60079">
        <ele>159</ele>
        <time>2019-04-02T08:48:02Z</time>
      </trkpt>
      <trkpt lat="47.73831" lon="3.60086">
        <ele>158</ele>
        <time>2019-04-02T08:48:05Z</time>
      </trkpt>
      <trkpt lat="47.73834" lon="3.60092">
        <ele>157</ele>
        <time>2019-04-02T08:48:09Z</time>
      </trkpt>
      <trkpt lat="47.73835" lon="3.60099">
        <ele>157</ele>
        <time>2019-04-02T08:48:13Z</time>
      </trkpt>
      <trkpt lat="47.73838" lon="3.60104">
        <ele>157</ele>
        <time>2019-04-02T08:48:17Z</time>
      </trkpt>
      <trkpt lat="47.7384" lon="3.60112">
        <ele>155</ele>
        <time>2019-04-02T08:48:22Z</time>
      </trkpt>
      <trkpt lat="47.73841" lon="3.60119">
        <ele>156</ele>
        <time>2019-04-02T08:48:26Z</time>
      </trkpt>
      <trkpt lat="47.73843" lon="3.60126">
        <ele>155</ele>
        <time>2019-04-02T08:48:30Z</time>
      </trkpt>
      <trkpt lat="47.73845" lon="3.6013">
        <ele>155</ele>
        <time>2019-04-02T08:48:32Z</time>
      </trkpt>
      <trkpt lat="47.73846" lon="3.60137">
        <ele>154</ele>
        <time>2019-04-02T08:48:35Z</time>
      </trkpt>
      <trkpt lat="47.73849" lon="3.60146">
        <ele>154</ele>
        <time>2019-04-02T08:48:40Z</time>
      </trkpt>
      <trkpt lat="47.73851" lon="3.60151">
        <ele>154</ele>
        <time>2019-04-02T08:48:42Z</time>
      </trkpt>
      <trkpt lat="47.73854" lon="3.60159">
        <ele>153</ele>
        <time>2019-04-02T08:48:46Z</time>
      </trkpt>
      <trkpt lat="47.73856" lon="3.60167">
        <ele>153</ele>
        <time>2019-04-02T08:48:51Z</time>
      </trkpt>
      <trkpt lat="47.73857" lon="3.6017">
        <ele>153</ele>
        <time>2019-04-02T08:48:54Z</time>
      </trkpt>
      <trkpt lat="47.73858" lon="3.60174">
        <ele>153</ele>
        <time>2019-04-02T08:48:55Z</time>
      </trkpt>
      <trkpt lat="47.73859" lon="3.60177">
        <ele>153</ele>
        <time>2019-04-02T08:48:57Z</time>
      </trkpt>
      <trkpt lat="47.73861" lon="3.60185">
        <ele>154</ele>
        <time>2019-04-02T08:49:02Z</time>
      </trkpt>
      <trkpt lat="47.73863" lon="3.60188">
        <ele>153</ele>
        <time>2019-04-02T08:49:04Z</time>
      </trkpt>
      <trkpt lat="47.73864" lon="3.60193">
        <ele>154</ele>
        <time>2019-04-02T08:49:06Z</time>
      </trkpt>
      <trkpt lat="47.73867" lon="3.60199">
        <ele>154</ele>
        <time>2019-04-02T08:49:10Z</time>
      </trkpt>
      <trkpt lat="47.73869" lon="3.60209">
        <ele>153</ele>
        <time>2019-04-02T08:49:16Z</time>
      </trkpt>
      <trkpt lat="47.7387" lon="3.60212">
        <ele>152</ele>
        <time>2019-04-02T08:49:18Z</time>
      </trkpt>
      <trkpt lat="47.73873" lon="3.60219">
        <ele>152</ele>
        <time>2019-04-02T08:49:21Z</time>
      </trkpt>
      <trkpt lat="47.73875" lon="3.60224">
        <ele>151</ele>
        <time>2019-04-02T08:49:24Z</time>
      </trkpt>
      <trkpt lat="47.73875" lon="3.60231">
        <ele>154</ele>
        <time>2019-04-02T08:49:28Z</time>
      </trkpt>
      <trkpt lat="47.73878" lon="3.60239">
        <ele>154</ele>
        <time>2019-04-02T08:49:33Z</time>
      </trkpt>
      <trkpt lat="47.7388" lon="3.60247">
        <ele>152</ele>
        <time>2019-04-02T08:49:37Z</time>
      </trkpt>
      <trkpt lat="47.73884" lon="3.60253">
        <ele>153</ele>
        <time>2019-04-02T08:49:44Z</time>
      </trkpt>
      <trkpt lat="47.73886" lon="3.60258">
        <ele>153</ele>
        <time>2019-04-02T08:49:47Z</time>
      </trkpt>
      <trkpt lat="47.73888" lon="3.60261">
        <ele>155</ele>
        <time>2019-04-02T08:49:50Z</time>
      </trkpt>
      <trkpt lat="47.7389" lon="3.60266">
        <ele>156</ele>
        <time>2019-04-02T08:49:54Z</time>
      </trkpt>
      <trkpt lat="47.73891" lon="3.6027">
        <ele>158</ele>
        <time>2019-04-02T08:49:56Z</time>
      </trkpt>
      <trkpt lat="47.73893" lon="3.60273">
        <ele>158</ele>
        <time>2019-04-02T08:49:58Z</time>
      </trkpt>
      <trkpt lat="47.73897" lon="3.6028">
        <ele>158</ele>
        <time>2019-04-02T08:50:03Z</time>
      </trkpt>
      <trkpt lat="47.73898" lon="3.60283">
        <ele>157</ele>
        <time>2019-04-02T08:50:05Z</time>
      </trkpt>
      <trkpt lat="47.739" lon="3.6029">
        <ele>157</ele>
        <time>2019-04-02T08:50:09Z</time>
      </trkpt>
      <trkpt lat="47.73904" lon="3.60298">
        <ele>157</ele>
        <time>2019-04-02T08:50:13Z</time>
      </trkpt>
      <trkpt lat="47.73905" lon="3.60303">
        <ele>158</ele>
        <time>2019-04-02T08:50:16Z</time>
      </trkpt>
      <trkpt lat="47.73908" lon="3.60308">
        <ele>158</ele>
        <time>2019-04-02T08:50:19Z</time>
      </trkpt>
      <trkpt lat="47.73911" lon="3.6031">
        <ele>159</ele>
        <time>2019-04-02T08:50:27Z</time>
      </trkpt>
      <trkpt lat="47.73914" lon="3.60316">
        <ele>160</ele>
        <time>2019-04-02T08:50:49Z</time>
      </trkpt>
      <trkpt lat="47.73915" lon="3.60319">
        <ele>160</ele>
        <time>2019-04-02T08:50:52Z</time>
      </trkpt>
      <trkpt lat="47.73918" lon="3.60324">
        <ele>160</ele>
        <time>2019-04-02T08:50:56Z</time>
      </trkpt>
      <trkpt lat="47.73922" lon="3.60327">
        <ele>159</ele>
        <time>2019-04-02T08:51:01Z</time>
      </trkpt>
      <trkpt lat="47.73925" lon="3.60329">
        <ele>159</ele>
        <time>2019-04-02T08:51:04Z</time>
      </trkpt>
      <trkpt lat="47.73927" lon="3.60331">
        <ele>159</ele>
        <time>2019-04-02T08:51:07Z</time>
      </trkpt>
      <trkpt lat="47.7393" lon="3.60338">
        <ele>157</ele>
        <time>2019-04-02T08:51:13Z</time>
      </trkpt>
      <trkpt lat="47.73932" lon="3.60341">
        <ele>158</ele>
        <time>2019-04-02T08:51:15Z</time>
      </trkpt>
      <trkpt lat="47.73933" lon="3.60348">
        <ele>157</ele>
        <time>2019-04-02T08:51:19Z</time>
      </trkpt>
      <trkpt lat="47.73933" lon="3.60354">
        <ele>157</ele>
        <time>2019-04-02T08:51:22Z</time>
      </trkpt>
      <trkpt lat="47.73934" lon="3.60358">
        <ele>157</ele>
        <time>2019-04-02T08:51:24Z</time>
      </trkpt>
      <trkpt lat="47.73936" lon="3.60364">
        <ele>157</ele>
        <time>2019-04-02T08:51:27Z</time>
      </trkpt>
      <trkpt lat="47.73937" lon="3.60368">
        <ele>157</ele>
        <time>2019-04-02T08:51:30Z</time>
      </trkpt>
      <trkpt lat="47.73939" lon="3.60375">
        <ele>157</ele>
        <time>2019-04-02T08:51:33Z</time>
      </trkpt>
      <trkpt lat="47.73941" lon="3.6038">
        <ele>155</ele>
        <time>2019-04-02T08:51:36Z</time>
      </trkpt>
      <trkpt lat="47.73942" lon="3.60387">
        <ele>157</ele>
        <time>2019-04-02T08:51:41Z</time>
      </trkpt>
      <trkpt lat="47.73944" lon="3.60394">
        <ele>157</ele>
        <time>2019-04-02T08:51:45Z</time>
      </trkpt>
      <trkpt lat="47.73946" lon="3.60401">
        <ele>155</ele>
        <time>2019-04-02T08:51:49Z</time>
      </trkpt>
      <trkpt lat="47.73949" lon="3.60407">
        <ele>154</ele>
        <time>2019-04-02T08:51:53Z</time>
      </trkpt>
      <trkpt lat="47.7395" lon="3.60415">
        <ele>154</ele>
        <time>2019-04-02T08:51:56Z</time>
      </trkpt>
      <trkpt lat="47.73951" lon="3.6042">
        <ele>155</ele>
        <time>2019-04-02T08:51:58Z</time>
      </trkpt>
      <trkpt lat="47.73952" lon="3.60423">
        <ele>155</ele>
        <time>2019-04-02T08:52:00Z</time>
      </trkpt>
      <trkpt lat="47.73954" lon="3.6043">
        <ele>155</ele>
        <time>2019-04-02T08:52:05Z</time>
      </trkpt>
      <trkpt lat="47.73955" lon="3.60438">
        <ele>155</ele>
        <time>2019-04-02T08:52:09Z</time>
      </trkpt>
      <trkpt lat="47.73955" lon="3.60442">
        <ele>154</ele>
        <time>2019-04-02T08:52:11Z</time>
      </trkpt>
      <trkpt lat="47.73956" lon="3.60445">
        <ele>154</ele>
        <time>2019-04-02T08:52:13Z</time>
      </trkpt>
      <trkpt lat="47.73958" lon="3.60452">
        <ele>154</ele>
        <time>2019-04-02T08:52:16Z</time>
      </trkpt>
      <trkpt lat="47.73961" lon="3.60458">
        <ele>154</ele>
        <time>2019-04-02T08:52:20Z</time>
      </trkpt>
      <trkpt lat="47.73963" lon="3.60467">
        <ele>154</ele>
        <time>2019-04-02T08:52:24Z</time>
      </trkpt>
      <trkpt lat="47.73964" lon="3.60472">
        <ele>154</ele>
        <time>2019-04-02T08:52:27Z</time>
      </trkpt>
      <trkpt lat="47.73959" lon="3.60477">
        <ele>154</ele>
        <time>2019-04-02T08:52:32Z</time>
      </trkpt>
      <trkpt lat="47.73954" lon="3.60478">
        <ele>155</ele>
        <time>2019-04-02T08:52:37Z</time>
      </trkpt>
      <trkpt lat="47.73949" lon="3.60481">
        <ele>156</ele>
        <time>2019-04-02T08:52:42Z</time>
      </trkpt>
      <trkpt lat="47.73947" lon="3.60482">
        <ele>156</ele>
        <time>2019-04-02T08:52:44Z</time>
      </trkpt>
      <trkpt lat="47.73943" lon="3.60485">
        <ele>156</ele>
        <time>2019-04-02T08:52:46Z</time>
      </trkpt>
      <trkpt lat="47.73941" lon="3.60487">
        <ele>155</ele>
        <time>2019-04-02T08:52:48Z</time>
      </trkpt>
      <trkpt lat="47.73934" lon="3.6049">
        <ele>156</ele>
        <time>2019-04-02T08:52:53Z</time>
      </trkpt>
      <trkpt lat="47.73931" lon="3.60492">
        <ele>156</ele>
        <time>2019-04-02T08:52:56Z</time>
      </trkpt>
      <trkpt lat="47.73928" lon="3.60494">
        <ele>156</ele>
        <time>2019-04-02T08:52:58Z</time>
      </trkpt>
      <trkpt lat="47.73925" lon="3.60495">
        <ele>155</ele>
        <time>2019-04-02T08:53:00Z</time>
      </trkpt>
      <trkpt lat="47.73921" lon="3.60497">
        <ele>155</ele>
        <time>2019-04-02T08:53:03Z</time>
      </trkpt>
      <trkpt lat="47.73916" lon="3.605">
        <ele>155</ele>
        <time>2019-04-02T08:53:07Z</time>
      </trkpt>
      <trkpt lat="47.73913" lon="3.60502">
        <ele>155</ele>
        <time>2019-04-02T08:53:09Z</time>
      </trkpt>
      <trkpt lat="47.73908" lon="3.60504">
        <ele>155</ele>
        <time>2019-04-02T08:53:13Z</time>
      </trkpt>
      <trkpt lat="47.73904" lon="3.60505">
        <ele>154</ele>
        <time>2019-04-02T08:53:16Z</time>
      </trkpt>
      <trkpt lat="47.73902" lon="3.60506">
        <ele>155</ele>
        <time>2019-04-02T08:53:18Z</time>
      </trkpt>
      <trkpt lat="47.739" lon="3.60507">
        <ele>155</ele>
        <time>2019-04-02T08:53:20Z</time>
      </trkpt>
      <trkpt lat="47.73894" lon="3.60508">
        <ele>155</ele>
        <time>2019-04-02T08:53:25Z</time>
      </trkpt>
      <trkpt lat="47.73887" lon="3.60512">
        <ele>156</ele>
        <time>2019-04-02T08:53:32Z</time>
      </trkpt>
      <trkpt lat="47.73884" lon="3.60513">
        <ele>156</ele>
        <time>2019-04-02T08:53:34Z</time>
      </trkpt>
      <trkpt lat="47.73879" lon="3.60516">
        <ele>156</ele>
        <time>2019-04-02T08:53:38Z</time>
      </trkpt>
      <trkpt lat="47.73877" lon="3.60518">
        <ele>156</ele>
        <time>2019-04-02T08:53:40Z</time>
      </trkpt>
      <trkpt lat="47.7387" lon="3.60521">
        <ele>155</ele>
        <time>2019-04-02T08:53:45Z</time>
      </trkpt>
      <trkpt lat="47.73865" lon="3.60524">
        <ele>155</ele>
        <time>2019-04-02T08:53:50Z</time>
      </trkpt>
      <trkpt lat="47.7386" lon="3.60525">
        <ele>153</ele>
        <time>2019-04-02T08:53:54Z</time>
      </trkpt>
      <trkpt lat="47.73855" lon="3.60528">
        <ele>153</ele>
        <time>2019-04-02T08:53:58Z</time>
      </trkpt>
      <trkpt lat="47.73852" lon="3.60529">
        <ele>153</ele>
        <time>2019-04-02T08:54:00Z</time>
      </trkpt>
      <trkpt lat="47.73849" lon="3.6053">
        <ele>154</ele>
        <time>2019-04-02T08:54:02Z</time>
      </trkpt>
      <trkpt lat="47.73846" lon="3.60533">
        <ele>154</ele>
        <time>2019-04-02T08:54:05Z</time>
      </trkpt>
      <trkpt lat="47.73843" lon="3.60539">
        <ele>156</ele>
        <time>2019-04-02T08:54:09Z</time>
      </trkpt>
      <trkpt lat="47.73844" lon="3.60547">
        <ele>155</ele>
        <time>2019-04-02T08:54:13Z</time>
      </trkpt>
      <trkpt lat="47.73844" lon="3.60551">
        <ele>154</ele>
        <time>2019-04-02T08:54:15Z</time>
      </trkpt>
      <trkpt lat="47.73845" lon="3.60555">
        <ele>155</ele>
        <time>2019-04-02T08:54:17Z</time>
      </trkpt>
      <trkpt lat="47.73845" lon="3.60558">
        <ele>154</ele>
        <time>2019-04-02T08:54:19Z</time>
      </trkpt>
      <trkpt lat="47.73848" lon="3.60565">
        <ele>154</ele>
        <time>2019-04-02T08:54:23Z</time>
      </trkpt>
      <trkpt lat="47.7385" lon="3.60568">
        <ele>154</ele>
        <time>2019-04-02T08:54:25Z</time>
      </trkpt>
      <trkpt lat="47.73848" lon="3.60572">
        <ele>154</ele>
        <time>2019-04-02T08:54:33Z</time>
      </trkpt>
      <trkpt lat="47.73843" lon="3.60578">
        <ele>156</ele>
        <time>2019-04-02T08:55:05Z</time>
      </trkpt>
      <trkpt lat="47.73841" lon="3.60585">
        <ele>156</ele>
        <time>2019-04-02T08:55:10Z</time>
      </trkpt>
      <trkpt lat="47.73839" lon="3.60589">
        <ele>155</ele>
        <time>2019-04-02T08:55:13Z</time>
      </trkpt>
      <trkpt lat="47.73835" lon="3.60593">
        <ele>155</ele>
        <time>2019-04-02T08:55:20Z</time>
      </trkpt>
      <trkpt lat="47.7383" lon="3.60595">
        <ele>156</ele>
        <time>2019-04-02T08:55:26Z</time>
      </trkpt>
      <trkpt lat="47.73826" lon="3.60599">
        <ele>156</ele>
        <time>2019-04-02T08:55:31Z</time>
      </trkpt>
      <trkpt lat="47.73821" lon="3.60602">
        <ele>155</ele>
        <time>2019-04-02T08:55:35Z</time>
      </trkpt>
      <trkpt lat="47.73816" lon="3.60603">
        <ele>156</ele>
        <time>2019-04-02T08:55:37Z</time>
      </trkpt>
      <trkpt lat="47.73813" lon="3.60604">
        <ele>156</ele>
        <time>2019-04-02T08:55:40Z</time>
      </trkpt>
      <trkpt lat="47.73811" lon="3.60604">
        <ele>156</ele>
        <time>2019-04-02T08:55:42Z</time>
      </trkpt>
      <trkpt lat="47.73808" lon="3.60605">
        <ele>157</ele>
        <time>2019-04-02T08:55:44Z</time>
      </trkpt>
      <trkpt lat="47.73805" lon="3.60605">
        <ele>157</ele>
        <time>2019-04-02T08:55:46Z</time>
      </trkpt>
      <trkpt lat="47.73803" lon="3.60605">
        <ele>157</ele>
        <time>2019-04-02T08:55:48Z</time>
      </trkpt>
      <trkpt lat="47.73798" lon="3.60605">
        <ele>158</ele>
        <time>2019-04-02T08:55:51Z</time>
      </trkpt>
      <trkpt lat="47.73794" lon="3.60605">
        <ele>158</ele>
        <time>2019-04-02T08:55:54Z</time>
      </trkpt>
      <trkpt lat="47.7379" lon="3.60605">
        <ele>158</ele>
        <time>2019-04-02T08:55:56Z</time>
      </trkpt>
      <trkpt lat="47.73786" lon="3.60604">
        <ele>158</ele>
        <time>2019-04-02T08:55:59Z</time>
      </trkpt>
      <trkpt lat="47.73781" lon="3.60605">
        <ele>158</ele>
        <time>2019-04-02T08:56:03Z</time>
      </trkpt>
      <trkpt lat="47.73776" lon="3.60605">
        <ele>159</ele>
        <time>2019-04-02T08:56:07Z</time>
      </trkpt>
      <trkpt lat="47.73771" lon="3.60604">
        <ele>158</ele>
        <time>2019-04-02T08:56:11Z</time>
      </trkpt>
      <trkpt lat="47.73768" lon="3.60603">
        <ele>159</ele>
        <time>2019-04-02T08:56:13Z</time>
      </trkpt>
      <trkpt lat="47.73763" lon="3.60604">
        <ele>159</ele>
        <time>2019-04-02T08:56:17Z</time>
      </trkpt>
      <trkpt lat="47.7376" lon="3.60604">
        <ele>160</ele>
        <time>2019-04-02T08:56:19Z</time>
      </trkpt>
      <trkpt lat="47.73755" lon="3.60604">
        <ele>159</ele>
        <time>2019-04-02T08:56:23Z</time>
      </trkpt>
      <trkpt lat="47.7375" lon="3.60603">
        <ele>159</ele>
        <time>2019-04-02T08:56:27Z</time>
      </trkpt>
      <trkpt lat="47.73746" lon="3.60603">
        <ele>160</ele>
        <time>2019-04-02T08:56:30Z</time>
      </trkpt>
      <trkpt lat="47.7374" lon="3.60602">
        <ele>160</ele>
        <time>2019-04-02T08:56:35Z</time>
      </trkpt>
      <trkpt lat="47.73733" lon="3.60604">
        <ele>160</ele>
        <time>2019-04-02T08:56:40Z</time>
      </trkpt>
      <trkpt lat="47.7373" lon="3.60609">
        <ele>159</ele>
        <time>2019-04-02T08:56:43Z</time>
      </trkpt>
      <trkpt lat="47.73729" lon="3.60619">
        <ele>159</ele>
        <time>2019-04-02T08:56:47Z</time>
      </trkpt>
      <trkpt lat="47.73728" lon="3.60622">
        <ele>159</ele>
        <time>2019-04-02T08:56:49Z</time>
      </trkpt>
      <trkpt lat="47.73728" lon="3.60626">
        <ele>159</ele>
        <time>2019-04-02T08:56:51Z</time>
      </trkpt>
      <trkpt lat="47.73728" lon="3.60634">
        <ele>159</ele>
        <time>2019-04-02T08:56:55Z</time>
      </trkpt>
      <trkpt lat="47.73728" lon="3.60641">
        <ele>159</ele>
        <time>2019-04-02T08:56:59Z</time>
      </trkpt>
      <trkpt lat="47.73729" lon="3.60645">
        <ele>159</ele>
        <time>2019-04-02T08:57:01Z</time>
      </trkpt>
      <trkpt lat="47.73729" lon="3.60652">
        <ele>160</ele>
        <time>2019-04-02T08:57:05Z</time>
      </trkpt>
      <trkpt lat="47.73732" lon="3.60663">
        <ele>160</ele>
        <time>2019-04-02T08:57:12Z</time>
      </trkpt>
      <trkpt lat="47.73733" lon="3.6067">
        <ele>161</ele>
        <time>2019-04-02T08:57:16Z</time>
      </trkpt>
      <trkpt lat="47.73734" lon="3.60679">
        <ele>162</ele>
        <time>2019-04-02T08:57:20Z</time>
      </trkpt>
      <trkpt lat="47.73734" lon="3.60686">
        <ele>161</ele>
        <time>2019-04-02T08:57:23Z</time>
      </trkpt>
      <trkpt lat="47.73737" lon="3.60698">
        <ele>161</ele>
        <time>2019-04-02T08:57:29Z</time>
      </trkpt>
      <trkpt lat="47.73738" lon="3.60704">
        <ele>161</ele>
        <time>2019-04-02T08:57:32Z</time>
      </trkpt>
      <trkpt lat="47.73739" lon="3.60713">
        <ele>162</ele>
        <time>2019-04-02T08:57:36Z</time>
      </trkpt>
      <trkpt lat="47.7374" lon="3.60718">
        <ele>161</ele>
        <time>2019-04-02T08:57:38Z</time>
      </trkpt>
      <trkpt lat="47.7374" lon="3.60722">
        <ele>162</ele>
        <time>2019-04-02T08:57:40Z</time>
      </trkpt>
      <trkpt lat="47.73741" lon="3.60726">
        <ele>161</ele>
        <time>2019-04-02T08:57:42Z</time>
      </trkpt>
      <trkpt lat="47.73742" lon="3.60733">
        <ele>161</ele>
        <time>2019-04-02T08:57:45Z</time>
      </trkpt>
      <trkpt lat="47.73743" lon="3.60737">
        <ele>161</ele>
        <time>2019-04-02T08:57:47Z</time>
      </trkpt>
      <trkpt lat="47.73743" lon="3.60741">
        <ele>162</ele>
        <time>2019-04-02T08:57:49Z</time>
      </trkpt>
      <trkpt lat="47.73745" lon="3.60748">
        <ele>162</ele>
        <time>2019-04-02T08:57:53Z</time>
      </trkpt>
      <trkpt lat="47.73745" lon="3.60754">
        <ele>162</ele>
        <time>2019-04-02T08:57:58Z</time>
      </trkpt>
      <trkpt lat="47.73744" lon="3.60763">
        <ele>160</ele>
        <time>2019-04-02T08:58:03Z</time>
      </trkpt>
      <trkpt lat="47.73744" lon="3.60767">
        <ele>161</ele>
        <time>2019-04-02T08:58:05Z</time>
      </trkpt>
      <trkpt lat="47.73744" lon="3.60774">
        <ele>161</ele>
        <time>2019-04-02T08:58:08Z</time>
      </trkpt>
      <trkpt lat="47.73744" lon="3.60779">
        <ele>163</ele>
        <time>2019-04-02T08:58:11Z</time>
      </trkpt>
      <trkpt lat="47.73744" lon="3.60784">
        <ele>163</ele>
        <time>2019-04-02T08:58:13Z</time>
      </trkpt>
      <trkpt lat="47.73744" lon="3.60788">
        <ele>163</ele>
        <time>2019-04-02T08:58:15Z</time>
      </trkpt>
      <trkpt lat="47.73745" lon="3.60792">
        <ele>164</ele>
        <time>2019-04-02T08:58:17Z</time>
      </trkpt>
      <trkpt lat="47.73745" lon="3.60795">
        <ele>164</ele>
        <time>2019-04-02T08:58:19Z</time>
      </trkpt>
      <trkpt lat="47.73745" lon="3.60803">
        <ele>164</ele>
        <time>2019-04-02T08:58:24Z</time>
      </trkpt>
      <trkpt lat="47.73745" lon="3.60812">
        <ele>165</ele>
        <time>2019-04-02T08:58:28Z</time>
      </trkpt>
      <trkpt lat="47.73745" lon="3.60816">
        <ele>164</ele>
        <time>2019-04-02T08:58:30Z</time>
      </trkpt>
      <trkpt lat="47.73746" lon="3.60824">
        <ele>165</ele>
        <time>2019-04-02T08:58:34Z</time>
      </trkpt>
      <trkpt lat="47.73746" lon="3.60832">
        <ele>164</ele>
        <time>2019-04-02T08:58:38Z</time>
      </trkpt>
      <trkpt lat="47.73746" lon="3.60835">
        <ele>164</ele>
        <time>2019-04-02T08:58:40Z</time>
      </trkpt>
      <trkpt lat="47.73746" lon="3.60843">
        <ele>164</ele>
        <time>2019-04-02T08:58:44Z</time>
      </trkpt>
      <trkpt lat="47.73745" lon="3.6085">
        <ele>164</ele>
        <time>2019-04-02T08:58:48Z</time>
      </trkpt>
      <trkpt lat="47.73745" lon="3.60855">
        <ele>165</ele>
        <time>2019-04-02T08:58:51Z</time>
      </trkpt>
      <trkpt lat="47.73745" lon="3.60862">
        <ele>166</ele>
        <time>2019-04-02T08:58:55Z</time>
      </trkpt>
      <trkpt lat="47.73745" lon="3.60869">
        <ele>167</ele>
        <time>2019-04-02T08:58:59Z</time>
      </trkpt>
      <trkpt lat="47.73745" lon="3.60875">
        <ele>169</ele>
        <time>2019-04-02T08:59:04Z</time>
      </trkpt>
      <trkpt lat="47.73745" lon="3.60882">
        <ele>170</ele>
        <time>2019-04-02T08:59:08Z</time>
      </trkpt>
      <trkpt lat="47.73745" lon="3.60889">
        <ele>169</ele>
        <time>2019-04-02T08:59:12Z</time>
      </trkpt>
      <trkpt lat="47.73745" lon="3.60897">
        <ele>168</ele>
        <time>2019-04-02T08:59:16Z</time>
      </trkpt>
      <trkpt lat="47.73745" lon="3.60902">
        <ele>167</ele>
        <time>2019-04-02T08:59:18Z</time>
      </trkpt>
      <trkpt lat="47.73744" lon="3.60908">
        <ele>168</ele>
        <time>2019-04-02T08:59:21Z</time>
      </trkpt>
      <trkpt lat="47.73744" lon="3.60914">
        <ele>170</ele>
        <time>2019-04-02T08:59:24Z</time>
      </trkpt>
      <trkpt lat="47.73744" lon="3.60922">
        <ele>169</ele>
        <time>2019-04-02T08:59:28Z</time>
      </trkpt>
      <trkpt lat="47.73743" lon="3.60928">
        <ele>170</ele>
        <time>2019-04-02T08:59:31Z</time>
      </trkpt>
      <trkpt lat="47.73743" lon="3.60933">
        <ele>170</ele>
        <time>2019-04-02T08:59:34Z</time>
      </trkpt>
      <trkpt lat="47.73742" lon="3.6094">
        <ele>171</ele>
        <time>2019-04-02T08:59:38Z</time>
      </trkpt>
      <trkpt lat="47.73741" lon="3.60943">
        <ele>171</ele>
        <time>2019-04-02T08:59:40Z</time>
      </trkpt>
      <trkpt lat="47.73741" lon="3.60948">
        <ele>171</ele>
        <time>2019-04-02T08:59:43Z</time>
      </trkpt>
      <trkpt lat="47.7374" lon="3.60954">
        <ele>172</ele>
        <time>2019-04-02T08:59:47Z</time>
      </trkpt>
      <trkpt lat="47.73739" lon="3.60961">
        <ele>173</ele>
        <time>2019-04-02T08:59:51Z</time>
      </trkpt>
      <trkpt lat="47.7374" lon="3.60968">
        <ele>174</ele>
        <time>2019-04-02T08:59:55Z</time>
      </trkpt>
      <trkpt lat="47.7374" lon="3.60976">
        <ele>175</ele>
        <time>2019-04-02T08:59:59Z</time>
      </trkpt>
      <trkpt lat="47.7374" lon="3.60981">
        <ele>176</ele>
        <time>2019-04-02T09:00:02Z</time>
      </trkpt>
      <trkpt lat="47.7374" lon="3.60984">
        <ele>176</ele>
        <time>2019-04-02T09:00:04Z</time>
      </trkpt>
      <trkpt lat="47.7374" lon="3.60989">
        <ele>176</ele>
        <time>2019-04-02T09:00:06Z</time>
      </trkpt>
      <trkpt lat="47.7374" lon="3.60993">
        <ele>176</ele>
        <time>2019-04-02T09:00:08Z</time>
      </trkpt>
      <trkpt lat="47.73739" lon="3.60996">
        <ele>177</ele>
        <time>2019-04-02T09:00:10Z</time>
      </trkpt>
      <trkpt lat="47.7374" lon="3.61003">
        <ele>177</ele>
        <time>2019-04-02T09:00:13Z</time>
      </trkpt>
      <trkpt lat="47.73739" lon="3.61007">
        <ele>178</ele>
        <time>2019-04-02T09:00:15Z</time>
      </trkpt>
      <trkpt lat="47.7374" lon="3.61011">
        <ele>178</ele>
        <time>2019-04-02T09:00:17Z</time>
      </trkpt>
      <trkpt lat="47.7374" lon="3.61015">
        <ele>178</ele>
        <time>2019-04-02T09:00:19Z</time>
      </trkpt>
      <trkpt lat="47.73738" lon="3.61022">
        <ele>179</ele>
        <time>2019-04-02T09:00:23Z</time>
      </trkpt>
      <trkpt lat="47.73738" lon="3.61029">
        <ele>179</ele>
        <time>2019-04-02T09:00:27Z</time>
      </trkpt>
      <trkpt lat="47.73737" lon="3.61033">
        <ele>179</ele>
        <time>2019-04-02T09:00:29Z</time>
      </trkpt>
      <trkpt lat="47.73737" lon="3.6104">
        <ele>180</ele>
        <time>2019-04-02T09:00:33Z</time>
      </trkpt>
      <trkpt lat="47.73736" lon="3.61048">
        <ele>181</ele>
        <time>2019-04-02T09:00:37Z</time>
      </trkpt>
      <trkpt lat="47.73736" lon="3.61053">
        <ele>181</ele>
        <time>2019-04-02T09:00:39Z</time>
      </trkpt>
      <trkpt lat="47.73736" lon="3.61059">
        <ele>182</ele>
        <time>2019-04-02T09:00:43Z</time>
      </trkpt>
      <trkpt lat="47.73735" lon="3.61067">
        <ele>183</ele>
        <time>2019-04-02T09:00:47Z</time>
      </trkpt>
      <trkpt lat="47.73734" lon="3.61072">
        <ele>182</ele>
        <time>2019-04-02T09:00:50Z</time>
      </trkpt>
      <trkpt lat="47.73734" lon="3.6108">
        <ele>184</ele>
        <time>2019-04-02T09:00:56Z</time>
      </trkpt>
      <trkpt lat="47.73733" lon="3.61086">
        <ele>184</ele>
        <time>2019-04-02T09:01:00Z</time>
      </trkpt>
      <trkpt lat="47.73733" lon="3.61091">
        <ele>184</ele>
        <time>2019-04-02T09:01:03Z</time>
      </trkpt>
      <trkpt lat="47.73732" lon="3.61099">
        <ele>184</ele>
        <time>2019-04-02T09:01:07Z</time>
      </trkpt>
      <trkpt lat="47.73732" lon="3.61102">
        <ele>184</ele>
        <time>2019-04-02T09:01:09Z</time>
      </trkpt>
      <trkpt lat="47.73732" lon="3.61106">
        <ele>184</ele>
        <time>2019-04-02T09:01:11Z</time>
      </trkpt>
      <trkpt lat="47.73731" lon="3.6111">
        <ele>184</ele>
        <time>2019-04-02T09:01:14Z</time>
      </trkpt>
      <trkpt lat="47.73727" lon="3.61115">
        <ele>184</ele>
        <time>2019-04-02T09:01:19Z</time>
      </trkpt>
      <trkpt lat="47.73723" lon="3.61118">
        <ele>185</ele>
        <time>2019-04-02T09:01:24Z</time>
      </trkpt>
      <trkpt lat="47.73718" lon="3.61119">
        <ele>186</ele>
        <time>2019-04-02T09:01:28Z</time>
      </trkpt>
      <trkpt lat="47.73715" lon="3.61119">
        <ele>186</ele>
        <time>2019-04-02T09:01:30Z</time>
      </trkpt>
      <trkpt lat="47.7371" lon="3.61117">
        <ele>186</ele>
        <time>2019-04-02T09:01:34Z</time>
      </trkpt>
      <trkpt lat="47.73706" lon="3.61116">
        <ele>186</ele>
        <time>2019-04-02T09:01:38Z</time>
      </trkpt>
      <trkpt lat="47.73701" lon="3.61117">
        <ele>187</ele>
        <time>2019-04-02T09:01:41Z</time>
      </trkpt>
      <trkpt lat="47.73699" lon="3.61118">
        <ele>188</ele>
        <time>2019-04-02T09:01:43Z</time>
      </trkpt>
      <trkpt lat="47.73694" lon="3.61121">
        <ele>187</ele>
        <time>2019-04-02T09:01:47Z</time>
      </trkpt>
      <trkpt lat="47.73689" lon="3.61126">
        <ele>187</ele>
        <time>2019-04-02T09:01:51Z</time>
      </trkpt>
      <trkpt lat="47.73686" lon="3.61132">
        <ele>187</ele>
        <time>2019-04-02T09:01:55Z</time>
      </trkpt>
      <trkpt lat="47.73684" lon="3.61141">
        <ele>187</ele>
        <time>2019-04-02T09:01:59Z</time>
      </trkpt>
      <trkpt lat="47.73684" lon="3.61147">
        <ele>187</ele>
        <time>2019-04-02T09:02:03Z</time>
      </trkpt>
      <trkpt lat="47.73683" lon="3.61155">
        <ele>188</ele>
        <time>2019-04-02T09:02:07Z</time>
      </trkpt>
      <trkpt lat="47.73683" lon="3.61159">
        <ele>188</ele>
        <time>2019-04-02T09:02:09Z</time>
      </trkpt>
      <trkpt lat="47.73682" lon="3.61163">
        <ele>189</ele>
        <time>2019-04-02T09:02:11Z</time>
      </trkpt>
      <trkpt lat="47.73682" lon="3.61168">
        <ele>190</ele>
        <time>2019-04-02T09:02:15Z</time>
      </trkpt>
      <trkpt lat="47.73681" lon="3.61172">
        <ele>190</ele>
        <time>2019-04-02T09:02:18Z</time>
      </trkpt>
      <trkpt lat="47.73681" lon="3.61175">
        <ele>191</ele>
        <time>2019-04-02T09:02:20Z</time>
      </trkpt>
      <trkpt lat="47.7368" lon="3.61183">
        <ele>191</ele>
        <time>2019-04-02T09:02:25Z</time>
      </trkpt>
      <trkpt lat="47.7368" lon="3.6119">
        <ele>191</ele>
        <time>2019-04-02T09:02:29Z</time>
      </trkpt>
      <trkpt lat="47.73678" lon="3.61197">
        <ele>192</ele>
        <time>2019-04-02T09:02:33Z</time>
      </trkpt>
      <trkpt lat="47.73678" lon="3.61202">
        <ele>193</ele>
        <time>2019-04-02T09:02:36Z</time>
      </trkpt>
      <trkpt lat="47.73677" lon="3.61206">
        <ele>192</ele>
        <time>2019-04-02T09:02:38Z</time>
      </trkpt>
      <trkpt lat="47.73677" lon="3.61211">
        <ele>193</ele>
        <time>2019-04-02T09:02:41Z</time>
      </trkpt>
      <trkpt lat="47.73676" lon="3.61216">
        <ele>194</ele>
        <time>2019-04-02T09:02:43Z</time>
      </trkpt>
      <trkpt lat="47.73676" lon="3.6122">
        <ele>194</ele>
        <time>2019-04-02T09:02:47Z</time>
      </trkpt>
      <trkpt lat="47.73676" lon="3.61228">
        <ele>195</ele>
        <time>2019-04-02T09:02:52Z</time>
      </trkpt>
      <trkpt lat="47.73676" lon="3.61233">
        <ele>194</ele>
        <time>2019-04-02T09:02:55Z</time>
      </trkpt>
      <trkpt lat="47.73676" lon="3.61241">
        <ele>195</ele>
        <time>2019-04-02T09:02:59Z</time>
      </trkpt>
      <trkpt lat="47.73674" lon="3.61248">
        <ele>196</ele>
        <time>2019-04-02T09:03:05Z</time>
      </trkpt>
      <trkpt lat="47.73674" lon="3.61255">
        <ele>197</ele>
        <time>2019-04-02T09:03:09Z</time>
      </trkpt>
      <trkpt lat="47.73674" lon="3.61262">
        <ele>198</ele>
        <time>2019-04-02T09:03:13Z</time>
      </trkpt>
      <trkpt lat="47.73673" lon="3.6127">
        <ele>199</ele>
        <time>2019-04-02T09:03:18Z</time>
      </trkpt>
      <trkpt lat="47.73672" lon="3.61276">
        <ele>200</ele>
        <time>2019-04-02T09:03:22Z</time>
      </trkpt>
      <trkpt lat="47.73671" lon="3.6128">
        <ele>201</ele>
        <time>2019-04-02T09:03:25Z</time>
      </trkpt>
      <trkpt lat="47.73671" lon="3.61288">
        <ele>202</ele>
        <time>2019-04-02T09:03:30Z</time>
      </trkpt>
      <trkpt lat="47.7367" lon="3.61293">
        <ele>202</ele>
        <time>2019-04-02T09:03:33Z</time>
      </trkpt>
      <trkpt lat="47.73669" lon="3.613">
        <ele>203</ele>
        <time>2019-04-02T09:03:37Z</time>
      </trkpt>
      <trkpt lat="47.73668" lon="3.61308">
        <ele>203</ele>
        <time>2019-04-02T09:03:42Z</time>
      </trkpt>
      <trkpt lat="47.73668" lon="3.61312">
        <ele>204</ele>
        <time>2019-04-02T09:03:44Z</time>
      </trkpt>
      <trkpt lat="47.73667" lon="3.61316">
        <ele>205</ele>
        <time>2019-04-02T09:03:47Z</time>
      </trkpt>
      <trkpt lat="47.73665" lon="3.61323">
        <ele>206</ele>
        <time>2019-04-02T09:03:52Z</time>
      </trkpt>
      <trkpt lat="47.73665" lon="3.6133">
        <ele>207</ele>
        <time>2019-04-02T09:03:57Z</time>
      </trkpt>
      <trkpt lat="47.73665" lon="3.61334">
        <ele>208</ele>
        <time>2019-04-02T09:03:59Z</time>
      </trkpt>
      <trkpt lat="47.73664" lon="3.61342">
        <ele>208</ele>
        <time>2019-04-02T09:04:04Z</time>
      </trkpt>
      <trkpt lat="47.73663" lon="3.6135">
        <ele>208</ele>
        <time>2019-04-02T09:04:09Z</time>
      </trkpt>
      <trkpt lat="47.73661" lon="3.61358">
        <ele>211</ele>
        <time>2019-04-02T09:04:16Z</time>
      </trkpt>
      <trkpt lat="47.7366" lon="3.61366">
        <ele>212</ele>
        <time>2019-04-02T09:04:21Z</time>
      </trkpt>
      <trkpt lat="47.73659" lon="3.61373">
        <ele>214</ele>
        <time>2019-04-02T09:04:25Z</time>
      </trkpt>
      <trkpt lat="47.73659" lon="3.61376">
        <ele>214</ele>
        <time>2019-04-02T09:04:27Z</time>
      </trkpt>
      <trkpt lat="47.73658" lon="3.6138">
        <ele>215</ele>
        <time>2019-04-02T09:04:29Z</time>
      </trkpt>
      <trkpt lat="47.73657" lon="3.61387">
        <ele>216</ele>
        <time>2019-04-02T09:04:33Z</time>
      </trkpt>
      <trkpt lat="47.73656" lon="3.61391">
        <ele>217</ele>
        <time>2019-04-02T09:04:35Z</time>
      </trkpt>
      <trkpt lat="47.73656" lon="3.61398">
        <ele>218</ele>
        <time>2019-04-02T09:04:38Z</time>
      </trkpt>
      <trkpt lat="47.73654" lon="3.61406">
        <ele>219</ele>
        <time>2019-04-02T09:04:42Z</time>
      </trkpt>
      <trkpt lat="47.73654" lon="3.61413">
        <ele>221</ele>
        <time>2019-04-02T09:04:48Z</time>
      </trkpt>
      <trkpt lat="47.73654" lon="3.61418">
        <ele>222</ele>
        <time>2019-04-02T09:04:51Z</time>
      </trkpt>
      <trkpt lat="47.73653" lon="3.61425">
        <ele>222</ele>
        <time>2019-04-02T09:04:55Z</time>
      </trkpt>
      <trkpt lat="47.73652" lon="3.6143">
        <ele>221</ele>
        <time>2019-04-02T09:05:05Z</time>
      </trkpt>
      <trkpt lat="47.73647" lon="3.61427">
        <ele>225</ele>
        <time>2019-04-02T09:10:32Z</time>
      </trkpt>
      <trkpt lat="47.73642" lon="3.61426">
        <ele>224</ele>
        <time>2019-04-02T09:10:37Z</time>
      </trkpt>
      <trkpt lat="47.73636" lon="3.61427">
        <ele>225</ele>
        <time>2019-04-02T09:10:41Z</time>
      </trkpt>
      <trkpt lat="47.73631" lon="3.61427">
        <ele>226</ele>
        <time>2019-04-02T09:10:45Z</time>
      </trkpt>
      <trkpt lat="47.73626" lon="3.61427">
        <ele>226</ele>
        <time>2019-04-02T09:10:49Z</time>
      </trkpt>
      <trkpt lat="47.73621" lon="3.61426">
        <ele>226</ele>
        <time>2019-04-02T09:10:53Z</time>
      </trkpt>
      <trkpt lat="47.73618" lon="3.61426">
        <ele>226</ele>
        <time>2019-04-02T09:10:55Z</time>
      </trkpt>
      <trkpt lat="47.73614" lon="3.61426">
        <ele>227</ele>
        <time>2019-04-02T09:10:59Z</time>
      </trkpt>
      <trkpt lat="47.7361" lon="3.61425">
        <ele>227</ele>
        <time>2019-04-02T09:11:02Z</time>
      </trkpt>
      <trkpt lat="47.73605" lon="3.61427">
        <ele>227</ele>
        <time>2019-04-02T09:11:06Z</time>
      </trkpt>
      <trkpt lat="47.73601" lon="3.61431">
        <ele>227</ele>
        <time>2019-04-02T09:11:10Z</time>
      </trkpt>
      <trkpt lat="47.73597" lon="3.61438">
        <ele>228</ele>
        <time>2019-04-02T09:11:15Z</time>
      </trkpt>
      <trkpt lat="47.73595" lon="3.61443">
        <ele>228</ele>
        <time>2019-04-02T09:11:18Z</time>
      </trkpt>
      <trkpt lat="47.73593" lon="3.61451">
        <ele>229</ele>
        <time>2019-04-02T09:11:22Z</time>
      </trkpt>
      <trkpt lat="47.73593" lon="3.61455">
        <ele>229</ele>
        <time>2019-04-02T09:11:24Z</time>
      </trkpt>
      <trkpt lat="47.73592" lon="3.6146">
        <ele>229</ele>
        <time>2019-04-02T09:11:27Z</time>
      </trkpt>
      <trkpt lat="47.7359" lon="3.61467">
        <ele>228</ele>
        <time>2019-04-02T09:11:31Z</time>
      </trkpt>
      <trkpt lat="47.73589" lon="3.61472">
        <ele>228</ele>
        <time>2019-04-02T09:11:34Z</time>
      </trkpt>
      <trkpt lat="47.73587" lon="3.6148">
        <ele>229</ele>
        <time>2019-04-02T09:11:39Z</time>
      </trkpt>
      <trkpt lat="47.73586" lon="3.61485">
        <ele>229</ele>
        <time>2019-04-02T09:11:42Z</time>
      </trkpt>
      <trkpt lat="47.73586" lon="3.61493">
        <ele>229</ele>
        <time>2019-04-02T09:11:46Z</time>
      </trkpt>
      <trkpt lat="47.73585" lon="3.61496">
        <ele>230</ele>
        <time>2019-04-02T09:11:48Z</time>
      </trkpt>
      <trkpt lat="47.73585" lon="3.615">
        <ele>230</ele>
        <time>2019-04-02T09:11:50Z</time>
      </trkpt>
      <trkpt lat="47.73584" lon="3.61504">
        <ele>231</ele>
        <time>2019-04-02T09:11:52Z</time>
      </trkpt>
      <trkpt lat="47.73583" lon="3.6151">
        <ele>230</ele>
        <time>2019-04-02T09:11:55Z</time>
      </trkpt>
      <trkpt lat="47.73582" lon="3.61514">
        <ele>230</ele>
        <time>2019-04-02T09:11:57Z</time>
      </trkpt>
      <trkpt lat="47.73581" lon="3.61518">
        <ele>231</ele>
        <time>2019-04-02T09:12:00Z</time>
      </trkpt>
      <trkpt lat="47.7358" lon="3.61522">
        <ele>231</ele>
        <time>2019-04-02T09:12:02Z</time>
      </trkpt>
      <trkpt lat="47.73579" lon="3.61527">
        <ele>231</ele>
        <time>2019-04-02T09:12:05Z</time>
      </trkpt>
      <trkpt lat="47.73578" lon="3.61533">
        <ele>232</ele>
        <time>2019-04-02T09:12:08Z</time>
      </trkpt>
      <trkpt lat="47.73577" lon="3.61538">
        <ele>232</ele>
        <time>2019-04-02T09:12:11Z</time>
      </trkpt>
      <trkpt lat="47.73576" lon="3.61544">
        <ele>232</ele>
        <time>2019-04-02T09:12:14Z</time>
      </trkpt>
      <trkpt lat="47.73576" lon="3.61548">
        <ele>232</ele>
        <time>2019-04-02T09:12:16Z</time>
      </trkpt>
      <trkpt lat="47.73575" lon="3.61553">
        <ele>233</ele>
        <time>2019-04-02T09:12:18Z</time>
      </trkpt>
      <trkpt lat="47.73574" lon="3.61557">
        <ele>232</ele>
        <time>2019-04-02T09:12:20Z</time>
      </trkpt>
      <trkpt lat="47.73573" lon="3.6156">
        <ele>233</ele>
        <time>2019-04-02T09:12:22Z</time>
      </trkpt>
      <trkpt lat="47.73573" lon="3.61564">
        <ele>233</ele>
        <time>2019-04-02T09:12:24Z</time>
      </trkpt>
      <trkpt lat="47.73572" lon="3.61568">
        <ele>233</ele>
        <time>2019-04-02T09:12:26Z</time>
      </trkpt>
      <trkpt lat="47.73571" lon="3.61571">
        <ele>233</ele>
        <time>2019-04-02T09:12:28Z</time>
      </trkpt>
      <trkpt lat="47.7357" lon="3.61577">
        <ele>232</ele>
        <time>2019-04-02T09:12:31Z</time>
      </trkpt>
      <trkpt lat="47.7357" lon="3.61581">
        <ele>233</ele>
        <time>2019-04-02T09:12:33Z</time>
      </trkpt>
      <trkpt lat="47.7357" lon="3.61584">
        <ele>233</ele>
        <time>2019-04-02T09:12:35Z</time>
      </trkpt>
      <trkpt lat="47.73569" lon="3.61589">
        <ele>233</ele>
        <time>2019-04-02T09:12:38Z</time>
      </trkpt>
      <trkpt lat="47.7357" lon="3.61598">
        <ele>233</ele>
        <time>2019-04-02T09:12:42Z</time>
      </trkpt>
      <trkpt lat="47.73573" lon="3.61604">
        <ele>233</ele>
        <time>2019-04-02T09:12:45Z</time>
      </trkpt>
      <trkpt lat="47.73578" lon="3.61611">
        <ele>233</ele>
        <time>2019-04-02T09:12:50Z</time>
      </trkpt>
      <trkpt lat="47.73584" lon="3.61615">
        <ele>233</ele>
        <time>2019-04-02T09:12:55Z</time>
      </trkpt>
      <trkpt lat="47.73589" lon="3.61617">
        <ele>232</ele>
        <time>2019-04-02T09:12:59Z</time>
      </trkpt>
      <trkpt lat="47.73592" lon="3.61622">
        <ele>233</ele>
        <time>2019-04-02T09:13:03Z</time>
      </trkpt>
      <trkpt lat="47.73593" lon="3.61629">
        <ele>233</ele>
        <time>2019-04-02T09:13:09Z</time>
      </trkpt>
      <trkpt lat="47.73592" lon="3.61638">
        <ele>233</ele>
        <time>2019-04-02T09:13:14Z</time>
      </trkpt>
      <trkpt lat="47.73591" lon="3.61643">
        <ele>233</ele>
        <time>2019-04-02T09:13:17Z</time>
      </trkpt>
      <trkpt lat="47.7359" lon="3.61651">
        <ele>234</ele>
        <time>2019-04-02T09:13:21Z</time>
      </trkpt>
      <trkpt lat="47.73587" lon="3.61658">
        <ele>234</ele>
        <time>2019-04-02T09:13:26Z</time>
      </trkpt>
      <trkpt lat="47.73586" lon="3.61661">
        <ele>234</ele>
        <time>2019-04-02T09:13:28Z</time>
      </trkpt>
      <trkpt lat="47.73585" lon="3.61665">
        <ele>235</ele>
        <time>2019-04-02T09:13:31Z</time>
      </trkpt>
      <trkpt lat="47.73584" lon="3.61668">
        <ele>235</ele>
        <time>2019-04-02T09:13:33Z</time>
      </trkpt>
      <trkpt lat="47.73582" lon="3.61673">
        <ele>235</ele>
        <time>2019-04-02T09:13:36Z</time>
      </trkpt>
      <trkpt lat="47.7358" lon="3.61676">
        <ele>235</ele>
        <time>2019-04-02T09:13:38Z</time>
      </trkpt>
      <trkpt lat="47.73579" lon="3.61682">
        <ele>235</ele>
        <time>2019-04-02T09:13:41Z</time>
      </trkpt>
      <trkpt lat="47.73576" lon="3.61689">
        <ele>235</ele>
        <time>2019-04-02T09:13:45Z</time>
      </trkpt>
      <trkpt lat="47.73574" lon="3.61696">
        <ele>235</ele>
        <time>2019-04-02T09:13:49Z</time>
      </trkpt>
      <trkpt lat="47.73572" lon="3.61703">
        <ele>234</ele>
        <time>2019-04-02T09:13:53Z</time>
      </trkpt>
      <trkpt lat="47.73569" lon="3.6171">
        <ele>234</ele>
        <time>2019-04-02T09:13:58Z</time>
      </trkpt>
      <trkpt lat="47.73567" lon="3.61715">
        <ele>235</ele>
        <time>2019-04-02T09:14:01Z</time>
      </trkpt>
      <trkpt lat="47.73565" lon="3.61721">
        <ele>234</ele>
        <time>2019-04-02T09:14:04Z</time>
      </trkpt>
      <trkpt lat="47.73561" lon="3.61726">
        <ele>235</ele>
        <time>2019-04-02T09:14:08Z</time>
      </trkpt>
      <trkpt lat="47.73559" lon="3.61732">
        <ele>236</ele>
        <time>2019-04-02T09:14:12Z</time>
      </trkpt>
      <trkpt lat="47.73558" lon="3.61735">
        <ele>235</ele>
        <time>2019-04-02T09:14:14Z</time>
      </trkpt>
      <trkpt lat="47.73554" lon="3.61741">
        <ele>235</ele>
        <time>2019-04-02T09:14:19Z</time>
      </trkpt>
      <trkpt lat="47.73553" lon="3.61743">
        <ele>235</ele>
        <time>2019-04-02T09:14:21Z</time>
      </trkpt>
      <trkpt lat="47.73551" lon="3.61746">
        <ele>234</ele>
        <time>2019-04-02T09:14:23Z</time>
      </trkpt>
      <trkpt lat="47.73549" lon="3.61749">
        <ele>234</ele>
        <time>2019-04-02T09:14:25Z</time>
      </trkpt>
      <trkpt lat="47.73547" lon="3.61755">
        <ele>234</ele>
        <time>2019-04-02T09:14:29Z</time>
      </trkpt>
      <trkpt lat="47.73545" lon="3.61761">
        <ele>234</ele>
        <time>2019-04-02T09:14:32Z</time>
      </trkpt>
      <trkpt lat="47.73541" lon="3.61766">
        <ele>235</ele>
        <time>2019-04-02T09:14:36Z</time>
      </trkpt>
      <trkpt lat="47.73539" lon="3.61772">
        <ele>235</ele>
        <time>2019-04-02T09:14:40Z</time>
      </trkpt>
      <trkpt lat="47.73535" lon="3.61779">
        <ele>235</ele>
        <time>2019-04-02T09:14:45Z</time>
      </trkpt>
      <trkpt lat="47.73532" lon="3.61786">
        <ele>234</ele>
        <time>2019-04-02T09:14:49Z</time>
      </trkpt>
      <trkpt lat="47.7353" lon="3.61793">
        <ele>235</ele>
        <time>2019-04-02T09:14:53Z</time>
      </trkpt>
      <trkpt lat="47.73526" lon="3.61798">
        <ele>235</ele>
        <time>2019-04-02T09:14:57Z</time>
      </trkpt>
      <trkpt lat="47.73524" lon="3.61801">
        <ele>234</ele>
        <time>2019-04-02T09:14:59Z</time>
      </trkpt>
      <trkpt lat="47.73521" lon="3.61805">
        <ele>234</ele>
        <time>2019-04-02T09:15:02Z</time>
      </trkpt>
      <trkpt lat="47.73521" lon="3.61812">
        <ele>235</ele>
        <time>2019-04-02T09:15:07Z</time>
      </trkpt>
      <trkpt lat="47.73519" lon="3.61819">
        <ele>233</ele>
        <time>2019-04-02T09:15:12Z</time>
      </trkpt>
      <trkpt lat="47.73517" lon="3.61824">
        <ele>232</ele>
        <time>2019-04-02T09:15:15Z</time>
      </trkpt>
      <trkpt lat="47.73515" lon="3.6183">
        <ele>231</ele>
        <time>2019-04-02T09:15:19Z</time>
      </trkpt>
      <trkpt lat="47.73513" lon="3.61837">
        <ele>232</ele>
        <time>2019-04-02T09:15:23Z</time>
      </trkpt>
      <trkpt lat="47.7351" lon="3.61844">
        <ele>232</ele>
        <time>2019-04-02T09:15:28Z</time>
      </trkpt>
      <trkpt lat="47.73508" lon="3.6185">
        <ele>231</ele>
        <time>2019-04-02T09:15:32Z</time>
      </trkpt>
      <trkpt lat="47.73506" lon="3.61857">
        <ele>231</ele>
        <time>2019-04-02T09:15:36Z</time>
      </trkpt>
      <trkpt lat="47.73505" lon="3.6186">
        <ele>232</ele>
        <time>2019-04-02T09:15:38Z</time>
      </trkpt>
      <trkpt lat="47.73504" lon="3.61864">
        <ele>231</ele>
        <time>2019-04-02T09:15:40Z</time>
      </trkpt>
      <trkpt lat="47.73503" lon="3.61867">
        <ele>231</ele>
        <time>2019-04-02T09:15:42Z</time>
      </trkpt>
      <trkpt lat="47.73502" lon="3.61873">
        <ele>230</ele>
        <time>2019-04-02T09:15:46Z</time>
      </trkpt>
      <trkpt lat="47.73499" lon="3.6188">
        <ele>230</ele>
        <time>2019-04-02T09:15:50Z</time>
      </trkpt>
      <trkpt lat="47.73497" lon="3.61886">
        <ele>230</ele>
        <time>2019-04-02T09:15:54Z</time>
      </trkpt>
      <trkpt lat="47.73496" lon="3.6189">
        <ele>230</ele>
        <time>2019-04-02T09:15:56Z</time>
      </trkpt>
      <trkpt lat="47.73495" lon="3.61894">
        <ele>231</ele>
        <time>2019-04-02T09:15:58Z</time>
      </trkpt>
      <trkpt lat="47.73493" lon="3.619">
        <ele>231</ele>
        <time>2019-04-02T09:16:01Z</time>
      </trkpt>
      <trkpt lat="47.73492" lon="3.61904">
        <ele>230</ele>
        <time>2019-04-02T09:16:04Z</time>
      </trkpt>
      <trkpt lat="47.7349" lon="3.61912">
        <ele>229</ele>
        <time>2019-04-02T09:16:08Z</time>
      </trkpt>
      <trkpt lat="47.73489" lon="3.61915">
        <ele>229</ele>
        <time>2019-04-02T09:16:10Z</time>
      </trkpt>
      <trkpt lat="47.73487" lon="3.61919">
        <ele>229</ele>
        <time>2019-04-02T09:16:13Z</time>
      </trkpt>
      <trkpt lat="47.73486" lon="3.61926">
        <ele>229</ele>
        <time>2019-04-02T09:16:17Z</time>
      </trkpt>
      <trkpt lat="47.73485" lon="3.61936">
        <ele>229</ele>
        <time>2019-04-02T09:16:22Z</time>
      </trkpt>
      <trkpt lat="47.73485" lon="3.61943">
        <ele>228</ele>
        <time>2019-04-02T09:16:26Z</time>
      </trkpt>
      <trkpt lat="47.73485" lon="3.61948">
        <ele>228</ele>
        <time>2019-04-02T09:16:28Z</time>
      </trkpt>
      <trkpt lat="47.73484" lon="3.61951">
        <ele>228</ele>
        <time>2019-04-02T09:16:30Z</time>
      </trkpt>
      <trkpt lat="47.73484" lon="3.61958">
        <ele>228</ele>
        <time>2019-04-02T09:16:33Z</time>
      </trkpt>
      <trkpt lat="47.73483" lon="3.61965">
        <ele>228</ele>
        <time>2019-04-02T09:16:36Z</time>
      </trkpt>
      <trkpt lat="47.73483" lon="3.61969">
        <ele>228</ele>
        <time>2019-04-02T09:16:38Z</time>
      </trkpt>
      <trkpt lat="47.73481" lon="3.61977">
        <ele>228</ele>
        <time>2019-04-02T09:16:43Z</time>
      </trkpt>
      <trkpt lat="47.7348" lon="3.61985">
        <ele>228</ele>
        <time>2019-04-02T09:16:47Z</time>
      </trkpt>
      <trkpt lat="47.7348" lon="3.61989">
        <ele>228</ele>
        <time>2019-04-02T09:16:49Z</time>
      </trkpt>
      <trkpt lat="47.7348" lon="3.61994">
        <ele>228</ele>
        <time>2019-04-02T09:16:51Z</time>
      </trkpt>
      <trkpt lat="47.7348" lon="3.61997">
        <ele>228</ele>
        <time>2019-04-02T09:16:53Z</time>
      </trkpt>
      <trkpt lat="47.7348" lon="3.62006">
        <ele>228</ele>
        <time>2019-04-02T09:16:57Z</time>
      </trkpt>
      <trkpt lat="47.73478" lon="3.62013">
        <ele>229</ele>
        <time>2019-04-02T09:17:01Z</time>
      </trkpt>
      <trkpt lat="47.73479" lon="3.62021">
        <ele>228</ele>
        <time>2019-04-02T09:17:05Z</time>
      </trkpt>
      <trkpt lat="47.73478" lon="3.6203">
        <ele>228</ele>
        <time>2019-04-02T09:17:09Z</time>
      </trkpt>
      <trkpt lat="47.73478" lon="3.62035">
        <ele>228</ele>
        <time>2019-04-02T09:17:12Z</time>
      </trkpt>
      <trkpt lat="47.73476" lon="3.62043">
        <ele>227</ele>
        <time>2019-04-02T09:17:16Z</time>
      </trkpt>
      <trkpt lat="47.73475" lon="3.62049">
        <ele>226</ele>
        <time>2019-04-02T09:17:19Z</time>
      </trkpt>
      <trkpt lat="47.73475" lon="3.62053">
        <ele>226</ele>
        <time>2019-04-02T09:17:21Z</time>
      </trkpt>
      <trkpt lat="47.73474" lon="3.6206">
        <ele>225</ele>
        <time>2019-04-02T09:17:25Z</time>
      </trkpt>
      <trkpt lat="47.73472" lon="3.62067">
        <ele>225</ele>
        <time>2019-04-02T09:17:29Z</time>
      </trkpt>
      <trkpt lat="47.73471" lon="3.62072">
        <ele>225</ele>
        <time>2019-04-02T09:17:31Z</time>
      </trkpt>
      <trkpt lat="47.7347" lon="3.62076">
        <ele>225</ele>
        <time>2019-04-02T09:17:34Z</time>
      </trkpt>
      <trkpt lat="47.73469" lon="3.62081">
        <ele>225</ele>
        <time>2019-04-02T09:17:37Z</time>
      </trkpt>
      <trkpt lat="47.73468" lon="3.62086">
        <ele>225</ele>
        <time>2019-04-02T09:17:40Z</time>
      </trkpt>
      <trkpt lat="47.73465" lon="3.62093">
        <ele>225</ele>
        <time>2019-04-02T09:17:44Z</time>
      </trkpt>
      <trkpt lat="47.73463" lon="3.621">
        <ele>225</ele>
        <time>2019-04-02T09:17:48Z</time>
      </trkpt>
      <trkpt lat="47.73461" lon="3.62106">
        <ele>225</ele>
        <time>2019-04-02T09:17:52Z</time>
      </trkpt>
      <trkpt lat="47.73458" lon="3.62113">
        <ele>225</ele>
        <time>2019-04-02T09:17:56Z</time>
      </trkpt>
      <trkpt lat="47.73456" lon="3.6212">
        <ele>226</ele>
        <time>2019-04-02T09:18:00Z</time>
      </trkpt>
      <trkpt lat="47.73455" lon="3.62124">
        <ele>226</ele>
        <time>2019-04-02T09:18:02Z</time>
      </trkpt>
      <trkpt lat="47.73454" lon="3.62129">
        <ele>227</ele>
        <time>2019-04-02T09:18:04Z</time>
      </trkpt>
      <trkpt lat="47.73453" lon="3.62137">
        <ele>227</ele>
        <time>2019-04-02T09:18:08Z</time>
      </trkpt>
      <trkpt lat="47.73455" lon="3.62144">
        <ele>227</ele>
        <time>2019-04-02T09:18:13Z</time>
      </trkpt>
      <trkpt lat="47.73456" lon="3.62149">
        <ele>228</ele>
        <time>2019-04-02T09:18:16Z</time>
      </trkpt>
      <trkpt lat="47.73456" lon="3.62156">
        <ele>228</ele>
        <time>2019-04-02T09:18:20Z</time>
      </trkpt>
      <trkpt lat="47.73455" lon="3.62163">
        <ele>228</ele>
        <time>2019-04-02T09:18:24Z</time>
      </trkpt>
      <trkpt lat="47.73453" lon="3.6217">
        <ele>229</ele>
        <time>2019-04-02T09:18:28Z</time>
      </trkpt>
      <trkpt lat="47.7345" lon="3.62176">
        <ele>230</ele>
        <time>2019-04-02T09:18:33Z</time>
      </trkpt>
      <trkpt lat="47.73446" lon="3.62181">
        <ele>230</ele>
        <time>2019-04-02T09:18:38Z</time>
      </trkpt>
      <trkpt lat="47.73442" lon="3.62187">
        <ele>231</ele>
        <time>2019-04-02T09:18:42Z</time>
      </trkpt>
      <trkpt lat="47.73438" lon="3.62192">
        <ele>231</ele>
        <time>2019-04-02T09:18:46Z</time>
      </trkpt>
      <trkpt lat="47.73435" lon="3.62197">
        <ele>231</ele>
        <time>2019-04-02T09:18:50Z</time>
      </trkpt>
      <trkpt lat="47.73434" lon="3.622">
        <ele>232</ele>
        <time>2019-04-02T09:18:52Z</time>
      </trkpt>
      <trkpt lat="47.73429" lon="3.62206">
        <ele>231</ele>
        <time>2019-04-02T09:18:57Z</time>
      </trkpt>
      <trkpt lat="47.73426" lon="3.62211">
        <ele>232</ele>
        <time>2019-04-02T09:19:01Z</time>
      </trkpt>
      <trkpt lat="47.73422" lon="3.62216">
        <ele>233</ele>
        <time>2019-04-02T09:19:05Z</time>
      </trkpt>
      <trkpt lat="47.73419" lon="3.6222">
        <ele>234</ele>
        <time>2019-04-02T09:19:09Z</time>
      </trkpt>
      <trkpt lat="47.73417" lon="3.62223">
        <ele>234</ele>
        <time>2019-04-02T09:19:11Z</time>
      </trkpt>
      <trkpt lat="47.73414" lon="3.62227">
        <ele>234</ele>
        <time>2019-04-02T09:19:14Z</time>
      </trkpt>
      <trkpt lat="47.73412" lon="3.62229">
        <ele>235</ele>
        <time>2019-04-02T09:19:16Z</time>
      </trkpt>
      <trkpt lat="47.73409" lon="3.62234">
        <ele>235</ele>
        <time>2019-04-02T09:19:20Z</time>
      </trkpt>
      <trkpt lat="47.73406" lon="3.62239">
        <ele>235</ele>
        <time>2019-04-02T09:19:24Z</time>
      </trkpt>
      <trkpt lat="47.73402" lon="3.62245">
        <ele>235</ele>
        <time>2019-04-02T09:19:29Z</time>
      </trkpt>
      <trkpt lat="47.73398" lon="3.62249">
        <ele>235</ele>
        <time>2019-04-02T09:19:33Z</time>
      </trkpt>
      <trkpt lat="47.73394" lon="3.62255">
        <ele>236</ele>
        <time>2019-04-02T09:19:37Z</time>
      </trkpt>
      <trkpt lat="47.7339" lon="3.62259">
        <ele>237</ele>
        <time>2019-04-02T09:19:42Z</time>
      </trkpt>
      <trkpt lat="47.73388" lon="3.62262">
        <ele>237</ele>
        <time>2019-04-02T09:19:45Z</time>
      </trkpt>
      <trkpt lat="47.73385" lon="3.62265">
        <ele>237</ele>
        <time>2019-04-02T09:19:48Z</time>
      </trkpt>
      <trkpt lat="47.73381" lon="3.62271">
        <ele>238</ele>
        <time>2019-04-02T09:19:53Z</time>
      </trkpt>
      <trkpt lat="47.73379" lon="3.62273">
        <ele>238</ele>
        <time>2019-04-02T09:19:55Z</time>
      </trkpt>
      <trkpt lat="47.73376" lon="3.62279">
        <ele>238</ele>
        <time>2019-04-02T09:19:59Z</time>
      </trkpt>
      <trkpt lat="47.73374" lon="3.62282">
        <ele>238</ele>
        <time>2019-04-02T09:20:01Z</time>
      </trkpt>
      <trkpt lat="47.7337" lon="3.62285">
        <ele>239</ele>
        <time>2019-04-02T09:20:05Z</time>
      </trkpt>
      <trkpt lat="47.73367" lon="3.62291">
        <ele>240</ele>
        <time>2019-04-02T09:20:09Z</time>
      </trkpt>
      <trkpt lat="47.73363" lon="3.62297">
        <ele>240</ele>
        <time>2019-04-02T09:20:14Z</time>
      </trkpt>
      <trkpt lat="47.73361" lon="3.62299">
        <ele>241</ele>
        <time>2019-04-02T09:20:16Z</time>
      </trkpt>
      <trkpt lat="47.73357" lon="3.62303">
        <ele>242</ele>
        <time>2019-04-02T09:20:21Z</time>
      </trkpt>
      <trkpt lat="47.73353" lon="3.62309">
        <ele>241</ele>
        <time>2019-04-02T09:20:26Z</time>
      </trkpt>
      <trkpt lat="47.73348" lon="3.62313">
        <ele>242</ele>
        <time>2019-04-02T09:20:31Z</time>
      </trkpt>
      <trkpt lat="47.73344" lon="3.62318">
        <ele>243</ele>
        <time>2019-04-02T09:20:36Z</time>
      </trkpt>
      <trkpt lat="47.73341" lon="3.62322">
        <ele>243</ele>
        <time>2019-04-02T09:20:40Z</time>
      </trkpt>
      <trkpt lat="47.73337" lon="3.62326">
        <ele>244</ele>
        <time>2019-04-02T09:20:44Z</time>
      </trkpt>
      <trkpt lat="47.73335" lon="3.6233">
        <ele>244</ele>
        <time>2019-04-02T09:20:48Z</time>
      </trkpt>
      <trkpt lat="47.73335" lon="3.6233">
        <ele>244</ele>
        <time>2019-04-02T09:20:56Z</time>
      </trkpt>
      <trkpt lat="47.73335" lon="3.6233">
        <ele>244</ele>
        <time>2019-04-02T09:20:58Z</time>
      </trkpt>
      <trkpt lat="47.73329" lon="3.62333">
        <ele>248</ele>
        <time>2019-04-02T09:21:39Z</time>
      </trkpt>
      <trkpt lat="47.73325" lon="3.62335">
        <ele>249</ele>
        <time>2019-04-02T09:21:42Z</time>
      </trkpt>
      <trkpt lat="47.7332" lon="3.62339">
        <ele>249</ele>
        <time>2019-04-02T09:21:46Z</time>
      </trkpt>
      <trkpt lat="47.73317" lon="3.62346">
        <ele>250</ele>
        <time>2019-04-02T09:21:51Z</time>
      </trkpt>
      <trkpt lat="47.73312" lon="3.62353">
        <ele>250</ele>
        <time>2019-04-02T09:21:56Z</time>
      </trkpt>
      <trkpt lat="47.73308" lon="3.62358">
        <ele>251</ele>
        <time>2019-04-02T09:22:00Z</time>
      </trkpt>
      <trkpt lat="47.73306" lon="3.62362">
        <ele>252</ele>
        <time>2019-04-02T09:22:03Z</time>
      </trkpt>
      <trkpt lat="47.73302" lon="3.62367">
        <ele>253</ele>
        <time>2019-04-02T09:22:08Z</time>
      </trkpt>
      <trkpt lat="47.73299" lon="3.62369">
        <ele>253</ele>
        <time>2019-04-02T09:22:11Z</time>
      </trkpt>
      <trkpt lat="47.73295" lon="3.62376">
        <ele>254</ele>
        <time>2019-04-02T09:22:15Z</time>
      </trkpt>
      <trkpt lat="47.73293" lon="3.62379">
        <ele>254</ele>
        <time>2019-04-02T09:22:18Z</time>
      </trkpt>
      <trkpt lat="47.73291" lon="3.62382">
        <ele>254</ele>
        <time>2019-04-02T09:22:20Z</time>
      </trkpt>
      <trkpt lat="47.73287" lon="3.62388">
        <ele>255</ele>
        <time>2019-04-02T09:22:25Z</time>
      </trkpt>
      <trkpt lat="47.73285" lon="3.62391">
        <ele>256</ele>
        <time>2019-04-02T09:22:27Z</time>
      </trkpt>
      <trkpt lat="47.73282" lon="3.62397">
        <ele>256</ele>
        <time>2019-04-02T09:22:31Z</time>
      </trkpt>
      <trkpt lat="47.73277" lon="3.62401">
        <ele>257</ele>
        <time>2019-04-02T09:22:36Z</time>
      </trkpt>
      <trkpt lat="47.73274" lon="3.62406">
        <ele>257</ele>
        <time>2019-04-02T09:22:40Z</time>
      </trkpt>
      <trkpt lat="47.73271" lon="3.62409">
        <ele>257</ele>
        <time>2019-04-02T09:22:43Z</time>
      </trkpt>
      <trkpt lat="47.73269" lon="3.62411">
        <ele>257</ele>
        <time>2019-04-02T09:22:45Z</time>
      </trkpt>
      <trkpt lat="47.73267" lon="3.62414">
        <ele>257</ele>
        <time>2019-04-02T09:22:47Z</time>
      </trkpt>
      <trkpt lat="47.73264" lon="3.62419">
        <ele>258</ele>
        <time>2019-04-02T09:22:51Z</time>
      </trkpt>
      <trkpt lat="47.73261" lon="3.62422">
        <ele>258</ele>
        <time>2019-04-02T09:22:53Z</time>
      </trkpt>
      <trkpt lat="47.7326" lon="3.62424">
        <ele>258</ele>
        <time>2019-04-02T09:22:55Z</time>
      </trkpt>
      <trkpt lat="47.73256" lon="3.6243">
        <ele>259</ele>
        <time>2019-04-02T09:23:00Z</time>
      </trkpt>
      <trkpt lat="47.73252" lon="3.62434">
        <ele>260</ele>
        <time>2019-04-02T09:23:04Z</time>
      </trkpt>
      <trkpt lat="47.73248" lon="3.6244">
        <ele>261</ele>
        <time>2019-04-02T09:23:09Z</time>
      </trkpt>
      <trkpt lat="47.73244" lon="3.62446">
        <ele>262</ele>
        <time>2019-04-02T09:23:14Z</time>
      </trkpt>
      <trkpt lat="47.73241" lon="3.62451">
        <ele>261</ele>
        <time>2019-04-02T09:23:18Z</time>
      </trkpt>
      <trkpt lat="47.73238" lon="3.62455">
        <ele>262</ele>
        <time>2019-04-02T09:23:21Z</time>
      </trkpt>
      <trkpt lat="47.73234" lon="3.62461">
        <ele>263</ele>
        <time>2019-04-02T09:23:25Z</time>
      </trkpt>
      <trkpt lat="47.73231" lon="3.62465">
        <ele>262</ele>
        <time>2019-04-02T09:23:30Z</time>
      </trkpt>
      <trkpt lat="47.73227" lon="3.6247">
        <ele>263</ele>
        <time>2019-04-02T09:23:34Z</time>
      </trkpt>
      <trkpt lat="47.73225" lon="3.62473">
        <ele>263</ele>
        <time>2019-04-02T09:23:36Z</time>
      </trkpt>
      <trkpt lat="47.73221" lon="3.62478">
        <ele>264</ele>
        <time>2019-04-02T09:23:40Z</time>
      </trkpt>
      <trkpt lat="47.73218" lon="3.62483">
        <ele>264</ele>
        <time>2019-04-02T09:23:44Z</time>
      </trkpt>
      <trkpt lat="47.73213" lon="3.62488">
        <ele>265</ele>
        <time>2019-04-02T09:23:49Z</time>
      </trkpt>
      <trkpt lat="47.73211" lon="3.62491">
        <ele>265</ele>
        <time>2019-04-02T09:23:52Z</time>
      </trkpt>
      <trkpt lat="47.73207" lon="3.62496">
        <ele>265</ele>
        <time>2019-04-02T09:23:56Z</time>
      </trkpt>
      <trkpt lat="47.73203" lon="3.62502">
        <ele>266</ele>
        <time>2019-04-02T09:24:01Z</time>
      </trkpt>
      <trkpt lat="47.73198" lon="3.62506">
        <ele>266</ele>
        <time>2019-04-02T09:24:06Z</time>
      </trkpt>
      <trkpt lat="47.73196" lon="3.62508">
        <ele>266</ele>
        <time>2019-04-02T09:24:08Z</time>
      </trkpt>
      <trkpt lat="47.73192" lon="3.62512">
        <ele>266</ele>
        <time>2019-04-02T09:24:12Z</time>
      </trkpt>
      <trkpt lat="47.73189" lon="3.62519">
        <ele>268</ele>
        <time>2019-04-02T09:24:16Z</time>
      </trkpt>
      <trkpt lat="47.73189" lon="3.62521">
        <ele>269</ele>
        <time>2019-04-02T09:24:24Z</time>
      </trkpt>
      <trkpt lat="47.73185" lon="3.62517">
        <ele>269</ele>
        <time>2019-04-02T09:24:45Z</time>
      </trkpt>
      <trkpt lat="47.7318" lon="3.62513">
        <ele>269</ele>
        <time>2019-04-02T09:24:50Z</time>
      </trkpt>
      <trkpt lat="47.73178" lon="3.62512">
        <ele>269</ele>
        <time>2019-04-02T09:24:52Z</time>
      </trkpt>
      <trkpt lat="47.73174" lon="3.62509">
        <ele>269</ele>
        <time>2019-04-02T09:24:55Z</time>
      </trkpt>
      <trkpt lat="47.73168" lon="3.62508">
        <ele>270</ele>
        <time>2019-04-02T09:24:59Z</time>
      </trkpt>
      <trkpt lat="47.73163" lon="3.62504">
        <ele>270</ele>
        <time>2019-04-02T09:25:03Z</time>
      </trkpt>
      <trkpt lat="47.7316" lon="3.62502">
        <ele>270</ele>
        <time>2019-04-02T09:25:06Z</time>
      </trkpt>
      <trkpt lat="47.73158" lon="3.625">
        <ele>270</ele>
        <time>2019-04-02T09:25:08Z</time>
      </trkpt>
      <trkpt lat="47.73155" lon="3.62496">
        <ele>271</ele>
        <time>2019-04-02T09:25:12Z</time>
      </trkpt>
      <trkpt lat="47.73154" lon="3.62497">
        <ele>271</ele>
        <time>2019-04-02T09:25:20Z</time>
      </trkpt>
      <trkpt lat="47.73149" lon="3.62493">
        <ele>271</ele>
        <time>2019-04-02T09:28:10Z</time>
      </trkpt>
      <trkpt lat="47.73144" lon="3.62488">
        <ele>270</ele>
        <time>2019-04-02T09:28:16Z</time>
      </trkpt>
      <trkpt lat="47.73141" lon="3.62486">
        <ele>270</ele>
        <time>2019-04-02T09:28:19Z</time>
      </trkpt>
      <trkpt lat="47.73136" lon="3.62483">
        <ele>270</ele>
        <time>2019-04-02T09:28:23Z</time>
      </trkpt>
      <trkpt lat="47.73132" lon="3.6248">
        <ele>270</ele>
        <time>2019-04-02T09:28:27Z</time>
      </trkpt>
      <trkpt lat="47.73126" lon="3.62476">
        <ele>269</ele>
        <time>2019-04-02T09:28:32Z</time>
      </trkpt>
      <trkpt lat="47.73121" lon="3.62473">
        <ele>269</ele>
        <time>2019-04-02T09:28:36Z</time>
      </trkpt>
      <trkpt lat="47.73116" lon="3.6247">
        <ele>270</ele>
        <time>2019-04-02T09:28:40Z</time>
      </trkpt>
      <trkpt lat="47.73114" lon="3.62468">
        <ele>270</ele>
        <time>2019-04-02T09:28:42Z</time>
      </trkpt>
      <trkpt lat="47.73111" lon="3.62467">
        <ele>269</ele>
        <time>2019-04-02T09:28:45Z</time>
      </trkpt>
      <trkpt lat="47.73105" lon="3.62466">
        <ele>270</ele>
        <time>2019-04-02T09:28:49Z</time>
      </trkpt>
      <trkpt lat="47.73103" lon="3.62465">
        <ele>270</ele>
        <time>2019-04-02T09:28:51Z</time>
      </trkpt>
      <trkpt lat="47.731" lon="3.62465">
        <ele>269</ele>
        <time>2019-04-02T09:28:53Z</time>
      </trkpt>
      <trkpt lat="47.73097" lon="3.62464">
        <ele>269</ele>
        <time>2019-04-02T09:28:55Z</time>
      </trkpt>
      <trkpt lat="47.73092" lon="3.62463">
        <ele>269</ele>
        <time>2019-04-02T09:28:59Z</time>
      </trkpt>
      <trkpt lat="47.73087" lon="3.62463">
        <ele>268</ele>
        <time>2019-04-02T09:29:04Z</time>
      </trkpt>
      <trkpt lat="47.73082" lon="3.62462">
        <ele>267</ele>
        <time>2019-04-02T09:29:08Z</time>
      </trkpt>
      <trkpt lat="47.7308" lon="3.62462">
        <ele>268</ele>
        <time>2019-04-02T09:29:10Z</time>
      </trkpt>
      <trkpt lat="47.73077" lon="3.62462">
        <ele>268</ele>
        <time>2019-04-02T09:29:12Z</time>
      </trkpt>
      <trkpt lat="47.73072" lon="3.62461">
        <ele>267</ele>
        <time>2019-04-02T09:29:16Z</time>
      </trkpt>
      <trkpt lat="47.73066" lon="3.6246">
        <ele>267</ele>
        <time>2019-04-02T09:29:20Z</time>
      </trkpt>
      <trkpt lat="47.73064" lon="3.6246">
        <ele>267</ele>
        <time>2019-04-02T09:29:22Z</time>
      </trkpt>
      <trkpt lat="47.73059" lon="3.62459">
        <ele>267</ele>
        <time>2019-04-02T09:29:26Z</time>
      </trkpt>
      <trkpt lat="47.73054" lon="3.62459">
        <ele>266</ele>
        <time>2019-04-02T09:29:30Z</time>
      </trkpt>
      <trkpt lat="47.73052" lon="3.6246">
        <ele>265</ele>
        <time>2019-04-02T09:29:32Z</time>
      </trkpt>
      <trkpt lat="47.73049" lon="3.62459">
        <ele>265</ele>
        <time>2019-04-02T09:29:34Z</time>
      </trkpt>
      <trkpt lat="47.73046" lon="3.6246">
        <ele>265</ele>
        <time>2019-04-02T09:29:37Z</time>
      </trkpt>
      <trkpt lat="47.73042" lon="3.6246">
        <ele>265</ele>
        <time>2019-04-02T09:29:40Z</time>
      </trkpt>
      <trkpt lat="47.73037" lon="3.6246">
        <ele>265</ele>
        <time>2019-04-02T09:29:45Z</time>
      </trkpt>
      <trkpt lat="47.73031" lon="3.62462">
        <ele>264</ele>
        <time>2019-04-02T09:29:49Z</time>
      </trkpt>
      <trkpt lat="47.73029" lon="3.62469">
        <ele>264</ele>
        <time>2019-04-02T09:29:53Z</time>
      </trkpt>
      <trkpt lat="47.73027" lon="3.62476">
        <ele>263</ele>
        <time>2019-04-02T09:29:57Z</time>
      </trkpt>
      <trkpt lat="47.73026" lon="3.6248">
        <ele>264</ele>
        <time>2019-04-02T09:29:59Z</time>
      </trkpt>
      <trkpt lat="47.73027" lon="3.62487">
        <ele>264</ele>
        <time>2019-04-02T09:30:03Z</time>
      </trkpt>
      <trkpt lat="47.73027" lon="3.62491">
        <ele>264</ele>
        <time>2019-04-02T09:30:05Z</time>
      </trkpt>
      <trkpt lat="47.73027" lon="3.62496">
        <ele>264</ele>
        <time>2019-04-02T09:30:07Z</time>
      </trkpt>
      <trkpt lat="47.73028" lon="3.62503">
        <ele>264</ele>
        <time>2019-04-02T09:30:11Z</time>
      </trkpt>
      <trkpt lat="47.73029" lon="3.62509">
        <ele>263</ele>
        <time>2019-04-02T09:30:14Z</time>
      </trkpt>
      <trkpt lat="47.73029" lon="3.62513">
        <ele>263</ele>
        <time>2019-04-02T09:30:16Z</time>
      </trkpt>
      <trkpt lat="47.7303" lon="3.62521">
        <ele>263</ele>
        <time>2019-04-02T09:30:20Z</time>
      </trkpt>
      <trkpt lat="47.7303" lon="3.62528">
        <ele>263</ele>
        <time>2019-04-02T09:30:24Z</time>
      </trkpt>
      <trkpt lat="47.7303" lon="3.62534">
        <ele>263</ele>
        <time>2019-04-02T09:30:28Z</time>
      </trkpt>
      <trkpt lat="47.73028" lon="3.62541">
        <ele>263</ele>
        <time>2019-04-02T09:30:32Z</time>
      </trkpt>
      <trkpt lat="47.73027" lon="3.62549">
        <ele>262</ele>
        <time>2019-04-02T09:30:36Z</time>
      </trkpt>
      <trkpt lat="47.73027" lon="3.62556">
        <ele>261</ele>
        <time>2019-04-02T09:30:40Z</time>
      </trkpt>
      <trkpt lat="47.73026" lon="3.62563">
        <ele>260</ele>
        <time>2019-04-02T09:30:44Z</time>
      </trkpt>
      <trkpt lat="47.73025" lon="3.62568">
        <ele>259</ele>
        <time>2019-04-02T09:30:47Z</time>
      </trkpt>
      <trkpt lat="47.73022" lon="3.62576">
        <ele>260</ele>
        <time>2019-04-02T09:30:51Z</time>
      </trkpt>
      <trkpt lat="47.73021" lon="3.62583">
        <ele>260</ele>
        <time>2019-04-02T09:30:55Z</time>
      </trkpt>
      <trkpt lat="47.7302" lon="3.62587">
        <ele>260</ele>
        <time>2019-04-02T09:30:57Z</time>
      </trkpt>
      <trkpt lat="47.73019" lon="3.62591">
        <ele>260</ele>
        <time>2019-04-02T09:30:59Z</time>
      </trkpt>
      <trkpt lat="47.73019" lon="3.62594">
        <ele>259</ele>
        <time>2019-04-02T09:31:01Z</time>
      </trkpt>
      <trkpt lat="47.73017" lon="3.62601">
        <ele>259</ele>
        <time>2019-04-02T09:31:05Z</time>
      </trkpt>
      <trkpt lat="47.73015" lon="3.62604">
        <ele>259</ele>
        <time>2019-04-02T09:31:07Z</time>
      </trkpt>
      <trkpt lat="47.73014" lon="3.62609">
        <ele>258</ele>
        <time>2019-04-02T09:31:10Z</time>
      </trkpt>
      <trkpt lat="47.73012" lon="3.62614">
        <ele>258</ele>
        <time>2019-04-02T09:31:13Z</time>
      </trkpt>
      <trkpt lat="47.7301" lon="3.62619">
        <ele>258</ele>
        <time>2019-04-02T09:31:16Z</time>
      </trkpt>
      <trkpt lat="47.73009" lon="3.62625">
        <ele>257</ele>
        <time>2019-04-02T09:31:19Z</time>
      </trkpt>
      <trkpt lat="47.73007" lon="3.62632">
        <ele>257</ele>
        <time>2019-04-02T09:31:23Z</time>
      </trkpt>
      <trkpt lat="47.73005" lon="3.62639">
        <ele>256</ele>
        <time>2019-04-02T09:31:27Z</time>
      </trkpt>
      <trkpt lat="47.73004" lon="3.62644">
        <ele>256</ele>
        <time>2019-04-02T09:31:30Z</time>
      </trkpt>
      <trkpt lat="47.73002" lon="3.62651">
        <ele>256</ele>
        <time>2019-04-02T09:31:34Z</time>
      </trkpt>
      <trkpt lat="47.73" lon="3.62657">
        <ele>256</ele>
        <time>2019-04-02T09:31:38Z</time>
      </trkpt>
      <trkpt lat="47.72999" lon="3.62665">
        <ele>256</ele>
        <time>2019-04-02T09:31:43Z</time>
      </trkpt>
      <trkpt lat="47.72997" lon="3.62676">
        <ele>255</ele>
        <time>2019-04-02T09:31:48Z</time>
      </trkpt>
      <trkpt lat="47.72994" lon="3.62684">
        <ele>255</ele>
        <time>2019-04-02T09:31:53Z</time>
      </trkpt>
      <trkpt lat="47.72994" lon="3.62692">
        <ele>254</ele>
        <time>2019-04-02T09:31:58Z</time>
      </trkpt>
      <trkpt lat="47.72993" lon="3.62696">
        <ele>254</ele>
        <time>2019-04-02T09:32:01Z</time>
      </trkpt>
      <trkpt lat="47.72992" lon="3.627">
        <ele>254</ele>
        <time>2019-04-02T09:32:03Z</time>
      </trkpt>
      <trkpt lat="47.72991" lon="3.62704">
        <ele>254</ele>
        <time>2019-04-02T09:32:05Z</time>
      </trkpt>
      <trkpt lat="47.72991" lon="3.62708">
        <ele>254</ele>
        <time>2019-04-02T09:32:08Z</time>
      </trkpt>
      <trkpt lat="47.7299" lon="3.62713">
        <ele>254</ele>
        <time>2019-04-02T09:32:10Z</time>
      </trkpt>
      <trkpt lat="47.7299" lon="3.62717">
        <ele>254</ele>
        <time>2019-04-02T09:32:12Z</time>
      </trkpt>
      <trkpt lat="47.72989" lon="3.62721">
        <ele>254</ele>
        <time>2019-04-02T09:32:14Z</time>
      </trkpt>
      <trkpt lat="47.72989" lon="3.62725">
        <ele>254</ele>
        <time>2019-04-02T09:32:16Z</time>
      </trkpt>
      <trkpt lat="47.72988" lon="3.62731">
        <ele>254</ele>
        <time>2019-04-02T09:32:19Z</time>
      </trkpt>
      <trkpt lat="47.72988" lon="3.62738">
        <ele>254</ele>
        <time>2019-04-02T09:32:22Z</time>
      </trkpt>
      <trkpt lat="47.72988" lon="3.62741">
        <ele>253</ele>
        <time>2019-04-02T09:32:24Z</time>
      </trkpt>
      <trkpt lat="47.72987" lon="3.62748">
        <ele>253</ele>
        <time>2019-04-02T09:32:28Z</time>
      </trkpt>
      <trkpt lat="47.72987" lon="3.62755">
        <ele>253</ele>
        <time>2019-04-02T09:32:32Z</time>
      </trkpt>
      <trkpt lat="47.72987" lon="3.62759">
        <ele>252</ele>
        <time>2019-04-02T09:32:34Z</time>
      </trkpt>
      <trkpt lat="47.72987" lon="3.62763">
        <ele>252</ele>
        <time>2019-04-02T09:32:36Z</time>
      </trkpt>
      <trkpt lat="47.72989" lon="3.62771">
        <ele>252</ele>
        <time>2019-04-02T09:32:40Z</time>
      </trkpt>
      <trkpt lat="47.7299" lon="3.6278">
        <ele>252</ele>
        <time>2019-04-02T09:32:44Z</time>
      </trkpt>
      <trkpt lat="47.72991" lon="3.62787">
        <ele>252</ele>
        <time>2019-04-02T09:32:47Z</time>
      </trkpt>
      <trkpt lat="47.72993" lon="3.62792">
        <ele>251</ele>
        <time>2019-04-02T09:32:50Z</time>
      </trkpt>
      <trkpt lat="47.72994" lon="3.62795">
        <ele>252</ele>
        <time>2019-04-02T09:32:52Z</time>
      </trkpt>
      <trkpt lat="47.72995" lon="3.628">
        <ele>252</ele>
        <time>2019-04-02T09:32:54Z</time>
      </trkpt>
      <trkpt lat="47.72997" lon="3.62806">
        <ele>251</ele>
        <time>2019-04-02T09:32:57Z</time>
      </trkpt>
      <trkpt lat="47.72999" lon="3.62811">
        <ele>251</ele>
        <time>2019-04-02T09:32:59Z</time>
      </trkpt>
      <trkpt lat="47.73" lon="3.62814">
        <ele>251</ele>
        <time>2019-04-02T09:33:01Z</time>
      </trkpt>
      <trkpt lat="47.73003" lon="3.62823">
        <ele>250</ele>
        <time>2019-04-02T09:33:06Z</time>
      </trkpt>
      <trkpt lat="47.73005" lon="3.62827">
        <ele>250</ele>
        <time>2019-04-02T09:33:08Z</time>
      </trkpt>
      <trkpt lat="47.73008" lon="3.62834">
        <ele>251</ele>
        <time>2019-04-02T09:33:13Z</time>
      </trkpt>
      <trkpt lat="47.7301" lon="3.62837">
        <ele>251</ele>
        <time>2019-04-02T09:33:15Z</time>
      </trkpt>
      <trkpt lat="47.73013" lon="3.62843">
        <ele>251</ele>
        <time>2019-04-02T09:33:19Z</time>
      </trkpt>
      <trkpt lat="47.73016" lon="3.62849">
        <ele>251</ele>
        <time>2019-04-02T09:33:22Z</time>
      </trkpt>
      <trkpt lat="47.73018" lon="3.62852">
        <ele>252</ele>
        <time>2019-04-02T09:33:24Z</time>
      </trkpt>
      <trkpt lat="47.73021" lon="3.62859">
        <ele>251</ele>
        <time>2019-04-02T09:33:28Z</time>
      </trkpt>
      <trkpt lat="47.73022" lon="3.62862">
        <ele>252</ele>
        <time>2019-04-02T09:33:30Z</time>
      </trkpt>
      <trkpt lat="47.73025" lon="3.62869">
        <ele>252</ele>
        <time>2019-04-02T09:33:34Z</time>
      </trkpt>
      <trkpt lat="47.73027" lon="3.62874">
        <ele>251</ele>
        <time>2019-04-02T09:33:37Z</time>
      </trkpt>
      <trkpt lat="47.73032" lon="3.62881">
        <ele>251</ele>
        <time>2019-04-02T09:33:42Z</time>
      </trkpt>
      <trkpt lat="47.73034" lon="3.62885">
        <ele>252</ele>
        <time>2019-04-02T09:33:44Z</time>
      </trkpt>
      <trkpt lat="47.73037" lon="3.62891">
        <ele>251</ele>
        <time>2019-04-02T09:33:48Z</time>
      </trkpt>
      <trkpt lat="47.7304" lon="3.62898">
        <ele>251</ele>
        <time>2019-04-02T09:33:52Z</time>
      </trkpt>
      <trkpt lat="47.73041" lon="3.62902">
        <ele>250</ele>
        <time>2019-04-02T09:33:54Z</time>
      </trkpt>
      <trkpt lat="47.73044" lon="3.62908">
        <ele>250</ele>
        <time>2019-04-02T09:33:58Z</time>
      </trkpt>
      <trkpt lat="47.73045" lon="3.62912">
        <ele>250</ele>
        <time>2019-04-02T09:34:00Z</time>
      </trkpt>
      <trkpt lat="47.73046" lon="3.62915">
        <ele>251</ele>
        <time>2019-04-02T09:34:02Z</time>
      </trkpt>
      <trkpt lat="47.7305" lon="3.62923">
        <ele>250</ele>
        <time>2019-04-02T09:34:06Z</time>
      </trkpt>
      <trkpt lat="47.73052" lon="3.62929">
        <ele>250</ele>
        <time>2019-04-02T09:34:10Z</time>
      </trkpt>
      <trkpt lat="47.73056" lon="3.62934">
        <ele>250</ele>
        <time>2019-04-02T09:34:14Z</time>
      </trkpt>
      <trkpt lat="47.7306" lon="3.6294">
        <ele>250</ele>
        <time>2019-04-02T09:34:18Z</time>
      </trkpt>
      <trkpt lat="47.73063" lon="3.62945">
        <ele>250</ele>
        <time>2019-04-02T09:34:21Z</time>
      </trkpt>
      <trkpt lat="47.73065" lon="3.62948">
        <ele>250</ele>
        <time>2019-04-02T09:34:23Z</time>
      </trkpt>
      <trkpt lat="47.73067" lon="3.62952">
        <ele>251</ele>
        <time>2019-04-02T09:34:25Z</time>
      </trkpt>
      <trkpt lat="47.73069" lon="3.62956">
        <ele>251</ele>
        <time>2019-04-02T09:34:27Z</time>
      </trkpt>
      <trkpt lat="47.7307" lon="3.62959">
        <ele>251</ele>
        <time>2019-04-02T09:34:29Z</time>
      </trkpt>
      <trkpt lat="47.73073" lon="3.62963">
        <ele>251</ele>
        <time>2019-04-02T09:34:32Z</time>
      </trkpt>
      <trkpt lat="47.73075" lon="3.62966">
        <ele>250</ele>
        <time>2019-04-02T09:34:34Z</time>
      </trkpt>
      <trkpt lat="47.73077" lon="3.62968">
        <ele>251</ele>
        <time>2019-04-02T09:34:36Z</time>
      </trkpt>
      <trkpt lat="47.7308" lon="3.62974">
        <ele>251</ele>
        <time>2019-04-02T09:34:40Z</time>
      </trkpt>
      <trkpt lat="47.73081" lon="3.62976">
        <ele>251</ele>
        <time>2019-04-02T09:34:42Z</time>
      </trkpt>
      <trkpt lat="47.73085" lon="3.62984">
        <ele>252</ele>
        <time>2019-04-02T09:34:46Z</time>
      </trkpt>
      <trkpt lat="47.73088" lon="3.62988">
        <ele>252</ele>
        <time>2019-04-02T09:34:49Z</time>
      </trkpt>
      <trkpt lat="47.73091" lon="3.62995">
        <ele>252</ele>
        <time>2019-04-02T09:34:53Z</time>
      </trkpt>
      <trkpt lat="47.73093" lon="3.62998">
        <ele>251</ele>
        <time>2019-04-02T09:34:55Z</time>
      </trkpt>
      <trkpt lat="47.73096" lon="3.63004">
        <ele>250</ele>
        <time>2019-04-02T09:34:59Z</time>
      </trkpt>
      <trkpt lat="47.73097" lon="3.63007">
        <ele>250</ele>
        <time>2019-04-02T09:35:01Z</time>
      </trkpt>
      <trkpt lat="47.73101" lon="3.63013">
        <ele>251</ele>
        <time>2019-04-02T09:35:05Z</time>
      </trkpt>
      <trkpt lat="47.73103" lon="3.63017">
        <ele>251</ele>
        <time>2019-04-02T09:35:08Z</time>
      </trkpt>
      <trkpt lat="47.73106" lon="3.63023">
        <ele>251</ele>
        <time>2019-04-02T09:35:11Z</time>
      </trkpt>
      <trkpt lat="47.73109" lon="3.63029">
        <ele>252</ele>
        <time>2019-04-02T09:35:15Z</time>
      </trkpt>
      <trkpt lat="47.73113" lon="3.63034">
        <ele>251</ele>
        <time>2019-04-02T09:35:19Z</time>
      </trkpt>
      <trkpt lat="47.73116" lon="3.63041">
        <ele>251</ele>
        <time>2019-04-02T09:35:23Z</time>
      </trkpt>
      <trkpt lat="47.73117" lon="3.63045">
        <ele>251</ele>
        <time>2019-04-02T09:35:25Z</time>
      </trkpt>
      <trkpt lat="47.73118" lon="3.63049">
        <ele>251</ele>
        <time>2019-04-02T09:35:27Z</time>
      </trkpt>
      <trkpt lat="47.7312" lon="3.63053">
        <ele>250</ele>
        <time>2019-04-02T09:35:30Z</time>
      </trkpt>
      <trkpt lat="47.73123" lon="3.6306">
        <ele>250</ele>
        <time>2019-04-02T09:35:34Z</time>
      </trkpt>
      <trkpt lat="47.73126" lon="3.63066">
        <ele>249</ele>
        <time>2019-04-02T09:35:38Z</time>
      </trkpt>
      <trkpt lat="47.73128" lon="3.63069">
        <ele>250</ele>
        <time>2019-04-02T09:35:40Z</time>
      </trkpt>
      <trkpt lat="47.7313" lon="3.63072">
        <ele>250</ele>
        <time>2019-04-02T09:35:42Z</time>
      </trkpt>
      <trkpt lat="47.73133" lon="3.63078">
        <ele>249</ele>
        <time>2019-04-02T09:35:46Z</time>
      </trkpt>
      <trkpt lat="47.73137" lon="3.63084">
        <ele>249</ele>
        <time>2019-04-02T09:35:50Z</time>
      </trkpt>
      <trkpt lat="47.7314" lon="3.63089">
        <ele>250</ele>
        <time>2019-04-02T09:35:54Z</time>
      </trkpt>
      <trkpt lat="47.73142" lon="3.63095">
        <ele>250</ele>
        <time>2019-04-02T09:35:58Z</time>
      </trkpt>
      <trkpt lat="47.73144" lon="3.63098">
        <ele>250</ele>
        <time>2019-04-02T09:36:00Z</time>
      </trkpt>
      <trkpt lat="47.73145" lon="3.63102">
        <ele>249</ele>
        <time>2019-04-02T09:36:02Z</time>
      </trkpt>
      <trkpt lat="47.73148" lon="3.63108">
        <ele>249</ele>
        <time>2019-04-02T09:36:06Z</time>
      </trkpt>
      <trkpt lat="47.7315" lon="3.63114">
        <ele>248</ele>
        <time>2019-04-02T09:36:10Z</time>
      </trkpt>
      <trkpt lat="47.73151" lon="3.63118">
        <ele>248</ele>
        <time>2019-04-02T09:36:12Z</time>
      </trkpt>
      <trkpt lat="47.73153" lon="3.63128">
        <ele>248</ele>
        <time>2019-04-02T09:36:17Z</time>
      </trkpt>
      <trkpt lat="47.73155" lon="3.63134">
        <ele>247</ele>
        <time>2019-04-02T09:36:21Z</time>
      </trkpt>
      <trkpt lat="47.73158" lon="3.63141">
        <ele>246</ele>
        <time>2019-04-02T09:36:25Z</time>
      </trkpt>
      <trkpt lat="47.73159" lon="3.63145">
        <ele>246</ele>
        <time>2019-04-02T09:36:27Z</time>
      </trkpt>
      <trkpt lat="47.7316" lon="3.6315">
        <ele>246</ele>
        <time>2019-04-02T09:36:30Z</time>
      </trkpt>
      <trkpt lat="47.73161" lon="3.63153">
        <ele>246</ele>
        <time>2019-04-02T09:36:32Z</time>
      </trkpt>
      <trkpt lat="47.73162" lon="3.6316">
        <ele>244</ele>
        <time>2019-04-02T09:36:36Z</time>
      </trkpt>
      <trkpt lat="47.73165" lon="3.63167">
        <ele>242</ele>
        <time>2019-04-02T09:36:40Z</time>
      </trkpt>
      <trkpt lat="47.73167" lon="3.63175">
        <ele>243</ele>
        <time>2019-04-02T09:36:44Z</time>
      </trkpt>
      <trkpt lat="47.7317" lon="3.63181">
        <ele>242</ele>
        <time>2019-04-02T09:36:48Z</time>
      </trkpt>
      <trkpt lat="47.73172" lon="3.63185">
        <ele>243</ele>
        <time>2019-04-02T09:36:50Z</time>
      </trkpt>
      <trkpt lat="47.73175" lon="3.63191">
        <ele>243</ele>
        <time>2019-04-02T09:36:53Z</time>
      </trkpt>
      <trkpt lat="47.73176" lon="3.63194">
        <ele>242</ele>
        <time>2019-04-02T09:36:55Z</time>
      </trkpt>
      <trkpt lat="47.73177" lon="3.63202">
        <ele>242</ele>
        <time>2019-04-02T09:36:59Z</time>
      </trkpt>
      <trkpt lat="47.7318" lon="3.63212">
        <ele>241</ele>
        <time>2019-04-02T09:37:04Z</time>
      </trkpt>
      <trkpt lat="47.73181" lon="3.63215">
        <ele>241</ele>
        <time>2019-04-02T09:37:06Z</time>
      </trkpt>
      <trkpt lat="47.73184" lon="3.63222">
        <ele>240</ele>
        <time>2019-04-02T09:37:10Z</time>
      </trkpt>
      <trkpt lat="47.73186" lon="3.63231">
        <ele>241</ele>
        <time>2019-04-02T09:37:14Z</time>
      </trkpt>
      <trkpt lat="47.73188" lon="3.63236">
        <ele>240</ele>
        <time>2019-04-02T09:37:17Z</time>
      </trkpt>
      <trkpt lat="47.73188" lon="3.6324">
        <ele>240</ele>
        <time>2019-04-02T09:37:19Z</time>
      </trkpt>
      <trkpt lat="47.7319" lon="3.63245">
        <ele>240</ele>
        <time>2019-04-02T09:37:22Z</time>
      </trkpt>
      <trkpt lat="47.7319" lon="3.63249">
        <ele>240</ele>
        <time>2019-04-02T09:37:24Z</time>
      </trkpt>
      <trkpt lat="47.73192" lon="3.63255">
        <ele>239</ele>
        <time>2019-04-02T09:37:27Z</time>
      </trkpt>
      <trkpt lat="47.73195" lon="3.6326">
        <ele>239</ele>
        <time>2019-04-02T09:37:30Z</time>
      </trkpt>
      <trkpt lat="47.73196" lon="3.63267">
        <ele>240</ele>
        <time>2019-04-02T09:37:34Z</time>
      </trkpt>
      <trkpt lat="47.73199" lon="3.63273">
        <ele>240</ele>
        <time>2019-04-02T09:37:38Z</time>
      </trkpt>
      <trkpt lat="47.73201" lon="3.6328">
        <ele>238</ele>
        <time>2019-04-02T09:37:42Z</time>
      </trkpt>
      <trkpt lat="47.73202" lon="3.63286">
        <ele>239</ele>
        <time>2019-04-02T09:37:45Z</time>
      </trkpt>
      <trkpt lat="47.73203" lon="3.6329">
        <ele>238</ele>
        <time>2019-04-02T09:37:47Z</time>
      </trkpt>
      <trkpt lat="47.73203" lon="3.63297">
        <ele>238</ele>
        <time>2019-04-02T09:37:50Z</time>
      </trkpt>
      <trkpt lat="47.73204" lon="3.63305">
        <ele>238</ele>
        <time>2019-04-02T09:37:54Z</time>
      </trkpt>
      <trkpt lat="47.73205" lon="3.63313">
        <ele>238</ele>
        <time>2019-04-02T09:37:58Z</time>
      </trkpt>
      <trkpt lat="47.73207" lon="3.63322">
        <ele>239</ele>
        <time>2019-04-02T09:38:02Z</time>
      </trkpt>
      <trkpt lat="47.73208" lon="3.63328">
        <ele>238</ele>
        <time>2019-04-02T09:38:06Z</time>
      </trkpt>
      <trkpt lat="47.7321" lon="3.63336">
        <ele>238</ele>
        <time>2019-04-02T09:38:10Z</time>
      </trkpt>
      <trkpt lat="47.73213" lon="3.63342">
        <ele>239</ele>
        <time>2019-04-02T09:38:14Z</time>
      </trkpt>
      <trkpt lat="47.73217" lon="3.63347">
        <ele>238</ele>
        <time>2019-04-02T09:38:18Z</time>
      </trkpt>
      <trkpt lat="47.7322" lon="3.63352">
        <ele>238</ele>
        <time>2019-04-02T09:38:21Z</time>
      </trkpt>
      <trkpt lat="47.73224" lon="3.63357">
        <ele>238</ele>
        <time>2019-04-02T09:38:25Z</time>
      </trkpt>
      <trkpt lat="47.73229" lon="3.63362">
        <ele>238</ele>
        <time>2019-04-02T09:38:29Z</time>
      </trkpt>
      <trkpt lat="47.73233" lon="3.63367">
        <ele>238</ele>
        <time>2019-04-02T09:38:33Z</time>
      </trkpt>
      <trkpt lat="47.73236" lon="3.63369">
        <ele>237</ele>
        <time>2019-04-02T09:38:35Z</time>
      </trkpt>
      <trkpt lat="47.73238" lon="3.63372">
        <ele>237</ele>
        <time>2019-04-02T09:38:39Z</time>
      </trkpt>
      <trkpt lat="47.73241" lon="3.63377">
        <ele>236</ele>
        <time>2019-04-02T09:38:43Z</time>
      </trkpt>
      <trkpt lat="47.73239" lon="3.63385">
        <ele>237</ele>
        <time>2019-04-02T09:38:50Z</time>
      </trkpt>
      <trkpt lat="47.73236" lon="3.63388">
        <ele>237</ele>
        <time>2019-04-02T09:38:56Z</time>
      </trkpt>
      <trkpt lat="47.73236" lon="3.63388">
        <ele>237</ele>
        <time>2019-04-02T09:39:03Z</time>
      </trkpt>
      <trkpt lat="47.73236" lon="3.63388">
        <ele>237</ele>
        <time>2019-04-02T09:39:04Z</time>
      </trkpt>
      <trkpt lat="47.7323" lon="3.63386">
        <ele>236</ele>
        <time>2019-04-02T09:39:54Z</time>
      </trkpt>
      <trkpt lat="47.73226" lon="3.63382">
        <ele>235</ele>
        <time>2019-04-02T09:39:59Z</time>
      </trkpt>
      <trkpt lat="47.73221" lon="3.6338">
        <ele>236</ele>
        <time>2019-04-02T09:40:03Z</time>
      </trkpt>
      <trkpt lat="47.73218" lon="3.63378">
        <ele>236</ele>
        <time>2019-04-02T09:40:07Z</time>
      </trkpt>
      <trkpt lat="47.73212" lon="3.63375">
        <ele>235</ele>
        <time>2019-04-02T09:40:12Z</time>
      </trkpt>
      <trkpt lat="47.73209" lon="3.63374">
        <ele>235</ele>
        <time>2019-04-02T09:40:15Z</time>
      </trkpt>
      <trkpt lat="47.73205" lon="3.63373">
        <ele>236</ele>
        <time>2019-04-02T09:40:19Z</time>
      </trkpt>
      <trkpt lat="47.73201" lon="3.63372">
        <ele>238</ele>
        <time>2019-04-02T09:40:23Z</time>
      </trkpt>
      <trkpt lat="47.73198" lon="3.63372">
        <ele>238</ele>
        <time>2019-04-02T09:40:25Z</time>
      </trkpt>
      <trkpt lat="47.73193" lon="3.63372">
        <ele>240</ele>
        <time>2019-04-02T09:40:29Z</time>
      </trkpt>
      <trkpt lat="47.73188" lon="3.63373">
        <ele>241</ele>
        <time>2019-04-02T09:40:33Z</time>
      </trkpt>
      <trkpt lat="47.73183" lon="3.63375">
        <ele>242</ele>
        <time>2019-04-02T09:40:37Z</time>
      </trkpt>
      <trkpt lat="47.73179" lon="3.63379">
        <ele>242</ele>
        <time>2019-04-02T09:40:42Z</time>
      </trkpt>
      <trkpt lat="47.73175" lon="3.6338">
        <ele>242</ele>
        <time>2019-04-02T09:40:46Z</time>
      </trkpt>
      <trkpt lat="47.7317" lon="3.63386">
        <ele>243</ele>
        <time>2019-04-02T09:40:51Z</time>
      </trkpt>
      <trkpt lat="47.73164" lon="3.63389">
        <ele>243</ele>
        <time>2019-04-02T09:40:55Z</time>
      </trkpt>
      <trkpt lat="47.73162" lon="3.6339">
        <ele>243</ele>
        <time>2019-04-02T09:40:57Z</time>
      </trkpt>
      <trkpt lat="47.7316" lon="3.63392">
        <ele>243</ele>
        <time>2019-04-02T09:40:59Z</time>
      </trkpt>
      <trkpt lat="47.73156" lon="3.63395">
        <ele>242</ele>
        <time>2019-04-02T09:41:02Z</time>
      </trkpt>
      <trkpt lat="47.7315" lon="3.634">
        <ele>243</ele>
        <time>2019-04-02T09:41:07Z</time>
      </trkpt>
      <trkpt lat="47.73147" lon="3.63405">
        <ele>244</ele>
        <time>2019-04-02T09:41:11Z</time>
      </trkpt>
      <trkpt lat="47.73141" lon="3.63411">
        <ele>244</ele>
        <time>2019-04-02T09:41:16Z</time>
      </trkpt>
      <trkpt lat="47.73138" lon="3.63413">
        <ele>244</ele>
        <time>2019-04-02T09:41:19Z</time>
      </trkpt>
      <trkpt lat="47.73136" lon="3.63415">
        <ele>244</ele>
        <time>2019-04-02T09:41:21Z</time>
      </trkpt>
      <trkpt lat="47.7313" lon="3.63418">
        <ele>244</ele>
        <time>2019-04-02T09:41:26Z</time>
      </trkpt>
      <trkpt lat="47.73125" lon="3.63419">
        <ele>244</ele>
        <time>2019-04-02T09:41:30Z</time>
      </trkpt>
      <trkpt lat="47.7312" lon="3.63421">
        <ele>243</ele>
        <time>2019-04-02T09:41:34Z</time>
      </trkpt>
      <trkpt lat="47.73116" lon="3.63422">
        <ele>243</ele>
        <time>2019-04-02T09:41:37Z</time>
      </trkpt>
      <trkpt lat="47.73114" lon="3.63423">
        <ele>243</ele>
        <time>2019-04-02T09:41:39Z</time>
      </trkpt>
      <trkpt lat="47.7311" lon="3.63425">
        <ele>243</ele>
        <time>2019-04-02T09:41:42Z</time>
      </trkpt>
      <trkpt lat="47.73104" lon="3.63426">
        <ele>243</ele>
        <time>2019-04-02T09:41:45Z</time>
      </trkpt>
      <trkpt lat="47.731" lon="3.63427">
        <ele>243</ele>
        <time>2019-04-02T09:41:48Z</time>
      </trkpt>
      <trkpt lat="47.73096" lon="3.63428">
        <ele>243</ele>
        <time>2019-04-02T09:41:51Z</time>
      </trkpt>
      <trkpt lat="47.73093" lon="3.63429">
        <ele>244</ele>
        <time>2019-04-02T09:41:53Z</time>
      </trkpt>
      <trkpt lat="47.73089" lon="3.63428">
        <ele>244</ele>
        <time>2019-04-02T09:41:57Z</time>
      </trkpt>
      <trkpt lat="47.73085" lon="3.63428">
        <ele>243</ele>
        <time>2019-04-02T09:42:00Z</time>
      </trkpt>
      <trkpt lat="47.73082" lon="3.63429">
        <ele>243</ele>
        <time>2019-04-02T09:42:02Z</time>
      </trkpt>
      <trkpt lat="47.7308" lon="3.63429">
        <ele>244</ele>
        <time>2019-04-02T09:42:04Z</time>
      </trkpt>
      <trkpt lat="47.73075" lon="3.63429">
        <ele>244</ele>
        <time>2019-04-02T09:42:08Z</time>
      </trkpt>
      <trkpt lat="47.73072" lon="3.63429">
        <ele>245</ele>
        <time>2019-04-02T09:42:10Z</time>
      </trkpt>
      <trkpt lat="47.73069" lon="3.63429">
        <ele>245</ele>
        <time>2019-04-02T09:42:13Z</time>
      </trkpt>
      <trkpt lat="47.73065" lon="3.6343">
        <ele>246</ele>
        <time>2019-04-02T09:42:16Z</time>
      </trkpt>
      <trkpt lat="47.73062" lon="3.6343">
        <ele>246</ele>
        <time>2019-04-02T09:42:18Z</time>
      </trkpt>
      <trkpt lat="47.73056" lon="3.63431">
        <ele>247</ele>
        <time>2019-04-02T09:42:23Z</time>
      </trkpt>
      <trkpt lat="47.73053" lon="3.63431">
        <ele>247</ele>
        <time>2019-04-02T09:42:26Z</time>
      </trkpt>
      <trkpt lat="47.7305" lon="3.63431">
        <ele>247</ele>
        <time>2019-04-02T09:42:28Z</time>
      </trkpt>
      <trkpt lat="47.73046" lon="3.63431">
        <ele>248</ele>
        <time>2019-04-02T09:42:30Z</time>
      </trkpt>
      <trkpt lat="47.73043" lon="3.63431">
        <ele>247</ele>
        <time>2019-04-02T09:42:32Z</time>
      </trkpt>
      <trkpt lat="47.7304" lon="3.6343">
        <ele>247</ele>
        <time>2019-04-02T09:42:35Z</time>
      </trkpt>
      <trkpt lat="47.73037" lon="3.6343">
        <ele>247</ele>
        <time>2019-04-02T09:42:38Z</time>
      </trkpt>
      <trkpt lat="47.73033" lon="3.6343">
        <ele>248</ele>
        <time>2019-04-02T09:42:41Z</time>
      </trkpt>
      <trkpt lat="47.73029" lon="3.63431">
        <ele>249</ele>
        <time>2019-04-02T09:42:45Z</time>
      </trkpt>
      <trkpt lat="47.73024" lon="3.63431">
        <ele>251</ele>
        <time>2019-04-02T09:42:49Z</time>
      </trkpt>
      <trkpt lat="47.73021" lon="3.63431">
        <ele>251</ele>
        <time>2019-04-02T09:42:51Z</time>
      </trkpt>
      <trkpt lat="47.73017" lon="3.6343">
        <ele>250</ele>
        <time>2019-04-02T09:42:55Z</time>
      </trkpt>
      <trkpt lat="47.73012" lon="3.63428">
        <ele>250</ele>
        <time>2019-04-02T09:43:00Z</time>
      </trkpt>
      <trkpt lat="47.73006" lon="3.63428">
        <ele>250</ele>
        <time>2019-04-02T09:43:04Z</time>
      </trkpt>
      <trkpt lat="47.73003" lon="3.63428">
        <ele>250</ele>
        <time>2019-04-02T09:43:07Z</time>
      </trkpt>
      <trkpt lat="47.72999" lon="3.63426">
        <ele>250</ele>
        <time>2019-04-02T09:43:13Z</time>
      </trkpt>
      <trkpt lat="47.72995" lon="3.63424">
        <ele>251</ele>
        <time>2019-04-02T09:43:17Z</time>
      </trkpt>
      <trkpt lat="47.72991" lon="3.63424">
        <ele>251</ele>
        <time>2019-04-02T09:43:20Z</time>
      </trkpt>
      <trkpt lat="47.72987" lon="3.63424">
        <ele>251</ele>
        <time>2019-04-02T09:43:22Z</time>
      </trkpt>
      <trkpt lat="47.72982" lon="3.63423">
        <ele>252</ele>
        <time>2019-04-02T09:43:25Z</time>
      </trkpt>
      <trkpt lat="47.72979" lon="3.63422">
        <ele>252</ele>
        <time>2019-04-02T09:43:28Z</time>
      </trkpt>
      <trkpt lat="47.72977" lon="3.63421">
        <ele>251</ele>
        <time>2019-04-02T09:43:30Z</time>
      </trkpt>
      <trkpt lat="47.72973" lon="3.63419">
        <ele>250</ele>
        <time>2019-04-02T09:43:33Z</time>
      </trkpt>
      <trkpt lat="47.72971" lon="3.63418">
        <ele>250</ele>
        <time>2019-04-02T09:43:35Z</time>
      </trkpt>
      <trkpt lat="47.72965" lon="3.63419">
        <ele>251</ele>
        <time>2019-04-02T09:43:39Z</time>
      </trkpt>
      <trkpt lat="47.7296" lon="3.63417">
        <ele>250</ele>
        <time>2019-04-02T09:43:43Z</time>
      </trkpt>
      <trkpt lat="47.72956" lon="3.63415">
        <ele>250</ele>
        <time>2019-04-02T09:43:46Z</time>
      </trkpt>
      <trkpt lat="47.72951" lon="3.63413">
        <ele>250</ele>
        <time>2019-04-02T09:43:50Z</time>
      </trkpt>
      <trkpt lat="47.72946" lon="3.63412">
        <ele>251</ele>
        <time>2019-04-02T09:43:54Z</time>
      </trkpt>
      <trkpt lat="47.72939" lon="3.6341">
        <ele>251</ele>
        <time>2019-04-02T09:43:59Z</time>
      </trkpt>
      <trkpt lat="47.72937" lon="3.63409">
        <ele>250</ele>
        <time>2019-04-02T09:44:01Z</time>
      </trkpt>
      <trkpt lat="47.72933" lon="3.63407">
        <ele>250</ele>
        <time>2019-04-02T09:44:05Z</time>
      </trkpt>
      <trkpt lat="47.7293" lon="3.63406">
        <ele>250</ele>
        <time>2019-04-02T09:44:08Z</time>
      </trkpt>
      <trkpt lat="47.72925" lon="3.63406">
        <ele>251</ele>
        <time>2019-04-02T09:44:11Z</time>
      </trkpt>
      <trkpt lat="47.72922" lon="3.63405">
        <ele>250</ele>
        <time>2019-04-02T09:44:13Z</time>
      </trkpt>
      <trkpt lat="47.72916" lon="3.63403">
        <ele>251</ele>
        <time>2019-04-02T09:44:18Z</time>
      </trkpt>
      <trkpt lat="47.72912" lon="3.63402">
        <ele>252</ele>
        <time>2019-04-02T09:44:21Z</time>
      </trkpt>
      <trkpt lat="47.72908" lon="3.634">
        <ele>253</ele>
        <time>2019-04-02T09:44:25Z</time>
      </trkpt>
      <trkpt lat="47.72905" lon="3.634">
        <ele>253</ele>
        <time>2019-04-02T09:44:28Z</time>
      </trkpt>
      <trkpt lat="47.72902" lon="3.63399">
        <ele>253</ele>
        <time>2019-04-02T09:44:29Z</time>
      </trkpt>
      <trkpt lat="47.72897" lon="3.63397">
        <ele>253</ele>
        <time>2019-04-02T09:44:34Z</time>
      </trkpt>
      <trkpt lat="47.72892" lon="3.63394">
        <ele>253</ele>
        <time>2019-04-02T09:44:37Z</time>
      </trkpt>
      <trkpt lat="47.7289" lon="3.63392">
        <ele>253</ele>
        <time>2019-04-02T09:44:40Z</time>
      </trkpt>
      <trkpt lat="47.72887" lon="3.6339">
        <ele>253</ele>
        <time>2019-04-02T09:44:42Z</time>
      </trkpt>
      <trkpt lat="47.72883" lon="3.63387">
        <ele>253</ele>
        <time>2019-04-02T09:44:46Z</time>
      </trkpt>
      <trkpt lat="47.72881" lon="3.63385">
        <ele>253</ele>
        <time>2019-04-02T09:44:48Z</time>
      </trkpt>
      <trkpt lat="47.72876" lon="3.6338">
        <ele>251</ele>
        <time>2019-04-02T09:44:53Z</time>
      </trkpt>
      <trkpt lat="47.72873" lon="3.63376">
        <ele>251</ele>
        <time>2019-04-02T09:44:56Z</time>
      </trkpt>
      <trkpt lat="47.72869" lon="3.63372">
        <ele>251</ele>
        <time>2019-04-02T09:45:00Z</time>
      </trkpt>
      <trkpt lat="47.72865" lon="3.63369">
        <ele>250</ele>
        <time>2019-04-02T09:45:04Z</time>
      </trkpt>
      <trkpt lat="47.72861" lon="3.63364">
        <ele>250</ele>
        <time>2019-04-02T09:45:08Z</time>
      </trkpt>
      <trkpt lat="47.72856" lon="3.63359">
        <ele>251</ele>
        <time>2019-04-02T09:45:13Z</time>
      </trkpt>
      <trkpt lat="47.72853" lon="3.63357">
        <ele>250</ele>
        <time>2019-04-02T09:45:14Z</time>
      </trkpt>
      <trkpt lat="47.72849" lon="3.63353">
        <ele>249</ele>
        <time>2019-04-02T09:45:18Z</time>
      </trkpt>
      <trkpt lat="47.72847" lon="3.6335">
        <ele>249</ele>
        <time>2019-04-02T09:45:21Z</time>
      </trkpt>
      <trkpt lat="47.72844" lon="3.63346">
        <ele>250</ele>
        <time>2019-04-02T09:45:24Z</time>
      </trkpt>
      <trkpt lat="47.72839" lon="3.63343">
        <ele>250</ele>
        <time>2019-04-02T09:45:28Z</time>
      </trkpt>
      <trkpt lat="47.72836" lon="3.6334">
        <ele>250</ele>
        <time>2019-04-02T09:45:31Z</time>
      </trkpt>
      <trkpt lat="47.72832" lon="3.63337">
        <ele>250</ele>
        <time>2019-04-02T09:45:34Z</time>
      </trkpt>
      <trkpt lat="47.7283" lon="3.63335">
        <ele>251</ele>
        <time>2019-04-02T09:45:36Z</time>
      </trkpt>
      <trkpt lat="47.72825" lon="3.63332">
        <ele>252</ele>
        <time>2019-04-02T09:45:40Z</time>
      </trkpt>
      <trkpt lat="47.72821" lon="3.63327">
        <ele>251</ele>
        <time>2019-04-02T09:45:43Z</time>
      </trkpt>
      <trkpt lat="47.72817" lon="3.63324">
        <ele>251</ele>
        <time>2019-04-02T09:45:47Z</time>
      </trkpt>
      <trkpt lat="47.72812" lon="3.63319">
        <ele>252</ele>
        <time>2019-04-02T09:45:52Z</time>
      </trkpt>
      <trkpt lat="47.7281" lon="3.63317">
        <ele>251</ele>
        <time>2019-04-02T09:45:54Z</time>
      </trkpt>
      <trkpt lat="47.72807" lon="3.63315">
        <ele>250</ele>
        <time>2019-04-02T09:45:56Z</time>
      </trkpt>
      <trkpt lat="47.72805" lon="3.63313">
        <ele>251</ele>
        <time>2019-04-02T09:45:58Z</time>
      </trkpt>
      <trkpt lat="47.728" lon="3.63307">
        <ele>250</ele>
        <time>2019-04-02T09:46:01Z</time>
      </trkpt>
      <trkpt lat="47.72798" lon="3.63305">
        <ele>250</ele>
        <time>2019-04-02T09:46:03Z</time>
      </trkpt>
      <trkpt lat="47.72793" lon="3.63301">
        <ele>249</ele>
        <time>2019-04-02T09:46:08Z</time>
      </trkpt>
      <trkpt lat="47.72789" lon="3.63297">
        <ele>249</ele>
        <time>2019-04-02T09:46:12Z</time>
      </trkpt>
      <trkpt lat="47.72787" lon="3.63294">
        <ele>250</ele>
        <time>2019-04-02T09:46:14Z</time>
      </trkpt>
      <trkpt lat="47.72782" lon="3.6329">
        <ele>250</ele>
        <time>2019-04-02T09:46:18Z</time>
      </trkpt>
      <trkpt lat="47.72779" lon="3.63288">
        <ele>250</ele>
        <time>2019-04-02T09:46:20Z</time>
      </trkpt>
      <trkpt lat="47.72775" lon="3.63284">
        <ele>250</ele>
        <time>2019-04-02T09:46:24Z</time>
      </trkpt>
      <trkpt lat="47.72772" lon="3.63282">
        <ele>250</ele>
        <time>2019-04-02T09:46:27Z</time>
      </trkpt>
      <trkpt lat="47.72769" lon="3.63278">
        <ele>251</ele>
        <time>2019-04-02T09:46:31Z</time>
      </trkpt>
      <trkpt lat="47.72764" lon="3.63276">
        <ele>251</ele>
        <time>2019-04-02T09:46:36Z</time>
      </trkpt>
      <trkpt lat="47.72759" lon="3.63278">
        <ele>251</ele>
        <time>2019-04-02T09:46:39Z</time>
      </trkpt>
      <trkpt lat="47.72754" lon="3.63279">
        <ele>251</ele>
        <time>2019-04-02T09:46:42Z</time>
      </trkpt>
      <trkpt lat="47.72751" lon="3.6328">
        <ele>252</ele>
        <time>2019-04-02T09:46:44Z</time>
      </trkpt>
      <trkpt lat="47.72747" lon="3.63284">
        <ele>252</ele>
        <time>2019-04-02T09:46:48Z</time>
      </trkpt>
      <trkpt lat="47.72743" lon="3.6329">
        <ele>251</ele>
        <time>2019-04-02T09:46:52Z</time>
      </trkpt>
      <trkpt lat="47.72741" lon="3.63294">
        <ele>250</ele>
        <time>2019-04-02T09:46:56Z</time>
      </trkpt>
      <trkpt lat="47.72739" lon="3.63301">
        <ele>250</ele>
        <time>2019-04-02T09:47:01Z</time>
      </trkpt>
      <trkpt lat="47.72739" lon="3.63307">
        <ele>250</ele>
        <time>2019-04-02T09:47:05Z</time>
      </trkpt>
      <trkpt lat="47.72738" lon="3.63312">
        <ele>251</ele>
        <time>2019-04-02T09:47:09Z</time>
      </trkpt>
      <trkpt lat="47.72738" lon="3.63322">
        <ele>250</ele>
        <time>2019-04-02T09:47:14Z</time>
      </trkpt>
      <trkpt lat="47.72736" lon="3.6333">
        <ele>252</ele>
        <time>2019-04-02T09:47:20Z</time>
      </trkpt>
      <trkpt lat="47.72735" lon="3.63338">
        <ele>253</ele>
        <time>2019-04-02T09:47:25Z</time>
      </trkpt>
      <trkpt lat="47.72734" lon="3.63344">
        <ele>252</ele>
        <time>2019-04-02T09:47:27Z</time>
      </trkpt>
      <trkpt lat="47.72734" lon="3.63348">
        <ele>252</ele>
        <time>2019-04-02T09:47:29Z</time>
      </trkpt>
      <trkpt lat="47.72733" lon="3.63355">
        <ele>253</ele>
        <time>2019-04-02T09:47:33Z</time>
      </trkpt>
      <trkpt lat="47.72732" lon="3.63359">
        <ele>253</ele>
        <time>2019-04-02T09:47:37Z</time>
      </trkpt>
      <trkpt lat="47.72731" lon="3.63363">
        <ele>252</ele>
        <time>2019-04-02T09:47:39Z</time>
      </trkpt>
      <trkpt lat="47.72729" lon="3.63371">
        <ele>252</ele>
        <time>2019-04-02T09:47:44Z</time>
      </trkpt>
      <trkpt lat="47.72727" lon="3.63378">
        <ele>253</ele>
        <time>2019-04-02T09:47:49Z</time>
      </trkpt>
      <trkpt lat="47.72726" lon="3.63385">
        <ele>254</ele>
        <time>2019-04-02T09:47:53Z</time>
      </trkpt>
      <trkpt lat="47.72722" lon="3.63391">
        <ele>255</ele>
        <time>2019-04-02T09:47:58Z</time>
      </trkpt>
      <trkpt lat="47.7272" lon="3.63395">
        <ele>255</ele>
        <time>2019-04-02T09:48:01Z</time>
      </trkpt>
      <trkpt lat="47.72718" lon="3.63398">
        <ele>254</ele>
        <time>2019-04-02T09:48:03Z</time>
      </trkpt>
      <trkpt lat="47.72715" lon="3.63405">
        <ele>255</ele>
        <time>2019-04-02T09:48:08Z</time>
      </trkpt>
      <trkpt lat="47.72713" lon="3.6341">
        <ele>254</ele>
        <time>2019-04-02T09:48:10Z</time>
      </trkpt>
      <trkpt lat="47.72711" lon="3.63418">
        <ele>254</ele>
        <time>2019-04-02T09:48:14Z</time>
      </trkpt>
      <trkpt lat="47.72709" lon="3.63424">
        <ele>254</ele>
        <time>2019-04-02T09:48:17Z</time>
      </trkpt>
      <trkpt lat="47.72708" lon="3.63427">
        <ele>254</ele>
        <time>2019-04-02T09:48:19Z</time>
      </trkpt>
      <trkpt lat="47.72706" lon="3.63433">
        <ele>254</ele>
        <time>2019-04-02T09:48:23Z</time>
      </trkpt>
      <trkpt lat="47.72704" lon="3.6344">
        <ele>254</ele>
        <time>2019-04-02T09:48:27Z</time>
      </trkpt>
      <trkpt lat="47.72704" lon="3.63445">
        <ele>254</ele>
        <time>2019-04-02T09:48:29Z</time>
      </trkpt>
      <trkpt lat="47.72703" lon="3.63448">
        <ele>254</ele>
        <time>2019-04-02T09:48:31Z</time>
      </trkpt>
      <trkpt lat="47.72702" lon="3.63452">
        <ele>254</ele>
        <time>2019-04-02T09:48:34Z</time>
      </trkpt>
      <trkpt lat="47.72701" lon="3.63456">
        <ele>254</ele>
        <time>2019-04-02T09:48:36Z</time>
      </trkpt>
      <trkpt lat="47.727" lon="3.63459">
        <ele>254</ele>
        <time>2019-04-02T09:48:38Z</time>
      </trkpt>
      <trkpt lat="47.72699" lon="3.63463">
        <ele>254</ele>
        <time>2019-04-02T09:48:41Z</time>
      </trkpt>
      <trkpt lat="47.72697" lon="3.63471">
        <ele>254</ele>
        <time>2019-04-02T09:48:44Z</time>
      </trkpt>
      <trkpt lat="47.72695" lon="3.6348">
        <ele>253</ele>
        <time>2019-04-02T09:48:50Z</time>
      </trkpt>
      <trkpt lat="47.72694" lon="3.63484">
        <ele>253</ele>
        <time>2019-04-02T09:48:52Z</time>
      </trkpt>
      <trkpt lat="47.72692" lon="3.6349">
        <ele>253</ele>
        <time>2019-04-02T09:48:56Z</time>
      </trkpt>
      <trkpt lat="47.72691" lon="3.63493">
        <ele>253</ele>
        <time>2019-04-02T09:48:58Z</time>
      </trkpt>
      <trkpt lat="47.7269" lon="3.63497">
        <ele>253</ele>
        <time>2019-04-02T09:49:00Z</time>
      </trkpt>
      <trkpt lat="47.72688" lon="3.63503">
        <ele>253</ele>
        <time>2019-04-02T09:49:04Z</time>
      </trkpt>
      <trkpt lat="47.72686" lon="3.6351">
        <ele>253</ele>
        <time>2019-04-02T09:49:07Z</time>
      </trkpt>
      <trkpt lat="47.72684" lon="3.63514">
        <ele>254</ele>
        <time>2019-04-02T09:49:10Z</time>
      </trkpt>
      <trkpt lat="47.72683" lon="3.63518">
        <ele>254</ele>
        <time>2019-04-02T09:49:12Z</time>
      </trkpt>
      <trkpt lat="47.72681" lon="3.63522">
        <ele>253</ele>
        <time>2019-04-02T09:49:14Z</time>
      </trkpt>
      <trkpt lat="47.7268" lon="3.63526">
        <ele>253</ele>
        <time>2019-04-02T09:49:16Z</time>
      </trkpt>
      <trkpt lat="47.72678" lon="3.6353">
        <ele>253</ele>
        <time>2019-04-02T09:49:20Z</time>
      </trkpt>
      <trkpt lat="47.72677" lon="3.63533">
        <ele>253</ele>
        <time>2019-04-02T09:49:22Z</time>
      </trkpt>
      <trkpt lat="47.72675" lon="3.6354">
        <ele>253</ele>
        <time>2019-04-02T09:49:26Z</time>
      </trkpt>
      <trkpt lat="47.72673" lon="3.63543">
        <ele>254</ele>
        <time>2019-04-02T09:49:28Z</time>
      </trkpt>
      <trkpt lat="47.72671" lon="3.63549">
        <ele>254</ele>
        <time>2019-04-02T09:49:31Z</time>
      </trkpt>
      <trkpt lat="47.72669" lon="3.63557">
        <ele>254</ele>
        <time>2019-04-02T09:49:35Z</time>
      </trkpt>
      <trkpt lat="47.72668" lon="3.6356">
        <ele>254</ele>
        <time>2019-04-02T09:49:37Z</time>
      </trkpt>
      <trkpt lat="47.72665" lon="3.63567">
        <ele>254</ele>
        <time>2019-04-02T09:49:41Z</time>
      </trkpt>
      <trkpt lat="47.72662" lon="3.63575">
        <ele>254</ele>
        <time>2019-04-02T09:49:45Z</time>
      </trkpt>
      <trkpt lat="47.7266" lon="3.6358">
        <ele>255</ele>
        <time>2019-04-02T09:49:47Z</time>
      </trkpt>
      <trkpt lat="47.72658" lon="3.63585">
        <ele>254</ele>
        <time>2019-04-02T09:49:50Z</time>
      </trkpt>
      <trkpt lat="47.72656" lon="3.63589">
        <ele>254</ele>
        <time>2019-04-02T09:49:52Z</time>
      </trkpt>
      <trkpt lat="47.72654" lon="3.63593">
        <ele>255</ele>
        <time>2019-04-02T09:49:55Z</time>
      </trkpt>
      <trkpt lat="47.72652" lon="3.63599">
        <ele>255</ele>
        <time>2019-04-02T09:49:59Z</time>
      </trkpt>
      <trkpt lat="47.7265" lon="3.63603">
        <ele>255</ele>
        <time>2019-04-02T09:50:01Z</time>
      </trkpt>
      <trkpt lat="47.72649" lon="3.63607">
        <ele>255</ele>
        <time>2019-04-02T09:50:03Z</time>
      </trkpt>
      <trkpt lat="47.72647" lon="3.63616">
        <ele>255</ele>
        <time>2019-04-02T09:50:07Z</time>
      </trkpt>
      <trkpt lat="47.72645" lon="3.63623">
        <ele>255</ele>
        <time>2019-04-02T09:50:11Z</time>
      </trkpt>
      <trkpt lat="47.72644" lon="3.63629">
        <ele>255</ele>
        <time>2019-04-02T09:50:14Z</time>
      </trkpt>
      <trkpt lat="47.72643" lon="3.63638">
        <ele>255</ele>
        <time>2019-04-02T09:50:19Z</time>
      </trkpt>
      <trkpt lat="47.72642" lon="3.63646">
        <ele>255</ele>
        <time>2019-04-02T09:50:23Z</time>
      </trkpt>
      <trkpt lat="47.72641" lon="3.6365">
        <ele>255</ele>
        <time>2019-04-02T09:50:25Z</time>
      </trkpt>
      <trkpt lat="47.7264" lon="3.63656">
        <ele>255</ele>
        <time>2019-04-02T09:50:28Z</time>
      </trkpt>
      <trkpt lat="47.72639" lon="3.63664">
        <ele>254</ele>
        <time>2019-04-02T09:50:32Z</time>
      </trkpt>
      <trkpt lat="47.72638" lon="3.63673">
        <ele>255</ele>
        <time>2019-04-02T09:50:36Z</time>
      </trkpt>
      <trkpt lat="47.72637" lon="3.63679">
        <ele>255</ele>
        <time>2019-04-02T09:50:40Z</time>
      </trkpt>
      <trkpt lat="47.72636" lon="3.63687">
        <ele>256</ele>
        <time>2019-04-02T09:50:44Z</time>
      </trkpt>
      <trkpt lat="47.72636" lon="3.63692">
        <ele>256</ele>
        <time>2019-04-02T09:50:47Z</time>
      </trkpt>
      <trkpt lat="47.72636" lon="3.637">
        <ele>255</ele>
        <time>2019-04-02T09:50:51Z</time>
      </trkpt>
      <trkpt lat="47.72636" lon="3.63704">
        <ele>255</ele>
        <time>2019-04-02T09:50:52Z</time>
      </trkpt>
      <trkpt lat="47.72635" lon="3.63713">
        <ele>256</ele>
        <time>2019-04-02T09:50:56Z</time>
      </trkpt>
      <trkpt lat="47.72636" lon="3.6372">
        <ele>255</ele>
        <time>2019-04-02T09:51:00Z</time>
      </trkpt>
      <trkpt lat="47.72636" lon="3.63727">
        <ele>255</ele>
        <time>2019-04-02T09:51:03Z</time>
      </trkpt>
      <trkpt lat="47.72636" lon="3.63731">
        <ele>255</ele>
        <time>2019-04-02T09:51:05Z</time>
      </trkpt>
      <trkpt lat="47.72636" lon="3.63735">
        <ele>255</ele>
        <time>2019-04-02T09:51:07Z</time>
      </trkpt>
      <trkpt lat="47.72636" lon="3.6374">
        <ele>255</ele>
        <time>2019-04-02T09:51:09Z</time>
      </trkpt>
      <trkpt lat="47.72636" lon="3.63744">
        <ele>254</ele>
        <time>2019-04-02T09:51:11Z</time>
      </trkpt>
      <trkpt lat="47.72637" lon="3.63755">
        <ele>255</ele>
        <time>2019-04-02T09:51:16Z</time>
      </trkpt>
      <trkpt lat="47.72637" lon="3.63763">
        <ele>255</ele>
        <time>2019-04-02T09:51:20Z</time>
      </trkpt>
      <trkpt lat="47.72637" lon="3.6377">
        <ele>255</ele>
        <time>2019-04-02T09:51:24Z</time>
      </trkpt>
      <trkpt lat="47.72637" lon="3.63774">
        <ele>255</ele>
        <time>2019-04-02T09:51:26Z</time>
      </trkpt>
      <trkpt lat="47.72637" lon="3.63782">
        <ele>255</ele>
        <time>2019-04-02T09:51:30Z</time>
      </trkpt>
      <trkpt lat="47.72637" lon="3.63788">
        <ele>254</ele>
        <time>2019-04-02T09:51:33Z</time>
      </trkpt>
      <trkpt lat="47.72637" lon="3.63792">
        <ele>254</ele>
        <time>2019-04-02T09:51:35Z</time>
      </trkpt>
      <trkpt lat="47.72637" lon="3.63797">
        <ele>254</ele>
        <time>2019-04-02T09:51:38Z</time>
      </trkpt>
      <trkpt lat="47.72637" lon="3.63806">
        <ele>253</ele>
        <time>2019-04-02T09:51:42Z</time>
      </trkpt>
      <trkpt lat="47.72638" lon="3.63813">
        <ele>253</ele>
        <time>2019-04-02T09:51:46Z</time>
      </trkpt>
      <trkpt lat="47.72639" lon="3.6382">
        <ele>253</ele>
        <time>2019-04-02T09:51:49Z</time>
      </trkpt>
      <trkpt lat="47.72639" lon="3.63824">
        <ele>253</ele>
        <time>2019-04-02T09:51:51Z</time>
      </trkpt>
      <trkpt lat="47.72639" lon="3.63831">
        <ele>253</ele>
        <time>2019-04-02T09:51:54Z</time>
      </trkpt>
      <trkpt lat="47.72639" lon="3.63835">
        <ele>252</ele>
        <time>2019-04-02T09:51:56Z</time>
      </trkpt>
      <trkpt lat="47.72639" lon="3.63839">
        <ele>252</ele>
        <time>2019-04-02T09:51:58Z</time>
      </trkpt>
      <trkpt lat="47.7264" lon="3.63842">
        <ele>251</ele>
        <time>2019-04-02T09:52:00Z</time>
      </trkpt>
      <trkpt lat="47.7264" lon="3.63846">
        <ele>251</ele>
        <time>2019-04-02T09:52:02Z</time>
      </trkpt>
      <trkpt lat="47.7264" lon="3.6385">
        <ele>252</ele>
        <time>2019-04-02T09:52:04Z</time>
      </trkpt>
      <trkpt lat="47.7264" lon="3.6386">
        <ele>252</ele>
        <time>2019-04-02T09:52:08Z</time>
      </trkpt>
      <trkpt lat="47.72641" lon="3.63864">
        <ele>252</ele>
        <time>2019-04-02T09:52:10Z</time>
      </trkpt>
      <trkpt lat="47.72641" lon="3.6387">
        <ele>253</ele>
        <time>2019-04-02T09:52:14Z</time>
      </trkpt>
      <trkpt lat="47.72642" lon="3.63876">
        <ele>254</ele>
        <time>2019-04-02T09:52:17Z</time>
      </trkpt>
      <trkpt lat="47.72644" lon="3.63882">
        <ele>253</ele>
        <time>2019-04-02T09:52:20Z</time>
      </trkpt>
      <trkpt lat="47.72646" lon="3.63891">
        <ele>253</ele>
        <time>2019-04-02T09:52:24Z</time>
      </trkpt>
      <trkpt lat="47.72647" lon="3.63898">
        <ele>254</ele>
        <time>2019-04-02T09:52:28Z</time>
      </trkpt>
      <trkpt lat="47.72651" lon="3.63905">
        <ele>254</ele>
        <time>2019-04-02T09:52:32Z</time>
      </trkpt>
      <trkpt lat="47.72652" lon="3.63909">
        <ele>254</ele>
        <time>2019-04-02T09:52:34Z</time>
      </trkpt>
      <trkpt lat="47.72654" lon="3.63913">
        <ele>253</ele>
        <time>2019-04-02T09:52:37Z</time>
      </trkpt>
      <trkpt lat="47.72657" lon="3.63918">
        <ele>254</ele>
        <time>2019-04-02T09:52:40Z</time>
      </trkpt>
      <trkpt lat="47.72659" lon="3.63926">
        <ele>255</ele>
        <time>2019-04-02T09:52:45Z</time>
      </trkpt>
      <trkpt lat="47.7266" lon="3.63929">
        <ele>256</ele>
        <time>2019-04-02T09:52:47Z</time>
      </trkpt>
      <trkpt lat="47.72663" lon="3.63935">
        <ele>257</ele>
        <time>2019-04-02T09:52:51Z</time>
      </trkpt>
      <trkpt lat="47.72665" lon="3.63939">
        <ele>257</ele>
        <time>2019-04-02T09:52:53Z</time>
      </trkpt>
      <trkpt lat="47.72668" lon="3.63945">
        <ele>258</ele>
        <time>2019-04-02T09:52:57Z</time>
      </trkpt>
      <trkpt lat="47.7267" lon="3.63948">
        <ele>258</ele>
        <time>2019-04-02T09:52:59Z</time>
      </trkpt>
      <trkpt lat="47.72672" lon="3.63954">
        <ele>258</ele>
        <time>2019-04-02T09:53:02Z</time>
      </trkpt>
      <trkpt lat="47.72676" lon="3.6396">
        <ele>259</ele>
        <time>2019-04-02T09:53:06Z</time>
      </trkpt>
      <trkpt lat="47.72679" lon="3.63967">
        <ele>259</ele>
        <time>2019-04-02T09:53:09Z</time>
      </trkpt>
      <trkpt lat="47.72682" lon="3.63973">
        <ele>260</ele>
        <time>2019-04-02T09:53:13Z</time>
      </trkpt>
      <trkpt lat="47.72685" lon="3.63979">
        <ele>259</ele>
        <time>2019-04-02T09:53:16Z</time>
      </trkpt>
      <trkpt lat="47.72688" lon="3.63984">
        <ele>260</ele>
        <time>2019-04-02T09:53:19Z</time>
      </trkpt>
      <trkpt lat="47.72692" lon="3.63991">
        <ele>260</ele>
        <time>2019-04-02T09:53:23Z</time>
      </trkpt>
      <trkpt lat="47.72694" lon="3.63999">
        <ele>260</ele>
        <time>2019-04-02T09:53:27Z</time>
      </trkpt>
      <trkpt lat="47.72697" lon="3.64005">
        <ele>260</ele>
        <time>2019-04-02T09:53:31Z</time>
      </trkpt>
      <trkpt lat="47.72698" lon="3.64008">
        <ele>260</ele>
        <time>2019-04-02T09:53:33Z</time>
      </trkpt>
      <trkpt lat="47.72701" lon="3.64014">
        <ele>260</ele>
        <time>2019-04-02T09:53:37Z</time>
      </trkpt>
      <trkpt lat="47.72702" lon="3.64022">
        <ele>260</ele>
        <time>2019-04-02T09:53:42Z</time>
      </trkpt>
      <trkpt lat="47.72703" lon="3.64032">
        <ele>260</ele>
        <time>2019-04-02T09:53:48Z</time>
      </trkpt>
      <trkpt lat="47.72703" lon="3.64036">
        <ele>261</ele>
        <time>2019-04-02T09:53:50Z</time>
      </trkpt>
      <trkpt lat="47.72704" lon="3.6404">
        <ele>261</ele>
        <time>2019-04-02T09:53:52Z</time>
      </trkpt>
      <trkpt lat="47.72704" lon="3.64046">
        <ele>261</ele>
        <time>2019-04-02T09:53:55Z</time>
      </trkpt>
      <trkpt lat="47.72705" lon="3.64054">
        <ele>261</ele>
        <time>2019-04-02T09:54:00Z</time>
      </trkpt>
      <trkpt lat="47.72705" lon="3.64061">
        <ele>259</ele>
        <time>2019-04-02T09:54:04Z</time>
      </trkpt>
      <trkpt lat="47.72705" lon="3.64067">
        <ele>260</ele>
        <time>2019-04-02T09:54:07Z</time>
      </trkpt>
      <trkpt lat="47.72704" lon="3.64074">
        <ele>260</ele>
        <time>2019-04-02T09:54:11Z</time>
      </trkpt>
      <trkpt lat="47.72704" lon="3.64079">
        <ele>260</ele>
        <time>2019-04-02T09:54:13Z</time>
      </trkpt>
      <trkpt lat="47.72704" lon="3.64083">
        <ele>260</ele>
        <time>2019-04-02T09:54:15Z</time>
      </trkpt>
      <trkpt lat="47.72702" lon="3.64091">
        <ele>259</ele>
        <time>2019-04-02T09:54:19Z</time>
      </trkpt>
      <trkpt lat="47.72701" lon="3.64095">
        <ele>259</ele>
        <time>2019-04-02T09:54:21Z</time>
      </trkpt>
      <trkpt lat="47.72701" lon="3.64105">
        <ele>259</ele>
        <time>2019-04-02T09:54:26Z</time>
      </trkpt>
      <trkpt lat="47.72701" lon="3.64113">
        <ele>260</ele>
        <time>2019-04-02T09:54:29Z</time>
      </trkpt>
      <trkpt lat="47.727" lon="3.64117">
        <ele>259</ele>
        <time>2019-04-02T09:54:31Z</time>
      </trkpt>
      <trkpt lat="47.727" lon="3.64124">
        <ele>259</ele>
        <time>2019-04-02T09:54:35Z</time>
      </trkpt>
      <trkpt lat="47.727" lon="3.64127">
        <ele>259</ele>
        <time>2019-04-02T09:54:37Z</time>
      </trkpt>
      <trkpt lat="47.727" lon="3.64136">
        <ele>258</ele>
        <time>2019-04-02T09:54:41Z</time>
      </trkpt>
      <trkpt lat="47.727" lon="3.64142">
        <ele>257</ele>
        <time>2019-04-02T09:54:44Z</time>
      </trkpt>
      <trkpt lat="47.72699" lon="3.64149">
        <ele>258</ele>
        <time>2019-04-02T09:54:47Z</time>
      </trkpt>
      <trkpt lat="47.72701" lon="3.64155">
        <ele>258</ele>
        <time>2019-04-02T09:54:53Z</time>
      </trkpt>
      <trkpt lat="47.72701" lon="3.64155">
        <ele>258</ele>
        <time>2019-04-02T09:55:01Z</time>
      </trkpt>
      <trkpt lat="47.72701" lon="3.64155">
        <ele>258</ele>
        <time>2019-04-02T09:55:02Z</time>
      </trkpt>
      <trkpt lat="47.72699" lon="3.64163">
        <ele>256</ele>
        <time>2019-04-02T09:56:32Z</time>
      </trkpt>
      <trkpt lat="47.72696" lon="3.6417">
        <ele>255</ele>
        <time>2019-04-02T09:56:37Z</time>
      </trkpt>
      <trkpt lat="47.72694" lon="3.64173">
        <ele>254</ele>
        <time>2019-04-02T09:56:39Z</time>
      </trkpt>
      <trkpt lat="47.72691" lon="3.64183">
        <ele>255</ele>
        <time>2019-04-02T09:56:44Z</time>
      </trkpt>
      <trkpt lat="47.7269" lon="3.64187">
        <ele>255</ele>
        <time>2019-04-02T09:56:46Z</time>
      </trkpt>
      <trkpt lat="47.72689" lon="3.6419">
        <ele>255</ele>
        <time>2019-04-02T09:56:48Z</time>
      </trkpt>
      <trkpt lat="47.72688" lon="3.64197">
        <ele>255</ele>
        <time>2019-04-02T09:56:52Z</time>
      </trkpt>
      <trkpt lat="47.72686" lon="3.64204">
        <ele>255</ele>
        <time>2019-04-02T09:56:56Z</time>
      </trkpt>
      <trkpt lat="47.72684" lon="3.64208">
        <ele>255</ele>
        <time>2019-04-02T09:56:59Z</time>
      </trkpt>
      <trkpt lat="47.72682" lon="3.64215">
        <ele>255</ele>
        <time>2019-04-02T09:57:03Z</time>
      </trkpt>
      <trkpt lat="47.72681" lon="3.6422">
        <ele>254</ele>
        <time>2019-04-02T09:57:06Z</time>
      </trkpt>
      <trkpt lat="47.7268" lon="3.64223">
        <ele>254</ele>
        <time>2019-04-02T09:57:08Z</time>
      </trkpt>
      <trkpt lat="47.72677" lon="3.6423">
        <ele>255</ele>
        <time>2019-04-02T09:57:12Z</time>
      </trkpt>
      <trkpt lat="47.72675" lon="3.64233">
        <ele>255</ele>
        <time>2019-04-02T09:57:14Z</time>
      </trkpt>
      <trkpt lat="47.72673" lon="3.64239">
        <ele>254</ele>
        <time>2019-04-02T09:57:18Z</time>
      </trkpt>
      <trkpt lat="47.72671" lon="3.64243">
        <ele>254</ele>
        <time>2019-04-02T09:57:21Z</time>
      </trkpt>
      <trkpt lat="47.7267" lon="3.64247">
        <ele>254</ele>
        <time>2019-04-02T09:57:23Z</time>
      </trkpt>
      <trkpt lat="47.72669" lon="3.6425">
        <ele>254</ele>
        <time>2019-04-02T09:57:25Z</time>
      </trkpt>
      <trkpt lat="47.72666" lon="3.64256">
        <ele>253</ele>
        <time>2019-04-02T09:57:29Z</time>
      </trkpt>
      <trkpt lat="47.72664" lon="3.64259">
        <ele>254</ele>
        <time>2019-04-02T09:57:32Z</time>
      </trkpt>
      <trkpt lat="47.72663" lon="3.64262">
        <ele>253</ele>
        <time>2019-04-02T09:57:34Z</time>
      </trkpt>
      <trkpt lat="47.72659" lon="3.64268">
        <ele>253</ele>
        <time>2019-04-02T09:57:38Z</time>
      </trkpt>
      <trkpt lat="47.72656" lon="3.64273">
        <ele>252</ele>
        <time>2019-04-02T09:57:41Z</time>
      </trkpt>
      <trkpt lat="47.72654" lon="3.64277">
        <ele>252</ele>
        <time>2019-04-02T09:57:44Z</time>
      </trkpt>
      <trkpt lat="47.72653" lon="3.6428">
        <ele>252</ele>
        <time>2019-04-02T09:57:46Z</time>
      </trkpt>
      <trkpt lat="47.72651" lon="3.64283">
        <ele>252</ele>
        <time>2019-04-02T09:57:48Z</time>
      </trkpt>
      <trkpt lat="47.72649" lon="3.6429">
        <ele>252</ele>
        <time>2019-04-02T09:57:52Z</time>
      </trkpt>
      <trkpt lat="47.72648" lon="3.64294">
        <ele>252</ele>
        <time>2019-04-02T09:57:54Z</time>
      </trkpt>
      <trkpt lat="47.72647" lon="3.64301">
        <ele>251</ele>
        <time>2019-04-02T09:57:58Z</time>
      </trkpt>
      <trkpt lat="47.72646" lon="3.6431">
        <ele>251</ele>
        <time>2019-04-02T09:58:02Z</time>
      </trkpt>
      <trkpt lat="47.72646" lon="3.64316">
        <ele>251</ele>
        <time>2019-04-02T09:58:04Z</time>
      </trkpt>
      <trkpt lat="47.72646" lon="3.6432">
        <ele>251</ele>
        <time>2019-04-02T09:58:06Z</time>
      </trkpt>
      <trkpt lat="47.72645" lon="3.64325">
        <ele>251</ele>
        <time>2019-04-02T09:58:09Z</time>
      </trkpt>
      <trkpt lat="47.72645" lon="3.64331">
        <ele>252</ele>
        <time>2019-04-02T09:58:12Z</time>
      </trkpt>
      <trkpt lat="47.72647" lon="3.64342">
        <ele>252</ele>
        <time>2019-04-02T09:58:18Z</time>
      </trkpt>
      <trkpt lat="47.72648" lon="3.64347">
        <ele>252</ele>
        <time>2019-04-02T09:58:22Z</time>
      </trkpt>
      <trkpt lat="47.7265" lon="3.64354">
        <ele>252</ele>
        <time>2019-04-02T09:58:24Z</time>
      </trkpt>
      <trkpt lat="47.7265" lon="3.64357">
        <ele>252</ele>
        <time>2019-04-02T09:58:26Z</time>
      </trkpt>
      <trkpt lat="47.72652" lon="3.64366">
        <ele>252</ele>
        <time>2019-04-02T09:58:30Z</time>
      </trkpt>
      <trkpt lat="47.72654" lon="3.64373">
        <ele>252</ele>
        <time>2019-04-02T09:58:34Z</time>
      </trkpt>
      <trkpt lat="47.72656" lon="3.64381">
        <ele>253</ele>
        <time>2019-04-02T09:58:38Z</time>
      </trkpt>
      <trkpt lat="47.72657" lon="3.64386">
        <ele>252</ele>
        <time>2019-04-02T09:58:41Z</time>
      </trkpt>
      <trkpt lat="47.72659" lon="3.64392">
        <ele>253</ele>
        <time>2019-04-02T09:58:44Z</time>
      </trkpt>
      <trkpt lat="47.7266" lon="3.64395">
        <ele>253</ele>
        <time>2019-04-02T09:58:46Z</time>
      </trkpt>
      <trkpt lat="47.72663" lon="3.64401">
        <ele>253</ele>
        <time>2019-04-02T09:58:50Z</time>
      </trkpt>
      <trkpt lat="47.72665" lon="3.64409">
        <ele>252</ele>
        <time>2019-04-02T09:58:53Z</time>
      </trkpt>
      <trkpt lat="47.72666" lon="3.64412">
        <ele>252</ele>
        <time>2019-04-02T09:58:56Z</time>
      </trkpt>
      <trkpt lat="47.72668" lon="3.6442">
        <ele>252</ele>
        <time>2019-04-02T09:58:59Z</time>
      </trkpt>
      <trkpt lat="47.72671" lon="3.64426">
        <ele>252</ele>
        <time>2019-04-02T09:59:04Z</time>
      </trkpt>
      <trkpt lat="47.72672" lon="3.64429">
        <ele>253</ele>
        <time>2019-04-02T09:59:06Z</time>
      </trkpt>
      <trkpt lat="47.72676" lon="3.64434">
        <ele>252</ele>
        <time>2019-04-02T09:59:10Z</time>
      </trkpt>
      <trkpt lat="47.72679" lon="3.64441">
        <ele>251</ele>
        <time>2019-04-02T09:59:14Z</time>
      </trkpt>
      <trkpt lat="47.72682" lon="3.64449">
        <ele>252</ele>
        <time>2019-04-02T09:59:18Z</time>
      </trkpt>
      <trkpt lat="47.72683" lon="3.64452">
        <ele>252</ele>
        <time>2019-04-02T09:59:20Z</time>
      </trkpt>
      <trkpt lat="47.72685" lon="3.64456">
        <ele>251</ele>
        <time>2019-04-02T09:59:22Z</time>
      </trkpt>
      <trkpt lat="47.72686" lon="3.64459">
        <ele>252</ele>
        <time>2019-04-02T09:59:24Z</time>
      </trkpt>
      <trkpt lat="47.72687" lon="3.64463">
        <ele>252</ele>
        <time>2019-04-02T09:59:26Z</time>
      </trkpt>
      <trkpt lat="47.72688" lon="3.64467">
        <ele>252</ele>
        <time>2019-04-02T09:59:29Z</time>
      </trkpt>
      <trkpt lat="47.7269" lon="3.64475">
        <ele>253</ele>
        <time>2019-04-02T09:59:33Z</time>
      </trkpt>
      <trkpt lat="47.72692" lon="3.64482">
        <ele>253</ele>
        <time>2019-04-02T09:59:37Z</time>
      </trkpt>
      <trkpt lat="47.72692" lon="3.64489">
        <ele>253</ele>
        <time>2019-04-02T09:59:41Z</time>
      </trkpt>
      <trkpt lat="47.72692" lon="3.64493">
        <ele>253</ele>
        <time>2019-04-02T09:59:43Z</time>
      </trkpt>
      <trkpt lat="47.72693" lon="3.64501">
        <ele>252</ele>
        <time>2019-04-02T09:59:48Z</time>
      </trkpt>
      <trkpt lat="47.72693" lon="3.64505">
        <ele>252</ele>
        <time>2019-04-02T09:59:50Z</time>
      </trkpt>
      <trkpt lat="47.72693" lon="3.64509">
        <ele>251</ele>
        <time>2019-04-02T09:59:52Z</time>
      </trkpt>
      <trkpt lat="47.72694" lon="3.64516">
        <ele>251</ele>
        <time>2019-04-02T09:59:56Z</time>
      </trkpt>
      <trkpt lat="47.72694" lon="3.6452">
        <ele>251</ele>
        <time>2019-04-02T09:59:58Z</time>
      </trkpt>
      <trkpt lat="47.72694" lon="3.64524">
        <ele>251</ele>
        <time>2019-04-02T10:00:00Z</time>
      </trkpt>
      <trkpt lat="47.72696" lon="3.64531">
        <ele>251</ele>
        <time>2019-04-02T10:00:03Z</time>
      </trkpt>
      <trkpt lat="47.72696" lon="3.64538">
        <ele>251</ele>
        <time>2019-04-02T10:00:07Z</time>
      </trkpt>
      <trkpt lat="47.72698" lon="3.64545">
        <ele>250</ele>
        <time>2019-04-02T10:00:13Z</time>
      </trkpt>
      <trkpt lat="47.72702" lon="3.64551">
        <ele>250</ele>
        <time>2019-04-02T10:00:20Z</time>
      </trkpt>
      <trkpt lat="47.72706" lon="3.64555">
        <ele>250</ele>
        <time>2019-04-02T10:00:25Z</time>
      </trkpt>
      <trkpt lat="47.72711" lon="3.6456">
        <ele>251</ele>
        <time>2019-04-02T10:00:29Z</time>
      </trkpt>
      <trkpt lat="47.72716" lon="3.64563">
        <ele>251</ele>
        <time>2019-04-02T10:00:33Z</time>
      </trkpt>
      <trkpt lat="47.7272" lon="3.64566">
        <ele>251</ele>
        <time>2019-04-02T10:00:36Z</time>
      </trkpt>
      <trkpt lat="47.72723" lon="3.64568">
        <ele>251</ele>
        <time>2019-04-02T10:00:38Z</time>
      </trkpt>
      <trkpt lat="47.72725" lon="3.6457">
        <ele>251</ele>
        <time>2019-04-02T10:00:40Z</time>
      </trkpt>
      <trkpt lat="47.72727" lon="3.64572">
        <ele>251</ele>
        <time>2019-04-02T10:00:42Z</time>
      </trkpt>
      <trkpt lat="47.72732" lon="3.64577">
        <ele>250</ele>
        <time>2019-04-02T10:00:46Z</time>
      </trkpt>
      <trkpt lat="47.72734" lon="3.6458">
        <ele>251</ele>
        <time>2019-04-02T10:00:49Z</time>
      </trkpt>
      <trkpt lat="47.72739" lon="3.64584">
        <ele>251</ele>
        <time>2019-04-02T10:00:52Z</time>
      </trkpt>
      <trkpt lat="47.72742" lon="3.64588">
        <ele>251</ele>
        <time>2019-04-02T10:00:55Z</time>
      </trkpt>
      <trkpt lat="47.72744" lon="3.64591">
        <ele>252</ele>
        <time>2019-04-02T10:00:58Z</time>
      </trkpt>
      <trkpt lat="47.72748" lon="3.64596">
        <ele>251</ele>
        <time>2019-04-02T10:01:02Z</time>
      </trkpt>
      <trkpt lat="47.72751" lon="3.64598">
        <ele>252</ele>
        <time>2019-04-02T10:01:04Z</time>
      </trkpt>
      <trkpt lat="47.72753" lon="3.64601">
        <ele>252</ele>
        <time>2019-04-02T10:01:07Z</time>
      </trkpt>
      <trkpt lat="47.72756" lon="3.64607">
        <ele>253</ele>
        <time>2019-04-02T10:01:11Z</time>
      </trkpt>
      <trkpt lat="47.72759" lon="3.6461">
        <ele>253</ele>
        <time>2019-04-02T10:01:14Z</time>
      </trkpt>
      <trkpt lat="47.72759" lon="3.64618">
        <ele>253</ele>
        <time>2019-04-02T10:01:19Z</time>
      </trkpt>
      <trkpt lat="47.72756" lon="3.64625">
        <ele>252</ele>
        <time>2019-04-02T10:01:23Z</time>
      </trkpt>
      <trkpt lat="47.72752" lon="3.64631">
        <ele>253</ele>
        <time>2019-04-02T10:01:27Z</time>
      </trkpt>
      <trkpt lat="47.72749" lon="3.64636">
        <ele>253</ele>
        <time>2019-04-02T10:01:30Z</time>
      </trkpt>
      <trkpt lat="47.72745" lon="3.6464">
        <ele>253</ele>
        <time>2019-04-02T10:01:34Z</time>
      </trkpt>
      <trkpt lat="47.72743" lon="3.64642">
        <ele>254</ele>
        <time>2019-04-02T10:01:36Z</time>
      </trkpt>
      <trkpt lat="47.72739" lon="3.64646">
        <ele>254</ele>
        <time>2019-04-02T10:01:39Z</time>
      </trkpt>
      <trkpt lat="47.72737" lon="3.64648">
        <ele>253</ele>
        <time>2019-04-02T10:01:41Z</time>
      </trkpt>
      <trkpt lat="47.72735" lon="3.64651">
        <ele>253</ele>
        <time>2019-04-02T10:01:43Z</time>
      </trkpt>
      <trkpt lat="47.72731" lon="3.64654">
        <ele>254</ele>
        <time>2019-04-02T10:01:46Z</time>
      </trkpt>
      <trkpt lat="47.72729" lon="3.64657">
        <ele>253</ele>
        <time>2019-04-02T10:01:48Z</time>
      </trkpt>
      <trkpt lat="47.72726" lon="3.6466">
        <ele>254</ele>
        <time>2019-04-02T10:01:51Z</time>
      </trkpt>
      <trkpt lat="47.72722" lon="3.64664">
        <ele>254</ele>
        <time>2019-04-02T10:01:55Z</time>
      </trkpt>
      <trkpt lat="47.72719" lon="3.64671">
        <ele>254</ele>
        <time>2019-04-02T10:01:59Z</time>
      </trkpt>
      <trkpt lat="47.72714" lon="3.64675">
        <ele>254</ele>
        <time>2019-04-02T10:02:03Z</time>
      </trkpt>
      <trkpt lat="47.7271" lon="3.64681">
        <ele>254</ele>
        <time>2019-04-02T10:02:07Z</time>
      </trkpt>
      <trkpt lat="47.72705" lon="3.64686">
        <ele>254</ele>
        <time>2019-04-02T10:02:11Z</time>
      </trkpt>
      <trkpt lat="47.72703" lon="3.64688">
        <ele>254</ele>
        <time>2019-04-02T10:02:13Z</time>
      </trkpt>
      <trkpt lat="47.72701" lon="3.6469">
        <ele>255</ele>
        <time>2019-04-02T10:02:15Z</time>
      </trkpt>
      <trkpt lat="47.72698" lon="3.64693">
        <ele>256</ele>
        <time>2019-04-02T10:02:18Z</time>
      </trkpt>
      <trkpt lat="47.72696" lon="3.64695">
        <ele>256</ele>
        <time>2019-04-02T10:02:20Z</time>
      </trkpt>
      <trkpt lat="47.72693" lon="3.64698">
        <ele>256</ele>
        <time>2019-04-02T10:02:23Z</time>
      </trkpt>
      <trkpt lat="47.7269" lon="3.64701">
        <ele>256</ele>
        <time>2019-04-02T10:02:26Z</time>
      </trkpt>
      <trkpt lat="47.72688" lon="3.64703">
        <ele>256</ele>
        <time>2019-04-02T10:02:28Z</time>
      </trkpt>
      <trkpt lat="47.72685" lon="3.64707">
        <ele>257</ele>
        <time>2019-04-02T10:02:31Z</time>
      </trkpt>
      <trkpt lat="47.72682" lon="3.64711">
        <ele>257</ele>
        <time>2019-04-02T10:02:34Z</time>
      </trkpt>
      <trkpt lat="47.72679" lon="3.64715">
        <ele>257</ele>
        <time>2019-04-02T10:02:37Z</time>
      </trkpt>
      <trkpt lat="47.72676" lon="3.64719">
        <ele>256</ele>
        <time>2019-04-02T10:02:40Z</time>
      </trkpt>
      <trkpt lat="47.72674" lon="3.64721">
        <ele>256</ele>
        <time>2019-04-02T10:02:42Z</time>
      </trkpt>
      <trkpt lat="47.7267" lon="3.64725">
        <ele>257</ele>
        <time>2019-04-02T10:02:46Z</time>
      </trkpt>
      <trkpt lat="47.72665" lon="3.64731">
        <ele>257</ele>
        <time>2019-04-02T10:02:50Z</time>
      </trkpt>
      <trkpt lat="47.72663" lon="3.64735">
        <ele>257</ele>
        <time>2019-04-02T10:02:53Z</time>
      </trkpt>
      <trkpt lat="47.72661" lon="3.64737">
        <ele>257</ele>
        <time>2019-04-02T10:02:55Z</time>
      </trkpt>
      <trkpt lat="47.72658" lon="3.6474">
        <ele>257</ele>
        <time>2019-04-02T10:02:57Z</time>
      </trkpt>
      <trkpt lat="47.72655" lon="3.64743">
        <ele>258</ele>
        <time>2019-04-02T10:03:00Z</time>
      </trkpt>
      <trkpt lat="47.72653" lon="3.64745">
        <ele>257</ele>
        <time>2019-04-02T10:03:02Z</time>
      </trkpt>
      <trkpt lat="47.72649" lon="3.64751">
        <ele>258</ele>
        <time>2019-04-02T10:03:06Z</time>
      </trkpt>
      <trkpt lat="47.72645" lon="3.64756">
        <ele>258</ele>
        <time>2019-04-02T10:03:10Z</time>
      </trkpt>
      <trkpt lat="47.7264" lon="3.64761">
        <ele>260</ele>
        <time>2019-04-02T10:03:14Z</time>
      </trkpt>
      <trkpt lat="47.72636" lon="3.64764">
        <ele>260</ele>
        <time>2019-04-02T10:03:18Z</time>
      </trkpt>
      <trkpt lat="47.72634" lon="3.64767">
        <ele>261</ele>
        <time>2019-04-02T10:03:20Z</time>
      </trkpt>
      <trkpt lat="47.72632" lon="3.6477">
        <ele>260</ele>
        <time>2019-04-02T10:03:22Z</time>
      </trkpt>
      <trkpt lat="47.72625" lon="3.64774">
        <ele>261</ele>
        <time>2019-04-02T10:03:27Z</time>
      </trkpt>
      <trkpt lat="47.72621" lon="3.64776">
        <ele>261</ele>
        <time>2019-04-02T10:03:30Z</time>
      </trkpt>
      <trkpt lat="47.72619" lon="3.64778">
        <ele>261</ele>
        <time>2019-04-02T10:03:32Z</time>
      </trkpt>
      <trkpt lat="47.72614" lon="3.64781">
        <ele>262</ele>
        <time>2019-04-02T10:03:36Z</time>
      </trkpt>
      <trkpt lat="47.72611" lon="3.64783">
        <ele>264</ele>
        <time>2019-04-02T10:03:39Z</time>
      </trkpt>
      <trkpt lat="47.72606" lon="3.64785">
        <ele>263</ele>
        <time>2019-04-02T10:03:44Z</time>
      </trkpt>
      <trkpt lat="47.72604" lon="3.64786">
        <ele>264</ele>
        <time>2019-04-02T10:03:46Z</time>
      </trkpt>
      <trkpt lat="47.72601" lon="3.64787">
        <ele>264</ele>
        <time>2019-04-02T10:03:48Z</time>
      </trkpt>
      <trkpt lat="47.72598" lon="3.64789">
        <ele>264</ele>
        <time>2019-04-02T10:03:51Z</time>
      </trkpt>
      <trkpt lat="47.72595" lon="3.6479">
        <ele>264</ele>
        <time>2019-04-02T10:03:53Z</time>
      </trkpt>
      <trkpt lat="47.72593" lon="3.6479">
        <ele>264</ele>
        <time>2019-04-02T10:03:55Z</time>
      </trkpt>
      <trkpt lat="47.7259" lon="3.64791">
        <ele>265</ele>
        <time>2019-04-02T10:03:58Z</time>
      </trkpt>
      <trkpt lat="47.72586" lon="3.64792">
        <ele>265</ele>
        <time>2019-04-02T10:04:02Z</time>
      </trkpt>
      <trkpt lat="47.72581" lon="3.64793">
        <ele>266</ele>
        <time>2019-04-02T10:04:06Z</time>
      </trkpt>
      <trkpt lat="47.72576" lon="3.64794">
        <ele>267</ele>
        <time>2019-04-02T10:04:10Z</time>
      </trkpt>
      <trkpt lat="47.72572" lon="3.64796">
        <ele>266</ele>
        <time>2019-04-02T10:04:14Z</time>
      </trkpt>
      <trkpt lat="47.72566" lon="3.64798">
        <ele>266</ele>
        <time>2019-04-02T10:04:18Z</time>
      </trkpt>
      <trkpt lat="47.72563" lon="3.64799">
        <ele>267</ele>
        <time>2019-04-02T10:04:21Z</time>
      </trkpt>
      <trkpt lat="47.7256" lon="3.648">
        <ele>267</ele>
        <time>2019-04-02T10:04:23Z</time>
      </trkpt>
      <trkpt lat="47.72557" lon="3.64801">
        <ele>267</ele>
        <time>2019-04-02T10:04:26Z</time>
      </trkpt>
      <trkpt lat="47.72553" lon="3.64803">
        <ele>267</ele>
        <time>2019-04-02T10:04:29Z</time>
      </trkpt>
      <trkpt lat="47.72548" lon="3.64804">
        <ele>268</ele>
        <time>2019-04-02T10:04:33Z</time>
      </trkpt>
      <trkpt lat="47.72545" lon="3.64804">
        <ele>268</ele>
        <time>2019-04-02T10:04:35Z</time>
      </trkpt>
      <trkpt lat="47.72542" lon="3.64805">
        <ele>269</ele>
        <time>2019-04-02T10:04:38Z</time>
      </trkpt>
      <trkpt lat="47.72539" lon="3.64806">
        <ele>269</ele>
        <time>2019-04-02T10:04:40Z</time>
      </trkpt>
      <trkpt lat="47.72534" lon="3.64807">
        <ele>269</ele>
        <time>2019-04-02T10:04:44Z</time>
      </trkpt>
      <trkpt lat="47.72532" lon="3.64807">
        <ele>270</ele>
        <time>2019-04-02T10:04:46Z</time>
      </trkpt>
      <trkpt lat="47.72526" lon="3.64808">
        <ele>271</ele>
        <time>2019-04-02T10:04:51Z</time>
      </trkpt>
      <trkpt lat="47.72522" lon="3.64811">
        <ele>272</ele>
        <time>2019-04-02T10:04:55Z</time>
      </trkpt>
      <trkpt lat="47.72519" lon="3.64813">
        <ele>272</ele>
        <time>2019-04-02T10:04:58Z</time>
      </trkpt>
      <trkpt lat="47.72516" lon="3.64814">
        <ele>272</ele>
        <time>2019-04-02T10:05:00Z</time>
      </trkpt>
      <trkpt lat="47.72511" lon="3.64816">
        <ele>273</ele>
        <time>2019-04-02T10:05:04Z</time>
      </trkpt>
      <trkpt lat="47.72506" lon="3.64818">
        <ele>274</ele>
        <time>2019-04-02T10:05:08Z</time>
      </trkpt>
      <trkpt lat="47.72502" lon="3.6482">
        <ele>275</ele>
        <time>2019-04-02T10:05:11Z</time>
      </trkpt>
      <trkpt lat="47.725" lon="3.64821">
        <ele>276</ele>
        <time>2019-04-02T10:05:13Z</time>
      </trkpt>
      <trkpt lat="47.72497" lon="3.64823">
        <ele>276</ele>
        <time>2019-04-02T10:05:16Z</time>
      </trkpt>
      <trkpt lat="47.72495" lon="3.64824">
        <ele>276</ele>
        <time>2019-04-02T10:05:18Z</time>
      </trkpt>
      <trkpt lat="47.72492" lon="3.64825">
        <ele>277</ele>
        <time>2019-04-02T10:05:20Z</time>
      </trkpt>
      <trkpt lat="47.72488" lon="3.64827">
        <ele>277</ele>
        <time>2019-04-02T10:05:23Z</time>
      </trkpt>
      <trkpt lat="47.72483" lon="3.64831">
        <ele>277</ele>
        <time>2019-04-02T10:05:27Z</time>
      </trkpt>
      <trkpt lat="47.72478" lon="3.64834">
        <ele>277</ele>
        <time>2019-04-02T10:05:32Z</time>
      </trkpt>
      <trkpt lat="47.72473" lon="3.64835">
        <ele>277</ele>
        <time>2019-04-02T10:05:36Z</time>
      </trkpt>
      <trkpt lat="47.72472" lon="3.64838">
        <ele>278</ele>
        <time>2019-04-02T10:05:45Z</time>
      </trkpt>
      <trkpt lat="47.72467" lon="3.64843">
        <ele>278</ele>
        <time>2019-04-02T10:05:55Z</time>
      </trkpt>
      <trkpt lat="47.72464" lon="3.64851">
        <ele>278</ele>
        <time>2019-04-02T10:05:59Z</time>
      </trkpt>
      <trkpt lat="47.7246" lon="3.64856">
        <ele>278</ele>
        <time>2019-04-02T10:06:03Z</time>
      </trkpt>
      <trkpt lat="47.72458" lon="3.64859">
        <ele>279</ele>
        <time>2019-04-02T10:06:07Z</time>
      </trkpt>
      <trkpt lat="47.72454" lon="3.64865">
        <ele>281</ele>
        <time>2019-04-02T10:06:11Z</time>
      </trkpt>
      <trkpt lat="47.72449" lon="3.6487">
        <ele>281</ele>
        <time>2019-04-02T10:06:17Z</time>
      </trkpt>
      <trkpt lat="47.72446" lon="3.64877">
        <ele>281</ele>
        <time>2019-04-02T10:06:22Z</time>
      </trkpt>
      <trkpt lat="47.72443" lon="3.64883">
        <ele>282</ele>
        <time>2019-04-02T10:06:26Z</time>
      </trkpt>
      <trkpt lat="47.72441" lon="3.64888">
        <ele>282</ele>
        <time>2019-04-02T10:06:29Z</time>
      </trkpt>
      <trkpt lat="47.72439" lon="3.64891">
        <ele>282</ele>
        <time>2019-04-02T10:06:31Z</time>
      </trkpt>
      <trkpt lat="47.72436" lon="3.64895">
        <ele>283</ele>
        <time>2019-04-02T10:06:35Z</time>
      </trkpt>
      <trkpt lat="47.72433" lon="3.64899">
        <ele>282</ele>
        <time>2019-04-02T10:06:37Z</time>
      </trkpt>
      <trkpt lat="47.7243" lon="3.64905">
        <ele>283</ele>
        <time>2019-04-02T10:06:41Z</time>
      </trkpt>
      <trkpt lat="47.72428" lon="3.64908">
        <ele>284</ele>
        <time>2019-04-02T10:06:43Z</time>
      </trkpt>
      <trkpt lat="47.72426" lon="3.64911">
        <ele>284</ele>
        <time>2019-04-02T10:06:47Z</time>
      </trkpt>
      <trkpt lat="47.72424" lon="3.64915">
        <ele>285</ele>
        <time>2019-04-02T10:06:49Z</time>
      </trkpt>
      <trkpt lat="47.72422" lon="3.64918">
        <ele>285</ele>
        <time>2019-04-02T10:06:51Z</time>
      </trkpt>
      <trkpt lat="47.72419" lon="3.64923">
        <ele>285</ele>
        <time>2019-04-02T10:06:57Z</time>
      </trkpt>
      <trkpt lat="47.72418" lon="3.6493">
        <ele>284</ele>
        <time>2019-04-02T10:07:01Z</time>
      </trkpt>
      <trkpt lat="47.72414" lon="3.64938">
        <ele>285</ele>
        <time>2019-04-02T10:07:05Z</time>
      </trkpt>
      <trkpt lat="47.72412" lon="3.64943">
        <ele>286</ele>
        <time>2019-04-02T10:07:09Z</time>
      </trkpt>
      <trkpt lat="47.7241" lon="3.64946">
        <ele>287</ele>
        <time>2019-04-02T10:07:11Z</time>
      </trkpt>
      <trkpt lat="47.72409" lon="3.64949">
        <ele>286</ele>
        <time>2019-04-02T10:07:13Z</time>
      </trkpt>
      <trkpt lat="47.72406" lon="3.64953">
        <ele>288</ele>
        <time>2019-04-02T10:07:18Z</time>
      </trkpt>
      <trkpt lat="47.72401" lon="3.64958">
        <ele>288</ele>
        <time>2019-04-02T10:07:24Z</time>
      </trkpt>
      <trkpt lat="47.72398" lon="3.64965">
        <ele>290</ele>
        <time>2019-04-02T10:07:28Z</time>
      </trkpt>
      <trkpt lat="47.72396" lon="3.64973">
        <ele>290</ele>
        <time>2019-04-02T10:07:34Z</time>
      </trkpt>
      <trkpt lat="47.72393" lon="3.64979">
        <ele>291</ele>
        <time>2019-04-02T10:07:39Z</time>
      </trkpt>
      <trkpt lat="47.72391" lon="3.64987">
        <ele>292</ele>
        <time>2019-04-02T10:07:44Z</time>
      </trkpt>
      <trkpt lat="47.7239" lon="3.64991">
        <ele>293</ele>
        <time>2019-04-02T10:07:46Z</time>
      </trkpt>
      <trkpt lat="47.72389" lon="3.64996">
        <ele>293</ele>
        <time>2019-04-02T10:07:50Z</time>
      </trkpt>
      <trkpt lat="47.72389" lon="3.64999">
        <ele>291</ele>
        <time>2019-04-02T10:07:59Z</time>
      </trkpt>
      <trkpt lat="47.72386" lon="3.65006">
        <ele>297</ele>
        <time>2019-04-02T10:11:17Z</time>
      </trkpt>
      <trkpt lat="47.72384" lon="3.6501">
        <ele>297</ele>
        <time>2019-04-02T10:11:21Z</time>
      </trkpt>
      <trkpt lat="47.72381" lon="3.65016">
        <ele>297</ele>
        <time>2019-04-02T10:11:25Z</time>
      </trkpt>
      <trkpt lat="47.72379" lon="3.65019">
        <ele>297</ele>
        <time>2019-04-02T10:11:27Z</time>
      </trkpt>
      <trkpt lat="47.72377" lon="3.65022">
        <ele>298</ele>
        <time>2019-04-02T10:11:31Z</time>
      </trkpt>
      <trkpt lat="47.72375" lon="3.65028">
        <ele>299</ele>
        <time>2019-04-02T10:11:35Z</time>
      </trkpt>
      <trkpt lat="47.72373" lon="3.65032">
        <ele>299</ele>
        <time>2019-04-02T10:11:37Z</time>
      </trkpt>
      <trkpt lat="47.7237" lon="3.65038">
        <ele>300</ele>
        <time>2019-04-02T10:11:40Z</time>
      </trkpt>
      <trkpt lat="47.72369" lon="3.65041">
        <ele>300</ele>
        <time>2019-04-02T10:11:42Z</time>
      </trkpt>
      <trkpt lat="47.72367" lon="3.65047">
        <ele>300</ele>
        <time>2019-04-02T10:11:45Z</time>
      </trkpt>
      <trkpt lat="47.72364" lon="3.65054">
        <ele>301</ele>
        <time>2019-04-02T10:11:49Z</time>
      </trkpt>
      <trkpt lat="47.72362" lon="3.6506">
        <ele>302</ele>
        <time>2019-04-02T10:11:52Z</time>
      </trkpt>
      <trkpt lat="47.7236" lon="3.65067">
        <ele>301</ele>
        <time>2019-04-02T10:11:56Z</time>
      </trkpt>
      <trkpt lat="47.72358" lon="3.65075">
        <ele>300</ele>
        <time>2019-04-02T10:12:01Z</time>
      </trkpt>
      <trkpt lat="47.72357" lon="3.65078">
        <ele>299</ele>
        <time>2019-04-02T10:12:05Z</time>
      </trkpt>
      <trkpt lat="47.72354" lon="3.65087">
        <ele>299</ele>
        <time>2019-04-02T10:12:10Z</time>
      </trkpt>
      <trkpt lat="47.72353" lon="3.65089">
        <ele>299</ele>
        <time>2019-04-02T10:12:12Z</time>
      </trkpt>
      <trkpt lat="47.72351" lon="3.65094">
        <ele>299</ele>
        <time>2019-04-02T10:12:15Z</time>
      </trkpt>
      <trkpt lat="47.72349" lon="3.651">
        <ele>300</ele>
        <time>2019-04-02T10:12:18Z</time>
      </trkpt>
      <trkpt lat="47.72346" lon="3.65107">
        <ele>299</ele>
        <time>2019-04-02T10:12:22Z</time>
      </trkpt>
      <trkpt lat="47.72343" lon="3.65114">
        <ele>299</ele>
        <time>2019-04-02T10:12:26Z</time>
      </trkpt>
      <trkpt lat="47.7234" lon="3.65121">
        <ele>298</ele>
        <time>2019-04-02T10:12:31Z</time>
      </trkpt>
      <trkpt lat="47.72339" lon="3.65128">
        <ele>298</ele>
        <time>2019-04-02T10:12:34Z</time>
      </trkpt>
      <trkpt lat="47.72337" lon="3.65134">
        <ele>298</ele>
        <time>2019-04-02T10:12:38Z</time>
      </trkpt>
      <trkpt lat="47.72336" lon="3.65138">
        <ele>299</ele>
        <time>2019-04-02T10:12:40Z</time>
      </trkpt>
      <trkpt lat="47.72334" lon="3.65142">
        <ele>299</ele>
        <time>2019-04-02T10:12:43Z</time>
      </trkpt>
      <trkpt lat="47.72333" lon="3.65146">
        <ele>299</ele>
        <time>2019-04-02T10:12:45Z</time>
      </trkpt>
      <trkpt lat="47.72332" lon="3.65149">
        <ele>299</ele>
        <time>2019-04-02T10:12:47Z</time>
      </trkpt>
      <trkpt lat="47.72329" lon="3.65156">
        <ele>298</ele>
        <time>2019-04-02T10:12:51Z</time>
      </trkpt>
      <trkpt lat="47.72327" lon="3.65161">
        <ele>298</ele>
        <time>2019-04-02T10:12:54Z</time>
      </trkpt>
      <trkpt lat="47.72325" lon="3.65164">
        <ele>299</ele>
        <time>2019-04-02T10:12:56Z</time>
      </trkpt>
      <trkpt lat="47.72324" lon="3.65167">
        <ele>298</ele>
        <time>2019-04-02T10:12:58Z</time>
      </trkpt>
      <trkpt lat="47.72321" lon="3.65174">
        <ele>298</ele>
        <time>2019-04-02T10:13:02Z</time>
      </trkpt>
      <trkpt lat="47.72319" lon="3.65181">
        <ele>298</ele>
        <time>2019-04-02T10:13:05Z</time>
      </trkpt>
      <trkpt lat="47.72315" lon="3.65186">
        <ele>298</ele>
        <time>2019-04-02T10:13:09Z</time>
      </trkpt>
      <trkpt lat="47.72312" lon="3.65192">
        <ele>297</ele>
        <time>2019-04-02T10:13:13Z</time>
      </trkpt>
      <trkpt lat="47.7231" lon="3.65196">
        <ele>297</ele>
        <time>2019-04-02T10:13:16Z</time>
      </trkpt>
      <trkpt lat="47.72306" lon="3.652">
        <ele>298</ele>
        <time>2019-04-02T10:13:19Z</time>
      </trkpt>
      <trkpt lat="47.72303" lon="3.65206">
        <ele>298</ele>
        <time>2019-04-02T10:13:25Z</time>
      </trkpt>
      <trkpt lat="47.72299" lon="3.6521">
        <ele>299</ele>
        <time>2019-04-02T10:13:29Z</time>
      </trkpt>
      <trkpt lat="47.72295" lon="3.65213">
        <ele>299</ele>
        <time>2019-04-02T10:13:32Z</time>
      </trkpt>
      <trkpt lat="47.72292" lon="3.65219">
        <ele>299</ele>
        <time>2019-04-02T10:13:36Z</time>
      </trkpt>
      <trkpt lat="47.72287" lon="3.65224">
        <ele>299</ele>
        <time>2019-04-02T10:13:40Z</time>
      </trkpt>
      <trkpt lat="47.72284" lon="3.65229">
        <ele>299</ele>
        <time>2019-04-02T10:13:44Z</time>
      </trkpt>
      <trkpt lat="47.7228" lon="3.65233">
        <ele>299</ele>
        <time>2019-04-02T10:13:48Z</time>
      </trkpt>
      <trkpt lat="47.72279" lon="3.65236">
        <ele>300</ele>
        <time>2019-04-02T10:13:50Z</time>
      </trkpt>
      <trkpt lat="47.72276" lon="3.65239">
        <ele>300</ele>
        <time>2019-04-02T10:13:53Z</time>
      </trkpt>
      <trkpt lat="47.72273" lon="3.65245">
        <ele>300</ele>
        <time>2019-04-02T10:13:57Z</time>
      </trkpt>
      <trkpt lat="47.72272" lon="3.65248">
        <ele>299</ele>
        <time>2019-04-02T10:13:59Z</time>
      </trkpt>
      <trkpt lat="47.7227" lon="3.65252">
        <ele>299</ele>
        <time>2019-04-02T10:14:01Z</time>
      </trkpt>
      <trkpt lat="47.72268" lon="3.65255">
        <ele>299</ele>
        <time>2019-04-02T10:14:03Z</time>
      </trkpt>
      <trkpt lat="47.72266" lon="3.65259">
        <ele>299</ele>
        <time>2019-04-02T10:14:05Z</time>
      </trkpt>
      <trkpt lat="47.72264" lon="3.65264">
        <ele>300</ele>
        <time>2019-04-02T10:14:08Z</time>
      </trkpt>
      <trkpt lat="47.72263" lon="3.65267">
        <ele>299</ele>
        <time>2019-04-02T10:14:10Z</time>
      </trkpt>
      <trkpt lat="47.72261" lon="3.65273">
        <ele>299</ele>
        <time>2019-04-02T10:14:13Z</time>
      </trkpt>
      <trkpt lat="47.72259" lon="3.65276">
        <ele>299</ele>
        <time>2019-04-02T10:14:15Z</time>
      </trkpt>
      <trkpt lat="47.72258" lon="3.65284">
        <ele>299</ele>
        <time>2019-04-02T10:14:19Z</time>
      </trkpt>
      <trkpt lat="47.72257" lon="3.6529">
        <ele>299</ele>
        <time>2019-04-02T10:14:22Z</time>
      </trkpt>
      <trkpt lat="47.72254" lon="3.65297">
        <ele>300</ele>
        <time>2019-04-02T10:14:26Z</time>
      </trkpt>
      <trkpt lat="47.72252" lon="3.653">
        <ele>300</ele>
        <time>2019-04-02T10:14:28Z</time>
      </trkpt>
      <trkpt lat="47.72251" lon="3.65304">
        <ele>301</ele>
        <time>2019-04-02T10:14:30Z</time>
      </trkpt>
      <trkpt lat="47.72249" lon="3.65308">
        <ele>300</ele>
        <time>2019-04-02T10:14:32Z</time>
      </trkpt>
      <trkpt lat="47.72248" lon="3.65312">
        <ele>300</ele>
        <time>2019-04-02T10:14:34Z</time>
      </trkpt>
      <trkpt lat="47.72247" lon="3.65321">
        <ele>300</ele>
        <time>2019-04-02T10:14:38Z</time>
      </trkpt>
      <trkpt lat="47.72246" lon="3.65325">
        <ele>300</ele>
        <time>2019-04-02T10:14:40Z</time>
      </trkpt>
      <trkpt lat="47.72244" lon="3.65331">
        <ele>300</ele>
        <time>2019-04-02T10:14:43Z</time>
      </trkpt>
      <trkpt lat="47.72241" lon="3.65337">
        <ele>301</ele>
        <time>2019-04-02T10:14:47Z</time>
      </trkpt>
      <trkpt lat="47.7224" lon="3.6534">
        <ele>300</ele>
        <time>2019-04-02T10:14:49Z</time>
      </trkpt>
      <trkpt lat="47.72238" lon="3.65344">
        <ele>301</ele>
        <time>2019-04-02T10:14:52Z</time>
      </trkpt>
      <trkpt lat="47.72236" lon="3.6535">
        <ele>301</ele>
        <time>2019-04-02T10:14:55Z</time>
      </trkpt>
      <trkpt lat="47.72235" lon="3.65353">
        <ele>301</ele>
        <time>2019-04-02T10:14:57Z</time>
      </trkpt>
      <trkpt lat="47.72233" lon="3.65357">
        <ele>301</ele>
        <time>2019-04-02T10:14:59Z</time>
      </trkpt>
      <trkpt lat="47.72232" lon="3.65365">
        <ele>301</ele>
        <time>2019-04-02T10:15:03Z</time>
      </trkpt>
      <trkpt lat="47.7223" lon="3.6537">
        <ele>300</ele>
        <time>2019-04-02T10:15:06Z</time>
      </trkpt>
      <trkpt lat="47.72228" lon="3.65376">
        <ele>300</ele>
        <time>2019-04-02T10:15:10Z</time>
      </trkpt>
      <trkpt lat="47.72227" lon="3.6538">
        <ele>300</ele>
        <time>2019-04-02T10:15:12Z</time>
      </trkpt>
      <trkpt lat="47.72226" lon="3.65387">
        <ele>300</ele>
        <time>2019-04-02T10:15:16Z</time>
      </trkpt>
      <trkpt lat="47.72225" lon="3.65391">
        <ele>300</ele>
        <time>2019-04-02T10:15:18Z</time>
      </trkpt>
      <trkpt lat="47.72223" lon="3.65399">
        <ele>300</ele>
        <time>2019-04-02T10:15:22Z</time>
      </trkpt>
      <trkpt lat="47.72221" lon="3.65406">
        <ele>300</ele>
        <time>2019-04-02T10:15:26Z</time>
      </trkpt>
      <trkpt lat="47.72221" lon="3.6541">
        <ele>300</ele>
        <time>2019-04-02T10:15:28Z</time>
      </trkpt>
      <trkpt lat="47.7222" lon="3.65413">
        <ele>301</ele>
        <time>2019-04-02T10:15:30Z</time>
      </trkpt>
      <trkpt lat="47.72219" lon="3.65418">
        <ele>301</ele>
        <time>2019-04-02T10:15:33Z</time>
      </trkpt>
      <trkpt lat="47.72218" lon="3.65422">
        <ele>301</ele>
        <time>2019-04-02T10:15:35Z</time>
      </trkpt>
      <trkpt lat="47.72217" lon="3.65426">
        <ele>301</ele>
        <time>2019-04-02T10:15:37Z</time>
      </trkpt>
      <trkpt lat="47.72216" lon="3.65434">
        <ele>301</ele>
        <time>2019-04-02T10:15:41Z</time>
      </trkpt>
      <trkpt lat="47.72215" lon="3.65439">
        <ele>301</ele>
        <time>2019-04-02T10:15:43Z</time>
      </trkpt>
      <trkpt lat="47.72214" lon="3.65444">
        <ele>301</ele>
        <time>2019-04-02T10:15:45Z</time>
      </trkpt>
      <trkpt lat="47.72211" lon="3.65451">
        <ele>301</ele>
        <time>2019-04-02T10:15:49Z</time>
      </trkpt>
      <trkpt lat="47.72209" lon="3.65457">
        <ele>301</ele>
        <time>2019-04-02T10:15:52Z</time>
      </trkpt>
      <trkpt lat="47.72208" lon="3.65464">
        <ele>301</ele>
        <time>2019-04-02T10:15:56Z</time>
      </trkpt>
      <trkpt lat="47.72207" lon="3.65469">
        <ele>300</ele>
        <time>2019-04-02T10:15:59Z</time>
      </trkpt>
      <trkpt lat="47.72205" lon="3.65475">
        <ele>301</ele>
        <time>2019-04-02T10:16:02Z</time>
      </trkpt>
      <trkpt lat="47.72204" lon="3.65483">
        <ele>301</ele>
        <time>2019-04-02T10:16:06Z</time>
      </trkpt>
      <trkpt lat="47.72203" lon="3.65486">
        <ele>301</ele>
        <time>2019-04-02T10:16:08Z</time>
      </trkpt>
      <trkpt lat="47.72202" lon="3.65494">
        <ele>301</ele>
        <time>2019-04-02T10:16:12Z</time>
      </trkpt>
      <trkpt lat="47.72201" lon="3.65502">
        <ele>300</ele>
        <time>2019-04-02T10:16:16Z</time>
      </trkpt>
      <trkpt lat="47.72201" lon="3.65506">
        <ele>300</ele>
        <time>2019-04-02T10:16:18Z</time>
      </trkpt>
      <trkpt lat="47.722" lon="3.6551">
        <ele>301</ele>
        <time>2019-04-02T10:16:20Z</time>
      </trkpt>
      <trkpt lat="47.72198" lon="3.65516">
        <ele>302</ele>
        <time>2019-04-02T10:16:24Z</time>
      </trkpt>
      <trkpt lat="47.72198" lon="3.65524">
        <ele>301</ele>
        <time>2019-04-02T10:16:28Z</time>
      </trkpt>
      <trkpt lat="47.72197" lon="3.65528">
        <ele>301</ele>
        <time>2019-04-02T10:16:30Z</time>
      </trkpt>
      <trkpt lat="47.72197" lon="3.65532">
        <ele>301</ele>
        <time>2019-04-02T10:16:32Z</time>
      </trkpt>
      <trkpt lat="47.72197" lon="3.65536">
        <ele>301</ele>
        <time>2019-04-02T10:16:34Z</time>
      </trkpt>
      <trkpt lat="47.72196" lon="3.65539">
        <ele>301</ele>
        <time>2019-04-02T10:16:36Z</time>
      </trkpt>
      <trkpt lat="47.72196" lon="3.65543">
        <ele>301</ele>
        <time>2019-04-02T10:16:38Z</time>
      </trkpt>
      <trkpt lat="47.72196" lon="3.65551">
        <ele>302</ele>
        <time>2019-04-02T10:16:42Z</time>
      </trkpt>
      <trkpt lat="47.72195" lon="3.6556">
        <ele>301</ele>
        <time>2019-04-02T10:16:46Z</time>
      </trkpt>
      <trkpt lat="47.72195" lon="3.65567">
        <ele>302</ele>
        <time>2019-04-02T10:16:50Z</time>
      </trkpt>
      <trkpt lat="47.72195" lon="3.65571">
        <ele>302</ele>
        <time>2019-04-02T10:16:52Z</time>
      </trkpt>
      <trkpt lat="47.72196" lon="3.65577">
        <ele>301</ele>
        <time>2019-04-02T10:16:55Z</time>
      </trkpt>
      <trkpt lat="47.72195" lon="3.65585">
        <ele>301</ele>
        <time>2019-04-02T10:16:59Z</time>
      </trkpt>
      <trkpt lat="47.72195" lon="3.65589">
        <ele>301</ele>
        <time>2019-04-02T10:17:01Z</time>
      </trkpt>
      <trkpt lat="47.72196" lon="3.65597">
        <ele>301</ele>
        <time>2019-04-02T10:17:05Z</time>
      </trkpt>
      <trkpt lat="47.72196" lon="3.65601">
        <ele>302</ele>
        <time>2019-04-02T10:17:07Z</time>
      </trkpt>
      <trkpt lat="47.72196" lon="3.65608">
        <ele>302</ele>
        <time>2019-04-02T10:17:10Z</time>
      </trkpt>
      <trkpt lat="47.72197" lon="3.65614">
        <ele>302</ele>
        <time>2019-04-02T10:17:13Z</time>
      </trkpt>
      <trkpt lat="47.72197" lon="3.65618">
        <ele>303</ele>
        <time>2019-04-02T10:17:15Z</time>
      </trkpt>
      <trkpt lat="47.72196" lon="3.65626">
        <ele>303</ele>
        <time>2019-04-02T10:17:19Z</time>
      </trkpt>
      <trkpt lat="47.72198" lon="3.65632">
        <ele>303</ele>
        <time>2019-04-02T10:17:23Z</time>
      </trkpt>
      <trkpt lat="47.72198" lon="3.65643">
        <ele>303</ele>
        <time>2019-04-02T10:17:30Z</time>
      </trkpt>
      <trkpt lat="47.72198" lon="3.6565">
        <ele>303</ele>
        <time>2019-04-02T10:17:35Z</time>
      </trkpt>
      <trkpt lat="47.72201" lon="3.65658">
        <ele>304</ele>
        <time>2019-04-02T10:17:39Z</time>
      </trkpt>
      <trkpt lat="47.72202" lon="3.65667">
        <ele>303</ele>
        <time>2019-04-02T10:17:44Z</time>
      </trkpt>
      <trkpt lat="47.72204" lon="3.65675">
        <ele>301</ele>
        <time>2019-04-02T10:17:49Z</time>
      </trkpt>
      <trkpt lat="47.72205" lon="3.65682">
        <ele>302</ele>
        <time>2019-04-02T10:17:52Z</time>
      </trkpt>
      <trkpt lat="47.72206" lon="3.65688">
        <ele>302</ele>
        <time>2019-04-02T10:17:55Z</time>
      </trkpt>
      <trkpt lat="47.72207" lon="3.65692">
        <ele>301</ele>
        <time>2019-04-02T10:17:57Z</time>
      </trkpt>
      <trkpt lat="47.72208" lon="3.65699">
        <ele>301</ele>
        <time>2019-04-02T10:18:00Z</time>
      </trkpt>
      <trkpt lat="47.72209" lon="3.65706">
        <ele>301</ele>
        <time>2019-04-02T10:18:04Z</time>
      </trkpt>
      <trkpt lat="47.72211" lon="3.65714">
        <ele>302</ele>
        <time>2019-04-02T10:18:08Z</time>
      </trkpt>
      <trkpt lat="47.72212" lon="3.6572">
        <ele>301</ele>
        <time>2019-04-02T10:18:11Z</time>
      </trkpt>
      <trkpt lat="47.72213" lon="3.65725">
        <ele>302</ele>
        <time>2019-04-02T10:18:13Z</time>
      </trkpt>
      <trkpt lat="47.72214" lon="3.65729">
        <ele>303</ele>
        <time>2019-04-02T10:18:15Z</time>
      </trkpt>
      <trkpt lat="47.72216" lon="3.65736">
        <ele>302</ele>
        <time>2019-04-02T10:18:18Z</time>
      </trkpt>
      <trkpt lat="47.72218" lon="3.65744">
        <ele>302</ele>
        <time>2019-04-02T10:18:22Z</time>
      </trkpt>
      <trkpt lat="47.7222" lon="3.6575">
        <ele>302</ele>
        <time>2019-04-02T10:18:25Z</time>
      </trkpt>
      <trkpt lat="47.72221" lon="3.65756">
        <ele>301</ele>
        <time>2019-04-02T10:18:28Z</time>
      </trkpt>
      <trkpt lat="47.72221" lon="3.65763">
        <ele>301</ele>
        <time>2019-04-02T10:18:32Z</time>
      </trkpt>
      <trkpt lat="47.72222" lon="3.65772">
        <ele>303</ele>
        <time>2019-04-02T10:18:37Z</time>
      </trkpt>
      <trkpt lat="47.72223" lon="3.6578">
        <ele>302</ele>
        <time>2019-04-02T10:18:41Z</time>
      </trkpt>
      <trkpt lat="47.72224" lon="3.65785">
        <ele>302</ele>
        <time>2019-04-02T10:18:43Z</time>
      </trkpt>
      <trkpt lat="47.72224" lon="3.65789">
        <ele>302</ele>
        <time>2019-04-02T10:18:45Z</time>
      </trkpt>
      <trkpt lat="47.72225" lon="3.65797">
        <ele>301</ele>
        <time>2019-04-02T10:18:49Z</time>
      </trkpt>
      <trkpt lat="47.72226" lon="3.65805">
        <ele>301</ele>
        <time>2019-04-02T10:18:53Z</time>
      </trkpt>
      <trkpt lat="47.72227" lon="3.6581">
        <ele>301</ele>
        <time>2019-04-02T10:18:55Z</time>
      </trkpt>
      <trkpt lat="47.72229" lon="3.65816">
        <ele>301</ele>
        <time>2019-04-02T10:18:58Z</time>
      </trkpt>
      <trkpt lat="47.7223" lon="3.65824">
        <ele>302</ele>
        <time>2019-04-02T10:19:02Z</time>
      </trkpt>
      <trkpt lat="47.72231" lon="3.65829">
        <ele>302</ele>
        <time>2019-04-02T10:19:04Z</time>
      </trkpt>
      <trkpt lat="47.72231" lon="3.65835">
        <ele>302</ele>
        <time>2019-04-02T10:19:07Z</time>
      </trkpt>
      <trkpt lat="47.72231" lon="3.65839">
        <ele>302</ele>
        <time>2019-04-02T10:19:09Z</time>
      </trkpt>
      <trkpt lat="47.72232" lon="3.65847">
        <ele>303</ele>
        <time>2019-04-02T10:19:13Z</time>
      </trkpt>
      <trkpt lat="47.72234" lon="3.65854">
        <ele>303</ele>
        <time>2019-04-02T10:19:17Z</time>
      </trkpt>
      <trkpt lat="47.72235" lon="3.65864">
        <ele>304</ele>
        <time>2019-04-02T10:19:22Z</time>
      </trkpt>
      <trkpt lat="47.72237" lon="3.65871">
        <ele>303</ele>
        <time>2019-04-02T10:19:26Z</time>
      </trkpt>
      <trkpt lat="47.72238" lon="3.65879">
        <ele>304</ele>
        <time>2019-04-02T10:19:30Z</time>
      </trkpt>
      <trkpt lat="47.72239" lon="3.65887">
        <ele>304</ele>
        <time>2019-04-02T10:19:34Z</time>
      </trkpt>
      <trkpt lat="47.72241" lon="3.65895">
        <ele>303</ele>
        <time>2019-04-02T10:19:38Z</time>
      </trkpt>
      <trkpt lat="47.72242" lon="3.65902">
        <ele>304</ele>
        <time>2019-04-02T10:19:41Z</time>
      </trkpt>
      <trkpt lat="47.72242" lon="3.65906">
        <ele>304</ele>
        <time>2019-04-02T10:19:43Z</time>
      </trkpt>
      <trkpt lat="47.72245" lon="3.65913">
        <ele>303</ele>
        <time>2019-04-02T10:19:47Z</time>
      </trkpt>
      <trkpt lat="47.72246" lon="3.65917">
        <ele>303</ele>
        <time>2019-04-02T10:19:49Z</time>
      </trkpt>
      <trkpt lat="47.72247" lon="3.6592">
        <ele>303</ele>
        <time>2019-04-02T10:19:51Z</time>
      </trkpt>
      <trkpt lat="47.72248" lon="3.65924">
        <ele>302</ele>
        <time>2019-04-02T10:19:53Z</time>
      </trkpt>
      <trkpt lat="47.7225" lon="3.65934">
        <ele>302</ele>
        <time>2019-04-02T10:19:58Z</time>
      </trkpt>
      <trkpt lat="47.72251" lon="3.65938">
        <ele>302</ele>
        <time>2019-04-02T10:20:00Z</time>
      </trkpt>
      <trkpt lat="47.72251" lon="3.65942">
        <ele>302</ele>
        <time>2019-04-02T10:20:02Z</time>
      </trkpt>
      <trkpt lat="47.72252" lon="3.65946">
        <ele>302</ele>
        <time>2019-04-02T10:20:04Z</time>
      </trkpt>
      <trkpt lat="47.72254" lon="3.65953">
        <ele>303</ele>
        <time>2019-04-02T10:20:08Z</time>
      </trkpt>
      <trkpt lat="47.72255" lon="3.6596">
        <ele>303</ele>
        <time>2019-04-02T10:20:12Z</time>
      </trkpt>
      <trkpt lat="47.72255" lon="3.65964">
        <ele>302</ele>
        <time>2019-04-02T10:20:14Z</time>
      </trkpt>
      <trkpt lat="47.72257" lon="3.65972">
        <ele>302</ele>
        <time>2019-04-02T10:20:18Z</time>
      </trkpt>
      <trkpt lat="47.72258" lon="3.65981">
        <ele>302</ele>
        <time>2019-04-02T10:20:22Z</time>
      </trkpt>
      <trkpt lat="47.72259" lon="3.65987">
        <ele>302</ele>
        <time>2019-04-02T10:20:25Z</time>
      </trkpt>
      <trkpt lat="47.7226" lon="3.65991">
        <ele>302</ele>
        <time>2019-04-02T10:20:27Z</time>
      </trkpt>
      <trkpt lat="47.7226" lon="3.65995">
        <ele>302</ele>
        <time>2019-04-02T10:20:29Z</time>
      </trkpt>
      <trkpt lat="47.72261" lon="3.66001">
        <ele>302</ele>
        <time>2019-04-02T10:20:32Z</time>
      </trkpt>
      <trkpt lat="47.72262" lon="3.66009">
        <ele>303</ele>
        <time>2019-04-02T10:20:36Z</time>
      </trkpt>
      <trkpt lat="47.72263" lon="3.66017">
        <ele>302</ele>
        <time>2019-04-02T10:20:40Z</time>
      </trkpt>
      <trkpt lat="47.72264" lon="3.66024">
        <ele>301</ele>
        <time>2019-04-02T10:20:44Z</time>
      </trkpt>
      <trkpt lat="47.72264" lon="3.66033">
        <ele>301</ele>
        <time>2019-04-02T10:20:48Z</time>
      </trkpt>
      <trkpt lat="47.72264" lon="3.66038">
        <ele>301</ele>
        <time>2019-04-02T10:20:50Z</time>
      </trkpt>
      <trkpt lat="47.72264" lon="3.66042">
        <ele>302</ele>
        <time>2019-04-02T10:20:53Z</time>
      </trkpt>
      <trkpt lat="47.72264" lon="3.66046">
        <ele>303</ele>
        <time>2019-04-02T10:20:55Z</time>
      </trkpt>
      <trkpt lat="47.72264" lon="3.6605">
        <ele>303</ele>
        <time>2019-04-02T10:20:57Z</time>
      </trkpt>
      <trkpt lat="47.72264" lon="3.66058">
        <ele>304</ele>
        <time>2019-04-02T10:21:01Z</time>
      </trkpt>
      <trkpt lat="47.72264" lon="3.66062">
        <ele>304</ele>
        <time>2019-04-02T10:21:03Z</time>
      </trkpt>
      <trkpt lat="47.72264" lon="3.66069">
        <ele>305</ele>
        <time>2019-04-02T10:21:07Z</time>
      </trkpt>
      <trkpt lat="47.72264" lon="3.66077">
        <ele>305</ele>
        <time>2019-04-02T10:21:11Z</time>
      </trkpt>
      <trkpt lat="47.72264" lon="3.66081">
        <ele>305</ele>
        <time>2019-04-02T10:21:13Z</time>
      </trkpt>
      <trkpt lat="47.72265" lon="3.66085">
        <ele>304</ele>
        <time>2019-04-02T10:21:15Z</time>
      </trkpt>
      <trkpt lat="47.72265" lon="3.66089">
        <ele>305</ele>
        <time>2019-04-02T10:21:17Z</time>
      </trkpt>
      <trkpt lat="47.72265" lon="3.66094">
        <ele>304</ele>
        <time>2019-04-02T10:21:19Z</time>
      </trkpt>
      <trkpt lat="47.72266" lon="3.661">
        <ele>305</ele>
        <time>2019-04-02T10:21:22Z</time>
      </trkpt>
      <trkpt lat="47.72265" lon="3.66108">
        <ele>305</ele>
        <time>2019-04-02T10:21:26Z</time>
      </trkpt>
      <trkpt lat="47.72265" lon="3.66112">
        <ele>305</ele>
        <time>2019-04-02T10:21:28Z</time>
      </trkpt>
      <trkpt lat="47.72265" lon="3.66117">
        <ele>305</ele>
        <time>2019-04-02T10:21:30Z</time>
      </trkpt>
      <trkpt lat="47.72266" lon="3.66125">
        <ele>305</ele>
        <time>2019-04-02T10:21:34Z</time>
      </trkpt>
      <trkpt lat="47.72266" lon="3.6613">
        <ele>305</ele>
        <time>2019-04-02T10:21:36Z</time>
      </trkpt>
      <trkpt lat="47.72266" lon="3.66136">
        <ele>305</ele>
        <time>2019-04-02T10:21:39Z</time>
      </trkpt>
      <trkpt lat="47.72267" lon="3.66143">
        <ele>305</ele>
        <time>2019-04-02T10:21:42Z</time>
      </trkpt>
      <trkpt lat="47.72267" lon="3.66146">
        <ele>305</ele>
        <time>2019-04-02T10:21:44Z</time>
      </trkpt>
      <trkpt lat="47.72267" lon="3.6615">
        <ele>305</ele>
        <time>2019-04-02T10:21:46Z</time>
      </trkpt>
      <trkpt lat="47.72269" lon="3.66158">
        <ele>306</ele>
        <time>2019-04-02T10:21:50Z</time>
      </trkpt>
      <trkpt lat="47.72269" lon="3.66166">
        <ele>305</ele>
        <time>2019-04-02T10:21:54Z</time>
      </trkpt>
      <trkpt lat="47.7227" lon="3.66173">
        <ele>304</ele>
        <time>2019-04-02T10:21:57Z</time>
      </trkpt>
      <trkpt lat="47.72271" lon="3.66181">
        <ele>305</ele>
        <time>2019-04-02T10:22:02Z</time>
      </trkpt>
      <trkpt lat="47.72272" lon="3.66188">
        <ele>306</ele>
        <time>2019-04-02T10:22:06Z</time>
      </trkpt>
      <trkpt lat="47.72272" lon="3.66194">
        <ele>305</ele>
        <time>2019-04-02T10:22:09Z</time>
      </trkpt>
      <trkpt lat="47.72272" lon="3.66198">
        <ele>306</ele>
        <time>2019-04-02T10:22:11Z</time>
      </trkpt>
      <trkpt lat="47.72274" lon="3.66206">
        <ele>305</ele>
        <time>2019-04-02T10:22:15Z</time>
      </trkpt>
      <trkpt lat="47.72274" lon="3.66214">
        <ele>306</ele>
        <time>2019-04-02T10:22:19Z</time>
      </trkpt>
      <trkpt lat="47.72274" lon="3.66218">
        <ele>307</ele>
        <time>2019-04-02T10:22:21Z</time>
      </trkpt>
      <trkpt lat="47.72273" lon="3.66225">
        <ele>306</ele>
        <time>2019-04-02T10:22:24Z</time>
      </trkpt>
      <trkpt lat="47.72273" lon="3.66232">
        <ele>306</ele>
        <time>2019-04-02T10:22:27Z</time>
      </trkpt>
      <trkpt lat="47.72273" lon="3.66236">
        <ele>305</ele>
        <time>2019-04-02T10:22:29Z</time>
      </trkpt>
      <trkpt lat="47.72274" lon="3.6624">
        <ele>306</ele>
        <time>2019-04-02T10:22:31Z</time>
      </trkpt>
      <trkpt lat="47.72273" lon="3.66244">
        <ele>305</ele>
        <time>2019-04-02T10:22:33Z</time>
      </trkpt>
      <trkpt lat="47.72273" lon="3.66248">
        <ele>305</ele>
        <time>2019-04-02T10:22:35Z</time>
      </trkpt>
      <trkpt lat="47.72275" lon="3.66256">
        <ele>306</ele>
        <time>2019-04-02T10:22:39Z</time>
      </trkpt>
      <trkpt lat="47.72275" lon="3.66263">
        <ele>305</ele>
        <time>2019-04-02T10:22:42Z</time>
      </trkpt>
      <trkpt lat="47.72274" lon="3.66269">
        <ele>305</ele>
        <time>2019-04-02T10:22:45Z</time>
      </trkpt>
      <trkpt lat="47.72275" lon="3.66277">
        <ele>305</ele>
        <time>2019-04-02T10:22:49Z</time>
      </trkpt>
      <trkpt lat="47.72275" lon="3.66284">
        <ele>304</ele>
        <time>2019-04-02T10:22:52Z</time>
      </trkpt>
      <trkpt lat="47.72276" lon="3.66292">
        <ele>304</ele>
        <time>2019-04-02T10:22:56Z</time>
      </trkpt>
      <trkpt lat="47.72276" lon="3.66298">
        <ele>304</ele>
        <time>2019-04-02T10:22:59Z</time>
      </trkpt>
      <trkpt lat="47.72276" lon="3.66302">
        <ele>304</ele>
        <time>2019-04-02T10:23:01Z</time>
      </trkpt>
      <trkpt lat="47.72277" lon="3.6631">
        <ele>305</ele>
        <time>2019-04-02T10:23:05Z</time>
      </trkpt>
      <trkpt lat="47.72277" lon="3.66318">
        <ele>305</ele>
        <time>2019-04-02T10:23:08Z</time>
      </trkpt>
      <trkpt lat="47.72278" lon="3.66323">
        <ele>304</ele>
        <time>2019-04-02T10:23:11Z</time>
      </trkpt>
      <trkpt lat="47.72279" lon="3.6633">
        <ele>303</ele>
        <time>2019-04-02T10:23:14Z</time>
      </trkpt>
      <trkpt lat="47.72279" lon="3.6634">
        <ele>303</ele>
        <time>2019-04-02T10:23:19Z</time>
      </trkpt>
      <trkpt lat="47.72278" lon="3.66347">
        <ele>303</ele>
        <time>2019-04-02T10:23:23Z</time>
      </trkpt>
      <trkpt lat="47.72279" lon="3.66355">
        <ele>304</ele>
        <time>2019-04-02T10:23:27Z</time>
      </trkpt>
      <trkpt lat="47.72279" lon="3.66361">
        <ele>303</ele>
        <time>2019-04-02T10:23:30Z</time>
      </trkpt>
      <trkpt lat="47.72279" lon="3.66365">
        <ele>303</ele>
        <time>2019-04-02T10:23:32Z</time>
      </trkpt>
      <trkpt lat="47.72279" lon="3.66374">
        <ele>303</ele>
        <time>2019-04-02T10:23:36Z</time>
      </trkpt>
      <trkpt lat="47.7228" lon="3.66378">
        <ele>304</ele>
        <time>2019-04-02T10:23:38Z</time>
      </trkpt>
      <trkpt lat="47.7228" lon="3.66385">
        <ele>304</ele>
        <time>2019-04-02T10:23:41Z</time>
      </trkpt>
      <trkpt lat="47.7228" lon="3.66389">
        <ele>304</ele>
        <time>2019-04-02T10:23:43Z</time>
      </trkpt>
      <trkpt lat="47.72281" lon="3.66396">
        <ele>304</ele>
        <time>2019-04-02T10:23:47Z</time>
      </trkpt>
      <trkpt lat="47.72281" lon="3.66405">
        <ele>304</ele>
        <time>2019-04-02T10:23:51Z</time>
      </trkpt>
      <trkpt lat="47.72281" lon="3.66412">
        <ele>304</ele>
        <time>2019-04-02T10:23:54Z</time>
      </trkpt>
      <trkpt lat="47.72282" lon="3.66416">
        <ele>304</ele>
        <time>2019-04-02T10:23:56Z</time>
      </trkpt>
      <trkpt lat="47.72282" lon="3.66424">
        <ele>304</ele>
        <time>2019-04-02T10:24:00Z</time>
      </trkpt>
      <trkpt lat="47.72282" lon="3.66428">
        <ele>303</ele>
        <time>2019-04-02T10:24:02Z</time>
      </trkpt>
      <trkpt lat="47.72282" lon="3.66432">
        <ele>304</ele>
        <time>2019-04-02T10:24:04Z</time>
      </trkpt>
      <trkpt lat="47.72283" lon="3.66436">
        <ele>304</ele>
        <time>2019-04-02T10:24:06Z</time>
      </trkpt>
      <trkpt lat="47.72283" lon="3.6644">
        <ele>304</ele>
        <time>2019-04-02T10:24:08Z</time>
      </trkpt>
      <trkpt lat="47.72283" lon="3.66447">
        <ele>304</ele>
        <time>2019-04-02T10:24:11Z</time>
      </trkpt>
      <trkpt lat="47.72282" lon="3.66455">
        <ele>303</ele>
        <time>2019-04-02T10:24:15Z</time>
      </trkpt>
      <trkpt lat="47.72282" lon="3.66462">
        <ele>303</ele>
        <time>2019-04-02T10:24:19Z</time>
      </trkpt>
      <trkpt lat="47.72281" lon="3.6647">
        <ele>304</ele>
        <time>2019-04-02T10:24:23Z</time>
      </trkpt>
      <trkpt lat="47.72278" lon="3.66476">
        <ele>304</ele>
        <time>2019-04-02T10:24:28Z</time>
      </trkpt>
      <trkpt lat="47.72276" lon="3.66479">
        <ele>304</ele>
        <time>2019-04-02T10:24:30Z</time>
      </trkpt>
      <trkpt lat="47.72272" lon="3.66482">
        <ele>304</ele>
        <time>2019-04-02T10:24:34Z</time>
      </trkpt>
      <trkpt lat="47.72266" lon="3.66486">
        <ele>303</ele>
        <time>2019-04-02T10:24:39Z</time>
      </trkpt>
      <trkpt lat="47.72261" lon="3.66488">
        <ele>304</ele>
        <time>2019-04-02T10:24:43Z</time>
      </trkpt>
      <trkpt lat="47.72257" lon="3.6649">
        <ele>304</ele>
        <time>2019-04-02T10:24:46Z</time>
      </trkpt>
      <trkpt lat="47.72252" lon="3.66494">
        <ele>304</ele>
        <time>2019-04-02T10:24:51Z</time>
      </trkpt>
      <trkpt lat="47.72247" lon="3.66496">
        <ele>305</ele>
        <time>2019-04-02T10:24:55Z</time>
      </trkpt>
      <trkpt lat="47.72242" lon="3.66499">
        <ele>305</ele>
        <time>2019-04-02T10:24:59Z</time>
      </trkpt>
      <trkpt lat="47.72239" lon="3.66501">
        <ele>306</ele>
        <time>2019-04-02T10:25:02Z</time>
      </trkpt>
      <trkpt lat="47.72233" lon="3.66503">
        <ele>306</ele>
        <time>2019-04-02T10:25:06Z</time>
      </trkpt>
      <trkpt lat="47.72229" lon="3.66506">
        <ele>306</ele>
        <time>2019-04-02T10:25:10Z</time>
      </trkpt>
      <trkpt lat="47.72224" lon="3.66507">
        <ele>306</ele>
        <time>2019-04-02T10:25:13Z</time>
      </trkpt>
      <trkpt lat="47.72221" lon="3.66508">
        <ele>307</ele>
        <time>2019-04-02T10:25:15Z</time>
      </trkpt>
      <trkpt lat="47.72216" lon="3.66512">
        <ele>307</ele>
        <time>2019-04-02T10:25:19Z</time>
      </trkpt>
      <trkpt lat="47.72211" lon="3.66513">
        <ele>308</ele>
        <time>2019-04-02T10:25:23Z</time>
      </trkpt>
      <trkpt lat="47.72206" lon="3.66515">
        <ele>308</ele>
        <time>2019-04-02T10:25:27Z</time>
      </trkpt>
      <trkpt lat="47.72204" lon="3.66516">
        <ele>308</ele>
        <time>2019-04-02T10:25:29Z</time>
      </trkpt>
      <trkpt lat="47.722" lon="3.66519">
        <ele>308</ele>
        <time>2019-04-02T10:25:32Z</time>
      </trkpt>
      <trkpt lat="47.72196" lon="3.66521">
        <ele>307</ele>
        <time>2019-04-02T10:25:35Z</time>
      </trkpt>
      <trkpt lat="47.72191" lon="3.66525">
        <ele>307</ele>
        <time>2019-04-02T10:25:39Z</time>
      </trkpt>
      <trkpt lat="47.72186" lon="3.66528">
        <ele>309</ele>
        <time>2019-04-02T10:25:44Z</time>
      </trkpt>
      <trkpt lat="47.72181" lon="3.66529">
        <ele>309</ele>
        <time>2019-04-02T10:25:47Z</time>
      </trkpt>
      <trkpt lat="47.72179" lon="3.6653">
        <ele>308</ele>
        <time>2019-04-02T10:25:49Z</time>
      </trkpt>
      <trkpt lat="47.72174" lon="3.66533">
        <ele>309</ele>
        <time>2019-04-02T10:25:53Z</time>
      </trkpt>
      <trkpt lat="47.72168" lon="3.66536">
        <ele>309</ele>
        <time>2019-04-02T10:25:57Z</time>
      </trkpt>
      <trkpt lat="47.72166" lon="3.66537">
        <ele>309</ele>
        <time>2019-04-02T10:25:59Z</time>
      </trkpt>
      <trkpt lat="47.72162" lon="3.66539">
        <ele>309</ele>
        <time>2019-04-02T10:26:02Z</time>
      </trkpt>
      <trkpt lat="47.72162" lon="3.66539">
        <ele>309</ele>
        <time>2019-04-02T10:26:10Z</time>
      </trkpt>
      <trkpt lat="47.72162" lon="3.66539">
        <ele>309</ele>
        <time>2019-04-02T10:26:11Z</time>
      </trkpt>
      <trkpt lat="47.72158" lon="3.66543">
        <ele>310</ele>
        <time>2019-04-02T10:26:32Z</time>
      </trkpt>
      <trkpt lat="47.72151" lon="3.66545">
        <ele>310</ele>
        <time>2019-04-02T10:26:43Z</time>
      </trkpt>
      <trkpt lat="47.72148" lon="3.66545">
        <ele>310</ele>
        <time>2019-04-02T10:26:45Z</time>
      </trkpt>
      <trkpt lat="47.72145" lon="3.66546">
        <ele>310</ele>
        <time>2019-04-02T10:26:48Z</time>
      </trkpt>
      <trkpt lat="47.72138" lon="3.6655">
        <ele>311</ele>
        <time>2019-04-02T10:26:54Z</time>
      </trkpt>
      <trkpt lat="47.72134" lon="3.66552">
        <ele>311</ele>
        <time>2019-04-02T10:26:57Z</time>
      </trkpt>
      <trkpt lat="47.72128" lon="3.66555">
        <ele>311</ele>
        <time>2019-04-02T10:27:02Z</time>
      </trkpt>
      <trkpt lat="47.72124" lon="3.66557">
        <ele>311</ele>
        <time>2019-04-02T10:27:06Z</time>
      </trkpt>
      <trkpt lat="47.72121" lon="3.66559">
        <ele>311</ele>
        <time>2019-04-02T10:27:08Z</time>
      </trkpt>
      <trkpt lat="47.72119" lon="3.6656">
        <ele>311</ele>
        <time>2019-04-02T10:27:10Z</time>
      </trkpt>
      <trkpt lat="47.72116" lon="3.66562">
        <ele>311</ele>
        <time>2019-04-02T10:27:12Z</time>
      </trkpt>
      <trkpt lat="47.72114" lon="3.66564">
        <ele>311</ele>
        <time>2019-04-02T10:27:14Z</time>
      </trkpt>
      <trkpt lat="47.72109" lon="3.66565">
        <ele>310</ele>
        <time>2019-04-02T10:27:18Z</time>
      </trkpt>
      <trkpt lat="47.72104" lon="3.66568">
        <ele>310</ele>
        <time>2019-04-02T10:27:22Z</time>
      </trkpt>
      <trkpt lat="47.72102" lon="3.66569">
        <ele>310</ele>
        <time>2019-04-02T10:27:24Z</time>
      </trkpt>
      <trkpt lat="47.72097" lon="3.66571">
        <ele>310</ele>
        <time>2019-04-02T10:27:27Z</time>
      </trkpt>
      <trkpt lat="47.72092" lon="3.66575">
        <ele>310</ele>
        <time>2019-04-02T10:27:32Z</time>
      </trkpt>
      <trkpt lat="47.72087" lon="3.66578">
        <ele>310</ele>
        <time>2019-04-02T10:27:36Z</time>
      </trkpt>
      <trkpt lat="47.72083" lon="3.66583">
        <ele>310</ele>
        <time>2019-04-02T10:27:41Z</time>
      </trkpt>
      <trkpt lat="47.72077" lon="3.66584">
        <ele>311</ele>
        <time>2019-04-02T10:27:48Z</time>
      </trkpt>
      <trkpt lat="47.72075" lon="3.66585">
        <ele>311</ele>
        <time>2019-04-02T10:27:50Z</time>
      </trkpt>
      <trkpt lat="47.72071" lon="3.66587">
        <ele>310</ele>
        <time>2019-04-02T10:27:54Z</time>
      </trkpt>
      <trkpt lat="47.72068" lon="3.66589">
        <ele>310</ele>
        <time>2019-04-02T10:27:57Z</time>
      </trkpt>
      <trkpt lat="47.72065" lon="3.6659">
        <ele>311</ele>
        <time>2019-04-02T10:27:59Z</time>
      </trkpt>
      <trkpt lat="47.72061" lon="3.66593">
        <ele>312</ele>
        <time>2019-04-02T10:28:03Z</time>
      </trkpt>
      <trkpt lat="47.72056" lon="3.66596">
        <ele>311</ele>
        <time>2019-04-02T10:28:06Z</time>
      </trkpt>
      <trkpt lat="47.72053" lon="3.66601">
        <ele>310</ele>
        <time>2019-04-02T10:28:10Z</time>
      </trkpt>
      <trkpt lat="47.7205" lon="3.66607">
        <ele>309</ele>
        <time>2019-04-02T10:28:14Z</time>
      </trkpt>
      <trkpt lat="47.72048" lon="3.66611">
        <ele>309</ele>
        <time>2019-04-02T10:28:16Z</time>
      </trkpt>
      <trkpt lat="47.72046" lon="3.66614">
        <ele>309</ele>
        <time>2019-04-02T10:28:18Z</time>
      </trkpt>
      <trkpt lat="47.72044" lon="3.66622">
        <ele>307</ele>
        <time>2019-04-02T10:28:22Z</time>
      </trkpt>
      <trkpt lat="47.72041" lon="3.66627">
        <ele>307</ele>
        <time>2019-04-02T10:28:27Z</time>
      </trkpt>
      <trkpt lat="47.72035" lon="3.66634">
        <ele>307</ele>
        <time>2019-04-02T10:28:33Z</time>
      </trkpt>
      <trkpt lat="47.72032" lon="3.6664">
        <ele>305</ele>
        <time>2019-04-02T10:28:37Z</time>
      </trkpt>
      <trkpt lat="47.7203" lon="3.66644">
        <ele>305</ele>
        <time>2019-04-02T10:28:40Z</time>
      </trkpt>
      <trkpt lat="47.72028" lon="3.66647">
        <ele>305</ele>
        <time>2019-04-02T10:28:42Z</time>
      </trkpt>
      <trkpt lat="47.72023" lon="3.66651">
        <ele>304</ele>
        <time>2019-04-02T10:28:47Z</time>
      </trkpt>
      <trkpt lat="47.72021" lon="3.66653">
        <ele>304</ele>
        <time>2019-04-02T10:28:49Z</time>
      </trkpt>
      <trkpt lat="47.72018" lon="3.66657">
        <ele>303</ele>
        <time>2019-04-02T10:28:53Z</time>
      </trkpt>
      <trkpt lat="47.72016" lon="3.6666">
        <ele>303</ele>
        <time>2019-04-02T10:28:56Z</time>
      </trkpt>
      <trkpt lat="47.72012" lon="3.66664">
        <ele>304</ele>
        <time>2019-04-02T10:29:02Z</time>
      </trkpt>
      <trkpt lat="47.72009" lon="3.66672">
        <ele>304</ele>
        <time>2019-04-02T10:29:06Z</time>
      </trkpt>
      <trkpt lat="47.72004" lon="3.66678">
        <ele>303</ele>
        <time>2019-04-02T10:29:10Z</time>
      </trkpt>
      <trkpt lat="47.71999" lon="3.66685">
        <ele>302</ele>
        <time>2019-04-02T10:29:15Z</time>
      </trkpt>
      <trkpt lat="47.71995" lon="3.66689">
        <ele>301</ele>
        <time>2019-04-02T10:29:19Z</time>
      </trkpt>
      <trkpt lat="47.71992" lon="3.66692">
        <ele>300</ele>
        <time>2019-04-02T10:29:22Z</time>
      </trkpt>
      <trkpt lat="47.71989" lon="3.66695">
        <ele>299</ele>
        <time>2019-04-02T10:29:24Z</time>
      </trkpt>
      <trkpt lat="47.71983" lon="3.66697">
        <ele>298</ele>
        <time>2019-04-02T10:29:30Z</time>
      </trkpt>
      <trkpt lat="47.71978" lon="3.667">
        <ele>297</ele>
        <time>2019-04-02T10:29:35Z</time>
      </trkpt>
      <trkpt lat="47.71973" lon="3.66701">
        <ele>296</ele>
        <time>2019-04-02T10:29:40Z</time>
      </trkpt>
      <trkpt lat="47.71968" lon="3.66701">
        <ele>295</ele>
        <time>2019-04-02T10:29:44Z</time>
      </trkpt>
      <trkpt lat="47.71962" lon="3.66703">
        <ele>293</ele>
        <time>2019-04-02T10:29:49Z</time>
      </trkpt>
      <trkpt lat="47.71957" lon="3.66702">
        <ele>293</ele>
        <time>2019-04-02T10:29:53Z</time>
      </trkpt>
      <trkpt lat="47.71952" lon="3.66701">
        <ele>291</ele>
        <time>2019-04-02T10:29:57Z</time>
      </trkpt>
      <trkpt lat="47.71947" lon="3.667">
        <ele>290</ele>
        <time>2019-04-02T10:30:01Z</time>
      </trkpt>
      <trkpt lat="47.71943" lon="3.667">
        <ele>290</ele>
        <time>2019-04-02T10:30:04Z</time>
      </trkpt>
      <trkpt lat="47.7194" lon="3.667">
        <ele>290</ele>
        <time>2019-04-02T10:30:06Z</time>
      </trkpt>
      <trkpt lat="47.71935" lon="3.66697">
        <ele>288</ele>
        <time>2019-04-02T10:30:11Z</time>
      </trkpt>
      <trkpt lat="47.7193" lon="3.66694">
        <ele>287</ele>
        <time>2019-04-02T10:30:16Z</time>
      </trkpt>
      <trkpt lat="47.71926" lon="3.66692">
        <ele>287</ele>
        <time>2019-04-02T10:30:19Z</time>
      </trkpt>
      <trkpt lat="47.71923" lon="3.66689">
        <ele>287</ele>
        <time>2019-04-02T10:30:21Z</time>
      </trkpt>
      <trkpt lat="47.71921" lon="3.66688">
        <ele>286</ele>
        <time>2019-04-02T10:30:23Z</time>
      </trkpt>
      <trkpt lat="47.71918" lon="3.66687">
        <ele>286</ele>
        <time>2019-04-02T10:30:25Z</time>
      </trkpt>
      <trkpt lat="47.71916" lon="3.66685">
        <ele>284</ele>
        <time>2019-04-02T10:30:28Z</time>
      </trkpt>
      <trkpt lat="47.71912" lon="3.66682">
        <ele>283</ele>
        <time>2019-04-02T10:30:31Z</time>
      </trkpt>
      <trkpt lat="47.71907" lon="3.66679">
        <ele>283</ele>
        <time>2019-04-02T10:30:35Z</time>
      </trkpt>
      <trkpt lat="47.71902" lon="3.66676">
        <ele>283</ele>
        <time>2019-04-02T10:30:38Z</time>
      </trkpt>
      <trkpt lat="47.719" lon="3.66674">
        <ele>282</ele>
        <time>2019-04-02T10:30:40Z</time>
      </trkpt>
      <trkpt lat="47.71897" lon="3.66672">
        <ele>282</ele>
        <time>2019-04-02T10:30:42Z</time>
      </trkpt>
      <trkpt lat="47.71895" lon="3.6667">
        <ele>281</ele>
        <time>2019-04-02T10:30:44Z</time>
      </trkpt>
      <trkpt lat="47.7189" lon="3.66667">
        <ele>280</ele>
        <time>2019-04-02T10:30:48Z</time>
      </trkpt>
      <trkpt lat="47.71885" lon="3.66663">
        <ele>280</ele>
        <time>2019-04-02T10:30:52Z</time>
      </trkpt>
      <trkpt lat="47.7188" lon="3.6666">
        <ele>279</ele>
        <time>2019-04-02T10:30:56Z</time>
      </trkpt>
      <trkpt lat="47.71877" lon="3.66655">
        <ele>278</ele>
        <time>2019-04-02T10:31:00Z</time>
      </trkpt>
      <trkpt lat="47.71875" lon="3.66652">
        <ele>278</ele>
        <time>2019-04-02T10:31:02Z</time>
      </trkpt>
      <trkpt lat="47.7187" lon="3.66648">
        <ele>276</ele>
        <time>2019-04-02T10:31:06Z</time>
      </trkpt>
      <trkpt lat="47.71865" lon="3.66644">
        <ele>277</ele>
        <time>2019-04-02T10:31:10Z</time>
      </trkpt>
      <trkpt lat="47.71861" lon="3.6664">
        <ele>276</ele>
        <time>2019-04-02T10:31:13Z</time>
      </trkpt>
      <trkpt lat="47.71858" lon="3.66635">
        <ele>275</ele>
        <time>2019-04-02T10:31:17Z</time>
      </trkpt>
      <trkpt lat="47.71854" lon="3.66631">
        <ele>274</ele>
        <time>2019-04-02T10:31:21Z</time>
      </trkpt>
      <trkpt lat="47.71851" lon="3.66628">
        <ele>273</ele>
        <time>2019-04-02T10:31:24Z</time>
      </trkpt>
      <trkpt lat="47.71845" lon="3.66622">
        <ele>270</ele>
        <time>2019-04-02T10:31:30Z</time>
      </trkpt>
      <trkpt lat="47.71843" lon="3.6662">
        <ele>270</ele>
        <time>2019-04-02T10:31:32Z</time>
      </trkpt>
      <trkpt lat="47.7184" lon="3.66618">
        <ele>270</ele>
        <time>2019-04-02T10:31:34Z</time>
      </trkpt>
      <trkpt lat="47.71837" lon="3.66615">
        <ele>269</ele>
        <time>2019-04-02T10:31:37Z</time>
      </trkpt>
      <trkpt lat="47.71834" lon="3.66613">
        <ele>268</ele>
        <time>2019-04-02T10:31:39Z</time>
      </trkpt>
      <trkpt lat="47.7183" lon="3.66608">
        <ele>266</ele>
        <time>2019-04-02T10:31:43Z</time>
      </trkpt>
      <trkpt lat="47.71829" lon="3.66606">
        <ele>267</ele>
        <time>2019-04-02T10:31:45Z</time>
      </trkpt>
      <trkpt lat="47.71826" lon="3.66602">
        <ele>267</ele>
        <time>2019-04-02T10:31:49Z</time>
      </trkpt>
      <trkpt lat="47.71822" lon="3.66597">
        <ele>266</ele>
        <time>2019-04-02T10:31:53Z</time>
      </trkpt>
      <trkpt lat="47.7182" lon="3.66595">
        <ele>268</ele>
        <time>2019-04-02T10:31:55Z</time>
      </trkpt>
      <trkpt lat="47.71819" lon="3.66592">
        <ele>267</ele>
        <time>2019-04-02T10:31:57Z</time>
      </trkpt>
      <trkpt lat="47.71817" lon="3.6659">
        <ele>267</ele>
        <time>2019-04-02T10:31:59Z</time>
      </trkpt>
      <trkpt lat="47.71814" lon="3.66586">
        <ele>267</ele>
        <time>2019-04-02T10:32:02Z</time>
      </trkpt>
      <trkpt lat="47.71811" lon="3.66583">
        <ele>267</ele>
        <time>2019-04-02T10:32:04Z</time>
      </trkpt>
      <trkpt lat="47.7181" lon="3.66581">
        <ele>267</ele>
        <time>2019-04-02T10:32:06Z</time>
      </trkpt>
      <trkpt lat="47.71808" lon="3.66579">
        <ele>266</ele>
        <time>2019-04-02T10:32:08Z</time>
      </trkpt>
      <trkpt lat="47.71805" lon="3.66573">
        <ele>266</ele>
        <time>2019-04-02T10:32:12Z</time>
      </trkpt>
      <trkpt lat="47.71801" lon="3.66568">
        <ele>265</ele>
        <time>2019-04-02T10:32:16Z</time>
      </trkpt>
      <trkpt lat="47.71799" lon="3.66565">
        <ele>266</ele>
        <time>2019-04-02T10:32:18Z</time>
      </trkpt>
      <trkpt lat="47.71797" lon="3.66563">
        <ele>266</ele>
        <time>2019-04-02T10:32:20Z</time>
      </trkpt>
      <trkpt lat="47.71794" lon="3.66556">
        <ele>267</ele>
        <time>2019-04-02T10:32:24Z</time>
      </trkpt>
      <trkpt lat="47.7179" lon="3.66549">
        <ele>265</ele>
        <time>2019-04-02T10:32:29Z</time>
      </trkpt>
      <trkpt lat="47.71786" lon="3.66543">
        <ele>264</ele>
        <time>2019-04-02T10:32:33Z</time>
      </trkpt>
      <trkpt lat="47.71784" lon="3.6654">
        <ele>264</ele>
        <time>2019-04-02T10:32:35Z</time>
      </trkpt>
      <trkpt lat="47.7178" lon="3.66532">
        <ele>264</ele>
        <time>2019-04-02T10:32:40Z</time>
      </trkpt>
      <trkpt lat="47.71778" lon="3.66529">
        <ele>264</ele>
        <time>2019-04-02T10:32:42Z</time>
      </trkpt>
      <trkpt lat="47.71773" lon="3.66523">
        <ele>262</ele>
        <time>2019-04-02T10:32:46Z</time>
      </trkpt>
      <trkpt lat="47.7177" lon="3.66519">
        <ele>262</ele>
        <time>2019-04-02T10:32:49Z</time>
      </trkpt>
      <trkpt lat="47.71766" lon="3.66513">
        <ele>262</ele>
        <time>2019-04-02T10:32:54Z</time>
      </trkpt>
      <trkpt lat="47.71762" lon="3.66508">
        <ele>261</ele>
        <time>2019-04-02T10:32:58Z</time>
      </trkpt>
      <trkpt lat="47.71758" lon="3.66502">
        <ele>259</ele>
        <time>2019-04-02T10:33:02Z</time>
      </trkpt>
      <trkpt lat="47.71756" lon="3.66499">
        <ele>259</ele>
        <time>2019-04-02T10:33:04Z</time>
      </trkpt>
      <trkpt lat="47.71752" lon="3.66493">
        <ele>258</ele>
        <time>2019-04-02T10:33:09Z</time>
      </trkpt>
      <trkpt lat="47.71748" lon="3.66487">
        <ele>258</ele>
        <time>2019-04-02T10:33:14Z</time>
      </trkpt>
      <trkpt lat="47.71745" lon="3.66483">
        <ele>257</ele>
        <time>2019-04-02T10:33:18Z</time>
      </trkpt>
      <trkpt lat="47.71741" lon="3.66477">
        <ele>257</ele>
        <time>2019-04-02T10:33:22Z</time>
      </trkpt>
      <trkpt lat="47.71737" lon="3.66472">
        <ele>257</ele>
        <time>2019-04-02T10:33:26Z</time>
      </trkpt>
      <trkpt lat="47.71733" lon="3.66466">
        <ele>256</ele>
        <time>2019-04-02T10:33:31Z</time>
      </trkpt>
      <trkpt lat="47.71729" lon="3.66459">
        <ele>256</ele>
        <time>2019-04-02T10:33:35Z</time>
      </trkpt>
      <trkpt lat="47.71727" lon="3.66455">
        <ele>255</ele>
        <time>2019-04-02T10:33:37Z</time>
      </trkpt>
      <trkpt lat="47.71725" lon="3.66452">
        <ele>255</ele>
        <time>2019-04-02T10:33:39Z</time>
      </trkpt>
      <trkpt lat="47.71722" lon="3.66448">
        <ele>254</ele>
        <time>2019-04-02T10:33:42Z</time>
      </trkpt>
      <trkpt lat="47.71721" lon="3.66445">
        <ele>254</ele>
        <time>2019-04-02T10:33:44Z</time>
      </trkpt>
      <trkpt lat="47.71718" lon="3.6644">
        <ele>254</ele>
        <time>2019-04-02T10:33:48Z</time>
      </trkpt>
      <trkpt lat="47.71713" lon="3.66434">
        <ele>253</ele>
        <time>2019-04-02T10:33:53Z</time>
      </trkpt>
      <trkpt lat="47.71708" lon="3.66426">
        <ele>252</ele>
        <time>2019-04-02T10:33:58Z</time>
      </trkpt>
      <trkpt lat="47.71707" lon="3.66422">
        <ele>250</ele>
        <time>2019-04-02T10:34:00Z</time>
      </trkpt>
      <trkpt lat="47.71703" lon="3.66417">
        <ele>250</ele>
        <time>2019-04-02T10:34:04Z</time>
      </trkpt>
      <trkpt lat="47.71702" lon="3.66414">
        <ele>249</ele>
        <time>2019-04-02T10:34:06Z</time>
      </trkpt>
      <trkpt lat="47.717" lon="3.66411">
        <ele>249</ele>
        <time>2019-04-02T10:34:08Z</time>
      </trkpt>
      <trkpt lat="47.71696" lon="3.66407">
        <ele>248</ele>
        <time>2019-04-02T10:34:11Z</time>
      </trkpt>
      <trkpt lat="47.71694" lon="3.66405">
        <ele>248</ele>
        <time>2019-04-02T10:34:13Z</time>
      </trkpt>
      <trkpt lat="47.71691" lon="3.66399">
        <ele>247</ele>
        <time>2019-04-02T10:34:17Z</time>
      </trkpt>
      <trkpt lat="47.71688" lon="3.66395">
        <ele>247</ele>
        <time>2019-04-02T10:34:20Z</time>
      </trkpt>
      <trkpt lat="47.71684" lon="3.6639">
        <ele>246</ele>
        <time>2019-04-02T10:34:24Z</time>
      </trkpt>
      <trkpt lat="47.71681" lon="3.66386">
        <ele>244</ele>
        <time>2019-04-02T10:34:27Z</time>
      </trkpt>
      <trkpt lat="47.71677" lon="3.6638">
        <ele>242</ele>
        <time>2019-04-02T10:34:31Z</time>
      </trkpt>
      <trkpt lat="47.71673" lon="3.66376">
        <ele>241</ele>
        <time>2019-04-02T10:34:35Z</time>
      </trkpt>
      <trkpt lat="47.7167" lon="3.66371">
        <ele>241</ele>
        <time>2019-04-02T10:34:39Z</time>
      </trkpt>
      <trkpt lat="47.71667" lon="3.66368">
        <ele>240</ele>
        <time>2019-04-02T10:34:42Z</time>
      </trkpt>
      <trkpt lat="47.71664" lon="3.66366">
        <ele>240</ele>
        <time>2019-04-02T10:34:45Z</time>
      </trkpt>
      <trkpt lat="47.71661" lon="3.66363">
        <ele>240</ele>
        <time>2019-04-02T10:34:47Z</time>
      </trkpt>
      <trkpt lat="47.71657" lon="3.66361">
        <ele>239</ele>
        <time>2019-04-02T10:34:50Z</time>
      </trkpt>
      <trkpt lat="47.71652" lon="3.66357">
        <ele>239</ele>
        <time>2019-04-02T10:34:54Z</time>
      </trkpt>
      <trkpt lat="47.71648" lon="3.66355">
        <ele>236</ele>
        <time>2019-04-02T10:34:59Z</time>
      </trkpt>
      <trkpt lat="47.71643" lon="3.66354">
        <ele>236</ele>
        <time>2019-04-02T10:35:03Z</time>
      </trkpt>
      <trkpt lat="47.7164" lon="3.66354">
        <ele>235</ele>
        <time>2019-04-02T10:35:05Z</time>
      </trkpt>
      <trkpt lat="47.71637" lon="3.66353">
        <ele>235</ele>
        <time>2019-04-02T10:35:07Z</time>
      </trkpt>
      <trkpt lat="47.71632" lon="3.66353">
        <ele>234</ele>
        <time>2019-04-02T10:35:11Z</time>
      </trkpt>
      <trkpt lat="47.71626" lon="3.66354">
        <ele>234</ele>
        <time>2019-04-02T10:35:15Z</time>
      </trkpt>
      <trkpt lat="47.71623" lon="3.66355">
        <ele>234</ele>
        <time>2019-04-02T10:35:17Z</time>
      </trkpt>
      <trkpt lat="47.71621" lon="3.66355">
        <ele>234</ele>
        <time>2019-04-02T10:35:19Z</time>
      </trkpt>
      <trkpt lat="47.71617" lon="3.66356">
        <ele>233</ele>
        <time>2019-04-02T10:35:21Z</time>
      </trkpt>
      <trkpt lat="47.71613" lon="3.66356">
        <ele>233</ele>
        <time>2019-04-02T10:35:24Z</time>
      </trkpt>
      <trkpt lat="47.71608" lon="3.66359">
        <ele>233</ele>
        <time>2019-04-02T10:35:28Z</time>
      </trkpt>
      <trkpt lat="47.71604" lon="3.6636">
        <ele>233</ele>
        <time>2019-04-02T10:35:32Z</time>
      </trkpt>
      <trkpt lat="47.71598" lon="3.66363">
        <ele>232</ele>
        <time>2019-04-02T10:35:37Z</time>
      </trkpt>
      <trkpt lat="47.71593" lon="3.66365">
        <ele>231</ele>
        <time>2019-04-02T10:35:41Z</time>
      </trkpt>
      <trkpt lat="47.71589" lon="3.66369">
        <ele>231</ele>
        <time>2019-04-02T10:35:45Z</time>
      </trkpt>
      <trkpt lat="47.71585" lon="3.66374">
        <ele>230</ele>
        <time>2019-04-02T10:35:49Z</time>
      </trkpt>
      <trkpt lat="47.71582" lon="3.66379">
        <ele>230</ele>
        <time>2019-04-02T10:35:53Z</time>
      </trkpt>
      <trkpt lat="47.7158" lon="3.66382">
        <ele>229</ele>
        <time>2019-04-02T10:35:56Z</time>
      </trkpt>
      <trkpt lat="47.71577" lon="3.66389">
        <ele>229</ele>
        <time>2019-04-02T10:36:00Z</time>
      </trkpt>
      <trkpt lat="47.71576" lon="3.66392">
        <ele>229</ele>
        <time>2019-04-02T10:36:02Z</time>
      </trkpt>
      <trkpt lat="47.71574" lon="3.66396">
        <ele>229</ele>
        <time>2019-04-02T10:36:05Z</time>
      </trkpt>
      <trkpt lat="47.71572" lon="3.66402">
        <ele>227</ele>
        <time>2019-04-02T10:36:10Z</time>
      </trkpt>
      <trkpt lat="47.71571" lon="3.66405">
        <ele>226</ele>
        <time>2019-04-02T10:36:13Z</time>
      </trkpt>
      <trkpt lat="47.71569" lon="3.66413">
        <ele>227</ele>
        <time>2019-04-02T10:36:17Z</time>
      </trkpt>
      <trkpt lat="47.71566" lon="3.66419">
        <ele>226</ele>
        <time>2019-04-02T10:36:22Z</time>
      </trkpt>
      <trkpt lat="47.71564" lon="3.66424">
        <ele>224</ele>
        <time>2019-04-02T10:36:25Z</time>
      </trkpt>
      <trkpt lat="47.71562" lon="3.66429">
        <ele>224</ele>
        <time>2019-04-02T10:36:28Z</time>
      </trkpt>
      <trkpt lat="47.7156" lon="3.66435">
        <ele>223</ele>
        <time>2019-04-02T10:36:32Z</time>
      </trkpt>
      <trkpt lat="47.71558" lon="3.66442">
        <ele>223</ele>
        <time>2019-04-02T10:36:36Z</time>
      </trkpt>
      <trkpt lat="47.71556" lon="3.66447">
        <ele>222</ele>
        <time>2019-04-02T10:36:39Z</time>
      </trkpt>
      <trkpt lat="47.71554" lon="3.66451">
        <ele>222</ele>
        <time>2019-04-02T10:36:42Z</time>
      </trkpt>
      <trkpt lat="47.71552" lon="3.66455">
        <ele>221</ele>
        <time>2019-04-02T10:36:44Z</time>
      </trkpt>
      <trkpt lat="47.71551" lon="3.66457">
        <ele>221</ele>
        <time>2019-04-02T10:36:46Z</time>
      </trkpt>
      <trkpt lat="47.71549" lon="3.66461">
        <ele>221</ele>
        <time>2019-04-02T10:36:48Z</time>
      </trkpt>
      <trkpt lat="47.71548" lon="3.66466">
        <ele>221</ele>
        <time>2019-04-02T10:36:51Z</time>
      </trkpt>
      <trkpt lat="47.71546" lon="3.66469">
        <ele>220</ele>
        <time>2019-04-02T10:36:53Z</time>
      </trkpt>
      <trkpt lat="47.71545" lon="3.66474">
        <ele>220</ele>
        <time>2019-04-02T10:36:56Z</time>
      </trkpt>
      <trkpt lat="47.71543" lon="3.66477">
        <ele>220</ele>
        <time>2019-04-02T10:36:58Z</time>
      </trkpt>
      <trkpt lat="47.71542" lon="3.66481">
        <ele>220</ele>
        <time>2019-04-02T10:37:00Z</time>
      </trkpt>
      <trkpt lat="47.7154" lon="3.66484">
        <ele>220</ele>
        <time>2019-04-02T10:37:02Z</time>
      </trkpt>
      <trkpt lat="47.71536" lon="3.6649">
        <ele>221</ele>
        <time>2019-04-02T10:37:06Z</time>
      </trkpt>
      <trkpt lat="47.71535" lon="3.66492">
        <ele>222</ele>
        <time>2019-04-02T10:37:08Z</time>
      </trkpt>
      <trkpt lat="47.71532" lon="3.66495">
        <ele>221</ele>
        <time>2019-04-02T10:37:10Z</time>
      </trkpt>
      <trkpt lat="47.71528" lon="3.66499">
        <ele>221</ele>
        <time>2019-04-02T10:37:14Z</time>
      </trkpt>
      <trkpt lat="47.7152" lon="3.66503">
        <ele>221</ele>
        <time>2019-04-02T10:37:20Z</time>
      </trkpt>
      <trkpt lat="47.71517" lon="3.66505">
        <ele>220</ele>
        <time>2019-04-02T10:37:22Z</time>
      </trkpt>
      <trkpt lat="47.71512" lon="3.6651">
        <ele>219</ele>
        <time>2019-04-02T10:37:28Z</time>
      </trkpt>
      <trkpt lat="47.71506" lon="3.66511">
        <ele>219</ele>
        <time>2019-04-02T10:37:33Z</time>
      </trkpt>
      <trkpt lat="47.71501" lon="3.66513">
        <ele>215</ele>
        <time>2019-04-02T10:37:38Z</time>
      </trkpt>
      <trkpt lat="47.71497" lon="3.66517">
        <ele>213</ele>
        <time>2019-04-02T10:37:44Z</time>
      </trkpt>
      <trkpt lat="47.71496" lon="3.66521">
        <ele>213</ele>
        <time>2019-04-02T10:37:53Z</time>
      </trkpt>
      <trkpt lat="47.71492" lon="3.66516">
        <ele>209</ele>
        <time>2019-04-02T10:39:01Z</time>
      </trkpt>
      <trkpt lat="47.7149" lon="3.66513">
        <ele>210</ele>
        <time>2019-04-02T10:39:04Z</time>
      </trkpt>
      <trkpt lat="47.71486" lon="3.66516">
        <ele>210</ele>
        <time>2019-04-02T10:39:07Z</time>
      </trkpt>
      <trkpt lat="47.71482" lon="3.66523">
        <ele>210</ele>
        <time>2019-04-02T10:39:11Z</time>
      </trkpt>
      <trkpt lat="47.71479" lon="3.66527">
        <ele>210</ele>
        <time>2019-04-02T10:39:14Z</time>
      </trkpt>
      <trkpt lat="47.71478" lon="3.6653">
        <ele>211</ele>
        <time>2019-04-02T10:39:16Z</time>
      </trkpt>
      <trkpt lat="47.71476" lon="3.66533">
        <ele>211</ele>
        <time>2019-04-02T10:39:18Z</time>
      </trkpt>
      <trkpt lat="47.71474" lon="3.66537">
        <ele>212</ele>
        <time>2019-04-02T10:39:21Z</time>
      </trkpt>
      <trkpt lat="47.71472" lon="3.66543">
        <ele>210</ele>
        <time>2019-04-02T10:39:25Z</time>
      </trkpt>
      <trkpt lat="47.71471" lon="3.66547">
        <ele>210</ele>
        <time>2019-04-02T10:39:28Z</time>
      </trkpt>
      <trkpt lat="47.71467" lon="3.66552">
        <ele>211</ele>
        <time>2019-04-02T10:39:34Z</time>
      </trkpt>
      <trkpt lat="47.71464" lon="3.66557">
        <ele>212</ele>
        <time>2019-04-02T10:39:40Z</time>
      </trkpt>
      <trkpt lat="47.71461" lon="3.6656">
        <ele>213</ele>
        <time>2019-04-02T10:39:43Z</time>
      </trkpt>
      <trkpt lat="47.7146" lon="3.66562">
        <ele>213</ele>
        <time>2019-04-02T10:39:45Z</time>
      </trkpt>
      <trkpt lat="47.71457" lon="3.66574">
        <ele>213</ele>
        <time>2019-04-02T10:39:50Z</time>
      </trkpt>
      <trkpt lat="47.71456" lon="3.66578">
        <ele>214</ele>
        <time>2019-04-02T10:39:52Z</time>
      </trkpt>
      <trkpt lat="47.71456" lon="3.66586">
        <ele>214</ele>
        <time>2019-04-02T10:39:56Z</time>
      </trkpt>
      <trkpt lat="47.71456" lon="3.6659">
        <ele>213</ele>
        <time>2019-04-02T10:39:58Z</time>
      </trkpt>
      <trkpt lat="47.71454" lon="3.66596">
        <ele>213</ele>
        <time>2019-04-02T10:40:03Z</time>
      </trkpt>
      <trkpt lat="47.71455" lon="3.66603">
        <ele>213</ele>
        <time>2019-04-02T10:40:09Z</time>
      </trkpt>
      <trkpt lat="47.71457" lon="3.66608">
        <ele>213</ele>
        <time>2019-04-02T10:40:12Z</time>
      </trkpt>
      <trkpt lat="47.71456" lon="3.66618">
        <ele>214</ele>
        <time>2019-04-02T10:40:19Z</time>
      </trkpt>
      <trkpt lat="47.71449" lon="3.6662">
        <ele>216</ele>
        <time>2019-04-02T10:40:26Z</time>
      </trkpt>
      <trkpt lat="47.71444" lon="3.66624">
        <ele>218</ele>
        <time>2019-04-02T10:40:31Z</time>
      </trkpt>
      <trkpt lat="47.71442" lon="3.66631">
        <ele>219</ele>
        <time>2019-04-02T10:40:36Z</time>
      </trkpt>
      <trkpt lat="47.71441" lon="3.66635">
        <ele>218</ele>
        <time>2019-04-02T10:40:39Z</time>
      </trkpt>
      <trkpt lat="47.7144" lon="3.66639">
        <ele>218</ele>
        <time>2019-04-02T10:40:43Z</time>
      </trkpt>
      <trkpt lat="47.71439" lon="3.66643">
        <ele>218</ele>
        <time>2019-04-02T10:40:46Z</time>
      </trkpt>
      <trkpt lat="47.71438" lon="3.66647">
        <ele>218</ele>
        <time>2019-04-02T10:40:48Z</time>
      </trkpt>
      <trkpt lat="47.71436" lon="3.66652">
        <ele>218</ele>
        <time>2019-04-02T10:40:52Z</time>
      </trkpt>
      <trkpt lat="47.71436" lon="3.66652">
        <ele>218</ele>
        <time>2019-04-02T10:41:00Z</time>
      </trkpt>
      <trkpt lat="47.71436" lon="3.66652">
        <ele>218</ele>
        <time>2019-04-02T10:41:01Z</time>
      </trkpt>
      <trkpt lat="47.71442" lon="3.66667">
        <ele>224</ele>
        <time>2019-04-02T11:03:40Z</time>
      </trkpt>
      <trkpt lat="47.71436" lon="3.66675">
        <ele>223</ele>
        <time>2019-04-02T11:03:49Z</time>
      </trkpt>
      <trkpt lat="47.71437" lon="3.66681">
        <ele>220</ele>
        <time>2019-04-02T11:03:59Z</time>
      </trkpt>
      <trkpt lat="47.71437" lon="3.66681">
        <ele>220</ele>
        <time>2019-04-02T11:06:18Z</time>
      </trkpt>
      <trkpt lat="47.71442" lon="3.66654">
        <ele>219</ele>
        <time>2019-04-02T11:15:25Z</time>
      </trkpt>
      <trkpt lat="47.71439" lon="3.66647">
        <ele>218</ele>
        <time>2019-04-02T11:15:33Z</time>
      </trkpt>
      <trkpt lat="47.71437" lon="3.66641">
        <ele>218</ele>
        <time>2019-04-02T11:15:38Z</time>
      </trkpt>
      <trkpt lat="47.71435" lon="3.66635">
        <ele>218</ele>
        <time>2019-04-02T11:15:42Z</time>
      </trkpt>
      <trkpt lat="47.71431" lon="3.66631">
        <ele>218</ele>
        <time>2019-04-02T11:15:45Z</time>
      </trkpt>
      <trkpt lat="47.71428" lon="3.66629">
        <ele>217</ele>
        <time>2019-04-02T11:15:48Z</time>
      </trkpt>
      <trkpt lat="47.71426" lon="3.66627">
        <ele>217</ele>
        <time>2019-04-02T11:15:50Z</time>
      </trkpt>
      <trkpt lat="47.71424" lon="3.66626">
        <ele>217</ele>
        <time>2019-04-02T11:15:53Z</time>
      </trkpt>
      <trkpt lat="47.71418" lon="3.66625">
        <ele>219</ele>
        <time>2019-04-02T11:16:01Z</time>
      </trkpt>
      <trkpt lat="47.71413" lon="3.66625">
        <ele>221</ele>
        <time>2019-04-02T11:16:06Z</time>
      </trkpt>
      <trkpt lat="47.71408" lon="3.66626">
        <ele>220</ele>
        <time>2019-04-02T11:16:09Z</time>
      </trkpt>
      <trkpt lat="47.71403" lon="3.66625">
        <ele>222</ele>
        <time>2019-04-02T11:16:14Z</time>
      </trkpt>
      <trkpt lat="47.71398" lon="3.66626">
        <ele>223</ele>
        <time>2019-04-02T11:16:18Z</time>
      </trkpt>
      <trkpt lat="47.71393" lon="3.66625">
        <ele>224</ele>
        <time>2019-04-02T11:16:24Z</time>
      </trkpt>
      <trkpt lat="47.7139" lon="3.6662">
        <ele>224</ele>
        <time>2019-04-02T11:16:28Z</time>
      </trkpt>
      <trkpt lat="47.71389" lon="3.66613">
        <ele>227</ele>
        <time>2019-04-02T11:16:34Z</time>
      </trkpt>
      <trkpt lat="47.71387" lon="3.66608">
        <ele>227</ele>
        <time>2019-04-02T11:16:38Z</time>
      </trkpt>
      <trkpt lat="47.71387" lon="3.666">
        <ele>227</ele>
        <time>2019-04-02T11:16:42Z</time>
      </trkpt>
      <trkpt lat="47.71386" lon="3.66592">
        <ele>226</ele>
        <time>2019-04-02T11:16:48Z</time>
      </trkpt>
      <trkpt lat="47.71385" lon="3.66587">
        <ele>227</ele>
        <time>2019-04-02T11:16:50Z</time>
      </trkpt>
      <trkpt lat="47.71384" lon="3.66581">
        <ele>226</ele>
        <time>2019-04-02T11:16:53Z</time>
      </trkpt>
      <trkpt lat="47.71384" lon="3.66573">
        <ele>226</ele>
        <time>2019-04-02T11:16:58Z</time>
      </trkpt>
      <trkpt lat="47.71384" lon="3.66567">
        <ele>227</ele>
        <time>2019-04-02T11:17:02Z</time>
      </trkpt>
      <trkpt lat="47.71383" lon="3.6656">
        <ele>227</ele>
        <time>2019-04-02T11:17:06Z</time>
      </trkpt>
      <trkpt lat="47.71379" lon="3.66551">
        <ele>228</ele>
        <time>2019-04-02T11:17:15Z</time>
      </trkpt>
      <trkpt lat="47.71379" lon="3.66543">
        <ele>227</ele>
        <time>2019-04-02T11:17:20Z</time>
      </trkpt>
      <trkpt lat="47.71379" lon="3.6654">
        <ele>227</ele>
        <time>2019-04-02T11:17:23Z</time>
      </trkpt>
      <trkpt lat="47.71379" lon="3.66532">
        <ele>228</ele>
        <time>2019-04-02T11:17:29Z</time>
      </trkpt>
      <trkpt lat="47.71376" lon="3.66525">
        <ele>227</ele>
        <time>2019-04-02T11:17:35Z</time>
      </trkpt>
      <trkpt lat="47.71376" lon="3.66516">
        <ele>228</ele>
        <time>2019-04-02T11:17:42Z</time>
      </trkpt>
      <trkpt lat="47.71373" lon="3.66507">
        <ele>227</ele>
        <time>2019-04-02T11:17:47Z</time>
      </trkpt>
      <trkpt lat="47.71372" lon="3.66504">
        <ele>227</ele>
        <time>2019-04-02T11:17:49Z</time>
      </trkpt>
      <trkpt lat="47.71369" lon="3.66497">
        <ele>226</ele>
        <time>2019-04-02T11:17:53Z</time>
      </trkpt>
      <trkpt lat="47.71366" lon="3.66488">
        <ele>225</ele>
        <time>2019-04-02T11:17:59Z</time>
      </trkpt>
      <trkpt lat="47.71364" lon="3.6648">
        <ele>225</ele>
        <time>2019-04-02T11:18:04Z</time>
      </trkpt>
      <trkpt lat="47.71363" lon="3.66476">
        <ele>223</ele>
        <time>2019-04-02T11:18:07Z</time>
      </trkpt>
      <trkpt lat="47.7136" lon="3.66471">
        <ele>223</ele>
        <time>2019-04-02T11:18:11Z</time>
      </trkpt>
      <trkpt lat="47.71357" lon="3.66464">
        <ele>224</ele>
        <time>2019-04-02T11:18:16Z</time>
      </trkpt>
      <trkpt lat="47.71354" lon="3.66459">
        <ele>222</ele>
        <time>2019-04-02T11:18:22Z</time>
      </trkpt>
      <trkpt lat="47.71352" lon="3.66455">
        <ele>221</ele>
        <time>2019-04-02T11:18:25Z</time>
      </trkpt>
      <trkpt lat="47.7135" lon="3.66452">
        <ele>220</ele>
        <time>2019-04-02T11:18:28Z</time>
      </trkpt>
      <trkpt lat="47.71348" lon="3.66448">
        <ele>220</ele>
        <time>2019-04-02T11:18:48Z</time>
      </trkpt>
      <trkpt lat="47.71344" lon="3.66443">
        <ele>220</ele>
        <time>2019-04-02T11:18:53Z</time>
      </trkpt>
      <trkpt lat="47.71341" lon="3.66435">
        <ele>222</ele>
        <time>2019-04-02T11:19:11Z</time>
      </trkpt>
      <trkpt lat="47.71337" lon="3.66431">
        <ele>221</ele>
        <time>2019-04-02T11:19:16Z</time>
      </trkpt>
      <trkpt lat="47.7133" lon="3.66429">
        <ele>218</ele>
        <time>2019-04-02T11:19:23Z</time>
      </trkpt>
      <trkpt lat="47.71324" lon="3.66429">
        <ele>218</ele>
        <time>2019-04-02T11:19:26Z</time>
      </trkpt>
      <trkpt lat="47.71321" lon="3.66429">
        <ele>219</ele>
        <time>2019-04-02T11:19:29Z</time>
      </trkpt>
      <trkpt lat="47.71317" lon="3.6643">
        <ele>221</ele>
        <time>2019-04-02T11:19:32Z</time>
      </trkpt>
      <trkpt lat="47.71312" lon="3.66434">
        <ele>222</ele>
        <time>2019-04-02T11:19:37Z</time>
      </trkpt>
      <trkpt lat="47.71308" lon="3.66438">
        <ele>223</ele>
        <time>2019-04-02T11:19:42Z</time>
      </trkpt>
      <trkpt lat="47.71304" lon="3.66443">
        <ele>223</ele>
        <time>2019-04-02T11:19:46Z</time>
      </trkpt>
      <trkpt lat="47.71301" lon="3.66446">
        <ele>222</ele>
        <time>2019-04-02T11:19:49Z</time>
      </trkpt>
      <trkpt lat="47.71298" lon="3.66449">
        <ele>222</ele>
        <time>2019-04-02T11:19:52Z</time>
      </trkpt>
      <trkpt lat="47.71296" lon="3.66451">
        <ele>223</ele>
        <time>2019-04-02T11:19:54Z</time>
      </trkpt>
      <trkpt lat="47.71291" lon="3.66455">
        <ele>223</ele>
        <time>2019-04-02T11:19:58Z</time>
      </trkpt>
      <trkpt lat="47.71287" lon="3.6646">
        <ele>224</ele>
        <time>2019-04-02T11:20:04Z</time>
      </trkpt>
      <trkpt lat="47.71284" lon="3.66462">
        <ele>224</ele>
        <time>2019-04-02T11:20:08Z</time>
      </trkpt>
      <trkpt lat="47.71281" lon="3.66469">
        <ele>224</ele>
        <time>2019-04-02T11:20:12Z</time>
      </trkpt>
      <trkpt lat="47.71277" lon="3.66473">
        <ele>223</ele>
        <time>2019-04-02T11:20:16Z</time>
      </trkpt>
      <trkpt lat="47.71275" lon="3.66474">
        <ele>223</ele>
        <time>2019-04-02T11:20:18Z</time>
      </trkpt>
      <trkpt lat="47.71269" lon="3.66476">
        <ele>224</ele>
        <time>2019-04-02T11:20:23Z</time>
      </trkpt>
      <trkpt lat="47.71265" lon="3.66477">
        <ele>224</ele>
        <time>2019-04-02T11:20:27Z</time>
      </trkpt>
      <trkpt lat="47.71261" lon="3.66482">
        <ele>225</ele>
        <time>2019-04-02T11:20:31Z</time>
      </trkpt>
      <trkpt lat="47.71259" lon="3.66489">
        <ele>226</ele>
        <time>2019-04-02T11:20:36Z</time>
      </trkpt>
      <trkpt lat="47.71254" lon="3.66492">
        <ele>224</ele>
        <time>2019-04-02T11:20:41Z</time>
      </trkpt>
      <trkpt lat="47.71252" lon="3.66494">
        <ele>224</ele>
        <time>2019-04-02T11:20:43Z</time>
      </trkpt>
      <trkpt lat="47.71251" lon="3.66501">
        <ele>222</ele>
        <time>2019-04-02T11:20:48Z</time>
      </trkpt>
      <trkpt lat="47.71245" lon="3.665">
        <ele>222</ele>
        <time>2019-04-02T11:20:55Z</time>
      </trkpt>
      <trkpt lat="47.71241" lon="3.66502">
        <ele>223</ele>
        <time>2019-04-02T11:20:57Z</time>
      </trkpt>
      <trkpt lat="47.71237" lon="3.66504">
        <ele>225</ele>
        <time>2019-04-02T11:21:02Z</time>
      </trkpt>
      <trkpt lat="47.71232" lon="3.66505">
        <ele>227</ele>
        <time>2019-04-02T11:21:07Z</time>
      </trkpt>
      <trkpt lat="47.71228" lon="3.66508">
        <ele>226</ele>
        <time>2019-04-02T11:21:11Z</time>
      </trkpt>
      <trkpt lat="47.71223" lon="3.66512">
        <ele>228</ele>
        <time>2019-04-02T11:21:16Z</time>
      </trkpt>
      <trkpt lat="47.71218" lon="3.66516">
        <ele>229</ele>
        <time>2019-04-02T11:21:21Z</time>
      </trkpt>
      <trkpt lat="47.71214" lon="3.66521">
        <ele>228</ele>
        <time>2019-04-02T11:21:25Z</time>
      </trkpt>
      <trkpt lat="47.71212" lon="3.66523">
        <ele>228</ele>
        <time>2019-04-02T11:21:32Z</time>
      </trkpt>
      <trkpt lat="47.71207" lon="3.66525">
        <ele>228</ele>
        <time>2019-04-02T11:21:37Z</time>
      </trkpt>
      <trkpt lat="47.71202" lon="3.66527">
        <ele>229</ele>
        <time>2019-04-02T11:21:43Z</time>
      </trkpt>
      <trkpt lat="47.71199" lon="3.66532">
        <ele>227</ele>
        <time>2019-04-02T11:21:48Z</time>
      </trkpt>
      <trkpt lat="47.71195" lon="3.6654">
        <ele>225</ele>
        <time>2019-04-02T11:21:55Z</time>
      </trkpt>
      <trkpt lat="47.71193" lon="3.66546">
        <ele>227</ele>
        <time>2019-04-02T11:21:59Z</time>
      </trkpt>
      <trkpt lat="47.71191" lon="3.66553">
        <ele>226</ele>
        <time>2019-04-02T11:22:03Z</time>
      </trkpt>
      <trkpt lat="47.71189" lon="3.66558">
        <ele>227</ele>
        <time>2019-04-02T11:22:06Z</time>
      </trkpt>
      <trkpt lat="47.71185" lon="3.66562">
        <ele>227</ele>
        <time>2019-04-02T11:22:09Z</time>
      </trkpt>
      <trkpt lat="47.71183" lon="3.66569">
        <ele>229</ele>
        <time>2019-04-02T11:22:14Z</time>
      </trkpt>
      <trkpt lat="47.71181" lon="3.66572">
        <ele>229</ele>
        <time>2019-04-02T11:22:16Z</time>
      </trkpt>
      <trkpt lat="47.7118" lon="3.66576">
        <ele>229</ele>
        <time>2019-04-02T11:22:19Z</time>
      </trkpt>
      <trkpt lat="47.71178" lon="3.6658">
        <ele>230</ele>
        <time>2019-04-02T11:22:22Z</time>
      </trkpt>
      <trkpt lat="47.71175" lon="3.66586">
        <ele>229</ele>
        <time>2019-04-02T11:22:27Z</time>
      </trkpt>
      <trkpt lat="47.71173" lon="3.66589">
        <ele>230</ele>
        <time>2019-04-02T11:22:29Z</time>
      </trkpt>
      <trkpt lat="47.71171" lon="3.66593">
        <ele>230</ele>
        <time>2019-04-02T11:22:32Z</time>
      </trkpt>
      <trkpt lat="47.71169" lon="3.66595">
        <ele>231</ele>
        <time>2019-04-02T11:22:34Z</time>
      </trkpt>
      <trkpt lat="47.71164" lon="3.66602">
        <ele>233</ele>
        <time>2019-04-02T11:22:40Z</time>
      </trkpt>
      <trkpt lat="47.71161" lon="3.66607">
        <ele>234</ele>
        <time>2019-04-02T11:22:45Z</time>
      </trkpt>
      <trkpt lat="47.71158" lon="3.66613">
        <ele>234</ele>
        <time>2019-04-02T11:22:49Z</time>
      </trkpt>
      <trkpt lat="47.71154" lon="3.66619">
        <ele>236</ele>
        <time>2019-04-02T11:22:54Z</time>
      </trkpt>
      <trkpt lat="47.71151" lon="3.66625">
        <ele>236</ele>
        <time>2019-04-02T11:22:59Z</time>
      </trkpt>
      <trkpt lat="47.71147" lon="3.6663">
        <ele>236</ele>
        <time>2019-04-02T11:23:03Z</time>
      </trkpt>
      <trkpt lat="47.71145" lon="3.66633">
        <ele>236</ele>
        <time>2019-04-02T11:23:06Z</time>
      </trkpt>
      <trkpt lat="47.71141" lon="3.6664">
        <ele>235</ele>
        <time>2019-04-02T11:23:10Z</time>
      </trkpt>
      <trkpt lat="47.71138" lon="3.66647">
        <ele>236</ele>
        <time>2019-04-02T11:23:15Z</time>
      </trkpt>
      <trkpt lat="47.71135" lon="3.66652">
        <ele>236</ele>
        <time>2019-04-02T11:23:19Z</time>
      </trkpt>
      <trkpt lat="47.71131" lon="3.66656">
        <ele>237</ele>
        <time>2019-04-02T11:23:24Z</time>
      </trkpt>
      <trkpt lat="47.71129" lon="3.66659">
        <ele>238</ele>
        <time>2019-04-02T11:23:26Z</time>
      </trkpt>
      <trkpt lat="47.71126" lon="3.66664">
        <ele>239</ele>
        <time>2019-04-02T11:23:30Z</time>
      </trkpt>
      <trkpt lat="47.71123" lon="3.66669">
        <ele>239</ele>
        <time>2019-04-02T11:23:34Z</time>
      </trkpt>
      <trkpt lat="47.7112" lon="3.66673">
        <ele>240</ele>
        <time>2019-04-02T11:23:38Z</time>
      </trkpt>
      <trkpt lat="47.71117" lon="3.66677">
        <ele>241</ele>
        <time>2019-04-02T11:23:42Z</time>
      </trkpt>
      <trkpt lat="47.71113" lon="3.66682">
        <ele>241</ele>
        <time>2019-04-02T11:23:46Z</time>
      </trkpt>
      <trkpt lat="47.7111" lon="3.66688">
        <ele>242</ele>
        <time>2019-04-02T11:23:50Z</time>
      </trkpt>
      <trkpt lat="47.71108" lon="3.66691">
        <ele>244</ele>
        <time>2019-04-02T11:23:53Z</time>
      </trkpt>
      <trkpt lat="47.71106" lon="3.66694">
        <ele>244</ele>
        <time>2019-04-02T11:23:55Z</time>
      </trkpt>
      <trkpt lat="47.71104" lon="3.66697">
        <ele>243</ele>
        <time>2019-04-02T11:23:57Z</time>
      </trkpt>
      <trkpt lat="47.71103" lon="3.667">
        <ele>243</ele>
        <time>2019-04-02T11:23:59Z</time>
      </trkpt>
      <trkpt lat="47.71099" lon="3.66704">
        <ele>242</ele>
        <time>2019-04-02T11:24:03Z</time>
      </trkpt>
      <trkpt lat="47.71095" lon="3.6671">
        <ele>243</ele>
        <time>2019-04-02T11:24:08Z</time>
      </trkpt>
      <trkpt lat="47.71093" lon="3.66714">
        <ele>243</ele>
        <time>2019-04-02T11:24:12Z</time>
      </trkpt>
      <trkpt lat="47.7109" lon="3.66719">
        <ele>243</ele>
        <time>2019-04-02T11:24:16Z</time>
      </trkpt>
      <trkpt lat="47.71085" lon="3.66723">
        <ele>244</ele>
        <time>2019-04-02T11:24:21Z</time>
      </trkpt>
      <trkpt lat="47.71082" lon="3.66728">
        <ele>245</ele>
        <time>2019-04-02T11:24:26Z</time>
      </trkpt>
      <trkpt lat="47.71077" lon="3.66733">
        <ele>246</ele>
        <time>2019-04-02T11:24:30Z</time>
      </trkpt>
      <trkpt lat="47.71074" lon="3.66738">
        <ele>246</ele>
        <time>2019-04-02T11:24:34Z</time>
      </trkpt>
      <trkpt lat="47.71071" lon="3.66743">
        <ele>247</ele>
        <time>2019-04-02T11:24:38Z</time>
      </trkpt>
      <trkpt lat="47.71069" lon="3.66747">
        <ele>247</ele>
        <time>2019-04-02T11:24:42Z</time>
      </trkpt>
      <trkpt lat="47.71065" lon="3.66752">
        <ele>248</ele>
        <time>2019-04-02T11:24:46Z</time>
      </trkpt>
      <trkpt lat="47.71064" lon="3.66755">
        <ele>249</ele>
        <time>2019-04-02T11:24:48Z</time>
      </trkpt>
      <trkpt lat="47.7106" lon="3.6676">
        <ele>250</ele>
        <time>2019-04-02T11:24:52Z</time>
      </trkpt>
      <trkpt lat="47.71057" lon="3.66765">
        <ele>249</ele>
        <time>2019-04-02T11:24:55Z</time>
      </trkpt>
      <trkpt lat="47.71055" lon="3.66768">
        <ele>249</ele>
        <time>2019-04-02T11:24:58Z</time>
      </trkpt>
      <trkpt lat="47.71052" lon="3.66773">
        <ele>250</ele>
        <time>2019-04-02T11:25:01Z</time>
      </trkpt>
      <trkpt lat="47.71051" lon="3.66775">
        <ele>250</ele>
        <time>2019-04-02T11:25:03Z</time>
      </trkpt>
      <trkpt lat="47.71049" lon="3.66782">
        <ele>250</ele>
        <time>2019-04-02T11:25:07Z</time>
      </trkpt>
      <trkpt lat="47.71045" lon="3.66787">
        <ele>250</ele>
        <time>2019-04-02T11:25:12Z</time>
      </trkpt>
      <trkpt lat="47.71042" lon="3.66794">
        <ele>251</ele>
        <time>2019-04-02T11:25:17Z</time>
      </trkpt>
      <trkpt lat="47.7104" lon="3.66799">
        <ele>252</ele>
        <time>2019-04-02T11:25:20Z</time>
      </trkpt>
      <trkpt lat="47.71038" lon="3.66804">
        <ele>252</ele>
        <time>2019-04-02T11:25:23Z</time>
      </trkpt>
      <trkpt lat="47.71036" lon="3.66807">
        <ele>252</ele>
        <time>2019-04-02T11:25:25Z</time>
      </trkpt>
      <trkpt lat="47.71035" lon="3.6681">
        <ele>252</ele>
        <time>2019-04-02T11:25:27Z</time>
      </trkpt>
      <trkpt lat="47.71033" lon="3.66813">
        <ele>253</ele>
        <time>2019-04-02T11:25:29Z</time>
      </trkpt>
      <trkpt lat="47.71031" lon="3.66818">
        <ele>253</ele>
        <time>2019-04-02T11:25:32Z</time>
      </trkpt>
      <trkpt lat="47.71029" lon="3.66821">
        <ele>253</ele>
        <time>2019-04-02T11:25:34Z</time>
      </trkpt>
      <trkpt lat="47.71028" lon="3.66824">
        <ele>254</ele>
        <time>2019-04-02T11:25:36Z</time>
      </trkpt>
      <trkpt lat="47.71025" lon="3.6683">
        <ele>255</ele>
        <time>2019-04-02T11:25:40Z</time>
      </trkpt>
      <trkpt lat="47.71023" lon="3.66836">
        <ele>255</ele>
        <time>2019-04-02T11:25:44Z</time>
      </trkpt>
      <trkpt lat="47.71021" lon="3.6684">
        <ele>255</ele>
        <time>2019-04-02T11:25:47Z</time>
      </trkpt>
      <trkpt lat="47.71019" lon="3.66842">
        <ele>255</ele>
        <time>2019-04-02T11:25:49Z</time>
      </trkpt>
      <trkpt lat="47.71017" lon="3.66849">
        <ele>255</ele>
        <time>2019-04-02T11:25:53Z</time>
      </trkpt>
      <trkpt lat="47.71012" lon="3.66856">
        <ele>255</ele>
        <time>2019-04-02T11:25:59Z</time>
      </trkpt>
      <trkpt lat="47.71009" lon="3.66865">
        <ele>255</ele>
        <time>2019-04-02T11:26:05Z</time>
      </trkpt>
      <trkpt lat="47.71005" lon="3.66873">
        <ele>256</ele>
        <time>2019-04-02T11:26:10Z</time>
      </trkpt>
      <trkpt lat="47.71003" lon="3.66876">
        <ele>257</ele>
        <time>2019-04-02T11:26:12Z</time>
      </trkpt>
      <trkpt lat="47.71001" lon="3.66878">
        <ele>257</ele>
        <time>2019-04-02T11:26:14Z</time>
      </trkpt>
      <trkpt lat="47.70997" lon="3.66884">
        <ele>258</ele>
        <time>2019-04-02T11:26:19Z</time>
      </trkpt>
      <trkpt lat="47.70994" lon="3.66889">
        <ele>258</ele>
        <time>2019-04-02T11:26:23Z</time>
      </trkpt>
      <trkpt lat="47.70993" lon="3.66892">
        <ele>258</ele>
        <time>2019-04-02T11:26:25Z</time>
      </trkpt>
      <trkpt lat="47.70989" lon="3.66897">
        <ele>259</ele>
        <time>2019-04-02T11:26:29Z</time>
      </trkpt>
      <trkpt lat="47.70986" lon="3.66901">
        <ele>260</ele>
        <time>2019-04-02T11:26:33Z</time>
      </trkpt>
      <trkpt lat="47.70984" lon="3.66904">
        <ele>260</ele>
        <time>2019-04-02T11:26:35Z</time>
      </trkpt>
      <trkpt lat="47.7098" lon="3.66909">
        <ele>260</ele>
        <time>2019-04-02T11:26:39Z</time>
      </trkpt>
      <trkpt lat="47.70978" lon="3.66912">
        <ele>261</ele>
        <time>2019-04-02T11:26:42Z</time>
      </trkpt>
      <trkpt lat="47.70976" lon="3.66915">
        <ele>260</ele>
        <time>2019-04-02T11:26:44Z</time>
      </trkpt>
      <trkpt lat="47.70973" lon="3.66921">
        <ele>261</ele>
        <time>2019-04-02T11:26:49Z</time>
      </trkpt>
      <trkpt lat="47.7097" lon="3.66924">
        <ele>261</ele>
        <time>2019-04-02T11:26:52Z</time>
      </trkpt>
      <trkpt lat="47.70968" lon="3.66927">
        <ele>262</ele>
        <time>2019-04-02T11:26:55Z</time>
      </trkpt>
      <trkpt lat="47.70965" lon="3.66931">
        <ele>262</ele>
        <time>2019-04-02T11:26:58Z</time>
      </trkpt>
      <trkpt lat="47.70963" lon="3.66933">
        <ele>262</ele>
        <time>2019-04-02T11:27:00Z</time>
      </trkpt>
      <trkpt lat="47.7096" lon="3.66938">
        <ele>262</ele>
        <time>2019-04-02T11:27:04Z</time>
      </trkpt>
      <trkpt lat="47.70955" lon="3.66942">
        <ele>262</ele>
        <time>2019-04-02T11:27:08Z</time>
      </trkpt>
      <trkpt lat="47.70951" lon="3.66947">
        <ele>263</ele>
        <time>2019-04-02T11:27:13Z</time>
      </trkpt>
      <trkpt lat="47.70948" lon="3.6695">
        <ele>264</ele>
        <time>2019-04-02T11:27:16Z</time>
      </trkpt>
      <trkpt lat="47.70945" lon="3.66953">
        <ele>264</ele>
        <time>2019-04-02T11:27:19Z</time>
      </trkpt>
      <trkpt lat="47.70943" lon="3.66956">
        <ele>264</ele>
        <time>2019-04-02T11:27:21Z</time>
      </trkpt>
      <trkpt lat="47.7094" lon="3.66959">
        <ele>265</ele>
        <time>2019-04-02T11:27:24Z</time>
      </trkpt>
      <trkpt lat="47.70936" lon="3.66964">
        <ele>265</ele>
        <time>2019-04-02T11:27:28Z</time>
      </trkpt>
      <trkpt lat="47.70932" lon="3.66968">
        <ele>266</ele>
        <time>2019-04-02T11:27:33Z</time>
      </trkpt>
      <trkpt lat="47.70928" lon="3.66973">
        <ele>267</ele>
        <time>2019-04-02T11:27:37Z</time>
      </trkpt>
      <trkpt lat="47.70925" lon="3.66977">
        <ele>268</ele>
        <time>2019-04-02T11:27:41Z</time>
      </trkpt>
      <trkpt lat="47.70922" lon="3.66979">
        <ele>268</ele>
        <time>2019-04-02T11:27:43Z</time>
      </trkpt>
      <trkpt lat="47.70919" lon="3.66983">
        <ele>268</ele>
        <time>2019-04-02T11:27:47Z</time>
      </trkpt>
      <trkpt lat="47.70915" lon="3.66988">
        <ele>269</ele>
        <time>2019-04-02T11:27:52Z</time>
      </trkpt>
      <trkpt lat="47.70912" lon="3.66993">
        <ele>270</ele>
        <time>2019-04-02T11:27:56Z</time>
      </trkpt>
      <trkpt lat="47.70908" lon="3.66998">
        <ele>271</ele>
        <time>2019-04-02T11:28:00Z</time>
      </trkpt>
      <trkpt lat="47.70904" lon="3.67003">
        <ele>271</ele>
        <time>2019-04-02T11:28:05Z</time>
      </trkpt>
      <trkpt lat="47.70902" lon="3.67006">
        <ele>271</ele>
        <time>2019-04-02T11:28:07Z</time>
      </trkpt>
      <trkpt lat="47.70899" lon="3.67011">
        <ele>271</ele>
        <time>2019-04-02T11:28:11Z</time>
      </trkpt>
      <trkpt lat="47.70896" lon="3.67013">
        <ele>271</ele>
        <time>2019-04-02T11:28:13Z</time>
      </trkpt>
      <trkpt lat="47.70894" lon="3.67017">
        <ele>271</ele>
        <time>2019-04-02T11:28:17Z</time>
      </trkpt>
      <trkpt lat="47.70889" lon="3.67022">
        <ele>271</ele>
        <time>2019-04-02T11:28:21Z</time>
      </trkpt>
      <trkpt lat="47.70887" lon="3.67024">
        <ele>272</ele>
        <time>2019-04-02T11:28:24Z</time>
      </trkpt>
      <trkpt lat="47.70884" lon="3.67029">
        <ele>273</ele>
        <time>2019-04-02T11:28:28Z</time>
      </trkpt>
      <trkpt lat="47.70881" lon="3.67032">
        <ele>273</ele>
        <time>2019-04-02T11:28:30Z</time>
      </trkpt>
      <trkpt lat="47.70878" lon="3.67035">
        <ele>274</ele>
        <time>2019-04-02T11:28:33Z</time>
      </trkpt>
      <trkpt lat="47.70873" lon="3.67041">
        <ele>274</ele>
        <time>2019-04-02T11:28:39Z</time>
      </trkpt>
      <trkpt lat="47.70869" lon="3.67046">
        <ele>274</ele>
        <time>2019-04-02T11:28:44Z</time>
      </trkpt>
      <trkpt lat="47.70866" lon="3.6705">
        <ele>275</ele>
        <time>2019-04-02T11:28:48Z</time>
      </trkpt>
      <trkpt lat="47.70862" lon="3.67054">
        <ele>276</ele>
        <time>2019-04-02T11:28:51Z</time>
      </trkpt>
      <trkpt lat="47.7086" lon="3.67057">
        <ele>275</ele>
        <time>2019-04-02T11:28:54Z</time>
      </trkpt>
      <trkpt lat="47.70858" lon="3.6706">
        <ele>276</ele>
        <time>2019-04-02T11:28:57Z</time>
      </trkpt>
      <trkpt lat="47.70853" lon="3.67064">
        <ele>277</ele>
        <time>2019-04-02T11:29:01Z</time>
      </trkpt>
      <trkpt lat="47.7085" lon="3.67066">
        <ele>278</ele>
        <time>2019-04-02T11:29:04Z</time>
      </trkpt>
      <trkpt lat="47.70847" lon="3.67072">
        <ele>278</ele>
        <time>2019-04-02T11:29:08Z</time>
      </trkpt>
      <trkpt lat="47.70843" lon="3.67076">
        <ele>279</ele>
        <time>2019-04-02T11:29:12Z</time>
      </trkpt>
      <trkpt lat="47.70841" lon="3.67078">
        <ele>279</ele>
        <time>2019-04-02T11:29:14Z</time>
      </trkpt>
      <trkpt lat="47.70839" lon="3.6708">
        <ele>279</ele>
        <time>2019-04-02T11:29:16Z</time>
      </trkpt>
      <trkpt lat="47.70834" lon="3.67085">
        <ele>279</ele>
        <time>2019-04-02T11:29:20Z</time>
      </trkpt>
      <trkpt lat="47.70831" lon="3.67088">
        <ele>280</ele>
        <time>2019-04-02T11:29:24Z</time>
      </trkpt>
      <trkpt lat="47.70828" lon="3.67092">
        <ele>281</ele>
        <time>2019-04-02T11:29:28Z</time>
      </trkpt>
      <trkpt lat="47.70825" lon="3.67094">
        <ele>281</ele>
        <time>2019-04-02T11:29:31Z</time>
      </trkpt>
      <trkpt lat="47.70821" lon="3.67098">
        <ele>280</ele>
        <time>2019-04-02T11:29:35Z</time>
      </trkpt>
      <trkpt lat="47.70818" lon="3.67101">
        <ele>281</ele>
        <time>2019-04-02T11:29:39Z</time>
      </trkpt>
      <trkpt lat="47.70813" lon="3.67107">
        <ele>282</ele>
        <time>2019-04-02T11:29:44Z</time>
      </trkpt>
      <trkpt lat="47.70808" lon="3.6711">
        <ele>283</ele>
        <time>2019-04-02T11:29:48Z</time>
      </trkpt>
      <trkpt lat="47.70806" lon="3.67112">
        <ele>282</ele>
        <time>2019-04-02T11:29:51Z</time>
      </trkpt>
      <trkpt lat="47.70801" lon="3.67115">
        <ele>283</ele>
        <time>2019-04-02T11:29:55Z</time>
      </trkpt>
      <trkpt lat="47.70799" lon="3.67117">
        <ele>284</ele>
        <time>2019-04-02T11:29:58Z</time>
      </trkpt>
      <trkpt lat="47.70796" lon="3.6712">
        <ele>284</ele>
        <time>2019-04-02T11:30:01Z</time>
      </trkpt>
      <trkpt lat="47.70792" lon="3.67125">
        <ele>284</ele>
        <time>2019-04-02T11:30:06Z</time>
      </trkpt>
      <trkpt lat="47.70788" lon="3.67129">
        <ele>285</ele>
        <time>2019-04-02T11:30:10Z</time>
      </trkpt>
      <trkpt lat="47.70785" lon="3.67132">
        <ele>286</ele>
        <time>2019-04-02T11:30:13Z</time>
      </trkpt>
      <trkpt lat="47.70782" lon="3.67137">
        <ele>288</ele>
        <time>2019-04-02T11:30:18Z</time>
      </trkpt>
      <trkpt lat="47.70778" lon="3.67141">
        <ele>288</ele>
        <time>2019-04-02T11:30:22Z</time>
      </trkpt>
      <trkpt lat="47.70775" lon="3.67143">
        <ele>289</ele>
        <time>2019-04-02T11:30:25Z</time>
      </trkpt>
      <trkpt lat="47.70772" lon="3.67146">
        <ele>289</ele>
        <time>2019-04-02T11:30:28Z</time>
      </trkpt>
      <trkpt lat="47.70768" lon="3.6715">
        <ele>290</ele>
        <time>2019-04-02T11:30:33Z</time>
      </trkpt>
      <trkpt lat="47.70766" lon="3.67154">
        <ele>292</ele>
        <time>2019-04-02T11:30:36Z</time>
      </trkpt>
      <trkpt lat="47.70762" lon="3.6716">
        <ele>291</ele>
        <time>2019-04-02T11:30:41Z</time>
      </trkpt>
      <trkpt lat="47.7076" lon="3.67163">
        <ele>292</ele>
        <time>2019-04-02T11:30:44Z</time>
      </trkpt>
      <trkpt lat="47.70758" lon="3.67166">
        <ele>292</ele>
        <time>2019-04-02T11:30:47Z</time>
      </trkpt>
      <trkpt lat="47.70754" lon="3.67171">
        <ele>294</ele>
        <time>2019-04-02T11:30:52Z</time>
      </trkpt>
      <trkpt lat="47.70752" lon="3.67174">
        <ele>294</ele>
        <time>2019-04-02T11:30:55Z</time>
      </trkpt>
      <trkpt lat="47.7075" lon="3.67177">
        <ele>294</ele>
        <time>2019-04-02T11:30:58Z</time>
      </trkpt>
      <trkpt lat="47.70747" lon="3.67182">
        <ele>295</ele>
        <time>2019-04-02T11:31:02Z</time>
      </trkpt>
      <trkpt lat="47.70743" lon="3.67187">
        <ele>297</ele>
        <time>2019-04-02T11:31:07Z</time>
      </trkpt>
      <trkpt lat="47.7074" lon="3.67192">
        <ele>297</ele>
        <time>2019-04-02T11:31:11Z</time>
      </trkpt>
      <trkpt lat="47.70736" lon="3.67197">
        <ele>299</ele>
        <time>2019-04-02T11:31:16Z</time>
      </trkpt>
      <trkpt lat="47.70732" lon="3.67203">
        <ele>299</ele>
        <time>2019-04-02T11:31:21Z</time>
      </trkpt>
      <trkpt lat="47.70729" lon="3.67209">
        <ele>300</ele>
        <time>2019-04-02T11:31:26Z</time>
      </trkpt>
      <trkpt lat="47.70727" lon="3.67212">
        <ele>300</ele>
        <time>2019-04-02T11:31:28Z</time>
      </trkpt>
      <trkpt lat="47.70725" lon="3.67216">
        <ele>301</ele>
        <time>2019-04-02T11:31:32Z</time>
      </trkpt>
      <trkpt lat="47.70723" lon="3.67219">
        <ele>302</ele>
        <time>2019-04-02T11:31:35Z</time>
      </trkpt>
      <trkpt lat="47.7072" lon="3.67222">
        <ele>302</ele>
        <time>2019-04-02T11:31:38Z</time>
      </trkpt>
      <trkpt lat="47.70717" lon="3.67228">
        <ele>303</ele>
        <time>2019-04-02T11:31:43Z</time>
      </trkpt>
      <trkpt lat="47.70715" lon="3.67233">
        <ele>303</ele>
        <time>2019-04-02T11:31:47Z</time>
      </trkpt>
      <trkpt lat="47.70713" lon="3.67237">
        <ele>303</ele>
        <time>2019-04-02T11:31:50Z</time>
      </trkpt>
      <trkpt lat="47.70711" lon="3.67244">
        <ele>304</ele>
        <time>2019-04-02T11:31:55Z</time>
      </trkpt>
      <trkpt lat="47.70708" lon="3.6725">
        <ele>304</ele>
        <time>2019-04-02T11:31:59Z</time>
      </trkpt>
      <trkpt lat="47.70707" lon="3.67256">
        <ele>304</ele>
        <time>2019-04-02T11:32:04Z</time>
      </trkpt>
      <trkpt lat="47.70706" lon="3.67261">
        <ele>304</ele>
        <time>2019-04-02T11:32:07Z</time>
      </trkpt>
      <trkpt lat="47.70702" lon="3.67267">
        <ele>306</ele>
        <time>2019-04-02T11:32:14Z</time>
      </trkpt>
      <trkpt lat="47.70701" lon="3.67275">
        <ele>308</ele>
        <time>2019-04-02T11:32:19Z</time>
      </trkpt>
      <trkpt lat="47.70697" lon="3.6728">
        <ele>307</ele>
        <time>2019-04-02T11:32:22Z</time>
      </trkpt>
      <trkpt lat="47.70694" lon="3.67287">
        <ele>309</ele>
        <time>2019-04-02T11:32:27Z</time>
      </trkpt>
      <trkpt lat="47.70692" lon="3.67291">
        <ele>310</ele>
        <time>2019-04-02T11:32:30Z</time>
      </trkpt>
      <trkpt lat="47.70689" lon="3.67297">
        <ele>311</ele>
        <time>2019-04-02T11:32:35Z</time>
      </trkpt>
      <trkpt lat="47.70687" lon="3.67304">
        <ele>311</ele>
        <time>2019-04-02T11:32:39Z</time>
      </trkpt>
      <trkpt lat="47.70686" lon="3.67308">
        <ele>312</ele>
        <time>2019-04-02T11:32:41Z</time>
      </trkpt>
      <trkpt lat="47.70685" lon="3.67314">
        <ele>312</ele>
        <time>2019-04-02T11:32:44Z</time>
      </trkpt>
      <trkpt lat="47.70684" lon="3.6732">
        <ele>311</ele>
        <time>2019-04-02T11:32:47Z</time>
      </trkpt>
      <trkpt lat="47.70681" lon="3.67327">
        <ele>312</ele>
        <time>2019-04-02T11:32:52Z</time>
      </trkpt>
      <trkpt lat="47.70678" lon="3.67333">
        <ele>312</ele>
        <time>2019-04-02T11:32:56Z</time>
      </trkpt>
      <trkpt lat="47.70676" lon="3.67344">
        <ele>313</ele>
        <time>2019-04-02T11:33:01Z</time>
      </trkpt>
      <trkpt lat="47.70674" lon="3.67352">
        <ele>314</ele>
        <time>2019-04-02T11:33:07Z</time>
      </trkpt>
      <trkpt lat="47.70672" lon="3.67357">
        <ele>315</ele>
        <time>2019-04-02T11:33:10Z</time>
      </trkpt>
      <trkpt lat="47.70672" lon="3.67364">
        <ele>317</ele>
        <time>2019-04-02T11:33:14Z</time>
      </trkpt>
      <trkpt lat="47.70671" lon="3.67368">
        <ele>317</ele>
        <time>2019-04-02T11:33:16Z</time>
      </trkpt>
      <trkpt lat="47.70671" lon="3.67372">
        <ele>317</ele>
        <time>2019-04-02T11:33:18Z</time>
      </trkpt>
      <trkpt lat="47.7067" lon="3.67377">
        <ele>317</ele>
        <time>2019-04-02T11:33:21Z</time>
      </trkpt>
      <trkpt lat="47.70669" lon="3.67384">
        <ele>317</ele>
        <time>2019-04-02T11:33:26Z</time>
      </trkpt>
      <trkpt lat="47.70668" lon="3.67392">
        <ele>319</ele>
        <time>2019-04-02T11:33:31Z</time>
      </trkpt>
      <trkpt lat="47.70666" lon="3.67398">
        <ele>320</ele>
        <time>2019-04-02T11:33:35Z</time>
      </trkpt>
      <trkpt lat="47.70666" lon="3.67406">
        <ele>319</ele>
        <time>2019-04-02T11:33:39Z</time>
      </trkpt>
      <trkpt lat="47.70665" lon="3.67413">
        <ele>319</ele>
        <time>2019-04-02T11:33:43Z</time>
      </trkpt>
      <trkpt lat="47.70664" lon="3.67419">
        <ele>319</ele>
        <time>2019-04-02T11:33:46Z</time>
      </trkpt>
      <trkpt lat="47.70664" lon="3.67423">
        <ele>320</ele>
        <time>2019-04-02T11:33:48Z</time>
      </trkpt>
      <trkpt lat="47.70663" lon="3.67427">
        <ele>321</ele>
        <time>2019-04-02T11:33:51Z</time>
      </trkpt>
      <trkpt lat="47.70662" lon="3.67434">
        <ele>322</ele>
        <time>2019-04-02T11:33:55Z</time>
      </trkpt>
      <trkpt lat="47.70662" lon="3.67438">
        <ele>322</ele>
        <time>2019-04-02T11:33:57Z</time>
      </trkpt>
      <trkpt lat="47.70661" lon="3.67444">
        <ele>322</ele>
        <time>2019-04-02T11:34:01Z</time>
      </trkpt>
      <trkpt lat="47.7066" lon="3.67452">
        <ele>323</ele>
        <time>2019-04-02T11:34:05Z</time>
      </trkpt>
      <trkpt lat="47.70658" lon="3.67458">
        <ele>323</ele>
        <time>2019-04-02T11:34:09Z</time>
      </trkpt>
      <trkpt lat="47.70657" lon="3.67465">
        <ele>323</ele>
        <time>2019-04-02T11:34:13Z</time>
      </trkpt>
      <trkpt lat="47.70656" lon="3.67473">
        <ele>324</ele>
        <time>2019-04-02T11:34:17Z</time>
      </trkpt>
      <trkpt lat="47.70656" lon="3.67477">
        <ele>325</ele>
        <time>2019-04-02T11:34:19Z</time>
      </trkpt>
      <trkpt lat="47.70656" lon="3.67481">
        <ele>325</ele>
        <time>2019-04-02T11:34:21Z</time>
      </trkpt>
      <trkpt lat="47.70656" lon="3.67488">
        <ele>325</ele>
        <time>2019-04-02T11:34:25Z</time>
      </trkpt>
      <trkpt lat="47.70656" lon="3.67495">
        <ele>325</ele>
        <time>2019-04-02T11:34:29Z</time>
      </trkpt>
      <trkpt lat="47.70657" lon="3.67501">
        <ele>325</ele>
        <time>2019-04-02T11:34:32Z</time>
      </trkpt>
      <trkpt lat="47.70658" lon="3.67508">
        <ele>325</ele>
        <time>2019-04-02T11:34:35Z</time>
      </trkpt>
      <trkpt lat="47.70659" lon="3.67511">
        <ele>327</ele>
        <time>2019-04-02T11:34:37Z</time>
      </trkpt>
      <trkpt lat="47.70658" lon="3.6752">
        <ele>328</ele>
        <time>2019-04-02T11:34:43Z</time>
      </trkpt>
      <trkpt lat="47.7066" lon="3.67527">
        <ele>329</ele>
        <time>2019-04-02T11:34:47Z</time>
      </trkpt>
      <trkpt lat="47.70661" lon="3.67532">
        <ele>330</ele>
        <time>2019-04-02T11:34:50Z</time>
      </trkpt>
      <trkpt lat="47.70662" lon="3.6754">
        <ele>330</ele>
        <time>2019-04-02T11:34:54Z</time>
      </trkpt>
      <trkpt lat="47.70663" lon="3.67544">
        <ele>331</ele>
        <time>2019-04-02T11:34:56Z</time>
      </trkpt>
      <trkpt lat="47.70663" lon="3.67548">
        <ele>331</ele>
        <time>2019-04-02T11:34:58Z</time>
      </trkpt>
      <trkpt lat="47.70665" lon="3.67554">
        <ele>331</ele>
        <time>2019-04-02T11:35:02Z</time>
      </trkpt>
      <trkpt lat="47.70666" lon="3.6756">
        <ele>331</ele>
        <time>2019-04-02T11:35:06Z</time>
      </trkpt>
      <trkpt lat="47.70668" lon="3.67568">
        <ele>332</ele>
        <time>2019-04-02T11:35:11Z</time>
      </trkpt>
      <trkpt lat="47.7067" lon="3.67574">
        <ele>332</ele>
        <time>2019-04-02T11:35:14Z</time>
      </trkpt>
      <trkpt lat="47.70672" lon="3.67579">
        <ele>332</ele>
        <time>2019-04-02T11:35:17Z</time>
      </trkpt>
      <trkpt lat="47.70673" lon="3.67583">
        <ele>332</ele>
        <time>2019-04-02T11:35:20Z</time>
      </trkpt>
      <trkpt lat="47.70675" lon="3.67588">
        <ele>332</ele>
        <time>2019-04-02T11:35:23Z</time>
      </trkpt>
      <trkpt lat="47.70676" lon="3.67596">
        <ele>332</ele>
        <time>2019-04-02T11:35:27Z</time>
      </trkpt>
      <trkpt lat="47.70678" lon="3.67603">
        <ele>332</ele>
        <time>2019-04-02T11:35:31Z</time>
      </trkpt>
      <trkpt lat="47.70679" lon="3.67606">
        <ele>332</ele>
        <time>2019-04-02T11:35:33Z</time>
      </trkpt>
      <trkpt lat="47.7068" lon="3.67611">
        <ele>332</ele>
        <time>2019-04-02T11:35:36Z</time>
      </trkpt>
      <trkpt lat="47.70682" lon="3.67616">
        <ele>333</ele>
        <time>2019-04-02T11:35:38Z</time>
      </trkpt>
      <trkpt lat="47.70683" lon="3.67619">
        <ele>333</ele>
        <time>2019-04-02T11:35:40Z</time>
      </trkpt>
      <trkpt lat="47.70684" lon="3.67626">
        <ele>333</ele>
        <time>2019-04-02T11:35:44Z</time>
      </trkpt>
      <trkpt lat="47.70685" lon="3.67629">
        <ele>333</ele>
        <time>2019-04-02T11:35:46Z</time>
      </trkpt>
      <trkpt lat="47.70686" lon="3.67633">
        <ele>333</ele>
        <time>2019-04-02T11:35:48Z</time>
      </trkpt>
      <trkpt lat="47.70687" lon="3.67637">
        <ele>333</ele>
        <time>2019-04-02T11:35:50Z</time>
      </trkpt>
      <trkpt lat="47.70688" lon="3.6764">
        <ele>333</ele>
        <time>2019-04-02T11:35:52Z</time>
      </trkpt>
      <trkpt lat="47.7069" lon="3.67647">
        <ele>333</ele>
        <time>2019-04-02T11:35:56Z</time>
      </trkpt>
      <trkpt lat="47.70691" lon="3.67651">
        <ele>333</ele>
        <time>2019-04-02T11:35:58Z</time>
      </trkpt>
      <trkpt lat="47.70692" lon="3.67656">
        <ele>334</ele>
        <time>2019-04-02T11:36:01Z</time>
      </trkpt>
      <trkpt lat="47.70695" lon="3.67664">
        <ele>334</ele>
        <time>2019-04-02T11:36:06Z</time>
      </trkpt>
      <trkpt lat="47.70696" lon="3.6767">
        <ele>334</ele>
        <time>2019-04-02T11:36:10Z</time>
      </trkpt>
      <trkpt lat="47.70697" lon="3.67674">
        <ele>334</ele>
        <time>2019-04-02T11:36:12Z</time>
      </trkpt>
      <trkpt lat="47.70698" lon="3.67679">
        <ele>334</ele>
        <time>2019-04-02T11:36:15Z</time>
      </trkpt>
      <trkpt lat="47.70699" lon="3.67686">
        <ele>335</ele>
        <time>2019-04-02T11:36:19Z</time>
      </trkpt>
      <trkpt lat="47.707" lon="3.6769">
        <ele>335</ele>
        <time>2019-04-02T11:36:22Z</time>
      </trkpt>
      <trkpt lat="47.70702" lon="3.67701">
        <ele>335</ele>
        <time>2019-04-02T11:36:27Z</time>
      </trkpt>
      <trkpt lat="47.70703" lon="3.67704">
        <ele>334</ele>
        <time>2019-04-02T11:36:29Z</time>
      </trkpt>
      <trkpt lat="47.70703" lon="3.67708">
        <ele>334</ele>
        <time>2019-04-02T11:36:31Z</time>
      </trkpt>
      <trkpt lat="47.70704" lon="3.67711">
        <ele>334</ele>
        <time>2019-04-02T11:36:33Z</time>
      </trkpt>
      <trkpt lat="47.70705" lon="3.67715">
        <ele>335</ele>
        <time>2019-04-02T11:36:35Z</time>
      </trkpt>
      <trkpt lat="47.70705" lon="3.67719">
        <ele>335</ele>
        <time>2019-04-02T11:36:37Z</time>
      </trkpt>
      <trkpt lat="47.70707" lon="3.67725">
        <ele>336</ele>
        <time>2019-04-02T11:36:41Z</time>
      </trkpt>
      <trkpt lat="47.70708" lon="3.6773">
        <ele>336</ele>
        <time>2019-04-02T11:36:44Z</time>
      </trkpt>
      <trkpt lat="47.70709" lon="3.67734">
        <ele>336</ele>
        <time>2019-04-02T11:36:46Z</time>
      </trkpt>
      <trkpt lat="47.70709" lon="3.67737">
        <ele>336</ele>
        <time>2019-04-02T11:36:48Z</time>
      </trkpt>
      <trkpt lat="47.7071" lon="3.67741">
        <ele>336</ele>
        <time>2019-04-02T11:36:50Z</time>
      </trkpt>
      <trkpt lat="47.70711" lon="3.67746">
        <ele>336</ele>
        <time>2019-04-02T11:36:53Z</time>
      </trkpt>
      <trkpt lat="47.70712" lon="3.67749">
        <ele>336</ele>
        <time>2019-04-02T11:36:55Z</time>
      </trkpt>
      <trkpt lat="47.70712" lon="3.67752">
        <ele>336</ele>
        <time>2019-04-02T11:36:57Z</time>
      </trkpt>
      <trkpt lat="47.70713" lon="3.67756">
        <ele>336</ele>
        <time>2019-04-02T11:36:59Z</time>
      </trkpt>
      <trkpt lat="47.70714" lon="3.67763">
        <ele>337</ele>
        <time>2019-04-02T11:37:03Z</time>
      </trkpt>
      <trkpt lat="47.70715" lon="3.67766">
        <ele>337</ele>
        <time>2019-04-02T11:37:05Z</time>
      </trkpt>
      <trkpt lat="47.70715" lon="3.67773">
        <ele>338</ele>
        <time>2019-04-02T11:37:09Z</time>
      </trkpt>
      <trkpt lat="47.70716" lon="3.67776">
        <ele>338</ele>
        <time>2019-04-02T11:37:11Z</time>
      </trkpt>
      <trkpt lat="47.70716" lon="3.6778">
        <ele>338</ele>
        <time>2019-04-02T11:37:13Z</time>
      </trkpt>
      <trkpt lat="47.70718" lon="3.67788">
        <ele>339</ele>
        <time>2019-04-02T11:37:18Z</time>
      </trkpt>
      <trkpt lat="47.70719" lon="3.67792">
        <ele>339</ele>
        <time>2019-04-02T11:37:20Z</time>
      </trkpt>
      <trkpt lat="47.7072" lon="3.67798">
        <ele>339</ele>
        <time>2019-04-02T11:37:23Z</time>
      </trkpt>
      <trkpt lat="47.70721" lon="3.67806">
        <ele>338</ele>
        <time>2019-04-02T11:37:27Z</time>
      </trkpt>
      <trkpt lat="47.70722" lon="3.67811">
        <ele>339</ele>
        <time>2019-04-02T11:37:29Z</time>
      </trkpt>
      <trkpt lat="47.70723" lon="3.67815">
        <ele>339</ele>
        <time>2019-04-02T11:37:31Z</time>
      </trkpt>
      <trkpt lat="47.70723" lon="3.67823">
        <ele>341</ele>
        <time>2019-04-02T11:37:36Z</time>
      </trkpt>
      <trkpt lat="47.70724" lon="3.6783">
        <ele>341</ele>
        <time>2019-04-02T11:37:40Z</time>
      </trkpt>
      <trkpt lat="47.70724" lon="3.67833">
        <ele>341</ele>
        <time>2019-04-02T11:37:42Z</time>
      </trkpt>
      <trkpt lat="47.70725" lon="3.67838">
        <ele>341</ele>
        <time>2019-04-02T11:37:45Z</time>
      </trkpt>
      <trkpt lat="47.70725" lon="3.67842">
        <ele>341</ele>
        <time>2019-04-02T11:37:47Z</time>
      </trkpt>
      <trkpt lat="47.70726" lon="3.67847">
        <ele>342</ele>
        <time>2019-04-02T11:37:50Z</time>
      </trkpt>
      <trkpt lat="47.70726" lon="3.67851">
        <ele>342</ele>
        <time>2019-04-02T11:37:52Z</time>
      </trkpt>
      <trkpt lat="47.70726" lon="3.67858">
        <ele>342</ele>
        <time>2019-04-02T11:37:56Z</time>
      </trkpt>
      <trkpt lat="47.70726" lon="3.67862">
        <ele>341</ele>
        <time>2019-04-02T11:37:58Z</time>
      </trkpt>
      <trkpt lat="47.70727" lon="3.67869">
        <ele>342</ele>
        <time>2019-04-02T11:38:02Z</time>
      </trkpt>
      <trkpt lat="47.70727" lon="3.67872">
        <ele>341</ele>
        <time>2019-04-02T11:38:04Z</time>
      </trkpt>
      <trkpt lat="47.70727" lon="3.67879">
        <ele>341</ele>
        <time>2019-04-02T11:38:08Z</time>
      </trkpt>
      <trkpt lat="47.70727" lon="3.67884">
        <ele>341</ele>
        <time>2019-04-02T11:38:11Z</time>
      </trkpt>
      <trkpt lat="47.70728" lon="3.67889">
        <ele>341</ele>
        <time>2019-04-02T11:38:14Z</time>
      </trkpt>
      <trkpt lat="47.70728" lon="3.67893">
        <ele>341</ele>
        <time>2019-04-02T11:38:16Z</time>
      </trkpt>
      <trkpt lat="47.70729" lon="3.67899">
        <ele>340</ele>
        <time>2019-04-02T11:38:20Z</time>
      </trkpt>
      <trkpt lat="47.7073" lon="3.67907">
        <ele>341</ele>
        <time>2019-04-02T11:38:24Z</time>
      </trkpt>
      <trkpt lat="47.70731" lon="3.67911">
        <ele>341</ele>
        <time>2019-04-02T11:38:26Z</time>
      </trkpt>
      <trkpt lat="47.70731" lon="3.67914">
        <ele>341</ele>
        <time>2019-04-02T11:38:28Z</time>
      </trkpt>
      <trkpt lat="47.70732" lon="3.67919">
        <ele>341</ele>
        <time>2019-04-02T11:38:31Z</time>
      </trkpt>
      <trkpt lat="47.70733" lon="3.67925">
        <ele>341</ele>
        <time>2019-04-02T11:38:35Z</time>
      </trkpt>
      <trkpt lat="47.70734" lon="3.67932">
        <ele>342</ele>
        <time>2019-04-02T11:38:39Z</time>
      </trkpt>
      <trkpt lat="47.70735" lon="3.67941">
        <ele>343</ele>
        <time>2019-04-02T11:38:44Z</time>
      </trkpt>
      <trkpt lat="47.70736" lon="3.67945">
        <ele>343</ele>
        <time>2019-04-02T11:38:46Z</time>
      </trkpt>
      <trkpt lat="47.70737" lon="3.67951">
        <ele>344</ele>
        <time>2019-04-02T11:38:50Z</time>
      </trkpt>
      <trkpt lat="47.70738" lon="3.67955">
        <ele>344</ele>
        <time>2019-04-02T11:38:52Z</time>
      </trkpt>
      <trkpt lat="47.70739" lon="3.67961">
        <ele>343</ele>
        <time>2019-04-02T11:38:55Z</time>
      </trkpt>
      <trkpt lat="47.7074" lon="3.67966">
        <ele>344</ele>
        <time>2019-04-02T11:38:59Z</time>
      </trkpt>
      <trkpt lat="47.70741" lon="3.67971">
        <ele>344</ele>
        <time>2019-04-02T11:39:02Z</time>
      </trkpt>
      <trkpt lat="47.70742" lon="3.67975">
        <ele>345</ele>
        <time>2019-04-02T11:39:04Z</time>
      </trkpt>
      <trkpt lat="47.70742" lon="3.6798">
        <ele>344</ele>
        <time>2019-04-02T11:39:07Z</time>
      </trkpt>
      <trkpt lat="47.70744" lon="3.67986">
        <ele>344</ele>
        <time>2019-04-02T11:39:11Z</time>
      </trkpt>
      <trkpt lat="47.70744" lon="3.6799">
        <ele>344</ele>
        <time>2019-04-02T11:39:13Z</time>
      </trkpt>
      <trkpt lat="47.70745" lon="3.67993">
        <ele>344</ele>
        <time>2019-04-02T11:39:16Z</time>
      </trkpt>
      <trkpt lat="47.70746" lon="3.67996">
        <ele>343</ele>
        <time>2019-04-02T11:39:25Z</time>
      </trkpt>
      <trkpt lat="47.70744" lon="3.68007">
        <ele>341</ele>
        <time>2019-04-02T11:51:16Z</time>
      </trkpt>
      <trkpt lat="47.70744" lon="3.68014">
        <ele>342</ele>
        <time>2019-04-02T11:51:26Z</time>
      </trkpt>
      <trkpt lat="47.70745" lon="3.68018">
        <ele>343</ele>
        <time>2019-04-02T11:51:29Z</time>
      </trkpt>
      <trkpt lat="47.70745" lon="3.68026">
        <ele>343</ele>
        <time>2019-04-02T11:51:34Z</time>
      </trkpt>
      <trkpt lat="47.70744" lon="3.68033">
        <ele>344</ele>
        <time>2019-04-02T11:51:39Z</time>
      </trkpt>
      <trkpt lat="47.70744" lon="3.68037">
        <ele>345</ele>
        <time>2019-04-02T11:51:42Z</time>
      </trkpt>
      <trkpt lat="47.70741" lon="3.68045">
        <ele>347</ele>
        <time>2019-04-02T11:51:48Z</time>
      </trkpt>
      <trkpt lat="47.70741" lon="3.68053">
        <ele>348</ele>
        <time>2019-04-02T11:51:54Z</time>
      </trkpt>
      <trkpt lat="47.70739" lon="3.68062">
        <ele>347</ele>
        <time>2019-04-02T11:51:59Z</time>
      </trkpt>
      <trkpt lat="47.70738" lon="3.68066">
        <ele>348</ele>
        <time>2019-04-02T11:52:01Z</time>
      </trkpt>
      <trkpt lat="47.70739" lon="3.68076">
        <ele>348</ele>
        <time>2019-04-02T11:52:07Z</time>
      </trkpt>
      <trkpt lat="47.70737" lon="3.68084">
        <ele>348</ele>
        <time>2019-04-02T11:52:11Z</time>
      </trkpt>
      <trkpt lat="47.70737" lon="3.68095">
        <ele>348</ele>
        <time>2019-04-02T11:52:17Z</time>
      </trkpt>
      <trkpt lat="47.70737" lon="3.681">
        <ele>348</ele>
        <time>2019-04-02T11:52:19Z</time>
      </trkpt>
      <trkpt lat="47.70738" lon="3.68104">
        <ele>347</ele>
        <time>2019-04-02T11:52:21Z</time>
      </trkpt>
      <trkpt lat="47.70736" lon="3.68113">
        <ele>347</ele>
        <time>2019-04-02T11:52:26Z</time>
      </trkpt>
      <trkpt lat="47.70735" lon="3.68124">
        <ele>347</ele>
        <time>2019-04-02T11:52:33Z</time>
      </trkpt>
      <trkpt lat="47.70735" lon="3.68132">
        <ele>345</ele>
        <time>2019-04-02T11:52:38Z</time>
      </trkpt>
      <trkpt lat="47.70736" lon="3.6814">
        <ele>345</ele>
        <time>2019-04-02T11:52:42Z</time>
      </trkpt>
      <trkpt lat="47.70737" lon="3.68145">
        <ele>345</ele>
        <time>2019-04-02T11:52:45Z</time>
      </trkpt>
      <trkpt lat="47.70737" lon="3.68149">
        <ele>345</ele>
        <time>2019-04-02T11:52:47Z</time>
      </trkpt>
      <trkpt lat="47.70739" lon="3.68155">
        <ele>345</ele>
        <time>2019-04-02T11:52:51Z</time>
      </trkpt>
      <trkpt lat="47.70741" lon="3.68164">
        <ele>345</ele>
        <time>2019-04-02T11:52:55Z</time>
      </trkpt>
      <trkpt lat="47.70742" lon="3.68167">
        <ele>345</ele>
        <time>2019-04-02T11:52:57Z</time>
      </trkpt>
      <trkpt lat="47.70744" lon="3.68174">
        <ele>344</ele>
        <time>2019-04-02T11:53:01Z</time>
      </trkpt>
      <trkpt lat="47.70746" lon="3.68178">
        <ele>343</ele>
        <time>2019-04-02T11:53:03Z</time>
      </trkpt>
      <trkpt lat="47.70748" lon="3.68186">
        <ele>342</ele>
        <time>2019-04-02T11:53:07Z</time>
      </trkpt>
      <trkpt lat="47.70752" lon="3.68192">
        <ele>341</ele>
        <time>2019-04-02T11:53:11Z</time>
      </trkpt>
      <trkpt lat="47.70753" lon="3.68195">
        <ele>340</ele>
        <time>2019-04-02T11:53:13Z</time>
      </trkpt>
      <trkpt lat="47.70757" lon="3.68202">
        <ele>339</ele>
        <time>2019-04-02T11:53:18Z</time>
      </trkpt>
      <trkpt lat="47.70759" lon="3.68207">
        <ele>339</ele>
        <time>2019-04-02T11:53:21Z</time>
      </trkpt>
      <trkpt lat="47.70761" lon="3.68214">
        <ele>338</ele>
        <time>2019-04-02T11:53:25Z</time>
      </trkpt>
      <trkpt lat="47.70763" lon="3.68218">
        <ele>338</ele>
        <time>2019-04-02T11:53:27Z</time>
      </trkpt>
      <trkpt lat="47.70766" lon="3.68224">
        <ele>338</ele>
        <time>2019-04-02T11:53:31Z</time>
      </trkpt>
      <trkpt lat="47.70769" lon="3.6823">
        <ele>338</ele>
        <time>2019-04-02T11:53:36Z</time>
      </trkpt>
      <trkpt lat="47.70772" lon="3.68236">
        <ele>338</ele>
        <time>2019-04-02T11:53:40Z</time>
      </trkpt>
      <trkpt lat="47.70773" lon="3.6824">
        <ele>337</ele>
        <time>2019-04-02T11:53:42Z</time>
      </trkpt>
      <trkpt lat="47.70774" lon="3.68243">
        <ele>337</ele>
        <time>2019-04-02T11:53:44Z</time>
      </trkpt>
      <trkpt lat="47.70778" lon="3.68251">
        <ele>337</ele>
        <time>2019-04-02T11:53:49Z</time>
      </trkpt>
      <trkpt lat="47.70781" lon="3.68257">
        <ele>337</ele>
        <time>2019-04-02T11:53:53Z</time>
      </trkpt>
      <trkpt lat="47.70783" lon="3.68263">
        <ele>337</ele>
        <time>2019-04-02T11:53:57Z</time>
      </trkpt>
      <trkpt lat="47.70785" lon="3.68268">
        <ele>337</ele>
        <time>2019-04-02T11:54:00Z</time>
      </trkpt>
      <trkpt lat="47.70787" lon="3.68271">
        <ele>336</ele>
        <time>2019-04-02T11:54:02Z</time>
      </trkpt>
      <trkpt lat="47.70789" lon="3.68278">
        <ele>336</ele>
        <time>2019-04-02T11:54:05Z</time>
      </trkpt>
      <trkpt lat="47.70792" lon="3.68285">
        <ele>336</ele>
        <time>2019-04-02T11:54:09Z</time>
      </trkpt>
      <trkpt lat="47.70794" lon="3.68293">
        <ele>337</ele>
        <time>2019-04-02T11:54:13Z</time>
      </trkpt>
      <trkpt lat="47.70795" lon="3.68298">
        <ele>336</ele>
        <time>2019-04-02T11:54:17Z</time>
      </trkpt>
      <trkpt lat="47.70795" lon="3.68306">
        <ele>336</ele>
        <time>2019-04-02T11:54:21Z</time>
      </trkpt>
      <trkpt lat="47.70797" lon="3.68314">
        <ele>335</ele>
        <time>2019-04-02T11:54:26Z</time>
      </trkpt>
      <trkpt lat="47.70798" lon="3.68318">
        <ele>334</ele>
        <time>2019-04-02T11:54:28Z</time>
      </trkpt>
      <trkpt lat="47.70799" lon="3.68325">
        <ele>334</ele>
        <time>2019-04-02T11:54:32Z</time>
      </trkpt>
      <trkpt lat="47.70801" lon="3.68331">
        <ele>334</ele>
        <time>2019-04-02T11:54:36Z</time>
      </trkpt>
      <trkpt lat="47.70802" lon="3.68337">
        <ele>334</ele>
        <time>2019-04-02T11:54:39Z</time>
      </trkpt>
      <trkpt lat="47.70802" lon="3.68341">
        <ele>333</ele>
        <time>2019-04-02T11:54:41Z</time>
      </trkpt>
      <trkpt lat="47.70803" lon="3.68346">
        <ele>333</ele>
        <time>2019-04-02T11:54:43Z</time>
      </trkpt>
      <trkpt lat="47.70804" lon="3.68353">
        <ele>331</ele>
        <time>2019-04-02T11:54:47Z</time>
      </trkpt>
      <trkpt lat="47.70804" lon="3.68358">
        <ele>330</ele>
        <time>2019-04-02T11:54:50Z</time>
      </trkpt>
      <trkpt lat="47.70804" lon="3.68366">
        <ele>328</ele>
        <time>2019-04-02T11:54:55Z</time>
      </trkpt>
      <trkpt lat="47.70804" lon="3.68371">
        <ele>328</ele>
        <time>2019-04-02T11:54:58Z</time>
      </trkpt>
      <trkpt lat="47.70804" lon="3.68375">
        <ele>328</ele>
        <time>2019-04-02T11:55:00Z</time>
      </trkpt>
      <trkpt lat="47.70804" lon="3.68379">
        <ele>328</ele>
        <time>2019-04-02T11:55:02Z</time>
      </trkpt>
      <trkpt lat="47.70805" lon="3.68386">
        <ele>328</ele>
        <time>2019-04-02T11:55:06Z</time>
      </trkpt>
      <trkpt lat="47.70805" lon="3.6839">
        <ele>328</ele>
        <time>2019-04-02T11:55:08Z</time>
      </trkpt>
      <trkpt lat="47.70805" lon="3.68397">
        <ele>328</ele>
        <time>2019-04-02T11:55:11Z</time>
      </trkpt>
      <trkpt lat="47.70806" lon="3.68402">
        <ele>327</ele>
        <time>2019-04-02T11:55:14Z</time>
      </trkpt>
      <trkpt lat="47.70806" lon="3.68406">
        <ele>327</ele>
        <time>2019-04-02T11:55:16Z</time>
      </trkpt>
      <trkpt lat="47.70806" lon="3.68411">
        <ele>327</ele>
        <time>2019-04-02T11:55:18Z</time>
      </trkpt>
      <trkpt lat="47.70806" lon="3.68418">
        <ele>327</ele>
        <time>2019-04-02T11:55:22Z</time>
      </trkpt>
      <trkpt lat="47.70807" lon="3.68425">
        <ele>327</ele>
        <time>2019-04-02T11:55:26Z</time>
      </trkpt>
      <trkpt lat="47.70807" lon="3.68429">
        <ele>326</ele>
        <time>2019-04-02T11:55:28Z</time>
      </trkpt>
      <trkpt lat="47.70807" lon="3.68434">
        <ele>326</ele>
        <time>2019-04-02T11:55:31Z</time>
      </trkpt>
      <trkpt lat="47.70807" lon="3.68439">
        <ele>326</ele>
        <time>2019-04-02T11:55:34Z</time>
      </trkpt>
      <trkpt lat="47.70807" lon="3.68444">
        <ele>325</ele>
        <time>2019-04-02T11:55:37Z</time>
      </trkpt>
      <trkpt lat="47.70807" lon="3.68448">
        <ele>325</ele>
        <time>2019-04-02T11:55:39Z</time>
      </trkpt>
      <trkpt lat="47.70807" lon="3.68455">
        <ele>325</ele>
        <time>2019-04-02T11:55:43Z</time>
      </trkpt>
      <trkpt lat="47.70808" lon="3.68459">
        <ele>324</ele>
        <time>2019-04-02T11:55:45Z</time>
      </trkpt>
      <trkpt lat="47.70808" lon="3.68463">
        <ele>324</ele>
        <time>2019-04-02T11:55:47Z</time>
      </trkpt>
      <trkpt lat="47.70809" lon="3.68471">
        <ele>323</ele>
        <time>2019-04-02T11:55:51Z</time>
      </trkpt>
      <trkpt lat="47.7081" lon="3.68478">
        <ele>323</ele>
        <time>2019-04-02T11:55:56Z</time>
      </trkpt>
      <trkpt lat="47.7081" lon="3.68488">
        <ele>322</ele>
        <time>2019-04-02T11:56:02Z</time>
      </trkpt>
      <trkpt lat="47.7081" lon="3.68495">
        <ele>321</ele>
        <time>2019-04-02T11:56:06Z</time>
      </trkpt>
      <trkpt lat="47.70811" lon="3.68502">
        <ele>320</ele>
        <time>2019-04-02T11:56:10Z</time>
      </trkpt>
      <trkpt lat="47.7081" lon="3.68509">
        <ele>320</ele>
        <time>2019-04-02T11:56:14Z</time>
      </trkpt>
      <trkpt lat="47.70809" lon="3.68516">
        <ele>319</ele>
        <time>2019-04-02T11:56:18Z</time>
      </trkpt>
      <trkpt lat="47.70809" lon="3.68521">
        <ele>319</ele>
        <time>2019-04-02T11:56:20Z</time>
      </trkpt>
      <trkpt lat="47.70808" lon="3.6853">
        <ele>319</ele>
        <time>2019-04-02T11:56:25Z</time>
      </trkpt>
      <trkpt lat="47.70808" lon="3.68536">
        <ele>319</ele>
        <time>2019-04-02T11:56:29Z</time>
      </trkpt>
      <trkpt lat="47.70808" lon="3.6854">
        <ele>318</ele>
        <time>2019-04-02T11:56:31Z</time>
      </trkpt>
      <trkpt lat="47.70807" lon="3.68548">
        <ele>316</ele>
        <time>2019-04-02T11:56:36Z</time>
      </trkpt>
      <trkpt lat="47.70806" lon="3.68554">
        <ele>316</ele>
        <time>2019-04-02T11:56:39Z</time>
      </trkpt>
      <trkpt lat="47.70805" lon="3.6856">
        <ele>315</ele>
        <time>2019-04-02T11:56:42Z</time>
      </trkpt>
      <trkpt lat="47.70804" lon="3.68566">
        <ele>314</ele>
        <time>2019-04-02T11:56:45Z</time>
      </trkpt>
      <trkpt lat="47.70803" lon="3.6857">
        <ele>314</ele>
        <time>2019-04-02T11:56:47Z</time>
      </trkpt>
      <trkpt lat="47.70802" lon="3.68577">
        <ele>314</ele>
        <time>2019-04-02T11:56:51Z</time>
      </trkpt>
      <trkpt lat="47.70801" lon="3.68584">
        <ele>314</ele>
        <time>2019-04-02T11:56:55Z</time>
      </trkpt>
      <trkpt lat="47.708" lon="3.68592">
        <ele>313</ele>
        <time>2019-04-02T11:57:00Z</time>
      </trkpt>
      <trkpt lat="47.708" lon="3.68599">
        <ele>312</ele>
        <time>2019-04-02T11:57:03Z</time>
      </trkpt>
      <trkpt lat="47.708" lon="3.68603">
        <ele>312</ele>
        <time>2019-04-02T11:57:05Z</time>
      </trkpt>
      <trkpt lat="47.708" lon="3.68608">
        <ele>311</ele>
        <time>2019-04-02T11:57:08Z</time>
      </trkpt>
      <trkpt lat="47.70799" lon="3.68615">
        <ele>311</ele>
        <time>2019-04-02T11:57:12Z</time>
      </trkpt>
      <trkpt lat="47.70798" lon="3.6862">
        <ele>310</ele>
        <time>2019-04-02T11:57:15Z</time>
      </trkpt>
      <trkpt lat="47.70797" lon="3.68624">
        <ele>309</ele>
        <time>2019-04-02T11:57:17Z</time>
      </trkpt>
      <trkpt lat="47.70797" lon="3.68627">
        <ele>309</ele>
        <time>2019-04-02T11:57:19Z</time>
      </trkpt>
      <trkpt lat="47.70796" lon="3.68634">
        <ele>309</ele>
        <time>2019-04-02T11:57:23Z</time>
      </trkpt>
      <trkpt lat="47.70794" lon="3.68642">
        <ele>309</ele>
        <time>2019-04-02T11:57:28Z</time>
      </trkpt>
      <trkpt lat="47.70793" lon="3.68647">
        <ele>308</ele>
        <time>2019-04-02T11:57:31Z</time>
      </trkpt>
      <trkpt lat="47.70794" lon="3.68653">
        <ele>306</ele>
        <time>2019-04-02T11:57:41Z</time>
      </trkpt>
      <trkpt lat="47.70791" lon="3.6866">
        <ele>308</ele>
        <time>2019-04-02T11:58:26Z</time>
      </trkpt>
      <trkpt lat="47.70789" lon="3.68665">
        <ele>308</ele>
        <time>2019-04-02T11:58:30Z</time>
      </trkpt>
      <trkpt lat="47.70787" lon="3.68671">
        <ele>307</ele>
        <time>2019-04-02T11:58:34Z</time>
      </trkpt>
      <trkpt lat="47.70786" lon="3.68674">
        <ele>307</ele>
        <time>2019-04-02T11:58:36Z</time>
      </trkpt>
      <trkpt lat="47.70784" lon="3.68681">
        <ele>308</ele>
        <time>2019-04-02T11:58:41Z</time>
      </trkpt>
      <trkpt lat="47.70782" lon="3.68686">
        <ele>307</ele>
        <time>2019-04-02T11:58:44Z</time>
      </trkpt>
      <trkpt lat="47.7078" lon="3.68695">
        <ele>307</ele>
        <time>2019-04-02T11:58:50Z</time>
      </trkpt>
      <trkpt lat="47.70778" lon="3.687">
        <ele>307</ele>
        <time>2019-04-02T11:58:53Z</time>
      </trkpt>
      <trkpt lat="47.70774" lon="3.68704">
        <ele>307</ele>
        <time>2019-04-02T11:58:58Z</time>
      </trkpt>
      <trkpt lat="47.70768" lon="3.68707">
        <ele>307</ele>
        <time>2019-04-02T11:59:03Z</time>
      </trkpt>
      <trkpt lat="47.70763" lon="3.6871">
        <ele>308</ele>
        <time>2019-04-02T11:59:08Z</time>
      </trkpt>
      <trkpt lat="47.70758" lon="3.68712">
        <ele>308</ele>
        <time>2019-04-02T11:59:12Z</time>
      </trkpt>
      <trkpt lat="47.70755" lon="3.68713">
        <ele>308</ele>
        <time>2019-04-02T11:59:14Z</time>
      </trkpt>
      <trkpt lat="47.70751" lon="3.68715">
        <ele>308</ele>
        <time>2019-04-02T11:59:17Z</time>
      </trkpt>
      <trkpt lat="47.70747" lon="3.68716">
        <ele>308</ele>
        <time>2019-04-02T11:59:20Z</time>
      </trkpt>
      <trkpt lat="47.70743" lon="3.68719">
        <ele>307</ele>
        <time>2019-04-02T11:59:24Z</time>
      </trkpt>
      <trkpt lat="47.70741" lon="3.6872">
        <ele>306</ele>
        <time>2019-04-02T11:59:26Z</time>
      </trkpt>
      <trkpt lat="47.70738" lon="3.68722">
        <ele>306</ele>
        <time>2019-04-02T11:59:28Z</time>
      </trkpt>
      <trkpt lat="47.70735" lon="3.68724">
        <ele>306</ele>
        <time>2019-04-02T11:59:30Z</time>
      </trkpt>
      <trkpt lat="47.70732" lon="3.68725">
        <ele>306</ele>
        <time>2019-04-02T11:59:33Z</time>
      </trkpt>
      <trkpt lat="47.70729" lon="3.68727">
        <ele>306</ele>
        <time>2019-04-02T11:59:36Z</time>
      </trkpt>
      <trkpt lat="47.70726" lon="3.68728">
        <ele>306</ele>
        <time>2019-04-02T11:59:38Z</time>
      </trkpt>
      <trkpt lat="47.70723" lon="3.6873">
        <ele>306</ele>
        <time>2019-04-02T11:59:41Z</time>
      </trkpt>
      <trkpt lat="47.70719" lon="3.68733">
        <ele>305</ele>
        <time>2019-04-02T11:59:45Z</time>
      </trkpt>
      <trkpt lat="47.70713" lon="3.68735">
        <ele>305</ele>
        <time>2019-04-02T11:59:49Z</time>
      </trkpt>
      <trkpt lat="47.7071" lon="3.68736">
        <ele>305</ele>
        <time>2019-04-02T11:59:52Z</time>
      </trkpt>
      <trkpt lat="47.70705" lon="3.68738">
        <ele>304</ele>
        <time>2019-04-02T11:59:56Z</time>
      </trkpt>
      <trkpt lat="47.70699" lon="3.68739">
        <ele>304</ele>
        <time>2019-04-02T12:00:01Z</time>
      </trkpt>
      <trkpt lat="47.70696" lon="3.68739">
        <ele>303</ele>
        <time>2019-04-02T12:00:03Z</time>
      </trkpt>
      <trkpt lat="47.70692" lon="3.68739">
        <ele>303</ele>
        <time>2019-04-02T12:00:06Z</time>
      </trkpt>
      <trkpt lat="47.70689" lon="3.68739">
        <ele>303</ele>
        <time>2019-04-02T12:00:08Z</time>
      </trkpt>
      <trkpt lat="47.70685" lon="3.68739">
        <ele>302</ele>
        <time>2019-04-02T12:00:11Z</time>
      </trkpt>
      <trkpt lat="47.7068" lon="3.68738">
        <ele>301</ele>
        <time>2019-04-02T12:00:15Z</time>
      </trkpt>
      <trkpt lat="47.70675" lon="3.68738">
        <ele>300</ele>
        <time>2019-04-02T12:00:19Z</time>
      </trkpt>
      <trkpt lat="47.7067" lon="3.68738">
        <ele>301</ele>
        <time>2019-04-02T12:00:23Z</time>
      </trkpt>
      <trkpt lat="47.70665" lon="3.68737">
        <ele>301</ele>
        <time>2019-04-02T12:00:27Z</time>
      </trkpt>
      <trkpt lat="47.70659" lon="3.68738">
        <ele>301</ele>
        <time>2019-04-02T12:00:32Z</time>
      </trkpt>
      <trkpt lat="47.70654" lon="3.68738">
        <ele>301</ele>
        <time>2019-04-02T12:00:36Z</time>
      </trkpt>
      <trkpt lat="47.70651" lon="3.68738">
        <ele>300</ele>
        <time>2019-04-02T12:00:38Z</time>
      </trkpt>
      <trkpt lat="47.70647" lon="3.68737">
        <ele>300</ele>
        <time>2019-04-02T12:00:41Z</time>
      </trkpt>
      <trkpt lat="47.70642" lon="3.68736">
        <ele>300</ele>
        <time>2019-04-02T12:00:44Z</time>
      </trkpt>
      <trkpt lat="47.70638" lon="3.68737">
        <ele>300</ele>
        <time>2019-04-02T12:00:48Z</time>
      </trkpt>
      <trkpt lat="47.70633" lon="3.68737">
        <ele>299</ele>
        <time>2019-04-02T12:00:52Z</time>
      </trkpt>
      <trkpt lat="47.70628" lon="3.68737">
        <ele>299</ele>
        <time>2019-04-02T12:00:55Z</time>
      </trkpt>
      <trkpt lat="47.70626" lon="3.68737">
        <ele>299</ele>
        <time>2019-04-02T12:00:57Z</time>
      </trkpt>
      <trkpt lat="47.70622" lon="3.68737">
        <ele>300</ele>
        <time>2019-04-02T12:00:59Z</time>
      </trkpt>
      <trkpt lat="47.70618" lon="3.68736">
        <ele>298</ele>
        <time>2019-04-02T12:01:03Z</time>
      </trkpt>
      <trkpt lat="47.70612" lon="3.68736">
        <ele>297</ele>
        <time>2019-04-02T12:01:07Z</time>
      </trkpt>
      <trkpt lat="47.70609" lon="3.68736">
        <ele>297</ele>
        <time>2019-04-02T12:01:09Z</time>
      </trkpt>
      <trkpt lat="47.70603" lon="3.68734">
        <ele>297</ele>
        <time>2019-04-02T12:01:13Z</time>
      </trkpt>
      <trkpt lat="47.70598" lon="3.68735">
        <ele>297</ele>
        <time>2019-04-02T12:01:17Z</time>
      </trkpt>
      <trkpt lat="47.70596" lon="3.68736">
        <ele>297</ele>
        <time>2019-04-02T12:01:19Z</time>
      </trkpt>
      <trkpt lat="47.70591" lon="3.68735">
        <ele>297</ele>
        <time>2019-04-02T12:01:22Z</time>
      </trkpt>
      <trkpt lat="47.70589" lon="3.68734">
        <ele>297</ele>
        <time>2019-04-02T12:01:24Z</time>
      </trkpt>
      <trkpt lat="47.70583" lon="3.68734">
        <ele>298</ele>
        <time>2019-04-02T12:01:28Z</time>
      </trkpt>
      <trkpt lat="47.70579" lon="3.68734">
        <ele>298</ele>
        <time>2019-04-02T12:01:31Z</time>
      </trkpt>
      <trkpt lat="47.70574" lon="3.68733">
        <ele>297</ele>
        <time>2019-04-02T12:01:34Z</time>
      </trkpt>
      <trkpt lat="47.70568" lon="3.68734">
        <ele>296</ele>
        <time>2019-04-02T12:01:38Z</time>
      </trkpt>
      <trkpt lat="47.70563" lon="3.68732">
        <ele>295</ele>
        <time>2019-04-02T12:01:43Z</time>
      </trkpt>
      <trkpt lat="47.70557" lon="3.68731">
        <ele>295</ele>
        <time>2019-04-02T12:01:47Z</time>
      </trkpt>
      <trkpt lat="47.70554" lon="3.68731">
        <ele>295</ele>
        <time>2019-04-02T12:01:49Z</time>
      </trkpt>
      <trkpt lat="47.7055" lon="3.6873">
        <ele>294</ele>
        <time>2019-04-02T12:01:53Z</time>
      </trkpt>
      <trkpt lat="47.70544" lon="3.68728">
        <ele>294</ele>
        <time>2019-04-02T12:01:57Z</time>
      </trkpt>
      <trkpt lat="47.7054" lon="3.68727">
        <ele>295</ele>
        <time>2019-04-02T12:02:00Z</time>
      </trkpt>
      <trkpt lat="47.70535" lon="3.68727">
        <ele>295</ele>
        <time>2019-04-02T12:02:04Z</time>
      </trkpt>
      <trkpt lat="47.70533" lon="3.68726">
        <ele>295</ele>
        <time>2019-04-02T12:02:06Z</time>
      </trkpt>
      <trkpt lat="47.70529" lon="3.68725">
        <ele>295</ele>
        <time>2019-04-02T12:02:09Z</time>
      </trkpt>
      <trkpt lat="47.70524" lon="3.68726">
        <ele>294</ele>
        <time>2019-04-02T12:02:13Z</time>
      </trkpt>
      <trkpt lat="47.7052" lon="3.68724">
        <ele>294</ele>
        <time>2019-04-02T12:02:16Z</time>
      </trkpt>
      <trkpt lat="47.70517" lon="3.68724">
        <ele>293</ele>
        <time>2019-04-02T12:02:18Z</time>
      </trkpt>
      <trkpt lat="47.70514" lon="3.68723">
        <ele>294</ele>
        <time>2019-04-02T12:02:20Z</time>
      </trkpt>
      <trkpt lat="47.70512" lon="3.68722">
        <ele>293</ele>
        <time>2019-04-02T12:02:22Z</time>
      </trkpt>
      <trkpt lat="47.70507" lon="3.68721">
        <ele>293</ele>
        <time>2019-04-02T12:02:25Z</time>
      </trkpt>
      <trkpt lat="47.70502" lon="3.68721">
        <ele>292</ele>
        <time>2019-04-02T12:02:29Z</time>
      </trkpt>
      <trkpt lat="47.70499" lon="3.68721">
        <ele>292</ele>
        <time>2019-04-02T12:02:31Z</time>
      </trkpt>
      <trkpt lat="47.70496" lon="3.68721">
        <ele>293</ele>
        <time>2019-04-02T12:02:33Z</time>
      </trkpt>
      <trkpt lat="47.70492" lon="3.68721">
        <ele>293</ele>
        <time>2019-04-02T12:02:36Z</time>
      </trkpt>
      <trkpt lat="47.70488" lon="3.68721">
        <ele>293</ele>
        <time>2019-04-02T12:02:39Z</time>
      </trkpt>
      <trkpt lat="47.70484" lon="3.68722">
        <ele>293</ele>
        <time>2019-04-02T12:02:42Z</time>
      </trkpt>
      <trkpt lat="47.70479" lon="3.68723">
        <ele>293</ele>
        <time>2019-04-02T12:02:46Z</time>
      </trkpt>
      <trkpt lat="47.70473" lon="3.68723">
        <ele>292</ele>
        <time>2019-04-02T12:02:50Z</time>
      </trkpt>
      <trkpt lat="47.70467" lon="3.68723">
        <ele>292</ele>
        <time>2019-04-02T12:02:55Z</time>
      </trkpt>
      <trkpt lat="47.70463" lon="3.68723">
        <ele>292</ele>
        <time>2019-04-02T12:02:57Z</time>
      </trkpt>
      <trkpt lat="47.7046" lon="3.68723">
        <ele>292</ele>
        <time>2019-04-02T12:02:59Z</time>
      </trkpt>
      <trkpt lat="47.70454" lon="3.68722">
        <ele>291</ele>
        <time>2019-04-02T12:03:03Z</time>
      </trkpt>
      <trkpt lat="47.70452" lon="3.68722">
        <ele>291</ele>
        <time>2019-04-02T12:03:05Z</time>
      </trkpt>
      <trkpt lat="47.70446" lon="3.68723">
        <ele>290</ele>
        <time>2019-04-02T12:03:09Z</time>
      </trkpt>
      <trkpt lat="47.70442" lon="3.68723">
        <ele>290</ele>
        <time>2019-04-02T12:03:11Z</time>
      </trkpt>
      <trkpt lat="47.70435" lon="3.68724">
        <ele>290</ele>
        <time>2019-04-02T12:03:16Z</time>
      </trkpt>
      <trkpt lat="47.7043" lon="3.68723">
        <ele>289</ele>
        <time>2019-04-02T12:03:19Z</time>
      </trkpt>
      <trkpt lat="47.70425" lon="3.68723">
        <ele>288</ele>
        <time>2019-04-02T12:03:23Z</time>
      </trkpt>
      <trkpt lat="47.70422" lon="3.68724">
        <ele>288</ele>
        <time>2019-04-02T12:03:25Z</time>
      </trkpt>
      <trkpt lat="47.70419" lon="3.68724">
        <ele>288</ele>
        <time>2019-04-02T12:03:27Z</time>
      </trkpt>
      <trkpt lat="47.70413" lon="3.68722">
        <ele>288</ele>
        <time>2019-04-02T12:03:31Z</time>
      </trkpt>
      <trkpt lat="47.70411" lon="3.68722">
        <ele>288</ele>
        <time>2019-04-02T12:03:33Z</time>
      </trkpt>
      <trkpt lat="47.70405" lon="3.68722">
        <ele>288</ele>
        <time>2019-04-02T12:03:38Z</time>
      </trkpt>
      <trkpt lat="47.70402" lon="3.68722">
        <ele>287</ele>
        <time>2019-04-02T12:03:39Z</time>
      </trkpt>
      <trkpt lat="47.70397" lon="3.68722">
        <ele>287</ele>
        <time>2019-04-02T12:03:43Z</time>
      </trkpt>
      <trkpt lat="47.70391" lon="3.68721">
        <ele>287</ele>
        <time>2019-04-02T12:03:47Z</time>
      </trkpt>
      <trkpt lat="47.70388" lon="3.68721">
        <ele>287</ele>
        <time>2019-04-02T12:03:49Z</time>
      </trkpt>
      <trkpt lat="47.70383" lon="3.68721">
        <ele>288</ele>
        <time>2019-04-02T12:03:52Z</time>
      </trkpt>
      <trkpt lat="47.7038" lon="3.68721">
        <ele>288</ele>
        <time>2019-04-02T12:03:54Z</time>
      </trkpt>
      <trkpt lat="47.70378" lon="3.68721">
        <ele>288</ele>
        <time>2019-04-02T12:03:56Z</time>
      </trkpt>
      <trkpt lat="47.70375" lon="3.68721">
        <ele>287</ele>
        <time>2019-04-02T12:03:58Z</time>
      </trkpt>
      <trkpt lat="47.70369" lon="3.68721">
        <ele>286</ele>
        <time>2019-04-02T12:04:03Z</time>
      </trkpt>
      <trkpt lat="47.70364" lon="3.68721">
        <ele>286</ele>
        <time>2019-04-02T12:04:06Z</time>
      </trkpt>
      <trkpt lat="47.70358" lon="3.68721">
        <ele>284</ele>
        <time>2019-04-02T12:04:10Z</time>
      </trkpt>
      <trkpt lat="47.70355" lon="3.68721">
        <ele>284</ele>
        <time>2019-04-02T12:04:12Z</time>
      </trkpt>
      <trkpt lat="47.70351" lon="3.6872">
        <ele>284</ele>
        <time>2019-04-02T12:04:15Z</time>
      </trkpt>
      <trkpt lat="47.70348" lon="3.6872">
        <ele>284</ele>
        <time>2019-04-02T12:04:17Z</time>
      </trkpt>
      <trkpt lat="47.70345" lon="3.68719">
        <ele>284</ele>
        <time>2019-04-02T12:04:20Z</time>
      </trkpt>
      <trkpt lat="47.70339" lon="3.68718">
        <ele>284</ele>
        <time>2019-04-02T12:04:23Z</time>
      </trkpt>
      <trkpt lat="47.70335" lon="3.68717">
        <ele>284</ele>
        <time>2019-04-02T12:04:26Z</time>
      </trkpt>
      <trkpt lat="47.7033" lon="3.68717">
        <ele>283</ele>
        <time>2019-04-02T12:04:30Z</time>
      </trkpt>
      <trkpt lat="47.70327" lon="3.68717">
        <ele>283</ele>
        <time>2019-04-02T12:04:32Z</time>
      </trkpt>
      <trkpt lat="47.70321" lon="3.68715">
        <ele>284</ele>
        <time>2019-04-02T12:04:36Z</time>
      </trkpt>
      <trkpt lat="47.70316" lon="3.68715">
        <ele>283</ele>
        <time>2019-04-02T12:04:40Z</time>
      </trkpt>
      <trkpt lat="47.70312" lon="3.68715">
        <ele>283</ele>
        <time>2019-04-02T12:04:42Z</time>
      </trkpt>
      <trkpt lat="47.70309" lon="3.68715">
        <ele>282</ele>
        <time>2019-04-02T12:04:44Z</time>
      </trkpt>
      <trkpt lat="47.70305" lon="3.68714">
        <ele>282</ele>
        <time>2019-04-02T12:04:47Z</time>
      </trkpt>
      <trkpt lat="47.70302" lon="3.68713">
        <ele>282</ele>
        <time>2019-04-02T12:04:48Z</time>
      </trkpt>
      <trkpt lat="47.70299" lon="3.68712">
        <ele>282</ele>
        <time>2019-04-02T12:04:51Z</time>
      </trkpt>
      <trkpt lat="47.70296" lon="3.68711">
        <ele>282</ele>
        <time>2019-04-02T12:04:54Z</time>
      </trkpt>
      <trkpt lat="47.70293" lon="3.6871">
        <ele>282</ele>
        <time>2019-04-02T12:04:56Z</time>
      </trkpt>
      <trkpt lat="47.70288" lon="3.6871">
        <ele>282</ele>
        <time>2019-04-02T12:04:59Z</time>
      </trkpt>
      <trkpt lat="47.70285" lon="3.68709">
        <ele>283</ele>
        <time>2019-04-02T12:05:01Z</time>
      </trkpt>
      <trkpt lat="47.70281" lon="3.68708">
        <ele>283</ele>
        <time>2019-04-02T12:05:03Z</time>
      </trkpt>
      <trkpt lat="47.70278" lon="3.68707">
        <ele>283</ele>
        <time>2019-04-02T12:05:06Z</time>
      </trkpt>
      <trkpt lat="47.70275" lon="3.68706">
        <ele>282</ele>
        <time>2019-04-02T12:05:08Z</time>
      </trkpt>
      <trkpt lat="47.7027" lon="3.68703">
        <ele>282</ele>
        <time>2019-04-02T12:05:13Z</time>
      </trkpt>
      <trkpt lat="47.70266" lon="3.68703">
        <ele>282</ele>
        <time>2019-04-02T12:05:17Z</time>
      </trkpt>
      <trkpt lat="47.7026" lon="3.68704">
        <ele>282</ele>
        <time>2019-04-02T12:05:20Z</time>
      </trkpt>
      <trkpt lat="47.70256" lon="3.68703">
        <ele>282</ele>
        <time>2019-04-02T12:05:23Z</time>
      </trkpt>
      <trkpt lat="47.7025" lon="3.68699">
        <ele>282</ele>
        <time>2019-04-02T12:05:27Z</time>
      </trkpt>
      <trkpt lat="47.70245" lon="3.68698">
        <ele>282</ele>
        <time>2019-04-02T12:05:30Z</time>
      </trkpt>
      <trkpt lat="47.70241" lon="3.68697">
        <ele>282</ele>
        <time>2019-04-02T12:05:34Z</time>
      </trkpt>
      <trkpt lat="47.70237" lon="3.68696">
        <ele>282</ele>
        <time>2019-04-02T12:05:38Z</time>
      </trkpt>
      <trkpt lat="47.70234" lon="3.68696">
        <ele>282</ele>
        <time>2019-04-02T12:05:40Z</time>
      </trkpt>
      <trkpt lat="47.70232" lon="3.68696">
        <ele>282</ele>
        <time>2019-04-02T12:05:42Z</time>
      </trkpt>
      <trkpt lat="47.70227" lon="3.68694">
        <ele>282</ele>
        <time>2019-04-02T12:05:46Z</time>
      </trkpt>
      <trkpt lat="47.70223" lon="3.68693">
        <ele>282</ele>
        <time>2019-04-02T12:05:48Z</time>
      </trkpt>
      <trkpt lat="47.7022" lon="3.68693">
        <ele>282</ele>
        <time>2019-04-02T12:05:50Z</time>
      </trkpt>
      <trkpt lat="47.70215" lon="3.68693">
        <ele>281</ele>
        <time>2019-04-02T12:05:55Z</time>
      </trkpt>
      <trkpt lat="47.7021" lon="3.68691">
        <ele>281</ele>
        <time>2019-04-02T12:05:58Z</time>
      </trkpt>
      <trkpt lat="47.70207" lon="3.6869">
        <ele>281</ele>
        <time>2019-04-02T12:06:00Z</time>
      </trkpt>
      <trkpt lat="47.70202" lon="3.6869">
        <ele>280</ele>
        <time>2019-04-02T12:06:04Z</time>
      </trkpt>
      <trkpt lat="47.70196" lon="3.68689">
        <ele>280</ele>
        <time>2019-04-02T12:06:07Z</time>
      </trkpt>
      <trkpt lat="47.70193" lon="3.68688">
        <ele>280</ele>
        <time>2019-04-02T12:06:09Z</time>
      </trkpt>
      <trkpt lat="47.70191" lon="3.68688">
        <ele>280</ele>
        <time>2019-04-02T12:06:11Z</time>
      </trkpt>
      <trkpt lat="47.70187" lon="3.68685">
        <ele>279</ele>
        <time>2019-04-02T12:06:14Z</time>
      </trkpt>
      <trkpt lat="47.70182" lon="3.68682">
        <ele>279</ele>
        <time>2019-04-02T12:06:19Z</time>
      </trkpt>
      <trkpt lat="47.70178" lon="3.68681">
        <ele>278</ele>
        <time>2019-04-02T12:06:22Z</time>
      </trkpt>
      <trkpt lat="47.70174" lon="3.68679">
        <ele>278</ele>
        <time>2019-04-02T12:06:25Z</time>
      </trkpt>
      <trkpt lat="47.7017" lon="3.68678">
        <ele>277</ele>
        <time>2019-04-02T12:06:28Z</time>
      </trkpt>
      <trkpt lat="47.70166" lon="3.68677">
        <ele>276</ele>
        <time>2019-04-02T12:06:30Z</time>
      </trkpt>
      <trkpt lat="47.70161" lon="3.68677">
        <ele>275</ele>
        <time>2019-04-02T12:06:34Z</time>
      </trkpt>
      <trkpt lat="47.70158" lon="3.68676">
        <ele>274</ele>
        <time>2019-04-02T12:06:37Z</time>
      </trkpt>
      <trkpt lat="47.70153" lon="3.68676">
        <ele>275</ele>
        <time>2019-04-02T12:06:40Z</time>
      </trkpt>
      <trkpt lat="47.70148" lon="3.68678">
        <ele>274</ele>
        <time>2019-04-02T12:06:44Z</time>
      </trkpt>
      <trkpt lat="47.70144" lon="3.68679">
        <ele>274</ele>
        <time>2019-04-02T12:06:47Z</time>
      </trkpt>
      <trkpt lat="47.70139" lon="3.68678">
        <ele>274</ele>
        <time>2019-04-02T12:06:51Z</time>
      </trkpt>
      <trkpt lat="47.70136" lon="3.68678">
        <ele>274</ele>
        <time>2019-04-02T12:06:53Z</time>
      </trkpt>
      <trkpt lat="47.70133" lon="3.68679">
        <ele>273</ele>
        <time>2019-04-02T12:06:55Z</time>
      </trkpt>
      <trkpt lat="47.7013" lon="3.68679">
        <ele>273</ele>
        <time>2019-04-02T12:06:57Z</time>
      </trkpt>
      <trkpt lat="47.70126" lon="3.6868">
        <ele>272</ele>
        <time>2019-04-02T12:07:00Z</time>
      </trkpt>
      <trkpt lat="47.7012" lon="3.68683">
        <ele>272</ele>
        <time>2019-04-02T12:07:03Z</time>
      </trkpt>
      <trkpt lat="47.70115" lon="3.68684">
        <ele>272</ele>
        <time>2019-04-02T12:07:07Z</time>
      </trkpt>
      <trkpt lat="47.70113" lon="3.68685">
        <ele>271</ele>
        <time>2019-04-02T12:07:09Z</time>
      </trkpt>
      <trkpt lat="47.70108" lon="3.68687">
        <ele>270</ele>
        <time>2019-04-02T12:07:13Z</time>
      </trkpt>
      <trkpt lat="47.70106" lon="3.68688">
        <ele>270</ele>
        <time>2019-04-02T12:07:16Z</time>
      </trkpt>
      <trkpt lat="47.70103" lon="3.68689">
        <ele>270</ele>
        <time>2019-04-02T12:07:18Z</time>
      </trkpt>
      <trkpt lat="47.70099" lon="3.68691">
        <ele>270</ele>
        <time>2019-04-02T12:07:21Z</time>
      </trkpt>
      <trkpt lat="47.70096" lon="3.68692">
        <ele>269</ele>
        <time>2019-04-02T12:07:23Z</time>
      </trkpt>
      <trkpt lat="47.70091" lon="3.68695">
        <ele>269</ele>
        <time>2019-04-02T12:07:26Z</time>
      </trkpt>
      <trkpt lat="47.70088" lon="3.68697">
        <ele>269</ele>
        <time>2019-04-02T12:07:28Z</time>
      </trkpt>
      <trkpt lat="47.70086" lon="3.68698">
        <ele>269</ele>
        <time>2019-04-02T12:07:31Z</time>
      </trkpt>
      <trkpt lat="47.70083" lon="3.68699">
        <ele>269</ele>
        <time>2019-04-02T12:07:33Z</time>
      </trkpt>
      <trkpt lat="47.7008" lon="3.68701">
        <ele>269</ele>
        <time>2019-04-02T12:07:35Z</time>
      </trkpt>
      <trkpt lat="47.70078" lon="3.68703">
        <ele>269</ele>
        <time>2019-04-02T12:07:37Z</time>
      </trkpt>
      <trkpt lat="47.70075" lon="3.68705">
        <ele>269</ele>
        <time>2019-04-02T12:07:39Z</time>
      </trkpt>
      <trkpt lat="47.70072" lon="3.68707">
        <ele>269</ele>
        <time>2019-04-02T12:07:41Z</time>
      </trkpt>
      <trkpt lat="47.70069" lon="3.68709">
        <ele>269</ele>
        <time>2019-04-02T12:07:43Z</time>
      </trkpt>
      <trkpt lat="47.70066" lon="3.68711">
        <ele>269</ele>
        <time>2019-04-02T12:07:45Z</time>
      </trkpt>
      <trkpt lat="47.70064" lon="3.68712">
        <ele>269</ele>
        <time>2019-04-02T12:07:48Z</time>
      </trkpt>
      <trkpt lat="47.70061" lon="3.68714">
        <ele>269</ele>
        <time>2019-04-02T12:07:50Z</time>
      </trkpt>
      <trkpt lat="47.70057" lon="3.68716">
        <ele>268</ele>
        <time>2019-04-02T12:07:54Z</time>
      </trkpt>
      <trkpt lat="47.70053" lon="3.68719">
        <ele>268</ele>
        <time>2019-04-02T12:07:57Z</time>
      </trkpt>
      <trkpt lat="47.70048" lon="3.68722">
        <ele>267</ele>
        <time>2019-04-02T12:08:01Z</time>
      </trkpt>
      <trkpt lat="47.70046" lon="3.68724">
        <ele>267</ele>
        <time>2019-04-02T12:08:03Z</time>
      </trkpt>
      <trkpt lat="47.70043" lon="3.68726">
        <ele>267</ele>
        <time>2019-04-02T12:08:05Z</time>
      </trkpt>
      <trkpt lat="47.70041" lon="3.68727">
        <ele>266</ele>
        <time>2019-04-02T12:08:07Z</time>
      </trkpt>
      <trkpt lat="47.70036" lon="3.6873">
        <ele>266</ele>
        <time>2019-04-02T12:08:10Z</time>
      </trkpt>
      <trkpt lat="47.70032" lon="3.68733">
        <ele>266</ele>
        <time>2019-04-02T12:08:15Z</time>
      </trkpt>
      <trkpt lat="47.70027" lon="3.68736">
        <ele>265</ele>
        <time>2019-04-02T12:08:19Z</time>
      </trkpt>
      <trkpt lat="47.70024" lon="3.68738">
        <ele>264</ele>
        <time>2019-04-02T12:08:22Z</time>
      </trkpt>
      <trkpt lat="47.70019" lon="3.68741">
        <ele>265</ele>
        <time>2019-04-02T12:08:26Z</time>
      </trkpt>
      <trkpt lat="47.70016" lon="3.68743">
        <ele>264</ele>
        <time>2019-04-02T12:08:28Z</time>
      </trkpt>
      <trkpt lat="47.70011" lon="3.68746">
        <ele>264</ele>
        <time>2019-04-02T12:08:32Z</time>
      </trkpt>
      <trkpt lat="47.70008" lon="3.68747">
        <ele>263</ele>
        <time>2019-04-02T12:08:34Z</time>
      </trkpt>
      <trkpt lat="47.70006" lon="3.68748">
        <ele>264</ele>
        <time>2019-04-02T12:08:36Z</time>
      </trkpt>
      <trkpt lat="47.70001" lon="3.68751">
        <ele>263</ele>
        <time>2019-04-02T12:08:40Z</time>
      </trkpt>
      <trkpt lat="47.69996" lon="3.68753">
        <ele>263</ele>
        <time>2019-04-02T12:08:44Z</time>
      </trkpt>
      <trkpt lat="47.69991" lon="3.68757">
        <ele>263</ele>
        <time>2019-04-02T12:08:48Z</time>
      </trkpt>
      <trkpt lat="47.69987" lon="3.68759">
        <ele>262</ele>
        <time>2019-04-02T12:08:52Z</time>
      </trkpt>
      <trkpt lat="47.69984" lon="3.68761">
        <ele>262</ele>
        <time>2019-04-02T12:08:54Z</time>
      </trkpt>
      <trkpt lat="47.69982" lon="3.68762">
        <ele>262</ele>
        <time>2019-04-02T12:08:57Z</time>
      </trkpt>
      <trkpt lat="47.69976" lon="3.68765">
        <ele>262</ele>
        <time>2019-04-02T12:09:01Z</time>
      </trkpt>
      <trkpt lat="47.6997" lon="3.68768">
        <ele>261</ele>
        <time>2019-04-02T12:09:07Z</time>
      </trkpt>
      <trkpt lat="47.69968" lon="3.68769">
        <ele>261</ele>
        <time>2019-04-02T12:09:09Z</time>
      </trkpt>
      <trkpt lat="47.69964" lon="3.68773">
        <ele>261</ele>
        <time>2019-04-02T12:09:12Z</time>
      </trkpt>
      <trkpt lat="47.6996" lon="3.68776">
        <ele>260</ele>
        <time>2019-04-02T12:09:15Z</time>
      </trkpt>
      <trkpt lat="47.69955" lon="3.68777">
        <ele>259</ele>
        <time>2019-04-02T12:09:20Z</time>
      </trkpt>
      <trkpt lat="47.69948" lon="3.6878">
        <ele>259</ele>
        <time>2019-04-02T12:09:24Z</time>
      </trkpt>
      <trkpt lat="47.69946" lon="3.68782">
        <ele>259</ele>
        <time>2019-04-02T12:09:26Z</time>
      </trkpt>
      <trkpt lat="47.69941" lon="3.68786">
        <ele>258</ele>
        <time>2019-04-02T12:09:31Z</time>
      </trkpt>
      <trkpt lat="47.69937" lon="3.68789">
        <ele>258</ele>
        <time>2019-04-02T12:09:35Z</time>
      </trkpt>
      <trkpt lat="47.69933" lon="3.68793">
        <ele>257</ele>
        <time>2019-04-02T12:09:38Z</time>
      </trkpt>
      <trkpt lat="47.69929" lon="3.68797">
        <ele>256</ele>
        <time>2019-04-02T12:09:42Z</time>
      </trkpt>
      <trkpt lat="47.69927" lon="3.68799">
        <ele>256</ele>
        <time>2019-04-02T12:09:44Z</time>
      </trkpt>
      <trkpt lat="47.69923" lon="3.68806">
        <ele>255</ele>
        <time>2019-04-02T12:09:49Z</time>
      </trkpt>
      <trkpt lat="47.6992" lon="3.68809">
        <ele>256</ele>
        <time>2019-04-02T12:09:52Z</time>
      </trkpt>
      <trkpt lat="47.69918" lon="3.68812">
        <ele>255</ele>
        <time>2019-04-02T12:09:55Z</time>
      </trkpt>
      <trkpt lat="47.69917" lon="3.68814">
        <ele>255</ele>
        <time>2019-04-02T12:09:57Z</time>
      </trkpt>
      <trkpt lat="47.69915" lon="3.68817">
        <ele>254</ele>
        <time>2019-04-02T12:09:59Z</time>
      </trkpt>
      <trkpt lat="47.6991" lon="3.68821">
        <ele>254</ele>
        <time>2019-04-02T12:10:03Z</time>
      </trkpt>
      <trkpt lat="47.69908" lon="3.68823">
        <ele>253</ele>
        <time>2019-04-02T12:10:05Z</time>
      </trkpt>
      <trkpt lat="47.69905" lon="3.68825">
        <ele>253</ele>
        <time>2019-04-02T12:10:07Z</time>
      </trkpt>
      <trkpt lat="47.69903" lon="3.68828">
        <ele>252</ele>
        <time>2019-04-02T12:10:09Z</time>
      </trkpt>
      <trkpt lat="47.69901" lon="3.6883">
        <ele>252</ele>
        <time>2019-04-02T12:10:11Z</time>
      </trkpt>
      <trkpt lat="47.69898" lon="3.68832">
        <ele>252</ele>
        <time>2019-04-02T12:10:13Z</time>
      </trkpt>
      <trkpt lat="47.69896" lon="3.68834">
        <ele>252</ele>
        <time>2019-04-02T12:10:15Z</time>
      </trkpt>
      <trkpt lat="47.69891" lon="3.6884">
        <ele>250</ele>
        <time>2019-04-02T12:10:20Z</time>
      </trkpt>
      <trkpt lat="47.69886" lon="3.68845">
        <ele>250</ele>
        <time>2019-04-02T12:10:24Z</time>
      </trkpt>
      <trkpt lat="47.69883" lon="3.68848">
        <ele>250</ele>
        <time>2019-04-02T12:10:26Z</time>
      </trkpt>
      <trkpt lat="47.69879" lon="3.68851">
        <ele>250</ele>
        <time>2019-04-02T12:10:28Z</time>
      </trkpt>
      <trkpt lat="47.69875" lon="3.68855">
        <ele>249</ele>
        <time>2019-04-02T12:10:32Z</time>
      </trkpt>
      <trkpt lat="47.69871" lon="3.68859">
        <ele>249</ele>
        <time>2019-04-02T12:10:35Z</time>
      </trkpt>
      <trkpt lat="47.69866" lon="3.68863">
        <ele>248</ele>
        <time>2019-04-02T12:10:39Z</time>
      </trkpt>
      <trkpt lat="47.69863" lon="3.68866">
        <ele>247</ele>
        <time>2019-04-02T12:10:43Z</time>
      </trkpt>
      <trkpt lat="47.6986" lon="3.68869">
        <ele>247</ele>
        <time>2019-04-02T12:10:46Z</time>
      </trkpt>
      <trkpt lat="47.69856" lon="3.68875">
        <ele>247</ele>
        <time>2019-04-02T12:10:50Z</time>
      </trkpt>
      <trkpt lat="47.69851" lon="3.68878">
        <ele>246</ele>
        <time>2019-04-02T12:10:54Z</time>
      </trkpt>
      <trkpt lat="47.69847" lon="3.68883">
        <ele>245</ele>
        <time>2019-04-02T12:10:58Z</time>
      </trkpt>
      <trkpt lat="47.69843" lon="3.68887">
        <ele>245</ele>
        <time>2019-04-02T12:11:02Z</time>
      </trkpt>
      <trkpt lat="47.6984" lon="3.68888">
        <ele>245</ele>
        <time>2019-04-02T12:11:04Z</time>
      </trkpt>
      <trkpt lat="47.69838" lon="3.68891">
        <ele>244</ele>
        <time>2019-04-02T12:11:06Z</time>
      </trkpt>
      <trkpt lat="47.69833" lon="3.68894">
        <ele>244</ele>
        <time>2019-04-02T12:11:10Z</time>
      </trkpt>
      <trkpt lat="47.69831" lon="3.68896">
        <ele>244</ele>
        <time>2019-04-02T12:11:12Z</time>
      </trkpt>
      <trkpt lat="47.69826" lon="3.68898">
        <ele>243</ele>
        <time>2019-04-02T12:11:16Z</time>
      </trkpt>
      <trkpt lat="47.69821" lon="3.68902">
        <ele>243</ele>
        <time>2019-04-02T12:11:19Z</time>
      </trkpt>
      <trkpt lat="47.69819" lon="3.68903">
        <ele>242</ele>
        <time>2019-04-02T12:11:22Z</time>
      </trkpt>
      <trkpt lat="47.69817" lon="3.68905">
        <ele>241</ele>
        <time>2019-04-02T12:11:24Z</time>
      </trkpt>
      <trkpt lat="47.69812" lon="3.68908">
        <ele>241</ele>
        <time>2019-04-02T12:11:28Z</time>
      </trkpt>
      <trkpt lat="47.6981" lon="3.6891">
        <ele>241</ele>
        <time>2019-04-02T12:11:30Z</time>
      </trkpt>
      <trkpt lat="47.69807" lon="3.68912">
        <ele>240</ele>
        <time>2019-04-02T12:11:33Z</time>
      </trkpt>
      <trkpt lat="47.69804" lon="3.68915">
        <ele>240</ele>
        <time>2019-04-02T12:11:35Z</time>
      </trkpt>
      <trkpt lat="47.69801" lon="3.68917">
        <ele>240</ele>
        <time>2019-04-02T12:11:37Z</time>
      </trkpt>
      <trkpt lat="47.69799" lon="3.68919">
        <ele>239</ele>
        <time>2019-04-02T12:11:39Z</time>
      </trkpt>
      <trkpt lat="47.69796" lon="3.68921">
        <ele>239</ele>
        <time>2019-04-02T12:11:41Z</time>
      </trkpt>
      <trkpt lat="47.69793" lon="3.68924">
        <ele>238</ele>
        <time>2019-04-02T12:11:43Z</time>
      </trkpt>
      <trkpt lat="47.69789" lon="3.68927">
        <ele>237</ele>
        <time>2019-04-02T12:11:46Z</time>
      </trkpt>
      <trkpt lat="47.69786" lon="3.68929">
        <ele>237</ele>
        <time>2019-04-02T12:11:48Z</time>
      </trkpt>
      <trkpt lat="47.69784" lon="3.68931">
        <ele>237</ele>
        <time>2019-04-02T12:11:50Z</time>
      </trkpt>
      <trkpt lat="47.6978" lon="3.68933">
        <ele>236</ele>
        <time>2019-04-02T12:11:54Z</time>
      </trkpt>
      <trkpt lat="47.69775" lon="3.68937">
        <ele>236</ele>
        <time>2019-04-02T12:11:58Z</time>
      </trkpt>
      <trkpt lat="47.69771" lon="3.68939">
        <ele>235</ele>
        <time>2019-04-02T12:12:02Z</time>
      </trkpt>
      <trkpt lat="47.69766" lon="3.68944">
        <ele>234</ele>
        <time>2019-04-02T12:12:06Z</time>
      </trkpt>
      <trkpt lat="47.69764" lon="3.68946">
        <ele>234</ele>
        <time>2019-04-02T12:12:08Z</time>
      </trkpt>
      <trkpt lat="47.69759" lon="3.68948">
        <ele>233</ele>
        <time>2019-04-02T12:12:12Z</time>
      </trkpt>
      <trkpt lat="47.69755" lon="3.68952">
        <ele>233</ele>
        <time>2019-04-02T12:12:16Z</time>
      </trkpt>
      <trkpt lat="47.6975" lon="3.68957">
        <ele>232</ele>
        <time>2019-04-02T12:12:19Z</time>
      </trkpt>
      <trkpt lat="47.69748" lon="3.68959">
        <ele>232</ele>
        <time>2019-04-02T12:12:22Z</time>
      </trkpt>
      <trkpt lat="47.69744" lon="3.68963">
        <ele>232</ele>
        <time>2019-04-02T12:12:25Z</time>
      </trkpt>
      <trkpt lat="47.69738" lon="3.68969">
        <ele>231</ele>
        <time>2019-04-02T12:12:29Z</time>
      </trkpt>
      <trkpt lat="47.69735" lon="3.68974">
        <ele>229</ele>
        <time>2019-04-02T12:12:34Z</time>
      </trkpt>
      <trkpt lat="47.6973" lon="3.6898">
        <ele>228</ele>
        <time>2019-04-02T12:12:38Z</time>
      </trkpt>
      <trkpt lat="47.69726" lon="3.68985">
        <ele>227</ele>
        <time>2019-04-02T12:12:42Z</time>
      </trkpt>
      <trkpt lat="47.69724" lon="3.68987">
        <ele>227</ele>
        <time>2019-04-02T12:12:44Z</time>
      </trkpt>
      <trkpt lat="47.6972" lon="3.68994">
        <ele>227</ele>
        <time>2019-04-02T12:12:49Z</time>
      </trkpt>
      <trkpt lat="47.69716" lon="3.68999">
        <ele>227</ele>
        <time>2019-04-02T12:12:53Z</time>
      </trkpt>
      <trkpt lat="47.69714" lon="3.69002">
        <ele>227</ele>
        <time>2019-04-02T12:12:55Z</time>
      </trkpt>
      <trkpt lat="47.69711" lon="3.69005">
        <ele>226</ele>
        <time>2019-04-02T12:12:58Z</time>
      </trkpt>
      <trkpt lat="47.69707" lon="3.6901">
        <ele>225</ele>
        <time>2019-04-02T12:13:02Z</time>
      </trkpt>
      <trkpt lat="47.69705" lon="3.69012">
        <ele>225</ele>
        <time>2019-04-02T12:13:04Z</time>
      </trkpt>
      <trkpt lat="47.69703" lon="3.69015">
        <ele>225</ele>
        <time>2019-04-02T12:13:06Z</time>
      </trkpt>
      <trkpt lat="47.69701" lon="3.69017">
        <ele>225</ele>
        <time>2019-04-02T12:13:07Z</time>
      </trkpt>
      <trkpt lat="47.69696" lon="3.69024">
        <ele>225</ele>
        <time>2019-04-02T12:13:12Z</time>
      </trkpt>
      <trkpt lat="47.69694" lon="3.69026">
        <ele>224</ele>
        <time>2019-04-02T12:13:14Z</time>
      </trkpt>
      <trkpt lat="47.69692" lon="3.69029">
        <ele>224</ele>
        <time>2019-04-02T12:13:17Z</time>
      </trkpt>
      <trkpt lat="47.69686" lon="3.69034">
        <ele>223</ele>
        <time>2019-04-02T12:13:21Z</time>
      </trkpt>
      <trkpt lat="47.69682" lon="3.69038">
        <ele>222</ele>
        <time>2019-04-02T12:13:25Z</time>
      </trkpt>
      <trkpt lat="47.6968" lon="3.6904">
        <ele>222</ele>
        <time>2019-04-02T12:13:27Z</time>
      </trkpt>
      <trkpt lat="47.69675" lon="3.69042">
        <ele>222</ele>
        <time>2019-04-02T12:13:31Z</time>
      </trkpt>
      <trkpt lat="47.6967" lon="3.69045">
        <ele>223</ele>
        <time>2019-04-02T12:13:35Z</time>
      </trkpt>
      <trkpt lat="47.69665" lon="3.69047">
        <ele>223</ele>
        <time>2019-04-02T12:13:38Z</time>
      </trkpt>
      <trkpt lat="47.6966" lon="3.69048">
        <ele>223</ele>
        <time>2019-04-02T12:13:42Z</time>
      </trkpt>
      <trkpt lat="47.69654" lon="3.69049">
        <ele>222</ele>
        <time>2019-04-02T12:13:45Z</time>
      </trkpt>
      <trkpt lat="47.69651" lon="3.69049">
        <ele>221</ele>
        <time>2019-04-02T12:13:47Z</time>
      </trkpt>
      <trkpt lat="47.69647" lon="3.69049">
        <ele>219</ele>
        <time>2019-04-02T12:13:51Z</time>
      </trkpt>
      <trkpt lat="47.69644" lon="3.6905">
        <ele>219</ele>
        <time>2019-04-02T12:13:53Z</time>
      </trkpt>
      <trkpt lat="47.69642" lon="3.6905">
        <ele>218</ele>
        <time>2019-04-02T12:13:55Z</time>
      </trkpt>
      <trkpt lat="47.69637" lon="3.69049">
        <ele>217</ele>
        <time>2019-04-02T12:13:59Z</time>
      </trkpt>
      <trkpt lat="47.69633" lon="3.69049">
        <ele>216</ele>
        <time>2019-04-02T12:14:02Z</time>
      </trkpt>
      <trkpt lat="47.69628" lon="3.69046">
        <ele>216</ele>
        <time>2019-04-02T12:14:06Z</time>
      </trkpt>
      <trkpt lat="47.69624" lon="3.69043">
        <ele>215</ele>
        <time>2019-04-02T12:14:10Z</time>
      </trkpt>
      <trkpt lat="47.6962" lon="3.69041">
        <ele>215</ele>
        <time>2019-04-02T12:14:14Z</time>
      </trkpt>
      <trkpt lat="47.69617" lon="3.6904">
        <ele>215</ele>
        <time>2019-04-02T12:14:16Z</time>
      </trkpt>
      <trkpt lat="47.69613" lon="3.69037">
        <ele>215</ele>
        <time>2019-04-02T12:14:20Z</time>
      </trkpt>
      <trkpt lat="47.69606" lon="3.69035">
        <ele>214</ele>
        <time>2019-04-02T12:14:25Z</time>
      </trkpt>
      <trkpt lat="47.69602" lon="3.69034">
        <ele>213</ele>
        <time>2019-04-02T12:14:28Z</time>
      </trkpt>
      <trkpt lat="47.69599" lon="3.69033">
        <ele>214</ele>
        <time>2019-04-02T12:14:30Z</time>
      </trkpt>
      <trkpt lat="47.69595" lon="3.6903">
        <ele>213</ele>
        <time>2019-04-02T12:14:33Z</time>
      </trkpt>
      <trkpt lat="47.69592" lon="3.69028">
        <ele>214</ele>
        <time>2019-04-02T12:14:35Z</time>
      </trkpt>
      <trkpt lat="47.69589" lon="3.69026">
        <ele>213</ele>
        <time>2019-04-02T12:14:37Z</time>
      </trkpt>
      <trkpt lat="47.69585" lon="3.69025">
        <ele>213</ele>
        <time>2019-04-02T12:14:41Z</time>
      </trkpt>
      <trkpt lat="47.69581" lon="3.69024">
        <ele>212</ele>
        <time>2019-04-02T12:14:44Z</time>
      </trkpt>
      <trkpt lat="47.69576" lon="3.69021">
        <ele>211</ele>
        <time>2019-04-02T12:14:48Z</time>
      </trkpt>
      <trkpt lat="47.69572" lon="3.69019">
        <ele>212</ele>
        <time>2019-04-02T12:14:51Z</time>
      </trkpt>
      <trkpt lat="47.69569" lon="3.69018">
        <ele>211</ele>
        <time>2019-04-02T12:14:53Z</time>
      </trkpt>
      <trkpt lat="47.69567" lon="3.69017">
        <ele>211</ele>
        <time>2019-04-02T12:14:55Z</time>
      </trkpt>
      <trkpt lat="47.69563" lon="3.69015">
        <ele>211</ele>
        <time>2019-04-02T12:14:57Z</time>
      </trkpt>
      <trkpt lat="47.69558" lon="3.69009">
        <ele>211</ele>
        <time>2019-04-02T12:15:02Z</time>
      </trkpt>
      <trkpt lat="47.69554" lon="3.69006">
        <ele>210</ele>
        <time>2019-04-02T12:15:06Z</time>
      </trkpt>
      <trkpt lat="47.6955" lon="3.69004">
        <ele>209</ele>
        <time>2019-04-02T12:15:09Z</time>
      </trkpt>
      <trkpt lat="47.69545" lon="3.69002">
        <ele>209</ele>
        <time>2019-04-02T12:15:14Z</time>
      </trkpt>
      <trkpt lat="47.69541" lon="3.69">
        <ele>209</ele>
        <time>2019-04-02T12:15:18Z</time>
      </trkpt>
      <trkpt lat="47.69537" lon="3.68998">
        <ele>210</ele>
        <time>2019-04-02T12:15:21Z</time>
      </trkpt>
      <trkpt lat="47.69534" lon="3.68997">
        <ele>210</ele>
        <time>2019-04-02T12:15:23Z</time>
      </trkpt>
      <trkpt lat="47.69532" lon="3.68995">
        <ele>210</ele>
        <time>2019-04-02T12:15:25Z</time>
      </trkpt>
      <trkpt lat="47.69528" lon="3.68993">
        <ele>209</ele>
        <time>2019-04-02T12:15:28Z</time>
      </trkpt>
      <trkpt lat="47.69526" lon="3.68992">
        <ele>208</ele>
        <time>2019-04-02T12:15:30Z</time>
      </trkpt>
      <trkpt lat="47.69521" lon="3.68992">
        <ele>209</ele>
        <time>2019-04-02T12:15:34Z</time>
      </trkpt>
      <trkpt lat="47.69515" lon="3.68989">
        <ele>208</ele>
        <time>2019-04-02T12:15:38Z</time>
      </trkpt>
      <trkpt lat="47.69509" lon="3.68988">
        <ele>208</ele>
        <time>2019-04-02T12:15:42Z</time>
      </trkpt>
      <trkpt lat="47.69506" lon="3.68987">
        <ele>208</ele>
        <time>2019-04-02T12:15:44Z</time>
      </trkpt>
      <trkpt lat="47.69502" lon="3.68986">
        <ele>207</ele>
        <time>2019-04-02T12:15:47Z</time>
      </trkpt>
      <trkpt lat="47.69497" lon="3.68986">
        <ele>206</ele>
        <time>2019-04-02T12:15:51Z</time>
      </trkpt>
      <trkpt lat="47.69492" lon="3.68985">
        <ele>206</ele>
        <time>2019-04-02T12:15:55Z</time>
      </trkpt>
      <trkpt lat="47.69487" lon="3.68983">
        <ele>206</ele>
        <time>2019-04-02T12:15:58Z</time>
      </trkpt>
      <trkpt lat="47.69484" lon="3.68983">
        <ele>206</ele>
        <time>2019-04-02T12:16:00Z</time>
      </trkpt>
      <trkpt lat="47.69479" lon="3.68983">
        <ele>207</ele>
        <time>2019-04-02T12:16:04Z</time>
      </trkpt>
      <trkpt lat="47.69474" lon="3.68982">
        <ele>206</ele>
        <time>2019-04-02T12:16:08Z</time>
      </trkpt>
      <trkpt lat="47.6947" lon="3.68981">
        <ele>206</ele>
        <time>2019-04-02T12:16:10Z</time>
      </trkpt>
      <trkpt lat="47.69466" lon="3.6898">
        <ele>206</ele>
        <time>2019-04-02T12:16:13Z</time>
      </trkpt>
      <trkpt lat="47.6946" lon="3.68981">
        <ele>207</ele>
        <time>2019-04-02T12:16:17Z</time>
      </trkpt>
      <trkpt lat="47.69457" lon="3.68981">
        <ele>207</ele>
        <time>2019-04-02T12:16:19Z</time>
      </trkpt>
      <trkpt lat="47.69454" lon="3.68982">
        <ele>208</ele>
        <time>2019-04-02T12:16:21Z</time>
      </trkpt>
      <trkpt lat="47.69448" lon="3.68981">
        <ele>206</ele>
        <time>2019-04-02T12:16:25Z</time>
      </trkpt>
      <trkpt lat="47.69444" lon="3.68981">
        <ele>206</ele>
        <time>2019-04-02T12:16:28Z</time>
      </trkpt>
      <trkpt lat="47.69441" lon="3.68981">
        <ele>206</ele>
        <time>2019-04-02T12:16:30Z</time>
      </trkpt>
      <trkpt lat="47.69438" lon="3.68981">
        <ele>205</ele>
        <time>2019-04-02T12:16:32Z</time>
      </trkpt>
      <trkpt lat="47.69435" lon="3.6898">
        <ele>206</ele>
        <time>2019-04-02T12:16:35Z</time>
      </trkpt>
      <trkpt lat="47.69431" lon="3.68977">
        <ele>205</ele>
        <time>2019-04-02T12:16:39Z</time>
      </trkpt>
      <trkpt lat="47.69426" lon="3.68976">
        <ele>204</ele>
        <time>2019-04-02T12:16:43Z</time>
      </trkpt>
      <trkpt lat="47.69421" lon="3.68976">
        <ele>204</ele>
        <time>2019-04-02T12:16:46Z</time>
      </trkpt>
      <trkpt lat="47.69417" lon="3.68976">
        <ele>204</ele>
        <time>2019-04-02T12:16:49Z</time>
      </trkpt>
      <trkpt lat="47.69412" lon="3.68977">
        <ele>202</ele>
        <time>2019-04-02T12:16:53Z</time>
      </trkpt>
      <trkpt lat="47.69409" lon="3.68977">
        <ele>201</ele>
        <time>2019-04-02T12:16:55Z</time>
      </trkpt>
      <trkpt lat="47.69406" lon="3.68977">
        <ele>201</ele>
        <time>2019-04-02T12:16:57Z</time>
      </trkpt>
      <trkpt lat="47.69401" lon="3.68977">
        <ele>201</ele>
        <time>2019-04-02T12:17:00Z</time>
      </trkpt>
      <trkpt lat="47.69395" lon="3.68978">
        <ele>200</ele>
        <time>2019-04-02T12:17:04Z</time>
      </trkpt>
      <trkpt lat="47.6939" lon="3.68977">
        <ele>198</ele>
        <time>2019-04-02T12:17:08Z</time>
      </trkpt>
      <trkpt lat="47.69385" lon="3.68977">
        <ele>199</ele>
        <time>2019-04-02T12:17:11Z</time>
      </trkpt>
      <trkpt lat="47.69382" lon="3.68977">
        <ele>198</ele>
        <time>2019-04-02T12:17:13Z</time>
      </trkpt>
      <trkpt lat="47.6938" lon="3.68977">
        <ele>198</ele>
        <time>2019-04-02T12:17:15Z</time>
      </trkpt>
      <trkpt lat="47.69377" lon="3.68977">
        <ele>197</ele>
        <time>2019-04-02T12:17:17Z</time>
      </trkpt>
      <trkpt lat="47.69372" lon="3.68976">
        <ele>196</ele>
        <time>2019-04-02T12:17:21Z</time>
      </trkpt>
      <trkpt lat="47.69368" lon="3.68977">
        <ele>196</ele>
        <time>2019-04-02T12:17:24Z</time>
      </trkpt>
      <trkpt lat="47.69365" lon="3.68977">
        <ele>195</ele>
        <time>2019-04-02T12:17:26Z</time>
      </trkpt>
      <trkpt lat="47.6936" lon="3.68979">
        <ele>195</ele>
        <time>2019-04-02T12:17:30Z</time>
      </trkpt>
      <trkpt lat="47.69355" lon="3.68982">
        <ele>195</ele>
        <time>2019-04-02T12:17:34Z</time>
      </trkpt>
      <trkpt lat="47.69352" lon="3.68983">
        <ele>195</ele>
        <time>2019-04-02T12:17:36Z</time>
      </trkpt>
      <trkpt lat="47.69347" lon="3.68982">
        <ele>194</ele>
        <time>2019-04-02T12:17:39Z</time>
      </trkpt>
      <trkpt lat="47.69343" lon="3.68982">
        <ele>195</ele>
        <time>2019-04-02T12:17:42Z</time>
      </trkpt>
      <trkpt lat="47.69337" lon="3.68984">
        <ele>195</ele>
        <time>2019-04-02T12:17:46Z</time>
      </trkpt>
      <trkpt lat="47.69332" lon="3.68984">
        <ele>195</ele>
        <time>2019-04-02T12:17:50Z</time>
      </trkpt>
      <trkpt lat="47.69327" lon="3.68982">
        <ele>195</ele>
        <time>2019-04-02T12:17:54Z</time>
      </trkpt>
      <trkpt lat="47.69321" lon="3.68982">
        <ele>195</ele>
        <time>2019-04-02T12:17:58Z</time>
      </trkpt>
      <trkpt lat="47.69316" lon="3.68984">
        <ele>196</ele>
        <time>2019-04-02T12:18:01Z</time>
      </trkpt>
      <trkpt lat="47.69313" lon="3.68985">
        <ele>196</ele>
        <time>2019-04-02T12:18:04Z</time>
      </trkpt>
      <trkpt lat="47.69311" lon="3.68986">
        <ele>197</ele>
        <time>2019-04-02T12:18:06Z</time>
      </trkpt>
      <trkpt lat="47.69306" lon="3.68989">
        <ele>196</ele>
        <time>2019-04-02T12:18:10Z</time>
      </trkpt>
      <trkpt lat="47.69302" lon="3.6899">
        <ele>195</ele>
        <time>2019-04-02T12:18:14Z</time>
      </trkpt>
      <trkpt lat="47.69299" lon="3.68991">
        <ele>197</ele>
        <time>2019-04-02T12:18:16Z</time>
      </trkpt>
      <trkpt lat="47.69296" lon="3.68992">
        <ele>198</ele>
        <time>2019-04-02T12:18:18Z</time>
      </trkpt>
      <trkpt lat="47.69291" lon="3.68994">
        <ele>198</ele>
        <time>2019-04-02T12:18:21Z</time>
      </trkpt>
      <trkpt lat="47.69288" lon="3.68996">
        <ele>198</ele>
        <time>2019-04-02T12:18:23Z</time>
      </trkpt>
      <trkpt lat="47.69286" lon="3.68997">
        <ele>198</ele>
        <time>2019-04-02T12:18:25Z</time>
      </trkpt>
      <trkpt lat="47.69283" lon="3.68998">
        <ele>198</ele>
        <time>2019-04-02T12:18:28Z</time>
      </trkpt>
      <trkpt lat="47.69277" lon="3.69">
        <ele>199</ele>
        <time>2019-04-02T12:18:32Z</time>
      </trkpt>
      <trkpt lat="47.69274" lon="3.69001">
        <ele>199</ele>
        <time>2019-04-02T12:18:34Z</time>
      </trkpt>
      <trkpt lat="47.69268" lon="3.69002">
        <ele>199</ele>
        <time>2019-04-02T12:18:38Z</time>
      </trkpt>
      <trkpt lat="47.69265" lon="3.69002">
        <ele>199</ele>
        <time>2019-04-02T12:18:40Z</time>
      </trkpt>
      <trkpt lat="47.69263" lon="3.69002">
        <ele>200</ele>
        <time>2019-04-02T12:18:42Z</time>
      </trkpt>
      <trkpt lat="47.69258" lon="3.69003">
        <ele>200</ele>
        <time>2019-04-02T12:18:46Z</time>
      </trkpt>
      <trkpt lat="47.69252" lon="3.69004">
        <ele>201</ele>
        <time>2019-04-02T12:18:50Z</time>
      </trkpt>
      <trkpt lat="47.69248" lon="3.69001">
        <ele>201</ele>
        <time>2019-04-02T12:18:55Z</time>
      </trkpt>
      <trkpt lat="47.69242" lon="3.69003">
        <ele>201</ele>
        <time>2019-04-02T12:19:00Z</time>
      </trkpt>
      <trkpt lat="47.69235" lon="3.69006">
        <ele>201</ele>
        <time>2019-04-02T12:19:04Z</time>
      </trkpt>
      <trkpt lat="47.69229" lon="3.69007">
        <ele>201</ele>
        <time>2019-04-02T12:19:08Z</time>
      </trkpt>
      <trkpt lat="47.69227" lon="3.69008">
        <ele>202</ele>
        <time>2019-04-02T12:19:10Z</time>
      </trkpt>
      <trkpt lat="47.69222" lon="3.69009">
        <ele>201</ele>
        <time>2019-04-02T12:19:14Z</time>
      </trkpt>
      <trkpt lat="47.69217" lon="3.69009">
        <ele>202</ele>
        <time>2019-04-02T12:19:17Z</time>
      </trkpt>
      <trkpt lat="47.69214" lon="3.69009">
        <ele>202</ele>
        <time>2019-04-02T12:19:19Z</time>
      </trkpt>
      <trkpt lat="47.69209" lon="3.69011">
        <ele>202</ele>
        <time>2019-04-02T12:19:23Z</time>
      </trkpt>
      <trkpt lat="47.69204" lon="3.69015">
        <ele>201</ele>
        <time>2019-04-02T12:19:28Z</time>
      </trkpt>
      <trkpt lat="47.69199" lon="3.69015">
        <ele>201</ele>
        <time>2019-04-02T12:19:31Z</time>
      </trkpt>
      <trkpt lat="47.69196" lon="3.69015">
        <ele>200</ele>
        <time>2019-04-02T12:19:33Z</time>
      </trkpt>
      <trkpt lat="47.6919" lon="3.69015">
        <ele>201</ele>
        <time>2019-04-02T12:19:37Z</time>
      </trkpt>
      <trkpt lat="47.69184" lon="3.69018">
        <ele>201</ele>
        <time>2019-04-02T12:19:41Z</time>
      </trkpt>
      <trkpt lat="47.69178" lon="3.69019">
        <ele>201</ele>
        <time>2019-04-02T12:19:44Z</time>
      </trkpt>
      <trkpt lat="47.69173" lon="3.69017">
        <ele>201</ele>
        <time>2019-04-02T12:19:48Z</time>
      </trkpt>
      <trkpt lat="47.69168" lon="3.69017">
        <ele>200</ele>
        <time>2019-04-02T12:19:53Z</time>
      </trkpt>
      <trkpt lat="47.69163" lon="3.69019">
        <ele>200</ele>
        <time>2019-04-02T12:19:56Z</time>
      </trkpt>
      <trkpt lat="47.69158" lon="3.69018">
        <ele>199</ele>
        <time>2019-04-02T12:20:01Z</time>
      </trkpt>
      <trkpt lat="47.69154" lon="3.69019">
        <ele>198</ele>
        <time>2019-04-02T12:20:05Z</time>
      </trkpt>
      <trkpt lat="47.69148" lon="3.69018">
        <ele>198</ele>
        <time>2019-04-02T12:20:08Z</time>
      </trkpt>
      <trkpt lat="47.69142" lon="3.69016">
        <ele>197</ele>
        <time>2019-04-02T12:20:13Z</time>
      </trkpt>
      <trkpt lat="47.69135" lon="3.69016">
        <ele>196</ele>
        <time>2019-04-02T12:20:18Z</time>
      </trkpt>
      <trkpt lat="47.69132" lon="3.69016">
        <ele>195</ele>
        <time>2019-04-02T12:20:22Z</time>
      </trkpt>
      <trkpt lat="47.69129" lon="3.69016">
        <ele>195</ele>
        <time>2019-04-02T12:20:24Z</time>
      </trkpt>
      <trkpt lat="47.69124" lon="3.69016">
        <ele>195</ele>
        <time>2019-04-02T12:20:27Z</time>
      </trkpt>
      <trkpt lat="47.6912" lon="3.69015">
        <ele>195</ele>
        <time>2019-04-02T12:20:31Z</time>
      </trkpt>
      <trkpt lat="47.69114" lon="3.69015">
        <ele>196</ele>
        <time>2019-04-02T12:20:34Z</time>
      </trkpt>
      <trkpt lat="47.6911" lon="3.69014">
        <ele>196</ele>
        <time>2019-04-02T12:20:38Z</time>
      </trkpt>
      <trkpt lat="47.69103" lon="3.69014">
        <ele>196</ele>
        <time>2019-04-02T12:20:41Z</time>
      </trkpt>
      <trkpt lat="47.69096" lon="3.69014">
        <ele>196</ele>
        <time>2019-04-02T12:20:45Z</time>
      </trkpt>
      <trkpt lat="47.69092" lon="3.69014">
        <ele>196</ele>
        <time>2019-04-02T12:20:48Z</time>
      </trkpt>
      <trkpt lat="47.69086" lon="3.69015">
        <ele>195</ele>
        <time>2019-04-02T12:20:52Z</time>
      </trkpt>
      <trkpt lat="47.69082" lon="3.69015">
        <ele>197</ele>
        <time>2019-04-02T12:20:55Z</time>
      </trkpt>
      <trkpt lat="47.69077" lon="3.69013">
        <ele>197</ele>
        <time>2019-04-02T12:20:59Z</time>
      </trkpt>
      <trkpt lat="47.69074" lon="3.69012">
        <ele>197</ele>
        <time>2019-04-02T12:21:01Z</time>
      </trkpt>
      <trkpt lat="47.69069" lon="3.69013">
        <ele>196</ele>
        <time>2019-04-02T12:21:06Z</time>
      </trkpt>
      <trkpt lat="47.69067" lon="3.69013">
        <ele>196</ele>
        <time>2019-04-02T12:21:08Z</time>
      </trkpt>
      <trkpt lat="47.6906" lon="3.69013">
        <ele>194</ele>
        <time>2019-04-02T12:21:12Z</time>
      </trkpt>
      <trkpt lat="47.69057" lon="3.69012">
        <ele>193</ele>
        <time>2019-04-02T12:21:14Z</time>
      </trkpt>
      <trkpt lat="47.69052" lon="3.69013">
        <ele>194</ele>
        <time>2019-04-02T12:21:18Z</time>
      </trkpt>
      <trkpt lat="47.69047" lon="3.69011">
        <ele>192</ele>
        <time>2019-04-02T12:21:22Z</time>
      </trkpt>
      <trkpt lat="47.69041" lon="3.69009">
        <ele>191</ele>
        <time>2019-04-02T12:21:28Z</time>
      </trkpt>
      <trkpt lat="47.69036" lon="3.69008">
        <ele>191</ele>
        <time>2019-04-02T12:21:32Z</time>
      </trkpt>
      <trkpt lat="47.69031" lon="3.69008">
        <ele>190</ele>
        <time>2019-04-02T12:21:35Z</time>
      </trkpt>
      <trkpt lat="47.69026" lon="3.69007">
        <ele>189</ele>
        <time>2019-04-02T12:21:39Z</time>
      </trkpt>
      <trkpt lat="47.6902" lon="3.69003">
        <ele>189</ele>
        <time>2019-04-02T12:21:43Z</time>
      </trkpt>
      <trkpt lat="47.69017" lon="3.69002">
        <ele>188</ele>
        <time>2019-04-02T12:21:46Z</time>
      </trkpt>
      <trkpt lat="47.69011" lon="3.69001">
        <ele>188</ele>
        <time>2019-04-02T12:21:51Z</time>
      </trkpt>
      <trkpt lat="47.69009" lon="3.69001">
        <ele>188</ele>
        <time>2019-04-02T12:21:53Z</time>
      </trkpt>
      <trkpt lat="47.69006" lon="3.69001">
        <ele>187</ele>
        <time>2019-04-02T12:21:54Z</time>
      </trkpt>
      <trkpt lat="47.69" lon="3.69">
        <ele>187</ele>
        <time>2019-04-02T12:21:59Z</time>
      </trkpt>
      <trkpt lat="47.68997" lon="3.69">
        <ele>187</ele>
        <time>2019-04-02T12:22:02Z</time>
      </trkpt>
      <trkpt lat="47.68995" lon="3.69">
        <ele>186</ele>
        <time>2019-04-02T12:22:04Z</time>
      </trkpt>
      <trkpt lat="47.68991" lon="3.68999">
        <ele>186</ele>
        <time>2019-04-02T12:22:06Z</time>
      </trkpt>
      <trkpt lat="47.68987" lon="3.68998">
        <ele>186</ele>
        <time>2019-04-02T12:22:09Z</time>
      </trkpt>
      <trkpt lat="47.68984" lon="3.68997">
        <ele>186</ele>
        <time>2019-04-02T12:22:12Z</time>
      </trkpt>
      <trkpt lat="47.6898" lon="3.68996">
        <ele>185</ele>
        <time>2019-04-02T12:22:15Z</time>
      </trkpt>
      <trkpt lat="47.68974" lon="3.68996">
        <ele>184</ele>
        <time>2019-04-02T12:22:19Z</time>
      </trkpt>
      <trkpt lat="47.68971" lon="3.68996">
        <ele>184</ele>
        <time>2019-04-02T12:22:21Z</time>
      </trkpt>
      <trkpt lat="47.68967" lon="3.68993">
        <ele>184</ele>
        <time>2019-04-02T12:22:25Z</time>
      </trkpt>
      <trkpt lat="47.68963" lon="3.68991">
        <ele>184</ele>
        <time>2019-04-02T12:22:28Z</time>
      </trkpt>
      <trkpt lat="47.68961" lon="3.6899">
        <ele>184</ele>
        <time>2019-04-02T12:22:30Z</time>
      </trkpt>
      <trkpt lat="47.68957" lon="3.68988">
        <ele>184</ele>
        <time>2019-04-02T12:22:33Z</time>
      </trkpt>
      <trkpt lat="47.68955" lon="3.68987">
        <ele>184</ele>
        <time>2019-04-02T12:22:35Z</time>
      </trkpt>
      <trkpt lat="47.68953" lon="3.68986">
        <ele>183</ele>
        <time>2019-04-02T12:22:37Z</time>
      </trkpt>
      <trkpt lat="47.68948" lon="3.68985">
        <ele>183</ele>
        <time>2019-04-02T12:22:40Z</time>
      </trkpt>
      <trkpt lat="47.68944" lon="3.68982">
        <ele>184</ele>
        <time>2019-04-02T12:22:45Z</time>
      </trkpt>
      <trkpt lat="47.68938" lon="3.68981">
        <ele>183</ele>
        <time>2019-04-02T12:22:49Z</time>
      </trkpt>
      <trkpt lat="47.68935" lon="3.6898">
        <ele>182</ele>
        <time>2019-04-02T12:22:50Z</time>
      </trkpt>
      <trkpt lat="47.68932" lon="3.68979">
        <ele>182</ele>
        <time>2019-04-02T12:22:52Z</time>
      </trkpt>
      <trkpt lat="47.68929" lon="3.68978">
        <ele>182</ele>
        <time>2019-04-02T12:22:54Z</time>
      </trkpt>
      <trkpt lat="47.68925" lon="3.68978">
        <ele>181</ele>
        <time>2019-04-02T12:22:57Z</time>
      </trkpt>
      <trkpt lat="47.6892" lon="3.68977">
        <ele>181</ele>
        <time>2019-04-02T12:23:00Z</time>
      </trkpt>
      <trkpt lat="47.68918" lon="3.68976">
        <ele>180</ele>
        <time>2019-04-02T12:23:02Z</time>
      </trkpt>
      <trkpt lat="47.68915" lon="3.68976">
        <ele>180</ele>
        <time>2019-04-02T12:23:05Z</time>
      </trkpt>
      <trkpt lat="47.68911" lon="3.68975">
        <ele>181</ele>
        <time>2019-04-02T12:23:08Z</time>
      </trkpt>
      <trkpt lat="47.68906" lon="3.68973">
        <ele>181</ele>
        <time>2019-04-02T12:23:10Z</time>
      </trkpt>
      <trkpt lat="47.68903" lon="3.68973">
        <ele>182</ele>
        <time>2019-04-02T12:23:12Z</time>
      </trkpt>
      <trkpt lat="47.689" lon="3.68973">
        <ele>181</ele>
        <time>2019-04-02T12:23:15Z</time>
      </trkpt>
      <trkpt lat="47.68896" lon="3.68972">
        <ele>182</ele>
        <time>2019-04-02T12:23:18Z</time>
      </trkpt>
      <trkpt lat="47.68893" lon="3.68972">
        <ele>181</ele>
        <time>2019-04-02T12:23:19Z</time>
      </trkpt>
      <trkpt lat="47.6889" lon="3.68971">
        <ele>181</ele>
        <time>2019-04-02T12:23:22Z</time>
      </trkpt>
      <trkpt lat="47.68887" lon="3.6897">
        <ele>180</ele>
        <time>2019-04-02T12:23:24Z</time>
      </trkpt>
      <trkpt lat="47.68884" lon="3.6897">
        <ele>179</ele>
        <time>2019-04-02T12:23:27Z</time>
      </trkpt>
      <trkpt lat="47.68881" lon="3.68969">
        <ele>179</ele>
        <time>2019-04-02T12:23:29Z</time>
      </trkpt>
      <trkpt lat="47.68875" lon="3.68969">
        <ele>179</ele>
        <time>2019-04-02T12:23:32Z</time>
      </trkpt>
      <trkpt lat="47.6887" lon="3.68967">
        <ele>178</ele>
        <time>2019-04-02T12:23:36Z</time>
      </trkpt>
      <trkpt lat="47.68868" lon="3.68966">
        <ele>178</ele>
        <time>2019-04-02T12:23:38Z</time>
      </trkpt>
      <trkpt lat="47.68863" lon="3.68966">
        <ele>177</ele>
        <time>2019-04-02T12:23:43Z</time>
      </trkpt>
      <trkpt lat="47.6886" lon="3.68966">
        <ele>177</ele>
        <time>2019-04-02T12:23:45Z</time>
      </trkpt>
      <trkpt lat="47.68855" lon="3.68967">
        <ele>176</ele>
        <time>2019-04-02T12:23:48Z</time>
      </trkpt>
      <trkpt lat="47.68852" lon="3.68967">
        <ele>177</ele>
        <time>2019-04-02T12:23:50Z</time>
      </trkpt>
      <trkpt lat="47.68847" lon="3.68967">
        <ele>178</ele>
        <time>2019-04-02T12:23:54Z</time>
      </trkpt>
      <trkpt lat="47.68842" lon="3.68967">
        <ele>178</ele>
        <time>2019-04-02T12:23:59Z</time>
      </trkpt>
      <trkpt lat="47.68837" lon="3.68968">
        <ele>178</ele>
        <time>2019-04-02T12:24:03Z</time>
      </trkpt>
      <trkpt lat="47.68832" lon="3.6897">
        <ele>178</ele>
        <time>2019-04-02T12:24:07Z</time>
      </trkpt>
      <trkpt lat="47.68827" lon="3.68971">
        <ele>177</ele>
        <time>2019-04-02T12:24:09Z</time>
      </trkpt>
      <trkpt lat="47.68823" lon="3.68972">
        <ele>178</ele>
        <time>2019-04-02T12:24:11Z</time>
      </trkpt>
      <trkpt lat="47.6882" lon="3.68973">
        <ele>178</ele>
        <time>2019-04-02T12:24:13Z</time>
      </trkpt>
      <trkpt lat="47.68817" lon="3.68974">
        <ele>177</ele>
        <time>2019-04-02T12:24:15Z</time>
      </trkpt>
      <trkpt lat="47.68814" lon="3.68975">
        <ele>176</ele>
        <time>2019-04-02T12:24:17Z</time>
      </trkpt>
      <trkpt lat="47.68811" lon="3.68976">
        <ele>176</ele>
        <time>2019-04-02T12:24:20Z</time>
      </trkpt>
      <trkpt lat="47.68808" lon="3.68977">
        <ele>177</ele>
        <time>2019-04-02T12:24:23Z</time>
      </trkpt>
      <trkpt lat="47.68804" lon="3.68978">
        <ele>176</ele>
        <time>2019-04-02T12:24:26Z</time>
      </trkpt>
      <trkpt lat="47.688" lon="3.68979">
        <ele>176</ele>
        <time>2019-04-02T12:24:29Z</time>
      </trkpt>
      <trkpt lat="47.68797" lon="3.68979">
        <ele>177</ele>
        <time>2019-04-02T12:24:31Z</time>
      </trkpt>
      <trkpt lat="47.68792" lon="3.68981">
        <ele>177</ele>
        <time>2019-04-02T12:24:34Z</time>
      </trkpt>
      <trkpt lat="47.68787" lon="3.68982">
        <ele>178</ele>
        <time>2019-04-02T12:24:37Z</time>
      </trkpt>
      <trkpt lat="47.68783" lon="3.68982">
        <ele>178</ele>
        <time>2019-04-02T12:24:40Z</time>
      </trkpt>
      <trkpt lat="47.68781" lon="3.68982">
        <ele>178</ele>
        <time>2019-04-02T12:24:42Z</time>
      </trkpt>
      <trkpt lat="47.68776" lon="3.68986">
        <ele>178</ele>
        <time>2019-04-02T12:24:46Z</time>
      </trkpt>
      <trkpt lat="47.68773" lon="3.68992">
        <ele>179</ele>
        <time>2019-04-02T12:24:50Z</time>
      </trkpt>
      <trkpt lat="47.68768" lon="3.68995">
        <ele>179</ele>
        <time>2019-04-02T12:24:53Z</time>
      </trkpt>
      <trkpt lat="47.68763" lon="3.68998">
        <ele>180</ele>
        <time>2019-04-02T12:24:57Z</time>
      </trkpt>
      <trkpt lat="47.68759" lon="3.69">
        <ele>180</ele>
        <time>2019-04-02T12:25:00Z</time>
      </trkpt>
      <trkpt lat="47.68755" lon="3.69003">
        <ele>179</ele>
        <time>2019-04-02T12:25:03Z</time>
      </trkpt>
      <trkpt lat="47.68752" lon="3.69005">
        <ele>179</ele>
        <time>2019-04-02T12:25:05Z</time>
      </trkpt>
      <trkpt lat="47.68749" lon="3.69007">
        <ele>179</ele>
        <time>2019-04-02T12:25:07Z</time>
      </trkpt>
      <trkpt lat="47.68744" lon="3.69008">
        <ele>178</ele>
        <time>2019-04-02T12:25:10Z</time>
      </trkpt>
      <trkpt lat="47.68739" lon="3.69011">
        <ele>179</ele>
        <time>2019-04-02T12:25:14Z</time>
      </trkpt>
      <trkpt lat="47.68736" lon="3.69013">
        <ele>179</ele>
        <time>2019-04-02T12:25:16Z</time>
      </trkpt>
      <trkpt lat="47.68731" lon="3.69017">
        <ele>180</ele>
        <time>2019-04-02T12:25:20Z</time>
      </trkpt>
      <trkpt lat="47.68728" lon="3.69019">
        <ele>179</ele>
        <time>2019-04-02T12:25:22Z</time>
      </trkpt>
      <trkpt lat="47.68725" lon="3.69021">
        <ele>178</ele>
        <time>2019-04-02T12:25:25Z</time>
      </trkpt>
      <trkpt lat="47.68722" lon="3.69024">
        <ele>177</ele>
        <time>2019-04-02T12:25:28Z</time>
      </trkpt>
      <trkpt lat="47.6872" lon="3.69025">
        <ele>177</ele>
        <time>2019-04-02T12:25:30Z</time>
      </trkpt>
      <trkpt lat="47.68715" lon="3.69028">
        <ele>177</ele>
        <time>2019-04-02T12:25:33Z</time>
      </trkpt>
      <trkpt lat="47.6871" lon="3.6903">
        <ele>177</ele>
        <time>2019-04-02T12:25:38Z</time>
      </trkpt>
      <trkpt lat="47.68705" lon="3.6903">
        <ele>176</ele>
        <time>2019-04-02T12:25:41Z</time>
      </trkpt>
      <trkpt lat="47.687" lon="3.69032">
        <ele>176</ele>
        <time>2019-04-02T12:25:45Z</time>
      </trkpt>
      <trkpt lat="47.68695" lon="3.69032">
        <ele>175</ele>
        <time>2019-04-02T12:25:48Z</time>
      </trkpt>
      <trkpt lat="47.6869" lon="3.69031">
        <ele>177</ele>
        <time>2019-04-02T12:25:52Z</time>
      </trkpt>
      <trkpt lat="47.68686" lon="3.69031">
        <ele>178</ele>
        <time>2019-04-02T12:25:55Z</time>
      </trkpt>
      <trkpt lat="47.68682" lon="3.6903">
        <ele>178</ele>
        <time>2019-04-02T12:25:58Z</time>
      </trkpt>
      <trkpt lat="47.68677" lon="3.6903">
        <ele>178</ele>
        <time>2019-04-02T12:26:02Z</time>
      </trkpt>
      <trkpt lat="47.68674" lon="3.6903">
        <ele>178</ele>
        <time>2019-04-02T12:26:04Z</time>
      </trkpt>
      <trkpt lat="47.68669" lon="3.6903">
        <ele>177</ele>
        <time>2019-04-02T12:26:08Z</time>
      </trkpt>
      <trkpt lat="47.68665" lon="3.69031">
        <ele>178</ele>
        <time>2019-04-02T12:26:11Z</time>
      </trkpt>
      <trkpt lat="47.68661" lon="3.69031">
        <ele>178</ele>
        <time>2019-04-02T12:26:15Z</time>
      </trkpt>
      <trkpt lat="47.68658" lon="3.69031">
        <ele>180</ele>
        <time>2019-04-02T12:26:17Z</time>
      </trkpt>
      <trkpt lat="47.68653" lon="3.69029">
        <ele>180</ele>
        <time>2019-04-02T12:26:23Z</time>
      </trkpt>
      <trkpt lat="47.6865" lon="3.69028">
        <ele>181</ele>
        <time>2019-04-02T12:26:26Z</time>
      </trkpt>
      <trkpt lat="47.68643" lon="3.69025">
        <ele>179</ele>
        <time>2019-04-02T12:26:32Z</time>
      </trkpt>
      <trkpt lat="47.68637" lon="3.69026">
        <ele>179</ele>
        <time>2019-04-02T12:26:37Z</time>
      </trkpt>
      <trkpt lat="47.68635" lon="3.69027">
        <ele>178</ele>
        <time>2019-04-02T12:26:39Z</time>
      </trkpt>
      <trkpt lat="47.6863" lon="3.69029">
        <ele>177</ele>
        <time>2019-04-02T12:26:43Z</time>
      </trkpt>
      <trkpt lat="47.68624" lon="3.69028">
        <ele>177</ele>
        <time>2019-04-02T12:26:47Z</time>
      </trkpt>
      <trkpt lat="47.68619" lon="3.69027">
        <ele>179</ele>
        <time>2019-04-02T12:26:51Z</time>
      </trkpt>
      <trkpt lat="47.68614" lon="3.69029">
        <ele>180</ele>
        <time>2019-04-02T12:26:55Z</time>
      </trkpt>
      <trkpt lat="47.68606" lon="3.69028">
        <ele>181</ele>
        <time>2019-04-02T12:26:59Z</time>
      </trkpt>
      <trkpt lat="47.68601" lon="3.69029">
        <ele>179</ele>
        <time>2019-04-02T12:27:04Z</time>
      </trkpt>
      <trkpt lat="47.68595" lon="3.69032">
        <ele>180</ele>
        <time>2019-04-02T12:27:09Z</time>
      </trkpt>
      <trkpt lat="47.68593" lon="3.69033">
        <ele>180</ele>
        <time>2019-04-02T12:27:11Z</time>
      </trkpt>
      <trkpt lat="47.68588" lon="3.69036">
        <ele>180</ele>
        <time>2019-04-02T12:27:15Z</time>
      </trkpt>
      <trkpt lat="47.68583" lon="3.69037">
        <ele>179</ele>
        <time>2019-04-02T12:27:19Z</time>
      </trkpt>
      <trkpt lat="47.68579" lon="3.69039">
        <ele>178</ele>
        <time>2019-04-02T12:27:22Z</time>
      </trkpt>
      <trkpt lat="47.68575" lon="3.69042">
        <ele>177</ele>
        <time>2019-04-02T12:27:25Z</time>
      </trkpt>
      <trkpt lat="47.6857" lon="3.69043">
        <ele>178</ele>
        <time>2019-04-02T12:27:28Z</time>
      </trkpt>
      <trkpt lat="47.68563" lon="3.69047">
        <ele>177</ele>
        <time>2019-04-02T12:27:34Z</time>
      </trkpt>
      <trkpt lat="47.6856" lon="3.69048">
        <ele>175</ele>
        <time>2019-04-02T12:27:37Z</time>
      </trkpt>
      <trkpt lat="47.68555" lon="3.69052">
        <ele>174</ele>
        <time>2019-04-02T12:27:41Z</time>
      </trkpt>
      <trkpt lat="47.68552" lon="3.69054">
        <ele>174</ele>
        <time>2019-04-02T12:27:43Z</time>
      </trkpt>
      <trkpt lat="47.68549" lon="3.69055">
        <ele>174</ele>
        <time>2019-04-02T12:27:45Z</time>
      </trkpt>
      <trkpt lat="47.68544" lon="3.6906">
        <ele>173</ele>
        <time>2019-04-02T12:27:49Z</time>
      </trkpt>
      <trkpt lat="47.68539" lon="3.69063">
        <ele>173</ele>
        <time>2019-04-02T12:27:51Z</time>
      </trkpt>
      <trkpt lat="47.68536" lon="3.69065">
        <ele>173</ele>
        <time>2019-04-02T12:27:53Z</time>
      </trkpt>
      <trkpt lat="47.68533" lon="3.69067">
        <ele>173</ele>
        <time>2019-04-02T12:27:56Z</time>
      </trkpt>
      <trkpt lat="47.68531" lon="3.69069">
        <ele>174</ele>
        <time>2019-04-02T12:27:58Z</time>
      </trkpt>
      <trkpt lat="47.68527" lon="3.69071">
        <ele>174</ele>
        <time>2019-04-02T12:28:02Z</time>
      </trkpt>
      <trkpt lat="47.68523" lon="3.69073">
        <ele>173</ele>
        <time>2019-04-02T12:28:05Z</time>
      </trkpt>
      <trkpt lat="47.6852" lon="3.69074">
        <ele>173</ele>
        <time>2019-04-02T12:28:07Z</time>
      </trkpt>
      <trkpt lat="47.68517" lon="3.69076">
        <ele>174</ele>
        <time>2019-04-02T12:28:09Z</time>
      </trkpt>
      <trkpt lat="47.68512" lon="3.6908">
        <ele>175</ele>
        <time>2019-04-02T12:28:13Z</time>
      </trkpt>
      <trkpt lat="47.68509" lon="3.69082">
        <ele>175</ele>
        <time>2019-04-02T12:28:15Z</time>
      </trkpt>
      <trkpt lat="47.68505" lon="3.69085">
        <ele>175</ele>
        <time>2019-04-02T12:28:19Z</time>
      </trkpt>
      <trkpt lat="47.68503" lon="3.69087">
        <ele>176</ele>
        <time>2019-04-02T12:28:22Z</time>
      </trkpt>
      <trkpt lat="47.685" lon="3.69089">
        <ele>176</ele>
        <time>2019-04-02T12:28:24Z</time>
      </trkpt>
      <trkpt lat="47.68497" lon="3.6909">
        <ele>176</ele>
        <time>2019-04-02T12:28:26Z</time>
      </trkpt>
      <trkpt lat="47.68494" lon="3.69092">
        <ele>176</ele>
        <time>2019-04-02T12:28:28Z</time>
      </trkpt>
      <trkpt lat="47.68491" lon="3.69097">
        <ele>177</ele>
        <time>2019-04-02T12:28:32Z</time>
      </trkpt>
      <trkpt lat="47.68487" lon="3.69101">
        <ele>177</ele>
        <time>2019-04-02T12:28:36Z</time>
      </trkpt>
      <trkpt lat="47.68484" lon="3.69103">
        <ele>175</ele>
        <time>2019-04-02T12:28:41Z</time>
      </trkpt>
      <trkpt lat="47.68483" lon="3.69103">
        <ele>174</ele>
        <time>2019-04-02T12:28:49Z</time>
      </trkpt>
      <trkpt lat="47.68478" lon="3.69103">
        <ele>175</ele>
        <time>2019-04-02T12:28:54Z</time>
      </trkpt>
      <trkpt lat="47.68472" lon="3.691">
        <ele>176</ele>
        <time>2019-04-02T12:28:59Z</time>
      </trkpt>
      <trkpt lat="47.68467" lon="3.69103">
        <ele>177</ele>
        <time>2019-04-02T12:29:02Z</time>
      </trkpt>
      <trkpt lat="47.68465" lon="3.69105">
        <ele>177</ele>
        <time>2019-04-02T12:29:09Z</time>
      </trkpt>
      <trkpt lat="47.68466" lon="3.69105">
        <ele>175</ele>
        <time>2019-04-02T12:29:17Z</time>
      </trkpt>
      <trkpt lat="47.68462" lon="3.69084">
        <ele>172</ele>
        <time>2019-04-02T12:36:38Z</time>
      </trkpt>
      <trkpt lat="47.6846" lon="3.69078">
        <ele>172</ele>
        <time>2019-04-02T12:36:44Z</time>
      </trkpt>
      <trkpt lat="47.68457" lon="3.69072">
        <ele>170</ele>
        <time>2019-04-02T12:36:49Z</time>
      </trkpt>
      <trkpt lat="47.68452" lon="3.69068">
        <ele>172</ele>
        <time>2019-04-02T12:36:54Z</time>
      </trkpt>
      <trkpt lat="47.68449" lon="3.69065">
        <ele>173</ele>
        <time>2019-04-02T12:36:58Z</time>
      </trkpt>
      <trkpt lat="47.68444" lon="3.69063">
        <ele>174</ele>
        <time>2019-04-02T12:37:03Z</time>
      </trkpt>
      <trkpt lat="47.68441" lon="3.69065">
        <ele>175</ele>
        <time>2019-04-02T12:37:12Z</time>
      </trkpt>
      <trkpt lat="47.68436" lon="3.69066">
        <ele>175</ele>
        <time>2019-04-02T12:37:16Z</time>
      </trkpt>
      <trkpt lat="47.68431" lon="3.69067">
        <ele>177</ele>
        <time>2019-04-02T12:37:21Z</time>
      </trkpt>
      <trkpt lat="47.68427" lon="3.69072">
        <ele>179</ele>
        <time>2019-04-02T12:37:28Z</time>
      </trkpt>
      <trkpt lat="47.68423" lon="3.69076">
        <ele>181</ele>
        <time>2019-04-02T12:37:37Z</time>
      </trkpt>
      <trkpt lat="47.68418" lon="3.69078">
        <ele>182</ele>
        <time>2019-04-02T12:37:41Z</time>
      </trkpt>
      <trkpt lat="47.68413" lon="3.69083">
        <ele>181</ele>
        <time>2019-04-02T12:37:45Z</time>
      </trkpt>
      <trkpt lat="47.68407" lon="3.69084">
        <ele>178</ele>
        <time>2019-04-02T12:37:59Z</time>
      </trkpt>
      <trkpt lat="47.68403" lon="3.69085">
        <ele>178</ele>
        <time>2019-04-02T12:38:03Z</time>
      </trkpt>
      <trkpt lat="47.68398" lon="3.69088">
        <ele>177</ele>
        <time>2019-04-02T12:38:07Z</time>
      </trkpt>
      <trkpt lat="47.68395" lon="3.6909">
        <ele>176</ele>
        <time>2019-04-02T12:38:10Z</time>
      </trkpt>
      <trkpt lat="47.6839" lon="3.69091">
        <ele>176</ele>
        <time>2019-04-02T12:38:15Z</time>
      </trkpt>
      <trkpt lat="47.68388" lon="3.69092">
        <ele>175</ele>
        <time>2019-04-02T12:38:17Z</time>
      </trkpt>
      <trkpt lat="47.68383" lon="3.69095">
        <ele>172</ele>
        <time>2019-04-02T12:38:24Z</time>
      </trkpt>
      <trkpt lat="47.68378" lon="3.69096">
        <ele>173</ele>
        <time>2019-04-02T12:38:27Z</time>
      </trkpt>
      <trkpt lat="47.68375" lon="3.69097">
        <ele>172</ele>
        <time>2019-04-02T12:38:31Z</time>
      </trkpt>
      <trkpt lat="47.68367" lon="3.69097">
        <ele>171</ele>
        <time>2019-04-02T12:38:39Z</time>
      </trkpt>
      <trkpt lat="47.68361" lon="3.69094">
        <ele>172</ele>
        <time>2019-04-02T12:38:44Z</time>
      </trkpt>
      <trkpt lat="47.68356" lon="3.69094">
        <ele>171</ele>
        <time>2019-04-02T12:38:48Z</time>
      </trkpt>
      <trkpt lat="47.68351" lon="3.69095">
        <ele>171</ele>
        <time>2019-04-02T12:38:52Z</time>
      </trkpt>
      <trkpt lat="47.68346" lon="3.69095">
        <ele>171</ele>
        <time>2019-04-02T12:38:57Z</time>
      </trkpt>
      <trkpt lat="47.68341" lon="3.69092">
        <ele>171</ele>
        <time>2019-04-02T12:39:00Z</time>
      </trkpt>
      <trkpt lat="47.68337" lon="3.6909">
        <ele>170</ele>
        <time>2019-04-02T12:39:03Z</time>
      </trkpt>
      <trkpt lat="47.6833" lon="3.69086">
        <ele>169</ele>
        <time>2019-04-02T12:39:09Z</time>
      </trkpt>
      <trkpt lat="47.68325" lon="3.69085">
        <ele>168</ele>
        <time>2019-04-02T12:39:13Z</time>
      </trkpt>
      <trkpt lat="47.6832" lon="3.69083">
        <ele>168</ele>
        <time>2019-04-02T12:39:16Z</time>
      </trkpt>
      <trkpt lat="47.68314" lon="3.69083">
        <ele>167</ele>
        <time>2019-04-02T12:39:20Z</time>
      </trkpt>
      <trkpt lat="47.68312" lon="3.69082">
        <ele>167</ele>
        <time>2019-04-02T12:39:22Z</time>
      </trkpt>
      <trkpt lat="47.68309" lon="3.69082">
        <ele>167</ele>
        <time>2019-04-02T12:39:26Z</time>
      </trkpt>
      <trkpt lat="47.68304" lon="3.69082">
        <ele>167</ele>
        <time>2019-04-02T12:39:29Z</time>
      </trkpt>
      <trkpt lat="47.683" lon="3.69077">
        <ele>165</ele>
        <time>2019-04-02T12:39:34Z</time>
      </trkpt>
      <trkpt lat="47.68293" lon="3.69072">
        <ele>168</ele>
        <time>2019-04-02T12:39:43Z</time>
      </trkpt>
      <trkpt lat="47.68288" lon="3.6907">
        <ele>169</ele>
        <time>2019-04-02T12:39:48Z</time>
      </trkpt>
      <trkpt lat="47.68286" lon="3.6907">
        <ele>168</ele>
        <time>2019-04-02T12:39:51Z</time>
      </trkpt>
      <trkpt lat="47.68282" lon="3.69068">
        <ele>167</ele>
        <time>2019-04-02T12:39:55Z</time>
      </trkpt>
      <trkpt lat="47.6828" lon="3.69071">
        <ele>163</ele>
        <time>2019-04-02T12:40:03Z</time>
      </trkpt>
      <trkpt lat="47.68284" lon="3.69056">
        <ele>172</ele>
        <time>2019-04-02T12:42:26Z</time>
      </trkpt>
      <trkpt lat="47.68282" lon="3.69049">
        <ele>170</ele>
        <time>2019-04-02T12:42:30Z</time>
      </trkpt>
      <trkpt lat="47.6828" lon="3.69041">
        <ele>170</ele>
        <time>2019-04-02T12:42:36Z</time>
      </trkpt>
      <trkpt lat="47.68278" lon="3.69034">
        <ele>169</ele>
        <time>2019-04-02T12:42:42Z</time>
      </trkpt>
      <trkpt lat="47.68276" lon="3.69027">
        <ele>169</ele>
        <time>2019-04-02T12:42:45Z</time>
      </trkpt>
      <trkpt lat="47.68274" lon="3.6902">
        <ele>169</ele>
        <time>2019-04-02T12:42:49Z</time>
      </trkpt>
      <trkpt lat="47.68273" lon="3.69015">
        <ele>168</ele>
        <time>2019-04-02T12:42:53Z</time>
      </trkpt>
      <trkpt lat="47.68272" lon="3.69008">
        <ele>167</ele>
        <time>2019-04-02T12:42:57Z</time>
      </trkpt>
      <trkpt lat="47.6827" lon="3.69001">
        <ele>165</ele>
        <time>2019-04-02T12:43:02Z</time>
      </trkpt>
      <trkpt lat="47.68269" lon="3.68997">
        <ele>165</ele>
        <time>2019-04-02T12:43:05Z</time>
      </trkpt>
      <trkpt lat="47.68269" lon="3.6899">
        <ele>166</ele>
        <time>2019-04-02T12:43:10Z</time>
      </trkpt>
      <trkpt lat="47.68269" lon="3.68982">
        <ele>164</ele>
        <time>2019-04-02T12:43:14Z</time>
      </trkpt>
      <trkpt lat="47.68267" lon="3.68974">
        <ele>161</ele>
        <time>2019-04-02T12:43:18Z</time>
      </trkpt>
      <trkpt lat="47.68267" lon="3.68966">
        <ele>161</ele>
        <time>2019-04-02T12:43:24Z</time>
      </trkpt>
      <trkpt lat="47.68267" lon="3.68962">
        <ele>162</ele>
        <time>2019-04-02T12:43:27Z</time>
      </trkpt>
      <trkpt lat="47.68262" lon="3.68959">
        <ele>160</ele>
        <time>2019-04-02T12:43:33Z</time>
      </trkpt>
      <trkpt lat="47.68256" lon="3.6896">
        <ele>159</ele>
        <time>2019-04-02T12:43:38Z</time>
      </trkpt>
      <trkpt lat="47.6825" lon="3.68958">
        <ele>161</ele>
        <time>2019-04-02T12:43:42Z</time>
      </trkpt>
      <trkpt lat="47.68248" lon="3.68956">
        <ele>161</ele>
        <time>2019-04-02T12:43:44Z</time>
      </trkpt>
      <trkpt lat="47.68243" lon="3.68956">
        <ele>162</ele>
        <time>2019-04-02T12:43:48Z</time>
      </trkpt>
      <trkpt lat="47.6824" lon="3.68955">
        <ele>162</ele>
        <time>2019-04-02T12:43:50Z</time>
      </trkpt>
      <trkpt lat="47.68234" lon="3.68955">
        <ele>164</ele>
        <time>2019-04-02T12:43:55Z</time>
      </trkpt>
      <trkpt lat="47.68227" lon="3.68952">
        <ele>166</ele>
        <time>2019-04-02T12:44:02Z</time>
      </trkpt>
      <trkpt lat="47.68222" lon="3.68951">
        <ele>167</ele>
        <time>2019-04-02T12:44:05Z</time>
      </trkpt>
      <trkpt lat="47.68218" lon="3.68948">
        <ele>169</ele>
        <time>2019-04-02T12:44:10Z</time>
      </trkpt>
      <trkpt lat="47.68212" lon="3.68948">
        <ele>171</ele>
        <time>2019-04-02T12:44:15Z</time>
      </trkpt>
      <trkpt lat="47.68208" lon="3.68951">
        <ele>171</ele>
        <time>2019-04-02T12:44:22Z</time>
      </trkpt>
      <trkpt lat="47.68203" lon="3.68951">
        <ele>173</ele>
        <time>2019-04-02T12:44:26Z</time>
      </trkpt>
      <trkpt lat="47.68197" lon="3.68952">
        <ele>172</ele>
        <time>2019-04-02T12:44:28Z</time>
      </trkpt>
      <trkpt lat="47.68191" lon="3.68954">
        <ele>171</ele>
        <time>2019-04-02T12:44:32Z</time>
      </trkpt>
      <trkpt lat="47.68183" lon="3.68954">
        <ele>171</ele>
        <time>2019-04-02T12:44:38Z</time>
      </trkpt>
      <trkpt lat="47.68179" lon="3.68951">
        <ele>172</ele>
        <time>2019-04-02T12:44:42Z</time>
      </trkpt>
      <trkpt lat="47.68173" lon="3.68951">
        <ele>171</ele>
        <time>2019-04-02T12:44:47Z</time>
      </trkpt>
      <trkpt lat="47.68169" lon="3.68948">
        <ele>169</ele>
        <time>2019-04-02T12:44:54Z</time>
      </trkpt>
      <trkpt lat="47.68163" lon="3.68948">
        <ele>165</ele>
        <time>2019-04-02T12:45:02Z</time>
      </trkpt>
      <trkpt lat="47.68158" lon="3.68945">
        <ele>163</ele>
        <time>2019-04-02T12:45:06Z</time>
      </trkpt>
      <trkpt lat="47.68155" lon="3.68943">
        <ele>162</ele>
        <time>2019-04-02T12:45:08Z</time>
      </trkpt>
      <trkpt lat="47.6815" lon="3.68942">
        <ele>161</ele>
        <time>2019-04-02T12:45:14Z</time>
      </trkpt>
      <trkpt lat="47.68146" lon="3.68941">
        <ele>160</ele>
        <time>2019-04-02T12:45:17Z</time>
      </trkpt>
      <trkpt lat="47.68141" lon="3.68943">
        <ele>158</ele>
        <time>2019-04-02T12:45:20Z</time>
      </trkpt>
      <trkpt lat="47.68137" lon="3.68947">
        <ele>157</ele>
        <time>2019-04-02T12:45:23Z</time>
      </trkpt>
      <trkpt lat="47.68133" lon="3.68949">
        <ele>156</ele>
        <time>2019-04-02T12:45:26Z</time>
      </trkpt>
      <trkpt lat="47.6813" lon="3.68951">
        <ele>158</ele>
        <time>2019-04-02T12:45:29Z</time>
      </trkpt>
      <trkpt lat="47.68126" lon="3.68956">
        <ele>160</ele>
        <time>2019-04-02T12:45:33Z</time>
      </trkpt>
      <trkpt lat="47.68123" lon="3.68961">
        <ele>160</ele>
        <time>2019-04-02T12:45:37Z</time>
      </trkpt>
      <trkpt lat="47.6812" lon="3.68967">
        <ele>162</ele>
        <time>2019-04-02T12:45:40Z</time>
      </trkpt>
      <trkpt lat="47.68116" lon="3.68976">
        <ele>163</ele>
        <time>2019-04-02T12:45:46Z</time>
      </trkpt>
      <trkpt lat="47.68113" lon="3.68984">
        <ele>164</ele>
        <time>2019-04-02T12:45:50Z</time>
      </trkpt>
      <trkpt lat="47.68111" lon="3.68991">
        <ele>163</ele>
        <time>2019-04-02T12:45:54Z</time>
      </trkpt>
      <trkpt lat="47.68107" lon="3.68996">
        <ele>163</ele>
        <time>2019-04-02T12:45:59Z</time>
      </trkpt>
      <trkpt lat="47.68104" lon="3.68999">
        <ele>163</ele>
        <time>2019-04-02T12:46:02Z</time>
      </trkpt>
      <trkpt lat="47.68102" lon="3.69005">
        <ele>162</ele>
        <time>2019-04-02T12:46:06Z</time>
      </trkpt>
      <trkpt lat="47.68102" lon="3.69012">
        <ele>156</ele>
        <time>2019-04-02T12:46:12Z</time>
      </trkpt>
      <trkpt lat="47.68101" lon="3.6902">
        <ele>157</ele>
        <time>2019-04-02T12:46:18Z</time>
      </trkpt>
      <trkpt lat="47.68101" lon="3.69024">
        <ele>157</ele>
        <time>2019-04-02T12:46:20Z</time>
      </trkpt>
      <trkpt lat="47.68099" lon="3.69031">
        <ele>157</ele>
        <time>2019-04-02T12:46:26Z</time>
      </trkpt>
      <trkpt lat="47.68096" lon="3.69038">
        <ele>156</ele>
        <time>2019-04-02T12:46:31Z</time>
      </trkpt>
      <trkpt lat="47.68094" lon="3.69041">
        <ele>157</ele>
        <time>2019-04-02T12:46:33Z</time>
      </trkpt>
      <trkpt lat="47.68092" lon="3.69044">
        <ele>156</ele>
        <time>2019-04-02T12:46:36Z</time>
      </trkpt>
      <trkpt lat="47.6809" lon="3.69051">
        <ele>156</ele>
        <time>2019-04-02T12:46:41Z</time>
      </trkpt>
      <trkpt lat="47.68088" lon="3.69054">
        <ele>156</ele>
        <time>2019-04-02T12:46:43Z</time>
      </trkpt>
      <trkpt lat="47.68087" lon="3.69059">
        <ele>157</ele>
        <time>2019-04-02T12:46:46Z</time>
      </trkpt>
      <trkpt lat="47.68084" lon="3.69064">
        <ele>157</ele>
        <time>2019-04-02T12:46:50Z</time>
      </trkpt>
      <trkpt lat="47.68082" lon="3.69067">
        <ele>157</ele>
        <time>2019-04-02T12:46:52Z</time>
      </trkpt>
      <trkpt lat="47.68078" lon="3.69071">
        <ele>157</ele>
        <time>2019-04-02T12:46:58Z</time>
      </trkpt>
      <trkpt lat="47.68078" lon="3.69071">
        <ele>157</ele>
        <time>2019-04-02T12:47:07Z</time>
      </trkpt>
      <trkpt lat="47.68076" lon="3.69079">
        <ele>159</ele>
        <time>2019-04-02T12:48:38Z</time>
      </trkpt>
      <trkpt lat="47.68075" lon="3.69087">
        <ele>158</ele>
        <time>2019-04-02T12:48:43Z</time>
      </trkpt>
      <trkpt lat="47.68074" lon="3.69091">
        <ele>158</ele>
        <time>2019-04-02T12:48:45Z</time>
      </trkpt>
      <trkpt lat="47.68076" lon="3.691">
        <ele>158</ele>
        <time>2019-04-02T12:48:51Z</time>
      </trkpt>
      <trkpt lat="47.68077" lon="3.69109">
        <ele>160</ele>
        <time>2019-04-02T12:48:56Z</time>
      </trkpt>
      <trkpt lat="47.68076" lon="3.69116">
        <ele>160</ele>
        <time>2019-04-02T12:49:01Z</time>
      </trkpt>
      <trkpt lat="47.68071" lon="3.69122">
        <ele>160</ele>
        <time>2019-04-02T12:49:06Z</time>
      </trkpt>
      <trkpt lat="47.68066" lon="3.69124">
        <ele>162</ele>
        <time>2019-04-02T12:49:11Z</time>
      </trkpt>
      <trkpt lat="47.68061" lon="3.69125">
        <ele>162</ele>
        <time>2019-04-02T12:49:15Z</time>
      </trkpt>
      <trkpt lat="47.68057" lon="3.6913">
        <ele>162</ele>
        <time>2019-04-02T12:49:20Z</time>
      </trkpt>
      <trkpt lat="47.68055" lon="3.69132">
        <ele>162</ele>
        <time>2019-04-02T12:49:22Z</time>
      </trkpt>
      <trkpt lat="47.68051" lon="3.69138">
        <ele>162</ele>
        <time>2019-04-02T12:49:25Z</time>
      </trkpt>
      <trkpt lat="47.68049" lon="3.69143">
        <ele>162</ele>
        <time>2019-04-02T12:49:28Z</time>
      </trkpt>
      <trkpt lat="47.68044" lon="3.6915">
        <ele>160</ele>
        <time>2019-04-02T12:49:33Z</time>
      </trkpt>
      <trkpt lat="47.68041" lon="3.69157">
        <ele>159</ele>
        <time>2019-04-02T12:49:37Z</time>
      </trkpt>
      <trkpt lat="47.68037" lon="3.69163">
        <ele>160</ele>
        <time>2019-04-02T12:49:40Z</time>
      </trkpt>
      <trkpt lat="47.68034" lon="3.69167">
        <ele>160</ele>
        <time>2019-04-02T12:49:43Z</time>
      </trkpt>
      <trkpt lat="47.68031" lon="3.69171">
        <ele>160</ele>
        <time>2019-04-02T12:49:47Z</time>
      </trkpt>
      <trkpt lat="47.68028" lon="3.69175">
        <ele>160</ele>
        <time>2019-04-02T12:49:50Z</time>
      </trkpt>
      <trkpt lat="47.68025" lon="3.6918">
        <ele>161</ele>
        <time>2019-04-02T12:49:53Z</time>
      </trkpt>
      <trkpt lat="47.68021" lon="3.69186">
        <ele>161</ele>
        <time>2019-04-02T12:49:59Z</time>
      </trkpt>
      <trkpt lat="47.68016" lon="3.6919">
        <ele>161</ele>
        <time>2019-04-02T12:50:03Z</time>
      </trkpt>
      <trkpt lat="47.68013" lon="3.69195">
        <ele>161</ele>
        <time>2019-04-02T12:50:07Z</time>
      </trkpt>
      <trkpt lat="47.68011" lon="3.69198">
        <ele>161</ele>
        <time>2019-04-02T12:50:09Z</time>
      </trkpt>
      <trkpt lat="47.6801" lon="3.69202">
        <ele>160</ele>
        <time>2019-04-02T12:50:11Z</time>
      </trkpt>
      <trkpt lat="47.68008" lon="3.6921">
        <ele>162</ele>
        <time>2019-04-02T12:50:15Z</time>
      </trkpt>
      <trkpt lat="47.68006" lon="3.69216">
        <ele>162</ele>
        <time>2019-04-02T12:50:19Z</time>
      </trkpt>
      <trkpt lat="47.68004" lon="3.69219">
        <ele>162</ele>
        <time>2019-04-02T12:50:21Z</time>
      </trkpt>
      <trkpt lat="47.68003" lon="3.69224">
        <ele>164</ele>
        <time>2019-04-02T12:50:25Z</time>
      </trkpt>
      <trkpt lat="47.68002" lon="3.69226">
        <ele>163</ele>
        <time>2019-04-02T12:50:28Z</time>
      </trkpt>
      <trkpt lat="47.67997" lon="3.69234">
        <ele>164</ele>
        <time>2019-04-02T12:50:33Z</time>
      </trkpt>
      <trkpt lat="47.67996" lon="3.69238">
        <ele>165</ele>
        <time>2019-04-02T12:50:35Z</time>
      </trkpt>
      <trkpt lat="47.67993" lon="3.69244">
        <ele>166</ele>
        <time>2019-04-02T12:50:39Z</time>
      </trkpt>
      <trkpt lat="47.67991" lon="3.6925">
        <ele>167</ele>
        <time>2019-04-02T12:50:42Z</time>
      </trkpt>
      <trkpt lat="47.6799" lon="3.69257">
        <ele>169</ele>
        <time>2019-04-02T12:50:49Z</time>
      </trkpt>
      <trkpt lat="47.67987" lon="3.69263">
        <ele>171</ele>
        <time>2019-04-02T12:50:53Z</time>
      </trkpt>
      <trkpt lat="47.67982" lon="3.69268">
        <ele>171</ele>
        <time>2019-04-02T12:50:59Z</time>
      </trkpt>
      <trkpt lat="47.67976" lon="3.69272">
        <ele>173</ele>
        <time>2019-04-02T12:51:05Z</time>
      </trkpt>
      <trkpt lat="47.67972" lon="3.69275">
        <ele>174</ele>
        <time>2019-04-02T12:51:08Z</time>
      </trkpt>
      <trkpt lat="47.67967" lon="3.69277">
        <ele>175</ele>
        <time>2019-04-02T12:51:13Z</time>
      </trkpt>
      <trkpt lat="47.67962" lon="3.69281">
        <ele>174</ele>
        <time>2019-04-02T12:51:17Z</time>
      </trkpt>
      <trkpt lat="47.67959" lon="3.69284">
        <ele>174</ele>
        <time>2019-04-02T12:51:20Z</time>
      </trkpt>
      <trkpt lat="47.67954" lon="3.69286">
        <ele>173</ele>
        <time>2019-04-02T12:51:22Z</time>
      </trkpt>
      <trkpt lat="47.67951" lon="3.69287">
        <ele>174</ele>
        <time>2019-04-02T12:51:25Z</time>
      </trkpt>
      <trkpt lat="47.67949" lon="3.69289">
        <ele>174</ele>
        <time>2019-04-02T12:51:28Z</time>
      </trkpt>
      <trkpt lat="47.67943" lon="3.69291">
        <ele>174</ele>
        <time>2019-04-02T12:51:32Z</time>
      </trkpt>
      <trkpt lat="47.6794" lon="3.69297">
        <ele>173</ele>
        <time>2019-04-02T12:51:38Z</time>
      </trkpt>
      <trkpt lat="47.67934" lon="3.69298">
        <ele>173</ele>
        <time>2019-04-02T12:51:42Z</time>
      </trkpt>
      <trkpt lat="47.67928" lon="3.69298">
        <ele>172</ele>
        <time>2019-04-02T12:51:46Z</time>
      </trkpt>
      <trkpt lat="47.67925" lon="3.69298">
        <ele>173</ele>
        <time>2019-04-02T12:51:48Z</time>
      </trkpt>
      <trkpt lat="47.67923" lon="3.69298">
        <ele>173</ele>
        <time>2019-04-02T12:51:50Z</time>
      </trkpt>
      <trkpt lat="47.67918" lon="3.693">
        <ele>174</ele>
        <time>2019-04-02T12:51:53Z</time>
      </trkpt>
      <trkpt lat="47.67915" lon="3.69301">
        <ele>175</ele>
        <time>2019-04-02T12:51:56Z</time>
      </trkpt>
      <trkpt lat="47.67912" lon="3.69303">
        <ele>175</ele>
        <time>2019-04-02T12:51:59Z</time>
      </trkpt>
      <trkpt lat="47.67907" lon="3.69304">
        <ele>176</ele>
        <time>2019-04-02T12:52:03Z</time>
      </trkpt>
      <trkpt lat="47.67904" lon="3.69306">
        <ele>175</ele>
        <time>2019-04-02T12:52:07Z</time>
      </trkpt>
      <trkpt lat="47.67899" lon="3.6931">
        <ele>176</ele>
        <time>2019-04-02T12:52:12Z</time>
      </trkpt>
      <trkpt lat="47.67894" lon="3.69314">
        <ele>177</ele>
        <time>2019-04-02T12:52:16Z</time>
      </trkpt>
      <trkpt lat="47.67891" lon="3.6932">
        <ele>178</ele>
        <time>2019-04-02T12:52:19Z</time>
      </trkpt>
      <trkpt lat="47.6789" lon="3.69326">
        <ele>178</ele>
        <time>2019-04-02T12:52:23Z</time>
      </trkpt>
      <trkpt lat="47.67888" lon="3.69333">
        <ele>178</ele>
        <time>2019-04-02T12:52:26Z</time>
      </trkpt>
      <trkpt lat="47.67887" lon="3.69336">
        <ele>178</ele>
        <time>2019-04-02T12:52:28Z</time>
      </trkpt>
      <trkpt lat="47.67886" lon="3.69341">
        <ele>178</ele>
        <time>2019-04-02T12:52:31Z</time>
      </trkpt>
      <trkpt lat="47.67884" lon="3.69349">
        <ele>179</ele>
        <time>2019-04-02T12:52:35Z</time>
      </trkpt>
      <trkpt lat="47.67881" lon="3.69356">
        <ele>179</ele>
        <time>2019-04-02T12:52:40Z</time>
      </trkpt>
      <trkpt lat="47.67878" lon="3.69362">
        <ele>180</ele>
        <time>2019-04-02T12:52:44Z</time>
      </trkpt>
      <trkpt lat="47.67874" lon="3.69367">
        <ele>182</ele>
        <time>2019-04-02T12:52:50Z</time>
      </trkpt>
      <trkpt lat="47.67871" lon="3.69373">
        <ele>183</ele>
        <time>2019-04-02T12:52:58Z</time>
      </trkpt>
      <trkpt lat="47.67868" lon="3.69378">
        <ele>185</ele>
        <time>2019-04-02T12:53:03Z</time>
      </trkpt>
      <trkpt lat="47.67866" lon="3.69382">
        <ele>187</ele>
        <time>2019-04-02T12:53:07Z</time>
      </trkpt>
      <trkpt lat="47.67865" lon="3.69385">
        <ele>187</ele>
        <time>2019-04-02T12:53:09Z</time>
      </trkpt>
      <trkpt lat="47.67861" lon="3.69389">
        <ele>189</ele>
        <time>2019-04-02T12:53:13Z</time>
      </trkpt>
      <trkpt lat="47.67859" lon="3.69392">
        <ele>189</ele>
        <time>2019-04-02T12:53:15Z</time>
      </trkpt>
      <trkpt lat="47.67857" lon="3.69395">
        <ele>189</ele>
        <time>2019-04-02T12:53:18Z</time>
      </trkpt>
      <trkpt lat="47.67853" lon="3.694">
        <ele>190</ele>
        <time>2019-04-02T12:53:23Z</time>
      </trkpt>
      <trkpt lat="47.67851" lon="3.69403">
        <ele>189</ele>
        <time>2019-04-02T12:53:26Z</time>
      </trkpt>
      <trkpt lat="47.67848" lon="3.69411">
        <ele>191</ele>
        <time>2019-04-02T12:53:31Z</time>
      </trkpt>
      <trkpt lat="47.67845" lon="3.69417">
        <ele>191</ele>
        <time>2019-04-02T12:53:35Z</time>
      </trkpt>
      <trkpt lat="47.67841" lon="3.69426">
        <ele>194</ele>
        <time>2019-04-02T12:53:40Z</time>
      </trkpt>
      <trkpt lat="47.67837" lon="3.6943">
        <ele>193</ele>
        <time>2019-04-02T12:53:44Z</time>
      </trkpt>
      <trkpt lat="47.67835" lon="3.69437">
        <ele>196</ele>
        <time>2019-04-02T12:53:50Z</time>
      </trkpt>
      <trkpt lat="47.67834" lon="3.69444">
        <ele>197</ele>
        <time>2019-04-02T12:53:54Z</time>
      </trkpt>
      <trkpt lat="47.67833" lon="3.69448">
        <ele>196</ele>
        <time>2019-04-02T12:53:56Z</time>
      </trkpt>
      <trkpt lat="47.67831" lon="3.69455">
        <ele>198</ele>
        <time>2019-04-02T12:54:01Z</time>
      </trkpt>
      <trkpt lat="47.67829" lon="3.69463">
        <ele>200</ele>
        <time>2019-04-02T12:54:05Z</time>
      </trkpt>
      <trkpt lat="47.67829" lon="3.69467">
        <ele>201</ele>
        <time>2019-04-02T12:54:07Z</time>
      </trkpt>
      <trkpt lat="47.67828" lon="3.69472">
        <ele>201</ele>
        <time>2019-04-02T12:54:12Z</time>
      </trkpt>
      <trkpt lat="47.67827" lon="3.69478">
        <ele>201</ele>
        <time>2019-04-02T12:54:16Z</time>
      </trkpt>
      <trkpt lat="47.67823" lon="3.69486">
        <ele>202</ele>
        <time>2019-04-02T12:54:22Z</time>
      </trkpt>
      <trkpt lat="47.67822" lon="3.69493">
        <ele>202</ele>
        <time>2019-04-02T12:54:28Z</time>
      </trkpt>
      <trkpt lat="47.67821" lon="3.69497">
        <ele>202</ele>
        <time>2019-04-02T12:54:31Z</time>
      </trkpt>
      <trkpt lat="47.67821" lon="3.69501">
        <ele>202</ele>
        <time>2019-04-02T12:54:33Z</time>
      </trkpt>
      <trkpt lat="47.6782" lon="3.69507">
        <ele>201</ele>
        <time>2019-04-02T12:54:36Z</time>
      </trkpt>
      <trkpt lat="47.67819" lon="3.69511">
        <ele>201</ele>
        <time>2019-04-02T12:54:38Z</time>
      </trkpt>
      <trkpt lat="47.67817" lon="3.69517">
        <ele>202</ele>
        <time>2019-04-02T12:54:42Z</time>
      </trkpt>
      <trkpt lat="47.67815" lon="3.69523">
        <ele>201</ele>
        <time>2019-04-02T12:54:46Z</time>
      </trkpt>
      <trkpt lat="47.67814" lon="3.69526">
        <ele>200</ele>
        <time>2019-04-02T12:54:48Z</time>
      </trkpt>
      <trkpt lat="47.67813" lon="3.69534">
        <ele>201</ele>
        <time>2019-04-02T12:54:53Z</time>
      </trkpt>
      <trkpt lat="47.67811" lon="3.69543">
        <ele>204</ele>
        <time>2019-04-02T12:55:01Z</time>
      </trkpt>
      <trkpt lat="47.67809" lon="3.69551">
        <ele>208</ele>
        <time>2019-04-02T12:55:07Z</time>
      </trkpt>
      <trkpt lat="47.67808" lon="3.69555">
        <ele>209</ele>
        <time>2019-04-02T12:55:11Z</time>
      </trkpt>
      <trkpt lat="47.67805" lon="3.69564">
        <ele>211</ele>
        <time>2019-04-02T12:55:16Z</time>
      </trkpt>
      <trkpt lat="47.67803" lon="3.69571">
        <ele>212</ele>
        <time>2019-04-02T12:55:21Z</time>
      </trkpt>
      <trkpt lat="47.67802" lon="3.69579">
        <ele>214</ele>
        <time>2019-04-02T12:55:28Z</time>
      </trkpt>
      <trkpt lat="47.67803" lon="3.69587">
        <ele>216</ele>
        <time>2019-04-02T12:55:34Z</time>
      </trkpt>
      <trkpt lat="47.67801" lon="3.69593">
        <ele>217</ele>
        <time>2019-04-02T12:55:38Z</time>
      </trkpt>
      <trkpt lat="47.678" lon="3.69597">
        <ele>218</ele>
        <time>2019-04-02T12:55:40Z</time>
      </trkpt>
      <trkpt lat="47.67799" lon="3.69602">
        <ele>219</ele>
        <time>2019-04-02T12:55:43Z</time>
      </trkpt>
      <trkpt lat="47.67797" lon="3.69609">
        <ele>220</ele>
        <time>2019-04-02T12:55:49Z</time>
      </trkpt>
      <trkpt lat="47.67796" lon="3.69615">
        <ele>221</ele>
        <time>2019-04-02T12:55:53Z</time>
      </trkpt>
      <trkpt lat="47.67794" lon="3.69621">
        <ele>222</ele>
        <time>2019-04-02T12:55:57Z</time>
      </trkpt>
      <trkpt lat="47.67793" lon="3.69627">
        <ele>222</ele>
        <time>2019-04-02T12:55:59Z</time>
      </trkpt>
      <trkpt lat="47.67791" lon="3.69634">
        <ele>223</ele>
        <time>2019-04-02T12:56:06Z</time>
      </trkpt>
      <trkpt lat="47.67787" lon="3.69638">
        <ele>224</ele>
        <time>2019-04-02T12:56:11Z</time>
      </trkpt>
      <trkpt lat="47.67782" lon="3.6964">
        <ele>226</ele>
        <time>2019-04-02T12:56:20Z</time>
      </trkpt>
      <trkpt lat="47.67778" lon="3.69644">
        <ele>228</ele>
        <time>2019-04-02T12:56:26Z</time>
      </trkpt>
      <trkpt lat="47.67772" lon="3.69647">
        <ele>230</ele>
        <time>2019-04-02T12:56:34Z</time>
      </trkpt>
      <trkpt lat="47.67766" lon="3.69648">
        <ele>230</ele>
        <time>2019-04-02T12:56:40Z</time>
      </trkpt>
      <trkpt lat="47.67763" lon="3.69649">
        <ele>232</ele>
        <time>2019-04-02T12:56:44Z</time>
      </trkpt>
      <trkpt lat="47.67757" lon="3.69651">
        <ele>234</ele>
        <time>2019-04-02T12:56:52Z</time>
      </trkpt>
      <trkpt lat="47.67753" lon="3.69649">
        <ele>233</ele>
        <time>2019-04-02T12:56:56Z</time>
      </trkpt>
      <trkpt lat="47.67747" lon="3.69648">
        <ele>232</ele>
        <time>2019-04-02T12:57:01Z</time>
      </trkpt>
      <trkpt lat="47.67742" lon="3.69648">
        <ele>231</ele>
        <time>2019-04-02T12:57:05Z</time>
      </trkpt>
      <trkpt lat="47.67738" lon="3.69653">
        <ele>234</ele>
        <time>2019-04-02T12:57:13Z</time>
      </trkpt>
      <trkpt lat="47.67733" lon="3.69655">
        <ele>235</ele>
        <time>2019-04-02T12:57:18Z</time>
      </trkpt>
      <trkpt lat="47.67728" lon="3.69658">
        <ele>236</ele>
        <time>2019-04-02T12:57:21Z</time>
      </trkpt>
      <trkpt lat="47.67722" lon="3.69658">
        <ele>236</ele>
        <time>2019-04-02T12:57:24Z</time>
      </trkpt>
      <trkpt lat="47.67716" lon="3.69661">
        <ele>238</ele>
        <time>2019-04-02T12:57:30Z</time>
      </trkpt>
      <trkpt lat="47.67712" lon="3.69665">
        <ele>240</ele>
        <time>2019-04-02T12:57:37Z</time>
      </trkpt>
      <trkpt lat="47.67706" lon="3.69665">
        <ele>241</ele>
        <time>2019-04-02T12:57:41Z</time>
      </trkpt>
      <trkpt lat="47.67703" lon="3.69665">
        <ele>241</ele>
        <time>2019-04-02T12:57:43Z</time>
      </trkpt>
      <trkpt lat="47.67697" lon="3.69669">
        <ele>243</ele>
        <time>2019-04-02T12:57:48Z</time>
      </trkpt>
      <trkpt lat="47.67693" lon="3.6967">
        <ele>241</ele>
        <time>2019-04-02T12:57:51Z</time>
      </trkpt>
      <trkpt lat="47.67687" lon="3.69675">
        <ele>242</ele>
        <time>2019-04-02T12:57:56Z</time>
      </trkpt>
      <trkpt lat="47.67684" lon="3.69677">
        <ele>242</ele>
        <time>2019-04-02T12:57:58Z</time>
      </trkpt>
      <trkpt lat="47.67681" lon="3.69684">
        <ele>243</ele>
        <time>2019-04-02T12:58:02Z</time>
      </trkpt>
      <trkpt lat="47.6768" lon="3.69687">
        <ele>244</ele>
        <time>2019-04-02T12:58:04Z</time>
      </trkpt>
      <trkpt lat="47.67675" lon="3.69692">
        <ele>246</ele>
        <time>2019-04-02T12:58:09Z</time>
      </trkpt>
      <trkpt lat="47.67671" lon="3.69696">
        <ele>245</ele>
        <time>2019-04-02T12:58:14Z</time>
      </trkpt>
      <trkpt lat="47.67664" lon="3.69697">
        <ele>244</ele>
        <time>2019-04-02T12:58:20Z</time>
      </trkpt>
      <trkpt lat="47.67661" lon="3.69698">
        <ele>245</ele>
        <time>2019-04-02T12:58:22Z</time>
      </trkpt>
      <trkpt lat="47.67656" lon="3.69697">
        <ele>244</ele>
        <time>2019-04-02T12:58:26Z</time>
      </trkpt>
      <trkpt lat="47.67651" lon="3.69698">
        <ele>244</ele>
        <time>2019-04-02T12:58:31Z</time>
      </trkpt>
      <trkpt lat="47.67648" lon="3.69698">
        <ele>244</ele>
        <time>2019-04-02T12:58:34Z</time>
      </trkpt>
      <trkpt lat="47.67645" lon="3.69698">
        <ele>245</ele>
        <time>2019-04-02T12:58:37Z</time>
      </trkpt>
      <trkpt lat="47.67641" lon="3.69698">
        <ele>244</ele>
        <time>2019-04-02T12:58:42Z</time>
      </trkpt>
      <trkpt lat="47.67636" lon="3.69697">
        <ele>245</ele>
        <time>2019-04-02T12:58:47Z</time>
      </trkpt>
      <trkpt lat="47.67633" lon="3.69696">
        <ele>244</ele>
        <time>2019-04-02T12:58:49Z</time>
      </trkpt>
      <trkpt lat="47.67629" lon="3.69696">
        <ele>244</ele>
        <time>2019-04-02T12:58:52Z</time>
      </trkpt>
      <trkpt lat="47.67621" lon="3.697">
        <ele>243</ele>
        <time>2019-04-02T12:58:56Z</time>
      </trkpt>
      <trkpt lat="47.67617" lon="3.69702">
        <ele>241</ele>
        <time>2019-04-02T12:58:58Z</time>
      </trkpt>
      <trkpt lat="47.67613" lon="3.69705">
        <ele>241</ele>
        <time>2019-04-02T12:59:01Z</time>
      </trkpt>
      <trkpt lat="47.6761" lon="3.69707">
        <ele>242</ele>
        <time>2019-04-02T12:59:03Z</time>
      </trkpt>
      <trkpt lat="47.67607" lon="3.69713">
        <ele>242</ele>
        <time>2019-04-02T12:59:06Z</time>
      </trkpt>
      <trkpt lat="47.67604" lon="3.6972">
        <ele>243</ele>
        <time>2019-04-02T12:59:09Z</time>
      </trkpt>
      <trkpt lat="47.67603" lon="3.69724">
        <ele>241</ele>
        <time>2019-04-02T12:59:11Z</time>
      </trkpt>
      <trkpt lat="47.67603" lon="3.69731">
        <ele>240</ele>
        <time>2019-04-02T12:59:14Z</time>
      </trkpt>
      <trkpt lat="47.67604" lon="3.69739">
        <ele>240</ele>
        <time>2019-04-02T12:59:17Z</time>
      </trkpt>
      <trkpt lat="47.67604" lon="3.69747">
        <ele>240</ele>
        <time>2019-04-02T12:59:22Z</time>
      </trkpt>
      <trkpt lat="47.67605" lon="3.69754">
        <ele>242</ele>
        <time>2019-04-02T12:59:25Z</time>
      </trkpt>
      <trkpt lat="47.67607" lon="3.69761">
        <ele>242</ele>
        <time>2019-04-02T12:59:30Z</time>
      </trkpt>
      <trkpt lat="47.67608" lon="3.69765">
        <ele>242</ele>
        <time>2019-04-02T12:59:33Z</time>
      </trkpt>
      <trkpt lat="47.6761" lon="3.69776">
        <ele>242</ele>
        <time>2019-04-02T12:59:38Z</time>
      </trkpt>
      <trkpt lat="47.6761" lon="3.69779">
        <ele>242</ele>
        <time>2019-04-02T12:59:40Z</time>
      </trkpt>
      <trkpt lat="47.67611" lon="3.69786">
        <ele>242</ele>
        <time>2019-04-02T12:59:44Z</time>
      </trkpt>
      <trkpt lat="47.67614" lon="3.69793">
        <ele>242</ele>
        <time>2019-04-02T12:59:49Z</time>
      </trkpt>
      <trkpt lat="47.67614" lon="3.69793">
        <ele>242</ele>
        <time>2019-04-02T12:59:57Z</time>
      </trkpt>
      <trkpt lat="47.67614" lon="3.69793">
        <ele>242</ele>
        <time>2019-04-02T12:59:58Z</time>
      </trkpt>
      <trkpt lat="47.67617" lon="3.69808">
        <ele>240</ele>
        <time>2019-04-02T13:04:47Z</time>
      </trkpt>
      <trkpt lat="47.67612" lon="3.69814">
        <ele>241</ele>
        <time>2019-04-02T13:04:53Z</time>
      </trkpt>
      <trkpt lat="47.67608" lon="3.69818">
        <ele>242</ele>
        <time>2019-04-02T13:04:58Z</time>
      </trkpt>
      <trkpt lat="47.67604" lon="3.69823">
        <ele>241</ele>
        <time>2019-04-02T13:05:01Z</time>
      </trkpt>
      <trkpt lat="47.676" lon="3.6983">
        <ele>243</ele>
        <time>2019-04-02T13:05:06Z</time>
      </trkpt>
      <trkpt lat="47.67596" lon="3.69835">
        <ele>243</ele>
        <time>2019-04-02T13:05:11Z</time>
      </trkpt>
      <trkpt lat="47.67593" lon="3.69841">
        <ele>243</ele>
        <time>2019-04-02T13:05:15Z</time>
      </trkpt>
      <trkpt lat="47.6759" lon="3.69846">
        <ele>244</ele>
        <time>2019-04-02T13:05:18Z</time>
      </trkpt>
      <trkpt lat="47.67586" lon="3.69851">
        <ele>244</ele>
        <time>2019-04-02T13:05:22Z</time>
      </trkpt>
      <trkpt lat="47.67584" lon="3.69854">
        <ele>244</ele>
        <time>2019-04-02T13:05:24Z</time>
      </trkpt>
      <trkpt lat="47.67582" lon="3.6986">
        <ele>244</ele>
        <time>2019-04-02T13:05:29Z</time>
      </trkpt>
      <trkpt lat="47.6758" lon="3.69864">
        <ele>244</ele>
        <time>2019-04-02T13:05:31Z</time>
      </trkpt>
      <trkpt lat="47.67577" lon="3.69872">
        <ele>244</ele>
        <time>2019-04-02T13:05:37Z</time>
      </trkpt>
      <trkpt lat="47.67574" lon="3.69877">
        <ele>242</ele>
        <time>2019-04-02T13:05:42Z</time>
      </trkpt>
      <trkpt lat="47.6757" lon="3.69881">
        <ele>242</ele>
        <time>2019-04-02T13:05:46Z</time>
      </trkpt>
      <trkpt lat="47.67566" lon="3.69886">
        <ele>242</ele>
        <time>2019-04-02T13:05:48Z</time>
      </trkpt>
      <trkpt lat="47.67563" lon="3.69889">
        <ele>241</ele>
        <time>2019-04-02T13:05:51Z</time>
      </trkpt>
      <trkpt lat="47.67559" lon="3.69894">
        <ele>241</ele>
        <time>2019-04-02T13:05:55Z</time>
      </trkpt>
      <trkpt lat="47.67558" lon="3.69897">
        <ele>241</ele>
        <time>2019-04-02T13:05:58Z</time>
      </trkpt>
      <trkpt lat="47.67556" lon="3.699">
        <ele>242</ele>
        <time>2019-04-02T13:06:00Z</time>
      </trkpt>
      <trkpt lat="47.67552" lon="3.69904">
        <ele>241</ele>
        <time>2019-04-02T13:06:02Z</time>
      </trkpt>
      <trkpt lat="47.67548" lon="3.69909">
        <ele>241</ele>
        <time>2019-04-02T13:06:07Z</time>
      </trkpt>
      <trkpt lat="47.67544" lon="3.69913">
        <ele>240</ele>
        <time>2019-04-02T13:06:11Z</time>
      </trkpt>
      <trkpt lat="47.6754" lon="3.69918">
        <ele>240</ele>
        <time>2019-04-02T13:06:14Z</time>
      </trkpt>
      <trkpt lat="47.67538" lon="3.69921">
        <ele>240</ele>
        <time>2019-04-02T13:06:16Z</time>
      </trkpt>
      <trkpt lat="47.67537" lon="3.69923">
        <ele>241</ele>
        <time>2019-04-02T13:06:18Z</time>
      </trkpt>
      <trkpt lat="47.67534" lon="3.69928">
        <ele>240</ele>
        <time>2019-04-02T13:06:22Z</time>
      </trkpt>
      <trkpt lat="47.67531" lon="3.69931">
        <ele>240</ele>
        <time>2019-04-02T13:06:24Z</time>
      </trkpt>
      <trkpt lat="47.67529" lon="3.69934">
        <ele>240</ele>
        <time>2019-04-02T13:06:26Z</time>
      </trkpt>
      <trkpt lat="47.67524" lon="3.69938">
        <ele>239</ele>
        <time>2019-04-02T13:06:30Z</time>
      </trkpt>
      <trkpt lat="47.67521" lon="3.69942">
        <ele>239</ele>
        <time>2019-04-02T13:06:34Z</time>
      </trkpt>
      <trkpt lat="47.67518" lon="3.69946">
        <ele>238</ele>
        <time>2019-04-02T13:06:36Z</time>
      </trkpt>
      <trkpt lat="47.67516" lon="3.69949">
        <ele>239</ele>
        <time>2019-04-02T13:06:39Z</time>
      </trkpt>
      <trkpt lat="47.67514" lon="3.69952">
        <ele>239</ele>
        <time>2019-04-02T13:06:40Z</time>
      </trkpt>
      <trkpt lat="47.67513" lon="3.69955">
        <ele>240</ele>
        <time>2019-04-02T13:06:42Z</time>
      </trkpt>
      <trkpt lat="47.67511" lon="3.69958">
        <ele>240</ele>
        <time>2019-04-02T13:06:45Z</time>
      </trkpt>
      <trkpt lat="47.67508" lon="3.69962">
        <ele>240</ele>
        <time>2019-04-02T13:06:49Z</time>
      </trkpt>
      <trkpt lat="47.67505" lon="3.69967">
        <ele>241</ele>
        <time>2019-04-02T13:06:53Z</time>
      </trkpt>
      <trkpt lat="47.67503" lon="3.69969">
        <ele>240</ele>
        <time>2019-04-02T13:06:55Z</time>
      </trkpt>
      <trkpt lat="47.67498" lon="3.69974">
        <ele>239</ele>
        <time>2019-04-02T13:06:59Z</time>
      </trkpt>
      <trkpt lat="47.67495" lon="3.69979">
        <ele>240</ele>
        <time>2019-04-02T13:07:03Z</time>
      </trkpt>
      <trkpt lat="47.67491" lon="3.69983">
        <ele>238</ele>
        <time>2019-04-02T13:07:06Z</time>
      </trkpt>
      <trkpt lat="47.67489" lon="3.69985">
        <ele>238</ele>
        <time>2019-04-02T13:07:08Z</time>
      </trkpt>
      <trkpt lat="47.67486" lon="3.69991">
        <ele>239</ele>
        <time>2019-04-02T13:07:12Z</time>
      </trkpt>
      <trkpt lat="47.67482" lon="3.69994">
        <ele>238</ele>
        <time>2019-04-02T13:07:16Z</time>
      </trkpt>
      <trkpt lat="47.67476" lon="3.69999">
        <ele>238</ele>
        <time>2019-04-02T13:07:20Z</time>
      </trkpt>
      <trkpt lat="47.67473" lon="3.70005">
        <ele>238</ele>
        <time>2019-04-02T13:07:24Z</time>
      </trkpt>
      <trkpt lat="47.6747" lon="3.7001">
        <ele>239</ele>
        <time>2019-04-02T13:07:26Z</time>
      </trkpt>
      <trkpt lat="47.67466" lon="3.70014">
        <ele>240</ele>
        <time>2019-04-02T13:07:31Z</time>
      </trkpt>
      <trkpt lat="47.67463" lon="3.70017">
        <ele>240</ele>
        <time>2019-04-02T13:07:34Z</time>
      </trkpt>
      <trkpt lat="47.67458" lon="3.70022">
        <ele>240</ele>
        <time>2019-04-02T13:07:37Z</time>
      </trkpt>
      <trkpt lat="47.67455" lon="3.70025">
        <ele>240</ele>
        <time>2019-04-02T13:07:40Z</time>
      </trkpt>
      <trkpt lat="47.67453" lon="3.70027">
        <ele>241</ele>
        <time>2019-04-02T13:07:42Z</time>
      </trkpt>
      <trkpt lat="47.67451" lon="3.7003">
        <ele>241</ele>
        <time>2019-04-02T13:07:44Z</time>
      </trkpt>
      <trkpt lat="47.67447" lon="3.70033">
        <ele>241</ele>
        <time>2019-04-02T13:07:47Z</time>
      </trkpt>
      <trkpt lat="47.67443" lon="3.70039">
        <ele>241</ele>
        <time>2019-04-02T13:07:53Z</time>
      </trkpt>
      <trkpt lat="47.67441" lon="3.70043">
        <ele>241</ele>
        <time>2019-04-02T13:07:56Z</time>
      </trkpt>
      <trkpt lat="47.67436" lon="3.70048">
        <ele>242</ele>
        <time>2019-04-02T13:08:00Z</time>
      </trkpt>
      <trkpt lat="47.67434" lon="3.7005">
        <ele>242</ele>
        <time>2019-04-02T13:08:02Z</time>
      </trkpt>
      <trkpt lat="47.67431" lon="3.70054">
        <ele>243</ele>
        <time>2019-04-02T13:08:05Z</time>
      </trkpt>
      <trkpt lat="47.67427" lon="3.70057">
        <ele>242</ele>
        <time>2019-04-02T13:08:08Z</time>
      </trkpt>
      <trkpt lat="47.67422" lon="3.70059">
        <ele>244</ele>
        <time>2019-04-02T13:08:13Z</time>
      </trkpt>
      <trkpt lat="47.67419" lon="3.70061">
        <ele>243</ele>
        <time>2019-04-02T13:08:16Z</time>
      </trkpt>
      <trkpt lat="47.67415" lon="3.70063">
        <ele>243</ele>
        <time>2019-04-02T13:08:18Z</time>
      </trkpt>
      <trkpt lat="47.67411" lon="3.70065">
        <ele>243</ele>
        <time>2019-04-02T13:08:21Z</time>
      </trkpt>
      <trkpt lat="47.67406" lon="3.70069">
        <ele>244</ele>
        <time>2019-04-02T13:08:25Z</time>
      </trkpt>
      <trkpt lat="47.67403" lon="3.70071">
        <ele>245</ele>
        <time>2019-04-02T13:08:27Z</time>
      </trkpt>
      <trkpt lat="47.67399" lon="3.70076">
        <ele>244</ele>
        <time>2019-04-02T13:08:31Z</time>
      </trkpt>
      <trkpt lat="47.67396" lon="3.70078">
        <ele>244</ele>
        <time>2019-04-02T13:08:34Z</time>
      </trkpt>
      <trkpt lat="47.67393" lon="3.70082">
        <ele>245</ele>
        <time>2019-04-02T13:08:37Z</time>
      </trkpt>
      <trkpt lat="47.6739" lon="3.70085">
        <ele>244</ele>
        <time>2019-04-02T13:08:39Z</time>
      </trkpt>
      <trkpt lat="47.67387" lon="3.70088">
        <ele>244</ele>
        <time>2019-04-02T13:08:41Z</time>
      </trkpt>
      <trkpt lat="47.67382" lon="3.70093">
        <ele>245</ele>
        <time>2019-04-02T13:08:45Z</time>
      </trkpt>
      <trkpt lat="47.6738" lon="3.70096">
        <ele>245</ele>
        <time>2019-04-02T13:08:47Z</time>
      </trkpt>
      <trkpt lat="47.67375" lon="3.701">
        <ele>245</ele>
        <time>2019-04-02T13:08:50Z</time>
      </trkpt>
      <trkpt lat="47.67372" lon="3.70102">
        <ele>245</ele>
        <time>2019-04-02T13:08:52Z</time>
      </trkpt>
      <trkpt lat="47.67368" lon="3.70109">
        <ele>245</ele>
        <time>2019-04-02T13:08:56Z</time>
      </trkpt>
      <trkpt lat="47.67364" lon="3.70113">
        <ele>245</ele>
        <time>2019-04-02T13:09:00Z</time>
      </trkpt>
      <trkpt lat="47.67361" lon="3.70115">
        <ele>246</ele>
        <time>2019-04-02T13:09:02Z</time>
      </trkpt>
      <trkpt lat="47.67357" lon="3.7012">
        <ele>247</ele>
        <time>2019-04-02T13:09:07Z</time>
      </trkpt>
      <trkpt lat="47.67355" lon="3.70122">
        <ele>247</ele>
        <time>2019-04-02T13:09:09Z</time>
      </trkpt>
      <trkpt lat="47.67351" lon="3.70129">
        <ele>247</ele>
        <time>2019-04-02T13:09:13Z</time>
      </trkpt>
      <trkpt lat="47.67346" lon="3.70134">
        <ele>246</ele>
        <time>2019-04-02T13:09:16Z</time>
      </trkpt>
      <trkpt lat="47.67343" lon="3.70139">
        <ele>247</ele>
        <time>2019-04-02T13:09:20Z</time>
      </trkpt>
      <trkpt lat="47.67339" lon="3.70144">
        <ele>247</ele>
        <time>2019-04-02T13:09:24Z</time>
      </trkpt>
      <trkpt lat="47.67336" lon="3.7015">
        <ele>248</ele>
        <time>2019-04-02T13:09:29Z</time>
      </trkpt>
      <trkpt lat="47.67331" lon="3.70154">
        <ele>247</ele>
        <time>2019-04-02T13:09:33Z</time>
      </trkpt>
      <trkpt lat="47.67328" lon="3.7016">
        <ele>248</ele>
        <time>2019-04-02T13:09:37Z</time>
      </trkpt>
      <trkpt lat="47.67324" lon="3.70165">
        <ele>247</ele>
        <time>2019-04-02T13:09:41Z</time>
      </trkpt>
      <trkpt lat="47.6732" lon="3.70171">
        <ele>248</ele>
        <time>2019-04-02T13:09:44Z</time>
      </trkpt>
      <trkpt lat="47.67315" lon="3.70176">
        <ele>248</ele>
        <time>2019-04-02T13:09:49Z</time>
      </trkpt>
      <trkpt lat="47.67312" lon="3.70182">
        <ele>247</ele>
        <time>2019-04-02T13:09:52Z</time>
      </trkpt>
      <trkpt lat="47.6731" lon="3.70184">
        <ele>247</ele>
        <time>2019-04-02T13:09:54Z</time>
      </trkpt>
      <trkpt lat="47.67307" lon="3.70191">
        <ele>248</ele>
        <time>2019-04-02T13:09:58Z</time>
      </trkpt>
      <trkpt lat="47.67304" lon="3.70196">
        <ele>249</ele>
        <time>2019-04-02T13:10:02Z</time>
      </trkpt>
      <trkpt lat="47.673" lon="3.70203">
        <ele>249</ele>
        <time>2019-04-02T13:10:05Z</time>
      </trkpt>
      <trkpt lat="47.67296" lon="3.70208">
        <ele>248</ele>
        <time>2019-04-02T13:10:09Z</time>
      </trkpt>
      <trkpt lat="47.67292" lon="3.70215">
        <ele>248</ele>
        <time>2019-04-02T13:10:13Z</time>
      </trkpt>
      <trkpt lat="47.67289" lon="3.7022">
        <ele>248</ele>
        <time>2019-04-02T13:10:17Z</time>
      </trkpt>
      <trkpt lat="47.67287" lon="3.70224">
        <ele>249</ele>
        <time>2019-04-02T13:10:20Z</time>
      </trkpt>
      <trkpt lat="47.67284" lon="3.7023">
        <ele>248</ele>
        <time>2019-04-02T13:10:24Z</time>
      </trkpt>
      <trkpt lat="47.67281" lon="3.70236">
        <ele>248</ele>
        <time>2019-04-02T13:10:28Z</time>
      </trkpt>
      <trkpt lat="47.67278" lon="3.70241">
        <ele>249</ele>
        <time>2019-04-02T13:10:30Z</time>
      </trkpt>
      <trkpt lat="47.67275" lon="3.70245">
        <ele>247</ele>
        <time>2019-04-02T13:10:35Z</time>
      </trkpt>
      <trkpt lat="47.67272" lon="3.70251">
        <ele>247</ele>
        <time>2019-04-02T13:10:38Z</time>
      </trkpt>
      <trkpt lat="47.67271" lon="3.70253">
        <ele>246</ele>
        <time>2019-04-02T13:10:40Z</time>
      </trkpt>
      <trkpt lat="47.67267" lon="3.70259">
        <ele>247</ele>
        <time>2019-04-02T13:10:44Z</time>
      </trkpt>
      <trkpt lat="47.67263" lon="3.70263">
        <ele>247</ele>
        <time>2019-04-02T13:10:47Z</time>
      </trkpt>
      <trkpt lat="47.67262" lon="3.70266">
        <ele>247</ele>
        <time>2019-04-02T13:10:49Z</time>
      </trkpt>
      <trkpt lat="47.67259" lon="3.70273">
        <ele>246</ele>
        <time>2019-04-02T13:10:54Z</time>
      </trkpt>
      <trkpt lat="47.67257" lon="3.70277">
        <ele>246</ele>
        <time>2019-04-02T13:10:55Z</time>
      </trkpt>
      <trkpt lat="47.67253" lon="3.70282">
        <ele>246</ele>
        <time>2019-04-02T13:10:59Z</time>
      </trkpt>
      <trkpt lat="47.67249" lon="3.70289">
        <ele>245</ele>
        <time>2019-04-02T13:11:03Z</time>
      </trkpt>
      <trkpt lat="47.67245" lon="3.70292">
        <ele>244</ele>
        <time>2019-04-02T13:11:06Z</time>
      </trkpt>
      <trkpt lat="47.67241" lon="3.70297">
        <ele>244</ele>
        <time>2019-04-02T13:11:11Z</time>
      </trkpt>
      <trkpt lat="47.67237" lon="3.70304">
        <ele>244</ele>
        <time>2019-04-02T13:11:14Z</time>
      </trkpt>
      <trkpt lat="47.67234" lon="3.70309">
        <ele>245</ele>
        <time>2019-04-02T13:11:17Z</time>
      </trkpt>
      <trkpt lat="47.67228" lon="3.70314">
        <ele>244</ele>
        <time>2019-04-02T13:11:22Z</time>
      </trkpt>
      <trkpt lat="47.67224" lon="3.7032">
        <ele>243</ele>
        <time>2019-04-02T13:11:26Z</time>
      </trkpt>
      <trkpt lat="47.67221" lon="3.70324">
        <ele>243</ele>
        <time>2019-04-02T13:11:30Z</time>
      </trkpt>
      <trkpt lat="47.67219" lon="3.70326">
        <ele>242</ele>
        <time>2019-04-02T13:11:32Z</time>
      </trkpt>
      <trkpt lat="47.67216" lon="3.7033">
        <ele>243</ele>
        <time>2019-04-02T13:11:35Z</time>
      </trkpt>
      <trkpt lat="47.67213" lon="3.70336">
        <ele>243</ele>
        <time>2019-04-02T13:11:38Z</time>
      </trkpt>
      <trkpt lat="47.67209" lon="3.7034">
        <ele>243</ele>
        <time>2019-04-02T13:11:41Z</time>
      </trkpt>
      <trkpt lat="47.67206" lon="3.70344">
        <ele>243</ele>
        <time>2019-04-02T13:11:44Z</time>
      </trkpt>
      <trkpt lat="47.67202" lon="3.70349">
        <ele>241</ele>
        <time>2019-04-02T13:11:49Z</time>
      </trkpt>
      <trkpt lat="47.67198" lon="3.70353">
        <ele>240</ele>
        <time>2019-04-02T13:11:52Z</time>
      </trkpt>
      <trkpt lat="47.67196" lon="3.70355">
        <ele>240</ele>
        <time>2019-04-02T13:11:54Z</time>
      </trkpt>
      <trkpt lat="47.67193" lon="3.70361">
        <ele>239</ele>
        <time>2019-04-02T13:11:58Z</time>
      </trkpt>
      <trkpt lat="47.67188" lon="3.70367">
        <ele>240</ele>
        <time>2019-04-02T13:12:02Z</time>
      </trkpt>
      <trkpt lat="47.67184" lon="3.70371">
        <ele>239</ele>
        <time>2019-04-02T13:12:05Z</time>
      </trkpt>
      <trkpt lat="47.6718" lon="3.70377">
        <ele>238</ele>
        <time>2019-04-02T13:12:10Z</time>
      </trkpt>
      <trkpt lat="47.67178" lon="3.70379">
        <ele>238</ele>
        <time>2019-04-02T13:12:12Z</time>
      </trkpt>
      <trkpt lat="47.67174" lon="3.70384">
        <ele>237</ele>
        <time>2019-04-02T13:12:16Z</time>
      </trkpt>
      <trkpt lat="47.67172" lon="3.70387">
        <ele>236</ele>
        <time>2019-04-02T13:12:18Z</time>
      </trkpt>
      <trkpt lat="47.67169" lon="3.70391">
        <ele>235</ele>
        <time>2019-04-02T13:12:21Z</time>
      </trkpt>
      <trkpt lat="47.67166" lon="3.70398">
        <ele>233</ele>
        <time>2019-04-02T13:12:25Z</time>
      </trkpt>
      <trkpt lat="47.67165" lon="3.70402">
        <ele>233</ele>
        <time>2019-04-02T13:12:27Z</time>
      </trkpt>
      <trkpt lat="47.67162" lon="3.70407">
        <ele>232</ele>
        <time>2019-04-02T13:12:31Z</time>
      </trkpt>
      <trkpt lat="47.67158" lon="3.70411">
        <ele>231</ele>
        <time>2019-04-02T13:12:35Z</time>
      </trkpt>
      <trkpt lat="47.67155" lon="3.70413">
        <ele>231</ele>
        <time>2019-04-02T13:12:37Z</time>
      </trkpt>
      <trkpt lat="47.67151" lon="3.70417">
        <ele>231</ele>
        <time>2019-04-02T13:12:41Z</time>
      </trkpt>
      <trkpt lat="47.67148" lon="3.70424">
        <ele>231</ele>
        <time>2019-04-02T13:12:46Z</time>
      </trkpt>
      <trkpt lat="47.67146" lon="3.70426">
        <ele>231</ele>
        <time>2019-04-02T13:12:48Z</time>
      </trkpt>
      <trkpt lat="47.67143" lon="3.70433">
        <ele>231</ele>
        <time>2019-04-02T13:12:52Z</time>
      </trkpt>
      <trkpt lat="47.67141" lon="3.7044">
        <ele>231</ele>
        <time>2019-04-02T13:12:56Z</time>
      </trkpt>
      <trkpt lat="47.6714" lon="3.70443">
        <ele>231</ele>
        <time>2019-04-02T13:12:58Z</time>
      </trkpt>
      <trkpt lat="47.67139" lon="3.70446">
        <ele>232</ele>
        <time>2019-04-02T13:13:00Z</time>
      </trkpt>
      <trkpt lat="47.67136" lon="3.70451">
        <ele>232</ele>
        <time>2019-04-02T13:13:04Z</time>
      </trkpt>
      <trkpt lat="47.67133" lon="3.70458">
        <ele>231</ele>
        <time>2019-04-02T13:13:09Z</time>
      </trkpt>
      <trkpt lat="47.67131" lon="3.70461">
        <ele>231</ele>
        <time>2019-04-02T13:13:11Z</time>
      </trkpt>
      <trkpt lat="47.67129" lon="3.7047">
        <ele>231</ele>
        <time>2019-04-02T13:13:17Z</time>
      </trkpt>
      <trkpt lat="47.67128" lon="3.70475">
        <ele>229</ele>
        <time>2019-04-02T13:13:20Z</time>
      </trkpt>
      <trkpt lat="47.67126" lon="3.70481">
        <ele>228</ele>
        <time>2019-04-02T13:13:23Z</time>
      </trkpt>
      <trkpt lat="47.67124" lon="3.70488">
        <ele>227</ele>
        <time>2019-04-02T13:13:26Z</time>
      </trkpt>
      <trkpt lat="47.67123" lon="3.70496">
        <ele>226</ele>
        <time>2019-04-02T13:13:30Z</time>
      </trkpt>
      <trkpt lat="47.67123" lon="3.70501">
        <ele>226</ele>
        <time>2019-04-02T13:13:32Z</time>
      </trkpt>
      <trkpt lat="47.67121" lon="3.70508">
        <ele>225</ele>
        <time>2019-04-02T13:13:36Z</time>
      </trkpt>
      <trkpt lat="47.6712" lon="3.70515">
        <ele>225</ele>
        <time>2019-04-02T13:13:40Z</time>
      </trkpt>
      <trkpt lat="47.6712" lon="3.70518">
        <ele>225</ele>
        <time>2019-04-02T13:13:42Z</time>
      </trkpt>
      <trkpt lat="47.6712" lon="3.70522">
        <ele>225</ele>
        <time>2019-04-02T13:13:44Z</time>
      </trkpt>
      <trkpt lat="47.67119" lon="3.70528">
        <ele>225</ele>
        <time>2019-04-02T13:13:46Z</time>
      </trkpt>
      <trkpt lat="47.67119" lon="3.70532">
        <ele>225</ele>
        <time>2019-04-02T13:13:48Z</time>
      </trkpt>
      <trkpt lat="47.67118" lon="3.70536">
        <ele>225</ele>
        <time>2019-04-02T13:13:50Z</time>
      </trkpt>
      <trkpt lat="47.67118" lon="3.70541">
        <ele>225</ele>
        <time>2019-04-02T13:13:54Z</time>
      </trkpt>
      <trkpt lat="47.67116" lon="3.70548">
        <ele>224</ele>
        <time>2019-04-02T13:13:57Z</time>
      </trkpt>
      <trkpt lat="47.67114" lon="3.70553">
        <ele>223</ele>
        <time>2019-04-02T13:14:00Z</time>
      </trkpt>
      <trkpt lat="47.67112" lon="3.7056">
        <ele>222</ele>
        <time>2019-04-02T13:14:04Z</time>
      </trkpt>
      <trkpt lat="47.67111" lon="3.70564">
        <ele>222</ele>
        <time>2019-04-02T13:14:06Z</time>
      </trkpt>
      <trkpt lat="47.6711" lon="3.70567">
        <ele>221</ele>
        <time>2019-04-02T13:14:08Z</time>
      </trkpt>
      <trkpt lat="47.67108" lon="3.70574">
        <ele>220</ele>
        <time>2019-04-02T13:14:12Z</time>
      </trkpt>
      <trkpt lat="47.67106" lon="3.70581">
        <ele>220</ele>
        <time>2019-04-02T13:14:16Z</time>
      </trkpt>
      <trkpt lat="47.67105" lon="3.70585">
        <ele>219</ele>
        <time>2019-04-02T13:14:18Z</time>
      </trkpt>
      <trkpt lat="47.67104" lon="3.70591">
        <ele>219</ele>
        <time>2019-04-02T13:14:21Z</time>
      </trkpt>
      <trkpt lat="47.67102" lon="3.70598">
        <ele>218</ele>
        <time>2019-04-02T13:14:25Z</time>
      </trkpt>
      <trkpt lat="47.671" lon="3.70604">
        <ele>218</ele>
        <time>2019-04-02T13:14:29Z</time>
      </trkpt>
      <trkpt lat="47.67098" lon="3.7061">
        <ele>216</ele>
        <time>2019-04-02T13:14:32Z</time>
      </trkpt>
      <trkpt lat="47.67097" lon="3.70614">
        <ele>216</ele>
        <time>2019-04-02T13:14:34Z</time>
      </trkpt>
      <trkpt lat="47.67096" lon="3.70622">
        <ele>215</ele>
        <time>2019-04-02T13:14:38Z</time>
      </trkpt>
      <trkpt lat="47.67095" lon="3.70626">
        <ele>214</ele>
        <time>2019-04-02T13:14:41Z</time>
      </trkpt>
      <trkpt lat="47.67092" lon="3.70634">
        <ele>213</ele>
        <time>2019-04-02T13:14:45Z</time>
      </trkpt>
      <trkpt lat="47.67089" lon="3.7064">
        <ele>213</ele>
        <time>2019-04-02T13:14:49Z</time>
      </trkpt>
      <trkpt lat="47.67088" lon="3.70644">
        <ele>212</ele>
        <time>2019-04-02T13:14:51Z</time>
      </trkpt>
      <trkpt lat="47.67087" lon="3.70647">
        <ele>212</ele>
        <time>2019-04-02T13:14:53Z</time>
      </trkpt>
      <trkpt lat="47.67085" lon="3.7065">
        <ele>212</ele>
        <time>2019-04-02T13:14:55Z</time>
      </trkpt>
      <trkpt lat="47.67084" lon="3.70655">
        <ele>212</ele>
        <time>2019-04-02T13:14:58Z</time>
      </trkpt>
      <trkpt lat="47.6708" lon="3.70661">
        <ele>210</ele>
        <time>2019-04-02T13:15:02Z</time>
      </trkpt>
      <trkpt lat="47.67079" lon="3.70664">
        <ele>209</ele>
        <time>2019-04-02T13:15:04Z</time>
      </trkpt>
      <trkpt lat="47.67077" lon="3.70667">
        <ele>208</ele>
        <time>2019-04-02T13:15:06Z</time>
      </trkpt>
      <trkpt lat="47.67075" lon="3.70669">
        <ele>208</ele>
        <time>2019-04-02T13:15:08Z</time>
      </trkpt>
      <trkpt lat="47.67073" lon="3.70674">
        <ele>208</ele>
        <time>2019-04-02T13:15:11Z</time>
      </trkpt>
      <trkpt lat="47.6707" lon="3.70682">
        <ele>206</ele>
        <time>2019-04-02T13:15:16Z</time>
      </trkpt>
      <trkpt lat="47.67066" lon="3.70687">
        <ele>205</ele>
        <time>2019-04-02T13:15:20Z</time>
      </trkpt>
      <trkpt lat="47.67063" lon="3.70693">
        <ele>204</ele>
        <time>2019-04-02T13:15:24Z</time>
      </trkpt>
      <trkpt lat="47.67059" lon="3.70698">
        <ele>203</ele>
        <time>2019-04-02T13:15:29Z</time>
      </trkpt>
      <trkpt lat="47.67056" lon="3.70702">
        <ele>202</ele>
        <time>2019-04-02T13:15:32Z</time>
      </trkpt>
      <trkpt lat="47.67052" lon="3.70711">
        <ele>201</ele>
        <time>2019-04-02T13:15:37Z</time>
      </trkpt>
      <trkpt lat="47.67049" lon="3.70719">
        <ele>201</ele>
        <time>2019-04-02T13:15:43Z</time>
      </trkpt>
      <trkpt lat="47.67048" lon="3.70722">
        <ele>201</ele>
        <time>2019-04-02T13:15:45Z</time>
      </trkpt>
      <trkpt lat="47.67044" lon="3.70726">
        <ele>201</ele>
        <time>2019-04-02T13:15:49Z</time>
      </trkpt>
      <trkpt lat="47.67041" lon="3.70728">
        <ele>200</ele>
        <time>2019-04-02T13:15:52Z</time>
      </trkpt>
      <trkpt lat="47.67037" lon="3.70731">
        <ele>200</ele>
        <time>2019-04-02T13:15:55Z</time>
      </trkpt>
      <trkpt lat="47.67032" lon="3.70735">
        <ele>199</ele>
        <time>2019-04-02T13:15:59Z</time>
      </trkpt>
      <trkpt lat="47.67028" lon="3.70738">
        <ele>198</ele>
        <time>2019-04-02T13:16:03Z</time>
      </trkpt>
      <trkpt lat="47.67023" lon="3.70741">
        <ele>198</ele>
        <time>2019-04-02T13:16:06Z</time>
      </trkpt>
      <trkpt lat="47.67021" lon="3.70742">
        <ele>198</ele>
        <time>2019-04-02T13:16:08Z</time>
      </trkpt>
      <trkpt lat="47.67017" lon="3.70746">
        <ele>197</ele>
        <time>2019-04-02T13:16:11Z</time>
      </trkpt>
      <trkpt lat="47.67012" lon="3.70748">
        <ele>196</ele>
        <time>2019-04-02T13:16:15Z</time>
      </trkpt>
      <trkpt lat="47.67009" lon="3.70749">
        <ele>196</ele>
        <time>2019-04-02T13:16:17Z</time>
      </trkpt>
      <trkpt lat="47.67005" lon="3.70752">
        <ele>196</ele>
        <time>2019-04-02T13:16:21Z</time>
      </trkpt>
      <trkpt lat="47.67002" lon="3.70754">
        <ele>196</ele>
        <time>2019-04-02T13:16:23Z</time>
      </trkpt>
      <trkpt lat="47.66998" lon="3.70756">
        <ele>196</ele>
        <time>2019-04-02T13:16:26Z</time>
      </trkpt>
      <trkpt lat="47.66996" lon="3.70758">
        <ele>195</ele>
        <time>2019-04-02T13:16:28Z</time>
      </trkpt>
      <trkpt lat="47.66991" lon="3.7076">
        <ele>194</ele>
        <time>2019-04-02T13:16:32Z</time>
      </trkpt>
      <trkpt lat="47.66988" lon="3.70762">
        <ele>194</ele>
        <time>2019-04-02T13:16:34Z</time>
      </trkpt>
      <trkpt lat="47.66985" lon="3.70764">
        <ele>194</ele>
        <time>2019-04-02T13:16:36Z</time>
      </trkpt>
      <trkpt lat="47.66982" lon="3.70765">
        <ele>193</ele>
        <time>2019-04-02T13:16:38Z</time>
      </trkpt>
      <trkpt lat="47.66979" lon="3.70767">
        <ele>192</ele>
        <time>2019-04-02T13:16:40Z</time>
      </trkpt>
      <trkpt lat="47.66977" lon="3.70769">
        <ele>192</ele>
        <time>2019-04-02T13:16:42Z</time>
      </trkpt>
      <trkpt lat="47.66972" lon="3.70773">
        <ele>192</ele>
        <time>2019-04-02T13:16:46Z</time>
      </trkpt>
      <trkpt lat="47.66969" lon="3.70775">
        <ele>193</ele>
        <time>2019-04-02T13:16:49Z</time>
      </trkpt>
      <trkpt lat="47.66963" lon="3.70777">
        <ele>192</ele>
        <time>2019-04-02T13:16:53Z</time>
      </trkpt>
      <trkpt lat="47.6696" lon="3.70779">
        <ele>191</ele>
        <time>2019-04-02T13:16:56Z</time>
      </trkpt>
      <trkpt lat="47.66957" lon="3.70779">
        <ele>191</ele>
        <time>2019-04-02T13:16:58Z</time>
      </trkpt>
      <trkpt lat="47.66952" lon="3.70783">
        <ele>190</ele>
        <time>2019-04-02T13:17:02Z</time>
      </trkpt>
      <trkpt lat="47.66949" lon="3.70785">
        <ele>191</ele>
        <time>2019-04-02T13:17:04Z</time>
      </trkpt>
      <trkpt lat="47.66946" lon="3.70787">
        <ele>190</ele>
        <time>2019-04-02T13:17:07Z</time>
      </trkpt>
      <trkpt lat="47.66941" lon="3.70791">
        <ele>189</ele>
        <time>2019-04-02T13:17:11Z</time>
      </trkpt>
      <trkpt lat="47.66938" lon="3.70793">
        <ele>189</ele>
        <time>2019-04-02T13:17:13Z</time>
      </trkpt>
      <trkpt lat="47.66933" lon="3.70796">
        <ele>189</ele>
        <time>2019-04-02T13:17:17Z</time>
      </trkpt>
      <trkpt lat="47.66928" lon="3.70798">
        <ele>188</ele>
        <time>2019-04-02T13:17:20Z</time>
      </trkpt>
      <trkpt lat="47.66923" lon="3.70801">
        <ele>188</ele>
        <time>2019-04-02T13:17:25Z</time>
      </trkpt>
      <trkpt lat="47.66919" lon="3.70803">
        <ele>188</ele>
        <time>2019-04-02T13:17:28Z</time>
      </trkpt>
      <trkpt lat="47.66915" lon="3.70807">
        <ele>187</ele>
        <time>2019-04-02T13:17:32Z</time>
      </trkpt>
      <trkpt lat="47.6691" lon="3.7081">
        <ele>187</ele>
        <time>2019-04-02T13:17:36Z</time>
      </trkpt>
      <trkpt lat="47.66906" lon="3.70811">
        <ele>186</ele>
        <time>2019-04-02T13:17:37Z</time>
      </trkpt>
      <trkpt lat="47.66904" lon="3.70813">
        <ele>187</ele>
        <time>2019-04-02T13:17:40Z</time>
      </trkpt>
      <trkpt lat="47.66901" lon="3.70814">
        <ele>187</ele>
        <time>2019-04-02T13:17:42Z</time>
      </trkpt>
      <trkpt lat="47.66896" lon="3.70818">
        <ele>186</ele>
        <time>2019-04-02T13:17:46Z</time>
      </trkpt>
      <trkpt lat="47.66893" lon="3.7082">
        <ele>186</ele>
        <time>2019-04-02T13:17:49Z</time>
      </trkpt>
      <trkpt lat="47.6689" lon="3.70822">
        <ele>186</ele>
        <time>2019-04-02T13:17:51Z</time>
      </trkpt>
      <trkpt lat="47.66888" lon="3.70824">
        <ele>186</ele>
        <time>2019-04-02T13:17:53Z</time>
      </trkpt>
      <trkpt lat="47.66886" lon="3.70825">
        <ele>185</ele>
        <time>2019-04-02T13:17:55Z</time>
      </trkpt>
      <trkpt lat="47.66883" lon="3.70827">
        <ele>185</ele>
        <time>2019-04-02T13:17:57Z</time>
      </trkpt>
      <trkpt lat="47.66878" lon="3.70829">
        <ele>184</ele>
        <time>2019-04-02T13:18:00Z</time>
      </trkpt>
      <trkpt lat="47.66875" lon="3.7083">
        <ele>183</ele>
        <time>2019-04-02T13:18:03Z</time>
      </trkpt>
      <trkpt lat="47.6687" lon="3.70834">
        <ele>183</ele>
        <time>2019-04-02T13:18:07Z</time>
      </trkpt>
      <trkpt lat="47.66868" lon="3.70836">
        <ele>182</ele>
        <time>2019-04-02T13:18:09Z</time>
      </trkpt>
      <trkpt lat="47.66862" lon="3.70837">
        <ele>182</ele>
        <time>2019-04-02T13:18:13Z</time>
      </trkpt>
      <trkpt lat="47.66858" lon="3.7084">
        <ele>182</ele>
        <time>2019-04-02T13:18:16Z</time>
      </trkpt>
      <trkpt lat="47.66853" lon="3.70843">
        <ele>182</ele>
        <time>2019-04-02T13:18:20Z</time>
      </trkpt>
      <trkpt lat="47.6685" lon="3.70844">
        <ele>181</ele>
        <time>2019-04-02T13:18:21Z</time>
      </trkpt>
      <trkpt lat="47.66848" lon="3.70846">
        <ele>182</ele>
        <time>2019-04-02T13:18:24Z</time>
      </trkpt>
      <trkpt lat="47.66845" lon="3.70848">
        <ele>182</ele>
        <time>2019-04-02T13:18:25Z</time>
      </trkpt>
      <trkpt lat="47.66841" lon="3.70851">
        <ele>182</ele>
        <time>2019-04-02T13:18:28Z</time>
      </trkpt>
      <trkpt lat="47.66838" lon="3.70853">
        <ele>183</ele>
        <time>2019-04-02T13:18:32Z</time>
      </trkpt>
      <trkpt lat="47.66832" lon="3.70858">
        <ele>182</ele>
        <time>2019-04-02T13:18:36Z</time>
      </trkpt>
      <trkpt lat="47.66829" lon="3.7086">
        <ele>181</ele>
        <time>2019-04-02T13:18:38Z</time>
      </trkpt>
      <trkpt lat="47.66824" lon="3.70863">
        <ele>181</ele>
        <time>2019-04-02T13:18:43Z</time>
      </trkpt>
      <trkpt lat="47.6682" lon="3.70866">
        <ele>181</ele>
        <time>2019-04-02T13:18:46Z</time>
      </trkpt>
      <trkpt lat="47.66815" lon="3.70869">
        <ele>181</ele>
        <time>2019-04-02T13:18:49Z</time>
      </trkpt>
      <trkpt lat="47.66813" lon="3.70871">
        <ele>181</ele>
        <time>2019-04-02T13:18:51Z</time>
      </trkpt>
      <trkpt lat="47.66809" lon="3.70873">
        <ele>181</ele>
        <time>2019-04-02T13:18:54Z</time>
      </trkpt>
      <trkpt lat="47.66806" lon="3.70875">
        <ele>181</ele>
        <time>2019-04-02T13:18:56Z</time>
      </trkpt>
      <trkpt lat="47.66802" lon="3.70877">
        <ele>180</ele>
        <time>2019-04-02T13:18:59Z</time>
      </trkpt>
      <trkpt lat="47.66798" lon="3.70879">
        <ele>180</ele>
        <time>2019-04-02T13:19:02Z</time>
      </trkpt>
      <trkpt lat="47.66795" lon="3.70881">
        <ele>180</ele>
        <time>2019-04-02T13:19:05Z</time>
      </trkpt>
      <trkpt lat="47.66793" lon="3.70883">
        <ele>180</ele>
        <time>2019-04-02T13:19:07Z</time>
      </trkpt>
      <trkpt lat="47.66791" lon="3.70885">
        <ele>180</ele>
        <time>2019-04-02T13:19:09Z</time>
      </trkpt>
      <trkpt lat="47.66787" lon="3.70888">
        <ele>181</ele>
        <time>2019-04-02T13:19:12Z</time>
      </trkpt>
      <trkpt lat="47.66785" lon="3.7089">
        <ele>180</ele>
        <time>2019-04-02T13:19:14Z</time>
      </trkpt>
      <trkpt lat="47.6678" lon="3.70892">
        <ele>180</ele>
        <time>2019-04-02T13:19:18Z</time>
      </trkpt>
      <trkpt lat="47.66777" lon="3.70893">
        <ele>179</ele>
        <time>2019-04-02T13:19:20Z</time>
      </trkpt>
      <trkpt lat="47.66773" lon="3.70896">
        <ele>179</ele>
        <time>2019-04-02T13:19:23Z</time>
      </trkpt>
      <trkpt lat="47.66768" lon="3.70898">
        <ele>179</ele>
        <time>2019-04-02T13:19:27Z</time>
      </trkpt>
      <trkpt lat="47.66765" lon="3.70899">
        <ele>179</ele>
        <time>2019-04-02T13:19:30Z</time>
      </trkpt>
      <trkpt lat="47.6676" lon="3.709">
        <ele>178</ele>
        <time>2019-04-02T13:19:33Z</time>
      </trkpt>
      <trkpt lat="47.66757" lon="3.70901">
        <ele>179</ele>
        <time>2019-04-02T13:19:35Z</time>
      </trkpt>
      <trkpt lat="47.66754" lon="3.70902">
        <ele>179</ele>
        <time>2019-04-02T13:19:37Z</time>
      </trkpt>
      <trkpt lat="47.66751" lon="3.70904">
        <ele>178</ele>
        <time>2019-04-02T13:19:39Z</time>
      </trkpt>
      <trkpt lat="47.66746" lon="3.70904">
        <ele>178</ele>
        <time>2019-04-02T13:19:42Z</time>
      </trkpt>
      <trkpt lat="47.66744" lon="3.70905">
        <ele>178</ele>
        <time>2019-04-02T13:19:44Z</time>
      </trkpt>
      <trkpt lat="47.6674" lon="3.70905">
        <ele>177</ele>
        <time>2019-04-02T13:19:47Z</time>
      </trkpt>
      <trkpt lat="47.66737" lon="3.70905">
        <ele>177</ele>
        <time>2019-04-02T13:19:51Z</time>
      </trkpt>
      <trkpt lat="47.66734" lon="3.70905">
        <ele>177</ele>
        <time>2019-04-02T13:19:52Z</time>
      </trkpt>
      <trkpt lat="47.66732" lon="3.70906">
        <ele>177</ele>
        <time>2019-04-02T13:19:54Z</time>
      </trkpt>
      <trkpt lat="47.66729" lon="3.70906">
        <ele>176</ele>
        <time>2019-04-02T13:19:56Z</time>
      </trkpt>
      <trkpt lat="47.66726" lon="3.70907">
        <ele>175</ele>
        <time>2019-04-02T13:19:58Z</time>
      </trkpt>
      <trkpt lat="47.66724" lon="3.70907">
        <ele>175</ele>
        <time>2019-04-02T13:20:00Z</time>
      </trkpt>
      <trkpt lat="47.6672" lon="3.70907">
        <ele>175</ele>
        <time>2019-04-02T13:20:02Z</time>
      </trkpt>
      <trkpt lat="47.66717" lon="3.70907">
        <ele>174</ele>
        <time>2019-04-02T13:20:04Z</time>
      </trkpt>
      <trkpt lat="47.66715" lon="3.70908">
        <ele>174</ele>
        <time>2019-04-02T13:20:06Z</time>
      </trkpt>
      <trkpt lat="47.66711" lon="3.70909">
        <ele>174</ele>
        <time>2019-04-02T13:20:09Z</time>
      </trkpt>
      <trkpt lat="47.66709" lon="3.70909">
        <ele>175</ele>
        <time>2019-04-02T13:20:12Z</time>
      </trkpt>
      <trkpt lat="47.66706" lon="3.7091">
        <ele>175</ele>
        <time>2019-04-02T13:20:14Z</time>
      </trkpt>
      <trkpt lat="47.66701" lon="3.7091">
        <ele>175</ele>
        <time>2019-04-02T13:20:18Z</time>
      </trkpt>
      <trkpt lat="47.66695" lon="3.70912">
        <ele>175</ele>
        <time>2019-04-02T13:20:22Z</time>
      </trkpt>
      <trkpt lat="47.66692" lon="3.70912">
        <ele>175</ele>
        <time>2019-04-02T13:20:24Z</time>
      </trkpt>
      <trkpt lat="47.66689" lon="3.70913">
        <ele>174</ele>
        <time>2019-04-02T13:20:27Z</time>
      </trkpt>
      <trkpt lat="47.66684" lon="3.70914">
        <ele>174</ele>
        <time>2019-04-02T13:20:31Z</time>
      </trkpt>
      <trkpt lat="47.66681" lon="3.70914">
        <ele>174</ele>
        <time>2019-04-02T13:20:32Z</time>
      </trkpt>
      <trkpt lat="47.66678" lon="3.70914">
        <ele>174</ele>
        <time>2019-04-02T13:20:34Z</time>
      </trkpt>
      <trkpt lat="47.66675" lon="3.70914">
        <ele>174</ele>
        <time>2019-04-02T13:20:36Z</time>
      </trkpt>
      <trkpt lat="47.66673" lon="3.70914">
        <ele>174</ele>
        <time>2019-04-02T13:20:39Z</time>
      </trkpt>
      <trkpt lat="47.66668" lon="3.70914">
        <ele>173</ele>
        <time>2019-04-02T13:20:41Z</time>
      </trkpt>
      <trkpt lat="47.66662" lon="3.70915">
        <ele>174</ele>
        <time>2019-04-02T13:20:46Z</time>
      </trkpt>
      <trkpt lat="47.66659" lon="3.70915">
        <ele>174</ele>
        <time>2019-04-02T13:20:49Z</time>
      </trkpt>
      <trkpt lat="47.66656" lon="3.70915">
        <ele>173</ele>
        <time>2019-04-02T13:20:51Z</time>
      </trkpt>
      <trkpt lat="47.66653" lon="3.70916">
        <ele>173</ele>
        <time>2019-04-02T13:20:54Z</time>
      </trkpt>
      <trkpt lat="47.66647" lon="3.70916">
        <ele>173</ele>
        <time>2019-04-02T13:20:58Z</time>
      </trkpt>
      <trkpt lat="47.66642" lon="3.70917">
        <ele>171</ele>
        <time>2019-04-02T13:21:01Z</time>
      </trkpt>
      <trkpt lat="47.66639" lon="3.70918">
        <ele>171</ele>
        <time>2019-04-02T13:21:03Z</time>
      </trkpt>
      <trkpt lat="47.66636" lon="3.70919">
        <ele>171</ele>
        <time>2019-04-02T13:21:06Z</time>
      </trkpt>
      <trkpt lat="47.66631" lon="3.70919">
        <ele>171</ele>
        <time>2019-04-02T13:21:10Z</time>
      </trkpt>
      <trkpt lat="47.66626" lon="3.70921">
        <ele>171</ele>
        <time>2019-04-02T13:21:14Z</time>
      </trkpt>
      <trkpt lat="47.66621" lon="3.7092">
        <ele>172</ele>
        <time>2019-04-02T13:21:18Z</time>
      </trkpt>
      <trkpt lat="47.66618" lon="3.70919">
        <ele>172</ele>
        <time>2019-04-02T13:21:20Z</time>
      </trkpt>
      <trkpt lat="47.66615" lon="3.70919">
        <ele>172</ele>
        <time>2019-04-02T13:21:23Z</time>
      </trkpt>
      <trkpt lat="47.66612" lon="3.70918">
        <ele>171</ele>
        <time>2019-04-02T13:21:26Z</time>
      </trkpt>
      <trkpt lat="47.66607" lon="3.70916">
        <ele>172</ele>
        <time>2019-04-02T13:21:31Z</time>
      </trkpt>
      <trkpt lat="47.66599" lon="3.70914">
        <ele>171</ele>
        <time>2019-04-02T13:21:38Z</time>
      </trkpt>
      <trkpt lat="47.66594" lon="3.70916">
        <ele>170</ele>
        <time>2019-04-02T13:21:43Z</time>
      </trkpt>
      <trkpt lat="47.66593" lon="3.70915">
        <ele>171</ele>
        <time>2019-04-02T13:21:52Z</time>
      </trkpt>
      <trkpt lat="47.66588" lon="3.70923">
        <ele>167</ele>
        <time>2019-04-02T13:23:59Z</time>
      </trkpt>
      <trkpt lat="47.66585" lon="3.70927">
        <ele>167</ele>
        <time>2019-04-02T13:24:02Z</time>
      </trkpt>
      <trkpt lat="47.66583" lon="3.7093">
        <ele>167</ele>
        <time>2019-04-02T13:24:04Z</time>
      </trkpt>
      <trkpt lat="47.66581" lon="3.70933">
        <ele>167</ele>
        <time>2019-04-02T13:24:06Z</time>
      </trkpt>
      <trkpt lat="47.6658" lon="3.70941">
        <ele>167</ele>
        <time>2019-04-02T13:24:11Z</time>
      </trkpt>
      <trkpt lat="47.6658" lon="3.70949">
        <ele>168</ele>
        <time>2019-04-02T13:24:15Z</time>
      </trkpt>
      <trkpt lat="47.66581" lon="3.70954">
        <ele>168</ele>
        <time>2019-04-02T13:24:18Z</time>
      </trkpt>
      <trkpt lat="47.66581" lon="3.7096">
        <ele>169</ele>
        <time>2019-04-02T13:24:21Z</time>
      </trkpt>
      <trkpt lat="47.66581" lon="3.70968">
        <ele>169</ele>
        <time>2019-04-02T13:24:26Z</time>
      </trkpt>
      <trkpt lat="47.6658" lon="3.70972">
        <ele>169</ele>
        <time>2019-04-02T13:24:28Z</time>
      </trkpt>
      <trkpt lat="47.66581" lon="3.70979">
        <ele>170</ele>
        <time>2019-04-02T13:24:32Z</time>
      </trkpt>
      <trkpt lat="47.66576" lon="3.70986">
        <ele>168</ele>
        <time>2019-04-02T13:24:38Z</time>
      </trkpt>
      <trkpt lat="47.66572" lon="3.70986">
        <ele>167</ele>
        <time>2019-04-02T13:24:44Z</time>
      </trkpt>
      <trkpt lat="47.66569" lon="3.70986">
        <ele>168</ele>
        <time>2019-04-02T13:24:47Z</time>
      </trkpt>
      <trkpt lat="47.66564" lon="3.70985">
        <ele>168</ele>
        <time>2019-04-02T13:24:51Z</time>
      </trkpt>
      <trkpt lat="47.66561" lon="3.70985">
        <ele>167</ele>
        <time>2019-04-02T13:24:53Z</time>
      </trkpt>
      <trkpt lat="47.66559" lon="3.70984">
        <ele>167</ele>
        <time>2019-04-02T13:24:55Z</time>
      </trkpt>
      <trkpt lat="47.66554" lon="3.70983">
        <ele>167</ele>
        <time>2019-04-02T13:24:58Z</time>
      </trkpt>
      <trkpt lat="47.66552" lon="3.70982">
        <ele>167</ele>
        <time>2019-04-02T13:25:01Z</time>
      </trkpt>
      <trkpt lat="47.66549" lon="3.70982">
        <ele>166</ele>
        <time>2019-04-02T13:25:03Z</time>
      </trkpt>
      <trkpt lat="47.66546" lon="3.70981">
        <ele>166</ele>
        <time>2019-04-02T13:25:04Z</time>
      </trkpt>
      <trkpt lat="47.6654" lon="3.7098">
        <ele>166</ele>
        <time>2019-04-02T13:25:08Z</time>
      </trkpt>
      <trkpt lat="47.66536" lon="3.70979">
        <ele>165</ele>
        <time>2019-04-02T13:25:12Z</time>
      </trkpt>
      <trkpt lat="47.66533" lon="3.70978">
        <ele>165</ele>
        <time>2019-04-02T13:25:14Z</time>
      </trkpt>
      <trkpt lat="47.66528" lon="3.70977">
        <ele>164</ele>
        <time>2019-04-02T13:25:18Z</time>
      </trkpt>
      <trkpt lat="47.66525" lon="3.70977">
        <ele>164</ele>
        <time>2019-04-02T13:25:20Z</time>
      </trkpt>
      <trkpt lat="47.66521" lon="3.70975">
        <ele>164</ele>
        <time>2019-04-02T13:25:23Z</time>
      </trkpt>
      <trkpt lat="47.66517" lon="3.70975">
        <ele>164</ele>
        <time>2019-04-02T13:25:26Z</time>
      </trkpt>
      <trkpt lat="47.66511" lon="3.70973">
        <ele>165</ele>
        <time>2019-04-02T13:25:32Z</time>
      </trkpt>
      <trkpt lat="47.66504" lon="3.70972">
        <ele>164</ele>
        <time>2019-04-02T13:25:36Z</time>
      </trkpt>
      <trkpt lat="47.66499" lon="3.70971">
        <ele>164</ele>
        <time>2019-04-02T13:25:39Z</time>
      </trkpt>
      <trkpt lat="47.66497" lon="3.70971">
        <ele>164</ele>
        <time>2019-04-02T13:25:42Z</time>
      </trkpt>
      <trkpt lat="47.66494" lon="3.7097">
        <ele>164</ele>
        <time>2019-04-02T13:25:44Z</time>
      </trkpt>
      <trkpt lat="47.66489" lon="3.70969">
        <ele>163</ele>
        <time>2019-04-02T13:25:48Z</time>
      </trkpt>
      <trkpt lat="47.66485" lon="3.70968">
        <ele>163</ele>
        <time>2019-04-02T13:25:52Z</time>
      </trkpt>
      <trkpt lat="47.6648" lon="3.70966">
        <ele>163</ele>
        <time>2019-04-02T13:25:54Z</time>
      </trkpt>
      <trkpt lat="47.66477" lon="3.70965">
        <ele>163</ele>
        <time>2019-04-02T13:25:57Z</time>
      </trkpt>
      <trkpt lat="47.66475" lon="3.70964">
        <ele>163</ele>
        <time>2019-04-02T13:25:59Z</time>
      </trkpt>
      <trkpt lat="47.6647" lon="3.70963">
        <ele>163</ele>
        <time>2019-04-02T13:26:03Z</time>
      </trkpt>
      <trkpt lat="47.66467" lon="3.70962">
        <ele>163</ele>
        <time>2019-04-02T13:26:05Z</time>
      </trkpt>
      <trkpt lat="47.66465" lon="3.70962">
        <ele>163</ele>
        <time>2019-04-02T13:26:07Z</time>
      </trkpt>
      <trkpt lat="47.66462" lon="3.70961">
        <ele>162</ele>
        <time>2019-04-02T13:26:09Z</time>
      </trkpt>
      <trkpt lat="47.66458" lon="3.70961">
        <ele>162</ele>
        <time>2019-04-02T13:26:12Z</time>
      </trkpt>
      <trkpt lat="47.66453" lon="3.7096">
        <ele>162</ele>
        <time>2019-04-02T13:26:17Z</time>
      </trkpt>
      <trkpt lat="47.66449" lon="3.70959">
        <ele>162</ele>
        <time>2019-04-02T13:26:20Z</time>
      </trkpt>
      <trkpt lat="47.66446" lon="3.70958">
        <ele>162</ele>
        <time>2019-04-02T13:26:22Z</time>
      </trkpt>
      <trkpt lat="47.66441" lon="3.70958">
        <ele>162</ele>
        <time>2019-04-02T13:26:25Z</time>
      </trkpt>
      <trkpt lat="47.66437" lon="3.70957">
        <ele>162</ele>
        <time>2019-04-02T13:26:27Z</time>
      </trkpt>
      <trkpt lat="47.66434" lon="3.70956">
        <ele>161</ele>
        <time>2019-04-02T13:26:29Z</time>
      </trkpt>
      <trkpt lat="47.66431" lon="3.70956">
        <ele>161</ele>
        <time>2019-04-02T13:26:31Z</time>
      </trkpt>
      <trkpt lat="47.66426" lon="3.70955">
        <ele>160</ele>
        <time>2019-04-02T13:26:34Z</time>
      </trkpt>
      <trkpt lat="47.6642" lon="3.70954">
        <ele>159</ele>
        <time>2019-04-02T13:26:39Z</time>
      </trkpt>
      <trkpt lat="47.66415" lon="3.70952">
        <ele>159</ele>
        <time>2019-04-02T13:26:42Z</time>
      </trkpt>
      <trkpt lat="47.66412" lon="3.70952">
        <ele>159</ele>
        <time>2019-04-02T13:26:44Z</time>
      </trkpt>
      <trkpt lat="47.66409" lon="3.70951">
        <ele>159</ele>
        <time>2019-04-02T13:26:46Z</time>
      </trkpt>
      <trkpt lat="47.66406" lon="3.70951">
        <ele>159</ele>
        <time>2019-04-02T13:26:48Z</time>
      </trkpt>
      <trkpt lat="47.66402" lon="3.70951">
        <ele>159</ele>
        <time>2019-04-02T13:26:52Z</time>
      </trkpt>
      <trkpt lat="47.66397" lon="3.70949">
        <ele>158</ele>
        <time>2019-04-02T13:26:56Z</time>
      </trkpt>
      <trkpt lat="47.66391" lon="3.70947">
        <ele>159</ele>
        <time>2019-04-02T13:27:00Z</time>
      </trkpt>
      <trkpt lat="47.66387" lon="3.70946">
        <ele>158</ele>
        <time>2019-04-02T13:27:02Z</time>
      </trkpt>
      <trkpt lat="47.66384" lon="3.70945">
        <ele>158</ele>
        <time>2019-04-02T13:27:04Z</time>
      </trkpt>
      <trkpt lat="47.66382" lon="3.70945">
        <ele>158</ele>
        <time>2019-04-02T13:27:06Z</time>
      </trkpt>
      <trkpt lat="47.66377" lon="3.70944">
        <ele>159</ele>
        <time>2019-04-02T13:27:10Z</time>
      </trkpt>
      <trkpt lat="47.66372" lon="3.70944">
        <ele>158</ele>
        <time>2019-04-02T13:27:13Z</time>
      </trkpt>
      <trkpt lat="47.66369" lon="3.70943">
        <ele>158</ele>
        <time>2019-04-02T13:27:15Z</time>
      </trkpt>
      <trkpt lat="47.66364" lon="3.7094">
        <ele>158</ele>
        <time>2019-04-02T13:27:19Z</time>
      </trkpt>
      <trkpt lat="47.66361" lon="3.70939">
        <ele>158</ele>
        <time>2019-04-02T13:27:22Z</time>
      </trkpt>
      <trkpt lat="47.66356" lon="3.70939">
        <ele>159</ele>
        <time>2019-04-02T13:27:26Z</time>
      </trkpt>
      <trkpt lat="47.66351" lon="3.70938">
        <ele>159</ele>
        <time>2019-04-02T13:27:30Z</time>
      </trkpt>
      <trkpt lat="47.66348" lon="3.70937">
        <ele>159</ele>
        <time>2019-04-02T13:27:33Z</time>
      </trkpt>
      <trkpt lat="47.66344" lon="3.70937">
        <ele>160</ele>
        <time>2019-04-02T13:27:36Z</time>
      </trkpt>
      <trkpt lat="47.66342" lon="3.70936">
        <ele>160</ele>
        <time>2019-04-02T13:27:39Z</time>
      </trkpt>
      <trkpt lat="47.66338" lon="3.70935">
        <ele>159</ele>
        <time>2019-04-02T13:27:42Z</time>
      </trkpt>
      <trkpt lat="47.66333" lon="3.70932">
        <ele>159</ele>
        <time>2019-04-02T13:27:46Z</time>
      </trkpt>
      <trkpt lat="47.66329" lon="3.70931">
        <ele>159</ele>
        <time>2019-04-02T13:27:49Z</time>
      </trkpt>
      <trkpt lat="47.66326" lon="3.70929">
        <ele>159</ele>
        <time>2019-04-02T13:27:52Z</time>
      </trkpt>
      <trkpt lat="47.66323" lon="3.70929">
        <ele>159</ele>
        <time>2019-04-02T13:27:54Z</time>
      </trkpt>
      <trkpt lat="47.66318" lon="3.70928">
        <ele>160</ele>
        <time>2019-04-02T13:27:57Z</time>
      </trkpt>
      <trkpt lat="47.66313" lon="3.70927">
        <ele>160</ele>
        <time>2019-04-02T13:28:01Z</time>
      </trkpt>
      <trkpt lat="47.66311" lon="3.70927">
        <ele>161</ele>
        <time>2019-04-02T13:28:03Z</time>
      </trkpt>
      <trkpt lat="47.66306" lon="3.70925">
        <ele>161</ele>
        <time>2019-04-02T13:28:08Z</time>
      </trkpt>
      <trkpt lat="47.66301" lon="3.70925">
        <ele>159</ele>
        <time>2019-04-02T13:28:12Z</time>
      </trkpt>
      <trkpt lat="47.66295" lon="3.70926">
        <ele>158</ele>
        <time>2019-04-02T13:28:17Z</time>
      </trkpt>
      <trkpt lat="47.66292" lon="3.70927">
        <ele>159</ele>
        <time>2019-04-02T13:28:20Z</time>
      </trkpt>
      <trkpt lat="47.66288" lon="3.70924">
        <ele>160</ele>
        <time>2019-04-02T13:28:25Z</time>
      </trkpt>
      <trkpt lat="47.66285" lon="3.70922">
        <ele>160</ele>
        <time>2019-04-02T13:28:27Z</time>
      </trkpt>
      <trkpt lat="47.66281" lon="3.70921">
        <ele>160</ele>
        <time>2019-04-02T13:28:31Z</time>
      </trkpt>
      <trkpt lat="47.66276" lon="3.70919">
        <ele>161</ele>
        <time>2019-04-02T13:28:35Z</time>
      </trkpt>
      <trkpt lat="47.66272" lon="3.70917">
        <ele>161</ele>
        <time>2019-04-02T13:28:38Z</time>
      </trkpt>
      <trkpt lat="47.66267" lon="3.70917">
        <ele>160</ele>
        <time>2019-04-02T13:28:42Z</time>
      </trkpt>
      <trkpt lat="47.66264" lon="3.70916">
        <ele>159</ele>
        <time>2019-04-02T13:28:45Z</time>
      </trkpt>
      <trkpt lat="47.66258" lon="3.70915">
        <ele>160</ele>
        <time>2019-04-02T13:28:50Z</time>
      </trkpt>
      <trkpt lat="47.66256" lon="3.70914">
        <ele>160</ele>
        <time>2019-04-02T13:28:53Z</time>
      </trkpt>
      <trkpt lat="47.66253" lon="3.70914">
        <ele>160</ele>
        <time>2019-04-02T13:28:55Z</time>
      </trkpt>
      <trkpt lat="47.6625" lon="3.70913">
        <ele>160</ele>
        <time>2019-04-02T13:28:57Z</time>
      </trkpt>
      <trkpt lat="47.66246" lon="3.70913">
        <ele>161</ele>
        <time>2019-04-02T13:29:01Z</time>
      </trkpt>
      <trkpt lat="47.66243" lon="3.70913">
        <ele>160</ele>
        <time>2019-04-02T13:29:04Z</time>
      </trkpt>
      <trkpt lat="47.66238" lon="3.70912">
        <ele>159</ele>
        <time>2019-04-02T13:29:08Z</time>
      </trkpt>
      <trkpt lat="47.66235" lon="3.70912">
        <ele>159</ele>
        <time>2019-04-02T13:29:10Z</time>
      </trkpt>
      <trkpt lat="47.66231" lon="3.70911">
        <ele>159</ele>
        <time>2019-04-02T13:29:13Z</time>
      </trkpt>
      <trkpt lat="47.66228" lon="3.7091">
        <ele>160</ele>
        <time>2019-04-02T13:29:16Z</time>
      </trkpt>
      <trkpt lat="47.66223" lon="3.70908">
        <ele>160</ele>
        <time>2019-04-02T13:29:21Z</time>
      </trkpt>
      <trkpt lat="47.66217" lon="3.70905">
        <ele>160</ele>
        <time>2019-04-02T13:29:27Z</time>
      </trkpt>
      <trkpt lat="47.66214" lon="3.70904">
        <ele>160</ele>
        <time>2019-04-02T13:29:29Z</time>
      </trkpt>
      <trkpt lat="47.66211" lon="3.70902">
        <ele>161</ele>
        <time>2019-04-02T13:29:32Z</time>
      </trkpt>
      <trkpt lat="47.66206" lon="3.70901">
        <ele>161</ele>
        <time>2019-04-02T13:29:35Z</time>
      </trkpt>
      <trkpt lat="47.66201" lon="3.70901">
        <ele>161</ele>
        <time>2019-04-02T13:29:39Z</time>
      </trkpt>
      <trkpt lat="47.66198" lon="3.709">
        <ele>162</ele>
        <time>2019-04-02T13:29:42Z</time>
      </trkpt>
      <trkpt lat="47.66193" lon="3.70898">
        <ele>162</ele>
        <time>2019-04-02T13:29:47Z</time>
      </trkpt>
      <trkpt lat="47.66189" lon="3.70896">
        <ele>162</ele>
        <time>2019-04-02T13:29:50Z</time>
      </trkpt>
      <trkpt lat="47.66185" lon="3.70895">
        <ele>162</ele>
        <time>2019-04-02T13:29:53Z</time>
      </trkpt>
      <trkpt lat="47.6618" lon="3.70896">
        <ele>162</ele>
        <time>2019-04-02T13:29:57Z</time>
      </trkpt>
      <trkpt lat="47.66173" lon="3.709">
        <ele>162</ele>
        <time>2019-04-02T13:30:03Z</time>
      </trkpt>
      <trkpt lat="47.66169" lon="3.70906">
        <ele>162</ele>
        <time>2019-04-02T13:30:07Z</time>
      </trkpt>
      <trkpt lat="47.66167" lon="3.70913">
        <ele>162</ele>
        <time>2019-04-02T13:30:11Z</time>
      </trkpt>
      <trkpt lat="47.66167" lon="3.70922">
        <ele>161</ele>
        <time>2019-04-02T13:30:15Z</time>
      </trkpt>
      <trkpt lat="47.66168" lon="3.7093">
        <ele>162</ele>
        <time>2019-04-02T13:30:20Z</time>
      </trkpt>
      <trkpt lat="47.66169" lon="3.70934">
        <ele>163</ele>
        <time>2019-04-02T13:30:28Z</time>
      </trkpt>
      <trkpt lat="47.66169" lon="3.70937">
        <ele>162</ele>
        <time>2019-04-02T13:30:30Z</time>
      </trkpt>
      <trkpt lat="47.66172" lon="3.70945">
        <ele>162</ele>
        <time>2019-04-02T13:30:35Z</time>
      </trkpt>
      <trkpt lat="47.66174" lon="3.70952">
        <ele>162</ele>
        <time>2019-04-02T13:30:40Z</time>
      </trkpt>
      <trkpt lat="47.66176" lon="3.70956">
        <ele>163</ele>
        <time>2019-04-02T13:30:42Z</time>
      </trkpt>
      <trkpt lat="47.66179" lon="3.70962">
        <ele>163</ele>
        <time>2019-04-02T13:30:46Z</time>
      </trkpt>
      <trkpt lat="47.66179" lon="3.7097">
        <ele>163</ele>
        <time>2019-04-02T13:30:50Z</time>
      </trkpt>
      <trkpt lat="47.66179" lon="3.70979">
        <ele>163</ele>
        <time>2019-04-02T13:30:54Z</time>
      </trkpt>
      <trkpt lat="47.66179" lon="3.70987">
        <ele>163</ele>
        <time>2019-04-02T13:30:58Z</time>
      </trkpt>
      <trkpt lat="47.66179" lon="3.7099">
        <ele>163</ele>
        <time>2019-04-02T13:31:00Z</time>
      </trkpt>
      <trkpt lat="47.66179" lon="3.70998">
        <ele>161</ele>
        <time>2019-04-02T13:31:04Z</time>
      </trkpt>
      <trkpt lat="47.66178" lon="3.71006">
        <ele>159</ele>
        <time>2019-04-02T13:31:08Z</time>
      </trkpt>
      <trkpt lat="47.66177" lon="3.7101">
        <ele>158</ele>
        <time>2019-04-02T13:31:10Z</time>
      </trkpt>
      <trkpt lat="47.66177" lon="3.71015">
        <ele>159</ele>
        <time>2019-04-02T13:31:13Z</time>
      </trkpt>
      <trkpt lat="47.66177" lon="3.71025">
        <ele>159</ele>
        <time>2019-04-02T13:31:19Z</time>
      </trkpt>
      <trkpt lat="47.66176" lon="3.71032">
        <ele>159</ele>
        <time>2019-04-02T13:31:23Z</time>
      </trkpt>
      <trkpt lat="47.66177" lon="3.71041">
        <ele>159</ele>
        <time>2019-04-02T13:31:26Z</time>
      </trkpt>
      <trkpt lat="47.66178" lon="3.71048">
        <ele>159</ele>
        <time>2019-04-02T13:31:31Z</time>
      </trkpt>
      <trkpt lat="47.66178" lon="3.71052">
        <ele>160</ele>
        <time>2019-04-02T13:31:33Z</time>
      </trkpt>
      <trkpt lat="47.66179" lon="3.71055">
        <ele>160</ele>
        <time>2019-04-02T13:31:35Z</time>
      </trkpt>
      <trkpt lat="47.66178" lon="3.71064">
        <ele>160</ele>
        <time>2019-04-02T13:31:39Z</time>
      </trkpt>
      <trkpt lat="47.66176" lon="3.71071">
        <ele>158</ele>
        <time>2019-04-02T13:31:43Z</time>
      </trkpt>
      <trkpt lat="47.66171" lon="3.71078">
        <ele>160</ele>
        <time>2019-04-02T13:31:48Z</time>
      </trkpt>
      <trkpt lat="47.6617" lon="3.71084">
        <ele>160</ele>
        <time>2019-04-02T13:31:51Z</time>
      </trkpt>
      <trkpt lat="47.6617" lon="3.71093">
        <ele>158</ele>
        <time>2019-04-02T13:31:56Z</time>
      </trkpt>
      <trkpt lat="47.66167" lon="3.71098">
        <ele>156</ele>
        <time>2019-04-02T13:32:00Z</time>
      </trkpt>
      <trkpt lat="47.66165" lon="3.71101">
        <ele>156</ele>
        <time>2019-04-02T13:32:03Z</time>
      </trkpt>
      <trkpt lat="47.66161" lon="3.71105">
        <ele>156</ele>
        <time>2019-04-02T13:32:07Z</time>
      </trkpt>
      <trkpt lat="47.66155" lon="3.7111">
        <ele>156</ele>
        <time>2019-04-02T13:32:13Z</time>
      </trkpt>
      <trkpt lat="47.6615" lon="3.71112">
        <ele>157</ele>
        <time>2019-04-02T13:32:18Z</time>
      </trkpt>
      <trkpt lat="47.66146" lon="3.71114">
        <ele>157</ele>
        <time>2019-04-02T13:32:22Z</time>
      </trkpt>
      <trkpt lat="47.66144" lon="3.71115">
        <ele>157</ele>
        <time>2019-04-02T13:32:24Z</time>
      </trkpt>
      <trkpt lat="47.6614" lon="3.71119">
        <ele>157</ele>
        <time>2019-04-02T13:32:28Z</time>
      </trkpt>
      <trkpt lat="47.66135" lon="3.71121">
        <ele>158</ele>
        <time>2019-04-02T13:32:32Z</time>
      </trkpt>
      <trkpt lat="47.66133" lon="3.71122">
        <ele>159</ele>
        <time>2019-04-02T13:32:34Z</time>
      </trkpt>
      <trkpt lat="47.66126" lon="3.71125">
        <ele>158</ele>
        <time>2019-04-02T13:32:39Z</time>
      </trkpt>
      <trkpt lat="47.66121" lon="3.71126">
        <ele>157</ele>
        <time>2019-04-02T13:32:42Z</time>
      </trkpt>
      <trkpt lat="47.66116" lon="3.7113">
        <ele>157</ele>
        <time>2019-04-02T13:32:45Z</time>
      </trkpt>
      <trkpt lat="47.66113" lon="3.71133">
        <ele>155</ele>
        <time>2019-04-02T13:32:47Z</time>
      </trkpt>
      <trkpt lat="47.6611" lon="3.71136">
        <ele>155</ele>
        <time>2019-04-02T13:32:49Z</time>
      </trkpt>
      <trkpt lat="47.66108" lon="3.71138">
        <ele>155</ele>
        <time>2019-04-02T13:32:51Z</time>
      </trkpt>
      <trkpt lat="47.66104" lon="3.71141">
        <ele>154</ele>
        <time>2019-04-02T13:32:54Z</time>
      </trkpt>
      <trkpt lat="47.661" lon="3.71145">
        <ele>155</ele>
        <time>2019-04-02T13:32:59Z</time>
      </trkpt>
      <trkpt lat="47.66098" lon="3.71148">
        <ele>156</ele>
        <time>2019-04-02T13:33:01Z</time>
      </trkpt>
      <trkpt lat="47.66094" lon="3.71151">
        <ele>155</ele>
        <time>2019-04-02T13:33:04Z</time>
      </trkpt>
      <trkpt lat="47.66088" lon="3.71154">
        <ele>155</ele>
        <time>2019-04-02T13:33:09Z</time>
      </trkpt>
      <trkpt lat="47.66085" lon="3.71155">
        <ele>154</ele>
        <time>2019-04-02T13:33:11Z</time>
      </trkpt>
      <trkpt lat="47.66081" lon="3.71158">
        <ele>156</ele>
        <time>2019-04-02T13:33:16Z</time>
      </trkpt>
      <trkpt lat="47.66075" lon="3.71165">
        <ele>157</ele>
        <time>2019-04-02T13:33:20Z</time>
      </trkpt>
      <trkpt lat="47.66071" lon="3.71169">
        <ele>157</ele>
        <time>2019-04-02T13:33:23Z</time>
      </trkpt>
      <trkpt lat="47.66066" lon="3.71171">
        <ele>157</ele>
        <time>2019-04-02T13:33:27Z</time>
      </trkpt>
      <trkpt lat="47.66062" lon="3.71175">
        <ele>159</ele>
        <time>2019-04-02T13:33:32Z</time>
      </trkpt>
      <trkpt lat="47.66059" lon="3.71177">
        <ele>159</ele>
        <time>2019-04-02T13:33:35Z</time>
      </trkpt>
      <trkpt lat="47.66057" lon="3.71183">
        <ele>159</ele>
        <time>2019-04-02T13:33:38Z</time>
      </trkpt>
      <trkpt lat="47.66052" lon="3.71191">
        <ele>160</ele>
        <time>2019-04-02T13:33:43Z</time>
      </trkpt>
      <trkpt lat="47.6605" lon="3.71194">
        <ele>161</ele>
        <time>2019-04-02T13:33:46Z</time>
      </trkpt>
      <trkpt lat="47.66046" lon="3.712">
        <ele>161</ele>
        <time>2019-04-02T13:33:49Z</time>
      </trkpt>
      <trkpt lat="47.66044" lon="3.71203">
        <ele>162</ele>
        <time>2019-04-02T13:33:51Z</time>
      </trkpt>
      <trkpt lat="47.66041" lon="3.7121">
        <ele>163</ele>
        <time>2019-04-02T13:33:56Z</time>
      </trkpt>
      <trkpt lat="47.66039" lon="3.71213">
        <ele>163</ele>
        <time>2019-04-02T13:33:59Z</time>
      </trkpt>
      <trkpt lat="47.66036" lon="3.71219">
        <ele>163</ele>
        <time>2019-04-02T13:34:03Z</time>
      </trkpt>
      <trkpt lat="47.66033" lon="3.71225">
        <ele>163</ele>
        <time>2019-04-02T13:34:06Z</time>
      </trkpt>
      <trkpt lat="47.66032" lon="3.71228">
        <ele>162</ele>
        <time>2019-04-02T13:34:08Z</time>
      </trkpt>
      <trkpt lat="47.66028" lon="3.71233">
        <ele>162</ele>
        <time>2019-04-02T13:34:12Z</time>
      </trkpt>
      <trkpt lat="47.66024" lon="3.71238">
        <ele>162</ele>
        <time>2019-04-02T13:34:16Z</time>
      </trkpt>
      <trkpt lat="47.6602" lon="3.71242">
        <ele>163</ele>
        <time>2019-04-02T13:34:19Z</time>
      </trkpt>
      <trkpt lat="47.66018" lon="3.71244">
        <ele>163</ele>
        <time>2019-04-02T13:34:21Z</time>
      </trkpt>
      <trkpt lat="47.66016" lon="3.71247">
        <ele>162</ele>
        <time>2019-04-02T13:34:24Z</time>
      </trkpt>
      <trkpt lat="47.66013" lon="3.71249">
        <ele>163</ele>
        <time>2019-04-02T13:34:26Z</time>
      </trkpt>
      <trkpt lat="47.66011" lon="3.71251">
        <ele>162</ele>
        <time>2019-04-02T13:34:28Z</time>
      </trkpt>
      <trkpt lat="47.66009" lon="3.71252">
        <ele>162</ele>
        <time>2019-04-02T13:34:30Z</time>
      </trkpt>
      <trkpt lat="47.66006" lon="3.71254">
        <ele>163</ele>
        <time>2019-04-02T13:34:32Z</time>
      </trkpt>
      <trkpt lat="47.66004" lon="3.71256">
        <ele>163</ele>
        <time>2019-04-02T13:34:34Z</time>
      </trkpt>
      <trkpt lat="47.66" lon="3.71258">
        <ele>163</ele>
        <time>2019-04-02T13:34:36Z</time>
      </trkpt>
      <trkpt lat="47.65997" lon="3.7126">
        <ele>164</ele>
        <time>2019-04-02T13:34:39Z</time>
      </trkpt>
      <trkpt lat="47.65993" lon="3.71265">
        <ele>163</ele>
        <time>2019-04-02T13:34:43Z</time>
      </trkpt>
      <trkpt lat="47.65989" lon="3.71268">
        <ele>165</ele>
        <time>2019-04-02T13:34:47Z</time>
      </trkpt>
      <trkpt lat="47.65984" lon="3.7127">
        <ele>165</ele>
        <time>2019-04-02T13:34:52Z</time>
      </trkpt>
      <trkpt lat="47.65979" lon="3.71275">
        <ele>166</ele>
        <time>2019-04-02T13:34:56Z</time>
      </trkpt>
      <trkpt lat="47.65976" lon="3.71277">
        <ele>167</ele>
        <time>2019-04-02T13:34:59Z</time>
      </trkpt>
      <trkpt lat="47.65973" lon="3.71283">
        <ele>168</ele>
        <time>2019-04-02T13:35:03Z</time>
      </trkpt>
      <trkpt lat="47.65971" lon="3.7129">
        <ele>169</ele>
        <time>2019-04-02T13:35:06Z</time>
      </trkpt>
      <trkpt lat="47.6597" lon="3.713">
        <ele>168</ele>
        <time>2019-04-02T13:35:10Z</time>
      </trkpt>
      <trkpt lat="47.65967" lon="3.71307">
        <ele>168</ele>
        <time>2019-04-02T13:35:15Z</time>
      </trkpt>
      <trkpt lat="47.65966" lon="3.71314">
        <ele>170</ele>
        <time>2019-04-02T13:35:19Z</time>
      </trkpt>
      <trkpt lat="47.65965" lon="3.7132">
        <ele>170</ele>
        <time>2019-04-02T13:35:21Z</time>
      </trkpt>
      <trkpt lat="47.65964" lon="3.71325">
        <ele>169</ele>
        <time>2019-04-02T13:35:23Z</time>
      </trkpt>
      <trkpt lat="47.65963" lon="3.7133">
        <ele>170</ele>
        <time>2019-04-02T13:35:25Z</time>
      </trkpt>
      <trkpt lat="47.65962" lon="3.71334">
        <ele>170</ele>
        <time>2019-04-02T13:35:27Z</time>
      </trkpt>
      <trkpt lat="47.65961" lon="3.71339">
        <ele>170</ele>
        <time>2019-04-02T13:35:29Z</time>
      </trkpt>
      <trkpt lat="47.6596" lon="3.71343">
        <ele>169</ele>
        <time>2019-04-02T13:35:31Z</time>
      </trkpt>
      <trkpt lat="47.6596" lon="3.71348">
        <ele>169</ele>
        <time>2019-04-02T13:35:34Z</time>
      </trkpt>
      <trkpt lat="47.65957" lon="3.71355">
        <ele>168</ele>
        <time>2019-04-02T13:35:38Z</time>
      </trkpt>
      <trkpt lat="47.65954" lon="3.71362">
        <ele>168</ele>
        <time>2019-04-02T13:35:42Z</time>
      </trkpt>
      <trkpt lat="47.65951" lon="3.71368">
        <ele>166</ele>
        <time>2019-04-02T13:35:45Z</time>
      </trkpt>
      <trkpt lat="47.65949" lon="3.71375">
        <ele>167</ele>
        <time>2019-04-02T13:35:48Z</time>
      </trkpt>
      <trkpt lat="47.65947" lon="3.71378">
        <ele>167</ele>
        <time>2019-04-02T13:35:50Z</time>
      </trkpt>
      <trkpt lat="47.65945" lon="3.71385">
        <ele>166</ele>
        <time>2019-04-02T13:35:54Z</time>
      </trkpt>
      <trkpt lat="47.65945" lon="3.71388">
        <ele>166</ele>
        <time>2019-04-02T13:35:56Z</time>
      </trkpt>
      <trkpt lat="47.65943" lon="3.71394">
        <ele>166</ele>
        <time>2019-04-02T13:36:00Z</time>
      </trkpt>
      <trkpt lat="47.6594" lon="3.714">
        <ele>167</ele>
        <time>2019-04-02T13:36:04Z</time>
      </trkpt>
      <trkpt lat="47.65937" lon="3.71408">
        <ele>168</ele>
        <time>2019-04-02T13:36:07Z</time>
      </trkpt>
      <trkpt lat="47.65934" lon="3.71414">
        <ele>167</ele>
        <time>2019-04-02T13:36:12Z</time>
      </trkpt>
      <trkpt lat="47.65932" lon="3.71418">
        <ele>168</ele>
        <time>2019-04-02T13:36:14Z</time>
      </trkpt>
      <trkpt lat="47.6593" lon="3.71424">
        <ele>168</ele>
        <time>2019-04-02T13:36:18Z</time>
      </trkpt>
      <trkpt lat="47.65927" lon="3.71431">
        <ele>167</ele>
        <time>2019-04-02T13:36:22Z</time>
      </trkpt>
      <trkpt lat="47.65925" lon="3.71434">
        <ele>167</ele>
        <time>2019-04-02T13:36:24Z</time>
      </trkpt>
      <trkpt lat="47.65923" lon="3.71442">
        <ele>167</ele>
        <time>2019-04-02T13:36:27Z</time>
      </trkpt>
      <trkpt lat="47.65921" lon="3.71448">
        <ele>167</ele>
        <time>2019-04-02T13:36:31Z</time>
      </trkpt>
      <trkpt lat="47.6592" lon="3.71452">
        <ele>167</ele>
        <time>2019-04-02T13:36:32Z</time>
      </trkpt>
      <trkpt lat="47.65918" lon="3.71458">
        <ele>166</ele>
        <time>2019-04-02T13:36:36Z</time>
      </trkpt>
      <trkpt lat="47.65918" lon="3.71463">
        <ele>166</ele>
        <time>2019-04-02T13:36:38Z</time>
      </trkpt>
      <trkpt lat="47.65915" lon="3.71469">
        <ele>166</ele>
        <time>2019-04-02T13:36:41Z</time>
      </trkpt>
      <trkpt lat="47.65914" lon="3.71474">
        <ele>165</ele>
        <time>2019-04-02T13:36:44Z</time>
      </trkpt>
      <trkpt lat="47.65913" lon="3.71477">
        <ele>164</ele>
        <time>2019-04-02T13:36:46Z</time>
      </trkpt>
      <trkpt lat="47.65912" lon="3.71481">
        <ele>165</ele>
        <time>2019-04-02T13:36:48Z</time>
      </trkpt>
      <trkpt lat="47.65911" lon="3.71484">
        <ele>165</ele>
        <time>2019-04-02T13:36:50Z</time>
      </trkpt>
      <trkpt lat="47.65909" lon="3.71491">
        <ele>165</ele>
        <time>2019-04-02T13:36:53Z</time>
      </trkpt>
      <trkpt lat="47.65908" lon="3.71496">
        <ele>164</ele>
        <time>2019-04-02T13:36:55Z</time>
      </trkpt>
      <trkpt lat="47.65907" lon="3.715">
        <ele>164</ele>
        <time>2019-04-02T13:36:58Z</time>
      </trkpt>
      <trkpt lat="47.65905" lon="3.71506">
        <ele>165</ele>
        <time>2019-04-02T13:37:01Z</time>
      </trkpt>
      <trkpt lat="47.65901" lon="3.7151">
        <ele>164</ele>
        <time>2019-04-02T13:37:03Z</time>
      </trkpt>
      <trkpt lat="47.65899" lon="3.71513">
        <ele>163</ele>
        <time>2019-04-02T13:37:05Z</time>
      </trkpt>
      <trkpt lat="47.65896" lon="3.71516">
        <ele>164</ele>
        <time>2019-04-02T13:37:09Z</time>
      </trkpt>
      <trkpt lat="47.65893" lon="3.71522">
        <ele>164</ele>
        <time>2019-04-02T13:37:11Z</time>
      </trkpt>
      <trkpt lat="47.65892" lon="3.71524">
        <ele>165</ele>
        <time>2019-04-02T13:37:13Z</time>
      </trkpt>
      <trkpt lat="47.65889" lon="3.71528">
        <ele>166</ele>
        <time>2019-04-02T13:37:16Z</time>
      </trkpt>
      <trkpt lat="47.65887" lon="3.71536">
        <ele>167</ele>
        <time>2019-04-02T13:37:20Z</time>
      </trkpt>
      <trkpt lat="47.65884" lon="3.71541">
        <ele>167</ele>
        <time>2019-04-02T13:37:23Z</time>
      </trkpt>
      <trkpt lat="47.6588" lon="3.71547">
        <ele>168</ele>
        <time>2019-04-02T13:37:27Z</time>
      </trkpt>
      <trkpt lat="47.65877" lon="3.71553">
        <ele>169</ele>
        <time>2019-04-02T13:37:32Z</time>
      </trkpt>
      <trkpt lat="47.65874" lon="3.7156">
        <ele>169</ele>
        <time>2019-04-02T13:37:36Z</time>
      </trkpt>
      <trkpt lat="47.65869" lon="3.71566">
        <ele>169</ele>
        <time>2019-04-02T13:37:40Z</time>
      </trkpt>
      <trkpt lat="47.65865" lon="3.71572">
        <ele>169</ele>
        <time>2019-04-02T13:37:44Z</time>
      </trkpt>
      <trkpt lat="47.65862" lon="3.71577">
        <ele>169</ele>
        <time>2019-04-02T13:37:47Z</time>
      </trkpt>
      <trkpt lat="47.6586" lon="3.71582">
        <ele>168</ele>
        <time>2019-04-02T13:37:51Z</time>
      </trkpt>
      <trkpt lat="47.65857" lon="3.71587">
        <ele>169</ele>
        <time>2019-04-02T13:37:54Z</time>
      </trkpt>
      <trkpt lat="47.65856" lon="3.71591">
        <ele>168</ele>
        <time>2019-04-02T13:37:55Z</time>
      </trkpt>
      <trkpt lat="47.65854" lon="3.71594">
        <ele>168</ele>
        <time>2019-04-02T13:37:57Z</time>
      </trkpt>
      <trkpt lat="47.65852" lon="3.71598">
        <ele>168</ele>
        <time>2019-04-02T13:37:59Z</time>
      </trkpt>
      <trkpt lat="47.65849" lon="3.71605">
        <ele>168</ele>
        <time>2019-04-02T13:38:03Z</time>
      </trkpt>
      <trkpt lat="47.65846" lon="3.7161">
        <ele>169</ele>
        <time>2019-04-02T13:38:07Z</time>
      </trkpt>
      <trkpt lat="47.65843" lon="3.71617">
        <ele>169</ele>
        <time>2019-04-02T13:38:11Z</time>
      </trkpt>
      <trkpt lat="47.65841" lon="3.71622">
        <ele>169</ele>
        <time>2019-04-02T13:38:14Z</time>
      </trkpt>
      <trkpt lat="47.65838" lon="3.71627">
        <ele>169</ele>
        <time>2019-04-02T13:38:17Z</time>
      </trkpt>
      <trkpt lat="47.65836" lon="3.71631">
        <ele>169</ele>
        <time>2019-04-02T13:38:19Z</time>
      </trkpt>
      <trkpt lat="47.65832" lon="3.71636">
        <ele>169</ele>
        <time>2019-04-02T13:38:23Z</time>
      </trkpt>
      <trkpt lat="47.6583" lon="3.7164">
        <ele>169</ele>
        <time>2019-04-02T13:38:25Z</time>
      </trkpt>
      <trkpt lat="47.65827" lon="3.71647">
        <ele>168</ele>
        <time>2019-04-02T13:38:29Z</time>
      </trkpt>
      <trkpt lat="47.65824" lon="3.71654">
        <ele>168</ele>
        <time>2019-04-02T13:38:33Z</time>
      </trkpt>
      <trkpt lat="47.65823" lon="3.71657">
        <ele>168</ele>
        <time>2019-04-02T13:38:35Z</time>
      </trkpt>
      <trkpt lat="47.6582" lon="3.71663">
        <ele>167</ele>
        <time>2019-04-02T13:38:39Z</time>
      </trkpt>
      <trkpt lat="47.65818" lon="3.71666">
        <ele>167</ele>
        <time>2019-04-02T13:38:41Z</time>
      </trkpt>
      <trkpt lat="47.65816" lon="3.71669">
        <ele>167</ele>
        <time>2019-04-02T13:38:44Z</time>
      </trkpt>
      <trkpt lat="47.65815" lon="3.71672">
        <ele>168</ele>
        <time>2019-04-02T13:38:46Z</time>
      </trkpt>
      <trkpt lat="47.65812" lon="3.71677">
        <ele>167</ele>
        <time>2019-04-02T13:38:49Z</time>
      </trkpt>
      <trkpt lat="47.6581" lon="3.71683">
        <ele>167</ele>
        <time>2019-04-02T13:38:52Z</time>
      </trkpt>
      <trkpt lat="47.65807" lon="3.7169">
        <ele>167</ele>
        <time>2019-04-02T13:38:56Z</time>
      </trkpt>
      <trkpt lat="47.65806" lon="3.71694">
        <ele>167</ele>
        <time>2019-04-02T13:38:58Z</time>
      </trkpt>
      <trkpt lat="47.65803" lon="3.71701">
        <ele>168</ele>
        <time>2019-04-02T13:39:02Z</time>
      </trkpt>
      <trkpt lat="47.65801" lon="3.71704">
        <ele>168</ele>
        <time>2019-04-02T13:39:04Z</time>
      </trkpt>
      <trkpt lat="47.658" lon="3.71707">
        <ele>169</ele>
        <time>2019-04-02T13:39:06Z</time>
      </trkpt>
      <trkpt lat="47.65797" lon="3.71714">
        <ele>169</ele>
        <time>2019-04-02T13:39:10Z</time>
      </trkpt>
      <trkpt lat="47.65795" lon="3.71718">
        <ele>169</ele>
        <time>2019-04-02T13:39:12Z</time>
      </trkpt>
      <trkpt lat="47.65794" lon="3.71722">
        <ele>169</ele>
        <time>2019-04-02T13:39:14Z</time>
      </trkpt>
      <trkpt lat="47.65792" lon="3.71726">
        <ele>168</ele>
        <time>2019-04-02T13:39:16Z</time>
      </trkpt>
      <trkpt lat="47.65791" lon="3.71729">
        <ele>169</ele>
        <time>2019-04-02T13:39:18Z</time>
      </trkpt>
      <trkpt lat="47.65788" lon="3.71734">
        <ele>168</ele>
        <time>2019-04-02T13:39:21Z</time>
      </trkpt>
      <trkpt lat="47.65786" lon="3.71741">
        <ele>169</ele>
        <time>2019-04-02T13:39:25Z</time>
      </trkpt>
      <trkpt lat="47.65785" lon="3.71745">
        <ele>169</ele>
        <time>2019-04-02T13:39:27Z</time>
      </trkpt>
      <trkpt lat="47.65783" lon="3.71754">
        <ele>170</ele>
        <time>2019-04-02T13:39:31Z</time>
      </trkpt>
      <trkpt lat="47.6578" lon="3.71761">
        <ele>170</ele>
        <time>2019-04-02T13:39:34Z</time>
      </trkpt>
      <trkpt lat="47.65779" lon="3.71768">
        <ele>170</ele>
        <time>2019-04-02T13:39:37Z</time>
      </trkpt>
      <trkpt lat="47.65776" lon="3.71773">
        <ele>170</ele>
        <time>2019-04-02T13:39:40Z</time>
      </trkpt>
      <trkpt lat="47.65775" lon="3.71776">
        <ele>171</ele>
        <time>2019-04-02T13:39:42Z</time>
      </trkpt>
      <trkpt lat="47.65772" lon="3.71783">
        <ele>170</ele>
        <time>2019-04-02T13:39:45Z</time>
      </trkpt>
      <trkpt lat="47.6577" lon="3.71788">
        <ele>170</ele>
        <time>2019-04-02T13:39:48Z</time>
      </trkpt>
      <trkpt lat="47.65768" lon="3.71794">
        <ele>171</ele>
        <time>2019-04-02T13:39:51Z</time>
      </trkpt>
      <trkpt lat="47.65767" lon="3.71799">
        <ele>171</ele>
        <time>2019-04-02T13:39:54Z</time>
      </trkpt>
      <trkpt lat="47.65765" lon="3.71806">
        <ele>172</ele>
        <time>2019-04-02T13:39:58Z</time>
      </trkpt>
      <trkpt lat="47.65764" lon="3.71813">
        <ele>172</ele>
        <time>2019-04-02T13:40:01Z</time>
      </trkpt>
      <trkpt lat="47.65762" lon="3.71821">
        <ele>173</ele>
        <time>2019-04-02T13:40:05Z</time>
      </trkpt>
      <trkpt lat="47.6576" lon="3.71827">
        <ele>173</ele>
        <time>2019-04-02T13:40:08Z</time>
      </trkpt>
      <trkpt lat="47.65759" lon="3.71833">
        <ele>173</ele>
        <time>2019-04-02T13:40:11Z</time>
      </trkpt>
      <trkpt lat="47.65758" lon="3.71837">
        <ele>173</ele>
        <time>2019-04-02T13:40:13Z</time>
      </trkpt>
      <trkpt lat="47.65757" lon="3.71841">
        <ele>173</ele>
        <time>2019-04-02T13:40:15Z</time>
      </trkpt>
      <trkpt lat="47.65756" lon="3.71846">
        <ele>173</ele>
        <time>2019-04-02T13:40:18Z</time>
      </trkpt>
      <trkpt lat="47.65755" lon="3.71849">
        <ele>173</ele>
        <time>2019-04-02T13:40:20Z</time>
      </trkpt>
      <trkpt lat="47.65753" lon="3.71856">
        <ele>173</ele>
        <time>2019-04-02T13:40:24Z</time>
      </trkpt>
      <trkpt lat="47.65751" lon="3.71862">
        <ele>173</ele>
        <time>2019-04-02T13:40:27Z</time>
      </trkpt>
      <trkpt lat="47.6575" lon="3.71866">
        <ele>172</ele>
        <time>2019-04-02T13:40:29Z</time>
      </trkpt>
      <trkpt lat="47.65749" lon="3.71874">
        <ele>173</ele>
        <time>2019-04-02T13:40:32Z</time>
      </trkpt>
      <trkpt lat="47.65747" lon="3.71882">
        <ele>173</ele>
        <time>2019-04-02T13:40:37Z</time>
      </trkpt>
      <trkpt lat="47.65746" lon="3.71886">
        <ele>173</ele>
        <time>2019-04-02T13:40:39Z</time>
      </trkpt>
      <trkpt lat="47.65745" lon="3.7189">
        <ele>173</ele>
        <time>2019-04-02T13:40:40Z</time>
      </trkpt>
      <trkpt lat="47.65744" lon="3.71896">
        <ele>174</ele>
        <time>2019-04-02T13:40:44Z</time>
      </trkpt>
      <trkpt lat="47.65742" lon="3.71902">
        <ele>173</ele>
        <time>2019-04-02T13:40:47Z</time>
      </trkpt>
      <trkpt lat="47.65741" lon="3.71906">
        <ele>173</ele>
        <time>2019-04-02T13:40:49Z</time>
      </trkpt>
      <trkpt lat="47.65739" lon="3.71916">
        <ele>173</ele>
        <time>2019-04-02T13:40:54Z</time>
      </trkpt>
      <trkpt lat="47.65738" lon="3.7192">
        <ele>173</ele>
        <time>2019-04-02T13:40:55Z</time>
      </trkpt>
      <trkpt lat="47.65737" lon="3.71924">
        <ele>174</ele>
        <time>2019-04-02T13:40:58Z</time>
      </trkpt>
      <trkpt lat="47.65736" lon="3.71927">
        <ele>174</ele>
        <time>2019-04-02T13:41:00Z</time>
      </trkpt>
      <trkpt lat="47.65735" lon="3.71936">
        <ele>173</ele>
        <time>2019-04-02T13:41:03Z</time>
      </trkpt>
      <trkpt lat="47.65732" lon="3.71943">
        <ele>173</ele>
        <time>2019-04-02T13:41:08Z</time>
      </trkpt>
      <trkpt lat="47.6573" lon="3.71951">
        <ele>173</ele>
        <time>2019-04-02T13:41:11Z</time>
      </trkpt>
      <trkpt lat="47.65729" lon="3.71955">
        <ele>173</ele>
        <time>2019-04-02T13:41:13Z</time>
      </trkpt>
      <trkpt lat="47.65728" lon="3.71961">
        <ele>174</ele>
        <time>2019-04-02T13:41:16Z</time>
      </trkpt>
      <trkpt lat="47.65727" lon="3.71968">
        <ele>174</ele>
        <time>2019-04-02T13:41:20Z</time>
      </trkpt>
      <trkpt lat="47.65725" lon="3.71976">
        <ele>174</ele>
        <time>2019-04-02T13:41:24Z</time>
      </trkpt>
      <trkpt lat="47.65724" lon="3.71984">
        <ele>174</ele>
        <time>2019-04-02T13:41:28Z</time>
      </trkpt>
      <trkpt lat="47.65723" lon="3.71989">
        <ele>175</ele>
        <time>2019-04-02T13:41:31Z</time>
      </trkpt>
      <trkpt lat="47.65722" lon="3.71993">
        <ele>174</ele>
        <time>2019-04-02T13:41:33Z</time>
      </trkpt>
      <trkpt lat="47.65722" lon="3.71997">
        <ele>175</ele>
        <time>2019-04-02T13:41:34Z</time>
      </trkpt>
      <trkpt lat="47.6572" lon="3.72004">
        <ele>175</ele>
        <time>2019-04-02T13:41:38Z</time>
      </trkpt>
      <trkpt lat="47.65718" lon="3.72012">
        <ele>176</ele>
        <time>2019-04-02T13:41:42Z</time>
      </trkpt>
      <trkpt lat="47.65716" lon="3.7202">
        <ele>176</ele>
        <time>2019-04-02T13:41:46Z</time>
      </trkpt>
      <trkpt lat="47.65715" lon="3.72027">
        <ele>176</ele>
        <time>2019-04-02T13:41:49Z</time>
      </trkpt>
      <trkpt lat="47.65714" lon="3.72031">
        <ele>175</ele>
        <time>2019-04-02T13:41:51Z</time>
      </trkpt>
      <trkpt lat="47.65713" lon="3.72034">
        <ele>175</ele>
        <time>2019-04-02T13:41:54Z</time>
      </trkpt>
      <trkpt lat="47.65711" lon="3.72042">
        <ele>174</ele>
        <time>2019-04-02T13:41:58Z</time>
      </trkpt>
      <trkpt lat="47.6571" lon="3.72049">
        <ele>174</ele>
        <time>2019-04-02T13:42:02Z</time>
      </trkpt>
      <trkpt lat="47.65708" lon="3.72056">
        <ele>174</ele>
        <time>2019-04-02T13:42:06Z</time>
      </trkpt>
      <trkpt lat="47.65706" lon="3.72059">
        <ele>174</ele>
        <time>2019-04-02T13:42:08Z</time>
      </trkpt>
      <trkpt lat="47.65704" lon="3.7207">
        <ele>175</ele>
        <time>2019-04-02T13:42:12Z</time>
      </trkpt>
      <trkpt lat="47.65702" lon="3.72079">
        <ele>174</ele>
        <time>2019-04-02T13:42:16Z</time>
      </trkpt>
      <trkpt lat="47.65702" lon="3.72083">
        <ele>174</ele>
        <time>2019-04-02T13:42:18Z</time>
      </trkpt>
      <trkpt lat="47.65699" lon="3.72091">
        <ele>174</ele>
        <time>2019-04-02T13:42:22Z</time>
      </trkpt>
      <trkpt lat="47.65698" lon="3.72098">
        <ele>173</ele>
        <time>2019-04-02T13:42:26Z</time>
      </trkpt>
      <trkpt lat="47.65697" lon="3.72103">
        <ele>173</ele>
        <time>2019-04-02T13:42:28Z</time>
      </trkpt>
      <trkpt lat="47.65697" lon="3.72109">
        <ele>172</ele>
        <time>2019-04-02T13:42:31Z</time>
      </trkpt>
      <trkpt lat="47.65695" lon="3.72117">
        <ele>171</ele>
        <time>2019-04-02T13:42:36Z</time>
      </trkpt>
      <trkpt lat="47.65693" lon="3.72125">
        <ele>171</ele>
        <time>2019-04-02T13:42:39Z</time>
      </trkpt>
      <trkpt lat="47.65692" lon="3.72129">
        <ele>172</ele>
        <time>2019-04-02T13:42:41Z</time>
      </trkpt>
      <trkpt lat="47.65692" lon="3.72133">
        <ele>172</ele>
        <time>2019-04-02T13:42:43Z</time>
      </trkpt>
      <trkpt lat="47.65689" lon="3.7214">
        <ele>171</ele>
        <time>2019-04-02T13:42:47Z</time>
      </trkpt>
      <trkpt lat="47.65688" lon="3.72144">
        <ele>171</ele>
        <time>2019-04-02T13:42:49Z</time>
      </trkpt>
      <trkpt lat="47.65686" lon="3.72152">
        <ele>171</ele>
        <time>2019-04-02T13:42:53Z</time>
      </trkpt>
      <trkpt lat="47.65684" lon="3.72158">
        <ele>171</ele>
        <time>2019-04-02T13:42:56Z</time>
      </trkpt>
      <trkpt lat="47.65683" lon="3.72162">
        <ele>172</ele>
        <time>2019-04-02T13:42:58Z</time>
      </trkpt>
      <trkpt lat="47.65681" lon="3.72168">
        <ele>172</ele>
        <time>2019-04-02T13:43:02Z</time>
      </trkpt>
      <trkpt lat="47.65679" lon="3.72176">
        <ele>173</ele>
        <time>2019-04-02T13:43:06Z</time>
      </trkpt>
      <trkpt lat="47.65677" lon="3.72182">
        <ele>173</ele>
        <time>2019-04-02T13:43:09Z</time>
      </trkpt>
      <trkpt lat="47.65675" lon="3.72188">
        <ele>172</ele>
        <time>2019-04-02T13:43:12Z</time>
      </trkpt>
      <trkpt lat="47.65674" lon="3.72191">
        <ele>172</ele>
        <time>2019-04-02T13:43:14Z</time>
      </trkpt>
      <trkpt lat="47.65672" lon="3.72195">
        <ele>172</ele>
        <time>2019-04-02T13:43:16Z</time>
      </trkpt>
      <trkpt lat="47.65671" lon="3.72199">
        <ele>172</ele>
        <time>2019-04-02T13:43:18Z</time>
      </trkpt>
      <trkpt lat="47.65669" lon="3.72202">
        <ele>172</ele>
        <time>2019-04-02T13:43:20Z</time>
      </trkpt>
      <trkpt lat="47.65667" lon="3.7221">
        <ele>173</ele>
        <time>2019-04-02T13:43:24Z</time>
      </trkpt>
      <trkpt lat="47.65665" lon="3.72215">
        <ele>173</ele>
        <time>2019-04-02T13:43:27Z</time>
      </trkpt>
      <trkpt lat="47.65664" lon="3.72218">
        <ele>173</ele>
        <time>2019-04-02T13:43:29Z</time>
      </trkpt>
      <trkpt lat="47.65662" lon="3.72222">
        <ele>173</ele>
        <time>2019-04-02T13:43:31Z</time>
      </trkpt>
      <trkpt lat="47.6566" lon="3.72228">
        <ele>174</ele>
        <time>2019-04-02T13:43:34Z</time>
      </trkpt>
      <trkpt lat="47.65659" lon="3.72232">
        <ele>174</ele>
        <time>2019-04-02T13:43:37Z</time>
      </trkpt>
      <trkpt lat="47.65656" lon="3.72237">
        <ele>174</ele>
        <time>2019-04-02T13:43:41Z</time>
      </trkpt>
      <trkpt lat="47.65653" lon="3.72245">
        <ele>175</ele>
        <time>2019-04-02T13:43:44Z</time>
      </trkpt>
      <trkpt lat="47.6565" lon="3.72252">
        <ele>175</ele>
        <time>2019-04-02T13:43:48Z</time>
      </trkpt>
      <trkpt lat="47.65647" lon="3.72258">
        <ele>174</ele>
        <time>2019-04-02T13:43:51Z</time>
      </trkpt>
      <trkpt lat="47.65645" lon="3.72266">
        <ele>175</ele>
        <time>2019-04-02T13:43:56Z</time>
      </trkpt>
      <trkpt lat="47.65642" lon="3.72274">
        <ele>175</ele>
        <time>2019-04-02T13:44:00Z</time>
      </trkpt>
      <trkpt lat="47.6564" lon="3.72278">
        <ele>175</ele>
        <time>2019-04-02T13:44:02Z</time>
      </trkpt>
      <trkpt lat="47.65639" lon="3.72282">
        <ele>175</ele>
        <time>2019-04-02T13:44:04Z</time>
      </trkpt>
      <trkpt lat="47.65636" lon="3.72288">
        <ele>175</ele>
        <time>2019-04-02T13:44:08Z</time>
      </trkpt>
      <trkpt lat="47.65633" lon="3.72295">
        <ele>175</ele>
        <time>2019-04-02T13:44:12Z</time>
      </trkpt>
      <trkpt lat="47.65632" lon="3.72299">
        <ele>176</ele>
        <time>2019-04-02T13:44:14Z</time>
      </trkpt>
      <trkpt lat="47.6563" lon="3.72303">
        <ele>176</ele>
        <time>2019-04-02T13:44:16Z</time>
      </trkpt>
      <trkpt lat="47.65628" lon="3.72311">
        <ele>177</ele>
        <time>2019-04-02T13:44:20Z</time>
      </trkpt>
      <trkpt lat="47.65627" lon="3.72315">
        <ele>178</ele>
        <time>2019-04-02T13:44:22Z</time>
      </trkpt>
      <trkpt lat="47.65625" lon="3.72318">
        <ele>178</ele>
        <time>2019-04-02T13:44:24Z</time>
      </trkpt>
      <trkpt lat="47.65623" lon="3.72323">
        <ele>177</ele>
        <time>2019-04-02T13:44:27Z</time>
      </trkpt>
      <trkpt lat="47.65621" lon="3.72327">
        <ele>177</ele>
        <time>2019-04-02T13:44:29Z</time>
      </trkpt>
      <trkpt lat="47.65619" lon="3.72334">
        <ele>177</ele>
        <time>2019-04-02T13:44:33Z</time>
      </trkpt>
      <trkpt lat="47.65618" lon="3.72337">
        <ele>177</ele>
        <time>2019-04-02T13:44:35Z</time>
      </trkpt>
      <trkpt lat="47.65617" lon="3.72341">
        <ele>177</ele>
        <time>2019-04-02T13:44:37Z</time>
      </trkpt>
      <trkpt lat="47.65614" lon="3.72348">
        <ele>177</ele>
        <time>2019-04-02T13:44:41Z</time>
      </trkpt>
      <trkpt lat="47.65613" lon="3.72351">
        <ele>178</ele>
        <time>2019-04-02T13:44:43Z</time>
      </trkpt>
      <trkpt lat="47.65611" lon="3.72355">
        <ele>178</ele>
        <time>2019-04-02T13:44:45Z</time>
      </trkpt>
      <trkpt lat="47.65608" lon="3.72361">
        <ele>177</ele>
        <time>2019-04-02T13:44:48Z</time>
      </trkpt>
      <trkpt lat="47.65606" lon="3.72369">
        <ele>178</ele>
        <time>2019-04-02T13:44:53Z</time>
      </trkpt>
      <trkpt lat="47.65603" lon="3.72376">
        <ele>177</ele>
        <time>2019-04-02T13:44:57Z</time>
      </trkpt>
      <trkpt lat="47.65601" lon="3.7238">
        <ele>177</ele>
        <time>2019-04-02T13:44:59Z</time>
      </trkpt>
      <trkpt lat="47.65599" lon="3.72384">
        <ele>178</ele>
        <time>2019-04-02T13:45:01Z</time>
      </trkpt>
      <trkpt lat="47.65596" lon="3.7239">
        <ele>178</ele>
        <time>2019-04-02T13:45:05Z</time>
      </trkpt>
      <trkpt lat="47.65592" lon="3.72397">
        <ele>179</ele>
        <time>2019-04-02T13:45:09Z</time>
      </trkpt>
      <trkpt lat="47.6559" lon="3.72404">
        <ele>178</ele>
        <time>2019-04-02T13:45:12Z</time>
      </trkpt>
      <trkpt lat="47.65587" lon="3.7241">
        <ele>177</ele>
        <time>2019-04-02T13:45:16Z</time>
      </trkpt>
      <trkpt lat="47.65584" lon="3.72414">
        <ele>176</ele>
        <time>2019-04-02T13:45:19Z</time>
      </trkpt>
      <trkpt lat="47.65582" lon="3.72418">
        <ele>176</ele>
        <time>2019-04-02T13:45:21Z</time>
      </trkpt>
      <trkpt lat="47.6558" lon="3.72421">
        <ele>176</ele>
        <time>2019-04-02T13:45:23Z</time>
      </trkpt>
      <trkpt lat="47.65579" lon="3.72424">
        <ele>175</ele>
        <time>2019-04-02T13:45:25Z</time>
      </trkpt>
      <trkpt lat="47.65576" lon="3.72427">
        <ele>175</ele>
        <time>2019-04-02T13:45:27Z</time>
      </trkpt>
      <trkpt lat="47.65574" lon="3.7243">
        <ele>175</ele>
        <time>2019-04-02T13:45:29Z</time>
      </trkpt>
      <trkpt lat="47.6557" lon="3.72435">
        <ele>174</ele>
        <time>2019-04-02T13:45:33Z</time>
      </trkpt>
      <trkpt lat="47.65567" lon="3.7244">
        <ele>174</ele>
        <time>2019-04-02T13:45:37Z</time>
      </trkpt>
      <trkpt lat="47.65565" lon="3.72443">
        <ele>174</ele>
        <time>2019-04-02T13:45:38Z</time>
      </trkpt>
      <trkpt lat="47.65563" lon="3.72446">
        <ele>175</ele>
        <time>2019-04-02T13:45:40Z</time>
      </trkpt>
      <trkpt lat="47.6556" lon="3.72451">
        <ele>175</ele>
        <time>2019-04-02T13:45:43Z</time>
      </trkpt>
      <trkpt lat="47.65557" lon="3.72459">
        <ele>174</ele>
        <time>2019-04-02T13:45:48Z</time>
      </trkpt>
      <trkpt lat="47.65556" lon="3.72463">
        <ele>173</ele>
        <time>2019-04-02T13:45:50Z</time>
      </trkpt>
      <trkpt lat="47.65553" lon="3.72468">
        <ele>175</ele>
        <time>2019-04-02T13:45:53Z</time>
      </trkpt>
      <trkpt lat="47.65551" lon="3.72472">
        <ele>175</ele>
        <time>2019-04-02T13:45:54Z</time>
      </trkpt>
      <trkpt lat="47.65549" lon="3.72476">
        <ele>175</ele>
        <time>2019-04-02T13:45:56Z</time>
      </trkpt>
      <trkpt lat="47.65545" lon="3.72482">
        <ele>175</ele>
        <time>2019-04-02T13:46:01Z</time>
      </trkpt>
      <trkpt lat="47.65541" lon="3.72488">
        <ele>174</ele>
        <time>2019-04-02T13:46:05Z</time>
      </trkpt>
      <trkpt lat="47.65538" lon="3.72493">
        <ele>174</ele>
        <time>2019-04-02T13:46:08Z</time>
      </trkpt>
      <trkpt lat="47.65535" lon="3.72497">
        <ele>174</ele>
        <time>2019-04-02T13:46:11Z</time>
      </trkpt>
      <trkpt lat="47.6553" lon="3.72502">
        <ele>174</ele>
        <time>2019-04-02T13:46:15Z</time>
      </trkpt>
      <trkpt lat="47.65527" lon="3.72508">
        <ele>173</ele>
        <time>2019-04-02T13:46:19Z</time>
      </trkpt>
      <trkpt lat="47.65522" lon="3.72513">
        <ele>173</ele>
        <time>2019-04-02T13:46:23Z</time>
      </trkpt>
      <trkpt lat="47.65519" lon="3.72517">
        <ele>173</ele>
        <time>2019-04-02T13:46:26Z</time>
      </trkpt>
      <trkpt lat="47.65516" lon="3.7252">
        <ele>172</ele>
        <time>2019-04-02T13:46:28Z</time>
      </trkpt>
      <trkpt lat="47.65513" lon="3.72524">
        <ele>172</ele>
        <time>2019-04-02T13:46:32Z</time>
      </trkpt>
      <trkpt lat="47.65508" lon="3.72528">
        <ele>172</ele>
        <time>2019-04-02T13:46:36Z</time>
      </trkpt>
      <trkpt lat="47.65504" lon="3.72532">
        <ele>172</ele>
        <time>2019-04-02T13:46:40Z</time>
      </trkpt>
      <trkpt lat="47.65501" lon="3.72535">
        <ele>172</ele>
        <time>2019-04-02T13:46:42Z</time>
      </trkpt>
      <trkpt lat="47.65498" lon="3.72538">
        <ele>173</ele>
        <time>2019-04-02T13:46:46Z</time>
      </trkpt>
      <trkpt lat="47.65493" lon="3.72541">
        <ele>173</ele>
        <time>2019-04-02T13:46:52Z</time>
      </trkpt>
      <trkpt lat="47.65489" lon="3.72546">
        <ele>173</ele>
        <time>2019-04-02T13:46:56Z</time>
      </trkpt>
      <trkpt lat="47.65483" lon="3.72549">
        <ele>173</ele>
        <time>2019-04-02T13:47:01Z</time>
      </trkpt>
      <trkpt lat="47.65481" lon="3.7255">
        <ele>173</ele>
        <time>2019-04-02T13:47:03Z</time>
      </trkpt>
      <trkpt lat="47.65476" lon="3.72551">
        <ele>171</ele>
        <time>2019-04-02T13:47:06Z</time>
      </trkpt>
      <trkpt lat="47.65473" lon="3.72551">
        <ele>171</ele>
        <time>2019-04-02T13:47:08Z</time>
      </trkpt>
      <trkpt lat="47.6547" lon="3.72552">
        <ele>171</ele>
        <time>2019-04-02T13:47:10Z</time>
      </trkpt>
      <trkpt lat="47.65467" lon="3.72553">
        <ele>170</ele>
        <time>2019-04-02T13:47:12Z</time>
      </trkpt>
      <trkpt lat="47.65461" lon="3.72558">
        <ele>169</ele>
        <time>2019-04-02T13:47:17Z</time>
      </trkpt>
      <trkpt lat="47.65457" lon="3.72562">
        <ele>169</ele>
        <time>2019-04-02T13:47:21Z</time>
      </trkpt>
      <trkpt lat="47.65453" lon="3.72565">
        <ele>168</ele>
        <time>2019-04-02T13:47:25Z</time>
      </trkpt>
      <trkpt lat="47.65449" lon="3.72568">
        <ele>167</ele>
        <time>2019-04-02T13:47:28Z</time>
      </trkpt>
      <trkpt lat="47.65442" lon="3.72571">
        <ele>167</ele>
        <time>2019-04-02T13:47:32Z</time>
      </trkpt>
      <trkpt lat="47.65437" lon="3.72572">
        <ele>169</ele>
        <time>2019-04-02T13:47:37Z</time>
      </trkpt>
      <trkpt lat="47.65433" lon="3.72576">
        <ele>169</ele>
        <time>2019-04-02T13:47:40Z</time>
      </trkpt>
      <trkpt lat="47.6543" lon="3.72578">
        <ele>170</ele>
        <time>2019-04-02T13:47:41Z</time>
      </trkpt>
      <trkpt lat="47.65425" lon="3.7258">
        <ele>169</ele>
        <time>2019-04-02T13:47:45Z</time>
      </trkpt>
      <trkpt lat="47.65421" lon="3.72581">
        <ele>170</ele>
        <time>2019-04-02T13:47:47Z</time>
      </trkpt>
      <trkpt lat="47.65417" lon="3.72585">
        <ele>168</ele>
        <time>2019-04-02T13:47:52Z</time>
      </trkpt>
      <trkpt lat="47.65415" lon="3.72587">
        <ele>167</ele>
        <time>2019-04-02T13:47:53Z</time>
      </trkpt>
      <trkpt lat="47.65411" lon="3.7259">
        <ele>166</ele>
        <time>2019-04-02T13:47:57Z</time>
      </trkpt>
      <trkpt lat="47.65405" lon="3.72594">
        <ele>165</ele>
        <time>2019-04-02T13:48:02Z</time>
      </trkpt>
      <trkpt lat="47.65402" lon="3.72596">
        <ele>164</ele>
        <time>2019-04-02T13:48:04Z</time>
      </trkpt>
      <trkpt lat="47.65397" lon="3.726">
        <ele>163</ele>
        <time>2019-04-02T13:48:08Z</time>
      </trkpt>
      <trkpt lat="47.65392" lon="3.72602">
        <ele>163</ele>
        <time>2019-04-02T13:48:12Z</time>
      </trkpt>
      <trkpt lat="47.65387" lon="3.72604">
        <ele>164</ele>
        <time>2019-04-02T13:48:15Z</time>
      </trkpt>
      <trkpt lat="47.65381" lon="3.72606">
        <ele>163</ele>
        <time>2019-04-02T13:48:18Z</time>
      </trkpt>
      <trkpt lat="47.65376" lon="3.72607">
        <ele>162</ele>
        <time>2019-04-02T13:48:21Z</time>
      </trkpt>
      <trkpt lat="47.65371" lon="3.72608">
        <ele>161</ele>
        <time>2019-04-02T13:48:26Z</time>
      </trkpt>
      <trkpt lat="47.65369" lon="3.72609">
        <ele>161</ele>
        <time>2019-04-02T13:48:27Z</time>
      </trkpt>
      <trkpt lat="47.65363" lon="3.7261">
        <ele>161</ele>
        <time>2019-04-02T13:48:31Z</time>
      </trkpt>
      <trkpt lat="47.6536" lon="3.7261">
        <ele>160</ele>
        <time>2019-04-02T13:48:34Z</time>
      </trkpt>
      <trkpt lat="47.65354" lon="3.72612">
        <ele>159</ele>
        <time>2019-04-02T13:48:38Z</time>
      </trkpt>
      <trkpt lat="47.6535" lon="3.72613">
        <ele>159</ele>
        <time>2019-04-02T13:48:42Z</time>
      </trkpt>
      <trkpt lat="47.65347" lon="3.72613">
        <ele>160</ele>
        <time>2019-04-02T13:48:44Z</time>
      </trkpt>
      <trkpt lat="47.65344" lon="3.72614">
        <ele>160</ele>
        <time>2019-04-02T13:48:46Z</time>
      </trkpt>
      <trkpt lat="47.65341" lon="3.72615">
        <ele>160</ele>
        <time>2019-04-02T13:48:48Z</time>
      </trkpt>
      <trkpt lat="47.65336" lon="3.72617">
        <ele>160</ele>
        <time>2019-04-02T13:48:52Z</time>
      </trkpt>
      <trkpt lat="47.65331" lon="3.72619">
        <ele>160</ele>
        <time>2019-04-02T13:48:55Z</time>
      </trkpt>
      <trkpt lat="47.65326" lon="3.72619">
        <ele>159</ele>
        <time>2019-04-02T13:48:59Z</time>
      </trkpt>
      <trkpt lat="47.65319" lon="3.72621">
        <ele>160</ele>
        <time>2019-04-02T13:49:03Z</time>
      </trkpt>
      <trkpt lat="47.65314" lon="3.72621">
        <ele>160</ele>
        <time>2019-04-02T13:49:07Z</time>
      </trkpt>
      <trkpt lat="47.65309" lon="3.72623">
        <ele>162</ele>
        <time>2019-04-02T13:49:10Z</time>
      </trkpt>
      <trkpt lat="47.65304" lon="3.72626">
        <ele>162</ele>
        <time>2019-04-02T13:49:13Z</time>
      </trkpt>
      <trkpt lat="47.65298" lon="3.72629">
        <ele>161</ele>
        <time>2019-04-02T13:49:17Z</time>
      </trkpt>
      <trkpt lat="47.65296" lon="3.7263">
        <ele>160</ele>
        <time>2019-04-02T13:49:19Z</time>
      </trkpt>
      <trkpt lat="47.6529" lon="3.72632">
        <ele>158</ele>
        <time>2019-04-02T13:49:24Z</time>
      </trkpt>
      <trkpt lat="47.65287" lon="3.72633">
        <ele>159</ele>
        <time>2019-04-02T13:49:26Z</time>
      </trkpt>
      <trkpt lat="47.65281" lon="3.72634">
        <ele>160</ele>
        <time>2019-04-02T13:49:31Z</time>
      </trkpt>
      <trkpt lat="47.65273" lon="3.72637">
        <ele>160</ele>
        <time>2019-04-02T13:49:36Z</time>
      </trkpt>
      <trkpt lat="47.65266" lon="3.72636">
        <ele>159</ele>
        <time>2019-04-02T13:49:41Z</time>
      </trkpt>
      <trkpt lat="47.65262" lon="3.72635">
        <ele>159</ele>
        <time>2019-04-02T13:49:42Z</time>
      </trkpt>
      <trkpt lat="47.65259" lon="3.72634">
        <ele>160</ele>
        <time>2019-04-02T13:49:44Z</time>
      </trkpt>
      <trkpt lat="47.65255" lon="3.72634">
        <ele>162</ele>
        <time>2019-04-02T13:49:50Z</time>
      </trkpt>
      <trkpt lat="47.6525" lon="3.72633">
        <ele>162</ele>
        <time>2019-04-02T13:49:53Z</time>
      </trkpt>
      <trkpt lat="47.65246" lon="3.72632">
        <ele>162</ele>
        <time>2019-04-02T13:49:57Z</time>
      </trkpt>
      <trkpt lat="47.65241" lon="3.7263">
        <ele>161</ele>
        <time>2019-04-02T13:50:00Z</time>
      </trkpt>
      <trkpt lat="47.65237" lon="3.72627">
        <ele>162</ele>
        <time>2019-04-02T13:50:03Z</time>
      </trkpt>
      <trkpt lat="47.65231" lon="3.72626">
        <ele>163</ele>
        <time>2019-04-02T13:50:07Z</time>
      </trkpt>
      <trkpt lat="47.65227" lon="3.72624">
        <ele>164</ele>
        <time>2019-04-02T13:50:10Z</time>
      </trkpt>
      <trkpt lat="47.65222" lon="3.72626">
        <ele>165</ele>
        <time>2019-04-02T13:50:13Z</time>
      </trkpt>
      <trkpt lat="47.65214" lon="3.72626">
        <ele>165</ele>
        <time>2019-04-02T13:50:18Z</time>
      </trkpt>
      <trkpt lat="47.65211" lon="3.72626">
        <ele>165</ele>
        <time>2019-04-02T13:50:23Z</time>
      </trkpt>
      <trkpt lat="47.65206" lon="3.72626">
        <ele>166</ele>
        <time>2019-04-02T13:50:25Z</time>
      </trkpt>
      <trkpt lat="47.65203" lon="3.72625">
        <ele>166</ele>
        <time>2019-04-02T13:50:26Z</time>
      </trkpt>
      <trkpt lat="47.65198" lon="3.72623">
        <ele>168</ele>
        <time>2019-04-02T13:50:32Z</time>
      </trkpt>
      <trkpt lat="47.65191" lon="3.72622">
        <ele>169</ele>
        <time>2019-04-02T13:50:36Z</time>
      </trkpt>
      <trkpt lat="47.65186" lon="3.72622">
        <ele>168</ele>
        <time>2019-04-02T13:50:39Z</time>
      </trkpt>
      <trkpt lat="47.6518" lon="3.72621">
        <ele>168</ele>
        <time>2019-04-02T13:50:42Z</time>
      </trkpt>
      <trkpt lat="47.65176" lon="3.72619">
        <ele>168</ele>
        <time>2019-04-02T13:50:45Z</time>
      </trkpt>
      <trkpt lat="47.65173" lon="3.72618">
        <ele>168</ele>
        <time>2019-04-02T13:50:48Z</time>
      </trkpt>
      <trkpt lat="47.65168" lon="3.72616">
        <ele>168</ele>
        <time>2019-04-02T13:50:52Z</time>
      </trkpt>
      <trkpt lat="47.65162" lon="3.72617">
        <ele>166</ele>
        <time>2019-04-02T13:50:58Z</time>
      </trkpt>
      <trkpt lat="47.65157" lon="3.72617">
        <ele>165</ele>
        <time>2019-04-02T13:51:02Z</time>
      </trkpt>
      <trkpt lat="47.65154" lon="3.72617">
        <ele>164</ele>
        <time>2019-04-02T13:51:04Z</time>
      </trkpt>
      <trkpt lat="47.65148" lon="3.72616">
        <ele>165</ele>
        <time>2019-04-02T13:51:08Z</time>
      </trkpt>
      <trkpt lat="47.65143" lon="3.72614">
        <ele>167</ele>
        <time>2019-04-02T13:51:13Z</time>
      </trkpt>
      <trkpt lat="47.65135" lon="3.72613">
        <ele>167</ele>
        <time>2019-04-02T13:51:18Z</time>
      </trkpt>
      <trkpt lat="47.65129" lon="3.72613">
        <ele>168</ele>
        <time>2019-04-02T13:51:21Z</time>
      </trkpt>
      <trkpt lat="47.65124" lon="3.72612">
        <ele>168</ele>
        <time>2019-04-02T13:51:24Z</time>
      </trkpt>
      <trkpt lat="47.65119" lon="3.72613">
        <ele>169</ele>
        <time>2019-04-02T13:51:29Z</time>
      </trkpt>
      <trkpt lat="47.65109" lon="3.7261">
        <ele>168</ele>
        <time>2019-04-02T13:51:33Z</time>
      </trkpt>
      <trkpt lat="47.65103" lon="3.72609">
        <ele>170</ele>
        <time>2019-04-02T13:51:38Z</time>
      </trkpt>
      <trkpt lat="47.65098" lon="3.72607">
        <ele>169</ele>
        <time>2019-04-02T13:51:41Z</time>
      </trkpt>
      <trkpt lat="47.65091" lon="3.72607">
        <ele>169</ele>
        <time>2019-04-02T13:51:45Z</time>
      </trkpt>
      <trkpt lat="47.65086" lon="3.72605">
        <ele>169</ele>
        <time>2019-04-02T13:51:47Z</time>
      </trkpt>
      <trkpt lat="47.65082" lon="3.72606">
        <ele>169</ele>
        <time>2019-04-02T13:51:51Z</time>
      </trkpt>
      <trkpt lat="47.65079" lon="3.72606">
        <ele>169</ele>
        <time>2019-04-02T13:51:53Z</time>
      </trkpt>
      <trkpt lat="47.65074" lon="3.72604">
        <ele>167</ele>
        <time>2019-04-02T13:51:57Z</time>
      </trkpt>
      <trkpt lat="47.65069" lon="3.72604">
        <ele>168</ele>
        <time>2019-04-02T13:52:00Z</time>
      </trkpt>
      <trkpt lat="47.65067" lon="3.72603">
        <ele>168</ele>
        <time>2019-04-02T13:52:02Z</time>
      </trkpt>
      <trkpt lat="47.65062" lon="3.72602">
        <ele>168</ele>
        <time>2019-04-02T13:52:07Z</time>
      </trkpt>
      <trkpt lat="47.65057" lon="3.726">
        <ele>169</ele>
        <time>2019-04-02T13:52:10Z</time>
      </trkpt>
      <trkpt lat="47.6505" lon="3.72597">
        <ele>169</ele>
        <time>2019-04-02T13:52:16Z</time>
      </trkpt>
      <trkpt lat="47.65043" lon="3.72594">
        <ele>169</ele>
        <time>2019-04-02T13:52:21Z</time>
      </trkpt>
      <trkpt lat="47.65038" lon="3.72592">
        <ele>169</ele>
        <time>2019-04-02T13:52:24Z</time>
      </trkpt>
      <trkpt lat="47.65032" lon="3.72593">
        <ele>167</ele>
        <time>2019-04-02T13:52:27Z</time>
      </trkpt>
      <trkpt lat="47.65027" lon="3.7259">
        <ele>168</ele>
        <time>2019-04-02T13:52:31Z</time>
      </trkpt>
      <trkpt lat="47.65021" lon="3.72588">
        <ele>167</ele>
        <time>2019-04-02T13:52:35Z</time>
      </trkpt>
      <trkpt lat="47.65016" lon="3.72587">
        <ele>168</ele>
        <time>2019-04-02T13:52:38Z</time>
      </trkpt>
      <trkpt lat="47.65013" lon="3.72586">
        <ele>169</ele>
        <time>2019-04-02T13:52:40Z</time>
      </trkpt>
      <trkpt lat="47.65009" lon="3.72585">
        <ele>169</ele>
        <time>2019-04-02T13:52:43Z</time>
      </trkpt>
      <trkpt lat="47.65005" lon="3.72582">
        <ele>169</ele>
        <time>2019-04-02T13:52:45Z</time>
      </trkpt>
      <trkpt lat="47.65" lon="3.72581">
        <ele>170</ele>
        <time>2019-04-02T13:52:47Z</time>
      </trkpt>
      <trkpt lat="47.64997" lon="3.7258">
        <ele>170</ele>
        <time>2019-04-02T13:52:49Z</time>
      </trkpt>
      <trkpt lat="47.64991" lon="3.72576">
        <ele>171</ele>
        <time>2019-04-02T13:52:55Z</time>
      </trkpt>
      <trkpt lat="47.64985" lon="3.72575">
        <ele>172</ele>
        <time>2019-04-02T13:52:57Z</time>
      </trkpt>
      <trkpt lat="47.6498" lon="3.72572">
        <ele>172</ele>
        <time>2019-04-02T13:53:00Z</time>
      </trkpt>
      <trkpt lat="47.64977" lon="3.72571">
        <ele>173</ele>
        <time>2019-04-02T13:53:02Z</time>
      </trkpt>
      <trkpt lat="47.64972" lon="3.72569">
        <ele>174</ele>
        <time>2019-04-02T13:53:05Z</time>
      </trkpt>
      <trkpt lat="47.64964" lon="3.72568">
        <ele>176</ele>
        <time>2019-04-02T13:53:11Z</time>
      </trkpt>
      <trkpt lat="47.64959" lon="3.72564">
        <ele>176</ele>
        <time>2019-04-02T13:53:14Z</time>
      </trkpt>
      <trkpt lat="47.64955" lon="3.7256">
        <ele>176</ele>
        <time>2019-04-02T13:53:17Z</time>
      </trkpt>
      <trkpt lat="47.6495" lon="3.72559">
        <ele>178</ele>
        <time>2019-04-02T13:53:21Z</time>
      </trkpt>
      <trkpt lat="47.64945" lon="3.72557">
        <ele>179</ele>
        <time>2019-04-02T13:53:27Z</time>
      </trkpt>
      <trkpt lat="47.6494" lon="3.72554">
        <ele>180</ele>
        <time>2019-04-02T13:53:31Z</time>
      </trkpt>
      <trkpt lat="47.64936" lon="3.72551">
        <ele>182</ele>
        <time>2019-04-02T13:53:35Z</time>
      </trkpt>
      <trkpt lat="47.64931" lon="3.7255">
        <ele>182</ele>
        <time>2019-04-02T13:53:38Z</time>
      </trkpt>
      <trkpt lat="47.64926" lon="3.72548">
        <ele>183</ele>
        <time>2019-04-02T13:53:41Z</time>
      </trkpt>
      <trkpt lat="47.64924" lon="3.72547">
        <ele>184</ele>
        <time>2019-04-02T13:53:43Z</time>
      </trkpt>
      <trkpt lat="47.64919" lon="3.72544">
        <ele>185</ele>
        <time>2019-04-02T13:53:46Z</time>
      </trkpt>
      <trkpt lat="47.64915" lon="3.72544">
        <ele>186</ele>
        <time>2019-04-02T13:53:49Z</time>
      </trkpt>
      <trkpt lat="47.6491" lon="3.7254">
        <ele>189</ele>
        <time>2019-04-02T13:53:52Z</time>
      </trkpt>
      <trkpt lat="47.64903" lon="3.72538">
        <ele>190</ele>
        <time>2019-04-02T13:53:57Z</time>
      </trkpt>
      <trkpt lat="47.64897" lon="3.72535">
        <ele>189</ele>
        <time>2019-04-02T13:54:02Z</time>
      </trkpt>
      <trkpt lat="47.64892" lon="3.72533">
        <ele>191</ele>
        <time>2019-04-02T13:54:07Z</time>
      </trkpt>
      <trkpt lat="47.64885" lon="3.72531">
        <ele>192</ele>
        <time>2019-04-02T13:54:12Z</time>
      </trkpt>
      <trkpt lat="47.64878" lon="3.72528">
        <ele>193</ele>
        <time>2019-04-02T13:54:16Z</time>
      </trkpt>
      <trkpt lat="47.64873" lon="3.72528">
        <ele>194</ele>
        <time>2019-04-02T13:54:19Z</time>
      </trkpt>
      <trkpt lat="47.64868" lon="3.72527">
        <ele>195</ele>
        <time>2019-04-02T13:54:22Z</time>
      </trkpt>
      <trkpt lat="47.64861" lon="3.72526">
        <ele>197</ele>
        <time>2019-04-02T13:54:27Z</time>
      </trkpt>
      <trkpt lat="47.64858" lon="3.72525">
        <ele>197</ele>
        <time>2019-04-02T13:54:30Z</time>
      </trkpt>
      <trkpt lat="47.64853" lon="3.72523">
        <ele>199</ele>
        <time>2019-04-02T13:54:34Z</time>
      </trkpt>
      <trkpt lat="47.64846" lon="3.72523">
        <ele>198</ele>
        <time>2019-04-02T13:54:37Z</time>
      </trkpt>
      <trkpt lat="47.64841" lon="3.7252">
        <ele>197</ele>
        <time>2019-04-02T13:54:40Z</time>
      </trkpt>
      <trkpt lat="47.64835" lon="3.72518">
        <ele>198</ele>
        <time>2019-04-02T13:54:44Z</time>
      </trkpt>
      <trkpt lat="47.64832" lon="3.72517">
        <ele>198</ele>
        <time>2019-04-02T13:54:46Z</time>
      </trkpt>
      <trkpt lat="47.64828" lon="3.72514">
        <ele>198</ele>
        <time>2019-04-02T13:54:49Z</time>
      </trkpt>
      <trkpt lat="47.64824" lon="3.72511">
        <ele>198</ele>
        <time>2019-04-02T13:54:54Z</time>
      </trkpt>
      <trkpt lat="47.64816" lon="3.72508">
        <ele>199</ele>
        <time>2019-04-02T13:54:59Z</time>
      </trkpt>
      <trkpt lat="47.64809" lon="3.72505">
        <ele>200</ele>
        <time>2019-04-02T13:55:02Z</time>
      </trkpt>
      <trkpt lat="47.64805" lon="3.72506">
        <ele>202</ele>
        <time>2019-04-02T13:55:06Z</time>
      </trkpt>
      <trkpt lat="47.64799" lon="3.72505">
        <ele>202</ele>
        <time>2019-04-02T13:55:10Z</time>
      </trkpt>
      <trkpt lat="47.64793" lon="3.72501">
        <ele>202</ele>
        <time>2019-04-02T13:55:14Z</time>
      </trkpt>
      <trkpt lat="47.64787" lon="3.72499">
        <ele>202</ele>
        <time>2019-04-02T13:55:17Z</time>
      </trkpt>
      <trkpt lat="47.64783" lon="3.72497">
        <ele>203</ele>
        <time>2019-04-02T13:55:20Z</time>
      </trkpt>
      <trkpt lat="47.64775" lon="3.72493">
        <ele>205</ele>
        <time>2019-04-02T13:55:26Z</time>
      </trkpt>
      <trkpt lat="47.64769" lon="3.72493">
        <ele>205</ele>
        <time>2019-04-02T13:55:29Z</time>
      </trkpt>
      <trkpt lat="47.64767" lon="3.72493">
        <ele>204</ele>
        <time>2019-04-02T13:55:31Z</time>
      </trkpt>
      <trkpt lat="47.6476" lon="3.7249">
        <ele>204</ele>
        <time>2019-04-02T13:55:35Z</time>
      </trkpt>
      <trkpt lat="47.64756" lon="3.72488">
        <ele>205</ele>
        <time>2019-04-02T13:55:37Z</time>
      </trkpt>
      <trkpt lat="47.64751" lon="3.72487">
        <ele>206</ele>
        <time>2019-04-02T13:55:40Z</time>
      </trkpt>
      <trkpt lat="47.64744" lon="3.72487">
        <ele>206</ele>
        <time>2019-04-02T13:55:44Z</time>
      </trkpt>
      <trkpt lat="47.6474" lon="3.72486">
        <ele>205</ele>
        <time>2019-04-02T13:55:48Z</time>
      </trkpt>
      <trkpt lat="47.64735" lon="3.72485">
        <ele>204</ele>
        <time>2019-04-02T13:55:51Z</time>
      </trkpt>
      <trkpt lat="47.64729" lon="3.72486">
        <ele>205</ele>
        <time>2019-04-02T13:55:56Z</time>
      </trkpt>
      <trkpt lat="47.64724" lon="3.72487">
        <ele>204</ele>
        <time>2019-04-02T13:55:58Z</time>
      </trkpt>
      <trkpt lat="47.64718" lon="3.72486">
        <ele>204</ele>
        <time>2019-04-02T13:56:02Z</time>
      </trkpt>
      <trkpt lat="47.64713" lon="3.72488">
        <ele>204</ele>
        <time>2019-04-02T13:56:06Z</time>
      </trkpt>
      <trkpt lat="47.64708" lon="3.72487">
        <ele>204</ele>
        <time>2019-04-02T13:56:09Z</time>
      </trkpt>
      <trkpt lat="47.64704" lon="3.72486">
        <ele>204</ele>
        <time>2019-04-02T13:56:12Z</time>
      </trkpt>
      <trkpt lat="47.647" lon="3.72486">
        <ele>204</ele>
        <time>2019-04-02T13:56:15Z</time>
      </trkpt>
      <trkpt lat="47.64695" lon="3.72488">
        <ele>204</ele>
        <time>2019-04-02T13:56:21Z</time>
      </trkpt>
      <trkpt lat="47.64691" lon="3.72489">
        <ele>203</ele>
        <time>2019-04-02T13:56:23Z</time>
      </trkpt>
      <trkpt lat="47.64686" lon="3.72488">
        <ele>203</ele>
        <time>2019-04-02T13:56:26Z</time>
      </trkpt>
      <trkpt lat="47.64679" lon="3.7249">
        <ele>202</ele>
        <time>2019-04-02T13:56:30Z</time>
      </trkpt>
      <trkpt lat="47.64675" lon="3.72489">
        <ele>203</ele>
        <time>2019-04-02T13:56:33Z</time>
      </trkpt>
      <trkpt lat="47.6467" lon="3.72491">
        <ele>202</ele>
        <time>2019-04-02T13:56:36Z</time>
      </trkpt>
      <trkpt lat="47.64665" lon="3.72491">
        <ele>204</ele>
        <time>2019-04-02T13:56:40Z</time>
      </trkpt>
      <trkpt lat="47.64656" lon="3.72495">
        <ele>204</ele>
        <time>2019-04-02T13:56:45Z</time>
      </trkpt>
      <trkpt lat="47.6465" lon="3.72497">
        <ele>204</ele>
        <time>2019-04-02T13:56:48Z</time>
      </trkpt>
      <trkpt lat="47.64646" lon="3.725">
        <ele>202</ele>
        <time>2019-04-02T13:56:51Z</time>
      </trkpt>
      <trkpt lat="47.64644" lon="3.72502">
        <ele>202</ele>
        <time>2019-04-02T13:56:53Z</time>
      </trkpt>
      <trkpt lat="47.64641" lon="3.72505">
        <ele>203</ele>
        <time>2019-04-02T13:56:55Z</time>
      </trkpt>
      <trkpt lat="47.64636" lon="3.72508">
        <ele>200</ele>
        <time>2019-04-02T13:57:01Z</time>
      </trkpt>
      <trkpt lat="47.64629" lon="3.72506">
        <ele>199</ele>
        <time>2019-04-02T13:57:06Z</time>
      </trkpt>
      <trkpt lat="47.64624" lon="3.72507">
        <ele>200</ele>
        <time>2019-04-02T13:57:10Z</time>
      </trkpt>
      <trkpt lat="47.64619" lon="3.72511">
        <ele>201</ele>
        <time>2019-04-02T13:57:15Z</time>
      </trkpt>
      <trkpt lat="47.64616" lon="3.72512">
        <ele>201</ele>
        <time>2019-04-02T13:57:19Z</time>
      </trkpt>
      <trkpt lat="47.64613" lon="3.72515">
        <ele>200</ele>
        <time>2019-04-02T13:57:22Z</time>
      </trkpt>
      <trkpt lat="47.64608" lon="3.72519">
        <ele>200</ele>
        <time>2019-04-02T13:57:26Z</time>
      </trkpt>
      <trkpt lat="47.64601" lon="3.7252">
        <ele>200</ele>
        <time>2019-04-02T13:57:32Z</time>
      </trkpt>
      <trkpt lat="47.64596" lon="3.72525">
        <ele>201</ele>
        <time>2019-04-02T13:57:36Z</time>
      </trkpt>
      <trkpt lat="47.64588" lon="3.72528">
        <ele>202</ele>
        <time>2019-04-02T13:57:41Z</time>
      </trkpt>
      <trkpt lat="47.64583" lon="3.72529">
        <ele>201</ele>
        <time>2019-04-02T13:57:45Z</time>
      </trkpt>
      <trkpt lat="47.6458" lon="3.7253">
        <ele>201</ele>
        <time>2019-04-02T13:57:47Z</time>
      </trkpt>
      <trkpt lat="47.64576" lon="3.72533">
        <ele>201</ele>
        <time>2019-04-02T13:57:50Z</time>
      </trkpt>
      <trkpt lat="47.64572" lon="3.72534">
        <ele>201</ele>
        <time>2019-04-02T13:57:53Z</time>
      </trkpt>
      <trkpt lat="47.64567" lon="3.72539">
        <ele>201</ele>
        <time>2019-04-02T13:57:57Z</time>
      </trkpt>
      <trkpt lat="47.64562" lon="3.72542">
        <ele>200</ele>
        <time>2019-04-02T13:58:01Z</time>
      </trkpt>
      <trkpt lat="47.64555" lon="3.72544">
        <ele>200</ele>
        <time>2019-04-02T13:58:06Z</time>
      </trkpt>
      <trkpt lat="47.64547" lon="3.72548">
        <ele>201</ele>
        <time>2019-04-02T13:58:12Z</time>
      </trkpt>
      <trkpt lat="47.64542" lon="3.72551">
        <ele>200</ele>
        <time>2019-04-02T13:58:15Z</time>
      </trkpt>
      <trkpt lat="47.64538" lon="3.72556">
        <ele>201</ele>
        <time>2019-04-02T13:58:20Z</time>
      </trkpt>
      <trkpt lat="47.64533" lon="3.72559">
        <ele>202</ele>
        <time>2019-04-02T13:58:23Z</time>
      </trkpt>
      <trkpt lat="47.64527" lon="3.72561">
        <ele>201</ele>
        <time>2019-04-02T13:58:26Z</time>
      </trkpt>
      <trkpt lat="47.64524" lon="3.72562">
        <ele>201</ele>
        <time>2019-04-02T13:58:28Z</time>
      </trkpt>
      <trkpt lat="47.64519" lon="3.72564">
        <ele>201</ele>
        <time>2019-04-02T13:58:32Z</time>
      </trkpt>
      <trkpt lat="47.64513" lon="3.72566">
        <ele>201</ele>
        <time>2019-04-02T13:58:36Z</time>
      </trkpt>
      <trkpt lat="47.64511" lon="3.72567">
        <ele>201</ele>
        <time>2019-04-02T13:58:38Z</time>
      </trkpt>
      <trkpt lat="47.64506" lon="3.7257">
        <ele>201</ele>
        <time>2019-04-02T13:58:43Z</time>
      </trkpt>
      <trkpt lat="47.645" lon="3.7257">
        <ele>201</ele>
        <time>2019-04-02T13:58:47Z</time>
      </trkpt>
      <trkpt lat="47.64495" lon="3.72575">
        <ele>201</ele>
        <time>2019-04-02T13:58:51Z</time>
      </trkpt>
      <trkpt lat="47.64492" lon="3.72578">
        <ele>201</ele>
        <time>2019-04-02T13:58:54Z</time>
      </trkpt>
      <trkpt lat="47.64487" lon="3.72583">
        <ele>200</ele>
        <time>2019-04-02T13:58:57Z</time>
      </trkpt>
      <trkpt lat="47.6448" lon="3.72587">
        <ele>199</ele>
        <time>2019-04-02T13:59:01Z</time>
      </trkpt>
      <trkpt lat="47.64477" lon="3.72591">
        <ele>198</ele>
        <time>2019-04-02T13:59:03Z</time>
      </trkpt>
      <trkpt lat="47.64472" lon="3.72593">
        <ele>198</ele>
        <time>2019-04-02T13:59:06Z</time>
      </trkpt>
      <trkpt lat="47.64468" lon="3.72597">
        <ele>198</ele>
        <time>2019-04-02T13:59:09Z</time>
      </trkpt>
      <trkpt lat="47.64466" lon="3.726">
        <ele>198</ele>
        <time>2019-04-02T13:59:12Z</time>
      </trkpt>
      <trkpt lat="47.64464" lon="3.72607">
        <ele>198</ele>
        <time>2019-04-02T13:59:19Z</time>
      </trkpt>
      <trkpt lat="47.64465" lon="3.72611">
        <ele>197</ele>
        <time>2019-04-02T13:59:28Z</time>
      </trkpt>
      <trkpt lat="47.64463" lon="3.72605">
        <ele>195</ele>
        <time>2019-04-02T14:10:46Z</time>
      </trkpt>
      <trkpt lat="47.64456" lon="3.7261">
        <ele>196</ele>
        <time>2019-04-02T14:10:53Z</time>
      </trkpt>
      <trkpt lat="47.64452" lon="3.72612">
        <ele>197</ele>
        <time>2019-04-02T14:10:58Z</time>
      </trkpt>
      <trkpt lat="47.64449" lon="3.72613">
        <ele>198</ele>
        <time>2019-04-02T14:11:01Z</time>
      </trkpt>
      <trkpt lat="47.64445" lon="3.72618">
        <ele>198</ele>
        <time>2019-04-02T14:11:07Z</time>
      </trkpt>
      <trkpt lat="47.64441" lon="3.7262">
        <ele>199</ele>
        <time>2019-04-02T14:11:13Z</time>
      </trkpt>
      <trkpt lat="47.64436" lon="3.72627">
        <ele>199</ele>
        <time>2019-04-02T14:11:17Z</time>
      </trkpt>
      <trkpt lat="47.64432" lon="3.72631">
        <ele>200</ele>
        <time>2019-04-02T14:11:22Z</time>
      </trkpt>
      <trkpt lat="47.64428" lon="3.72637">
        <ele>200</ele>
        <time>2019-04-02T14:11:27Z</time>
      </trkpt>
      <trkpt lat="47.64421" lon="3.72642">
        <ele>200</ele>
        <time>2019-04-02T14:11:32Z</time>
      </trkpt>
      <trkpt lat="47.64418" lon="3.72644">
        <ele>201</ele>
        <time>2019-04-02T14:11:36Z</time>
      </trkpt>
      <trkpt lat="47.64414" lon="3.72648">
        <ele>201</ele>
        <time>2019-04-02T14:11:42Z</time>
      </trkpt>
      <trkpt lat="47.64407" lon="3.72652">
        <ele>202</ele>
        <time>2019-04-02T14:11:49Z</time>
      </trkpt>
      <trkpt lat="47.64403" lon="3.72653">
        <ele>202</ele>
        <time>2019-04-02T14:11:52Z</time>
      </trkpt>
      <trkpt lat="47.64398" lon="3.72658">
        <ele>202</ele>
        <time>2019-04-02T14:11:58Z</time>
      </trkpt>
      <trkpt lat="47.64394" lon="3.72663">
        <ele>202</ele>
        <time>2019-04-02T14:12:02Z</time>
      </trkpt>
      <trkpt lat="47.6439" lon="3.72669">
        <ele>202</ele>
        <time>2019-04-02T14:12:06Z</time>
      </trkpt>
      <trkpt lat="47.64386" lon="3.72674">
        <ele>203</ele>
        <time>2019-04-02T14:12:10Z</time>
      </trkpt>
      <trkpt lat="47.64383" lon="3.7268">
        <ele>202</ele>
        <time>2019-04-02T14:12:14Z</time>
      </trkpt>
      <trkpt lat="47.64379" lon="3.72685">
        <ele>202</ele>
        <time>2019-04-02T14:12:18Z</time>
      </trkpt>
      <trkpt lat="47.64374" lon="3.7269">
        <ele>201</ele>
        <time>2019-04-02T14:12:23Z</time>
      </trkpt>
      <trkpt lat="47.64369" lon="3.72695">
        <ele>200</ele>
        <time>2019-04-02T14:12:27Z</time>
      </trkpt>
      <trkpt lat="47.64366" lon="3.72702">
        <ele>199</ele>
        <time>2019-04-02T14:12:32Z</time>
      </trkpt>
      <trkpt lat="47.64364" lon="3.72705">
        <ele>200</ele>
        <time>2019-04-02T14:12:34Z</time>
      </trkpt>
      <trkpt lat="47.64361" lon="3.7271">
        <ele>199</ele>
        <time>2019-04-02T14:12:37Z</time>
      </trkpt>
      <trkpt lat="47.64358" lon="3.72715">
        <ele>199</ele>
        <time>2019-04-02T14:12:40Z</time>
      </trkpt>
      <trkpt lat="47.64355" lon="3.7272">
        <ele>197</ele>
        <time>2019-04-02T14:12:44Z</time>
      </trkpt>
      <trkpt lat="47.64352" lon="3.72723">
        <ele>198</ele>
        <time>2019-04-02T14:12:47Z</time>
      </trkpt>
      <trkpt lat="47.64351" lon="3.7273">
        <ele>198</ele>
        <time>2019-04-02T14:12:52Z</time>
      </trkpt>
      <trkpt lat="47.64348" lon="3.72735">
        <ele>198</ele>
        <time>2019-04-02T14:12:56Z</time>
      </trkpt>
      <trkpt lat="47.64343" lon="3.72739">
        <ele>198</ele>
        <time>2019-04-02T14:13:01Z</time>
      </trkpt>
      <trkpt lat="47.64339" lon="3.7274">
        <ele>199</ele>
        <time>2019-04-02T14:13:03Z</time>
      </trkpt>
      <trkpt lat="47.64335" lon="3.72745">
        <ele>198</ele>
        <time>2019-04-02T14:13:07Z</time>
      </trkpt>
      <trkpt lat="47.64332" lon="3.72751">
        <ele>198</ele>
        <time>2019-04-02T14:13:11Z</time>
      </trkpt>
      <trkpt lat="47.64328" lon="3.72757">
        <ele>198</ele>
        <time>2019-04-02T14:13:15Z</time>
      </trkpt>
      <trkpt lat="47.64326" lon="3.7276">
        <ele>197</ele>
        <time>2019-04-02T14:13:17Z</time>
      </trkpt>
      <trkpt lat="47.64321" lon="3.72769">
        <ele>197</ele>
        <time>2019-04-02T14:13:22Z</time>
      </trkpt>
      <trkpt lat="47.64318" lon="3.72774">
        <ele>196</ele>
        <time>2019-04-02T14:13:25Z</time>
      </trkpt>
      <trkpt lat="47.64315" lon="3.72781">
        <ele>196</ele>
        <time>2019-04-02T14:13:30Z</time>
      </trkpt>
      <trkpt lat="47.64312" lon="3.72786">
        <ele>195</ele>
        <time>2019-04-02T14:13:33Z</time>
      </trkpt>
      <trkpt lat="47.64308" lon="3.72794">
        <ele>194</ele>
        <time>2019-04-02T14:13:40Z</time>
      </trkpt>
      <trkpt lat="47.64305" lon="3.72801">
        <ele>194</ele>
        <time>2019-04-02T14:13:47Z</time>
      </trkpt>
      <trkpt lat="47.64301" lon="3.72806">
        <ele>192</ele>
        <time>2019-04-02T14:13:50Z</time>
      </trkpt>
      <trkpt lat="47.64298" lon="3.72813">
        <ele>192</ele>
        <time>2019-04-02T14:13:54Z</time>
      </trkpt>
      <trkpt lat="47.64296" lon="3.72816">
        <ele>191</ele>
        <time>2019-04-02T14:13:56Z</time>
      </trkpt>
      <trkpt lat="47.64295" lon="3.72823">
        <ele>191</ele>
        <time>2019-04-02T14:14:00Z</time>
      </trkpt>
      <trkpt lat="47.64291" lon="3.72827">
        <ele>190</ele>
        <time>2019-04-02T14:14:04Z</time>
      </trkpt>
      <trkpt lat="47.64287" lon="3.72832">
        <ele>191</ele>
        <time>2019-04-02T14:14:09Z</time>
      </trkpt>
      <trkpt lat="47.64281" lon="3.72837">
        <ele>190</ele>
        <time>2019-04-02T14:14:13Z</time>
      </trkpt>
      <trkpt lat="47.64278" lon="3.72842">
        <ele>189</ele>
        <time>2019-04-02T14:14:18Z</time>
      </trkpt>
      <trkpt lat="47.64273" lon="3.72843">
        <ele>188</ele>
        <time>2019-04-02T14:14:21Z</time>
      </trkpt>
      <trkpt lat="47.64268" lon="3.72846">
        <ele>187</ele>
        <time>2019-04-02T14:14:28Z</time>
      </trkpt>
      <trkpt lat="47.64264" lon="3.72848">
        <ele>186</ele>
        <time>2019-04-02T14:14:31Z</time>
      </trkpt>
      <trkpt lat="47.64257" lon="3.72848">
        <ele>187</ele>
        <time>2019-04-02T14:14:37Z</time>
      </trkpt>
      <trkpt lat="47.64251" lon="3.72848">
        <ele>187</ele>
        <time>2019-04-02T14:14:41Z</time>
      </trkpt>
      <trkpt lat="47.64247" lon="3.72847">
        <ele>188</ele>
        <time>2019-04-02T14:14:45Z</time>
      </trkpt>
      <trkpt lat="47.6424" lon="3.72847">
        <ele>187</ele>
        <time>2019-04-02T14:14:51Z</time>
      </trkpt>
      <trkpt lat="47.64238" lon="3.72848">
        <ele>186</ele>
        <time>2019-04-02T14:14:53Z</time>
      </trkpt>
      <trkpt lat="47.64233" lon="3.72846">
        <ele>185</ele>
        <time>2019-04-02T14:15:02Z</time>
      </trkpt>
      <trkpt lat="47.64228" lon="3.72844">
        <ele>185</ele>
        <time>2019-04-02T14:15:06Z</time>
      </trkpt>
      <trkpt lat="47.64224" lon="3.72838">
        <ele>183</ele>
        <time>2019-04-02T14:15:11Z</time>
      </trkpt>
      <trkpt lat="47.64218" lon="3.72831">
        <ele>183</ele>
        <time>2019-04-02T14:15:16Z</time>
      </trkpt>
      <trkpt lat="47.64214" lon="3.72828">
        <ele>182</ele>
        <time>2019-04-02T14:15:19Z</time>
      </trkpt>
      <trkpt lat="47.6421" lon="3.72826">
        <ele>183</ele>
        <time>2019-04-02T14:15:23Z</time>
      </trkpt>
      <trkpt lat="47.64205" lon="3.7283">
        <ele>182</ele>
        <time>2019-04-02T14:15:26Z</time>
      </trkpt>
      <trkpt lat="47.64203" lon="3.72832">
        <ele>182</ele>
        <time>2019-04-02T14:15:28Z</time>
      </trkpt>
      <trkpt lat="47.642" lon="3.72834">
        <ele>182</ele>
        <time>2019-04-02T14:15:30Z</time>
      </trkpt>
      <trkpt lat="47.64198" lon="3.7284">
        <ele>181</ele>
        <time>2019-04-02T14:15:34Z</time>
      </trkpt>
      <trkpt lat="47.64196" lon="3.72844">
        <ele>180</ele>
        <time>2019-04-02T14:15:36Z</time>
      </trkpt>
      <trkpt lat="47.64194" lon="3.72852">
        <ele>181</ele>
        <time>2019-04-02T14:15:40Z</time>
      </trkpt>
      <trkpt lat="47.64194" lon="3.72863">
        <ele>177</ele>
        <time>2019-04-02T14:15:45Z</time>
      </trkpt>
      <trkpt lat="47.64193" lon="3.72869">
        <ele>176</ele>
        <time>2019-04-02T14:15:48Z</time>
      </trkpt>
      <trkpt lat="47.6419" lon="3.72877">
        <ele>178</ele>
        <time>2019-04-02T14:15:54Z</time>
      </trkpt>
      <trkpt lat="47.64188" lon="3.72886">
        <ele>175</ele>
        <time>2019-04-02T14:15:58Z</time>
      </trkpt>
      <trkpt lat="47.64188" lon="3.72895">
        <ele>174</ele>
        <time>2019-04-02T14:16:02Z</time>
      </trkpt>
      <trkpt lat="47.64188" lon="3.72901">
        <ele>173</ele>
        <time>2019-04-02T14:16:06Z</time>
      </trkpt>
      <trkpt lat="47.64187" lon="3.72908">
        <ele>173</ele>
        <time>2019-04-02T14:16:10Z</time>
      </trkpt>
      <trkpt lat="47.64186" lon="3.72916">
        <ele>175</ele>
        <time>2019-04-02T14:16:15Z</time>
      </trkpt>
      <trkpt lat="47.64187" lon="3.72924">
        <ele>175</ele>
        <time>2019-04-02T14:16:21Z</time>
      </trkpt>
      <trkpt lat="47.64188" lon="3.72933">
        <ele>176</ele>
        <time>2019-04-02T14:16:25Z</time>
      </trkpt>
      <trkpt lat="47.64185" lon="3.72941">
        <ele>178</ele>
        <time>2019-04-02T14:16:31Z</time>
      </trkpt>
      <trkpt lat="47.64182" lon="3.72947">
        <ele>178</ele>
        <time>2019-04-02T14:16:35Z</time>
      </trkpt>
      <trkpt lat="47.6418" lon="3.72952">
        <ele>179</ele>
        <time>2019-04-02T14:16:40Z</time>
      </trkpt>
      <trkpt lat="47.64178" lon="3.72956">
        <ele>180</ele>
        <time>2019-04-02T14:16:42Z</time>
      </trkpt>
      <trkpt lat="47.64173" lon="3.72963">
        <ele>179</ele>
        <time>2019-04-02T14:16:47Z</time>
      </trkpt>
      <trkpt lat="47.6417" lon="3.7297">
        <ele>178</ele>
        <time>2019-04-02T14:16:51Z</time>
      </trkpt>
      <trkpt lat="47.64167" lon="3.72977">
        <ele>177</ele>
        <time>2019-04-02T14:16:55Z</time>
      </trkpt>
      <trkpt lat="47.64164" lon="3.72984">
        <ele>176</ele>
        <time>2019-04-02T14:17:00Z</time>
      </trkpt>
      <trkpt lat="47.64162" lon="3.72991">
        <ele>177</ele>
        <time>2019-04-02T14:17:04Z</time>
      </trkpt>
      <trkpt lat="47.64159" lon="3.72997">
        <ele>176</ele>
        <time>2019-04-02T14:17:08Z</time>
      </trkpt>
      <trkpt lat="47.64156" lon="3.73006">
        <ele>175</ele>
        <time>2019-04-02T14:17:12Z</time>
      </trkpt>
      <trkpt lat="47.64153" lon="3.73012">
        <ele>175</ele>
        <time>2019-04-02T14:17:16Z</time>
      </trkpt>
      <trkpt lat="47.6415" lon="3.73019">
        <ele>174</ele>
        <time>2019-04-02T14:17:21Z</time>
      </trkpt>
      <trkpt lat="47.64145" lon="3.73025">
        <ele>175</ele>
        <time>2019-04-02T14:17:26Z</time>
      </trkpt>
      <trkpt lat="47.64144" lon="3.73032">
        <ele>174</ele>
        <time>2019-04-02T14:17:30Z</time>
      </trkpt>
      <trkpt lat="47.64141" lon="3.73039">
        <ele>177</ele>
        <time>2019-04-02T14:17:36Z</time>
      </trkpt>
      <trkpt lat="47.6414" lon="3.73043">
        <ele>177</ele>
        <time>2019-04-02T14:17:40Z</time>
      </trkpt>
      <trkpt lat="47.64138" lon="3.73048">
        <ele>177</ele>
        <time>2019-04-02T14:17:42Z</time>
      </trkpt>
      <trkpt lat="47.64133" lon="3.73055">
        <ele>178</ele>
        <time>2019-04-02T14:17:48Z</time>
      </trkpt>
      <trkpt lat="47.64131" lon="3.73058">
        <ele>178</ele>
        <time>2019-04-02T14:17:51Z</time>
      </trkpt>
      <trkpt lat="47.6413" lon="3.73061">
        <ele>178</ele>
        <time>2019-04-02T14:17:53Z</time>
      </trkpt>
      <trkpt lat="47.64128" lon="3.73065">
        <ele>178</ele>
        <time>2019-04-02T14:17:55Z</time>
      </trkpt>
      <trkpt lat="47.64125" lon="3.7307">
        <ele>179</ele>
        <time>2019-04-02T14:17:58Z</time>
      </trkpt>
      <trkpt lat="47.64122" lon="3.73076">
        <ele>178</ele>
        <time>2019-04-02T14:18:02Z</time>
      </trkpt>
      <trkpt lat="47.64117" lon="3.73085">
        <ele>176</ele>
        <time>2019-04-02T14:18:09Z</time>
      </trkpt>
      <trkpt lat="47.64114" lon="3.73089">
        <ele>176</ele>
        <time>2019-04-02T14:18:11Z</time>
      </trkpt>
      <trkpt lat="47.64112" lon="3.73092">
        <ele>175</ele>
        <time>2019-04-02T14:18:13Z</time>
      </trkpt>
      <trkpt lat="47.6411" lon="3.73098">
        <ele>177</ele>
        <time>2019-04-02T14:18:18Z</time>
      </trkpt>
      <trkpt lat="47.64104" lon="3.73104">
        <ele>178</ele>
        <time>2019-04-02T14:18:23Z</time>
      </trkpt>
      <trkpt lat="47.64102" lon="3.73111">
        <ele>177</ele>
        <time>2019-04-02T14:18:28Z</time>
      </trkpt>
      <trkpt lat="47.64101" lon="3.73119">
        <ele>177</ele>
        <time>2019-04-02T14:18:32Z</time>
      </trkpt>
      <trkpt lat="47.64096" lon="3.73126">
        <ele>177</ele>
        <time>2019-04-02T14:18:37Z</time>
      </trkpt>
      <trkpt lat="47.64093" lon="3.73131">
        <ele>177</ele>
        <time>2019-04-02T14:18:39Z</time>
      </trkpt>
      <trkpt lat="47.64091" lon="3.73134">
        <ele>176</ele>
        <time>2019-04-02T14:18:41Z</time>
      </trkpt>
      <trkpt lat="47.64088" lon="3.73141">
        <ele>177</ele>
        <time>2019-04-02T14:18:48Z</time>
      </trkpt>
      <trkpt lat="47.64084" lon="3.73145">
        <ele>176</ele>
        <time>2019-04-02T14:18:52Z</time>
      </trkpt>
      <trkpt lat="47.64079" lon="3.73152">
        <ele>177</ele>
        <time>2019-04-02T14:18:58Z</time>
      </trkpt>
      <trkpt lat="47.64076" lon="3.73157">
        <ele>176</ele>
        <time>2019-04-02T14:19:01Z</time>
      </trkpt>
      <trkpt lat="47.64073" lon="3.73161">
        <ele>176</ele>
        <time>2019-04-02T14:19:04Z</time>
      </trkpt>
      <trkpt lat="47.6407" lon="3.73165">
        <ele>176</ele>
        <time>2019-04-02T14:19:07Z</time>
      </trkpt>
      <trkpt lat="47.64065" lon="3.73174">
        <ele>175</ele>
        <time>2019-04-02T14:19:13Z</time>
      </trkpt>
      <trkpt lat="47.64062" lon="3.73181">
        <ele>175</ele>
        <time>2019-04-02T14:19:17Z</time>
      </trkpt>
      <trkpt lat="47.64059" lon="3.73187">
        <ele>176</ele>
        <time>2019-04-02T14:19:20Z</time>
      </trkpt>
      <trkpt lat="47.64054" lon="3.73191">
        <ele>175</ele>
        <time>2019-04-02T14:19:26Z</time>
      </trkpt>
      <trkpt lat="47.6405" lon="3.73197">
        <ele>174</ele>
        <time>2019-04-02T14:19:29Z</time>
      </trkpt>
      <trkpt lat="47.64047" lon="3.732">
        <ele>174</ele>
        <time>2019-04-02T14:19:32Z</time>
      </trkpt>
      <trkpt lat="47.64042" lon="3.73204">
        <ele>174</ele>
        <time>2019-04-02T14:19:37Z</time>
      </trkpt>
      <trkpt lat="47.64038" lon="3.73207">
        <ele>174</ele>
        <time>2019-04-02T14:19:40Z</time>
      </trkpt>
      <trkpt lat="47.64035" lon="3.73213">
        <ele>174</ele>
        <time>2019-04-02T14:19:44Z</time>
      </trkpt>
      <trkpt lat="47.64031" lon="3.73217">
        <ele>174</ele>
        <time>2019-04-02T14:19:47Z</time>
      </trkpt>
      <trkpt lat="47.64029" lon="3.73219">
        <ele>173</ele>
        <time>2019-04-02T14:19:49Z</time>
      </trkpt>
      <trkpt lat="47.64024" lon="3.73223">
        <ele>173</ele>
        <time>2019-04-02T14:19:54Z</time>
      </trkpt>
      <trkpt lat="47.64021" lon="3.73228">
        <ele>173</ele>
        <time>2019-04-02T14:19:57Z</time>
      </trkpt>
      <trkpt lat="47.64018" lon="3.73233">
        <ele>172</ele>
        <time>2019-04-02T14:20:00Z</time>
      </trkpt>
      <trkpt lat="47.64015" lon="3.73238">
        <ele>172</ele>
        <time>2019-04-02T14:20:03Z</time>
      </trkpt>
      <trkpt lat="47.64012" lon="3.73244">
        <ele>171</ele>
        <time>2019-04-02T14:20:07Z</time>
      </trkpt>
      <trkpt lat="47.64008" lon="3.73249">
        <ele>170</ele>
        <time>2019-04-02T14:20:11Z</time>
      </trkpt>
      <trkpt lat="47.64003" lon="3.73254">
        <ele>170</ele>
        <time>2019-04-02T14:20:16Z</time>
      </trkpt>
      <trkpt lat="47.63999" lon="3.73258">
        <ele>170</ele>
        <time>2019-04-02T14:20:19Z</time>
      </trkpt>
      <trkpt lat="47.63997" lon="3.73264">
        <ele>168</ele>
        <time>2019-04-02T14:20:23Z</time>
      </trkpt>
      <trkpt lat="47.63997" lon="3.73272">
        <ele>168</ele>
        <time>2019-04-02T14:20:28Z</time>
      </trkpt>
      <trkpt lat="47.63993" lon="3.73277">
        <ele>169</ele>
        <time>2019-04-02T14:20:32Z</time>
      </trkpt>
      <trkpt lat="47.63988" lon="3.73279">
        <ele>168</ele>
        <time>2019-04-02T14:20:36Z</time>
      </trkpt>
      <trkpt lat="47.63985" lon="3.73279">
        <ele>167</ele>
        <time>2019-04-02T14:20:38Z</time>
      </trkpt>
      <trkpt lat="47.63982" lon="3.73285">
        <ele>167</ele>
        <time>2019-04-02T14:20:43Z</time>
      </trkpt>
      <trkpt lat="47.63978" lon="3.7329">
        <ele>168</ele>
        <time>2019-04-02T14:20:48Z</time>
      </trkpt>
      <trkpt lat="47.63975" lon="3.73294">
        <ele>168</ele>
        <time>2019-04-02T14:20:54Z</time>
      </trkpt>
      <trkpt lat="47.63973" lon="3.733">
        <ele>167</ele>
        <time>2019-04-02T14:20:57Z</time>
      </trkpt>
      <trkpt lat="47.63968" lon="3.73304">
        <ele>166</ele>
        <time>2019-04-02T14:21:01Z</time>
      </trkpt>
      <trkpt lat="47.63962" lon="3.73308">
        <ele>166</ele>
        <time>2019-04-02T14:21:05Z</time>
      </trkpt>
      <trkpt lat="47.63958" lon="3.73313">
        <ele>165</ele>
        <time>2019-04-02T14:21:08Z</time>
      </trkpt>
      <trkpt lat="47.63954" lon="3.73314">
        <ele>165</ele>
        <time>2019-04-02T14:21:11Z</time>
      </trkpt>
      <trkpt lat="47.63948" lon="3.73319">
        <ele>165</ele>
        <time>2019-04-02T14:21:15Z</time>
      </trkpt>
      <trkpt lat="47.63944" lon="3.73322">
        <ele>166</ele>
        <time>2019-04-02T14:21:19Z</time>
      </trkpt>
      <trkpt lat="47.6394" lon="3.73326">
        <ele>166</ele>
        <time>2019-04-02T14:21:24Z</time>
      </trkpt>
      <trkpt lat="47.63937" lon="3.73328">
        <ele>167</ele>
        <time>2019-04-02T14:21:26Z</time>
      </trkpt>
      <trkpt lat="47.63933" lon="3.73332">
        <ele>167</ele>
        <time>2019-04-02T14:21:31Z</time>
      </trkpt>
      <trkpt lat="47.63928" lon="3.7334">
        <ele>168</ele>
        <time>2019-04-02T14:21:37Z</time>
      </trkpt>
      <trkpt lat="47.63923" lon="3.73345">
        <ele>167</ele>
        <time>2019-04-02T14:21:41Z</time>
      </trkpt>
      <trkpt lat="47.63921" lon="3.73347">
        <ele>167</ele>
        <time>2019-04-02T14:21:43Z</time>
      </trkpt>
      <trkpt lat="47.63919" lon="3.73349">
        <ele>167</ele>
        <time>2019-04-02T14:21:46Z</time>
      </trkpt>
      <trkpt lat="47.63915" lon="3.73351">
        <ele>166</ele>
        <time>2019-04-02T14:21:50Z</time>
      </trkpt>
      <trkpt lat="47.63911" lon="3.73354">
        <ele>167</ele>
        <time>2019-04-02T14:21:52Z</time>
      </trkpt>
      <trkpt lat="47.63907" lon="3.73356">
        <ele>166</ele>
        <time>2019-04-02T14:21:55Z</time>
      </trkpt>
      <trkpt lat="47.63904" lon="3.73357">
        <ele>167</ele>
        <time>2019-04-02T14:21:57Z</time>
      </trkpt>
      <trkpt lat="47.63902" lon="3.73358">
        <ele>168</ele>
        <time>2019-04-02T14:21:59Z</time>
      </trkpt>
      <trkpt lat="47.63898" lon="3.73363">
        <ele>169</ele>
        <time>2019-04-02T14:22:02Z</time>
      </trkpt>
      <trkpt lat="47.63896" lon="3.73366">
        <ele>169</ele>
        <time>2019-04-02T14:22:05Z</time>
      </trkpt>
      <trkpt lat="47.63891" lon="3.73372">
        <ele>169</ele>
        <time>2019-04-02T14:22:10Z</time>
      </trkpt>
      <trkpt lat="47.63886" lon="3.73376">
        <ele>170</ele>
        <time>2019-04-02T14:22:14Z</time>
      </trkpt>
      <trkpt lat="47.63881" lon="3.73379">
        <ele>170</ele>
        <time>2019-04-02T14:22:17Z</time>
      </trkpt>
      <trkpt lat="47.63879" lon="3.7338">
        <ele>170</ele>
        <time>2019-04-02T14:22:20Z</time>
      </trkpt>
      <trkpt lat="47.63875" lon="3.73384">
        <ele>170</ele>
        <time>2019-04-02T14:22:24Z</time>
      </trkpt>
      <trkpt lat="47.63872" lon="3.73387">
        <ele>171</ele>
        <time>2019-04-02T14:22:25Z</time>
      </trkpt>
      <trkpt lat="47.63869" lon="3.73389">
        <ele>170</ele>
        <time>2019-04-02T14:22:28Z</time>
      </trkpt>
      <trkpt lat="47.63866" lon="3.73395">
        <ele>171</ele>
        <time>2019-04-02T14:22:32Z</time>
      </trkpt>
      <trkpt lat="47.63864" lon="3.73399">
        <ele>171</ele>
        <time>2019-04-02T14:22:35Z</time>
      </trkpt>
      <trkpt lat="47.6386" lon="3.73401">
        <ele>173</ele>
        <time>2019-04-02T14:22:40Z</time>
      </trkpt>
      <trkpt lat="47.63854" lon="3.73406">
        <ele>173</ele>
        <time>2019-04-02T14:22:45Z</time>
      </trkpt>
      <trkpt lat="47.6385" lon="3.73411">
        <ele>174</ele>
        <time>2019-04-02T14:22:50Z</time>
      </trkpt>
      <trkpt lat="47.63848" lon="3.73413">
        <ele>174</ele>
        <time>2019-04-02T14:22:52Z</time>
      </trkpt>
      <trkpt lat="47.63843" lon="3.73416">
        <ele>174</ele>
        <time>2019-04-02T14:22:56Z</time>
      </trkpt>
      <trkpt lat="47.63838" lon="3.7342">
        <ele>173</ele>
        <time>2019-04-02T14:22:59Z</time>
      </trkpt>
      <trkpt lat="47.63835" lon="3.73423">
        <ele>174</ele>
        <time>2019-04-02T14:23:04Z</time>
      </trkpt>
      <trkpt lat="47.63831" lon="3.73426">
        <ele>174</ele>
        <time>2019-04-02T14:23:08Z</time>
      </trkpt>
      <trkpt lat="47.63826" lon="3.73429">
        <ele>174</ele>
        <time>2019-04-02T14:23:13Z</time>
      </trkpt>
      <trkpt lat="47.63821" lon="3.73433">
        <ele>175</ele>
        <time>2019-04-02T14:23:17Z</time>
      </trkpt>
      <trkpt lat="47.63815" lon="3.73437">
        <ele>174</ele>
        <time>2019-04-02T14:23:21Z</time>
      </trkpt>
      <trkpt lat="47.6381" lon="3.7344">
        <ele>175</ele>
        <time>2019-04-02T14:23:26Z</time>
      </trkpt>
      <trkpt lat="47.63805" lon="3.73444">
        <ele>175</ele>
        <time>2019-04-02T14:23:29Z</time>
      </trkpt>
      <trkpt lat="47.638" lon="3.73446">
        <ele>176</ele>
        <time>2019-04-02T14:23:33Z</time>
      </trkpt>
      <trkpt lat="47.63797" lon="3.73452">
        <ele>176</ele>
        <time>2019-04-02T14:23:37Z</time>
      </trkpt>
      <trkpt lat="47.63791" lon="3.73457">
        <ele>177</ele>
        <time>2019-04-02T14:23:41Z</time>
      </trkpt>
      <trkpt lat="47.63788" lon="3.73459">
        <ele>176</ele>
        <time>2019-04-02T14:23:43Z</time>
      </trkpt>
      <trkpt lat="47.63785" lon="3.73465">
        <ele>177</ele>
        <time>2019-04-02T14:23:47Z</time>
      </trkpt>
      <trkpt lat="47.63781" lon="3.73469">
        <ele>177</ele>
        <time>2019-04-02T14:23:50Z</time>
      </trkpt>
      <trkpt lat="47.63776" lon="3.73476">
        <ele>177</ele>
        <time>2019-04-02T14:23:56Z</time>
      </trkpt>
      <trkpt lat="47.63774" lon="3.7348">
        <ele>177</ele>
        <time>2019-04-02T14:23:59Z</time>
      </trkpt>
      <trkpt lat="47.6377" lon="3.73488">
        <ele>179</ele>
        <time>2019-04-02T14:24:05Z</time>
      </trkpt>
      <trkpt lat="47.63769" lon="3.73495">
        <ele>178</ele>
        <time>2019-04-02T14:24:08Z</time>
      </trkpt>
      <trkpt lat="47.63769" lon="3.73499">
        <ele>178</ele>
        <time>2019-04-02T14:24:10Z</time>
      </trkpt>
      <trkpt lat="47.63767" lon="3.73505">
        <ele>179</ele>
        <time>2019-04-02T14:24:14Z</time>
      </trkpt>
      <trkpt lat="47.63765" lon="3.73509">
        <ele>179</ele>
        <time>2019-04-02T14:24:16Z</time>
      </trkpt>
      <trkpt lat="47.63764" lon="3.73518">
        <ele>178</ele>
        <time>2019-04-02T14:24:22Z</time>
      </trkpt>
      <trkpt lat="47.63762" lon="3.73524">
        <ele>177</ele>
        <time>2019-04-02T14:24:25Z</time>
      </trkpt>
      <trkpt lat="47.6376" lon="3.73528">
        <ele>176</ele>
        <time>2019-04-02T14:24:27Z</time>
      </trkpt>
      <trkpt lat="47.63757" lon="3.73534">
        <ele>175</ele>
        <time>2019-04-02T14:24:31Z</time>
      </trkpt>
      <trkpt lat="47.63755" lon="3.73542">
        <ele>174</ele>
        <time>2019-04-02T14:24:35Z</time>
      </trkpt>
      <trkpt lat="47.63751" lon="3.73549">
        <ele>174</ele>
        <time>2019-04-02T14:24:39Z</time>
      </trkpt>
      <trkpt lat="47.63747" lon="3.73553">
        <ele>174</ele>
        <time>2019-04-02T14:24:42Z</time>
      </trkpt>
      <trkpt lat="47.63744" lon="3.73558">
        <ele>173</ele>
        <time>2019-04-02T14:24:45Z</time>
      </trkpt>
      <trkpt lat="47.63741" lon="3.73563">
        <ele>172</ele>
        <time>2019-04-02T14:24:48Z</time>
      </trkpt>
      <trkpt lat="47.63739" lon="3.7357">
        <ele>172</ele>
        <time>2019-04-02T14:24:52Z</time>
      </trkpt>
      <trkpt lat="47.63737" lon="3.73576">
        <ele>171</ele>
        <time>2019-04-02T14:24:55Z</time>
      </trkpt>
      <trkpt lat="47.63733" lon="3.73586">
        <ele>171</ele>
        <time>2019-04-02T14:25:01Z</time>
      </trkpt>
      <trkpt lat="47.63728" lon="3.73595">
        <ele>172</ele>
        <time>2019-04-02T14:25:09Z</time>
      </trkpt>
      <trkpt lat="47.63724" lon="3.73603">
        <ele>172</ele>
        <time>2019-04-02T14:25:15Z</time>
      </trkpt>
      <trkpt lat="47.63721" lon="3.73608">
        <ele>172</ele>
        <time>2019-04-02T14:25:18Z</time>
      </trkpt>
      <trkpt lat="47.63719" lon="3.73611">
        <ele>173</ele>
        <time>2019-04-02T14:25:20Z</time>
      </trkpt>
      <trkpt lat="47.63716" lon="3.73618">
        <ele>173</ele>
        <time>2019-04-02T14:25:25Z</time>
      </trkpt>
      <trkpt lat="47.63715" lon="3.73622">
        <ele>172</ele>
        <time>2019-04-02T14:25:28Z</time>
      </trkpt>
      <trkpt lat="47.63712" lon="3.73629">
        <ele>172</ele>
        <time>2019-04-02T14:25:31Z</time>
      </trkpt>
      <trkpt lat="47.63709" lon="3.73635">
        <ele>172</ele>
        <time>2019-04-02T14:25:33Z</time>
      </trkpt>
      <trkpt lat="47.63707" lon="3.73641">
        <ele>174</ele>
        <time>2019-04-02T14:25:36Z</time>
      </trkpt>
      <trkpt lat="47.63704" lon="3.7365">
        <ele>172</ele>
        <time>2019-04-02T14:25:43Z</time>
      </trkpt>
      <trkpt lat="47.637" lon="3.73657">
        <ele>172</ele>
        <time>2019-04-02T14:25:47Z</time>
      </trkpt>
      <trkpt lat="47.63697" lon="3.73664">
        <ele>173</ele>
        <time>2019-04-02T14:25:51Z</time>
      </trkpt>
      <trkpt lat="47.63695" lon="3.73669">
        <ele>174</ele>
        <time>2019-04-02T14:25:54Z</time>
      </trkpt>
      <trkpt lat="47.63694" lon="3.73676">
        <ele>175</ele>
        <time>2019-04-02T14:25:59Z</time>
      </trkpt>
      <trkpt lat="47.6369" lon="3.7368">
        <ele>175</ele>
        <time>2019-04-02T14:26:02Z</time>
      </trkpt>
      <trkpt lat="47.63687" lon="3.73688">
        <ele>174</ele>
        <time>2019-04-02T14:26:07Z</time>
      </trkpt>
      <trkpt lat="47.63685" lon="3.73694">
        <ele>174</ele>
        <time>2019-04-02T14:26:10Z</time>
      </trkpt>
      <trkpt lat="47.63682" lon="3.73699">
        <ele>173</ele>
        <time>2019-04-02T14:26:13Z</time>
      </trkpt>
      <trkpt lat="47.63678" lon="3.73707">
        <ele>172</ele>
        <time>2019-04-02T14:26:18Z</time>
      </trkpt>
      <trkpt lat="47.63674" lon="3.73713">
        <ele>173</ele>
        <time>2019-04-02T14:26:22Z</time>
      </trkpt>
      <trkpt lat="47.63671" lon="3.73718">
        <ele>172</ele>
        <time>2019-04-02T14:26:25Z</time>
      </trkpt>
      <trkpt lat="47.63668" lon="3.7372">
        <ele>171</ele>
        <time>2019-04-02T14:26:27Z</time>
      </trkpt>
      <trkpt lat="47.63665" lon="3.73724">
        <ele>172</ele>
        <time>2019-04-02T14:26:30Z</time>
      </trkpt>
      <trkpt lat="47.63661" lon="3.73727">
        <ele>171</ele>
        <time>2019-04-02T14:26:33Z</time>
      </trkpt>
      <trkpt lat="47.63656" lon="3.73733">
        <ele>169</ele>
        <time>2019-04-02T14:26:37Z</time>
      </trkpt>
      <trkpt lat="47.63651" lon="3.73735">
        <ele>169</ele>
        <time>2019-04-02T14:26:41Z</time>
      </trkpt>
      <trkpt lat="47.63646" lon="3.73737">
        <ele>169</ele>
        <time>2019-04-02T14:26:44Z</time>
      </trkpt>
      <trkpt lat="47.63644" lon="3.73737">
        <ele>169</ele>
        <time>2019-04-02T14:26:46Z</time>
      </trkpt>
      <trkpt lat="47.6364" lon="3.73741">
        <ele>168</ele>
        <time>2019-04-02T14:26:52Z</time>
      </trkpt>
      <trkpt lat="47.63636" lon="3.73745">
        <ele>168</ele>
        <time>2019-04-02T14:26:55Z</time>
      </trkpt>
      <trkpt lat="47.63629" lon="3.73749">
        <ele>168</ele>
        <time>2019-04-02T14:27:00Z</time>
      </trkpt>
      <trkpt lat="47.63624" lon="3.73752">
        <ele>168</ele>
        <time>2019-04-02T14:27:04Z</time>
      </trkpt>
      <trkpt lat="47.63619" lon="3.73756">
        <ele>169</ele>
        <time>2019-04-02T14:27:10Z</time>
      </trkpt>
      <trkpt lat="47.63615" lon="3.73759">
        <ele>170</ele>
        <time>2019-04-02T14:27:15Z</time>
      </trkpt>
      <trkpt lat="47.63611" lon="3.73761">
        <ele>170</ele>
        <time>2019-04-02T14:27:17Z</time>
      </trkpt>
      <trkpt lat="47.63605" lon="3.73762">
        <ele>169</ele>
        <time>2019-04-02T14:27:20Z</time>
      </trkpt>
      <trkpt lat="47.63599" lon="3.73766">
        <ele>167</ele>
        <time>2019-04-02T14:27:25Z</time>
      </trkpt>
      <trkpt lat="47.63596" lon="3.73769">
        <ele>168</ele>
        <time>2019-04-02T14:27:28Z</time>
      </trkpt>
      <trkpt lat="47.63591" lon="3.73771">
        <ele>169</ele>
        <time>2019-04-02T14:27:33Z</time>
      </trkpt>
      <trkpt lat="47.63585" lon="3.73777">
        <ele>168</ele>
        <time>2019-04-02T14:27:39Z</time>
      </trkpt>
      <trkpt lat="47.63583" lon="3.73779">
        <ele>166</ele>
        <time>2019-04-02T14:27:41Z</time>
      </trkpt>
      <trkpt lat="47.63577" lon="3.73782">
        <ele>167</ele>
        <time>2019-04-02T14:27:45Z</time>
      </trkpt>
      <trkpt lat="47.63575" lon="3.73784">
        <ele>168</ele>
        <time>2019-04-02T14:27:47Z</time>
      </trkpt>
      <trkpt lat="47.63569" lon="3.73785">
        <ele>169</ele>
        <time>2019-04-02T14:27:51Z</time>
      </trkpt>
      <trkpt lat="47.63565" lon="3.73787">
        <ele>169</ele>
        <time>2019-04-02T14:27:55Z</time>
      </trkpt>
      <trkpt lat="47.63563" lon="3.73788">
        <ele>169</ele>
        <time>2019-04-02T14:27:58Z</time>
      </trkpt>
      <trkpt lat="47.63558" lon="3.7379">
        <ele>170</ele>
        <time>2019-04-02T14:28:01Z</time>
      </trkpt>
      <trkpt lat="47.63555" lon="3.73791">
        <ele>171</ele>
        <time>2019-04-02T14:28:04Z</time>
      </trkpt>
      <trkpt lat="47.63551" lon="3.73794">
        <ele>169</ele>
        <time>2019-04-02T14:28:07Z</time>
      </trkpt>
      <trkpt lat="47.63547" lon="3.73796">
        <ele>169</ele>
        <time>2019-04-02T14:28:10Z</time>
      </trkpt>
      <trkpt lat="47.63542" lon="3.73796">
        <ele>169</ele>
        <time>2019-04-02T14:28:14Z</time>
      </trkpt>
      <trkpt lat="47.63538" lon="3.73795">
        <ele>169</ele>
        <time>2019-04-02T14:28:17Z</time>
      </trkpt>
      <trkpt lat="47.63535" lon="3.73795">
        <ele>169</ele>
        <time>2019-04-02T14:28:19Z</time>
      </trkpt>
      <trkpt lat="47.6353" lon="3.73797">
        <ele>170</ele>
        <time>2019-04-02T14:28:25Z</time>
      </trkpt>
      <trkpt lat="47.63522" lon="3.73796">
        <ele>170</ele>
        <time>2019-04-02T14:28:31Z</time>
      </trkpt>
      <trkpt lat="47.63518" lon="3.73795">
        <ele>173</ele>
        <time>2019-04-02T14:28:35Z</time>
      </trkpt>
      <trkpt lat="47.63511" lon="3.73796">
        <ele>173</ele>
        <time>2019-04-02T14:28:40Z</time>
      </trkpt>
      <trkpt lat="47.63509" lon="3.73796">
        <ele>173</ele>
        <time>2019-04-02T14:28:42Z</time>
      </trkpt>
      <trkpt lat="47.63504" lon="3.73794">
        <ele>173</ele>
        <time>2019-04-02T14:28:47Z</time>
      </trkpt>
      <trkpt lat="47.63499" lon="3.73795">
        <ele>174</ele>
        <time>2019-04-02T14:28:53Z</time>
      </trkpt>
      <trkpt lat="47.63492" lon="3.73797">
        <ele>176</ele>
        <time>2019-04-02T14:28:58Z</time>
      </trkpt>
      <trkpt lat="47.63487" lon="3.73798">
        <ele>176</ele>
        <time>2019-04-02T14:29:01Z</time>
      </trkpt>
      <trkpt lat="47.63484" lon="3.73798">
        <ele>176</ele>
        <time>2019-04-02T14:29:03Z</time>
      </trkpt>
      <trkpt lat="47.63481" lon="3.73799">
        <ele>176</ele>
        <time>2019-04-02T14:29:05Z</time>
      </trkpt>
      <trkpt lat="47.63473" lon="3.73799">
        <ele>178</ele>
        <time>2019-04-02T14:29:09Z</time>
      </trkpt>
      <trkpt lat="47.63468" lon="3.738">
        <ele>177</ele>
        <time>2019-04-02T14:29:12Z</time>
      </trkpt>
      <trkpt lat="47.63465" lon="3.738">
        <ele>177</ele>
        <time>2019-04-02T14:29:15Z</time>
      </trkpt>
      <trkpt lat="47.6346" lon="3.73801">
        <ele>178</ele>
        <time>2019-04-02T14:29:20Z</time>
      </trkpt>
      <trkpt lat="47.63455" lon="3.73802">
        <ele>180</ele>
        <time>2019-04-02T14:29:24Z</time>
      </trkpt>
      <trkpt lat="47.6345" lon="3.73802">
        <ele>181</ele>
        <time>2019-04-02T14:29:27Z</time>
      </trkpt>
      <trkpt lat="47.63445" lon="3.73804">
        <ele>182</ele>
        <time>2019-04-02T14:29:32Z</time>
      </trkpt>
      <trkpt lat="47.63439" lon="3.73808">
        <ele>182</ele>
        <time>2019-04-02T14:29:36Z</time>
      </trkpt>
      <trkpt lat="47.63432" lon="3.73808">
        <ele>183</ele>
        <time>2019-04-02T14:29:39Z</time>
      </trkpt>
      <trkpt lat="47.63429" lon="3.73808">
        <ele>183</ele>
        <time>2019-04-02T14:29:42Z</time>
      </trkpt>
      <trkpt lat="47.63425" lon="3.73809">
        <ele>182</ele>
        <time>2019-04-02T14:29:45Z</time>
      </trkpt>
      <trkpt lat="47.63419" lon="3.73811">
        <ele>182</ele>
        <time>2019-04-02T14:29:51Z</time>
      </trkpt>
      <trkpt lat="47.63414" lon="3.73813">
        <ele>181</ele>
        <time>2019-04-02T14:29:54Z</time>
      </trkpt>
      <trkpt lat="47.63412" lon="3.73814">
        <ele>181</ele>
        <time>2019-04-02T14:29:56Z</time>
      </trkpt>
      <trkpt lat="47.63409" lon="3.73815">
        <ele>180</ele>
        <time>2019-04-02T14:29:59Z</time>
      </trkpt>
      <trkpt lat="47.63405" lon="3.73815">
        <ele>180</ele>
        <time>2019-04-02T14:30:03Z</time>
      </trkpt>
      <trkpt lat="47.63399" lon="3.73816">
        <ele>180</ele>
        <time>2019-04-02T14:30:07Z</time>
      </trkpt>
      <trkpt lat="47.63393" lon="3.73818">
        <ele>180</ele>
        <time>2019-04-02T14:30:12Z</time>
      </trkpt>
      <trkpt lat="47.6339" lon="3.73819">
        <ele>182</ele>
        <time>2019-04-02T14:30:15Z</time>
      </trkpt>
      <trkpt lat="47.63386" lon="3.7382">
        <ele>182</ele>
        <time>2019-04-02T14:30:18Z</time>
      </trkpt>
      <trkpt lat="47.6338" lon="3.73824">
        <ele>181</ele>
        <time>2019-04-02T14:30:23Z</time>
      </trkpt>
      <trkpt lat="47.63376" lon="3.73827">
        <ele>182</ele>
        <time>2019-04-02T14:30:26Z</time>
      </trkpt>
      <trkpt lat="47.63371" lon="3.7383">
        <ele>181</ele>
        <time>2019-04-02T14:30:30Z</time>
      </trkpt>
      <trkpt lat="47.63369" lon="3.73832">
        <ele>181</ele>
        <time>2019-04-02T14:30:33Z</time>
      </trkpt>
      <trkpt lat="47.63364" lon="3.73834">
        <ele>181</ele>
        <time>2019-04-02T14:30:36Z</time>
      </trkpt>
      <trkpt lat="47.63362" lon="3.73836">
        <ele>181</ele>
        <time>2019-04-02T14:30:38Z</time>
      </trkpt>
      <trkpt lat="47.63359" lon="3.73837">
        <ele>180</ele>
        <time>2019-04-02T14:30:40Z</time>
      </trkpt>
      <trkpt lat="47.63353" lon="3.73842">
        <ele>177</ele>
        <time>2019-04-02T14:30:45Z</time>
      </trkpt>
      <trkpt lat="47.6335" lon="3.73845">
        <ele>178</ele>
        <time>2019-04-02T14:30:48Z</time>
      </trkpt>
      <trkpt lat="47.63343" lon="3.73849">
        <ele>178</ele>
        <time>2019-04-02T14:30:54Z</time>
      </trkpt>
      <trkpt lat="47.63339" lon="3.73851">
        <ele>178</ele>
        <time>2019-04-02T14:30:59Z</time>
      </trkpt>
      <trkpt lat="47.63336" lon="3.73852">
        <ele>179</ele>
        <time>2019-04-02T14:31:00Z</time>
      </trkpt>
      <trkpt lat="47.63333" lon="3.73853">
        <ele>178</ele>
        <time>2019-04-02T14:31:02Z</time>
      </trkpt>
      <trkpt lat="47.6333" lon="3.73855">
        <ele>178</ele>
        <time>2019-04-02T14:31:04Z</time>
      </trkpt>
      <trkpt lat="47.63326" lon="3.73856">
        <ele>177</ele>
        <time>2019-04-02T14:31:06Z</time>
      </trkpt>
      <trkpt lat="47.63323" lon="3.73857">
        <ele>176</ele>
        <time>2019-04-02T14:31:08Z</time>
      </trkpt>
      <trkpt lat="47.63319" lon="3.73861">
        <ele>176</ele>
        <time>2019-04-02T14:31:11Z</time>
      </trkpt>
      <trkpt lat="47.63314" lon="3.73863">
        <ele>175</ele>
        <time>2019-04-02T14:31:16Z</time>
      </trkpt>
      <trkpt lat="47.6331" lon="3.73868">
        <ele>176</ele>
        <time>2019-04-02T14:31:20Z</time>
      </trkpt>
      <trkpt lat="47.63305" lon="3.73871">
        <ele>178</ele>
        <time>2019-04-02T14:31:23Z</time>
      </trkpt>
      <trkpt lat="47.633" lon="3.73875">
        <ele>175</ele>
        <time>2019-04-02T14:31:28Z</time>
      </trkpt>
      <trkpt lat="47.63294" lon="3.73877">
        <ele>176</ele>
        <time>2019-04-02T14:31:30Z</time>
      </trkpt>
      <trkpt lat="47.6329" lon="3.73879">
        <ele>174</ele>
        <time>2019-04-02T14:31:34Z</time>
      </trkpt>
      <trkpt lat="47.63285" lon="3.73882">
        <ele>173</ele>
        <time>2019-04-02T14:31:38Z</time>
      </trkpt>
      <trkpt lat="47.6328" lon="3.73884">
        <ele>173</ele>
        <time>2019-04-02T14:31:40Z</time>
      </trkpt>
      <trkpt lat="47.63275" lon="3.73887">
        <ele>172</ele>
        <time>2019-04-02T14:31:45Z</time>
      </trkpt>
      <trkpt lat="47.63269" lon="3.73892">
        <ele>172</ele>
        <time>2019-04-02T14:31:48Z</time>
      </trkpt>
      <trkpt lat="47.63266" lon="3.73894">
        <ele>171</ele>
        <time>2019-04-02T14:31:52Z</time>
      </trkpt>
      <trkpt lat="47.63261" lon="3.73896">
        <ele>171</ele>
        <time>2019-04-02T14:31:56Z</time>
      </trkpt>
      <trkpt lat="47.63257" lon="3.73898">
        <ele>172</ele>
        <time>2019-04-02T14:32:01Z</time>
      </trkpt>
      <trkpt lat="47.63251" lon="3.73899">
        <ele>172</ele>
        <time>2019-04-02T14:32:06Z</time>
      </trkpt>
      <trkpt lat="47.63248" lon="3.739">
        <ele>172</ele>
        <time>2019-04-02T14:32:09Z</time>
      </trkpt>
      <trkpt lat="47.63243" lon="3.73899">
        <ele>172</ele>
        <time>2019-04-02T14:32:13Z</time>
      </trkpt>
      <trkpt lat="47.63238" lon="3.73899">
        <ele>173</ele>
        <time>2019-04-02T14:32:17Z</time>
      </trkpt>
      <trkpt lat="47.63232" lon="3.73899">
        <ele>172</ele>
        <time>2019-04-02T14:32:22Z</time>
      </trkpt>
      <trkpt lat="47.63223" lon="3.739">
        <ele>174</ele>
        <time>2019-04-02T14:32:27Z</time>
      </trkpt>
      <trkpt lat="47.63219" lon="3.73901">
        <ele>174</ele>
        <time>2019-04-02T14:32:30Z</time>
      </trkpt>
      <trkpt lat="47.63214" lon="3.73901">
        <ele>174</ele>
        <time>2019-04-02T14:32:33Z</time>
      </trkpt>
      <trkpt lat="47.63209" lon="3.73902">
        <ele>174</ele>
        <time>2019-04-02T14:32:37Z</time>
      </trkpt>
      <trkpt lat="47.63206" lon="3.73902">
        <ele>175</ele>
        <time>2019-04-02T14:32:40Z</time>
      </trkpt>
      <trkpt lat="47.63203" lon="3.73903">
        <ele>174</ele>
        <time>2019-04-02T14:32:43Z</time>
      </trkpt>
      <trkpt lat="47.63196" lon="3.73901">
        <ele>174</ele>
        <time>2019-04-02T14:32:49Z</time>
      </trkpt>
      <trkpt lat="47.63189" lon="3.739">
        <ele>174</ele>
        <time>2019-04-02T14:32:54Z</time>
      </trkpt>
      <trkpt lat="47.63184" lon="3.73898">
        <ele>176</ele>
        <time>2019-04-02T14:32:59Z</time>
      </trkpt>
      <trkpt lat="47.63177" lon="3.73898">
        <ele>174</ele>
        <time>2019-04-02T14:33:04Z</time>
      </trkpt>
      <trkpt lat="47.63173" lon="3.73897">
        <ele>174</ele>
        <time>2019-04-02T14:33:06Z</time>
      </trkpt>
      <trkpt lat="47.63168" lon="3.73895">
        <ele>174</ele>
        <time>2019-04-02T14:33:09Z</time>
      </trkpt>
      <trkpt lat="47.63161" lon="3.73895">
        <ele>174</ele>
        <time>2019-04-02T14:33:16Z</time>
      </trkpt>
      <trkpt lat="47.63155" lon="3.73896">
        <ele>175</ele>
        <time>2019-04-02T14:33:22Z</time>
      </trkpt>
      <trkpt lat="47.63151" lon="3.73896">
        <ele>174</ele>
        <time>2019-04-02T14:33:25Z</time>
      </trkpt>
      <trkpt lat="47.63145" lon="3.73895">
        <ele>175</ele>
        <time>2019-04-02T14:33:30Z</time>
      </trkpt>
      <trkpt lat="47.6314" lon="3.73895">
        <ele>176</ele>
        <time>2019-04-02T14:33:34Z</time>
      </trkpt>
      <trkpt lat="47.63136" lon="3.73894">
        <ele>176</ele>
        <time>2019-04-02T14:33:38Z</time>
      </trkpt>
      <trkpt lat="47.6313" lon="3.73894">
        <ele>177</ele>
        <time>2019-04-02T14:33:43Z</time>
      </trkpt>
      <trkpt lat="47.63125" lon="3.73893">
        <ele>177</ele>
        <time>2019-04-02T14:33:45Z</time>
      </trkpt>
      <trkpt lat="47.63113" lon="3.7389">
        <ele>179</ele>
        <time>2019-04-02T14:33:52Z</time>
      </trkpt>
      <trkpt lat="47.6311" lon="3.7389">
        <ele>178</ele>
        <time>2019-04-02T14:33:55Z</time>
      </trkpt>
      <trkpt lat="47.63105" lon="3.73887">
        <ele>177</ele>
        <time>2019-04-02T14:33:59Z</time>
      </trkpt>
      <trkpt lat="47.631" lon="3.73886">
        <ele>175</ele>
        <time>2019-04-02T14:34:03Z</time>
      </trkpt>
      <trkpt lat="47.63094" lon="3.73885">
        <ele>175</ele>
        <time>2019-04-02T14:34:07Z</time>
      </trkpt>
      <trkpt lat="47.63091" lon="3.73883">
        <ele>174</ele>
        <time>2019-04-02T14:34:09Z</time>
      </trkpt>
      <trkpt lat="47.63087" lon="3.73882">
        <ele>174</ele>
        <time>2019-04-02T14:34:11Z</time>
      </trkpt>
      <trkpt lat="47.63082" lon="3.73879">
        <ele>173</ele>
        <time>2019-04-02T14:34:16Z</time>
      </trkpt>
      <trkpt lat="47.63077" lon="3.73876">
        <ele>171</ele>
        <time>2019-04-02T14:34:19Z</time>
      </trkpt>
      <trkpt lat="47.63075" lon="3.73875">
        <ele>170</ele>
        <time>2019-04-02T14:34:21Z</time>
      </trkpt>
      <trkpt lat="47.63072" lon="3.73874">
        <ele>169</ele>
        <time>2019-04-02T14:34:23Z</time>
      </trkpt>
      <trkpt lat="47.63067" lon="3.73871">
        <ele>171</ele>
        <time>2019-04-02T14:34:29Z</time>
      </trkpt>
      <trkpt lat="47.63063" lon="3.73868">
        <ele>171</ele>
        <time>2019-04-02T14:34:32Z</time>
      </trkpt>
      <trkpt lat="47.63058" lon="3.73863">
        <ele>172</ele>
        <time>2019-04-02T14:34:35Z</time>
      </trkpt>
      <trkpt lat="47.63054" lon="3.7386">
        <ele>173</ele>
        <time>2019-04-02T14:34:38Z</time>
      </trkpt>
      <trkpt lat="47.63049" lon="3.73859">
        <ele>174</ele>
        <time>2019-04-02T14:34:41Z</time>
      </trkpt>
      <trkpt lat="47.63043" lon="3.73857">
        <ele>174</ele>
        <time>2019-04-02T14:34:46Z</time>
      </trkpt>
      <trkpt lat="47.6304" lon="3.73855">
        <ele>173</ele>
        <time>2019-04-02T14:34:48Z</time>
      </trkpt>
      <trkpt lat="47.63035" lon="3.73852">
        <ele>172</ele>
        <time>2019-04-02T14:34:51Z</time>
      </trkpt>
      <trkpt lat="47.63029" lon="3.7385">
        <ele>172</ele>
        <time>2019-04-02T14:34:55Z</time>
      </trkpt>
      <trkpt lat="47.63024" lon="3.73849">
        <ele>174</ele>
        <time>2019-04-02T14:34:59Z</time>
      </trkpt>
      <trkpt lat="47.63018" lon="3.73846">
        <ele>175</ele>
        <time>2019-04-02T14:35:03Z</time>
      </trkpt>
      <trkpt lat="47.63013" lon="3.73843">
        <ele>175</ele>
        <time>2019-04-02T14:35:08Z</time>
      </trkpt>
      <trkpt lat="47.63007" lon="3.73838">
        <ele>175</ele>
        <time>2019-04-02T14:35:14Z</time>
      </trkpt>
      <trkpt lat="47.63001" lon="3.73835">
        <ele>175</ele>
        <time>2019-04-02T14:35:18Z</time>
      </trkpt>
      <trkpt lat="47.62997" lon="3.73833">
        <ele>175</ele>
        <time>2019-04-02T14:35:20Z</time>
      </trkpt>
      <trkpt lat="47.62994" lon="3.73832">
        <ele>174</ele>
        <time>2019-04-02T14:35:22Z</time>
      </trkpt>
      <trkpt lat="47.62992" lon="3.7383">
        <ele>174</ele>
        <time>2019-04-02T14:35:24Z</time>
      </trkpt>
      <trkpt lat="47.62987" lon="3.73826">
        <ele>174</ele>
        <time>2019-04-02T14:35:29Z</time>
      </trkpt>
      <trkpt lat="47.62982" lon="3.73824">
        <ele>176</ele>
        <time>2019-04-02T14:35:33Z</time>
      </trkpt>
      <trkpt lat="47.62976" lon="3.73822">
        <ele>177</ele>
        <time>2019-04-02T14:35:37Z</time>
      </trkpt>
      <trkpt lat="47.62972" lon="3.73821">
        <ele>177</ele>
        <time>2019-04-02T14:35:40Z</time>
      </trkpt>
      <trkpt lat="47.62967" lon="3.73818">
        <ele>178</ele>
        <time>2019-04-02T14:35:45Z</time>
      </trkpt>
      <trkpt lat="47.62962" lon="3.73816">
        <ele>176</ele>
        <time>2019-04-02T14:35:50Z</time>
      </trkpt>
      <trkpt lat="47.62956" lon="3.73815">
        <ele>176</ele>
        <time>2019-04-02T14:35:55Z</time>
      </trkpt>
      <trkpt lat="47.62951" lon="3.73812">
        <ele>175</ele>
        <time>2019-04-02T14:35:58Z</time>
      </trkpt>
      <trkpt lat="47.62946" lon="3.73809">
        <ele>174</ele>
        <time>2019-04-02T14:36:01Z</time>
      </trkpt>
      <trkpt lat="47.6294" lon="3.73806">
        <ele>173</ele>
        <time>2019-04-02T14:36:05Z</time>
      </trkpt>
      <trkpt lat="47.62934" lon="3.73803">
        <ele>172</ele>
        <time>2019-04-02T14:36:09Z</time>
      </trkpt>
      <trkpt lat="47.6293" lon="3.73802">
        <ele>169</ele>
        <time>2019-04-02T14:36:14Z</time>
      </trkpt>
      <trkpt lat="47.62925" lon="3.73801">
        <ele>169</ele>
        <time>2019-04-02T14:36:17Z</time>
      </trkpt>
      <trkpt lat="47.62918" lon="3.73796">
        <ele>166</ele>
        <time>2019-04-02T14:36:23Z</time>
      </trkpt>
      <trkpt lat="47.62914" lon="3.73793">
        <ele>166</ele>
        <time>2019-04-02T14:36:25Z</time>
      </trkpt>
      <trkpt lat="47.62908" lon="3.73791">
        <ele>166</ele>
        <time>2019-04-02T14:36:27Z</time>
      </trkpt>
      <trkpt lat="47.62904" lon="3.73789">
        <ele>164</ele>
        <time>2019-04-02T14:36:29Z</time>
      </trkpt>
      <trkpt lat="47.62899" lon="3.73786">
        <ele>165</ele>
        <time>2019-04-02T14:36:33Z</time>
      </trkpt>
      <trkpt lat="47.62891" lon="3.73781">
        <ele>165</ele>
        <time>2019-04-02T14:36:39Z</time>
      </trkpt>
      <trkpt lat="47.62889" lon="3.73779">
        <ele>164</ele>
        <time>2019-04-02T14:36:41Z</time>
      </trkpt>
      <trkpt lat="47.62887" lon="3.73778">
        <ele>165</ele>
        <time>2019-04-02T14:36:43Z</time>
      </trkpt>
      <trkpt lat="47.62884" lon="3.73776">
        <ele>165</ele>
        <time>2019-04-02T14:36:45Z</time>
      </trkpt>
      <trkpt lat="47.62879" lon="3.73775">
        <ele>166</ele>
        <time>2019-04-02T14:36:51Z</time>
      </trkpt>
      <trkpt lat="47.62874" lon="3.73773">
        <ele>166</ele>
        <time>2019-04-02T14:36:55Z</time>
      </trkpt>
      <trkpt lat="47.62869" lon="3.73771">
        <ele>167</ele>
        <time>2019-04-02T14:36:59Z</time>
      </trkpt>
      <trkpt lat="47.62864" lon="3.73769">
        <ele>168</ele>
        <time>2019-04-02T14:37:03Z</time>
      </trkpt>
      <trkpt lat="47.62861" lon="3.73768">
        <ele>167</ele>
        <time>2019-04-02T14:37:05Z</time>
      </trkpt>
      <trkpt lat="47.62853" lon="3.73765">
        <ele>166</ele>
        <time>2019-04-02T14:37:10Z</time>
      </trkpt>
      <trkpt lat="47.62848" lon="3.73763">
        <ele>167</ele>
        <time>2019-04-02T14:37:12Z</time>
      </trkpt>
      <trkpt lat="47.62843" lon="3.73761">
        <ele>166</ele>
        <time>2019-04-02T14:37:16Z</time>
      </trkpt>
      <trkpt lat="47.62835" lon="3.7376">
        <ele>165</ele>
        <time>2019-04-02T14:37:21Z</time>
      </trkpt>
      <trkpt lat="47.62831" lon="3.73759">
        <ele>166</ele>
        <time>2019-04-02T14:37:24Z</time>
      </trkpt>
      <trkpt lat="47.62825" lon="3.73758">
        <ele>167</ele>
        <time>2019-04-02T14:37:28Z</time>
      </trkpt>
      <trkpt lat="47.62819" lon="3.73756">
        <ele>168</ele>
        <time>2019-04-02T14:37:31Z</time>
      </trkpt>
      <trkpt lat="47.62816" lon="3.73756">
        <ele>168</ele>
        <time>2019-04-02T14:37:33Z</time>
      </trkpt>
      <trkpt lat="47.62811" lon="3.73754">
        <ele>167</ele>
        <time>2019-04-02T14:37:37Z</time>
      </trkpt>
      <trkpt lat="47.62806" lon="3.73754">
        <ele>167</ele>
        <time>2019-04-02T14:37:40Z</time>
      </trkpt>
      <trkpt lat="47.62803" lon="3.73755">
        <ele>167</ele>
        <time>2019-04-02T14:37:42Z</time>
      </trkpt>
      <trkpt lat="47.62798" lon="3.73754">
        <ele>167</ele>
        <time>2019-04-02T14:37:44Z</time>
      </trkpt>
      <trkpt lat="47.62793" lon="3.73753">
        <ele>168</ele>
        <time>2019-04-02T14:37:47Z</time>
      </trkpt>
      <trkpt lat="47.62789" lon="3.73751">
        <ele>167</ele>
        <time>2019-04-02T14:37:50Z</time>
      </trkpt>
      <trkpt lat="47.62783" lon="3.73752">
        <ele>165</ele>
        <time>2019-04-02T14:37:54Z</time>
      </trkpt>
      <trkpt lat="47.62778" lon="3.7375">
        <ele>166</ele>
        <time>2019-04-02T14:37:59Z</time>
      </trkpt>
      <trkpt lat="47.62773" lon="3.73749">
        <ele>166</ele>
        <time>2019-04-02T14:38:04Z</time>
      </trkpt>
      <trkpt lat="47.62766" lon="3.73748">
        <ele>164</ele>
        <time>2019-04-02T14:38:08Z</time>
      </trkpt>
      <trkpt lat="47.62763" lon="3.73748">
        <ele>165</ele>
        <time>2019-04-02T14:38:10Z</time>
      </trkpt>
      <trkpt lat="47.62759" lon="3.7375">
        <ele>164</ele>
        <time>2019-04-02T14:38:13Z</time>
      </trkpt>
      <trkpt lat="47.62753" lon="3.73749">
        <ele>163</ele>
        <time>2019-04-02T14:38:16Z</time>
      </trkpt>
      <trkpt lat="47.6275" lon="3.73749">
        <ele>164</ele>
        <time>2019-04-02T14:38:18Z</time>
      </trkpt>
      <trkpt lat="47.62747" lon="3.73749">
        <ele>163</ele>
        <time>2019-04-02T14:38:20Z</time>
      </trkpt>
      <trkpt lat="47.62741" lon="3.73749">
        <ele>163</ele>
        <time>2019-04-02T14:38:24Z</time>
      </trkpt>
      <trkpt lat="47.62736" lon="3.73749">
        <ele>163</ele>
        <time>2019-04-02T14:38:27Z</time>
      </trkpt>
      <trkpt lat="47.6273" lon="3.73748">
        <ele>163</ele>
        <time>2019-04-02T14:38:33Z</time>
      </trkpt>
      <trkpt lat="47.62724" lon="3.73746">
        <ele>162</ele>
        <time>2019-04-02T14:38:37Z</time>
      </trkpt>
      <trkpt lat="47.62721" lon="3.73746">
        <ele>162</ele>
        <time>2019-04-02T14:38:38Z</time>
      </trkpt>
      <trkpt lat="47.62716" lon="3.73746">
        <ele>163</ele>
        <time>2019-04-02T14:38:42Z</time>
      </trkpt>
      <trkpt lat="47.62711" lon="3.73743">
        <ele>162</ele>
        <time>2019-04-02T14:38:45Z</time>
      </trkpt>
      <trkpt lat="47.62706" lon="3.73743">
        <ele>164</ele>
        <time>2019-04-02T14:38:50Z</time>
      </trkpt>
      <trkpt lat="47.62702" lon="3.73744">
        <ele>165</ele>
        <time>2019-04-02T14:38:52Z</time>
      </trkpt>
      <trkpt lat="47.62697" lon="3.73744">
        <ele>165</ele>
        <time>2019-04-02T14:38:55Z</time>
      </trkpt>
      <trkpt lat="47.62691" lon="3.73743">
        <ele>165</ele>
        <time>2019-04-02T14:38:59Z</time>
      </trkpt>
      <trkpt lat="47.62686" lon="3.73744">
        <ele>165</ele>
        <time>2019-04-02T14:39:03Z</time>
      </trkpt>
      <trkpt lat="47.62681" lon="3.73743">
        <ele>165</ele>
        <time>2019-04-02T14:39:06Z</time>
      </trkpt>
      <trkpt lat="47.62678" lon="3.73743">
        <ele>164</ele>
        <time>2019-04-02T14:39:09Z</time>
      </trkpt>
      <trkpt lat="47.62674" lon="3.73744">
        <ele>162</ele>
        <time>2019-04-02T14:39:13Z</time>
      </trkpt>
      <trkpt lat="47.62668" lon="3.73744">
        <ele>162</ele>
        <time>2019-04-02T14:39:17Z</time>
      </trkpt>
      <trkpt lat="47.62663" lon="3.73743">
        <ele>161</ele>
        <time>2019-04-02T14:39:21Z</time>
      </trkpt>
      <trkpt lat="47.62659" lon="3.73743">
        <ele>162</ele>
        <time>2019-04-02T14:39:23Z</time>
      </trkpt>
      <trkpt lat="47.62656" lon="3.73743">
        <ele>162</ele>
        <time>2019-04-02T14:39:25Z</time>
      </trkpt>
      <trkpt lat="47.62651" lon="3.73741">
        <ele>163</ele>
        <time>2019-04-02T14:39:28Z</time>
      </trkpt>
      <trkpt lat="47.62644" lon="3.7374">
        <ele>161</ele>
        <time>2019-04-02T14:39:33Z</time>
      </trkpt>
      <trkpt lat="47.62641" lon="3.73741">
        <ele>162</ele>
        <time>2019-04-02T14:39:35Z</time>
      </trkpt>
      <trkpt lat="47.62637" lon="3.73741">
        <ele>162</ele>
        <time>2019-04-02T14:39:38Z</time>
      </trkpt>
      <trkpt lat="47.62632" lon="3.7374">
        <ele>161</ele>
        <time>2019-04-02T14:39:42Z</time>
      </trkpt>
      <trkpt lat="47.62626" lon="3.73741">
        <ele>159</ele>
        <time>2019-04-02T14:39:47Z</time>
      </trkpt>
      <trkpt lat="47.62621" lon="3.7374">
        <ele>159</ele>
        <time>2019-04-02T14:39:51Z</time>
      </trkpt>
      <trkpt lat="47.62619" lon="3.7374">
        <ele>159</ele>
        <time>2019-04-02T14:39:53Z</time>
      </trkpt>
      <trkpt lat="47.62616" lon="3.73739">
        <ele>161</ele>
        <time>2019-04-02T14:39:55Z</time>
      </trkpt>
      <trkpt lat="47.62611" lon="3.73736">
        <ele>162</ele>
        <time>2019-04-02T14:39:58Z</time>
      </trkpt>
      <trkpt lat="47.62608" lon="3.73735">
        <ele>163</ele>
        <time>2019-04-02T14:40:00Z</time>
      </trkpt>
      <trkpt lat="47.62603" lon="3.73734">
        <ele>163</ele>
        <time>2019-04-02T14:40:04Z</time>
      </trkpt>
      <trkpt lat="47.62597" lon="3.73733">
        <ele>163</ele>
        <time>2019-04-02T14:40:08Z</time>
      </trkpt>
      <trkpt lat="47.62591" lon="3.73732">
        <ele>164</ele>
        <time>2019-04-02T14:40:12Z</time>
      </trkpt>
      <trkpt lat="47.62587" lon="3.73731">
        <ele>164</ele>
        <time>2019-04-02T14:40:14Z</time>
      </trkpt>
      <trkpt lat="47.62582" lon="3.73731">
        <ele>165</ele>
        <time>2019-04-02T14:40:17Z</time>
      </trkpt>
      <trkpt lat="47.62577" lon="3.73731">
        <ele>165</ele>
        <time>2019-04-02T14:40:20Z</time>
      </trkpt>
      <trkpt lat="47.62574" lon="3.73731">
        <ele>165</ele>
        <time>2019-04-02T14:40:22Z</time>
      </trkpt>
      <trkpt lat="47.6257" lon="3.7373">
        <ele>165</ele>
        <time>2019-04-02T14:40:24Z</time>
      </trkpt>
      <trkpt lat="47.62566" lon="3.7373">
        <ele>165</ele>
        <time>2019-04-02T14:40:26Z</time>
      </trkpt>
      <trkpt lat="47.62562" lon="3.73731">
        <ele>165</ele>
        <time>2019-04-02T14:40:28Z</time>
      </trkpt>
      <trkpt lat="47.62559" lon="3.73731">
        <ele>166</ele>
        <time>2019-04-02T14:40:30Z</time>
      </trkpt>
      <trkpt lat="47.62554" lon="3.73733">
        <ele>166</ele>
        <time>2019-04-02T14:40:34Z</time>
      </trkpt>
      <trkpt lat="47.62551" lon="3.73734">
        <ele>167</ele>
        <time>2019-04-02T14:40:37Z</time>
      </trkpt>
      <trkpt lat="47.62546" lon="3.73736">
        <ele>166</ele>
        <time>2019-04-02T14:40:40Z</time>
      </trkpt>
      <trkpt lat="47.62539" lon="3.73737">
        <ele>166</ele>
        <time>2019-04-02T14:40:43Z</time>
      </trkpt>
      <trkpt lat="47.62534" lon="3.7374">
        <ele>166</ele>
        <time>2019-04-02T14:40:47Z</time>
      </trkpt>
      <trkpt lat="47.62527" lon="3.7374">
        <ele>167</ele>
        <time>2019-04-02T14:40:51Z</time>
      </trkpt>
      <trkpt lat="47.62521" lon="3.73743">
        <ele>168</ele>
        <time>2019-04-02T14:40:55Z</time>
      </trkpt>
      <trkpt lat="47.62517" lon="3.73746">
        <ele>169</ele>
        <time>2019-04-02T14:40:59Z</time>
      </trkpt>
      <trkpt lat="47.6251" lon="3.73748">
        <ele>168</ele>
        <time>2019-04-02T14:41:04Z</time>
      </trkpt>
      <trkpt lat="47.62506" lon="3.7375">
        <ele>166</ele>
        <time>2019-04-02T14:41:07Z</time>
      </trkpt>
      <trkpt lat="47.625" lon="3.7375">
        <ele>165</ele>
        <time>2019-04-02T14:41:11Z</time>
      </trkpt>
      <trkpt lat="47.62494" lon="3.73753">
        <ele>166</ele>
        <time>2019-04-02T14:41:13Z</time>
      </trkpt>
      <trkpt lat="47.62491" lon="3.73754">
        <ele>166</ele>
        <time>2019-04-02T14:41:16Z</time>
      </trkpt>
      <trkpt lat="47.62484" lon="3.73756">
        <ele>166</ele>
        <time>2019-04-02T14:41:20Z</time>
      </trkpt>
      <trkpt lat="47.6248" lon="3.73758">
        <ele>165</ele>
        <time>2019-04-02T14:41:23Z</time>
      </trkpt>
      <trkpt lat="47.62476" lon="3.7376">
        <ele>165</ele>
        <time>2019-04-02T14:41:25Z</time>
      </trkpt>
      <trkpt lat="47.62472" lon="3.73762">
        <ele>166</ele>
        <time>2019-04-02T14:41:27Z</time>
      </trkpt>
      <trkpt lat="47.62466" lon="3.73766">
        <ele>165</ele>
        <time>2019-04-02T14:41:30Z</time>
      </trkpt>
      <trkpt lat="47.62463" lon="3.73768">
        <ele>166</ele>
        <time>2019-04-02T14:41:32Z</time>
      </trkpt>
      <trkpt lat="47.6246" lon="3.7377">
        <ele>166</ele>
        <time>2019-04-02T14:41:34Z</time>
      </trkpt>
      <trkpt lat="47.62455" lon="3.73774">
        <ele>166</ele>
        <time>2019-04-02T14:41:38Z</time>
      </trkpt>
      <trkpt lat="47.62451" lon="3.73779">
        <ele>164</ele>
        <time>2019-04-02T14:41:41Z</time>
      </trkpt>
      <trkpt lat="47.62449" lon="3.73781">
        <ele>164</ele>
        <time>2019-04-02T14:41:42Z</time>
      </trkpt>
      <trkpt lat="47.62445" lon="3.73785">
        <ele>165</ele>
        <time>2019-04-02T14:41:46Z</time>
      </trkpt>
      <trkpt lat="47.6244" lon="3.73788">
        <ele>165</ele>
        <time>2019-04-02T14:41:51Z</time>
      </trkpt>
      <trkpt lat="47.62435" lon="3.7379">
        <ele>165</ele>
        <time>2019-04-02T14:41:54Z</time>
      </trkpt>
      <trkpt lat="47.6243" lon="3.73792">
        <ele>166</ele>
        <time>2019-04-02T14:41:57Z</time>
      </trkpt>
      <trkpt lat="47.62427" lon="3.73793">
        <ele>166</ele>
        <time>2019-04-02T14:41:59Z</time>
      </trkpt>
      <trkpt lat="47.62422" lon="3.73796">
        <ele>165</ele>
        <time>2019-04-02T14:42:02Z</time>
      </trkpt>
      <trkpt lat="47.62417" lon="3.738">
        <ele>165</ele>
        <time>2019-04-02T14:42:05Z</time>
      </trkpt>
      <trkpt lat="47.62412" lon="3.73803">
        <ele>165</ele>
        <time>2019-04-02T14:42:08Z</time>
      </trkpt>
      <trkpt lat="47.62406" lon="3.73805">
        <ele>164</ele>
        <time>2019-04-02T14:42:12Z</time>
      </trkpt>
      <trkpt lat="47.62401" lon="3.73806">
        <ele>164</ele>
        <time>2019-04-02T14:42:14Z</time>
      </trkpt>
      <trkpt lat="47.62397" lon="3.73808">
        <ele>164</ele>
        <time>2019-04-02T14:42:18Z</time>
      </trkpt>
      <trkpt lat="47.62394" lon="3.73809">
        <ele>164</ele>
        <time>2019-04-02T14:42:20Z</time>
      </trkpt>
      <trkpt lat="47.62391" lon="3.7381">
        <ele>164</ele>
        <time>2019-04-02T14:42:21Z</time>
      </trkpt>
      <trkpt lat="47.62386" lon="3.73814">
        <ele>165</ele>
        <time>2019-04-02T14:42:24Z</time>
      </trkpt>
      <trkpt lat="47.62383" lon="3.73816">
        <ele>166</ele>
        <time>2019-04-02T14:42:26Z</time>
      </trkpt>
      <trkpt lat="47.62378" lon="3.73819">
        <ele>165</ele>
        <time>2019-04-02T14:42:29Z</time>
      </trkpt>
      <trkpt lat="47.62373" lon="3.7382">
        <ele>166</ele>
        <time>2019-04-02T14:42:32Z</time>
      </trkpt>
      <trkpt lat="47.62371" lon="3.73821">
        <ele>166</ele>
        <time>2019-04-02T14:42:34Z</time>
      </trkpt>
      <trkpt lat="47.62367" lon="3.73822">
        <ele>166</ele>
        <time>2019-04-02T14:42:36Z</time>
      </trkpt>
      <trkpt lat="47.62364" lon="3.73823">
        <ele>166</ele>
        <time>2019-04-02T14:42:38Z</time>
      </trkpt>
      <trkpt lat="47.62362" lon="3.73825">
        <ele>166</ele>
        <time>2019-04-02T14:42:41Z</time>
      </trkpt>
      <trkpt lat="47.62357" lon="3.73827">
        <ele>165</ele>
        <time>2019-04-02T14:42:45Z</time>
      </trkpt>
      <trkpt lat="47.62354" lon="3.73832">
        <ele>166</ele>
        <time>2019-04-02T14:42:49Z</time>
      </trkpt>
      <trkpt lat="47.62351" lon="3.73837">
        <ele>165</ele>
        <time>2019-04-02T14:42:51Z</time>
      </trkpt>
      <trkpt lat="47.62349" lon="3.7384">
        <ele>166</ele>
        <time>2019-04-02T14:42:53Z</time>
      </trkpt>
      <trkpt lat="47.62347" lon="3.73848">
        <ele>165</ele>
        <time>2019-04-02T14:42:57Z</time>
      </trkpt>
      <trkpt lat="47.62346" lon="3.73852">
        <ele>166</ele>
        <time>2019-04-02T14:42:59Z</time>
      </trkpt>
      <trkpt lat="47.62341" lon="3.73864">
        <ele>166</ele>
        <time>2019-04-02T14:43:04Z</time>
      </trkpt>
      <trkpt lat="47.62339" lon="3.73871">
        <ele>165</ele>
        <time>2019-04-02T14:43:07Z</time>
      </trkpt>
      <trkpt lat="47.62336" lon="3.73876">
        <ele>164</ele>
        <time>2019-04-02T14:43:10Z</time>
      </trkpt>
      <trkpt lat="47.6233" lon="3.73884">
        <ele>165</ele>
        <time>2019-04-02T14:43:16Z</time>
      </trkpt>
      <trkpt lat="47.62326" lon="3.73889">
        <ele>166</ele>
        <time>2019-04-02T14:43:19Z</time>
      </trkpt>
      <trkpt lat="47.62324" lon="3.73892">
        <ele>165</ele>
        <time>2019-04-02T14:43:21Z</time>
      </trkpt>
      <trkpt lat="47.62321" lon="3.73895">
        <ele>166</ele>
        <time>2019-04-02T14:43:24Z</time>
      </trkpt>
      <trkpt lat="47.62316" lon="3.73898">
        <ele>166</ele>
        <time>2019-04-02T14:43:27Z</time>
      </trkpt>
      <trkpt lat="47.62313" lon="3.739">
        <ele>166</ele>
        <time>2019-04-02T14:43:29Z</time>
      </trkpt>
      <trkpt lat="47.62309" lon="3.73903">
        <ele>165</ele>
        <time>2019-04-02T14:43:32Z</time>
      </trkpt>
      <trkpt lat="47.62306" lon="3.73905">
        <ele>166</ele>
        <time>2019-04-02T14:43:35Z</time>
      </trkpt>
      <trkpt lat="47.62301" lon="3.73907">
        <ele>165</ele>
        <time>2019-04-02T14:43:38Z</time>
      </trkpt>
      <trkpt lat="47.62297" lon="3.73912">
        <ele>166</ele>
        <time>2019-04-02T14:43:42Z</time>
      </trkpt>
      <trkpt lat="47.62293" lon="3.73918">
        <ele>168</ele>
        <time>2019-04-02T14:43:47Z</time>
      </trkpt>
      <trkpt lat="47.6229" lon="3.73922">
        <ele>168</ele>
        <time>2019-04-02T14:43:50Z</time>
      </trkpt>
      <trkpt lat="47.62286" lon="3.73924">
        <ele>169</ele>
        <time>2019-04-02T14:43:59Z</time>
      </trkpt>
      <trkpt lat="47.62281" lon="3.73926">
        <ele>163</ele>
        <time>2019-04-02T14:46:26Z</time>
      </trkpt>
      <trkpt lat="47.62279" lon="3.73927">
        <ele>162</ele>
        <time>2019-04-02T14:46:29Z</time>
      </trkpt>
      <trkpt lat="47.62276" lon="3.73932">
        <ele>162</ele>
        <time>2019-04-02T14:46:34Z</time>
      </trkpt>
      <trkpt lat="47.62273" lon="3.73939">
        <ele>164</ele>
        <time>2019-04-02T14:46:39Z</time>
      </trkpt>
      <trkpt lat="47.62269" lon="3.73944">
        <ele>167</ele>
        <time>2019-04-02T14:46:44Z</time>
      </trkpt>
      <trkpt lat="47.62266" lon="3.73948">
        <ele>170</ele>
        <time>2019-04-02T14:46:47Z</time>
      </trkpt>
      <trkpt lat="47.62263" lon="3.73952">
        <ele>170</ele>
        <time>2019-04-02T14:46:49Z</time>
      </trkpt>
      <trkpt lat="47.6226" lon="3.73956">
        <ele>169</ele>
        <time>2019-04-02T14:46:53Z</time>
      </trkpt>
      <trkpt lat="47.62256" lon="3.7396">
        <ele>169</ele>
        <time>2019-04-02T14:46:58Z</time>
      </trkpt>
      <trkpt lat="47.62254" lon="3.73962">
        <ele>170</ele>
        <time>2019-04-02T14:47:00Z</time>
      </trkpt>
      <trkpt lat="47.62251" lon="3.73965">
        <ele>170</ele>
        <time>2019-04-02T14:47:03Z</time>
      </trkpt>
      <trkpt lat="47.62248" lon="3.73967">
        <ele>170</ele>
        <time>2019-04-02T14:47:06Z</time>
      </trkpt>
      <trkpt lat="47.62244" lon="3.73971">
        <ele>171</ele>
        <time>2019-04-02T14:47:09Z</time>
      </trkpt>
      <trkpt lat="47.6224" lon="3.73975">
        <ele>172</ele>
        <time>2019-04-02T14:47:15Z</time>
      </trkpt>
      <trkpt lat="47.62238" lon="3.73978">
        <ele>173</ele>
        <time>2019-04-02T14:47:18Z</time>
      </trkpt>
      <trkpt lat="47.62235" lon="3.73982">
        <ele>174</ele>
        <time>2019-04-02T14:47:20Z</time>
      </trkpt>
      <trkpt lat="47.62232" lon="3.73986">
        <ele>174</ele>
        <time>2019-04-02T14:47:24Z</time>
      </trkpt>
      <trkpt lat="47.62228" lon="3.73993">
        <ele>174</ele>
        <time>2019-04-02T14:47:28Z</time>
      </trkpt>
      <trkpt lat="47.62223" lon="3.73998">
        <ele>176</ele>
        <time>2019-04-02T14:47:33Z</time>
      </trkpt>
      <trkpt lat="47.6222" lon="3.74001">
        <ele>176</ele>
        <time>2019-04-02T14:47:36Z</time>
      </trkpt>
      <trkpt lat="47.62218" lon="3.74004">
        <ele>177</ele>
        <time>2019-04-02T14:47:38Z</time>
      </trkpt>
      <trkpt lat="47.62216" lon="3.74006">
        <ele>177</ele>
        <time>2019-04-02T14:47:40Z</time>
      </trkpt>
      <trkpt lat="47.62213" lon="3.74009">
        <ele>177</ele>
        <time>2019-04-02T14:47:41Z</time>
      </trkpt>
      <trkpt lat="47.62209" lon="3.74011">
        <ele>175</ele>
        <time>2019-04-02T14:47:46Z</time>
      </trkpt>
      <trkpt lat="47.62206" lon="3.74016">
        <ele>174</ele>
        <time>2019-04-02T14:47:50Z</time>
      </trkpt>
      <trkpt lat="47.62203" lon="3.74021">
        <ele>175</ele>
        <time>2019-04-02T14:47:52Z</time>
      </trkpt>
      <trkpt lat="47.62202" lon="3.74024">
        <ele>175</ele>
        <time>2019-04-02T14:47:54Z</time>
      </trkpt>
      <trkpt lat="47.62198" lon="3.74028">
        <ele>176</ele>
        <time>2019-04-02T14:47:58Z</time>
      </trkpt>
      <trkpt lat="47.62196" lon="3.7403">
        <ele>176</ele>
        <time>2019-04-02T14:48:00Z</time>
      </trkpt>
      <trkpt lat="47.62193" lon="3.74032">
        <ele>177</ele>
        <time>2019-04-02T14:48:02Z</time>
      </trkpt>
      <trkpt lat="47.62188" lon="3.74037">
        <ele>177</ele>
        <time>2019-04-02T14:48:06Z</time>
      </trkpt>
      <trkpt lat="47.62185" lon="3.74042">
        <ele>177</ele>
        <time>2019-04-02T14:48:10Z</time>
      </trkpt>
      <trkpt lat="47.6218" lon="3.74046">
        <ele>174</ele>
        <time>2019-04-02T14:48:15Z</time>
      </trkpt>
      <trkpt lat="47.62177" lon="3.74049">
        <ele>174</ele>
        <time>2019-04-02T14:48:18Z</time>
      </trkpt>
      <trkpt lat="47.62174" lon="3.74053">
        <ele>173</ele>
        <time>2019-04-02T14:48:22Z</time>
      </trkpt>
      <trkpt lat="47.62168" lon="3.74056">
        <ele>173</ele>
        <time>2019-04-02T14:48:25Z</time>
      </trkpt>
      <trkpt lat="47.62165" lon="3.74059">
        <ele>174</ele>
        <time>2019-04-02T14:48:28Z</time>
      </trkpt>
      <trkpt lat="47.6216" lon="3.74063">
        <ele>173</ele>
        <time>2019-04-02T14:48:32Z</time>
      </trkpt>
      <trkpt lat="47.62157" lon="3.7407">
        <ele>172</ele>
        <time>2019-04-02T14:48:38Z</time>
      </trkpt>
      <trkpt lat="47.62156" lon="3.74073">
        <ele>172</ele>
        <time>2019-04-02T14:48:39Z</time>
      </trkpt>
      <trkpt lat="47.62153" lon="3.74078">
        <ele>171</ele>
        <time>2019-04-02T14:48:44Z</time>
      </trkpt>
      <trkpt lat="47.6215" lon="3.74085">
        <ele>169</ele>
        <time>2019-04-02T14:48:49Z</time>
      </trkpt>
      <trkpt lat="47.62145" lon="3.74085">
        <ele>169</ele>
        <time>2019-04-02T14:48:55Z</time>
      </trkpt>
      <trkpt lat="47.6214" lon="3.74084">
        <ele>169</ele>
        <time>2019-04-02T14:49:01Z</time>
      </trkpt>
      <trkpt lat="47.62137" lon="3.74084">
        <ele>170</ele>
        <time>2019-04-02T14:49:03Z</time>
      </trkpt>
      <trkpt lat="47.62132" lon="3.74085">
        <ele>172</ele>
        <time>2019-04-02T14:49:08Z</time>
      </trkpt>
      <trkpt lat="47.62126" lon="3.74085">
        <ele>172</ele>
        <time>2019-04-02T14:49:15Z</time>
      </trkpt>
      <trkpt lat="47.62123" lon="3.74085">
        <ele>172</ele>
        <time>2019-04-02T14:49:17Z</time>
      </trkpt>
      <trkpt lat="47.62121" lon="3.74084">
        <ele>173</ele>
        <time>2019-04-02T14:49:20Z</time>
      </trkpt>
      <trkpt lat="47.62118" lon="3.74085">
        <ele>173</ele>
        <time>2019-04-02T14:49:23Z</time>
      </trkpt>
      <trkpt lat="47.62115" lon="3.74085">
        <ele>173</ele>
        <time>2019-04-02T14:49:25Z</time>
      </trkpt>
      <trkpt lat="47.6211" lon="3.74087">
        <ele>172</ele>
        <time>2019-04-02T14:49:28Z</time>
      </trkpt>
      <trkpt lat="47.62102" lon="3.7409">
        <ele>174</ele>
        <time>2019-04-02T14:49:35Z</time>
      </trkpt>
      <trkpt lat="47.62097" lon="3.74094">
        <ele>174</ele>
        <time>2019-04-02T14:49:38Z</time>
      </trkpt>
      <trkpt lat="47.6209" lon="3.74096">
        <ele>174</ele>
        <time>2019-04-02T14:49:44Z</time>
      </trkpt>
      <trkpt lat="47.62088" lon="3.74097">
        <ele>174</ele>
        <time>2019-04-02T14:49:46Z</time>
      </trkpt>
      <trkpt lat="47.62081" lon="3.74096">
        <ele>173</ele>
        <time>2019-04-02T14:49:49Z</time>
      </trkpt>
      <trkpt lat="47.62079" lon="3.74097">
        <ele>172</ele>
        <time>2019-04-02T14:49:50Z</time>
      </trkpt>
      <trkpt lat="47.62072" lon="3.74099">
        <ele>169</ele>
        <time>2019-04-02T14:49:54Z</time>
      </trkpt>
      <trkpt lat="47.62068" lon="3.74103">
        <ele>170</ele>
        <time>2019-04-02T14:49:59Z</time>
      </trkpt>
      <trkpt lat="47.62063" lon="3.74105">
        <ele>171</ele>
        <time>2019-04-02T14:50:03Z</time>
      </trkpt>
      <trkpt lat="47.62056" lon="3.74105">
        <ele>171</ele>
        <time>2019-04-02T14:50:08Z</time>
      </trkpt>
      <trkpt lat="47.6205" lon="3.74108">
        <ele>173</ele>
        <time>2019-04-02T14:50:15Z</time>
      </trkpt>
      <trkpt lat="47.62045" lon="3.74107">
        <ele>172</ele>
        <time>2019-04-02T14:50:19Z</time>
      </trkpt>
      <trkpt lat="47.6204" lon="3.74109">
        <ele>174</ele>
        <time>2019-04-02T14:50:23Z</time>
      </trkpt>
      <trkpt lat="47.62036" lon="3.74111">
        <ele>174</ele>
        <time>2019-04-02T14:50:25Z</time>
      </trkpt>
      <trkpt lat="47.62034" lon="3.74112">
        <ele>174</ele>
        <time>2019-04-02T14:50:26Z</time>
      </trkpt>
      <trkpt lat="47.62029" lon="3.74115">
        <ele>174</ele>
        <time>2019-04-02T14:50:29Z</time>
      </trkpt>
      <trkpt lat="47.62025" lon="3.74118">
        <ele>174</ele>
        <time>2019-04-02T14:50:32Z</time>
      </trkpt>
      <trkpt lat="47.62021" lon="3.74118">
        <ele>172</ele>
        <time>2019-04-02T14:50:37Z</time>
      </trkpt>
      <trkpt lat="47.62017" lon="3.74122">
        <ele>174</ele>
        <time>2019-04-02T14:50:41Z</time>
      </trkpt>
      <trkpt lat="47.6201" lon="3.74124">
        <ele>174</ele>
        <time>2019-04-02T14:50:46Z</time>
      </trkpt>
      <trkpt lat="47.62003" lon="3.74126">
        <ele>172</ele>
        <time>2019-04-02T14:50:50Z</time>
      </trkpt>
      <trkpt lat="47.61998" lon="3.7413">
        <ele>171</ele>
        <time>2019-04-02T14:50:55Z</time>
      </trkpt>
      <trkpt lat="47.61996" lon="3.74132">
        <ele>170</ele>
        <time>2019-04-02T14:50:57Z</time>
      </trkpt>
      <trkpt lat="47.61996" lon="3.74132">
        <ele>170</ele>
        <time>2019-04-02T14:51:05Z</time>
      </trkpt>
      <trkpt lat="47.61994" lon="3.7414">
        <ele>168</ele>
        <time>2019-04-02T14:51:06Z</time>
      </trkpt>
      <trkpt lat="47.61993" lon="3.74143">
        <ele>168</ele>
        <time>2019-04-02T14:51:09Z</time>
      </trkpt>
      <trkpt lat="47.61993" lon="3.74143">
        <ele>122</ele>
        <time>2019-04-02T14:51:27Z</time>
      </trkpt>
      <trkpt lat="47.61993" lon="3.74143">
        <ele>122</ele>
        <time>2019-04-02T14:51:29Z</time>
      </trkpt>
      <trkpt lat="47.62" lon="3.74157">
        <ele>121.5</ele>
        <time>2019-04-03T06:05:39Z</time>
      </trkpt>
      <trkpt lat="47.62" lon="3.74157">
        <ele>121.5</ele>
        <time>2019-04-03T06:05:39Z</time>
      </trkpt>
      <trkpt lat="47.62" lon="3.74157">
        <ele>161</ele>
        <time>2019-04-03T06:05:49Z</time>
      </trkpt>
      <trkpt lat="47.61999" lon="3.7415">
        <ele>169</ele>
        <time>2019-04-03T06:06:58Z</time>
      </trkpt>
      <trkpt lat="47.61995" lon="3.74146">
        <ele>169</ele>
        <time>2019-04-03T06:07:02Z</time>
      </trkpt>
      <trkpt lat="47.6199" lon="3.74144">
        <ele>170</ele>
        <time>2019-04-03T06:07:07Z</time>
      </trkpt>
      <trkpt lat="47.61985" lon="3.74146">
        <ele>172</ele>
        <time>2019-04-03T06:07:11Z</time>
      </trkpt>
      <trkpt lat="47.61979" lon="3.74144">
        <ele>171</ele>
        <time>2019-04-03T06:07:15Z</time>
      </trkpt>
      <trkpt lat="47.61974" lon="3.74145">
        <ele>172</ele>
        <time>2019-04-03T06:07:19Z</time>
      </trkpt>
      <trkpt lat="47.61969" lon="3.74145">
        <ele>173</ele>
        <time>2019-04-03T06:07:23Z</time>
      </trkpt>
      <trkpt lat="47.61963" lon="3.74146">
        <ele>173</ele>
        <time>2019-04-03T06:07:28Z</time>
      </trkpt>
      <trkpt lat="47.61961" lon="3.74147">
        <ele>174</ele>
        <time>2019-04-03T06:07:30Z</time>
      </trkpt>
      <trkpt lat="47.61958" lon="3.74147">
        <ele>175</ele>
        <time>2019-04-03T06:07:32Z</time>
      </trkpt>
      <trkpt lat="47.61955" lon="3.74148">
        <ele>176</ele>
        <time>2019-04-03T06:07:34Z</time>
      </trkpt>
      <trkpt lat="47.6195" lon="3.7415">
        <ele>176</ele>
        <time>2019-04-03T06:07:38Z</time>
      </trkpt>
      <trkpt lat="47.61948" lon="3.74152">
        <ele>177</ele>
        <time>2019-04-03T06:07:40Z</time>
      </trkpt>
      <trkpt lat="47.61943" lon="3.74153">
        <ele>177</ele>
        <time>2019-04-03T06:07:44Z</time>
      </trkpt>
      <trkpt lat="47.6194" lon="3.74154">
        <ele>177</ele>
        <time>2019-04-03T06:07:46Z</time>
      </trkpt>
      <trkpt lat="47.61936" lon="3.74159">
        <ele>175</ele>
        <time>2019-04-03T06:07:51Z</time>
      </trkpt>
      <trkpt lat="47.61933" lon="3.74161">
        <ele>175</ele>
        <time>2019-04-03T06:07:54Z</time>
      </trkpt>
      <trkpt lat="47.61929" lon="3.74166">
        <ele>175</ele>
        <time>2019-04-03T06:07:58Z</time>
      </trkpt>
      <trkpt lat="47.61925" lon="3.74168">
        <ele>173</ele>
        <time>2019-04-03T06:08:02Z</time>
      </trkpt>
      <trkpt lat="47.61921" lon="3.74173">
        <ele>174</ele>
        <time>2019-04-03T06:08:08Z</time>
      </trkpt>
      <trkpt lat="47.61916" lon="3.74175">
        <ele>175</ele>
        <time>2019-04-03T06:08:12Z</time>
      </trkpt>
      <trkpt lat="47.61911" lon="3.74175">
        <ele>174</ele>
        <time>2019-04-03T06:08:15Z</time>
      </trkpt>
      <trkpt lat="47.61906" lon="3.74175">
        <ele>174</ele>
        <time>2019-04-03T06:08:19Z</time>
      </trkpt>
      <trkpt lat="47.619" lon="3.74178">
        <ele>174</ele>
        <time>2019-04-03T06:08:22Z</time>
      </trkpt>
      <trkpt lat="47.61896" lon="3.74176">
        <ele>174</ele>
        <time>2019-04-03T06:08:26Z</time>
      </trkpt>
      <trkpt lat="47.61891" lon="3.74176">
        <ele>173</ele>
        <time>2019-04-03T06:08:30Z</time>
      </trkpt>
      <trkpt lat="47.61885" lon="3.74174">
        <ele>172</ele>
        <time>2019-04-03T06:08:34Z</time>
      </trkpt>
      <trkpt lat="47.61879" lon="3.74169">
        <ele>166</ele>
        <time>2019-04-03T06:08:44Z</time>
      </trkpt>
      <trkpt lat="47.61876" lon="3.74162">
        <ele>168</ele>
        <time>2019-04-03T06:08:48Z</time>
      </trkpt>
      <trkpt lat="47.61874" lon="3.74155">
        <ele>168</ele>
        <time>2019-04-03T06:08:51Z</time>
      </trkpt>
      <trkpt lat="47.6187" lon="3.74148">
        <ele>168</ele>
        <time>2019-04-03T06:08:56Z</time>
      </trkpt>
      <trkpt lat="47.61869" lon="3.74142">
        <ele>168</ele>
        <time>2019-04-03T06:09:00Z</time>
      </trkpt>
      <trkpt lat="47.61864" lon="3.74139">
        <ele>170</ele>
        <time>2019-04-03T06:09:06Z</time>
      </trkpt>
      <trkpt lat="47.61861" lon="3.74138">
        <ele>172</ele>
        <time>2019-04-03T06:09:09Z</time>
      </trkpt>
      <trkpt lat="47.61858" lon="3.74137">
        <ele>173</ele>
        <time>2019-04-03T06:09:12Z</time>
      </trkpt>
      <trkpt lat="47.61851" lon="3.74136">
        <ele>171</ele>
        <time>2019-04-03T06:09:16Z</time>
      </trkpt>
      <trkpt lat="47.61848" lon="3.74136">
        <ele>173</ele>
        <time>2019-04-03T06:09:19Z</time>
      </trkpt>
      <trkpt lat="47.6184" lon="3.7413">
        <ele>173</ele>
        <time>2019-04-03T06:09:24Z</time>
      </trkpt>
      <trkpt lat="47.61835" lon="3.74126">
        <ele>172</ele>
        <time>2019-04-03T06:09:27Z</time>
      </trkpt>
      <trkpt lat="47.61833" lon="3.74124">
        <ele>171</ele>
        <time>2019-04-03T06:09:29Z</time>
      </trkpt>
      <trkpt lat="47.61828" lon="3.74122">
        <ele>174</ele>
        <time>2019-04-03T06:09:34Z</time>
      </trkpt>
      <trkpt lat="47.61823" lon="3.7412">
        <ele>174</ele>
        <time>2019-04-03T06:09:37Z</time>
      </trkpt>
      <trkpt lat="47.61817" lon="3.74122">
        <ele>175</ele>
        <time>2019-04-03T06:09:43Z</time>
      </trkpt>
      <trkpt lat="47.61812" lon="3.74125">
        <ele>175</ele>
        <time>2019-04-03T06:09:47Z</time>
      </trkpt>
      <trkpt lat="47.61807" lon="3.74126">
        <ele>175</ele>
        <time>2019-04-03T06:09:50Z</time>
      </trkpt>
      <trkpt lat="47.61803" lon="3.74127">
        <ele>177</ele>
        <time>2019-04-03T06:09:55Z</time>
      </trkpt>
      <trkpt lat="47.61795" lon="3.74131">
        <ele>177</ele>
        <time>2019-04-03T06:10:00Z</time>
      </trkpt>
      <trkpt lat="47.6179" lon="3.74131">
        <ele>176</ele>
        <time>2019-04-03T06:10:04Z</time>
      </trkpt>
      <trkpt lat="47.61784" lon="3.74137">
        <ele>174</ele>
        <time>2019-04-03T06:10:13Z</time>
      </trkpt>
      <trkpt lat="47.6178" lon="3.74141">
        <ele>173</ele>
        <time>2019-04-03T06:10:18Z</time>
      </trkpt>
      <trkpt lat="47.61776" lon="3.74144">
        <ele>172</ele>
        <time>2019-04-03T06:10:22Z</time>
      </trkpt>
      <trkpt lat="47.6177" lon="3.74148">
        <ele>172</ele>
        <time>2019-04-03T06:10:26Z</time>
      </trkpt>
      <trkpt lat="47.61767" lon="3.74155">
        <ele>173</ele>
        <time>2019-04-03T06:10:31Z</time>
      </trkpt>
      <trkpt lat="47.61761" lon="3.74158">
        <ele>173</ele>
        <time>2019-04-03T06:10:36Z</time>
      </trkpt>
      <trkpt lat="47.61759" lon="3.74159">
        <ele>173</ele>
        <time>2019-04-03T06:10:38Z</time>
      </trkpt>
      <trkpt lat="47.61754" lon="3.74163">
        <ele>173</ele>
        <time>2019-04-03T06:10:42Z</time>
      </trkpt>
      <trkpt lat="47.61749" lon="3.74166">
        <ele>173</ele>
        <time>2019-04-03T06:10:45Z</time>
      </trkpt>
      <trkpt lat="47.61745" lon="3.74171">
        <ele>173</ele>
        <time>2019-04-03T06:10:49Z</time>
      </trkpt>
      <trkpt lat="47.61739" lon="3.74174">
        <ele>174</ele>
        <time>2019-04-03T06:10:53Z</time>
      </trkpt>
      <trkpt lat="47.61733" lon="3.7418">
        <ele>175</ele>
        <time>2019-04-03T06:10:58Z</time>
      </trkpt>
      <trkpt lat="47.6173" lon="3.74183">
        <ele>176</ele>
        <time>2019-04-03T06:11:02Z</time>
      </trkpt>
      <trkpt lat="47.61725" lon="3.74186">
        <ele>176</ele>
        <time>2019-04-03T06:11:07Z</time>
      </trkpt>
      <trkpt lat="47.61723" lon="3.74188">
        <ele>175</ele>
        <time>2019-04-03T06:11:10Z</time>
      </trkpt>
      <trkpt lat="47.61718" lon="3.74188">
        <ele>174</ele>
        <time>2019-04-03T06:11:15Z</time>
      </trkpt>
      <trkpt lat="47.61714" lon="3.74187">
        <ele>172</ele>
        <time>2019-04-03T06:11:19Z</time>
      </trkpt>
      <trkpt lat="47.6171" lon="3.74188">
        <ele>174</ele>
        <time>2019-04-03T06:11:22Z</time>
      </trkpt>
      <trkpt lat="47.61704" lon="3.74188">
        <ele>174</ele>
        <time>2019-04-03T06:11:25Z</time>
      </trkpt>
      <trkpt lat="47.61699" lon="3.74187">
        <ele>174</ele>
        <time>2019-04-03T06:11:28Z</time>
      </trkpt>
      <trkpt lat="47.61696" lon="3.74187">
        <ele>173</ele>
        <time>2019-04-03T06:11:30Z</time>
      </trkpt>
      <trkpt lat="47.61691" lon="3.74185">
        <ele>175</ele>
        <time>2019-04-03T06:11:33Z</time>
      </trkpt>
      <trkpt lat="47.61687" lon="3.74182">
        <ele>176</ele>
        <time>2019-04-03T06:11:37Z</time>
      </trkpt>
      <trkpt lat="47.61682" lon="3.74181">
        <ele>177</ele>
        <time>2019-04-03T06:11:42Z</time>
      </trkpt>
      <trkpt lat="47.61673" lon="3.7418">
        <ele>177</ele>
        <time>2019-04-03T06:11:47Z</time>
      </trkpt>
      <trkpt lat="47.61668" lon="3.74176">
        <ele>178</ele>
        <time>2019-04-03T06:11:51Z</time>
      </trkpt>
      <trkpt lat="47.61663" lon="3.74172">
        <ele>178</ele>
        <time>2019-04-03T06:11:55Z</time>
      </trkpt>
      <trkpt lat="47.61658" lon="3.74167">
        <ele>178</ele>
        <time>2019-04-03T06:11:59Z</time>
      </trkpt>
      <trkpt lat="47.61656" lon="3.74165">
        <ele>177</ele>
        <time>2019-04-03T06:12:03Z</time>
      </trkpt>
      <trkpt lat="47.61652" lon="3.7416">
        <ele>178</ele>
        <time>2019-04-03T06:12:07Z</time>
      </trkpt>
      <trkpt lat="47.6165" lon="3.74157">
        <ele>178</ele>
        <time>2019-04-03T06:12:10Z</time>
      </trkpt>
      <trkpt lat="47.61645" lon="3.74153">
        <ele>179</ele>
        <time>2019-04-03T06:12:15Z</time>
      </trkpt>
      <trkpt lat="47.61641" lon="3.74149">
        <ele>179</ele>
        <time>2019-04-03T06:12:18Z</time>
      </trkpt>
      <trkpt lat="47.61637" lon="3.74145">
        <ele>180</ele>
        <time>2019-04-03T06:12:21Z</time>
      </trkpt>
      <trkpt lat="47.61631" lon="3.74142">
        <ele>180</ele>
        <time>2019-04-03T06:12:25Z</time>
      </trkpt>
      <trkpt lat="47.61627" lon="3.74137">
        <ele>180</ele>
        <time>2019-04-03T06:12:29Z</time>
      </trkpt>
      <trkpt lat="47.61622" lon="3.74134">
        <ele>179</ele>
        <time>2019-04-03T06:12:34Z</time>
      </trkpt>
      <trkpt lat="47.61617" lon="3.74129">
        <ele>180</ele>
        <time>2019-04-03T06:12:39Z</time>
      </trkpt>
      <trkpt lat="47.61613" lon="3.74126">
        <ele>180</ele>
        <time>2019-04-03T06:12:43Z</time>
      </trkpt>
      <trkpt lat="47.61609" lon="3.74121">
        <ele>181</ele>
        <time>2019-04-03T06:12:47Z</time>
      </trkpt>
      <trkpt lat="47.61603" lon="3.74117">
        <ele>182</ele>
        <time>2019-04-03T06:12:53Z</time>
      </trkpt>
      <trkpt lat="47.61601" lon="3.74115">
        <ele>182</ele>
        <time>2019-04-03T06:12:55Z</time>
      </trkpt>
      <trkpt lat="47.61596" lon="3.74112">
        <ele>183</ele>
        <time>2019-04-03T06:12:58Z</time>
      </trkpt>
      <trkpt lat="47.61594" lon="3.7411">
        <ele>183</ele>
        <time>2019-04-03T06:13:00Z</time>
      </trkpt>
      <trkpt lat="47.6159" lon="3.74106">
        <ele>182</ele>
        <time>2019-04-03T06:13:03Z</time>
      </trkpt>
      <trkpt lat="47.61588" lon="3.74103">
        <ele>182</ele>
        <time>2019-04-03T06:13:06Z</time>
      </trkpt>
      <trkpt lat="47.61584" lon="3.741">
        <ele>182</ele>
        <time>2019-04-03T06:13:09Z</time>
      </trkpt>
      <trkpt lat="47.6158" lon="3.74095">
        <ele>181</ele>
        <time>2019-04-03T06:13:13Z</time>
      </trkpt>
      <trkpt lat="47.61575" lon="3.74092">
        <ele>181</ele>
        <time>2019-04-03T06:13:16Z</time>
      </trkpt>
      <trkpt lat="47.6157" lon="3.74088">
        <ele>180</ele>
        <time>2019-04-03T06:13:20Z</time>
      </trkpt>
      <trkpt lat="47.61564" lon="3.74083">
        <ele>180</ele>
        <time>2019-04-03T06:13:24Z</time>
      </trkpt>
      <trkpt lat="47.61559" lon="3.7408">
        <ele>179</ele>
        <time>2019-04-03T06:13:29Z</time>
      </trkpt>
      <trkpt lat="47.61555" lon="3.74075">
        <ele>180</ele>
        <time>2019-04-03T06:13:34Z</time>
      </trkpt>
      <trkpt lat="47.61553" lon="3.74072">
        <ele>180</ele>
        <time>2019-04-03T06:13:37Z</time>
      </trkpt>
      <trkpt lat="47.61551" lon="3.7407">
        <ele>181</ele>
        <time>2019-04-03T06:13:39Z</time>
      </trkpt>
      <trkpt lat="47.61547" lon="3.74066">
        <ele>181</ele>
        <time>2019-04-03T06:13:43Z</time>
      </trkpt>
      <trkpt lat="47.61541" lon="3.74063">
        <ele>181</ele>
        <time>2019-04-03T06:13:48Z</time>
      </trkpt>
      <trkpt lat="47.61535" lon="3.7406">
        <ele>181</ele>
        <time>2019-04-03T06:13:52Z</time>
      </trkpt>
      <trkpt lat="47.6153" lon="3.74057">
        <ele>182</ele>
        <time>2019-04-03T06:13:56Z</time>
      </trkpt>
      <trkpt lat="47.61527" lon="3.74056">
        <ele>182</ele>
        <time>2019-04-03T06:13:58Z</time>
      </trkpt>
      <trkpt lat="47.61525" lon="3.74054">
        <ele>181</ele>
        <time>2019-04-03T06:14:00Z</time>
      </trkpt>
      <trkpt lat="47.6152" lon="3.74049">
        <ele>183</ele>
        <time>2019-04-03T06:14:05Z</time>
      </trkpt>
      <trkpt lat="47.61518" lon="3.74046">
        <ele>182</ele>
        <time>2019-04-03T06:14:07Z</time>
      </trkpt>
      <trkpt lat="47.61516" lon="3.74043">
        <ele>183</ele>
        <time>2019-04-03T06:14:10Z</time>
      </trkpt>
      <trkpt lat="47.61511" lon="3.74041">
        <ele>182</ele>
        <time>2019-04-03T06:14:14Z</time>
      </trkpt>
      <trkpt lat="47.61507" lon="3.74039">
        <ele>182</ele>
        <time>2019-04-03T06:14:17Z</time>
      </trkpt>
      <trkpt lat="47.61503" lon="3.74034">
        <ele>182</ele>
        <time>2019-04-03T06:14:22Z</time>
      </trkpt>
      <trkpt lat="47.61499" lon="3.7403">
        <ele>182</ele>
        <time>2019-04-03T06:14:25Z</time>
      </trkpt>
      <trkpt lat="47.61493" lon="3.74026">
        <ele>183</ele>
        <time>2019-04-03T06:14:29Z</time>
      </trkpt>
      <trkpt lat="47.61489" lon="3.74022">
        <ele>182</ele>
        <time>2019-04-03T06:14:32Z</time>
      </trkpt>
      <trkpt lat="47.61487" lon="3.7402">
        <ele>182</ele>
        <time>2019-04-03T06:14:34Z</time>
      </trkpt>
      <trkpt lat="47.61483" lon="3.74014">
        <ele>183</ele>
        <time>2019-04-03T06:14:39Z</time>
      </trkpt>
      <trkpt lat="47.61481" lon="3.74008">
        <ele>183</ele>
        <time>2019-04-03T06:14:43Z</time>
      </trkpt>
      <trkpt lat="47.61477" lon="3.74001">
        <ele>184</ele>
        <time>2019-04-03T06:14:48Z</time>
      </trkpt>
      <trkpt lat="47.61475" lon="3.73997">
        <ele>183</ele>
        <time>2019-04-03T06:14:51Z</time>
      </trkpt>
      <trkpt lat="47.61471" lon="3.7399">
        <ele>182</ele>
        <time>2019-04-03T06:14:56Z</time>
      </trkpt>
      <trkpt lat="47.61469" lon="3.73985">
        <ele>182</ele>
        <time>2019-04-03T06:14:58Z</time>
      </trkpt>
      <trkpt lat="47.61465" lon="3.7398">
        <ele>183</ele>
        <time>2019-04-03T06:15:02Z</time>
      </trkpt>
      <trkpt lat="47.61462" lon="3.73976">
        <ele>183</ele>
        <time>2019-04-03T06:15:05Z</time>
      </trkpt>
      <trkpt lat="47.61457" lon="3.73973">
        <ele>185</ele>
        <time>2019-04-03T06:15:10Z</time>
      </trkpt>
      <trkpt lat="47.61454" lon="3.73971">
        <ele>185</ele>
        <time>2019-04-03T06:15:12Z</time>
      </trkpt>
      <trkpt lat="47.61451" lon="3.73966">
        <ele>184</ele>
        <time>2019-04-03T06:15:17Z</time>
      </trkpt>
      <trkpt lat="47.61449" lon="3.73963">
        <ele>183</ele>
        <time>2019-04-03T06:15:19Z</time>
      </trkpt>
      <trkpt lat="47.61446" lon="3.73959">
        <ele>183</ele>
        <time>2019-04-03T06:15:23Z</time>
      </trkpt>
      <trkpt lat="47.61443" lon="3.73955">
        <ele>183</ele>
        <time>2019-04-03T06:15:27Z</time>
      </trkpt>
      <trkpt lat="47.61438" lon="3.73956">
        <ele>183</ele>
        <time>2019-04-03T06:15:33Z</time>
      </trkpt>
      <trkpt lat="47.61438" lon="3.7395">
        <ele>183</ele>
        <time>2019-04-03T06:15:41Z</time>
      </trkpt>
      <trkpt lat="47.61433" lon="3.73948">
        <ele>185</ele>
        <time>2019-04-03T06:16:02Z</time>
      </trkpt>
      <trkpt lat="47.61429" lon="3.73943">
        <ele>185</ele>
        <time>2019-04-03T06:16:06Z</time>
      </trkpt>
      <trkpt lat="47.61427" lon="3.73939">
        <ele>185</ele>
        <time>2019-04-03T06:16:09Z</time>
      </trkpt>
      <trkpt lat="47.61424" lon="3.73936">
        <ele>186</ele>
        <time>2019-04-03T06:16:12Z</time>
      </trkpt>
      <trkpt lat="47.61422" lon="3.73933">
        <ele>187</ele>
        <time>2019-04-03T06:16:15Z</time>
      </trkpt>
      <trkpt lat="47.6142" lon="3.73926">
        <ele>187</ele>
        <time>2019-04-03T06:16:20Z</time>
      </trkpt>
      <trkpt lat="47.61417" lon="3.73918">
        <ele>189</ele>
        <time>2019-04-03T06:16:26Z</time>
      </trkpt>
      <trkpt lat="47.61413" lon="3.73912">
        <ele>189</ele>
        <time>2019-04-03T06:16:30Z</time>
      </trkpt>
      <trkpt lat="47.61409" lon="3.73905">
        <ele>189</ele>
        <time>2019-04-03T06:16:36Z</time>
      </trkpt>
      <trkpt lat="47.61408" lon="3.73897">
        <ele>187</ele>
        <time>2019-04-03T06:16:44Z</time>
      </trkpt>
      <trkpt lat="47.61405" lon="3.73891">
        <ele>188</ele>
        <time>2019-04-03T06:16:48Z</time>
      </trkpt>
      <trkpt lat="47.61404" lon="3.73883">
        <ele>188</ele>
        <time>2019-04-03T06:16:52Z</time>
      </trkpt>
      <trkpt lat="47.61403" lon="3.73879">
        <ele>188</ele>
        <time>2019-04-03T06:16:54Z</time>
      </trkpt>
      <trkpt lat="47.61401" lon="3.73873">
        <ele>190</ele>
        <time>2019-04-03T06:16:58Z</time>
      </trkpt>
      <trkpt lat="47.61398" lon="3.73868">
        <ele>191</ele>
        <time>2019-04-03T06:17:02Z</time>
      </trkpt>
      <trkpt lat="47.61396" lon="3.73865">
        <ele>192</ele>
        <time>2019-04-03T06:17:04Z</time>
      </trkpt>
      <trkpt lat="47.61392" lon="3.73861">
        <ele>192</ele>
        <time>2019-04-03T06:17:07Z</time>
      </trkpt>
      <trkpt lat="47.61392" lon="3.73854">
        <ele>191</ele>
        <time>2019-04-03T06:17:11Z</time>
      </trkpt>
      <trkpt lat="47.61391" lon="3.73847">
        <ele>193</ele>
        <time>2019-04-03T06:17:15Z</time>
      </trkpt>
      <trkpt lat="47.61391" lon="3.73841">
        <ele>195</ele>
        <time>2019-04-03T06:17:21Z</time>
      </trkpt>
      <trkpt lat="47.61394" lon="3.73835">
        <ele>195</ele>
        <time>2019-04-03T06:17:28Z</time>
      </trkpt>
      <trkpt lat="47.61397" lon="3.73826">
        <ele>196</ele>
        <time>2019-04-03T06:17:33Z</time>
      </trkpt>
      <trkpt lat="47.61397" lon="3.73822">
        <ele>197</ele>
        <time>2019-04-03T06:17:35Z</time>
      </trkpt>
      <trkpt lat="47.61399" lon="3.73816">
        <ele>199</ele>
        <time>2019-04-03T06:17:40Z</time>
      </trkpt>
      <trkpt lat="47.61401" lon="3.73808">
        <ele>200</ele>
        <time>2019-04-03T06:17:45Z</time>
      </trkpt>
      <trkpt lat="47.61401" lon="3.73801">
        <ele>202</ele>
        <time>2019-04-03T06:17:50Z</time>
      </trkpt>
      <trkpt lat="47.61401" lon="3.73797">
        <ele>203</ele>
        <time>2019-04-03T06:17:52Z</time>
      </trkpt>
      <trkpt lat="47.61401" lon="3.73793">
        <ele>202</ele>
        <time>2019-04-03T06:17:54Z</time>
      </trkpt>
      <trkpt lat="47.61402" lon="3.73785">
        <ele>201</ele>
        <time>2019-04-03T06:17:57Z</time>
      </trkpt>
      <trkpt lat="47.61403" lon="3.73778">
        <ele>200</ele>
        <time>2019-04-03T06:18:00Z</time>
      </trkpt>
      <trkpt lat="47.61405" lon="3.7377">
        <ele>202</ele>
        <time>2019-04-03T06:18:05Z</time>
      </trkpt>
      <trkpt lat="47.61407" lon="3.73763">
        <ele>201</ele>
        <time>2019-04-03T06:18:09Z</time>
      </trkpt>
      <trkpt lat="47.61407" lon="3.73756">
        <ele>203</ele>
        <time>2019-04-03T06:18:13Z</time>
      </trkpt>
      <trkpt lat="47.61407" lon="3.7375">
        <ele>204</ele>
        <time>2019-04-03T06:18:18Z</time>
      </trkpt>
      <trkpt lat="47.61409" lon="3.73744">
        <ele>205</ele>
        <time>2019-04-03T06:18:22Z</time>
      </trkpt>
      <trkpt lat="47.61412" lon="3.73738">
        <ele>203</ele>
        <time>2019-04-03T06:18:26Z</time>
      </trkpt>
      <trkpt lat="47.61414" lon="3.73733">
        <ele>200</ele>
        <time>2019-04-03T06:18:29Z</time>
      </trkpt>
      <trkpt lat="47.61416" lon="3.73725">
        <ele>202</ele>
        <time>2019-04-03T06:18:33Z</time>
      </trkpt>
      <trkpt lat="47.61418" lon="3.73719">
        <ele>203</ele>
        <time>2019-04-03T06:18:36Z</time>
      </trkpt>
      <trkpt lat="47.61416" lon="3.73712">
        <ele>205</ele>
        <time>2019-04-03T06:18:41Z</time>
      </trkpt>
      <trkpt lat="47.61418" lon="3.73706">
        <ele>206</ele>
        <time>2019-04-03T06:18:45Z</time>
      </trkpt>
      <trkpt lat="47.61419" lon="3.73699">
        <ele>205</ele>
        <time>2019-04-03T06:18:48Z</time>
      </trkpt>
      <trkpt lat="47.61421" lon="3.73692">
        <ele>206</ele>
        <time>2019-04-03T06:18:51Z</time>
      </trkpt>
      <trkpt lat="47.61422" lon="3.73685">
        <ele>206</ele>
        <time>2019-04-03T06:18:54Z</time>
      </trkpt>
      <trkpt lat="47.61422" lon="3.73681">
        <ele>206</ele>
        <time>2019-04-03T06:18:56Z</time>
      </trkpt>
      <trkpt lat="47.61422" lon="3.73676">
        <ele>206</ele>
        <time>2019-04-03T06:18:59Z</time>
      </trkpt>
      <trkpt lat="47.61423" lon="3.7367">
        <ele>207</ele>
        <time>2019-04-03T06:19:03Z</time>
      </trkpt>
      <trkpt lat="47.61424" lon="3.73662">
        <ele>209</ele>
        <time>2019-04-03T06:19:08Z</time>
      </trkpt>
      <trkpt lat="47.61424" lon="3.73655">
        <ele>210</ele>
        <time>2019-04-03T06:19:13Z</time>
      </trkpt>
      <trkpt lat="47.61424" lon="3.73651">
        <ele>210</ele>
        <time>2019-04-03T06:19:15Z</time>
      </trkpt>
      <trkpt lat="47.61427" lon="3.73645">
        <ele>209</ele>
        <time>2019-04-03T06:19:19Z</time>
      </trkpt>
      <trkpt lat="47.61428" lon="3.73637">
        <ele>210</ele>
        <time>2019-04-03T06:19:24Z</time>
      </trkpt>
      <trkpt lat="47.61429" lon="3.73628">
        <ele>211</ele>
        <time>2019-04-03T06:19:28Z</time>
      </trkpt>
      <trkpt lat="47.61429" lon="3.73625">
        <ele>211</ele>
        <time>2019-04-03T06:19:30Z</time>
      </trkpt>
      <trkpt lat="47.61429" lon="3.73616">
        <ele>212</ele>
        <time>2019-04-03T06:19:35Z</time>
      </trkpt>
      <trkpt lat="47.6143" lon="3.73612">
        <ele>213</ele>
        <time>2019-04-03T06:19:37Z</time>
      </trkpt>
      <trkpt lat="47.61432" lon="3.73605">
        <ele>211</ele>
        <time>2019-04-03T06:19:40Z</time>
      </trkpt>
      <trkpt lat="47.61433" lon="3.73601">
        <ele>212</ele>
        <time>2019-04-03T06:19:42Z</time>
      </trkpt>
      <trkpt lat="47.61436" lon="3.73595">
        <ele>210</ele>
        <time>2019-04-03T06:19:45Z</time>
      </trkpt>
      <trkpt lat="47.61436" lon="3.73587">
        <ele>210</ele>
        <time>2019-04-03T06:19:48Z</time>
      </trkpt>
      <trkpt lat="47.61437" lon="3.7358">
        <ele>210</ele>
        <time>2019-04-03T06:19:52Z</time>
      </trkpt>
      <trkpt lat="47.61437" lon="3.73573">
        <ele>210</ele>
        <time>2019-04-03T06:19:56Z</time>
      </trkpt>
      <trkpt lat="47.61436" lon="3.73566">
        <ele>211</ele>
        <time>2019-04-03T06:20:00Z</time>
      </trkpt>
      <trkpt lat="47.61434" lon="3.73559">
        <ele>212</ele>
        <time>2019-04-03T06:20:04Z</time>
      </trkpt>
      <trkpt lat="47.61435" lon="3.73552">
        <ele>214</ele>
        <time>2019-04-03T06:20:09Z</time>
      </trkpt>
      <trkpt lat="47.61436" lon="3.73544">
        <ele>214</ele>
        <time>2019-04-03T06:20:13Z</time>
      </trkpt>
      <trkpt lat="47.61436" lon="3.73536">
        <ele>215</ele>
        <time>2019-04-03T06:20:17Z</time>
      </trkpt>
      <trkpt lat="47.61437" lon="3.73528">
        <ele>216</ele>
        <time>2019-04-03T06:20:22Z</time>
      </trkpt>
      <trkpt lat="47.61437" lon="3.7352">
        <ele>213</ele>
        <time>2019-04-03T06:20:26Z</time>
      </trkpt>
      <trkpt lat="47.61437" lon="3.73514">
        <ele>215</ele>
        <time>2019-04-03T06:20:30Z</time>
      </trkpt>
      <trkpt lat="47.61437" lon="3.73508">
        <ele>215</ele>
        <time>2019-04-03T06:20:33Z</time>
      </trkpt>
      <trkpt lat="47.61436" lon="3.735">
        <ele>215</ele>
        <time>2019-04-03T06:20:37Z</time>
      </trkpt>
      <trkpt lat="47.61437" lon="3.73493">
        <ele>216</ele>
        <time>2019-04-03T06:20:40Z</time>
      </trkpt>
      <trkpt lat="47.61435" lon="3.73485">
        <ele>216</ele>
        <time>2019-04-03T06:20:44Z</time>
      </trkpt>
      <trkpt lat="47.61434" lon="3.73478">
        <ele>216</ele>
        <time>2019-04-03T06:20:48Z</time>
      </trkpt>
      <trkpt lat="47.61437" lon="3.7347">
        <ele>216</ele>
        <time>2019-04-03T06:20:52Z</time>
      </trkpt>
      <trkpt lat="47.61436" lon="3.73462">
        <ele>218</ele>
        <time>2019-04-03T06:20:57Z</time>
      </trkpt>
      <trkpt lat="47.61434" lon="3.73454">
        <ele>220</ele>
        <time>2019-04-03T06:21:01Z</time>
      </trkpt>
      <trkpt lat="47.61434" lon="3.73447">
        <ele>221</ele>
        <time>2019-04-03T06:21:05Z</time>
      </trkpt>
      <trkpt lat="47.61434" lon="3.73442">
        <ele>220</ele>
        <time>2019-04-03T06:21:07Z</time>
      </trkpt>
      <trkpt lat="47.61433" lon="3.73434">
        <ele>222</ele>
        <time>2019-04-03T06:21:12Z</time>
      </trkpt>
      <trkpt lat="47.61433" lon="3.73424">
        <ele>224</ele>
        <time>2019-04-03T06:21:17Z</time>
      </trkpt>
      <trkpt lat="47.61432" lon="3.73417">
        <ele>224</ele>
        <time>2019-04-03T06:21:20Z</time>
      </trkpt>
      <trkpt lat="47.61433" lon="3.7341">
        <ele>223</ele>
        <time>2019-04-03T06:21:23Z</time>
      </trkpt>
      <trkpt lat="47.61434" lon="3.73406">
        <ele>224</ele>
        <time>2019-04-03T06:21:25Z</time>
      </trkpt>
      <trkpt lat="47.61434" lon="3.73401">
        <ele>222</ele>
        <time>2019-04-03T06:21:28Z</time>
      </trkpt>
      <trkpt lat="47.61435" lon="3.73395">
        <ele>222</ele>
        <time>2019-04-03T06:21:31Z</time>
      </trkpt>
      <trkpt lat="47.61434" lon="3.73389">
        <ele>224</ele>
        <time>2019-04-03T06:21:35Z</time>
      </trkpt>
      <trkpt lat="47.61435" lon="3.73381">
        <ele>223</ele>
        <time>2019-04-03T06:21:39Z</time>
      </trkpt>
      <trkpt lat="47.61435" lon="3.73376">
        <ele>224</ele>
        <time>2019-04-03T06:21:41Z</time>
      </trkpt>
      <trkpt lat="47.61436" lon="3.73368">
        <ele>222</ele>
        <time>2019-04-03T06:21:45Z</time>
      </trkpt>
      <trkpt lat="47.61435" lon="3.73361">
        <ele>223</ele>
        <time>2019-04-03T06:21:48Z</time>
      </trkpt>
      <trkpt lat="47.61438" lon="3.73353">
        <ele>225</ele>
        <time>2019-04-03T06:21:52Z</time>
      </trkpt>
      <trkpt lat="47.61436" lon="3.73344">
        <ele>226</ele>
        <time>2019-04-03T06:21:57Z</time>
      </trkpt>
      <trkpt lat="47.61436" lon="3.73335">
        <ele>226</ele>
        <time>2019-04-03T06:22:02Z</time>
      </trkpt>
      <trkpt lat="47.61435" lon="3.73327">
        <ele>226</ele>
        <time>2019-04-03T06:22:06Z</time>
      </trkpt>
      <trkpt lat="47.61431" lon="3.73321">
        <ele>228</ele>
        <time>2019-04-03T06:22:09Z</time>
      </trkpt>
      <trkpt lat="47.61429" lon="3.73314">
        <ele>230</ele>
        <time>2019-04-03T06:22:13Z</time>
      </trkpt>
      <trkpt lat="47.61429" lon="3.73307">
        <ele>231</ele>
        <time>2019-04-03T06:22:17Z</time>
      </trkpt>
      <trkpt lat="47.61428" lon="3.73304">
        <ele>231</ele>
        <time>2019-04-03T06:22:19Z</time>
      </trkpt>
      <trkpt lat="47.61426" lon="3.73298">
        <ele>232</ele>
        <time>2019-04-03T06:22:22Z</time>
      </trkpt>
      <trkpt lat="47.61424" lon="3.7329">
        <ele>232</ele>
        <time>2019-04-03T06:22:27Z</time>
      </trkpt>
      <trkpt lat="47.61422" lon="3.73283">
        <ele>233</ele>
        <time>2019-04-03T06:22:31Z</time>
      </trkpt>
      <trkpt lat="47.61419" lon="3.73273">
        <ele>237</ele>
        <time>2019-04-03T06:22:37Z</time>
      </trkpt>
      <trkpt lat="47.61418" lon="3.73269">
        <ele>236</ele>
        <time>2019-04-03T06:22:40Z</time>
      </trkpt>
      <trkpt lat="47.61417" lon="3.73266">
        <ele>236</ele>
        <time>2019-04-03T06:22:41Z</time>
      </trkpt>
      <trkpt lat="47.61415" lon="3.7326">
        <ele>236</ele>
        <time>2019-04-03T06:22:45Z</time>
      </trkpt>
      <trkpt lat="47.61414" lon="3.73253">
        <ele>236</ele>
        <time>2019-04-03T06:22:48Z</time>
      </trkpt>
      <trkpt lat="47.61413" lon="3.73249">
        <ele>236</ele>
        <time>2019-04-03T06:22:50Z</time>
      </trkpt>
      <trkpt lat="47.61416" lon="3.73241">
        <ele>236</ele>
        <time>2019-04-03T06:22:55Z</time>
      </trkpt>
      <trkpt lat="47.61414" lon="3.73234">
        <ele>235</ele>
        <time>2019-04-03T06:22:58Z</time>
      </trkpt>
      <trkpt lat="47.61412" lon="3.73227">
        <ele>236</ele>
        <time>2019-04-03T06:23:03Z</time>
      </trkpt>
      <trkpt lat="47.61408" lon="3.7322">
        <ele>236</ele>
        <time>2019-04-03T06:23:06Z</time>
      </trkpt>
      <trkpt lat="47.61405" lon="3.7321">
        <ele>236</ele>
        <time>2019-04-03T06:23:09Z</time>
      </trkpt>
      <trkpt lat="47.61401" lon="3.73203">
        <ele>237</ele>
        <time>2019-04-03T06:23:13Z</time>
      </trkpt>
      <trkpt lat="47.61401" lon="3.73195">
        <ele>237</ele>
        <time>2019-04-03T06:23:17Z</time>
      </trkpt>
      <trkpt lat="47.61401" lon="3.73191">
        <ele>236</ele>
        <time>2019-04-03T06:23:19Z</time>
      </trkpt>
      <trkpt lat="47.61398" lon="3.73182">
        <ele>236</ele>
        <time>2019-04-03T06:23:23Z</time>
      </trkpt>
      <trkpt lat="47.61396" lon="3.73178">
        <ele>237</ele>
        <time>2019-04-03T06:23:25Z</time>
      </trkpt>
      <trkpt lat="47.61395" lon="3.73172">
        <ele>237</ele>
        <time>2019-04-03T06:23:28Z</time>
      </trkpt>
      <trkpt lat="47.61394" lon="3.73163">
        <ele>240</ele>
        <time>2019-04-03T06:23:33Z</time>
      </trkpt>
      <trkpt lat="47.6139" lon="3.73156">
        <ele>239</ele>
        <time>2019-04-03T06:23:37Z</time>
      </trkpt>
      <trkpt lat="47.61388" lon="3.73149">
        <ele>239</ele>
        <time>2019-04-03T06:23:41Z</time>
      </trkpt>
      <trkpt lat="47.61386" lon="3.73141">
        <ele>239</ele>
        <time>2019-04-03T06:23:45Z</time>
      </trkpt>
      <trkpt lat="47.61384" lon="3.73134">
        <ele>239</ele>
        <time>2019-04-03T06:23:49Z</time>
      </trkpt>
      <trkpt lat="47.61382" lon="3.73129">
        <ele>240</ele>
        <time>2019-04-03T06:23:52Z</time>
      </trkpt>
      <trkpt lat="47.6138" lon="3.7312">
        <ele>240</ele>
        <time>2019-04-03T06:23:57Z</time>
      </trkpt>
      <trkpt lat="47.61376" lon="3.73115">
        <ele>240</ele>
        <time>2019-04-03T06:24:02Z</time>
      </trkpt>
      <trkpt lat="47.61371" lon="3.73111">
        <ele>241</ele>
        <time>2019-04-03T06:24:06Z</time>
      </trkpt>
      <trkpt lat="47.61367" lon="3.73107">
        <ele>241</ele>
        <time>2019-04-03T06:24:10Z</time>
      </trkpt>
      <trkpt lat="47.61365" lon="3.73106">
        <ele>241</ele>
        <time>2019-04-03T06:24:12Z</time>
      </trkpt>
      <trkpt lat="47.6136" lon="3.73102">
        <ele>242</ele>
        <time>2019-04-03T06:24:15Z</time>
      </trkpt>
      <trkpt lat="47.61357" lon="3.731">
        <ele>243</ele>
        <time>2019-04-03T06:24:17Z</time>
      </trkpt>
      <trkpt lat="47.61352" lon="3.73097">
        <ele>244</ele>
        <time>2019-04-03T06:24:22Z</time>
      </trkpt>
      <trkpt lat="47.61347" lon="3.73094">
        <ele>245</ele>
        <time>2019-04-03T06:24:27Z</time>
      </trkpt>
      <trkpt lat="47.61342" lon="3.73094">
        <ele>245</ele>
        <time>2019-04-03T06:24:31Z</time>
      </trkpt>
      <trkpt lat="47.61336" lon="3.73095">
        <ele>246</ele>
        <time>2019-04-03T06:24:36Z</time>
      </trkpt>
      <trkpt lat="47.61333" lon="3.73095">
        <ele>246</ele>
        <time>2019-04-03T06:24:38Z</time>
      </trkpt>
      <trkpt lat="47.61326" lon="3.73093">
        <ele>247</ele>
        <time>2019-04-03T06:24:43Z</time>
      </trkpt>
      <trkpt lat="47.61321" lon="3.73093">
        <ele>248</ele>
        <time>2019-04-03T06:24:46Z</time>
      </trkpt>
      <trkpt lat="47.61318" lon="3.73092">
        <ele>249</ele>
        <time>2019-04-03T06:24:48Z</time>
      </trkpt>
      <trkpt lat="47.61315" lon="3.73092">
        <ele>249</ele>
        <time>2019-04-03T06:24:50Z</time>
      </trkpt>
      <trkpt lat="47.6131" lon="3.73092">
        <ele>250</ele>
        <time>2019-04-03T06:24:53Z</time>
      </trkpt>
      <trkpt lat="47.61305" lon="3.73091">
        <ele>250</ele>
        <time>2019-04-03T06:24:57Z</time>
      </trkpt>
      <trkpt lat="47.613" lon="3.7309">
        <ele>251</ele>
        <time>2019-04-03T06:25:01Z</time>
      </trkpt>
      <trkpt lat="47.61295" lon="3.73088">
        <ele>252</ele>
        <time>2019-04-03T06:25:06Z</time>
      </trkpt>
      <trkpt lat="47.61292" lon="3.73087">
        <ele>252</ele>
        <time>2019-04-03T06:25:08Z</time>
      </trkpt>
      <trkpt lat="47.61288" lon="3.73085">
        <ele>252</ele>
        <time>2019-04-03T06:25:10Z</time>
      </trkpt>
      <trkpt lat="47.61283" lon="3.73081">
        <ele>252</ele>
        <time>2019-04-03T06:25:15Z</time>
      </trkpt>
      <trkpt lat="47.61281" lon="3.73079">
        <ele>253</ele>
        <time>2019-04-03T06:25:18Z</time>
      </trkpt>
      <trkpt lat="47.61279" lon="3.73077">
        <ele>253</ele>
        <time>2019-04-03T06:25:20Z</time>
      </trkpt>
      <trkpt lat="47.61274" lon="3.73072">
        <ele>253</ele>
        <time>2019-04-03T06:25:24Z</time>
      </trkpt>
      <trkpt lat="47.61271" lon="3.73069">
        <ele>253</ele>
        <time>2019-04-03T06:25:27Z</time>
      </trkpt>
      <trkpt lat="47.61269" lon="3.73067">
        <ele>254</ele>
        <time>2019-04-03T06:25:30Z</time>
      </trkpt>
      <trkpt lat="47.61266" lon="3.7306">
        <ele>254</ele>
        <time>2019-04-03T06:25:35Z</time>
      </trkpt>
      <trkpt lat="47.61265" lon="3.73056">
        <ele>254</ele>
        <time>2019-04-03T06:25:38Z</time>
      </trkpt>
      <trkpt lat="47.61261" lon="3.73052">
        <ele>254</ele>
        <time>2019-04-03T06:25:42Z</time>
      </trkpt>
      <trkpt lat="47.61259" lon="3.73046">
        <ele>254</ele>
        <time>2019-04-03T06:25:46Z</time>
      </trkpt>
      <trkpt lat="47.61257" lon="3.73042">
        <ele>254</ele>
        <time>2019-04-03T06:25:49Z</time>
      </trkpt>
      <trkpt lat="47.61255" lon="3.73038">
        <ele>253</ele>
        <time>2019-04-03T06:25:56Z</time>
      </trkpt>
      <trkpt lat="47.61255" lon="3.73038">
        <ele>253</ele>
        <time>2019-04-03T06:29:22Z</time>
      </trkpt>
      <trkpt lat="47.6126" lon="3.73023">
        <ele>253</ele>
        <time>2019-04-03T06:29:26Z</time>
      </trkpt>
      <trkpt lat="47.61265" lon="3.73019">
        <ele>253</ele>
        <time>2019-04-03T06:29:32Z</time>
      </trkpt>
      <trkpt lat="47.61268" lon="3.73013">
        <ele>253</ele>
        <time>2019-04-03T06:29:38Z</time>
      </trkpt>
      <trkpt lat="47.61273" lon="3.7301">
        <ele>254</ele>
        <time>2019-04-03T06:29:43Z</time>
      </trkpt>
      <trkpt lat="47.61276" lon="3.73008">
        <ele>254</ele>
        <time>2019-04-03T06:29:45Z</time>
      </trkpt>
      <trkpt lat="47.61281" lon="3.73005">
        <ele>254</ele>
        <time>2019-04-03T06:29:50Z</time>
      </trkpt>
      <trkpt lat="47.61284" lon="3.73003">
        <ele>254</ele>
        <time>2019-04-03T06:29:53Z</time>
      </trkpt>
      <trkpt lat="47.61286" lon="3.73001">
        <ele>255</ele>
        <time>2019-04-03T06:29:55Z</time>
      </trkpt>
      <trkpt lat="47.61291" lon="3.72996">
        <ele>256</ele>
        <time>2019-04-03T06:29:58Z</time>
      </trkpt>
      <trkpt lat="47.61293" lon="3.72993">
        <ele>256</ele>
        <time>2019-04-03T06:30:01Z</time>
      </trkpt>
      <trkpt lat="47.61296" lon="3.7299">
        <ele>256</ele>
        <time>2019-04-03T06:30:04Z</time>
      </trkpt>
      <trkpt lat="47.61301" lon="3.72986">
        <ele>257</ele>
        <time>2019-04-03T06:30:09Z</time>
      </trkpt>
      <trkpt lat="47.61304" lon="3.72984">
        <ele>257</ele>
        <time>2019-04-03T06:30:12Z</time>
      </trkpt>
      <trkpt lat="47.61306" lon="3.72983">
        <ele>256</ele>
        <time>2019-04-03T06:30:14Z</time>
      </trkpt>
      <trkpt lat="47.61307" lon="3.72981">
        <ele>256</ele>
        <time>2019-04-03T06:30:16Z</time>
      </trkpt>
      <trkpt lat="47.61309" lon="3.72979">
        <ele>257</ele>
        <time>2019-04-03T06:30:18Z</time>
      </trkpt>
      <trkpt lat="47.61312" lon="3.72976">
        <ele>257</ele>
        <time>2019-04-03T06:30:20Z</time>
      </trkpt>
      <trkpt lat="47.61315" lon="3.72973">
        <ele>256</ele>
        <time>2019-04-03T06:30:23Z</time>
      </trkpt>
      <trkpt lat="47.61318" lon="3.7297">
        <ele>255</ele>
        <time>2019-04-03T06:30:26Z</time>
      </trkpt>
      <trkpt lat="47.61323" lon="3.72965">
        <ele>257</ele>
        <time>2019-04-03T06:30:32Z</time>
      </trkpt>
      <trkpt lat="47.61328" lon="3.7296">
        <ele>258</ele>
        <time>2019-04-03T06:30:37Z</time>
      </trkpt>
      <trkpt lat="47.6133" lon="3.72958">
        <ele>257</ele>
        <time>2019-04-03T06:30:39Z</time>
      </trkpt>
      <trkpt lat="47.61334" lon="3.72954">
        <ele>257</ele>
        <time>2019-04-03T06:30:43Z</time>
      </trkpt>
      <trkpt lat="47.61337" lon="3.72951">
        <ele>258</ele>
        <time>2019-04-03T06:30:46Z</time>
      </trkpt>
      <trkpt lat="47.61339" lon="3.72948">
        <ele>258</ele>
        <time>2019-04-03T06:30:48Z</time>
      </trkpt>
      <trkpt lat="47.61341" lon="3.72946">
        <ele>259</ele>
        <time>2019-04-03T06:30:50Z</time>
      </trkpt>
      <trkpt lat="47.61343" lon="3.72943">
        <ele>259</ele>
        <time>2019-04-03T06:30:53Z</time>
      </trkpt>
      <trkpt lat="47.61348" lon="3.72937">
        <ele>259</ele>
        <time>2019-04-03T06:30:58Z</time>
      </trkpt>
      <trkpt lat="47.6135" lon="3.72935">
        <ele>260</ele>
        <time>2019-04-03T06:31:00Z</time>
      </trkpt>
      <trkpt lat="47.61352" lon="3.72933">
        <ele>260</ele>
        <time>2019-04-03T06:31:03Z</time>
      </trkpt>
      <trkpt lat="47.61356" lon="3.72926">
        <ele>260</ele>
        <time>2019-04-03T06:31:07Z</time>
      </trkpt>
      <trkpt lat="47.61359" lon="3.7292">
        <ele>259</ele>
        <time>2019-04-03T06:31:12Z</time>
      </trkpt>
      <trkpt lat="47.61362" lon="3.72915">
        <ele>260</ele>
        <time>2019-04-03T06:31:15Z</time>
      </trkpt>
      <trkpt lat="47.61362" lon="3.72907">
        <ele>260</ele>
        <time>2019-04-03T06:31:19Z</time>
      </trkpt>
      <trkpt lat="47.61359" lon="3.72901">
        <ele>260</ele>
        <time>2019-04-03T06:31:23Z</time>
      </trkpt>
      <trkpt lat="47.61358" lon="3.72897">
        <ele>260</ele>
        <time>2019-04-03T06:31:25Z</time>
      </trkpt>
      <trkpt lat="47.61356" lon="3.72894">
        <ele>260</ele>
        <time>2019-04-03T06:31:27Z</time>
      </trkpt>
      <trkpt lat="47.61353" lon="3.72889">
        <ele>260</ele>
        <time>2019-04-03T06:31:31Z</time>
      </trkpt>
      <trkpt lat="47.61351" lon="3.72887">
        <ele>260</ele>
        <time>2019-04-03T06:31:34Z</time>
      </trkpt>
      <trkpt lat="47.61349" lon="3.72884">
        <ele>261</ele>
        <time>2019-04-03T06:31:36Z</time>
      </trkpt>
      <trkpt lat="47.61344" lon="3.72879">
        <ele>261</ele>
        <time>2019-04-03T06:31:39Z</time>
      </trkpt>
      <trkpt lat="47.61341" lon="3.72874">
        <ele>262</ele>
        <time>2019-04-03T06:31:43Z</time>
      </trkpt>
      <trkpt lat="47.61338" lon="3.72869">
        <ele>262</ele>
        <time>2019-04-03T06:31:47Z</time>
      </trkpt>
      <trkpt lat="47.61335" lon="3.72865">
        <ele>262</ele>
        <time>2019-04-03T06:31:49Z</time>
      </trkpt>
      <trkpt lat="47.61333" lon="3.72862">
        <ele>263</ele>
        <time>2019-04-03T06:31:52Z</time>
      </trkpt>
      <trkpt lat="47.61328" lon="3.72856">
        <ele>262</ele>
        <time>2019-04-03T06:31:56Z</time>
      </trkpt>
      <trkpt lat="47.61325" lon="3.72852">
        <ele>263</ele>
        <time>2019-04-03T06:32:00Z</time>
      </trkpt>
      <trkpt lat="47.61323" lon="3.72849">
        <ele>263</ele>
        <time>2019-04-03T06:32:02Z</time>
      </trkpt>
      <trkpt lat="47.61319" lon="3.72845">
        <ele>262</ele>
        <time>2019-04-03T06:32:07Z</time>
      </trkpt>
      <trkpt lat="47.61315" lon="3.72839">
        <ele>263</ele>
        <time>2019-04-03T06:32:11Z</time>
      </trkpt>
      <trkpt lat="47.61312" lon="3.72835">
        <ele>263</ele>
        <time>2019-04-03T06:32:13Z</time>
      </trkpt>
      <trkpt lat="47.6131" lon="3.72832">
        <ele>263</ele>
        <time>2019-04-03T06:32:15Z</time>
      </trkpt>
      <trkpt lat="47.61306" lon="3.72826">
        <ele>263</ele>
        <time>2019-04-03T06:32:19Z</time>
      </trkpt>
      <trkpt lat="47.61305" lon="3.72823">
        <ele>263</ele>
        <time>2019-04-03T06:32:22Z</time>
      </trkpt>
      <trkpt lat="47.61303" lon="3.72817">
        <ele>263</ele>
        <time>2019-04-03T06:32:27Z</time>
      </trkpt>
      <trkpt lat="47.613" lon="3.7281">
        <ele>263</ele>
        <time>2019-04-03T06:32:30Z</time>
      </trkpt>
      <trkpt lat="47.61297" lon="3.72806">
        <ele>264</ele>
        <time>2019-04-03T06:32:34Z</time>
      </trkpt>
      <trkpt lat="47.61295" lon="3.72801">
        <ele>264</ele>
        <time>2019-04-03T06:32:37Z</time>
      </trkpt>
      <trkpt lat="47.61292" lon="3.72795">
        <ele>265</ele>
        <time>2019-04-03T06:32:41Z</time>
      </trkpt>
      <trkpt lat="47.61288" lon="3.72788">
        <ele>265</ele>
        <time>2019-04-03T06:32:46Z</time>
      </trkpt>
      <trkpt lat="47.61285" lon="3.72782">
        <ele>265</ele>
        <time>2019-04-03T06:32:50Z</time>
      </trkpt>
      <trkpt lat="47.61283" lon="3.72779">
        <ele>265</ele>
        <time>2019-04-03T06:32:52Z</time>
      </trkpt>
      <trkpt lat="47.6128" lon="3.72772">
        <ele>265</ele>
        <time>2019-04-03T06:32:56Z</time>
      </trkpt>
      <trkpt lat="47.61278" lon="3.72769">
        <ele>265</ele>
        <time>2019-04-03T06:32:59Z</time>
      </trkpt>
      <trkpt lat="47.61275" lon="3.72763">
        <ele>265</ele>
        <time>2019-04-03T06:33:04Z</time>
      </trkpt>
      <trkpt lat="47.61272" lon="3.72757">
        <ele>265</ele>
        <time>2019-04-03T06:33:08Z</time>
      </trkpt>
      <trkpt lat="47.61269" lon="3.72752">
        <ele>265</ele>
        <time>2019-04-03T06:33:11Z</time>
      </trkpt>
      <trkpt lat="47.61268" lon="3.72749">
        <ele>264</ele>
        <time>2019-04-03T06:33:13Z</time>
      </trkpt>
      <trkpt lat="47.61265" lon="3.72742">
        <ele>264</ele>
        <time>2019-04-03T06:33:17Z</time>
      </trkpt>
      <trkpt lat="47.61261" lon="3.72737">
        <ele>264</ele>
        <time>2019-04-03T06:33:21Z</time>
      </trkpt>
      <trkpt lat="47.61259" lon="3.72734">
        <ele>264</ele>
        <time>2019-04-03T06:33:23Z</time>
      </trkpt>
      <trkpt lat="47.61256" lon="3.72729">
        <ele>265</ele>
        <time>2019-04-03T06:33:26Z</time>
      </trkpt>
      <trkpt lat="47.61252" lon="3.72724">
        <ele>265</ele>
        <time>2019-04-03T06:33:28Z</time>
      </trkpt>
      <trkpt lat="47.61249" lon="3.72717">
        <ele>266</ele>
        <time>2019-04-03T06:33:33Z</time>
      </trkpt>
      <trkpt lat="47.61245" lon="3.72712">
        <ele>266</ele>
        <time>2019-04-03T06:33:38Z</time>
      </trkpt>
      <trkpt lat="47.61242" lon="3.72708">
        <ele>266</ele>
        <time>2019-04-03T06:33:41Z</time>
      </trkpt>
      <trkpt lat="47.6124" lon="3.72705">
        <ele>265</ele>
        <time>2019-04-03T06:33:45Z</time>
      </trkpt>
      <trkpt lat="47.61237" lon="3.72702">
        <ele>265</ele>
        <time>2019-04-03T06:33:47Z</time>
      </trkpt>
      <trkpt lat="47.61235" lon="3.72697">
        <ele>267</ele>
        <time>2019-04-03T06:33:51Z</time>
      </trkpt>
      <trkpt lat="47.61233" lon="3.72694">
        <ele>268</ele>
        <time>2019-04-03T06:33:52Z</time>
      </trkpt>
      <trkpt lat="47.6123" lon="3.72692">
        <ele>267</ele>
        <time>2019-04-03T06:33:54Z</time>
      </trkpt>
      <trkpt lat="47.61226" lon="3.72687">
        <ele>267</ele>
        <time>2019-04-03T06:33:58Z</time>
      </trkpt>
      <trkpt lat="47.61224" lon="3.72685">
        <ele>267</ele>
        <time>2019-04-03T06:34:00Z</time>
      </trkpt>
      <trkpt lat="47.61221" lon="3.72682">
        <ele>267</ele>
        <time>2019-04-03T06:34:03Z</time>
      </trkpt>
      <trkpt lat="47.61219" lon="3.7268">
        <ele>267</ele>
        <time>2019-04-03T06:34:05Z</time>
      </trkpt>
      <trkpt lat="47.61214" lon="3.72676">
        <ele>267</ele>
        <time>2019-04-03T06:34:09Z</time>
      </trkpt>
      <trkpt lat="47.61212" lon="3.72675">
        <ele>267</ele>
        <time>2019-04-03T06:34:11Z</time>
      </trkpt>
      <trkpt lat="47.61207" lon="3.72671">
        <ele>268</ele>
        <time>2019-04-03T06:34:15Z</time>
      </trkpt>
      <trkpt lat="47.61205" lon="3.72669">
        <ele>268</ele>
        <time>2019-04-03T06:34:17Z</time>
      </trkpt>
      <trkpt lat="47.61202" lon="3.72667">
        <ele>268</ele>
        <time>2019-04-03T06:34:20Z</time>
      </trkpt>
      <trkpt lat="47.612" lon="3.72665">
        <ele>268</ele>
        <time>2019-04-03T06:34:23Z</time>
      </trkpt>
      <trkpt lat="47.61198" lon="3.72663">
        <ele>268</ele>
        <time>2019-04-03T06:34:26Z</time>
      </trkpt>
      <trkpt lat="47.61195" lon="3.7266">
        <ele>268</ele>
        <time>2019-04-03T06:34:28Z</time>
      </trkpt>
      <trkpt lat="47.61192" lon="3.72658">
        <ele>269</ele>
        <time>2019-04-03T06:34:30Z</time>
      </trkpt>
      <trkpt lat="47.6119" lon="3.72657">
        <ele>268</ele>
        <time>2019-04-03T06:34:32Z</time>
      </trkpt>
      <trkpt lat="47.61187" lon="3.72654">
        <ele>270</ele>
        <time>2019-04-03T06:34:36Z</time>
      </trkpt>
      <trkpt lat="47.61183" lon="3.72651">
        <ele>269</ele>
        <time>2019-04-03T06:34:40Z</time>
      </trkpt>
      <trkpt lat="47.61178" lon="3.72648">
        <ele>269</ele>
        <time>2019-04-03T06:34:44Z</time>
      </trkpt>
      <trkpt lat="47.61176" lon="3.72646">
        <ele>269</ele>
        <time>2019-04-03T06:34:46Z</time>
      </trkpt>
      <trkpt lat="47.61173" lon="3.72645">
        <ele>269</ele>
        <time>2019-04-03T06:34:47Z</time>
      </trkpt>
      <trkpt lat="47.61171" lon="3.72644">
        <ele>270</ele>
        <time>2019-04-03T06:34:50Z</time>
      </trkpt>
      <trkpt lat="47.61166" lon="3.72639">
        <ele>269</ele>
        <time>2019-04-03T06:34:55Z</time>
      </trkpt>
      <trkpt lat="47.61163" lon="3.72636">
        <ele>270</ele>
        <time>2019-04-03T06:34:58Z</time>
      </trkpt>
      <trkpt lat="47.61159" lon="3.72632">
        <ele>270</ele>
        <time>2019-04-03T06:35:03Z</time>
      </trkpt>
      <trkpt lat="47.61155" lon="3.72628">
        <ele>270</ele>
        <time>2019-04-03T06:35:07Z</time>
      </trkpt>
      <trkpt lat="47.6115" lon="3.72624">
        <ele>271</ele>
        <time>2019-04-03T06:35:11Z</time>
      </trkpt>
      <trkpt lat="47.61146" lon="3.7262">
        <ele>272</ele>
        <time>2019-04-03T06:35:15Z</time>
      </trkpt>
      <trkpt lat="47.61141" lon="3.72616">
        <ele>272</ele>
        <time>2019-04-03T06:35:19Z</time>
      </trkpt>
      <trkpt lat="47.61137" lon="3.72613">
        <ele>272</ele>
        <time>2019-04-03T06:35:23Z</time>
      </trkpt>
      <trkpt lat="47.61133" lon="3.7261">
        <ele>272</ele>
        <time>2019-04-03T06:35:26Z</time>
      </trkpt>
      <trkpt lat="47.6113" lon="3.72607">
        <ele>273</ele>
        <time>2019-04-03T06:35:30Z</time>
      </trkpt>
      <trkpt lat="47.61125" lon="3.72604">
        <ele>273</ele>
        <time>2019-04-03T06:35:33Z</time>
      </trkpt>
      <trkpt lat="47.6112" lon="3.726">
        <ele>273</ele>
        <time>2019-04-03T06:35:37Z</time>
      </trkpt>
      <trkpt lat="47.61114" lon="3.72597">
        <ele>273</ele>
        <time>2019-04-03T06:35:42Z</time>
      </trkpt>
      <trkpt lat="47.61109" lon="3.72593">
        <ele>272</ele>
        <time>2019-04-03T06:35:46Z</time>
      </trkpt>
      <trkpt lat="47.61105" lon="3.72588">
        <ele>272</ele>
        <time>2019-04-03T06:35:51Z</time>
      </trkpt>
      <trkpt lat="47.61102" lon="3.72585">
        <ele>272</ele>
        <time>2019-04-03T06:35:53Z</time>
      </trkpt>
      <trkpt lat="47.61097" lon="3.72581">
        <ele>272</ele>
        <time>2019-04-03T06:35:57Z</time>
      </trkpt>
      <trkpt lat="47.61094" lon="3.72576">
        <ele>272</ele>
        <time>2019-04-03T06:36:01Z</time>
      </trkpt>
      <trkpt lat="47.61092" lon="3.72574">
        <ele>272</ele>
        <time>2019-04-03T06:36:03Z</time>
      </trkpt>
      <trkpt lat="47.61087" lon="3.72569">
        <ele>273</ele>
        <time>2019-04-03T06:36:07Z</time>
      </trkpt>
      <trkpt lat="47.61085" lon="3.72567">
        <ele>273</ele>
        <time>2019-04-03T06:36:09Z</time>
      </trkpt>
      <trkpt lat="47.61081" lon="3.72561">
        <ele>273</ele>
        <time>2019-04-03T06:36:12Z</time>
      </trkpt>
      <trkpt lat="47.61079" lon="3.72558">
        <ele>273</ele>
        <time>2019-04-03T06:36:14Z</time>
      </trkpt>
      <trkpt lat="47.61078" lon="3.72556">
        <ele>273</ele>
        <time>2019-04-03T06:36:16Z</time>
      </trkpt>
      <trkpt lat="47.61076" lon="3.72553">
        <ele>273</ele>
        <time>2019-04-03T06:36:18Z</time>
      </trkpt>
      <trkpt lat="47.61074" lon="3.72551">
        <ele>273</ele>
        <time>2019-04-03T06:36:20Z</time>
      </trkpt>
      <trkpt lat="47.61072" lon="3.72548">
        <ele>272</ele>
        <time>2019-04-03T06:36:24Z</time>
      </trkpt>
      <trkpt lat="47.61069" lon="3.72544">
        <ele>272</ele>
        <time>2019-04-03T06:36:26Z</time>
      </trkpt>
      <trkpt lat="47.61068" lon="3.72541">
        <ele>272</ele>
        <time>2019-04-03T06:36:28Z</time>
      </trkpt>
      <trkpt lat="47.61064" lon="3.72536">
        <ele>272</ele>
        <time>2019-04-03T06:36:32Z</time>
      </trkpt>
      <trkpt lat="47.6106" lon="3.7253">
        <ele>272</ele>
        <time>2019-04-03T06:36:36Z</time>
      </trkpt>
      <trkpt lat="47.61056" lon="3.72525">
        <ele>272</ele>
        <time>2019-04-03T06:36:40Z</time>
      </trkpt>
      <trkpt lat="47.61054" lon="3.72522">
        <ele>272</ele>
        <time>2019-04-03T06:36:42Z</time>
      </trkpt>
      <trkpt lat="47.61051" lon="3.72517">
        <ele>273</ele>
        <time>2019-04-03T06:36:45Z</time>
      </trkpt>
      <trkpt lat="47.61049" lon="3.72514">
        <ele>273</ele>
        <time>2019-04-03T06:36:49Z</time>
      </trkpt>
      <trkpt lat="47.61046" lon="3.7251">
        <ele>273</ele>
        <time>2019-04-03T06:36:52Z</time>
      </trkpt>
      <trkpt lat="47.61042" lon="3.72506">
        <ele>273</ele>
        <time>2019-04-03T06:36:55Z</time>
      </trkpt>
      <trkpt lat="47.61038" lon="3.72502">
        <ele>273</ele>
        <time>2019-04-03T06:36:58Z</time>
      </trkpt>
      <trkpt lat="47.61036" lon="3.72499">
        <ele>273</ele>
        <time>2019-04-03T06:37:00Z</time>
      </trkpt>
      <trkpt lat="47.61032" lon="3.72491">
        <ele>274</ele>
        <time>2019-04-03T06:37:06Z</time>
      </trkpt>
      <trkpt lat="47.61027" lon="3.72486">
        <ele>274</ele>
        <time>2019-04-03T06:37:10Z</time>
      </trkpt>
      <trkpt lat="47.61023" lon="3.72481">
        <ele>273</ele>
        <time>2019-04-03T06:37:14Z</time>
      </trkpt>
      <trkpt lat="47.61019" lon="3.72476">
        <ele>274</ele>
        <time>2019-04-03T06:37:18Z</time>
      </trkpt>
      <trkpt lat="47.61015" lon="3.7247">
        <ele>274</ele>
        <time>2019-04-03T06:37:22Z</time>
      </trkpt>
      <trkpt lat="47.61012" lon="3.72463">
        <ele>274</ele>
        <time>2019-04-03T06:37:25Z</time>
      </trkpt>
      <trkpt lat="47.61008" lon="3.72458">
        <ele>274</ele>
        <time>2019-04-03T06:37:29Z</time>
      </trkpt>
      <trkpt lat="47.61005" lon="3.72453">
        <ele>273</ele>
        <time>2019-04-03T06:37:34Z</time>
      </trkpt>
      <trkpt lat="47.61002" lon="3.72446">
        <ele>273</ele>
        <time>2019-04-03T06:37:38Z</time>
      </trkpt>
      <trkpt lat="47.61" lon="3.72443">
        <ele>273</ele>
        <time>2019-04-03T06:37:40Z</time>
      </trkpt>
      <trkpt lat="47.60997" lon="3.72437">
        <ele>273</ele>
        <time>2019-04-03T06:37:43Z</time>
      </trkpt>
      <trkpt lat="47.60995" lon="3.72431">
        <ele>273</ele>
        <time>2019-04-03T06:37:46Z</time>
      </trkpt>
      <trkpt lat="47.60993" lon="3.72427">
        <ele>273</ele>
        <time>2019-04-03T06:37:48Z</time>
      </trkpt>
      <trkpt lat="47.60991" lon="3.72421">
        <ele>272</ele>
        <time>2019-04-03T06:37:52Z</time>
      </trkpt>
      <trkpt lat="47.6099" lon="3.72414">
        <ele>273</ele>
        <time>2019-04-03T06:37:56Z</time>
      </trkpt>
      <trkpt lat="47.60988" lon="3.72408">
        <ele>274</ele>
        <time>2019-04-03T06:38:00Z</time>
      </trkpt>
      <trkpt lat="47.60986" lon="3.72404">
        <ele>274</ele>
        <time>2019-04-03T06:38:02Z</time>
      </trkpt>
      <trkpt lat="47.60984" lon="3.72398">
        <ele>274</ele>
        <time>2019-04-03T06:38:05Z</time>
      </trkpt>
      <trkpt lat="47.60982" lon="3.72394">
        <ele>274</ele>
        <time>2019-04-03T06:38:08Z</time>
      </trkpt>
      <trkpt lat="47.60979" lon="3.72388">
        <ele>273</ele>
        <time>2019-04-03T06:38:12Z</time>
      </trkpt>
      <trkpt lat="47.60977" lon="3.72381">
        <ele>273</ele>
        <time>2019-04-03T06:38:16Z</time>
      </trkpt>
      <trkpt lat="47.60976" lon="3.72378">
        <ele>273</ele>
        <time>2019-04-03T06:38:18Z</time>
      </trkpt>
      <trkpt lat="47.60974" lon="3.72371">
        <ele>273</ele>
        <time>2019-04-03T06:38:21Z</time>
      </trkpt>
      <trkpt lat="47.60973" lon="3.72366">
        <ele>273</ele>
        <time>2019-04-03T06:38:23Z</time>
      </trkpt>
      <trkpt lat="47.60971" lon="3.72363">
        <ele>273</ele>
        <time>2019-04-03T06:38:25Z</time>
      </trkpt>
      <trkpt lat="47.6097" lon="3.72356">
        <ele>274</ele>
        <time>2019-04-03T06:38:29Z</time>
      </trkpt>
      <trkpt lat="47.60967" lon="3.7235">
        <ele>272</ele>
        <time>2019-04-03T06:38:32Z</time>
      </trkpt>
      <trkpt lat="47.60965" lon="3.72343">
        <ele>273</ele>
        <time>2019-04-03T06:38:37Z</time>
      </trkpt>
      <trkpt lat="47.60963" lon="3.72335">
        <ele>273</ele>
        <time>2019-04-03T06:38:41Z</time>
      </trkpt>
      <trkpt lat="47.60962" lon="3.72331">
        <ele>273</ele>
        <time>2019-04-03T06:38:44Z</time>
      </trkpt>
      <trkpt lat="47.60961" lon="3.72326">
        <ele>272</ele>
        <time>2019-04-03T06:38:47Z</time>
      </trkpt>
      <trkpt lat="47.60959" lon="3.72323">
        <ele>272</ele>
        <time>2019-04-03T06:38:49Z</time>
      </trkpt>
      <trkpt lat="47.60958" lon="3.72319">
        <ele>272</ele>
        <time>2019-04-03T06:38:51Z</time>
      </trkpt>
      <trkpt lat="47.60956" lon="3.72309">
        <ele>272</ele>
        <time>2019-04-03T06:38:56Z</time>
      </trkpt>
      <trkpt lat="47.60955" lon="3.72306">
        <ele>272</ele>
        <time>2019-04-03T06:38:58Z</time>
      </trkpt>
      <trkpt lat="47.60954" lon="3.723">
        <ele>272</ele>
        <time>2019-04-03T06:39:02Z</time>
      </trkpt>
      <trkpt lat="47.60951" lon="3.72293">
        <ele>271</ele>
        <time>2019-04-03T06:39:06Z</time>
      </trkpt>
      <trkpt lat="47.6095" lon="3.72289">
        <ele>272</ele>
        <time>2019-04-03T06:39:08Z</time>
      </trkpt>
      <trkpt lat="47.60948" lon="3.72282">
        <ele>272</ele>
        <time>2019-04-03T06:39:12Z</time>
      </trkpt>
      <trkpt lat="47.60947" lon="3.72279">
        <ele>272</ele>
        <time>2019-04-03T06:39:14Z</time>
      </trkpt>
      <trkpt lat="47.60946" lon="3.72275">
        <ele>272</ele>
        <time>2019-04-03T06:39:16Z</time>
      </trkpt>
      <trkpt lat="47.60944" lon="3.72269">
        <ele>272</ele>
        <time>2019-04-03T06:39:19Z</time>
      </trkpt>
      <trkpt lat="47.60943" lon="3.72265">
        <ele>271</ele>
        <time>2019-04-03T06:39:21Z</time>
      </trkpt>
      <trkpt lat="47.60942" lon="3.72261">
        <ele>271</ele>
        <time>2019-04-03T06:39:23Z</time>
      </trkpt>
      <trkpt lat="47.60941" lon="3.72257">
        <ele>271</ele>
        <time>2019-04-03T06:39:25Z</time>
      </trkpt>
      <trkpt lat="47.60939" lon="3.72249">
        <ele>271</ele>
        <time>2019-04-03T06:39:29Z</time>
      </trkpt>
      <trkpt lat="47.60937" lon="3.72242">
        <ele>271</ele>
        <time>2019-04-03T06:39:33Z</time>
      </trkpt>
      <trkpt lat="47.60936" lon="3.72238">
        <ele>271</ele>
        <time>2019-04-03T06:39:35Z</time>
      </trkpt>
      <trkpt lat="47.60934" lon="3.72233">
        <ele>271</ele>
        <time>2019-04-03T06:39:38Z</time>
      </trkpt>
      <trkpt lat="47.60932" lon="3.72226">
        <ele>271</ele>
        <time>2019-04-03T06:39:41Z</time>
      </trkpt>
      <trkpt lat="47.6093" lon="3.72217">
        <ele>271</ele>
        <time>2019-04-03T06:39:46Z</time>
      </trkpt>
      <trkpt lat="47.60929" lon="3.72214">
        <ele>272</ele>
        <time>2019-04-03T06:39:48Z</time>
      </trkpt>
      <trkpt lat="47.60928" lon="3.72209">
        <ele>271</ele>
        <time>2019-04-03T06:39:51Z</time>
      </trkpt>
      <trkpt lat="47.60926" lon="3.72203">
        <ele>271</ele>
        <time>2019-04-03T06:39:54Z</time>
      </trkpt>
      <trkpt lat="47.60925" lon="3.72199">
        <ele>272</ele>
        <time>2019-04-03T06:39:57Z</time>
      </trkpt>
      <trkpt lat="47.60924" lon="3.72191">
        <ele>272</ele>
        <time>2019-04-03T06:40:01Z</time>
      </trkpt>
      <trkpt lat="47.60922" lon="3.72183">
        <ele>272</ele>
        <time>2019-04-03T06:40:05Z</time>
      </trkpt>
      <trkpt lat="47.60921" lon="3.72177">
        <ele>271</ele>
        <time>2019-04-03T06:40:08Z</time>
      </trkpt>
      <trkpt lat="47.6092" lon="3.72173">
        <ele>271</ele>
        <time>2019-04-03T06:40:10Z</time>
      </trkpt>
      <trkpt lat="47.60919" lon="3.72169">
        <ele>272</ele>
        <time>2019-04-03T06:40:12Z</time>
      </trkpt>
      <trkpt lat="47.60917" lon="3.72162">
        <ele>270</ele>
        <time>2019-04-03T06:40:16Z</time>
      </trkpt>
      <trkpt lat="47.60915" lon="3.72156">
        <ele>270</ele>
        <time>2019-04-03T06:40:19Z</time>
      </trkpt>
      <trkpt lat="47.60915" lon="3.72152">
        <ele>271</ele>
        <time>2019-04-03T06:40:21Z</time>
      </trkpt>
      <trkpt lat="47.60914" lon="3.72148">
        <ele>270</ele>
        <time>2019-04-03T06:40:23Z</time>
      </trkpt>
      <trkpt lat="47.60913" lon="3.72144">
        <ele>270</ele>
        <time>2019-04-03T06:40:25Z</time>
      </trkpt>
      <trkpt lat="47.60913" lon="3.7214">
        <ele>270</ele>
        <time>2019-04-03T06:40:27Z</time>
      </trkpt>
      <trkpt lat="47.60911" lon="3.72133">
        <ele>270</ele>
        <time>2019-04-03T06:40:31Z</time>
      </trkpt>
      <trkpt lat="47.6091" lon="3.7213">
        <ele>269</ele>
        <time>2019-04-03T06:40:33Z</time>
      </trkpt>
      <trkpt lat="47.60908" lon="3.72124">
        <ele>269</ele>
        <time>2019-04-03T06:40:36Z</time>
      </trkpt>
      <trkpt lat="47.60906" lon="3.72117">
        <ele>270</ele>
        <time>2019-04-03T06:40:40Z</time>
      </trkpt>
      <trkpt lat="47.60905" lon="3.72112">
        <ele>270</ele>
        <time>2019-04-03T06:40:42Z</time>
      </trkpt>
      <trkpt lat="47.60904" lon="3.72108">
        <ele>270</ele>
        <time>2019-04-03T06:40:44Z</time>
      </trkpt>
      <trkpt lat="47.60903" lon="3.72104">
        <ele>270</ele>
        <time>2019-04-03T06:40:46Z</time>
      </trkpt>
      <trkpt lat="47.60902" lon="3.72094">
        <ele>270</ele>
        <time>2019-04-03T06:40:50Z</time>
      </trkpt>
      <trkpt lat="47.609" lon="3.72087">
        <ele>269</ele>
        <time>2019-04-03T06:40:55Z</time>
      </trkpt>
      <trkpt lat="47.60899" lon="3.7208">
        <ele>269</ele>
        <time>2019-04-03T06:40:58Z</time>
      </trkpt>
      <trkpt lat="47.60898" lon="3.72075">
        <ele>270</ele>
        <time>2019-04-03T06:41:01Z</time>
      </trkpt>
      <trkpt lat="47.60895" lon="3.72069">
        <ele>269</ele>
        <time>2019-04-03T06:41:04Z</time>
      </trkpt>
      <trkpt lat="47.60893" lon="3.72063">
        <ele>270</ele>
        <time>2019-04-03T06:41:07Z</time>
      </trkpt>
      <trkpt lat="47.60892" lon="3.72055">
        <ele>270</ele>
        <time>2019-04-03T06:41:12Z</time>
      </trkpt>
      <trkpt lat="47.6089" lon="3.72047">
        <ele>271</ele>
        <time>2019-04-03T06:41:16Z</time>
      </trkpt>
      <trkpt lat="47.60888" lon="3.72041">
        <ele>271</ele>
        <time>2019-04-03T06:41:19Z</time>
      </trkpt>
      <trkpt lat="47.60887" lon="3.72038">
        <ele>271</ele>
        <time>2019-04-03T06:41:22Z</time>
      </trkpt>
      <trkpt lat="47.60886" lon="3.72034">
        <ele>271</ele>
        <time>2019-04-03T06:41:24Z</time>
      </trkpt>
      <trkpt lat="47.60886" lon="3.72026">
        <ele>271</ele>
        <time>2019-04-03T06:41:28Z</time>
      </trkpt>
      <trkpt lat="47.60884" lon="3.72019">
        <ele>270</ele>
        <time>2019-04-03T06:41:32Z</time>
      </trkpt>
      <trkpt lat="47.60883" lon="3.72016">
        <ele>270</ele>
        <time>2019-04-03T06:41:34Z</time>
      </trkpt>
      <trkpt lat="47.60882" lon="3.72012">
        <ele>270</ele>
        <time>2019-04-03T06:41:36Z</time>
      </trkpt>
      <trkpt lat="47.6088" lon="3.72004">
        <ele>271</ele>
        <time>2019-04-03T06:41:40Z</time>
      </trkpt>
      <trkpt lat="47.6088" lon="3.72001">
        <ele>270</ele>
        <time>2019-04-03T06:41:42Z</time>
      </trkpt>
      <trkpt lat="47.60878" lon="3.71996">
        <ele>269</ele>
        <time>2019-04-03T06:41:44Z</time>
      </trkpt>
      <trkpt lat="47.60877" lon="3.71993">
        <ele>269</ele>
        <time>2019-04-03T06:41:46Z</time>
      </trkpt>
      <trkpt lat="47.60875" lon="3.71985">
        <ele>268</ele>
        <time>2019-04-03T06:41:50Z</time>
      </trkpt>
      <trkpt lat="47.60874" lon="3.71978">
        <ele>268</ele>
        <time>2019-04-03T06:41:54Z</time>
      </trkpt>
      <trkpt lat="47.60874" lon="3.71974">
        <ele>268</ele>
        <time>2019-04-03T06:41:56Z</time>
      </trkpt>
      <trkpt lat="47.60873" lon="3.71966">
        <ele>268</ele>
        <time>2019-04-03T06:41:59Z</time>
      </trkpt>
      <trkpt lat="47.60873" lon="3.71961">
        <ele>268</ele>
        <time>2019-04-03T06:42:03Z</time>
      </trkpt>
      <trkpt lat="47.60871" lon="3.71954">
        <ele>268</ele>
        <time>2019-04-03T06:42:07Z</time>
      </trkpt>
      <trkpt lat="47.60869" lon="3.71945">
        <ele>268</ele>
        <time>2019-04-03T06:42:11Z</time>
      </trkpt>
      <trkpt lat="47.60867" lon="3.71939">
        <ele>268</ele>
        <time>2019-04-03T06:42:14Z</time>
      </trkpt>
      <trkpt lat="47.60865" lon="3.71932">
        <ele>268</ele>
        <time>2019-04-03T06:42:18Z</time>
      </trkpt>
      <trkpt lat="47.60863" lon="3.71924">
        <ele>268</ele>
        <time>2019-04-03T06:42:22Z</time>
      </trkpt>
      <trkpt lat="47.60861" lon="3.71916">
        <ele>268</ele>
        <time>2019-04-03T06:42:25Z</time>
      </trkpt>
      <trkpt lat="47.6086" lon="3.71908">
        <ele>268</ele>
        <time>2019-04-03T06:42:30Z</time>
      </trkpt>
      <trkpt lat="47.60859" lon="3.71904">
        <ele>268</ele>
        <time>2019-04-03T06:42:32Z</time>
      </trkpt>
      <trkpt lat="47.60858" lon="3.71899">
        <ele>268</ele>
        <time>2019-04-03T06:42:35Z</time>
      </trkpt>
      <trkpt lat="47.60856" lon="3.7189">
        <ele>268</ele>
        <time>2019-04-03T06:42:39Z</time>
      </trkpt>
      <trkpt lat="47.60854" lon="3.71884">
        <ele>268</ele>
        <time>2019-04-03T06:42:42Z</time>
      </trkpt>
      <trkpt lat="47.60852" lon="3.71875">
        <ele>269</ele>
        <time>2019-04-03T06:42:46Z</time>
      </trkpt>
      <trkpt lat="47.60851" lon="3.71867">
        <ele>268</ele>
        <time>2019-04-03T06:42:51Z</time>
      </trkpt>
      <trkpt lat="47.60851" lon="3.71862">
        <ele>268</ele>
        <time>2019-04-03T06:42:54Z</time>
      </trkpt>
      <trkpt lat="47.6085" lon="3.71854">
        <ele>267</ele>
        <time>2019-04-03T06:42:58Z</time>
      </trkpt>
      <trkpt lat="47.60848" lon="3.71847">
        <ele>266</ele>
        <time>2019-04-03T06:43:02Z</time>
      </trkpt>
      <trkpt lat="47.60848" lon="3.71839">
        <ele>266</ele>
        <time>2019-04-03T06:43:06Z</time>
      </trkpt>
      <trkpt lat="47.60847" lon="3.71829">
        <ele>266</ele>
        <time>2019-04-03T06:43:11Z</time>
      </trkpt>
      <trkpt lat="47.60845" lon="3.71821">
        <ele>267</ele>
        <time>2019-04-03T06:43:16Z</time>
      </trkpt>
      <trkpt lat="47.60843" lon="3.71816">
        <ele>267</ele>
        <time>2019-04-03T06:43:18Z</time>
      </trkpt>
      <trkpt lat="47.60841" lon="3.71809">
        <ele>267</ele>
        <time>2019-04-03T06:43:22Z</time>
      </trkpt>
      <trkpt lat="47.6084" lon="3.71805">
        <ele>267</ele>
        <time>2019-04-03T06:43:24Z</time>
      </trkpt>
      <trkpt lat="47.60839" lon="3.71801">
        <ele>266</ele>
        <time>2019-04-03T06:43:26Z</time>
      </trkpt>
      <trkpt lat="47.60837" lon="3.71795">
        <ele>266</ele>
        <time>2019-04-03T06:43:29Z</time>
      </trkpt>
      <trkpt lat="47.60836" lon="3.71787">
        <ele>267</ele>
        <time>2019-04-03T06:43:33Z</time>
      </trkpt>
      <trkpt lat="47.60834" lon="3.71781">
        <ele>266</ele>
        <time>2019-04-03T06:43:36Z</time>
      </trkpt>
      <trkpt lat="47.60834" lon="3.71774">
        <ele>266</ele>
        <time>2019-04-03T06:43:40Z</time>
      </trkpt>
      <trkpt lat="47.60833" lon="3.71767">
        <ele>266</ele>
        <time>2019-04-03T06:43:43Z</time>
      </trkpt>
      <trkpt lat="47.60832" lon="3.71762">
        <ele>266</ele>
        <time>2019-04-03T06:43:46Z</time>
      </trkpt>
      <trkpt lat="47.60831" lon="3.71757">
        <ele>267</ele>
        <time>2019-04-03T06:43:48Z</time>
      </trkpt>
      <trkpt lat="47.60831" lon="3.71752">
        <ele>266</ele>
        <time>2019-04-03T06:43:50Z</time>
      </trkpt>
      <trkpt lat="47.60828" lon="3.71745">
        <ele>266</ele>
        <time>2019-04-03T06:43:53Z</time>
      </trkpt>
      <trkpt lat="47.60827" lon="3.7174">
        <ele>267</ele>
        <time>2019-04-03T06:43:55Z</time>
      </trkpt>
      <trkpt lat="47.60826" lon="3.71732">
        <ele>267</ele>
        <time>2019-04-03T06:43:59Z</time>
      </trkpt>
      <trkpt lat="47.60825" lon="3.71729">
        <ele>266</ele>
        <time>2019-04-03T06:44:02Z</time>
      </trkpt>
      <trkpt lat="47.60824" lon="3.71723">
        <ele>266</ele>
        <time>2019-04-03T06:44:05Z</time>
      </trkpt>
      <trkpt lat="47.60823" lon="3.71719">
        <ele>266</ele>
        <time>2019-04-03T06:44:07Z</time>
      </trkpt>
      <trkpt lat="47.60823" lon="3.71715">
        <ele>266</ele>
        <time>2019-04-03T06:44:09Z</time>
      </trkpt>
      <trkpt lat="47.60822" lon="3.71708">
        <ele>266</ele>
        <time>2019-04-03T06:44:12Z</time>
      </trkpt>
      <trkpt lat="47.60821" lon="3.71701">
        <ele>265</ele>
        <time>2019-04-03T06:44:16Z</time>
      </trkpt>
      <trkpt lat="47.6082" lon="3.71694">
        <ele>264</ele>
        <time>2019-04-03T06:44:18Z</time>
      </trkpt>
      <trkpt lat="47.60819" lon="3.7169">
        <ele>264</ele>
        <time>2019-04-03T06:44:20Z</time>
      </trkpt>
      <trkpt lat="47.60818" lon="3.71685">
        <ele>264</ele>
        <time>2019-04-03T06:44:22Z</time>
      </trkpt>
      <trkpt lat="47.60817" lon="3.71679">
        <ele>264</ele>
        <time>2019-04-03T06:44:25Z</time>
      </trkpt>
      <trkpt lat="47.60816" lon="3.71672">
        <ele>263</ele>
        <time>2019-04-03T06:44:29Z</time>
      </trkpt>
      <trkpt lat="47.60815" lon="3.71665">
        <ele>263</ele>
        <time>2019-04-03T06:44:33Z</time>
      </trkpt>
      <trkpt lat="47.60814" lon="3.71657">
        <ele>263</ele>
        <time>2019-04-03T06:44:37Z</time>
      </trkpt>
      <trkpt lat="47.60812" lon="3.7165">
        <ele>263</ele>
        <time>2019-04-03T06:44:41Z</time>
      </trkpt>
      <trkpt lat="47.60812" lon="3.71647">
        <ele>263</ele>
        <time>2019-04-03T06:44:43Z</time>
      </trkpt>
      <trkpt lat="47.60811" lon="3.71643">
        <ele>262</ele>
        <time>2019-04-03T06:44:45Z</time>
      </trkpt>
      <trkpt lat="47.60809" lon="3.71636">
        <ele>262</ele>
        <time>2019-04-03T06:44:49Z</time>
      </trkpt>
      <trkpt lat="47.60807" lon="3.7163">
        <ele>263</ele>
        <time>2019-04-03T06:44:52Z</time>
      </trkpt>
      <trkpt lat="47.60806" lon="3.71626">
        <ele>262</ele>
        <time>2019-04-03T06:44:54Z</time>
      </trkpt>
      <trkpt lat="47.60805" lon="3.71622">
        <ele>263</ele>
        <time>2019-04-03T06:44:56Z</time>
      </trkpt>
      <trkpt lat="47.60804" lon="3.71615">
        <ele>263</ele>
        <time>2019-04-03T06:45:00Z</time>
      </trkpt>
      <trkpt lat="47.60803" lon="3.7161">
        <ele>263</ele>
        <time>2019-04-03T06:45:02Z</time>
      </trkpt>
      <trkpt lat="47.60802" lon="3.71604">
        <ele>263</ele>
        <time>2019-04-03T06:45:05Z</time>
      </trkpt>
      <trkpt lat="47.60801" lon="3.71596">
        <ele>262</ele>
        <time>2019-04-03T06:45:09Z</time>
      </trkpt>
      <trkpt lat="47.60801" lon="3.7159">
        <ele>261</ele>
        <time>2019-04-03T06:45:12Z</time>
      </trkpt>
      <trkpt lat="47.608" lon="3.71582">
        <ele>261</ele>
        <time>2019-04-03T06:45:17Z</time>
      </trkpt>
      <trkpt lat="47.60799" lon="3.71574">
        <ele>262</ele>
        <time>2019-04-03T06:45:21Z</time>
      </trkpt>
      <trkpt lat="47.60798" lon="3.7157">
        <ele>262</ele>
        <time>2019-04-03T06:45:23Z</time>
      </trkpt>
      <trkpt lat="47.60798" lon="3.71565">
        <ele>262</ele>
        <time>2019-04-03T06:45:26Z</time>
      </trkpt>
      <trkpt lat="47.60797" lon="3.71561">
        <ele>263</ele>
        <time>2019-04-03T06:45:28Z</time>
      </trkpt>
      <trkpt lat="47.60796" lon="3.71553">
        <ele>262</ele>
        <time>2019-04-03T06:45:32Z</time>
      </trkpt>
      <trkpt lat="47.60795" lon="3.71549">
        <ele>262</ele>
        <time>2019-04-03T06:45:33Z</time>
      </trkpt>
      <trkpt lat="47.60793" lon="3.71543">
        <ele>262</ele>
        <time>2019-04-03T06:45:37Z</time>
      </trkpt>
      <trkpt lat="47.60791" lon="3.71538">
        <ele>261</ele>
        <time>2019-04-03T06:45:39Z</time>
      </trkpt>
      <trkpt lat="47.6079" lon="3.71531">
        <ele>261</ele>
        <time>2019-04-03T06:45:42Z</time>
      </trkpt>
      <trkpt lat="47.6079" lon="3.71528">
        <ele>261</ele>
        <time>2019-04-03T06:45:44Z</time>
      </trkpt>
      <trkpt lat="47.60788" lon="3.71522">
        <ele>260</ele>
        <time>2019-04-03T06:45:47Z</time>
      </trkpt>
      <trkpt lat="47.60787" lon="3.71514">
        <ele>260</ele>
        <time>2019-04-03T06:45:51Z</time>
      </trkpt>
      <trkpt lat="47.60785" lon="3.71507">
        <ele>259</ele>
        <time>2019-04-03T06:45:54Z</time>
      </trkpt>
      <trkpt lat="47.60784" lon="3.71503">
        <ele>258</ele>
        <time>2019-04-03T06:45:56Z</time>
      </trkpt>
      <trkpt lat="47.60782" lon="3.71495">
        <ele>258</ele>
        <time>2019-04-03T06:46:00Z</time>
      </trkpt>
      <trkpt lat="47.60782" lon="3.71491">
        <ele>257</ele>
        <time>2019-04-03T06:46:02Z</time>
      </trkpt>
      <trkpt lat="47.60782" lon="3.71484">
        <ele>258</ele>
        <time>2019-04-03T06:46:06Z</time>
      </trkpt>
      <trkpt lat="47.6078" lon="3.71477">
        <ele>258</ele>
        <time>2019-04-03T06:46:10Z</time>
      </trkpt>
      <trkpt lat="47.60779" lon="3.71471">
        <ele>259</ele>
        <time>2019-04-03T06:46:14Z</time>
      </trkpt>
      <trkpt lat="47.60778" lon="3.71466">
        <ele>259</ele>
        <time>2019-04-03T06:46:16Z</time>
      </trkpt>
      <trkpt lat="47.60777" lon="3.71462">
        <ele>259</ele>
        <time>2019-04-03T06:46:17Z</time>
      </trkpt>
      <trkpt lat="47.60774" lon="3.71453">
        <ele>259</ele>
        <time>2019-04-03T06:46:23Z</time>
      </trkpt>
      <trkpt lat="47.60772" lon="3.71446">
        <ele>258</ele>
        <time>2019-04-03T06:46:27Z</time>
      </trkpt>
      <trkpt lat="47.60771" lon="3.71442">
        <ele>258</ele>
        <time>2019-04-03T06:46:29Z</time>
      </trkpt>
      <trkpt lat="47.6077" lon="3.71439">
        <ele>259</ele>
        <time>2019-04-03T06:46:31Z</time>
      </trkpt>
      <trkpt lat="47.60769" lon="3.71433">
        <ele>259</ele>
        <time>2019-04-03T06:46:34Z</time>
      </trkpt>
      <trkpt lat="47.60768" lon="3.71428">
        <ele>259</ele>
        <time>2019-04-03T06:46:36Z</time>
      </trkpt>
      <trkpt lat="47.60767" lon="3.71425">
        <ele>259</ele>
        <time>2019-04-03T06:46:38Z</time>
      </trkpt>
      <trkpt lat="47.60767" lon="3.71418">
        <ele>260</ele>
        <time>2019-04-03T06:46:42Z</time>
      </trkpt>
      <trkpt lat="47.60763" lon="3.7141">
        <ele>259</ele>
        <time>2019-04-03T06:46:47Z</time>
      </trkpt>
      <trkpt lat="47.60762" lon="3.71402">
        <ele>259</ele>
        <time>2019-04-03T06:46:50Z</time>
      </trkpt>
      <trkpt lat="47.60761" lon="3.71398">
        <ele>259</ele>
        <time>2019-04-03T06:46:52Z</time>
      </trkpt>
      <trkpt lat="47.6076" lon="3.71391">
        <ele>259</ele>
        <time>2019-04-03T06:46:56Z</time>
      </trkpt>
      <trkpt lat="47.60759" lon="3.71386">
        <ele>259</ele>
        <time>2019-04-03T06:46:59Z</time>
      </trkpt>
      <trkpt lat="47.60759" lon="3.71381">
        <ele>259</ele>
        <time>2019-04-03T06:47:01Z</time>
      </trkpt>
      <trkpt lat="47.60758" lon="3.71375">
        <ele>260</ele>
        <time>2019-04-03T06:47:05Z</time>
      </trkpt>
      <trkpt lat="47.60757" lon="3.71369">
        <ele>261</ele>
        <time>2019-04-03T06:47:08Z</time>
      </trkpt>
      <trkpt lat="47.60757" lon="3.71358">
        <ele>263</ele>
        <time>2019-04-03T06:47:13Z</time>
      </trkpt>
      <trkpt lat="47.60757" lon="3.71351">
        <ele>264</ele>
        <time>2019-04-03T06:47:17Z</time>
      </trkpt>
      <trkpt lat="47.60754" lon="3.71344">
        <ele>262</ele>
        <time>2019-04-03T06:47:21Z</time>
      </trkpt>
      <trkpt lat="47.60753" lon="3.71337">
        <ele>261</ele>
        <time>2019-04-03T06:47:24Z</time>
      </trkpt>
      <trkpt lat="47.60752" lon="3.7133">
        <ele>262</ele>
        <time>2019-04-03T06:47:29Z</time>
      </trkpt>
      <trkpt lat="47.60751" lon="3.71324">
        <ele>262</ele>
        <time>2019-04-03T06:47:31Z</time>
      </trkpt>
      <trkpt lat="47.6075" lon="3.71316">
        <ele>264</ele>
        <time>2019-04-03T06:47:36Z</time>
      </trkpt>
      <trkpt lat="47.60749" lon="3.71309">
        <ele>265</ele>
        <time>2019-04-03T06:47:40Z</time>
      </trkpt>
      <trkpt lat="47.60748" lon="3.71302">
        <ele>267</ele>
        <time>2019-04-03T06:47:46Z</time>
      </trkpt>
      <trkpt lat="47.60751" lon="3.71297">
        <ele>269</ele>
        <time>2019-04-03T06:47:53Z</time>
      </trkpt>
      <trkpt lat="47.6075" lon="3.71287">
        <ele>269</ele>
        <time>2019-04-03T06:47:57Z</time>
      </trkpt>
      <trkpt lat="47.60747" lon="3.71278">
        <ele>268</ele>
        <time>2019-04-03T06:48:01Z</time>
      </trkpt>
      <trkpt lat="47.60746" lon="3.71274">
        <ele>269</ele>
        <time>2019-04-03T06:48:03Z</time>
      </trkpt>
      <trkpt lat="47.60744" lon="3.71267">
        <ele>268</ele>
        <time>2019-04-03T06:48:06Z</time>
      </trkpt>
      <trkpt lat="47.60744" lon="3.7126">
        <ele>268</ele>
        <time>2019-04-03T06:48:10Z</time>
      </trkpt>
      <trkpt lat="47.60741" lon="3.71254">
        <ele>269</ele>
        <time>2019-04-03T06:48:14Z</time>
      </trkpt>
      <trkpt lat="47.60739" lon="3.71247">
        <ele>269</ele>
        <time>2019-04-03T06:48:18Z</time>
      </trkpt>
      <trkpt lat="47.60737" lon="3.71242">
        <ele>270</ele>
        <time>2019-04-03T06:48:21Z</time>
      </trkpt>
      <trkpt lat="47.60736" lon="3.71232">
        <ele>270</ele>
        <time>2019-04-03T06:48:25Z</time>
      </trkpt>
      <trkpt lat="47.60735" lon="3.71224">
        <ele>270</ele>
        <time>2019-04-03T06:48:29Z</time>
      </trkpt>
      <trkpt lat="47.60733" lon="3.71217">
        <ele>268</ele>
        <time>2019-04-03T06:48:33Z</time>
      </trkpt>
      <trkpt lat="47.6073" lon="3.71211">
        <ele>268</ele>
        <time>2019-04-03T06:48:37Z</time>
      </trkpt>
      <trkpt lat="47.60727" lon="3.71205">
        <ele>268</ele>
        <time>2019-04-03T06:48:41Z</time>
      </trkpt>
      <trkpt lat="47.60725" lon="3.71201">
        <ele>267</ele>
        <time>2019-04-03T06:48:43Z</time>
      </trkpt>
      <trkpt lat="47.60723" lon="3.71194">
        <ele>268</ele>
        <time>2019-04-03T06:48:46Z</time>
      </trkpt>
      <trkpt lat="47.60722" lon="3.7119">
        <ele>268</ele>
        <time>2019-04-03T06:48:48Z</time>
      </trkpt>
      <trkpt lat="47.60718" lon="3.71187">
        <ele>268</ele>
        <time>2019-04-03T06:48:52Z</time>
      </trkpt>
      <trkpt lat="47.60715" lon="3.71177">
        <ele>268</ele>
        <time>2019-04-03T06:48:56Z</time>
      </trkpt>
      <trkpt lat="47.60714" lon="3.71169">
        <ele>269</ele>
        <time>2019-04-03T06:48:59Z</time>
      </trkpt>
      <trkpt lat="47.6071" lon="3.71164">
        <ele>269</ele>
        <time>2019-04-03T06:49:03Z</time>
      </trkpt>
      <trkpt lat="47.60708" lon="3.71161">
        <ele>268</ele>
        <time>2019-04-03T06:49:06Z</time>
      </trkpt>
      <trkpt lat="47.60705" lon="3.71157">
        <ele>267</ele>
        <time>2019-04-03T06:49:09Z</time>
      </trkpt>
      <trkpt lat="47.60702" lon="3.71152">
        <ele>267</ele>
        <time>2019-04-03T06:49:13Z</time>
      </trkpt>
      <trkpt lat="47.60701" lon="3.71144">
        <ele>265</ele>
        <time>2019-04-03T06:49:17Z</time>
      </trkpt>
      <trkpt lat="47.60699" lon="3.71138">
        <ele>264</ele>
        <time>2019-04-03T06:49:20Z</time>
      </trkpt>
      <trkpt lat="47.60697" lon="3.71132">
        <ele>263</ele>
        <time>2019-04-03T06:49:23Z</time>
      </trkpt>
      <trkpt lat="47.60694" lon="3.71125">
        <ele>263</ele>
        <time>2019-04-03T06:49:26Z</time>
      </trkpt>
      <trkpt lat="47.60692" lon="3.71116">
        <ele>263</ele>
        <time>2019-04-03T06:49:33Z</time>
      </trkpt>
      <trkpt lat="47.60691" lon="3.71113">
        <ele>264</ele>
        <time>2019-04-03T06:49:35Z</time>
      </trkpt>
      <trkpt lat="47.60688" lon="3.71106">
        <ele>266</ele>
        <time>2019-04-03T06:49:42Z</time>
      </trkpt>
      <trkpt lat="47.60685" lon="3.71101">
        <ele>265</ele>
        <time>2019-04-03T06:49:46Z</time>
      </trkpt>
      <trkpt lat="47.60683" lon="3.71093">
        <ele>267</ele>
        <time>2019-04-03T06:49:51Z</time>
      </trkpt>
      <trkpt lat="47.60681" lon="3.71086">
        <ele>266</ele>
        <time>2019-04-03T06:49:54Z</time>
      </trkpt>
      <trkpt lat="47.60678" lon="3.7108">
        <ele>266</ele>
        <time>2019-04-03T06:49:58Z</time>
      </trkpt>
      <trkpt lat="47.60676" lon="3.71073">
        <ele>267</ele>
        <time>2019-04-03T06:50:01Z</time>
      </trkpt>
      <trkpt lat="47.60675" lon="3.71069">
        <ele>267</ele>
        <time>2019-04-03T06:50:04Z</time>
      </trkpt>
      <trkpt lat="47.60672" lon="3.71063">
        <ele>266</ele>
        <time>2019-04-03T06:50:07Z</time>
      </trkpt>
      <trkpt lat="47.6067" lon="3.7106">
        <ele>266</ele>
        <time>2019-04-03T06:50:09Z</time>
      </trkpt>
      <trkpt lat="47.60669" lon="3.71053">
        <ele>267</ele>
        <time>2019-04-03T06:50:12Z</time>
      </trkpt>
      <trkpt lat="47.60668" lon="3.71047">
        <ele>267</ele>
        <time>2019-04-03T06:50:15Z</time>
      </trkpt>
      <trkpt lat="47.60668" lon="3.71039">
        <ele>268</ele>
        <time>2019-04-03T06:50:20Z</time>
      </trkpt>
      <trkpt lat="47.60665" lon="3.71039">
        <ele>268</ele>
        <time>2019-04-03T06:50:29Z</time>
      </trkpt>
      <trkpt lat="47.60663" lon="3.71035">
        <ele>267</ele>
        <time>2019-04-03T06:50:33Z</time>
      </trkpt>
      <trkpt lat="47.60663" lon="3.71035">
        <ele>267</ele>
        <time>2019-04-03T06:50:42Z</time>
      </trkpt>
      <trkpt lat="47.60663" lon="3.71035">
        <ele>267</ele>
        <time>2019-04-03T06:50:43Z</time>
      </trkpt>
      <trkpt lat="47.60657" lon="3.71035">
        <ele>263</ele>
        <time>2019-04-03T06:52:59Z</time>
      </trkpt>
      <trkpt lat="47.60656" lon="3.71023">
        <ele>263</ele>
        <time>2019-04-03T06:53:07Z</time>
      </trkpt>
      <trkpt lat="47.60656" lon="3.71019">
        <ele>264</ele>
        <time>2019-04-03T06:53:11Z</time>
      </trkpt>
      <trkpt lat="47.60655" lon="3.71012">
        <ele>264</ele>
        <time>2019-04-03T06:53:16Z</time>
      </trkpt>
      <trkpt lat="47.60651" lon="3.71004">
        <ele>263</ele>
        <time>2019-04-03T06:53:22Z</time>
      </trkpt>
      <trkpt lat="47.60649" lon="3.70999">
        <ele>262</ele>
        <time>2019-04-03T06:53:26Z</time>
      </trkpt>
      <trkpt lat="47.60648" lon="3.70995">
        <ele>262</ele>
        <time>2019-04-03T06:53:29Z</time>
      </trkpt>
      <trkpt lat="47.60648" lon="3.70988">
        <ele>261</ele>
        <time>2019-04-03T06:53:34Z</time>
      </trkpt>
      <trkpt lat="47.60647" lon="3.70979">
        <ele>260</ele>
        <time>2019-04-03T06:53:39Z</time>
      </trkpt>
      <trkpt lat="47.60647" lon="3.70973">
        <ele>260</ele>
        <time>2019-04-03T06:53:42Z</time>
      </trkpt>
      <trkpt lat="47.60644" lon="3.70964">
        <ele>261</ele>
        <time>2019-04-03T06:53:49Z</time>
      </trkpt>
      <trkpt lat="47.60643" lon="3.70956">
        <ele>261</ele>
        <time>2019-04-03T06:53:53Z</time>
      </trkpt>
      <trkpt lat="47.60643" lon="3.7095">
        <ele>261</ele>
        <time>2019-04-03T06:53:56Z</time>
      </trkpt>
      <trkpt lat="47.6064" lon="3.70942">
        <ele>260</ele>
        <time>2019-04-03T06:54:01Z</time>
      </trkpt>
      <trkpt lat="47.60639" lon="3.70938">
        <ele>260</ele>
        <time>2019-04-03T06:54:03Z</time>
      </trkpt>
      <trkpt lat="47.60636" lon="3.70931">
        <ele>260</ele>
        <time>2019-04-03T06:54:06Z</time>
      </trkpt>
      <trkpt lat="47.60633" lon="3.70927">
        <ele>260</ele>
        <time>2019-04-03T06:54:10Z</time>
      </trkpt>
      <trkpt lat="47.60628" lon="3.70918">
        <ele>261</ele>
        <time>2019-04-03T06:54:14Z</time>
      </trkpt>
      <trkpt lat="47.60628" lon="3.7091">
        <ele>262</ele>
        <time>2019-04-03T06:54:19Z</time>
      </trkpt>
      <trkpt lat="47.60625" lon="3.70904">
        <ele>264</ele>
        <time>2019-04-03T06:54:23Z</time>
      </trkpt>
      <trkpt lat="47.60622" lon="3.70896">
        <ele>264</ele>
        <time>2019-04-03T06:54:28Z</time>
      </trkpt>
      <trkpt lat="47.6062" lon="3.70888">
        <ele>265</ele>
        <time>2019-04-03T06:54:32Z</time>
      </trkpt>
      <trkpt lat="47.60617" lon="3.70878">
        <ele>264</ele>
        <time>2019-04-03T06:54:38Z</time>
      </trkpt>
      <trkpt lat="47.60614" lon="3.70873">
        <ele>263</ele>
        <time>2019-04-03T06:54:41Z</time>
      </trkpt>
      <trkpt lat="47.60611" lon="3.70867">
        <ele>264</ele>
        <time>2019-04-03T06:54:44Z</time>
      </trkpt>
      <trkpt lat="47.60609" lon="3.70859">
        <ele>262</ele>
        <time>2019-04-03T06:54:48Z</time>
      </trkpt>
      <trkpt lat="47.60608" lon="3.70856">
        <ele>262</ele>
        <time>2019-04-03T06:54:50Z</time>
      </trkpt>
      <trkpt lat="47.60605" lon="3.70846">
        <ele>260</ele>
        <time>2019-04-03T06:54:54Z</time>
      </trkpt>
      <trkpt lat="47.60603" lon="3.70839">
        <ele>261</ele>
        <time>2019-04-03T06:54:57Z</time>
      </trkpt>
      <trkpt lat="47.60601" lon="3.70833">
        <ele>261</ele>
        <time>2019-04-03T06:55:00Z</time>
      </trkpt>
      <trkpt lat="47.60598" lon="3.70825">
        <ele>261</ele>
        <time>2019-04-03T06:55:04Z</time>
      </trkpt>
      <trkpt lat="47.60594" lon="3.70818">
        <ele>260</ele>
        <time>2019-04-03T06:55:09Z</time>
      </trkpt>
      <trkpt lat="47.6059" lon="3.70812">
        <ele>258</ele>
        <time>2019-04-03T06:55:13Z</time>
      </trkpt>
      <trkpt lat="47.60587" lon="3.70806">
        <ele>256</ele>
        <time>2019-04-03T06:55:17Z</time>
      </trkpt>
      <trkpt lat="47.60586" lon="3.70803">
        <ele>256</ele>
        <time>2019-04-03T06:55:19Z</time>
      </trkpt>
      <trkpt lat="47.60583" lon="3.70797">
        <ele>256</ele>
        <time>2019-04-03T06:55:22Z</time>
      </trkpt>
      <trkpt lat="47.60579" lon="3.70791">
        <ele>256</ele>
        <time>2019-04-03T06:55:26Z</time>
      </trkpt>
      <trkpt lat="47.60576" lon="3.70786">
        <ele>255</ele>
        <time>2019-04-03T06:55:29Z</time>
      </trkpt>
      <trkpt lat="47.60573" lon="3.70779">
        <ele>256</ele>
        <time>2019-04-03T06:55:32Z</time>
      </trkpt>
      <trkpt lat="47.60571" lon="3.70773">
        <ele>257</ele>
        <time>2019-04-03T06:55:36Z</time>
      </trkpt>
      <trkpt lat="47.60569" lon="3.70768">
        <ele>257</ele>
        <time>2019-04-03T06:55:39Z</time>
      </trkpt>
      <trkpt lat="47.60565" lon="3.70762">
        <ele>257</ele>
        <time>2019-04-03T06:55:42Z</time>
      </trkpt>
      <trkpt lat="47.60562" lon="3.70757">
        <ele>257</ele>
        <time>2019-04-03T06:55:45Z</time>
      </trkpt>
      <trkpt lat="47.6056" lon="3.70754">
        <ele>256</ele>
        <time>2019-04-03T06:55:47Z</time>
      </trkpt>
      <trkpt lat="47.60558" lon="3.70747">
        <ele>255</ele>
        <time>2019-04-03T06:55:52Z</time>
      </trkpt>
      <trkpt lat="47.60557" lon="3.70744">
        <ele>255</ele>
        <time>2019-04-03T06:55:54Z</time>
      </trkpt>
      <trkpt lat="47.60555" lon="3.7074">
        <ele>256</ele>
        <time>2019-04-03T06:55:58Z</time>
      </trkpt>
      <trkpt lat="47.60554" lon="3.70737">
        <ele>256</ele>
        <time>2019-04-03T06:56:00Z</time>
      </trkpt>
      <trkpt lat="47.6055" lon="3.70731">
        <ele>256</ele>
        <time>2019-04-03T06:56:02Z</time>
      </trkpt>
      <trkpt lat="47.60548" lon="3.70727">
        <ele>257</ele>
        <time>2019-04-03T06:56:05Z</time>
      </trkpt>
      <trkpt lat="47.60545" lon="3.70723">
        <ele>256</ele>
        <time>2019-04-03T06:56:08Z</time>
      </trkpt>
      <trkpt lat="47.60543" lon="3.70719">
        <ele>256</ele>
        <time>2019-04-03T06:56:10Z</time>
      </trkpt>
      <trkpt lat="47.6054" lon="3.70712">
        <ele>256</ele>
        <time>2019-04-03T06:56:14Z</time>
      </trkpt>
      <trkpt lat="47.60538" lon="3.70709">
        <ele>256</ele>
        <time>2019-04-03T06:56:16Z</time>
      </trkpt>
      <trkpt lat="47.60536" lon="3.70705">
        <ele>256</ele>
        <time>2019-04-03T06:56:18Z</time>
      </trkpt>
      <trkpt lat="47.60535" lon="3.70698">
        <ele>256</ele>
        <time>2019-04-03T06:56:22Z</time>
      </trkpt>
      <trkpt lat="47.60533" lon="3.70692">
        <ele>256</ele>
        <time>2019-04-03T06:56:26Z</time>
      </trkpt>
      <trkpt lat="47.60529" lon="3.70686">
        <ele>256</ele>
        <time>2019-04-03T06:56:29Z</time>
      </trkpt>
      <trkpt lat="47.60527" lon="3.70678">
        <ele>256</ele>
        <time>2019-04-03T06:56:34Z</time>
      </trkpt>
      <trkpt lat="47.60526" lon="3.7067">
        <ele>258</ele>
        <time>2019-04-03T06:56:38Z</time>
      </trkpt>
      <trkpt lat="47.60524" lon="3.70663">
        <ele>258</ele>
        <time>2019-04-03T06:56:42Z</time>
      </trkpt>
      <trkpt lat="47.60521" lon="3.70657">
        <ele>257</ele>
        <time>2019-04-03T06:56:46Z</time>
      </trkpt>
      <trkpt lat="47.60519" lon="3.7065">
        <ele>257</ele>
        <time>2019-04-03T06:56:50Z</time>
      </trkpt>
      <trkpt lat="47.60518" lon="3.70643">
        <ele>259</ele>
        <time>2019-04-03T06:56:54Z</time>
      </trkpt>
      <trkpt lat="47.60517" lon="3.70635">
        <ele>259</ele>
        <time>2019-04-03T06:56:58Z</time>
      </trkpt>
      <trkpt lat="47.60515" lon="3.70629">
        <ele>259</ele>
        <time>2019-04-03T06:57:02Z</time>
      </trkpt>
      <trkpt lat="47.60512" lon="3.70621">
        <ele>259</ele>
        <time>2019-04-03T06:57:06Z</time>
      </trkpt>
      <trkpt lat="47.6051" lon="3.70618">
        <ele>259</ele>
        <time>2019-04-03T06:57:08Z</time>
      </trkpt>
      <trkpt lat="47.60509" lon="3.70611">
        <ele>258</ele>
        <time>2019-04-03T06:57:12Z</time>
      </trkpt>
      <trkpt lat="47.60508" lon="3.70603">
        <ele>259</ele>
        <time>2019-04-03T06:57:16Z</time>
      </trkpt>
      <trkpt lat="47.60503" lon="3.70596">
        <ele>258</ele>
        <time>2019-04-03T06:57:21Z</time>
      </trkpt>
      <trkpt lat="47.605" lon="3.70588">
        <ele>258</ele>
        <time>2019-04-03T06:57:25Z</time>
      </trkpt>
      <trkpt lat="47.60499" lon="3.70585">
        <ele>257</ele>
        <time>2019-04-03T06:57:27Z</time>
      </trkpt>
      <trkpt lat="47.60497" lon="3.70581">
        <ele>258</ele>
        <time>2019-04-03T06:57:30Z</time>
      </trkpt>
      <trkpt lat="47.60493" lon="3.70574">
        <ele>258</ele>
        <time>2019-04-03T06:57:35Z</time>
      </trkpt>
      <trkpt lat="47.60489" lon="3.70564">
        <ele>258</ele>
        <time>2019-04-03T06:57:40Z</time>
      </trkpt>
      <trkpt lat="47.60486" lon="3.70558">
        <ele>259</ele>
        <time>2019-04-03T06:57:44Z</time>
      </trkpt>
      <trkpt lat="47.60485" lon="3.70554">
        <ele>259</ele>
        <time>2019-04-03T06:57:46Z</time>
      </trkpt>
      <trkpt lat="47.60483" lon="3.7055">
        <ele>260</ele>
        <time>2019-04-03T06:57:49Z</time>
      </trkpt>
      <trkpt lat="47.6048" lon="3.70542">
        <ele>259</ele>
        <time>2019-04-03T06:57:53Z</time>
      </trkpt>
      <trkpt lat="47.60479" lon="3.70539">
        <ele>259</ele>
        <time>2019-04-03T06:57:55Z</time>
      </trkpt>
      <trkpt lat="47.60477" lon="3.70536">
        <ele>259</ele>
        <time>2019-04-03T06:57:57Z</time>
      </trkpt>
      <trkpt lat="47.60476" lon="3.70531">
        <ele>259</ele>
        <time>2019-04-03T06:58:00Z</time>
      </trkpt>
      <trkpt lat="47.60475" lon="3.70528">
        <ele>259</ele>
        <time>2019-04-03T06:58:03Z</time>
      </trkpt>
      <trkpt lat="47.60474" lon="3.70521">
        <ele>259</ele>
        <time>2019-04-03T06:58:08Z</time>
      </trkpt>
      <trkpt lat="47.60473" lon="3.70516">
        <ele>259</ele>
        <time>2019-04-03T06:58:11Z</time>
      </trkpt>
      <trkpt lat="47.60473" lon="3.7051">
        <ele>260</ele>
        <time>2019-04-03T06:58:14Z</time>
      </trkpt>
      <trkpt lat="47.60471" lon="3.70503">
        <ele>261</ele>
        <time>2019-04-03T06:58:19Z</time>
      </trkpt>
      <trkpt lat="47.60469" lon="3.70493">
        <ele>261</ele>
        <time>2019-04-03T06:58:23Z</time>
      </trkpt>
      <trkpt lat="47.60468" lon="3.70489">
        <ele>261</ele>
        <time>2019-04-03T06:58:24Z</time>
      </trkpt>
      <trkpt lat="47.60467" lon="3.70486">
        <ele>261</ele>
        <time>2019-04-03T06:58:27Z</time>
      </trkpt>
      <trkpt lat="47.60466" lon="3.70482">
        <ele>262</ele>
        <time>2019-04-03T06:58:29Z</time>
      </trkpt>
      <trkpt lat="47.60465" lon="3.70473">
        <ele>262</ele>
        <time>2019-04-03T06:58:32Z</time>
      </trkpt>
      <trkpt lat="47.60464" lon="3.70468">
        <ele>262</ele>
        <time>2019-04-03T06:58:35Z</time>
      </trkpt>
      <trkpt lat="47.60463" lon="3.70463">
        <ele>262</ele>
        <time>2019-04-03T06:58:39Z</time>
      </trkpt>
      <trkpt lat="47.60463" lon="3.7046">
        <ele>261</ele>
        <time>2019-04-03T06:58:43Z</time>
      </trkpt>
      <trkpt lat="47.60462" lon="3.70454">
        <ele>260</ele>
        <time>2019-04-03T06:58:48Z</time>
      </trkpt>
      <trkpt lat="47.6046" lon="3.70447">
        <ele>263</ele>
        <time>2019-04-03T06:58:52Z</time>
      </trkpt>
      <trkpt lat="47.6046" lon="3.7044">
        <ele>262</ele>
        <time>2019-04-03T06:59:24Z</time>
      </trkpt>
      <trkpt lat="47.6046" lon="3.70435">
        <ele>263</ele>
        <time>2019-04-03T06:59:30Z</time>
      </trkpt>
      <trkpt lat="47.60459" lon="3.70427">
        <ele>263</ele>
        <time>2019-04-03T06:59:35Z</time>
      </trkpt>
      <trkpt lat="47.60458" lon="3.70421">
        <ele>264</ele>
        <time>2019-04-03T06:59:37Z</time>
      </trkpt>
      <trkpt lat="47.60458" lon="3.70418">
        <ele>264</ele>
        <time>2019-04-03T06:59:39Z</time>
      </trkpt>
      <trkpt lat="47.60458" lon="3.70409">
        <ele>265</ele>
        <time>2019-04-03T06:59:44Z</time>
      </trkpt>
      <trkpt lat="47.60458" lon="3.70405">
        <ele>264</ele>
        <time>2019-04-03T06:59:46Z</time>
      </trkpt>
      <trkpt lat="47.60458" lon="3.70398">
        <ele>264</ele>
        <time>2019-04-03T06:59:49Z</time>
      </trkpt>
      <trkpt lat="47.60459" lon="3.70388">
        <ele>263</ele>
        <time>2019-04-03T06:59:53Z</time>
      </trkpt>
      <trkpt lat="47.60458" lon="3.70381">
        <ele>263</ele>
        <time>2019-04-03T06:59:57Z</time>
      </trkpt>
      <trkpt lat="47.60457" lon="3.70373">
        <ele>263</ele>
        <time>2019-04-03T07:00:00Z</time>
      </trkpt>
      <trkpt lat="47.60454" lon="3.70365">
        <ele>263</ele>
        <time>2019-04-03T07:00:04Z</time>
      </trkpt>
      <trkpt lat="47.60452" lon="3.70358">
        <ele>261</ele>
        <time>2019-04-03T07:00:07Z</time>
      </trkpt>
      <trkpt lat="47.60452" lon="3.7035">
        <ele>261</ele>
        <time>2019-04-03T07:00:11Z</time>
      </trkpt>
      <trkpt lat="47.60452" lon="3.70346">
        <ele>262</ele>
        <time>2019-04-03T07:00:14Z</time>
      </trkpt>
      <trkpt lat="47.60452" lon="3.70342">
        <ele>262</ele>
        <time>2019-04-03T07:00:16Z</time>
      </trkpt>
      <trkpt lat="47.60452" lon="3.70337">
        <ele>261</ele>
        <time>2019-04-03T07:00:19Z</time>
      </trkpt>
      <trkpt lat="47.60452" lon="3.70331">
        <ele>262</ele>
        <time>2019-04-03T07:00:22Z</time>
      </trkpt>
      <trkpt lat="47.60452" lon="3.70322">
        <ele>262</ele>
        <time>2019-04-03T07:00:25Z</time>
      </trkpt>
      <trkpt lat="47.60452" lon="3.70316">
        <ele>262</ele>
        <time>2019-04-03T07:00:28Z</time>
      </trkpt>
      <trkpt lat="47.60451" lon="3.70308">
        <ele>263</ele>
        <time>2019-04-03T07:00:32Z</time>
      </trkpt>
      <trkpt lat="47.60449" lon="3.70299">
        <ele>262</ele>
        <time>2019-04-03T07:00:36Z</time>
      </trkpt>
      <trkpt lat="47.60448" lon="3.70294">
        <ele>262</ele>
        <time>2019-04-03T07:00:40Z</time>
      </trkpt>
      <trkpt lat="47.60448" lon="3.70287">
        <ele>263</ele>
        <time>2019-04-03T07:00:43Z</time>
      </trkpt>
      <trkpt lat="47.60448" lon="3.70283">
        <ele>263</ele>
        <time>2019-04-03T07:00:45Z</time>
      </trkpt>
      <trkpt lat="47.60447" lon="3.70278">
        <ele>264</ele>
        <time>2019-04-03T07:00:48Z</time>
      </trkpt>
      <trkpt lat="47.60447" lon="3.70274">
        <ele>264</ele>
        <time>2019-04-03T07:00:51Z</time>
      </trkpt>
      <trkpt lat="47.60446" lon="3.70268">
        <ele>263</ele>
        <time>2019-04-03T07:00:54Z</time>
      </trkpt>
      <trkpt lat="47.60446" lon="3.7026">
        <ele>263</ele>
        <time>2019-04-03T07:00:58Z</time>
      </trkpt>
      <trkpt lat="47.60446" lon="3.70253">
        <ele>263</ele>
        <time>2019-04-03T07:01:02Z</time>
      </trkpt>
      <trkpt lat="47.60446" lon="3.70248">
        <ele>263</ele>
        <time>2019-04-03T07:01:04Z</time>
      </trkpt>
      <trkpt lat="47.60445" lon="3.70242">
        <ele>263</ele>
        <time>2019-04-03T07:01:07Z</time>
      </trkpt>
      <trkpt lat="47.60446" lon="3.70234">
        <ele>264</ele>
        <time>2019-04-03T07:01:12Z</time>
      </trkpt>
      <trkpt lat="47.60445" lon="3.7023">
        <ele>264</ele>
        <time>2019-04-03T07:01:14Z</time>
      </trkpt>
      <trkpt lat="47.60445" lon="3.70219">
        <ele>264</ele>
        <time>2019-04-03T07:01:19Z</time>
      </trkpt>
      <trkpt lat="47.60445" lon="3.70211">
        <ele>264</ele>
        <time>2019-04-03T07:01:23Z</time>
      </trkpt>
      <trkpt lat="47.60443" lon="3.70201">
        <ele>264</ele>
        <time>2019-04-03T07:01:28Z</time>
      </trkpt>
      <trkpt lat="47.60443" lon="3.70195">
        <ele>263</ele>
        <time>2019-04-03T07:01:31Z</time>
      </trkpt>
      <trkpt lat="47.60442" lon="3.70185">
        <ele>263</ele>
        <time>2019-04-03T07:01:36Z</time>
      </trkpt>
      <trkpt lat="47.60442" lon="3.70181">
        <ele>263</ele>
        <time>2019-04-03T07:01:38Z</time>
      </trkpt>
      <trkpt lat="47.60442" lon="3.70172">
        <ele>264</ele>
        <time>2019-04-03T07:01:42Z</time>
      </trkpt>
      <trkpt lat="47.60442" lon="3.70168">
        <ele>264</ele>
        <time>2019-04-03T07:01:43Z</time>
      </trkpt>
      <trkpt lat="47.60442" lon="3.70162">
        <ele>264</ele>
        <time>2019-04-03T07:01:46Z</time>
      </trkpt>
      <trkpt lat="47.6044" lon="3.70151">
        <ele>264</ele>
        <time>2019-04-03T07:01:52Z</time>
      </trkpt>
      <trkpt lat="47.60439" lon="3.70143">
        <ele>264</ele>
        <time>2019-04-03T07:01:55Z</time>
      </trkpt>
      <trkpt lat="47.60438" lon="3.70139">
        <ele>264</ele>
        <time>2019-04-03T07:01:57Z</time>
      </trkpt>
      <trkpt lat="47.60438" lon="3.70133">
        <ele>264</ele>
        <time>2019-04-03T07:02:01Z</time>
      </trkpt>
      <trkpt lat="47.60437" lon="3.70125">
        <ele>263</ele>
        <time>2019-04-03T07:02:05Z</time>
      </trkpt>
      <trkpt lat="47.60438" lon="3.7012">
        <ele>263</ele>
        <time>2019-04-03T07:02:07Z</time>
      </trkpt>
      <trkpt lat="47.60437" lon="3.70113">
        <ele>263</ele>
        <time>2019-04-03T07:02:11Z</time>
      </trkpt>
      <trkpt lat="47.60437" lon="3.70109">
        <ele>264</ele>
        <time>2019-04-03T07:02:13Z</time>
      </trkpt>
      <trkpt lat="47.60437" lon="3.70102">
        <ele>264</ele>
        <time>2019-04-03T07:02:16Z</time>
      </trkpt>
      <trkpt lat="47.60437" lon="3.70094">
        <ele>263</ele>
        <time>2019-04-03T07:02:20Z</time>
      </trkpt>
      <trkpt lat="47.60437" lon="3.7009">
        <ele>263</ele>
        <time>2019-04-03T07:02:23Z</time>
      </trkpt>
      <trkpt lat="47.60437" lon="3.70086">
        <ele>263</ele>
        <time>2019-04-03T07:02:25Z</time>
      </trkpt>
      <trkpt lat="47.60436" lon="3.70078">
        <ele>263</ele>
        <time>2019-04-03T07:02:29Z</time>
      </trkpt>
      <trkpt lat="47.60437" lon="3.7007">
        <ele>262</ele>
        <time>2019-04-03T07:02:32Z</time>
      </trkpt>
      <trkpt lat="47.60437" lon="3.70062">
        <ele>263</ele>
        <time>2019-04-03T07:02:36Z</time>
      </trkpt>
      <trkpt lat="47.60437" lon="3.70057">
        <ele>263</ele>
        <time>2019-04-03T07:02:38Z</time>
      </trkpt>
      <trkpt lat="47.60436" lon="3.70054">
        <ele>263</ele>
        <time>2019-04-03T07:02:40Z</time>
      </trkpt>
      <trkpt lat="47.60435" lon="3.70045">
        <ele>262</ele>
        <time>2019-04-03T07:02:44Z</time>
      </trkpt>
      <trkpt lat="47.60436" lon="3.70038">
        <ele>261</ele>
        <time>2019-04-03T07:02:48Z</time>
      </trkpt>
      <trkpt lat="47.60436" lon="3.70033">
        <ele>261</ele>
        <time>2019-04-03T07:02:50Z</time>
      </trkpt>
      <trkpt lat="47.60436" lon="3.70026">
        <ele>262</ele>
        <time>2019-04-03T07:02:54Z</time>
      </trkpt>
      <trkpt lat="47.60435" lon="3.7002">
        <ele>261</ele>
        <time>2019-04-03T07:02:57Z</time>
      </trkpt>
      <trkpt lat="47.60435" lon="3.70013">
        <ele>260</ele>
        <time>2019-04-03T07:03:01Z</time>
      </trkpt>
      <trkpt lat="47.60435" lon="3.70007">
        <ele>260</ele>
        <time>2019-04-03T07:03:03Z</time>
      </trkpt>
      <trkpt lat="47.60436" lon="3.70003">
        <ele>260</ele>
        <time>2019-04-03T07:03:05Z</time>
      </trkpt>
      <trkpt lat="47.60436" lon="3.69998">
        <ele>260</ele>
        <time>2019-04-03T07:03:08Z</time>
      </trkpt>
      <trkpt lat="47.60436" lon="3.69991">
        <ele>260</ele>
        <time>2019-04-03T07:03:12Z</time>
      </trkpt>
      <trkpt lat="47.60437" lon="3.69985">
        <ele>259</ele>
        <time>2019-04-03T07:03:16Z</time>
      </trkpt>
      <trkpt lat="47.60437" lon="3.69978">
        <ele>259</ele>
        <time>2019-04-03T07:03:20Z</time>
      </trkpt>
      <trkpt lat="47.60439" lon="3.69971">
        <ele>259</ele>
        <time>2019-04-03T07:03:22Z</time>
      </trkpt>
      <trkpt lat="47.6044" lon="3.69967">
        <ele>260</ele>
        <time>2019-04-03T07:03:25Z</time>
      </trkpt>
      <trkpt lat="47.6044" lon="3.69963">
        <ele>260</ele>
        <time>2019-04-03T07:03:26Z</time>
      </trkpt>
      <trkpt lat="47.60441" lon="3.69957">
        <ele>262</ele>
        <time>2019-04-03T07:03:29Z</time>
      </trkpt>
      <trkpt lat="47.60441" lon="3.69953">
        <ele>261</ele>
        <time>2019-04-03T07:03:31Z</time>
      </trkpt>
      <trkpt lat="47.60442" lon="3.69947">
        <ele>262</ele>
        <time>2019-04-03T07:03:34Z</time>
      </trkpt>
      <trkpt lat="47.60443" lon="3.69941">
        <ele>262</ele>
        <time>2019-04-03T07:03:38Z</time>
      </trkpt>
      <trkpt lat="47.60443" lon="3.69937">
        <ele>263</ele>
        <time>2019-04-03T07:03:39Z</time>
      </trkpt>
      <trkpt lat="47.60445" lon="3.6993">
        <ele>263</ele>
        <time>2019-04-03T07:03:43Z</time>
      </trkpt>
      <trkpt lat="47.60446" lon="3.69923">
        <ele>263</ele>
        <time>2019-04-03T07:03:48Z</time>
      </trkpt>
      <trkpt lat="47.60446" lon="3.69915">
        <ele>263</ele>
        <time>2019-04-03T07:03:51Z</time>
      </trkpt>
      <trkpt lat="47.60448" lon="3.69908">
        <ele>263</ele>
        <time>2019-04-03T07:03:56Z</time>
      </trkpt>
      <trkpt lat="47.60448" lon="3.69897">
        <ele>263</ele>
        <time>2019-04-03T07:04:01Z</time>
      </trkpt>
      <trkpt lat="47.60449" lon="3.69893">
        <ele>263</ele>
        <time>2019-04-03T07:04:03Z</time>
      </trkpt>
      <trkpt lat="47.60451" lon="3.69886">
        <ele>262</ele>
        <time>2019-04-03T07:04:08Z</time>
      </trkpt>
      <trkpt lat="47.60452" lon="3.69883">
        <ele>262</ele>
        <time>2019-04-03T07:04:09Z</time>
      </trkpt>
      <trkpt lat="47.60454" lon="3.69879">
        <ele>262</ele>
        <time>2019-04-03T07:04:12Z</time>
      </trkpt>
      <trkpt lat="47.60455" lon="3.69875">
        <ele>262</ele>
        <time>2019-04-03T07:04:14Z</time>
      </trkpt>
      <trkpt lat="47.60456" lon="3.69868">
        <ele>265</ele>
        <time>2019-04-03T07:04:18Z</time>
      </trkpt>
      <trkpt lat="47.60457" lon="3.6986">
        <ele>266</ele>
        <time>2019-04-03T07:04:22Z</time>
      </trkpt>
      <trkpt lat="47.60458" lon="3.69853">
        <ele>267</ele>
        <time>2019-04-03T07:04:24Z</time>
      </trkpt>
      <trkpt lat="47.60457" lon="3.69846">
        <ele>266</ele>
        <time>2019-04-03T07:04:27Z</time>
      </trkpt>
      <trkpt lat="47.60458" lon="3.69838">
        <ele>266</ele>
        <time>2019-04-03T07:04:31Z</time>
      </trkpt>
      <trkpt lat="47.6046" lon="3.69833">
        <ele>266</ele>
        <time>2019-04-03T07:04:34Z</time>
      </trkpt>
      <trkpt lat="47.6046" lon="3.69823">
        <ele>265</ele>
        <time>2019-04-03T07:04:40Z</time>
      </trkpt>
      <trkpt lat="47.6046" lon="3.69816">
        <ele>265</ele>
        <time>2019-04-03T07:04:43Z</time>
      </trkpt>
      <trkpt lat="47.6046" lon="3.69809">
        <ele>265</ele>
        <time>2019-04-03T07:04:49Z</time>
      </trkpt>
      <trkpt lat="47.60462" lon="3.69802">
        <ele>264</ele>
        <time>2019-04-03T07:04:53Z</time>
      </trkpt>
      <trkpt lat="47.60463" lon="3.69799">
        <ele>262</ele>
        <time>2019-04-03T07:05:43Z</time>
      </trkpt>
      <trkpt lat="47.60468" lon="3.69794">
        <ele>264</ele>
        <time>2019-04-03T07:05:48Z</time>
      </trkpt>
      <trkpt lat="47.6047" lon="3.69791">
        <ele>264</ele>
        <time>2019-04-03T07:05:51Z</time>
      </trkpt>
      <trkpt lat="47.60473" lon="3.69787">
        <ele>264</ele>
        <time>2019-04-03T07:05:54Z</time>
      </trkpt>
      <trkpt lat="47.60476" lon="3.69784">
        <ele>264</ele>
        <time>2019-04-03T07:05:57Z</time>
      </trkpt>
      <trkpt lat="47.60479" lon="3.69777">
        <ele>265</ele>
        <time>2019-04-03T07:06:00Z</time>
      </trkpt>
      <trkpt lat="47.60481" lon="3.69771">
        <ele>264</ele>
        <time>2019-04-03T07:06:05Z</time>
      </trkpt>
      <trkpt lat="47.60485" lon="3.69764">
        <ele>265</ele>
        <time>2019-04-03T07:06:10Z</time>
      </trkpt>
      <trkpt lat="47.60488" lon="3.69759">
        <ele>265</ele>
        <time>2019-04-03T07:06:13Z</time>
      </trkpt>
      <trkpt lat="47.60491" lon="3.69752">
        <ele>266</ele>
        <time>2019-04-03T07:06:16Z</time>
      </trkpt>
      <trkpt lat="47.60493" lon="3.69748">
        <ele>267</ele>
        <time>2019-04-03T07:06:19Z</time>
      </trkpt>
      <trkpt lat="47.60497" lon="3.69742">
        <ele>266</ele>
        <time>2019-04-03T07:06:23Z</time>
      </trkpt>
      <trkpt lat="47.605" lon="3.69732">
        <ele>267</ele>
        <time>2019-04-03T07:06:30Z</time>
      </trkpt>
      <trkpt lat="47.60502" lon="3.69729">
        <ele>267</ele>
        <time>2019-04-03T07:06:32Z</time>
      </trkpt>
      <trkpt lat="47.60505" lon="3.69723">
        <ele>268</ele>
        <time>2019-04-03T07:06:36Z</time>
      </trkpt>
      <trkpt lat="47.60508" lon="3.69716">
        <ele>268</ele>
        <time>2019-04-03T07:06:40Z</time>
      </trkpt>
      <trkpt lat="47.6051" lon="3.69711">
        <ele>267</ele>
        <time>2019-04-03T07:06:41Z</time>
      </trkpt>
      <trkpt lat="47.60514" lon="3.69706">
        <ele>267</ele>
        <time>2019-04-03T07:06:44Z</time>
      </trkpt>
      <trkpt lat="47.60515" lon="3.69699">
        <ele>266</ele>
        <time>2019-04-03T07:06:47Z</time>
      </trkpt>
      <trkpt lat="47.60518" lon="3.69692">
        <ele>264</ele>
        <time>2019-04-03T07:06:51Z</time>
      </trkpt>
      <trkpt lat="47.60521" lon="3.69683">
        <ele>262</ele>
        <time>2019-04-03T07:06:56Z</time>
      </trkpt>
      <trkpt lat="47.60523" lon="3.69678">
        <ele>262</ele>
        <time>2019-04-03T07:06:58Z</time>
      </trkpt>
      <trkpt lat="47.60525" lon="3.69674">
        <ele>261</ele>
        <time>2019-04-03T07:07:00Z</time>
      </trkpt>
      <trkpt lat="47.60527" lon="3.69667">
        <ele>260</ele>
        <time>2019-04-03T07:07:03Z</time>
      </trkpt>
      <trkpt lat="47.60528" lon="3.69664">
        <ele>258</ele>
        <time>2019-04-03T07:07:05Z</time>
      </trkpt>
      <trkpt lat="47.60529" lon="3.69657">
        <ele>258</ele>
        <time>2019-04-03T07:07:08Z</time>
      </trkpt>
      <trkpt lat="47.60531" lon="3.69649">
        <ele>258</ele>
        <time>2019-04-03T07:07:11Z</time>
      </trkpt>
      <trkpt lat="47.60532" lon="3.69644">
        <ele>257</ele>
        <time>2019-04-03T07:07:13Z</time>
      </trkpt>
      <trkpt lat="47.60534" lon="3.69638">
        <ele>257</ele>
        <time>2019-04-03T07:07:16Z</time>
      </trkpt>
      <trkpt lat="47.60535" lon="3.69632">
        <ele>258</ele>
        <time>2019-04-03T07:07:19Z</time>
      </trkpt>
      <trkpt lat="47.60536" lon="3.69629">
        <ele>258</ele>
        <time>2019-04-03T07:07:21Z</time>
      </trkpt>
      <trkpt lat="47.60536" lon="3.69624">
        <ele>259</ele>
        <time>2019-04-03T07:07:23Z</time>
      </trkpt>
      <trkpt lat="47.60538" lon="3.69618">
        <ele>258</ele>
        <time>2019-04-03T07:07:26Z</time>
      </trkpt>
      <trkpt lat="47.60539" lon="3.69611">
        <ele>258</ele>
        <time>2019-04-03T07:07:29Z</time>
      </trkpt>
      <trkpt lat="47.6054" lon="3.69606">
        <ele>257</ele>
        <time>2019-04-03T07:07:32Z</time>
      </trkpt>
      <trkpt lat="47.60543" lon="3.69598">
        <ele>258</ele>
        <time>2019-04-03T07:07:36Z</time>
      </trkpt>
      <trkpt lat="47.60545" lon="3.69592">
        <ele>258</ele>
        <time>2019-04-03T07:07:39Z</time>
      </trkpt>
      <trkpt lat="47.60547" lon="3.69584">
        <ele>256</ele>
        <time>2019-04-03T07:07:44Z</time>
      </trkpt>
      <trkpt lat="47.60548" lon="3.69579">
        <ele>256</ele>
        <time>2019-04-03T07:07:46Z</time>
      </trkpt>
      <trkpt lat="47.6055" lon="3.69571">
        <ele>257</ele>
        <time>2019-04-03T07:07:50Z</time>
      </trkpt>
      <trkpt lat="47.60552" lon="3.69566">
        <ele>257</ele>
        <time>2019-04-03T07:07:52Z</time>
      </trkpt>
      <trkpt lat="47.60554" lon="3.6956">
        <ele>256</ele>
        <time>2019-04-03T07:07:55Z</time>
      </trkpt>
      <trkpt lat="47.60555" lon="3.69554">
        <ele>258</ele>
        <time>2019-04-03T07:07:57Z</time>
      </trkpt>
      <trkpt lat="47.60556" lon="3.69549">
        <ele>257</ele>
        <time>2019-04-03T07:07:59Z</time>
      </trkpt>
      <trkpt lat="47.60559" lon="3.69542">
        <ele>257</ele>
        <time>2019-04-03T07:08:03Z</time>
      </trkpt>
      <trkpt lat="47.60561" lon="3.69533">
        <ele>256</ele>
        <time>2019-04-03T07:08:08Z</time>
      </trkpt>
      <trkpt lat="47.60563" lon="3.69525">
        <ele>256</ele>
        <time>2019-04-03T07:08:12Z</time>
      </trkpt>
      <trkpt lat="47.60564" lon="3.69521">
        <ele>256</ele>
        <time>2019-04-03T07:08:14Z</time>
      </trkpt>
      <trkpt lat="47.60565" lon="3.69513">
        <ele>257</ele>
        <time>2019-04-03T07:08:18Z</time>
      </trkpt>
      <trkpt lat="47.60566" lon="3.69508">
        <ele>257</ele>
        <time>2019-04-03T07:08:20Z</time>
      </trkpt>
      <trkpt lat="47.60568" lon="3.69501">
        <ele>257</ele>
        <time>2019-04-03T07:08:24Z</time>
      </trkpt>
      <trkpt lat="47.60568" lon="3.69492">
        <ele>256</ele>
        <time>2019-04-03T07:08:28Z</time>
      </trkpt>
      <trkpt lat="47.60569" lon="3.69486">
        <ele>256</ele>
        <time>2019-04-03T07:08:31Z</time>
      </trkpt>
      <trkpt lat="47.6057" lon="3.69481">
        <ele>256</ele>
        <time>2019-04-03T07:08:33Z</time>
      </trkpt>
      <trkpt lat="47.60569" lon="3.69473">
        <ele>254</ele>
        <time>2019-04-03T07:08:36Z</time>
      </trkpt>
      <trkpt lat="47.60569" lon="3.69468">
        <ele>254</ele>
        <time>2019-04-03T07:08:38Z</time>
      </trkpt>
      <trkpt lat="47.6057" lon="3.6946">
        <ele>254</ele>
        <time>2019-04-03T07:08:42Z</time>
      </trkpt>
      <trkpt lat="47.60569" lon="3.69449">
        <ele>256</ele>
        <time>2019-04-03T07:08:48Z</time>
      </trkpt>
      <trkpt lat="47.60569" lon="3.69441">
        <ele>257</ele>
        <time>2019-04-03T07:08:52Z</time>
      </trkpt>
      <trkpt lat="47.60568" lon="3.69434">
        <ele>257</ele>
        <time>2019-04-03T07:08:55Z</time>
      </trkpt>
      <trkpt lat="47.60568" lon="3.69426">
        <ele>258</ele>
        <time>2019-04-03T07:08:58Z</time>
      </trkpt>
      <trkpt lat="47.60568" lon="3.69419">
        <ele>257</ele>
        <time>2019-04-03T07:09:01Z</time>
      </trkpt>
      <trkpt lat="47.60568" lon="3.69416">
        <ele>257</ele>
        <time>2019-04-03T07:09:03Z</time>
      </trkpt>
      <trkpt lat="47.60567" lon="3.69409">
        <ele>258</ele>
        <time>2019-04-03T07:09:06Z</time>
      </trkpt>
      <trkpt lat="47.60568" lon="3.69402">
        <ele>258</ele>
        <time>2019-04-03T07:09:10Z</time>
      </trkpt>
      <trkpt lat="47.60568" lon="3.69393">
        <ele>258</ele>
        <time>2019-04-03T07:09:14Z</time>
      </trkpt>
      <trkpt lat="47.60569" lon="3.69385">
        <ele>258</ele>
        <time>2019-04-03T07:09:17Z</time>
      </trkpt>
      <trkpt lat="47.60566" lon="3.69379">
        <ele>259</ele>
        <time>2019-04-03T07:09:20Z</time>
      </trkpt>
      <trkpt lat="47.60565" lon="3.69375">
        <ele>259</ele>
        <time>2019-04-03T07:09:22Z</time>
      </trkpt>
      <trkpt lat="47.60563" lon="3.69367">
        <ele>258</ele>
        <time>2019-04-03T07:09:26Z</time>
      </trkpt>
      <trkpt lat="47.60562" lon="3.69359">
        <ele>257</ele>
        <time>2019-04-03T07:09:29Z</time>
      </trkpt>
      <trkpt lat="47.6056" lon="3.69352">
        <ele>256</ele>
        <time>2019-04-03T07:09:33Z</time>
      </trkpt>
      <trkpt lat="47.60559" lon="3.69345">
        <ele>254</ele>
        <time>2019-04-03T07:09:36Z</time>
      </trkpt>
      <trkpt lat="47.60557" lon="3.69338">
        <ele>252</ele>
        <time>2019-04-03T07:09:40Z</time>
      </trkpt>
      <trkpt lat="47.60553" lon="3.69332">
        <ele>253</ele>
        <time>2019-04-03T07:09:44Z</time>
      </trkpt>
      <trkpt lat="47.6055" lon="3.69324">
        <ele>253</ele>
        <time>2019-04-03T07:09:48Z</time>
      </trkpt>
      <trkpt lat="47.60548" lon="3.69319">
        <ele>253</ele>
        <time>2019-04-03T07:09:50Z</time>
      </trkpt>
      <trkpt lat="47.60545" lon="3.69313">
        <ele>252</ele>
        <time>2019-04-03T07:09:53Z</time>
      </trkpt>
      <trkpt lat="47.60542" lon="3.69306">
        <ele>249</ele>
        <time>2019-04-03T07:09:57Z</time>
      </trkpt>
      <trkpt lat="47.6054" lon="3.693">
        <ele>250</ele>
        <time>2019-04-03T07:10:01Z</time>
      </trkpt>
      <trkpt lat="47.60537" lon="3.69293">
        <ele>250</ele>
        <time>2019-04-03T07:10:04Z</time>
      </trkpt>
      <trkpt lat="47.60535" lon="3.69285">
        <ele>249</ele>
        <time>2019-04-03T07:10:07Z</time>
      </trkpt>
      <trkpt lat="47.60534" lon="3.69279">
        <ele>247</ele>
        <time>2019-04-03T07:10:10Z</time>
      </trkpt>
      <trkpt lat="47.60533" lon="3.69276">
        <ele>246</ele>
        <time>2019-04-03T07:10:12Z</time>
      </trkpt>
      <trkpt lat="47.6053" lon="3.69269">
        <ele>245</ele>
        <time>2019-04-03T07:10:16Z</time>
      </trkpt>
      <trkpt lat="47.60529" lon="3.69266">
        <ele>246</ele>
        <time>2019-04-03T07:10:18Z</time>
      </trkpt>
      <trkpt lat="47.60528" lon="3.69257">
        <ele>245</ele>
        <time>2019-04-03T07:10:22Z</time>
      </trkpt>
      <trkpt lat="47.60527" lon="3.69253">
        <ele>245</ele>
        <time>2019-04-03T07:10:24Z</time>
      </trkpt>
      <trkpt lat="47.60524" lon="3.69247">
        <ele>245</ele>
        <time>2019-04-03T07:10:26Z</time>
      </trkpt>
      <trkpt lat="47.60522" lon="3.69242">
        <ele>243</ele>
        <time>2019-04-03T07:10:29Z</time>
      </trkpt>
      <trkpt lat="47.6052" lon="3.69239">
        <ele>244</ele>
        <time>2019-04-03T07:10:31Z</time>
      </trkpt>
      <trkpt lat="47.60517" lon="3.69232">
        <ele>245</ele>
        <time>2019-04-03T07:10:36Z</time>
      </trkpt>
      <trkpt lat="47.60513" lon="3.69226">
        <ele>245</ele>
        <time>2019-04-03T07:10:41Z</time>
      </trkpt>
      <trkpt lat="47.60509" lon="3.6922">
        <ele>245</ele>
        <time>2019-04-03T07:10:44Z</time>
      </trkpt>
      <trkpt lat="47.60506" lon="3.69213">
        <ele>245</ele>
        <time>2019-04-03T07:10:48Z</time>
      </trkpt>
      <trkpt lat="47.60503" lon="3.69207">
        <ele>246</ele>
        <time>2019-04-03T07:10:51Z</time>
      </trkpt>
      <trkpt lat="47.605" lon="3.69202">
        <ele>245</ele>
        <time>2019-04-03T07:10:54Z</time>
      </trkpt>
      <trkpt lat="47.60496" lon="3.69196">
        <ele>245</ele>
        <time>2019-04-03T07:10:58Z</time>
      </trkpt>
      <trkpt lat="47.60494" lon="3.6919">
        <ele>244</ele>
        <time>2019-04-03T07:11:01Z</time>
      </trkpt>
      <trkpt lat="47.60493" lon="3.69187">
        <ele>243</ele>
        <time>2019-04-03T07:11:03Z</time>
      </trkpt>
      <trkpt lat="47.60492" lon="3.69183">
        <ele>243</ele>
        <time>2019-04-03T07:11:05Z</time>
      </trkpt>
      <trkpt lat="47.60489" lon="3.69176">
        <ele>242</ele>
        <time>2019-04-03T07:11:09Z</time>
      </trkpt>
      <trkpt lat="47.60487" lon="3.69172">
        <ele>242</ele>
        <time>2019-04-03T07:11:11Z</time>
      </trkpt>
      <trkpt lat="47.60485" lon="3.69165">
        <ele>242</ele>
        <time>2019-04-03T07:11:15Z</time>
      </trkpt>
      <trkpt lat="47.60481" lon="3.69158">
        <ele>241</ele>
        <time>2019-04-03T07:11:19Z</time>
      </trkpt>
      <trkpt lat="47.6048" lon="3.69154">
        <ele>240</ele>
        <time>2019-04-03T07:11:21Z</time>
      </trkpt>
      <trkpt lat="47.60477" lon="3.69148">
        <ele>239</ele>
        <time>2019-04-03T07:11:24Z</time>
      </trkpt>
      <trkpt lat="47.60474" lon="3.69141">
        <ele>239</ele>
        <time>2019-04-03T07:11:28Z</time>
      </trkpt>
      <trkpt lat="47.60473" lon="3.69138">
        <ele>238</ele>
        <time>2019-04-03T07:11:30Z</time>
      </trkpt>
      <trkpt lat="47.60469" lon="3.69131">
        <ele>239</ele>
        <time>2019-04-03T07:11:34Z</time>
      </trkpt>
      <trkpt lat="47.60465" lon="3.69127">
        <ele>238</ele>
        <time>2019-04-03T07:11:37Z</time>
      </trkpt>
      <trkpt lat="47.6046" lon="3.69121">
        <ele>237</ele>
        <time>2019-04-03T07:11:40Z</time>
      </trkpt>
      <trkpt lat="47.60456" lon="3.69117">
        <ele>237</ele>
        <time>2019-04-03T07:11:43Z</time>
      </trkpt>
      <trkpt lat="47.60452" lon="3.6911">
        <ele>235</ele>
        <time>2019-04-03T07:11:48Z</time>
      </trkpt>
      <trkpt lat="47.6045" lon="3.69107">
        <ele>236</ele>
        <time>2019-04-03T07:11:50Z</time>
      </trkpt>
      <trkpt lat="47.60446" lon="3.69102">
        <ele>237</ele>
        <time>2019-04-03T07:11:53Z</time>
      </trkpt>
      <trkpt lat="47.60442" lon="3.69096">
        <ele>235</ele>
        <time>2019-04-03T07:11:57Z</time>
      </trkpt>
      <trkpt lat="47.60439" lon="3.6909">
        <ele>234</ele>
        <time>2019-04-03T07:12:01Z</time>
      </trkpt>
      <trkpt lat="47.60437" lon="3.69085">
        <ele>233</ele>
        <time>2019-04-03T07:12:04Z</time>
      </trkpt>
      <trkpt lat="47.60434" lon="3.69079">
        <ele>234</ele>
        <time>2019-04-03T07:12:08Z</time>
      </trkpt>
      <trkpt lat="47.60431" lon="3.69074">
        <ele>232</ele>
        <time>2019-04-03T07:12:12Z</time>
      </trkpt>
      <trkpt lat="47.60429" lon="3.6907">
        <ele>232</ele>
        <time>2019-04-03T07:12:14Z</time>
      </trkpt>
      <trkpt lat="47.60427" lon="3.69066">
        <ele>233</ele>
        <time>2019-04-03T07:12:16Z</time>
      </trkpt>
      <trkpt lat="47.60424" lon="3.69059">
        <ele>231</ele>
        <time>2019-04-03T07:12:21Z</time>
      </trkpt>
      <trkpt lat="47.60422" lon="3.69051">
        <ele>233</ele>
        <time>2019-04-03T07:12:25Z</time>
      </trkpt>
      <trkpt lat="47.6042" lon="3.69044">
        <ele>234</ele>
        <time>2019-04-03T07:12:30Z</time>
      </trkpt>
      <trkpt lat="47.60418" lon="3.69036">
        <ele>232</ele>
        <time>2019-04-03T07:12:34Z</time>
      </trkpt>
      <trkpt lat="47.60416" lon="3.6903">
        <ele>231</ele>
        <time>2019-04-03T07:12:37Z</time>
      </trkpt>
      <trkpt lat="47.60415" lon="3.69022">
        <ele>229</ele>
        <time>2019-04-03T07:12:40Z</time>
      </trkpt>
      <trkpt lat="47.60414" lon="3.69015">
        <ele>227</ele>
        <time>2019-04-03T07:12:44Z</time>
      </trkpt>
      <trkpt lat="47.60413" lon="3.69006">
        <ele>226</ele>
        <time>2019-04-03T07:12:48Z</time>
      </trkpt>
      <trkpt lat="47.60411" lon="3.69">
        <ele>225</ele>
        <time>2019-04-03T07:12:51Z</time>
      </trkpt>
      <trkpt lat="47.6041" lon="3.68993">
        <ele>225</ele>
        <time>2019-04-03T07:12:54Z</time>
      </trkpt>
      <trkpt lat="47.60409" lon="3.68983">
        <ele>224</ele>
        <time>2019-04-03T07:12:59Z</time>
      </trkpt>
      <trkpt lat="47.60409" lon="3.68974">
        <ele>221</ele>
        <time>2019-04-03T07:13:04Z</time>
      </trkpt>
      <trkpt lat="47.6041" lon="3.68967">
        <ele>220</ele>
        <time>2019-04-03T07:13:07Z</time>
      </trkpt>
      <trkpt lat="47.60409" lon="3.68958">
        <ele>217</ele>
        <time>2019-04-03T07:13:11Z</time>
      </trkpt>
      <trkpt lat="47.6041" lon="3.68951">
        <ele>216</ele>
        <time>2019-04-03T07:13:14Z</time>
      </trkpt>
      <trkpt lat="47.60409" lon="3.68942">
        <ele>215</ele>
        <time>2019-04-03T07:13:18Z</time>
      </trkpt>
      <trkpt lat="47.60409" lon="3.68935">
        <ele>214</ele>
        <time>2019-04-03T07:13:21Z</time>
      </trkpt>
      <trkpt lat="47.60409" lon="3.6893">
        <ele>214</ele>
        <time>2019-04-03T07:13:23Z</time>
      </trkpt>
      <trkpt lat="47.60408" lon="3.68921">
        <ele>214</ele>
        <time>2019-04-03T07:13:27Z</time>
      </trkpt>
      <trkpt lat="47.60408" lon="3.68914">
        <ele>214</ele>
        <time>2019-04-03T07:13:30Z</time>
      </trkpt>
      <trkpt lat="47.60408" lon="3.68906">
        <ele>215</ele>
        <time>2019-04-03T07:13:34Z</time>
      </trkpt>
      <trkpt lat="47.60409" lon="3.68902">
        <ele>214</ele>
        <time>2019-04-03T07:13:36Z</time>
      </trkpt>
      <trkpt lat="47.60409" lon="3.68893">
        <ele>213</ele>
        <time>2019-04-03T07:13:41Z</time>
      </trkpt>
      <trkpt lat="47.6041" lon="3.68886">
        <ele>212</ele>
        <time>2019-04-03T07:13:45Z</time>
      </trkpt>
      <trkpt lat="47.60411" lon="3.68882">
        <ele>212</ele>
        <time>2019-04-03T07:13:47Z</time>
      </trkpt>
      <trkpt lat="47.60411" lon="3.68874">
        <ele>211</ele>
        <time>2019-04-03T07:13:50Z</time>
      </trkpt>
      <trkpt lat="47.60412" lon="3.68867">
        <ele>210</ele>
        <time>2019-04-03T07:13:53Z</time>
      </trkpt>
      <trkpt lat="47.60413" lon="3.6886">
        <ele>210</ele>
        <time>2019-04-03T07:13:56Z</time>
      </trkpt>
      <trkpt lat="47.60413" lon="3.68853">
        <ele>211</ele>
        <time>2019-04-03T07:13:58Z</time>
      </trkpt>
      <trkpt lat="47.60414" lon="3.68847">
        <ele>210</ele>
        <time>2019-04-03T07:14:02Z</time>
      </trkpt>
      <trkpt lat="47.60414" lon="3.68841">
        <ele>210</ele>
        <time>2019-04-03T07:14:05Z</time>
      </trkpt>
      <trkpt lat="47.60415" lon="3.68834">
        <ele>210</ele>
        <time>2019-04-03T07:14:08Z</time>
      </trkpt>
      <trkpt lat="47.60415" lon="3.68827">
        <ele>208</ele>
        <time>2019-04-03T07:14:12Z</time>
      </trkpt>
      <trkpt lat="47.60417" lon="3.68819">
        <ele>207</ele>
        <time>2019-04-03T07:14:14Z</time>
      </trkpt>
      <trkpt lat="47.60417" lon="3.68811">
        <ele>205</ele>
        <time>2019-04-03T07:14:17Z</time>
      </trkpt>
      <trkpt lat="47.60418" lon="3.68806">
        <ele>205</ele>
        <time>2019-04-03T07:14:20Z</time>
      </trkpt>
      <trkpt lat="47.60418" lon="3.68801">
        <ele>203</ele>
        <time>2019-04-03T07:14:21Z</time>
      </trkpt>
      <trkpt lat="47.60418" lon="3.68794">
        <ele>203</ele>
        <time>2019-04-03T07:14:25Z</time>
      </trkpt>
      <trkpt lat="47.60419" lon="3.68787">
        <ele>202</ele>
        <time>2019-04-03T07:14:28Z</time>
      </trkpt>
      <trkpt lat="47.6042" lon="3.6878">
        <ele>202</ele>
        <time>2019-04-03T07:14:32Z</time>
      </trkpt>
      <trkpt lat="47.60421" lon="3.68775">
        <ele>202</ele>
        <time>2019-04-03T07:14:34Z</time>
      </trkpt>
      <trkpt lat="47.60423" lon="3.68768">
        <ele>200</ele>
        <time>2019-04-03T07:14:38Z</time>
      </trkpt>
      <trkpt lat="47.60424" lon="3.68764">
        <ele>199</ele>
        <time>2019-04-03T07:14:40Z</time>
      </trkpt>
      <trkpt lat="47.60428" lon="3.68755">
        <ele>199</ele>
        <time>2019-04-03T07:14:46Z</time>
      </trkpt>
      <trkpt lat="47.60429" lon="3.6875">
        <ele>199</ele>
        <time>2019-04-03T07:14:48Z</time>
      </trkpt>
      <trkpt lat="47.60429" lon="3.68743">
        <ele>199</ele>
        <time>2019-04-03T07:14:51Z</time>
      </trkpt>
      <trkpt lat="47.6043" lon="3.68736">
        <ele>198</ele>
        <time>2019-04-03T07:14:54Z</time>
      </trkpt>
      <trkpt lat="47.60431" lon="3.68732">
        <ele>199</ele>
        <time>2019-04-03T07:14:56Z</time>
      </trkpt>
      <trkpt lat="47.60432" lon="3.68728">
        <ele>198</ele>
        <time>2019-04-03T07:14:58Z</time>
      </trkpt>
      <trkpt lat="47.60434" lon="3.6872">
        <ele>197</ele>
        <time>2019-04-03T07:15:02Z</time>
      </trkpt>
      <trkpt lat="47.60436" lon="3.68713">
        <ele>196</ele>
        <time>2019-04-03T07:15:05Z</time>
      </trkpt>
      <trkpt lat="47.60439" lon="3.68707">
        <ele>195</ele>
        <time>2019-04-03T07:15:08Z</time>
      </trkpt>
      <trkpt lat="47.6044" lon="3.68699">
        <ele>193</ele>
        <time>2019-04-03T07:15:11Z</time>
      </trkpt>
      <trkpt lat="47.60437" lon="3.68688">
        <ele>191</ele>
        <time>2019-04-03T07:15:16Z</time>
      </trkpt>
      <trkpt lat="47.60439" lon="3.6868">
        <ele>190</ele>
        <time>2019-04-03T07:15:20Z</time>
      </trkpt>
      <trkpt lat="47.60439" lon="3.68672">
        <ele>188</ele>
        <time>2019-04-03T07:15:23Z</time>
      </trkpt>
      <trkpt lat="47.6044" lon="3.68665">
        <ele>187</ele>
        <time>2019-04-03T07:15:26Z</time>
      </trkpt>
      <trkpt lat="47.60442" lon="3.68655">
        <ele>185</ele>
        <time>2019-04-03T07:15:30Z</time>
      </trkpt>
      <trkpt lat="47.60442" lon="3.68649">
        <ele>184</ele>
        <time>2019-04-03T07:15:32Z</time>
      </trkpt>
      <trkpt lat="47.60442" lon="3.68641">
        <ele>183</ele>
        <time>2019-04-03T07:15:35Z</time>
      </trkpt>
      <trkpt lat="47.60444" lon="3.68634">
        <ele>182</ele>
        <time>2019-04-03T07:15:38Z</time>
      </trkpt>
      <trkpt lat="47.60441" lon="3.68626">
        <ele>181</ele>
        <time>2019-04-03T07:15:43Z</time>
      </trkpt>
      <trkpt lat="47.60439" lon="3.68618">
        <ele>179</ele>
        <time>2019-04-03T07:15:48Z</time>
      </trkpt>
      <trkpt lat="47.60437" lon="3.68612">
        <ele>178</ele>
        <time>2019-04-03T07:15:51Z</time>
      </trkpt>
      <trkpt lat="47.60434" lon="3.68615">
        <ele>178</ele>
        <time>2019-04-03T07:16:00Z</time>
      </trkpt>
      <trkpt lat="47.60437" lon="3.6862">
        <ele>169</ele>
        <time>2019-04-03T07:18:49Z</time>
      </trkpt>
      <trkpt lat="47.60443" lon="3.68622">
        <ele>169</ele>
        <time>2019-04-03T07:18:54Z</time>
      </trkpt>
      <trkpt lat="47.60448" lon="3.68619">
        <ele>170</ele>
        <time>2019-04-03T07:18:58Z</time>
      </trkpt>
      <trkpt lat="47.60451" lon="3.68613">
        <ele>169</ele>
        <time>2019-04-03T07:19:02Z</time>
      </trkpt>
      <trkpt lat="47.60453" lon="3.6861">
        <ele>168</ele>
        <time>2019-04-03T07:19:04Z</time>
      </trkpt>
      <trkpt lat="47.60455" lon="3.68602">
        <ele>168</ele>
        <time>2019-04-03T07:19:07Z</time>
      </trkpt>
      <trkpt lat="47.60456" lon="3.68597">
        <ele>169</ele>
        <time>2019-04-03T07:19:10Z</time>
      </trkpt>
      <trkpt lat="47.60456" lon="3.68589">
        <ele>170</ele>
        <time>2019-04-03T07:19:15Z</time>
      </trkpt>
      <trkpt lat="47.60457" lon="3.68582">
        <ele>169</ele>
        <time>2019-04-03T07:19:18Z</time>
      </trkpt>
      <trkpt lat="47.60458" lon="3.68575">
        <ele>170</ele>
        <time>2019-04-03T07:19:21Z</time>
      </trkpt>
      <trkpt lat="47.60458" lon="3.68567">
        <ele>168</ele>
        <time>2019-04-03T07:19:25Z</time>
      </trkpt>
      <trkpt lat="47.6046" lon="3.68558">
        <ele>168</ele>
        <time>2019-04-03T07:19:29Z</time>
      </trkpt>
      <trkpt lat="47.60461" lon="3.68554">
        <ele>168</ele>
        <time>2019-04-03T07:19:31Z</time>
      </trkpt>
      <trkpt lat="47.60463" lon="3.68546">
        <ele>168</ele>
        <time>2019-04-03T07:19:35Z</time>
      </trkpt>
      <trkpt lat="47.60466" lon="3.68538">
        <ele>167</ele>
        <time>2019-04-03T07:19:39Z</time>
      </trkpt>
      <trkpt lat="47.60467" lon="3.68534">
        <ele>167</ele>
        <time>2019-04-03T07:19:41Z</time>
      </trkpt>
      <trkpt lat="47.60469" lon="3.68529">
        <ele>168</ele>
        <time>2019-04-03T07:19:43Z</time>
      </trkpt>
      <trkpt lat="47.60469" lon="3.6852">
        <ele>170</ele>
        <time>2019-04-03T07:19:47Z</time>
      </trkpt>
      <trkpt lat="47.60468" lon="3.68513">
        <ele>171</ele>
        <time>2019-04-03T07:19:50Z</time>
      </trkpt>
      <trkpt lat="47.60468" lon="3.68506">
        <ele>170</ele>
        <time>2019-04-03T07:19:54Z</time>
      </trkpt>
      <trkpt lat="47.60469" lon="3.68498">
        <ele>169</ele>
        <time>2019-04-03T07:19:58Z</time>
      </trkpt>
      <trkpt lat="47.6047" lon="3.68491">
        <ele>169</ele>
        <time>2019-04-03T07:20:02Z</time>
      </trkpt>
      <trkpt lat="47.6047" lon="3.68481">
        <ele>168</ele>
        <time>2019-04-03T07:20:07Z</time>
      </trkpt>
      <trkpt lat="47.60471" lon="3.68473">
        <ele>167</ele>
        <time>2019-04-03T07:20:11Z</time>
      </trkpt>
      <trkpt lat="47.60472" lon="3.68469">
        <ele>167</ele>
        <time>2019-04-03T07:20:13Z</time>
      </trkpt>
      <trkpt lat="47.60473" lon="3.68463">
        <ele>168</ele>
        <time>2019-04-03T07:20:16Z</time>
      </trkpt>
      <trkpt lat="47.60474" lon="3.68457">
        <ele>167</ele>
        <time>2019-04-03T07:20:19Z</time>
      </trkpt>
      <trkpt lat="47.60475" lon="3.68454">
        <ele>168</ele>
        <time>2019-04-03T07:20:21Z</time>
      </trkpt>
      <trkpt lat="47.60476" lon="3.6845">
        <ele>167</ele>
        <time>2019-04-03T07:20:23Z</time>
      </trkpt>
      <trkpt lat="47.60476" lon="3.68445">
        <ele>167</ele>
        <time>2019-04-03T07:20:26Z</time>
      </trkpt>
      <trkpt lat="47.60478" lon="3.68439">
        <ele>167</ele>
        <time>2019-04-03T07:20:30Z</time>
      </trkpt>
      <trkpt lat="47.6048" lon="3.6843">
        <ele>167</ele>
        <time>2019-04-03T07:20:34Z</time>
      </trkpt>
      <trkpt lat="47.60481" lon="3.68423">
        <ele>167</ele>
        <time>2019-04-03T07:20:39Z</time>
      </trkpt>
      <trkpt lat="47.60483" lon="3.68416">
        <ele>167</ele>
        <time>2019-04-03T07:20:42Z</time>
      </trkpt>
      <trkpt lat="47.60484" lon="3.68413">
        <ele>167</ele>
        <time>2019-04-03T07:20:44Z</time>
      </trkpt>
      <trkpt lat="47.60486" lon="3.68406">
        <ele>168</ele>
        <time>2019-04-03T07:20:48Z</time>
      </trkpt>
      <trkpt lat="47.60487" lon="3.68402">
        <ele>168</ele>
        <time>2019-04-03T07:20:51Z</time>
      </trkpt>
      <trkpt lat="47.60489" lon="3.68397">
        <ele>167</ele>
        <time>2019-04-03T07:20:54Z</time>
      </trkpt>
      <trkpt lat="47.6049" lon="3.68391">
        <ele>167</ele>
        <time>2019-04-03T07:20:56Z</time>
      </trkpt>
      <trkpt lat="47.60491" lon="3.68386">
        <ele>168</ele>
        <time>2019-04-03T07:21:00Z</time>
      </trkpt>
      <trkpt lat="47.60494" lon="3.68378">
        <ele>169</ele>
        <time>2019-04-03T07:21:04Z</time>
      </trkpt>
      <trkpt lat="47.60496" lon="3.68372">
        <ele>169</ele>
        <time>2019-04-03T07:21:08Z</time>
      </trkpt>
      <trkpt lat="47.60497" lon="3.68369">
        <ele>168</ele>
        <time>2019-04-03T07:21:10Z</time>
      </trkpt>
      <trkpt lat="47.60499" lon="3.68363">
        <ele>168</ele>
        <time>2019-04-03T07:21:13Z</time>
      </trkpt>
      <trkpt lat="47.60501" lon="3.68358">
        <ele>169</ele>
        <time>2019-04-03T07:21:16Z</time>
      </trkpt>
      <trkpt lat="47.60504" lon="3.6835">
        <ele>168</ele>
        <time>2019-04-03T07:21:21Z</time>
      </trkpt>
      <trkpt lat="47.60507" lon="3.68345">
        <ele>167</ele>
        <time>2019-04-03T07:21:24Z</time>
      </trkpt>
      <trkpt lat="47.6051" lon="3.68338">
        <ele>167</ele>
        <time>2019-04-03T07:21:28Z</time>
      </trkpt>
      <trkpt lat="47.60511" lon="3.68335">
        <ele>168</ele>
        <time>2019-04-03T07:21:30Z</time>
      </trkpt>
      <trkpt lat="47.60513" lon="3.68328">
        <ele>168</ele>
        <time>2019-04-03T07:21:34Z</time>
      </trkpt>
      <trkpt lat="47.60511" lon="3.68322">
        <ele>165</ele>
        <time>2019-04-03T07:21:41Z</time>
      </trkpt>
      <trkpt lat="47.60513" lon="3.68315">
        <ele>164</ele>
        <time>2019-04-03T07:21:46Z</time>
      </trkpt>
      <trkpt lat="47.60513" lon="3.68315">
        <ele>164</ele>
        <time>2019-04-03T07:21:53Z</time>
      </trkpt>
      <trkpt lat="47.60513" lon="3.68315">
        <ele>164</ele>
        <time>2019-04-03T07:21:54Z</time>
      </trkpt>
      <trkpt lat="47.60508" lon="3.6831">
        <ele>164</ele>
        <time>2019-04-03T07:21:57Z</time>
      </trkpt>
      <trkpt lat="47.60504" lon="3.68306">
        <ele>165</ele>
        <time>2019-04-03T07:22:01Z</time>
      </trkpt>
      <trkpt lat="47.60501" lon="3.68304">
        <ele>165</ele>
        <time>2019-04-03T07:22:03Z</time>
      </trkpt>
      <trkpt lat="47.60498" lon="3.683">
        <ele>166</ele>
        <time>2019-04-03T07:22:07Z</time>
      </trkpt>
      <trkpt lat="47.60493" lon="3.68297">
        <ele>167</ele>
        <time>2019-04-03T07:22:11Z</time>
      </trkpt>
      <trkpt lat="47.60488" lon="3.68293">
        <ele>167</ele>
        <time>2019-04-03T07:22:15Z</time>
      </trkpt>
      <trkpt lat="47.60484" lon="3.68291">
        <ele>167</ele>
        <time>2019-04-03T07:22:17Z</time>
      </trkpt>
      <trkpt lat="47.60481" lon="3.68289">
        <ele>168</ele>
        <time>2019-04-03T07:22:19Z</time>
      </trkpt>
      <trkpt lat="47.60477" lon="3.68286">
        <ele>167</ele>
        <time>2019-04-03T07:22:22Z</time>
      </trkpt>
      <trkpt lat="47.60474" lon="3.68285">
        <ele>167</ele>
        <time>2019-04-03T07:22:24Z</time>
      </trkpt>
      <trkpt lat="47.6047" lon="3.68283">
        <ele>168</ele>
        <time>2019-04-03T07:22:27Z</time>
      </trkpt>
      <trkpt lat="47.60466" lon="3.6828">
        <ele>166</ele>
        <time>2019-04-03T07:22:31Z</time>
      </trkpt>
      <trkpt lat="47.60463" lon="3.68278">
        <ele>166</ele>
        <time>2019-04-03T07:22:33Z</time>
      </trkpt>
      <trkpt lat="47.60461" lon="3.68276">
        <ele>166</ele>
        <time>2019-04-03T07:22:35Z</time>
      </trkpt>
      <trkpt lat="47.60456" lon="3.68274">
        <ele>166</ele>
        <time>2019-04-03T07:22:41Z</time>
      </trkpt>
      <trkpt lat="47.60453" lon="3.68272">
        <ele>166</ele>
        <time>2019-04-03T07:22:43Z</time>
      </trkpt>
      <trkpt lat="47.6045" lon="3.6827">
        <ele>166</ele>
        <time>2019-04-03T07:22:46Z</time>
      </trkpt>
      <trkpt lat="47.60447" lon="3.68268">
        <ele>166</ele>
        <time>2019-04-03T07:22:49Z</time>
      </trkpt>
      <trkpt lat="47.60443" lon="3.68265">
        <ele>166</ele>
        <time>2019-04-03T07:22:53Z</time>
      </trkpt>
      <trkpt lat="47.6044" lon="3.68263">
        <ele>166</ele>
        <time>2019-04-03T07:22:55Z</time>
      </trkpt>
      <trkpt lat="47.60436" lon="3.68259">
        <ele>167</ele>
        <time>2019-04-03T07:22:58Z</time>
      </trkpt>
      <trkpt lat="47.60431" lon="3.68256">
        <ele>166</ele>
        <time>2019-04-03T07:23:03Z</time>
      </trkpt>
      <trkpt lat="47.60426" lon="3.68254">
        <ele>166</ele>
        <time>2019-04-03T07:23:07Z</time>
      </trkpt>
      <trkpt lat="47.60422" lon="3.68251">
        <ele>166</ele>
        <time>2019-04-03T07:23:11Z</time>
      </trkpt>
      <trkpt lat="47.60417" lon="3.6825">
        <ele>166</ele>
        <time>2019-04-03T07:23:15Z</time>
      </trkpt>
      <trkpt lat="47.60412" lon="3.68247">
        <ele>165</ele>
        <time>2019-04-03T07:23:19Z</time>
      </trkpt>
      <trkpt lat="47.60408" lon="3.68245">
        <ele>164</ele>
        <time>2019-04-03T07:23:22Z</time>
      </trkpt>
      <trkpt lat="47.60405" lon="3.68243">
        <ele>164</ele>
        <time>2019-04-03T07:23:24Z</time>
      </trkpt>
      <trkpt lat="47.60402" lon="3.68241">
        <ele>165</ele>
        <time>2019-04-03T07:23:26Z</time>
      </trkpt>
      <trkpt lat="47.60399" lon="3.68239">
        <ele>165</ele>
        <time>2019-04-03T07:23:29Z</time>
      </trkpt>
      <trkpt lat="47.60397" lon="3.68238">
        <ele>165</ele>
        <time>2019-04-03T07:23:31Z</time>
      </trkpt>
      <trkpt lat="47.60394" lon="3.68236">
        <ele>165</ele>
        <time>2019-04-03T07:23:33Z</time>
      </trkpt>
      <trkpt lat="47.60388" lon="3.68234">
        <ele>166</ele>
        <time>2019-04-03T07:23:38Z</time>
      </trkpt>
      <trkpt lat="47.60384" lon="3.68232">
        <ele>167</ele>
        <time>2019-04-03T07:23:41Z</time>
      </trkpt>
      <trkpt lat="47.60379" lon="3.68229">
        <ele>166</ele>
        <time>2019-04-03T07:23:45Z</time>
      </trkpt>
      <trkpt lat="47.60375" lon="3.68225">
        <ele>166</ele>
        <time>2019-04-03T07:23:49Z</time>
      </trkpt>
      <trkpt lat="47.60371" lon="3.68221">
        <ele>166</ele>
        <time>2019-04-03T07:23:52Z</time>
      </trkpt>
      <trkpt lat="47.60368" lon="3.6822">
        <ele>166</ele>
        <time>2019-04-03T07:23:54Z</time>
      </trkpt>
      <trkpt lat="47.60364" lon="3.68217">
        <ele>165</ele>
        <time>2019-04-03T07:23:57Z</time>
      </trkpt>
      <trkpt lat="47.60362" lon="3.68216">
        <ele>167</ele>
        <time>2019-04-03T07:23:59Z</time>
      </trkpt>
      <trkpt lat="47.6036" lon="3.68214">
        <ele>167</ele>
        <time>2019-04-03T07:24:01Z</time>
      </trkpt>
      <trkpt lat="47.60357" lon="3.68212">
        <ele>167</ele>
        <time>2019-04-03T07:24:04Z</time>
      </trkpt>
      <trkpt lat="47.60352" lon="3.68207">
        <ele>168</ele>
        <time>2019-04-03T07:24:08Z</time>
      </trkpt>
      <trkpt lat="47.6035" lon="3.68205">
        <ele>168</ele>
        <time>2019-04-03T07:24:10Z</time>
      </trkpt>
      <trkpt lat="47.60347" lon="3.68202">
        <ele>168</ele>
        <time>2019-04-03T07:24:12Z</time>
      </trkpt>
      <trkpt lat="47.60343" lon="3.68199">
        <ele>169</ele>
        <time>2019-04-03T07:24:16Z</time>
      </trkpt>
      <trkpt lat="47.60338" lon="3.68197">
        <ele>170</ele>
        <time>2019-04-03T07:24:20Z</time>
      </trkpt>
      <trkpt lat="47.60332" lon="3.68194">
        <ele>170</ele>
        <time>2019-04-03T07:24:24Z</time>
      </trkpt>
      <trkpt lat="47.6033" lon="3.68193">
        <ele>170</ele>
        <time>2019-04-03T07:24:33Z</time>
      </trkpt>
      <trkpt lat="47.60324" lon="3.68192">
        <ele>167</ele>
        <time>2019-04-03T07:24:48Z</time>
      </trkpt>
      <trkpt lat="47.60319" lon="3.68189">
        <ele>166</ele>
        <time>2019-04-03T07:24:52Z</time>
      </trkpt>
      <trkpt lat="47.60317" lon="3.68187">
        <ele>165</ele>
        <time>2019-04-03T07:24:54Z</time>
      </trkpt>
      <trkpt lat="47.60313" lon="3.68184">
        <ele>166</ele>
        <time>2019-04-03T07:24:57Z</time>
      </trkpt>
      <trkpt lat="47.6031" lon="3.68183">
        <ele>166</ele>
        <time>2019-04-03T07:24:59Z</time>
      </trkpt>
      <trkpt lat="47.60308" lon="3.6818">
        <ele>166</ele>
        <time>2019-04-03T07:25:01Z</time>
      </trkpt>
      <trkpt lat="47.60305" lon="3.68178">
        <ele>167</ele>
        <time>2019-04-03T07:25:03Z</time>
      </trkpt>
      <trkpt lat="47.60301" lon="3.68176">
        <ele>166</ele>
        <time>2019-04-03T07:25:06Z</time>
      </trkpt>
      <trkpt lat="47.60299" lon="3.68174">
        <ele>165</ele>
        <time>2019-04-03T07:25:08Z</time>
      </trkpt>
      <trkpt lat="47.60295" lon="3.68171">
        <ele>166</ele>
        <time>2019-04-03T07:25:12Z</time>
      </trkpt>
      <trkpt lat="47.60289" lon="3.68169">
        <ele>166</ele>
        <time>2019-04-03T07:25:16Z</time>
      </trkpt>
      <trkpt lat="47.60287" lon="3.68168">
        <ele>165</ele>
        <time>2019-04-03T07:25:19Z</time>
      </trkpt>
      <trkpt lat="47.60284" lon="3.68167">
        <ele>165</ele>
        <time>2019-04-03T07:25:21Z</time>
      </trkpt>
      <trkpt lat="47.6028" lon="3.68164">
        <ele>164</ele>
        <time>2019-04-03T07:25:24Z</time>
      </trkpt>
      <trkpt lat="47.60275" lon="3.68161">
        <ele>162</ele>
        <time>2019-04-03T07:25:30Z</time>
      </trkpt>
      <trkpt lat="47.60269" lon="3.68158">
        <ele>164</ele>
        <time>2019-04-03T07:25:34Z</time>
      </trkpt>
      <trkpt lat="47.60266" lon="3.68155">
        <ele>164</ele>
        <time>2019-04-03T07:25:37Z</time>
      </trkpt>
      <trkpt lat="47.60261" lon="3.68154">
        <ele>163</ele>
        <time>2019-04-03T07:25:41Z</time>
      </trkpt>
      <trkpt lat="47.60257" lon="3.68153">
        <ele>163</ele>
        <time>2019-04-03T07:25:43Z</time>
      </trkpt>
      <trkpt lat="47.60252" lon="3.68152">
        <ele>164</ele>
        <time>2019-04-03T07:25:47Z</time>
      </trkpt>
      <trkpt lat="47.6025" lon="3.68151">
        <ele>165</ele>
        <time>2019-04-03T07:25:50Z</time>
      </trkpt>
      <trkpt lat="47.60245" lon="3.68149">
        <ele>167</ele>
        <time>2019-04-03T07:25:56Z</time>
      </trkpt>
      <trkpt lat="47.60243" lon="3.68147">
        <ele>167</ele>
        <time>2019-04-03T07:26:00Z</time>
      </trkpt>
      <trkpt lat="47.60242" lon="3.6814">
        <ele>169</ele>
        <time>2019-04-03T07:26:08Z</time>
      </trkpt>
      <trkpt lat="47.60245" lon="3.68133">
        <ele>169</ele>
        <time>2019-04-03T07:26:12Z</time>
      </trkpt>
      <trkpt lat="47.60246" lon="3.68128">
        <ele>170</ele>
        <time>2019-04-03T07:26:15Z</time>
      </trkpt>
      <trkpt lat="47.60248" lon="3.6812">
        <ele>171</ele>
        <time>2019-04-03T07:26:21Z</time>
      </trkpt>
      <trkpt lat="47.60251" lon="3.68112">
        <ele>170</ele>
        <time>2019-04-03T07:26:25Z</time>
      </trkpt>
      <trkpt lat="47.60251" lon="3.68102">
        <ele>170</ele>
        <time>2019-04-03T07:26:31Z</time>
      </trkpt>
      <trkpt lat="47.60253" lon="3.68095">
        <ele>170</ele>
        <time>2019-04-03T07:26:36Z</time>
      </trkpt>
      <trkpt lat="47.60257" lon="3.6809">
        <ele>171</ele>
        <time>2019-04-03T07:26:40Z</time>
      </trkpt>
      <trkpt lat="47.60259" lon="3.68083">
        <ele>170</ele>
        <time>2019-04-03T07:26:45Z</time>
      </trkpt>
      <trkpt lat="47.6026" lon="3.6808">
        <ele>170</ele>
        <time>2019-04-03T07:26:48Z</time>
      </trkpt>
      <trkpt lat="47.60264" lon="3.68075">
        <ele>169</ele>
        <time>2019-04-03T07:26:52Z</time>
      </trkpt>
      <trkpt lat="47.60266" lon="3.68072">
        <ele>169</ele>
        <time>2019-04-03T07:26:54Z</time>
      </trkpt>
      <trkpt lat="47.60271" lon="3.68069">
        <ele>170</ele>
        <time>2019-04-03T07:26:59Z</time>
      </trkpt>
      <trkpt lat="47.60274" lon="3.68068">
        <ele>170</ele>
        <time>2019-04-03T07:27:01Z</time>
      </trkpt>
      <trkpt lat="47.60278" lon="3.68066">
        <ele>170</ele>
        <time>2019-04-03T07:27:05Z</time>
      </trkpt>
      <trkpt lat="47.60283" lon="3.68063">
        <ele>171</ele>
        <time>2019-04-03T07:27:09Z</time>
      </trkpt>
      <trkpt lat="47.60287" lon="3.6806">
        <ele>172</ele>
        <time>2019-04-03T07:27:14Z</time>
      </trkpt>
      <trkpt lat="47.60292" lon="3.6806">
        <ele>172</ele>
        <time>2019-04-03T07:27:17Z</time>
      </trkpt>
      <trkpt lat="47.60298" lon="3.6806">
        <ele>174</ele>
        <time>2019-04-03T07:27:22Z</time>
      </trkpt>
      <trkpt lat="47.60301" lon="3.68059">
        <ele>174</ele>
        <time>2019-04-03T07:27:25Z</time>
      </trkpt>
      <trkpt lat="47.60306" lon="3.68061">
        <ele>174</ele>
        <time>2019-04-03T07:27:29Z</time>
      </trkpt>
      <trkpt lat="47.60312" lon="3.6806">
        <ele>173</ele>
        <time>2019-04-03T07:27:33Z</time>
      </trkpt>
      <trkpt lat="47.60317" lon="3.68059">
        <ele>173</ele>
        <time>2019-04-03T07:27:37Z</time>
      </trkpt>
      <trkpt lat="47.60323" lon="3.68058">
        <ele>171</ele>
        <time>2019-04-03T07:27:40Z</time>
      </trkpt>
      <trkpt lat="47.60327" lon="3.68058">
        <ele>171</ele>
        <time>2019-04-03T07:27:43Z</time>
      </trkpt>
      <trkpt lat="47.6033" lon="3.68058">
        <ele>171</ele>
        <time>2019-04-03T07:27:46Z</time>
      </trkpt>
      <trkpt lat="47.60333" lon="3.68057">
        <ele>171</ele>
        <time>2019-04-03T07:27:48Z</time>
      </trkpt>
      <trkpt lat="47.60337" lon="3.68054">
        <ele>171</ele>
        <time>2019-04-03T07:27:52Z</time>
      </trkpt>
      <trkpt lat="47.6034" lon="3.68053">
        <ele>171</ele>
        <time>2019-04-03T07:28:01Z</time>
      </trkpt>
      <trkpt lat="47.60346" lon="3.68048">
        <ele>171</ele>
        <time>2019-04-03T07:28:25Z</time>
      </trkpt>
      <trkpt lat="47.60351" lon="3.68046">
        <ele>172</ele>
        <time>2019-04-03T07:28:30Z</time>
      </trkpt>
      <trkpt lat="47.60356" lon="3.68041">
        <ele>172</ele>
        <time>2019-04-03T07:28:35Z</time>
      </trkpt>
      <trkpt lat="47.60361" lon="3.68034">
        <ele>171</ele>
        <time>2019-04-03T07:28:41Z</time>
      </trkpt>
      <trkpt lat="47.60363" lon="3.68031">
        <ele>172</ele>
        <time>2019-04-03T07:28:43Z</time>
      </trkpt>
      <trkpt lat="47.60366" lon="3.68026">
        <ele>172</ele>
        <time>2019-04-03T07:28:47Z</time>
      </trkpt>
      <trkpt lat="47.60368" lon="3.68023">
        <ele>171</ele>
        <time>2019-04-03T07:28:49Z</time>
      </trkpt>
      <trkpt lat="47.60372" lon="3.68015">
        <ele>171</ele>
        <time>2019-04-03T07:28:55Z</time>
      </trkpt>
      <trkpt lat="47.60374" lon="3.68011">
        <ele>172</ele>
        <time>2019-04-03T07:28:58Z</time>
      </trkpt>
      <trkpt lat="47.60376" lon="3.68005">
        <ele>172</ele>
        <time>2019-04-03T07:29:01Z</time>
      </trkpt>
      <trkpt lat="47.60379" lon="3.67999">
        <ele>170</ele>
        <time>2019-04-03T07:29:06Z</time>
      </trkpt>
      <trkpt lat="47.6038" lon="3.67996">
        <ele>169</ele>
        <time>2019-04-03T07:29:09Z</time>
      </trkpt>
      <trkpt lat="47.60384" lon="3.67992">
        <ele>169</ele>
        <time>2019-04-03T07:29:13Z</time>
      </trkpt>
      <trkpt lat="47.60387" lon="3.67985">
        <ele>169</ele>
        <time>2019-04-03T07:29:18Z</time>
      </trkpt>
      <trkpt lat="47.60391" lon="3.67981">
        <ele>169</ele>
        <time>2019-04-03T07:29:22Z</time>
      </trkpt>
      <trkpt lat="47.60395" lon="3.67977">
        <ele>171</ele>
        <time>2019-04-03T07:29:27Z</time>
      </trkpt>
      <trkpt lat="47.604" lon="3.67971">
        <ele>172</ele>
        <time>2019-04-03T07:29:32Z</time>
      </trkpt>
      <trkpt lat="47.60403" lon="3.67969">
        <ele>173</ele>
        <time>2019-04-03T07:29:34Z</time>
      </trkpt>
      <trkpt lat="47.60404" lon="3.67962">
        <ele>174</ele>
        <time>2019-04-03T07:29:38Z</time>
      </trkpt>
      <trkpt lat="47.60406" lon="3.67956">
        <ele>175</ele>
        <time>2019-04-03T07:29:41Z</time>
      </trkpt>
      <trkpt lat="47.60408" lon="3.67952">
        <ele>175</ele>
        <time>2019-04-03T07:29:43Z</time>
      </trkpt>
      <trkpt lat="47.6041" lon="3.67945">
        <ele>176</ele>
        <time>2019-04-03T07:29:46Z</time>
      </trkpt>
      <trkpt lat="47.60412" lon="3.67939">
        <ele>175</ele>
        <time>2019-04-03T07:29:51Z</time>
      </trkpt>
      <trkpt lat="47.60413" lon="3.67935">
        <ele>175</ele>
        <time>2019-04-03T07:29:54Z</time>
      </trkpt>
      <trkpt lat="47.60416" lon="3.6793">
        <ele>174</ele>
        <time>2019-04-03T07:29:58Z</time>
      </trkpt>
      <trkpt lat="47.60417" lon="3.67927">
        <ele>175</ele>
        <time>2019-04-03T07:30:00Z</time>
      </trkpt>
      <trkpt lat="47.60418" lon="3.6792">
        <ele>173</ele>
        <time>2019-04-03T07:30:05Z</time>
      </trkpt>
      <trkpt lat="47.60418" lon="3.67916">
        <ele>172</ele>
        <time>2019-04-03T07:30:09Z</time>
      </trkpt>
      <trkpt lat="47.60421" lon="3.67912">
        <ele>172</ele>
        <time>2019-04-03T07:30:19Z</time>
      </trkpt>
      <trkpt lat="47.60422" lon="3.67908">
        <ele>172</ele>
        <time>2019-04-03T07:30:21Z</time>
      </trkpt>
      <trkpt lat="47.60424" lon="3.67902">
        <ele>172</ele>
        <time>2019-04-03T07:30:25Z</time>
      </trkpt>
      <trkpt lat="47.60426" lon="3.67899">
        <ele>172</ele>
        <time>2019-04-03T07:30:28Z</time>
      </trkpt>
      <trkpt lat="47.60426" lon="3.67891">
        <ele>171</ele>
        <time>2019-04-03T07:30:36Z</time>
      </trkpt>
      <trkpt lat="47.60428" lon="3.67885">
        <ele>171</ele>
        <time>2019-04-03T07:31:16Z</time>
      </trkpt>
      <trkpt lat="47.6043" lon="3.6788">
        <ele>171</ele>
        <time>2019-04-03T07:31:21Z</time>
      </trkpt>
      <trkpt lat="47.60433" lon="3.67874">
        <ele>171</ele>
        <time>2019-04-03T07:31:27Z</time>
      </trkpt>
      <trkpt lat="47.60435" lon="3.67871">
        <ele>171</ele>
        <time>2019-04-03T07:31:29Z</time>
      </trkpt>
      <trkpt lat="47.60437" lon="3.67865">
        <ele>172</ele>
        <time>2019-04-03T07:31:34Z</time>
      </trkpt>
      <trkpt lat="47.60439" lon="3.67861">
        <ele>171</ele>
        <time>2019-04-03T07:31:38Z</time>
      </trkpt>
      <trkpt lat="47.60443" lon="3.67854">
        <ele>170</ele>
        <time>2019-04-03T07:31:44Z</time>
      </trkpt>
      <trkpt lat="47.60445" lon="3.67847">
        <ele>172</ele>
        <time>2019-04-03T07:31:49Z</time>
      </trkpt>
      <trkpt lat="47.60448" lon="3.67841">
        <ele>173</ele>
        <time>2019-04-03T07:31:54Z</time>
      </trkpt>
      <trkpt lat="47.60447" lon="3.67834">
        <ele>171</ele>
        <time>2019-04-03T07:31:59Z</time>
      </trkpt>
      <trkpt lat="47.60445" lon="3.67829">
        <ele>171</ele>
        <time>2019-04-03T07:32:03Z</time>
      </trkpt>
      <trkpt lat="47.60444" lon="3.67822">
        <ele>170</ele>
        <time>2019-04-03T07:32:07Z</time>
      </trkpt>
      <trkpt lat="47.60444" lon="3.67819">
        <ele>169</ele>
        <time>2019-04-03T07:32:09Z</time>
      </trkpt>
      <trkpt lat="47.60443" lon="3.67815">
        <ele>169</ele>
        <time>2019-04-03T07:32:12Z</time>
      </trkpt>
      <trkpt lat="47.60441" lon="3.67807">
        <ele>171</ele>
        <time>2019-04-03T07:32:16Z</time>
      </trkpt>
      <trkpt lat="47.6044" lon="3.67803">
        <ele>171</ele>
        <time>2019-04-03T07:32:19Z</time>
      </trkpt>
      <trkpt lat="47.60438" lon="3.67798">
        <ele>171</ele>
        <time>2019-04-03T07:32:23Z</time>
      </trkpt>
      <trkpt lat="47.60437" lon="3.67792">
        <ele>171</ele>
        <time>2019-04-03T07:32:27Z</time>
      </trkpt>
      <trkpt lat="47.60436" lon="3.67785">
        <ele>172</ele>
        <time>2019-04-03T07:32:31Z</time>
      </trkpt>
      <trkpt lat="47.60435" lon="3.67776">
        <ele>175</ele>
        <time>2019-04-03T07:32:37Z</time>
      </trkpt>
      <trkpt lat="47.60431" lon="3.6777">
        <ele>176</ele>
        <time>2019-04-03T07:32:41Z</time>
      </trkpt>
      <trkpt lat="47.60429" lon="3.67763">
        <ele>175</ele>
        <time>2019-04-03T07:32:44Z</time>
      </trkpt>
      <trkpt lat="47.60428" lon="3.67756">
        <ele>175</ele>
        <time>2019-04-03T07:32:48Z</time>
      </trkpt>
      <trkpt lat="47.60425" lon="3.6775">
        <ele>177</ele>
        <time>2019-04-03T07:32:52Z</time>
      </trkpt>
      <trkpt lat="47.60421" lon="3.67745">
        <ele>177</ele>
        <time>2019-04-03T07:32:56Z</time>
      </trkpt>
      <trkpt lat="47.60415" lon="3.67742">
        <ele>177</ele>
        <time>2019-04-03T07:33:00Z</time>
      </trkpt>
      <trkpt lat="47.60412" lon="3.67737">
        <ele>179</ele>
        <time>2019-04-03T07:33:04Z</time>
      </trkpt>
      <trkpt lat="47.60409" lon="3.67731">
        <ele>178</ele>
        <time>2019-04-03T07:33:10Z</time>
      </trkpt>
      <trkpt lat="47.60405" lon="3.67724">
        <ele>177</ele>
        <time>2019-04-03T07:33:15Z</time>
      </trkpt>
      <trkpt lat="47.60399" lon="3.6772">
        <ele>177</ele>
        <time>2019-04-03T07:33:21Z</time>
      </trkpt>
      <trkpt lat="47.60396" lon="3.67716">
        <ele>177</ele>
        <time>2019-04-03T07:33:25Z</time>
      </trkpt>
      <trkpt lat="47.6039" lon="3.67711">
        <ele>177</ele>
        <time>2019-04-03T07:33:29Z</time>
      </trkpt>
      <trkpt lat="47.60388" lon="3.67703">
        <ele>177</ele>
        <time>2019-04-03T07:33:36Z</time>
      </trkpt>
      <trkpt lat="47.60385" lon="3.67697">
        <ele>177</ele>
        <time>2019-04-03T07:33:40Z</time>
      </trkpt>
      <trkpt lat="47.60381" lon="3.67693">
        <ele>178</ele>
        <time>2019-04-03T07:33:44Z</time>
      </trkpt>
      <trkpt lat="47.60378" lon="3.67691">
        <ele>178</ele>
        <time>2019-04-03T07:33:45Z</time>
      </trkpt>
      <trkpt lat="47.60375" lon="3.67688">
        <ele>179</ele>
        <time>2019-04-03T07:33:49Z</time>
      </trkpt>
      <trkpt lat="47.60372" lon="3.67682">
        <ele>180</ele>
        <time>2019-04-03T07:33:54Z</time>
      </trkpt>
      <trkpt lat="47.60369" lon="3.67677">
        <ele>181</ele>
        <time>2019-04-03T07:33:57Z</time>
      </trkpt>
      <trkpt lat="47.60367" lon="3.6767">
        <ele>181</ele>
        <time>2019-04-03T07:34:00Z</time>
      </trkpt>
      <trkpt lat="47.60362" lon="3.67666">
        <ele>179</ele>
        <time>2019-04-03T07:34:05Z</time>
      </trkpt>
      <trkpt lat="47.6036" lon="3.67663">
        <ele>179</ele>
        <time>2019-04-03T07:34:08Z</time>
      </trkpt>
      <trkpt lat="47.60357" lon="3.67656">
        <ele>178</ele>
        <time>2019-04-03T07:34:12Z</time>
      </trkpt>
      <trkpt lat="47.60353" lon="3.67651">
        <ele>179</ele>
        <time>2019-04-03T07:34:16Z</time>
      </trkpt>
      <trkpt lat="47.60349" lon="3.67648">
        <ele>179</ele>
        <time>2019-04-03T07:34:20Z</time>
      </trkpt>
      <trkpt lat="47.60345" lon="3.67647">
        <ele>181</ele>
        <time>2019-04-03T07:34:29Z</time>
      </trkpt>
      <trkpt lat="47.60343" lon="3.67641">
        <ele>183</ele>
        <time>2019-04-03T07:34:42Z</time>
      </trkpt>
      <trkpt lat="47.60343" lon="3.67633">
        <ele>182</ele>
        <time>2019-04-03T07:34:48Z</time>
      </trkpt>
      <trkpt lat="47.60344" lon="3.67622">
        <ele>183</ele>
        <time>2019-04-03T07:34:54Z</time>
      </trkpt>
      <trkpt lat="47.60345" lon="3.67615">
        <ele>184</ele>
        <time>2019-04-03T07:34:57Z</time>
      </trkpt>
      <trkpt lat="47.60345" lon="3.67609">
        <ele>182</ele>
        <time>2019-04-03T07:35:00Z</time>
      </trkpt>
      <trkpt lat="47.60345" lon="3.67601">
        <ele>182</ele>
        <time>2019-04-03T07:35:04Z</time>
      </trkpt>
      <trkpt lat="47.60345" lon="3.67593">
        <ele>182</ele>
        <time>2019-04-03T07:35:08Z</time>
      </trkpt>
      <trkpt lat="47.60346" lon="3.67589">
        <ele>181</ele>
        <time>2019-04-03T07:35:11Z</time>
      </trkpt>
      <trkpt lat="47.60346" lon="3.67582">
        <ele>181</ele>
        <time>2019-04-03T07:35:15Z</time>
      </trkpt>
      <trkpt lat="47.60347" lon="3.67577">
        <ele>181</ele>
        <time>2019-04-03T07:35:18Z</time>
      </trkpt>
      <trkpt lat="47.60346" lon="3.6757">
        <ele>182</ele>
        <time>2019-04-03T07:35:22Z</time>
      </trkpt>
      <trkpt lat="47.60346" lon="3.67563">
        <ele>183</ele>
        <time>2019-04-03T07:35:26Z</time>
      </trkpt>
      <trkpt lat="47.60346" lon="3.67555">
        <ele>183</ele>
        <time>2019-04-03T07:35:30Z</time>
      </trkpt>
      <trkpt lat="47.60347" lon="3.67547">
        <ele>184</ele>
        <time>2019-04-03T07:35:35Z</time>
      </trkpt>
      <trkpt lat="47.60348" lon="3.67542">
        <ele>183</ele>
        <time>2019-04-03T07:35:37Z</time>
      </trkpt>
      <trkpt lat="47.60348" lon="3.67534">
        <ele>183</ele>
        <time>2019-04-03T07:35:41Z</time>
      </trkpt>
      <trkpt lat="47.60348" lon="3.6753">
        <ele>183</ele>
        <time>2019-04-03T07:35:44Z</time>
      </trkpt>
      <trkpt lat="47.60348" lon="3.67524">
        <ele>182</ele>
        <time>2019-04-03T07:35:47Z</time>
      </trkpt>
      <trkpt lat="47.60348" lon="3.67521">
        <ele>181</ele>
        <time>2019-04-03T07:35:49Z</time>
      </trkpt>
      <trkpt lat="47.60347" lon="3.67513">
        <ele>180</ele>
        <time>2019-04-03T07:35:53Z</time>
      </trkpt>
      <trkpt lat="47.60344" lon="3.67507">
        <ele>179</ele>
        <time>2019-04-03T07:35:56Z</time>
      </trkpt>
      <trkpt lat="47.60343" lon="3.675">
        <ele>177</ele>
        <time>2019-04-03T07:35:59Z</time>
      </trkpt>
      <trkpt lat="47.60342" lon="3.67495">
        <ele>177</ele>
        <time>2019-04-03T07:36:02Z</time>
      </trkpt>
      <trkpt lat="47.60339" lon="3.67489">
        <ele>177</ele>
        <time>2019-04-03T07:36:06Z</time>
      </trkpt>
      <trkpt lat="47.60337" lon="3.67482">
        <ele>177</ele>
        <time>2019-04-03T07:36:10Z</time>
      </trkpt>
      <trkpt lat="47.60337" lon="3.67475">
        <ele>178</ele>
        <time>2019-04-03T07:36:13Z</time>
      </trkpt>
      <trkpt lat="47.60336" lon="3.67468">
        <ele>178</ele>
        <time>2019-04-03T07:36:17Z</time>
      </trkpt>
      <trkpt lat="47.60335" lon="3.67465">
        <ele>177</ele>
        <time>2019-04-03T07:36:19Z</time>
      </trkpt>
      <trkpt lat="47.60334" lon="3.6746">
        <ele>177</ele>
        <time>2019-04-03T07:36:22Z</time>
      </trkpt>
      <trkpt lat="47.60333" lon="3.67452">
        <ele>176</ele>
        <time>2019-04-03T07:36:26Z</time>
      </trkpt>
      <trkpt lat="47.60333" lon="3.67446">
        <ele>175</ele>
        <time>2019-04-03T07:36:29Z</time>
      </trkpt>
      <trkpt lat="47.60333" lon="3.6744">
        <ele>175</ele>
        <time>2019-04-03T07:36:33Z</time>
      </trkpt>
      <trkpt lat="47.60332" lon="3.67436">
        <ele>176</ele>
        <time>2019-04-03T07:36:36Z</time>
      </trkpt>
      <trkpt lat="47.60335" lon="3.67428">
        <ele>176</ele>
        <time>2019-04-03T07:36:41Z</time>
      </trkpt>
      <trkpt lat="47.60335" lon="3.67421">
        <ele>178</ele>
        <time>2019-04-03T07:36:45Z</time>
      </trkpt>
      <trkpt lat="47.60337" lon="3.67413">
        <ele>178</ele>
        <time>2019-04-03T07:36:49Z</time>
      </trkpt>
      <trkpt lat="47.60331" lon="3.67408">
        <ele>179</ele>
        <time>2019-04-03T07:36:53Z</time>
      </trkpt>
      <trkpt lat="47.60327" lon="3.67405">
        <ele>179</ele>
        <time>2019-04-03T07:36:57Z</time>
      </trkpt>
      <trkpt lat="47.60322" lon="3.67402">
        <ele>180</ele>
        <time>2019-04-03T07:37:00Z</time>
      </trkpt>
      <trkpt lat="47.6032" lon="3.67401">
        <ele>181</ele>
        <time>2019-04-03T07:37:02Z</time>
      </trkpt>
      <trkpt lat="47.60315" lon="3.67397">
        <ele>180</ele>
        <time>2019-04-03T07:37:06Z</time>
      </trkpt>
      <trkpt lat="47.60311" lon="3.67393">
        <ele>180</ele>
        <time>2019-04-03T07:37:10Z</time>
      </trkpt>
      <trkpt lat="47.60305" lon="3.67392">
        <ele>181</ele>
        <time>2019-04-03T07:37:14Z</time>
      </trkpt>
      <trkpt lat="47.60301" lon="3.67389">
        <ele>181</ele>
        <time>2019-04-03T07:37:17Z</time>
      </trkpt>
      <trkpt lat="47.60297" lon="3.67386">
        <ele>181</ele>
        <time>2019-04-03T07:37:20Z</time>
      </trkpt>
      <trkpt lat="47.60293" lon="3.67384">
        <ele>180</ele>
        <time>2019-04-03T07:37:23Z</time>
      </trkpt>
      <trkpt lat="47.60289" lon="3.67381">
        <ele>181</ele>
        <time>2019-04-03T07:37:26Z</time>
      </trkpt>
      <trkpt lat="47.60286" lon="3.6738">
        <ele>181</ele>
        <time>2019-04-03T07:37:28Z</time>
      </trkpt>
      <trkpt lat="47.60284" lon="3.67378">
        <ele>180</ele>
        <time>2019-04-03T07:37:30Z</time>
      </trkpt>
      <trkpt lat="47.60277" lon="3.67375">
        <ele>183</ele>
        <time>2019-04-03T07:37:36Z</time>
      </trkpt>
      <trkpt lat="47.60274" lon="3.67373">
        <ele>183</ele>
        <time>2019-04-03T07:37:39Z</time>
      </trkpt>
      <trkpt lat="47.6027" lon="3.67368">
        <ele>181</ele>
        <time>2019-04-03T07:37:43Z</time>
      </trkpt>
      <trkpt lat="47.60265" lon="3.67364">
        <ele>180</ele>
        <time>2019-04-03T07:37:47Z</time>
      </trkpt>
      <trkpt lat="47.60262" lon="3.67362">
        <ele>181</ele>
        <time>2019-04-03T07:37:50Z</time>
      </trkpt>
      <trkpt lat="47.6026" lon="3.6736">
        <ele>181</ele>
        <time>2019-04-03T07:37:52Z</time>
      </trkpt>
      <trkpt lat="47.60256" lon="3.67356">
        <ele>181</ele>
        <time>2019-04-03T07:37:56Z</time>
      </trkpt>
      <trkpt lat="47.60252" lon="3.6735">
        <ele>180</ele>
        <time>2019-04-03T07:38:00Z</time>
      </trkpt>
      <trkpt lat="47.60248" lon="3.67344">
        <ele>180</ele>
        <time>2019-04-03T07:38:04Z</time>
      </trkpt>
      <trkpt lat="47.60242" lon="3.67336">
        <ele>180</ele>
        <time>2019-04-03T07:38:09Z</time>
      </trkpt>
      <trkpt lat="47.60238" lon="3.67332">
        <ele>179</ele>
        <time>2019-04-03T07:38:13Z</time>
      </trkpt>
      <trkpt lat="47.60234" lon="3.67328">
        <ele>179</ele>
        <time>2019-04-03T07:38:16Z</time>
      </trkpt>
      <trkpt lat="47.6023" lon="3.67324">
        <ele>179</ele>
        <time>2019-04-03T07:38:20Z</time>
      </trkpt>
      <trkpt lat="47.60227" lon="3.67322">
        <ele>179</ele>
        <time>2019-04-03T07:38:22Z</time>
      </trkpt>
      <trkpt lat="47.60222" lon="3.67319">
        <ele>178</ele>
        <time>2019-04-03T07:38:26Z</time>
      </trkpt>
      <trkpt lat="47.60218" lon="3.67317">
        <ele>178</ele>
        <time>2019-04-03T07:38:30Z</time>
      </trkpt>
      <trkpt lat="47.60214" lon="3.67314">
        <ele>177</ele>
        <time>2019-04-03T07:38:33Z</time>
      </trkpt>
      <trkpt lat="47.60209" lon="3.67308">
        <ele>177</ele>
        <time>2019-04-03T07:38:38Z</time>
      </trkpt>
      <trkpt lat="47.60204" lon="3.67305">
        <ele>177</ele>
        <time>2019-04-03T07:38:42Z</time>
      </trkpt>
      <trkpt lat="47.602" lon="3.67302">
        <ele>177</ele>
        <time>2019-04-03T07:38:44Z</time>
      </trkpt>
      <trkpt lat="47.60194" lon="3.67299">
        <ele>176</ele>
        <time>2019-04-03T07:38:48Z</time>
      </trkpt>
      <trkpt lat="47.60191" lon="3.67298">
        <ele>175</ele>
        <time>2019-04-03T07:38:51Z</time>
      </trkpt>
      <trkpt lat="47.60188" lon="3.67297">
        <ele>176</ele>
        <time>2019-04-03T07:38:53Z</time>
      </trkpt>
      <trkpt lat="47.60184" lon="3.67293">
        <ele>176</ele>
        <time>2019-04-03T07:38:57Z</time>
      </trkpt>
      <trkpt lat="47.6018" lon="3.67289">
        <ele>175</ele>
        <time>2019-04-03T07:39:01Z</time>
      </trkpt>
      <trkpt lat="47.60175" lon="3.67286">
        <ele>176</ele>
        <time>2019-04-03T07:39:06Z</time>
      </trkpt>
      <trkpt lat="47.6017" lon="3.67282">
        <ele>177</ele>
        <time>2019-04-03T07:39:10Z</time>
      </trkpt>
      <trkpt lat="47.60166" lon="3.6728">
        <ele>177</ele>
        <time>2019-04-03T07:39:13Z</time>
      </trkpt>
      <trkpt lat="47.60163" lon="3.67278">
        <ele>177</ele>
        <time>2019-04-03T07:39:16Z</time>
      </trkpt>
      <trkpt lat="47.6016" lon="3.67276">
        <ele>177</ele>
        <time>2019-04-03T07:39:18Z</time>
      </trkpt>
      <trkpt lat="47.60156" lon="3.67273">
        <ele>176</ele>
        <time>2019-04-03T07:39:21Z</time>
      </trkpt>
      <trkpt lat="47.60154" lon="3.67272">
        <ele>177</ele>
        <time>2019-04-03T07:39:23Z</time>
      </trkpt>
      <trkpt lat="47.6015" lon="3.67269">
        <ele>177</ele>
        <time>2019-04-03T07:39:26Z</time>
      </trkpt>
      <trkpt lat="47.60148" lon="3.67268">
        <ele>176</ele>
        <time>2019-04-03T07:39:28Z</time>
      </trkpt>
      <trkpt lat="47.60144" lon="3.67265">
        <ele>177</ele>
        <time>2019-04-03T07:39:32Z</time>
      </trkpt>
      <trkpt lat="47.6014" lon="3.67262">
        <ele>177</ele>
        <time>2019-04-03T07:39:35Z</time>
      </trkpt>
      <trkpt lat="47.60137" lon="3.6726">
        <ele>177</ele>
        <time>2019-04-03T07:39:37Z</time>
      </trkpt>
      <trkpt lat="47.60134" lon="3.67258">
        <ele>177</ele>
        <time>2019-04-03T07:39:39Z</time>
      </trkpt>
      <trkpt lat="47.60129" lon="3.67254">
        <ele>177</ele>
        <time>2019-04-03T07:39:44Z</time>
      </trkpt>
      <trkpt lat="47.60125" lon="3.67251">
        <ele>177</ele>
        <time>2019-04-03T07:39:48Z</time>
      </trkpt>
      <trkpt lat="47.60119" lon="3.67247">
        <ele>177</ele>
        <time>2019-04-03T07:39:54Z</time>
      </trkpt>
      <trkpt lat="47.60114" lon="3.67243">
        <ele>178</ele>
        <time>2019-04-03T07:39:58Z</time>
      </trkpt>
      <trkpt lat="47.60112" lon="3.67242">
        <ele>177</ele>
        <time>2019-04-03T07:40:00Z</time>
      </trkpt>
      <trkpt lat="47.60109" lon="3.6724">
        <ele>177</ele>
        <time>2019-04-03T07:40:02Z</time>
      </trkpt>
      <trkpt lat="47.60105" lon="3.67237">
        <ele>177</ele>
        <time>2019-04-03T07:40:05Z</time>
      </trkpt>
      <trkpt lat="47.60102" lon="3.67235">
        <ele>178</ele>
        <time>2019-04-03T07:40:07Z</time>
      </trkpt>
      <trkpt lat="47.601" lon="3.67232">
        <ele>178</ele>
        <time>2019-04-03T07:40:09Z</time>
      </trkpt>
      <trkpt lat="47.60097" lon="3.6723">
        <ele>179</ele>
        <time>2019-04-03T07:40:12Z</time>
      </trkpt>
      <trkpt lat="47.60094" lon="3.67228">
        <ele>179</ele>
        <time>2019-04-03T07:40:15Z</time>
      </trkpt>
      <trkpt lat="47.60092" lon="3.67226">
        <ele>178</ele>
        <time>2019-04-03T07:40:17Z</time>
      </trkpt>
      <trkpt lat="47.60087" lon="3.67222">
        <ele>180</ele>
        <time>2019-04-03T07:40:23Z</time>
      </trkpt>
      <trkpt lat="47.60082" lon="3.67218">
        <ele>181</ele>
        <time>2019-04-03T07:40:28Z</time>
      </trkpt>
      <trkpt lat="47.60079" lon="3.67216">
        <ele>181</ele>
        <time>2019-04-03T07:40:30Z</time>
      </trkpt>
      <trkpt lat="47.60075" lon="3.67212">
        <ele>181</ele>
        <time>2019-04-03T07:40:33Z</time>
      </trkpt>
      <trkpt lat="47.60072" lon="3.6721">
        <ele>181</ele>
        <time>2019-04-03T07:40:35Z</time>
      </trkpt>
      <trkpt lat="47.6007" lon="3.67208">
        <ele>181</ele>
        <time>2019-04-03T07:40:37Z</time>
      </trkpt>
      <trkpt lat="47.60066" lon="3.67205">
        <ele>181</ele>
        <time>2019-04-03T07:40:41Z</time>
      </trkpt>
      <trkpt lat="47.60062" lon="3.67201">
        <ele>181</ele>
        <time>2019-04-03T07:40:46Z</time>
      </trkpt>
      <trkpt lat="47.60058" lon="3.67195">
        <ele>181</ele>
        <time>2019-04-03T07:40:50Z</time>
      </trkpt>
      <trkpt lat="47.60056" lon="3.67192">
        <ele>180</ele>
        <time>2019-04-03T07:40:52Z</time>
      </trkpt>
      <trkpt lat="47.60054" lon="3.67188">
        <ele>180</ele>
        <time>2019-04-03T07:40:55Z</time>
      </trkpt>
      <trkpt lat="47.60052" lon="3.67184">
        <ele>181</ele>
        <time>2019-04-03T07:40:57Z</time>
      </trkpt>
      <trkpt lat="47.6005" lon="3.67179">
        <ele>181</ele>
        <time>2019-04-03T07:41:01Z</time>
      </trkpt>
      <trkpt lat="47.60048" lon="3.67176">
        <ele>181</ele>
        <time>2019-04-03T07:41:03Z</time>
      </trkpt>
      <trkpt lat="47.60046" lon="3.67169">
        <ele>181</ele>
        <time>2019-04-03T07:41:07Z</time>
      </trkpt>
      <trkpt lat="47.60045" lon="3.67165">
        <ele>181</ele>
        <time>2019-04-03T07:41:09Z</time>
      </trkpt>
      <trkpt lat="47.60044" lon="3.67158">
        <ele>181</ele>
        <time>2019-04-03T07:41:13Z</time>
      </trkpt>
      <trkpt lat="47.60041" lon="3.67151">
        <ele>180</ele>
        <time>2019-04-03T07:41:18Z</time>
      </trkpt>
      <trkpt lat="47.60039" lon="3.67144">
        <ele>181</ele>
        <time>2019-04-03T07:41:22Z</time>
      </trkpt>
      <trkpt lat="47.60037" lon="3.67138">
        <ele>181</ele>
        <time>2019-04-03T07:41:26Z</time>
      </trkpt>
      <trkpt lat="47.60036" lon="3.67135">
        <ele>181</ele>
        <time>2019-04-03T07:41:28Z</time>
      </trkpt>
      <trkpt lat="47.60034" lon="3.67127">
        <ele>182</ele>
        <time>2019-04-03T07:41:32Z</time>
      </trkpt>
      <trkpt lat="47.60032" lon="3.6712">
        <ele>182</ele>
        <time>2019-04-03T07:41:36Z</time>
      </trkpt>
      <trkpt lat="47.60031" lon="3.67117">
        <ele>182</ele>
        <time>2019-04-03T07:41:38Z</time>
      </trkpt>
      <trkpt lat="47.60029" lon="3.6711">
        <ele>182</ele>
        <time>2019-04-03T07:41:42Z</time>
      </trkpt>
      <trkpt lat="47.60025" lon="3.67103">
        <ele>182</ele>
        <time>2019-04-03T07:41:46Z</time>
      </trkpt>
      <trkpt lat="47.60024" lon="3.67101">
        <ele>182</ele>
        <time>2019-04-03T07:41:48Z</time>
      </trkpt>
      <trkpt lat="47.60022" lon="3.67093">
        <ele>182</ele>
        <time>2019-04-03T07:41:52Z</time>
      </trkpt>
      <trkpt lat="47.6002" lon="3.67086">
        <ele>182</ele>
        <time>2019-04-03T07:41:57Z</time>
      </trkpt>
      <trkpt lat="47.60019" lon="3.67081">
        <ele>183</ele>
        <time>2019-04-03T07:42:00Z</time>
      </trkpt>
      <trkpt lat="47.60018" lon="3.67077">
        <ele>183</ele>
        <time>2019-04-03T07:42:02Z</time>
      </trkpt>
      <trkpt lat="47.60016" lon="3.67072">
        <ele>183</ele>
        <time>2019-04-03T07:42:06Z</time>
      </trkpt>
      <trkpt lat="47.60015" lon="3.67068">
        <ele>183</ele>
        <time>2019-04-03T07:42:08Z</time>
      </trkpt>
      <trkpt lat="47.60013" lon="3.67065">
        <ele>183</ele>
        <time>2019-04-03T07:42:10Z</time>
      </trkpt>
      <trkpt lat="47.60012" lon="3.67059">
        <ele>184</ele>
        <time>2019-04-03T07:42:14Z</time>
      </trkpt>
      <trkpt lat="47.6001" lon="3.67054">
        <ele>184</ele>
        <time>2019-04-03T07:42:17Z</time>
      </trkpt>
      <trkpt lat="47.6001" lon="3.67051">
        <ele>184</ele>
        <time>2019-04-03T07:42:19Z</time>
      </trkpt>
      <trkpt lat="47.60009" lon="3.67046">
        <ele>184</ele>
        <time>2019-04-03T07:42:22Z</time>
      </trkpt>
      <trkpt lat="47.60006" lon="3.67039">
        <ele>185</ele>
        <time>2019-04-03T07:42:26Z</time>
      </trkpt>
      <trkpt lat="47.60004" lon="3.67034">
        <ele>185</ele>
        <time>2019-04-03T07:42:29Z</time>
      </trkpt>
      <trkpt lat="47.60002" lon="3.67029">
        <ele>186</ele>
        <time>2019-04-03T07:42:32Z</time>
      </trkpt>
      <trkpt lat="47.59999" lon="3.67022">
        <ele>185</ele>
        <time>2019-04-03T07:42:36Z</time>
      </trkpt>
      <trkpt lat="47.59996" lon="3.67014">
        <ele>185</ele>
        <time>2019-04-03T07:42:39Z</time>
      </trkpt>
      <trkpt lat="47.59995" lon="3.6701">
        <ele>185</ele>
        <time>2019-04-03T07:42:42Z</time>
      </trkpt>
      <trkpt lat="47.59993" lon="3.67003">
        <ele>185</ele>
        <time>2019-04-03T07:42:48Z</time>
      </trkpt>
      <trkpt lat="47.59991" lon="3.67">
        <ele>185</ele>
        <time>2019-04-03T07:42:50Z</time>
      </trkpt>
      <trkpt lat="47.59989" lon="3.66991">
        <ele>186</ele>
        <time>2019-04-03T07:42:54Z</time>
      </trkpt>
      <trkpt lat="47.59987" lon="3.66985">
        <ele>186</ele>
        <time>2019-04-03T07:42:59Z</time>
      </trkpt>
      <trkpt lat="47.59985" lon="3.6698">
        <ele>187</ele>
        <time>2019-04-03T07:43:02Z</time>
      </trkpt>
      <trkpt lat="47.59983" lon="3.66972">
        <ele>187</ele>
        <time>2019-04-03T07:43:07Z</time>
      </trkpt>
      <trkpt lat="47.59982" lon="3.66968">
        <ele>187</ele>
        <time>2019-04-03T07:43:10Z</time>
      </trkpt>
      <trkpt lat="47.59979" lon="3.66962">
        <ele>186</ele>
        <time>2019-04-03T07:43:14Z</time>
      </trkpt>
      <trkpt lat="47.59977" lon="3.66955">
        <ele>187</ele>
        <time>2019-04-03T07:43:18Z</time>
      </trkpt>
      <trkpt lat="47.59975" lon="3.66951">
        <ele>186</ele>
        <time>2019-04-03T07:43:19Z</time>
      </trkpt>
      <trkpt lat="47.59973" lon="3.66944">
        <ele>186</ele>
        <time>2019-04-03T07:43:23Z</time>
      </trkpt>
      <trkpt lat="47.59972" lon="3.66941">
        <ele>186</ele>
        <time>2019-04-03T07:43:26Z</time>
      </trkpt>
      <trkpt lat="47.59971" lon="3.66939">
        <ele>187</ele>
        <time>2019-04-03T07:43:28Z</time>
      </trkpt>
      <trkpt lat="47.59968" lon="3.66933">
        <ele>187</ele>
        <time>2019-04-03T07:43:31Z</time>
      </trkpt>
      <trkpt lat="47.59967" lon="3.66928">
        <ele>186</ele>
        <time>2019-04-03T07:43:35Z</time>
      </trkpt>
      <trkpt lat="47.59965" lon="3.66924">
        <ele>186</ele>
        <time>2019-04-03T07:43:37Z</time>
      </trkpt>
      <trkpt lat="47.59964" lon="3.66921">
        <ele>186</ele>
        <time>2019-04-03T07:43:39Z</time>
      </trkpt>
      <trkpt lat="47.59963" lon="3.66914">
        <ele>186</ele>
        <time>2019-04-03T07:43:43Z</time>
      </trkpt>
      <trkpt lat="47.59962" lon="3.6691">
        <ele>186</ele>
        <time>2019-04-03T07:43:45Z</time>
      </trkpt>
      <trkpt lat="47.59959" lon="3.66903">
        <ele>187</ele>
        <time>2019-04-03T07:43:49Z</time>
      </trkpt>
      <trkpt lat="47.59958" lon="3.66898">
        <ele>188</ele>
        <time>2019-04-03T07:43:53Z</time>
      </trkpt>
      <trkpt lat="47.59957" lon="3.66894">
        <ele>187</ele>
        <time>2019-04-03T07:43:55Z</time>
      </trkpt>
      <trkpt lat="47.59956" lon="3.66891">
        <ele>188</ele>
        <time>2019-04-03T07:43:57Z</time>
      </trkpt>
      <trkpt lat="47.59954" lon="3.66886">
        <ele>189</ele>
        <time>2019-04-03T07:44:00Z</time>
      </trkpt>
      <trkpt lat="47.59953" lon="3.66882">
        <ele>189</ele>
        <time>2019-04-03T07:44:03Z</time>
      </trkpt>
      <trkpt lat="47.59951" lon="3.66876">
        <ele>190</ele>
        <time>2019-04-03T07:44:07Z</time>
      </trkpt>
      <trkpt lat="47.59949" lon="3.66868">
        <ele>190</ele>
        <time>2019-04-03T07:44:11Z</time>
      </trkpt>
      <trkpt lat="47.59946" lon="3.66861">
        <ele>191</ele>
        <time>2019-04-03T07:44:15Z</time>
      </trkpt>
      <trkpt lat="47.59944" lon="3.66855">
        <ele>192</ele>
        <time>2019-04-03T07:44:18Z</time>
      </trkpt>
      <trkpt lat="47.59942" lon="3.66848">
        <ele>192</ele>
        <time>2019-04-03T07:44:21Z</time>
      </trkpt>
      <trkpt lat="47.59941" lon="3.66845">
        <ele>192</ele>
        <time>2019-04-03T07:44:23Z</time>
      </trkpt>
      <trkpt lat="47.59938" lon="3.66839">
        <ele>193</ele>
        <time>2019-04-03T07:44:28Z</time>
      </trkpt>
      <trkpt lat="47.59935" lon="3.66831">
        <ele>193</ele>
        <time>2019-04-03T07:44:33Z</time>
      </trkpt>
      <trkpt lat="47.59934" lon="3.66828">
        <ele>193</ele>
        <time>2019-04-03T07:44:34Z</time>
      </trkpt>
      <trkpt lat="47.59932" lon="3.66822">
        <ele>191</ele>
        <time>2019-04-03T07:44:39Z</time>
      </trkpt>
      <trkpt lat="47.59929" lon="3.66815">
        <ele>192</ele>
        <time>2019-04-03T07:44:43Z</time>
      </trkpt>
      <trkpt lat="47.59927" lon="3.66807">
        <ele>192</ele>
        <time>2019-04-03T07:44:47Z</time>
      </trkpt>
      <trkpt lat="47.59925" lon="3.66802">
        <ele>194</ele>
        <time>2019-04-03T07:44:50Z</time>
      </trkpt>
      <trkpt lat="47.59922" lon="3.66796">
        <ele>193</ele>
        <time>2019-04-03T07:44:54Z</time>
      </trkpt>
      <trkpt lat="47.5992" lon="3.6679">
        <ele>192</ele>
        <time>2019-04-03T07:44:58Z</time>
      </trkpt>
      <trkpt lat="47.59917" lon="3.66783">
        <ele>192</ele>
        <time>2019-04-03T07:45:02Z</time>
      </trkpt>
      <trkpt lat="47.59916" lon="3.66779">
        <ele>193</ele>
        <time>2019-04-03T07:45:04Z</time>
      </trkpt>
      <trkpt lat="47.59914" lon="3.66774">
        <ele>193</ele>
        <time>2019-04-03T07:45:07Z</time>
      </trkpt>
      <trkpt lat="47.59912" lon="3.66766">
        <ele>192</ele>
        <time>2019-04-03T07:45:11Z</time>
      </trkpt>
      <trkpt lat="47.5991" lon="3.66762">
        <ele>193</ele>
        <time>2019-04-03T07:45:13Z</time>
      </trkpt>
      <trkpt lat="47.59909" lon="3.66758">
        <ele>194</ele>
        <time>2019-04-03T07:45:16Z</time>
      </trkpt>
      <trkpt lat="47.59907" lon="3.66751">
        <ele>194</ele>
        <time>2019-04-03T07:45:20Z</time>
      </trkpt>
      <trkpt lat="47.59904" lon="3.66745">
        <ele>195</ele>
        <time>2019-04-03T07:45:24Z</time>
      </trkpt>
      <trkpt lat="47.599" lon="3.66737">
        <ele>194</ele>
        <time>2019-04-03T07:45:29Z</time>
      </trkpt>
      <trkpt lat="47.59897" lon="3.6673">
        <ele>194</ele>
        <time>2019-04-03T07:45:33Z</time>
      </trkpt>
      <trkpt lat="47.59895" lon="3.66723">
        <ele>195</ele>
        <time>2019-04-03T07:45:37Z</time>
      </trkpt>
      <trkpt lat="47.59892" lon="3.66717">
        <ele>195</ele>
        <time>2019-04-03T07:45:41Z</time>
      </trkpt>
      <trkpt lat="47.5989" lon="3.66709">
        <ele>196</ele>
        <time>2019-04-03T07:45:45Z</time>
      </trkpt>
      <trkpt lat="47.59889" lon="3.66706">
        <ele>196</ele>
        <time>2019-04-03T07:45:47Z</time>
      </trkpt>
      <trkpt lat="47.59886" lon="3.66699">
        <ele>196</ele>
        <time>2019-04-03T07:45:51Z</time>
      </trkpt>
      <trkpt lat="47.59883" lon="3.66694">
        <ele>196</ele>
        <time>2019-04-03T07:45:53Z</time>
      </trkpt>
      <trkpt lat="47.59881" lon="3.66687">
        <ele>197</ele>
        <time>2019-04-03T07:45:57Z</time>
      </trkpt>
      <trkpt lat="47.59879" lon="3.66683">
        <ele>196</ele>
        <time>2019-04-03T07:45:59Z</time>
      </trkpt>
      <trkpt lat="47.59877" lon="3.66675">
        <ele>197</ele>
        <time>2019-04-03T07:46:04Z</time>
      </trkpt>
      <trkpt lat="47.59875" lon="3.66669">
        <ele>197</ele>
        <time>2019-04-03T07:46:08Z</time>
      </trkpt>
      <trkpt lat="47.59872" lon="3.66662">
        <ele>199</ele>
        <time>2019-04-03T07:46:13Z</time>
      </trkpt>
      <trkpt lat="47.5987" lon="3.66656">
        <ele>199</ele>
        <time>2019-04-03T07:46:16Z</time>
      </trkpt>
      <trkpt lat="47.59868" lon="3.6665">
        <ele>200</ele>
        <time>2019-04-03T07:46:20Z</time>
      </trkpt>
      <trkpt lat="47.59867" lon="3.66646">
        <ele>199</ele>
        <time>2019-04-03T07:46:22Z</time>
      </trkpt>
      <trkpt lat="47.59864" lon="3.6664">
        <ele>198</ele>
        <time>2019-04-03T07:46:26Z</time>
      </trkpt>
      <trkpt lat="47.59864" lon="3.66632">
        <ele>199</ele>
        <time>2019-04-03T07:46:30Z</time>
      </trkpt>
      <trkpt lat="47.5986" lon="3.66626">
        <ele>198</ele>
        <time>2019-04-03T07:46:34Z</time>
      </trkpt>
      <trkpt lat="47.59858" lon="3.66619">
        <ele>198</ele>
        <time>2019-04-03T07:46:38Z</time>
      </trkpt>
      <trkpt lat="47.59857" lon="3.66616">
        <ele>199</ele>
        <time>2019-04-03T07:46:40Z</time>
      </trkpt>
      <trkpt lat="47.59854" lon="3.66609">
        <ele>199</ele>
        <time>2019-04-03T07:46:44Z</time>
      </trkpt>
      <trkpt lat="47.59852" lon="3.66605">
        <ele>199</ele>
        <time>2019-04-03T07:46:46Z</time>
      </trkpt>
      <trkpt lat="47.5985" lon="3.66602">
        <ele>199</ele>
        <time>2019-04-03T07:46:48Z</time>
      </trkpt>
      <trkpt lat="47.59848" lon="3.66596">
        <ele>200</ele>
        <time>2019-04-03T07:46:52Z</time>
      </trkpt>
      <trkpt lat="47.59845" lon="3.66589">
        <ele>200</ele>
        <time>2019-04-03T07:46:56Z</time>
      </trkpt>
      <trkpt lat="47.59843" lon="3.66586">
        <ele>200</ele>
        <time>2019-04-03T07:46:59Z</time>
      </trkpt>
      <trkpt lat="47.59842" lon="3.6658">
        <ele>200</ele>
        <time>2019-04-03T07:47:02Z</time>
      </trkpt>
      <trkpt lat="47.59839" lon="3.66574">
        <ele>200</ele>
        <time>2019-04-03T07:47:05Z</time>
      </trkpt>
      <trkpt lat="47.59838" lon="3.66571">
        <ele>201</ele>
        <time>2019-04-03T07:47:07Z</time>
      </trkpt>
      <trkpt lat="47.59836" lon="3.66567">
        <ele>200</ele>
        <time>2019-04-03T07:47:09Z</time>
      </trkpt>
      <trkpt lat="47.59834" lon="3.66561">
        <ele>201</ele>
        <time>2019-04-03T07:47:12Z</time>
      </trkpt>
      <trkpt lat="47.59832" lon="3.66556">
        <ele>201</ele>
        <time>2019-04-03T07:47:15Z</time>
      </trkpt>
      <trkpt lat="47.5983" lon="3.66552">
        <ele>201</ele>
        <time>2019-04-03T07:47:17Z</time>
      </trkpt>
      <trkpt lat="47.59828" lon="3.66546">
        <ele>201</ele>
        <time>2019-04-03T07:47:21Z</time>
      </trkpt>
      <trkpt lat="47.59827" lon="3.66543">
        <ele>201</ele>
        <time>2019-04-03T07:47:23Z</time>
      </trkpt>
      <trkpt lat="47.59825" lon="3.66537">
        <ele>201</ele>
        <time>2019-04-03T07:47:26Z</time>
      </trkpt>
      <trkpt lat="47.59823" lon="3.66527">
        <ele>201</ele>
        <time>2019-04-03T07:47:32Z</time>
      </trkpt>
      <trkpt lat="47.59822" lon="3.66523">
        <ele>202</ele>
        <time>2019-04-03T07:47:35Z</time>
      </trkpt>
      <trkpt lat="47.59821" lon="3.66516">
        <ele>202</ele>
        <time>2019-04-03T07:47:39Z</time>
      </trkpt>
      <trkpt lat="47.59818" lon="3.66509">
        <ele>202</ele>
        <time>2019-04-03T07:47:43Z</time>
      </trkpt>
      <trkpt lat="47.59817" lon="3.66501">
        <ele>202</ele>
        <time>2019-04-03T07:47:47Z</time>
      </trkpt>
      <trkpt lat="47.59812" lon="3.66494">
        <ele>202</ele>
        <time>2019-04-03T07:47:51Z</time>
      </trkpt>
      <trkpt lat="47.59811" lon="3.66491">
        <ele>202</ele>
        <time>2019-04-03T07:47:53Z</time>
      </trkpt>
      <trkpt lat="47.59808" lon="3.66485">
        <ele>203</ele>
        <time>2019-04-03T07:47:56Z</time>
      </trkpt>
      <trkpt lat="47.59806" lon="3.66479">
        <ele>204</ele>
        <time>2019-04-03T07:47:58Z</time>
      </trkpt>
      <trkpt lat="47.59804" lon="3.66475">
        <ele>204</ele>
        <time>2019-04-03T07:48:00Z</time>
      </trkpt>
      <trkpt lat="47.59801" lon="3.66469">
        <ele>204</ele>
        <time>2019-04-03T07:48:05Z</time>
      </trkpt>
      <trkpt lat="47.59799" lon="3.66462">
        <ele>204</ele>
        <time>2019-04-03T07:48:09Z</time>
      </trkpt>
      <trkpt lat="47.59798" lon="3.66454">
        <ele>205</ele>
        <time>2019-04-03T07:48:13Z</time>
      </trkpt>
      <trkpt lat="47.59796" lon="3.66448">
        <ele>206</ele>
        <time>2019-04-03T07:48:16Z</time>
      </trkpt>
      <trkpt lat="47.59792" lon="3.66442">
        <ele>206</ele>
        <time>2019-04-03T07:48:19Z</time>
      </trkpt>
      <trkpt lat="47.59789" lon="3.66436">
        <ele>207</ele>
        <time>2019-04-03T07:48:24Z</time>
      </trkpt>
      <trkpt lat="47.59787" lon="3.66432">
        <ele>206</ele>
        <time>2019-04-03T07:48:26Z</time>
      </trkpt>
      <trkpt lat="47.59785" lon="3.66423">
        <ele>207</ele>
        <time>2019-04-03T07:48:30Z</time>
      </trkpt>
      <trkpt lat="47.59782" lon="3.66418">
        <ele>206</ele>
        <time>2019-04-03T07:48:33Z</time>
      </trkpt>
      <trkpt lat="47.59779" lon="3.66409">
        <ele>206</ele>
        <time>2019-04-03T07:48:38Z</time>
      </trkpt>
      <trkpt lat="47.59776" lon="3.66404">
        <ele>206</ele>
        <time>2019-04-03T07:48:41Z</time>
      </trkpt>
      <trkpt lat="47.59774" lon="3.66397">
        <ele>206</ele>
        <time>2019-04-03T07:48:44Z</time>
      </trkpt>
      <trkpt lat="47.59773" lon="3.66392">
        <ele>206</ele>
        <time>2019-04-03T07:48:47Z</time>
      </trkpt>
      <trkpt lat="47.59772" lon="3.66389">
        <ele>206</ele>
        <time>2019-04-03T07:48:50Z</time>
      </trkpt>
      <trkpt lat="47.59771" lon="3.66385">
        <ele>207</ele>
        <time>2019-04-03T07:48:52Z</time>
      </trkpt>
      <trkpt lat="47.59769" lon="3.66382">
        <ele>207</ele>
        <time>2019-04-03T07:48:54Z</time>
      </trkpt>
      <trkpt lat="47.59767" lon="3.66376">
        <ele>207</ele>
        <time>2019-04-03T07:48:57Z</time>
      </trkpt>
      <trkpt lat="47.59766" lon="3.66365">
        <ele>209</ele>
        <time>2019-04-03T07:49:04Z</time>
      </trkpt>
      <trkpt lat="47.59765" lon="3.66361">
        <ele>209</ele>
        <time>2019-04-03T07:49:06Z</time>
      </trkpt>
      <trkpt lat="47.59765" lon="3.66358">
        <ele>210</ele>
        <time>2019-04-03T07:49:08Z</time>
      </trkpt>
      <trkpt lat="47.59761" lon="3.66349">
        <ele>209</ele>
        <time>2019-04-03T07:49:12Z</time>
      </trkpt>
      <trkpt lat="47.59758" lon="3.66343">
        <ele>208</ele>
        <time>2019-04-03T07:49:16Z</time>
      </trkpt>
      <trkpt lat="47.59755" lon="3.66337">
        <ele>207</ele>
        <time>2019-04-03T07:49:20Z</time>
      </trkpt>
      <trkpt lat="47.59753" lon="3.66331">
        <ele>209</ele>
        <time>2019-04-03T07:49:24Z</time>
      </trkpt>
      <trkpt lat="47.59751" lon="3.66325">
        <ele>208</ele>
        <time>2019-04-03T07:49:28Z</time>
      </trkpt>
      <trkpt lat="47.59749" lon="3.66319">
        <ele>209</ele>
        <time>2019-04-03T07:49:32Z</time>
      </trkpt>
      <trkpt lat="47.59746" lon="3.66313">
        <ele>210</ele>
        <time>2019-04-03T07:49:35Z</time>
      </trkpt>
      <trkpt lat="47.59745" lon="3.66309">
        <ele>210</ele>
        <time>2019-04-03T07:49:38Z</time>
      </trkpt>
      <trkpt lat="47.59743" lon="3.66305">
        <ele>211</ele>
        <time>2019-04-03T07:49:41Z</time>
      </trkpt>
      <trkpt lat="47.59742" lon="3.66301">
        <ele>210</ele>
        <time>2019-04-03T07:49:43Z</time>
      </trkpt>
      <trkpt lat="47.5974" lon="3.66296">
        <ele>210</ele>
        <time>2019-04-03T07:49:45Z</time>
      </trkpt>
      <trkpt lat="47.59738" lon="3.66292">
        <ele>210</ele>
        <time>2019-04-03T07:49:47Z</time>
      </trkpt>
      <trkpt lat="47.59737" lon="3.66289">
        <ele>209</ele>
        <time>2019-04-03T07:49:48Z</time>
      </trkpt>
      <trkpt lat="47.59735" lon="3.66282">
        <ele>210</ele>
        <time>2019-04-03T07:49:51Z</time>
      </trkpt>
      <trkpt lat="47.59733" lon="3.66278">
        <ele>209</ele>
        <time>2019-04-03T07:49:53Z</time>
      </trkpt>
      <trkpt lat="47.59732" lon="3.66274">
        <ele>210</ele>
        <time>2019-04-03T07:49:55Z</time>
      </trkpt>
      <trkpt lat="47.59728" lon="3.66268">
        <ele>210</ele>
        <time>2019-04-03T07:49:59Z</time>
      </trkpt>
      <trkpt lat="47.59727" lon="3.6626">
        <ele>210</ele>
        <time>2019-04-03T07:50:03Z</time>
      </trkpt>
      <trkpt lat="47.59725" lon="3.66253">
        <ele>211</ele>
        <time>2019-04-03T07:50:06Z</time>
      </trkpt>
      <trkpt lat="47.59723" lon="3.66246">
        <ele>210</ele>
        <time>2019-04-03T07:50:10Z</time>
      </trkpt>
      <trkpt lat="47.59722" lon="3.66242">
        <ele>210</ele>
        <time>2019-04-03T07:50:12Z</time>
      </trkpt>
      <trkpt lat="47.5972" lon="3.66234">
        <ele>209</ele>
        <time>2019-04-03T07:50:16Z</time>
      </trkpt>
      <trkpt lat="47.59717" lon="3.66228">
        <ele>209</ele>
        <time>2019-04-03T07:50:19Z</time>
      </trkpt>
      <trkpt lat="47.59715" lon="3.66223">
        <ele>209</ele>
        <time>2019-04-03T07:50:22Z</time>
      </trkpt>
      <trkpt lat="47.59712" lon="3.66218">
        <ele>208</ele>
        <time>2019-04-03T07:50:24Z</time>
      </trkpt>
      <trkpt lat="47.59711" lon="3.66215">
        <ele>208</ele>
        <time>2019-04-03T07:50:26Z</time>
      </trkpt>
      <trkpt lat="47.5971" lon="3.66206">
        <ele>208</ele>
        <time>2019-04-03T07:50:30Z</time>
      </trkpt>
      <trkpt lat="47.59708" lon="3.662">
        <ele>209</ele>
        <time>2019-04-03T07:50:34Z</time>
      </trkpt>
      <trkpt lat="47.59706" lon="3.66194">
        <ele>209</ele>
        <time>2019-04-03T07:50:37Z</time>
      </trkpt>
      <trkpt lat="47.59703" lon="3.66184">
        <ele>209</ele>
        <time>2019-04-03T07:50:42Z</time>
      </trkpt>
      <trkpt lat="47.597" lon="3.66172">
        <ele>209</ele>
        <time>2019-04-03T07:50:47Z</time>
      </trkpt>
      <trkpt lat="47.59699" lon="3.66169">
        <ele>210</ele>
        <time>2019-04-03T07:50:50Z</time>
      </trkpt>
      <trkpt lat="47.59697" lon="3.66162">
        <ele>210</ele>
        <time>2019-04-03T07:50:54Z</time>
      </trkpt>
      <trkpt lat="47.59696" lon="3.66154">
        <ele>210</ele>
        <time>2019-04-03T07:50:58Z</time>
      </trkpt>
      <trkpt lat="47.59695" lon="3.66149">
        <ele>210</ele>
        <time>2019-04-03T07:51:01Z</time>
      </trkpt>
      <trkpt lat="47.59693" lon="3.6614">
        <ele>209</ele>
        <time>2019-04-03T07:51:04Z</time>
      </trkpt>
      <trkpt lat="47.59692" lon="3.66133">
        <ele>209</ele>
        <time>2019-04-03T07:51:08Z</time>
      </trkpt>
      <trkpt lat="47.59692" lon="3.66129">
        <ele>208</ele>
        <time>2019-04-03T07:51:11Z</time>
      </trkpt>
      <trkpt lat="47.59691" lon="3.66121">
        <ele>208</ele>
        <time>2019-04-03T07:51:15Z</time>
      </trkpt>
      <trkpt lat="47.59691" lon="3.66117">
        <ele>208</ele>
        <time>2019-04-03T07:51:17Z</time>
      </trkpt>
      <trkpt lat="47.59691" lon="3.66109">
        <ele>209</ele>
        <time>2019-04-03T07:51:21Z</time>
      </trkpt>
      <trkpt lat="47.59689" lon="3.66101">
        <ele>208</ele>
        <time>2019-04-03T07:51:25Z</time>
      </trkpt>
      <trkpt lat="47.59687" lon="3.66095">
        <ele>208</ele>
        <time>2019-04-03T07:51:28Z</time>
      </trkpt>
      <trkpt lat="47.59686" lon="3.66089">
        <ele>207</ele>
        <time>2019-04-03T07:51:31Z</time>
      </trkpt>
      <trkpt lat="47.59684" lon="3.66081">
        <ele>207</ele>
        <time>2019-04-03T07:51:35Z</time>
      </trkpt>
      <trkpt lat="47.59683" lon="3.66075">
        <ele>208</ele>
        <time>2019-04-03T07:51:38Z</time>
      </trkpt>
      <trkpt lat="47.59682" lon="3.66069">
        <ele>208</ele>
        <time>2019-04-03T07:51:41Z</time>
      </trkpt>
      <trkpt lat="47.5968" lon="3.66061">
        <ele>208</ele>
        <time>2019-04-03T07:51:45Z</time>
      </trkpt>
      <trkpt lat="47.59679" lon="3.66054">
        <ele>207</ele>
        <time>2019-04-03T07:51:48Z</time>
      </trkpt>
      <trkpt lat="47.59679" lon="3.66048">
        <ele>207</ele>
        <time>2019-04-03T07:51:51Z</time>
      </trkpt>
      <trkpt lat="47.59678" lon="3.66042">
        <ele>208</ele>
        <time>2019-04-03T07:51:55Z</time>
      </trkpt>
      <trkpt lat="47.59676" lon="3.66035">
        <ele>207</ele>
        <time>2019-04-03T07:51:59Z</time>
      </trkpt>
      <trkpt lat="47.59675" lon="3.66032">
        <ele>208</ele>
        <time>2019-04-03T07:52:01Z</time>
      </trkpt>
      <trkpt lat="47.59673" lon="3.66021">
        <ele>209</ele>
        <time>2019-04-03T07:52:07Z</time>
      </trkpt>
      <trkpt lat="47.59672" lon="3.66017">
        <ele>209</ele>
        <time>2019-04-03T07:52:09Z</time>
      </trkpt>
      <trkpt lat="47.59671" lon="3.6601">
        <ele>209</ele>
        <time>2019-04-03T07:52:12Z</time>
      </trkpt>
      <trkpt lat="47.5967" lon="3.66006">
        <ele>209</ele>
        <time>2019-04-03T07:52:13Z</time>
      </trkpt>
      <trkpt lat="47.59669" lon="3.66001">
        <ele>209</ele>
        <time>2019-04-03T07:52:15Z</time>
      </trkpt>
      <trkpt lat="47.59669" lon="3.65997">
        <ele>209</ele>
        <time>2019-04-03T07:52:17Z</time>
      </trkpt>
      <trkpt lat="47.59667" lon="3.65989">
        <ele>209</ele>
        <time>2019-04-03T07:52:21Z</time>
      </trkpt>
      <trkpt lat="47.59666" lon="3.65981">
        <ele>208</ele>
        <time>2019-04-03T07:52:25Z</time>
      </trkpt>
      <trkpt lat="47.59664" lon="3.65972">
        <ele>207</ele>
        <time>2019-04-03T07:52:30Z</time>
      </trkpt>
      <trkpt lat="47.59664" lon="3.65965">
        <ele>209</ele>
        <time>2019-04-03T07:52:34Z</time>
      </trkpt>
      <trkpt lat="47.59662" lon="3.65957">
        <ele>209</ele>
        <time>2019-04-03T07:52:38Z</time>
      </trkpt>
      <trkpt lat="47.59662" lon="3.65953">
        <ele>208</ele>
        <time>2019-04-03T07:52:40Z</time>
      </trkpt>
      <trkpt lat="47.5966" lon="3.65947">
        <ele>208</ele>
        <time>2019-04-03T07:52:43Z</time>
      </trkpt>
      <trkpt lat="47.59658" lon="3.65942">
        <ele>208</ele>
        <time>2019-04-03T07:52:45Z</time>
      </trkpt>
      <trkpt lat="47.59657" lon="3.65938">
        <ele>207</ele>
        <time>2019-04-03T07:52:47Z</time>
      </trkpt>
      <trkpt lat="47.59657" lon="3.65935">
        <ele>207</ele>
        <time>2019-04-03T07:52:49Z</time>
      </trkpt>
      <trkpt lat="47.59656" lon="3.65927">
        <ele>207</ele>
        <time>2019-04-03T07:52:53Z</time>
      </trkpt>
      <trkpt lat="47.59654" lon="3.6592">
        <ele>207</ele>
        <time>2019-04-03T07:52:57Z</time>
      </trkpt>
      <trkpt lat="47.59652" lon="3.65913">
        <ele>207</ele>
        <time>2019-04-03T07:53:01Z</time>
      </trkpt>
      <trkpt lat="47.5965" lon="3.65907">
        <ele>206</ele>
        <time>2019-04-03T07:53:04Z</time>
      </trkpt>
      <trkpt lat="47.59648" lon="3.65897">
        <ele>204</ele>
        <time>2019-04-03T07:53:09Z</time>
      </trkpt>
      <trkpt lat="47.59647" lon="3.65891">
        <ele>204</ele>
        <time>2019-04-03T07:53:12Z</time>
      </trkpt>
      <trkpt lat="47.59646" lon="3.65883">
        <ele>204</ele>
        <time>2019-04-03T07:53:16Z</time>
      </trkpt>
      <trkpt lat="47.59645" lon="3.65878">
        <ele>204</ele>
        <time>2019-04-03T07:53:18Z</time>
      </trkpt>
      <trkpt lat="47.59643" lon="3.6587">
        <ele>204</ele>
        <time>2019-04-03T07:53:22Z</time>
      </trkpt>
      <trkpt lat="47.59642" lon="3.65864">
        <ele>203</ele>
        <time>2019-04-03T07:53:25Z</time>
      </trkpt>
      <trkpt lat="47.59641" lon="3.65859">
        <ele>203</ele>
        <time>2019-04-03T07:53:27Z</time>
      </trkpt>
      <trkpt lat="47.59639" lon="3.65851">
        <ele>203</ele>
        <time>2019-04-03T07:53:31Z</time>
      </trkpt>
      <trkpt lat="47.59638" lon="3.65844">
        <ele>202</ele>
        <time>2019-04-03T07:53:34Z</time>
      </trkpt>
      <trkpt lat="47.59637" lon="3.6584">
        <ele>203</ele>
        <time>2019-04-03T07:53:36Z</time>
      </trkpt>
      <trkpt lat="47.59635" lon="3.65833">
        <ele>200</ele>
        <time>2019-04-03T07:53:41Z</time>
      </trkpt>
      <trkpt lat="47.59633" lon="3.65824">
        <ele>200</ele>
        <time>2019-04-03T07:53:44Z</time>
      </trkpt>
      <trkpt lat="47.59631" lon="3.65816">
        <ele>200</ele>
        <time>2019-04-03T07:53:48Z</time>
      </trkpt>
      <trkpt lat="47.5963" lon="3.65811">
        <ele>200</ele>
        <time>2019-04-03T07:53:50Z</time>
      </trkpt>
      <trkpt lat="47.5963" lon="3.65808">
        <ele>200</ele>
        <time>2019-04-03T07:53:53Z</time>
      </trkpt>
      <trkpt lat="47.59628" lon="3.65803">
        <ele>200</ele>
        <time>2019-04-03T07:53:56Z</time>
      </trkpt>
      <trkpt lat="47.59628" lon="3.65799">
        <ele>201</ele>
        <time>2019-04-03T07:53:58Z</time>
      </trkpt>
      <trkpt lat="47.59626" lon="3.65792">
        <ele>201</ele>
        <time>2019-04-03T07:54:01Z</time>
      </trkpt>
      <trkpt lat="47.59625" lon="3.65787">
        <ele>201</ele>
        <time>2019-04-03T07:54:03Z</time>
      </trkpt>
      <trkpt lat="47.59625" lon="3.65784">
        <ele>201</ele>
        <time>2019-04-03T07:54:05Z</time>
      </trkpt>
      <trkpt lat="47.59624" lon="3.65779">
        <ele>201</ele>
        <time>2019-04-03T07:54:07Z</time>
      </trkpt>
      <trkpt lat="47.59621" lon="3.65774">
        <ele>200</ele>
        <time>2019-04-03T07:54:10Z</time>
      </trkpt>
      <trkpt lat="47.59619" lon="3.65767">
        <ele>200</ele>
        <time>2019-04-03T07:54:13Z</time>
      </trkpt>
      <trkpt lat="47.59619" lon="3.65763">
        <ele>200</ele>
        <time>2019-04-03T07:54:15Z</time>
      </trkpt>
      <trkpt lat="47.59618" lon="3.65758">
        <ele>200</ele>
        <time>2019-04-03T07:54:17Z</time>
      </trkpt>
      <trkpt lat="47.59615" lon="3.65751">
        <ele>199</ele>
        <time>2019-04-03T07:54:21Z</time>
      </trkpt>
      <trkpt lat="47.59614" lon="3.65747">
        <ele>199</ele>
        <time>2019-04-03T07:54:23Z</time>
      </trkpt>
      <trkpt lat="47.59613" lon="3.65739">
        <ele>199</ele>
        <time>2019-04-03T07:54:27Z</time>
      </trkpt>
      <trkpt lat="47.59612" lon="3.65734">
        <ele>200</ele>
        <time>2019-04-03T07:54:29Z</time>
      </trkpt>
      <trkpt lat="47.59611" lon="3.65731">
        <ele>200</ele>
        <time>2019-04-03T07:54:31Z</time>
      </trkpt>
      <trkpt lat="47.59611" lon="3.65728">
        <ele>200</ele>
        <time>2019-04-03T07:54:33Z</time>
      </trkpt>
      <trkpt lat="47.59609" lon="3.6572">
        <ele>201</ele>
        <time>2019-04-03T07:54:37Z</time>
      </trkpt>
      <trkpt lat="47.59608" lon="3.65716">
        <ele>201</ele>
        <time>2019-04-03T07:54:39Z</time>
      </trkpt>
      <trkpt lat="47.59607" lon="3.65708">
        <ele>201</ele>
        <time>2019-04-03T07:54:43Z</time>
      </trkpt>
      <trkpt lat="47.59606" lon="3.65705">
        <ele>201</ele>
        <time>2019-04-03T07:54:45Z</time>
      </trkpt>
      <trkpt lat="47.59604" lon="3.65698">
        <ele>201</ele>
        <time>2019-04-03T07:54:48Z</time>
      </trkpt>
      <trkpt lat="47.59604" lon="3.65691">
        <ele>201</ele>
        <time>2019-04-03T07:54:52Z</time>
      </trkpt>
      <trkpt lat="47.59604" lon="3.65684">
        <ele>201</ele>
        <time>2019-04-03T07:54:56Z</time>
      </trkpt>
      <trkpt lat="47.59603" lon="3.65675">
        <ele>202</ele>
        <time>2019-04-03T07:55:01Z</time>
      </trkpt>
      <trkpt lat="47.59603" lon="3.65669">
        <ele>201</ele>
        <time>2019-04-03T07:55:05Z</time>
      </trkpt>
      <trkpt lat="47.59601" lon="3.65662">
        <ele>201</ele>
        <time>2019-04-03T07:55:09Z</time>
      </trkpt>
      <trkpt lat="47.59602" lon="3.65655">
        <ele>201</ele>
        <time>2019-04-03T07:55:13Z</time>
      </trkpt>
      <trkpt lat="47.59601" lon="3.65646">
        <ele>202</ele>
        <time>2019-04-03T07:55:17Z</time>
      </trkpt>
      <trkpt lat="47.59602" lon="3.65636">
        <ele>201</ele>
        <time>2019-04-03T07:55:21Z</time>
      </trkpt>
      <trkpt lat="47.59601" lon="3.65629">
        <ele>202</ele>
        <time>2019-04-03T07:55:24Z</time>
      </trkpt>
      <trkpt lat="47.596" lon="3.65624">
        <ele>202</ele>
        <time>2019-04-03T07:55:26Z</time>
      </trkpt>
      <trkpt lat="47.59599" lon="3.65617">
        <ele>202</ele>
        <time>2019-04-03T07:55:29Z</time>
      </trkpt>
      <trkpt lat="47.59598" lon="3.65613">
        <ele>202</ele>
        <time>2019-04-03T07:55:31Z</time>
      </trkpt>
      <trkpt lat="47.59597" lon="3.6561">
        <ele>202</ele>
        <time>2019-04-03T07:55:33Z</time>
      </trkpt>
      <trkpt lat="47.59596" lon="3.65603">
        <ele>202</ele>
        <time>2019-04-03T07:55:36Z</time>
      </trkpt>
      <trkpt lat="47.59595" lon="3.65597">
        <ele>203</ele>
        <time>2019-04-03T07:55:39Z</time>
      </trkpt>
      <trkpt lat="47.59594" lon="3.65589">
        <ele>203</ele>
        <time>2019-04-03T07:55:43Z</time>
      </trkpt>
      <trkpt lat="47.59593" lon="3.65582">
        <ele>203</ele>
        <time>2019-04-03T07:55:46Z</time>
      </trkpt>
      <trkpt lat="47.59592" lon="3.65575">
        <ele>203</ele>
        <time>2019-04-03T07:55:50Z</time>
      </trkpt>
      <trkpt lat="47.59592" lon="3.65571">
        <ele>203</ele>
        <time>2019-04-03T07:55:52Z</time>
      </trkpt>
      <trkpt lat="47.59592" lon="3.65567">
        <ele>203</ele>
        <time>2019-04-03T07:55:54Z</time>
      </trkpt>
      <trkpt lat="47.59591" lon="3.6556">
        <ele>203</ele>
        <time>2019-04-03T07:55:58Z</time>
      </trkpt>
      <trkpt lat="47.5959" lon="3.65555">
        <ele>204</ele>
        <time>2019-04-03T07:56:00Z</time>
      </trkpt>
      <trkpt lat="47.59589" lon="3.65548">
        <ele>203</ele>
        <time>2019-04-03T07:56:04Z</time>
      </trkpt>
      <trkpt lat="47.59588" lon="3.65544">
        <ele>204</ele>
        <time>2019-04-03T07:56:06Z</time>
      </trkpt>
      <trkpt lat="47.59587" lon="3.65538">
        <ele>203</ele>
        <time>2019-04-03T07:56:09Z</time>
      </trkpt>
      <trkpt lat="47.59586" lon="3.65529">
        <ele>204</ele>
        <time>2019-04-03T07:56:12Z</time>
      </trkpt>
      <trkpt lat="47.59586" lon="3.65521">
        <ele>205</ele>
        <time>2019-04-03T07:56:16Z</time>
      </trkpt>
      <trkpt lat="47.59584" lon="3.65514">
        <ele>205</ele>
        <time>2019-04-03T07:56:20Z</time>
      </trkpt>
      <trkpt lat="47.59583" lon="3.65506">
        <ele>205</ele>
        <time>2019-04-03T07:56:24Z</time>
      </trkpt>
      <trkpt lat="47.59581" lon="3.65499">
        <ele>207</ele>
        <time>2019-04-03T07:56:29Z</time>
      </trkpt>
      <trkpt lat="47.5958" lon="3.65491">
        <ele>207</ele>
        <time>2019-04-03T07:56:33Z</time>
      </trkpt>
      <trkpt lat="47.5958" lon="3.65487">
        <ele>207</ele>
        <time>2019-04-03T07:56:35Z</time>
      </trkpt>
      <trkpt lat="47.59579" lon="3.65482">
        <ele>207</ele>
        <time>2019-04-03T07:56:38Z</time>
      </trkpt>
      <trkpt lat="47.59579" lon="3.65478">
        <ele>207</ele>
        <time>2019-04-03T07:56:40Z</time>
      </trkpt>
      <trkpt lat="47.59578" lon="3.65469">
        <ele>207</ele>
        <time>2019-04-03T07:56:44Z</time>
      </trkpt>
      <trkpt lat="47.59577" lon="3.65463">
        <ele>207</ele>
        <time>2019-04-03T07:56:47Z</time>
      </trkpt>
      <trkpt lat="47.59576" lon="3.65459">
        <ele>207</ele>
        <time>2019-04-03T07:56:49Z</time>
      </trkpt>
      <trkpt lat="47.59575" lon="3.65453">
        <ele>207</ele>
        <time>2019-04-03T07:56:52Z</time>
      </trkpt>
      <trkpt lat="47.59574" lon="3.65448">
        <ele>207</ele>
        <time>2019-04-03T07:56:55Z</time>
      </trkpt>
      <trkpt lat="47.59574" lon="3.65439">
        <ele>207</ele>
        <time>2019-04-03T07:56:58Z</time>
      </trkpt>
      <trkpt lat="47.59574" lon="3.65435">
        <ele>207</ele>
        <time>2019-04-03T07:57:00Z</time>
      </trkpt>
      <trkpt lat="47.59574" lon="3.65431">
        <ele>207</ele>
        <time>2019-04-03T07:57:02Z</time>
      </trkpt>
      <trkpt lat="47.59573" lon="3.65427">
        <ele>207</ele>
        <time>2019-04-03T07:57:04Z</time>
      </trkpt>
      <trkpt lat="47.59573" lon="3.65418">
        <ele>208</ele>
        <time>2019-04-03T07:57:08Z</time>
      </trkpt>
      <trkpt lat="47.59572" lon="3.65411">
        <ele>207</ele>
        <time>2019-04-03T07:57:12Z</time>
      </trkpt>
      <trkpt lat="47.59572" lon="3.65404">
        <ele>208</ele>
        <time>2019-04-03T07:57:17Z</time>
      </trkpt>
      <trkpt lat="47.59572" lon="3.654">
        <ele>208</ele>
        <time>2019-04-03T07:57:19Z</time>
      </trkpt>
      <trkpt lat="47.59573" lon="3.65396">
        <ele>208</ele>
        <time>2019-04-03T07:57:21Z</time>
      </trkpt>
      <trkpt lat="47.59573" lon="3.65388">
        <ele>209</ele>
        <time>2019-04-03T07:57:25Z</time>
      </trkpt>
      <trkpt lat="47.59572" lon="3.65384">
        <ele>209</ele>
        <time>2019-04-03T07:57:27Z</time>
      </trkpt>
      <trkpt lat="47.59572" lon="3.6538">
        <ele>210</ele>
        <time>2019-04-03T07:57:28Z</time>
      </trkpt>
      <trkpt lat="47.59572" lon="3.65371">
        <ele>209</ele>
        <time>2019-04-03T07:57:32Z</time>
      </trkpt>
      <trkpt lat="47.59573" lon="3.65367">
        <ele>210</ele>
        <time>2019-04-03T07:57:34Z</time>
      </trkpt>
      <trkpt lat="47.59573" lon="3.65362">
        <ele>210</ele>
        <time>2019-04-03T07:57:36Z</time>
      </trkpt>
      <trkpt lat="47.59573" lon="3.65359">
        <ele>210</ele>
        <time>2019-04-03T07:57:38Z</time>
      </trkpt>
      <trkpt lat="47.59573" lon="3.6535">
        <ele>210</ele>
        <time>2019-04-03T07:57:43Z</time>
      </trkpt>
      <trkpt lat="47.59574" lon="3.65342">
        <ele>210</ele>
        <time>2019-04-03T07:57:47Z</time>
      </trkpt>
      <trkpt lat="47.59573" lon="3.65338">
        <ele>210</ele>
        <time>2019-04-03T07:57:50Z</time>
      </trkpt>
      <trkpt lat="47.59574" lon="3.65334">
        <ele>210</ele>
        <time>2019-04-03T07:57:52Z</time>
      </trkpt>
      <trkpt lat="47.59574" lon="3.65327">
        <ele>212</ele>
        <time>2019-04-03T07:57:54Z</time>
      </trkpt>
      <trkpt lat="47.59575" lon="3.65319">
        <ele>212</ele>
        <time>2019-04-03T07:57:59Z</time>
      </trkpt>
      <trkpt lat="47.59576" lon="3.65316">
        <ele>212</ele>
        <time>2019-04-03T07:58:01Z</time>
      </trkpt>
      <trkpt lat="47.59576" lon="3.65309">
        <ele>212</ele>
        <time>2019-04-03T07:58:04Z</time>
      </trkpt>
      <trkpt lat="47.59576" lon="3.65302">
        <ele>212</ele>
        <time>2019-04-03T07:58:07Z</time>
      </trkpt>
      <trkpt lat="47.59576" lon="3.65297">
        <ele>212</ele>
        <time>2019-04-03T07:58:09Z</time>
      </trkpt>
      <trkpt lat="47.59575" lon="3.65291">
        <ele>211</ele>
        <time>2019-04-03T07:58:13Z</time>
      </trkpt>
      <trkpt lat="47.59576" lon="3.65283">
        <ele>211</ele>
        <time>2019-04-03T07:58:16Z</time>
      </trkpt>
      <trkpt lat="47.59576" lon="3.65275">
        <ele>211</ele>
        <time>2019-04-03T07:58:20Z</time>
      </trkpt>
      <trkpt lat="47.59576" lon="3.65269">
        <ele>211</ele>
        <time>2019-04-03T07:58:23Z</time>
      </trkpt>
      <trkpt lat="47.59575" lon="3.65265">
        <ele>211</ele>
        <time>2019-04-03T07:58:24Z</time>
      </trkpt>
      <trkpt lat="47.59574" lon="3.65258">
        <ele>211</ele>
        <time>2019-04-03T07:58:27Z</time>
      </trkpt>
      <trkpt lat="47.59574" lon="3.65252">
        <ele>212</ele>
        <time>2019-04-03T07:58:30Z</time>
      </trkpt>
      <trkpt lat="47.59574" lon="3.65248">
        <ele>212</ele>
        <time>2019-04-03T07:58:32Z</time>
      </trkpt>
      <trkpt lat="47.59574" lon="3.65244">
        <ele>211</ele>
        <time>2019-04-03T07:58:34Z</time>
      </trkpt>
      <trkpt lat="47.59574" lon="3.65236">
        <ele>211</ele>
        <time>2019-04-03T07:58:39Z</time>
      </trkpt>
      <trkpt lat="47.59573" lon="3.6523">
        <ele>211</ele>
        <time>2019-04-03T07:58:42Z</time>
      </trkpt>
      <trkpt lat="47.59572" lon="3.65223">
        <ele>212</ele>
        <time>2019-04-03T07:58:45Z</time>
      </trkpt>
      <trkpt lat="47.59572" lon="3.65219">
        <ele>212</ele>
        <time>2019-04-03T07:58:46Z</time>
      </trkpt>
      <trkpt lat="47.5957" lon="3.6521">
        <ele>211</ele>
        <time>2019-04-03T07:58:50Z</time>
      </trkpt>
      <trkpt lat="47.5957" lon="3.65205">
        <ele>211</ele>
        <time>2019-04-03T07:58:52Z</time>
      </trkpt>
      <trkpt lat="47.59569" lon="3.65202">
        <ele>211</ele>
        <time>2019-04-03T07:58:54Z</time>
      </trkpt>
      <trkpt lat="47.59568" lon="3.65193">
        <ele>211</ele>
        <time>2019-04-03T07:58:58Z</time>
      </trkpt>
      <trkpt lat="47.59568" lon="3.65185">
        <ele>211</ele>
        <time>2019-04-03T07:59:03Z</time>
      </trkpt>
      <trkpt lat="47.59568" lon="3.65182">
        <ele>210</ele>
        <time>2019-04-03T07:59:05Z</time>
      </trkpt>
      <trkpt lat="47.59569" lon="3.65178">
        <ele>210</ele>
        <time>2019-04-03T07:59:07Z</time>
      </trkpt>
      <trkpt lat="47.59569" lon="3.65174">
        <ele>211</ele>
        <time>2019-04-03T07:59:09Z</time>
      </trkpt>
      <trkpt lat="47.59568" lon="3.65169">
        <ele>211</ele>
        <time>2019-04-03T07:59:11Z</time>
      </trkpt>
      <trkpt lat="47.59568" lon="3.65164">
        <ele>211</ele>
        <time>2019-04-03T07:59:13Z</time>
      </trkpt>
      <trkpt lat="47.59568" lon="3.6516">
        <ele>211</ele>
        <time>2019-04-03T07:59:15Z</time>
      </trkpt>
      <trkpt lat="47.59567" lon="3.65155">
        <ele>211</ele>
        <time>2019-04-03T07:59:17Z</time>
      </trkpt>
      <trkpt lat="47.59566" lon="3.65151">
        <ele>210</ele>
        <time>2019-04-03T07:59:19Z</time>
      </trkpt>
      <trkpt lat="47.59566" lon="3.65146">
        <ele>210</ele>
        <time>2019-04-03T07:59:21Z</time>
      </trkpt>
      <trkpt lat="47.59565" lon="3.65142">
        <ele>210</ele>
        <time>2019-04-03T07:59:23Z</time>
      </trkpt>
      <trkpt lat="47.59565" lon="3.65138">
        <ele>211</ele>
        <time>2019-04-03T07:59:25Z</time>
      </trkpt>
      <trkpt lat="47.59564" lon="3.65135">
        <ele>211</ele>
        <time>2019-04-03T07:59:27Z</time>
      </trkpt>
      <trkpt lat="47.59564" lon="3.65126">
        <ele>211</ele>
        <time>2019-04-03T07:59:31Z</time>
      </trkpt>
      <trkpt lat="47.59562" lon="3.65119">
        <ele>211</ele>
        <time>2019-04-03T07:59:34Z</time>
      </trkpt>
      <trkpt lat="47.59562" lon="3.65112">
        <ele>211</ele>
        <time>2019-04-03T07:59:37Z</time>
      </trkpt>
      <trkpt lat="47.59561" lon="3.65104">
        <ele>212</ele>
        <time>2019-04-03T07:59:41Z</time>
      </trkpt>
      <trkpt lat="47.59561" lon="3.651">
        <ele>212</ele>
        <time>2019-04-03T07:59:43Z</time>
      </trkpt>
      <trkpt lat="47.59561" lon="3.65095">
        <ele>212</ele>
        <time>2019-04-03T07:59:45Z</time>
      </trkpt>
      <trkpt lat="47.5956" lon="3.65089">
        <ele>212</ele>
        <time>2019-04-03T07:59:48Z</time>
      </trkpt>
      <trkpt lat="47.59559" lon="3.65081">
        <ele>212</ele>
        <time>2019-04-03T07:59:51Z</time>
      </trkpt>
      <trkpt lat="47.59559" lon="3.65077">
        <ele>212</ele>
        <time>2019-04-03T07:59:53Z</time>
      </trkpt>
      <trkpt lat="47.5956" lon="3.6507">
        <ele>212</ele>
        <time>2019-04-03T07:59:57Z</time>
      </trkpt>
      <trkpt lat="47.5956" lon="3.65061">
        <ele>212</ele>
        <time>2019-04-03T08:00:01Z</time>
      </trkpt>
      <trkpt lat="47.59558" lon="3.65054">
        <ele>212</ele>
        <time>2019-04-03T08:00:05Z</time>
      </trkpt>
      <trkpt lat="47.59557" lon="3.65046">
        <ele>212</ele>
        <time>2019-04-03T08:00:09Z</time>
      </trkpt>
      <trkpt lat="47.59557" lon="3.65041">
        <ele>213</ele>
        <time>2019-04-03T08:00:12Z</time>
      </trkpt>
      <trkpt lat="47.59557" lon="3.65035">
        <ele>213</ele>
        <time>2019-04-03T08:00:15Z</time>
      </trkpt>
      <trkpt lat="47.59557" lon="3.65031">
        <ele>213</ele>
        <time>2019-04-03T08:00:17Z</time>
      </trkpt>
      <trkpt lat="47.59557" lon="3.65025">
        <ele>213</ele>
        <time>2019-04-03T08:00:20Z</time>
      </trkpt>
      <trkpt lat="47.59558" lon="3.65018">
        <ele>214</ele>
        <time>2019-04-03T08:00:23Z</time>
      </trkpt>
      <trkpt lat="47.59557" lon="3.6501">
        <ele>214</ele>
        <time>2019-04-03T08:00:27Z</time>
      </trkpt>
      <trkpt lat="47.59557" lon="3.65007">
        <ele>214</ele>
        <time>2019-04-03T08:00:29Z</time>
      </trkpt>
      <trkpt lat="47.59557" lon="3.65003">
        <ele>214</ele>
        <time>2019-04-03T08:00:31Z</time>
      </trkpt>
      <trkpt lat="47.59557" lon="3.64999">
        <ele>214</ele>
        <time>2019-04-03T08:00:33Z</time>
      </trkpt>
      <trkpt lat="47.59557" lon="3.64995">
        <ele>214</ele>
        <time>2019-04-03T08:00:35Z</time>
      </trkpt>
      <trkpt lat="47.59557" lon="3.64991">
        <ele>214</ele>
        <time>2019-04-03T08:00:37Z</time>
      </trkpt>
      <trkpt lat="47.59557" lon="3.64987">
        <ele>215</ele>
        <time>2019-04-03T08:00:39Z</time>
      </trkpt>
      <trkpt lat="47.59556" lon="3.64983">
        <ele>215</ele>
        <time>2019-04-03T08:00:41Z</time>
      </trkpt>
      <trkpt lat="47.59556" lon="3.64975">
        <ele>216</ele>
        <time>2019-04-03T08:00:45Z</time>
      </trkpt>
      <trkpt lat="47.59555" lon="3.64967">
        <ele>215</ele>
        <time>2019-04-03T08:00:49Z</time>
      </trkpt>
      <trkpt lat="47.59554" lon="3.64961">
        <ele>215</ele>
        <time>2019-04-03T08:00:52Z</time>
      </trkpt>
      <trkpt lat="47.59553" lon="3.64956">
        <ele>215</ele>
        <time>2019-04-03T08:00:54Z</time>
      </trkpt>
      <trkpt lat="47.59552" lon="3.64951">
        <ele>216</ele>
        <time>2019-04-03T08:00:56Z</time>
      </trkpt>
      <trkpt lat="47.59552" lon="3.64947">
        <ele>216</ele>
        <time>2019-04-03T08:00:58Z</time>
      </trkpt>
      <trkpt lat="47.59551" lon="3.64939">
        <ele>216</ele>
        <time>2019-04-03T08:01:02Z</time>
      </trkpt>
      <trkpt lat="47.5955" lon="3.64931">
        <ele>216</ele>
        <time>2019-04-03T08:01:06Z</time>
      </trkpt>
      <trkpt lat="47.5955" lon="3.64928">
        <ele>216</ele>
        <time>2019-04-03T08:01:08Z</time>
      </trkpt>
      <trkpt lat="47.5955" lon="3.64924">
        <ele>216</ele>
        <time>2019-04-03T08:01:10Z</time>
      </trkpt>
      <trkpt lat="47.59549" lon="3.6492">
        <ele>217</ele>
        <time>2019-04-03T08:01:12Z</time>
      </trkpt>
      <trkpt lat="47.5955" lon="3.64912">
        <ele>218</ele>
        <time>2019-04-03T08:01:16Z</time>
      </trkpt>
      <trkpt lat="47.5955" lon="3.64908">
        <ele>219</ele>
        <time>2019-04-03T08:01:18Z</time>
      </trkpt>
      <trkpt lat="47.59549" lon="3.64902">
        <ele>218</ele>
        <time>2019-04-03T08:01:21Z</time>
      </trkpt>
      <trkpt lat="47.59549" lon="3.64896">
        <ele>218</ele>
        <time>2019-04-03T08:01:24Z</time>
      </trkpt>
      <trkpt lat="47.59549" lon="3.64892">
        <ele>218</ele>
        <time>2019-04-03T08:01:26Z</time>
      </trkpt>
      <trkpt lat="47.59549" lon="3.64885">
        <ele>219</ele>
        <time>2019-04-03T08:01:30Z</time>
      </trkpt>
      <trkpt lat="47.59548" lon="3.64881">
        <ele>219</ele>
        <time>2019-04-03T08:01:32Z</time>
      </trkpt>
      <trkpt lat="47.59548" lon="3.64876">
        <ele>219</ele>
        <time>2019-04-03T08:01:34Z</time>
      </trkpt>
      <trkpt lat="47.59548" lon="3.6487">
        <ele>218</ele>
        <time>2019-04-03T08:01:37Z</time>
      </trkpt>
      <trkpt lat="47.59548" lon="3.64865">
        <ele>219</ele>
        <time>2019-04-03T08:01:39Z</time>
      </trkpt>
      <trkpt lat="47.59548" lon="3.64862">
        <ele>219</ele>
        <time>2019-04-03T08:01:41Z</time>
      </trkpt>
      <trkpt lat="47.59547" lon="3.64854">
        <ele>218</ele>
        <time>2019-04-03T08:01:45Z</time>
      </trkpt>
      <trkpt lat="47.59546" lon="3.64849">
        <ele>218</ele>
        <time>2019-04-03T08:01:47Z</time>
      </trkpt>
      <trkpt lat="47.59546" lon="3.64842">
        <ele>219</ele>
        <time>2019-04-03T08:01:51Z</time>
      </trkpt>
      <trkpt lat="47.59546" lon="3.64837">
        <ele>219</ele>
        <time>2019-04-03T08:01:54Z</time>
      </trkpt>
      <trkpt lat="47.59545" lon="3.64829">
        <ele>219</ele>
        <time>2019-04-03T08:01:58Z</time>
      </trkpt>
      <trkpt lat="47.59544" lon="3.64821">
        <ele>219</ele>
        <time>2019-04-03T08:02:02Z</time>
      </trkpt>
      <trkpt lat="47.59544" lon="3.64817">
        <ele>218</ele>
        <time>2019-04-03T08:02:04Z</time>
      </trkpt>
      <trkpt lat="47.59543" lon="3.64812">
        <ele>219</ele>
        <time>2019-04-03T08:02:07Z</time>
      </trkpt>
      <trkpt lat="47.59543" lon="3.64805">
        <ele>219</ele>
        <time>2019-04-03T08:02:12Z</time>
      </trkpt>
      <trkpt lat="47.59543" lon="3.64801">
        <ele>217</ele>
        <time>2019-04-03T08:02:19Z</time>
      </trkpt>
      <trkpt lat="47.59543" lon="3.64801">
        <ele>217</ele>
        <time>2019-04-03T08:02:28Z</time>
      </trkpt>
      <trkpt lat="47.59544" lon="3.64794">
        <ele>214</ele>
        <time>2019-04-03T08:20:47Z</time>
      </trkpt>
      <trkpt lat="47.59544" lon="3.64786">
        <ele>214</ele>
        <time>2019-04-03T08:20:53Z</time>
      </trkpt>
      <trkpt lat="47.59544" lon="3.6478">
        <ele>215</ele>
        <time>2019-04-03T08:20:59Z</time>
      </trkpt>
      <trkpt lat="47.59544" lon="3.64773">
        <ele>215</ele>
        <time>2019-04-03T08:21:04Z</time>
      </trkpt>
      <trkpt lat="47.59544" lon="3.64769">
        <ele>214</ele>
        <time>2019-04-03T08:21:07Z</time>
      </trkpt>
      <trkpt lat="47.59544" lon="3.64765">
        <ele>214</ele>
        <time>2019-04-03T08:21:09Z</time>
      </trkpt>
      <trkpt lat="47.59543" lon="3.64759">
        <ele>215</ele>
        <time>2019-04-03T08:21:13Z</time>
      </trkpt>
      <trkpt lat="47.59542" lon="3.64752">
        <ele>214</ele>
        <time>2019-04-03T08:21:18Z</time>
      </trkpt>
      <trkpt lat="47.59544" lon="3.64744">
        <ele>214</ele>
        <time>2019-04-03T08:21:23Z</time>
      </trkpt>
      <trkpt lat="47.59544" lon="3.64738">
        <ele>214</ele>
        <time>2019-04-03T08:21:27Z</time>
      </trkpt>
      <trkpt lat="47.59543" lon="3.64733">
        <ele>214</ele>
        <time>2019-04-03T08:21:30Z</time>
      </trkpt>
      <trkpt lat="47.59543" lon="3.64729">
        <ele>214</ele>
        <time>2019-04-03T08:21:34Z</time>
      </trkpt>
      <trkpt lat="47.59543" lon="3.64725">
        <ele>214</ele>
        <time>2019-04-03T08:21:36Z</time>
      </trkpt>
      <trkpt lat="47.59544" lon="3.64718">
        <ele>214</ele>
        <time>2019-04-03T08:21:39Z</time>
      </trkpt>
      <trkpt lat="47.59544" lon="3.64711">
        <ele>214</ele>
        <time>2019-04-03T08:21:43Z</time>
      </trkpt>
      <trkpt lat="47.59543" lon="3.64707">
        <ele>215</ele>
        <time>2019-04-03T08:21:45Z</time>
      </trkpt>
      <trkpt lat="47.59543" lon="3.647">
        <ele>214</ele>
        <time>2019-04-03T08:21:49Z</time>
      </trkpt>
      <trkpt lat="47.59543" lon="3.64693">
        <ele>214</ele>
        <time>2019-04-03T08:21:53Z</time>
      </trkpt>
      <trkpt lat="47.59542" lon="3.64689">
        <ele>215</ele>
        <time>2019-04-03T08:21:55Z</time>
      </trkpt>
      <trkpt lat="47.59542" lon="3.64685">
        <ele>215</ele>
        <time>2019-04-03T08:21:58Z</time>
      </trkpt>
      <trkpt lat="47.59542" lon="3.64676">
        <ele>216</ele>
        <time>2019-04-03T08:22:03Z</time>
      </trkpt>
      <trkpt lat="47.59542" lon="3.64671">
        <ele>217</ele>
        <time>2019-04-03T08:22:06Z</time>
      </trkpt>
      <trkpt lat="47.59542" lon="3.64664">
        <ele>217</ele>
        <time>2019-04-03T08:22:10Z</time>
      </trkpt>
      <trkpt lat="47.59542" lon="3.6466">
        <ele>217</ele>
        <time>2019-04-03T08:22:12Z</time>
      </trkpt>
      <trkpt lat="47.59542" lon="3.64653">
        <ele>216</ele>
        <time>2019-04-03T08:22:16Z</time>
      </trkpt>
      <trkpt lat="47.59541" lon="3.64646">
        <ele>215</ele>
        <time>2019-04-03T08:22:21Z</time>
      </trkpt>
      <trkpt lat="47.59541" lon="3.64639">
        <ele>215</ele>
        <time>2019-04-03T08:22:25Z</time>
      </trkpt>
      <trkpt lat="47.59541" lon="3.64634">
        <ele>215</ele>
        <time>2019-04-03T08:22:28Z</time>
      </trkpt>
      <trkpt lat="47.59542" lon="3.64626">
        <ele>216</ele>
        <time>2019-04-03T08:22:32Z</time>
      </trkpt>
      <trkpt lat="47.59542" lon="3.64622">
        <ele>216</ele>
        <time>2019-04-03T08:22:34Z</time>
      </trkpt>
      <trkpt lat="47.59542" lon="3.64617">
        <ele>216</ele>
        <time>2019-04-03T08:22:37Z</time>
      </trkpt>
      <trkpt lat="47.59541" lon="3.64608">
        <ele>216</ele>
        <time>2019-04-03T08:22:42Z</time>
      </trkpt>
      <trkpt lat="47.59542" lon="3.64601">
        <ele>217</ele>
        <time>2019-04-03T08:22:46Z</time>
      </trkpt>
      <trkpt lat="47.59542" lon="3.64593">
        <ele>216</ele>
        <time>2019-04-03T08:22:50Z</time>
      </trkpt>
      <trkpt lat="47.59542" lon="3.64589">
        <ele>217</ele>
        <time>2019-04-03T08:22:53Z</time>
      </trkpt>
      <trkpt lat="47.59542" lon="3.64585">
        <ele>216</ele>
        <time>2019-04-03T08:22:55Z</time>
      </trkpt>
      <trkpt lat="47.59542" lon="3.64577">
        <ele>216</ele>
        <time>2019-04-03T08:23:00Z</time>
      </trkpt>
      <trkpt lat="47.59542" lon="3.6457">
        <ele>216</ele>
        <time>2019-04-03T08:23:04Z</time>
      </trkpt>
      <trkpt lat="47.59542" lon="3.64564">
        <ele>216</ele>
        <time>2019-04-03T08:23:08Z</time>
      </trkpt>
      <trkpt lat="47.59542" lon="3.6456">
        <ele>216</ele>
        <time>2019-04-03T08:23:10Z</time>
      </trkpt>
      <trkpt lat="47.59541" lon="3.64556">
        <ele>215</ele>
        <time>2019-04-03T08:23:12Z</time>
      </trkpt>
      <trkpt lat="47.59541" lon="3.64553">
        <ele>215</ele>
        <time>2019-04-03T08:23:14Z</time>
      </trkpt>
      <trkpt lat="47.59541" lon="3.64544">
        <ele>215</ele>
        <time>2019-04-03T08:23:19Z</time>
      </trkpt>
      <trkpt lat="47.59541" lon="3.64537">
        <ele>216</ele>
        <time>2019-04-03T08:23:23Z</time>
      </trkpt>
      <trkpt lat="47.59541" lon="3.64529">
        <ele>216</ele>
        <time>2019-04-03T08:23:27Z</time>
      </trkpt>
      <trkpt lat="47.59541" lon="3.64522">
        <ele>215</ele>
        <time>2019-04-03T08:23:31Z</time>
      </trkpt>
      <trkpt lat="47.59542" lon="3.64516">
        <ele>216</ele>
        <time>2019-04-03T08:23:34Z</time>
      </trkpt>
      <trkpt lat="47.59542" lon="3.64511">
        <ele>217</ele>
        <time>2019-04-03T08:23:37Z</time>
      </trkpt>
      <trkpt lat="47.59542" lon="3.64505">
        <ele>216</ele>
        <time>2019-04-03T08:23:41Z</time>
      </trkpt>
      <trkpt lat="47.59541" lon="3.64502">
        <ele>218</ele>
        <time>2019-04-03T08:23:44Z</time>
      </trkpt>
      <trkpt lat="47.59541" lon="3.64498">
        <ele>217</ele>
        <time>2019-04-03T08:23:46Z</time>
      </trkpt>
      <trkpt lat="47.59542" lon="3.64489">
        <ele>219</ele>
        <time>2019-04-03T08:23:51Z</time>
      </trkpt>
      <trkpt lat="47.59542" lon="3.64485">
        <ele>219</ele>
        <time>2019-04-03T08:23:53Z</time>
      </trkpt>
      <trkpt lat="47.59543" lon="3.6448">
        <ele>219</ele>
        <time>2019-04-03T08:23:56Z</time>
      </trkpt>
      <trkpt lat="47.59543" lon="3.64475">
        <ele>219</ele>
        <time>2019-04-03T08:23:59Z</time>
      </trkpt>
      <trkpt lat="47.59543" lon="3.64468">
        <ele>219</ele>
        <time>2019-04-03T08:24:03Z</time>
      </trkpt>
      <trkpt lat="47.59544" lon="3.64461">
        <ele>220</ele>
        <time>2019-04-03T08:24:06Z</time>
      </trkpt>
      <trkpt lat="47.59545" lon="3.64458">
        <ele>219</ele>
        <time>2019-04-03T08:24:09Z</time>
      </trkpt>
      <trkpt lat="47.59545" lon="3.64453">
        <ele>219</ele>
        <time>2019-04-03T08:24:12Z</time>
      </trkpt>
      <trkpt lat="47.59546" lon="3.64446">
        <ele>220</ele>
        <time>2019-04-03T08:24:15Z</time>
      </trkpt>
      <trkpt lat="47.59547" lon="3.64442">
        <ele>220</ele>
        <time>2019-04-03T08:24:18Z</time>
      </trkpt>
      <trkpt lat="47.59547" lon="3.6443">
        <ele>221</ele>
        <time>2019-04-03T08:24:26Z</time>
      </trkpt>
      <trkpt lat="47.59549" lon="3.64421">
        <ele>221</ele>
        <time>2019-04-03T08:24:31Z</time>
      </trkpt>
      <trkpt lat="47.5955" lon="3.64414">
        <ele>221</ele>
        <time>2019-04-03T08:24:35Z</time>
      </trkpt>
      <trkpt lat="47.59552" lon="3.64407">
        <ele>221</ele>
        <time>2019-04-03T08:24:41Z</time>
      </trkpt>
      <trkpt lat="47.59553" lon="3.64397">
        <ele>222</ele>
        <time>2019-04-03T08:24:47Z</time>
      </trkpt>
      <trkpt lat="47.59554" lon="3.64391">
        <ele>222</ele>
        <time>2019-04-03T08:24:50Z</time>
      </trkpt>
      <trkpt lat="47.59555" lon="3.64388">
        <ele>221</ele>
        <time>2019-04-03T08:24:52Z</time>
      </trkpt>
      <trkpt lat="47.59555" lon="3.64385">
        <ele>222</ele>
        <time>2019-04-03T08:24:54Z</time>
      </trkpt>
      <trkpt lat="47.59556" lon="3.64379">
        <ele>220</ele>
        <time>2019-04-03T08:24:57Z</time>
      </trkpt>
      <trkpt lat="47.59557" lon="3.64376">
        <ele>220</ele>
        <time>2019-04-03T08:24:59Z</time>
      </trkpt>
      <trkpt lat="47.59558" lon="3.64371">
        <ele>220</ele>
        <time>2019-04-03T08:25:02Z</time>
      </trkpt>
      <trkpt lat="47.59559" lon="3.64364">
        <ele>221</ele>
        <time>2019-04-03T08:25:06Z</time>
      </trkpt>
      <trkpt lat="47.59561" lon="3.64356">
        <ele>221</ele>
        <time>2019-04-03T08:25:10Z</time>
      </trkpt>
      <trkpt lat="47.59562" lon="3.6435">
        <ele>221</ele>
        <time>2019-04-03T08:25:13Z</time>
      </trkpt>
      <trkpt lat="47.59563" lon="3.64346">
        <ele>222</ele>
        <time>2019-04-03T08:25:15Z</time>
      </trkpt>
      <trkpt lat="47.59563" lon="3.64339">
        <ele>222</ele>
        <time>2019-04-03T08:25:19Z</time>
      </trkpt>
      <trkpt lat="47.59564" lon="3.64335">
        <ele>222</ele>
        <time>2019-04-03T08:25:22Z</time>
      </trkpt>
      <trkpt lat="47.59564" lon="3.64331">
        <ele>222</ele>
        <time>2019-04-03T08:25:24Z</time>
      </trkpt>
      <trkpt lat="47.59565" lon="3.64323">
        <ele>221</ele>
        <time>2019-04-03T08:25:28Z</time>
      </trkpt>
      <trkpt lat="47.59568" lon="3.64315">
        <ele>221</ele>
        <time>2019-04-03T08:25:33Z</time>
      </trkpt>
      <trkpt lat="47.59569" lon="3.64308">
        <ele>221</ele>
        <time>2019-04-03T08:25:37Z</time>
      </trkpt>
      <trkpt lat="47.59572" lon="3.64301">
        <ele>221</ele>
        <time>2019-04-03T08:25:41Z</time>
      </trkpt>
      <trkpt lat="47.59574" lon="3.64293">
        <ele>221</ele>
        <time>2019-04-03T08:25:47Z</time>
      </trkpt>
      <trkpt lat="47.59576" lon="3.64286">
        <ele>221</ele>
        <time>2019-04-03T08:25:51Z</time>
      </trkpt>
      <trkpt lat="47.59577" lon="3.64283">
        <ele>221</ele>
        <time>2019-04-03T08:25:53Z</time>
      </trkpt>
      <trkpt lat="47.59579" lon="3.64278">
        <ele>220</ele>
        <time>2019-04-03T08:25:56Z</time>
      </trkpt>
      <trkpt lat="47.59581" lon="3.64271">
        <ele>220</ele>
        <time>2019-04-03T08:26:00Z</time>
      </trkpt>
      <trkpt lat="47.59584" lon="3.64262">
        <ele>221</ele>
        <time>2019-04-03T08:26:05Z</time>
      </trkpt>
      <trkpt lat="47.59585" lon="3.64257">
        <ele>221</ele>
        <time>2019-04-03T08:26:08Z</time>
      </trkpt>
      <trkpt lat="47.59587" lon="3.64252">
        <ele>220</ele>
        <time>2019-04-03T08:26:11Z</time>
      </trkpt>
      <trkpt lat="47.59588" lon="3.64247">
        <ele>221</ele>
        <time>2019-04-03T08:26:14Z</time>
      </trkpt>
      <trkpt lat="47.59589" lon="3.64244">
        <ele>222</ele>
        <time>2019-04-03T08:26:16Z</time>
      </trkpt>
      <trkpt lat="47.5959" lon="3.6424">
        <ele>221</ele>
        <time>2019-04-03T08:26:19Z</time>
      </trkpt>
      <trkpt lat="47.59591" lon="3.64236">
        <ele>221</ele>
        <time>2019-04-03T08:26:21Z</time>
      </trkpt>
      <trkpt lat="47.59592" lon="3.64233">
        <ele>221</ele>
        <time>2019-04-03T08:26:23Z</time>
      </trkpt>
      <trkpt lat="47.59593" lon="3.64229">
        <ele>222</ele>
        <time>2019-04-03T08:26:25Z</time>
      </trkpt>
      <trkpt lat="47.59595" lon="3.64222">
        <ele>221</ele>
        <time>2019-04-03T08:26:29Z</time>
      </trkpt>
      <trkpt lat="47.59598" lon="3.64217">
        <ele>221</ele>
        <time>2019-04-03T08:26:33Z</time>
      </trkpt>
      <trkpt lat="47.596" lon="3.64211">
        <ele>220</ele>
        <time>2019-04-03T08:26:37Z</time>
      </trkpt>
      <trkpt lat="47.59602" lon="3.64204">
        <ele>222</ele>
        <time>2019-04-03T08:26:41Z</time>
      </trkpt>
      <trkpt lat="47.59604" lon="3.64197">
        <ele>223</ele>
        <time>2019-04-03T08:26:45Z</time>
      </trkpt>
      <trkpt lat="47.59606" lon="3.64193">
        <ele>222</ele>
        <time>2019-04-03T08:26:47Z</time>
      </trkpt>
      <trkpt lat="47.59607" lon="3.6419">
        <ele>223</ele>
        <time>2019-04-03T08:26:49Z</time>
      </trkpt>
      <trkpt lat="47.59609" lon="3.64186">
        <ele>223</ele>
        <time>2019-04-03T08:26:51Z</time>
      </trkpt>
      <trkpt lat="47.5961" lon="3.6418">
        <ele>223</ele>
        <time>2019-04-03T08:26:55Z</time>
      </trkpt>
      <trkpt lat="47.59612" lon="3.64176">
        <ele>225</ele>
        <time>2019-04-03T08:26:59Z</time>
      </trkpt>
      <trkpt lat="47.59614" lon="3.6417">
        <ele>224</ele>
        <time>2019-04-03T08:27:03Z</time>
      </trkpt>
      <trkpt lat="47.59616" lon="3.64166">
        <ele>224</ele>
        <time>2019-04-03T08:27:05Z</time>
      </trkpt>
      <trkpt lat="47.59617" lon="3.64163">
        <ele>224</ele>
        <time>2019-04-03T08:27:08Z</time>
      </trkpt>
      <trkpt lat="47.5962" lon="3.64157">
        <ele>225</ele>
        <time>2019-04-03T08:27:12Z</time>
      </trkpt>
      <trkpt lat="47.59623" lon="3.64151">
        <ele>224</ele>
        <time>2019-04-03T08:27:15Z</time>
      </trkpt>
      <trkpt lat="47.59625" lon="3.64144">
        <ele>225</ele>
        <time>2019-04-03T08:27:19Z</time>
      </trkpt>
      <trkpt lat="47.59628" lon="3.64138">
        <ele>225</ele>
        <time>2019-04-03T08:27:23Z</time>
      </trkpt>
      <trkpt lat="47.59631" lon="3.6413">
        <ele>225</ele>
        <time>2019-04-03T08:27:29Z</time>
      </trkpt>
      <trkpt lat="47.59632" lon="3.64127">
        <ele>225</ele>
        <time>2019-04-03T08:27:30Z</time>
      </trkpt>
      <trkpt lat="47.59634" lon="3.64121">
        <ele>226</ele>
        <time>2019-04-03T08:27:35Z</time>
      </trkpt>
      <trkpt lat="47.59636" lon="3.64115">
        <ele>226</ele>
        <time>2019-04-03T08:27:39Z</time>
      </trkpt>
      <trkpt lat="47.59639" lon="3.64109">
        <ele>226</ele>
        <time>2019-04-03T08:27:43Z</time>
      </trkpt>
      <trkpt lat="47.59643" lon="3.64103">
        <ele>224</ele>
        <time>2019-04-03T08:27:47Z</time>
      </trkpt>
      <trkpt lat="47.59645" lon="3.64099">
        <ele>224</ele>
        <time>2019-04-03T08:27:51Z</time>
      </trkpt>
      <trkpt lat="47.59648" lon="3.64093">
        <ele>225</ele>
        <time>2019-04-03T08:27:56Z</time>
      </trkpt>
      <trkpt lat="47.5965" lon="3.6409">
        <ele>224</ele>
        <time>2019-04-03T08:27:58Z</time>
      </trkpt>
      <trkpt lat="47.59654" lon="3.6408">
        <ele>225</ele>
        <time>2019-04-03T08:28:04Z</time>
      </trkpt>
      <trkpt lat="47.59658" lon="3.64075">
        <ele>225</ele>
        <time>2019-04-03T08:28:09Z</time>
      </trkpt>
      <trkpt lat="47.59661" lon="3.6407">
        <ele>225</ele>
        <time>2019-04-03T08:28:13Z</time>
      </trkpt>
      <trkpt lat="47.59665" lon="3.64065">
        <ele>226</ele>
        <time>2019-04-03T08:28:17Z</time>
      </trkpt>
      <trkpt lat="47.59669" lon="3.64059">
        <ele>227</ele>
        <time>2019-04-03T08:28:22Z</time>
      </trkpt>
      <trkpt lat="47.59671" lon="3.64055">
        <ele>227</ele>
        <time>2019-04-03T08:28:24Z</time>
      </trkpt>
      <trkpt lat="47.59675" lon="3.64051">
        <ele>229</ele>
        <time>2019-04-03T08:28:28Z</time>
      </trkpt>
      <trkpt lat="47.5968" lon="3.64045">
        <ele>229</ele>
        <time>2019-04-03T08:28:32Z</time>
      </trkpt>
      <trkpt lat="47.59682" lon="3.64043">
        <ele>230</ele>
        <time>2019-04-03T08:28:34Z</time>
      </trkpt>
      <trkpt lat="47.59686" lon="3.64038">
        <ele>229</ele>
        <time>2019-04-03T08:28:39Z</time>
      </trkpt>
      <trkpt lat="47.59691" lon="3.64033">
        <ele>229</ele>
        <time>2019-04-03T08:28:43Z</time>
      </trkpt>
      <trkpt lat="47.59693" lon="3.64031">
        <ele>229</ele>
        <time>2019-04-03T08:28:45Z</time>
      </trkpt>
      <trkpt lat="47.59697" lon="3.64027">
        <ele>228</ele>
        <time>2019-04-03T08:28:50Z</time>
      </trkpt>
      <trkpt lat="47.597" lon="3.64024">
        <ele>227</ele>
        <time>2019-04-03T08:28:53Z</time>
      </trkpt>
      <trkpt lat="47.59704" lon="3.6402">
        <ele>226</ele>
        <time>2019-04-03T08:28:57Z</time>
      </trkpt>
      <trkpt lat="47.59706" lon="3.64018">
        <ele>224</ele>
        <time>2019-04-03T08:28:59Z</time>
      </trkpt>
      <trkpt lat="47.5971" lon="3.64013">
        <ele>222</ele>
        <time>2019-04-03T08:29:03Z</time>
      </trkpt>
      <trkpt lat="47.59712" lon="3.64007">
        <ele>221</ele>
        <time>2019-04-03T08:29:07Z</time>
      </trkpt>
      <trkpt lat="47.59713" lon="3.64003">
        <ele>222</ele>
        <time>2019-04-03T08:29:10Z</time>
      </trkpt>
      <trkpt lat="47.59714" lon="3.64">
        <ele>221</ele>
        <time>2019-04-03T08:29:12Z</time>
      </trkpt>
      <trkpt lat="47.59716" lon="3.63992">
        <ele>222</ele>
        <time>2019-04-03T08:29:16Z</time>
      </trkpt>
      <trkpt lat="47.59716" lon="3.63983">
        <ele>221</ele>
        <time>2019-04-03T08:29:20Z</time>
      </trkpt>
      <trkpt lat="47.59715" lon="3.63976">
        <ele>221</ele>
        <time>2019-04-03T08:29:24Z</time>
      </trkpt>
      <trkpt lat="47.59713" lon="3.6397">
        <ele>220</ele>
        <time>2019-04-03T08:29:28Z</time>
      </trkpt>
      <trkpt lat="47.59708" lon="3.63965">
        <ele>221</ele>
        <time>2019-04-03T08:29:32Z</time>
      </trkpt>
      <trkpt lat="47.59706" lon="3.63958">
        <ele>223</ele>
        <time>2019-04-03T08:29:37Z</time>
      </trkpt>
      <trkpt lat="47.59702" lon="3.63953">
        <ele>224</ele>
        <time>2019-04-03T08:29:41Z</time>
      </trkpt>
      <trkpt lat="47.597" lon="3.63951">
        <ele>224</ele>
        <time>2019-04-03T08:29:43Z</time>
      </trkpt>
      <trkpt lat="47.59696" lon="3.63946">
        <ele>223</ele>
        <time>2019-04-03T08:29:47Z</time>
      </trkpt>
      <trkpt lat="47.59692" lon="3.63941">
        <ele>224</ele>
        <time>2019-04-03T08:29:51Z</time>
      </trkpt>
      <trkpt lat="47.59688" lon="3.63938">
        <ele>223</ele>
        <time>2019-04-03T08:29:55Z</time>
      </trkpt>
      <trkpt lat="47.59686" lon="3.63936">
        <ele>223</ele>
        <time>2019-04-03T08:29:59Z</time>
      </trkpt>
      <trkpt lat="47.59684" lon="3.63932">
        <ele>221</ele>
        <time>2019-04-03T08:30:04Z</time>
      </trkpt>
      <trkpt lat="47.5968" lon="3.63927">
        <ele>223</ele>
        <time>2019-04-03T08:30:08Z</time>
      </trkpt>
      <trkpt lat="47.59677" lon="3.63923">
        <ele>224</ele>
        <time>2019-04-03T08:30:12Z</time>
      </trkpt>
      <trkpt lat="47.59675" lon="3.63921">
        <ele>223</ele>
        <time>2019-04-03T08:30:14Z</time>
      </trkpt>
      <trkpt lat="47.59671" lon="3.63916">
        <ele>223</ele>
        <time>2019-04-03T08:30:18Z</time>
      </trkpt>
      <trkpt lat="47.59669" lon="3.63914">
        <ele>223</ele>
        <time>2019-04-03T08:30:20Z</time>
      </trkpt>
      <trkpt lat="47.59664" lon="3.63908">
        <ele>224</ele>
        <time>2019-04-03T08:30:24Z</time>
      </trkpt>
      <trkpt lat="47.59658" lon="3.63901">
        <ele>225</ele>
        <time>2019-04-03T08:30:30Z</time>
      </trkpt>
      <trkpt lat="47.59656" lon="3.63894">
        <ele>225</ele>
        <time>2019-04-03T08:30:34Z</time>
      </trkpt>
      <trkpt lat="47.59655" lon="3.63889">
        <ele>226</ele>
        <time>2019-04-03T08:30:36Z</time>
      </trkpt>
      <trkpt lat="47.59652" lon="3.63883">
        <ele>227</ele>
        <time>2019-04-03T08:30:41Z</time>
      </trkpt>
      <trkpt lat="47.59648" lon="3.63877">
        <ele>228</ele>
        <time>2019-04-03T08:30:46Z</time>
      </trkpt>
      <trkpt lat="47.59643" lon="3.63874">
        <ele>227</ele>
        <time>2019-04-03T08:30:49Z</time>
      </trkpt>
      <trkpt lat="47.59641" lon="3.63868">
        <ele>227</ele>
        <time>2019-04-03T08:30:54Z</time>
      </trkpt>
      <trkpt lat="47.59644" lon="3.63862">
        <ele>227</ele>
        <time>2019-04-03T08:30:57Z</time>
      </trkpt>
      <trkpt lat="47.59647" lon="3.63852">
        <ele>227</ele>
        <time>2019-04-03T08:31:02Z</time>
      </trkpt>
      <trkpt lat="47.59648" lon="3.63848">
        <ele>227</ele>
        <time>2019-04-03T08:31:04Z</time>
      </trkpt>
      <trkpt lat="47.5965" lon="3.63841">
        <ele>228</ele>
        <time>2019-04-03T08:31:10Z</time>
      </trkpt>
      <trkpt lat="47.59651" lon="3.63838">
        <ele>228</ele>
        <time>2019-04-03T08:31:12Z</time>
      </trkpt>
      <trkpt lat="47.59653" lon="3.63835">
        <ele>227</ele>
        <time>2019-04-03T08:31:14Z</time>
      </trkpt>
      <trkpt lat="47.59654" lon="3.63832">
        <ele>226</ele>
        <time>2019-04-03T08:31:16Z</time>
      </trkpt>
      <trkpt lat="47.59655" lon="3.63825">
        <ele>229</ele>
        <time>2019-04-03T08:31:20Z</time>
      </trkpt>
      <trkpt lat="47.59655" lon="3.63819">
        <ele>229</ele>
        <time>2019-04-03T08:31:23Z</time>
      </trkpt>
      <trkpt lat="47.59655" lon="3.63812">
        <ele>229</ele>
        <time>2019-04-03T08:31:26Z</time>
      </trkpt>
      <trkpt lat="47.59655" lon="3.63805">
        <ele>229</ele>
        <time>2019-04-03T08:31:29Z</time>
      </trkpt>
      <trkpt lat="47.59656" lon="3.63796">
        <ele>228</ele>
        <time>2019-04-03T08:31:33Z</time>
      </trkpt>
      <trkpt lat="47.59657" lon="3.63787">
        <ele>228</ele>
        <time>2019-04-03T08:31:39Z</time>
      </trkpt>
      <trkpt lat="47.5966" lon="3.6378">
        <ele>228</ele>
        <time>2019-04-03T08:31:43Z</time>
      </trkpt>
      <trkpt lat="47.59661" lon="3.63773">
        <ele>228</ele>
        <time>2019-04-03T08:31:46Z</time>
      </trkpt>
      <trkpt lat="47.59662" lon="3.63767">
        <ele>228</ele>
        <time>2019-04-03T08:31:48Z</time>
      </trkpt>
      <trkpt lat="47.59664" lon="3.63762">
        <ele>227</ele>
        <time>2019-04-03T08:31:52Z</time>
      </trkpt>
      <trkpt lat="47.59665" lon="3.63755">
        <ele>227</ele>
        <time>2019-04-03T08:31:55Z</time>
      </trkpt>
      <trkpt lat="47.59667" lon="3.63746">
        <ele>225</ele>
        <time>2019-04-03T08:31:59Z</time>
      </trkpt>
      <trkpt lat="47.59664" lon="3.6374">
        <ele>225</ele>
        <time>2019-04-03T08:32:03Z</time>
      </trkpt>
      <trkpt lat="47.59659" lon="3.63737">
        <ele>223</ele>
        <time>2019-04-03T08:32:06Z</time>
      </trkpt>
      <trkpt lat="47.59655" lon="3.63733">
        <ele>222</ele>
        <time>2019-04-03T08:32:11Z</time>
      </trkpt>
      <trkpt lat="47.5965" lon="3.63733">
        <ele>221</ele>
        <time>2019-04-03T08:32:14Z</time>
      </trkpt>
      <trkpt lat="47.59645" lon="3.63732">
        <ele>221</ele>
        <time>2019-04-03T08:32:19Z</time>
      </trkpt>
      <trkpt lat="47.59641" lon="3.63733">
        <ele>222</ele>
        <time>2019-04-03T08:32:23Z</time>
      </trkpt>
      <trkpt lat="47.59635" lon="3.63735">
        <ele>223</ele>
        <time>2019-04-03T08:32:27Z</time>
      </trkpt>
      <trkpt lat="47.59629" lon="3.63738">
        <ele>225</ele>
        <time>2019-04-03T08:32:30Z</time>
      </trkpt>
      <trkpt lat="47.59627" lon="3.63744">
        <ele>226</ele>
        <time>2019-04-03T08:32:35Z</time>
      </trkpt>
      <trkpt lat="47.59629" lon="3.63752">
        <ele>227</ele>
        <time>2019-04-03T08:32:39Z</time>
      </trkpt>
      <trkpt lat="47.59628" lon="3.63759">
        <ele>229</ele>
        <time>2019-04-03T08:32:46Z</time>
      </trkpt>
      <trkpt lat="47.59628" lon="3.63764">
        <ele>230</ele>
        <time>2019-04-03T08:32:52Z</time>
      </trkpt>
      <trkpt lat="47.59628" lon="3.63764">
        <ele>230</ele>
        <time>2019-04-03T08:33:02Z</time>
      </trkpt>
      <trkpt lat="47.59639" lon="3.63749">
        <ele>247</ele>
        <time>2019-04-03T08:35:34Z</time>
      </trkpt>
      <trkpt lat="47.59631" lon="3.63739">
        <ele>253</ele>
        <time>2019-04-03T08:35:38Z</time>
      </trkpt>
      <trkpt lat="47.5963" lon="3.63725">
        <ele>254</ele>
        <time>2019-04-03T08:35:43Z</time>
      </trkpt>
      <trkpt lat="47.5963" lon="3.63725">
        <ele>254</ele>
        <time>2019-04-03T08:35:50Z</time>
      </trkpt>
      <trkpt lat="47.5963" lon="3.63725">
        <ele>254</ele>
        <time>2019-04-03T08:35:53Z</time>
      </trkpt>
      <trkpt lat="47.59643" lon="3.63751">
        <ele>238</ele>
        <time>2019-04-03T08:37:27Z</time>
      </trkpt>
      <trkpt lat="47.59634" lon="3.6376">
        <ele>236</ele>
        <time>2019-04-03T08:37:39Z</time>
      </trkpt>
      <trkpt lat="47.59631" lon="3.63766">
        <ele>236</ele>
        <time>2019-04-03T08:37:51Z</time>
      </trkpt>
      <trkpt lat="47.59631" lon="3.63766">
        <ele>236</ele>
        <time>2019-04-03T08:41:57Z</time>
      </trkpt>
      <trkpt lat="47.59633" lon="3.63743">
        <ele>220</ele>
        <time>2019-04-03T08:41:58Z</time>
      </trkpt>
      <trkpt lat="47.59635" lon="3.63737">
        <ele>222</ele>
        <time>2019-04-03T08:42:06Z</time>
      </trkpt>
      <trkpt lat="47.59635" lon="3.63727">
        <ele>221</ele>
        <time>2019-04-03T08:42:12Z</time>
      </trkpt>
      <trkpt lat="47.59635" lon="3.63724">
        <ele>221</ele>
        <time>2019-04-03T08:42:14Z</time>
      </trkpt>
      <trkpt lat="47.59636" lon="3.63717">
        <ele>222</ele>
        <time>2019-04-03T08:42:18Z</time>
      </trkpt>
      <trkpt lat="47.59636" lon="3.6371">
        <ele>221</ele>
        <time>2019-04-03T08:42:22Z</time>
      </trkpt>
      <trkpt lat="47.59633" lon="3.63705">
        <ele>222</ele>
        <time>2019-04-03T08:42:25Z</time>
      </trkpt>
      <trkpt lat="47.59627" lon="3.63699">
        <ele>223</ele>
        <time>2019-04-03T08:42:32Z</time>
      </trkpt>
      <trkpt lat="47.59621" lon="3.63698">
        <ele>222</ele>
        <time>2019-04-03T08:42:36Z</time>
      </trkpt>
      <trkpt lat="47.59618" lon="3.63697">
        <ele>222</ele>
        <time>2019-04-03T08:42:38Z</time>
      </trkpt>
      <trkpt lat="47.59612" lon="3.63692">
        <ele>223</ele>
        <time>2019-04-03T08:42:43Z</time>
      </trkpt>
      <trkpt lat="47.59607" lon="3.63692">
        <ele>224</ele>
        <time>2019-04-03T08:42:48Z</time>
      </trkpt>
      <trkpt lat="47.59603" lon="3.63687">
        <ele>221</ele>
        <time>2019-04-03T08:42:53Z</time>
      </trkpt>
      <trkpt lat="47.59597" lon="3.63687">
        <ele>220</ele>
        <time>2019-04-03T08:43:01Z</time>
      </trkpt>
      <trkpt lat="47.59593" lon="3.63683">
        <ele>221</ele>
        <time>2019-04-03T08:43:05Z</time>
      </trkpt>
      <trkpt lat="47.59588" lon="3.63677">
        <ele>221</ele>
        <time>2019-04-03T08:43:11Z</time>
      </trkpt>
      <trkpt lat="47.59584" lon="3.63675">
        <ele>221</ele>
        <time>2019-04-03T08:43:15Z</time>
      </trkpt>
      <trkpt lat="47.5958" lon="3.63672">
        <ele>220</ele>
        <time>2019-04-03T08:43:18Z</time>
      </trkpt>
      <trkpt lat="47.59577" lon="3.6367">
        <ele>220</ele>
        <time>2019-04-03T08:43:22Z</time>
      </trkpt>
      <trkpt lat="47.59572" lon="3.63669">
        <ele>221</ele>
        <time>2019-04-03T08:43:26Z</time>
      </trkpt>
      <trkpt lat="47.59572" lon="3.63669">
        <ele>221</ele>
        <time>2019-04-03T08:43:34Z</time>
      </trkpt>
      <trkpt lat="47.59572" lon="3.63669">
        <ele>221</ele>
        <time>2019-04-03T08:43:35Z</time>
      </trkpt>
      <trkpt lat="47.59567" lon="3.63667">
        <ele>223</ele>
        <time>2019-04-03T08:43:56Z</time>
      </trkpt>
      <trkpt lat="47.59563" lon="3.63668">
        <ele>223</ele>
        <time>2019-04-03T08:44:00Z</time>
      </trkpt>
      <trkpt lat="47.59558" lon="3.63673">
        <ele>222</ele>
        <time>2019-04-03T08:44:05Z</time>
      </trkpt>
      <trkpt lat="47.59554" lon="3.63677">
        <ele>222</ele>
        <time>2019-04-03T08:44:09Z</time>
      </trkpt>
      <trkpt lat="47.5955" lon="3.6368">
        <ele>222</ele>
        <time>2019-04-03T08:44:12Z</time>
      </trkpt>
      <trkpt lat="47.59547" lon="3.63681">
        <ele>221</ele>
        <time>2019-04-03T08:44:15Z</time>
      </trkpt>
      <trkpt lat="47.59541" lon="3.63685">
        <ele>221</ele>
        <time>2019-04-03T08:44:21Z</time>
      </trkpt>
      <trkpt lat="47.59536" lon="3.63687">
        <ele>220</ele>
        <time>2019-04-03T08:44:24Z</time>
      </trkpt>
      <trkpt lat="47.59531" lon="3.63689">
        <ele>221</ele>
        <time>2019-04-03T08:44:29Z</time>
      </trkpt>
      <trkpt lat="47.59527" lon="3.63693">
        <ele>220</ele>
        <time>2019-04-03T08:44:33Z</time>
      </trkpt>
      <trkpt lat="47.59525" lon="3.63695">
        <ele>220</ele>
        <time>2019-04-03T08:44:36Z</time>
      </trkpt>
      <trkpt lat="47.59522" lon="3.63701">
        <ele>218</ele>
        <time>2019-04-03T08:44:44Z</time>
      </trkpt>
      <trkpt lat="47.59516" lon="3.63702">
        <ele>218</ele>
        <time>2019-04-03T08:44:51Z</time>
      </trkpt>
      <trkpt lat="47.59511" lon="3.63706">
        <ele>219</ele>
        <time>2019-04-03T08:44:55Z</time>
      </trkpt>
      <trkpt lat="47.59508" lon="3.63712">
        <ele>221</ele>
        <time>2019-04-03T08:44:59Z</time>
      </trkpt>
      <trkpt lat="47.59504" lon="3.63716">
        <ele>221</ele>
        <time>2019-04-03T08:45:03Z</time>
      </trkpt>
      <trkpt lat="47.59501" lon="3.63718">
        <ele>220</ele>
        <time>2019-04-03T08:45:06Z</time>
      </trkpt>
      <trkpt lat="47.59501" lon="3.63718">
        <ele>220</ele>
        <time>2019-04-03T08:45:14Z</time>
      </trkpt>
      <trkpt lat="47.595" lon="3.63725">
        <ele>220</ele>
        <time>2019-04-03T08:45:15Z</time>
      </trkpt>
      <trkpt lat="47.59498" lon="3.63731">
        <ele>220</ele>
        <time>2019-04-03T08:45:18Z</time>
      </trkpt>
      <trkpt lat="47.59497" lon="3.63735">
        <ele>220</ele>
        <time>2019-04-03T08:45:20Z</time>
      </trkpt>
      <trkpt lat="47.59505" lon="3.63714">
        <ele>220</ele>
        <time>2019-04-03T08:49:32Z</time>
      </trkpt>
      <trkpt lat="47.5951" lon="3.63709">
        <ele>219</ele>
        <time>2019-04-03T08:49:48Z</time>
      </trkpt>
      <trkpt lat="47.59512" lon="3.63702">
        <ele>219</ele>
        <time>2019-04-03T08:49:54Z</time>
      </trkpt>
      <trkpt lat="47.59515" lon="3.63695">
        <ele>218</ele>
        <time>2019-04-03T08:49:59Z</time>
      </trkpt>
      <trkpt lat="47.59515" lon="3.63688">
        <ele>218</ele>
        <time>2019-04-03T08:50:04Z</time>
      </trkpt>
      <trkpt lat="47.59518" lon="3.63681">
        <ele>220</ele>
        <time>2019-04-03T08:50:09Z</time>
      </trkpt>
      <trkpt lat="47.59519" lon="3.63677">
        <ele>221</ele>
        <time>2019-04-03T08:50:11Z</time>
      </trkpt>
      <trkpt lat="47.59521" lon="3.63671">
        <ele>222</ele>
        <time>2019-04-03T08:50:15Z</time>
      </trkpt>
      <trkpt lat="47.59523" lon="3.63666">
        <ele>223</ele>
        <time>2019-04-03T08:50:18Z</time>
      </trkpt>
      <trkpt lat="47.59525" lon="3.63663">
        <ele>223</ele>
        <time>2019-04-03T08:50:19Z</time>
      </trkpt>
      <trkpt lat="47.59528" lon="3.63656">
        <ele>223</ele>
        <time>2019-04-03T08:50:24Z</time>
      </trkpt>
      <trkpt lat="47.59532" lon="3.63647">
        <ele>224</ele>
        <time>2019-04-03T08:50:29Z</time>
      </trkpt>
      <trkpt lat="47.59534" lon="3.63642">
        <ele>224</ele>
        <time>2019-04-03T08:50:32Z</time>
      </trkpt>
      <trkpt lat="47.59537" lon="3.63637">
        <ele>223</ele>
        <time>2019-04-03T08:50:36Z</time>
      </trkpt>
      <trkpt lat="47.5954" lon="3.6363">
        <ele>225</ele>
        <time>2019-04-03T08:50:41Z</time>
      </trkpt>
      <trkpt lat="47.59543" lon="3.63624">
        <ele>224</ele>
        <time>2019-04-03T08:50:45Z</time>
      </trkpt>
      <trkpt lat="47.59544" lon="3.63622">
        <ele>224</ele>
        <time>2019-04-03T08:50:46Z</time>
      </trkpt>
      <trkpt lat="47.59546" lon="3.63616">
        <ele>224</ele>
        <time>2019-04-03T08:50:51Z</time>
      </trkpt>
      <trkpt lat="47.59549" lon="3.6361">
        <ele>225</ele>
        <time>2019-04-03T08:50:56Z</time>
      </trkpt>
      <trkpt lat="47.59552" lon="3.636">
        <ele>226</ele>
        <time>2019-04-03T08:51:00Z</time>
      </trkpt>
      <trkpt lat="47.59554" lon="3.63593">
        <ele>225</ele>
        <time>2019-04-03T08:51:03Z</time>
      </trkpt>
      <trkpt lat="47.59557" lon="3.63587">
        <ele>225</ele>
        <time>2019-04-03T08:51:06Z</time>
      </trkpt>
      <trkpt lat="47.59558" lon="3.63583">
        <ele>226</ele>
        <time>2019-04-03T08:51:08Z</time>
      </trkpt>
      <trkpt lat="47.59563" lon="3.63573">
        <ele>224</ele>
        <time>2019-04-03T08:51:13Z</time>
      </trkpt>
      <trkpt lat="47.59566" lon="3.63568">
        <ele>224</ele>
        <time>2019-04-03T08:51:16Z</time>
      </trkpt>
      <trkpt lat="47.59568" lon="3.63563">
        <ele>223</ele>
        <time>2019-04-03T08:51:19Z</time>
      </trkpt>
      <trkpt lat="47.59571" lon="3.63556">
        <ele>224</ele>
        <time>2019-04-03T08:51:24Z</time>
      </trkpt>
      <trkpt lat="47.59575" lon="3.6355">
        <ele>223</ele>
        <time>2019-04-03T08:51:28Z</time>
      </trkpt>
      <trkpt lat="47.59578" lon="3.63544">
        <ele>221</ele>
        <time>2019-04-03T08:51:31Z</time>
      </trkpt>
      <trkpt lat="47.59579" lon="3.63537">
        <ele>223</ele>
        <time>2019-04-03T08:51:37Z</time>
      </trkpt>
      <trkpt lat="47.59581" lon="3.63531">
        <ele>222</ele>
        <time>2019-04-03T08:51:40Z</time>
      </trkpt>
      <trkpt lat="47.59585" lon="3.63524">
        <ele>221</ele>
        <time>2019-04-03T08:51:43Z</time>
      </trkpt>
      <trkpt lat="47.59589" lon="3.63517">
        <ele>221</ele>
        <time>2019-04-03T08:51:47Z</time>
      </trkpt>
      <trkpt lat="47.59592" lon="3.6351">
        <ele>220</ele>
        <time>2019-04-03T08:51:51Z</time>
      </trkpt>
      <trkpt lat="47.59594" lon="3.63502">
        <ele>221</ele>
        <time>2019-04-03T08:51:56Z</time>
      </trkpt>
      <trkpt lat="47.59595" lon="3.63499">
        <ele>221</ele>
        <time>2019-04-03T08:51:58Z</time>
      </trkpt>
      <trkpt lat="47.59597" lon="3.63495">
        <ele>221</ele>
        <time>2019-04-03T08:52:00Z</time>
      </trkpt>
      <trkpt lat="47.59599" lon="3.63489">
        <ele>219</ele>
        <time>2019-04-03T08:52:03Z</time>
      </trkpt>
      <trkpt lat="47.596" lon="3.63485">
        <ele>219</ele>
        <time>2019-04-03T08:52:05Z</time>
      </trkpt>
      <trkpt lat="47.59606" lon="3.63478">
        <ele>219</ele>
        <time>2019-04-03T08:52:11Z</time>
      </trkpt>
      <trkpt lat="47.5961" lon="3.63475">
        <ele>219</ele>
        <time>2019-04-03T08:52:15Z</time>
      </trkpt>
      <trkpt lat="47.59614" lon="3.63468">
        <ele>219</ele>
        <time>2019-04-03T08:52:19Z</time>
      </trkpt>
      <trkpt lat="47.59616" lon="3.63464">
        <ele>219</ele>
        <time>2019-04-03T08:52:22Z</time>
      </trkpt>
      <trkpt lat="47.59618" lon="3.63461">
        <ele>218</ele>
        <time>2019-04-03T08:52:24Z</time>
      </trkpt>
      <trkpt lat="47.59621" lon="3.63456">
        <ele>218</ele>
        <time>2019-04-03T08:52:28Z</time>
      </trkpt>
      <trkpt lat="47.59624" lon="3.63445">
        <ele>218</ele>
        <time>2019-04-03T08:52:33Z</time>
      </trkpt>
      <trkpt lat="47.59624" lon="3.63438">
        <ele>218</ele>
        <time>2019-04-03T08:52:36Z</time>
      </trkpt>
      <trkpt lat="47.5962" lon="3.63432">
        <ele>218</ele>
        <time>2019-04-03T08:52:39Z</time>
      </trkpt>
      <trkpt lat="47.59617" lon="3.63427">
        <ele>218</ele>
        <time>2019-04-03T08:52:42Z</time>
      </trkpt>
      <trkpt lat="47.59613" lon="3.63421">
        <ele>217</ele>
        <time>2019-04-03T08:52:47Z</time>
      </trkpt>
      <trkpt lat="47.5961" lon="3.63416">
        <ele>217</ele>
        <time>2019-04-03T08:52:51Z</time>
      </trkpt>
      <trkpt lat="47.59608" lon="3.63413">
        <ele>218</ele>
        <time>2019-04-03T08:52:54Z</time>
      </trkpt>
      <trkpt lat="47.59604" lon="3.63409">
        <ele>218</ele>
        <time>2019-04-03T08:52:57Z</time>
      </trkpt>
      <trkpt lat="47.596" lon="3.63403">
        <ele>218</ele>
        <time>2019-04-03T08:53:02Z</time>
      </trkpt>
      <trkpt lat="47.59596" lon="3.63398">
        <ele>219</ele>
        <time>2019-04-03T08:53:07Z</time>
      </trkpt>
      <trkpt lat="47.59593" lon="3.63394">
        <ele>219</ele>
        <time>2019-04-03T08:53:10Z</time>
      </trkpt>
      <trkpt lat="47.59589" lon="3.6339">
        <ele>219</ele>
        <time>2019-04-03T08:53:13Z</time>
      </trkpt>
      <trkpt lat="47.59586" lon="3.63387">
        <ele>220</ele>
        <time>2019-04-03T08:53:15Z</time>
      </trkpt>
      <trkpt lat="47.59584" lon="3.63385">
        <ele>221</ele>
        <time>2019-04-03T08:53:17Z</time>
      </trkpt>
      <trkpt lat="47.59579" lon="3.63379">
        <ele>221</ele>
        <time>2019-04-03T08:53:21Z</time>
      </trkpt>
      <trkpt lat="47.59574" lon="3.63375">
        <ele>220</ele>
        <time>2019-04-03T08:53:25Z</time>
      </trkpt>
      <trkpt lat="47.59572" lon="3.63373">
        <ele>219</ele>
        <time>2019-04-03T08:53:27Z</time>
      </trkpt>
      <trkpt lat="47.59567" lon="3.63369">
        <ele>220</ele>
        <time>2019-04-03T08:53:30Z</time>
      </trkpt>
      <trkpt lat="47.59563" lon="3.63365">
        <ele>220</ele>
        <time>2019-04-03T08:53:33Z</time>
      </trkpt>
      <trkpt lat="47.59559" lon="3.63363">
        <ele>220</ele>
        <time>2019-04-03T08:53:36Z</time>
      </trkpt>
      <trkpt lat="47.59555" lon="3.63358">
        <ele>220</ele>
        <time>2019-04-03T08:53:40Z</time>
      </trkpt>
      <trkpt lat="47.59551" lon="3.63355">
        <ele>221</ele>
        <time>2019-04-03T08:53:43Z</time>
      </trkpt>
      <trkpt lat="47.59549" lon="3.63353">
        <ele>222</ele>
        <time>2019-04-03T08:53:46Z</time>
      </trkpt>
      <trkpt lat="47.59545" lon="3.6335">
        <ele>222</ele>
        <time>2019-04-03T08:53:49Z</time>
      </trkpt>
      <trkpt lat="47.59541" lon="3.63347">
        <ele>223</ele>
        <time>2019-04-03T08:53:52Z</time>
      </trkpt>
      <trkpt lat="47.59538" lon="3.63345">
        <ele>223</ele>
        <time>2019-04-03T08:53:54Z</time>
      </trkpt>
      <trkpt lat="47.59535" lon="3.63343">
        <ele>223</ele>
        <time>2019-04-03T08:53:56Z</time>
      </trkpt>
      <trkpt lat="47.59532" lon="3.63341">
        <ele>223</ele>
        <time>2019-04-03T08:53:59Z</time>
      </trkpt>
      <trkpt lat="47.59529" lon="3.63339">
        <ele>223</ele>
        <time>2019-04-03T08:54:01Z</time>
      </trkpt>
      <trkpt lat="47.59525" lon="3.63336">
        <ele>223</ele>
        <time>2019-04-03T08:54:04Z</time>
      </trkpt>
      <trkpt lat="47.59523" lon="3.63334">
        <ele>222</ele>
        <time>2019-04-03T08:54:06Z</time>
      </trkpt>
      <trkpt lat="47.59521" lon="3.63332">
        <ele>222</ele>
        <time>2019-04-03T08:54:08Z</time>
      </trkpt>
      <trkpt lat="47.59517" lon="3.63328">
        <ele>222</ele>
        <time>2019-04-03T08:54:11Z</time>
      </trkpt>
      <trkpt lat="47.59515" lon="3.63326">
        <ele>222</ele>
        <time>2019-04-03T08:54:13Z</time>
      </trkpt>
      <trkpt lat="47.59509" lon="3.63323">
        <ele>224</ele>
        <time>2019-04-03T08:54:18Z</time>
      </trkpt>
      <trkpt lat="47.59504" lon="3.63318">
        <ele>224</ele>
        <time>2019-04-03T08:54:23Z</time>
      </trkpt>
      <trkpt lat="47.59498" lon="3.63315">
        <ele>225</ele>
        <time>2019-04-03T08:54:28Z</time>
      </trkpt>
      <trkpt lat="47.59495" lon="3.63313">
        <ele>224</ele>
        <time>2019-04-03T08:54:30Z</time>
      </trkpt>
      <trkpt lat="47.59493" lon="3.63311">
        <ele>225</ele>
        <time>2019-04-03T08:54:32Z</time>
      </trkpt>
      <trkpt lat="47.59488" lon="3.63308">
        <ele>225</ele>
        <time>2019-04-03T08:54:36Z</time>
      </trkpt>
      <trkpt lat="47.59482" lon="3.63303">
        <ele>226</ele>
        <time>2019-04-03T08:54:40Z</time>
      </trkpt>
      <trkpt lat="47.59479" lon="3.633">
        <ele>226</ele>
        <time>2019-04-03T08:54:43Z</time>
      </trkpt>
      <trkpt lat="47.59475" lon="3.63297">
        <ele>227</ele>
        <time>2019-04-03T08:54:46Z</time>
      </trkpt>
      <trkpt lat="47.59472" lon="3.63296">
        <ele>227</ele>
        <time>2019-04-03T08:54:49Z</time>
      </trkpt>
      <trkpt lat="47.59468" lon="3.63293">
        <ele>226</ele>
        <time>2019-04-03T08:54:52Z</time>
      </trkpt>
      <trkpt lat="47.59465" lon="3.63291">
        <ele>226</ele>
        <time>2019-04-03T08:54:55Z</time>
      </trkpt>
      <trkpt lat="47.5946" lon="3.63287">
        <ele>225</ele>
        <time>2019-04-03T08:54:59Z</time>
      </trkpt>
      <trkpt lat="47.59458" lon="3.63286">
        <ele>226</ele>
        <time>2019-04-03T08:55:01Z</time>
      </trkpt>
      <trkpt lat="47.59453" lon="3.63284">
        <ele>227</ele>
        <time>2019-04-03T08:55:05Z</time>
      </trkpt>
      <trkpt lat="47.59448" lon="3.6328">
        <ele>227</ele>
        <time>2019-04-03T08:55:08Z</time>
      </trkpt>
      <trkpt lat="47.59445" lon="3.63279">
        <ele>226</ele>
        <time>2019-04-03T08:55:11Z</time>
      </trkpt>
      <trkpt lat="47.59441" lon="3.63282">
        <ele>226</ele>
        <time>2019-04-03T08:55:16Z</time>
      </trkpt>
      <trkpt lat="47.59437" lon="3.63288">
        <ele>228</ele>
        <time>2019-04-03T08:55:20Z</time>
      </trkpt>
      <trkpt lat="47.59435" lon="3.63291">
        <ele>227</ele>
        <time>2019-04-03T08:55:22Z</time>
      </trkpt>
      <trkpt lat="47.59432" lon="3.63294">
        <ele>227</ele>
        <time>2019-04-03T08:55:25Z</time>
      </trkpt>
      <trkpt lat="47.59429" lon="3.633">
        <ele>228</ele>
        <time>2019-04-03T08:55:29Z</time>
      </trkpt>
      <trkpt lat="47.59424" lon="3.63308">
        <ele>229</ele>
        <time>2019-04-03T08:55:35Z</time>
      </trkpt>
      <trkpt lat="47.59421" lon="3.63311">
        <ele>230</ele>
        <time>2019-04-03T08:55:37Z</time>
      </trkpt>
      <trkpt lat="47.59418" lon="3.63316">
        <ele>231</ele>
        <time>2019-04-03T08:55:40Z</time>
      </trkpt>
      <trkpt lat="47.59413" lon="3.63322">
        <ele>231</ele>
        <time>2019-04-03T08:55:44Z</time>
      </trkpt>
      <trkpt lat="47.5941" lon="3.63326">
        <ele>230</ele>
        <time>2019-04-03T08:55:47Z</time>
      </trkpt>
      <trkpt lat="47.59406" lon="3.63332">
        <ele>230</ele>
        <time>2019-04-03T08:55:51Z</time>
      </trkpt>
      <trkpt lat="47.59403" lon="3.63336">
        <ele>231</ele>
        <time>2019-04-03T08:55:54Z</time>
      </trkpt>
      <trkpt lat="47.59401" lon="3.63341">
        <ele>230</ele>
        <time>2019-04-03T08:55:58Z</time>
      </trkpt>
      <trkpt lat="47.59399" lon="3.63344">
        <ele>231</ele>
        <time>2019-04-03T08:56:00Z</time>
      </trkpt>
      <trkpt lat="47.59396" lon="3.63348">
        <ele>231</ele>
        <time>2019-04-03T08:56:03Z</time>
      </trkpt>
      <trkpt lat="47.59392" lon="3.63353">
        <ele>230</ele>
        <time>2019-04-03T08:56:06Z</time>
      </trkpt>
      <trkpt lat="47.5939" lon="3.63356">
        <ele>229</ele>
        <time>2019-04-03T08:56:09Z</time>
      </trkpt>
      <trkpt lat="47.59385" lon="3.63356">
        <ele>229</ele>
        <time>2019-04-03T08:56:12Z</time>
      </trkpt>
      <trkpt lat="47.59379" lon="3.63351">
        <ele>228</ele>
        <time>2019-04-03T08:56:17Z</time>
      </trkpt>
      <trkpt lat="47.59376" lon="3.63344">
        <ele>228</ele>
        <time>2019-04-03T08:56:22Z</time>
      </trkpt>
      <trkpt lat="47.59376" lon="3.63337">
        <ele>228</ele>
        <time>2019-04-03T08:56:26Z</time>
      </trkpt>
      <trkpt lat="47.59372" lon="3.63329">
        <ele>228</ele>
        <time>2019-04-03T08:56:31Z</time>
      </trkpt>
      <trkpt lat="47.59368" lon="3.63323">
        <ele>229</ele>
        <time>2019-04-03T08:56:36Z</time>
      </trkpt>
      <trkpt lat="47.59366" lon="3.6332">
        <ele>229</ele>
        <time>2019-04-03T08:56:39Z</time>
      </trkpt>
      <trkpt lat="47.59363" lon="3.63314">
        <ele>229</ele>
        <time>2019-04-03T08:56:44Z</time>
      </trkpt>
      <trkpt lat="47.5936" lon="3.63309">
        <ele>228</ele>
        <time>2019-04-03T08:56:48Z</time>
      </trkpt>
      <trkpt lat="47.59355" lon="3.63307">
        <ele>229</ele>
        <time>2019-04-03T08:56:51Z</time>
      </trkpt>
      <trkpt lat="47.59351" lon="3.63302">
        <ele>229</ele>
        <time>2019-04-03T08:56:55Z</time>
      </trkpt>
      <trkpt lat="47.59349" lon="3.633">
        <ele>228</ele>
        <time>2019-04-03T08:56:57Z</time>
      </trkpt>
      <trkpt lat="47.59345" lon="3.63297">
        <ele>228</ele>
        <time>2019-04-03T08:57:00Z</time>
      </trkpt>
      <trkpt lat="47.59341" lon="3.63292">
        <ele>228</ele>
        <time>2019-04-03T08:57:04Z</time>
      </trkpt>
      <trkpt lat="47.59339" lon="3.63289">
        <ele>228</ele>
        <time>2019-04-03T08:57:06Z</time>
      </trkpt>
      <trkpt lat="47.59337" lon="3.63287">
        <ele>229</ele>
        <time>2019-04-03T08:57:08Z</time>
      </trkpt>
      <trkpt lat="47.59335" lon="3.63285">
        <ele>229</ele>
        <time>2019-04-03T08:57:10Z</time>
      </trkpt>
      <trkpt lat="47.59332" lon="3.63281">
        <ele>228</ele>
        <time>2019-04-03T08:57:13Z</time>
      </trkpt>
      <trkpt lat="47.59328" lon="3.63278">
        <ele>229</ele>
        <time>2019-04-03T08:57:17Z</time>
      </trkpt>
      <trkpt lat="47.59322" lon="3.63275">
        <ele>228</ele>
        <time>2019-04-03T08:57:21Z</time>
      </trkpt>
      <trkpt lat="47.59318" lon="3.63267">
        <ele>228</ele>
        <time>2019-04-03T08:57:26Z</time>
      </trkpt>
      <trkpt lat="47.59311" lon="3.63262">
        <ele>229</ele>
        <time>2019-04-03T08:57:31Z</time>
      </trkpt>
      <trkpt lat="47.59309" lon="3.6326">
        <ele>228</ele>
        <time>2019-04-03T08:57:34Z</time>
      </trkpt>
      <trkpt lat="47.59303" lon="3.63257">
        <ele>229</ele>
        <time>2019-04-03T08:57:39Z</time>
      </trkpt>
      <trkpt lat="47.59297" lon="3.63253">
        <ele>228</ele>
        <time>2019-04-03T08:57:44Z</time>
      </trkpt>
      <trkpt lat="47.59294" lon="3.63251">
        <ele>228</ele>
        <time>2019-04-03T08:57:47Z</time>
      </trkpt>
      <trkpt lat="47.59289" lon="3.63247">
        <ele>228</ele>
        <time>2019-04-03T08:57:52Z</time>
      </trkpt>
      <trkpt lat="47.59287" lon="3.63245">
        <ele>228</ele>
        <time>2019-04-03T08:57:54Z</time>
      </trkpt>
      <trkpt lat="47.59284" lon="3.63243">
        <ele>228</ele>
        <time>2019-04-03T08:57:56Z</time>
      </trkpt>
      <trkpt lat="47.5928" lon="3.63242">
        <ele>228</ele>
        <time>2019-04-03T08:57:59Z</time>
      </trkpt>
      <trkpt lat="47.59274" lon="3.63236">
        <ele>227</ele>
        <time>2019-04-03T08:58:04Z</time>
      </trkpt>
      <trkpt lat="47.59268" lon="3.63233">
        <ele>227</ele>
        <time>2019-04-03T08:58:08Z</time>
      </trkpt>
      <trkpt lat="47.59265" lon="3.63232">
        <ele>227</ele>
        <time>2019-04-03T08:58:10Z</time>
      </trkpt>
      <trkpt lat="47.59263" lon="3.63231">
        <ele>227</ele>
        <time>2019-04-03T08:58:12Z</time>
      </trkpt>
      <trkpt lat="47.59258" lon="3.63228">
        <ele>226</ele>
        <time>2019-04-03T08:58:16Z</time>
      </trkpt>
      <trkpt lat="47.59253" lon="3.63227">
        <ele>226</ele>
        <time>2019-04-03T08:58:19Z</time>
      </trkpt>
      <trkpt lat="47.59247" lon="3.63224">
        <ele>226</ele>
        <time>2019-04-03T08:58:23Z</time>
      </trkpt>
      <trkpt lat="47.59244" lon="3.63222">
        <ele>225</ele>
        <time>2019-04-03T08:58:25Z</time>
      </trkpt>
      <trkpt lat="47.5924" lon="3.63221">
        <ele>224</ele>
        <time>2019-04-03T08:58:27Z</time>
      </trkpt>
      <trkpt lat="47.59235" lon="3.6322">
        <ele>224</ele>
        <time>2019-04-03T08:58:31Z</time>
      </trkpt>
      <trkpt lat="47.59231" lon="3.63219">
        <ele>223</ele>
        <time>2019-04-03T08:58:34Z</time>
      </trkpt>
      <trkpt lat="47.59226" lon="3.63218">
        <ele>223</ele>
        <time>2019-04-03T08:58:37Z</time>
      </trkpt>
      <trkpt lat="47.5922" lon="3.63217">
        <ele>223</ele>
        <time>2019-04-03T08:58:42Z</time>
      </trkpt>
      <trkpt lat="47.59216" lon="3.63217">
        <ele>223</ele>
        <time>2019-04-03T08:58:44Z</time>
      </trkpt>
      <trkpt lat="47.5921" lon="3.63216">
        <ele>222</ele>
        <time>2019-04-03T08:58:48Z</time>
      </trkpt>
      <trkpt lat="47.59205" lon="3.63216">
        <ele>223</ele>
        <time>2019-04-03T08:58:51Z</time>
      </trkpt>
      <trkpt lat="47.59201" lon="3.63216">
        <ele>224</ele>
        <time>2019-04-03T08:58:55Z</time>
      </trkpt>
      <trkpt lat="47.59195" lon="3.63217">
        <ele>224</ele>
        <time>2019-04-03T08:58:59Z</time>
      </trkpt>
      <trkpt lat="47.59189" lon="3.63215">
        <ele>224</ele>
        <time>2019-04-03T08:59:03Z</time>
      </trkpt>
      <trkpt lat="47.59184" lon="3.63215">
        <ele>224</ele>
        <time>2019-04-03T08:59:07Z</time>
      </trkpt>
      <trkpt lat="47.59181" lon="3.63214">
        <ele>223</ele>
        <time>2019-04-03T08:59:09Z</time>
      </trkpt>
      <trkpt lat="47.59178" lon="3.63214">
        <ele>223</ele>
        <time>2019-04-03T08:59:11Z</time>
      </trkpt>
      <trkpt lat="47.59175" lon="3.63214">
        <ele>224</ele>
        <time>2019-04-03T08:59:13Z</time>
      </trkpt>
      <trkpt lat="47.59172" lon="3.63214">
        <ele>224</ele>
        <time>2019-04-03T08:59:15Z</time>
      </trkpt>
      <trkpt lat="47.59168" lon="3.63213">
        <ele>224</ele>
        <time>2019-04-03T08:59:18Z</time>
      </trkpt>
      <trkpt lat="47.59163" lon="3.63215">
        <ele>224</ele>
        <time>2019-04-03T08:59:21Z</time>
      </trkpt>
      <trkpt lat="47.59159" lon="3.63214">
        <ele>223</ele>
        <time>2019-04-03T08:59:25Z</time>
      </trkpt>
      <trkpt lat="47.59153" lon="3.63215">
        <ele>224</ele>
        <time>2019-04-03T08:59:29Z</time>
      </trkpt>
      <trkpt lat="47.59147" lon="3.63219">
        <ele>223</ele>
        <time>2019-04-03T08:59:34Z</time>
      </trkpt>
      <trkpt lat="47.5914" lon="3.63219">
        <ele>222</ele>
        <time>2019-04-03T08:59:39Z</time>
      </trkpt>
      <trkpt lat="47.59137" lon="3.6322">
        <ele>222</ele>
        <time>2019-04-03T08:59:42Z</time>
      </trkpt>
      <trkpt lat="47.59132" lon="3.63219">
        <ele>219</ele>
        <time>2019-04-03T08:59:45Z</time>
      </trkpt>
      <trkpt lat="47.59126" lon="3.63219">
        <ele>219</ele>
        <time>2019-04-03T08:59:49Z</time>
      </trkpt>
      <trkpt lat="47.59121" lon="3.63221">
        <ele>218</ele>
        <time>2019-04-03T08:59:53Z</time>
      </trkpt>
      <trkpt lat="47.59116" lon="3.6322">
        <ele>216</ele>
        <time>2019-04-03T08:59:57Z</time>
      </trkpt>
      <trkpt lat="47.59113" lon="3.6322">
        <ele>217</ele>
        <time>2019-04-03T08:59:59Z</time>
      </trkpt>
      <trkpt lat="47.59108" lon="3.6322">
        <ele>216</ele>
        <time>2019-04-03T09:00:03Z</time>
      </trkpt>
      <trkpt lat="47.59105" lon="3.63221">
        <ele>216</ele>
        <time>2019-04-03T09:00:05Z</time>
      </trkpt>
      <trkpt lat="47.59099" lon="3.63221">
        <ele>215</ele>
        <time>2019-04-03T09:00:09Z</time>
      </trkpt>
      <trkpt lat="47.59096" lon="3.63222">
        <ele>214</ele>
        <time>2019-04-03T09:00:12Z</time>
      </trkpt>
      <trkpt lat="47.5909" lon="3.63223">
        <ele>213</ele>
        <time>2019-04-03T09:00:16Z</time>
      </trkpt>
      <trkpt lat="47.59085" lon="3.63223">
        <ele>213</ele>
        <time>2019-04-03T09:00:20Z</time>
      </trkpt>
      <trkpt lat="47.59082" lon="3.63223">
        <ele>211</ele>
        <time>2019-04-03T09:00:23Z</time>
      </trkpt>
      <trkpt lat="47.59079" lon="3.63223">
        <ele>211</ele>
        <time>2019-04-03T09:00:25Z</time>
      </trkpt>
      <trkpt lat="47.59072" lon="3.63223">
        <ele>210</ele>
        <time>2019-04-03T09:00:30Z</time>
      </trkpt>
      <trkpt lat="47.59068" lon="3.63223">
        <ele>211</ele>
        <time>2019-04-03T09:00:34Z</time>
      </trkpt>
      <trkpt lat="47.59065" lon="3.63222">
        <ele>211</ele>
        <time>2019-04-03T09:00:37Z</time>
      </trkpt>
      <trkpt lat="47.59059" lon="3.63224">
        <ele>210</ele>
        <time>2019-04-03T09:00:44Z</time>
      </trkpt>
      <trkpt lat="47.59055" lon="3.63224">
        <ele>210</ele>
        <time>2019-04-03T09:00:48Z</time>
      </trkpt>
      <trkpt lat="47.59049" lon="3.63226">
        <ele>209</ele>
        <time>2019-04-03T09:00:51Z</time>
      </trkpt>
      <trkpt lat="47.59045" lon="3.63227">
        <ele>208</ele>
        <time>2019-04-03T09:00:54Z</time>
      </trkpt>
      <trkpt lat="47.59039" lon="3.63231">
        <ele>208</ele>
        <time>2019-04-03T09:00:59Z</time>
      </trkpt>
      <trkpt lat="47.59032" lon="3.63234">
        <ele>206</ele>
        <time>2019-04-03T09:01:03Z</time>
      </trkpt>
      <trkpt lat="47.59026" lon="3.63236">
        <ele>204</ele>
        <time>2019-04-03T09:01:09Z</time>
      </trkpt>
      <trkpt lat="47.59021" lon="3.63237">
        <ele>204</ele>
        <time>2019-04-03T09:01:13Z</time>
      </trkpt>
      <trkpt lat="47.59016" lon="3.63238">
        <ele>202</ele>
        <time>2019-04-03T09:01:17Z</time>
      </trkpt>
      <trkpt lat="47.59009" lon="3.63239">
        <ele>201</ele>
        <time>2019-04-03T09:01:22Z</time>
      </trkpt>
      <trkpt lat="47.59004" lon="3.6324">
        <ele>200</ele>
        <time>2019-04-03T09:01:25Z</time>
      </trkpt>
      <trkpt lat="47.58999" lon="3.63241">
        <ele>201</ele>
        <time>2019-04-03T09:01:28Z</time>
      </trkpt>
      <trkpt lat="47.58995" lon="3.63242">
        <ele>199</ele>
        <time>2019-04-03T09:01:31Z</time>
      </trkpt>
      <trkpt lat="47.58992" lon="3.63243">
        <ele>199</ele>
        <time>2019-04-03T09:01:33Z</time>
      </trkpt>
      <trkpt lat="47.58989" lon="3.63244">
        <ele>198</ele>
        <time>2019-04-03T09:01:35Z</time>
      </trkpt>
      <trkpt lat="47.58987" lon="3.63245">
        <ele>197</ele>
        <time>2019-04-03T09:01:37Z</time>
      </trkpt>
      <trkpt lat="47.58984" lon="3.63246">
        <ele>196</ele>
        <time>2019-04-03T09:01:39Z</time>
      </trkpt>
      <trkpt lat="47.5898" lon="3.63249">
        <ele>195</ele>
        <time>2019-04-03T09:01:43Z</time>
      </trkpt>
      <trkpt lat="47.58977" lon="3.63251">
        <ele>194</ele>
        <time>2019-04-03T09:01:45Z</time>
      </trkpt>
      <trkpt lat="47.58973" lon="3.63253">
        <ele>193</ele>
        <time>2019-04-03T09:01:48Z</time>
      </trkpt>
      <trkpt lat="47.58968" lon="3.63252">
        <ele>192</ele>
        <time>2019-04-03T09:01:52Z</time>
      </trkpt>
      <trkpt lat="47.58966" lon="3.63254">
        <ele>189</ele>
        <time>2019-04-03T09:02:02Z</time>
      </trkpt>
      <trkpt lat="47.58963" lon="3.63256">
        <ele>189</ele>
        <time>2019-04-03T09:02:05Z</time>
      </trkpt>
      <trkpt lat="47.58963" lon="3.63256">
        <ele>189</ele>
        <time>2019-04-03T09:02:13Z</time>
      </trkpt>
      <trkpt lat="47.58961" lon="3.63257">
        <ele>188</ele>
        <time>2019-04-03T09:02:14Z</time>
      </trkpt>
      <trkpt lat="47.58955" lon="3.63259">
        <ele>186</ele>
        <time>2019-04-03T09:02:34Z</time>
      </trkpt>
      <trkpt lat="47.58949" lon="3.63263">
        <ele>187</ele>
        <time>2019-04-03T09:02:41Z</time>
      </trkpt>
      <trkpt lat="47.58944" lon="3.63265">
        <ele>187</ele>
        <time>2019-04-03T09:02:44Z</time>
      </trkpt>
      <trkpt lat="47.5894" lon="3.6327">
        <ele>187</ele>
        <time>2019-04-03T09:02:48Z</time>
      </trkpt>
      <trkpt lat="47.58937" lon="3.63276">
        <ele>185</ele>
        <time>2019-04-03T09:02:52Z</time>
      </trkpt>
      <trkpt lat="47.58935" lon="3.63279">
        <ele>185</ele>
        <time>2019-04-03T09:02:54Z</time>
      </trkpt>
      <trkpt lat="47.58932" lon="3.63285">
        <ele>184</ele>
        <time>2019-04-03T09:02:58Z</time>
      </trkpt>
      <trkpt lat="47.5893" lon="3.63287">
        <ele>183</ele>
        <time>2019-04-03T09:03:00Z</time>
      </trkpt>
      <trkpt lat="47.58928" lon="3.63294">
        <ele>182</ele>
        <time>2019-04-03T09:03:05Z</time>
      </trkpt>
      <trkpt lat="47.58924" lon="3.63301">
        <ele>181</ele>
        <time>2019-04-03T09:03:11Z</time>
      </trkpt>
      <trkpt lat="47.58918" lon="3.63303">
        <ele>180</ele>
        <time>2019-04-03T09:03:18Z</time>
      </trkpt>
      <trkpt lat="47.58914" lon="3.63307">
        <ele>178</ele>
        <time>2019-04-03T09:03:22Z</time>
      </trkpt>
      <trkpt lat="47.5891" lon="3.6331">
        <ele>177</ele>
        <time>2019-04-03T09:03:25Z</time>
      </trkpt>
      <trkpt lat="47.58907" lon="3.63318">
        <ele>176</ele>
        <time>2019-04-03T09:03:30Z</time>
      </trkpt>
      <trkpt lat="47.58906" lon="3.63322">
        <ele>175</ele>
        <time>2019-04-03T09:03:32Z</time>
      </trkpt>
      <trkpt lat="47.58904" lon="3.63325">
        <ele>175</ele>
        <time>2019-04-03T09:03:34Z</time>
      </trkpt>
      <trkpt lat="47.58903" lon="3.63329">
        <ele>175</ele>
        <time>2019-04-03T09:03:36Z</time>
      </trkpt>
      <trkpt lat="47.58898" lon="3.63328">
        <ele>175</ele>
        <time>2019-04-03T09:03:41Z</time>
      </trkpt>
      <trkpt lat="47.58894" lon="3.63328">
        <ele>175</ele>
        <time>2019-04-03T09:03:44Z</time>
      </trkpt>
      <trkpt lat="47.58894" lon="3.63334">
        <ele>173</ele>
        <time>2019-04-03T09:03:53Z</time>
      </trkpt>
      <trkpt lat="47.5889" lon="3.63328">
        <ele>173</ele>
        <time>2019-04-03T09:07:40Z</time>
      </trkpt>
      <trkpt lat="47.58885" lon="3.63326">
        <ele>173</ele>
        <time>2019-04-03T09:07:44Z</time>
      </trkpt>
      <trkpt lat="47.58883" lon="3.63325">
        <ele>172</ele>
        <time>2019-04-03T09:07:46Z</time>
      </trkpt>
      <trkpt lat="47.58878" lon="3.63323">
        <ele>173</ele>
        <time>2019-04-03T09:07:52Z</time>
      </trkpt>
      <trkpt lat="47.58873" lon="3.63322">
        <ele>173</ele>
        <time>2019-04-03T09:07:56Z</time>
      </trkpt>
      <trkpt lat="47.58868" lon="3.63323">
        <ele>173</ele>
        <time>2019-04-03T09:08:00Z</time>
      </trkpt>
      <trkpt lat="47.58866" lon="3.63323">
        <ele>173</ele>
        <time>2019-04-03T09:08:02Z</time>
      </trkpt>
      <trkpt lat="47.58863" lon="3.63323">
        <ele>172</ele>
        <time>2019-04-03T09:08:04Z</time>
      </trkpt>
      <trkpt lat="47.58857" lon="3.63323">
        <ele>173</ele>
        <time>2019-04-03T09:08:08Z</time>
      </trkpt>
      <trkpt lat="47.58852" lon="3.63325">
        <ele>174</ele>
        <time>2019-04-03T09:08:13Z</time>
      </trkpt>
      <trkpt lat="47.58845" lon="3.63325">
        <ele>176</ele>
        <time>2019-04-03T09:08:19Z</time>
      </trkpt>
      <trkpt lat="47.58842" lon="3.63326">
        <ele>176</ele>
        <time>2019-04-03T09:08:22Z</time>
      </trkpt>
      <trkpt lat="47.58837" lon="3.6333">
        <ele>177</ele>
        <time>2019-04-03T09:08:27Z</time>
      </trkpt>
      <trkpt lat="47.58833" lon="3.63332">
        <ele>177</ele>
        <time>2019-04-03T09:08:31Z</time>
      </trkpt>
      <trkpt lat="47.5883" lon="3.63334">
        <ele>178</ele>
        <time>2019-04-03T09:08:34Z</time>
      </trkpt>
      <trkpt lat="47.58827" lon="3.63336">
        <ele>177</ele>
        <time>2019-04-03T09:08:38Z</time>
      </trkpt>
      <trkpt lat="47.58824" lon="3.63338">
        <ele>178</ele>
        <time>2019-04-03T09:08:41Z</time>
      </trkpt>
      <trkpt lat="47.58821" lon="3.63341">
        <ele>179</ele>
        <time>2019-04-03T09:08:44Z</time>
      </trkpt>
      <trkpt lat="47.58816" lon="3.63345">
        <ele>181</ele>
        <time>2019-04-03T09:08:49Z</time>
      </trkpt>
      <trkpt lat="47.58814" lon="3.63347">
        <ele>182</ele>
        <time>2019-04-03T09:08:50Z</time>
      </trkpt>
      <trkpt lat="47.58809" lon="3.6335">
        <ele>182</ele>
        <time>2019-04-03T09:08:54Z</time>
      </trkpt>
      <trkpt lat="47.58805" lon="3.63354">
        <ele>182</ele>
        <time>2019-04-03T09:08:58Z</time>
      </trkpt>
      <trkpt lat="47.58802" lon="3.63356">
        <ele>182</ele>
        <time>2019-04-03T09:09:00Z</time>
      </trkpt>
      <trkpt lat="47.588" lon="3.63358">
        <ele>183</ele>
        <time>2019-04-03T09:09:02Z</time>
      </trkpt>
      <trkpt lat="47.58796" lon="3.63362">
        <ele>183</ele>
        <time>2019-04-03T09:09:06Z</time>
      </trkpt>
      <trkpt lat="47.58792" lon="3.63367">
        <ele>183</ele>
        <time>2019-04-03T09:09:13Z</time>
      </trkpt>
      <trkpt lat="47.5879" lon="3.63369">
        <ele>183</ele>
        <time>2019-04-03T09:09:15Z</time>
      </trkpt>
      <trkpt lat="47.58787" lon="3.63372">
        <ele>183</ele>
        <time>2019-04-03T09:09:17Z</time>
      </trkpt>
      <trkpt lat="47.58785" lon="3.63374">
        <ele>183</ele>
        <time>2019-04-03T09:09:19Z</time>
      </trkpt>
      <trkpt lat="47.58781" lon="3.63378">
        <ele>184</ele>
        <time>2019-04-03T09:09:23Z</time>
      </trkpt>
      <trkpt lat="47.5878" lon="3.6338">
        <ele>184</ele>
        <time>2019-04-03T09:09:25Z</time>
      </trkpt>
      <trkpt lat="47.58775" lon="3.63384">
        <ele>185</ele>
        <time>2019-04-03T09:09:29Z</time>
      </trkpt>
      <trkpt lat="47.58771" lon="3.63389">
        <ele>186</ele>
        <time>2019-04-03T09:09:35Z</time>
      </trkpt>
      <trkpt lat="47.58768" lon="3.63395">
        <ele>187</ele>
        <time>2019-04-03T09:09:41Z</time>
      </trkpt>
      <trkpt lat="47.58762" lon="3.63399">
        <ele>186</ele>
        <time>2019-04-03T09:09:46Z</time>
      </trkpt>
      <trkpt lat="47.58759" lon="3.63401">
        <ele>186</ele>
        <time>2019-04-03T09:09:48Z</time>
      </trkpt>
      <trkpt lat="47.58756" lon="3.63407">
        <ele>187</ele>
        <time>2019-04-03T09:09:54Z</time>
      </trkpt>
      <trkpt lat="47.58754" lon="3.63411">
        <ele>188</ele>
        <time>2019-04-03T09:09:56Z</time>
      </trkpt>
      <trkpt lat="47.5875" lon="3.63415">
        <ele>188</ele>
        <time>2019-04-03T09:09:59Z</time>
      </trkpt>
      <trkpt lat="47.58746" lon="3.6342">
        <ele>189</ele>
        <time>2019-04-03T09:10:03Z</time>
      </trkpt>
      <trkpt lat="47.5874" lon="3.63423">
        <ele>189</ele>
        <time>2019-04-03T09:10:07Z</time>
      </trkpt>
      <trkpt lat="47.58737" lon="3.63427">
        <ele>189</ele>
        <time>2019-04-03T09:10:11Z</time>
      </trkpt>
      <trkpt lat="47.58732" lon="3.63431">
        <ele>188</ele>
        <time>2019-04-03T09:10:14Z</time>
      </trkpt>
      <trkpt lat="47.58729" lon="3.63434">
        <ele>188</ele>
        <time>2019-04-03T09:10:16Z</time>
      </trkpt>
      <trkpt lat="47.58724" lon="3.63438">
        <ele>187</ele>
        <time>2019-04-03T09:10:20Z</time>
      </trkpt>
      <trkpt lat="47.58721" lon="3.63444">
        <ele>187</ele>
        <time>2019-04-03T09:10:23Z</time>
      </trkpt>
      <trkpt lat="47.58718" lon="3.63449">
        <ele>187</ele>
        <time>2019-04-03T09:10:27Z</time>
      </trkpt>
      <trkpt lat="47.58714" lon="3.63455">
        <ele>187</ele>
        <time>2019-04-03T09:10:31Z</time>
      </trkpt>
      <trkpt lat="47.5871" lon="3.6346">
        <ele>187</ele>
        <time>2019-04-03T09:10:35Z</time>
      </trkpt>
      <trkpt lat="47.58705" lon="3.63465">
        <ele>186</ele>
        <time>2019-04-03T09:10:38Z</time>
      </trkpt>
      <trkpt lat="47.58701" lon="3.63471">
        <ele>186</ele>
        <time>2019-04-03T09:10:41Z</time>
      </trkpt>
      <trkpt lat="47.58699" lon="3.63474">
        <ele>185</ele>
        <time>2019-04-03T09:10:43Z</time>
      </trkpt>
      <trkpt lat="47.58698" lon="3.63476">
        <ele>185</ele>
        <time>2019-04-03T09:10:45Z</time>
      </trkpt>
      <trkpt lat="47.58696" lon="3.63479">
        <ele>185</ele>
        <time>2019-04-03T09:10:47Z</time>
      </trkpt>
      <trkpt lat="47.58694" lon="3.63481">
        <ele>185</ele>
        <time>2019-04-03T09:10:50Z</time>
      </trkpt>
      <trkpt lat="47.58691" lon="3.63485">
        <ele>185</ele>
        <time>2019-04-03T09:10:52Z</time>
      </trkpt>
      <trkpt lat="47.58687" lon="3.63489">
        <ele>185</ele>
        <time>2019-04-03T09:10:57Z</time>
      </trkpt>
      <trkpt lat="47.58685" lon="3.63491">
        <ele>185</ele>
        <time>2019-04-03T09:10:59Z</time>
      </trkpt>
      <trkpt lat="47.58682" lon="3.63493">
        <ele>186</ele>
        <time>2019-04-03T09:11:01Z</time>
      </trkpt>
      <trkpt lat="47.5868" lon="3.63495">
        <ele>186</ele>
        <time>2019-04-03T09:11:03Z</time>
      </trkpt>
      <trkpt lat="47.58678" lon="3.63497">
        <ele>186</ele>
        <time>2019-04-03T09:11:05Z</time>
      </trkpt>
      <trkpt lat="47.58673" lon="3.635">
        <ele>186</ele>
        <time>2019-04-03T09:11:10Z</time>
      </trkpt>
      <trkpt lat="47.58667" lon="3.63504">
        <ele>187</ele>
        <time>2019-04-03T09:11:14Z</time>
      </trkpt>
      <trkpt lat="47.58662" lon="3.63504">
        <ele>188</ele>
        <time>2019-04-03T09:11:19Z</time>
      </trkpt>
      <trkpt lat="47.58657" lon="3.63507">
        <ele>190</ele>
        <time>2019-04-03T09:11:24Z</time>
      </trkpt>
      <trkpt lat="47.58653" lon="3.63512">
        <ele>189</ele>
        <time>2019-04-03T09:11:30Z</time>
      </trkpt>
      <trkpt lat="47.58651" lon="3.63514">
        <ele>189</ele>
        <time>2019-04-03T09:11:32Z</time>
      </trkpt>
      <trkpt lat="47.58647" lon="3.63517">
        <ele>188</ele>
        <time>2019-04-03T09:11:36Z</time>
      </trkpt>
      <trkpt lat="47.58644" lon="3.63518">
        <ele>188</ele>
        <time>2019-04-03T09:11:38Z</time>
      </trkpt>
      <trkpt lat="47.58641" lon="3.6352">
        <ele>187</ele>
        <time>2019-04-03T09:11:41Z</time>
      </trkpt>
      <trkpt lat="47.58638" lon="3.63522">
        <ele>186</ele>
        <time>2019-04-03T09:11:44Z</time>
      </trkpt>
      <trkpt lat="47.58633" lon="3.63522">
        <ele>186</ele>
        <time>2019-04-03T09:11:48Z</time>
      </trkpt>
      <trkpt lat="47.58628" lon="3.6352">
        <ele>187</ele>
        <time>2019-04-03T09:11:51Z</time>
      </trkpt>
      <trkpt lat="47.58623" lon="3.63519">
        <ele>187</ele>
        <time>2019-04-03T09:11:55Z</time>
      </trkpt>
      <trkpt lat="47.58616" lon="3.63518">
        <ele>189</ele>
        <time>2019-04-03T09:12:00Z</time>
      </trkpt>
      <trkpt lat="47.58611" lon="3.63518">
        <ele>188</ele>
        <time>2019-04-03T09:12:03Z</time>
      </trkpt>
      <trkpt lat="47.58609" lon="3.63519">
        <ele>188</ele>
        <time>2019-04-03T09:12:07Z</time>
      </trkpt>
      <trkpt lat="47.58603" lon="3.63518">
        <ele>186</ele>
        <time>2019-04-03T09:12:11Z</time>
      </trkpt>
      <trkpt lat="47.58601" lon="3.63518">
        <ele>184</ele>
        <time>2019-04-03T09:12:13Z</time>
      </trkpt>
      <trkpt lat="47.58596" lon="3.6352">
        <ele>184</ele>
        <time>2019-04-03T09:12:16Z</time>
      </trkpt>
      <trkpt lat="47.58591" lon="3.63521">
        <ele>184</ele>
        <time>2019-04-03T09:12:20Z</time>
      </trkpt>
      <trkpt lat="47.58587" lon="3.63522">
        <ele>184</ele>
        <time>2019-04-03T09:12:22Z</time>
      </trkpt>
      <trkpt lat="47.58585" lon="3.63523">
        <ele>184</ele>
        <time>2019-04-03T09:12:24Z</time>
      </trkpt>
      <trkpt lat="47.58581" lon="3.63525">
        <ele>184</ele>
        <time>2019-04-03T09:12:27Z</time>
      </trkpt>
      <trkpt lat="47.58576" lon="3.63526">
        <ele>184</ele>
        <time>2019-04-03T09:12:30Z</time>
      </trkpt>
      <trkpt lat="47.58571" lon="3.6353">
        <ele>185</ele>
        <time>2019-04-03T09:12:34Z</time>
      </trkpt>
      <trkpt lat="47.58566" lon="3.63531">
        <ele>185</ele>
        <time>2019-04-03T09:12:36Z</time>
      </trkpt>
      <trkpt lat="47.58562" lon="3.63535">
        <ele>184</ele>
        <time>2019-04-03T09:12:40Z</time>
      </trkpt>
      <trkpt lat="47.5856" lon="3.63537">
        <ele>184</ele>
        <time>2019-04-03T09:12:42Z</time>
      </trkpt>
      <trkpt lat="47.58557" lon="3.63539">
        <ele>183</ele>
        <time>2019-04-03T09:12:44Z</time>
      </trkpt>
      <trkpt lat="47.58554" lon="3.63542">
        <ele>182</ele>
        <time>2019-04-03T09:12:47Z</time>
      </trkpt>
      <trkpt lat="47.58551" lon="3.63544">
        <ele>182</ele>
        <time>2019-04-03T09:12:49Z</time>
      </trkpt>
      <trkpt lat="47.58549" lon="3.63546">
        <ele>182</ele>
        <time>2019-04-03T09:12:51Z</time>
      </trkpt>
      <trkpt lat="47.58546" lon="3.63549">
        <ele>182</ele>
        <time>2019-04-03T09:12:54Z</time>
      </trkpt>
      <trkpt lat="47.58541" lon="3.63553">
        <ele>181</ele>
        <time>2019-04-03T09:12:59Z</time>
      </trkpt>
      <trkpt lat="47.58537" lon="3.63557">
        <ele>182</ele>
        <time>2019-04-03T09:13:02Z</time>
      </trkpt>
      <trkpt lat="47.58532" lon="3.6356">
        <ele>182</ele>
        <time>2019-04-03T09:13:06Z</time>
      </trkpt>
      <trkpt lat="47.5853" lon="3.63562">
        <ele>182</ele>
        <time>2019-04-03T09:13:08Z</time>
      </trkpt>
      <trkpt lat="47.58526" lon="3.63564">
        <ele>181</ele>
        <time>2019-04-03T09:13:10Z</time>
      </trkpt>
      <trkpt lat="47.58524" lon="3.63566">
        <ele>181</ele>
        <time>2019-04-03T09:13:12Z</time>
      </trkpt>
      <trkpt lat="47.58521" lon="3.63568">
        <ele>181</ele>
        <time>2019-04-03T09:13:15Z</time>
      </trkpt>
      <trkpt lat="47.58519" lon="3.63569">
        <ele>181</ele>
        <time>2019-04-03T09:13:16Z</time>
      </trkpt>
      <trkpt lat="47.58514" lon="3.63574">
        <ele>181</ele>
        <time>2019-04-03T09:13:20Z</time>
      </trkpt>
      <trkpt lat="47.58512" lon="3.63576">
        <ele>182</ele>
        <time>2019-04-03T09:13:22Z</time>
      </trkpt>
      <trkpt lat="47.58508" lon="3.63579">
        <ele>181</ele>
        <time>2019-04-03T09:13:26Z</time>
      </trkpt>
      <trkpt lat="47.58506" lon="3.6358">
        <ele>182</ele>
        <time>2019-04-03T09:13:28Z</time>
      </trkpt>
      <trkpt lat="47.58503" lon="3.63582">
        <ele>183</ele>
        <time>2019-04-03T09:13:30Z</time>
      </trkpt>
      <trkpt lat="47.58499" lon="3.63586">
        <ele>182</ele>
        <time>2019-04-03T09:13:34Z</time>
      </trkpt>
      <trkpt lat="47.58494" lon="3.63589">
        <ele>182</ele>
        <time>2019-04-03T09:13:40Z</time>
      </trkpt>
      <trkpt lat="47.58489" lon="3.63593">
        <ele>182</ele>
        <time>2019-04-03T09:13:45Z</time>
      </trkpt>
      <trkpt lat="47.58483" lon="3.63597">
        <ele>183</ele>
        <time>2019-04-03T09:13:50Z</time>
      </trkpt>
      <trkpt lat="47.58477" lon="3.63601">
        <ele>184</ele>
        <time>2019-04-03T09:13:56Z</time>
      </trkpt>
      <trkpt lat="47.58472" lon="3.63602">
        <ele>184</ele>
        <time>2019-04-03T09:14:00Z</time>
      </trkpt>
      <trkpt lat="47.58467" lon="3.63606">
        <ele>184</ele>
        <time>2019-04-03T09:14:06Z</time>
      </trkpt>
      <trkpt lat="47.58464" lon="3.63608">
        <ele>184</ele>
        <time>2019-04-03T09:14:09Z</time>
      </trkpt>
      <trkpt lat="47.58459" lon="3.63611">
        <ele>184</ele>
        <time>2019-04-03T09:14:12Z</time>
      </trkpt>
      <trkpt lat="47.58455" lon="3.63613">
        <ele>185</ele>
        <time>2019-04-03T09:14:17Z</time>
      </trkpt>
      <trkpt lat="47.58451" lon="3.63615">
        <ele>185</ele>
        <time>2019-04-03T09:14:19Z</time>
      </trkpt>
      <trkpt lat="47.58447" lon="3.63617">
        <ele>185</ele>
        <time>2019-04-03T09:14:22Z</time>
      </trkpt>
      <trkpt lat="47.58444" lon="3.63619">
        <ele>185</ele>
        <time>2019-04-03T09:14:25Z</time>
      </trkpt>
      <trkpt lat="47.58441" lon="3.6362">
        <ele>184</ele>
        <time>2019-04-03T09:14:27Z</time>
      </trkpt>
      <trkpt lat="47.58435" lon="3.63622">
        <ele>184</ele>
        <time>2019-04-03T09:14:32Z</time>
      </trkpt>
      <trkpt lat="47.5843" lon="3.63624">
        <ele>185</ele>
        <time>2019-04-03T09:14:36Z</time>
      </trkpt>
      <trkpt lat="47.58428" lon="3.63625">
        <ele>185</ele>
        <time>2019-04-03T09:14:38Z</time>
      </trkpt>
      <trkpt lat="47.58425" lon="3.63626">
        <ele>185</ele>
        <time>2019-04-03T09:14:40Z</time>
      </trkpt>
      <trkpt lat="47.58423" lon="3.63628">
        <ele>185</ele>
        <time>2019-04-03T09:14:43Z</time>
      </trkpt>
      <trkpt lat="47.5842" lon="3.6363">
        <ele>185</ele>
        <time>2019-04-03T09:14:46Z</time>
      </trkpt>
      <trkpt lat="47.58415" lon="3.63631">
        <ele>186</ele>
        <time>2019-04-03T09:14:49Z</time>
      </trkpt>
      <trkpt lat="47.5841" lon="3.63633">
        <ele>186</ele>
        <time>2019-04-03T09:14:54Z</time>
      </trkpt>
      <trkpt lat="47.58406" lon="3.63635">
        <ele>186</ele>
        <time>2019-04-03T09:14:58Z</time>
      </trkpt>
      <trkpt lat="47.58402" lon="3.63638">
        <ele>186</ele>
        <time>2019-04-03T09:15:02Z</time>
      </trkpt>
      <trkpt lat="47.58399" lon="3.63639">
        <ele>186</ele>
        <time>2019-04-03T09:15:04Z</time>
      </trkpt>
      <trkpt lat="47.58395" lon="3.63641">
        <ele>186</ele>
        <time>2019-04-03T09:15:08Z</time>
      </trkpt>
      <trkpt lat="47.5839" lon="3.63643">
        <ele>186</ele>
        <time>2019-04-03T09:15:12Z</time>
      </trkpt>
      <trkpt lat="47.58386" lon="3.63644">
        <ele>186</ele>
        <time>2019-04-03T09:15:16Z</time>
      </trkpt>
      <trkpt lat="47.58383" lon="3.63646">
        <ele>186</ele>
        <time>2019-04-03T09:15:18Z</time>
      </trkpt>
      <trkpt lat="47.58381" lon="3.63646">
        <ele>186</ele>
        <time>2019-04-03T09:15:20Z</time>
      </trkpt>
      <trkpt lat="47.58376" lon="3.63648">
        <ele>186</ele>
        <time>2019-04-03T09:15:24Z</time>
      </trkpt>
      <trkpt lat="47.58374" lon="3.63649">
        <ele>187</ele>
        <time>2019-04-03T09:15:26Z</time>
      </trkpt>
      <trkpt lat="47.5837" lon="3.6365">
        <ele>187</ele>
        <time>2019-04-03T09:15:29Z</time>
      </trkpt>
      <trkpt lat="47.58364" lon="3.63653">
        <ele>186</ele>
        <time>2019-04-03T09:15:34Z</time>
      </trkpt>
      <trkpt lat="47.58361" lon="3.63654">
        <ele>187</ele>
        <time>2019-04-03T09:15:37Z</time>
      </trkpt>
      <trkpt lat="47.58356" lon="3.63656">
        <ele>188</ele>
        <time>2019-04-03T09:15:41Z</time>
      </trkpt>
      <trkpt lat="47.58349" lon="3.63657">
        <ele>188</ele>
        <time>2019-04-03T09:15:46Z</time>
      </trkpt>
      <trkpt lat="47.58344" lon="3.63657">
        <ele>188</ele>
        <time>2019-04-03T09:15:51Z</time>
      </trkpt>
      <trkpt lat="47.58341" lon="3.63658">
        <ele>189</ele>
        <time>2019-04-03T09:15:54Z</time>
      </trkpt>
      <trkpt lat="47.58336" lon="3.63658">
        <ele>189</ele>
        <time>2019-04-03T09:15:58Z</time>
      </trkpt>
      <trkpt lat="47.58334" lon="3.63658">
        <ele>189</ele>
        <time>2019-04-03T09:16:00Z</time>
      </trkpt>
      <trkpt lat="47.58329" lon="3.6366">
        <ele>189</ele>
        <time>2019-04-03T09:16:04Z</time>
      </trkpt>
      <trkpt lat="47.58326" lon="3.6366">
        <ele>189</ele>
        <time>2019-04-03T09:16:06Z</time>
      </trkpt>
      <trkpt lat="47.58324" lon="3.63661">
        <ele>189</ele>
        <time>2019-04-03T09:16:08Z</time>
      </trkpt>
      <trkpt lat="47.58322" lon="3.63662">
        <ele>189</ele>
        <time>2019-04-03T09:16:10Z</time>
      </trkpt>
      <trkpt lat="47.58317" lon="3.63662">
        <ele>188</ele>
        <time>2019-04-03T09:16:13Z</time>
      </trkpt>
      <trkpt lat="47.58311" lon="3.63663">
        <ele>187</ele>
        <time>2019-04-03T09:16:17Z</time>
      </trkpt>
      <trkpt lat="47.58305" lon="3.63664">
        <ele>186</ele>
        <time>2019-04-03T09:16:21Z</time>
      </trkpt>
      <trkpt lat="47.58302" lon="3.63665">
        <ele>187</ele>
        <time>2019-04-03T09:16:24Z</time>
      </trkpt>
      <trkpt lat="47.58299" lon="3.63665">
        <ele>186</ele>
        <time>2019-04-03T09:16:26Z</time>
      </trkpt>
      <trkpt lat="47.58293" lon="3.63667">
        <ele>186</ele>
        <time>2019-04-03T09:16:31Z</time>
      </trkpt>
      <trkpt lat="47.58288" lon="3.63667">
        <ele>186</ele>
        <time>2019-04-03T09:16:36Z</time>
      </trkpt>
      <trkpt lat="47.58284" lon="3.63667">
        <ele>187</ele>
        <time>2019-04-03T09:16:41Z</time>
      </trkpt>
      <trkpt lat="47.58281" lon="3.63667">
        <ele>187</ele>
        <time>2019-04-03T09:16:43Z</time>
      </trkpt>
      <trkpt lat="47.58276" lon="3.63668">
        <ele>187</ele>
        <time>2019-04-03T09:16:46Z</time>
      </trkpt>
      <trkpt lat="47.5827" lon="3.63668">
        <ele>187</ele>
        <time>2019-04-03T09:16:51Z</time>
      </trkpt>
      <trkpt lat="47.58267" lon="3.63668">
        <ele>186</ele>
        <time>2019-04-03T09:16:53Z</time>
      </trkpt>
      <trkpt lat="47.58263" lon="3.63668">
        <ele>187</ele>
        <time>2019-04-03T09:16:56Z</time>
      </trkpt>
      <trkpt lat="47.5826" lon="3.63668">
        <ele>187</ele>
        <time>2019-04-03T09:16:58Z</time>
      </trkpt>
      <trkpt lat="47.58255" lon="3.63669">
        <ele>187</ele>
        <time>2019-04-03T09:17:02Z</time>
      </trkpt>
      <trkpt lat="47.58252" lon="3.63669">
        <ele>186</ele>
        <time>2019-04-03T09:17:05Z</time>
      </trkpt>
      <trkpt lat="47.58249" lon="3.63669">
        <ele>186</ele>
        <time>2019-04-03T09:17:08Z</time>
      </trkpt>
      <trkpt lat="47.58244" lon="3.6367">
        <ele>186</ele>
        <time>2019-04-03T09:17:11Z</time>
      </trkpt>
      <trkpt lat="47.58241" lon="3.6367">
        <ele>186</ele>
        <time>2019-04-03T09:17:13Z</time>
      </trkpt>
      <trkpt lat="47.58237" lon="3.63671">
        <ele>186</ele>
        <time>2019-04-03T09:17:16Z</time>
      </trkpt>
      <trkpt lat="47.58234" lon="3.63672">
        <ele>186</ele>
        <time>2019-04-03T09:17:19Z</time>
      </trkpt>
      <trkpt lat="47.58232" lon="3.63672">
        <ele>186</ele>
        <time>2019-04-03T09:17:21Z</time>
      </trkpt>
      <trkpt lat="47.58227" lon="3.63674">
        <ele>186</ele>
        <time>2019-04-03T09:17:25Z</time>
      </trkpt>
      <trkpt lat="47.5822" lon="3.63675">
        <ele>185</ele>
        <time>2019-04-03T09:17:30Z</time>
      </trkpt>
      <trkpt lat="47.58215" lon="3.63675">
        <ele>185</ele>
        <time>2019-04-03T09:17:34Z</time>
      </trkpt>
      <trkpt lat="47.58211" lon="3.63679">
        <ele>185</ele>
        <time>2019-04-03T09:17:38Z</time>
      </trkpt>
      <trkpt lat="47.58206" lon="3.63683">
        <ele>186</ele>
        <time>2019-04-03T09:17:42Z</time>
      </trkpt>
      <trkpt lat="47.58202" lon="3.63686">
        <ele>186</ele>
        <time>2019-04-03T09:17:46Z</time>
      </trkpt>
      <trkpt lat="47.58199" lon="3.63688">
        <ele>186</ele>
        <time>2019-04-03T09:17:48Z</time>
      </trkpt>
      <trkpt lat="47.58197" lon="3.6369">
        <ele>187</ele>
        <time>2019-04-03T09:17:50Z</time>
      </trkpt>
      <trkpt lat="47.58191" lon="3.63693">
        <ele>187</ele>
        <time>2019-04-03T09:17:54Z</time>
      </trkpt>
      <trkpt lat="47.58187" lon="3.63698">
        <ele>186</ele>
        <time>2019-04-03T09:17:57Z</time>
      </trkpt>
      <trkpt lat="47.58184" lon="3.63701">
        <ele>186</ele>
        <time>2019-04-03T09:17:59Z</time>
      </trkpt>
      <trkpt lat="47.5818" lon="3.63705">
        <ele>186</ele>
        <time>2019-04-03T09:18:02Z</time>
      </trkpt>
      <trkpt lat="47.58178" lon="3.63708">
        <ele>187</ele>
        <time>2019-04-03T09:18:04Z</time>
      </trkpt>
      <trkpt lat="47.58176" lon="3.6371">
        <ele>187</ele>
        <time>2019-04-03T09:18:06Z</time>
      </trkpt>
      <trkpt lat="47.58172" lon="3.63716">
        <ele>187</ele>
        <time>2019-04-03T09:18:10Z</time>
      </trkpt>
      <trkpt lat="47.5817" lon="3.63718">
        <ele>186</ele>
        <time>2019-04-03T09:18:12Z</time>
      </trkpt>
      <trkpt lat="47.58166" lon="3.63722">
        <ele>186</ele>
        <time>2019-04-03T09:18:17Z</time>
      </trkpt>
      <trkpt lat="47.58164" lon="3.63724">
        <ele>185</ele>
        <time>2019-04-03T09:18:19Z</time>
      </trkpt>
      <trkpt lat="47.58161" lon="3.63727">
        <ele>185</ele>
        <time>2019-04-03T09:18:21Z</time>
      </trkpt>
      <trkpt lat="47.58159" lon="3.63728">
        <ele>186</ele>
        <time>2019-04-03T09:18:23Z</time>
      </trkpt>
      <trkpt lat="47.58156" lon="3.63731">
        <ele>187</ele>
        <time>2019-04-03T09:18:25Z</time>
      </trkpt>
      <trkpt lat="47.58153" lon="3.63733">
        <ele>187</ele>
        <time>2019-04-03T09:18:27Z</time>
      </trkpt>
      <trkpt lat="47.58151" lon="3.63735">
        <ele>186</ele>
        <time>2019-04-03T09:18:30Z</time>
      </trkpt>
      <trkpt lat="47.58149" lon="3.63737">
        <ele>185</ele>
        <time>2019-04-03T09:18:32Z</time>
      </trkpt>
      <trkpt lat="47.58145" lon="3.63742">
        <ele>185</ele>
        <time>2019-04-03T09:18:37Z</time>
      </trkpt>
      <trkpt lat="47.58143" lon="3.63744">
        <ele>185</ele>
        <time>2019-04-03T09:18:39Z</time>
      </trkpt>
      <trkpt lat="47.58139" lon="3.63747">
        <ele>185</ele>
        <time>2019-04-03T09:18:42Z</time>
      </trkpt>
      <trkpt lat="47.58136" lon="3.63749">
        <ele>186</ele>
        <time>2019-04-03T09:18:45Z</time>
      </trkpt>
      <trkpt lat="47.58131" lon="3.63752">
        <ele>187</ele>
        <time>2019-04-03T09:18:49Z</time>
      </trkpt>
      <trkpt lat="47.58127" lon="3.63757">
        <ele>187</ele>
        <time>2019-04-03T09:18:54Z</time>
      </trkpt>
      <trkpt lat="47.58125" lon="3.63758">
        <ele>187</ele>
        <time>2019-04-03T09:18:56Z</time>
      </trkpt>
      <trkpt lat="47.58121" lon="3.63761">
        <ele>187</ele>
        <time>2019-04-03T09:18:59Z</time>
      </trkpt>
      <trkpt lat="47.58118" lon="3.63765">
        <ele>188</ele>
        <time>2019-04-03T09:19:03Z</time>
      </trkpt>
      <trkpt lat="47.58114" lon="3.63769">
        <ele>188</ele>
        <time>2019-04-03T09:19:07Z</time>
      </trkpt>
      <trkpt lat="47.58109" lon="3.63773">
        <ele>188</ele>
        <time>2019-04-03T09:19:11Z</time>
      </trkpt>
      <trkpt lat="47.58107" lon="3.63775">
        <ele>187</ele>
        <time>2019-04-03T09:19:13Z</time>
      </trkpt>
      <trkpt lat="47.58103" lon="3.63779">
        <ele>188</ele>
        <time>2019-04-03T09:19:17Z</time>
      </trkpt>
      <trkpt lat="47.58099" lon="3.63783">
        <ele>189</ele>
        <time>2019-04-03T09:19:20Z</time>
      </trkpt>
      <trkpt lat="47.58094" lon="3.63786">
        <ele>190</ele>
        <time>2019-04-03T09:19:24Z</time>
      </trkpt>
      <trkpt lat="47.58091" lon="3.63789">
        <ele>191</ele>
        <time>2019-04-03T09:19:28Z</time>
      </trkpt>
      <trkpt lat="47.58088" lon="3.63792">
        <ele>191</ele>
        <time>2019-04-03T09:19:31Z</time>
      </trkpt>
      <trkpt lat="47.5808" lon="3.63794">
        <ele>191</ele>
        <time>2019-04-03T09:19:37Z</time>
      </trkpt>
      <trkpt lat="47.58075" lon="3.63797">
        <ele>191</ele>
        <time>2019-04-03T09:19:41Z</time>
      </trkpt>
      <trkpt lat="47.58071" lon="3.63802">
        <ele>191</ele>
        <time>2019-04-03T09:19:45Z</time>
      </trkpt>
      <trkpt lat="47.58068" lon="3.63806">
        <ele>192</ele>
        <time>2019-04-03T09:19:48Z</time>
      </trkpt>
      <trkpt lat="47.58065" lon="3.63809">
        <ele>192</ele>
        <time>2019-04-03T09:19:52Z</time>
      </trkpt>
      <trkpt lat="47.5806" lon="3.63812">
        <ele>193</ele>
        <time>2019-04-03T09:19:55Z</time>
      </trkpt>
      <trkpt lat="47.58057" lon="3.63814">
        <ele>193</ele>
        <time>2019-04-03T09:19:59Z</time>
      </trkpt>
      <trkpt lat="47.58054" lon="3.63815">
        <ele>193</ele>
        <time>2019-04-03T09:20:01Z</time>
      </trkpt>
      <trkpt lat="47.5805" lon="3.6382">
        <ele>194</ele>
        <time>2019-04-03T09:20:05Z</time>
      </trkpt>
      <trkpt lat="47.58045" lon="3.63825">
        <ele>194</ele>
        <time>2019-04-03T09:20:10Z</time>
      </trkpt>
      <trkpt lat="47.5804" lon="3.63829">
        <ele>195</ele>
        <time>2019-04-03T09:20:14Z</time>
      </trkpt>
      <trkpt lat="47.58036" lon="3.63832">
        <ele>194</ele>
        <time>2019-04-03T09:20:18Z</time>
      </trkpt>
      <trkpt lat="47.58034" lon="3.63833">
        <ele>195</ele>
        <time>2019-04-03T09:20:20Z</time>
      </trkpt>
      <trkpt lat="47.5803" lon="3.63837">
        <ele>195</ele>
        <time>2019-04-03T09:20:24Z</time>
      </trkpt>
      <trkpt lat="47.58025" lon="3.63838">
        <ele>196</ele>
        <time>2019-04-03T09:20:28Z</time>
      </trkpt>
      <trkpt lat="47.58021" lon="3.63843">
        <ele>196</ele>
        <time>2019-04-03T09:20:32Z</time>
      </trkpt>
      <trkpt lat="47.58017" lon="3.63847">
        <ele>197</ele>
        <time>2019-04-03T09:20:36Z</time>
      </trkpt>
      <trkpt lat="47.58012" lon="3.63845">
        <ele>195</ele>
        <time>2019-04-03T09:20:45Z</time>
      </trkpt>
      <trkpt lat="47.58009" lon="3.63839">
        <ele>196</ele>
        <time>2019-04-03T09:20:52Z</time>
      </trkpt>
      <trkpt lat="47.58005" lon="3.63829">
        <ele>197</ele>
        <time>2019-04-03T09:20:59Z</time>
      </trkpt>
      <trkpt lat="47.58002" lon="3.63823">
        <ele>199</ele>
        <time>2019-04-03T09:21:04Z</time>
      </trkpt>
      <trkpt lat="47.57999" lon="3.6382">
        <ele>199</ele>
        <time>2019-04-03T09:21:07Z</time>
      </trkpt>
      <trkpt lat="47.57995" lon="3.63816">
        <ele>199</ele>
        <time>2019-04-03T09:21:11Z</time>
      </trkpt>
      <trkpt lat="47.57991" lon="3.63813">
        <ele>199</ele>
        <time>2019-04-03T09:21:15Z</time>
      </trkpt>
      <trkpt lat="47.57988" lon="3.63808">
        <ele>199</ele>
        <time>2019-04-03T09:21:20Z</time>
      </trkpt>
      <trkpt lat="47.57985" lon="3.63804">
        <ele>199</ele>
        <time>2019-04-03T09:21:23Z</time>
      </trkpt>
      <trkpt lat="47.57983" lon="3.63801">
        <ele>199</ele>
        <time>2019-04-03T09:21:25Z</time>
      </trkpt>
      <trkpt lat="47.57981" lon="3.63798">
        <ele>200</ele>
        <time>2019-04-03T09:21:27Z</time>
      </trkpt>
      <trkpt lat="47.57978" lon="3.63793">
        <ele>201</ele>
        <time>2019-04-03T09:21:30Z</time>
      </trkpt>
      <trkpt lat="47.57975" lon="3.63788">
        <ele>202</ele>
        <time>2019-04-03T09:21:33Z</time>
      </trkpt>
      <trkpt lat="47.57972" lon="3.63781">
        <ele>202</ele>
        <time>2019-04-03T09:21:38Z</time>
      </trkpt>
      <trkpt lat="47.57968" lon="3.63776">
        <ele>201</ele>
        <time>2019-04-03T09:21:43Z</time>
      </trkpt>
      <trkpt lat="47.57965" lon="3.63769">
        <ele>202</ele>
        <time>2019-04-03T09:21:49Z</time>
      </trkpt>
      <trkpt lat="47.57963" lon="3.63764">
        <ele>202</ele>
        <time>2019-04-03T09:21:51Z</time>
      </trkpt>
      <trkpt lat="47.57957" lon="3.63756">
        <ele>201</ele>
        <time>2019-04-03T09:21:57Z</time>
      </trkpt>
      <trkpt lat="47.57954" lon="3.63751">
        <ele>201</ele>
        <time>2019-04-03T09:22:00Z</time>
      </trkpt>
      <trkpt lat="47.57951" lon="3.63746">
        <ele>201</ele>
        <time>2019-04-03T09:22:03Z</time>
      </trkpt>
      <trkpt lat="47.5795" lon="3.63743">
        <ele>202</ele>
        <time>2019-04-03T09:22:05Z</time>
      </trkpt>
      <trkpt lat="47.57948" lon="3.6374">
        <ele>202</ele>
        <time>2019-04-03T09:22:07Z</time>
      </trkpt>
      <trkpt lat="47.57946" lon="3.63737">
        <ele>202</ele>
        <time>2019-04-03T09:22:10Z</time>
      </trkpt>
      <trkpt lat="47.57944" lon="3.63734">
        <ele>202</ele>
        <time>2019-04-03T09:22:13Z</time>
      </trkpt>
      <trkpt lat="47.57942" lon="3.6373">
        <ele>202</ele>
        <time>2019-04-03T09:22:16Z</time>
      </trkpt>
      <trkpt lat="47.57939" lon="3.63726">
        <ele>202</ele>
        <time>2019-04-03T09:22:20Z</time>
      </trkpt>
      <trkpt lat="47.57935" lon="3.63716">
        <ele>204</ele>
        <time>2019-04-03T09:22:25Z</time>
      </trkpt>
      <trkpt lat="47.57931" lon="3.63709">
        <ele>205</ele>
        <time>2019-04-03T09:22:30Z</time>
      </trkpt>
      <trkpt lat="47.57927" lon="3.63703">
        <ele>206</ele>
        <time>2019-04-03T09:22:35Z</time>
      </trkpt>
      <trkpt lat="47.57923" lon="3.63699">
        <ele>206</ele>
        <time>2019-04-03T09:22:39Z</time>
      </trkpt>
      <trkpt lat="47.57922" lon="3.63696">
        <ele>207</ele>
        <time>2019-04-03T09:22:41Z</time>
      </trkpt>
      <trkpt lat="47.57919" lon="3.63692">
        <ele>207</ele>
        <time>2019-04-03T09:22:44Z</time>
      </trkpt>
      <trkpt lat="47.57914" lon="3.63686">
        <ele>208</ele>
        <time>2019-04-03T09:22:48Z</time>
      </trkpt>
      <trkpt lat="47.5791" lon="3.6368">
        <ele>207</ele>
        <time>2019-04-03T09:22:55Z</time>
      </trkpt>
      <trkpt lat="47.57905" lon="3.63677">
        <ele>209</ele>
        <time>2019-04-03T09:23:00Z</time>
      </trkpt>
      <trkpt lat="47.57902" lon="3.63673">
        <ele>210</ele>
        <time>2019-04-03T09:23:03Z</time>
      </trkpt>
      <trkpt lat="47.57899" lon="3.6367">
        <ele>209</ele>
        <time>2019-04-03T09:23:05Z</time>
      </trkpt>
      <trkpt lat="47.57896" lon="3.63668">
        <ele>209</ele>
        <time>2019-04-03T09:23:07Z</time>
      </trkpt>
      <trkpt lat="47.57891" lon="3.63665">
        <ele>209</ele>
        <time>2019-04-03T09:23:11Z</time>
      </trkpt>
      <trkpt lat="47.57887" lon="3.63661">
        <ele>208</ele>
        <time>2019-04-03T09:23:15Z</time>
      </trkpt>
      <trkpt lat="47.57884" lon="3.63659">
        <ele>209</ele>
        <time>2019-04-03T09:23:17Z</time>
      </trkpt>
      <trkpt lat="47.57879" lon="3.63656">
        <ele>211</ele>
        <time>2019-04-03T09:23:22Z</time>
      </trkpt>
      <trkpt lat="47.57875" lon="3.63654">
        <ele>211</ele>
        <time>2019-04-03T09:23:25Z</time>
      </trkpt>
      <trkpt lat="47.57868" lon="3.63651">
        <ele>210</ele>
        <time>2019-04-03T09:23:32Z</time>
      </trkpt>
      <trkpt lat="47.57864" lon="3.63648">
        <ele>210</ele>
        <time>2019-04-03T09:23:35Z</time>
      </trkpt>
      <trkpt lat="47.57859" lon="3.63648">
        <ele>212</ele>
        <time>2019-04-03T09:23:38Z</time>
      </trkpt>
      <trkpt lat="47.57854" lon="3.63651">
        <ele>211</ele>
        <time>2019-04-03T09:23:42Z</time>
      </trkpt>
      <trkpt lat="47.57849" lon="3.63654">
        <ele>212</ele>
        <time>2019-04-03T09:23:48Z</time>
      </trkpt>
      <trkpt lat="47.57844" lon="3.63651">
        <ele>214</ele>
        <time>2019-04-03T09:23:54Z</time>
      </trkpt>
      <trkpt lat="47.57839" lon="3.63651">
        <ele>213</ele>
        <time>2019-04-03T09:23:58Z</time>
      </trkpt>
      <trkpt lat="47.57833" lon="3.63652">
        <ele>216</ele>
        <time>2019-04-03T09:24:04Z</time>
      </trkpt>
      <trkpt lat="47.57828" lon="3.6365">
        <ele>216</ele>
        <time>2019-04-03T09:24:08Z</time>
      </trkpt>
      <trkpt lat="47.57824" lon="3.63646">
        <ele>215</ele>
        <time>2019-04-03T09:24:13Z</time>
      </trkpt>
      <trkpt lat="47.5782" lon="3.63645">
        <ele>214</ele>
        <time>2019-04-03T09:24:17Z</time>
      </trkpt>
      <trkpt lat="47.57816" lon="3.63644">
        <ele>212</ele>
        <time>2019-04-03T09:24:20Z</time>
      </trkpt>
      <trkpt lat="47.57812" lon="3.63644">
        <ele>212</ele>
        <time>2019-04-03T09:24:24Z</time>
      </trkpt>
      <trkpt lat="47.57807" lon="3.63643">
        <ele>212</ele>
        <time>2019-04-03T09:24:28Z</time>
      </trkpt>
      <trkpt lat="47.57801" lon="3.63641">
        <ele>214</ele>
        <time>2019-04-03T09:24:32Z</time>
      </trkpt>
      <trkpt lat="47.57798" lon="3.6364">
        <ele>216</ele>
        <time>2019-04-03T09:24:34Z</time>
      </trkpt>
      <trkpt lat="47.57793" lon="3.63639">
        <ele>217</ele>
        <time>2019-04-03T09:24:38Z</time>
      </trkpt>
      <trkpt lat="47.57789" lon="3.63637">
        <ele>216</ele>
        <time>2019-04-03T09:24:41Z</time>
      </trkpt>
      <trkpt lat="47.57787" lon="3.63636">
        <ele>215</ele>
        <time>2019-04-03T09:24:43Z</time>
      </trkpt>
      <trkpt lat="47.57783" lon="3.63634">
        <ele>219</ele>
        <time>2019-04-03T09:24:48Z</time>
      </trkpt>
      <trkpt lat="47.57778" lon="3.63633">
        <ele>221</ele>
        <time>2019-04-03T09:24:54Z</time>
      </trkpt>
      <trkpt lat="47.57773" lon="3.63632">
        <ele>220</ele>
        <time>2019-04-03T09:24:58Z</time>
      </trkpt>
      <trkpt lat="47.5777" lon="3.63631">
        <ele>219</ele>
        <time>2019-04-03T09:25:00Z</time>
      </trkpt>
      <trkpt lat="47.57764" lon="3.63631">
        <ele>218</ele>
        <time>2019-04-03T09:25:04Z</time>
      </trkpt>
      <trkpt lat="47.5776" lon="3.63631">
        <ele>219</ele>
        <time>2019-04-03T09:25:06Z</time>
      </trkpt>
      <trkpt lat="47.57755" lon="3.6363">
        <ele>219</ele>
        <time>2019-04-03T09:25:09Z</time>
      </trkpt>
      <trkpt lat="47.57748" lon="3.63631">
        <ele>218</ele>
        <time>2019-04-03T09:25:12Z</time>
      </trkpt>
      <trkpt lat="47.57743" lon="3.63631">
        <ele>217</ele>
        <time>2019-04-03T09:25:15Z</time>
      </trkpt>
      <trkpt lat="47.57739" lon="3.63632">
        <ele>217</ele>
        <time>2019-04-03T09:25:18Z</time>
      </trkpt>
      <trkpt lat="47.57733" lon="3.63631">
        <ele>216</ele>
        <time>2019-04-03T09:25:23Z</time>
      </trkpt>
      <trkpt lat="47.57728" lon="3.63631">
        <ele>217</ele>
        <time>2019-04-03T09:25:27Z</time>
      </trkpt>
      <trkpt lat="47.57726" lon="3.63631">
        <ele>218</ele>
        <time>2019-04-03T09:25:29Z</time>
      </trkpt>
      <trkpt lat="47.57722" lon="3.63632">
        <ele>219</ele>
        <time>2019-04-03T09:25:33Z</time>
      </trkpt>
      <trkpt lat="47.57719" lon="3.63633">
        <ele>218</ele>
        <time>2019-04-03T09:25:35Z</time>
      </trkpt>
      <trkpt lat="47.57718" lon="3.63638">
        <ele>219</ele>
        <time>2019-04-03T09:25:45Z</time>
      </trkpt>
      <trkpt lat="47.57715" lon="3.63633">
        <ele>216</ele>
        <time>2019-04-03T09:27:10Z</time>
      </trkpt>
      <trkpt lat="47.57713" lon="3.6363">
        <ele>216</ele>
        <time>2019-04-03T09:27:12Z</time>
      </trkpt>
      <trkpt lat="47.5771" lon="3.63623">
        <ele>215</ele>
        <time>2019-04-03T09:27:16Z</time>
      </trkpt>
      <trkpt lat="47.57708" lon="3.63619">
        <ele>216</ele>
        <time>2019-04-03T09:27:19Z</time>
      </trkpt>
      <trkpt lat="47.57707" lon="3.63616">
        <ele>216</ele>
        <time>2019-04-03T09:27:21Z</time>
      </trkpt>
      <trkpt lat="47.57705" lon="3.63614">
        <ele>215</ele>
        <time>2019-04-03T09:27:23Z</time>
      </trkpt>
      <trkpt lat="47.57702" lon="3.63609">
        <ele>215</ele>
        <time>2019-04-03T09:27:27Z</time>
      </trkpt>
      <trkpt lat="47.57699" lon="3.63603">
        <ele>215</ele>
        <time>2019-04-03T09:27:31Z</time>
      </trkpt>
      <trkpt lat="47.57697" lon="3.63601">
        <ele>215</ele>
        <time>2019-04-03T09:27:33Z</time>
      </trkpt>
      <trkpt lat="47.57693" lon="3.63596">
        <ele>215</ele>
        <time>2019-04-03T09:27:37Z</time>
      </trkpt>
      <trkpt lat="47.57688" lon="3.63594">
        <ele>215</ele>
        <time>2019-04-03T09:27:40Z</time>
      </trkpt>
      <trkpt lat="47.57685" lon="3.63591">
        <ele>216</ele>
        <time>2019-04-03T09:27:43Z</time>
      </trkpt>
      <trkpt lat="47.5768" lon="3.63588">
        <ele>216</ele>
        <time>2019-04-03T09:27:47Z</time>
      </trkpt>
      <trkpt lat="47.57677" lon="3.63586">
        <ele>217</ele>
        <time>2019-04-03T09:27:49Z</time>
      </trkpt>
      <trkpt lat="47.57675" lon="3.63584">
        <ele>216</ele>
        <time>2019-04-03T09:27:51Z</time>
      </trkpt>
      <trkpt lat="47.57668" lon="3.63581">
        <ele>216</ele>
        <time>2019-04-03T09:27:56Z</time>
      </trkpt>
      <trkpt lat="47.57665" lon="3.63578">
        <ele>217</ele>
        <time>2019-04-03T09:27:59Z</time>
      </trkpt>
      <trkpt lat="47.5766" lon="3.63577">
        <ele>216</ele>
        <time>2019-04-03T09:28:03Z</time>
      </trkpt>
      <trkpt lat="47.57655" lon="3.63574">
        <ele>216</ele>
        <time>2019-04-03T09:28:07Z</time>
      </trkpt>
      <trkpt lat="47.57653" lon="3.63572">
        <ele>216</ele>
        <time>2019-04-03T09:28:09Z</time>
      </trkpt>
      <trkpt lat="47.57649" lon="3.6357">
        <ele>216</ele>
        <time>2019-04-03T09:28:12Z</time>
      </trkpt>
      <trkpt lat="47.57646" lon="3.63569">
        <ele>216</ele>
        <time>2019-04-03T09:28:14Z</time>
      </trkpt>
      <trkpt lat="47.57643" lon="3.63568">
        <ele>217</ele>
        <time>2019-04-03T09:28:17Z</time>
      </trkpt>
      <trkpt lat="47.57638" lon="3.63564">
        <ele>218</ele>
        <time>2019-04-03T09:28:22Z</time>
      </trkpt>
      <trkpt lat="47.57635" lon="3.63562">
        <ele>218</ele>
        <time>2019-04-03T09:28:25Z</time>
      </trkpt>
      <trkpt lat="47.57633" lon="3.6356">
        <ele>218</ele>
        <time>2019-04-03T09:28:27Z</time>
      </trkpt>
      <trkpt lat="47.57628" lon="3.63559">
        <ele>220</ele>
        <time>2019-04-03T09:28:31Z</time>
      </trkpt>
      <trkpt lat="47.57623" lon="3.63557">
        <ele>220</ele>
        <time>2019-04-03T09:28:35Z</time>
      </trkpt>
      <trkpt lat="47.57618" lon="3.63555">
        <ele>219</ele>
        <time>2019-04-03T09:28:39Z</time>
      </trkpt>
      <trkpt lat="47.57615" lon="3.63554">
        <ele>220</ele>
        <time>2019-04-03T09:28:42Z</time>
      </trkpt>
      <trkpt lat="47.5761" lon="3.63551">
        <ele>220</ele>
        <time>2019-04-03T09:28:46Z</time>
      </trkpt>
      <trkpt lat="47.57605" lon="3.63548">
        <ele>219</ele>
        <time>2019-04-03T09:28:50Z</time>
      </trkpt>
      <trkpt lat="47.57602" lon="3.63545">
        <ele>220</ele>
        <time>2019-04-03T09:28:53Z</time>
      </trkpt>
      <trkpt lat="47.57597" lon="3.63544">
        <ele>220</ele>
        <time>2019-04-03T09:28:58Z</time>
      </trkpt>
      <trkpt lat="47.57592" lon="3.63541">
        <ele>220</ele>
        <time>2019-04-03T09:29:02Z</time>
      </trkpt>
      <trkpt lat="47.57587" lon="3.63539">
        <ele>220</ele>
        <time>2019-04-03T09:29:06Z</time>
      </trkpt>
      <trkpt lat="47.57585" lon="3.63538">
        <ele>220</ele>
        <time>2019-04-03T09:29:08Z</time>
      </trkpt>
      <trkpt lat="47.5758" lon="3.63536">
        <ele>221</ele>
        <time>2019-04-03T09:29:12Z</time>
      </trkpt>
      <trkpt lat="47.57575" lon="3.63532">
        <ele>220</ele>
        <time>2019-04-03T09:29:16Z</time>
      </trkpt>
      <trkpt lat="47.57569" lon="3.63529">
        <ele>221</ele>
        <time>2019-04-03T09:29:20Z</time>
      </trkpt>
      <trkpt lat="47.57563" lon="3.63525">
        <ele>222</ele>
        <time>2019-04-03T09:29:25Z</time>
      </trkpt>
      <trkpt lat="47.57557" lon="3.63523">
        <ele>221</ele>
        <time>2019-04-03T09:29:30Z</time>
      </trkpt>
      <trkpt lat="47.57553" lon="3.63522">
        <ele>222</ele>
        <time>2019-04-03T09:29:34Z</time>
      </trkpt>
      <trkpt lat="47.57548" lon="3.63519">
        <ele>222</ele>
        <time>2019-04-03T09:29:40Z</time>
      </trkpt>
      <trkpt lat="47.57545" lon="3.63517">
        <ele>223</ele>
        <time>2019-04-03T09:29:43Z</time>
      </trkpt>
      <trkpt lat="47.57542" lon="3.63515">
        <ele>223</ele>
        <time>2019-04-03T09:29:46Z</time>
      </trkpt>
      <trkpt lat="47.57539" lon="3.63513">
        <ele>223</ele>
        <time>2019-04-03T09:29:49Z</time>
      </trkpt>
      <trkpt lat="47.57534" lon="3.6351">
        <ele>224</ele>
        <time>2019-04-03T09:29:53Z</time>
      </trkpt>
      <trkpt lat="47.57529" lon="3.63509">
        <ele>225</ele>
        <time>2019-04-03T09:29:58Z</time>
      </trkpt>
      <trkpt lat="47.57525" lon="3.63505">
        <ele>225</ele>
        <time>2019-04-03T09:30:02Z</time>
      </trkpt>
      <trkpt lat="47.5752" lon="3.63503">
        <ele>225</ele>
        <time>2019-04-03T09:30:06Z</time>
      </trkpt>
      <trkpt lat="47.57517" lon="3.63501">
        <ele>226</ele>
        <time>2019-04-03T09:30:09Z</time>
      </trkpt>
      <trkpt lat="47.57515" lon="3.635">
        <ele>226</ele>
        <time>2019-04-03T09:30:11Z</time>
      </trkpt>
      <trkpt lat="47.57508" lon="3.63497">
        <ele>226</ele>
        <time>2019-04-03T09:30:16Z</time>
      </trkpt>
      <trkpt lat="47.57504" lon="3.63495">
        <ele>226</ele>
        <time>2019-04-03T09:30:19Z</time>
      </trkpt>
      <trkpt lat="47.57501" lon="3.63494">
        <ele>225</ele>
        <time>2019-04-03T09:30:21Z</time>
      </trkpt>
      <trkpt lat="47.57495" lon="3.63491">
        <ele>226</ele>
        <time>2019-04-03T09:30:26Z</time>
      </trkpt>
      <trkpt lat="47.57491" lon="3.63488">
        <ele>226</ele>
        <time>2019-04-03T09:30:30Z</time>
      </trkpt>
      <trkpt lat="47.57486" lon="3.63485">
        <ele>226</ele>
        <time>2019-04-03T09:30:35Z</time>
      </trkpt>
      <trkpt lat="47.57484" lon="3.63484">
        <ele>226</ele>
        <time>2019-04-03T09:30:36Z</time>
      </trkpt>
      <trkpt lat="47.57479" lon="3.63482">
        <ele>227</ele>
        <time>2019-04-03T09:30:41Z</time>
      </trkpt>
      <trkpt lat="47.57474" lon="3.63479">
        <ele>228</ele>
        <time>2019-04-03T09:30:45Z</time>
      </trkpt>
      <trkpt lat="47.57472" lon="3.63477">
        <ele>227</ele>
        <time>2019-04-03T09:30:48Z</time>
      </trkpt>
      <trkpt lat="47.57468" lon="3.63473">
        <ele>228</ele>
        <time>2019-04-03T09:30:52Z</time>
      </trkpt>
      <trkpt lat="47.57461" lon="3.63467">
        <ele>229</ele>
        <time>2019-04-03T09:30:57Z</time>
      </trkpt>
      <trkpt lat="47.57459" lon="3.63465">
        <ele>229</ele>
        <time>2019-04-03T09:30:59Z</time>
      </trkpt>
      <trkpt lat="47.57453" lon="3.63463">
        <ele>228</ele>
        <time>2019-04-03T09:31:03Z</time>
      </trkpt>
      <trkpt lat="47.57447" lon="3.63462">
        <ele>227</ele>
        <time>2019-04-03T09:31:07Z</time>
      </trkpt>
      <trkpt lat="47.57442" lon="3.63461">
        <ele>228</ele>
        <time>2019-04-03T09:31:11Z</time>
      </trkpt>
      <trkpt lat="47.5744" lon="3.63461">
        <ele>227</ele>
        <time>2019-04-03T09:31:13Z</time>
      </trkpt>
      <trkpt lat="47.57434" lon="3.63458">
        <ele>226</ele>
        <time>2019-04-03T09:31:17Z</time>
      </trkpt>
      <trkpt lat="47.5743" lon="3.63457">
        <ele>227</ele>
        <time>2019-04-03T09:31:19Z</time>
      </trkpt>
      <trkpt lat="47.57428" lon="3.63456">
        <ele>227</ele>
        <time>2019-04-03T09:31:21Z</time>
      </trkpt>
      <trkpt lat="47.57425" lon="3.63455">
        <ele>227</ele>
        <time>2019-04-03T09:31:24Z</time>
      </trkpt>
      <trkpt lat="47.57422" lon="3.63454">
        <ele>227</ele>
        <time>2019-04-03T09:31:26Z</time>
      </trkpt>
      <trkpt lat="47.57417" lon="3.63453">
        <ele>227</ele>
        <time>2019-04-03T09:31:31Z</time>
      </trkpt>
      <trkpt lat="47.57414" lon="3.63452">
        <ele>227</ele>
        <time>2019-04-03T09:31:33Z</time>
      </trkpt>
      <trkpt lat="47.5741" lon="3.63451">
        <ele>228</ele>
        <time>2019-04-03T09:31:36Z</time>
      </trkpt>
      <trkpt lat="47.57406" lon="3.63447">
        <ele>228</ele>
        <time>2019-04-03T09:31:39Z</time>
      </trkpt>
      <trkpt lat="47.57401" lon="3.63445">
        <ele>229</ele>
        <time>2019-04-03T09:31:42Z</time>
      </trkpt>
      <trkpt lat="47.57397" lon="3.63444">
        <ele>229</ele>
        <time>2019-04-03T09:31:46Z</time>
      </trkpt>
      <trkpt lat="47.57395" lon="3.63443">
        <ele>229</ele>
        <time>2019-04-03T09:31:48Z</time>
      </trkpt>
      <trkpt lat="47.5739" lon="3.6344">
        <ele>229</ele>
        <time>2019-04-03T09:31:52Z</time>
      </trkpt>
      <trkpt lat="47.57385" lon="3.63438">
        <ele>229</ele>
        <time>2019-04-03T09:31:57Z</time>
      </trkpt>
      <trkpt lat="47.57381" lon="3.63435">
        <ele>230</ele>
        <time>2019-04-03T09:31:59Z</time>
      </trkpt>
      <trkpt lat="47.57376" lon="3.63433">
        <ele>230</ele>
        <time>2019-04-03T09:32:03Z</time>
      </trkpt>
      <trkpt lat="47.57371" lon="3.63431">
        <ele>229</ele>
        <time>2019-04-03T09:32:07Z</time>
      </trkpt>
      <trkpt lat="47.57367" lon="3.63427">
        <ele>232</ele>
        <time>2019-04-03T09:32:12Z</time>
      </trkpt>
      <trkpt lat="47.57362" lon="3.63425">
        <ele>233</ele>
        <time>2019-04-03T09:32:16Z</time>
      </trkpt>
      <trkpt lat="47.57357" lon="3.63423">
        <ele>233</ele>
        <time>2019-04-03T09:32:20Z</time>
      </trkpt>
      <trkpt lat="47.57354" lon="3.63421">
        <ele>234</ele>
        <time>2019-04-03T09:32:22Z</time>
      </trkpt>
      <trkpt lat="47.57351" lon="3.6342">
        <ele>235</ele>
        <time>2019-04-03T09:32:25Z</time>
      </trkpt>
      <trkpt lat="47.57348" lon="3.63418">
        <ele>234</ele>
        <time>2019-04-03T09:32:27Z</time>
      </trkpt>
      <trkpt lat="47.57342" lon="3.63414">
        <ele>234</ele>
        <time>2019-04-03T09:32:31Z</time>
      </trkpt>
      <trkpt lat="47.57335" lon="3.63411">
        <ele>234</ele>
        <time>2019-04-03T09:32:36Z</time>
      </trkpt>
      <trkpt lat="47.5733" lon="3.63409">
        <ele>234</ele>
        <time>2019-04-03T09:32:40Z</time>
      </trkpt>
      <trkpt lat="47.57325" lon="3.63407">
        <ele>235</ele>
        <time>2019-04-03T09:32:45Z</time>
      </trkpt>
      <trkpt lat="47.57321" lon="3.63406">
        <ele>236</ele>
        <time>2019-04-03T09:32:48Z</time>
      </trkpt>
      <trkpt lat="47.57315" lon="3.63405">
        <ele>235</ele>
        <time>2019-04-03T09:32:52Z</time>
      </trkpt>
      <trkpt lat="47.57309" lon="3.63403">
        <ele>234</ele>
        <time>2019-04-03T09:32:57Z</time>
      </trkpt>
      <trkpt lat="47.57304" lon="3.63402">
        <ele>234</ele>
        <time>2019-04-03T09:33:01Z</time>
      </trkpt>
      <trkpt lat="47.573" lon="3.634">
        <ele>235</ele>
        <time>2019-04-03T09:33:04Z</time>
      </trkpt>
      <trkpt lat="47.57297" lon="3.634">
        <ele>235</ele>
        <time>2019-04-03T09:33:06Z</time>
      </trkpt>
      <trkpt lat="47.57292" lon="3.63401">
        <ele>236</ele>
        <time>2019-04-03T09:33:09Z</time>
      </trkpt>
      <trkpt lat="47.57288" lon="3.634">
        <ele>236</ele>
        <time>2019-04-03T09:33:13Z</time>
      </trkpt>
      <trkpt lat="47.57284" lon="3.63399">
        <ele>236</ele>
        <time>2019-04-03T09:33:16Z</time>
      </trkpt>
      <trkpt lat="47.5728" lon="3.634">
        <ele>236</ele>
        <time>2019-04-03T09:33:22Z</time>
      </trkpt>
      <trkpt lat="47.5727" lon="3.63398">
        <ele>236</ele>
        <time>2019-04-03T09:33:28Z</time>
      </trkpt>
      <trkpt lat="47.57266" lon="3.63399">
        <ele>237</ele>
        <time>2019-04-03T09:33:34Z</time>
      </trkpt>
      <trkpt lat="47.5726" lon="3.63398">
        <ele>237</ele>
        <time>2019-04-03T09:33:38Z</time>
      </trkpt>
      <trkpt lat="47.57257" lon="3.63397">
        <ele>237</ele>
        <time>2019-04-03T09:33:40Z</time>
      </trkpt>
      <trkpt lat="47.57252" lon="3.63397">
        <ele>238</ele>
        <time>2019-04-03T09:33:43Z</time>
      </trkpt>
      <trkpt lat="47.57246" lon="3.63396">
        <ele>238</ele>
        <time>2019-04-03T09:33:47Z</time>
      </trkpt>
      <trkpt lat="47.5724" lon="3.63396">
        <ele>240</ele>
        <time>2019-04-03T09:33:52Z</time>
      </trkpt>
      <trkpt lat="47.57235" lon="3.63398">
        <ele>241</ele>
        <time>2019-04-03T09:33:56Z</time>
      </trkpt>
      <trkpt lat="47.5723" lon="3.63398">
        <ele>241</ele>
        <time>2019-04-03T09:34:00Z</time>
      </trkpt>
      <trkpt lat="47.57225" lon="3.63397">
        <ele>239</ele>
        <time>2019-04-03T09:34:03Z</time>
      </trkpt>
      <trkpt lat="47.57219" lon="3.63398">
        <ele>238</ele>
        <time>2019-04-03T09:34:07Z</time>
      </trkpt>
      <trkpt lat="47.57212" lon="3.63396">
        <ele>237</ele>
        <time>2019-04-03T09:34:13Z</time>
      </trkpt>
      <trkpt lat="47.57207" lon="3.63394">
        <ele>237</ele>
        <time>2019-04-03T09:34:16Z</time>
      </trkpt>
      <trkpt lat="47.57205" lon="3.63393">
        <ele>238</ele>
        <time>2019-04-03T09:34:18Z</time>
      </trkpt>
      <trkpt lat="47.57199" lon="3.63393">
        <ele>239</ele>
        <time>2019-04-03T09:34:22Z</time>
      </trkpt>
      <trkpt lat="47.57195" lon="3.63394">
        <ele>239</ele>
        <time>2019-04-03T09:34:25Z</time>
      </trkpt>
      <trkpt lat="47.57191" lon="3.63395">
        <ele>239</ele>
        <time>2019-04-03T09:34:29Z</time>
      </trkpt>
      <trkpt lat="47.57184" lon="3.63396">
        <ele>239</ele>
        <time>2019-04-03T09:34:34Z</time>
      </trkpt>
      <trkpt lat="47.57178" lon="3.63396">
        <ele>238</ele>
        <time>2019-04-03T09:34:38Z</time>
      </trkpt>
      <trkpt lat="47.57174" lon="3.63394">
        <ele>237</ele>
        <time>2019-04-03T09:34:42Z</time>
      </trkpt>
      <trkpt lat="47.57169" lon="3.63392">
        <ele>238</ele>
        <time>2019-04-03T09:34:45Z</time>
      </trkpt>
      <trkpt lat="47.57165" lon="3.63391">
        <ele>238</ele>
        <time>2019-04-03T09:34:48Z</time>
      </trkpt>
      <trkpt lat="47.57161" lon="3.6339">
        <ele>237</ele>
        <time>2019-04-03T09:34:51Z</time>
      </trkpt>
      <trkpt lat="47.57157" lon="3.63388">
        <ele>236</ele>
        <time>2019-04-03T09:34:55Z</time>
      </trkpt>
      <trkpt lat="47.57153" lon="3.63387">
        <ele>236</ele>
        <time>2019-04-03T09:34:58Z</time>
      </trkpt>
      <trkpt lat="47.5715" lon="3.63386">
        <ele>236</ele>
        <time>2019-04-03T09:35:01Z</time>
      </trkpt>
      <trkpt lat="47.57148" lon="3.63385">
        <ele>236</ele>
        <time>2019-04-03T09:35:04Z</time>
      </trkpt>
      <trkpt lat="47.57143" lon="3.63383">
        <ele>235</ele>
        <time>2019-04-03T09:35:06Z</time>
      </trkpt>
      <trkpt lat="47.57137" lon="3.63381">
        <ele>236</ele>
        <time>2019-04-03T09:35:12Z</time>
      </trkpt>
      <trkpt lat="47.57134" lon="3.63379">
        <ele>236</ele>
        <time>2019-04-03T09:35:14Z</time>
      </trkpt>
      <trkpt lat="47.57131" lon="3.63378">
        <ele>235</ele>
        <time>2019-04-03T09:35:16Z</time>
      </trkpt>
      <trkpt lat="47.57128" lon="3.63377">
        <ele>235</ele>
        <time>2019-04-03T09:35:17Z</time>
      </trkpt>
      <trkpt lat="47.57123" lon="3.63374">
        <ele>235</ele>
        <time>2019-04-03T09:35:22Z</time>
      </trkpt>
      <trkpt lat="47.57116" lon="3.63369">
        <ele>235</ele>
        <time>2019-04-03T09:35:27Z</time>
      </trkpt>
      <trkpt lat="47.5711" lon="3.63367">
        <ele>233</ele>
        <time>2019-04-03T09:35:32Z</time>
      </trkpt>
      <trkpt lat="47.57108" lon="3.63367">
        <ele>232</ele>
        <time>2019-04-03T09:35:34Z</time>
      </trkpt>
      <trkpt lat="47.57102" lon="3.63364">
        <ele>232</ele>
        <time>2019-04-03T09:35:38Z</time>
      </trkpt>
      <trkpt lat="47.57098" lon="3.63361">
        <ele>232</ele>
        <time>2019-04-03T09:35:42Z</time>
      </trkpt>
      <trkpt lat="47.57094" lon="3.63359">
        <ele>231</ele>
        <time>2019-04-03T09:35:45Z</time>
      </trkpt>
      <trkpt lat="47.57091" lon="3.63358">
        <ele>232</ele>
        <time>2019-04-03T09:35:47Z</time>
      </trkpt>
      <trkpt lat="47.57088" lon="3.63356">
        <ele>232</ele>
        <time>2019-04-03T09:35:49Z</time>
      </trkpt>
      <trkpt lat="47.57085" lon="3.63354">
        <ele>232</ele>
        <time>2019-04-03T09:35:52Z</time>
      </trkpt>
      <trkpt lat="47.57082" lon="3.63352">
        <ele>231</ele>
        <time>2019-04-03T09:35:54Z</time>
      </trkpt>
      <trkpt lat="47.57077" lon="3.63349">
        <ele>231</ele>
        <time>2019-04-03T09:35:58Z</time>
      </trkpt>
      <trkpt lat="47.57073" lon="3.63347">
        <ele>231</ele>
        <time>2019-04-03T09:36:01Z</time>
      </trkpt>
      <trkpt lat="47.57068" lon="3.63344">
        <ele>232</ele>
        <time>2019-04-03T09:36:05Z</time>
      </trkpt>
      <trkpt lat="47.57063" lon="3.63342">
        <ele>232</ele>
        <time>2019-04-03T09:36:09Z</time>
      </trkpt>
      <trkpt lat="47.57056" lon="3.6334">
        <ele>233</ele>
        <time>2019-04-03T09:36:14Z</time>
      </trkpt>
      <trkpt lat="47.57053" lon="3.63339">
        <ele>232</ele>
        <time>2019-04-03T09:36:16Z</time>
      </trkpt>
      <trkpt lat="47.57048" lon="3.63335">
        <ele>232</ele>
        <time>2019-04-03T09:36:20Z</time>
      </trkpt>
      <trkpt lat="47.57046" lon="3.63334">
        <ele>231</ele>
        <time>2019-04-03T09:36:22Z</time>
      </trkpt>
      <trkpt lat="47.5704" lon="3.63331">
        <ele>231</ele>
        <time>2019-04-03T09:36:27Z</time>
      </trkpt>
      <trkpt lat="47.57035" lon="3.63328">
        <ele>231</ele>
        <time>2019-04-03T09:36:31Z</time>
      </trkpt>
      <trkpt lat="47.57032" lon="3.63327">
        <ele>230</ele>
        <time>2019-04-03T09:36:33Z</time>
      </trkpt>
      <trkpt lat="47.5703" lon="3.63326">
        <ele>231</ele>
        <time>2019-04-03T09:36:35Z</time>
      </trkpt>
      <trkpt lat="47.57024" lon="3.63324">
        <ele>230</ele>
        <time>2019-04-03T09:36:39Z</time>
      </trkpt>
      <trkpt lat="47.57022" lon="3.63323">
        <ele>230</ele>
        <time>2019-04-03T09:36:41Z</time>
      </trkpt>
      <trkpt lat="47.57019" lon="3.63322">
        <ele>231</ele>
        <time>2019-04-03T09:36:43Z</time>
      </trkpt>
      <trkpt lat="47.57013" lon="3.6332">
        <ele>230</ele>
        <time>2019-04-03T09:36:47Z</time>
      </trkpt>
      <trkpt lat="47.57011" lon="3.63319">
        <ele>230</ele>
        <time>2019-04-03T09:36:49Z</time>
      </trkpt>
      <trkpt lat="47.57008" lon="3.63317">
        <ele>230</ele>
        <time>2019-04-03T09:36:51Z</time>
      </trkpt>
      <trkpt lat="47.57005" lon="3.63316">
        <ele>230</ele>
        <time>2019-04-03T09:36:53Z</time>
      </trkpt>
      <trkpt lat="47.57001" lon="3.63315">
        <ele>229</ele>
        <time>2019-04-03T09:36:56Z</time>
      </trkpt>
      <trkpt lat="47.56996" lon="3.63314">
        <ele>230</ele>
        <time>2019-04-03T09:37:00Z</time>
      </trkpt>
      <trkpt lat="47.5699" lon="3.63312">
        <ele>229</ele>
        <time>2019-04-03T09:37:04Z</time>
      </trkpt>
      <trkpt lat="47.56984" lon="3.6331">
        <ele>230</ele>
        <time>2019-04-03T09:37:09Z</time>
      </trkpt>
      <trkpt lat="47.56981" lon="3.63308">
        <ele>229</ele>
        <time>2019-04-03T09:37:11Z</time>
      </trkpt>
      <trkpt lat="47.56977" lon="3.63306">
        <ele>229</ele>
        <time>2019-04-03T09:37:14Z</time>
      </trkpt>
      <trkpt lat="47.56972" lon="3.63304">
        <ele>230</ele>
        <time>2019-04-03T09:37:18Z</time>
      </trkpt>
      <trkpt lat="47.56969" lon="3.63304">
        <ele>230</ele>
        <time>2019-04-03T09:37:20Z</time>
      </trkpt>
      <trkpt lat="47.56966" lon="3.63303">
        <ele>229</ele>
        <time>2019-04-03T09:37:22Z</time>
      </trkpt>
      <trkpt lat="47.56963" lon="3.63302">
        <ele>229</ele>
        <time>2019-04-03T09:37:24Z</time>
      </trkpt>
      <trkpt lat="47.56961" lon="3.63301">
        <ele>229</ele>
        <time>2019-04-03T09:37:26Z</time>
      </trkpt>
      <trkpt lat="47.56957" lon="3.633">
        <ele>228</ele>
        <time>2019-04-03T09:37:29Z</time>
      </trkpt>
      <trkpt lat="47.56949" lon="3.63298">
        <ele>229</ele>
        <time>2019-04-03T09:37:35Z</time>
      </trkpt>
      <trkpt lat="47.56946" lon="3.63296">
        <ele>229</ele>
        <time>2019-04-03T09:37:37Z</time>
      </trkpt>
      <trkpt lat="47.56943" lon="3.63295">
        <ele>229</ele>
        <time>2019-04-03T09:37:39Z</time>
      </trkpt>
      <trkpt lat="47.56938" lon="3.63294">
        <ele>229</ele>
        <time>2019-04-03T09:37:42Z</time>
      </trkpt>
      <trkpt lat="47.56935" lon="3.63293">
        <ele>228</ele>
        <time>2019-04-03T09:37:44Z</time>
      </trkpt>
      <trkpt lat="47.56933" lon="3.63292">
        <ele>228</ele>
        <time>2019-04-03T09:37:46Z</time>
      </trkpt>
      <trkpt lat="47.56927" lon="3.63292">
        <ele>228</ele>
        <time>2019-04-03T09:37:49Z</time>
      </trkpt>
      <trkpt lat="47.56922" lon="3.6329">
        <ele>227</ele>
        <time>2019-04-03T09:37:53Z</time>
      </trkpt>
      <trkpt lat="47.56917" lon="3.63287">
        <ele>227</ele>
        <time>2019-04-03T09:37:56Z</time>
      </trkpt>
      <trkpt lat="47.56912" lon="3.63287">
        <ele>227</ele>
        <time>2019-04-03T09:38:00Z</time>
      </trkpt>
      <trkpt lat="47.56907" lon="3.63285">
        <ele>227</ele>
        <time>2019-04-03T09:38:04Z</time>
      </trkpt>
      <trkpt lat="47.56902" lon="3.63285">
        <ele>227</ele>
        <time>2019-04-03T09:38:08Z</time>
      </trkpt>
      <trkpt lat="47.569" lon="3.63284">
        <ele>227</ele>
        <time>2019-04-03T09:38:10Z</time>
      </trkpt>
      <trkpt lat="47.56897" lon="3.63283">
        <ele>227</ele>
        <time>2019-04-03T09:38:12Z</time>
      </trkpt>
      <trkpt lat="47.56894" lon="3.63282">
        <ele>227</ele>
        <time>2019-04-03T09:38:14Z</time>
      </trkpt>
      <trkpt lat="47.56892" lon="3.63281">
        <ele>227</ele>
        <time>2019-04-03T09:38:18Z</time>
      </trkpt>
      <trkpt lat="47.56892" lon="3.63281">
        <ele>227</ele>
        <time>2019-04-03T09:38:27Z</time>
      </trkpt>
      <trkpt lat="47.56873" lon="3.63293">
        <ele>223</ele>
        <time>2019-04-03T09:41:21Z</time>
      </trkpt>
      <trkpt lat="47.5687" lon="3.63296">
        <ele>222</ele>
        <time>2019-04-03T09:41:27Z</time>
      </trkpt>
      <trkpt lat="47.56864" lon="3.63294">
        <ele>222</ele>
        <time>2019-04-03T09:41:33Z</time>
      </trkpt>
      <trkpt lat="47.56861" lon="3.63293">
        <ele>222</ele>
        <time>2019-04-03T09:41:35Z</time>
      </trkpt>
      <trkpt lat="47.56856" lon="3.63292">
        <ele>221</ele>
        <time>2019-04-03T09:41:41Z</time>
      </trkpt>
      <trkpt lat="47.56851" lon="3.63295">
        <ele>220</ele>
        <time>2019-04-03T09:41:46Z</time>
      </trkpt>
      <trkpt lat="47.56848" lon="3.63295">
        <ele>220</ele>
        <time>2019-04-03T09:41:48Z</time>
      </trkpt>
      <trkpt lat="47.56844" lon="3.63297">
        <ele>220</ele>
        <time>2019-04-03T09:41:52Z</time>
      </trkpt>
      <trkpt lat="47.56841" lon="3.63298">
        <ele>217</ele>
        <time>2019-04-03T09:41:57Z</time>
      </trkpt>
      <trkpt lat="47.56836" lon="3.63299">
        <ele>217</ele>
        <time>2019-04-03T09:42:01Z</time>
      </trkpt>
      <trkpt lat="47.56831" lon="3.63297">
        <ele>215</ele>
        <time>2019-04-03T09:42:07Z</time>
      </trkpt>
      <trkpt lat="47.56827" lon="3.63297">
        <ele>214</ele>
        <time>2019-04-03T09:42:12Z</time>
      </trkpt>
      <trkpt lat="47.56822" lon="3.633">
        <ele>213</ele>
        <time>2019-04-03T09:42:19Z</time>
      </trkpt>
      <trkpt lat="47.56815" lon="3.63301">
        <ele>213</ele>
        <time>2019-04-03T09:42:27Z</time>
      </trkpt>
      <trkpt lat="47.56811" lon="3.63305">
        <ele>211</ele>
        <time>2019-04-03T09:42:32Z</time>
      </trkpt>
      <trkpt lat="47.56808" lon="3.63308">
        <ele>209</ele>
        <time>2019-04-03T09:42:42Z</time>
      </trkpt>
      <trkpt lat="47.56803" lon="3.63308">
        <ele>209</ele>
        <time>2019-04-03T09:42:50Z</time>
      </trkpt>
      <trkpt lat="47.56799" lon="3.63312">
        <ele>206</ele>
        <time>2019-04-03T09:42:58Z</time>
      </trkpt>
      <trkpt lat="47.56795" lon="3.63315">
        <ele>206</ele>
        <time>2019-04-03T09:43:06Z</time>
      </trkpt>
      <trkpt lat="47.56793" lon="3.63317">
        <ele>204</ele>
        <time>2019-04-03T09:43:09Z</time>
      </trkpt>
      <trkpt lat="47.56787" lon="3.63318">
        <ele>201</ele>
        <time>2019-04-03T09:43:19Z</time>
      </trkpt>
      <trkpt lat="47.56782" lon="3.6332">
        <ele>201</ele>
        <time>2019-04-03T09:43:27Z</time>
      </trkpt>
      <trkpt lat="47.56778" lon="3.63324">
        <ele>202</ele>
        <time>2019-04-03T09:43:38Z</time>
      </trkpt>
      <trkpt lat="47.56773" lon="3.63326">
        <ele>202</ele>
        <time>2019-04-03T09:43:44Z</time>
      </trkpt>
      <trkpt lat="47.56771" lon="3.63328">
        <ele>201</ele>
        <time>2019-04-03T09:43:47Z</time>
      </trkpt>
      <trkpt lat="47.56768" lon="3.63329">
        <ele>203</ele>
        <time>2019-04-03T09:43:50Z</time>
      </trkpt>
      <trkpt lat="47.56765" lon="3.6333">
        <ele>203</ele>
        <time>2019-04-03T09:43:53Z</time>
      </trkpt>
      <trkpt lat="47.56761" lon="3.63333">
        <ele>203</ele>
        <time>2019-04-03T09:43:58Z</time>
      </trkpt>
      <trkpt lat="47.56758" lon="3.63335">
        <ele>203</ele>
        <time>2019-04-03T09:44:02Z</time>
      </trkpt>
      <trkpt lat="47.56752" lon="3.63337">
        <ele>200</ele>
        <time>2019-04-03T09:44:06Z</time>
      </trkpt>
      <trkpt lat="47.56747" lon="3.63338">
        <ele>199</ele>
        <time>2019-04-03T09:44:09Z</time>
      </trkpt>
      <trkpt lat="47.56742" lon="3.63337">
        <ele>200</ele>
        <time>2019-04-03T09:44:12Z</time>
      </trkpt>
      <trkpt lat="47.56739" lon="3.63337">
        <ele>199</ele>
        <time>2019-04-03T09:44:14Z</time>
      </trkpt>
      <trkpt lat="47.56734" lon="3.63336">
        <ele>196</ele>
        <time>2019-04-03T09:44:19Z</time>
      </trkpt>
      <trkpt lat="47.56731" lon="3.63337">
        <ele>195</ele>
        <time>2019-04-03T09:44:28Z</time>
      </trkpt>
      <trkpt lat="47.56726" lon="3.6334">
        <ele>194</ele>
        <time>2019-04-03T09:44:34Z</time>
      </trkpt>
      <trkpt lat="47.56722" lon="3.63343">
        <ele>193</ele>
        <time>2019-04-03T09:44:38Z</time>
      </trkpt>
      <trkpt lat="47.56718" lon="3.63344">
        <ele>191</ele>
        <time>2019-04-03T09:44:43Z</time>
      </trkpt>
      <trkpt lat="47.56713" lon="3.63344">
        <ele>190</ele>
        <time>2019-04-03T09:44:49Z</time>
      </trkpt>
      <trkpt lat="47.56708" lon="3.63346">
        <ele>190</ele>
        <time>2019-04-03T09:44:54Z</time>
      </trkpt>
      <trkpt lat="47.56703" lon="3.6335">
        <ele>189</ele>
        <time>2019-04-03T09:45:01Z</time>
      </trkpt>
      <trkpt lat="47.56698" lon="3.63353">
        <ele>184</ele>
        <time>2019-04-03T09:45:13Z</time>
      </trkpt>
      <trkpt lat="47.56693" lon="3.63355">
        <ele>185</ele>
        <time>2019-04-03T09:45:20Z</time>
      </trkpt>
      <trkpt lat="47.56687" lon="3.63355">
        <ele>184</ele>
        <time>2019-04-03T09:45:29Z</time>
      </trkpt>
      <trkpt lat="47.56682" lon="3.63359">
        <ele>184</ele>
        <time>2019-04-03T09:45:36Z</time>
      </trkpt>
      <trkpt lat="47.56678" lon="3.63362">
        <ele>183</ele>
        <time>2019-04-03T09:45:39Z</time>
      </trkpt>
      <trkpt lat="47.56675" lon="3.63363">
        <ele>183</ele>
        <time>2019-04-03T09:45:42Z</time>
      </trkpt>
      <trkpt lat="47.56671" lon="3.63366">
        <ele>182</ele>
        <time>2019-04-03T09:45:50Z</time>
      </trkpt>
      <trkpt lat="47.56666" lon="3.63365">
        <ele>182</ele>
        <time>2019-04-03T09:46:02Z</time>
      </trkpt>
      <trkpt lat="47.56659" lon="3.63368">
        <ele>182</ele>
        <time>2019-04-03T09:46:06Z</time>
      </trkpt>
      <trkpt lat="47.56654" lon="3.63369">
        <ele>181</ele>
        <time>2019-04-03T09:46:10Z</time>
      </trkpt>
      <trkpt lat="47.56649" lon="3.63371">
        <ele>180</ele>
        <time>2019-04-03T09:46:14Z</time>
      </trkpt>
      <trkpt lat="47.56644" lon="3.63373">
        <ele>179</ele>
        <time>2019-04-03T09:46:18Z</time>
      </trkpt>
      <trkpt lat="47.56639" lon="3.63376">
        <ele>178</ele>
        <time>2019-04-03T09:46:24Z</time>
      </trkpt>
      <trkpt lat="47.56634" lon="3.63375">
        <ele>175</ele>
        <time>2019-04-03T09:46:29Z</time>
      </trkpt>
      <trkpt lat="47.56632" lon="3.63374">
        <ele>175</ele>
        <time>2019-04-03T09:46:32Z</time>
      </trkpt>
      <trkpt lat="47.56627" lon="3.63372">
        <ele>174</ele>
        <time>2019-04-03T09:46:36Z</time>
      </trkpt>
      <trkpt lat="47.56625" lon="3.63371">
        <ele>174</ele>
        <time>2019-04-03T09:46:39Z</time>
      </trkpt>
      <trkpt lat="47.56621" lon="3.63367">
        <ele>173</ele>
        <time>2019-04-03T09:46:44Z</time>
      </trkpt>
      <trkpt lat="47.56616" lon="3.63365">
        <ele>174</ele>
        <time>2019-04-03T09:46:49Z</time>
      </trkpt>
      <trkpt lat="47.56611" lon="3.63364">
        <ele>176</ele>
        <time>2019-04-03T09:46:53Z</time>
      </trkpt>
      <trkpt lat="47.56608" lon="3.63364">
        <ele>176</ele>
        <time>2019-04-03T09:46:55Z</time>
      </trkpt>
      <trkpt lat="47.56602" lon="3.63361">
        <ele>177</ele>
        <time>2019-04-03T09:47:01Z</time>
      </trkpt>
      <trkpt lat="47.56599" lon="3.63359">
        <ele>176</ele>
        <time>2019-04-03T09:47:04Z</time>
      </trkpt>
      <trkpt lat="47.56593" lon="3.63359">
        <ele>178</ele>
        <time>2019-04-03T09:47:11Z</time>
      </trkpt>
      <trkpt lat="47.5659" lon="3.63359">
        <ele>177</ele>
        <time>2019-04-03T09:47:14Z</time>
      </trkpt>
      <trkpt lat="47.56587" lon="3.63359">
        <ele>179</ele>
        <time>2019-04-03T09:47:17Z</time>
      </trkpt>
      <trkpt lat="47.56582" lon="3.63357">
        <ele>180</ele>
        <time>2019-04-03T09:47:20Z</time>
      </trkpt>
      <trkpt lat="47.56576" lon="3.63356">
        <ele>181</ele>
        <time>2019-04-03T09:47:25Z</time>
      </trkpt>
      <trkpt lat="47.5657" lon="3.63356">
        <ele>182</ele>
        <time>2019-04-03T09:47:30Z</time>
      </trkpt>
      <trkpt lat="47.56564" lon="3.63355">
        <ele>182</ele>
        <time>2019-04-03T09:47:34Z</time>
      </trkpt>
      <trkpt lat="47.56559" lon="3.63353">
        <ele>182</ele>
        <time>2019-04-03T09:47:39Z</time>
      </trkpt>
      <trkpt lat="47.56554" lon="3.63353">
        <ele>183</ele>
        <time>2019-04-03T09:47:44Z</time>
      </trkpt>
      <trkpt lat="47.56549" lon="3.63351">
        <ele>183</ele>
        <time>2019-04-03T09:47:49Z</time>
      </trkpt>
      <trkpt lat="47.56542" lon="3.63348">
        <ele>183</ele>
        <time>2019-04-03T09:47:55Z</time>
      </trkpt>
      <trkpt lat="47.56535" lon="3.63347">
        <ele>182</ele>
        <time>2019-04-03T09:47:59Z</time>
      </trkpt>
      <trkpt lat="47.5653" lon="3.63348">
        <ele>180</ele>
        <time>2019-04-03T09:48:02Z</time>
      </trkpt>
      <trkpt lat="47.56525" lon="3.63352">
        <ele>180</ele>
        <time>2019-04-03T09:48:05Z</time>
      </trkpt>
      <trkpt lat="47.56519" lon="3.63354">
        <ele>178</ele>
        <time>2019-04-03T09:48:09Z</time>
      </trkpt>
      <trkpt lat="47.56516" lon="3.63361">
        <ele>179</ele>
        <time>2019-04-03T09:48:13Z</time>
      </trkpt>
      <trkpt lat="47.56516" lon="3.63369">
        <ele>180</ele>
        <time>2019-04-03T09:48:18Z</time>
      </trkpt>
      <trkpt lat="47.56517" lon="3.63377">
        <ele>180</ele>
        <time>2019-04-03T09:48:22Z</time>
      </trkpt>
      <trkpt lat="47.56518" lon="3.63382">
        <ele>178</ele>
        <time>2019-04-03T09:48:24Z</time>
      </trkpt>
      <trkpt lat="47.56519" lon="3.6339">
        <ele>178</ele>
        <time>2019-04-03T09:48:27Z</time>
      </trkpt>
      <trkpt lat="47.56521" lon="3.63397">
        <ele>177</ele>
        <time>2019-04-03T09:48:30Z</time>
      </trkpt>
      <trkpt lat="47.56523" lon="3.63404">
        <ele>177</ele>
        <time>2019-04-03T09:48:33Z</time>
      </trkpt>
      <trkpt lat="47.56525" lon="3.63411">
        <ele>177</ele>
        <time>2019-04-03T09:48:36Z</time>
      </trkpt>
      <trkpt lat="47.56525" lon="3.63416">
        <ele>177</ele>
        <time>2019-04-03T09:48:39Z</time>
      </trkpt>
      <trkpt lat="47.56529" lon="3.63423">
        <ele>177</ele>
        <time>2019-04-03T09:48:44Z</time>
      </trkpt>
      <trkpt lat="47.56531" lon="3.63427">
        <ele>177</ele>
        <time>2019-04-03T09:48:46Z</time>
      </trkpt>
      <trkpt lat="47.56536" lon="3.63433">
        <ele>177</ele>
        <time>2019-04-03T09:48:50Z</time>
      </trkpt>
      <trkpt lat="47.5654" lon="3.63439">
        <ele>176</ele>
        <time>2019-04-03T09:48:53Z</time>
      </trkpt>
      <trkpt lat="47.56542" lon="3.63443">
        <ele>176</ele>
        <time>2019-04-03T09:48:55Z</time>
      </trkpt>
      <trkpt lat="47.56545" lon="3.63446">
        <ele>176</ele>
        <time>2019-04-03T09:48:57Z</time>
      </trkpt>
      <trkpt lat="47.56547" lon="3.6345">
        <ele>176</ele>
        <time>2019-04-03T09:49:00Z</time>
      </trkpt>
      <trkpt lat="47.56553" lon="3.63455">
        <ele>176</ele>
        <time>2019-04-03T09:49:08Z</time>
      </trkpt>
      <trkpt lat="47.56558" lon="3.63462">
        <ele>175</ele>
        <time>2019-04-03T09:49:11Z</time>
      </trkpt>
      <trkpt lat="47.56561" lon="3.63468">
        <ele>176</ele>
        <time>2019-04-03T09:49:13Z</time>
      </trkpt>
      <trkpt lat="47.56562" lon="3.63476">
        <ele>177</ele>
        <time>2019-04-03T09:49:16Z</time>
      </trkpt>
      <trkpt lat="47.56561" lon="3.63484">
        <ele>175</ele>
        <time>2019-04-03T09:49:21Z</time>
      </trkpt>
      <trkpt lat="47.5656" lon="3.63488">
        <ele>175</ele>
        <time>2019-04-03T09:49:24Z</time>
      </trkpt>
      <trkpt lat="47.56558" lon="3.63496">
        <ele>176</ele>
        <time>2019-04-03T09:49:30Z</time>
      </trkpt>
      <trkpt lat="47.56554" lon="3.63501">
        <ele>175</ele>
        <time>2019-04-03T09:49:34Z</time>
      </trkpt>
      <trkpt lat="47.56552" lon="3.63505">
        <ele>175</ele>
        <time>2019-04-03T09:49:37Z</time>
      </trkpt>
      <trkpt lat="47.5655" lon="3.63508">
        <ele>175</ele>
        <time>2019-04-03T09:49:40Z</time>
      </trkpt>
      <trkpt lat="47.56546" lon="3.63512">
        <ele>175</ele>
        <time>2019-04-03T09:49:44Z</time>
      </trkpt>
      <trkpt lat="47.56544" lon="3.63514">
        <ele>175</ele>
        <time>2019-04-03T09:49:46Z</time>
      </trkpt>
      <trkpt lat="47.56541" lon="3.63517">
        <ele>175</ele>
        <time>2019-04-03T09:49:49Z</time>
      </trkpt>
      <trkpt lat="47.56537" lon="3.63522">
        <ele>175</ele>
        <time>2019-04-03T09:49:52Z</time>
      </trkpt>
      <trkpt lat="47.56535" lon="3.63525">
        <ele>175</ele>
        <time>2019-04-03T09:49:54Z</time>
      </trkpt>
      <trkpt lat="47.56532" lon="3.63529">
        <ele>175</ele>
        <time>2019-04-03T09:49:57Z</time>
      </trkpt>
      <trkpt lat="47.56527" lon="3.63532">
        <ele>175</ele>
        <time>2019-04-03T09:50:01Z</time>
      </trkpt>
      <trkpt lat="47.56523" lon="3.63538">
        <ele>175</ele>
        <time>2019-04-03T09:50:05Z</time>
      </trkpt>
      <trkpt lat="47.56521" lon="3.63541">
        <ele>175</ele>
        <time>2019-04-03T09:50:08Z</time>
      </trkpt>
      <trkpt lat="47.56517" lon="3.63546">
        <ele>176</ele>
        <time>2019-04-03T09:50:13Z</time>
      </trkpt>
      <trkpt lat="47.56513" lon="3.63551">
        <ele>177</ele>
        <time>2019-04-03T09:50:17Z</time>
      </trkpt>
      <trkpt lat="47.56511" lon="3.63557">
        <ele>177</ele>
        <time>2019-04-03T09:50:20Z</time>
      </trkpt>
      <trkpt lat="47.56507" lon="3.63562">
        <ele>177</ele>
        <time>2019-04-03T09:50:24Z</time>
      </trkpt>
      <trkpt lat="47.56504" lon="3.63565">
        <ele>178</ele>
        <time>2019-04-03T09:50:27Z</time>
      </trkpt>
      <trkpt lat="47.565" lon="3.63571">
        <ele>178</ele>
        <time>2019-04-03T09:50:31Z</time>
      </trkpt>
      <trkpt lat="47.56497" lon="3.63575">
        <ele>178</ele>
        <time>2019-04-03T09:50:34Z</time>
      </trkpt>
      <trkpt lat="47.56494" lon="3.6358">
        <ele>178</ele>
        <time>2019-04-03T09:50:37Z</time>
      </trkpt>
      <trkpt lat="47.56491" lon="3.63583">
        <ele>178</ele>
        <time>2019-04-03T09:50:39Z</time>
      </trkpt>
      <trkpt lat="47.56488" lon="3.6359">
        <ele>177</ele>
        <time>2019-04-03T09:50:43Z</time>
      </trkpt>
      <trkpt lat="47.56483" lon="3.63595">
        <ele>176</ele>
        <time>2019-04-03T09:50:47Z</time>
      </trkpt>
      <trkpt lat="47.56481" lon="3.63598">
        <ele>176</ele>
        <time>2019-04-03T09:50:49Z</time>
      </trkpt>
      <trkpt lat="47.56479" lon="3.63604">
        <ele>176</ele>
        <time>2019-04-03T09:50:53Z</time>
      </trkpt>
      <trkpt lat="47.56478" lon="3.63608">
        <ele>176</ele>
        <time>2019-04-03T09:50:55Z</time>
      </trkpt>
      <trkpt lat="47.56476" lon="3.63611">
        <ele>176</ele>
        <time>2019-04-03T09:50:58Z</time>
      </trkpt>
      <trkpt lat="47.56473" lon="3.63617">
        <ele>177</ele>
        <time>2019-04-03T09:51:02Z</time>
      </trkpt>
      <trkpt lat="47.5647" lon="3.63625">
        <ele>176</ele>
        <time>2019-04-03T09:51:07Z</time>
      </trkpt>
      <trkpt lat="47.56468" lon="3.63631">
        <ele>176</ele>
        <time>2019-04-03T09:51:10Z</time>
      </trkpt>
      <trkpt lat="47.56466" lon="3.63637">
        <ele>177</ele>
        <time>2019-04-03T09:51:13Z</time>
      </trkpt>
      <trkpt lat="47.56463" lon="3.63642">
        <ele>176</ele>
        <time>2019-04-03T09:51:16Z</time>
      </trkpt>
      <trkpt lat="47.56462" lon="3.63645">
        <ele>177</ele>
        <time>2019-04-03T09:51:18Z</time>
      </trkpt>
      <trkpt lat="47.56459" lon="3.63652">
        <ele>177</ele>
        <time>2019-04-03T09:51:22Z</time>
      </trkpt>
      <trkpt lat="47.56457" lon="3.6366">
        <ele>178</ele>
        <time>2019-04-03T09:51:26Z</time>
      </trkpt>
      <trkpt lat="47.56454" lon="3.63666">
        <ele>177</ele>
        <time>2019-04-03T09:51:30Z</time>
      </trkpt>
      <trkpt lat="47.56452" lon="3.63669">
        <ele>177</ele>
        <time>2019-04-03T09:51:32Z</time>
      </trkpt>
      <trkpt lat="47.56449" lon="3.63675">
        <ele>177</ele>
        <time>2019-04-03T09:51:36Z</time>
      </trkpt>
      <trkpt lat="47.56446" lon="3.63681">
        <ele>177</ele>
        <time>2019-04-03T09:51:39Z</time>
      </trkpt>
      <trkpt lat="47.56443" lon="3.63687">
        <ele>177</ele>
        <time>2019-04-03T09:51:42Z</time>
      </trkpt>
      <trkpt lat="47.56441" lon="3.6369">
        <ele>177</ele>
        <time>2019-04-03T09:51:44Z</time>
      </trkpt>
      <trkpt lat="47.56439" lon="3.63694">
        <ele>177</ele>
        <time>2019-04-03T09:51:46Z</time>
      </trkpt>
      <trkpt lat="47.56438" lon="3.63697">
        <ele>177</ele>
        <time>2019-04-03T09:51:48Z</time>
      </trkpt>
      <trkpt lat="47.56435" lon="3.63704">
        <ele>177</ele>
        <time>2019-04-03T09:51:53Z</time>
      </trkpt>
      <trkpt lat="47.56433" lon="3.63708">
        <ele>177</ele>
        <time>2019-04-03T09:51:55Z</time>
      </trkpt>
      <trkpt lat="47.56432" lon="3.63712">
        <ele>178</ele>
        <time>2019-04-03T09:51:57Z</time>
      </trkpt>
      <trkpt lat="47.56431" lon="3.63715">
        <ele>178</ele>
        <time>2019-04-03T09:51:59Z</time>
      </trkpt>
      <trkpt lat="47.56429" lon="3.63719">
        <ele>178</ele>
        <time>2019-04-03T09:52:01Z</time>
      </trkpt>
      <trkpt lat="47.56428" lon="3.63725">
        <ele>177</ele>
        <time>2019-04-03T09:52:05Z</time>
      </trkpt>
      <trkpt lat="47.56426" lon="3.63734">
        <ele>177</ele>
        <time>2019-04-03T09:52:09Z</time>
      </trkpt>
      <trkpt lat="47.56423" lon="3.63741">
        <ele>178</ele>
        <time>2019-04-03T09:52:14Z</time>
      </trkpt>
      <trkpt lat="47.56419" lon="3.63746">
        <ele>177</ele>
        <time>2019-04-03T09:52:18Z</time>
      </trkpt>
      <trkpt lat="47.56417" lon="3.6375">
        <ele>177</ele>
        <time>2019-04-03T09:52:20Z</time>
      </trkpt>
      <trkpt lat="47.56415" lon="3.63758">
        <ele>177</ele>
        <time>2019-04-03T09:52:24Z</time>
      </trkpt>
      <trkpt lat="47.56414" lon="3.63762">
        <ele>178</ele>
        <time>2019-04-03T09:52:27Z</time>
      </trkpt>
      <trkpt lat="47.56412" lon="3.6377">
        <ele>179</ele>
        <time>2019-04-03T09:52:31Z</time>
      </trkpt>
      <trkpt lat="47.56411" lon="3.63775">
        <ele>179</ele>
        <time>2019-04-03T09:52:33Z</time>
      </trkpt>
      <trkpt lat="47.56409" lon="3.63781">
        <ele>179</ele>
        <time>2019-04-03T09:52:38Z</time>
      </trkpt>
      <trkpt lat="47.56407" lon="3.63791">
        <ele>179</ele>
        <time>2019-04-03T09:52:43Z</time>
      </trkpt>
      <trkpt lat="47.56406" lon="3.63794">
        <ele>179</ele>
        <time>2019-04-03T09:52:45Z</time>
      </trkpt>
      <trkpt lat="47.56403" lon="3.63801">
        <ele>179</ele>
        <time>2019-04-03T09:52:49Z</time>
      </trkpt>
      <trkpt lat="47.56401" lon="3.63808">
        <ele>180</ele>
        <time>2019-04-03T09:52:52Z</time>
      </trkpt>
      <trkpt lat="47.564" lon="3.63811">
        <ele>180</ele>
        <time>2019-04-03T09:52:54Z</time>
      </trkpt>
      <trkpt lat="47.56398" lon="3.63818">
        <ele>181</ele>
        <time>2019-04-03T09:52:58Z</time>
      </trkpt>
      <trkpt lat="47.56398" lon="3.63822">
        <ele>180</ele>
        <time>2019-04-03T09:53:00Z</time>
      </trkpt>
      <trkpt lat="47.56396" lon="3.63828">
        <ele>179</ele>
        <time>2019-04-03T09:53:02Z</time>
      </trkpt>
      <trkpt lat="47.56394" lon="3.63835">
        <ele>179</ele>
        <time>2019-04-03T09:53:07Z</time>
      </trkpt>
      <trkpt lat="47.56393" lon="3.63843">
        <ele>179</ele>
        <time>2019-04-03T09:53:12Z</time>
      </trkpt>
      <trkpt lat="47.56392" lon="3.6385">
        <ele>179</ele>
        <time>2019-04-03T09:53:15Z</time>
      </trkpt>
      <trkpt lat="47.56391" lon="3.63857">
        <ele>179</ele>
        <time>2019-04-03T09:53:19Z</time>
      </trkpt>
      <trkpt lat="47.56388" lon="3.63864">
        <ele>178</ele>
        <time>2019-04-03T09:53:23Z</time>
      </trkpt>
      <trkpt lat="47.56386" lon="3.6387">
        <ele>176</ele>
        <time>2019-04-03T09:53:26Z</time>
      </trkpt>
      <trkpt lat="47.56384" lon="3.63876">
        <ele>175</ele>
        <time>2019-04-03T09:53:30Z</time>
      </trkpt>
      <trkpt lat="47.56382" lon="3.63884">
        <ele>177</ele>
        <time>2019-04-03T09:53:34Z</time>
      </trkpt>
      <trkpt lat="47.5638" lon="3.63889">
        <ele>177</ele>
        <time>2019-04-03T09:53:37Z</time>
      </trkpt>
      <trkpt lat="47.56378" lon="3.63896">
        <ele>177</ele>
        <time>2019-04-03T09:53:40Z</time>
      </trkpt>
      <trkpt lat="47.56377" lon="3.63904">
        <ele>177</ele>
        <time>2019-04-03T09:53:44Z</time>
      </trkpt>
      <trkpt lat="47.56375" lon="3.6391">
        <ele>177</ele>
        <time>2019-04-03T09:53:48Z</time>
      </trkpt>
      <trkpt lat="47.56374" lon="3.63913">
        <ele>177</ele>
        <time>2019-04-03T09:53:50Z</time>
      </trkpt>
      <trkpt lat="47.56373" lon="3.63917">
        <ele>176</ele>
        <time>2019-04-03T09:53:51Z</time>
      </trkpt>
      <trkpt lat="47.56372" lon="3.63924">
        <ele>177</ele>
        <time>2019-04-03T09:53:55Z</time>
      </trkpt>
      <trkpt lat="47.56369" lon="3.63932">
        <ele>177</ele>
        <time>2019-04-03T09:53:59Z</time>
      </trkpt>
      <trkpt lat="47.56368" lon="3.63935">
        <ele>176</ele>
        <time>2019-04-03T09:54:01Z</time>
      </trkpt>
      <trkpt lat="47.56367" lon="3.63942">
        <ele>176</ele>
        <time>2019-04-03T09:54:05Z</time>
      </trkpt>
      <trkpt lat="47.56366" lon="3.63949">
        <ele>176</ele>
        <time>2019-04-03T09:54:09Z</time>
      </trkpt>
      <trkpt lat="47.56365" lon="3.63954">
        <ele>176</ele>
        <time>2019-04-03T09:54:11Z</time>
      </trkpt>
      <trkpt lat="47.56364" lon="3.63961">
        <ele>176</ele>
        <time>2019-04-03T09:54:15Z</time>
      </trkpt>
      <trkpt lat="47.56362" lon="3.63966">
        <ele>177</ele>
        <time>2019-04-03T09:54:18Z</time>
      </trkpt>
      <trkpt lat="47.56361" lon="3.63971">
        <ele>177</ele>
        <time>2019-04-03T09:54:20Z</time>
      </trkpt>
      <trkpt lat="47.5636" lon="3.63977">
        <ele>177</ele>
        <time>2019-04-03T09:54:24Z</time>
      </trkpt>
      <trkpt lat="47.56359" lon="3.63981">
        <ele>177</ele>
        <time>2019-04-03T09:54:26Z</time>
      </trkpt>
      <trkpt lat="47.56359" lon="3.63985">
        <ele>177</ele>
        <time>2019-04-03T09:54:27Z</time>
      </trkpt>
      <trkpt lat="47.56358" lon="3.63989">
        <ele>177</ele>
        <time>2019-04-03T09:54:29Z</time>
      </trkpt>
      <trkpt lat="47.56356" lon="3.63998">
        <ele>177</ele>
        <time>2019-04-03T09:54:35Z</time>
      </trkpt>
      <trkpt lat="47.56355" lon="3.64002">
        <ele>177</ele>
        <time>2019-04-03T09:54:36Z</time>
      </trkpt>
      <trkpt lat="47.56352" lon="3.64009">
        <ele>178</ele>
        <time>2019-04-03T09:54:40Z</time>
      </trkpt>
      <trkpt lat="47.56351" lon="3.64012">
        <ele>178</ele>
        <time>2019-04-03T09:54:42Z</time>
      </trkpt>
      <trkpt lat="47.56348" lon="3.64018">
        <ele>176</ele>
        <time>2019-04-03T09:54:47Z</time>
      </trkpt>
      <trkpt lat="47.56346" lon="3.64021">
        <ele>176</ele>
        <time>2019-04-03T09:54:49Z</time>
      </trkpt>
      <trkpt lat="47.56344" lon="3.64028">
        <ele>176</ele>
        <time>2019-04-03T09:54:53Z</time>
      </trkpt>
      <trkpt lat="47.56343" lon="3.64035">
        <ele>177</ele>
        <time>2019-04-03T09:54:56Z</time>
      </trkpt>
      <trkpt lat="47.56343" lon="3.64043">
        <ele>176</ele>
        <time>2019-04-03T09:55:00Z</time>
      </trkpt>
      <trkpt lat="47.56339" lon="3.64052">
        <ele>177</ele>
        <time>2019-04-03T09:55:05Z</time>
      </trkpt>
      <trkpt lat="47.56338" lon="3.64055">
        <ele>177</ele>
        <time>2019-04-03T09:55:09Z</time>
      </trkpt>
      <trkpt lat="47.56337" lon="3.64058">
        <ele>178</ele>
        <time>2019-04-03T09:55:11Z</time>
      </trkpt>
      <trkpt lat="47.56334" lon="3.64068">
        <ele>177</ele>
        <time>2019-04-03T09:55:17Z</time>
      </trkpt>
      <trkpt lat="47.56333" lon="3.64071">
        <ele>177</ele>
        <time>2019-04-03T09:55:19Z</time>
      </trkpt>
      <trkpt lat="47.56332" lon="3.64075">
        <ele>177</ele>
        <time>2019-04-03T09:55:21Z</time>
      </trkpt>
      <trkpt lat="47.5633" lon="3.64078">
        <ele>177</ele>
        <time>2019-04-03T09:55:23Z</time>
      </trkpt>
      <trkpt lat="47.5633" lon="3.64085">
        <ele>178</ele>
        <time>2019-04-03T09:55:26Z</time>
      </trkpt>
      <trkpt lat="47.56328" lon="3.64092">
        <ele>177</ele>
        <time>2019-04-03T09:55:29Z</time>
      </trkpt>
      <trkpt lat="47.56326" lon="3.64098">
        <ele>177</ele>
        <time>2019-04-03T09:55:32Z</time>
      </trkpt>
      <trkpt lat="47.56325" lon="3.64102">
        <ele>177</ele>
        <time>2019-04-03T09:55:35Z</time>
      </trkpt>
      <trkpt lat="47.56323" lon="3.64109">
        <ele>177</ele>
        <time>2019-04-03T09:55:39Z</time>
      </trkpt>
      <trkpt lat="47.56323" lon="3.64116">
        <ele>178</ele>
        <time>2019-04-03T09:55:43Z</time>
      </trkpt>
      <trkpt lat="47.56322" lon="3.64123">
        <ele>179</ele>
        <time>2019-04-03T09:55:47Z</time>
      </trkpt>
      <trkpt lat="47.56321" lon="3.64127">
        <ele>179</ele>
        <time>2019-04-03T09:55:49Z</time>
      </trkpt>
      <trkpt lat="47.56322" lon="3.64136">
        <ele>180</ele>
        <time>2019-04-03T09:55:53Z</time>
      </trkpt>
      <trkpt lat="47.56321" lon="3.64138">
        <ele>181</ele>
        <time>2019-04-03T09:56:01Z</time>
      </trkpt>
      <trkpt lat="47.56324" lon="3.64145">
        <ele>182</ele>
        <time>2019-04-03T09:57:28Z</time>
      </trkpt>
      <trkpt lat="47.56328" lon="3.64148">
        <ele>184</ele>
        <time>2019-04-03T09:57:34Z</time>
      </trkpt>
      <trkpt lat="47.56332" lon="3.64155">
        <ele>181</ele>
        <time>2019-04-03T09:57:50Z</time>
      </trkpt>
      <trkpt lat="47.56335" lon="3.64161">
        <ele>181</ele>
        <time>2019-04-03T09:57:55Z</time>
      </trkpt>
      <trkpt lat="47.56337" lon="3.64164">
        <ele>181</ele>
        <time>2019-04-03T09:57:57Z</time>
      </trkpt>
      <trkpt lat="47.56341" lon="3.64167">
        <ele>184</ele>
        <time>2019-04-03T09:58:04Z</time>
      </trkpt>
      <trkpt lat="47.56346" lon="3.64165">
        <ele>185</ele>
        <time>2019-04-03T09:58:08Z</time>
      </trkpt>
      <trkpt lat="47.56351" lon="3.64164">
        <ele>184</ele>
        <time>2019-04-03T09:58:12Z</time>
      </trkpt>
      <trkpt lat="47.56356" lon="3.64164">
        <ele>183</ele>
        <time>2019-04-03T09:58:16Z</time>
      </trkpt>
      <trkpt lat="47.5636" lon="3.64165">
        <ele>182</ele>
        <time>2019-04-03T09:58:18Z</time>
      </trkpt>
      <trkpt lat="47.56365" lon="3.64169">
        <ele>179</ele>
        <time>2019-04-03T09:58:21Z</time>
      </trkpt>
      <trkpt lat="47.56368" lon="3.64171">
        <ele>179</ele>
        <time>2019-04-03T09:58:24Z</time>
      </trkpt>
      <trkpt lat="47.56373" lon="3.64172">
        <ele>179</ele>
        <time>2019-04-03T09:58:28Z</time>
      </trkpt>
      <trkpt lat="47.56377" lon="3.64173">
        <ele>177</ele>
        <time>2019-04-03T09:58:30Z</time>
      </trkpt>
      <trkpt lat="47.56379" lon="3.64174">
        <ele>178</ele>
        <time>2019-04-03T09:58:32Z</time>
      </trkpt>
      <trkpt lat="47.56382" lon="3.64174">
        <ele>178</ele>
        <time>2019-04-03T09:58:34Z</time>
      </trkpt>
      <trkpt lat="47.56387" lon="3.64174">
        <ele>177</ele>
        <time>2019-04-03T09:58:37Z</time>
      </trkpt>
      <trkpt lat="47.5639" lon="3.64174">
        <ele>177</ele>
        <time>2019-04-03T09:58:39Z</time>
      </trkpt>
      <trkpt lat="47.56393" lon="3.64174">
        <ele>177</ele>
        <time>2019-04-03T09:58:41Z</time>
      </trkpt>
      <trkpt lat="47.56398" lon="3.64176">
        <ele>176</ele>
        <time>2019-04-03T09:58:45Z</time>
      </trkpt>
      <trkpt lat="47.56402" lon="3.64177">
        <ele>176</ele>
        <time>2019-04-03T09:58:48Z</time>
      </trkpt>
      <trkpt lat="47.56407" lon="3.64177">
        <ele>176</ele>
        <time>2019-04-03T09:58:52Z</time>
      </trkpt>
      <trkpt lat="47.56412" lon="3.64175">
        <ele>175</ele>
        <time>2019-04-03T09:58:57Z</time>
      </trkpt>
      <trkpt lat="47.56415" lon="3.64173">
        <ele>173</ele>
        <time>2019-04-03T09:58:59Z</time>
      </trkpt>
      <trkpt lat="47.5642" lon="3.64168">
        <ele>172</ele>
        <time>2019-04-03T09:59:03Z</time>
      </trkpt>
      <trkpt lat="47.56424" lon="3.64164">
        <ele>171</ele>
        <time>2019-04-03T09:59:07Z</time>
      </trkpt>
      <trkpt lat="47.56426" lon="3.64161">
        <ele>172</ele>
        <time>2019-04-03T09:59:10Z</time>
      </trkpt>
      <trkpt lat="47.56428" lon="3.64159">
        <ele>172</ele>
        <time>2019-04-03T09:59:12Z</time>
      </trkpt>
      <trkpt lat="47.56433" lon="3.64156">
        <ele>171</ele>
        <time>2019-04-03T09:59:16Z</time>
      </trkpt>
      <trkpt lat="47.56435" lon="3.64154">
        <ele>171</ele>
        <time>2019-04-03T09:59:18Z</time>
      </trkpt>
      <trkpt lat="47.56437" lon="3.64153">
        <ele>171</ele>
        <time>2019-04-03T09:59:20Z</time>
      </trkpt>
      <trkpt lat="47.56442" lon="3.64149">
        <ele>173</ele>
        <time>2019-04-03T09:59:25Z</time>
      </trkpt>
      <trkpt lat="47.56445" lon="3.64147">
        <ele>173</ele>
        <time>2019-04-03T09:59:28Z</time>
      </trkpt>
      <trkpt lat="47.56447" lon="3.64145">
        <ele>173</ele>
        <time>2019-04-03T09:59:31Z</time>
      </trkpt>
      <trkpt lat="47.56453" lon="3.64145">
        <ele>174</ele>
        <time>2019-04-03T09:59:39Z</time>
      </trkpt>
      <trkpt lat="47.56456" lon="3.64146">
        <ele>173</ele>
        <time>2019-04-03T09:59:42Z</time>
      </trkpt>
      <trkpt lat="47.56461" lon="3.64144">
        <ele>171</ele>
        <time>2019-04-03T09:59:46Z</time>
      </trkpt>
      <trkpt lat="47.56467" lon="3.64141">
        <ele>171</ele>
        <time>2019-04-03T09:59:50Z</time>
      </trkpt>
      <trkpt lat="47.56472" lon="3.6414">
        <ele>172</ele>
        <time>2019-04-03T09:59:54Z</time>
      </trkpt>
      <trkpt lat="47.56478" lon="3.64138">
        <ele>171</ele>
        <time>2019-04-03T09:59:58Z</time>
      </trkpt>
      <trkpt lat="47.56482" lon="3.64138">
        <ele>171</ele>
        <time>2019-04-03T10:00:02Z</time>
      </trkpt>
      <trkpt lat="47.56487" lon="3.64137">
        <ele>169</ele>
        <time>2019-04-03T10:00:06Z</time>
      </trkpt>
      <trkpt lat="47.56491" lon="3.64137">
        <ele>168</ele>
        <time>2019-04-03T10:00:10Z</time>
      </trkpt>
      <trkpt lat="47.56494" lon="3.64137">
        <ele>168</ele>
        <time>2019-04-03T10:00:12Z</time>
      </trkpt>
      <trkpt lat="47.56499" lon="3.64137">
        <ele>167</ele>
        <time>2019-04-03T10:00:17Z</time>
      </trkpt>
      <trkpt lat="47.56503" lon="3.64137">
        <ele>167</ele>
        <time>2019-04-03T10:00:20Z</time>
      </trkpt>
      <trkpt lat="47.56507" lon="3.64136">
        <ele>168</ele>
        <time>2019-04-03T10:00:23Z</time>
      </trkpt>
      <trkpt lat="47.5651" lon="3.64135">
        <ele>169</ele>
        <time>2019-04-03T10:00:26Z</time>
      </trkpt>
      <trkpt lat="47.56513" lon="3.64135">
        <ele>170</ele>
        <time>2019-04-03T10:00:28Z</time>
      </trkpt>
      <trkpt lat="47.56517" lon="3.64135">
        <ele>170</ele>
        <time>2019-04-03T10:00:33Z</time>
      </trkpt>
      <trkpt lat="47.56522" lon="3.64137">
        <ele>170</ele>
        <time>2019-04-03T10:00:38Z</time>
      </trkpt>
      <trkpt lat="47.56527" lon="3.64138">
        <ele>171</ele>
        <time>2019-04-03T10:00:42Z</time>
      </trkpt>
      <trkpt lat="47.5653" lon="3.64139">
        <ele>171</ele>
        <time>2019-04-03T10:00:44Z</time>
      </trkpt>
      <trkpt lat="47.56536" lon="3.64138">
        <ele>173</ele>
        <time>2019-04-03T10:00:48Z</time>
      </trkpt>
      <trkpt lat="47.56539" lon="3.64137">
        <ele>173</ele>
        <time>2019-04-03T10:00:51Z</time>
      </trkpt>
      <trkpt lat="47.56541" lon="3.64136">
        <ele>173</ele>
        <time>2019-04-03T10:00:53Z</time>
      </trkpt>
      <trkpt lat="47.56546" lon="3.64134">
        <ele>174</ele>
        <time>2019-04-03T10:00:57Z</time>
      </trkpt>
      <trkpt lat="47.56549" lon="3.64132">
        <ele>175</ele>
        <time>2019-04-03T10:01:00Z</time>
      </trkpt>
      <trkpt lat="47.56554" lon="3.64132">
        <ele>176</ele>
        <time>2019-04-03T10:01:04Z</time>
      </trkpt>
      <trkpt lat="47.5656" lon="3.64129">
        <ele>175</ele>
        <time>2019-04-03T10:01:15Z</time>
      </trkpt>
      <trkpt lat="47.56565" lon="3.64128">
        <ele>177</ele>
        <time>2019-04-03T10:01:20Z</time>
      </trkpt>
      <trkpt lat="47.56568" lon="3.64128">
        <ele>177</ele>
        <time>2019-04-03T10:01:24Z</time>
      </trkpt>
      <trkpt lat="47.56573" lon="3.64129">
        <ele>177</ele>
        <time>2019-04-03T10:01:28Z</time>
      </trkpt>
      <trkpt lat="47.56577" lon="3.64128">
        <ele>177</ele>
        <time>2019-04-03T10:01:32Z</time>
      </trkpt>
      <trkpt lat="47.5658" lon="3.64128">
        <ele>178</ele>
        <time>2019-04-03T10:01:35Z</time>
      </trkpt>
      <trkpt lat="47.56583" lon="3.64127">
        <ele>178</ele>
        <time>2019-04-03T10:01:38Z</time>
      </trkpt>
      <trkpt lat="47.5659" lon="3.64128">
        <ele>177</ele>
        <time>2019-04-03T10:01:44Z</time>
      </trkpt>
      <trkpt lat="47.56593" lon="3.64128">
        <ele>177</ele>
        <time>2019-04-03T10:01:47Z</time>
      </trkpt>
      <trkpt lat="47.56597" lon="3.64129">
        <ele>178</ele>
        <time>2019-04-03T10:01:50Z</time>
      </trkpt>
      <trkpt lat="47.56602" lon="3.64128">
        <ele>177</ele>
        <time>2019-04-03T10:01:55Z</time>
      </trkpt>
      <trkpt lat="47.56608" lon="3.64129">
        <ele>176</ele>
        <time>2019-04-03T10:02:03Z</time>
      </trkpt>
      <trkpt lat="47.56612" lon="3.6413">
        <ele>174</ele>
        <time>2019-04-03T10:02:06Z</time>
      </trkpt>
      <trkpt lat="47.56615" lon="3.64131">
        <ele>172</ele>
        <time>2019-04-03T10:02:10Z</time>
      </trkpt>
      <trkpt lat="47.56619" lon="3.64132">
        <ele>171</ele>
        <time>2019-04-03T10:02:17Z</time>
      </trkpt>
      <trkpt lat="47.56623" lon="3.64134">
        <ele>174</ele>
        <time>2019-04-03T10:02:26Z</time>
      </trkpt>
      <trkpt lat="47.56633" lon="3.64149">
        <ele>177</ele>
        <time>2019-04-03T10:02:52Z</time>
      </trkpt>
      <trkpt lat="47.56629" lon="3.64156">
        <ele>177</ele>
        <time>2019-04-03T10:02:58Z</time>
      </trkpt>
      <trkpt lat="47.56628" lon="3.64159">
        <ele>177</ele>
        <time>2019-04-03T10:03:00Z</time>
      </trkpt>
      <trkpt lat="47.56626" lon="3.64165">
        <ele>177</ele>
        <time>2019-04-03T10:03:04Z</time>
      </trkpt>
      <trkpt lat="47.56623" lon="3.64171">
        <ele>177</ele>
        <time>2019-04-03T10:03:08Z</time>
      </trkpt>
      <trkpt lat="47.56622" lon="3.64178">
        <ele>177</ele>
        <time>2019-04-03T10:03:12Z</time>
      </trkpt>
      <trkpt lat="47.5662" lon="3.64185">
        <ele>177</ele>
        <time>2019-04-03T10:03:16Z</time>
      </trkpt>
      <trkpt lat="47.5662" lon="3.64189">
        <ele>176</ele>
        <time>2019-04-03T10:03:18Z</time>
      </trkpt>
      <trkpt lat="47.56618" lon="3.64195">
        <ele>176</ele>
        <time>2019-04-03T10:03:22Z</time>
      </trkpt>
      <trkpt lat="47.56617" lon="3.64198">
        <ele>175</ele>
        <time>2019-04-03T10:03:24Z</time>
      </trkpt>
      <trkpt lat="47.56616" lon="3.64205">
        <ele>174</ele>
        <time>2019-04-03T10:03:28Z</time>
      </trkpt>
      <trkpt lat="47.56615" lon="3.64212">
        <ele>173</ele>
        <time>2019-04-03T10:03:32Z</time>
      </trkpt>
      <trkpt lat="47.56613" lon="3.64221">
        <ele>174</ele>
        <time>2019-04-03T10:03:36Z</time>
      </trkpt>
      <trkpt lat="47.56612" lon="3.64228">
        <ele>173</ele>
        <time>2019-04-03T10:03:40Z</time>
      </trkpt>
      <trkpt lat="47.56612" lon="3.64237">
        <ele>173</ele>
        <time>2019-04-03T10:03:44Z</time>
      </trkpt>
      <trkpt lat="47.56612" lon="3.64241">
        <ele>172</ele>
        <time>2019-04-03T10:03:46Z</time>
      </trkpt>
      <trkpt lat="47.56611" lon="3.6425">
        <ele>172</ele>
        <time>2019-04-03T10:03:50Z</time>
      </trkpt>
      <trkpt lat="47.56611" lon="3.64256">
        <ele>172</ele>
        <time>2019-04-03T10:03:54Z</time>
      </trkpt>
      <trkpt lat="47.5661" lon="3.64263">
        <ele>172</ele>
        <time>2019-04-03T10:03:58Z</time>
      </trkpt>
      <trkpt lat="47.56609" lon="3.64271">
        <ele>172</ele>
        <time>2019-04-03T10:04:03Z</time>
      </trkpt>
      <trkpt lat="47.56608" lon="3.64275">
        <ele>171</ele>
        <time>2019-04-03T10:04:05Z</time>
      </trkpt>
      <trkpt lat="47.56606" lon="3.64283">
        <ele>170</ele>
        <time>2019-04-03T10:04:10Z</time>
      </trkpt>
      <trkpt lat="47.56606" lon="3.64286">
        <ele>170</ele>
        <time>2019-04-03T10:04:12Z</time>
      </trkpt>
      <trkpt lat="47.56605" lon="3.64294">
        <ele>169</ele>
        <time>2019-04-03T10:04:16Z</time>
      </trkpt>
      <trkpt lat="47.56605" lon="3.64298">
        <ele>168</ele>
        <time>2019-04-03T10:04:19Z</time>
      </trkpt>
      <trkpt lat="47.56605" lon="3.64302">
        <ele>168</ele>
        <time>2019-04-03T10:04:21Z</time>
      </trkpt>
      <trkpt lat="47.56603" lon="3.64309">
        <ele>169</ele>
        <time>2019-04-03T10:04:25Z</time>
      </trkpt>
      <trkpt lat="47.56604" lon="3.64317">
        <ele>169</ele>
        <time>2019-04-03T10:04:29Z</time>
      </trkpt>
      <trkpt lat="47.56602" lon="3.64324">
        <ele>170</ele>
        <time>2019-04-03T10:04:33Z</time>
      </trkpt>
      <trkpt lat="47.56602" lon="3.64329">
        <ele>170</ele>
        <time>2019-04-03T10:04:37Z</time>
      </trkpt>
      <trkpt lat="47.566" lon="3.64337">
        <ele>170</ele>
        <time>2019-04-03T10:04:41Z</time>
      </trkpt>
      <trkpt lat="47.56599" lon="3.64343">
        <ele>170</ele>
        <time>2019-04-03T10:04:44Z</time>
      </trkpt>
      <trkpt lat="47.56598" lon="3.64353">
        <ele>169</ele>
        <time>2019-04-03T10:04:49Z</time>
      </trkpt>
      <trkpt lat="47.56597" lon="3.64357">
        <ele>169</ele>
        <time>2019-04-03T10:04:51Z</time>
      </trkpt>
      <trkpt lat="47.56597" lon="3.64361">
        <ele>168</ele>
        <time>2019-04-03T10:04:53Z</time>
      </trkpt>
      <trkpt lat="47.56596" lon="3.64367">
        <ele>168</ele>
        <time>2019-04-03T10:04:57Z</time>
      </trkpt>
      <trkpt lat="47.56595" lon="3.64375">
        <ele>168</ele>
        <time>2019-04-03T10:05:01Z</time>
      </trkpt>
      <trkpt lat="47.56594" lon="3.64379">
        <ele>168</ele>
        <time>2019-04-03T10:05:03Z</time>
      </trkpt>
      <trkpt lat="47.56594" lon="3.64385">
        <ele>169</ele>
        <time>2019-04-03T10:05:06Z</time>
      </trkpt>
      <trkpt lat="47.56593" lon="3.64389">
        <ele>169</ele>
        <time>2019-04-03T10:05:08Z</time>
      </trkpt>
      <trkpt lat="47.56591" lon="3.64396">
        <ele>168</ele>
        <time>2019-04-03T10:05:11Z</time>
      </trkpt>
      <trkpt lat="47.56589" lon="3.64403">
        <ele>170</ele>
        <time>2019-04-03T10:05:15Z</time>
      </trkpt>
      <trkpt lat="47.56589" lon="3.64412">
        <ele>170</ele>
        <time>2019-04-03T10:05:20Z</time>
      </trkpt>
      <trkpt lat="47.56589" lon="3.64416">
        <ele>171</ele>
        <time>2019-04-03T10:05:22Z</time>
      </trkpt>
      <trkpt lat="47.56587" lon="3.64423">
        <ele>171</ele>
        <time>2019-04-03T10:05:26Z</time>
      </trkpt>
      <trkpt lat="47.56588" lon="3.64431">
        <ele>170</ele>
        <time>2019-04-03T10:05:30Z</time>
      </trkpt>
      <trkpt lat="47.56587" lon="3.64439">
        <ele>170</ele>
        <time>2019-04-03T10:05:34Z</time>
      </trkpt>
      <trkpt lat="47.56586" lon="3.64447">
        <ele>169</ele>
        <time>2019-04-03T10:05:38Z</time>
      </trkpt>
      <trkpt lat="47.56585" lon="3.64452">
        <ele>169</ele>
        <time>2019-04-03T10:05:41Z</time>
      </trkpt>
      <trkpt lat="47.56584" lon="3.64461">
        <ele>168</ele>
        <time>2019-04-03T10:05:46Z</time>
      </trkpt>
      <trkpt lat="47.56584" lon="3.64468">
        <ele>167</ele>
        <time>2019-04-03T10:05:50Z</time>
      </trkpt>
      <trkpt lat="47.56584" lon="3.64472">
        <ele>167</ele>
        <time>2019-04-03T10:05:52Z</time>
      </trkpt>
      <trkpt lat="47.56585" lon="3.6448">
        <ele>168</ele>
        <time>2019-04-03T10:05:56Z</time>
      </trkpt>
      <trkpt lat="47.56584" lon="3.64487">
        <ele>169</ele>
        <time>2019-04-03T10:06:00Z</time>
      </trkpt>
      <trkpt lat="47.56583" lon="3.64495">
        <ele>169</ele>
        <time>2019-04-03T10:06:04Z</time>
      </trkpt>
      <trkpt lat="47.56583" lon="3.64505">
        <ele>168</ele>
        <time>2019-04-03T10:06:10Z</time>
      </trkpt>
      <trkpt lat="47.56582" lon="3.64512">
        <ele>168</ele>
        <time>2019-04-03T10:06:14Z</time>
      </trkpt>
      <trkpt lat="47.56581" lon="3.64516">
        <ele>168</ele>
        <time>2019-04-03T10:06:16Z</time>
      </trkpt>
      <trkpt lat="47.5658" lon="3.6452">
        <ele>168</ele>
        <time>2019-04-03T10:06:19Z</time>
      </trkpt>
      <trkpt lat="47.56579" lon="3.64527">
        <ele>168</ele>
        <time>2019-04-03T10:06:23Z</time>
      </trkpt>
      <trkpt lat="47.56578" lon="3.64532">
        <ele>169</ele>
        <time>2019-04-03T10:06:26Z</time>
      </trkpt>
      <trkpt lat="47.56578" lon="3.64539">
        <ele>168</ele>
        <time>2019-04-03T10:06:29Z</time>
      </trkpt>
      <trkpt lat="47.56577" lon="3.64545">
        <ele>168</ele>
        <time>2019-04-03T10:06:32Z</time>
      </trkpt>
      <trkpt lat="47.56577" lon="3.64549">
        <ele>169</ele>
        <time>2019-04-03T10:06:34Z</time>
      </trkpt>
      <trkpt lat="47.56576" lon="3.64553">
        <ele>169</ele>
        <time>2019-04-03T10:06:35Z</time>
      </trkpt>
      <trkpt lat="47.56576" lon="3.64556">
        <ele>169</ele>
        <time>2019-04-03T10:06:37Z</time>
      </trkpt>
      <trkpt lat="47.56576" lon="3.64562">
        <ele>171</ele>
        <time>2019-04-03T10:06:40Z</time>
      </trkpt>
      <trkpt lat="47.56575" lon="3.64569">
        <ele>170</ele>
        <time>2019-04-03T10:06:45Z</time>
      </trkpt>
      <trkpt lat="47.56575" lon="3.64574">
        <ele>170</ele>
        <time>2019-04-03T10:06:47Z</time>
      </trkpt>
      <trkpt lat="47.56574" lon="3.64582">
        <ele>170</ele>
        <time>2019-04-03T10:06:51Z</time>
      </trkpt>
      <trkpt lat="47.56573" lon="3.64586">
        <ele>170</ele>
        <time>2019-04-03T10:06:53Z</time>
      </trkpt>
      <trkpt lat="47.56572" lon="3.6459">
        <ele>169</ele>
        <time>2019-04-03T10:06:55Z</time>
      </trkpt>
      <trkpt lat="47.56572" lon="3.64593">
        <ele>168</ele>
        <time>2019-04-03T10:06:57Z</time>
      </trkpt>
      <trkpt lat="47.56571" lon="3.64597">
        <ele>169</ele>
        <time>2019-04-03T10:06:59Z</time>
      </trkpt>
      <trkpt lat="47.5657" lon="3.64604">
        <ele>169</ele>
        <time>2019-04-03T10:07:03Z</time>
      </trkpt>
      <trkpt lat="47.56569" lon="3.64609">
        <ele>168</ele>
        <time>2019-04-03T10:07:05Z</time>
      </trkpt>
      <trkpt lat="47.56569" lon="3.64613">
        <ele>168</ele>
        <time>2019-04-03T10:07:07Z</time>
      </trkpt>
      <trkpt lat="47.56569" lon="3.64617">
        <ele>169</ele>
        <time>2019-04-03T10:07:09Z</time>
      </trkpt>
      <trkpt lat="47.56569" lon="3.64624">
        <ele>169</ele>
        <time>2019-04-03T10:07:13Z</time>
      </trkpt>
      <trkpt lat="47.56569" lon="3.64628">
        <ele>168</ele>
        <time>2019-04-03T10:07:15Z</time>
      </trkpt>
      <trkpt lat="47.56569" lon="3.64635">
        <ele>168</ele>
        <time>2019-04-03T10:07:19Z</time>
      </trkpt>
      <trkpt lat="47.56568" lon="3.64643">
        <ele>168</ele>
        <time>2019-04-03T10:07:23Z</time>
      </trkpt>
      <trkpt lat="47.56568" lon="3.64652">
        <ele>167</ele>
        <time>2019-04-03T10:07:27Z</time>
      </trkpt>
      <trkpt lat="47.56567" lon="3.64659">
        <ele>167</ele>
        <time>2019-04-03T10:07:31Z</time>
      </trkpt>
      <trkpt lat="47.56567" lon="3.64667">
        <ele>167</ele>
        <time>2019-04-03T10:07:35Z</time>
      </trkpt>
      <trkpt lat="47.56566" lon="3.64673">
        <ele>167</ele>
        <time>2019-04-03T10:07:39Z</time>
      </trkpt>
      <trkpt lat="47.56566" lon="3.6468">
        <ele>168</ele>
        <time>2019-04-03T10:07:43Z</time>
      </trkpt>
      <trkpt lat="47.56564" lon="3.64687">
        <ele>168</ele>
        <time>2019-04-03T10:07:47Z</time>
      </trkpt>
      <trkpt lat="47.56564" lon="3.64694">
        <ele>169</ele>
        <time>2019-04-03T10:07:51Z</time>
      </trkpt>
      <trkpt lat="47.56563" lon="3.64698">
        <ele>169</ele>
        <time>2019-04-03T10:07:53Z</time>
      </trkpt>
      <trkpt lat="47.56561" lon="3.64706">
        <ele>169</ele>
        <time>2019-04-03T10:07:56Z</time>
      </trkpt>
      <trkpt lat="47.56561" lon="3.64715">
        <ele>169</ele>
        <time>2019-04-03T10:08:00Z</time>
      </trkpt>
      <trkpt lat="47.56561" lon="3.64719">
        <ele>169</ele>
        <time>2019-04-03T10:08:02Z</time>
      </trkpt>
      <trkpt lat="47.5656" lon="3.64725">
        <ele>168</ele>
        <time>2019-04-03T10:08:05Z</time>
      </trkpt>
      <trkpt lat="47.56559" lon="3.6473">
        <ele>168</ele>
        <time>2019-04-03T10:08:07Z</time>
      </trkpt>
      <trkpt lat="47.56558" lon="3.64737">
        <ele>168</ele>
        <time>2019-04-03T10:08:11Z</time>
      </trkpt>
      <trkpt lat="47.56557" lon="3.64741">
        <ele>169</ele>
        <time>2019-04-03T10:08:13Z</time>
      </trkpt>
      <trkpt lat="47.56556" lon="3.64749">
        <ele>169</ele>
        <time>2019-04-03T10:08:17Z</time>
      </trkpt>
      <trkpt lat="47.56556" lon="3.64753">
        <ele>168</ele>
        <time>2019-04-03T10:08:20Z</time>
      </trkpt>
      <trkpt lat="47.56555" lon="3.64758">
        <ele>170</ele>
        <time>2019-04-03T10:08:24Z</time>
      </trkpt>
      <trkpt lat="47.56553" lon="3.64764">
        <ele>170</ele>
        <time>2019-04-03T10:08:27Z</time>
      </trkpt>
      <trkpt lat="47.56552" lon="3.64768">
        <ele>170</ele>
        <time>2019-04-03T10:08:29Z</time>
      </trkpt>
      <trkpt lat="47.56551" lon="3.64777">
        <ele>169</ele>
        <time>2019-04-03T10:08:33Z</time>
      </trkpt>
      <trkpt lat="47.5655" lon="3.64784">
        <ele>169</ele>
        <time>2019-04-03T10:08:37Z</time>
      </trkpt>
      <trkpt lat="47.56548" lon="3.64792">
        <ele>168</ele>
        <time>2019-04-03T10:08:41Z</time>
      </trkpt>
      <trkpt lat="47.56548" lon="3.64799">
        <ele>168</ele>
        <time>2019-04-03T10:08:45Z</time>
      </trkpt>
      <trkpt lat="47.56547" lon="3.64806">
        <ele>167</ele>
        <time>2019-04-03T10:08:48Z</time>
      </trkpt>
      <trkpt lat="47.56546" lon="3.64812">
        <ele>167</ele>
        <time>2019-04-03T10:08:51Z</time>
      </trkpt>
      <trkpt lat="47.56544" lon="3.64819">
        <ele>166</ele>
        <time>2019-04-03T10:08:56Z</time>
      </trkpt>
      <trkpt lat="47.56543" lon="3.64827">
        <ele>166</ele>
        <time>2019-04-03T10:09:00Z</time>
      </trkpt>
      <trkpt lat="47.56542" lon="3.64833">
        <ele>166</ele>
        <time>2019-04-03T10:09:03Z</time>
      </trkpt>
      <trkpt lat="47.56539" lon="3.64842">
        <ele>166</ele>
        <time>2019-04-03T10:09:09Z</time>
      </trkpt>
      <trkpt lat="47.56538" lon="3.64847">
        <ele>167</ele>
        <time>2019-04-03T10:09:12Z</time>
      </trkpt>
      <trkpt lat="47.56537" lon="3.64849">
        <ele>167</ele>
        <time>2019-04-03T10:09:14Z</time>
      </trkpt>
      <trkpt lat="47.56534" lon="3.64856">
        <ele>168</ele>
        <time>2019-04-03T10:09:18Z</time>
      </trkpt>
      <trkpt lat="47.56533" lon="3.64863">
        <ele>167</ele>
        <time>2019-04-03T10:09:22Z</time>
      </trkpt>
      <trkpt lat="47.56533" lon="3.64867">
        <ele>167</ele>
        <time>2019-04-03T10:09:24Z</time>
      </trkpt>
      <trkpt lat="47.56532" lon="3.64872">
        <ele>166</ele>
        <time>2019-04-03T10:09:26Z</time>
      </trkpt>
      <trkpt lat="47.56532" lon="3.64877">
        <ele>165</ele>
        <time>2019-04-03T10:09:34Z</time>
      </trkpt>
      <trkpt lat="47.56537" lon="3.64898">
        <ele>169</ele>
        <time>2019-04-03T10:22:17Z</time>
      </trkpt>
      <trkpt lat="47.56544" lon="3.64894">
        <ele>168</ele>
        <time>2019-04-03T10:22:28Z</time>
      </trkpt>
      <trkpt lat="47.56547" lon="3.64893">
        <ele>169</ele>
        <time>2019-04-03T10:22:38Z</time>
      </trkpt>
      <trkpt lat="47.56547" lon="3.64893">
        <ele>169</ele>
        <time>2019-04-03T10:29:28Z</time>
      </trkpt>
      <trkpt lat="47.56536" lon="3.64908">
        <ele>173</ele>
        <time>2019-04-03T10:29:31Z</time>
      </trkpt>
      <trkpt lat="47.56531" lon="3.64911">
        <ele>169</ele>
        <time>2019-04-03T10:29:40Z</time>
      </trkpt>
      <trkpt lat="47.56531" lon="3.64918">
        <ele>170</ele>
        <time>2019-04-03T10:29:44Z</time>
      </trkpt>
      <trkpt lat="47.56533" lon="3.64924">
        <ele>170</ele>
        <time>2019-04-03T10:29:52Z</time>
      </trkpt>
      <trkpt lat="47.56534" lon="3.64928">
        <ele>171</ele>
        <time>2019-04-03T10:29:54Z</time>
      </trkpt>
      <trkpt lat="47.56535" lon="3.64935">
        <ele>171</ele>
        <time>2019-04-03T10:29:58Z</time>
      </trkpt>
      <trkpt lat="47.56535" lon="3.64939">
        <ele>170</ele>
        <time>2019-04-03T10:30:01Z</time>
      </trkpt>
      <trkpt lat="47.56536" lon="3.64944">
        <ele>170</ele>
        <time>2019-04-03T10:30:05Z</time>
      </trkpt>
      <trkpt lat="47.56536" lon="3.64944">
        <ele>170</ele>
        <time>2019-04-03T10:30:13Z</time>
      </trkpt>
      <trkpt lat="47.5654" lon="3.64944">
        <ele>171</ele>
        <time>2019-04-03T10:31:16Z</time>
      </trkpt>
      <trkpt lat="47.56545" lon="3.64939">
        <ele>171</ele>
        <time>2019-04-03T10:31:20Z</time>
      </trkpt>
      <trkpt lat="47.56547" lon="3.64936">
        <ele>171</ele>
        <time>2019-04-03T10:31:22Z</time>
      </trkpt>
      <trkpt lat="47.56551" lon="3.6493">
        <ele>172</ele>
        <time>2019-04-03T10:31:26Z</time>
      </trkpt>
      <trkpt lat="47.56552" lon="3.64927">
        <ele>172</ele>
        <time>2019-04-03T10:31:28Z</time>
      </trkpt>
      <trkpt lat="47.56554" lon="3.64925">
        <ele>172</ele>
        <time>2019-04-03T10:31:32Z</time>
      </trkpt>
      <trkpt lat="47.56557" lon="3.6492">
        <ele>173</ele>
        <time>2019-04-03T10:31:37Z</time>
      </trkpt>
      <trkpt lat="47.56559" lon="3.64916">
        <ele>175</ele>
        <time>2019-04-03T10:31:44Z</time>
      </trkpt>
      <trkpt lat="47.56559" lon="3.64908">
        <ele>171</ele>
        <time>2019-04-03T10:31:54Z</time>
      </trkpt>
      <trkpt lat="47.56558" lon="3.649">
        <ele>174</ele>
        <time>2019-04-03T10:31:58Z</time>
      </trkpt>
      <trkpt lat="47.56556" lon="3.64894">
        <ele>176</ele>
        <time>2019-04-03T10:32:05Z</time>
      </trkpt>
      <trkpt lat="47.56551" lon="3.64888">
        <ele>176</ele>
        <time>2019-04-03T10:32:09Z</time>
      </trkpt>
      <trkpt lat="47.56545" lon="3.64889">
        <ele>176</ele>
        <time>2019-04-03T10:32:18Z</time>
      </trkpt>
      <trkpt lat="47.56541" lon="3.64892">
        <ele>174</ele>
        <time>2019-04-03T10:32:42Z</time>
      </trkpt>
      <trkpt lat="47.56541" lon="3.64892">
        <ele>174</ele>
        <time>2019-04-03T10:34:55Z</time>
      </trkpt>
      <trkpt lat="47.56529" lon="3.6489">
        <ele>169</ele>
        <time>2019-04-03T10:50:29Z</time>
      </trkpt>
      <trkpt lat="47.56526" lon="3.64895">
        <ele>168</ele>
        <time>2019-04-03T10:50:35Z</time>
      </trkpt>
      <trkpt lat="47.56522" lon="3.64902">
        <ele>167</ele>
        <time>2019-04-03T10:50:42Z</time>
      </trkpt>
      <trkpt lat="47.56518" lon="3.64908">
        <ele>166</ele>
        <time>2019-04-03T10:50:47Z</time>
      </trkpt>
      <trkpt lat="47.56516" lon="3.64915">
        <ele>165</ele>
        <time>2019-04-03T10:50:52Z</time>
      </trkpt>
      <trkpt lat="47.56516" lon="3.64923">
        <ele>165</ele>
        <time>2019-04-03T10:50:58Z</time>
      </trkpt>
      <trkpt lat="47.56512" lon="3.6493">
        <ele>164</ele>
        <time>2019-04-03T10:51:04Z</time>
      </trkpt>
      <trkpt lat="47.5651" lon="3.64933">
        <ele>165</ele>
        <time>2019-04-03T10:51:09Z</time>
      </trkpt>
      <trkpt lat="47.56507" lon="3.64937">
        <ele>163</ele>
        <time>2019-04-03T10:51:13Z</time>
      </trkpt>
      <trkpt lat="47.56504" lon="3.64942">
        <ele>163</ele>
        <time>2019-04-03T10:51:18Z</time>
      </trkpt>
      <trkpt lat="47.56502" lon="3.64945">
        <ele>163</ele>
        <time>2019-04-03T10:51:21Z</time>
      </trkpt>
      <trkpt lat="47.565" lon="3.64954">
        <ele>166</ele>
        <time>2019-04-03T10:51:27Z</time>
      </trkpt>
      <trkpt lat="47.56497" lon="3.64961">
        <ele>168</ele>
        <time>2019-04-03T10:51:32Z</time>
      </trkpt>
      <trkpt lat="47.56493" lon="3.64966">
        <ele>168</ele>
        <time>2019-04-03T10:51:36Z</time>
      </trkpt>
      <trkpt lat="47.56491" lon="3.64969">
        <ele>169</ele>
        <time>2019-04-03T10:51:38Z</time>
      </trkpt>
      <trkpt lat="47.56488" lon="3.64974">
        <ele>167</ele>
        <time>2019-04-03T10:51:43Z</time>
      </trkpt>
      <trkpt lat="47.56486" lon="3.6498">
        <ele>164</ele>
        <time>2019-04-03T10:51:47Z</time>
      </trkpt>
      <trkpt lat="47.56483" lon="3.64985">
        <ele>167</ele>
        <time>2019-04-03T10:51:52Z</time>
      </trkpt>
      <trkpt lat="47.56481" lon="3.64988">
        <ele>168</ele>
        <time>2019-04-03T10:51:54Z</time>
      </trkpt>
      <trkpt lat="47.56479" lon="3.64996">
        <ele>167</ele>
        <time>2019-04-03T10:51:59Z</time>
      </trkpt>
      <trkpt lat="47.5648" lon="3.65004">
        <ele>170</ele>
        <time>2019-04-03T10:52:03Z</time>
      </trkpt>
      <trkpt lat="47.56478" lon="3.65012">
        <ele>172</ele>
        <time>2019-04-03T10:52:10Z</time>
      </trkpt>
      <trkpt lat="47.56476" lon="3.65018">
        <ele>172</ele>
        <time>2019-04-03T10:52:14Z</time>
      </trkpt>
      <trkpt lat="47.56474" lon="3.65024">
        <ele>171</ele>
        <time>2019-04-03T10:52:17Z</time>
      </trkpt>
      <trkpt lat="47.56472" lon="3.6503">
        <ele>171</ele>
        <time>2019-04-03T10:52:20Z</time>
      </trkpt>
      <trkpt lat="47.56471" lon="3.65033">
        <ele>171</ele>
        <time>2019-04-03T10:52:22Z</time>
      </trkpt>
      <trkpt lat="47.5647" lon="3.65038">
        <ele>171</ele>
        <time>2019-04-03T10:52:26Z</time>
      </trkpt>
      <trkpt lat="47.56468" lon="3.65044">
        <ele>169</ele>
        <time>2019-04-03T10:52:31Z</time>
      </trkpt>
      <trkpt lat="47.56467" lon="3.65047">
        <ele>168</ele>
        <time>2019-04-03T10:52:32Z</time>
      </trkpt>
      <trkpt lat="47.56465" lon="3.65052">
        <ele>168</ele>
        <time>2019-04-03T10:52:35Z</time>
      </trkpt>
      <trkpt lat="47.56461" lon="3.65059">
        <ele>167</ele>
        <time>2019-04-03T10:52:40Z</time>
      </trkpt>
      <trkpt lat="47.56458" lon="3.65065">
        <ele>165</ele>
        <time>2019-04-03T10:52:44Z</time>
      </trkpt>
      <trkpt lat="47.56456" lon="3.65068">
        <ele>165</ele>
        <time>2019-04-03T10:52:47Z</time>
      </trkpt>
      <trkpt lat="47.56455" lon="3.65075">
        <ele>167</ele>
        <time>2019-04-03T10:52:51Z</time>
      </trkpt>
      <trkpt lat="47.56452" lon="3.65083">
        <ele>165</ele>
        <time>2019-04-03T10:52:56Z</time>
      </trkpt>
      <trkpt lat="47.56449" lon="3.65087">
        <ele>164</ele>
        <time>2019-04-03T10:53:00Z</time>
      </trkpt>
      <trkpt lat="47.56446" lon="3.65094">
        <ele>163</ele>
        <time>2019-04-03T10:53:04Z</time>
      </trkpt>
      <trkpt lat="47.56442" lon="3.65098">
        <ele>160</ele>
        <time>2019-04-03T10:53:08Z</time>
      </trkpt>
      <trkpt lat="47.56438" lon="3.65101">
        <ele>158</ele>
        <time>2019-04-03T10:53:12Z</time>
      </trkpt>
      <trkpt lat="47.56435" lon="3.65108">
        <ele>156</ele>
        <time>2019-04-03T10:53:16Z</time>
      </trkpt>
      <trkpt lat="47.56432" lon="3.65114">
        <ele>156</ele>
        <time>2019-04-03T10:53:21Z</time>
      </trkpt>
      <trkpt lat="47.5643" lon="3.65117">
        <ele>156</ele>
        <time>2019-04-03T10:53:23Z</time>
      </trkpt>
      <trkpt lat="47.56428" lon="3.65121">
        <ele>156</ele>
        <time>2019-04-03T10:53:26Z</time>
      </trkpt>
      <trkpt lat="47.56425" lon="3.65128">
        <ele>157</ele>
        <time>2019-04-03T10:53:31Z</time>
      </trkpt>
      <trkpt lat="47.56422" lon="3.65134">
        <ele>159</ele>
        <time>2019-04-03T10:53:36Z</time>
      </trkpt>
      <trkpt lat="47.56419" lon="3.65138">
        <ele>158</ele>
        <time>2019-04-03T10:53:40Z</time>
      </trkpt>
      <trkpt lat="47.56415" lon="3.65145">
        <ele>160</ele>
        <time>2019-04-03T10:53:45Z</time>
      </trkpt>
      <trkpt lat="47.56413" lon="3.65148">
        <ele>161</ele>
        <time>2019-04-03T10:53:48Z</time>
      </trkpt>
      <trkpt lat="47.56408" lon="3.65151">
        <ele>160</ele>
        <time>2019-04-03T10:53:53Z</time>
      </trkpt>
      <trkpt lat="47.56404" lon="3.65155">
        <ele>160</ele>
        <time>2019-04-03T10:53:57Z</time>
      </trkpt>
      <trkpt lat="47.56402" lon="3.65161">
        <ele>159</ele>
        <time>2019-04-03T10:54:02Z</time>
      </trkpt>
      <trkpt lat="47.56399" lon="3.65168">
        <ele>162</ele>
        <time>2019-04-03T10:54:07Z</time>
      </trkpt>
      <trkpt lat="47.56396" lon="3.65173">
        <ele>163</ele>
        <time>2019-04-03T10:54:11Z</time>
      </trkpt>
      <trkpt lat="47.56392" lon="3.65176">
        <ele>164</ele>
        <time>2019-04-03T10:54:15Z</time>
      </trkpt>
      <trkpt lat="47.56387" lon="3.65178">
        <ele>167</ele>
        <time>2019-04-03T10:54:18Z</time>
      </trkpt>
      <trkpt lat="47.56383" lon="3.65177">
        <ele>168</ele>
        <time>2019-04-03T10:54:22Z</time>
      </trkpt>
      <trkpt lat="47.56378" lon="3.65181">
        <ele>170</ele>
        <time>2019-04-03T10:54:28Z</time>
      </trkpt>
      <trkpt lat="47.56374" lon="3.65186">
        <ele>172</ele>
        <time>2019-04-03T10:54:35Z</time>
      </trkpt>
      <trkpt lat="47.56368" lon="3.65189">
        <ele>173</ele>
        <time>2019-04-03T10:54:40Z</time>
      </trkpt>
      <trkpt lat="47.56362" lon="3.65188">
        <ele>175</ele>
        <time>2019-04-03T10:54:44Z</time>
      </trkpt>
      <trkpt lat="47.56357" lon="3.65188">
        <ele>175</ele>
        <time>2019-04-03T10:54:48Z</time>
      </trkpt>
      <trkpt lat="47.56353" lon="3.65189">
        <ele>176</ele>
        <time>2019-04-03T10:54:52Z</time>
      </trkpt>
      <trkpt lat="47.56348" lon="3.65189">
        <ele>178</ele>
        <time>2019-04-03T10:54:56Z</time>
      </trkpt>
      <trkpt lat="47.56342" lon="3.6519">
        <ele>179</ele>
        <time>2019-04-03T10:55:01Z</time>
      </trkpt>
      <trkpt lat="47.5634" lon="3.6519">
        <ele>179</ele>
        <time>2019-04-03T10:55:03Z</time>
      </trkpt>
      <trkpt lat="47.56338" lon="3.65191">
        <ele>180</ele>
        <time>2019-04-03T10:55:05Z</time>
      </trkpt>
      <trkpt lat="47.56332" lon="3.6519">
        <ele>181</ele>
        <time>2019-04-03T10:55:09Z</time>
      </trkpt>
      <trkpt lat="47.56329" lon="3.65191">
        <ele>183</ele>
        <time>2019-04-03T10:55:13Z</time>
      </trkpt>
      <trkpt lat="47.56324" lon="3.65193">
        <ele>183</ele>
        <time>2019-04-03T10:55:17Z</time>
      </trkpt>
      <trkpt lat="47.56322" lon="3.65194">
        <ele>183</ele>
        <time>2019-04-03T10:55:19Z</time>
      </trkpt>
      <trkpt lat="47.5632" lon="3.65195">
        <ele>183</ele>
        <time>2019-04-03T10:55:21Z</time>
      </trkpt>
      <trkpt lat="47.56317" lon="3.65196">
        <ele>182</ele>
        <time>2019-04-03T10:55:23Z</time>
      </trkpt>
      <trkpt lat="47.56312" lon="3.65198">
        <ele>182</ele>
        <time>2019-04-03T10:55:28Z</time>
      </trkpt>
      <trkpt lat="47.56309" lon="3.65198">
        <ele>182</ele>
        <time>2019-04-03T10:55:31Z</time>
      </trkpt>
      <trkpt lat="47.56305" lon="3.65199">
        <ele>181</ele>
        <time>2019-04-03T10:55:35Z</time>
      </trkpt>
      <trkpt lat="47.56301" lon="3.65199">
        <ele>179</ele>
        <time>2019-04-03T10:55:39Z</time>
      </trkpt>
      <trkpt lat="47.56298" lon="3.65199">
        <ele>178</ele>
        <time>2019-04-03T10:55:41Z</time>
      </trkpt>
      <trkpt lat="47.56294" lon="3.65197">
        <ele>178</ele>
        <time>2019-04-03T10:55:45Z</time>
      </trkpt>
      <trkpt lat="47.5629" lon="3.65194">
        <ele>178</ele>
        <time>2019-04-03T10:55:49Z</time>
      </trkpt>
      <trkpt lat="47.56287" lon="3.65192">
        <ele>178</ele>
        <time>2019-04-03T10:55:52Z</time>
      </trkpt>
      <trkpt lat="47.56285" lon="3.65191">
        <ele>178</ele>
        <time>2019-04-03T10:55:55Z</time>
      </trkpt>
      <trkpt lat="47.56283" lon="3.6519">
        <ele>178</ele>
        <time>2019-04-03T10:55:58Z</time>
      </trkpt>
      <trkpt lat="47.56279" lon="3.65188">
        <ele>176</ele>
        <time>2019-04-03T10:56:01Z</time>
      </trkpt>
      <trkpt lat="47.56275" lon="3.65186">
        <ele>177</ele>
        <time>2019-04-03T10:56:05Z</time>
      </trkpt>
      <trkpt lat="47.56272" lon="3.65184">
        <ele>177</ele>
        <time>2019-04-03T10:56:07Z</time>
      </trkpt>
      <trkpt lat="47.56268" lon="3.65182">
        <ele>176</ele>
        <time>2019-04-03T10:56:13Z</time>
      </trkpt>
      <trkpt lat="47.56265" lon="3.65181">
        <ele>175</ele>
        <time>2019-04-03T10:56:17Z</time>
      </trkpt>
      <trkpt lat="47.56261" lon="3.6518">
        <ele>175</ele>
        <time>2019-04-03T10:56:20Z</time>
      </trkpt>
      <trkpt lat="47.56255" lon="3.65176">
        <ele>174</ele>
        <time>2019-04-03T10:56:26Z</time>
      </trkpt>
      <trkpt lat="47.56249" lon="3.65171">
        <ele>174</ele>
        <time>2019-04-03T10:56:31Z</time>
      </trkpt>
      <trkpt lat="47.56243" lon="3.65166">
        <ele>174</ele>
        <time>2019-04-03T10:56:36Z</time>
      </trkpt>
      <trkpt lat="47.56239" lon="3.65164">
        <ele>172</ele>
        <time>2019-04-03T10:56:40Z</time>
      </trkpt>
      <trkpt lat="47.56233" lon="3.65161">
        <ele>172</ele>
        <time>2019-04-03T10:56:47Z</time>
      </trkpt>
      <trkpt lat="47.56228" lon="3.65158">
        <ele>172</ele>
        <time>2019-04-03T10:56:51Z</time>
      </trkpt>
      <trkpt lat="47.56224" lon="3.65157">
        <ele>168</ele>
        <time>2019-04-03T10:56:55Z</time>
      </trkpt>
      <trkpt lat="47.56218" lon="3.65153">
        <ele>167</ele>
        <time>2019-04-03T10:56:58Z</time>
      </trkpt>
      <trkpt lat="47.56213" lon="3.6515">
        <ele>166</ele>
        <time>2019-04-03T10:57:03Z</time>
      </trkpt>
      <trkpt lat="47.56211" lon="3.65149">
        <ele>166</ele>
        <time>2019-04-03T10:57:05Z</time>
      </trkpt>
      <trkpt lat="47.56206" lon="3.65143">
        <ele>165</ele>
        <time>2019-04-03T10:57:11Z</time>
      </trkpt>
      <trkpt lat="47.562" lon="3.6514">
        <ele>166</ele>
        <time>2019-04-03T10:57:16Z</time>
      </trkpt>
      <trkpt lat="47.56196" lon="3.65137">
        <ele>166</ele>
        <time>2019-04-03T10:57:20Z</time>
      </trkpt>
      <trkpt lat="47.56194" lon="3.65135">
        <ele>166</ele>
        <time>2019-04-03T10:57:22Z</time>
      </trkpt>
      <trkpt lat="47.56189" lon="3.65131">
        <ele>166</ele>
        <time>2019-04-03T10:57:26Z</time>
      </trkpt>
      <trkpt lat="47.56183" lon="3.65127">
        <ele>167</ele>
        <time>2019-04-03T10:57:31Z</time>
      </trkpt>
      <trkpt lat="47.56177" lon="3.65123">
        <ele>167</ele>
        <time>2019-04-03T10:57:36Z</time>
      </trkpt>
      <trkpt lat="47.56174" lon="3.6512">
        <ele>167</ele>
        <time>2019-04-03T10:57:39Z</time>
      </trkpt>
      <trkpt lat="47.56171" lon="3.65119">
        <ele>167</ele>
        <time>2019-04-03T10:57:41Z</time>
      </trkpt>
      <trkpt lat="47.56166" lon="3.65116">
        <ele>168</ele>
        <time>2019-04-03T10:57:44Z</time>
      </trkpt>
      <trkpt lat="47.5616" lon="3.65113">
        <ele>168</ele>
        <time>2019-04-03T10:57:50Z</time>
      </trkpt>
      <trkpt lat="47.56158" lon="3.65112">
        <ele>168</ele>
        <time>2019-04-03T10:57:52Z</time>
      </trkpt>
      <trkpt lat="47.56154" lon="3.65109">
        <ele>168</ele>
        <time>2019-04-03T10:57:55Z</time>
      </trkpt>
      <trkpt lat="47.56148" lon="3.65106">
        <ele>169</ele>
        <time>2019-04-03T10:58:00Z</time>
      </trkpt>
      <trkpt lat="47.56146" lon="3.65104">
        <ele>170</ele>
        <time>2019-04-03T10:58:02Z</time>
      </trkpt>
      <trkpt lat="47.56141" lon="3.65103">
        <ele>171</ele>
        <time>2019-04-03T10:58:06Z</time>
      </trkpt>
      <trkpt lat="47.56138" lon="3.65101">
        <ele>172</ele>
        <time>2019-04-03T10:58:08Z</time>
      </trkpt>
      <trkpt lat="47.56132" lon="3.65099">
        <ele>171</ele>
        <time>2019-04-03T10:58:13Z</time>
      </trkpt>
      <trkpt lat="47.56129" lon="3.65098">
        <ele>171</ele>
        <time>2019-04-03T10:58:16Z</time>
      </trkpt>
      <trkpt lat="47.56127" lon="3.65098">
        <ele>171</ele>
        <time>2019-04-03T10:58:18Z</time>
      </trkpt>
      <trkpt lat="47.56124" lon="3.65097">
        <ele>171</ele>
        <time>2019-04-03T10:58:20Z</time>
      </trkpt>
      <trkpt lat="47.5612" lon="3.65096">
        <ele>171</ele>
        <time>2019-04-03T10:58:23Z</time>
      </trkpt>
      <trkpt lat="47.56116" lon="3.65095">
        <ele>170</ele>
        <time>2019-04-03T10:58:26Z</time>
      </trkpt>
      <trkpt lat="47.5611" lon="3.65094">
        <ele>171</ele>
        <time>2019-04-03T10:58:31Z</time>
      </trkpt>
      <trkpt lat="47.56106" lon="3.65093">
        <ele>172</ele>
        <time>2019-04-03T10:58:34Z</time>
      </trkpt>
      <trkpt lat="47.56103" lon="3.65092">
        <ele>172</ele>
        <time>2019-04-03T10:58:37Z</time>
      </trkpt>
      <trkpt lat="47.56098" lon="3.6509">
        <ele>172</ele>
        <time>2019-04-03T10:58:42Z</time>
      </trkpt>
      <trkpt lat="47.56095" lon="3.65089">
        <ele>173</ele>
        <time>2019-04-03T10:58:45Z</time>
      </trkpt>
      <trkpt lat="47.5609" lon="3.65088">
        <ele>172</ele>
        <time>2019-04-03T10:58:49Z</time>
      </trkpt>
      <trkpt lat="47.56084" lon="3.65086">
        <ele>171</ele>
        <time>2019-04-03T10:58:53Z</time>
      </trkpt>
      <trkpt lat="47.56081" lon="3.65085">
        <ele>172</ele>
        <time>2019-04-03T10:58:56Z</time>
      </trkpt>
      <trkpt lat="47.56079" lon="3.65084">
        <ele>172</ele>
        <time>2019-04-03T10:58:58Z</time>
      </trkpt>
      <trkpt lat="47.56074" lon="3.65081">
        <ele>173</ele>
        <time>2019-04-03T10:59:02Z</time>
      </trkpt>
      <trkpt lat="47.56071" lon="3.6508">
        <ele>174</ele>
        <time>2019-04-03T10:59:04Z</time>
      </trkpt>
      <trkpt lat="47.56066" lon="3.65079">
        <ele>175</ele>
        <time>2019-04-03T10:59:08Z</time>
      </trkpt>
      <trkpt lat="47.56063" lon="3.65078">
        <ele>176</ele>
        <time>2019-04-03T10:59:10Z</time>
      </trkpt>
      <trkpt lat="47.5606" lon="3.65077">
        <ele>176</ele>
        <time>2019-04-03T10:59:13Z</time>
      </trkpt>
      <trkpt lat="47.56057" lon="3.65077">
        <ele>176</ele>
        <time>2019-04-03T10:59:15Z</time>
      </trkpt>
      <trkpt lat="47.56052" lon="3.65075">
        <ele>176</ele>
        <time>2019-04-03T10:59:19Z</time>
      </trkpt>
      <trkpt lat="47.56046" lon="3.65073">
        <ele>177</ele>
        <time>2019-04-03T10:59:24Z</time>
      </trkpt>
      <trkpt lat="47.56041" lon="3.6507">
        <ele>178</ele>
        <time>2019-04-03T10:59:28Z</time>
      </trkpt>
      <trkpt lat="47.56036" lon="3.65069">
        <ele>179</ele>
        <time>2019-04-03T10:59:33Z</time>
      </trkpt>
      <trkpt lat="47.56031" lon="3.65066">
        <ele>178</ele>
        <time>2019-04-03T10:59:36Z</time>
      </trkpt>
      <trkpt lat="47.56028" lon="3.65063">
        <ele>178</ele>
        <time>2019-04-03T10:59:40Z</time>
      </trkpt>
      <trkpt lat="47.56022" lon="3.6506">
        <ele>178</ele>
        <time>2019-04-03T10:59:47Z</time>
      </trkpt>
      <trkpt lat="47.5602" lon="3.65059">
        <ele>178</ele>
        <time>2019-04-03T10:59:49Z</time>
      </trkpt>
      <trkpt lat="47.56016" lon="3.65056">
        <ele>177</ele>
        <time>2019-04-03T10:59:53Z</time>
      </trkpt>
      <trkpt lat="47.56012" lon="3.65054">
        <ele>176</ele>
        <time>2019-04-03T10:59:58Z</time>
      </trkpt>
      <trkpt lat="47.56008" lon="3.65051">
        <ele>176</ele>
        <time>2019-04-03T11:00:02Z</time>
      </trkpt>
      <trkpt lat="47.56005" lon="3.65049">
        <ele>176</ele>
        <time>2019-04-03T11:00:04Z</time>
      </trkpt>
      <trkpt lat="47.56" lon="3.65046">
        <ele>176</ele>
        <time>2019-04-03T11:00:06Z</time>
      </trkpt>
      <trkpt lat="47.55996" lon="3.65043">
        <ele>176</ele>
        <time>2019-04-03T11:00:09Z</time>
      </trkpt>
      <trkpt lat="47.55994" lon="3.65042">
        <ele>175</ele>
        <time>2019-04-03T11:00:11Z</time>
      </trkpt>
      <trkpt lat="47.5599" lon="3.65037">
        <ele>175</ele>
        <time>2019-04-03T11:00:16Z</time>
      </trkpt>
      <trkpt lat="47.55988" lon="3.65035">
        <ele>175</ele>
        <time>2019-04-03T11:00:18Z</time>
      </trkpt>
      <trkpt lat="47.55985" lon="3.65031">
        <ele>175</ele>
        <time>2019-04-03T11:00:22Z</time>
      </trkpt>
      <trkpt lat="47.5598" lon="3.65028">
        <ele>175</ele>
        <time>2019-04-03T11:00:27Z</time>
      </trkpt>
      <trkpt lat="47.55975" lon="3.65023">
        <ele>175</ele>
        <time>2019-04-03T11:00:33Z</time>
      </trkpt>
      <trkpt lat="47.55971" lon="3.65019">
        <ele>175</ele>
        <time>2019-04-03T11:00:37Z</time>
      </trkpt>
      <trkpt lat="47.55968" lon="3.65016">
        <ele>174</ele>
        <time>2019-04-03T11:00:40Z</time>
      </trkpt>
      <trkpt lat="47.55965" lon="3.65011">
        <ele>173</ele>
        <time>2019-04-03T11:00:44Z</time>
      </trkpt>
      <trkpt lat="47.55961" lon="3.65006">
        <ele>173</ele>
        <time>2019-04-03T11:00:48Z</time>
      </trkpt>
      <trkpt lat="47.55959" lon="3.65002">
        <ele>173</ele>
        <time>2019-04-03T11:00:51Z</time>
      </trkpt>
      <trkpt lat="47.55957" lon="3.64999">
        <ele>173</ele>
        <time>2019-04-03T11:00:53Z</time>
      </trkpt>
      <trkpt lat="47.55955" lon="3.64992">
        <ele>174</ele>
        <time>2019-04-03T11:00:58Z</time>
      </trkpt>
      <trkpt lat="47.55952" lon="3.64985">
        <ele>174</ele>
        <time>2019-04-03T11:01:03Z</time>
      </trkpt>
      <trkpt lat="47.55951" lon="3.64981">
        <ele>174</ele>
        <time>2019-04-03T11:01:05Z</time>
      </trkpt>
      <trkpt lat="47.55949" lon="3.64977">
        <ele>172</ele>
        <time>2019-04-03T11:01:08Z</time>
      </trkpt>
      <trkpt lat="47.55948" lon="3.64973">
        <ele>171</ele>
        <time>2019-04-03T11:01:10Z</time>
      </trkpt>
      <trkpt lat="47.55947" lon="3.6497">
        <ele>170</ele>
        <time>2019-04-03T11:01:12Z</time>
      </trkpt>
      <trkpt lat="47.55944" lon="3.64964">
        <ele>169</ele>
        <time>2019-04-03T11:01:15Z</time>
      </trkpt>
      <trkpt lat="47.55941" lon="3.64959">
        <ele>170</ele>
        <time>2019-04-03T11:01:19Z</time>
      </trkpt>
      <trkpt lat="47.55938" lon="3.64953">
        <ele>170</ele>
        <time>2019-04-03T11:01:23Z</time>
      </trkpt>
      <trkpt lat="47.55936" lon="3.6495">
        <ele>171</ele>
        <time>2019-04-03T11:01:25Z</time>
      </trkpt>
      <trkpt lat="47.55934" lon="3.64946">
        <ele>171</ele>
        <time>2019-04-03T11:01:27Z</time>
      </trkpt>
      <trkpt lat="47.55933" lon="3.64944">
        <ele>171</ele>
        <time>2019-04-03T11:01:28Z</time>
      </trkpt>
      <trkpt lat="47.55931" lon="3.64941">
        <ele>171</ele>
        <time>2019-04-03T11:01:30Z</time>
      </trkpt>
      <trkpt lat="47.55929" lon="3.64938">
        <ele>172</ele>
        <time>2019-04-03T11:01:32Z</time>
      </trkpt>
      <trkpt lat="47.55928" lon="3.64936">
        <ele>172</ele>
        <time>2019-04-03T11:01:34Z</time>
      </trkpt>
      <trkpt lat="47.55924" lon="3.64931">
        <ele>170</ele>
        <time>2019-04-03T11:01:38Z</time>
      </trkpt>
      <trkpt lat="47.55921" lon="3.64924">
        <ele>170</ele>
        <time>2019-04-03T11:01:44Z</time>
      </trkpt>
      <trkpt lat="47.55921" lon="3.64917">
        <ele>171</ele>
        <time>2019-04-03T11:01:49Z</time>
      </trkpt>
      <trkpt lat="47.5592" lon="3.64914">
        <ele>172</ele>
        <time>2019-04-03T11:01:50Z</time>
      </trkpt>
      <trkpt lat="47.55918" lon="3.64908">
        <ele>173</ele>
        <time>2019-04-03T11:01:54Z</time>
      </trkpt>
      <trkpt lat="47.55917" lon="3.64901">
        <ele>173</ele>
        <time>2019-04-03T11:01:58Z</time>
      </trkpt>
      <trkpt lat="47.55913" lon="3.64895">
        <ele>174</ele>
        <time>2019-04-03T11:02:02Z</time>
      </trkpt>
      <trkpt lat="47.55909" lon="3.6489">
        <ele>174</ele>
        <time>2019-04-03T11:02:06Z</time>
      </trkpt>
      <trkpt lat="47.55907" lon="3.64884">
        <ele>174</ele>
        <time>2019-04-03T11:02:10Z</time>
      </trkpt>
      <trkpt lat="47.55905" lon="3.6488">
        <ele>174</ele>
        <time>2019-04-03T11:02:13Z</time>
      </trkpt>
      <trkpt lat="47.55901" lon="3.64876">
        <ele>173</ele>
        <time>2019-04-03T11:02:17Z</time>
      </trkpt>
      <trkpt lat="47.55898" lon="3.64873">
        <ele>173</ele>
        <time>2019-04-03T11:02:20Z</time>
      </trkpt>
      <trkpt lat="47.55892" lon="3.64868">
        <ele>173</ele>
        <time>2019-04-03T11:02:25Z</time>
      </trkpt>
      <trkpt lat="47.55889" lon="3.64863">
        <ele>174</ele>
        <time>2019-04-03T11:02:29Z</time>
      </trkpt>
      <trkpt lat="47.55885" lon="3.64855">
        <ele>174</ele>
        <time>2019-04-03T11:02:34Z</time>
      </trkpt>
      <trkpt lat="47.55883" lon="3.64851">
        <ele>172</ele>
        <time>2019-04-03T11:02:37Z</time>
      </trkpt>
      <trkpt lat="47.5588" lon="3.6485">
        <ele>171</ele>
        <time>2019-04-03T11:02:46Z</time>
      </trkpt>
      <trkpt lat="47.55877" lon="3.64843">
        <ele>172</ele>
        <time>2019-04-03T11:02:52Z</time>
      </trkpt>
      <trkpt lat="47.55874" lon="3.64837">
        <ele>172</ele>
        <time>2019-04-03T11:02:57Z</time>
      </trkpt>
      <trkpt lat="47.5587" lon="3.64831">
        <ele>173</ele>
        <time>2019-04-03T11:03:02Z</time>
      </trkpt>
      <trkpt lat="47.55867" lon="3.64826">
        <ele>173</ele>
        <time>2019-04-03T11:03:06Z</time>
      </trkpt>
      <trkpt lat="47.55864" lon="3.6482">
        <ele>173</ele>
        <time>2019-04-03T11:03:11Z</time>
      </trkpt>
      <trkpt lat="47.55862" lon="3.64817">
        <ele>171</ele>
        <time>2019-04-03T11:03:13Z</time>
      </trkpt>
      <trkpt lat="47.55858" lon="3.64812">
        <ele>171</ele>
        <time>2019-04-03T11:03:17Z</time>
      </trkpt>
      <trkpt lat="47.55855" lon="3.64805">
        <ele>171</ele>
        <time>2019-04-03T11:03:20Z</time>
      </trkpt>
      <trkpt lat="47.55853" lon="3.64802">
        <ele>172</ele>
        <time>2019-04-03T11:03:23Z</time>
      </trkpt>
      <trkpt lat="47.55852" lon="3.64795">
        <ele>172</ele>
        <time>2019-04-03T11:03:27Z</time>
      </trkpt>
      <trkpt lat="47.55849" lon="3.64789">
        <ele>171</ele>
        <time>2019-04-03T11:03:31Z</time>
      </trkpt>
      <trkpt lat="47.55846" lon="3.6478">
        <ele>172</ele>
        <time>2019-04-03T11:03:37Z</time>
      </trkpt>
      <trkpt lat="47.55842" lon="3.64776">
        <ele>173</ele>
        <time>2019-04-03T11:03:41Z</time>
      </trkpt>
      <trkpt lat="47.55838" lon="3.64766">
        <ele>172</ele>
        <time>2019-04-03T11:03:47Z</time>
      </trkpt>
      <trkpt lat="47.55836" lon="3.64763">
        <ele>173</ele>
        <time>2019-04-03T11:03:49Z</time>
      </trkpt>
      <trkpt lat="47.55834" lon="3.64758">
        <ele>173</ele>
        <time>2019-04-03T11:03:52Z</time>
      </trkpt>
      <trkpt lat="47.55832" lon="3.64751">
        <ele>173</ele>
        <time>2019-04-03T11:03:56Z</time>
      </trkpt>
      <trkpt lat="47.55829" lon="3.64747">
        <ele>173</ele>
        <time>2019-04-03T11:04:00Z</time>
      </trkpt>
      <trkpt lat="47.55827" lon="3.6474">
        <ele>173</ele>
        <time>2019-04-03T11:04:04Z</time>
      </trkpt>
      <trkpt lat="47.55825" lon="3.64736">
        <ele>172</ele>
        <time>2019-04-03T11:04:07Z</time>
      </trkpt>
      <trkpt lat="47.55823" lon="3.6473">
        <ele>171</ele>
        <time>2019-04-03T11:04:11Z</time>
      </trkpt>
      <trkpt lat="47.55822" lon="3.64725">
        <ele>171</ele>
        <time>2019-04-03T11:04:14Z</time>
      </trkpt>
      <trkpt lat="47.55821" lon="3.64721">
        <ele>171</ele>
        <time>2019-04-03T11:04:16Z</time>
      </trkpt>
      <trkpt lat="47.55819" lon="3.64714">
        <ele>172</ele>
        <time>2019-04-03T11:04:20Z</time>
      </trkpt>
      <trkpt lat="47.55815" lon="3.64708">
        <ele>171</ele>
        <time>2019-04-03T11:04:24Z</time>
      </trkpt>
      <trkpt lat="47.55814" lon="3.64704">
        <ele>172</ele>
        <time>2019-04-03T11:04:26Z</time>
      </trkpt>
      <trkpt lat="47.55812" lon="3.64701">
        <ele>171</ele>
        <time>2019-04-03T11:04:28Z</time>
      </trkpt>
      <trkpt lat="47.55808" lon="3.64692">
        <ele>172</ele>
        <time>2019-04-03T11:04:35Z</time>
      </trkpt>
      <trkpt lat="47.55806" lon="3.64688">
        <ele>171</ele>
        <time>2019-04-03T11:04:38Z</time>
      </trkpt>
      <trkpt lat="47.55805" lon="3.64681">
        <ele>171</ele>
        <time>2019-04-03T11:04:42Z</time>
      </trkpt>
      <trkpt lat="47.55803" lon="3.64672">
        <ele>171</ele>
        <time>2019-04-03T11:04:46Z</time>
      </trkpt>
      <trkpt lat="47.55801" lon="3.64664">
        <ele>173</ele>
        <time>2019-04-03T11:04:51Z</time>
      </trkpt>
      <trkpt lat="47.55798" lon="3.64657">
        <ele>172</ele>
        <time>2019-04-03T11:04:56Z</time>
      </trkpt>
      <trkpt lat="47.55798" lon="3.64649">
        <ele>172</ele>
        <time>2019-04-03T11:05:00Z</time>
      </trkpt>
      <trkpt lat="47.55797" lon="3.64641">
        <ele>172</ele>
        <time>2019-04-03T11:05:04Z</time>
      </trkpt>
      <trkpt lat="47.55797" lon="3.64635">
        <ele>173</ele>
        <time>2019-04-03T11:05:07Z</time>
      </trkpt>
      <trkpt lat="47.55798" lon="3.64626">
        <ele>173</ele>
        <time>2019-04-03T11:05:11Z</time>
      </trkpt>
      <trkpt lat="47.55796" lon="3.6462">
        <ele>174</ele>
        <time>2019-04-03T11:05:15Z</time>
      </trkpt>
      <trkpt lat="47.55795" lon="3.64615">
        <ele>174</ele>
        <time>2019-04-03T11:05:18Z</time>
      </trkpt>
      <trkpt lat="47.55792" lon="3.64609">
        <ele>174</ele>
        <time>2019-04-03T11:05:22Z</time>
      </trkpt>
      <trkpt lat="47.55789" lon="3.64602">
        <ele>173</ele>
        <time>2019-04-03T11:05:26Z</time>
      </trkpt>
      <trkpt lat="47.55787" lon="3.64595">
        <ele>174</ele>
        <time>2019-04-03T11:05:31Z</time>
      </trkpt>
      <trkpt lat="47.55785" lon="3.64589">
        <ele>174</ele>
        <time>2019-04-03T11:05:35Z</time>
      </trkpt>
      <trkpt lat="47.55784" lon="3.64582">
        <ele>174</ele>
        <time>2019-04-03T11:05:39Z</time>
      </trkpt>
      <trkpt lat="47.55783" lon="3.64578">
        <ele>174</ele>
        <time>2019-04-03T11:05:42Z</time>
      </trkpt>
      <trkpt lat="47.55783" lon="3.6457">
        <ele>176</ele>
        <time>2019-04-03T11:05:47Z</time>
      </trkpt>
      <trkpt lat="47.55783" lon="3.64563">
        <ele>176</ele>
        <time>2019-04-03T11:05:51Z</time>
      </trkpt>
      <trkpt lat="47.55783" lon="3.64556">
        <ele>176</ele>
        <time>2019-04-03T11:05:55Z</time>
      </trkpt>
      <trkpt lat="47.55782" lon="3.64548">
        <ele>176</ele>
        <time>2019-04-03T11:05:59Z</time>
      </trkpt>
      <trkpt lat="47.55781" lon="3.64542">
        <ele>176</ele>
        <time>2019-04-03T11:06:02Z</time>
      </trkpt>
      <trkpt lat="47.55777" lon="3.64535">
        <ele>175</ele>
        <time>2019-04-03T11:06:06Z</time>
      </trkpt>
      <trkpt lat="47.55775" lon="3.64528">
        <ele>173</ele>
        <time>2019-04-03T11:06:10Z</time>
      </trkpt>
      <trkpt lat="47.55775" lon="3.6452">
        <ele>174</ele>
        <time>2019-04-03T11:06:14Z</time>
      </trkpt>
      <trkpt lat="47.55773" lon="3.64513">
        <ele>173</ele>
        <time>2019-04-03T11:06:18Z</time>
      </trkpt>
      <trkpt lat="47.55772" lon="3.64507">
        <ele>174</ele>
        <time>2019-04-03T11:06:21Z</time>
      </trkpt>
      <trkpt lat="47.55769" lon="3.64501">
        <ele>175</ele>
        <time>2019-04-03T11:06:25Z</time>
      </trkpt>
      <trkpt lat="47.55768" lon="3.64494">
        <ele>174</ele>
        <time>2019-04-03T11:06:29Z</time>
      </trkpt>
      <trkpt lat="47.55767" lon="3.6449">
        <ele>173</ele>
        <time>2019-04-03T11:06:31Z</time>
      </trkpt>
      <trkpt lat="47.55767" lon="3.64483">
        <ele>173</ele>
        <time>2019-04-03T11:06:35Z</time>
      </trkpt>
      <trkpt lat="47.55766" lon="3.64475">
        <ele>173</ele>
        <time>2019-04-03T11:06:39Z</time>
      </trkpt>
      <trkpt lat="47.55766" lon="3.64471">
        <ele>173</ele>
        <time>2019-04-03T11:06:42Z</time>
      </trkpt>
      <trkpt lat="47.55765" lon="3.64464">
        <ele>172</ele>
        <time>2019-04-03T11:06:45Z</time>
      </trkpt>
      <trkpt lat="47.55766" lon="3.64456">
        <ele>172</ele>
        <time>2019-04-03T11:06:49Z</time>
      </trkpt>
      <trkpt lat="47.55765" lon="3.64449">
        <ele>174</ele>
        <time>2019-04-03T11:06:52Z</time>
      </trkpt>
      <trkpt lat="47.55765" lon="3.64443">
        <ele>174</ele>
        <time>2019-04-03T11:06:55Z</time>
      </trkpt>
      <trkpt lat="47.55764" lon="3.64438">
        <ele>174</ele>
        <time>2019-04-03T11:06:58Z</time>
      </trkpt>
      <trkpt lat="47.55764" lon="3.64431">
        <ele>174</ele>
        <time>2019-04-03T11:07:03Z</time>
      </trkpt>
      <trkpt lat="47.55762" lon="3.64423">
        <ele>173</ele>
        <time>2019-04-03T11:07:08Z</time>
      </trkpt>
      <trkpt lat="47.55763" lon="3.64416">
        <ele>171</ele>
        <time>2019-04-03T11:07:13Z</time>
      </trkpt>
      <trkpt lat="47.55764" lon="3.64412">
        <ele>171</ele>
        <time>2019-04-03T11:07:15Z</time>
      </trkpt>
      <trkpt lat="47.55763" lon="3.64405">
        <ele>172</ele>
        <time>2019-04-03T11:07:19Z</time>
      </trkpt>
      <trkpt lat="47.5576" lon="3.64399">
        <ele>172</ele>
        <time>2019-04-03T11:07:23Z</time>
      </trkpt>
      <trkpt lat="47.55757" lon="3.64394">
        <ele>173</ele>
        <time>2019-04-03T11:07:31Z</time>
      </trkpt>
      <trkpt lat="47.55752" lon="3.64391">
        <ele>174</ele>
        <time>2019-04-03T11:07:34Z</time>
      </trkpt>
      <trkpt lat="47.55745" lon="3.64392">
        <ele>175</ele>
        <time>2019-04-03T11:07:39Z</time>
      </trkpt>
      <trkpt lat="47.55741" lon="3.64395">
        <ele>176</ele>
        <time>2019-04-03T11:07:46Z</time>
      </trkpt>
      <trkpt lat="47.55736" lon="3.64395">
        <ele>176</ele>
        <time>2019-04-03T11:07:50Z</time>
      </trkpt>
      <trkpt lat="47.55731" lon="3.64394">
        <ele>175</ele>
        <time>2019-04-03T11:07:55Z</time>
      </trkpt>
      <trkpt lat="47.55726" lon="3.64396">
        <ele>175</ele>
        <time>2019-04-03T11:07:58Z</time>
      </trkpt>
      <trkpt lat="47.55721" lon="3.64399">
        <ele>175</ele>
        <time>2019-04-03T11:08:02Z</time>
      </trkpt>
      <trkpt lat="47.55718" lon="3.64401">
        <ele>175</ele>
        <time>2019-04-03T11:08:05Z</time>
      </trkpt>
      <trkpt lat="47.55714" lon="3.64406">
        <ele>175</ele>
        <time>2019-04-03T11:08:10Z</time>
      </trkpt>
      <trkpt lat="47.55712" lon="3.64413">
        <ele>174</ele>
        <time>2019-04-03T11:08:15Z</time>
      </trkpt>
      <trkpt lat="47.55711" lon="3.64416">
        <ele>173</ele>
        <time>2019-04-03T11:08:17Z</time>
      </trkpt>
      <trkpt lat="47.55709" lon="3.64421">
        <ele>174</ele>
        <time>2019-04-03T11:08:19Z</time>
      </trkpt>
      <trkpt lat="47.55708" lon="3.64429">
        <ele>173</ele>
        <time>2019-04-03T11:08:23Z</time>
      </trkpt>
      <trkpt lat="47.55707" lon="3.64432">
        <ele>173</ele>
        <time>2019-04-03T11:08:25Z</time>
      </trkpt>
      <trkpt lat="47.55706" lon="3.64438">
        <ele>174</ele>
        <time>2019-04-03T11:08:28Z</time>
      </trkpt>
      <trkpt lat="47.55704" lon="3.64447">
        <ele>176</ele>
        <time>2019-04-03T11:08:32Z</time>
      </trkpt>
      <trkpt lat="47.55703" lon="3.64451">
        <ele>176</ele>
        <time>2019-04-03T11:08:34Z</time>
      </trkpt>
      <trkpt lat="47.55701" lon="3.64458">
        <ele>176</ele>
        <time>2019-04-03T11:08:38Z</time>
      </trkpt>
      <trkpt lat="47.55697" lon="3.64464">
        <ele>175</ele>
        <time>2019-04-03T11:08:42Z</time>
      </trkpt>
      <trkpt lat="47.55694" lon="3.64469">
        <ele>175</ele>
        <time>2019-04-03T11:08:47Z</time>
      </trkpt>
      <trkpt lat="47.55688" lon="3.6447">
        <ele>176</ele>
        <time>2019-04-03T11:08:55Z</time>
      </trkpt>
      <trkpt lat="47.55683" lon="3.64469">
        <ele>177</ele>
        <time>2019-04-03T11:09:01Z</time>
      </trkpt>
      <trkpt lat="47.55679" lon="3.64469">
        <ele>177</ele>
        <time>2019-04-03T11:09:03Z</time>
      </trkpt>
      <trkpt lat="47.55673" lon="3.64467">
        <ele>179</ele>
        <time>2019-04-03T11:09:10Z</time>
      </trkpt>
      <trkpt lat="47.55668" lon="3.64465">
        <ele>179</ele>
        <time>2019-04-03T11:09:15Z</time>
      </trkpt>
      <trkpt lat="47.55663" lon="3.64462">
        <ele>180</ele>
        <time>2019-04-03T11:09:19Z</time>
      </trkpt>
      <trkpt lat="47.55657" lon="3.64462">
        <ele>179</ele>
        <time>2019-04-03T11:09:22Z</time>
      </trkpt>
      <trkpt lat="47.55653" lon="3.64462">
        <ele>179</ele>
        <time>2019-04-03T11:09:24Z</time>
      </trkpt>
      <trkpt lat="47.55648" lon="3.64462">
        <ele>179</ele>
        <time>2019-04-03T11:09:28Z</time>
      </trkpt>
      <trkpt lat="47.55645" lon="3.64463">
        <ele>178</ele>
        <time>2019-04-03T11:09:30Z</time>
      </trkpt>
      <trkpt lat="47.55642" lon="3.64463">
        <ele>179</ele>
        <time>2019-04-03T11:09:31Z</time>
      </trkpt>
      <trkpt lat="47.55637" lon="3.64465">
        <ele>179</ele>
        <time>2019-04-03T11:09:35Z</time>
      </trkpt>
      <trkpt lat="47.55635" lon="3.64466">
        <ele>179</ele>
        <time>2019-04-03T11:09:37Z</time>
      </trkpt>
      <trkpt lat="47.55631" lon="3.6447">
        <ele>180</ele>
        <time>2019-04-03T11:09:42Z</time>
      </trkpt>
      <trkpt lat="47.55626" lon="3.6447">
        <ele>179</ele>
        <time>2019-04-03T11:09:45Z</time>
      </trkpt>
      <trkpt lat="47.55619" lon="3.64475">
        <ele>181</ele>
        <time>2019-04-03T11:09:52Z</time>
      </trkpt>
      <trkpt lat="47.55615" lon="3.64478">
        <ele>180</ele>
        <time>2019-04-03T11:09:55Z</time>
      </trkpt>
      <trkpt lat="47.55609" lon="3.6448">
        <ele>181</ele>
        <time>2019-04-03T11:10:00Z</time>
      </trkpt>
      <trkpt lat="47.55604" lon="3.64482">
        <ele>180</ele>
        <time>2019-04-03T11:10:06Z</time>
      </trkpt>
      <trkpt lat="47.55602" lon="3.64483">
        <ele>179</ele>
        <time>2019-04-03T11:10:07Z</time>
      </trkpt>
      <trkpt lat="47.55597" lon="3.64486">
        <ele>180</ele>
        <time>2019-04-03T11:10:10Z</time>
      </trkpt>
      <trkpt lat="47.55592" lon="3.64488">
        <ele>180</ele>
        <time>2019-04-03T11:10:14Z</time>
      </trkpt>
      <trkpt lat="47.55586" lon="3.64488">
        <ele>179</ele>
        <time>2019-04-03T11:10:18Z</time>
      </trkpt>
      <trkpt lat="47.55581" lon="3.64489">
        <ele>179</ele>
        <time>2019-04-03T11:10:21Z</time>
      </trkpt>
      <trkpt lat="47.55574" lon="3.64489">
        <ele>180</ele>
        <time>2019-04-03T11:10:26Z</time>
      </trkpt>
      <trkpt lat="47.55569" lon="3.64491">
        <ele>181</ele>
        <time>2019-04-03T11:10:31Z</time>
      </trkpt>
      <trkpt lat="47.55565" lon="3.64491">
        <ele>181</ele>
        <time>2019-04-03T11:10:33Z</time>
      </trkpt>
      <trkpt lat="47.55562" lon="3.64491">
        <ele>181</ele>
        <time>2019-04-03T11:10:35Z</time>
      </trkpt>
      <trkpt lat="47.55559" lon="3.64492">
        <ele>183</ele>
        <time>2019-04-03T11:10:38Z</time>
      </trkpt>
      <trkpt lat="47.55554" lon="3.64491">
        <ele>184</ele>
        <time>2019-04-03T11:10:43Z</time>
      </trkpt>
      <trkpt lat="47.55547" lon="3.64491">
        <ele>184</ele>
        <time>2019-04-03T11:10:47Z</time>
      </trkpt>
      <trkpt lat="47.55541" lon="3.6449">
        <ele>185</ele>
        <time>2019-04-03T11:10:53Z</time>
      </trkpt>
      <trkpt lat="47.55537" lon="3.64489">
        <ele>185</ele>
        <time>2019-04-03T11:10:55Z</time>
      </trkpt>
      <trkpt lat="47.55531" lon="3.6449">
        <ele>186</ele>
        <time>2019-04-03T11:10:59Z</time>
      </trkpt>
      <trkpt lat="47.55527" lon="3.6449">
        <ele>185</ele>
        <time>2019-04-03T11:11:02Z</time>
      </trkpt>
      <trkpt lat="47.55521" lon="3.6449">
        <ele>186</ele>
        <time>2019-04-03T11:11:06Z</time>
      </trkpt>
      <trkpt lat="47.55518" lon="3.6449">
        <ele>186</ele>
        <time>2019-04-03T11:11:10Z</time>
      </trkpt>
      <trkpt lat="47.55513" lon="3.6449">
        <ele>186</ele>
        <time>2019-04-03T11:11:14Z</time>
      </trkpt>
      <trkpt lat="47.55508" lon="3.64489">
        <ele>186</ele>
        <time>2019-04-03T11:11:18Z</time>
      </trkpt>
      <trkpt lat="47.55503" lon="3.64488">
        <ele>186</ele>
        <time>2019-04-03T11:11:21Z</time>
      </trkpt>
      <trkpt lat="47.55498" lon="3.64487">
        <ele>186</ele>
        <time>2019-04-03T11:11:26Z</time>
      </trkpt>
      <trkpt lat="47.55492" lon="3.64483">
        <ele>186</ele>
        <time>2019-04-03T11:11:29Z</time>
      </trkpt>
      <trkpt lat="47.55487" lon="3.64482">
        <ele>186</ele>
        <time>2019-04-03T11:11:33Z</time>
      </trkpt>
      <trkpt lat="47.55482" lon="3.64482">
        <ele>186</ele>
        <time>2019-04-03T11:11:37Z</time>
      </trkpt>
      <trkpt lat="47.55477" lon="3.6448">
        <ele>186</ele>
        <time>2019-04-03T11:11:41Z</time>
      </trkpt>
      <trkpt lat="47.55471" lon="3.64479">
        <ele>185</ele>
        <time>2019-04-03T11:11:46Z</time>
      </trkpt>
      <trkpt lat="47.55467" lon="3.64476">
        <ele>186</ele>
        <time>2019-04-03T11:11:50Z</time>
      </trkpt>
      <trkpt lat="47.55462" lon="3.64471">
        <ele>186</ele>
        <time>2019-04-03T11:11:55Z</time>
      </trkpt>
      <trkpt lat="47.55458" lon="3.64469">
        <ele>186</ele>
        <time>2019-04-03T11:11:58Z</time>
      </trkpt>
      <trkpt lat="47.55454" lon="3.64466">
        <ele>187</ele>
        <time>2019-04-03T11:12:01Z</time>
      </trkpt>
      <trkpt lat="47.55448" lon="3.64464">
        <ele>185</ele>
        <time>2019-04-03T11:12:07Z</time>
      </trkpt>
      <trkpt lat="47.55442" lon="3.64459">
        <ele>185</ele>
        <time>2019-04-03T11:12:11Z</time>
      </trkpt>
      <trkpt lat="47.5544" lon="3.64457">
        <ele>185</ele>
        <time>2019-04-03T11:12:13Z</time>
      </trkpt>
      <trkpt lat="47.55435" lon="3.64455">
        <ele>184</ele>
        <time>2019-04-03T11:12:17Z</time>
      </trkpt>
      <trkpt lat="47.55427" lon="3.64451">
        <ele>183</ele>
        <time>2019-04-03T11:12:24Z</time>
      </trkpt>
      <trkpt lat="47.55423" lon="3.64449">
        <ele>182</ele>
        <time>2019-04-03T11:12:27Z</time>
      </trkpt>
      <trkpt lat="47.5542" lon="3.64447">
        <ele>182</ele>
        <time>2019-04-03T11:12:29Z</time>
      </trkpt>
      <trkpt lat="47.55415" lon="3.64445">
        <ele>182</ele>
        <time>2019-04-03T11:12:32Z</time>
      </trkpt>
      <trkpt lat="47.5541" lon="3.64442">
        <ele>182</ele>
        <time>2019-04-03T11:12:37Z</time>
      </trkpt>
      <trkpt lat="47.55406" lon="3.64439">
        <ele>181</ele>
        <time>2019-04-03T11:12:40Z</time>
      </trkpt>
      <trkpt lat="47.55403" lon="3.64437">
        <ele>182</ele>
        <time>2019-04-03T11:12:42Z</time>
      </trkpt>
      <trkpt lat="47.55397" lon="3.64433">
        <ele>181</ele>
        <time>2019-04-03T11:12:48Z</time>
      </trkpt>
      <trkpt lat="47.55394" lon="3.64431">
        <ele>179</ele>
        <time>2019-04-03T11:12:50Z</time>
      </trkpt>
      <trkpt lat="47.5539" lon="3.64428">
        <ele>177</ele>
        <time>2019-04-03T11:12:55Z</time>
      </trkpt>
      <trkpt lat="47.55387" lon="3.64423">
        <ele>179</ele>
        <time>2019-04-03T11:12:59Z</time>
      </trkpt>
      <trkpt lat="47.55385" lon="3.6442">
        <ele>179</ele>
        <time>2019-04-03T11:13:01Z</time>
      </trkpt>
      <trkpt lat="47.55383" lon="3.64417">
        <ele>180</ele>
        <time>2019-04-03T11:13:03Z</time>
      </trkpt>
      <trkpt lat="47.55381" lon="3.64414">
        <ele>179</ele>
        <time>2019-04-03T11:13:05Z</time>
      </trkpt>
      <trkpt lat="47.55376" lon="3.6441">
        <ele>181</ele>
        <time>2019-04-03T11:13:10Z</time>
      </trkpt>
      <trkpt lat="47.55371" lon="3.64407">
        <ele>180</ele>
        <time>2019-04-03T11:13:14Z</time>
      </trkpt>
      <trkpt lat="47.55367" lon="3.64403">
        <ele>180</ele>
        <time>2019-04-03T11:13:17Z</time>
      </trkpt>
      <trkpt lat="47.55362" lon="3.64398">
        <ele>179</ele>
        <time>2019-04-03T11:13:22Z</time>
      </trkpt>
      <trkpt lat="47.55357" lon="3.64392">
        <ele>177</ele>
        <time>2019-04-03T11:13:27Z</time>
      </trkpt>
      <trkpt lat="47.55354" lon="3.6439">
        <ele>177</ele>
        <time>2019-04-03T11:13:30Z</time>
      </trkpt>
      <trkpt lat="47.55349" lon="3.64383">
        <ele>177</ele>
        <time>2019-04-03T11:13:34Z</time>
      </trkpt>
      <trkpt lat="47.55347" lon="3.6438">
        <ele>178</ele>
        <time>2019-04-03T11:13:37Z</time>
      </trkpt>
      <trkpt lat="47.55346" lon="3.64377">
        <ele>179</ele>
        <time>2019-04-03T11:13:39Z</time>
      </trkpt>
      <trkpt lat="47.55344" lon="3.64373">
        <ele>179</ele>
        <time>2019-04-03T11:13:41Z</time>
      </trkpt>
      <trkpt lat="47.55341" lon="3.6437">
        <ele>179</ele>
        <time>2019-04-03T11:13:44Z</time>
      </trkpt>
      <trkpt lat="47.55338" lon="3.64364">
        <ele>180</ele>
        <time>2019-04-03T11:13:49Z</time>
      </trkpt>
      <trkpt lat="47.55336" lon="3.6436">
        <ele>180</ele>
        <time>2019-04-03T11:13:51Z</time>
      </trkpt>
      <trkpt lat="47.5533" lon="3.64356">
        <ele>181</ele>
        <time>2019-04-03T11:13:56Z</time>
      </trkpt>
      <trkpt lat="47.55324" lon="3.64351">
        <ele>182</ele>
        <time>2019-04-03T11:14:02Z</time>
      </trkpt>
      <trkpt lat="47.5532" lon="3.64348">
        <ele>182</ele>
        <time>2019-04-03T11:14:04Z</time>
      </trkpt>
      <trkpt lat="47.55317" lon="3.64345">
        <ele>182</ele>
        <time>2019-04-03T11:14:08Z</time>
      </trkpt>
      <trkpt lat="47.55312" lon="3.6434">
        <ele>182</ele>
        <time>2019-04-03T11:14:12Z</time>
      </trkpt>
      <trkpt lat="47.55308" lon="3.64337">
        <ele>184</ele>
        <time>2019-04-03T11:14:14Z</time>
      </trkpt>
      <trkpt lat="47.55304" lon="3.64334">
        <ele>185</ele>
        <time>2019-04-03T11:14:18Z</time>
      </trkpt>
      <trkpt lat="47.553" lon="3.64331">
        <ele>186</ele>
        <time>2019-04-03T11:14:22Z</time>
      </trkpt>
      <trkpt lat="47.55295" lon="3.64328">
        <ele>186</ele>
        <time>2019-04-03T11:14:29Z</time>
      </trkpt>
      <trkpt lat="47.55289" lon="3.64326">
        <ele>185</ele>
        <time>2019-04-03T11:14:32Z</time>
      </trkpt>
      <trkpt lat="47.55285" lon="3.64325">
        <ele>186</ele>
        <time>2019-04-03T11:14:35Z</time>
      </trkpt>
      <trkpt lat="47.55278" lon="3.64325">
        <ele>184</ele>
        <time>2019-04-03T11:14:38Z</time>
      </trkpt>
      <trkpt lat="47.55269" lon="3.6432">
        <ele>184</ele>
        <time>2019-04-03T11:14:45Z</time>
      </trkpt>
      <trkpt lat="47.55264" lon="3.64315">
        <ele>182</ele>
        <time>2019-04-03T11:14:49Z</time>
      </trkpt>
      <trkpt lat="47.55258" lon="3.6431">
        <ele>181</ele>
        <time>2019-04-03T11:14:54Z</time>
      </trkpt>
      <trkpt lat="47.55253" lon="3.64309">
        <ele>182</ele>
        <time>2019-04-03T11:14:57Z</time>
      </trkpt>
      <trkpt lat="47.55247" lon="3.64309">
        <ele>182</ele>
        <time>2019-04-03T11:15:01Z</time>
      </trkpt>
      <trkpt lat="47.55244" lon="3.64308">
        <ele>182</ele>
        <time>2019-04-03T11:15:03Z</time>
      </trkpt>
      <trkpt lat="47.55237" lon="3.64306">
        <ele>183</ele>
        <time>2019-04-03T11:15:08Z</time>
      </trkpt>
      <trkpt lat="47.55232" lon="3.64305">
        <ele>181</ele>
        <time>2019-04-03T11:15:12Z</time>
      </trkpt>
      <trkpt lat="47.55225" lon="3.64303">
        <ele>182</ele>
        <time>2019-04-03T11:15:15Z</time>
      </trkpt>
      <trkpt lat="47.55222" lon="3.64303">
        <ele>184</ele>
        <time>2019-04-03T11:15:17Z</time>
      </trkpt>
      <trkpt lat="47.55219" lon="3.64302">
        <ele>184</ele>
        <time>2019-04-03T11:15:20Z</time>
      </trkpt>
      <trkpt lat="47.55214" lon="3.64301">
        <ele>183</ele>
        <time>2019-04-03T11:15:24Z</time>
      </trkpt>
      <trkpt lat="47.55208" lon="3.64301">
        <ele>184</ele>
        <time>2019-04-03T11:15:27Z</time>
      </trkpt>
      <trkpt lat="47.55203" lon="3.64301">
        <ele>183</ele>
        <time>2019-04-03T11:15:30Z</time>
      </trkpt>
      <trkpt lat="47.552" lon="3.64301">
        <ele>183</ele>
        <time>2019-04-03T11:15:32Z</time>
      </trkpt>
      <trkpt lat="47.55196" lon="3.643">
        <ele>182</ele>
        <time>2019-04-03T11:15:34Z</time>
      </trkpt>
      <trkpt lat="47.55192" lon="3.64301">
        <ele>182</ele>
        <time>2019-04-03T11:15:37Z</time>
      </trkpt>
      <trkpt lat="47.55189" lon="3.64301">
        <ele>183</ele>
        <time>2019-04-03T11:15:39Z</time>
      </trkpt>
      <trkpt lat="47.55185" lon="3.64301">
        <ele>183</ele>
        <time>2019-04-03T11:15:42Z</time>
      </trkpt>
      <trkpt lat="47.5518" lon="3.64303">
        <ele>183</ele>
        <time>2019-04-03T11:15:46Z</time>
      </trkpt>
      <trkpt lat="47.55175" lon="3.64307">
        <ele>183</ele>
        <time>2019-04-03T11:15:49Z</time>
      </trkpt>
      <trkpt lat="47.55169" lon="3.64312">
        <ele>183</ele>
        <time>2019-04-03T11:15:52Z</time>
      </trkpt>
      <trkpt lat="47.55165" lon="3.64314">
        <ele>183</ele>
        <time>2019-04-03T11:15:56Z</time>
      </trkpt>
      <trkpt lat="47.55161" lon="3.64319">
        <ele>182</ele>
        <time>2019-04-03T11:15:59Z</time>
      </trkpt>
      <trkpt lat="47.55157" lon="3.64323">
        <ele>181</ele>
        <time>2019-04-03T11:16:02Z</time>
      </trkpt>
      <trkpt lat="47.55154" lon="3.64326">
        <ele>181</ele>
        <time>2019-04-03T11:16:05Z</time>
      </trkpt>
      <trkpt lat="47.55148" lon="3.64328">
        <ele>181</ele>
        <time>2019-04-03T11:16:08Z</time>
      </trkpt>
      <trkpt lat="47.55142" lon="3.64331">
        <ele>181</ele>
        <time>2019-04-03T11:16:12Z</time>
      </trkpt>
      <trkpt lat="47.55138" lon="3.64334">
        <ele>181</ele>
        <time>2019-04-03T11:16:16Z</time>
      </trkpt>
      <trkpt lat="47.55134" lon="3.64338">
        <ele>181</ele>
        <time>2019-04-03T11:16:19Z</time>
      </trkpt>
      <trkpt lat="47.55132" lon="3.6434">
        <ele>181</ele>
        <time>2019-04-03T11:16:21Z</time>
      </trkpt>
      <trkpt lat="47.55127" lon="3.64343">
        <ele>182</ele>
        <time>2019-04-03T11:16:25Z</time>
      </trkpt>
      <trkpt lat="47.55124" lon="3.64345">
        <ele>183</ele>
        <time>2019-04-03T11:16:27Z</time>
      </trkpt>
      <trkpt lat="47.55119" lon="3.6435">
        <ele>182</ele>
        <time>2019-04-03T11:16:31Z</time>
      </trkpt>
      <trkpt lat="47.55113" lon="3.64358">
        <ele>181</ele>
        <time>2019-04-03T11:16:36Z</time>
      </trkpt>
      <trkpt lat="47.55112" lon="3.64361">
        <ele>180</ele>
        <time>2019-04-03T11:16:39Z</time>
      </trkpt>
      <trkpt lat="47.55108" lon="3.64365">
        <ele>180</ele>
        <time>2019-04-03T11:16:42Z</time>
      </trkpt>
      <trkpt lat="47.55105" lon="3.64368">
        <ele>181</ele>
        <time>2019-04-03T11:16:45Z</time>
      </trkpt>
      <trkpt lat="47.55101" lon="3.64376">
        <ele>182</ele>
        <time>2019-04-03T11:16:51Z</time>
      </trkpt>
      <trkpt lat="47.55096" lon="3.64381">
        <ele>182</ele>
        <time>2019-04-03T11:16:56Z</time>
      </trkpt>
      <trkpt lat="47.55094" lon="3.64383">
        <ele>182</ele>
        <time>2019-04-03T11:17:00Z</time>
      </trkpt>
      <trkpt lat="47.55089" lon="3.6439">
        <ele>182</ele>
        <time>2019-04-03T11:17:05Z</time>
      </trkpt>
      <trkpt lat="47.55085" lon="3.64394">
        <ele>182</ele>
        <time>2019-04-03T11:17:08Z</time>
      </trkpt>
      <trkpt lat="47.55079" lon="3.64398">
        <ele>182</ele>
        <time>2019-04-03T11:17:13Z</time>
      </trkpt>
      <trkpt lat="47.55075" lon="3.64402">
        <ele>183</ele>
        <time>2019-04-03T11:17:16Z</time>
      </trkpt>
      <trkpt lat="47.5507" lon="3.64404">
        <ele>183</ele>
        <time>2019-04-03T11:17:20Z</time>
      </trkpt>
      <trkpt lat="47.55065" lon="3.64408">
        <ele>183</ele>
        <time>2019-04-03T11:17:23Z</time>
      </trkpt>
      <trkpt lat="47.55061" lon="3.64413">
        <ele>184</ele>
        <time>2019-04-03T11:17:27Z</time>
      </trkpt>
      <trkpt lat="47.55056" lon="3.64417">
        <ele>183</ele>
        <time>2019-04-03T11:17:30Z</time>
      </trkpt>
      <trkpt lat="47.55053" lon="3.64419">
        <ele>184</ele>
        <time>2019-04-03T11:17:33Z</time>
      </trkpt>
      <trkpt lat="47.55048" lon="3.64422">
        <ele>185</ele>
        <time>2019-04-03T11:17:37Z</time>
      </trkpt>
      <trkpt lat="47.55045" lon="3.64423">
        <ele>185</ele>
        <time>2019-04-03T11:17:39Z</time>
      </trkpt>
      <trkpt lat="47.5504" lon="3.64427">
        <ele>185</ele>
        <time>2019-04-03T11:17:43Z</time>
      </trkpt>
      <trkpt lat="47.55036" lon="3.6443">
        <ele>184</ele>
        <time>2019-04-03T11:17:46Z</time>
      </trkpt>
      <trkpt lat="47.55029" lon="3.64434">
        <ele>185</ele>
        <time>2019-04-03T11:17:51Z</time>
      </trkpt>
      <trkpt lat="47.55025" lon="3.64437">
        <ele>185</ele>
        <time>2019-04-03T11:17:54Z</time>
      </trkpt>
      <trkpt lat="47.55019" lon="3.64442">
        <ele>184</ele>
        <time>2019-04-03T11:17:59Z</time>
      </trkpt>
      <trkpt lat="47.55014" lon="3.64445">
        <ele>184</ele>
        <time>2019-04-03T11:18:04Z</time>
      </trkpt>
      <trkpt lat="47.55012" lon="3.64446">
        <ele>184</ele>
        <time>2019-04-03T11:18:06Z</time>
      </trkpt>
      <trkpt lat="47.55008" lon="3.64447">
        <ele>185</ele>
        <time>2019-04-03T11:18:09Z</time>
      </trkpt>
      <trkpt lat="47.55004" lon="3.64451">
        <ele>185</ele>
        <time>2019-04-03T11:18:12Z</time>
      </trkpt>
      <trkpt lat="47.54999" lon="3.64455">
        <ele>185</ele>
        <time>2019-04-03T11:18:16Z</time>
      </trkpt>
      <trkpt lat="47.54995" lon="3.64457">
        <ele>185</ele>
        <time>2019-04-03T11:18:19Z</time>
      </trkpt>
      <trkpt lat="47.54991" lon="3.64461">
        <ele>185</ele>
        <time>2019-04-03T11:18:22Z</time>
      </trkpt>
      <trkpt lat="47.54987" lon="3.64464">
        <ele>184</ele>
        <time>2019-04-03T11:18:25Z</time>
      </trkpt>
      <trkpt lat="47.54985" lon="3.64466">
        <ele>183</ele>
        <time>2019-04-03T11:18:27Z</time>
      </trkpt>
      <trkpt lat="47.54982" lon="3.64468">
        <ele>183</ele>
        <time>2019-04-03T11:18:29Z</time>
      </trkpt>
      <trkpt lat="47.54979" lon="3.6447">
        <ele>182</ele>
        <time>2019-04-03T11:18:32Z</time>
      </trkpt>
      <trkpt lat="47.54977" lon="3.64472">
        <ele>181</ele>
        <time>2019-04-03T11:18:34Z</time>
      </trkpt>
      <trkpt lat="47.54973" lon="3.64477">
        <ele>182</ele>
        <time>2019-04-03T11:18:38Z</time>
      </trkpt>
      <trkpt lat="47.5498" lon="3.64485">
        <ele>179</ele>
        <time>2019-04-03T11:18:48Z</time>
      </trkpt>
      <trkpt lat="47.54989" lon="3.64479">
        <ele>179</ele>
        <time>2019-04-03T11:18:57Z</time>
      </trkpt>
      <trkpt lat="47.54992" lon="3.64477">
        <ele>179</ele>
        <time>2019-04-03T11:19:00Z</time>
      </trkpt>
      <trkpt lat="47.54997" lon="3.64473">
        <ele>179</ele>
        <time>2019-04-03T11:19:06Z</time>
      </trkpt>
      <trkpt lat="47.54999" lon="3.64471">
        <ele>180</ele>
        <time>2019-04-03T11:19:09Z</time>
      </trkpt>
      <trkpt lat="47.55003" lon="3.64468">
        <ele>181</ele>
        <time>2019-04-03T11:19:13Z</time>
      </trkpt>
      <trkpt lat="47.55006" lon="3.64465">
        <ele>181</ele>
        <time>2019-04-03T11:19:20Z</time>
      </trkpt>
      <trkpt lat="47.55009" lon="3.64463">
        <ele>183</ele>
        <time>2019-04-03T11:19:24Z</time>
      </trkpt>
      <trkpt lat="47.55013" lon="3.64454">
        <ele>183</ele>
        <time>2019-04-03T11:19:43Z</time>
      </trkpt>
      <trkpt lat="47.55014" lon="3.64446">
        <ele>181</ele>
        <time>2019-04-03T11:19:47Z</time>
      </trkpt>
      <trkpt lat="47.55012" lon="3.64439">
        <ele>180</ele>
        <time>2019-04-03T11:19:51Z</time>
      </trkpt>
      <trkpt lat="47.5501" lon="3.64433">
        <ele>180</ele>
        <time>2019-04-03T11:19:54Z</time>
      </trkpt>
      <trkpt lat="47.55008" lon="3.64425">
        <ele>178</ele>
        <time>2019-04-03T11:19:58Z</time>
      </trkpt>
      <trkpt lat="47.55009" lon="3.64417">
        <ele>179</ele>
        <time>2019-04-03T11:20:02Z</time>
      </trkpt>
      <trkpt lat="47.55006" lon="3.64412">
        <ele>176</ele>
        <time>2019-04-03T11:20:06Z</time>
      </trkpt>
      <trkpt lat="47.55003" lon="3.64404">
        <ele>176</ele>
        <time>2019-04-03T11:20:10Z</time>
      </trkpt>
      <trkpt lat="47.55003" lon="3.64395">
        <ele>176</ele>
        <time>2019-04-03T11:20:15Z</time>
      </trkpt>
      <trkpt lat="47.55001" lon="3.64388">
        <ele>175</ele>
        <time>2019-04-03T11:20:19Z</time>
      </trkpt>
      <trkpt lat="47.55" lon="3.64384">
        <ele>175</ele>
        <time>2019-04-03T11:20:21Z</time>
      </trkpt>
      <trkpt lat="47.54999" lon="3.64379">
        <ele>175</ele>
        <time>2019-04-03T11:20:24Z</time>
      </trkpt>
      <trkpt lat="47.54997" lon="3.64372">
        <ele>176</ele>
        <time>2019-04-03T11:20:28Z</time>
      </trkpt>
      <trkpt lat="47.54994" lon="3.64362">
        <ele>177</ele>
        <time>2019-04-03T11:20:33Z</time>
      </trkpt>
      <trkpt lat="47.54994" lon="3.64355">
        <ele>178</ele>
        <time>2019-04-03T11:20:37Z</time>
      </trkpt>
      <trkpt lat="47.54993" lon="3.64348">
        <ele>178</ele>
        <time>2019-04-03T11:20:41Z</time>
      </trkpt>
      <trkpt lat="47.54992" lon="3.64344">
        <ele>178</ele>
        <time>2019-04-03T11:20:44Z</time>
      </trkpt>
      <trkpt lat="47.54992" lon="3.64336">
        <ele>178</ele>
        <time>2019-04-03T11:20:49Z</time>
      </trkpt>
      <trkpt lat="47.54992" lon="3.64332">
        <ele>179</ele>
        <time>2019-04-03T11:20:54Z</time>
      </trkpt>
      <trkpt lat="47.54994" lon="3.64325">
        <ele>179</ele>
        <time>2019-04-03T11:20:59Z</time>
      </trkpt>
      <trkpt lat="47.54997" lon="3.64319">
        <ele>180</ele>
        <time>2019-04-03T11:21:05Z</time>
      </trkpt>
      <trkpt lat="47.55002" lon="3.64314">
        <ele>179</ele>
        <time>2019-04-03T11:21:12Z</time>
      </trkpt>
      <trkpt lat="47.55006" lon="3.64309">
        <ele>178</ele>
        <time>2019-04-03T11:21:18Z</time>
      </trkpt>
      <trkpt lat="47.55012" lon="3.64305">
        <ele>180</ele>
        <time>2019-04-03T11:21:22Z</time>
      </trkpt>
      <trkpt lat="47.55015" lon="3.643">
        <ele>180</ele>
        <time>2019-04-03T11:21:25Z</time>
      </trkpt>
      <trkpt lat="47.55019" lon="3.64296">
        <ele>181</ele>
        <time>2019-04-03T11:21:30Z</time>
      </trkpt>
      <trkpt lat="47.55023" lon="3.64291">
        <ele>181</ele>
        <time>2019-04-03T11:21:35Z</time>
      </trkpt>
      <trkpt lat="47.55029" lon="3.64289">
        <ele>183</ele>
        <time>2019-04-03T11:21:40Z</time>
      </trkpt>
      <trkpt lat="47.55034" lon="3.64285">
        <ele>181</ele>
        <time>2019-04-03T11:21:46Z</time>
      </trkpt>
      <trkpt lat="47.55039" lon="3.6428">
        <ele>183</ele>
        <time>2019-04-03T11:21:50Z</time>
      </trkpt>
      <trkpt lat="47.55041" lon="3.64278">
        <ele>183</ele>
        <time>2019-04-03T11:21:52Z</time>
      </trkpt>
      <trkpt lat="47.55044" lon="3.64276">
        <ele>182</ele>
        <time>2019-04-03T11:21:55Z</time>
      </trkpt>
      <trkpt lat="47.55048" lon="3.64272">
        <ele>182</ele>
        <time>2019-04-03T11:21:59Z</time>
      </trkpt>
      <trkpt lat="47.55051" lon="3.64266">
        <ele>184</ele>
        <time>2019-04-03T11:22:03Z</time>
      </trkpt>
      <trkpt lat="47.55055" lon="3.64262">
        <ele>186</ele>
        <time>2019-04-03T11:22:07Z</time>
      </trkpt>
      <trkpt lat="47.55058" lon="3.64259">
        <ele>187</ele>
        <time>2019-04-03T11:22:10Z</time>
      </trkpt>
      <trkpt lat="47.55063" lon="3.64255">
        <ele>187</ele>
        <time>2019-04-03T11:22:14Z</time>
      </trkpt>
      <trkpt lat="47.55067" lon="3.6425">
        <ele>188</ele>
        <time>2019-04-03T11:22:18Z</time>
      </trkpt>
      <trkpt lat="47.55073" lon="3.64245">
        <ele>187</ele>
        <time>2019-04-03T11:22:23Z</time>
      </trkpt>
      <trkpt lat="47.55076" lon="3.64243">
        <ele>187</ele>
        <time>2019-04-03T11:22:25Z</time>
      </trkpt>
      <trkpt lat="47.55078" lon="3.64241">
        <ele>187</ele>
        <time>2019-04-03T11:22:28Z</time>
      </trkpt>
      <trkpt lat="47.5508" lon="3.64238">
        <ele>188</ele>
        <time>2019-04-03T11:22:30Z</time>
      </trkpt>
      <trkpt lat="47.55085" lon="3.64235">
        <ele>189</ele>
        <time>2019-04-03T11:22:34Z</time>
      </trkpt>
      <trkpt lat="47.55088" lon="3.64233">
        <ele>189</ele>
        <time>2019-04-03T11:22:37Z</time>
      </trkpt>
      <trkpt lat="47.55093" lon="3.64228">
        <ele>189</ele>
        <time>2019-04-03T11:22:41Z</time>
      </trkpt>
      <trkpt lat="47.55098" lon="3.64227">
        <ele>187</ele>
        <time>2019-04-03T11:22:46Z</time>
      </trkpt>
      <trkpt lat="47.55103" lon="3.64225">
        <ele>188</ele>
        <time>2019-04-03T11:22:53Z</time>
      </trkpt>
      <trkpt lat="47.55108" lon="3.64222">
        <ele>188</ele>
        <time>2019-04-03T11:22:56Z</time>
      </trkpt>
      <trkpt lat="47.55114" lon="3.64217">
        <ele>189</ele>
        <time>2019-04-03T11:23:00Z</time>
      </trkpt>
      <trkpt lat="47.55118" lon="3.64214">
        <ele>189</ele>
        <time>2019-04-03T11:23:05Z</time>
      </trkpt>
      <trkpt lat="47.55121" lon="3.64212">
        <ele>190</ele>
        <time>2019-04-03T11:23:08Z</time>
      </trkpt>
      <trkpt lat="47.55126" lon="3.64208">
        <ele>190</ele>
        <time>2019-04-03T11:23:14Z</time>
      </trkpt>
      <trkpt lat="47.55129" lon="3.64207">
        <ele>188</ele>
        <time>2019-04-03T11:23:16Z</time>
      </trkpt>
      <trkpt lat="47.55133" lon="3.64203">
        <ele>188</ele>
        <time>2019-04-03T11:23:19Z</time>
      </trkpt>
      <trkpt lat="47.55138" lon="3.64202">
        <ele>191</ele>
        <time>2019-04-03T11:23:23Z</time>
      </trkpt>
      <trkpt lat="47.55142" lon="3.64201">
        <ele>190</ele>
        <time>2019-04-03T11:23:26Z</time>
      </trkpt>
      <trkpt lat="47.55145" lon="3.642">
        <ele>191</ele>
        <time>2019-04-03T11:23:28Z</time>
      </trkpt>
      <trkpt lat="47.55151" lon="3.64196">
        <ele>191</ele>
        <time>2019-04-03T11:23:33Z</time>
      </trkpt>
      <trkpt lat="47.55156" lon="3.64196">
        <ele>192</ele>
        <time>2019-04-03T11:23:38Z</time>
      </trkpt>
      <trkpt lat="47.55162" lon="3.64193">
        <ele>193</ele>
        <time>2019-04-03T11:23:43Z</time>
      </trkpt>
      <trkpt lat="47.55167" lon="3.64191">
        <ele>192</ele>
        <time>2019-04-03T11:23:46Z</time>
      </trkpt>
      <trkpt lat="47.55173" lon="3.64188">
        <ele>192</ele>
        <time>2019-04-03T11:23:51Z</time>
      </trkpt>
      <trkpt lat="47.55178" lon="3.64187">
        <ele>194</ele>
        <time>2019-04-03T11:23:54Z</time>
      </trkpt>
      <trkpt lat="47.55183" lon="3.64185">
        <ele>196</ele>
        <time>2019-04-03T11:24:00Z</time>
      </trkpt>
      <trkpt lat="47.55186" lon="3.64185">
        <ele>197</ele>
        <time>2019-04-03T11:24:02Z</time>
      </trkpt>
      <trkpt lat="47.55188" lon="3.64184">
        <ele>197</ele>
        <time>2019-04-03T11:24:05Z</time>
      </trkpt>
      <trkpt lat="47.55194" lon="3.64181">
        <ele>196</ele>
        <time>2019-04-03T11:24:09Z</time>
      </trkpt>
      <trkpt lat="47.55197" lon="3.64181">
        <ele>196</ele>
        <time>2019-04-03T11:24:12Z</time>
      </trkpt>
      <trkpt lat="47.55202" lon="3.64177">
        <ele>197</ele>
        <time>2019-04-03T11:24:15Z</time>
      </trkpt>
      <trkpt lat="47.55207" lon="3.64176">
        <ele>197</ele>
        <time>2019-04-03T11:24:19Z</time>
      </trkpt>
      <trkpt lat="47.55211" lon="3.64176">
        <ele>197</ele>
        <time>2019-04-03T11:24:22Z</time>
      </trkpt>
      <trkpt lat="47.55214" lon="3.64176">
        <ele>197</ele>
        <time>2019-04-03T11:24:24Z</time>
      </trkpt>
      <trkpt lat="47.55218" lon="3.64171">
        <ele>198</ele>
        <time>2019-04-03T11:24:27Z</time>
      </trkpt>
      <trkpt lat="47.55222" lon="3.64169">
        <ele>198</ele>
        <time>2019-04-03T11:24:30Z</time>
      </trkpt>
      <trkpt lat="47.55228" lon="3.64167">
        <ele>198</ele>
        <time>2019-04-03T11:24:35Z</time>
      </trkpt>
      <trkpt lat="47.55233" lon="3.64164">
        <ele>197</ele>
        <time>2019-04-03T11:24:37Z</time>
      </trkpt>
      <trkpt lat="47.5524" lon="3.64162">
        <ele>197</ele>
        <time>2019-04-03T11:24:41Z</time>
      </trkpt>
      <trkpt lat="47.55244" lon="3.64159">
        <ele>197</ele>
        <time>2019-04-03T11:24:44Z</time>
      </trkpt>
      <trkpt lat="47.55244" lon="3.64159">
        <ele>197</ele>
        <time>2019-04-03T11:24:49Z</time>
      </trkpt>
      <trkpt lat="47.55248" lon="3.64153">
        <ele>197</ele>
        <time>2019-04-03T11:24:52Z</time>
      </trkpt>
      <trkpt lat="47.5525" lon="3.64145">
        <ele>198</ele>
        <time>2019-04-03T11:24:56Z</time>
      </trkpt>
      <trkpt lat="47.55247" lon="3.64137">
        <ele>198</ele>
        <time>2019-04-03T11:25:00Z</time>
      </trkpt>
      <trkpt lat="47.55246" lon="3.64133">
        <ele>198</ele>
        <time>2019-04-03T11:25:06Z</time>
      </trkpt>
      <trkpt lat="47.55241" lon="3.64128">
        <ele>199</ele>
        <time>2019-04-03T11:25:12Z</time>
      </trkpt>
      <trkpt lat="47.55241" lon="3.64128">
        <ele>199</ele>
        <time>2019-04-03T11:25:20Z</time>
      </trkpt>
      <trkpt lat="47.55241" lon="3.64128">
        <ele>199</ele>
        <time>2019-04-03T11:25:21Z</time>
      </trkpt>
      <trkpt lat="47.55236" lon="3.64124">
        <ele>198</ele>
        <time>2019-04-03T11:25:24Z</time>
      </trkpt>
      <trkpt lat="47.55233" lon="3.64121">
        <ele>197</ele>
        <time>2019-04-03T11:25:28Z</time>
      </trkpt>
      <trkpt lat="47.55228" lon="3.64117">
        <ele>198</ele>
        <time>2019-04-03T11:25:34Z</time>
      </trkpt>
      <trkpt lat="47.55226" lon="3.64115">
        <ele>198</ele>
        <time>2019-04-03T11:25:37Z</time>
      </trkpt>
      <trkpt lat="47.55224" lon="3.64113">
        <ele>198</ele>
        <time>2019-04-03T11:25:39Z</time>
      </trkpt>
      <trkpt lat="47.55219" lon="3.64113">
        <ele>198</ele>
        <time>2019-04-03T11:25:43Z</time>
      </trkpt>
      <trkpt lat="47.55214" lon="3.64112">
        <ele>199</ele>
        <time>2019-04-03T11:25:48Z</time>
      </trkpt>
      <trkpt lat="47.55208" lon="3.64109">
        <ele>199</ele>
        <time>2019-04-03T11:25:55Z</time>
      </trkpt>
      <trkpt lat="47.55203" lon="3.64108">
        <ele>200</ele>
        <time>2019-04-03T11:26:00Z</time>
      </trkpt>
      <trkpt lat="47.552" lon="3.64108">
        <ele>201</ele>
        <time>2019-04-03T11:26:03Z</time>
      </trkpt>
      <trkpt lat="47.55196" lon="3.64107">
        <ele>201</ele>
        <time>2019-04-03T11:26:07Z</time>
      </trkpt>
      <trkpt lat="47.55192" lon="3.64107">
        <ele>201</ele>
        <time>2019-04-03T11:26:10Z</time>
      </trkpt>
      <trkpt lat="47.55187" lon="3.64107">
        <ele>201</ele>
        <time>2019-04-03T11:26:14Z</time>
      </trkpt>
      <trkpt lat="47.55184" lon="3.64108">
        <ele>201</ele>
        <time>2019-04-03T11:26:18Z</time>
      </trkpt>
      <trkpt lat="47.55179" lon="3.64107">
        <ele>201</ele>
        <time>2019-04-03T11:26:21Z</time>
      </trkpt>
      <trkpt lat="47.55174" lon="3.64105">
        <ele>201</ele>
        <time>2019-04-03T11:26:25Z</time>
      </trkpt>
      <trkpt lat="47.55168" lon="3.64104">
        <ele>203</ele>
        <time>2019-04-03T11:26:30Z</time>
      </trkpt>
      <trkpt lat="47.55165" lon="3.64103">
        <ele>203</ele>
        <time>2019-04-03T11:26:33Z</time>
      </trkpt>
      <trkpt lat="47.55161" lon="3.64103">
        <ele>203</ele>
        <time>2019-04-03T11:26:37Z</time>
      </trkpt>
      <trkpt lat="47.55157" lon="3.64101">
        <ele>203</ele>
        <time>2019-04-03T11:26:41Z</time>
      </trkpt>
      <trkpt lat="47.55154" lon="3.64101">
        <ele>203</ele>
        <time>2019-04-03T11:26:44Z</time>
      </trkpt>
      <trkpt lat="47.55152" lon="3.641">
        <ele>203</ele>
        <time>2019-04-03T11:26:45Z</time>
      </trkpt>
      <trkpt lat="47.55147" lon="3.641">
        <ele>203</ele>
        <time>2019-04-03T11:26:49Z</time>
      </trkpt>
      <trkpt lat="47.55144" lon="3.641">
        <ele>202</ele>
        <time>2019-04-03T11:26:51Z</time>
      </trkpt>
      <trkpt lat="47.55139" lon="3.64099">
        <ele>203</ele>
        <time>2019-04-03T11:26:55Z</time>
      </trkpt>
      <trkpt lat="47.55137" lon="3.64099">
        <ele>203</ele>
        <time>2019-04-03T11:26:57Z</time>
      </trkpt>
      <trkpt lat="47.55134" lon="3.64099">
        <ele>202</ele>
        <time>2019-04-03T11:27:00Z</time>
      </trkpt>
      <trkpt lat="47.5513" lon="3.64097">
        <ele>202</ele>
        <time>2019-04-03T11:27:03Z</time>
      </trkpt>
      <trkpt lat="47.55127" lon="3.64096">
        <ele>203</ele>
        <time>2019-04-03T11:27:06Z</time>
      </trkpt>
      <trkpt lat="47.55124" lon="3.64095">
        <ele>203</ele>
        <time>2019-04-03T11:27:08Z</time>
      </trkpt>
      <trkpt lat="47.55121" lon="3.64094">
        <ele>204</ele>
        <time>2019-04-03T11:27:11Z</time>
      </trkpt>
      <trkpt lat="47.55118" lon="3.64094">
        <ele>203</ele>
        <time>2019-04-03T11:27:12Z</time>
      </trkpt>
      <trkpt lat="47.55111" lon="3.64093">
        <ele>205</ele>
        <time>2019-04-03T11:27:17Z</time>
      </trkpt>
      <trkpt lat="47.55109" lon="3.64092">
        <ele>205</ele>
        <time>2019-04-03T11:27:19Z</time>
      </trkpt>
      <trkpt lat="47.55106" lon="3.64091">
        <ele>204</ele>
        <time>2019-04-03T11:27:22Z</time>
      </trkpt>
      <trkpt lat="47.55103" lon="3.64089">
        <ele>204</ele>
        <time>2019-04-03T11:27:26Z</time>
      </trkpt>
      <trkpt lat="47.55098" lon="3.64088">
        <ele>205</ele>
        <time>2019-04-03T11:27:29Z</time>
      </trkpt>
      <trkpt lat="47.55093" lon="3.64086">
        <ele>205</ele>
        <time>2019-04-03T11:27:33Z</time>
      </trkpt>
      <trkpt lat="47.5509" lon="3.64085">
        <ele>206</ele>
        <time>2019-04-03T11:27:36Z</time>
      </trkpt>
      <trkpt lat="47.55086" lon="3.64084">
        <ele>205</ele>
        <time>2019-04-03T11:27:39Z</time>
      </trkpt>
      <trkpt lat="47.55081" lon="3.6408">
        <ele>205</ele>
        <time>2019-04-03T11:27:43Z</time>
      </trkpt>
      <trkpt lat="47.55077" lon="3.64078">
        <ele>205</ele>
        <time>2019-04-03T11:27:48Z</time>
      </trkpt>
      <trkpt lat="47.55072" lon="3.64075">
        <ele>206</ele>
        <time>2019-04-03T11:27:51Z</time>
      </trkpt>
      <trkpt lat="47.5507" lon="3.64074">
        <ele>206</ele>
        <time>2019-04-03T11:27:53Z</time>
      </trkpt>
      <trkpt lat="47.55066" lon="3.64071">
        <ele>207</ele>
        <time>2019-04-03T11:27:57Z</time>
      </trkpt>
      <trkpt lat="47.55063" lon="3.6407">
        <ele>207</ele>
        <time>2019-04-03T11:27:59Z</time>
      </trkpt>
      <trkpt lat="47.55061" lon="3.64068">
        <ele>207</ele>
        <time>2019-04-03T11:28:01Z</time>
      </trkpt>
      <trkpt lat="47.55058" lon="3.64065">
        <ele>207</ele>
        <time>2019-04-03T11:28:04Z</time>
      </trkpt>
      <trkpt lat="47.55053" lon="3.6406">
        <ele>206</ele>
        <time>2019-04-03T11:28:09Z</time>
      </trkpt>
      <trkpt lat="47.55048" lon="3.64057">
        <ele>206</ele>
        <time>2019-04-03T11:28:13Z</time>
      </trkpt>
      <trkpt lat="47.55044" lon="3.64053">
        <ele>205</ele>
        <time>2019-04-03T11:28:17Z</time>
      </trkpt>
      <trkpt lat="47.55039" lon="3.64051">
        <ele>205</ele>
        <time>2019-04-03T11:28:22Z</time>
      </trkpt>
      <trkpt lat="47.55037" lon="3.64049">
        <ele>206</ele>
        <time>2019-04-03T11:28:24Z</time>
      </trkpt>
      <trkpt lat="47.55034" lon="3.64047">
        <ele>206</ele>
        <time>2019-04-03T11:28:27Z</time>
      </trkpt>
      <trkpt lat="47.55029" lon="3.64045">
        <ele>207</ele>
        <time>2019-04-03T11:28:31Z</time>
      </trkpt>
      <trkpt lat="47.55022" lon="3.64041">
        <ele>208</ele>
        <time>2019-04-03T11:28:36Z</time>
      </trkpt>
      <trkpt lat="47.5502" lon="3.6404">
        <ele>207</ele>
        <time>2019-04-03T11:28:38Z</time>
      </trkpt>
      <trkpt lat="47.55018" lon="3.64038">
        <ele>208</ele>
        <time>2019-04-03T11:28:40Z</time>
      </trkpt>
      <trkpt lat="47.55013" lon="3.64036">
        <ele>208</ele>
        <time>2019-04-03T11:28:45Z</time>
      </trkpt>
      <trkpt lat="47.55007" lon="3.64035">
        <ele>208</ele>
        <time>2019-04-03T11:28:49Z</time>
      </trkpt>
      <trkpt lat="47.55002" lon="3.64033">
        <ele>209</ele>
        <time>2019-04-03T11:28:53Z</time>
      </trkpt>
      <trkpt lat="47.55" lon="3.64032">
        <ele>209</ele>
        <time>2019-04-03T11:28:54Z</time>
      </trkpt>
      <trkpt lat="47.54996" lon="3.6403">
        <ele>209</ele>
        <time>2019-04-03T11:28:57Z</time>
      </trkpt>
      <trkpt lat="47.54991" lon="3.64028">
        <ele>211</ele>
        <time>2019-04-03T11:29:01Z</time>
      </trkpt>
      <trkpt lat="47.54986" lon="3.64025">
        <ele>210</ele>
        <time>2019-04-03T11:29:05Z</time>
      </trkpt>
      <trkpt lat="47.54982" lon="3.64023">
        <ele>210</ele>
        <time>2019-04-03T11:29:09Z</time>
      </trkpt>
      <trkpt lat="47.54977" lon="3.64022">
        <ele>210</ele>
        <time>2019-04-03T11:29:13Z</time>
      </trkpt>
      <trkpt lat="47.54974" lon="3.64021">
        <ele>210</ele>
        <time>2019-04-03T11:29:16Z</time>
      </trkpt>
      <trkpt lat="47.54971" lon="3.6402">
        <ele>209</ele>
        <time>2019-04-03T11:29:19Z</time>
      </trkpt>
      <trkpt lat="47.54968" lon="3.6402">
        <ele>209</ele>
        <time>2019-04-03T11:29:21Z</time>
      </trkpt>
      <trkpt lat="47.54962" lon="3.64016">
        <ele>210</ele>
        <time>2019-04-03T11:29:27Z</time>
      </trkpt>
      <trkpt lat="47.54956" lon="3.64013">
        <ele>211</ele>
        <time>2019-04-03T11:29:31Z</time>
      </trkpt>
      <trkpt lat="47.54952" lon="3.64012">
        <ele>211</ele>
        <time>2019-04-03T11:29:34Z</time>
      </trkpt>
      <trkpt lat="47.54947" lon="3.64012">
        <ele>210</ele>
        <time>2019-04-03T11:29:38Z</time>
      </trkpt>
      <trkpt lat="47.54945" lon="3.64011">
        <ele>210</ele>
        <time>2019-04-03T11:29:40Z</time>
      </trkpt>
      <trkpt lat="47.54942" lon="3.64011">
        <ele>210</ele>
        <time>2019-04-03T11:29:42Z</time>
      </trkpt>
      <trkpt lat="47.54936" lon="3.64011">
        <ele>211</ele>
        <time>2019-04-03T11:29:46Z</time>
      </trkpt>
      <trkpt lat="47.54934" lon="3.64011">
        <ele>211</ele>
        <time>2019-04-03T11:29:48Z</time>
      </trkpt>
      <trkpt lat="47.54928" lon="3.64012">
        <ele>211</ele>
        <time>2019-04-03T11:29:53Z</time>
      </trkpt>
      <trkpt lat="47.54923" lon="3.6401">
        <ele>212</ele>
        <time>2019-04-03T11:29:56Z</time>
      </trkpt>
      <trkpt lat="47.54918" lon="3.6401">
        <ele>211</ele>
        <time>2019-04-03T11:30:00Z</time>
      </trkpt>
      <trkpt lat="47.54912" lon="3.6401">
        <ele>211</ele>
        <time>2019-04-03T11:30:04Z</time>
      </trkpt>
      <trkpt lat="47.54908" lon="3.6401">
        <ele>211</ele>
        <time>2019-04-03T11:30:07Z</time>
      </trkpt>
      <trkpt lat="47.54903" lon="3.6401">
        <ele>211</ele>
        <time>2019-04-03T11:30:11Z</time>
      </trkpt>
      <trkpt lat="47.54901" lon="3.6401">
        <ele>211</ele>
        <time>2019-04-03T11:30:13Z</time>
      </trkpt>
      <trkpt lat="47.54896" lon="3.64009">
        <ele>211</ele>
        <time>2019-04-03T11:30:16Z</time>
      </trkpt>
      <trkpt lat="47.54891" lon="3.64008">
        <ele>211</ele>
        <time>2019-04-03T11:30:20Z</time>
      </trkpt>
      <trkpt lat="47.54888" lon="3.64008">
        <ele>211</ele>
        <time>2019-04-03T11:30:22Z</time>
      </trkpt>
      <trkpt lat="47.54883" lon="3.64006">
        <ele>210</ele>
        <time>2019-04-03T11:30:26Z</time>
      </trkpt>
      <trkpt lat="47.54881" lon="3.64005">
        <ele>211</ele>
        <time>2019-04-03T11:30:28Z</time>
      </trkpt>
      <trkpt lat="47.54875" lon="3.64003">
        <ele>212</ele>
        <time>2019-04-03T11:30:32Z</time>
      </trkpt>
      <trkpt lat="47.54873" lon="3.64003">
        <ele>212</ele>
        <time>2019-04-03T11:30:34Z</time>
      </trkpt>
      <trkpt lat="47.54867" lon="3.64001">
        <ele>212</ele>
        <time>2019-04-03T11:30:38Z</time>
      </trkpt>
      <trkpt lat="47.54862" lon="3.63999">
        <ele>213</ele>
        <time>2019-04-03T11:30:43Z</time>
      </trkpt>
      <trkpt lat="47.5486" lon="3.63998">
        <ele>213</ele>
        <time>2019-04-03T11:30:45Z</time>
      </trkpt>
      <trkpt lat="47.54854" lon="3.63997">
        <ele>213</ele>
        <time>2019-04-03T11:30:50Z</time>
      </trkpt>
      <trkpt lat="47.54848" lon="3.63994">
        <ele>214</ele>
        <time>2019-04-03T11:30:55Z</time>
      </trkpt>
      <trkpt lat="47.54843" lon="3.63992">
        <ele>214</ele>
        <time>2019-04-03T11:30:59Z</time>
      </trkpt>
      <trkpt lat="47.54841" lon="3.63991">
        <ele>213</ele>
        <time>2019-04-03T11:31:01Z</time>
      </trkpt>
      <trkpt lat="47.54838" lon="3.6399">
        <ele>214</ele>
        <time>2019-04-03T11:31:03Z</time>
      </trkpt>
      <trkpt lat="47.54833" lon="3.63988">
        <ele>214</ele>
        <time>2019-04-03T11:31:07Z</time>
      </trkpt>
      <trkpt lat="47.54829" lon="3.63987">
        <ele>214</ele>
        <time>2019-04-03T11:31:10Z</time>
      </trkpt>
      <trkpt lat="47.54825" lon="3.63985">
        <ele>214</ele>
        <time>2019-04-03T11:31:12Z</time>
      </trkpt>
      <trkpt lat="47.54822" lon="3.63985">
        <ele>215</ele>
        <time>2019-04-03T11:31:14Z</time>
      </trkpt>
      <trkpt lat="47.54819" lon="3.63984">
        <ele>215</ele>
        <time>2019-04-03T11:31:17Z</time>
      </trkpt>
      <trkpt lat="47.54816" lon="3.63983">
        <ele>214</ele>
        <time>2019-04-03T11:31:19Z</time>
      </trkpt>
      <trkpt lat="47.54813" lon="3.63982">
        <ele>215</ele>
        <time>2019-04-03T11:31:23Z</time>
      </trkpt>
      <trkpt lat="47.54808" lon="3.63981">
        <ele>215</ele>
        <time>2019-04-03T11:31:26Z</time>
      </trkpt>
      <trkpt lat="47.54802" lon="3.63979">
        <ele>215</ele>
        <time>2019-04-03T11:31:30Z</time>
      </trkpt>
      <trkpt lat="47.54798" lon="3.63978">
        <ele>215</ele>
        <time>2019-04-03T11:31:34Z</time>
      </trkpt>
      <trkpt lat="47.54794" lon="3.63975">
        <ele>215</ele>
        <time>2019-04-03T11:31:37Z</time>
      </trkpt>
      <trkpt lat="47.54791" lon="3.63973">
        <ele>215</ele>
        <time>2019-04-03T11:31:40Z</time>
      </trkpt>
      <trkpt lat="47.54786" lon="3.63969">
        <ele>215</ele>
        <time>2019-04-03T11:31:45Z</time>
      </trkpt>
      <trkpt lat="47.54781" lon="3.63967">
        <ele>216</ele>
        <time>2019-04-03T11:31:48Z</time>
      </trkpt>
      <trkpt lat="47.54779" lon="3.63966">
        <ele>216</ele>
        <time>2019-04-03T11:31:51Z</time>
      </trkpt>
      <trkpt lat="47.54775" lon="3.63964">
        <ele>216</ele>
        <time>2019-04-03T11:31:53Z</time>
      </trkpt>
      <trkpt lat="47.54772" lon="3.63962">
        <ele>216</ele>
        <time>2019-04-03T11:31:55Z</time>
      </trkpt>
      <trkpt lat="47.54767" lon="3.63959">
        <ele>217</ele>
        <time>2019-04-03T11:31:59Z</time>
      </trkpt>
      <trkpt lat="47.54763" lon="3.63956">
        <ele>216</ele>
        <time>2019-04-03T11:32:03Z</time>
      </trkpt>
      <trkpt lat="47.54758" lon="3.63953">
        <ele>217</ele>
        <time>2019-04-03T11:32:07Z</time>
      </trkpt>
      <trkpt lat="47.54755" lon="3.63951">
        <ele>216</ele>
        <time>2019-04-03T11:32:10Z</time>
      </trkpt>
      <trkpt lat="47.54753" lon="3.6395">
        <ele>216</ele>
        <time>2019-04-03T11:32:12Z</time>
      </trkpt>
      <trkpt lat="47.54749" lon="3.63946">
        <ele>217</ele>
        <time>2019-04-03T11:32:16Z</time>
      </trkpt>
      <trkpt lat="47.54744" lon="3.63944">
        <ele>217</ele>
        <time>2019-04-03T11:32:21Z</time>
      </trkpt>
      <trkpt lat="47.54741" lon="3.63942">
        <ele>217</ele>
        <time>2019-04-03T11:32:23Z</time>
      </trkpt>
      <trkpt lat="47.54739" lon="3.63941">
        <ele>217</ele>
        <time>2019-04-03T11:32:25Z</time>
      </trkpt>
      <trkpt lat="47.54736" lon="3.63938">
        <ele>217</ele>
        <time>2019-04-03T11:32:28Z</time>
      </trkpt>
      <trkpt lat="47.54732" lon="3.63934">
        <ele>218</ele>
        <time>2019-04-03T11:32:31Z</time>
      </trkpt>
      <trkpt lat="47.54726" lon="3.63931">
        <ele>218</ele>
        <time>2019-04-03T11:32:36Z</time>
      </trkpt>
      <trkpt lat="47.54722" lon="3.63929">
        <ele>217</ele>
        <time>2019-04-03T11:32:39Z</time>
      </trkpt>
      <trkpt lat="47.5472" lon="3.63928">
        <ele>217</ele>
        <time>2019-04-03T11:32:41Z</time>
      </trkpt>
      <trkpt lat="47.54718" lon="3.63927">
        <ele>218</ele>
        <time>2019-04-03T11:32:43Z</time>
      </trkpt>
      <trkpt lat="47.54713" lon="3.63923">
        <ele>218</ele>
        <time>2019-04-03T11:32:48Z</time>
      </trkpt>
      <trkpt lat="47.54707" lon="3.63919">
        <ele>218</ele>
        <time>2019-04-03T11:32:52Z</time>
      </trkpt>
      <trkpt lat="47.54705" lon="3.63918">
        <ele>218</ele>
        <time>2019-04-03T11:32:54Z</time>
      </trkpt>
      <trkpt lat="47.547" lon="3.63914">
        <ele>218</ele>
        <time>2019-04-03T11:32:58Z</time>
      </trkpt>
      <trkpt lat="47.54698" lon="3.63913">
        <ele>219</ele>
        <time>2019-04-03T11:33:00Z</time>
      </trkpt>
      <trkpt lat="47.54695" lon="3.6391">
        <ele>219</ele>
        <time>2019-04-03T11:33:03Z</time>
      </trkpt>
      <trkpt lat="47.54692" lon="3.63908">
        <ele>219</ele>
        <time>2019-04-03T11:33:05Z</time>
      </trkpt>
      <trkpt lat="47.54688" lon="3.63906">
        <ele>218</ele>
        <time>2019-04-03T11:33:08Z</time>
      </trkpt>
      <trkpt lat="47.54686" lon="3.63905">
        <ele>219</ele>
        <time>2019-04-03T11:33:10Z</time>
      </trkpt>
      <trkpt lat="47.54684" lon="3.63904">
        <ele>218</ele>
        <time>2019-04-03T11:33:13Z</time>
      </trkpt>
      <trkpt lat="47.54678" lon="3.63898">
        <ele>218</ele>
        <time>2019-04-03T11:33:18Z</time>
      </trkpt>
      <trkpt lat="47.54676" lon="3.63895">
        <ele>218</ele>
        <time>2019-04-03T11:33:20Z</time>
      </trkpt>
      <trkpt lat="47.54673" lon="3.63892">
        <ele>219</ele>
        <time>2019-04-03T11:33:23Z</time>
      </trkpt>
      <trkpt lat="47.54668" lon="3.63888">
        <ele>219</ele>
        <time>2019-04-03T11:33:28Z</time>
      </trkpt>
      <trkpt lat="47.54663" lon="3.63885">
        <ele>219</ele>
        <time>2019-04-03T11:33:31Z</time>
      </trkpt>
      <trkpt lat="47.5466" lon="3.63884">
        <ele>219</ele>
        <time>2019-04-03T11:33:33Z</time>
      </trkpt>
      <trkpt lat="47.54656" lon="3.6388">
        <ele>219</ele>
        <time>2019-04-03T11:33:38Z</time>
      </trkpt>
      <trkpt lat="47.5465" lon="3.63877">
        <ele>219</ele>
        <time>2019-04-03T11:33:42Z</time>
      </trkpt>
      <trkpt lat="47.54647" lon="3.63876">
        <ele>220</ele>
        <time>2019-04-03T11:33:44Z</time>
      </trkpt>
      <trkpt lat="47.54645" lon="3.63874">
        <ele>220</ele>
        <time>2019-04-03T11:33:46Z</time>
      </trkpt>
      <trkpt lat="47.54643" lon="3.63873">
        <ele>220</ele>
        <time>2019-04-03T11:33:48Z</time>
      </trkpt>
      <trkpt lat="47.54639" lon="3.63869">
        <ele>220</ele>
        <time>2019-04-03T11:33:52Z</time>
      </trkpt>
      <trkpt lat="47.54637" lon="3.63867">
        <ele>222</ele>
        <time>2019-04-03T11:33:54Z</time>
      </trkpt>
      <trkpt lat="47.54633" lon="3.63864">
        <ele>221</ele>
        <time>2019-04-03T11:33:58Z</time>
      </trkpt>
      <trkpt lat="47.5463" lon="3.63863">
        <ele>221</ele>
        <time>2019-04-03T11:34:01Z</time>
      </trkpt>
      <trkpt lat="47.54627" lon="3.63861">
        <ele>221</ele>
        <time>2019-04-03T11:34:05Z</time>
      </trkpt>
      <trkpt lat="47.54623" lon="3.63857">
        <ele>221</ele>
        <time>2019-04-03T11:34:09Z</time>
      </trkpt>
      <trkpt lat="47.54621" lon="3.63855">
        <ele>220</ele>
        <time>2019-04-03T11:34:11Z</time>
      </trkpt>
      <trkpt lat="47.54617" lon="3.63851">
        <ele>221</ele>
        <time>2019-04-03T11:34:13Z</time>
      </trkpt>
      <trkpt lat="47.54613" lon="3.63847">
        <ele>221</ele>
        <time>2019-04-03T11:34:17Z</time>
      </trkpt>
      <trkpt lat="47.54608" lon="3.63842">
        <ele>222</ele>
        <time>2019-04-03T11:34:22Z</time>
      </trkpt>
      <trkpt lat="47.54606" lon="3.63841">
        <ele>222</ele>
        <time>2019-04-03T11:34:25Z</time>
      </trkpt>
      <trkpt lat="47.54602" lon="3.63836">
        <ele>223</ele>
        <time>2019-04-03T11:34:28Z</time>
      </trkpt>
      <trkpt lat="47.54599" lon="3.63834">
        <ele>223</ele>
        <time>2019-04-03T11:34:30Z</time>
      </trkpt>
      <trkpt lat="47.54594" lon="3.63828">
        <ele>223</ele>
        <time>2019-04-03T11:34:35Z</time>
      </trkpt>
      <trkpt lat="47.54589" lon="3.63825">
        <ele>223</ele>
        <time>2019-04-03T11:34:39Z</time>
      </trkpt>
      <trkpt lat="47.54585" lon="3.63821">
        <ele>223</ele>
        <time>2019-04-03T11:34:43Z</time>
      </trkpt>
      <trkpt lat="47.54582" lon="3.63819">
        <ele>222</ele>
        <time>2019-04-03T11:34:45Z</time>
      </trkpt>
      <trkpt lat="47.54579" lon="3.63816">
        <ele>222</ele>
        <time>2019-04-03T11:34:48Z</time>
      </trkpt>
      <trkpt lat="47.54577" lon="3.63814">
        <ele>223</ele>
        <time>2019-04-03T11:34:50Z</time>
      </trkpt>
      <trkpt lat="47.54571" lon="3.63811">
        <ele>224</ele>
        <time>2019-04-03T11:34:55Z</time>
      </trkpt>
      <trkpt lat="47.54567" lon="3.63805">
        <ele>225</ele>
        <time>2019-04-03T11:34:59Z</time>
      </trkpt>
      <trkpt lat="47.54564" lon="3.63801">
        <ele>223</ele>
        <time>2019-04-03T11:35:03Z</time>
      </trkpt>
      <trkpt lat="47.54562" lon="3.63798">
        <ele>223</ele>
        <time>2019-04-03T11:35:07Z</time>
      </trkpt>
      <trkpt lat="47.54557" lon="3.63796">
        <ele>223</ele>
        <time>2019-04-03T11:35:11Z</time>
      </trkpt>
      <trkpt lat="47.54552" lon="3.63795">
        <ele>224</ele>
        <time>2019-04-03T11:35:13Z</time>
      </trkpt>
      <trkpt lat="47.54549" lon="3.63794">
        <ele>224</ele>
        <time>2019-04-03T11:35:15Z</time>
      </trkpt>
      <trkpt lat="47.54545" lon="3.63793">
        <ele>223</ele>
        <time>2019-04-03T11:35:18Z</time>
      </trkpt>
      <trkpt lat="47.54541" lon="3.63789">
        <ele>224</ele>
        <time>2019-04-03T11:35:21Z</time>
      </trkpt>
      <trkpt lat="47.54537" lon="3.63787">
        <ele>225</ele>
        <time>2019-04-03T11:35:25Z</time>
      </trkpt>
      <trkpt lat="47.54533" lon="3.63784">
        <ele>225</ele>
        <time>2019-04-03T11:35:28Z</time>
      </trkpt>
      <trkpt lat="47.54528" lon="3.63783">
        <ele>223</ele>
        <time>2019-04-03T11:35:31Z</time>
      </trkpt>
      <trkpt lat="47.54523" lon="3.63781">
        <ele>223</ele>
        <time>2019-04-03T11:35:35Z</time>
      </trkpt>
      <trkpt lat="47.54519" lon="3.63781">
        <ele>222</ele>
        <time>2019-04-03T11:35:38Z</time>
      </trkpt>
      <trkpt lat="47.54513" lon="3.63778">
        <ele>222</ele>
        <time>2019-04-03T11:35:43Z</time>
      </trkpt>
      <trkpt lat="47.5451" lon="3.63777">
        <ele>221</ele>
        <time>2019-04-03T11:35:45Z</time>
      </trkpt>
      <trkpt lat="47.54507" lon="3.63776">
        <ele>222</ele>
        <time>2019-04-03T11:35:47Z</time>
      </trkpt>
      <trkpt lat="47.54501" lon="3.63776">
        <ele>222</ele>
        <time>2019-04-03T11:35:52Z</time>
      </trkpt>
      <trkpt lat="47.54496" lon="3.63778">
        <ele>222</ele>
        <time>2019-04-03T11:35:56Z</time>
      </trkpt>
      <trkpt lat="47.5449" lon="3.6378">
        <ele>224</ele>
        <time>2019-04-03T11:36:01Z</time>
      </trkpt>
      <trkpt lat="47.54485" lon="3.63781">
        <ele>225</ele>
        <time>2019-04-03T11:36:05Z</time>
      </trkpt>
      <trkpt lat="47.54481" lon="3.63781">
        <ele>225</ele>
        <time>2019-04-03T11:36:09Z</time>
      </trkpt>
      <trkpt lat="47.54476" lon="3.6378">
        <ele>226</ele>
        <time>2019-04-03T11:36:13Z</time>
      </trkpt>
      <trkpt lat="47.54474" lon="3.6378">
        <ele>226</ele>
        <time>2019-04-03T11:36:15Z</time>
      </trkpt>
      <trkpt lat="47.5447" lon="3.63779">
        <ele>225</ele>
        <time>2019-04-03T11:36:18Z</time>
      </trkpt>
      <trkpt lat="47.54465" lon="3.63776">
        <ele>226</ele>
        <time>2019-04-03T11:36:24Z</time>
      </trkpt>
      <trkpt lat="47.5446" lon="3.63773">
        <ele>225</ele>
        <time>2019-04-03T11:36:29Z</time>
      </trkpt>
      <trkpt lat="47.54457" lon="3.63771">
        <ele>225</ele>
        <time>2019-04-03T11:36:32Z</time>
      </trkpt>
      <trkpt lat="47.54451" lon="3.63769">
        <ele>225</ele>
        <time>2019-04-03T11:36:36Z</time>
      </trkpt>
      <trkpt lat="47.54447" lon="3.63765">
        <ele>226</ele>
        <time>2019-04-03T11:36:40Z</time>
      </trkpt>
      <trkpt lat="47.54442" lon="3.63763">
        <ele>226</ele>
        <time>2019-04-03T11:36:45Z</time>
      </trkpt>
      <trkpt lat="47.54439" lon="3.63761">
        <ele>226</ele>
        <time>2019-04-03T11:36:48Z</time>
      </trkpt>
      <trkpt lat="47.54434" lon="3.63758">
        <ele>228</ele>
        <time>2019-04-03T11:36:52Z</time>
      </trkpt>
      <trkpt lat="47.54429" lon="3.63753">
        <ele>228</ele>
        <time>2019-04-03T11:36:57Z</time>
      </trkpt>
      <trkpt lat="47.54424" lon="3.63751">
        <ele>228</ele>
        <time>2019-04-03T11:37:02Z</time>
      </trkpt>
      <trkpt lat="47.54419" lon="3.63749">
        <ele>228</ele>
        <time>2019-04-03T11:37:06Z</time>
      </trkpt>
      <trkpt lat="47.54415" lon="3.63746">
        <ele>228</ele>
        <time>2019-04-03T11:37:10Z</time>
      </trkpt>
      <trkpt lat="47.54409" lon="3.63743">
        <ele>226</ele>
        <time>2019-04-03T11:37:14Z</time>
      </trkpt>
      <trkpt lat="47.54405" lon="3.63742">
        <ele>226</ele>
        <time>2019-04-03T11:37:18Z</time>
      </trkpt>
      <trkpt lat="47.54399" lon="3.63739">
        <ele>225</ele>
        <time>2019-04-03T11:37:22Z</time>
      </trkpt>
      <trkpt lat="47.54396" lon="3.63735">
        <ele>225</ele>
        <time>2019-04-03T11:37:26Z</time>
      </trkpt>
      <trkpt lat="47.54391" lon="3.63732">
        <ele>226</ele>
        <time>2019-04-03T11:37:31Z</time>
      </trkpt>
      <trkpt lat="47.54389" lon="3.63731">
        <ele>226</ele>
        <time>2019-04-03T11:37:33Z</time>
      </trkpt>
      <trkpt lat="47.54384" lon="3.63729">
        <ele>226</ele>
        <time>2019-04-03T11:37:38Z</time>
      </trkpt>
      <trkpt lat="47.5438" lon="3.63725">
        <ele>227</ele>
        <time>2019-04-03T11:37:41Z</time>
      </trkpt>
      <trkpt lat="47.54376" lon="3.63722">
        <ele>226</ele>
        <time>2019-04-03T11:37:45Z</time>
      </trkpt>
      <trkpt lat="47.54373" lon="3.6372">
        <ele>226</ele>
        <time>2019-04-03T11:37:47Z</time>
      </trkpt>
      <trkpt lat="47.54368" lon="3.63718">
        <ele>226</ele>
        <time>2019-04-03T11:37:51Z</time>
      </trkpt>
      <trkpt lat="47.54364" lon="3.63717">
        <ele>226</ele>
        <time>2019-04-03T11:37:55Z</time>
      </trkpt>
      <trkpt lat="47.54359" lon="3.63716">
        <ele>226</ele>
        <time>2019-04-03T11:37:59Z</time>
      </trkpt>
      <trkpt lat="47.54354" lon="3.63715">
        <ele>225</ele>
        <time>2019-04-03T11:38:05Z</time>
      </trkpt>
      <trkpt lat="47.54348" lon="3.63712">
        <ele>226</ele>
        <time>2019-04-03T11:38:10Z</time>
      </trkpt>
      <trkpt lat="47.54343" lon="3.63711">
        <ele>227</ele>
        <time>2019-04-03T11:38:14Z</time>
      </trkpt>
      <trkpt lat="47.54339" lon="3.63709">
        <ele>227</ele>
        <time>2019-04-03T11:38:17Z</time>
      </trkpt>
      <trkpt lat="47.54336" lon="3.63708">
        <ele>227</ele>
        <time>2019-04-03T11:38:19Z</time>
      </trkpt>
      <trkpt lat="47.54331" lon="3.63708">
        <ele>225</ele>
        <time>2019-04-03T11:38:24Z</time>
      </trkpt>
      <trkpt lat="47.54326" lon="3.63706">
        <ele>225</ele>
        <time>2019-04-03T11:38:28Z</time>
      </trkpt>
      <trkpt lat="47.54321" lon="3.63708">
        <ele>226</ele>
        <time>2019-04-03T11:38:32Z</time>
      </trkpt>
      <trkpt lat="47.54318" lon="3.63709">
        <ele>226</ele>
        <time>2019-04-03T11:38:34Z</time>
      </trkpt>
      <trkpt lat="47.54312" lon="3.63709">
        <ele>225</ele>
        <time>2019-04-03T11:38:39Z</time>
      </trkpt>
      <trkpt lat="47.5431" lon="3.6371">
        <ele>225</ele>
        <time>2019-04-03T11:38:41Z</time>
      </trkpt>
      <trkpt lat="47.54304" lon="3.63711">
        <ele>226</ele>
        <time>2019-04-03T11:38:45Z</time>
      </trkpt>
      <trkpt lat="47.54301" lon="3.63712">
        <ele>226</ele>
        <time>2019-04-03T11:38:47Z</time>
      </trkpt>
      <trkpt lat="47.54294" lon="3.63716">
        <ele>225</ele>
        <time>2019-04-03T11:38:52Z</time>
      </trkpt>
      <trkpt lat="47.54292" lon="3.63718">
        <ele>225</ele>
        <time>2019-04-03T11:38:54Z</time>
      </trkpt>
      <trkpt lat="47.54287" lon="3.63723">
        <ele>223</ele>
        <time>2019-04-03T11:38:58Z</time>
      </trkpt>
      <trkpt lat="47.54281" lon="3.63726">
        <ele>222</ele>
        <time>2019-04-03T11:39:02Z</time>
      </trkpt>
      <trkpt lat="47.54279" lon="3.63727">
        <ele>222</ele>
        <time>2019-04-03T11:39:04Z</time>
      </trkpt>
      <trkpt lat="47.54275" lon="3.63729">
        <ele>221</ele>
        <time>2019-04-03T11:39:07Z</time>
      </trkpt>
      <trkpt lat="47.54271" lon="3.63732">
        <ele>220</ele>
        <time>2019-04-03T11:39:11Z</time>
      </trkpt>
      <trkpt lat="47.54265" lon="3.63735">
        <ele>220</ele>
        <time>2019-04-03T11:39:16Z</time>
      </trkpt>
      <trkpt lat="47.54262" lon="3.63737">
        <ele>220</ele>
        <time>2019-04-03T11:39:19Z</time>
      </trkpt>
      <trkpt lat="47.54258" lon="3.63741">
        <ele>219</ele>
        <time>2019-04-03T11:39:23Z</time>
      </trkpt>
      <trkpt lat="47.54252" lon="3.63743">
        <ele>219</ele>
        <time>2019-04-03T11:39:27Z</time>
      </trkpt>
      <trkpt lat="47.54248" lon="3.63745">
        <ele>219</ele>
        <time>2019-04-03T11:39:30Z</time>
      </trkpt>
      <trkpt lat="47.54245" lon="3.63747">
        <ele>219</ele>
        <time>2019-04-03T11:39:32Z</time>
      </trkpt>
      <trkpt lat="47.54243" lon="3.63748">
        <ele>220</ele>
        <time>2019-04-03T11:39:34Z</time>
      </trkpt>
      <trkpt lat="47.5424" lon="3.6375">
        <ele>219</ele>
        <time>2019-04-03T11:39:36Z</time>
      </trkpt>
      <trkpt lat="47.54235" lon="3.63753">
        <ele>219</ele>
        <time>2019-04-03T11:39:40Z</time>
      </trkpt>
      <trkpt lat="47.5423" lon="3.63755">
        <ele>218</ele>
        <time>2019-04-03T11:39:44Z</time>
      </trkpt>
      <trkpt lat="47.54226" lon="3.63756">
        <ele>216</ele>
        <time>2019-04-03T11:39:47Z</time>
      </trkpt>
      <trkpt lat="47.54222" lon="3.63759">
        <ele>215</ele>
        <time>2019-04-03T11:39:52Z</time>
      </trkpt>
      <trkpt lat="47.54216" lon="3.6376">
        <ele>216</ele>
        <time>2019-04-03T11:39:56Z</time>
      </trkpt>
      <trkpt lat="47.54214" lon="3.63761">
        <ele>216</ele>
        <time>2019-04-03T11:39:58Z</time>
      </trkpt>
      <trkpt lat="47.5421" lon="3.63763">
        <ele>217</ele>
        <time>2019-04-03T11:40:01Z</time>
      </trkpt>
      <trkpt lat="47.54208" lon="3.63765">
        <ele>217</ele>
        <time>2019-04-03T11:40:03Z</time>
      </trkpt>
      <trkpt lat="47.54204" lon="3.63767">
        <ele>217</ele>
        <time>2019-04-03T11:40:06Z</time>
      </trkpt>
      <trkpt lat="47.54198" lon="3.63769">
        <ele>218</ele>
        <time>2019-04-03T11:40:10Z</time>
      </trkpt>
      <trkpt lat="47.54194" lon="3.63773">
        <ele>217</ele>
        <time>2019-04-03T11:40:14Z</time>
      </trkpt>
      <trkpt lat="47.54191" lon="3.63774">
        <ele>216</ele>
        <time>2019-04-03T11:40:16Z</time>
      </trkpt>
      <trkpt lat="47.54189" lon="3.63776">
        <ele>216</ele>
        <time>2019-04-03T11:40:18Z</time>
      </trkpt>
      <trkpt lat="47.54184" lon="3.6378">
        <ele>215</ele>
        <time>2019-04-03T11:40:22Z</time>
      </trkpt>
      <trkpt lat="47.54182" lon="3.63782">
        <ele>216</ele>
        <time>2019-04-03T11:40:25Z</time>
      </trkpt>
      <trkpt lat="47.54176" lon="3.63784">
        <ele>215</ele>
        <time>2019-04-03T11:40:30Z</time>
      </trkpt>
      <trkpt lat="47.54171" lon="3.63785">
        <ele>214</ele>
        <time>2019-04-03T11:40:34Z</time>
      </trkpt>
      <trkpt lat="47.54167" lon="3.6379">
        <ele>214</ele>
        <time>2019-04-03T11:40:38Z</time>
      </trkpt>
      <trkpt lat="47.54161" lon="3.63792">
        <ele>212</ele>
        <time>2019-04-03T11:40:43Z</time>
      </trkpt>
      <trkpt lat="47.54156" lon="3.63795">
        <ele>212</ele>
        <time>2019-04-03T11:40:47Z</time>
      </trkpt>
      <trkpt lat="47.54152" lon="3.63798">
        <ele>212</ele>
        <time>2019-04-03T11:40:50Z</time>
      </trkpt>
      <trkpt lat="47.54147" lon="3.638">
        <ele>211</ele>
        <time>2019-04-03T11:40:54Z</time>
      </trkpt>
      <trkpt lat="47.54143" lon="3.63805">
        <ele>210</ele>
        <time>2019-04-03T11:40:58Z</time>
      </trkpt>
      <trkpt lat="47.5414" lon="3.63809">
        <ele>210</ele>
        <time>2019-04-03T11:41:01Z</time>
      </trkpt>
      <trkpt lat="47.54135" lon="3.63813">
        <ele>210</ele>
        <time>2019-04-03T11:41:06Z</time>
      </trkpt>
      <trkpt lat="47.54132" lon="3.63815">
        <ele>210</ele>
        <time>2019-04-03T11:41:09Z</time>
      </trkpt>
      <trkpt lat="47.54127" lon="3.63817">
        <ele>209</ele>
        <time>2019-04-03T11:41:13Z</time>
      </trkpt>
      <trkpt lat="47.54124" lon="3.63819">
        <ele>209</ele>
        <time>2019-04-03T11:41:16Z</time>
      </trkpt>
      <trkpt lat="47.54118" lon="3.63819">
        <ele>209</ele>
        <time>2019-04-03T11:41:20Z</time>
      </trkpt>
      <trkpt lat="47.54115" lon="3.6382">
        <ele>208</ele>
        <time>2019-04-03T11:41:22Z</time>
      </trkpt>
      <trkpt lat="47.54109" lon="3.63822">
        <ele>210</ele>
        <time>2019-04-03T11:41:28Z</time>
      </trkpt>
      <trkpt lat="47.54107" lon="3.63823">
        <ele>210</ele>
        <time>2019-04-03T11:41:30Z</time>
      </trkpt>
      <trkpt lat="47.54103" lon="3.63826">
        <ele>209</ele>
        <time>2019-04-03T11:41:34Z</time>
      </trkpt>
      <trkpt lat="47.54098" lon="3.63828">
        <ele>208</ele>
        <time>2019-04-03T11:41:37Z</time>
      </trkpt>
      <trkpt lat="47.54093" lon="3.6383">
        <ele>208</ele>
        <time>2019-04-03T11:41:41Z</time>
      </trkpt>
      <trkpt lat="47.5409" lon="3.63831">
        <ele>207</ele>
        <time>2019-04-03T11:41:43Z</time>
      </trkpt>
      <trkpt lat="47.54085" lon="3.63832">
        <ele>208</ele>
        <time>2019-04-03T11:41:46Z</time>
      </trkpt>
      <trkpt lat="47.5408" lon="3.63835">
        <ele>207</ele>
        <time>2019-04-03T11:41:51Z</time>
      </trkpt>
      <trkpt lat="47.54077" lon="3.63836">
        <ele>206</ele>
        <time>2019-04-03T11:41:53Z</time>
      </trkpt>
      <trkpt lat="47.54073" lon="3.63839">
        <ele>205</ele>
        <time>2019-04-03T11:41:56Z</time>
      </trkpt>
      <trkpt lat="47.54069" lon="3.63841">
        <ele>205</ele>
        <time>2019-04-03T11:41:59Z</time>
      </trkpt>
      <trkpt lat="47.54063" lon="3.63843">
        <ele>205</ele>
        <time>2019-04-03T11:42:03Z</time>
      </trkpt>
      <trkpt lat="47.54061" lon="3.63844">
        <ele>205</ele>
        <time>2019-04-03T11:42:05Z</time>
      </trkpt>
      <trkpt lat="47.54056" lon="3.63848">
        <ele>203</ele>
        <time>2019-04-03T11:42:09Z</time>
      </trkpt>
      <trkpt lat="47.54053" lon="3.63851">
        <ele>203</ele>
        <time>2019-04-03T11:42:12Z</time>
      </trkpt>
      <trkpt lat="47.54049" lon="3.63853">
        <ele>203</ele>
        <time>2019-04-03T11:42:15Z</time>
      </trkpt>
      <trkpt lat="47.54047" lon="3.63854">
        <ele>203</ele>
        <time>2019-04-03T11:42:18Z</time>
      </trkpt>
      <trkpt lat="47.54043" lon="3.63855">
        <ele>203</ele>
        <time>2019-04-03T11:42:20Z</time>
      </trkpt>
      <trkpt lat="47.54038" lon="3.63857">
        <ele>202</ele>
        <time>2019-04-03T11:42:25Z</time>
      </trkpt>
      <trkpt lat="47.54034" lon="3.63859">
        <ele>200</ele>
        <time>2019-04-03T11:42:30Z</time>
      </trkpt>
      <trkpt lat="47.54028" lon="3.6386">
        <ele>198</ele>
        <time>2019-04-03T11:42:34Z</time>
      </trkpt>
      <trkpt lat="47.54024" lon="3.6386">
        <ele>197</ele>
        <time>2019-04-03T11:42:37Z</time>
      </trkpt>
      <trkpt lat="47.54019" lon="3.63859">
        <ele>196</ele>
        <time>2019-04-03T11:42:41Z</time>
      </trkpt>
      <trkpt lat="47.54015" lon="3.63857">
        <ele>196</ele>
        <time>2019-04-03T11:42:45Z</time>
      </trkpt>
      <trkpt lat="47.5401" lon="3.63859">
        <ele>195</ele>
        <time>2019-04-03T11:42:49Z</time>
      </trkpt>
      <trkpt lat="47.54005" lon="3.63858">
        <ele>194</ele>
        <time>2019-04-03T11:42:53Z</time>
      </trkpt>
      <trkpt lat="47.54002" lon="3.63857">
        <ele>194</ele>
        <time>2019-04-03T11:42:56Z</time>
      </trkpt>
      <trkpt lat="47.54" lon="3.63857">
        <ele>193</ele>
        <time>2019-04-03T11:42:58Z</time>
      </trkpt>
      <trkpt lat="47.53994" lon="3.63857">
        <ele>192</ele>
        <time>2019-04-03T11:43:02Z</time>
      </trkpt>
      <trkpt lat="47.53992" lon="3.63856">
        <ele>192</ele>
        <time>2019-04-03T11:43:04Z</time>
      </trkpt>
      <trkpt lat="47.53986" lon="3.63856">
        <ele>191</ele>
        <time>2019-04-03T11:43:07Z</time>
      </trkpt>
      <trkpt lat="47.53982" lon="3.63854">
        <ele>191</ele>
        <time>2019-04-03T11:43:11Z</time>
      </trkpt>
      <trkpt lat="47.53979" lon="3.63853">
        <ele>191</ele>
        <time>2019-04-03T11:43:13Z</time>
      </trkpt>
      <trkpt lat="47.53975" lon="3.63853">
        <ele>191</ele>
        <time>2019-04-03T11:43:17Z</time>
      </trkpt>
      <trkpt lat="47.5397" lon="3.63851">
        <ele>191</ele>
        <time>2019-04-03T11:43:21Z</time>
      </trkpt>
      <trkpt lat="47.53967" lon="3.6385">
        <ele>192</ele>
        <time>2019-04-03T11:43:23Z</time>
      </trkpt>
      <trkpt lat="47.53962" lon="3.63846">
        <ele>191</ele>
        <time>2019-04-03T11:43:27Z</time>
      </trkpt>
      <trkpt lat="47.53958" lon="3.63842">
        <ele>191</ele>
        <time>2019-04-03T11:43:30Z</time>
      </trkpt>
      <trkpt lat="47.53954" lon="3.63835">
        <ele>191</ele>
        <time>2019-04-03T11:43:35Z</time>
      </trkpt>
      <trkpt lat="47.5395" lon="3.6383">
        <ele>192</ele>
        <time>2019-04-03T11:43:39Z</time>
      </trkpt>
      <trkpt lat="47.53948" lon="3.63827">
        <ele>191</ele>
        <time>2019-04-03T11:43:41Z</time>
      </trkpt>
      <trkpt lat="47.53947" lon="3.63824">
        <ele>191</ele>
        <time>2019-04-03T11:43:43Z</time>
      </trkpt>
      <trkpt lat="47.53942" lon="3.63819">
        <ele>190</ele>
        <time>2019-04-03T11:43:48Z</time>
      </trkpt>
      <trkpt lat="47.5394" lon="3.63816">
        <ele>189</ele>
        <time>2019-04-03T11:43:50Z</time>
      </trkpt>
      <trkpt lat="47.53936" lon="3.63811">
        <ele>189</ele>
        <time>2019-04-03T11:43:54Z</time>
      </trkpt>
      <trkpt lat="47.53933" lon="3.63805">
        <ele>188</ele>
        <time>2019-04-03T11:43:57Z</time>
      </trkpt>
      <trkpt lat="47.53929" lon="3.638">
        <ele>188</ele>
        <time>2019-04-03T11:44:01Z</time>
      </trkpt>
      <trkpt lat="47.53927" lon="3.63797">
        <ele>187</ele>
        <time>2019-04-03T11:44:05Z</time>
      </trkpt>
      <trkpt lat="47.53925" lon="3.63793">
        <ele>188</ele>
        <time>2019-04-03T11:44:08Z</time>
      </trkpt>
      <trkpt lat="47.5392" lon="3.63787">
        <ele>189</ele>
        <time>2019-04-03T11:44:11Z</time>
      </trkpt>
      <trkpt lat="47.53918" lon="3.63784">
        <ele>189</ele>
        <time>2019-04-03T11:44:13Z</time>
      </trkpt>
      <trkpt lat="47.53914" lon="3.6378">
        <ele>189</ele>
        <time>2019-04-03T11:44:17Z</time>
      </trkpt>
      <trkpt lat="47.53912" lon="3.63777">
        <ele>190</ele>
        <time>2019-04-03T11:44:19Z</time>
      </trkpt>
      <trkpt lat="47.53909" lon="3.63773">
        <ele>190</ele>
        <time>2019-04-03T11:44:21Z</time>
      </trkpt>
      <trkpt lat="47.53906" lon="3.63771">
        <ele>190</ele>
        <time>2019-04-03T11:44:23Z</time>
      </trkpt>
      <trkpt lat="47.53904" lon="3.63768">
        <ele>190</ele>
        <time>2019-04-03T11:44:25Z</time>
      </trkpt>
      <trkpt lat="47.53898" lon="3.63763">
        <ele>188</ele>
        <time>2019-04-03T11:44:31Z</time>
      </trkpt>
      <trkpt lat="47.53894" lon="3.6376">
        <ele>187</ele>
        <time>2019-04-03T11:44:35Z</time>
      </trkpt>
      <trkpt lat="47.5389" lon="3.63758">
        <ele>188</ele>
        <time>2019-04-03T11:44:37Z</time>
      </trkpt>
      <trkpt lat="47.53886" lon="3.63753">
        <ele>188</ele>
        <time>2019-04-03T11:44:42Z</time>
      </trkpt>
      <trkpt lat="47.53882" lon="3.63747">
        <ele>189</ele>
        <time>2019-04-03T11:44:46Z</time>
      </trkpt>
      <trkpt lat="47.5388" lon="3.63743">
        <ele>189</ele>
        <time>2019-04-03T11:44:48Z</time>
      </trkpt>
      <trkpt lat="47.53876" lon="3.63738">
        <ele>190</ele>
        <time>2019-04-03T11:44:53Z</time>
      </trkpt>
      <trkpt lat="47.53871" lon="3.63735">
        <ele>191</ele>
        <time>2019-04-03T11:44:58Z</time>
      </trkpt>
      <trkpt lat="47.53867" lon="3.63729">
        <ele>192</ele>
        <time>2019-04-03T11:45:03Z</time>
      </trkpt>
      <trkpt lat="47.53864" lon="3.63725">
        <ele>192</ele>
        <time>2019-04-03T11:45:07Z</time>
      </trkpt>
      <trkpt lat="47.53864" lon="3.63725">
        <ele>192</ele>
        <time>2019-04-03T11:45:16Z</time>
      </trkpt>
      <trkpt lat="47.53864" lon="3.63725">
        <ele>192</ele>
        <time>2019-04-03T11:45:17Z</time>
      </trkpt>
      <trkpt lat="47.53873" lon="3.63738">
        <ele>192</ele>
        <time>2019-04-03T11:45:21Z</time>
      </trkpt>
      <trkpt lat="47.53874" lon="3.63741">
        <ele>191</ele>
        <time>2019-04-03T11:45:23Z</time>
      </trkpt>
      <trkpt lat="47.53877" lon="3.63745">
        <ele>191</ele>
        <time>2019-04-03T11:45:26Z</time>
      </trkpt>
      <trkpt lat="47.53881" lon="3.63751">
        <ele>191</ele>
        <time>2019-04-03T11:45:31Z</time>
      </trkpt>
      <trkpt lat="47.53885" lon="3.63756">
        <ele>190</ele>
        <time>2019-04-03T11:45:34Z</time>
      </trkpt>
      <trkpt lat="47.53886" lon="3.63758">
        <ele>191</ele>
        <time>2019-04-03T11:45:35Z</time>
      </trkpt>
      <trkpt lat="47.5389" lon="3.63764">
        <ele>191</ele>
        <time>2019-04-03T11:45:38Z</time>
      </trkpt>
      <trkpt lat="47.53895" lon="3.63767">
        <ele>191</ele>
        <time>2019-04-03T11:45:42Z</time>
      </trkpt>
      <trkpt lat="47.53898" lon="3.63772">
        <ele>191</ele>
        <time>2019-04-03T11:45:46Z</time>
      </trkpt>
      <trkpt lat="47.53902" lon="3.63775">
        <ele>191</ele>
        <time>2019-04-03T11:45:50Z</time>
      </trkpt>
      <trkpt lat="47.53905" lon="3.63777">
        <ele>190</ele>
        <time>2019-04-03T11:45:52Z</time>
      </trkpt>
      <trkpt lat="47.53909" lon="3.63781">
        <ele>190</ele>
        <time>2019-04-03T11:45:56Z</time>
      </trkpt>
      <trkpt lat="47.53913" lon="3.63785">
        <ele>189</ele>
        <time>2019-04-03T11:46:01Z</time>
      </trkpt>
      <trkpt lat="47.53917" lon="3.63791">
        <ele>189</ele>
        <time>2019-04-03T11:46:05Z</time>
      </trkpt>
      <trkpt lat="47.5392" lon="3.63795">
        <ele>189</ele>
        <time>2019-04-03T11:46:10Z</time>
      </trkpt>
      <trkpt lat="47.53924" lon="3.63801">
        <ele>190</ele>
        <time>2019-04-03T11:46:15Z</time>
      </trkpt>
      <trkpt lat="47.53927" lon="3.63807">
        <ele>190</ele>
        <time>2019-04-03T11:46:19Z</time>
      </trkpt>
      <trkpt lat="47.53929" lon="3.63811">
        <ele>190</ele>
        <time>2019-04-03T11:46:21Z</time>
      </trkpt>
      <trkpt lat="47.53931" lon="3.63814">
        <ele>190</ele>
        <time>2019-04-03T11:46:23Z</time>
      </trkpt>
      <trkpt lat="47.53934" lon="3.63821">
        <ele>190</ele>
        <time>2019-04-03T11:46:27Z</time>
      </trkpt>
      <trkpt lat="47.53937" lon="3.63827">
        <ele>191</ele>
        <time>2019-04-03T11:46:32Z</time>
      </trkpt>
      <trkpt lat="47.53941" lon="3.63831">
        <ele>190</ele>
        <time>2019-04-03T11:46:34Z</time>
      </trkpt>
      <trkpt lat="47.53943" lon="3.63833">
        <ele>189</ele>
        <time>2019-04-03T11:46:36Z</time>
      </trkpt>
      <trkpt lat="47.53947" lon="3.63843">
        <ele>189</ele>
        <time>2019-04-03T11:46:42Z</time>
      </trkpt>
      <trkpt lat="47.53951" lon="3.63848">
        <ele>190</ele>
        <time>2019-04-03T11:46:47Z</time>
      </trkpt>
      <trkpt lat="47.53954" lon="3.63852">
        <ele>190</ele>
        <time>2019-04-03T11:46:52Z</time>
      </trkpt>
      <trkpt lat="47.5396" lon="3.6386">
        <ele>190</ele>
        <time>2019-04-03T11:46:57Z</time>
      </trkpt>
      <trkpt lat="47.53964" lon="3.63862">
        <ele>190</ele>
        <time>2019-04-03T11:47:02Z</time>
      </trkpt>
      <trkpt lat="47.53969" lon="3.63861">
        <ele>188</ele>
        <time>2019-04-03T11:47:11Z</time>
      </trkpt>
      <trkpt lat="47.53969" lon="3.63861">
        <ele>188</ele>
        <time>2019-04-03T11:50:16Z</time>
      </trkpt>
      <trkpt lat="47.5396" lon="3.63875">
        <ele>191</ele>
        <time>2019-04-03T11:50:17Z</time>
      </trkpt>
      <trkpt lat="47.53957" lon="3.63881">
        <ele>191</ele>
        <time>2019-04-03T11:50:20Z</time>
      </trkpt>
      <trkpt lat="47.53953" lon="3.63886">
        <ele>190</ele>
        <time>2019-04-03T11:50:25Z</time>
      </trkpt>
      <trkpt lat="47.53949" lon="3.6389">
        <ele>191</ele>
        <time>2019-04-03T11:50:29Z</time>
      </trkpt>
      <trkpt lat="47.53945" lon="3.63893">
        <ele>192</ele>
        <time>2019-04-03T11:50:32Z</time>
      </trkpt>
      <trkpt lat="47.53941" lon="3.63898">
        <ele>192</ele>
        <time>2019-04-03T11:50:37Z</time>
      </trkpt>
      <trkpt lat="47.53937" lon="3.63901">
        <ele>193</ele>
        <time>2019-04-03T11:50:42Z</time>
      </trkpt>
      <trkpt lat="47.53933" lon="3.63906">
        <ele>193</ele>
        <time>2019-04-03T11:50:46Z</time>
      </trkpt>
      <trkpt lat="47.53928" lon="3.6391">
        <ele>194</ele>
        <time>2019-04-03T11:50:50Z</time>
      </trkpt>
      <trkpt lat="47.53924" lon="3.63915">
        <ele>195</ele>
        <time>2019-04-03T11:50:53Z</time>
      </trkpt>
      <trkpt lat="47.5392" lon="3.63921">
        <ele>193</ele>
        <time>2019-04-03T11:50:58Z</time>
      </trkpt>
      <trkpt lat="47.53917" lon="3.63924">
        <ele>194</ele>
        <time>2019-04-03T11:51:01Z</time>
      </trkpt>
      <trkpt lat="47.53915" lon="3.63927">
        <ele>194</ele>
        <time>2019-04-03T11:51:03Z</time>
      </trkpt>
      <trkpt lat="47.53911" lon="3.63931">
        <ele>196</ele>
        <time>2019-04-03T11:51:07Z</time>
      </trkpt>
      <trkpt lat="47.53908" lon="3.63933">
        <ele>194</ele>
        <time>2019-04-03T11:51:10Z</time>
      </trkpt>
      <trkpt lat="47.53903" lon="3.63939">
        <ele>194</ele>
        <time>2019-04-03T11:51:15Z</time>
      </trkpt>
      <trkpt lat="47.539" lon="3.63942">
        <ele>194</ele>
        <time>2019-04-03T11:51:17Z</time>
      </trkpt>
      <trkpt lat="47.53897" lon="3.63946">
        <ele>194</ele>
        <time>2019-04-03T11:51:20Z</time>
      </trkpt>
      <trkpt lat="47.53891" lon="3.63952">
        <ele>194</ele>
        <time>2019-04-03T11:51:25Z</time>
      </trkpt>
      <trkpt lat="47.53887" lon="3.63955">
        <ele>195</ele>
        <time>2019-04-03T11:51:28Z</time>
      </trkpt>
      <trkpt lat="47.53885" lon="3.63958">
        <ele>194</ele>
        <time>2019-04-03T11:51:30Z</time>
      </trkpt>
      <trkpt lat="47.5388" lon="3.63964">
        <ele>194</ele>
        <time>2019-04-03T11:51:35Z</time>
      </trkpt>
      <trkpt lat="47.53876" lon="3.63968">
        <ele>194</ele>
        <time>2019-04-03T11:51:39Z</time>
      </trkpt>
      <trkpt lat="47.53873" lon="3.6397">
        <ele>195</ele>
        <time>2019-04-03T11:51:41Z</time>
      </trkpt>
      <trkpt lat="47.53873" lon="3.63977">
        <ele>191</ele>
        <time>2019-04-03T11:51:46Z</time>
      </trkpt>
      <trkpt lat="47.53865" lon="3.6397">
        <ele>192</ele>
        <time>2019-04-03T11:51:55Z</time>
      </trkpt>
      <trkpt lat="47.53861" lon="3.63965">
        <ele>193</ele>
        <time>2019-04-03T11:52:00Z</time>
      </trkpt>
      <trkpt lat="47.53859" lon="3.63962">
        <ele>193</ele>
        <time>2019-04-03T11:52:02Z</time>
      </trkpt>
      <trkpt lat="47.53855" lon="3.63958">
        <ele>193</ele>
        <time>2019-04-03T11:52:05Z</time>
      </trkpt>
      <trkpt lat="47.53853" lon="3.63955">
        <ele>193</ele>
        <time>2019-04-03T11:52:07Z</time>
      </trkpt>
      <trkpt lat="47.53849" lon="3.6395">
        <ele>194</ele>
        <time>2019-04-03T11:52:12Z</time>
      </trkpt>
      <trkpt lat="47.53847" lon="3.63947">
        <ele>193</ele>
        <time>2019-04-03T11:52:14Z</time>
      </trkpt>
      <trkpt lat="47.53843" lon="3.6394">
        <ele>194</ele>
        <time>2019-04-03T11:52:21Z</time>
      </trkpt>
      <trkpt lat="47.53839" lon="3.63935">
        <ele>195</ele>
        <time>2019-04-03T11:52:26Z</time>
      </trkpt>
      <trkpt lat="47.53836" lon="3.63932">
        <ele>194</ele>
        <time>2019-04-03T11:52:29Z</time>
      </trkpt>
      <trkpt lat="47.53831" lon="3.63928">
        <ele>195</ele>
        <time>2019-04-03T11:52:33Z</time>
      </trkpt>
      <trkpt lat="47.53828" lon="3.63922">
        <ele>194</ele>
        <time>2019-04-03T11:52:38Z</time>
      </trkpt>
      <trkpt lat="47.53824" lon="3.63917">
        <ele>196</ele>
        <time>2019-04-03T11:52:42Z</time>
      </trkpt>
      <trkpt lat="47.53822" lon="3.63915">
        <ele>195</ele>
        <time>2019-04-03T11:52:45Z</time>
      </trkpt>
      <trkpt lat="47.53818" lon="3.63908">
        <ele>198</ele>
        <time>2019-04-03T11:52:51Z</time>
      </trkpt>
      <trkpt lat="47.53814" lon="3.63905">
        <ele>199</ele>
        <time>2019-04-03T11:52:57Z</time>
      </trkpt>
      <trkpt lat="47.53811" lon="3.63899">
        <ele>200</ele>
        <time>2019-04-03T11:53:04Z</time>
      </trkpt>
      <trkpt lat="47.53809" lon="3.63896">
        <ele>200</ele>
        <time>2019-04-03T11:53:06Z</time>
      </trkpt>
      <trkpt lat="47.53808" lon="3.63893">
        <ele>199</ele>
        <time>2019-04-03T11:53:09Z</time>
      </trkpt>
      <trkpt lat="47.53804" lon="3.63888">
        <ele>199</ele>
        <time>2019-04-03T11:53:14Z</time>
      </trkpt>
      <trkpt lat="47.53802" lon="3.63886">
        <ele>199</ele>
        <time>2019-04-03T11:53:16Z</time>
      </trkpt>
      <trkpt lat="47.53798" lon="3.6388">
        <ele>200</ele>
        <time>2019-04-03T11:53:21Z</time>
      </trkpt>
      <trkpt lat="47.53795" lon="3.63875">
        <ele>200</ele>
        <time>2019-04-03T11:53:25Z</time>
      </trkpt>
      <trkpt lat="47.53793" lon="3.63872">
        <ele>200</ele>
        <time>2019-04-03T11:53:27Z</time>
      </trkpt>
      <trkpt lat="47.53791" lon="3.63868">
        <ele>200</ele>
        <time>2019-04-03T11:53:30Z</time>
      </trkpt>
      <trkpt lat="47.5379" lon="3.63865">
        <ele>201</ele>
        <time>2019-04-03T11:53:33Z</time>
      </trkpt>
      <trkpt lat="47.53786" lon="3.6386">
        <ele>202</ele>
        <time>2019-04-03T11:53:37Z</time>
      </trkpt>
      <trkpt lat="47.53784" lon="3.63857">
        <ele>202</ele>
        <time>2019-04-03T11:53:40Z</time>
      </trkpt>
      <trkpt lat="47.53782" lon="3.63854">
        <ele>202</ele>
        <time>2019-04-03T11:53:43Z</time>
      </trkpt>
      <trkpt lat="47.53779" lon="3.63851">
        <ele>203</ele>
        <time>2019-04-03T11:53:46Z</time>
      </trkpt>
      <trkpt lat="47.53776" lon="3.63847">
        <ele>202</ele>
        <time>2019-04-03T11:53:49Z</time>
      </trkpt>
      <trkpt lat="47.53773" lon="3.63844">
        <ele>202</ele>
        <time>2019-04-03T11:53:52Z</time>
      </trkpt>
      <trkpt lat="47.53771" lon="3.63841">
        <ele>202</ele>
        <time>2019-04-03T11:53:54Z</time>
      </trkpt>
      <trkpt lat="47.53768" lon="3.63837">
        <ele>202</ele>
        <time>2019-04-03T11:53:59Z</time>
      </trkpt>
      <trkpt lat="47.53764" lon="3.63831">
        <ele>203</ele>
        <time>2019-04-03T11:54:03Z</time>
      </trkpt>
      <trkpt lat="47.53761" lon="3.63828">
        <ele>201</ele>
        <time>2019-04-03T11:54:07Z</time>
      </trkpt>
      <trkpt lat="47.53759" lon="3.63824">
        <ele>201</ele>
        <time>2019-04-03T11:54:10Z</time>
      </trkpt>
      <trkpt lat="47.53756" lon="3.63821">
        <ele>202</ele>
        <time>2019-04-03T11:54:13Z</time>
      </trkpt>
      <trkpt lat="47.53753" lon="3.63817">
        <ele>202</ele>
        <time>2019-04-03T11:54:16Z</time>
      </trkpt>
      <trkpt lat="47.53749" lon="3.63813">
        <ele>203</ele>
        <time>2019-04-03T11:54:20Z</time>
      </trkpt>
      <trkpt lat="47.53746" lon="3.63808">
        <ele>202</ele>
        <time>2019-04-03T11:54:24Z</time>
      </trkpt>
      <trkpt lat="47.53743" lon="3.63805">
        <ele>202</ele>
        <time>2019-04-03T11:54:27Z</time>
      </trkpt>
      <trkpt lat="47.53741" lon="3.63802">
        <ele>202</ele>
        <time>2019-04-03T11:54:29Z</time>
      </trkpt>
      <trkpt lat="47.53739" lon="3.638">
        <ele>202</ele>
        <time>2019-04-03T11:54:31Z</time>
      </trkpt>
      <trkpt lat="47.53735" lon="3.63794">
        <ele>202</ele>
        <time>2019-04-03T11:54:36Z</time>
      </trkpt>
      <trkpt lat="47.53732" lon="3.63791">
        <ele>203</ele>
        <time>2019-04-03T11:54:39Z</time>
      </trkpt>
      <trkpt lat="47.5373" lon="3.63788">
        <ele>203</ele>
        <time>2019-04-03T11:54:42Z</time>
      </trkpt>
      <trkpt lat="47.53727" lon="3.63784">
        <ele>204</ele>
        <time>2019-04-03T11:54:45Z</time>
      </trkpt>
      <trkpt lat="47.53725" lon="3.63781">
        <ele>203</ele>
        <time>2019-04-03T11:54:47Z</time>
      </trkpt>
      <trkpt lat="47.53723" lon="3.63778">
        <ele>205</ele>
        <time>2019-04-03T11:54:49Z</time>
      </trkpt>
      <trkpt lat="47.53721" lon="3.63776">
        <ele>204</ele>
        <time>2019-04-03T11:54:51Z</time>
      </trkpt>
      <trkpt lat="47.53719" lon="3.63774">
        <ele>204</ele>
        <time>2019-04-03T11:54:54Z</time>
      </trkpt>
      <trkpt lat="47.53717" lon="3.63771">
        <ele>204</ele>
        <time>2019-04-03T11:54:56Z</time>
      </trkpt>
      <trkpt lat="47.53715" lon="3.63769">
        <ele>203</ele>
        <time>2019-04-03T11:54:58Z</time>
      </trkpt>
      <trkpt lat="47.53712" lon="3.63763">
        <ele>203</ele>
        <time>2019-04-03T11:55:03Z</time>
      </trkpt>
      <trkpt lat="47.53708" lon="3.63758">
        <ele>203</ele>
        <time>2019-04-03T11:55:07Z</time>
      </trkpt>
      <trkpt lat="47.53706" lon="3.63756">
        <ele>204</ele>
        <time>2019-04-03T11:55:09Z</time>
      </trkpt>
      <trkpt lat="47.53702" lon="3.63751">
        <ele>204</ele>
        <time>2019-04-03T11:55:13Z</time>
      </trkpt>
      <trkpt lat="47.53699" lon="3.63747">
        <ele>204</ele>
        <time>2019-04-03T11:55:17Z</time>
      </trkpt>
      <trkpt lat="47.53695" lon="3.63742">
        <ele>204</ele>
        <time>2019-04-03T11:55:21Z</time>
      </trkpt>
      <trkpt lat="47.53692" lon="3.63737">
        <ele>203</ele>
        <time>2019-04-03T11:55:25Z</time>
      </trkpt>
      <trkpt lat="47.53689" lon="3.63733">
        <ele>204</ele>
        <time>2019-04-03T11:55:28Z</time>
      </trkpt>
      <trkpt lat="47.53687" lon="3.6373">
        <ele>205</ele>
        <time>2019-04-03T11:55:31Z</time>
      </trkpt>
      <trkpt lat="47.53682" lon="3.63726">
        <ele>205</ele>
        <time>2019-04-03T11:55:36Z</time>
      </trkpt>
      <trkpt lat="47.5368" lon="3.63724">
        <ele>206</ele>
        <time>2019-04-03T11:55:38Z</time>
      </trkpt>
      <trkpt lat="47.53674" lon="3.63723">
        <ele>206</ele>
        <time>2019-04-03T11:55:42Z</time>
      </trkpt>
      <trkpt lat="47.5367" lon="3.63728">
        <ele>206</ele>
        <time>2019-04-03T11:55:47Z</time>
      </trkpt>
      <trkpt lat="47.53667" lon="3.63731">
        <ele>206</ele>
        <time>2019-04-03T11:55:51Z</time>
      </trkpt>
      <trkpt lat="47.53663" lon="3.63737">
        <ele>207</ele>
        <time>2019-04-03T11:55:56Z</time>
      </trkpt>
      <trkpt lat="47.5366" lon="3.63743">
        <ele>208</ele>
        <time>2019-04-03T11:56:01Z</time>
      </trkpt>
      <trkpt lat="47.53659" lon="3.63746">
        <ele>208</ele>
        <time>2019-04-03T11:56:03Z</time>
      </trkpt>
      <trkpt lat="47.53657" lon="3.6375">
        <ele>208</ele>
        <time>2019-04-03T11:56:06Z</time>
      </trkpt>
      <trkpt lat="47.53654" lon="3.63755">
        <ele>209</ele>
        <time>2019-04-03T11:56:11Z</time>
      </trkpt>
      <trkpt lat="47.5365" lon="3.63761">
        <ele>209</ele>
        <time>2019-04-03T11:56:16Z</time>
      </trkpt>
      <trkpt lat="47.53647" lon="3.63768">
        <ele>210</ele>
        <time>2019-04-03T11:56:23Z</time>
      </trkpt>
      <trkpt lat="47.53645" lon="3.63775">
        <ele>211</ele>
        <time>2019-04-03T11:56:28Z</time>
      </trkpt>
      <trkpt lat="47.53642" lon="3.63781">
        <ele>212</ele>
        <time>2019-04-03T11:56:32Z</time>
      </trkpt>
      <trkpt lat="47.53641" lon="3.63784">
        <ele>212</ele>
        <time>2019-04-03T11:56:34Z</time>
      </trkpt>
      <trkpt lat="47.53637" lon="3.63789">
        <ele>212</ele>
        <time>2019-04-03T11:56:39Z</time>
      </trkpt>
      <trkpt lat="47.53632" lon="3.6379">
        <ele>214</ele>
        <time>2019-04-03T11:56:43Z</time>
      </trkpt>
      <trkpt lat="47.53628" lon="3.63787">
        <ele>214</ele>
        <time>2019-04-03T11:56:49Z</time>
      </trkpt>
      <trkpt lat="47.53626" lon="3.63785">
        <ele>214</ele>
        <time>2019-04-03T11:56:51Z</time>
      </trkpt>
      <trkpt lat="47.53623" lon="3.6378">
        <ele>214</ele>
        <time>2019-04-03T11:56:55Z</time>
      </trkpt>
      <trkpt lat="47.53621" lon="3.63778">
        <ele>214</ele>
        <time>2019-04-03T11:56:57Z</time>
      </trkpt>
      <trkpt lat="47.53617" lon="3.63774">
        <ele>213</ele>
        <time>2019-04-03T11:57:02Z</time>
      </trkpt>
      <trkpt lat="47.53612" lon="3.63771">
        <ele>213</ele>
        <time>2019-04-03T11:57:07Z</time>
      </trkpt>
      <trkpt lat="47.53609" lon="3.63766">
        <ele>214</ele>
        <time>2019-04-03T11:57:13Z</time>
      </trkpt>
      <trkpt lat="47.53603" lon="3.63761">
        <ele>215</ele>
        <time>2019-04-03T11:57:21Z</time>
      </trkpt>
      <trkpt lat="47.53598" lon="3.63756">
        <ele>215</ele>
        <time>2019-04-03T11:57:25Z</time>
      </trkpt>
      <trkpt lat="47.53596" lon="3.63754">
        <ele>215</ele>
        <time>2019-04-03T11:57:27Z</time>
      </trkpt>
      <trkpt lat="47.53594" lon="3.63752">
        <ele>214</ele>
        <time>2019-04-03T11:57:29Z</time>
      </trkpt>
      <trkpt lat="47.53592" lon="3.6375">
        <ele>214</ele>
        <time>2019-04-03T11:57:32Z</time>
      </trkpt>
      <trkpt lat="47.5359" lon="3.63748">
        <ele>214</ele>
        <time>2019-04-03T11:57:34Z</time>
      </trkpt>
      <trkpt lat="47.53585" lon="3.63745">
        <ele>214</ele>
        <time>2019-04-03T11:57:39Z</time>
      </trkpt>
      <trkpt lat="47.5358" lon="3.63743">
        <ele>213</ele>
        <time>2019-04-03T11:57:43Z</time>
      </trkpt>
      <trkpt lat="47.53575" lon="3.63743">
        <ele>212</ele>
        <time>2019-04-03T11:57:47Z</time>
      </trkpt>
      <trkpt lat="47.53571" lon="3.63741">
        <ele>212</ele>
        <time>2019-04-03T11:57:51Z</time>
      </trkpt>
      <trkpt lat="47.53568" lon="3.6374">
        <ele>212</ele>
        <time>2019-04-03T11:57:53Z</time>
      </trkpt>
      <trkpt lat="47.53566" lon="3.63738">
        <ele>212</ele>
        <time>2019-04-03T11:57:55Z</time>
      </trkpt>
      <trkpt lat="47.53561" lon="3.63737">
        <ele>212</ele>
        <time>2019-04-03T11:57:59Z</time>
      </trkpt>
      <trkpt lat="47.53556" lon="3.63734">
        <ele>212</ele>
        <time>2019-04-03T11:58:04Z</time>
      </trkpt>
      <trkpt lat="47.5355" lon="3.63732">
        <ele>211</ele>
        <time>2019-04-03T11:58:09Z</time>
      </trkpt>
      <trkpt lat="47.53546" lon="3.63731">
        <ele>211</ele>
        <time>2019-04-03T11:58:13Z</time>
      </trkpt>
      <trkpt lat="47.53543" lon="3.63729">
        <ele>210</ele>
        <time>2019-04-03T11:58:16Z</time>
      </trkpt>
      <trkpt lat="47.5354" lon="3.63727">
        <ele>210</ele>
        <time>2019-04-03T11:58:19Z</time>
      </trkpt>
      <trkpt lat="47.53533" lon="3.63725">
        <ele>211</ele>
        <time>2019-04-03T11:58:24Z</time>
      </trkpt>
      <trkpt lat="47.53528" lon="3.63723">
        <ele>211</ele>
        <time>2019-04-03T11:58:28Z</time>
      </trkpt>
      <trkpt lat="47.53525" lon="3.63722">
        <ele>211</ele>
        <time>2019-04-03T11:58:30Z</time>
      </trkpt>
      <trkpt lat="47.5352" lon="3.63721">
        <ele>212</ele>
        <time>2019-04-03T11:58:36Z</time>
      </trkpt>
      <trkpt lat="47.53517" lon="3.63721">
        <ele>213</ele>
        <time>2019-04-03T11:58:41Z</time>
      </trkpt>
      <trkpt lat="47.53514" lon="3.63717">
        <ele>212</ele>
        <time>2019-04-03T11:58:46Z</time>
      </trkpt>
      <trkpt lat="47.5351" lon="3.6371">
        <ele>212</ele>
        <time>2019-04-03T11:58:51Z</time>
      </trkpt>
      <trkpt lat="47.53509" lon="3.63707">
        <ele>212</ele>
        <time>2019-04-03T11:58:53Z</time>
      </trkpt>
      <trkpt lat="47.53507" lon="3.637">
        <ele>212</ele>
        <time>2019-04-03T11:58:57Z</time>
      </trkpt>
      <trkpt lat="47.53506" lon="3.63696">
        <ele>212</ele>
        <time>2019-04-03T11:58:59Z</time>
      </trkpt>
      <trkpt lat="47.53505" lon="3.63693">
        <ele>212</ele>
        <time>2019-04-03T11:59:00Z</time>
      </trkpt>
      <trkpt lat="47.53502" lon="3.63686">
        <ele>213</ele>
        <time>2019-04-03T11:59:06Z</time>
      </trkpt>
      <trkpt lat="47.53501" lon="3.63683">
        <ele>213</ele>
        <time>2019-04-03T11:59:08Z</time>
      </trkpt>
      <trkpt lat="47.53499" lon="3.63679">
        <ele>213</ele>
        <time>2019-04-03T11:59:11Z</time>
      </trkpt>
      <trkpt lat="47.53497" lon="3.63675">
        <ele>213</ele>
        <time>2019-04-03T11:59:13Z</time>
      </trkpt>
      <trkpt lat="47.53496" lon="3.63672">
        <ele>213</ele>
        <time>2019-04-03T11:59:15Z</time>
      </trkpt>
      <trkpt lat="47.53493" lon="3.63664">
        <ele>212</ele>
        <time>2019-04-03T11:59:20Z</time>
      </trkpt>
      <trkpt lat="47.53491" lon="3.63654">
        <ele>211</ele>
        <time>2019-04-03T11:59:26Z</time>
      </trkpt>
      <trkpt lat="47.5349" lon="3.6365">
        <ele>211</ele>
        <time>2019-04-03T11:59:28Z</time>
      </trkpt>
      <trkpt lat="47.53488" lon="3.63645">
        <ele>208</ele>
        <time>2019-04-03T11:59:33Z</time>
      </trkpt>
      <trkpt lat="47.53486" lon="3.63636">
        <ele>206</ele>
        <time>2019-04-03T11:59:38Z</time>
      </trkpt>
      <trkpt lat="47.53485" lon="3.63629">
        <ele>205</ele>
        <time>2019-04-03T11:59:44Z</time>
      </trkpt>
      <trkpt lat="47.53483" lon="3.63621">
        <ele>205</ele>
        <time>2019-04-03T11:59:48Z</time>
      </trkpt>
      <trkpt lat="47.53482" lon="3.63615">
        <ele>204</ele>
        <time>2019-04-03T11:59:52Z</time>
      </trkpt>
      <trkpt lat="47.53481" lon="3.63609">
        <ele>203</ele>
        <time>2019-04-03T11:59:55Z</time>
      </trkpt>
      <trkpt lat="47.53481" lon="3.63606">
        <ele>203</ele>
        <time>2019-04-03T11:59:58Z</time>
      </trkpt>
      <trkpt lat="47.5348" lon="3.63599">
        <ele>203</ele>
        <time>2019-04-03T12:00:02Z</time>
      </trkpt>
      <trkpt lat="47.5348" lon="3.63593">
        <ele>203</ele>
        <time>2019-04-03T12:00:05Z</time>
      </trkpt>
      <trkpt lat="47.5348" lon="3.63588">
        <ele>202</ele>
        <time>2019-04-03T12:00:08Z</time>
      </trkpt>
      <trkpt lat="47.53479" lon="3.63584">
        <ele>201</ele>
        <time>2019-04-03T12:00:11Z</time>
      </trkpt>
      <trkpt lat="47.53479" lon="3.63577">
        <ele>201</ele>
        <time>2019-04-03T12:00:15Z</time>
      </trkpt>
      <trkpt lat="47.53478" lon="3.63573">
        <ele>201</ele>
        <time>2019-04-03T12:00:18Z</time>
      </trkpt>
      <trkpt lat="47.53477" lon="3.63565">
        <ele>200</ele>
        <time>2019-04-03T12:00:23Z</time>
      </trkpt>
      <trkpt lat="47.53475" lon="3.63558">
        <ele>198</ele>
        <time>2019-04-03T12:00:28Z</time>
      </trkpt>
      <trkpt lat="47.53474" lon="3.63554">
        <ele>198</ele>
        <time>2019-04-03T12:00:30Z</time>
      </trkpt>
      <trkpt lat="47.53473" lon="3.63547">
        <ele>197</ele>
        <time>2019-04-03T12:00:34Z</time>
      </trkpt>
      <trkpt lat="47.53472" lon="3.63542">
        <ele>196</ele>
        <time>2019-04-03T12:00:37Z</time>
      </trkpt>
      <trkpt lat="47.53469" lon="3.63535">
        <ele>196</ele>
        <time>2019-04-03T12:00:42Z</time>
      </trkpt>
      <trkpt lat="47.53467" lon="3.63532">
        <ele>196</ele>
        <time>2019-04-03T12:00:45Z</time>
      </trkpt>
      <trkpt lat="47.53465" lon="3.63524">
        <ele>194</ele>
        <time>2019-04-03T12:00:50Z</time>
      </trkpt>
      <trkpt lat="47.53464" lon="3.63521">
        <ele>193</ele>
        <time>2019-04-03T12:00:52Z</time>
      </trkpt>
      <trkpt lat="47.5346" lon="3.63513">
        <ele>192</ele>
        <time>2019-04-03T12:00:57Z</time>
      </trkpt>
      <trkpt lat="47.53455" lon="3.6351">
        <ele>191</ele>
        <time>2019-04-03T12:01:00Z</time>
      </trkpt>
      <trkpt lat="47.53449" lon="3.63511">
        <ele>192</ele>
        <time>2019-04-03T12:01:05Z</time>
      </trkpt>
      <trkpt lat="47.53443" lon="3.63512">
        <ele>191</ele>
        <time>2019-04-03T12:01:09Z</time>
      </trkpt>
      <trkpt lat="47.53437" lon="3.63513">
        <ele>191</ele>
        <time>2019-04-03T12:01:12Z</time>
      </trkpt>
      <trkpt lat="47.53434" lon="3.63513">
        <ele>192</ele>
        <time>2019-04-03T12:01:14Z</time>
      </trkpt>
      <trkpt lat="47.5343" lon="3.63513">
        <ele>192</ele>
        <time>2019-04-03T12:01:18Z</time>
      </trkpt>
      <trkpt lat="47.53425" lon="3.63514">
        <ele>191</ele>
        <time>2019-04-03T12:01:22Z</time>
      </trkpt>
      <trkpt lat="47.53419" lon="3.63513">
        <ele>191</ele>
        <time>2019-04-03T12:01:28Z</time>
      </trkpt>
      <trkpt lat="47.53413" lon="3.63513">
        <ele>191</ele>
        <time>2019-04-03T12:01:33Z</time>
      </trkpt>
      <trkpt lat="47.53408" lon="3.63513">
        <ele>191</ele>
        <time>2019-04-03T12:01:36Z</time>
      </trkpt>
      <trkpt lat="47.53404" lon="3.63512">
        <ele>191</ele>
        <time>2019-04-03T12:01:40Z</time>
      </trkpt>
      <trkpt lat="47.534" lon="3.63511">
        <ele>191</ele>
        <time>2019-04-03T12:01:43Z</time>
      </trkpt>
      <trkpt lat="47.53395" lon="3.63511">
        <ele>190</ele>
        <time>2019-04-03T12:01:47Z</time>
      </trkpt>
      <trkpt lat="47.53387" lon="3.6351">
        <ele>189</ele>
        <time>2019-04-03T12:01:54Z</time>
      </trkpt>
      <trkpt lat="47.53381" lon="3.63508">
        <ele>187</ele>
        <time>2019-04-03T12:01:59Z</time>
      </trkpt>
      <trkpt lat="47.53378" lon="3.63507">
        <ele>187</ele>
        <time>2019-04-03T12:02:01Z</time>
      </trkpt>
      <trkpt lat="47.53371" lon="3.63505">
        <ele>187</ele>
        <time>2019-04-03T12:02:06Z</time>
      </trkpt>
      <trkpt lat="47.53368" lon="3.63504">
        <ele>187</ele>
        <time>2019-04-03T12:02:09Z</time>
      </trkpt>
      <trkpt lat="47.53362" lon="3.63503">
        <ele>188</ele>
        <time>2019-04-03T12:02:13Z</time>
      </trkpt>
      <trkpt lat="47.53357" lon="3.63503">
        <ele>188</ele>
        <time>2019-04-03T12:02:16Z</time>
      </trkpt>
      <trkpt lat="47.53354" lon="3.63503">
        <ele>187</ele>
        <time>2019-04-03T12:02:18Z</time>
      </trkpt>
      <trkpt lat="47.5335" lon="3.63504">
        <ele>187</ele>
        <time>2019-04-03T12:02:20Z</time>
      </trkpt>
      <trkpt lat="47.53346" lon="3.63503">
        <ele>187</ele>
        <time>2019-04-03T12:02:24Z</time>
      </trkpt>
      <trkpt lat="47.5334" lon="3.63505">
        <ele>186</ele>
        <time>2019-04-03T12:02:29Z</time>
      </trkpt>
      <trkpt lat="47.53335" lon="3.63507">
        <ele>187</ele>
        <time>2019-04-03T12:02:33Z</time>
      </trkpt>
      <trkpt lat="47.53332" lon="3.63508">
        <ele>188</ele>
        <time>2019-04-03T12:02:35Z</time>
      </trkpt>
      <trkpt lat="47.53326" lon="3.63512">
        <ele>187</ele>
        <time>2019-04-03T12:02:39Z</time>
      </trkpt>
      <trkpt lat="47.53321" lon="3.63514">
        <ele>186</ele>
        <time>2019-04-03T12:02:47Z</time>
      </trkpt>
      <trkpt lat="47.53316" lon="3.63514">
        <ele>186</ele>
        <time>2019-04-03T12:02:50Z</time>
      </trkpt>
      <trkpt lat="47.5331" lon="3.63516">
        <ele>186</ele>
        <time>2019-04-03T12:02:55Z</time>
      </trkpt>
      <trkpt lat="47.53305" lon="3.63518">
        <ele>186</ele>
        <time>2019-04-03T12:03:00Z</time>
      </trkpt>
      <trkpt lat="47.53303" lon="3.63519">
        <ele>187</ele>
        <time>2019-04-03T12:03:02Z</time>
      </trkpt>
      <trkpt lat="47.53299" lon="3.6352">
        <ele>188</ele>
        <time>2019-04-03T12:03:05Z</time>
      </trkpt>
      <trkpt lat="47.53294" lon="3.63521">
        <ele>187</ele>
        <time>2019-04-03T12:03:09Z</time>
      </trkpt>
      <trkpt lat="47.5329" lon="3.63522">
        <ele>187</ele>
        <time>2019-04-03T12:03:13Z</time>
      </trkpt>
      <trkpt lat="47.53285" lon="3.63525">
        <ele>187</ele>
        <time>2019-04-03T12:03:19Z</time>
      </trkpt>
      <trkpt lat="47.53283" lon="3.63527">
        <ele>187</ele>
        <time>2019-04-03T12:03:22Z</time>
      </trkpt>
      <trkpt lat="47.53277" lon="3.63529">
        <ele>187</ele>
        <time>2019-04-03T12:03:26Z</time>
      </trkpt>
      <trkpt lat="47.53275" lon="3.6353">
        <ele>187</ele>
        <time>2019-04-03T12:03:27Z</time>
      </trkpt>
      <trkpt lat="47.5327" lon="3.63531">
        <ele>187</ele>
        <time>2019-04-03T12:03:31Z</time>
      </trkpt>
      <trkpt lat="47.53265" lon="3.63533">
        <ele>188</ele>
        <time>2019-04-03T12:03:36Z</time>
      </trkpt>
      <trkpt lat="47.5326" lon="3.63534">
        <ele>187</ele>
        <time>2019-04-03T12:03:40Z</time>
      </trkpt>
      <trkpt lat="47.53258" lon="3.63534">
        <ele>188</ele>
        <time>2019-04-03T12:03:43Z</time>
      </trkpt>
      <trkpt lat="47.53255" lon="3.63534">
        <ele>187</ele>
        <time>2019-04-03T12:03:45Z</time>
      </trkpt>
      <trkpt lat="47.53249" lon="3.63535">
        <ele>187</ele>
        <time>2019-04-03T12:03:49Z</time>
      </trkpt>
      <trkpt lat="47.53244" lon="3.63539">
        <ele>186</ele>
        <time>2019-04-03T12:03:53Z</time>
      </trkpt>
      <trkpt lat="47.53239" lon="3.63542">
        <ele>185</ele>
        <time>2019-04-03T12:03:58Z</time>
      </trkpt>
      <trkpt lat="47.53234" lon="3.63545">
        <ele>185</ele>
        <time>2019-04-03T12:04:03Z</time>
      </trkpt>
      <trkpt lat="47.53229" lon="3.63547">
        <ele>186</ele>
        <time>2019-04-03T12:04:06Z</time>
      </trkpt>
      <trkpt lat="47.53223" lon="3.63549">
        <ele>185</ele>
        <time>2019-04-03T12:04:13Z</time>
      </trkpt>
      <trkpt lat="47.53219" lon="3.6355">
        <ele>186</ele>
        <time>2019-04-03T12:04:16Z</time>
      </trkpt>
      <trkpt lat="47.53216" lon="3.63551">
        <ele>187</ele>
        <time>2019-04-03T12:04:18Z</time>
      </trkpt>
      <trkpt lat="47.53208" lon="3.63552">
        <ele>187</ele>
        <time>2019-04-03T12:04:25Z</time>
      </trkpt>
      <trkpt lat="47.53203" lon="3.63554">
        <ele>186</ele>
        <time>2019-04-03T12:04:29Z</time>
      </trkpt>
      <trkpt lat="47.53199" lon="3.63556">
        <ele>186</ele>
        <time>2019-04-03T12:04:33Z</time>
      </trkpt>
      <trkpt lat="47.53193" lon="3.63558">
        <ele>187</ele>
        <time>2019-04-03T12:04:37Z</time>
      </trkpt>
      <trkpt lat="47.53188" lon="3.63558">
        <ele>187</ele>
        <time>2019-04-03T12:04:42Z</time>
      </trkpt>
      <trkpt lat="47.53182" lon="3.63559">
        <ele>187</ele>
        <time>2019-04-03T12:04:49Z</time>
      </trkpt>
      <trkpt lat="47.53177" lon="3.6356">
        <ele>186</ele>
        <time>2019-04-03T12:04:53Z</time>
      </trkpt>
      <trkpt lat="47.53172" lon="3.63561">
        <ele>186</ele>
        <time>2019-04-03T12:04:56Z</time>
      </trkpt>
      <trkpt lat="47.53169" lon="3.63561">
        <ele>186</ele>
        <time>2019-04-03T12:04:59Z</time>
      </trkpt>
      <trkpt lat="47.53162" lon="3.63561">
        <ele>186</ele>
        <time>2019-04-03T12:05:04Z</time>
      </trkpt>
      <trkpt lat="47.53159" lon="3.63561">
        <ele>187</ele>
        <time>2019-04-03T12:05:06Z</time>
      </trkpt>
      <trkpt lat="47.53156" lon="3.63562">
        <ele>186</ele>
        <time>2019-04-03T12:05:08Z</time>
      </trkpt>
      <trkpt lat="47.53154" lon="3.63562">
        <ele>186</ele>
        <time>2019-04-03T12:05:10Z</time>
      </trkpt>
      <trkpt lat="47.53149" lon="3.63561">
        <ele>186</ele>
        <time>2019-04-03T12:05:15Z</time>
      </trkpt>
      <trkpt lat="47.53144" lon="3.63563">
        <ele>187</ele>
        <time>2019-04-03T12:05:20Z</time>
      </trkpt>
      <trkpt lat="47.53142" lon="3.63564">
        <ele>188</ele>
        <time>2019-04-03T12:05:22Z</time>
      </trkpt>
      <trkpt lat="47.53138" lon="3.63562">
        <ele>188</ele>
        <time>2019-04-03T12:05:31Z</time>
      </trkpt>
      <trkpt lat="47.53134" lon="3.6356">
        <ele>188</ele>
        <time>2019-04-03T12:05:37Z</time>
      </trkpt>
      <trkpt lat="47.53128" lon="3.63561">
        <ele>187</ele>
        <time>2019-04-03T12:05:43Z</time>
      </trkpt>
      <trkpt lat="47.53124" lon="3.63558">
        <ele>188</ele>
        <time>2019-04-03T12:05:48Z</time>
      </trkpt>
      <trkpt lat="47.53117" lon="3.63555">
        <ele>190</ele>
        <time>2019-04-03T12:05:54Z</time>
      </trkpt>
      <trkpt lat="47.53112" lon="3.63552">
        <ele>192</ele>
        <time>2019-04-03T12:06:00Z</time>
      </trkpt>
      <trkpt lat="47.53108" lon="3.63553">
        <ele>193</ele>
        <time>2019-04-03T12:06:04Z</time>
      </trkpt>
      <trkpt lat="47.53103" lon="3.63549">
        <ele>194</ele>
        <time>2019-04-03T12:06:13Z</time>
      </trkpt>
      <trkpt lat="47.53097" lon="3.63545">
        <ele>195</ele>
        <time>2019-04-03T12:06:18Z</time>
      </trkpt>
      <trkpt lat="47.53091" lon="3.63539">
        <ele>193</ele>
        <time>2019-04-03T12:06:21Z</time>
      </trkpt>
      <trkpt lat="47.53087" lon="3.63531">
        <ele>189</ele>
        <time>2019-04-03T12:06:27Z</time>
      </trkpt>
      <trkpt lat="47.53082" lon="3.63526">
        <ele>189</ele>
        <time>2019-04-03T12:06:31Z</time>
      </trkpt>
      <trkpt lat="47.5308" lon="3.63523">
        <ele>188</ele>
        <time>2019-04-03T12:06:34Z</time>
      </trkpt>
      <trkpt lat="47.53076" lon="3.63519">
        <ele>187</ele>
        <time>2019-04-03T12:06:37Z</time>
      </trkpt>
      <trkpt lat="47.5307" lon="3.63512">
        <ele>186</ele>
        <time>2019-04-03T12:06:42Z</time>
      </trkpt>
      <trkpt lat="47.53067" lon="3.63509">
        <ele>186</ele>
        <time>2019-04-03T12:06:45Z</time>
      </trkpt>
      <trkpt lat="47.53065" lon="3.63506">
        <ele>185</ele>
        <time>2019-04-03T12:06:47Z</time>
      </trkpt>
      <trkpt lat="47.53062" lon="3.63501">
        <ele>184</ele>
        <time>2019-04-03T12:06:51Z</time>
      </trkpt>
      <trkpt lat="47.53057" lon="3.63495">
        <ele>183</ele>
        <time>2019-04-03T12:06:56Z</time>
      </trkpt>
      <trkpt lat="47.53055" lon="3.63493">
        <ele>183</ele>
        <time>2019-04-03T12:06:58Z</time>
      </trkpt>
      <trkpt lat="47.53051" lon="3.63489">
        <ele>183</ele>
        <time>2019-04-03T12:07:01Z</time>
      </trkpt>
      <trkpt lat="47.53046" lon="3.63486">
        <ele>183</ele>
        <time>2019-04-03T12:07:06Z</time>
      </trkpt>
      <trkpt lat="47.53042" lon="3.63479">
        <ele>184</ele>
        <time>2019-04-03T12:07:11Z</time>
      </trkpt>
      <trkpt lat="47.5304" lon="3.63475">
        <ele>183</ele>
        <time>2019-04-03T12:07:13Z</time>
      </trkpt>
      <trkpt lat="47.53038" lon="3.63472">
        <ele>183</ele>
        <time>2019-04-03T12:07:15Z</time>
      </trkpt>
      <trkpt lat="47.53037" lon="3.63469">
        <ele>184</ele>
        <time>2019-04-03T12:07:17Z</time>
      </trkpt>
      <trkpt lat="47.53035" lon="3.63466">
        <ele>183</ele>
        <time>2019-04-03T12:07:19Z</time>
      </trkpt>
      <trkpt lat="47.53033" lon="3.63463">
        <ele>183</ele>
        <time>2019-04-03T12:07:21Z</time>
      </trkpt>
      <trkpt lat="47.53029" lon="3.63459">
        <ele>183</ele>
        <time>2019-04-03T12:07:26Z</time>
      </trkpt>
      <trkpt lat="47.53025" lon="3.63453">
        <ele>183</ele>
        <time>2019-04-03T12:07:30Z</time>
      </trkpt>
      <trkpt lat="47.53022" lon="3.63446">
        <ele>182</ele>
        <time>2019-04-03T12:07:36Z</time>
      </trkpt>
      <trkpt lat="47.5302" lon="3.63444">
        <ele>183</ele>
        <time>2019-04-03T12:07:44Z</time>
      </trkpt>
      <trkpt lat="47.53017" lon="3.63438">
        <ele>183</ele>
        <time>2019-04-03T12:09:13Z</time>
      </trkpt>
      <trkpt lat="47.53012" lon="3.63433">
        <ele>181</ele>
        <time>2019-04-03T12:09:17Z</time>
      </trkpt>
      <trkpt lat="47.5301" lon="3.6343">
        <ele>180</ele>
        <time>2019-04-03T12:09:19Z</time>
      </trkpt>
      <trkpt lat="47.53005" lon="3.63427">
        <ele>179</ele>
        <time>2019-04-03T12:09:23Z</time>
      </trkpt>
      <trkpt lat="47.53001" lon="3.63422">
        <ele>180</ele>
        <time>2019-04-03T12:09:28Z</time>
      </trkpt>
      <trkpt lat="47.52999" lon="3.63419">
        <ele>180</ele>
        <time>2019-04-03T12:09:30Z</time>
      </trkpt>
      <trkpt lat="47.52995" lon="3.63415">
        <ele>182</ele>
        <time>2019-04-03T12:09:34Z</time>
      </trkpt>
      <trkpt lat="47.5299" lon="3.6341">
        <ele>184</ele>
        <time>2019-04-03T12:09:39Z</time>
      </trkpt>
      <trkpt lat="47.52985" lon="3.63408">
        <ele>185</ele>
        <time>2019-04-03T12:09:43Z</time>
      </trkpt>
      <trkpt lat="47.52979" lon="3.63402">
        <ele>186</ele>
        <time>2019-04-03T12:09:49Z</time>
      </trkpt>
      <trkpt lat="47.52975" lon="3.63399">
        <ele>186</ele>
        <time>2019-04-03T12:09:53Z</time>
      </trkpt>
      <trkpt lat="47.5297" lon="3.63396">
        <ele>187</ele>
        <time>2019-04-03T12:09:55Z</time>
      </trkpt>
      <trkpt lat="47.52965" lon="3.63397">
        <ele>187</ele>
        <time>2019-04-03T12:09:59Z</time>
      </trkpt>
      <trkpt lat="47.52959" lon="3.63396">
        <ele>188</ele>
        <time>2019-04-03T12:10:04Z</time>
      </trkpt>
      <trkpt lat="47.52955" lon="3.63391">
        <ele>188</ele>
        <time>2019-04-03T12:10:09Z</time>
      </trkpt>
      <trkpt lat="47.5295" lon="3.63387">
        <ele>190</ele>
        <time>2019-04-03T12:10:12Z</time>
      </trkpt>
      <trkpt lat="47.52945" lon="3.63384">
        <ele>189</ele>
        <time>2019-04-03T12:10:16Z</time>
      </trkpt>
      <trkpt lat="47.52943" lon="3.63382">
        <ele>188</ele>
        <time>2019-04-03T12:10:18Z</time>
      </trkpt>
      <trkpt lat="47.52937" lon="3.63382">
        <ele>187</ele>
        <time>2019-04-03T12:10:24Z</time>
      </trkpt>
      <trkpt lat="47.52931" lon="3.63381">
        <ele>186</ele>
        <time>2019-04-03T12:10:29Z</time>
      </trkpt>
      <trkpt lat="47.52926" lon="3.63378">
        <ele>186</ele>
        <time>2019-04-03T12:10:33Z</time>
      </trkpt>
      <trkpt lat="47.52921" lon="3.63375">
        <ele>187</ele>
        <time>2019-04-03T12:10:37Z</time>
      </trkpt>
      <trkpt lat="47.52915" lon="3.63376">
        <ele>187</ele>
        <time>2019-04-03T12:10:42Z</time>
      </trkpt>
      <trkpt lat="47.5291" lon="3.63373">
        <ele>188</ele>
        <time>2019-04-03T12:10:46Z</time>
      </trkpt>
      <trkpt lat="47.52904" lon="3.63374">
        <ele>189</ele>
        <time>2019-04-03T12:10:50Z</time>
      </trkpt>
      <trkpt lat="47.52899" lon="3.63376">
        <ele>189</ele>
        <time>2019-04-03T12:10:54Z</time>
      </trkpt>
      <trkpt lat="47.52895" lon="3.63377">
        <ele>189</ele>
        <time>2019-04-03T12:10:57Z</time>
      </trkpt>
      <trkpt lat="47.52893" lon="3.63378">
        <ele>189</ele>
        <time>2019-04-03T12:11:00Z</time>
      </trkpt>
      <trkpt lat="47.5289" lon="3.6338">
        <ele>189</ele>
        <time>2019-04-03T12:11:03Z</time>
      </trkpt>
      <trkpt lat="47.52885" lon="3.63383">
        <ele>191</ele>
        <time>2019-04-03T12:11:10Z</time>
      </trkpt>
      <trkpt lat="47.52879" lon="3.63382">
        <ele>193</ele>
        <time>2019-04-03T12:11:14Z</time>
      </trkpt>
      <trkpt lat="47.52874" lon="3.63382">
        <ele>194</ele>
        <time>2019-04-03T12:11:17Z</time>
      </trkpt>
      <trkpt lat="47.52869" lon="3.63384">
        <ele>194</ele>
        <time>2019-04-03T12:11:21Z</time>
      </trkpt>
      <trkpt lat="47.52864" lon="3.63386">
        <ele>194</ele>
        <time>2019-04-03T12:11:23Z</time>
      </trkpt>
      <trkpt lat="47.52862" lon="3.63387">
        <ele>193</ele>
        <time>2019-04-03T12:11:26Z</time>
      </trkpt>
      <trkpt lat="47.52857" lon="3.63389">
        <ele>194</ele>
        <time>2019-04-03T12:11:29Z</time>
      </trkpt>
      <trkpt lat="47.52854" lon="3.6339">
        <ele>193</ele>
        <time>2019-04-03T12:11:31Z</time>
      </trkpt>
      <trkpt lat="47.5285" lon="3.63393">
        <ele>194</ele>
        <time>2019-04-03T12:11:34Z</time>
      </trkpt>
      <trkpt lat="47.52845" lon="3.63396">
        <ele>194</ele>
        <time>2019-04-03T12:11:39Z</time>
      </trkpt>
      <trkpt lat="47.52841" lon="3.63397">
        <ele>193</ele>
        <time>2019-04-03T12:11:45Z</time>
      </trkpt>
      <trkpt lat="47.52835" lon="3.63398">
        <ele>192</ele>
        <time>2019-04-03T12:11:51Z</time>
      </trkpt>
      <trkpt lat="47.52831" lon="3.63396">
        <ele>191</ele>
        <time>2019-04-03T12:11:56Z</time>
      </trkpt>
      <trkpt lat="47.52827" lon="3.63395">
        <ele>191</ele>
        <time>2019-04-03T12:12:02Z</time>
      </trkpt>
      <trkpt lat="47.52823" lon="3.63392">
        <ele>191</ele>
        <time>2019-04-03T12:12:06Z</time>
      </trkpt>
      <trkpt lat="47.52818" lon="3.6339">
        <ele>192</ele>
        <time>2019-04-03T12:12:09Z</time>
      </trkpt>
      <trkpt lat="47.52814" lon="3.63386">
        <ele>192</ele>
        <time>2019-04-03T12:12:13Z</time>
      </trkpt>
      <trkpt lat="47.52811" lon="3.63385">
        <ele>192</ele>
        <time>2019-04-03T12:12:15Z</time>
      </trkpt>
      <trkpt lat="47.52809" lon="3.63383">
        <ele>193</ele>
        <time>2019-04-03T12:12:18Z</time>
      </trkpt>
      <trkpt lat="47.52806" lon="3.6338">
        <ele>193</ele>
        <time>2019-04-03T12:12:19Z</time>
      </trkpt>
      <trkpt lat="47.52799" lon="3.63379">
        <ele>194</ele>
        <time>2019-04-03T12:12:25Z</time>
      </trkpt>
      <trkpt lat="47.52795" lon="3.63379">
        <ele>194</ele>
        <time>2019-04-03T12:12:28Z</time>
      </trkpt>
      <trkpt lat="47.52789" lon="3.63377">
        <ele>192</ele>
        <time>2019-04-03T12:12:32Z</time>
      </trkpt>
      <trkpt lat="47.52787" lon="3.63376">
        <ele>192</ele>
        <time>2019-04-03T12:12:34Z</time>
      </trkpt>
      <trkpt lat="47.52784" lon="3.63375">
        <ele>192</ele>
        <time>2019-04-03T12:12:36Z</time>
      </trkpt>
      <trkpt lat="47.52781" lon="3.63375">
        <ele>192</ele>
        <time>2019-04-03T12:12:38Z</time>
      </trkpt>
      <trkpt lat="47.52775" lon="3.63376">
        <ele>192</ele>
        <time>2019-04-03T12:12:42Z</time>
      </trkpt>
      <trkpt lat="47.52771" lon="3.63377">
        <ele>191</ele>
        <time>2019-04-03T12:12:45Z</time>
      </trkpt>
      <trkpt lat="47.52767" lon="3.63378">
        <ele>192</ele>
        <time>2019-04-03T12:12:49Z</time>
      </trkpt>
      <trkpt lat="47.5276" lon="3.63378">
        <ele>193</ele>
        <time>2019-04-03T12:12:53Z</time>
      </trkpt>
      <trkpt lat="47.52757" lon="3.63378">
        <ele>194</ele>
        <time>2019-04-03T12:12:55Z</time>
      </trkpt>
      <trkpt lat="47.52755" lon="3.63379">
        <ele>195</ele>
        <time>2019-04-03T12:13:04Z</time>
      </trkpt>
      <trkpt lat="47.52747" lon="3.63373">
        <ele>192</ele>
        <time>2019-04-03T12:16:09Z</time>
      </trkpt>
      <trkpt lat="47.52742" lon="3.63373">
        <ele>192</ele>
        <time>2019-04-03T12:16:14Z</time>
      </trkpt>
      <trkpt lat="47.52737" lon="3.63375">
        <ele>192</ele>
        <time>2019-04-03T12:16:19Z</time>
      </trkpt>
      <trkpt lat="47.52733" lon="3.63376">
        <ele>192</ele>
        <time>2019-04-03T12:16:22Z</time>
      </trkpt>
      <trkpt lat="47.5273" lon="3.63377">
        <ele>192</ele>
        <time>2019-04-03T12:16:25Z</time>
      </trkpt>
      <trkpt lat="47.52728" lon="3.63378">
        <ele>192</ele>
        <time>2019-04-03T12:16:27Z</time>
      </trkpt>
      <trkpt lat="47.52725" lon="3.63378">
        <ele>193</ele>
        <time>2019-04-03T12:16:29Z</time>
      </trkpt>
      <trkpt lat="47.5272" lon="3.63381">
        <ele>194</ele>
        <time>2019-04-03T12:16:33Z</time>
      </trkpt>
      <trkpt lat="47.52715" lon="3.63382">
        <ele>194</ele>
        <time>2019-04-03T12:16:37Z</time>
      </trkpt>
      <trkpt lat="47.52712" lon="3.63382">
        <ele>194</ele>
        <time>2019-04-03T12:16:40Z</time>
      </trkpt>
      <trkpt lat="47.52705" lon="3.63382">
        <ele>196</ele>
        <time>2019-04-03T12:16:48Z</time>
      </trkpt>
      <trkpt lat="47.52702" lon="3.63382">
        <ele>196</ele>
        <time>2019-04-03T12:16:51Z</time>
      </trkpt>
      <trkpt lat="47.52697" lon="3.63387">
        <ele>195</ele>
        <time>2019-04-03T12:16:57Z</time>
      </trkpt>
      <trkpt lat="47.52691" lon="3.6339">
        <ele>193</ele>
        <time>2019-04-03T12:17:02Z</time>
      </trkpt>
      <trkpt lat="47.52685" lon="3.63391">
        <ele>192</ele>
        <time>2019-04-03T12:17:07Z</time>
      </trkpt>
      <trkpt lat="47.5268" lon="3.63392">
        <ele>191</ele>
        <time>2019-04-03T12:17:12Z</time>
      </trkpt>
      <trkpt lat="47.52678" lon="3.63392">
        <ele>189</ele>
        <time>2019-04-03T12:17:14Z</time>
      </trkpt>
      <trkpt lat="47.52675" lon="3.63392">
        <ele>188</ele>
        <time>2019-04-03T12:17:17Z</time>
      </trkpt>
      <trkpt lat="47.52673" lon="3.63392">
        <ele>188</ele>
        <time>2019-04-03T12:17:19Z</time>
      </trkpt>
      <trkpt lat="47.5267" lon="3.63393">
        <ele>188</ele>
        <time>2019-04-03T12:17:21Z</time>
      </trkpt>
      <trkpt lat="47.52666" lon="3.63396">
        <ele>188</ele>
        <time>2019-04-03T12:17:25Z</time>
      </trkpt>
      <trkpt lat="47.52664" lon="3.63398">
        <ele>188</ele>
        <time>2019-04-03T12:17:27Z</time>
      </trkpt>
      <trkpt lat="47.52659" lon="3.63398">
        <ele>189</ele>
        <time>2019-04-03T12:17:32Z</time>
      </trkpt>
      <trkpt lat="47.52654" lon="3.634">
        <ele>188</ele>
        <time>2019-04-03T12:17:37Z</time>
      </trkpt>
      <trkpt lat="47.52648" lon="3.63402">
        <ele>186</ele>
        <time>2019-04-03T12:17:43Z</time>
      </trkpt>
      <trkpt lat="47.52643" lon="3.63405">
        <ele>186</ele>
        <time>2019-04-03T12:17:47Z</time>
      </trkpt>
      <trkpt lat="47.52638" lon="3.63407">
        <ele>185</ele>
        <time>2019-04-03T12:17:51Z</time>
      </trkpt>
      <trkpt lat="47.52632" lon="3.63409">
        <ele>186</ele>
        <time>2019-04-03T12:17:55Z</time>
      </trkpt>
      <trkpt lat="47.52628" lon="3.63409">
        <ele>186</ele>
        <time>2019-04-03T12:17:59Z</time>
      </trkpt>
      <trkpt lat="47.52624" lon="3.63408">
        <ele>186</ele>
        <time>2019-04-03T12:18:03Z</time>
      </trkpt>
      <trkpt lat="47.52619" lon="3.63408">
        <ele>188</ele>
        <time>2019-04-03T12:18:07Z</time>
      </trkpt>
      <trkpt lat="47.52614" lon="3.63411">
        <ele>186</ele>
        <time>2019-04-03T12:18:11Z</time>
      </trkpt>
      <trkpt lat="47.5261" lon="3.63414">
        <ele>188</ele>
        <time>2019-04-03T12:18:14Z</time>
      </trkpt>
      <trkpt lat="47.52608" lon="3.63416">
        <ele>188</ele>
        <time>2019-04-03T12:18:16Z</time>
      </trkpt>
      <trkpt lat="47.52603" lon="3.63419">
        <ele>187</ele>
        <time>2019-04-03T12:18:19Z</time>
      </trkpt>
      <trkpt lat="47.52602" lon="3.63425">
        <ele>187</ele>
        <time>2019-04-03T12:18:22Z</time>
      </trkpt>
      <trkpt lat="47.52601" lon="3.63434">
        <ele>188</ele>
        <time>2019-04-03T12:18:25Z</time>
      </trkpt>
      <trkpt lat="47.52602" lon="3.63442">
        <ele>189</ele>
        <time>2019-04-03T12:18:28Z</time>
      </trkpt>
      <trkpt lat="47.52604" lon="3.63452">
        <ele>188</ele>
        <time>2019-04-03T12:18:32Z</time>
      </trkpt>
      <trkpt lat="47.52605" lon="3.63457">
        <ele>188</ele>
        <time>2019-04-03T12:18:35Z</time>
      </trkpt>
      <trkpt lat="47.52606" lon="3.63462">
        <ele>189</ele>
        <time>2019-04-03T12:18:39Z</time>
      </trkpt>
      <trkpt lat="47.52606" lon="3.63462">
        <ele>189</ele>
        <time>2019-04-03T12:18:46Z</time>
      </trkpt>
      <trkpt lat="47.52606" lon="3.63462">
        <ele>189</ele>
        <time>2019-04-03T12:18:48Z</time>
      </trkpt>
      <trkpt lat="47.5261" lon="3.63452">
        <ele>184</ele>
        <time>2019-04-03T12:59:30Z</time>
      </trkpt>
      <trkpt lat="47.5261" lon="3.63446">
        <ele>184</ele>
        <time>2019-04-03T12:59:38Z</time>
      </trkpt>
      <trkpt lat="47.52608" lon="3.6344">
        <ele>185</ele>
        <time>2019-04-03T12:59:44Z</time>
      </trkpt>
      <trkpt lat="47.52607" lon="3.63437">
        <ele>184</ele>
        <time>2019-04-03T12:59:49Z</time>
      </trkpt>
      <trkpt lat="47.52608" lon="3.6344">
        <ele>185</ele>
        <time>2019-04-03T12:59:58Z</time>
      </trkpt>
      <trkpt lat="47.52617" lon="3.6343">
        <ele>186</ele>
        <time>2019-04-03T13:00:22Z</time>
      </trkpt>
      <trkpt lat="47.52621" lon="3.63429">
        <ele>186</ele>
        <time>2019-04-03T13:00:27Z</time>
      </trkpt>
      <trkpt lat="47.52624" lon="3.63428">
        <ele>185</ele>
        <time>2019-04-03T13:00:30Z</time>
      </trkpt>
      <trkpt lat="47.52626" lon="3.63428">
        <ele>186</ele>
        <time>2019-04-03T13:00:33Z</time>
      </trkpt>
      <trkpt lat="47.5263" lon="3.63427">
        <ele>186</ele>
        <time>2019-04-03T13:00:37Z</time>
      </trkpt>
      <trkpt lat="47.52633" lon="3.63426">
        <ele>187</ele>
        <time>2019-04-03T13:00:40Z</time>
      </trkpt>
      <trkpt lat="47.52635" lon="3.63425">
        <ele>186</ele>
        <time>2019-04-03T13:00:42Z</time>
      </trkpt>
      <trkpt lat="47.52639" lon="3.63424">
        <ele>186</ele>
        <time>2019-04-03T13:00:46Z</time>
      </trkpt>
      <trkpt lat="47.52644" lon="3.63424">
        <ele>188</ele>
        <time>2019-04-03T13:00:51Z</time>
      </trkpt>
      <trkpt lat="47.52649" lon="3.63423">
        <ele>188</ele>
        <time>2019-04-03T13:00:56Z</time>
      </trkpt>
      <trkpt lat="47.52654" lon="3.63421">
        <ele>186</ele>
        <time>2019-04-03T13:01:00Z</time>
      </trkpt>
      <trkpt lat="47.52658" lon="3.63417">
        <ele>187</ele>
        <time>2019-04-03T13:01:06Z</time>
      </trkpt>
      <trkpt lat="47.52663" lon="3.63415">
        <ele>189</ele>
        <time>2019-04-03T13:01:11Z</time>
      </trkpt>
      <trkpt lat="47.52668" lon="3.63411">
        <ele>189</ele>
        <time>2019-04-03T13:01:16Z</time>
      </trkpt>
      <trkpt lat="47.5267" lon="3.63405">
        <ele>188</ele>
        <time>2019-04-03T13:01:21Z</time>
      </trkpt>
      <trkpt lat="47.52675" lon="3.63402">
        <ele>188</ele>
        <time>2019-04-03T13:01:26Z</time>
      </trkpt>
      <trkpt lat="47.52678" lon="3.634">
        <ele>188</ele>
        <time>2019-04-03T13:01:28Z</time>
      </trkpt>
      <trkpt lat="47.52682" lon="3.634">
        <ele>188</ele>
        <time>2019-04-03T13:01:33Z</time>
      </trkpt>
      <trkpt lat="47.52689" lon="3.63397">
        <ele>187</ele>
        <time>2019-04-03T13:01:38Z</time>
      </trkpt>
      <trkpt lat="47.52692" lon="3.63396">
        <ele>187</ele>
        <time>2019-04-03T13:01:40Z</time>
      </trkpt>
      <trkpt lat="47.52695" lon="3.63395">
        <ele>187</ele>
        <time>2019-04-03T13:01:43Z</time>
      </trkpt>
      <trkpt lat="47.52697" lon="3.63393">
        <ele>186</ele>
        <time>2019-04-03T13:01:45Z</time>
      </trkpt>
      <trkpt lat="47.527" lon="3.63392">
        <ele>185</ele>
        <time>2019-04-03T13:01:47Z</time>
      </trkpt>
      <trkpt lat="47.52702" lon="3.63391">
        <ele>185</ele>
        <time>2019-04-03T13:01:49Z</time>
      </trkpt>
      <trkpt lat="47.52707" lon="3.6339">
        <ele>186</ele>
        <time>2019-04-03T13:01:53Z</time>
      </trkpt>
      <trkpt lat="47.52711" lon="3.63389">
        <ele>186</ele>
        <time>2019-04-03T13:01:56Z</time>
      </trkpt>
      <trkpt lat="47.52714" lon="3.63389">
        <ele>186</ele>
        <time>2019-04-03T13:01:59Z</time>
      </trkpt>
      <trkpt lat="47.52718" lon="3.63388">
        <ele>187</ele>
        <time>2019-04-03T13:02:04Z</time>
      </trkpt>
      <trkpt lat="47.52723" lon="3.63387">
        <ele>188</ele>
        <time>2019-04-03T13:02:08Z</time>
      </trkpt>
      <trkpt lat="47.52725" lon="3.63387">
        <ele>188</ele>
        <time>2019-04-03T13:02:10Z</time>
      </trkpt>
      <trkpt lat="47.52729" lon="3.63386">
        <ele>189</ele>
        <time>2019-04-03T13:02:13Z</time>
      </trkpt>
      <trkpt lat="47.52731" lon="3.63385">
        <ele>189</ele>
        <time>2019-04-03T13:02:16Z</time>
      </trkpt>
      <trkpt lat="47.52737" lon="3.63384">
        <ele>189</ele>
        <time>2019-04-03T13:02:21Z</time>
      </trkpt>
      <trkpt lat="47.52744" lon="3.63383">
        <ele>190</ele>
        <time>2019-04-03T13:02:25Z</time>
      </trkpt>
      <trkpt lat="47.52746" lon="3.63382">
        <ele>190</ele>
        <time>2019-04-03T13:02:27Z</time>
      </trkpt>
      <trkpt lat="47.5275" lon="3.63382">
        <ele>190</ele>
        <time>2019-04-03T13:02:31Z</time>
      </trkpt>
      <trkpt lat="47.52756" lon="3.63384">
        <ele>190</ele>
        <time>2019-04-03T13:02:36Z</time>
      </trkpt>
      <trkpt lat="47.52761" lon="3.63385">
        <ele>191</ele>
        <time>2019-04-03T13:02:41Z</time>
      </trkpt>
      <trkpt lat="47.52766" lon="3.63388">
        <ele>191</ele>
        <time>2019-04-03T13:02:45Z</time>
      </trkpt>
      <trkpt lat="47.52771" lon="3.63387">
        <ele>191</ele>
        <time>2019-04-03T13:02:49Z</time>
      </trkpt>
      <trkpt lat="47.52773" lon="3.63388">
        <ele>190</ele>
        <time>2019-04-03T13:02:51Z</time>
      </trkpt>
      <trkpt lat="47.52778" lon="3.63385">
        <ele>191</ele>
        <time>2019-04-03T13:02:55Z</time>
      </trkpt>
      <trkpt lat="47.52783" lon="3.63386">
        <ele>191</ele>
        <time>2019-04-03T13:03:00Z</time>
      </trkpt>
      <trkpt lat="47.52786" lon="3.63386">
        <ele>191</ele>
        <time>2019-04-03T13:03:02Z</time>
      </trkpt>
      <trkpt lat="47.52792" lon="3.63389">
        <ele>191</ele>
        <time>2019-04-03T13:03:06Z</time>
      </trkpt>
      <trkpt lat="47.52798" lon="3.63389">
        <ele>191</ele>
        <time>2019-04-03T13:03:10Z</time>
      </trkpt>
      <trkpt lat="47.528" lon="3.63389">
        <ele>191</ele>
        <time>2019-04-03T13:03:12Z</time>
      </trkpt>
      <trkpt lat="47.52805" lon="3.63391">
        <ele>191</ele>
        <time>2019-04-03T13:03:17Z</time>
      </trkpt>
      <trkpt lat="47.5281" lon="3.6339">
        <ele>192</ele>
        <time>2019-04-03T13:03:23Z</time>
      </trkpt>
      <trkpt lat="47.52816" lon="3.63393">
        <ele>192</ele>
        <time>2019-04-03T13:03:28Z</time>
      </trkpt>
      <trkpt lat="47.52821" lon="3.63396">
        <ele>192</ele>
        <time>2019-04-03T13:03:31Z</time>
      </trkpt>
      <trkpt lat="47.52824" lon="3.63398">
        <ele>191</ele>
        <time>2019-04-03T13:03:33Z</time>
      </trkpt>
      <trkpt lat="47.52827" lon="3.634">
        <ele>191</ele>
        <time>2019-04-03T13:03:36Z</time>
      </trkpt>
      <trkpt lat="47.5283" lon="3.63402">
        <ele>191</ele>
        <time>2019-04-03T13:03:39Z</time>
      </trkpt>
      <trkpt lat="47.52832" lon="3.63404">
        <ele>191</ele>
        <time>2019-04-03T13:03:41Z</time>
      </trkpt>
      <trkpt lat="47.52835" lon="3.63405">
        <ele>191</ele>
        <time>2019-04-03T13:03:44Z</time>
      </trkpt>
      <trkpt lat="47.52839" lon="3.63408">
        <ele>192</ele>
        <time>2019-04-03T13:03:50Z</time>
      </trkpt>
      <trkpt lat="47.52845" lon="3.63408">
        <ele>193</ele>
        <time>2019-04-03T13:03:53Z</time>
      </trkpt>
      <trkpt lat="47.5285" lon="3.63405">
        <ele>195</ele>
        <time>2019-04-03T13:03:57Z</time>
      </trkpt>
      <trkpt lat="47.52856" lon="3.63404">
        <ele>195</ele>
        <time>2019-04-03T13:04:02Z</time>
      </trkpt>
      <trkpt lat="47.52859" lon="3.63404">
        <ele>195</ele>
        <time>2019-04-03T13:04:04Z</time>
      </trkpt>
      <trkpt lat="47.52864" lon="3.634">
        <ele>196</ele>
        <time>2019-04-03T13:04:08Z</time>
      </trkpt>
      <trkpt lat="47.52867" lon="3.63396">
        <ele>196</ele>
        <time>2019-04-03T13:04:11Z</time>
      </trkpt>
      <trkpt lat="47.52873" lon="3.63394">
        <ele>196</ele>
        <time>2019-04-03T13:04:15Z</time>
      </trkpt>
      <trkpt lat="47.52876" lon="3.63389">
        <ele>196</ele>
        <time>2019-04-03T13:04:19Z</time>
      </trkpt>
      <trkpt lat="47.52881" lon="3.63389">
        <ele>197</ele>
        <time>2019-04-03T13:04:23Z</time>
      </trkpt>
      <trkpt lat="47.52886" lon="3.63387">
        <ele>196</ele>
        <time>2019-04-03T13:04:28Z</time>
      </trkpt>
      <trkpt lat="47.52891" lon="3.63384">
        <ele>194</ele>
        <time>2019-04-03T13:04:31Z</time>
      </trkpt>
      <trkpt lat="47.52896" lon="3.63385">
        <ele>194</ele>
        <time>2019-04-03T13:04:35Z</time>
      </trkpt>
      <trkpt lat="47.52901" lon="3.63383">
        <ele>197</ele>
        <time>2019-04-03T13:04:40Z</time>
      </trkpt>
      <trkpt lat="47.52905" lon="3.63379">
        <ele>195</ele>
        <time>2019-04-03T13:04:43Z</time>
      </trkpt>
      <trkpt lat="47.5291" lon="3.63379">
        <ele>195</ele>
        <time>2019-04-03T13:04:47Z</time>
      </trkpt>
      <trkpt lat="47.52915" lon="3.63381">
        <ele>194</ele>
        <time>2019-04-03T13:04:52Z</time>
      </trkpt>
      <trkpt lat="47.52922" lon="3.6338">
        <ele>192</ele>
        <time>2019-04-03T13:04:56Z</time>
      </trkpt>
      <trkpt lat="47.52927" lon="3.63382">
        <ele>191</ele>
        <time>2019-04-03T13:05:00Z</time>
      </trkpt>
      <trkpt lat="47.52931" lon="3.63384">
        <ele>190</ele>
        <time>2019-04-03T13:05:03Z</time>
      </trkpt>
      <trkpt lat="47.52936" lon="3.63385">
        <ele>190</ele>
        <time>2019-04-03T13:05:07Z</time>
      </trkpt>
      <trkpt lat="47.5294" lon="3.63386">
        <ele>190</ele>
        <time>2019-04-03T13:05:11Z</time>
      </trkpt>
      <trkpt lat="47.52944" lon="3.63388">
        <ele>191</ele>
        <time>2019-04-03T13:05:14Z</time>
      </trkpt>
      <trkpt lat="47.5295" lon="3.63392">
        <ele>191</ele>
        <time>2019-04-03T13:05:18Z</time>
      </trkpt>
      <trkpt lat="47.52955" lon="3.63394">
        <ele>192</ele>
        <time>2019-04-03T13:05:22Z</time>
      </trkpt>
      <trkpt lat="47.52959" lon="3.63397">
        <ele>190</ele>
        <time>2019-04-03T13:05:25Z</time>
      </trkpt>
      <trkpt lat="47.52964" lon="3.63401">
        <ele>189</ele>
        <time>2019-04-03T13:05:29Z</time>
      </trkpt>
      <trkpt lat="47.52969" lon="3.63404">
        <ele>189</ele>
        <time>2019-04-03T13:05:35Z</time>
      </trkpt>
      <trkpt lat="47.52974" lon="3.63406">
        <ele>190</ele>
        <time>2019-04-03T13:05:40Z</time>
      </trkpt>
      <trkpt lat="47.52977" lon="3.63407">
        <ele>189</ele>
        <time>2019-04-03T13:05:42Z</time>
      </trkpt>
      <trkpt lat="47.52981" lon="3.6341">
        <ele>190</ele>
        <time>2019-04-03T13:05:45Z</time>
      </trkpt>
      <trkpt lat="47.52983" lon="3.63412">
        <ele>190</ele>
        <time>2019-04-03T13:05:47Z</time>
      </trkpt>
      <trkpt lat="47.52988" lon="3.63416">
        <ele>189</ele>
        <time>2019-04-03T13:05:52Z</time>
      </trkpt>
      <trkpt lat="47.52993" lon="3.63418">
        <ele>189</ele>
        <time>2019-04-03T13:05:56Z</time>
      </trkpt>
      <trkpt lat="47.52997" lon="3.6342">
        <ele>187</ele>
        <time>2019-04-03T13:05:59Z</time>
      </trkpt>
      <trkpt lat="47.53002" lon="3.63424">
        <ele>187</ele>
        <time>2019-04-03T13:06:03Z</time>
      </trkpt>
      <trkpt lat="47.53004" lon="3.63426">
        <ele>186</ele>
        <time>2019-04-03T13:06:05Z</time>
      </trkpt>
      <trkpt lat="47.53009" lon="3.63429">
        <ele>186</ele>
        <time>2019-04-03T13:06:09Z</time>
      </trkpt>
      <trkpt lat="47.53012" lon="3.63431">
        <ele>185</ele>
        <time>2019-04-03T13:06:12Z</time>
      </trkpt>
      <trkpt lat="47.53017" lon="3.63432">
        <ele>185</ele>
        <time>2019-04-03T13:06:15Z</time>
      </trkpt>
      <trkpt lat="47.5302" lon="3.63433">
        <ele>185</ele>
        <time>2019-04-03T13:06:17Z</time>
      </trkpt>
      <trkpt lat="47.53024" lon="3.63434">
        <ele>184</ele>
        <time>2019-04-03T13:06:20Z</time>
      </trkpt>
      <trkpt lat="47.53027" lon="3.63435">
        <ele>184</ele>
        <time>2019-04-03T13:06:22Z</time>
      </trkpt>
      <trkpt lat="47.53032" lon="3.63435">
        <ele>182</ele>
        <time>2019-04-03T13:06:26Z</time>
      </trkpt>
      <trkpt lat="47.53037" lon="3.63433">
        <ele>181</ele>
        <time>2019-04-03T13:06:30Z</time>
      </trkpt>
      <trkpt lat="47.53042" lon="3.63433">
        <ele>181</ele>
        <time>2019-04-03T13:06:34Z</time>
      </trkpt>
      <trkpt lat="47.53047" lon="3.63436">
        <ele>179</ele>
        <time>2019-04-03T13:06:39Z</time>
      </trkpt>
      <trkpt lat="47.53052" lon="3.63435">
        <ele>179</ele>
        <time>2019-04-03T13:06:43Z</time>
      </trkpt>
      <trkpt lat="47.53058" lon="3.63438">
        <ele>180</ele>
        <time>2019-04-03T13:06:50Z</time>
      </trkpt>
      <trkpt lat="47.5306" lon="3.63436">
        <ele>182</ele>
        <time>2019-04-03T13:06:58Z</time>
      </trkpt>
      <trkpt lat="47.53066" lon="3.63438">
        <ele>180</ele>
        <time>2019-04-03T13:07:06Z</time>
      </trkpt>
      <trkpt lat="47.5307" lon="3.63442">
        <ele>180</ele>
        <time>2019-04-03T13:07:11Z</time>
      </trkpt>
      <trkpt lat="47.53077" lon="3.63441">
        <ele>180</ele>
        <time>2019-04-03T13:07:15Z</time>
      </trkpt>
      <trkpt lat="47.53083" lon="3.63445">
        <ele>181</ele>
        <time>2019-04-03T13:07:19Z</time>
      </trkpt>
      <trkpt lat="47.53085" lon="3.63447">
        <ele>181</ele>
        <time>2019-04-03T13:07:22Z</time>
      </trkpt>
      <trkpt lat="47.5309" lon="3.63449">
        <ele>182</ele>
        <time>2019-04-03T13:07:26Z</time>
      </trkpt>
      <trkpt lat="47.53093" lon="3.63449">
        <ele>182</ele>
        <time>2019-04-03T13:07:29Z</time>
      </trkpt>
      <trkpt lat="47.53098" lon="3.63453">
        <ele>183</ele>
        <time>2019-04-03T13:07:34Z</time>
      </trkpt>
      <trkpt lat="47.53103" lon="3.63453">
        <ele>184</ele>
        <time>2019-04-03T13:07:37Z</time>
      </trkpt>
      <trkpt lat="47.53109" lon="3.6345">
        <ele>183</ele>
        <time>2019-04-03T13:07:41Z</time>
      </trkpt>
      <trkpt lat="47.53109" lon="3.6345">
        <ele>183</ele>
        <time>2019-04-03T13:07:48Z</time>
      </trkpt>
      <trkpt lat="47.53112" lon="3.63448">
        <ele>186</ele>
        <time>2019-04-03T13:07:49Z</time>
      </trkpt>
      <trkpt lat="47.53117" lon="3.63443">
        <ele>187</ele>
        <time>2019-04-03T13:07:56Z</time>
      </trkpt>
      <trkpt lat="47.53121" lon="3.6344">
        <ele>187</ele>
        <time>2019-04-03T13:07:59Z</time>
      </trkpt>
      <trkpt lat="47.53125" lon="3.63437">
        <ele>186</ele>
        <time>2019-04-03T13:08:02Z</time>
      </trkpt>
      <trkpt lat="47.53128" lon="3.63435">
        <ele>186</ele>
        <time>2019-04-03T13:08:06Z</time>
      </trkpt>
      <trkpt lat="47.53131" lon="3.63429">
        <ele>184</ele>
        <time>2019-04-03T13:08:11Z</time>
      </trkpt>
      <trkpt lat="47.53134" lon="3.63424">
        <ele>183</ele>
        <time>2019-04-03T13:08:17Z</time>
      </trkpt>
      <trkpt lat="47.53134" lon="3.63424">
        <ele>183</ele>
        <time>2019-04-03T13:10:22Z</time>
      </trkpt>
      <trkpt lat="47.53148" lon="3.63415">
        <ele>186</ele>
        <time>2019-04-03T13:15:58Z</time>
      </trkpt>
      <trkpt lat="47.53148" lon="3.63408">
        <ele>187</ele>
        <time>2019-04-03T13:16:01Z</time>
      </trkpt>
      <trkpt lat="47.53149" lon="3.63403">
        <ele>188</ele>
        <time>2019-04-03T13:16:04Z</time>
      </trkpt>
      <trkpt lat="47.53149" lon="3.63397">
        <ele>190</ele>
        <time>2019-04-03T13:16:08Z</time>
      </trkpt>
      <trkpt lat="47.5315" lon="3.63393">
        <ele>190</ele>
        <time>2019-04-03T13:16:11Z</time>
      </trkpt>
      <trkpt lat="47.53152" lon="3.63386">
        <ele>191</ele>
        <time>2019-04-03T13:16:19Z</time>
      </trkpt>
      <trkpt lat="47.53147" lon="3.6338">
        <ele>194</ele>
        <time>2019-04-03T13:16:30Z</time>
      </trkpt>
      <trkpt lat="47.5314" lon="3.63377">
        <ele>194</ele>
        <time>2019-04-03T13:16:36Z</time>
      </trkpt>
      <trkpt lat="47.53136" lon="3.63376">
        <ele>195</ele>
        <time>2019-04-03T13:16:40Z</time>
      </trkpt>
      <trkpt lat="47.53131" lon="3.63373">
        <ele>195</ele>
        <time>2019-04-03T13:16:45Z</time>
      </trkpt>
      <trkpt lat="47.53125" lon="3.63368">
        <ele>196</ele>
        <time>2019-04-03T13:16:50Z</time>
      </trkpt>
      <trkpt lat="47.5312" lon="3.63365">
        <ele>196</ele>
        <time>2019-04-03T13:16:54Z</time>
      </trkpt>
      <trkpt lat="47.53115" lon="3.63363">
        <ele>196</ele>
        <time>2019-04-03T13:16:59Z</time>
      </trkpt>
      <trkpt lat="47.5311" lon="3.63359">
        <ele>197</ele>
        <time>2019-04-03T13:17:04Z</time>
      </trkpt>
      <trkpt lat="47.53105" lon="3.63358">
        <ele>195</ele>
        <time>2019-04-03T13:17:09Z</time>
      </trkpt>
      <trkpt lat="47.531" lon="3.63354">
        <ele>195</ele>
        <time>2019-04-03T13:17:16Z</time>
      </trkpt>
      <trkpt lat="47.53102" lon="3.63343">
        <ele>195</ele>
        <time>2019-04-03T13:17:29Z</time>
      </trkpt>
      <trkpt lat="47.53105" lon="3.63337">
        <ele>197</ele>
        <time>2019-04-03T13:17:37Z</time>
      </trkpt>
      <trkpt lat="47.53104" lon="3.6333">
        <ele>197</ele>
        <time>2019-04-03T13:17:46Z</time>
      </trkpt>
      <trkpt lat="47.53107" lon="3.63324">
        <ele>198</ele>
        <time>2019-04-03T13:17:55Z</time>
      </trkpt>
      <trkpt lat="47.53109" lon="3.6332">
        <ele>198</ele>
        <time>2019-04-03T13:18:00Z</time>
      </trkpt>
      <trkpt lat="47.53114" lon="3.63318">
        <ele>199</ele>
        <time>2019-04-03T13:18:08Z</time>
      </trkpt>
      <trkpt lat="47.53117" lon="3.63312">
        <ele>201</ele>
        <time>2019-04-03T13:18:17Z</time>
      </trkpt>
      <trkpt lat="47.53122" lon="3.63309">
        <ele>203</ele>
        <time>2019-04-03T13:18:23Z</time>
      </trkpt>
      <trkpt lat="47.53124" lon="3.63309">
        <ele>203</ele>
        <time>2019-04-03T13:18:26Z</time>
      </trkpt>
      <trkpt lat="47.53128" lon="3.63312">
        <ele>203</ele>
        <time>2019-04-03T13:18:49Z</time>
      </trkpt>
      <trkpt lat="47.53131" lon="3.63314">
        <ele>203</ele>
        <time>2019-04-03T13:18:52Z</time>
      </trkpt>
      <trkpt lat="47.53135" lon="3.63313">
        <ele>204</ele>
        <time>2019-04-03T13:19:00Z</time>
      </trkpt>
      <trkpt lat="47.53139" lon="3.6331">
        <ele>206</ele>
        <time>2019-04-03T13:19:05Z</time>
      </trkpt>
      <trkpt lat="47.53145" lon="3.6331">
        <ele>208</ele>
        <time>2019-04-03T13:19:12Z</time>
      </trkpt>
      <trkpt lat="47.53148" lon="3.6331">
        <ele>208</ele>
        <time>2019-04-03T13:19:17Z</time>
      </trkpt>
      <trkpt lat="47.53154" lon="3.6331">
        <ele>212</ele>
        <time>2019-04-03T13:19:25Z</time>
      </trkpt>
      <trkpt lat="47.53158" lon="3.63307">
        <ele>214</ele>
        <time>2019-04-03T13:19:29Z</time>
      </trkpt>
      <trkpt lat="47.53159" lon="3.63299">
        <ele>214</ele>
        <time>2019-04-03T13:19:33Z</time>
      </trkpt>
      <trkpt lat="47.53161" lon="3.63288">
        <ele>215</ele>
        <time>2019-04-03T13:19:38Z</time>
      </trkpt>
      <trkpt lat="47.53163" lon="3.63282">
        <ele>216</ele>
        <time>2019-04-03T13:19:43Z</time>
      </trkpt>
      <trkpt lat="47.53163" lon="3.63275">
        <ele>216</ele>
        <time>2019-04-03T13:19:53Z</time>
      </trkpt>
      <trkpt lat="47.53159" lon="3.63269">
        <ele>218</ele>
        <time>2019-04-03T13:20:30Z</time>
      </trkpt>
      <trkpt lat="47.53154" lon="3.63265">
        <ele>219</ele>
        <time>2019-04-03T13:20:35Z</time>
      </trkpt>
      <trkpt lat="47.53151" lon="3.63257">
        <ele>221</ele>
        <time>2019-04-03T13:20:41Z</time>
      </trkpt>
      <trkpt lat="47.53148" lon="3.6325">
        <ele>222</ele>
        <time>2019-04-03T13:20:49Z</time>
      </trkpt>
      <trkpt lat="47.53144" lon="3.63244">
        <ele>224</ele>
        <time>2019-04-03T13:20:54Z</time>
      </trkpt>
      <trkpt lat="47.5314" lon="3.63239">
        <ele>226</ele>
        <time>2019-04-03T13:21:00Z</time>
      </trkpt>
      <trkpt lat="47.53138" lon="3.63229">
        <ele>225</ele>
        <time>2019-04-03T13:21:05Z</time>
      </trkpt>
      <trkpt lat="47.53137" lon="3.63225">
        <ele>225</ele>
        <time>2019-04-03T13:21:07Z</time>
      </trkpt>
      <trkpt lat="47.53138" lon="3.63216">
        <ele>224</ele>
        <time>2019-04-03T13:21:18Z</time>
      </trkpt>
      <trkpt lat="47.53125" lon="3.6323">
        <ele>226</ele>
        <time>2019-04-03T13:21:42Z</time>
      </trkpt>
      <trkpt lat="47.5312" lon="3.63231">
        <ele>225</ele>
        <time>2019-04-03T13:21:46Z</time>
      </trkpt>
      <trkpt lat="47.53115" lon="3.63232">
        <ele>225</ele>
        <time>2019-04-03T13:21:49Z</time>
      </trkpt>
      <trkpt lat="47.53109" lon="3.63233">
        <ele>221</ele>
        <time>2019-04-03T13:21:53Z</time>
      </trkpt>
      <trkpt lat="47.53109" lon="3.63233">
        <ele>221</ele>
        <time>2019-04-03T13:22:01Z</time>
      </trkpt>
      <trkpt lat="47.53109" lon="3.63233">
        <ele>221</ele>
        <time>2019-04-03T13:22:04Z</time>
      </trkpt>
      <trkpt lat="47.53121" lon="3.63231">
        <ele>215</ele>
        <time>2019-04-03T13:23:48Z</time>
      </trkpt>
      <trkpt lat="47.53127" lon="3.63229">
        <ele>217</ele>
        <time>2019-04-03T13:23:52Z</time>
      </trkpt>
      <trkpt lat="47.53132" lon="3.63227">
        <ele>217</ele>
        <time>2019-04-03T13:23:58Z</time>
      </trkpt>
      <trkpt lat="47.53135" lon="3.63234">
        <ele>218</ele>
        <time>2019-04-03T13:24:03Z</time>
      </trkpt>
      <trkpt lat="47.53138" lon="3.6324">
        <ele>217</ele>
        <time>2019-04-03T13:24:06Z</time>
      </trkpt>
      <trkpt lat="47.53142" lon="3.63246">
        <ele>217</ele>
        <time>2019-04-03T13:24:11Z</time>
      </trkpt>
      <trkpt lat="47.53141" lon="3.63247">
        <ele>217</ele>
        <time>2019-04-03T13:24:19Z</time>
      </trkpt>
      <trkpt lat="47.53141" lon="3.63234">
        <ele>210</ele>
        <time>2019-04-03T13:27:59Z</time>
      </trkpt>
      <trkpt lat="47.53138" lon="3.63228">
        <ele>213</ele>
        <time>2019-04-03T13:28:09Z</time>
      </trkpt>
      <trkpt lat="47.53137" lon="3.63225">
        <ele>214</ele>
        <time>2019-04-03T13:28:11Z</time>
      </trkpt>
      <trkpt lat="47.53137" lon="3.63225">
        <ele>214</ele>
        <time>2019-04-03T13:28:17Z</time>
      </trkpt>
      <trkpt lat="47.53137" lon="3.63225">
        <ele>214</ele>
        <time>2019-04-03T13:28:18Z</time>
      </trkpt>
      <trkpt lat="47.53147" lon="3.63213">
        <ele>224</ele>
        <time>2019-04-03T13:28:55Z</time>
      </trkpt>
      <trkpt lat="47.53152" lon="3.63214">
        <ele>225</ele>
        <time>2019-04-03T13:29:03Z</time>
      </trkpt>
      <trkpt lat="47.53155" lon="3.6322">
        <ele>225</ele>
        <time>2019-04-03T13:29:09Z</time>
      </trkpt>
      <trkpt lat="47.53156" lon="3.63223">
        <ele>224</ele>
        <time>2019-04-03T13:29:11Z</time>
      </trkpt>
      <trkpt lat="47.53159" lon="3.63228">
        <ele>224</ele>
        <time>2019-04-03T13:29:15Z</time>
      </trkpt>
      <trkpt lat="47.53165" lon="3.63233">
        <ele>224</ele>
        <time>2019-04-03T13:29:21Z</time>
      </trkpt>
      <trkpt lat="47.53168" lon="3.63238">
        <ele>222</ele>
        <time>2019-04-03T13:29:25Z</time>
      </trkpt>
      <trkpt lat="47.53169" lon="3.63246">
        <ele>219</ele>
        <time>2019-04-03T13:29:31Z</time>
      </trkpt>
      <trkpt lat="47.53174" lon="3.63251">
        <ele>217</ele>
        <time>2019-04-03T13:29:39Z</time>
      </trkpt>
      <trkpt lat="47.53178" lon="3.63256">
        <ele>218</ele>
        <time>2019-04-03T13:29:47Z</time>
      </trkpt>
      <trkpt lat="47.53181" lon="3.63258">
        <ele>218</ele>
        <time>2019-04-03T13:29:49Z</time>
      </trkpt>
      <trkpt lat="47.53187" lon="3.63266">
        <ele>217</ele>
        <time>2019-04-03T13:29:55Z</time>
      </trkpt>
      <trkpt lat="47.53189" lon="3.63269">
        <ele>218</ele>
        <time>2019-04-03T13:29:58Z</time>
      </trkpt>
      <trkpt lat="47.53193" lon="3.63273">
        <ele>218</ele>
        <time>2019-04-03T13:30:02Z</time>
      </trkpt>
      <trkpt lat="47.53199" lon="3.63275">
        <ele>218</ele>
        <time>2019-04-03T13:30:08Z</time>
      </trkpt>
      <trkpt lat="47.53203" lon="3.63276">
        <ele>219</ele>
        <time>2019-04-03T13:30:12Z</time>
      </trkpt>
      <trkpt lat="47.53209" lon="3.63274">
        <ele>221</ele>
        <time>2019-04-03T13:30:20Z</time>
      </trkpt>
      <trkpt lat="47.53215" lon="3.63273">
        <ele>222</ele>
        <time>2019-04-03T13:30:25Z</time>
      </trkpt>
      <trkpt lat="47.5322" lon="3.63273">
        <ele>221</ele>
        <time>2019-04-03T13:30:28Z</time>
      </trkpt>
      <trkpt lat="47.53224" lon="3.6327">
        <ele>220</ele>
        <time>2019-04-03T13:30:32Z</time>
      </trkpt>
      <trkpt lat="47.53228" lon="3.63269">
        <ele>219</ele>
        <time>2019-04-03T13:30:41Z</time>
      </trkpt>
      <trkpt lat="47.5325" lon="3.63247">
        <ele>201</ele>
        <time>2019-04-03T13:31:55Z</time>
      </trkpt>
      <trkpt lat="47.53255" lon="3.63244">
        <ele>198</ele>
        <time>2019-04-03T13:32:09Z</time>
      </trkpt>
      <trkpt lat="47.53257" lon="3.63242">
        <ele>195</ele>
        <time>2019-04-03T13:32:17Z</time>
      </trkpt>
      <trkpt lat="47.53263" lon="3.63239">
        <ele>190</ele>
        <time>2019-04-03T13:32:38Z</time>
      </trkpt>
      <trkpt lat="47.53267" lon="3.63237">
        <ele>187</ele>
        <time>2019-04-03T13:32:47Z</time>
      </trkpt>
      <trkpt lat="47.53269" lon="3.63231">
        <ele>188</ele>
        <time>2019-04-03T13:32:50Z</time>
      </trkpt>
      <trkpt lat="47.53268" lon="3.63224">
        <ele>185</ele>
        <time>2019-04-03T13:33:00Z</time>
      </trkpt>
      <trkpt lat="47.53272" lon="3.63219">
        <ele>185</ele>
        <time>2019-04-03T13:33:17Z</time>
      </trkpt>
      <trkpt lat="47.53275" lon="3.63213">
        <ele>185</ele>
        <time>2019-04-03T13:33:22Z</time>
      </trkpt>
      <trkpt lat="47.53278" lon="3.63208">
        <ele>184</ele>
        <time>2019-04-03T13:33:24Z</time>
      </trkpt>
      <trkpt lat="47.53281" lon="3.63214">
        <ele>181</ele>
        <time>2019-04-03T13:33:33Z</time>
      </trkpt>
      <trkpt lat="47.53281" lon="3.63225">
        <ele>174</ele>
        <time>2019-04-03T13:33:41Z</time>
      </trkpt>
      <trkpt lat="47.53286" lon="3.63229">
        <ele>173</ele>
        <time>2019-04-03T13:33:45Z</time>
      </trkpt>
      <trkpt lat="47.53292" lon="3.63225">
        <ele>172</ele>
        <time>2019-04-03T13:33:49Z</time>
      </trkpt>
      <trkpt lat="47.53297" lon="3.63219">
        <ele>173</ele>
        <time>2019-04-03T13:33:52Z</time>
      </trkpt>
      <trkpt lat="47.533" lon="3.63213">
        <ele>173</ele>
        <time>2019-04-03T13:33:55Z</time>
      </trkpt>
      <trkpt lat="47.53303" lon="3.63207">
        <ele>173</ele>
        <time>2019-04-03T13:33:58Z</time>
      </trkpt>
      <trkpt lat="47.53305" lon="3.632">
        <ele>175</ele>
        <time>2019-04-03T13:34:02Z</time>
      </trkpt>
      <trkpt lat="47.53308" lon="3.63193">
        <ele>174</ele>
        <time>2019-04-03T13:34:06Z</time>
      </trkpt>
      <trkpt lat="47.53311" lon="3.63187">
        <ele>174</ele>
        <time>2019-04-03T13:34:10Z</time>
      </trkpt>
      <trkpt lat="47.53315" lon="3.63181">
        <ele>174</ele>
        <time>2019-04-03T13:34:15Z</time>
      </trkpt>
      <trkpt lat="47.53318" lon="3.63175">
        <ele>174</ele>
        <time>2019-04-03T13:34:18Z</time>
      </trkpt>
      <trkpt lat="47.53319" lon="3.6317">
        <ele>174</ele>
        <time>2019-04-03T13:34:20Z</time>
      </trkpt>
      <trkpt lat="47.53321" lon="3.63164">
        <ele>174</ele>
        <time>2019-04-03T13:34:23Z</time>
      </trkpt>
      <trkpt lat="47.53323" lon="3.63158">
        <ele>174</ele>
        <time>2019-04-03T13:34:27Z</time>
      </trkpt>
      <trkpt lat="47.53325" lon="3.63151">
        <ele>173</ele>
        <time>2019-04-03T13:34:32Z</time>
      </trkpt>
      <trkpt lat="47.53327" lon="3.63144">
        <ele>175</ele>
        <time>2019-04-03T13:34:36Z</time>
      </trkpt>
      <trkpt lat="47.53329" lon="3.63138">
        <ele>175</ele>
        <time>2019-04-03T13:34:40Z</time>
      </trkpt>
      <trkpt lat="47.53331" lon="3.63135">
        <ele>174</ele>
        <time>2019-04-03T13:34:42Z</time>
      </trkpt>
      <trkpt lat="47.53333" lon="3.63128">
        <ele>174</ele>
        <time>2019-04-03T13:34:46Z</time>
      </trkpt>
      <trkpt lat="47.53334" lon="3.63123">
        <ele>175</ele>
        <time>2019-04-03T13:34:50Z</time>
      </trkpt>
      <trkpt lat="47.53336" lon="3.63117">
        <ele>175</ele>
        <time>2019-04-03T13:34:54Z</time>
      </trkpt>
      <trkpt lat="47.53338" lon="3.63113">
        <ele>174</ele>
        <time>2019-04-03T13:34:57Z</time>
      </trkpt>
      <trkpt lat="47.53341" lon="3.63108">
        <ele>176</ele>
        <time>2019-04-03T13:35:01Z</time>
      </trkpt>
      <trkpt lat="47.53343" lon="3.63102">
        <ele>175</ele>
        <time>2019-04-03T13:35:04Z</time>
      </trkpt>
      <trkpt lat="47.53345" lon="3.63096">
        <ele>175</ele>
        <time>2019-04-03T13:35:08Z</time>
      </trkpt>
      <trkpt lat="47.53347" lon="3.6309">
        <ele>175</ele>
        <time>2019-04-03T13:35:11Z</time>
      </trkpt>
      <trkpt lat="47.53351" lon="3.63081">
        <ele>174</ele>
        <time>2019-04-03T13:35:18Z</time>
      </trkpt>
      <trkpt lat="47.53352" lon="3.63074">
        <ele>175</ele>
        <time>2019-04-03T13:35:22Z</time>
      </trkpt>
      <trkpt lat="47.53354" lon="3.63068">
        <ele>173</ele>
        <time>2019-04-03T13:35:26Z</time>
      </trkpt>
      <trkpt lat="47.53355" lon="3.63063">
        <ele>174</ele>
        <time>2019-04-03T13:35:29Z</time>
      </trkpt>
      <trkpt lat="47.53358" lon="3.63055">
        <ele>174</ele>
        <time>2019-04-03T13:35:34Z</time>
      </trkpt>
      <trkpt lat="47.53359" lon="3.63044">
        <ele>175</ele>
        <time>2019-04-03T13:35:40Z</time>
      </trkpt>
      <trkpt lat="47.53362" lon="3.63037">
        <ele>175</ele>
        <time>2019-04-03T13:35:45Z</time>
      </trkpt>
      <trkpt lat="47.53364" lon="3.6303">
        <ele>175</ele>
        <time>2019-04-03T13:35:50Z</time>
      </trkpt>
      <trkpt lat="47.53365" lon="3.63024">
        <ele>175</ele>
        <time>2019-04-03T13:35:53Z</time>
      </trkpt>
      <trkpt lat="47.53368" lon="3.63017">
        <ele>175</ele>
        <time>2019-04-03T13:35:57Z</time>
      </trkpt>
      <trkpt lat="47.53369" lon="3.63012">
        <ele>174</ele>
        <time>2019-04-03T13:36:00Z</time>
      </trkpt>
      <trkpt lat="47.53371" lon="3.63005">
        <ele>175</ele>
        <time>2019-04-03T13:36:04Z</time>
      </trkpt>
      <trkpt lat="47.53372" lon="3.62999">
        <ele>174</ele>
        <time>2019-04-03T13:36:07Z</time>
      </trkpt>
      <trkpt lat="47.53373" lon="3.62992">
        <ele>175</ele>
        <time>2019-04-03T13:36:11Z</time>
      </trkpt>
      <trkpt lat="47.53373" lon="3.62984">
        <ele>174</ele>
        <time>2019-04-03T13:36:15Z</time>
      </trkpt>
      <trkpt lat="47.53375" lon="3.62977">
        <ele>175</ele>
        <time>2019-04-03T13:36:19Z</time>
      </trkpt>
      <trkpt lat="47.53375" lon="3.62969">
        <ele>173</ele>
        <time>2019-04-03T13:36:25Z</time>
      </trkpt>
      <trkpt lat="47.53374" lon="3.62961">
        <ele>173</ele>
        <time>2019-04-03T13:36:29Z</time>
      </trkpt>
      <trkpt lat="47.53375" lon="3.62955">
        <ele>174</ele>
        <time>2019-04-03T13:36:33Z</time>
      </trkpt>
      <trkpt lat="47.53376" lon="3.62947">
        <ele>174</ele>
        <time>2019-04-03T13:36:37Z</time>
      </trkpt>
      <trkpt lat="47.53376" lon="3.6294">
        <ele>174</ele>
        <time>2019-04-03T13:36:42Z</time>
      </trkpt>
      <trkpt lat="47.53377" lon="3.62934">
        <ele>173</ele>
        <time>2019-04-03T13:36:45Z</time>
      </trkpt>
      <trkpt lat="47.53377" lon="3.62929">
        <ele>173</ele>
        <time>2019-04-03T13:36:47Z</time>
      </trkpt>
      <trkpt lat="47.53377" lon="3.62925">
        <ele>173</ele>
        <time>2019-04-03T13:36:49Z</time>
      </trkpt>
      <trkpt lat="47.53376" lon="3.62918">
        <ele>172</ele>
        <time>2019-04-03T13:36:53Z</time>
      </trkpt>
      <trkpt lat="47.53376" lon="3.6291">
        <ele>171</ele>
        <time>2019-04-03T13:36:57Z</time>
      </trkpt>
      <trkpt lat="47.53376" lon="3.62906">
        <ele>171</ele>
        <time>2019-04-03T13:37:00Z</time>
      </trkpt>
      <trkpt lat="47.53374" lon="3.62899">
        <ele>172</ele>
        <time>2019-04-03T13:37:04Z</time>
      </trkpt>
      <trkpt lat="47.53373" lon="3.62895">
        <ele>172</ele>
        <time>2019-04-03T13:37:06Z</time>
      </trkpt>
      <trkpt lat="47.53372" lon="3.62887">
        <ele>173</ele>
        <time>2019-04-03T13:37:11Z</time>
      </trkpt>
      <trkpt lat="47.53371" lon="3.62883">
        <ele>173</ele>
        <time>2019-04-03T13:37:13Z</time>
      </trkpt>
      <trkpt lat="47.53372" lon="3.62876">
        <ele>175</ele>
        <time>2019-04-03T13:37:16Z</time>
      </trkpt>
      <trkpt lat="47.53372" lon="3.62873">
        <ele>175</ele>
        <time>2019-04-03T13:37:18Z</time>
      </trkpt>
      <trkpt lat="47.53373" lon="3.62869">
        <ele>175</ele>
        <time>2019-04-03T13:37:20Z</time>
      </trkpt>
      <trkpt lat="47.53373" lon="3.62862">
        <ele>177</ele>
        <time>2019-04-03T13:37:25Z</time>
      </trkpt>
      <trkpt lat="47.53372" lon="3.62855">
        <ele>176</ele>
        <time>2019-04-03T13:37:31Z</time>
      </trkpt>
      <trkpt lat="47.5337" lon="3.62848">
        <ele>176</ele>
        <time>2019-04-03T13:37:37Z</time>
      </trkpt>
      <trkpt lat="47.5337" lon="3.62841">
        <ele>177</ele>
        <time>2019-04-03T13:37:41Z</time>
      </trkpt>
      <trkpt lat="47.53371" lon="3.62834">
        <ele>177</ele>
        <time>2019-04-03T13:37:45Z</time>
      </trkpt>
      <trkpt lat="47.5337" lon="3.62826">
        <ele>177</ele>
        <time>2019-04-03T13:37:49Z</time>
      </trkpt>
      <trkpt lat="47.5337" lon="3.62817">
        <ele>177</ele>
        <time>2019-04-03T13:37:54Z</time>
      </trkpt>
      <trkpt lat="47.53369" lon="3.6281">
        <ele>177</ele>
        <time>2019-04-03T13:37:58Z</time>
      </trkpt>
      <trkpt lat="47.53369" lon="3.62803">
        <ele>178</ele>
        <time>2019-04-03T13:38:02Z</time>
      </trkpt>
      <trkpt lat="47.53369" lon="3.62795">
        <ele>177</ele>
        <time>2019-04-03T13:38:06Z</time>
      </trkpt>
      <trkpt lat="47.53368" lon="3.62788">
        <ele>176</ele>
        <time>2019-04-03T13:38:09Z</time>
      </trkpt>
      <trkpt lat="47.53368" lon="3.62781">
        <ele>175</ele>
        <time>2019-04-03T13:38:13Z</time>
      </trkpt>
      <trkpt lat="47.53367" lon="3.62773">
        <ele>176</ele>
        <time>2019-04-03T13:38:17Z</time>
      </trkpt>
      <trkpt lat="47.53366" lon="3.62766">
        <ele>175</ele>
        <time>2019-04-03T13:38:22Z</time>
      </trkpt>
      <trkpt lat="47.53366" lon="3.62759">
        <ele>175</ele>
        <time>2019-04-03T13:38:27Z</time>
      </trkpt>
      <trkpt lat="47.53364" lon="3.62752">
        <ele>173</ele>
        <time>2019-04-03T13:38:31Z</time>
      </trkpt>
      <trkpt lat="47.53365" lon="3.62742">
        <ele>174</ele>
        <time>2019-04-03T13:38:37Z</time>
      </trkpt>
      <trkpt lat="47.53365" lon="3.62735">
        <ele>174</ele>
        <time>2019-04-03T13:38:41Z</time>
      </trkpt>
      <trkpt lat="47.53366" lon="3.62729">
        <ele>174</ele>
        <time>2019-04-03T13:38:45Z</time>
      </trkpt>
      <trkpt lat="47.53366" lon="3.62725">
        <ele>174</ele>
        <time>2019-04-03T13:38:48Z</time>
      </trkpt>
      <trkpt lat="47.53367" lon="3.62718">
        <ele>173</ele>
        <time>2019-04-03T13:38:52Z</time>
      </trkpt>
      <trkpt lat="47.53367" lon="3.62714">
        <ele>173</ele>
        <time>2019-04-03T13:38:54Z</time>
      </trkpt>
      <trkpt lat="47.5337" lon="3.62706">
        <ele>171</ele>
        <time>2019-04-03T13:38:59Z</time>
      </trkpt>
      <trkpt lat="47.53372" lon="3.62698">
        <ele>171</ele>
        <time>2019-04-03T13:39:04Z</time>
      </trkpt>
      <trkpt lat="47.53374" lon="3.62691">
        <ele>171</ele>
        <time>2019-04-03T13:39:07Z</time>
      </trkpt>
      <trkpt lat="47.53374" lon="3.62683">
        <ele>172</ele>
        <time>2019-04-03T13:39:12Z</time>
      </trkpt>
      <trkpt lat="47.53375" lon="3.62676">
        <ele>172</ele>
        <time>2019-04-03T13:39:17Z</time>
      </trkpt>
      <trkpt lat="47.53378" lon="3.62669">
        <ele>174</ele>
        <time>2019-04-03T13:39:23Z</time>
      </trkpt>
      <trkpt lat="47.5338" lon="3.62662">
        <ele>174</ele>
        <time>2019-04-03T13:39:27Z</time>
      </trkpt>
      <trkpt lat="47.53381" lon="3.62655">
        <ele>174</ele>
        <time>2019-04-03T13:39:31Z</time>
      </trkpt>
      <trkpt lat="47.53383" lon="3.62649">
        <ele>175</ele>
        <time>2019-04-03T13:39:34Z</time>
      </trkpt>
      <trkpt lat="47.53384" lon="3.62645">
        <ele>175</ele>
        <time>2019-04-03T13:39:36Z</time>
      </trkpt>
      <trkpt lat="47.53384" lon="3.62642">
        <ele>175</ele>
        <time>2019-04-03T13:39:38Z</time>
      </trkpt>
      <trkpt lat="47.53385" lon="3.62636">
        <ele>176</ele>
        <time>2019-04-03T13:39:42Z</time>
      </trkpt>
      <trkpt lat="47.53386" lon="3.62631">
        <ele>175</ele>
        <time>2019-04-03T13:39:45Z</time>
      </trkpt>
      <trkpt lat="47.53387" lon="3.62626">
        <ele>176</ele>
        <time>2019-04-03T13:39:48Z</time>
      </trkpt>
      <trkpt lat="47.53388" lon="3.62622">
        <ele>175</ele>
        <time>2019-04-03T13:39:50Z</time>
      </trkpt>
      <trkpt lat="47.53391" lon="3.62616">
        <ele>174</ele>
        <time>2019-04-03T13:39:54Z</time>
      </trkpt>
      <trkpt lat="47.53392" lon="3.62613">
        <ele>174</ele>
        <time>2019-04-03T13:39:56Z</time>
      </trkpt>
      <trkpt lat="47.53393" lon="3.62608">
        <ele>174</ele>
        <time>2019-04-03T13:39:59Z</time>
      </trkpt>
      <trkpt lat="47.53396" lon="3.62601">
        <ele>175</ele>
        <time>2019-04-03T13:40:05Z</time>
      </trkpt>
      <trkpt lat="47.53397" lon="3.62598">
        <ele>174</ele>
        <time>2019-04-03T13:40:07Z</time>
      </trkpt>
      <trkpt lat="47.53398" lon="3.62591">
        <ele>174</ele>
        <time>2019-04-03T13:40:10Z</time>
      </trkpt>
      <trkpt lat="47.53399" lon="3.62585">
        <ele>174</ele>
        <time>2019-04-03T13:40:13Z</time>
      </trkpt>
      <trkpt lat="47.534" lon="3.62579">
        <ele>175</ele>
        <time>2019-04-03T13:40:18Z</time>
      </trkpt>
      <trkpt lat="47.53401" lon="3.62575">
        <ele>176</ele>
        <time>2019-04-03T13:40:21Z</time>
      </trkpt>
      <trkpt lat="47.53402" lon="3.62571">
        <ele>176</ele>
        <time>2019-04-03T13:40:23Z</time>
      </trkpt>
      <trkpt lat="47.53401" lon="3.62564">
        <ele>177</ele>
        <time>2019-04-03T13:40:26Z</time>
      </trkpt>
      <trkpt lat="47.53399" lon="3.62557">
        <ele>178</ele>
        <time>2019-04-03T13:40:29Z</time>
      </trkpt>
      <trkpt lat="47.53396" lon="3.62551">
        <ele>179</ele>
        <time>2019-04-03T13:40:32Z</time>
      </trkpt>
      <trkpt lat="47.53393" lon="3.62546">
        <ele>179</ele>
        <time>2019-04-03T13:40:36Z</time>
      </trkpt>
      <trkpt lat="47.53391" lon="3.62543">
        <ele>179</ele>
        <time>2019-04-03T13:40:38Z</time>
      </trkpt>
      <trkpt lat="47.53387" lon="3.62536">
        <ele>179</ele>
        <time>2019-04-03T13:40:43Z</time>
      </trkpt>
      <trkpt lat="47.53385" lon="3.62532">
        <ele>179</ele>
        <time>2019-04-03T13:40:45Z</time>
      </trkpt>
      <trkpt lat="47.53383" lon="3.62526">
        <ele>178</ele>
        <time>2019-04-03T13:40:50Z</time>
      </trkpt>
      <trkpt lat="47.53382" lon="3.62522">
        <ele>178</ele>
        <time>2019-04-03T13:40:52Z</time>
      </trkpt>
      <trkpt lat="47.5338" lon="3.62515">
        <ele>178</ele>
        <time>2019-04-03T13:40:57Z</time>
      </trkpt>
      <trkpt lat="47.53379" lon="3.62512">
        <ele>178</ele>
        <time>2019-04-03T13:40:59Z</time>
      </trkpt>
      <trkpt lat="47.53377" lon="3.62508">
        <ele>178</ele>
        <time>2019-04-03T13:41:01Z</time>
      </trkpt>
      <trkpt lat="47.53375" lon="3.625">
        <ele>178</ele>
        <time>2019-04-03T13:41:06Z</time>
      </trkpt>
      <trkpt lat="47.53373" lon="3.62494">
        <ele>178</ele>
        <time>2019-04-03T13:41:09Z</time>
      </trkpt>
      <trkpt lat="47.5337" lon="3.62488">
        <ele>178</ele>
        <time>2019-04-03T13:41:14Z</time>
      </trkpt>
      <trkpt lat="47.53368" lon="3.62482">
        <ele>178</ele>
        <time>2019-04-03T13:41:18Z</time>
      </trkpt>
      <trkpt lat="47.53366" lon="3.62473">
        <ele>177</ele>
        <time>2019-04-03T13:41:22Z</time>
      </trkpt>
      <trkpt lat="47.53365" lon="3.62467">
        <ele>177</ele>
        <time>2019-04-03T13:41:25Z</time>
      </trkpt>
      <trkpt lat="47.53364" lon="3.62463">
        <ele>177</ele>
        <time>2019-04-03T13:41:27Z</time>
      </trkpt>
      <trkpt lat="47.53363" lon="3.62459">
        <ele>177</ele>
        <time>2019-04-03T13:41:30Z</time>
      </trkpt>
      <trkpt lat="47.53362" lon="3.62453">
        <ele>177</ele>
        <time>2019-04-03T13:41:34Z</time>
      </trkpt>
      <trkpt lat="47.53361" lon="3.62447">
        <ele>178</ele>
        <time>2019-04-03T13:41:36Z</time>
      </trkpt>
      <trkpt lat="47.5336" lon="3.62439">
        <ele>177</ele>
        <time>2019-04-03T13:41:40Z</time>
      </trkpt>
      <trkpt lat="47.53358" lon="3.62431">
        <ele>178</ele>
        <time>2019-04-03T13:41:44Z</time>
      </trkpt>
      <trkpt lat="47.53357" lon="3.62423">
        <ele>177</ele>
        <time>2019-04-03T13:41:48Z</time>
      </trkpt>
      <trkpt lat="47.53357" lon="3.62419">
        <ele>177</ele>
        <time>2019-04-03T13:41:50Z</time>
      </trkpt>
      <trkpt lat="47.53356" lon="3.62412">
        <ele>176</ele>
        <time>2019-04-03T13:41:55Z</time>
      </trkpt>
      <trkpt lat="47.53355" lon="3.62407">
        <ele>176</ele>
        <time>2019-04-03T13:41:58Z</time>
      </trkpt>
      <trkpt lat="47.53354" lon="3.62399">
        <ele>176</ele>
        <time>2019-04-03T13:42:02Z</time>
      </trkpt>
      <trkpt lat="47.53354" lon="3.62394">
        <ele>176</ele>
        <time>2019-04-03T13:42:05Z</time>
      </trkpt>
      <trkpt lat="47.53353" lon="3.62386">
        <ele>176</ele>
        <time>2019-04-03T13:42:08Z</time>
      </trkpt>
      <trkpt lat="47.53353" lon="3.62379">
        <ele>177</ele>
        <time>2019-04-03T13:42:12Z</time>
      </trkpt>
      <trkpt lat="47.53352" lon="3.62374">
        <ele>177</ele>
        <time>2019-04-03T13:42:16Z</time>
      </trkpt>
      <trkpt lat="47.53353" lon="3.62367">
        <ele>177</ele>
        <time>2019-04-03T13:42:20Z</time>
      </trkpt>
      <trkpt lat="47.53353" lon="3.6236">
        <ele>177</ele>
        <time>2019-04-03T13:42:24Z</time>
      </trkpt>
      <trkpt lat="47.53353" lon="3.62355">
        <ele>177</ele>
        <time>2019-04-03T13:42:26Z</time>
      </trkpt>
      <trkpt lat="47.53352" lon="3.62348">
        <ele>177</ele>
        <time>2019-04-03T13:42:30Z</time>
      </trkpt>
      <trkpt lat="47.53352" lon="3.62345">
        <ele>177</ele>
        <time>2019-04-03T13:42:32Z</time>
      </trkpt>
      <trkpt lat="47.53353" lon="3.62336">
        <ele>177</ele>
        <time>2019-04-03T13:42:35Z</time>
      </trkpt>
      <trkpt lat="47.53353" lon="3.62333">
        <ele>177</ele>
        <time>2019-04-03T13:42:37Z</time>
      </trkpt>
      <trkpt lat="47.53353" lon="3.62329">
        <ele>176</ele>
        <time>2019-04-03T13:42:39Z</time>
      </trkpt>
      <trkpt lat="47.53354" lon="3.62322">
        <ele>176</ele>
        <time>2019-04-03T13:42:43Z</time>
      </trkpt>
      <trkpt lat="47.53353" lon="3.62313">
        <ele>176</ele>
        <time>2019-04-03T13:42:49Z</time>
      </trkpt>
      <trkpt lat="47.53354" lon="3.62306">
        <ele>176</ele>
        <time>2019-04-03T13:42:52Z</time>
      </trkpt>
      <trkpt lat="47.53355" lon="3.623">
        <ele>176</ele>
        <time>2019-04-03T13:42:55Z</time>
      </trkpt>
      <trkpt lat="47.53356" lon="3.62293">
        <ele>176</ele>
        <time>2019-04-03T13:42:59Z</time>
      </trkpt>
      <trkpt lat="47.53357" lon="3.62285">
        <ele>176</ele>
        <time>2019-04-03T13:43:03Z</time>
      </trkpt>
      <trkpt lat="47.53358" lon="3.62278">
        <ele>177</ele>
        <time>2019-04-03T13:43:08Z</time>
      </trkpt>
      <trkpt lat="47.53359" lon="3.62275">
        <ele>177</ele>
        <time>2019-04-03T13:43:09Z</time>
      </trkpt>
      <trkpt lat="47.53359" lon="3.62271">
        <ele>176</ele>
        <time>2019-04-03T13:43:11Z</time>
      </trkpt>
      <trkpt lat="47.53362" lon="3.62262">
        <ele>176</ele>
        <time>2019-04-03T13:43:16Z</time>
      </trkpt>
      <trkpt lat="47.53364" lon="3.62255">
        <ele>176</ele>
        <time>2019-04-03T13:43:20Z</time>
      </trkpt>
      <trkpt lat="47.53367" lon="3.62249">
        <ele>177</ele>
        <time>2019-04-03T13:43:24Z</time>
      </trkpt>
      <trkpt lat="47.53369" lon="3.62241">
        <ele>177</ele>
        <time>2019-04-03T13:43:28Z</time>
      </trkpt>
      <trkpt lat="47.5337" lon="3.62233">
        <ele>177</ele>
        <time>2019-04-03T13:43:32Z</time>
      </trkpt>
      <trkpt lat="47.53372" lon="3.62226">
        <ele>177</ele>
        <time>2019-04-03T13:43:36Z</time>
      </trkpt>
      <trkpt lat="47.53374" lon="3.6222">
        <ele>177</ele>
        <time>2019-04-03T13:43:39Z</time>
      </trkpt>
      <trkpt lat="47.53375" lon="3.62216">
        <ele>177</ele>
        <time>2019-04-03T13:43:41Z</time>
      </trkpt>
      <trkpt lat="47.53377" lon="3.62212">
        <ele>176</ele>
        <time>2019-04-03T13:43:44Z</time>
      </trkpt>
      <trkpt lat="47.53378" lon="3.62209">
        <ele>176</ele>
        <time>2019-04-03T13:43:46Z</time>
      </trkpt>
      <trkpt lat="47.5338" lon="3.62205">
        <ele>177</ele>
        <time>2019-04-03T13:43:49Z</time>
      </trkpt>
      <trkpt lat="47.5338" lon="3.622">
        <ele>176</ele>
        <time>2019-04-03T13:43:56Z</time>
      </trkpt>
      <trkpt lat="47.53381" lon="3.62193">
        <ele>176</ele>
        <time>2019-04-03T13:44:10Z</time>
      </trkpt>
      <trkpt lat="47.53382" lon="3.6219">
        <ele>176</ele>
        <time>2019-04-03T13:44:13Z</time>
      </trkpt>
      <trkpt lat="47.53384" lon="3.62186">
        <ele>177</ele>
        <time>2019-04-03T13:44:15Z</time>
      </trkpt>
      <trkpt lat="47.53385" lon="3.62179">
        <ele>177</ele>
        <time>2019-04-03T13:44:19Z</time>
      </trkpt>
      <trkpt lat="47.53387" lon="3.62172">
        <ele>176</ele>
        <time>2019-04-03T13:44:23Z</time>
      </trkpt>
      <trkpt lat="47.53388" lon="3.62169">
        <ele>176</ele>
        <time>2019-04-03T13:44:25Z</time>
      </trkpt>
      <trkpt lat="47.53388" lon="3.62166">
        <ele>176</ele>
        <time>2019-04-03T13:44:27Z</time>
      </trkpt>
      <trkpt lat="47.53389" lon="3.62158">
        <ele>176</ele>
        <time>2019-04-03T13:44:31Z</time>
      </trkpt>
      <trkpt lat="47.5339" lon="3.62153">
        <ele>175</ele>
        <time>2019-04-03T13:44:34Z</time>
      </trkpt>
      <trkpt lat="47.5339" lon="3.62149">
        <ele>175</ele>
        <time>2019-04-03T13:44:36Z</time>
      </trkpt>
      <trkpt lat="47.53392" lon="3.62141">
        <ele>175</ele>
        <time>2019-04-03T13:44:41Z</time>
      </trkpt>
      <trkpt lat="47.53393" lon="3.62135">
        <ele>175</ele>
        <time>2019-04-03T13:44:45Z</time>
      </trkpt>
      <trkpt lat="47.53394" lon="3.62132">
        <ele>175</ele>
        <time>2019-04-03T13:44:47Z</time>
      </trkpt>
      <trkpt lat="47.53395" lon="3.62125">
        <ele>176</ele>
        <time>2019-04-03T13:44:51Z</time>
      </trkpt>
      <trkpt lat="47.53396" lon="3.62121">
        <ele>176</ele>
        <time>2019-04-03T13:44:53Z</time>
      </trkpt>
      <trkpt lat="47.53397" lon="3.62118">
        <ele>176</ele>
        <time>2019-04-03T13:44:55Z</time>
      </trkpt>
      <trkpt lat="47.53398" lon="3.62111">
        <ele>176</ele>
        <time>2019-04-03T13:44:58Z</time>
      </trkpt>
      <trkpt lat="47.53399" lon="3.62104">
        <ele>175</ele>
        <time>2019-04-03T13:45:02Z</time>
      </trkpt>
      <trkpt lat="47.53401" lon="3.62096">
        <ele>175</ele>
        <time>2019-04-03T13:45:05Z</time>
      </trkpt>
      <trkpt lat="47.53402" lon="3.62091">
        <ele>175</ele>
        <time>2019-04-03T13:45:08Z</time>
      </trkpt>
      <trkpt lat="47.53402" lon="3.62086">
        <ele>175</ele>
        <time>2019-04-03T13:45:12Z</time>
      </trkpt>
      <trkpt lat="47.53404" lon="3.6208">
        <ele>175</ele>
        <time>2019-04-03T13:45:16Z</time>
      </trkpt>
      <trkpt lat="47.53405" lon="3.6207">
        <ele>175</ele>
        <time>2019-04-03T13:45:20Z</time>
      </trkpt>
      <trkpt lat="47.53406" lon="3.62065">
        <ele>176</ele>
        <time>2019-04-03T13:45:23Z</time>
      </trkpt>
      <trkpt lat="47.53407" lon="3.62058">
        <ele>176</ele>
        <time>2019-04-03T13:45:28Z</time>
      </trkpt>
      <trkpt lat="47.53409" lon="3.62049">
        <ele>176</ele>
        <time>2019-04-03T13:45:33Z</time>
      </trkpt>
      <trkpt lat="47.5341" lon="3.62046">
        <ele>176</ele>
        <time>2019-04-03T13:45:35Z</time>
      </trkpt>
      <trkpt lat="47.53412" lon="3.6204">
        <ele>176</ele>
        <time>2019-04-03T13:45:38Z</time>
      </trkpt>
      <trkpt lat="47.53413" lon="3.62036">
        <ele>176</ele>
        <time>2019-04-03T13:45:40Z</time>
      </trkpt>
      <trkpt lat="47.53415" lon="3.62031">
        <ele>176</ele>
        <time>2019-04-03T13:45:43Z</time>
      </trkpt>
      <trkpt lat="47.53416" lon="3.62027">
        <ele>176</ele>
        <time>2019-04-03T13:45:45Z</time>
      </trkpt>
      <trkpt lat="47.53418" lon="3.62023">
        <ele>176</ele>
        <time>2019-04-03T13:45:48Z</time>
      </trkpt>
      <trkpt lat="47.5342" lon="3.62017">
        <ele>176</ele>
        <time>2019-04-03T13:45:51Z</time>
      </trkpt>
      <trkpt lat="47.53421" lon="3.62013">
        <ele>177</ele>
        <time>2019-04-03T13:45:54Z</time>
      </trkpt>
      <trkpt lat="47.53423" lon="3.62005">
        <ele>176</ele>
        <time>2019-04-03T13:45:58Z</time>
      </trkpt>
      <trkpt lat="47.53425" lon="3.62">
        <ele>177</ele>
        <time>2019-04-03T13:46:01Z</time>
      </trkpt>
      <trkpt lat="47.53427" lon="3.61994">
        <ele>176</ele>
        <time>2019-04-03T13:46:05Z</time>
      </trkpt>
      <trkpt lat="47.53429" lon="3.6199">
        <ele>176</ele>
        <time>2019-04-03T13:46:07Z</time>
      </trkpt>
      <trkpt lat="47.53431" lon="3.61985">
        <ele>177</ele>
        <time>2019-04-03T13:46:10Z</time>
      </trkpt>
      <trkpt lat="47.53432" lon="3.61978">
        <ele>176</ele>
        <time>2019-04-03T13:46:15Z</time>
      </trkpt>
      <trkpt lat="47.53434" lon="3.61971">
        <ele>176</ele>
        <time>2019-04-03T13:46:18Z</time>
      </trkpt>
      <trkpt lat="47.53436" lon="3.61963">
        <ele>176</ele>
        <time>2019-04-03T13:46:22Z</time>
      </trkpt>
      <trkpt lat="47.53438" lon="3.61957">
        <ele>176</ele>
        <time>2019-04-03T13:46:26Z</time>
      </trkpt>
      <trkpt lat="47.5344" lon="3.61951">
        <ele>176</ele>
        <time>2019-04-03T13:46:30Z</time>
      </trkpt>
      <trkpt lat="47.53443" lon="3.61945">
        <ele>175</ele>
        <time>2019-04-03T13:46:34Z</time>
      </trkpt>
      <trkpt lat="47.53445" lon="3.6194">
        <ele>175</ele>
        <time>2019-04-03T13:46:37Z</time>
      </trkpt>
      <trkpt lat="47.53446" lon="3.61935">
        <ele>176</ele>
        <time>2019-04-03T13:46:40Z</time>
      </trkpt>
      <trkpt lat="47.5345" lon="3.61927">
        <ele>177</ele>
        <time>2019-04-03T13:46:44Z</time>
      </trkpt>
      <trkpt lat="47.53452" lon="3.61923">
        <ele>177</ele>
        <time>2019-04-03T13:46:47Z</time>
      </trkpt>
      <trkpt lat="47.53453" lon="3.6192">
        <ele>177</ele>
        <time>2019-04-03T13:46:49Z</time>
      </trkpt>
      <trkpt lat="47.53455" lon="3.61912">
        <ele>178</ele>
        <time>2019-04-03T13:46:53Z</time>
      </trkpt>
      <trkpt lat="47.53456" lon="3.61909">
        <ele>178</ele>
        <time>2019-04-03T13:46:55Z</time>
      </trkpt>
      <trkpt lat="47.53459" lon="3.61904">
        <ele>178</ele>
        <time>2019-04-03T13:46:59Z</time>
      </trkpt>
      <trkpt lat="47.53461" lon="3.61899">
        <ele>179</ele>
        <time>2019-04-03T13:47:02Z</time>
      </trkpt>
      <trkpt lat="47.53464" lon="3.61893">
        <ele>178</ele>
        <time>2019-04-03T13:47:06Z</time>
      </trkpt>
      <trkpt lat="47.53467" lon="3.61887">
        <ele>179</ele>
        <time>2019-04-03T13:47:10Z</time>
      </trkpt>
      <trkpt lat="47.5347" lon="3.61879">
        <ele>178</ele>
        <time>2019-04-03T13:47:15Z</time>
      </trkpt>
      <trkpt lat="47.53473" lon="3.61874">
        <ele>178</ele>
        <time>2019-04-03T13:47:18Z</time>
      </trkpt>
      <trkpt lat="47.53475" lon="3.61869">
        <ele>178</ele>
        <time>2019-04-03T13:47:21Z</time>
      </trkpt>
      <trkpt lat="47.53478" lon="3.61863">
        <ele>178</ele>
        <time>2019-04-03T13:47:25Z</time>
      </trkpt>
      <trkpt lat="47.53479" lon="3.6186">
        <ele>179</ele>
        <time>2019-04-03T13:47:27Z</time>
      </trkpt>
      <trkpt lat="47.53482" lon="3.61853">
        <ele>179</ele>
        <time>2019-04-03T13:47:31Z</time>
      </trkpt>
      <trkpt lat="47.53485" lon="3.61846">
        <ele>179</ele>
        <time>2019-04-03T13:47:36Z</time>
      </trkpt>
      <trkpt lat="47.53487" lon="3.61842">
        <ele>180</ele>
        <time>2019-04-03T13:47:39Z</time>
      </trkpt>
      <trkpt lat="47.53489" lon="3.61837">
        <ele>179</ele>
        <time>2019-04-03T13:47:42Z</time>
      </trkpt>
      <trkpt lat="47.53491" lon="3.61831">
        <ele>179</ele>
        <time>2019-04-03T13:47:45Z</time>
      </trkpt>
      <trkpt lat="47.53493" lon="3.61828">
        <ele>178</ele>
        <time>2019-04-03T13:47:47Z</time>
      </trkpt>
      <trkpt lat="47.53495" lon="3.61825">
        <ele>178</ele>
        <time>2019-04-03T13:47:49Z</time>
      </trkpt>
      <trkpt lat="47.53497" lon="3.61816">
        <ele>178</ele>
        <time>2019-04-03T13:47:54Z</time>
      </trkpt>
      <trkpt lat="47.535" lon="3.61809">
        <ele>178</ele>
        <time>2019-04-03T13:47:58Z</time>
      </trkpt>
      <trkpt lat="47.53504" lon="3.61803">
        <ele>178</ele>
        <time>2019-04-03T13:48:02Z</time>
      </trkpt>
      <trkpt lat="47.53507" lon="3.61798">
        <ele>179</ele>
        <time>2019-04-03T13:48:06Z</time>
      </trkpt>
      <trkpt lat="47.53509" lon="3.61794">
        <ele>178</ele>
        <time>2019-04-03T13:48:08Z</time>
      </trkpt>
      <trkpt lat="47.53512" lon="3.61787">
        <ele>178</ele>
        <time>2019-04-03T13:48:12Z</time>
      </trkpt>
      <trkpt lat="47.53513" lon="3.61783">
        <ele>177</ele>
        <time>2019-04-03T13:48:15Z</time>
      </trkpt>
      <trkpt lat="47.53516" lon="3.61778">
        <ele>177</ele>
        <time>2019-04-03T13:48:19Z</time>
      </trkpt>
      <trkpt lat="47.53519" lon="3.61772">
        <ele>178</ele>
        <time>2019-04-03T13:48:23Z</time>
      </trkpt>
      <trkpt lat="47.53521" lon="3.61769">
        <ele>178</ele>
        <time>2019-04-03T13:48:25Z</time>
      </trkpt>
      <trkpt lat="47.53523" lon="3.61764">
        <ele>179</ele>
        <time>2019-04-03T13:48:28Z</time>
      </trkpt>
      <trkpt lat="47.53526" lon="3.6176">
        <ele>179</ele>
        <time>2019-04-03T13:48:31Z</time>
      </trkpt>
      <trkpt lat="47.53528" lon="3.61753">
        <ele>178</ele>
        <time>2019-04-03T13:48:35Z</time>
      </trkpt>
      <trkpt lat="47.5353" lon="3.6175">
        <ele>178</ele>
        <time>2019-04-03T13:48:37Z</time>
      </trkpt>
      <trkpt lat="47.53531" lon="3.61747">
        <ele>178</ele>
        <time>2019-04-03T13:48:39Z</time>
      </trkpt>
      <trkpt lat="47.53532" lon="3.61744">
        <ele>178</ele>
        <time>2019-04-03T13:48:41Z</time>
      </trkpt>
      <trkpt lat="47.53534" lon="3.61739">
        <ele>177</ele>
        <time>2019-04-03T13:48:44Z</time>
      </trkpt>
      <trkpt lat="47.53537" lon="3.61732">
        <ele>177</ele>
        <time>2019-04-03T13:48:49Z</time>
      </trkpt>
      <trkpt lat="47.53538" lon="3.61728">
        <ele>178</ele>
        <time>2019-04-03T13:48:51Z</time>
      </trkpt>
      <trkpt lat="47.5354" lon="3.61724">
        <ele>179</ele>
        <time>2019-04-03T13:48:54Z</time>
      </trkpt>
      <trkpt lat="47.53544" lon="3.6172">
        <ele>178</ele>
        <time>2019-04-03T13:48:58Z</time>
      </trkpt>
      <trkpt lat="47.53547" lon="3.61711">
        <ele>178</ele>
        <time>2019-04-03T13:49:04Z</time>
      </trkpt>
      <trkpt lat="47.53551" lon="3.61705">
        <ele>178</ele>
        <time>2019-04-03T13:49:08Z</time>
      </trkpt>
      <trkpt lat="47.53553" lon="3.61699">
        <ele>179</ele>
        <time>2019-04-03T13:49:12Z</time>
      </trkpt>
      <trkpt lat="47.53555" lon="3.61694">
        <ele>178</ele>
        <time>2019-04-03T13:49:15Z</time>
      </trkpt>
      <trkpt lat="47.53557" lon="3.61689">
        <ele>178</ele>
        <time>2019-04-03T13:49:18Z</time>
      </trkpt>
      <trkpt lat="47.5356" lon="3.61683">
        <ele>178</ele>
        <time>2019-04-03T13:49:22Z</time>
      </trkpt>
      <trkpt lat="47.53564" lon="3.61675">
        <ele>179</ele>
        <time>2019-04-03T13:49:27Z</time>
      </trkpt>
      <trkpt lat="47.53565" lon="3.61671">
        <ele>179</ele>
        <time>2019-04-03T13:49:29Z</time>
      </trkpt>
      <trkpt lat="47.53566" lon="3.61668">
        <ele>179</ele>
        <time>2019-04-03T13:49:31Z</time>
      </trkpt>
      <trkpt lat="47.53567" lon="3.61665">
        <ele>179</ele>
        <time>2019-04-03T13:49:33Z</time>
      </trkpt>
      <trkpt lat="47.53569" lon="3.61658">
        <ele>179</ele>
        <time>2019-04-03T13:49:36Z</time>
      </trkpt>
      <trkpt lat="47.53571" lon="3.61654">
        <ele>180</ele>
        <time>2019-04-03T13:49:38Z</time>
      </trkpt>
      <trkpt lat="47.53574" lon="3.61649">
        <ele>180</ele>
        <time>2019-04-03T13:49:41Z</time>
      </trkpt>
      <trkpt lat="47.53576" lon="3.61644">
        <ele>180</ele>
        <time>2019-04-03T13:49:44Z</time>
      </trkpt>
      <trkpt lat="47.53578" lon="3.61641">
        <ele>180</ele>
        <time>2019-04-03T13:49:46Z</time>
      </trkpt>
      <trkpt lat="47.53582" lon="3.61636">
        <ele>180</ele>
        <time>2019-04-03T13:49:50Z</time>
      </trkpt>
      <trkpt lat="47.53584" lon="3.61633">
        <ele>180</ele>
        <time>2019-04-03T13:49:52Z</time>
      </trkpt>
      <trkpt lat="47.53586" lon="3.6163">
        <ele>180</ele>
        <time>2019-04-03T13:49:54Z</time>
      </trkpt>
      <trkpt lat="47.53589" lon="3.61624">
        <ele>180</ele>
        <time>2019-04-03T13:49:58Z</time>
      </trkpt>
      <trkpt lat="47.53592" lon="3.61619">
        <ele>181</ele>
        <time>2019-04-03T13:50:02Z</time>
      </trkpt>
      <trkpt lat="47.53595" lon="3.61614">
        <ele>181</ele>
        <time>2019-04-03T13:50:05Z</time>
      </trkpt>
      <trkpt lat="47.53599" lon="3.61609">
        <ele>182</ele>
        <time>2019-04-03T13:50:09Z</time>
      </trkpt>
      <trkpt lat="47.53603" lon="3.61605">
        <ele>182</ele>
        <time>2019-04-03T13:50:13Z</time>
      </trkpt>
      <trkpt lat="47.53605" lon="3.61603">
        <ele>181</ele>
        <time>2019-04-03T13:50:15Z</time>
      </trkpt>
      <trkpt lat="47.53609" lon="3.61595">
        <ele>183</ele>
        <time>2019-04-03T13:50:20Z</time>
      </trkpt>
      <trkpt lat="47.53612" lon="3.6159">
        <ele>183</ele>
        <time>2019-04-03T13:50:23Z</time>
      </trkpt>
      <trkpt lat="47.53615" lon="3.61584">
        <ele>183</ele>
        <time>2019-04-03T13:50:27Z</time>
      </trkpt>
      <trkpt lat="47.53617" lon="3.6158">
        <ele>182</ele>
        <time>2019-04-03T13:50:30Z</time>
      </trkpt>
      <trkpt lat="47.53618" lon="3.61577">
        <ele>182</ele>
        <time>2019-04-03T13:50:32Z</time>
      </trkpt>
      <trkpt lat="47.53622" lon="3.61571">
        <ele>182</ele>
        <time>2019-04-03T13:50:36Z</time>
      </trkpt>
      <trkpt lat="47.53626" lon="3.61564">
        <ele>183</ele>
        <time>2019-04-03T13:50:42Z</time>
      </trkpt>
      <trkpt lat="47.53628" lon="3.6156">
        <ele>182</ele>
        <time>2019-04-03T13:50:45Z</time>
      </trkpt>
      <trkpt lat="47.53632" lon="3.61555">
        <ele>183</ele>
        <time>2019-04-03T13:50:49Z</time>
      </trkpt>
      <trkpt lat="47.53637" lon="3.61547">
        <ele>182</ele>
        <time>2019-04-03T13:50:54Z</time>
      </trkpt>
      <trkpt lat="47.53639" lon="3.61543">
        <ele>181</ele>
        <time>2019-04-03T13:50:57Z</time>
      </trkpt>
      <trkpt lat="47.53643" lon="3.61538">
        <ele>180</ele>
        <time>2019-04-03T13:51:00Z</time>
      </trkpt>
      <trkpt lat="47.53645" lon="3.61536">
        <ele>180</ele>
        <time>2019-04-03T13:51:02Z</time>
      </trkpt>
      <trkpt lat="47.53647" lon="3.61533">
        <ele>180</ele>
        <time>2019-04-03T13:51:04Z</time>
      </trkpt>
      <trkpt lat="47.53649" lon="3.6153">
        <ele>180</ele>
        <time>2019-04-03T13:51:06Z</time>
      </trkpt>
      <trkpt lat="47.5365" lon="3.61527">
        <ele>179</ele>
        <time>2019-04-03T13:51:08Z</time>
      </trkpt>
      <trkpt lat="47.53652" lon="3.61524">
        <ele>179</ele>
        <time>2019-04-03T13:51:10Z</time>
      </trkpt>
      <trkpt lat="47.53656" lon="3.61519">
        <ele>181</ele>
        <time>2019-04-03T13:51:14Z</time>
      </trkpt>
      <trkpt lat="47.53658" lon="3.61515">
        <ele>181</ele>
        <time>2019-04-03T13:51:16Z</time>
      </trkpt>
      <trkpt lat="47.53663" lon="3.61508">
        <ele>182</ele>
        <time>2019-04-03T13:51:22Z</time>
      </trkpt>
      <trkpt lat="47.53668" lon="3.61501">
        <ele>181</ele>
        <time>2019-04-03T13:51:26Z</time>
      </trkpt>
      <trkpt lat="47.5367" lon="3.61498">
        <ele>181</ele>
        <time>2019-04-03T13:51:28Z</time>
      </trkpt>
      <trkpt lat="47.53673" lon="3.61493">
        <ele>181</ele>
        <time>2019-04-03T13:51:32Z</time>
      </trkpt>
      <trkpt lat="47.53676" lon="3.61488">
        <ele>180</ele>
        <time>2019-04-03T13:51:35Z</time>
      </trkpt>
      <trkpt lat="47.53678" lon="3.61485">
        <ele>180</ele>
        <time>2019-04-03T13:51:38Z</time>
      </trkpt>
      <trkpt lat="47.53681" lon="3.6148">
        <ele>181</ele>
        <time>2019-04-03T13:51:42Z</time>
      </trkpt>
      <trkpt lat="47.53684" lon="3.61474">
        <ele>180</ele>
        <time>2019-04-03T13:51:47Z</time>
      </trkpt>
      <trkpt lat="47.53687" lon="3.61469">
        <ele>181</ele>
        <time>2019-04-03T13:51:50Z</time>
      </trkpt>
      <trkpt lat="47.5369" lon="3.61463">
        <ele>181</ele>
        <time>2019-04-03T13:51:55Z</time>
      </trkpt>
      <trkpt lat="47.53694" lon="3.61456">
        <ele>181</ele>
        <time>2019-04-03T13:51:59Z</time>
      </trkpt>
      <trkpt lat="47.537" lon="3.61447">
        <ele>180</ele>
        <time>2019-04-03T13:52:03Z</time>
      </trkpt>
      <trkpt lat="47.53704" lon="3.61443">
        <ele>180</ele>
        <time>2019-04-03T13:52:08Z</time>
      </trkpt>
      <trkpt lat="47.53708" lon="3.61436">
        <ele>179</ele>
        <time>2019-04-03T13:52:13Z</time>
      </trkpt>
      <trkpt lat="47.53709" lon="3.61433">
        <ele>178</ele>
        <time>2019-04-03T13:52:15Z</time>
      </trkpt>
      <trkpt lat="47.53712" lon="3.61427">
        <ele>176</ele>
        <time>2019-04-03T13:52:19Z</time>
      </trkpt>
      <trkpt lat="47.53714" lon="3.61423">
        <ele>176</ele>
        <time>2019-04-03T13:52:22Z</time>
      </trkpt>
      <trkpt lat="47.53721" lon="3.61416">
        <ele>178</ele>
        <time>2019-04-03T13:52:28Z</time>
      </trkpt>
      <trkpt lat="47.53724" lon="3.6141">
        <ele>177</ele>
        <time>2019-04-03T13:52:32Z</time>
      </trkpt>
      <trkpt lat="47.53727" lon="3.61405">
        <ele>177</ele>
        <time>2019-04-03T13:52:36Z</time>
      </trkpt>
      <trkpt lat="47.53732" lon="3.61399">
        <ele>176</ele>
        <time>2019-04-03T13:52:41Z</time>
      </trkpt>
      <trkpt lat="47.53735" lon="3.61395">
        <ele>177</ele>
        <time>2019-04-03T13:52:44Z</time>
      </trkpt>
      <trkpt lat="47.53741" lon="3.61388">
        <ele>177</ele>
        <time>2019-04-03T13:52:50Z</time>
      </trkpt>
      <trkpt lat="47.53744" lon="3.61383">
        <ele>178</ele>
        <time>2019-04-03T13:52:53Z</time>
      </trkpt>
      <trkpt lat="47.53746" lon="3.6138">
        <ele>178</ele>
        <time>2019-04-03T13:52:55Z</time>
      </trkpt>
      <trkpt lat="47.53748" lon="3.61377">
        <ele>178</ele>
        <time>2019-04-03T13:52:57Z</time>
      </trkpt>
      <trkpt lat="47.53752" lon="3.61373">
        <ele>178</ele>
        <time>2019-04-03T13:53:01Z</time>
      </trkpt>
      <trkpt lat="47.53754" lon="3.6137">
        <ele>178</ele>
        <time>2019-04-03T13:53:03Z</time>
      </trkpt>
      <trkpt lat="47.53758" lon="3.61365">
        <ele>178</ele>
        <time>2019-04-03T13:53:06Z</time>
      </trkpt>
      <trkpt lat="47.53761" lon="3.6136">
        <ele>179</ele>
        <time>2019-04-03T13:53:10Z</time>
      </trkpt>
      <trkpt lat="47.53765" lon="3.61354">
        <ele>179</ele>
        <time>2019-04-03T13:53:14Z</time>
      </trkpt>
      <trkpt lat="47.53767" lon="3.6135">
        <ele>179</ele>
        <time>2019-04-03T13:53:17Z</time>
      </trkpt>
      <trkpt lat="47.53772" lon="3.61346">
        <ele>179</ele>
        <time>2019-04-03T13:53:22Z</time>
      </trkpt>
      <trkpt lat="47.53776" lon="3.61341">
        <ele>179</ele>
        <time>2019-04-03T13:53:26Z</time>
      </trkpt>
      <trkpt lat="47.5378" lon="3.61334">
        <ele>178</ele>
        <time>2019-04-03T13:53:30Z</time>
      </trkpt>
      <trkpt lat="47.53783" lon="3.61329">
        <ele>178</ele>
        <time>2019-04-03T13:53:34Z</time>
      </trkpt>
      <trkpt lat="47.53787" lon="3.61323">
        <ele>177</ele>
        <time>2019-04-03T13:53:38Z</time>
      </trkpt>
      <trkpt lat="47.53791" lon="3.61318">
        <ele>177</ele>
        <time>2019-04-03T13:53:42Z</time>
      </trkpt>
      <trkpt lat="47.53795" lon="3.61311">
        <ele>177</ele>
        <time>2019-04-03T13:53:46Z</time>
      </trkpt>
      <trkpt lat="47.53799" lon="3.61307">
        <ele>177</ele>
        <time>2019-04-03T13:53:49Z</time>
      </trkpt>
      <trkpt lat="47.53802" lon="3.61302">
        <ele>177</ele>
        <time>2019-04-03T13:53:53Z</time>
      </trkpt>
      <trkpt lat="47.53807" lon="3.61298">
        <ele>178</ele>
        <time>2019-04-03T13:53:57Z</time>
      </trkpt>
      <trkpt lat="47.5381" lon="3.61295">
        <ele>179</ele>
        <time>2019-04-03T13:53:59Z</time>
      </trkpt>
      <trkpt lat="47.53814" lon="3.6129">
        <ele>179</ele>
        <time>2019-04-03T13:54:03Z</time>
      </trkpt>
      <trkpt lat="47.53817" lon="3.61285">
        <ele>181</ele>
        <time>2019-04-03T13:54:07Z</time>
      </trkpt>
      <trkpt lat="47.5382" lon="3.61282">
        <ele>182</ele>
        <time>2019-04-03T13:54:09Z</time>
      </trkpt>
      <trkpt lat="47.53824" lon="3.61277">
        <ele>182</ele>
        <time>2019-04-03T13:54:13Z</time>
      </trkpt>
      <trkpt lat="47.5383" lon="3.61271">
        <ele>181</ele>
        <time>2019-04-03T13:54:18Z</time>
      </trkpt>
      <trkpt lat="47.53832" lon="3.61267">
        <ele>182</ele>
        <time>2019-04-03T13:54:21Z</time>
      </trkpt>
      <trkpt lat="47.53836" lon="3.61262">
        <ele>182</ele>
        <time>2019-04-03T13:54:26Z</time>
      </trkpt>
      <trkpt lat="47.5384" lon="3.61256">
        <ele>183</ele>
        <time>2019-04-03T13:54:31Z</time>
      </trkpt>
      <trkpt lat="47.53843" lon="3.6125">
        <ele>181</ele>
        <time>2019-04-03T13:54:36Z</time>
      </trkpt>
      <trkpt lat="47.53846" lon="3.61245">
        <ele>181</ele>
        <time>2019-04-03T13:54:39Z</time>
      </trkpt>
      <trkpt lat="47.53848" lon="3.61242">
        <ele>181</ele>
        <time>2019-04-03T13:54:41Z</time>
      </trkpt>
      <trkpt lat="47.53853" lon="3.61238">
        <ele>181</ele>
        <time>2019-04-03T13:54:45Z</time>
      </trkpt>
      <trkpt lat="47.53857" lon="3.61233">
        <ele>180</ele>
        <time>2019-04-03T13:54:49Z</time>
      </trkpt>
      <trkpt lat="47.5386" lon="3.61229">
        <ele>179</ele>
        <time>2019-04-03T13:54:53Z</time>
      </trkpt>
      <trkpt lat="47.53864" lon="3.61222">
        <ele>179</ele>
        <time>2019-04-03T13:54:58Z</time>
      </trkpt>
      <trkpt lat="47.53868" lon="3.61218">
        <ele>179</ele>
        <time>2019-04-03T13:55:01Z</time>
      </trkpt>
      <trkpt lat="47.53872" lon="3.61214">
        <ele>179</ele>
        <time>2019-04-03T13:55:05Z</time>
      </trkpt>
      <trkpt lat="47.53874" lon="3.61212">
        <ele>178</ele>
        <time>2019-04-03T13:55:07Z</time>
      </trkpt>
      <trkpt lat="47.53877" lon="3.61208">
        <ele>179</ele>
        <time>2019-04-03T13:55:10Z</time>
      </trkpt>
      <trkpt lat="47.5388" lon="3.61202">
        <ele>179</ele>
        <time>2019-04-03T13:55:13Z</time>
      </trkpt>
      <trkpt lat="47.53886" lon="3.61198">
        <ele>180</ele>
        <time>2019-04-03T13:55:19Z</time>
      </trkpt>
      <trkpt lat="47.5389" lon="3.61193">
        <ele>181</ele>
        <time>2019-04-03T13:55:24Z</time>
      </trkpt>
      <trkpt lat="47.53893" lon="3.61191">
        <ele>181</ele>
        <time>2019-04-03T13:55:26Z</time>
      </trkpt>
      <trkpt lat="47.53894" lon="3.61189">
        <ele>182</ele>
        <time>2019-04-03T13:55:28Z</time>
      </trkpt>
      <trkpt lat="47.53897" lon="3.61187">
        <ele>182</ele>
        <time>2019-04-03T13:55:30Z</time>
      </trkpt>
      <trkpt lat="47.539" lon="3.6118">
        <ele>183</ele>
        <time>2019-04-03T13:55:34Z</time>
      </trkpt>
      <trkpt lat="47.53902" lon="3.61177">
        <ele>183</ele>
        <time>2019-04-03T13:55:37Z</time>
      </trkpt>
      <trkpt lat="47.53904" lon="3.61173">
        <ele>183</ele>
        <time>2019-04-03T13:55:40Z</time>
      </trkpt>
      <trkpt lat="47.53909" lon="3.61168">
        <ele>184</ele>
        <time>2019-04-03T13:55:44Z</time>
      </trkpt>
      <trkpt lat="47.53912" lon="3.61163">
        <ele>184</ele>
        <time>2019-04-03T13:55:48Z</time>
      </trkpt>
      <trkpt lat="47.53918" lon="3.61157">
        <ele>184</ele>
        <time>2019-04-03T13:55:53Z</time>
      </trkpt>
      <trkpt lat="47.53923" lon="3.61152">
        <ele>183</ele>
        <time>2019-04-03T13:55:57Z</time>
      </trkpt>
      <trkpt lat="47.53926" lon="3.61149">
        <ele>183</ele>
        <time>2019-04-03T13:56:00Z</time>
      </trkpt>
      <trkpt lat="47.53929" lon="3.61146">
        <ele>184</ele>
        <time>2019-04-03T13:56:02Z</time>
      </trkpt>
      <trkpt lat="47.53932" lon="3.61141">
        <ele>184</ele>
        <time>2019-04-03T13:56:06Z</time>
      </trkpt>
      <trkpt lat="47.53936" lon="3.61137">
        <ele>184</ele>
        <time>2019-04-03T13:56:10Z</time>
      </trkpt>
      <trkpt lat="47.53938" lon="3.61135">
        <ele>186</ele>
        <time>2019-04-03T13:56:12Z</time>
      </trkpt>
      <trkpt lat="47.5394" lon="3.61132">
        <ele>186</ele>
        <time>2019-04-03T13:56:14Z</time>
      </trkpt>
      <trkpt lat="47.53943" lon="3.61129">
        <ele>186</ele>
        <time>2019-04-03T13:56:17Z</time>
      </trkpt>
      <trkpt lat="47.53946" lon="3.61123">
        <ele>186</ele>
        <time>2019-04-03T13:56:21Z</time>
      </trkpt>
      <trkpt lat="47.5395" lon="3.61119">
        <ele>186</ele>
        <time>2019-04-03T13:56:25Z</time>
      </trkpt>
      <trkpt lat="47.53952" lon="3.61117">
        <ele>186</ele>
        <time>2019-04-03T13:56:27Z</time>
      </trkpt>
      <trkpt lat="47.53955" lon="3.61112">
        <ele>187</ele>
        <time>2019-04-03T13:56:31Z</time>
      </trkpt>
      <trkpt lat="47.53961" lon="3.61104">
        <ele>187</ele>
        <time>2019-04-03T13:56:37Z</time>
      </trkpt>
      <trkpt lat="47.53965" lon="3.61098">
        <ele>187</ele>
        <time>2019-04-03T13:56:41Z</time>
      </trkpt>
      <trkpt lat="47.53972" lon="3.61093">
        <ele>188</ele>
        <time>2019-04-03T13:56:47Z</time>
      </trkpt>
      <trkpt lat="47.53975" lon="3.61086">
        <ele>187</ele>
        <time>2019-04-03T13:56:51Z</time>
      </trkpt>
      <trkpt lat="47.53981" lon="3.61082">
        <ele>186</ele>
        <time>2019-04-03T13:56:55Z</time>
      </trkpt>
      <trkpt lat="47.53985" lon="3.61077">
        <ele>186</ele>
        <time>2019-04-03T13:56:59Z</time>
      </trkpt>
      <trkpt lat="47.53987" lon="3.61075">
        <ele>187</ele>
        <time>2019-04-03T13:57:03Z</time>
      </trkpt>
      <trkpt lat="47.5399" lon="3.61068">
        <ele>187</ele>
        <time>2019-04-03T13:57:06Z</time>
      </trkpt>
      <trkpt lat="47.53996" lon="3.61061">
        <ele>187</ele>
        <time>2019-04-03T13:57:13Z</time>
      </trkpt>
      <trkpt lat="47.54" lon="3.61052">
        <ele>187</ele>
        <time>2019-04-03T13:57:20Z</time>
      </trkpt>
      <trkpt lat="47.54004" lon="3.61049">
        <ele>187</ele>
        <time>2019-04-03T13:57:26Z</time>
      </trkpt>
      <trkpt lat="47.54007" lon="3.61044">
        <ele>186</ele>
        <time>2019-04-03T13:57:30Z</time>
      </trkpt>
      <trkpt lat="47.5401" lon="3.61041">
        <ele>187</ele>
        <time>2019-04-03T13:57:32Z</time>
      </trkpt>
      <trkpt lat="47.54012" lon="3.61037">
        <ele>187</ele>
        <time>2019-04-03T13:57:35Z</time>
      </trkpt>
      <trkpt lat="47.54015" lon="3.61031">
        <ele>187</ele>
        <time>2019-04-03T13:57:40Z</time>
      </trkpt>
      <trkpt lat="47.5402" lon="3.61025">
        <ele>187</ele>
        <time>2019-04-03T13:57:44Z</time>
      </trkpt>
      <trkpt lat="47.54023" lon="3.61022">
        <ele>187</ele>
        <time>2019-04-03T13:57:46Z</time>
      </trkpt>
      <trkpt lat="47.54026" lon="3.61017">
        <ele>187</ele>
        <time>2019-04-03T13:57:49Z</time>
      </trkpt>
      <trkpt lat="47.54029" lon="3.61012">
        <ele>187</ele>
        <time>2019-04-03T13:57:53Z</time>
      </trkpt>
      <trkpt lat="47.54032" lon="3.61005">
        <ele>186</ele>
        <time>2019-04-03T13:57:56Z</time>
      </trkpt>
      <trkpt lat="47.54037" lon="3.60998">
        <ele>187</ele>
        <time>2019-04-03T13:58:00Z</time>
      </trkpt>
      <trkpt lat="47.5404" lon="3.60992">
        <ele>186</ele>
        <time>2019-04-03T13:58:03Z</time>
      </trkpt>
      <trkpt lat="47.54044" lon="3.60988">
        <ele>185</ele>
        <time>2019-04-03T13:58:07Z</time>
      </trkpt>
      <trkpt lat="47.54048" lon="3.60981">
        <ele>184</ele>
        <time>2019-04-03T13:58:12Z</time>
      </trkpt>
      <trkpt lat="47.54052" lon="3.60977">
        <ele>182</ele>
        <time>2019-04-03T13:58:17Z</time>
      </trkpt>
      <trkpt lat="47.54057" lon="3.60969">
        <ele>183</ele>
        <time>2019-04-03T13:58:24Z</time>
      </trkpt>
      <trkpt lat="47.5406" lon="3.60965">
        <ele>182</ele>
        <time>2019-04-03T13:58:27Z</time>
      </trkpt>
      <trkpt lat="47.54064" lon="3.60961">
        <ele>180</ele>
        <time>2019-04-03T13:58:31Z</time>
      </trkpt>
      <trkpt lat="47.54068" lon="3.60958">
        <ele>179</ele>
        <time>2019-04-03T13:58:34Z</time>
      </trkpt>
      <trkpt lat="47.54071" lon="3.60952">
        <ele>180</ele>
        <time>2019-04-03T13:58:38Z</time>
      </trkpt>
      <trkpt lat="47.54074" lon="3.60946">
        <ele>180</ele>
        <time>2019-04-03T13:58:41Z</time>
      </trkpt>
      <trkpt lat="47.54077" lon="3.6094">
        <ele>182</ele>
        <time>2019-04-03T13:58:45Z</time>
      </trkpt>
      <trkpt lat="47.54081" lon="3.60935">
        <ele>183</ele>
        <time>2019-04-03T13:58:49Z</time>
      </trkpt>
      <trkpt lat="47.54085" lon="3.60929">
        <ele>184</ele>
        <time>2019-04-03T13:58:53Z</time>
      </trkpt>
      <trkpt lat="47.54089" lon="3.60925">
        <ele>183</ele>
        <time>2019-04-03T13:58:57Z</time>
      </trkpt>
      <trkpt lat="47.54091" lon="3.60923">
        <ele>183</ele>
        <time>2019-04-03T13:59:00Z</time>
      </trkpt>
      <trkpt lat="47.54093" lon="3.60921">
        <ele>183</ele>
        <time>2019-04-03T13:59:02Z</time>
      </trkpt>
      <trkpt lat="47.54098" lon="3.60917">
        <ele>182</ele>
        <time>2019-04-03T13:59:06Z</time>
      </trkpt>
      <trkpt lat="47.54101" lon="3.60911">
        <ele>182</ele>
        <time>2019-04-03T13:59:10Z</time>
      </trkpt>
      <trkpt lat="47.54104" lon="3.60907">
        <ele>182</ele>
        <time>2019-04-03T13:59:13Z</time>
      </trkpt>
      <trkpt lat="47.54105" lon="3.60904">
        <ele>183</ele>
        <time>2019-04-03T13:59:15Z</time>
      </trkpt>
      <trkpt lat="47.54108" lon="3.60901">
        <ele>183</ele>
        <time>2019-04-03T13:59:18Z</time>
      </trkpt>
      <trkpt lat="47.54111" lon="3.60897">
        <ele>182</ele>
        <time>2019-04-03T13:59:21Z</time>
      </trkpt>
      <trkpt lat="47.54114" lon="3.6089">
        <ele>183</ele>
        <time>2019-04-03T13:59:25Z</time>
      </trkpt>
      <trkpt lat="47.54117" lon="3.60884">
        <ele>183</ele>
        <time>2019-04-03T13:59:29Z</time>
      </trkpt>
      <trkpt lat="47.54121" lon="3.60879">
        <ele>184</ele>
        <time>2019-04-03T13:59:32Z</time>
      </trkpt>
      <trkpt lat="47.54123" lon="3.60876">
        <ele>184</ele>
        <time>2019-04-03T13:59:35Z</time>
      </trkpt>
      <trkpt lat="47.54127" lon="3.60872">
        <ele>186</ele>
        <time>2019-04-03T13:59:39Z</time>
      </trkpt>
      <trkpt lat="47.54129" lon="3.6087">
        <ele>187</ele>
        <time>2019-04-03T13:59:41Z</time>
      </trkpt>
      <trkpt lat="47.54134" lon="3.60862">
        <ele>186</ele>
        <time>2019-04-03T13:59:47Z</time>
      </trkpt>
      <trkpt lat="47.54138" lon="3.60859">
        <ele>186</ele>
        <time>2019-04-03T13:59:50Z</time>
      </trkpt>
      <trkpt lat="47.54143" lon="3.60855">
        <ele>185</ele>
        <time>2019-04-03T13:59:54Z</time>
      </trkpt>
      <trkpt lat="47.54145" lon="3.60852">
        <ele>185</ele>
        <time>2019-04-03T13:59:56Z</time>
      </trkpt>
      <trkpt lat="47.54149" lon="3.60848">
        <ele>185</ele>
        <time>2019-04-03T13:59:59Z</time>
      </trkpt>
      <trkpt lat="47.54152" lon="3.60842">
        <ele>185</ele>
        <time>2019-04-03T14:00:02Z</time>
      </trkpt>
      <trkpt lat="47.54155" lon="3.60838">
        <ele>185</ele>
        <time>2019-04-03T14:00:05Z</time>
      </trkpt>
      <trkpt lat="47.5416" lon="3.6083">
        <ele>185</ele>
        <time>2019-04-03T14:00:11Z</time>
      </trkpt>
      <trkpt lat="47.54162" lon="3.60824">
        <ele>185</ele>
        <time>2019-04-03T14:00:16Z</time>
      </trkpt>
      <trkpt lat="47.54164" lon="3.60818">
        <ele>184</ele>
        <time>2019-04-03T14:00:19Z</time>
      </trkpt>
      <trkpt lat="47.54169" lon="3.60812">
        <ele>185</ele>
        <time>2019-04-03T14:00:23Z</time>
      </trkpt>
      <trkpt lat="47.54174" lon="3.60808">
        <ele>182</ele>
        <time>2019-04-03T14:00:27Z</time>
      </trkpt>
      <trkpt lat="47.54177" lon="3.60805">
        <ele>182</ele>
        <time>2019-04-03T14:00:29Z</time>
      </trkpt>
      <trkpt lat="47.5418" lon="3.60802">
        <ele>183</ele>
        <time>2019-04-03T14:00:31Z</time>
      </trkpt>
      <trkpt lat="47.54185" lon="3.60795">
        <ele>183</ele>
        <time>2019-04-03T14:00:37Z</time>
      </trkpt>
      <trkpt lat="47.54187" lon="3.60791">
        <ele>185</ele>
        <time>2019-04-03T14:00:40Z</time>
      </trkpt>
      <trkpt lat="47.54189" lon="3.60788">
        <ele>184</ele>
        <time>2019-04-03T14:00:43Z</time>
      </trkpt>
      <trkpt lat="47.54192" lon="3.60784">
        <ele>185</ele>
        <time>2019-04-03T14:00:46Z</time>
      </trkpt>
      <trkpt lat="47.54197" lon="3.60777">
        <ele>188</ele>
        <time>2019-04-03T14:00:53Z</time>
      </trkpt>
      <trkpt lat="47.542" lon="3.60772">
        <ele>188</ele>
        <time>2019-04-03T14:00:58Z</time>
      </trkpt>
      <trkpt lat="47.54202" lon="3.60768">
        <ele>188</ele>
        <time>2019-04-03T14:01:00Z</time>
      </trkpt>
      <trkpt lat="47.54207" lon="3.60763">
        <ele>189</ele>
        <time>2019-04-03T14:01:04Z</time>
      </trkpt>
      <trkpt lat="47.54211" lon="3.60754">
        <ele>189</ele>
        <time>2019-04-03T14:01:09Z</time>
      </trkpt>
      <trkpt lat="47.54216" lon="3.60748">
        <ele>187</ele>
        <time>2019-04-03T14:01:13Z</time>
      </trkpt>
      <trkpt lat="47.54219" lon="3.60742">
        <ele>187</ele>
        <time>2019-04-03T14:01:16Z</time>
      </trkpt>
      <trkpt lat="47.54221" lon="3.60738">
        <ele>186</ele>
        <time>2019-04-03T14:01:20Z</time>
      </trkpt>
      <trkpt lat="47.54226" lon="3.60732">
        <ele>184</ele>
        <time>2019-04-03T14:01:28Z</time>
      </trkpt>
      <trkpt lat="47.54231" lon="3.60727">
        <ele>183</ele>
        <time>2019-04-03T14:01:33Z</time>
      </trkpt>
      <trkpt lat="47.54234" lon="3.60724">
        <ele>184</ele>
        <time>2019-04-03T14:01:36Z</time>
      </trkpt>
      <trkpt lat="47.54238" lon="3.60717">
        <ele>184</ele>
        <time>2019-04-03T14:01:41Z</time>
      </trkpt>
      <trkpt lat="47.54244" lon="3.60708">
        <ele>184</ele>
        <time>2019-04-03T14:01:47Z</time>
      </trkpt>
      <trkpt lat="47.5425" lon="3.60702">
        <ele>184</ele>
        <time>2019-04-03T14:01:53Z</time>
      </trkpt>
      <trkpt lat="47.54255" lon="3.60698">
        <ele>184</ele>
        <time>2019-04-03T14:01:58Z</time>
      </trkpt>
      <trkpt lat="47.54254" lon="3.60696">
        <ele>184</ele>
        <time>2019-04-03T14:02:08Z</time>
      </trkpt>
      <trkpt lat="47.54258" lon="3.6069">
        <ele>189</ele>
        <time>2019-04-03T14:04:28Z</time>
      </trkpt>
      <trkpt lat="47.54262" lon="3.60684">
        <ele>188</ele>
        <time>2019-04-03T14:04:34Z</time>
      </trkpt>
      <trkpt lat="47.54265" lon="3.60676">
        <ele>185</ele>
        <time>2019-04-03T14:04:46Z</time>
      </trkpt>
      <trkpt lat="47.54268" lon="3.60671">
        <ele>185</ele>
        <time>2019-04-03T14:04:49Z</time>
      </trkpt>
      <trkpt lat="47.54273" lon="3.60662">
        <ele>185</ele>
        <time>2019-04-03T14:04:54Z</time>
      </trkpt>
      <trkpt lat="47.54277" lon="3.60658">
        <ele>185</ele>
        <time>2019-04-03T14:04:57Z</time>
      </trkpt>
      <trkpt lat="47.54279" lon="3.60651">
        <ele>185</ele>
        <time>2019-04-03T14:05:04Z</time>
      </trkpt>
      <trkpt lat="47.54281" lon="3.60645">
        <ele>187</ele>
        <time>2019-04-03T14:05:12Z</time>
      </trkpt>
      <trkpt lat="47.54286" lon="3.60638">
        <ele>188</ele>
        <time>2019-04-03T14:05:18Z</time>
      </trkpt>
      <trkpt lat="47.5429" lon="3.6063">
        <ele>188</ele>
        <time>2019-04-03T14:05:24Z</time>
      </trkpt>
      <trkpt lat="47.54293" lon="3.60623">
        <ele>189</ele>
        <time>2019-04-03T14:05:30Z</time>
      </trkpt>
      <trkpt lat="47.54295" lon="3.60617">
        <ele>190</ele>
        <time>2019-04-03T14:05:34Z</time>
      </trkpt>
      <trkpt lat="47.54299" lon="3.6061">
        <ele>190</ele>
        <time>2019-04-03T14:05:38Z</time>
      </trkpt>
      <trkpt lat="47.54305" lon="3.60606">
        <ele>192</ele>
        <time>2019-04-03T14:05:44Z</time>
      </trkpt>
      <trkpt lat="47.54307" lon="3.60599">
        <ele>193</ele>
        <time>2019-04-03T14:05:50Z</time>
      </trkpt>
      <trkpt lat="47.54308" lon="3.60596">
        <ele>193</ele>
        <time>2019-04-03T14:05:53Z</time>
      </trkpt>
      <trkpt lat="47.54312" lon="3.60591">
        <ele>193</ele>
        <time>2019-04-03T14:05:58Z</time>
      </trkpt>
      <trkpt lat="47.54315" lon="3.60584">
        <ele>193</ele>
        <time>2019-04-03T14:06:04Z</time>
      </trkpt>
      <trkpt lat="47.54319" lon="3.6057">
        <ele>193</ele>
        <time>2019-04-03T14:06:11Z</time>
      </trkpt>
      <trkpt lat="47.5432" lon="3.60557">
        <ele>192</ele>
        <time>2019-04-03T14:06:17Z</time>
      </trkpt>
      <trkpt lat="47.54323" lon="3.60549">
        <ele>192</ele>
        <time>2019-04-03T14:06:20Z</time>
      </trkpt>
      <trkpt lat="47.54324" lon="3.60546">
        <ele>193</ele>
        <time>2019-04-03T14:06:22Z</time>
      </trkpt>
      <trkpt lat="47.54328" lon="3.60541">
        <ele>193</ele>
        <time>2019-04-03T14:06:27Z</time>
      </trkpt>
      <trkpt lat="47.54329" lon="3.60534">
        <ele>194</ele>
        <time>2019-04-03T14:06:34Z</time>
      </trkpt>
      <trkpt lat="47.54331" lon="3.60525">
        <ele>194</ele>
        <time>2019-04-03T14:06:39Z</time>
      </trkpt>
      <trkpt lat="47.54331" lon="3.60521">
        <ele>193</ele>
        <time>2019-04-03T14:06:41Z</time>
      </trkpt>
      <trkpt lat="47.54334" lon="3.60515">
        <ele>194</ele>
        <time>2019-04-03T14:06:46Z</time>
      </trkpt>
      <trkpt lat="47.54335" lon="3.60508">
        <ele>193</ele>
        <time>2019-04-03T14:06:51Z</time>
      </trkpt>
      <trkpt lat="47.54335" lon="3.605">
        <ele>194</ele>
        <time>2019-04-03T14:06:56Z</time>
      </trkpt>
      <trkpt lat="47.54337" lon="3.6049">
        <ele>194</ele>
        <time>2019-04-03T14:07:02Z</time>
      </trkpt>
      <trkpt lat="47.54338" lon="3.60483">
        <ele>195</ele>
        <time>2019-04-03T14:07:06Z</time>
      </trkpt>
      <trkpt lat="47.54342" lon="3.60476">
        <ele>194</ele>
        <time>2019-04-03T14:07:11Z</time>
      </trkpt>
      <trkpt lat="47.54345" lon="3.60466">
        <ele>196</ele>
        <time>2019-04-03T14:07:19Z</time>
      </trkpt>
      <trkpt lat="47.54345" lon="3.60459">
        <ele>196</ele>
        <time>2019-04-03T14:07:23Z</time>
      </trkpt>
      <trkpt lat="47.54348" lon="3.6045">
        <ele>196</ele>
        <time>2019-04-03T14:07:28Z</time>
      </trkpt>
      <trkpt lat="47.5435" lon="3.60443">
        <ele>196</ele>
        <time>2019-04-03T14:07:32Z</time>
      </trkpt>
      <trkpt lat="47.54351" lon="3.60436">
        <ele>194</ele>
        <time>2019-04-03T14:07:36Z</time>
      </trkpt>
      <trkpt lat="47.54353" lon="3.6043">
        <ele>194</ele>
        <time>2019-04-03T14:07:41Z</time>
      </trkpt>
      <trkpt lat="47.54352" lon="3.60423">
        <ele>192</ele>
        <time>2019-04-03T14:07:45Z</time>
      </trkpt>
      <trkpt lat="47.54355" lon="3.60417">
        <ele>192</ele>
        <time>2019-04-03T14:07:48Z</time>
      </trkpt>
      <trkpt lat="47.54357" lon="3.60409">
        <ele>193</ele>
        <time>2019-04-03T14:07:54Z</time>
      </trkpt>
      <trkpt lat="47.54357" lon="3.604">
        <ele>192</ele>
        <time>2019-04-03T14:07:58Z</time>
      </trkpt>
      <trkpt lat="47.54354" lon="3.6039">
        <ele>192</ele>
        <time>2019-04-03T14:08:04Z</time>
      </trkpt>
      <trkpt lat="47.54352" lon="3.60383">
        <ele>192</ele>
        <time>2019-04-03T14:08:08Z</time>
      </trkpt>
      <trkpt lat="47.5435" lon="3.60376">
        <ele>191</ele>
        <time>2019-04-03T14:08:12Z</time>
      </trkpt>
      <trkpt lat="47.54349" lon="3.60367">
        <ele>191</ele>
        <time>2019-04-03T14:08:18Z</time>
      </trkpt>
      <trkpt lat="47.5435" lon="3.6036">
        <ele>191</ele>
        <time>2019-04-03T14:08:21Z</time>
      </trkpt>
      <trkpt lat="47.54348" lon="3.60351">
        <ele>191</ele>
        <time>2019-04-03T14:08:26Z</time>
      </trkpt>
      <trkpt lat="47.54347" lon="3.60344">
        <ele>192</ele>
        <time>2019-04-03T14:08:30Z</time>
      </trkpt>
      <trkpt lat="47.54346" lon="3.60336">
        <ele>191</ele>
        <time>2019-04-03T14:08:35Z</time>
      </trkpt>
      <trkpt lat="47.54346" lon="3.60331">
        <ele>190</ele>
        <time>2019-04-03T14:08:38Z</time>
      </trkpt>
      <trkpt lat="47.54346" lon="3.60323">
        <ele>188</ele>
        <time>2019-04-03T14:08:42Z</time>
      </trkpt>
      <trkpt lat="47.54346" lon="3.60316">
        <ele>188</ele>
        <time>2019-04-03T14:08:46Z</time>
      </trkpt>
      <trkpt lat="47.54345" lon="3.60308">
        <ele>187</ele>
        <time>2019-04-03T14:08:50Z</time>
      </trkpt>
      <trkpt lat="47.54343" lon="3.60302">
        <ele>187</ele>
        <time>2019-04-03T14:08:55Z</time>
      </trkpt>
      <trkpt lat="47.54341" lon="3.60295">
        <ele>186</ele>
        <time>2019-04-03T14:08:58Z</time>
      </trkpt>
      <trkpt lat="47.54342" lon="3.60287">
        <ele>185</ele>
        <time>2019-04-03T14:09:03Z</time>
      </trkpt>
      <trkpt lat="47.54342" lon="3.60279">
        <ele>184</ele>
        <time>2019-04-03T14:09:07Z</time>
      </trkpt>
      <trkpt lat="47.54342" lon="3.60272">
        <ele>184</ele>
        <time>2019-04-03T14:09:12Z</time>
      </trkpt>
      <trkpt lat="47.54339" lon="3.60265">
        <ele>183</ele>
        <time>2019-04-03T14:09:17Z</time>
      </trkpt>
      <trkpt lat="47.54337" lon="3.60262">
        <ele>183</ele>
        <time>2019-04-03T14:09:20Z</time>
      </trkpt>
      <trkpt lat="47.54337" lon="3.60254">
        <ele>182</ele>
        <time>2019-04-03T14:09:28Z</time>
      </trkpt>
      <trkpt lat="47.54336" lon="3.60247">
        <ele>181</ele>
        <time>2019-04-03T14:09:31Z</time>
      </trkpt>
      <trkpt lat="47.54334" lon="3.60242">
        <ele>181</ele>
        <time>2019-04-03T14:09:33Z</time>
      </trkpt>
      <trkpt lat="47.54334" lon="3.60237">
        <ele>182</ele>
        <time>2019-04-03T14:09:35Z</time>
      </trkpt>
      <trkpt lat="47.54333" lon="3.60234">
        <ele>182</ele>
        <time>2019-04-03T14:09:37Z</time>
      </trkpt>
      <trkpt lat="47.54332" lon="3.60225">
        <ele>182</ele>
        <time>2019-04-03T14:09:42Z</time>
      </trkpt>
      <trkpt lat="47.5433" lon="3.60217">
        <ele>180</ele>
        <time>2019-04-03T14:09:46Z</time>
      </trkpt>
      <trkpt lat="47.54329" lon="3.60213">
        <ele>180</ele>
        <time>2019-04-03T14:09:49Z</time>
      </trkpt>
      <trkpt lat="47.54329" lon="3.60205">
        <ele>181</ele>
        <time>2019-04-03T14:09:53Z</time>
      </trkpt>
      <trkpt lat="47.54328" lon="3.60198">
        <ele>180</ele>
        <time>2019-04-03T14:09:57Z</time>
      </trkpt>
      <trkpt lat="47.54329" lon="3.60189">
        <ele>179</ele>
        <time>2019-04-03T14:10:04Z</time>
      </trkpt>
      <trkpt lat="47.54328" lon="3.6018">
        <ele>180</ele>
        <time>2019-04-03T14:10:11Z</time>
      </trkpt>
      <trkpt lat="47.54327" lon="3.60173">
        <ele>181</ele>
        <time>2019-04-03T14:10:15Z</time>
      </trkpt>
      <trkpt lat="47.54327" lon="3.60166">
        <ele>181</ele>
        <time>2019-04-03T14:10:19Z</time>
      </trkpt>
      <trkpt lat="47.54328" lon="3.60159">
        <ele>181</ele>
        <time>2019-04-03T14:10:23Z</time>
      </trkpt>
      <trkpt lat="47.54327" lon="3.60152">
        <ele>180</ele>
        <time>2019-04-03T14:10:26Z</time>
      </trkpt>
      <trkpt lat="47.54327" lon="3.60145">
        <ele>179</ele>
        <time>2019-04-03T14:10:29Z</time>
      </trkpt>
      <trkpt lat="47.54325" lon="3.60138">
        <ele>181</ele>
        <time>2019-04-03T14:10:33Z</time>
      </trkpt>
      <trkpt lat="47.54325" lon="3.60129">
        <ele>182</ele>
        <time>2019-04-03T14:10:39Z</time>
      </trkpt>
      <trkpt lat="47.54325" lon="3.60125">
        <ele>182</ele>
        <time>2019-04-03T14:10:42Z</time>
      </trkpt>
      <trkpt lat="47.54323" lon="3.60114">
        <ele>181</ele>
        <time>2019-04-03T14:10:48Z</time>
      </trkpt>
      <trkpt lat="47.54323" lon="3.60105">
        <ele>181</ele>
        <time>2019-04-03T14:10:52Z</time>
      </trkpt>
      <trkpt lat="47.54322" lon="3.60097">
        <ele>181</ele>
        <time>2019-04-03T14:10:56Z</time>
      </trkpt>
      <trkpt lat="47.54321" lon="3.60085">
        <ele>182</ele>
        <time>2019-04-03T14:11:03Z</time>
      </trkpt>
      <trkpt lat="47.54321" lon="3.6008">
        <ele>181</ele>
        <time>2019-04-03T14:11:06Z</time>
      </trkpt>
      <trkpt lat="47.5432" lon="3.60072">
        <ele>182</ele>
        <time>2019-04-03T14:11:10Z</time>
      </trkpt>
      <trkpt lat="47.5432" lon="3.60068">
        <ele>181</ele>
        <time>2019-04-03T14:11:13Z</time>
      </trkpt>
      <trkpt lat="47.5432" lon="3.60062">
        <ele>181</ele>
        <time>2019-04-03T14:11:17Z</time>
      </trkpt>
      <trkpt lat="47.54319" lon="3.60055">
        <ele>182</ele>
        <time>2019-04-03T14:11:22Z</time>
      </trkpt>
      <trkpt lat="47.54319" lon="3.60047">
        <ele>183</ele>
        <time>2019-04-03T14:11:26Z</time>
      </trkpt>
      <trkpt lat="47.54319" lon="3.60044">
        <ele>183</ele>
        <time>2019-04-03T14:11:28Z</time>
      </trkpt>
      <trkpt lat="47.54318" lon="3.60037">
        <ele>183</ele>
        <time>2019-04-03T14:11:32Z</time>
      </trkpt>
      <trkpt lat="47.54318" lon="3.60033">
        <ele>182</ele>
        <time>2019-04-03T14:11:34Z</time>
      </trkpt>
      <trkpt lat="47.54316" lon="3.60026">
        <ele>182</ele>
        <time>2019-04-03T14:11:38Z</time>
      </trkpt>
      <trkpt lat="47.54315" lon="3.60022">
        <ele>182</ele>
        <time>2019-04-03T14:11:41Z</time>
      </trkpt>
      <trkpt lat="47.54314" lon="3.60014">
        <ele>181</ele>
        <time>2019-04-03T14:11:45Z</time>
      </trkpt>
      <trkpt lat="47.54314" lon="3.60009">
        <ele>181</ele>
        <time>2019-04-03T14:11:47Z</time>
      </trkpt>
      <trkpt lat="47.5431" lon="3.60004">
        <ele>182</ele>
        <time>2019-04-03T14:11:51Z</time>
      </trkpt>
      <trkpt lat="47.5431" lon="3.59996">
        <ele>185</ele>
        <time>2019-04-03T14:11:59Z</time>
      </trkpt>
      <trkpt lat="47.54308" lon="3.59988">
        <ele>186</ele>
        <time>2019-04-03T14:12:04Z</time>
      </trkpt>
      <trkpt lat="47.54307" lon="3.59983">
        <ele>185</ele>
        <time>2019-04-03T14:12:07Z</time>
      </trkpt>
      <trkpt lat="47.54308" lon="3.59975">
        <ele>185</ele>
        <time>2019-04-03T14:12:10Z</time>
      </trkpt>
      <trkpt lat="47.54308" lon="3.59969">
        <ele>187</ele>
        <time>2019-04-03T14:12:13Z</time>
      </trkpt>
      <trkpt lat="47.54308" lon="3.5996">
        <ele>185</ele>
        <time>2019-04-03T14:12:17Z</time>
      </trkpt>
      <trkpt lat="47.54306" lon="3.59953">
        <ele>185</ele>
        <time>2019-04-03T14:12:21Z</time>
      </trkpt>
      <trkpt lat="47.54305" lon="3.59949">
        <ele>184</ele>
        <time>2019-04-03T14:12:23Z</time>
      </trkpt>
      <trkpt lat="47.54304" lon="3.59942">
        <ele>183</ele>
        <time>2019-04-03T14:12:27Z</time>
      </trkpt>
      <trkpt lat="47.543" lon="3.59934">
        <ele>181</ele>
        <time>2019-04-03T14:12:32Z</time>
      </trkpt>
      <trkpt lat="47.543" lon="3.59934">
        <ele>181</ele>
        <time>2019-04-03T14:12:39Z</time>
      </trkpt>
      <trkpt lat="47.543" lon="3.59934">
        <ele>181</ele>
        <time>2019-04-03T14:12:41Z</time>
      </trkpt>
      <trkpt lat="47.54297" lon="3.59925">
        <ele>180</ele>
        <time>2019-04-03T14:12:46Z</time>
      </trkpt>
      <trkpt lat="47.54294" lon="3.59919">
        <ele>180</ele>
        <time>2019-04-03T14:12:50Z</time>
      </trkpt>
      <trkpt lat="47.54292" lon="3.59916">
        <ele>182</ele>
        <time>2019-04-03T14:12:53Z</time>
      </trkpt>
      <trkpt lat="47.54292" lon="3.59916">
        <ele>182</ele>
        <time>2019-04-03T14:13:00Z</time>
      </trkpt>
      <trkpt lat="47.54292" lon="3.59916">
        <ele>182</ele>
        <time>2019-04-03T14:13:01Z</time>
      </trkpt>
      <trkpt lat="47.54293" lon="3.59908">
        <ele>182</ele>
        <time>2019-04-03T14:13:03Z</time>
      </trkpt>
      <trkpt lat="47.5429" lon="3.59901">
        <ele>183</ele>
        <time>2019-04-03T14:13:07Z</time>
      </trkpt>
      <trkpt lat="47.54288" lon="3.59898">
        <ele>183</ele>
        <time>2019-04-03T14:13:09Z</time>
      </trkpt>
      <trkpt lat="47.54285" lon="3.5989">
        <ele>184</ele>
        <time>2019-04-03T14:13:13Z</time>
      </trkpt>
      <trkpt lat="47.54284" lon="3.59883">
        <ele>183</ele>
        <time>2019-04-03T14:13:17Z</time>
      </trkpt>
      <trkpt lat="47.54283" lon="3.59878">
        <ele>184</ele>
        <time>2019-04-03T14:13:20Z</time>
      </trkpt>
      <trkpt lat="47.5428" lon="3.59872">
        <ele>183</ele>
        <time>2019-04-03T14:13:26Z</time>
      </trkpt>
      <trkpt lat="47.54278" lon="3.59868">
        <ele>183</ele>
        <time>2019-04-03T14:13:30Z</time>
      </trkpt>
      <trkpt lat="47.54274" lon="3.59862">
        <ele>184</ele>
        <time>2019-04-03T14:13:34Z</time>
      </trkpt>
      <trkpt lat="47.54272" lon="3.59858">
        <ele>184</ele>
        <time>2019-04-03T14:13:37Z</time>
      </trkpt>
      <trkpt lat="47.54271" lon="3.59849">
        <ele>183</ele>
        <time>2019-04-03T14:13:45Z</time>
      </trkpt>
      <trkpt lat="47.5427" lon="3.59844">
        <ele>184</ele>
        <time>2019-04-03T14:13:49Z</time>
      </trkpt>
      <trkpt lat="47.54267" lon="3.59839">
        <ele>184</ele>
        <time>2019-04-03T14:13:52Z</time>
      </trkpt>
      <trkpt lat="47.54263" lon="3.59832">
        <ele>184</ele>
        <time>2019-04-03T14:13:57Z</time>
      </trkpt>
      <trkpt lat="47.54261" lon="3.59829">
        <ele>183</ele>
        <time>2019-04-03T14:14:00Z</time>
      </trkpt>
      <trkpt lat="47.54259" lon="3.59824">
        <ele>186</ele>
        <time>2019-04-03T14:14:05Z</time>
      </trkpt>
      <trkpt lat="47.54257" lon="3.59817">
        <ele>184</ele>
        <time>2019-04-03T14:14:09Z</time>
      </trkpt>
      <trkpt lat="47.54254" lon="3.59811">
        <ele>183</ele>
        <time>2019-04-03T14:14:12Z</time>
      </trkpt>
      <trkpt lat="47.54252" lon="3.59803">
        <ele>183</ele>
        <time>2019-04-03T14:14:16Z</time>
      </trkpt>
      <trkpt lat="47.5425" lon="3.59797">
        <ele>185</ele>
        <time>2019-04-03T14:14:20Z</time>
      </trkpt>
      <trkpt lat="47.54248" lon="3.59791">
        <ele>185</ele>
        <time>2019-04-03T14:14:25Z</time>
      </trkpt>
      <trkpt lat="47.54247" lon="3.59787">
        <ele>185</ele>
        <time>2019-04-03T14:14:28Z</time>
      </trkpt>
      <trkpt lat="47.54246" lon="3.59781">
        <ele>186</ele>
        <time>2019-04-03T14:14:33Z</time>
      </trkpt>
      <trkpt lat="47.54242" lon="3.59776">
        <ele>185</ele>
        <time>2019-04-03T14:14:37Z</time>
      </trkpt>
      <trkpt lat="47.5424" lon="3.59772">
        <ele>185</ele>
        <time>2019-04-03T14:14:40Z</time>
      </trkpt>
      <trkpt lat="47.54236" lon="3.59767">
        <ele>186</ele>
        <time>2019-04-03T14:14:45Z</time>
      </trkpt>
      <trkpt lat="47.54234" lon="3.59764">
        <ele>186</ele>
        <time>2019-04-03T14:14:48Z</time>
      </trkpt>
      <trkpt lat="47.54232" lon="3.59762">
        <ele>186</ele>
        <time>2019-04-03T14:14:50Z</time>
      </trkpt>
      <trkpt lat="47.54229" lon="3.59758">
        <ele>185</ele>
        <time>2019-04-03T14:14:53Z</time>
      </trkpt>
      <trkpt lat="47.54226" lon="3.59751">
        <ele>186</ele>
        <time>2019-04-03T14:15:00Z</time>
      </trkpt>
      <trkpt lat="47.54224" lon="3.59748">
        <ele>187</ele>
        <time>2019-04-03T14:15:02Z</time>
      </trkpt>
      <trkpt lat="47.5422" lon="3.59746">
        <ele>186</ele>
        <time>2019-04-03T14:15:05Z</time>
      </trkpt>
      <trkpt lat="47.54215" lon="3.59742">
        <ele>184</ele>
        <time>2019-04-03T14:15:09Z</time>
      </trkpt>
      <trkpt lat="47.54211" lon="3.59737">
        <ele>184</ele>
        <time>2019-04-03T14:15:18Z</time>
      </trkpt>
      <trkpt lat="47.54209" lon="3.59734">
        <ele>183</ele>
        <time>2019-04-03T14:15:28Z</time>
      </trkpt>
      <trkpt lat="47.54209" lon="3.59726">
        <ele>185</ele>
        <time>2019-04-03T14:15:39Z</time>
      </trkpt>
      <trkpt lat="47.54209" lon="3.59722">
        <ele>186</ele>
        <time>2019-04-03T14:15:42Z</time>
      </trkpt>
      <trkpt lat="47.54206" lon="3.59712">
        <ele>187</ele>
        <time>2019-04-03T14:15:48Z</time>
      </trkpt>
      <trkpt lat="47.54204" lon="3.59706">
        <ele>186</ele>
        <time>2019-04-03T14:15:53Z</time>
      </trkpt>
      <trkpt lat="47.54201" lon="3.59701">
        <ele>186</ele>
        <time>2019-04-03T14:15:58Z</time>
      </trkpt>
      <trkpt lat="47.542" lon="3.59697">
        <ele>185</ele>
        <time>2019-04-03T14:16:02Z</time>
      </trkpt>
      <trkpt lat="47.54196" lon="3.59692">
        <ele>187</ele>
        <time>2019-04-03T14:16:07Z</time>
      </trkpt>
      <trkpt lat="47.54195" lon="3.59685">
        <ele>187</ele>
        <time>2019-04-03T14:16:13Z</time>
      </trkpt>
      <trkpt lat="47.54194" lon="3.5968">
        <ele>187</ele>
        <time>2019-04-03T14:16:16Z</time>
      </trkpt>
      <trkpt lat="47.5419" lon="3.59676">
        <ele>187</ele>
        <time>2019-04-03T14:16:20Z</time>
      </trkpt>
      <trkpt lat="47.54186" lon="3.59674">
        <ele>187</ele>
        <time>2019-04-03T14:16:24Z</time>
      </trkpt>
      <trkpt lat="47.54182" lon="3.59668">
        <ele>188</ele>
        <time>2019-04-03T14:16:29Z</time>
      </trkpt>
      <trkpt lat="47.54181" lon="3.59666">
        <ele>188</ele>
        <time>2019-04-03T14:16:31Z</time>
      </trkpt>
      <trkpt lat="47.5418" lon="3.59658">
        <ele>189</ele>
        <time>2019-04-03T14:16:36Z</time>
      </trkpt>
      <trkpt lat="47.54177" lon="3.59648">
        <ele>187</ele>
        <time>2019-04-03T14:16:42Z</time>
      </trkpt>
      <trkpt lat="47.54174" lon="3.59641">
        <ele>187</ele>
        <time>2019-04-03T14:16:47Z</time>
      </trkpt>
      <trkpt lat="47.54172" lon="3.59637">
        <ele>188</ele>
        <time>2019-04-03T14:16:51Z</time>
      </trkpt>
      <trkpt lat="47.54168" lon="3.59632">
        <ele>188</ele>
        <time>2019-04-03T14:16:56Z</time>
      </trkpt>
      <trkpt lat="47.54165" lon="3.59629">
        <ele>187</ele>
        <time>2019-04-03T14:16:59Z</time>
      </trkpt>
      <trkpt lat="47.54163" lon="3.59622">
        <ele>185</ele>
        <time>2019-04-03T14:17:03Z</time>
      </trkpt>
      <trkpt lat="47.54161" lon="3.59616">
        <ele>183</ele>
        <time>2019-04-03T14:17:07Z</time>
      </trkpt>
      <trkpt lat="47.54158" lon="3.59611">
        <ele>181</ele>
        <time>2019-04-03T14:17:11Z</time>
      </trkpt>
      <trkpt lat="47.54155" lon="3.59605">
        <ele>181</ele>
        <time>2019-04-03T14:17:15Z</time>
      </trkpt>
      <trkpt lat="47.54152" lon="3.59598">
        <ele>179</ele>
        <time>2019-04-03T14:17:19Z</time>
      </trkpt>
      <trkpt lat="47.54149" lon="3.59592">
        <ele>179</ele>
        <time>2019-04-03T14:17:23Z</time>
      </trkpt>
      <trkpt lat="47.54146" lon="3.59588">
        <ele>178</ele>
        <time>2019-04-03T14:17:26Z</time>
      </trkpt>
      <trkpt lat="47.54144" lon="3.59585">
        <ele>177</ele>
        <time>2019-04-03T14:17:28Z</time>
      </trkpt>
      <trkpt lat="47.54142" lon="3.59582">
        <ele>178</ele>
        <time>2019-04-03T14:17:30Z</time>
      </trkpt>
      <trkpt lat="47.54139" lon="3.59578">
        <ele>180</ele>
        <time>2019-04-03T14:17:34Z</time>
      </trkpt>
      <trkpt lat="47.54134" lon="3.59574">
        <ele>179</ele>
        <time>2019-04-03T14:17:38Z</time>
      </trkpt>
      <trkpt lat="47.54132" lon="3.59571">
        <ele>179</ele>
        <time>2019-04-03T14:17:40Z</time>
      </trkpt>
      <trkpt lat="47.54129" lon="3.59566">
        <ele>179</ele>
        <time>2019-04-03T14:17:43Z</time>
      </trkpt>
      <trkpt lat="47.54126" lon="3.59558">
        <ele>179</ele>
        <time>2019-04-03T14:17:49Z</time>
      </trkpt>
      <trkpt lat="47.54124" lon="3.59555">
        <ele>179</ele>
        <time>2019-04-03T14:17:52Z</time>
      </trkpt>
      <trkpt lat="47.54123" lon="3.5955">
        <ele>179</ele>
        <time>2019-04-03T14:17:56Z</time>
      </trkpt>
      <trkpt lat="47.54121" lon="3.59543">
        <ele>181</ele>
        <time>2019-04-03T14:18:02Z</time>
      </trkpt>
      <trkpt lat="47.5412" lon="3.59539">
        <ele>182</ele>
        <time>2019-04-03T14:18:05Z</time>
      </trkpt>
      <trkpt lat="47.54119" lon="3.59535">
        <ele>184</ele>
        <time>2019-04-03T14:18:10Z</time>
      </trkpt>
      <trkpt lat="47.54116" lon="3.5953">
        <ele>185</ele>
        <time>2019-04-03T14:18:14Z</time>
      </trkpt>
      <trkpt lat="47.54113" lon="3.59523">
        <ele>188</ele>
        <time>2019-04-03T14:18:18Z</time>
      </trkpt>
      <trkpt lat="47.54112" lon="3.59519">
        <ele>190</ele>
        <time>2019-04-03T14:18:21Z</time>
      </trkpt>
      <trkpt lat="47.54109" lon="3.59513">
        <ele>191</ele>
        <time>2019-04-03T14:18:26Z</time>
      </trkpt>
      <trkpt lat="47.54108" lon="3.59506">
        <ele>190</ele>
        <time>2019-04-03T14:18:31Z</time>
      </trkpt>
      <trkpt lat="47.54104" lon="3.595">
        <ele>190</ele>
        <time>2019-04-03T14:18:37Z</time>
      </trkpt>
      <trkpt lat="47.54101" lon="3.59492">
        <ele>191</ele>
        <time>2019-04-03T14:18:42Z</time>
      </trkpt>
      <trkpt lat="47.54099" lon="3.59486">
        <ele>193</ele>
        <time>2019-04-03T14:18:45Z</time>
      </trkpt>
      <trkpt lat="47.54098" lon="3.59478">
        <ele>192</ele>
        <time>2019-04-03T14:18:51Z</time>
      </trkpt>
      <trkpt lat="47.54094" lon="3.59472">
        <ele>194</ele>
        <time>2019-04-03T14:18:56Z</time>
      </trkpt>
      <trkpt lat="47.54093" lon="3.59465">
        <ele>196</ele>
        <time>2019-04-03T14:19:02Z</time>
      </trkpt>
      <trkpt lat="47.5409" lon="3.59459">
        <ele>198</ele>
        <time>2019-04-03T14:19:06Z</time>
      </trkpt>
      <trkpt lat="47.54089" lon="3.59456">
        <ele>199</ele>
        <time>2019-04-03T14:19:09Z</time>
      </trkpt>
      <trkpt lat="47.54085" lon="3.59451">
        <ele>200</ele>
        <time>2019-04-03T14:19:13Z</time>
      </trkpt>
      <trkpt lat="47.54083" lon="3.59447">
        <ele>199</ele>
        <time>2019-04-03T14:19:15Z</time>
      </trkpt>
      <trkpt lat="47.54082" lon="3.59441">
        <ele>199</ele>
        <time>2019-04-03T14:19:19Z</time>
      </trkpt>
      <trkpt lat="47.54079" lon="3.59435">
        <ele>199</ele>
        <time>2019-04-03T14:19:24Z</time>
      </trkpt>
      <trkpt lat="47.54077" lon="3.59429">
        <ele>201</ele>
        <time>2019-04-03T14:19:28Z</time>
      </trkpt>
      <trkpt lat="47.54073" lon="3.59423">
        <ele>202</ele>
        <time>2019-04-03T14:19:32Z</time>
      </trkpt>
      <trkpt lat="47.5407" lon="3.59419">
        <ele>203</ele>
        <time>2019-04-03T14:19:37Z</time>
      </trkpt>
      <trkpt lat="47.54067" lon="3.59415">
        <ele>203</ele>
        <time>2019-04-03T14:19:43Z</time>
      </trkpt>
      <trkpt lat="47.54064" lon="3.59411">
        <ele>204</ele>
        <time>2019-04-03T14:19:46Z</time>
      </trkpt>
      <trkpt lat="47.5406" lon="3.59406">
        <ele>204</ele>
        <time>2019-04-03T14:19:50Z</time>
      </trkpt>
      <trkpt lat="47.54057" lon="3.59399">
        <ele>204</ele>
        <time>2019-04-03T14:19:54Z</time>
      </trkpt>
      <trkpt lat="47.54053" lon="3.59395">
        <ele>203</ele>
        <time>2019-04-03T14:19:58Z</time>
      </trkpt>
      <trkpt lat="47.54051" lon="3.59388">
        <ele>203</ele>
        <time>2019-04-03T14:20:03Z</time>
      </trkpt>
      <trkpt lat="47.5405" lon="3.59385">
        <ele>205</ele>
        <time>2019-04-03T14:20:05Z</time>
      </trkpt>
      <trkpt lat="47.54045" lon="3.59381">
        <ele>204</ele>
        <time>2019-04-03T14:20:09Z</time>
      </trkpt>
      <trkpt lat="47.54041" lon="3.59377">
        <ele>204</ele>
        <time>2019-04-03T14:20:13Z</time>
      </trkpt>
      <trkpt lat="47.54037" lon="3.59371">
        <ele>205</ele>
        <time>2019-04-03T14:20:17Z</time>
      </trkpt>
      <trkpt lat="47.54031" lon="3.59365">
        <ele>206</ele>
        <time>2019-04-03T14:20:22Z</time>
      </trkpt>
      <trkpt lat="47.54028" lon="3.59359">
        <ele>206</ele>
        <time>2019-04-03T14:20:27Z</time>
      </trkpt>
      <trkpt lat="47.54024" lon="3.59352">
        <ele>205</ele>
        <time>2019-04-03T14:20:32Z</time>
      </trkpt>
      <trkpt lat="47.54023" lon="3.59349">
        <ele>205</ele>
        <time>2019-04-03T14:20:34Z</time>
      </trkpt>
      <trkpt lat="47.54019" lon="3.59343">
        <ele>206</ele>
        <time>2019-04-03T14:20:39Z</time>
      </trkpt>
      <trkpt lat="47.54017" lon="3.5934">
        <ele>207</ele>
        <time>2019-04-03T14:20:42Z</time>
      </trkpt>
      <trkpt lat="47.54012" lon="3.59337">
        <ele>208</ele>
        <time>2019-04-03T14:20:46Z</time>
      </trkpt>
      <trkpt lat="47.54007" lon="3.5933">
        <ele>212</ele>
        <time>2019-04-03T14:20:53Z</time>
      </trkpt>
      <trkpt lat="47.54004" lon="3.59325">
        <ele>214</ele>
        <time>2019-04-03T14:20:56Z</time>
      </trkpt>
      <trkpt lat="47.54002" lon="3.59323">
        <ele>213</ele>
        <time>2019-04-03T14:20:58Z</time>
      </trkpt>
      <trkpt lat="47.53998" lon="3.59318">
        <ele>211</ele>
        <time>2019-04-03T14:21:01Z</time>
      </trkpt>
      <trkpt lat="47.53997" lon="3.59315">
        <ele>211</ele>
        <time>2019-04-03T14:21:03Z</time>
      </trkpt>
      <trkpt lat="47.53994" lon="3.59309">
        <ele>211</ele>
        <time>2019-04-03T14:21:06Z</time>
      </trkpt>
      <trkpt lat="47.53992" lon="3.59306">
        <ele>212</ele>
        <time>2019-04-03T14:21:08Z</time>
      </trkpt>
      <trkpt lat="47.5399" lon="3.59302">
        <ele>212</ele>
        <time>2019-04-03T14:21:10Z</time>
      </trkpt>
      <trkpt lat="47.53985" lon="3.59296">
        <ele>212</ele>
        <time>2019-04-03T14:21:14Z</time>
      </trkpt>
      <trkpt lat="47.53984" lon="3.59294">
        <ele>213</ele>
        <time>2019-04-03T14:21:16Z</time>
      </trkpt>
      <trkpt lat="47.5398" lon="3.59285">
        <ele>214</ele>
        <time>2019-04-03T14:21:21Z</time>
      </trkpt>
      <trkpt lat="47.53976" lon="3.59279">
        <ele>213</ele>
        <time>2019-04-03T14:21:25Z</time>
      </trkpt>
      <trkpt lat="47.53974" lon="3.59274">
        <ele>214</ele>
        <time>2019-04-03T14:21:29Z</time>
      </trkpt>
      <trkpt lat="47.53973" lon="3.59273">
        <ele>214</ele>
        <time>2019-04-03T14:21:37Z</time>
      </trkpt>
      <trkpt lat="47.5397" lon="3.59267">
        <ele>216</ele>
        <time>2019-04-03T14:22:26Z</time>
      </trkpt>
      <trkpt lat="47.53969" lon="3.59264">
        <ele>216</ele>
        <time>2019-04-03T14:22:28Z</time>
      </trkpt>
      <trkpt lat="47.53965" lon="3.59259">
        <ele>217</ele>
        <time>2019-04-03T14:22:32Z</time>
      </trkpt>
      <trkpt lat="47.53962" lon="3.59251">
        <ele>219</ele>
        <time>2019-04-03T14:22:38Z</time>
      </trkpt>
      <trkpt lat="47.53959" lon="3.59245">
        <ele>218</ele>
        <time>2019-04-03T14:22:42Z</time>
      </trkpt>
      <trkpt lat="47.53958" lon="3.59241">
        <ele>219</ele>
        <time>2019-04-03T14:22:45Z</time>
      </trkpt>
      <trkpt lat="47.53955" lon="3.59236">
        <ele>218</ele>
        <time>2019-04-03T14:22:48Z</time>
      </trkpt>
      <trkpt lat="47.53954" lon="3.59233">
        <ele>218</ele>
        <time>2019-04-03T14:22:50Z</time>
      </trkpt>
      <trkpt lat="47.53951" lon="3.59227">
        <ele>218</ele>
        <time>2019-04-03T14:22:54Z</time>
      </trkpt>
      <trkpt lat="47.53948" lon="3.59221">
        <ele>219</ele>
        <time>2019-04-03T14:22:58Z</time>
      </trkpt>
      <trkpt lat="47.53945" lon="3.59216">
        <ele>219</ele>
        <time>2019-04-03T14:23:05Z</time>
      </trkpt>
      <trkpt lat="47.53942" lon="3.59209">
        <ele>219</ele>
        <time>2019-04-03T14:23:10Z</time>
      </trkpt>
      <trkpt lat="47.5394" lon="3.59204">
        <ele>220</ele>
        <time>2019-04-03T14:23:14Z</time>
      </trkpt>
      <trkpt lat="47.53937" lon="3.59196">
        <ele>219</ele>
        <time>2019-04-03T14:23:19Z</time>
      </trkpt>
      <trkpt lat="47.53936" lon="3.59191">
        <ele>218</ele>
        <time>2019-04-03T14:23:23Z</time>
      </trkpt>
      <trkpt lat="47.53934" lon="3.59186">
        <ele>220</ele>
        <time>2019-04-03T14:23:26Z</time>
      </trkpt>
      <trkpt lat="47.53932" lon="3.59182">
        <ele>219</ele>
        <time>2019-04-03T14:23:33Z</time>
      </trkpt>
      <trkpt lat="47.53932" lon="3.59182">
        <ele>219</ele>
        <time>2019-04-03T14:29:45Z</time>
      </trkpt>
      <trkpt lat="47.5393" lon="3.5917">
        <ele>220</ele>
        <time>2019-04-03T14:29:49Z</time>
      </trkpt>
      <trkpt lat="47.5393" lon="3.59164">
        <ele>219</ele>
        <time>2019-04-03T14:29:53Z</time>
      </trkpt>
      <trkpt lat="47.53928" lon="3.59157">
        <ele>219</ele>
        <time>2019-04-03T14:29:57Z</time>
      </trkpt>
      <trkpt lat="47.53926" lon="3.59152">
        <ele>219</ele>
        <time>2019-04-03T14:30:00Z</time>
      </trkpt>
      <trkpt lat="47.53926" lon="3.59149">
        <ele>218</ele>
        <time>2019-04-03T14:30:02Z</time>
      </trkpt>
      <trkpt lat="47.53922" lon="3.59143">
        <ele>218</ele>
        <time>2019-04-03T14:30:07Z</time>
      </trkpt>
      <trkpt lat="47.53919" lon="3.59136">
        <ele>216</ele>
        <time>2019-04-03T14:30:12Z</time>
      </trkpt>
      <trkpt lat="47.53917" lon="3.5913">
        <ele>216</ele>
        <time>2019-04-03T14:30:16Z</time>
      </trkpt>
      <trkpt lat="47.53915" lon="3.59126">
        <ele>216</ele>
        <time>2019-04-03T14:30:18Z</time>
      </trkpt>
      <trkpt lat="47.53913" lon="3.5912">
        <ele>216</ele>
        <time>2019-04-03T14:30:23Z</time>
      </trkpt>
      <trkpt lat="47.53911" lon="3.59114">
        <ele>216</ele>
        <time>2019-04-03T14:30:28Z</time>
      </trkpt>
      <trkpt lat="47.53909" lon="3.59107">
        <ele>216</ele>
        <time>2019-04-03T14:30:33Z</time>
      </trkpt>
      <trkpt lat="47.53908" lon="3.59104">
        <ele>216</ele>
        <time>2019-04-03T14:30:36Z</time>
      </trkpt>
      <trkpt lat="47.53905" lon="3.59097">
        <ele>215</ele>
        <time>2019-04-03T14:30:41Z</time>
      </trkpt>
      <trkpt lat="47.53902" lon="3.5909">
        <ele>215</ele>
        <time>2019-04-03T14:30:46Z</time>
      </trkpt>
      <trkpt lat="47.539" lon="3.59085">
        <ele>214</ele>
        <time>2019-04-03T14:30:51Z</time>
      </trkpt>
      <trkpt lat="47.53899" lon="3.59082">
        <ele>214</ele>
        <time>2019-04-03T14:30:53Z</time>
      </trkpt>
      <trkpt lat="47.53895" lon="3.59077">
        <ele>212</ele>
        <time>2019-04-03T14:30:56Z</time>
      </trkpt>
      <trkpt lat="47.53892" lon="3.59072">
        <ele>212</ele>
        <time>2019-04-03T14:30:59Z</time>
      </trkpt>
      <trkpt lat="47.53887" lon="3.59067">
        <ele>213</ele>
        <time>2019-04-03T14:31:03Z</time>
      </trkpt>
      <trkpt lat="47.53885" lon="3.59064">
        <ele>213</ele>
        <time>2019-04-03T14:31:05Z</time>
      </trkpt>
      <trkpt lat="47.53883" lon="3.59062">
        <ele>213</ele>
        <time>2019-04-03T14:31:07Z</time>
      </trkpt>
      <trkpt lat="47.53878" lon="3.5906">
        <ele>212</ele>
        <time>2019-04-03T14:31:11Z</time>
      </trkpt>
      <trkpt lat="47.53875" lon="3.59058">
        <ele>211</ele>
        <time>2019-04-03T14:31:14Z</time>
      </trkpt>
      <trkpt lat="47.53871" lon="3.59053">
        <ele>211</ele>
        <time>2019-04-03T14:31:19Z</time>
      </trkpt>
      <trkpt lat="47.53866" lon="3.5905">
        <ele>211</ele>
        <time>2019-04-03T14:31:23Z</time>
      </trkpt>
      <trkpt lat="47.53864" lon="3.59048">
        <ele>211</ele>
        <time>2019-04-03T14:31:25Z</time>
      </trkpt>
      <trkpt lat="47.5386" lon="3.59043">
        <ele>209</ele>
        <time>2019-04-03T14:31:29Z</time>
      </trkpt>
      <trkpt lat="47.53855" lon="3.5904">
        <ele>209</ele>
        <time>2019-04-03T14:31:33Z</time>
      </trkpt>
      <trkpt lat="47.53851" lon="3.59035">
        <ele>211</ele>
        <time>2019-04-03T14:31:37Z</time>
      </trkpt>
      <trkpt lat="47.53848" lon="3.59029">
        <ele>210</ele>
        <time>2019-04-03T14:31:41Z</time>
      </trkpt>
      <trkpt lat="47.53847" lon="3.59025">
        <ele>211</ele>
        <time>2019-04-03T14:31:43Z</time>
      </trkpt>
      <trkpt lat="47.53843" lon="3.59019">
        <ele>209</ele>
        <time>2019-04-03T14:31:47Z</time>
      </trkpt>
      <trkpt lat="47.53841" lon="3.59012">
        <ele>209</ele>
        <time>2019-04-03T14:31:51Z</time>
      </trkpt>
      <trkpt lat="47.53839" lon="3.59009">
        <ele>208</ele>
        <time>2019-04-03T14:31:53Z</time>
      </trkpt>
      <trkpt lat="47.53837" lon="3.59003">
        <ele>208</ele>
        <time>2019-04-03T14:31:56Z</time>
      </trkpt>
      <trkpt lat="47.53832" lon="3.58998">
        <ele>208</ele>
        <time>2019-04-03T14:32:00Z</time>
      </trkpt>
      <trkpt lat="47.53828" lon="3.58994">
        <ele>208</ele>
        <time>2019-04-03T14:32:04Z</time>
      </trkpt>
      <trkpt lat="47.53825" lon="3.5899">
        <ele>207</ele>
        <time>2019-04-03T14:32:07Z</time>
      </trkpt>
      <trkpt lat="47.53822" lon="3.58983">
        <ele>208</ele>
        <time>2019-04-03T14:32:12Z</time>
      </trkpt>
      <trkpt lat="47.53818" lon="3.58977">
        <ele>208</ele>
        <time>2019-04-03T14:32:16Z</time>
      </trkpt>
      <trkpt lat="47.53815" lon="3.5897">
        <ele>208</ele>
        <time>2019-04-03T14:32:21Z</time>
      </trkpt>
      <trkpt lat="47.53814" lon="3.58967">
        <ele>209</ele>
        <time>2019-04-03T14:32:23Z</time>
      </trkpt>
      <trkpt lat="47.5381" lon="3.58964">
        <ele>207</ele>
        <time>2019-04-03T14:32:32Z</time>
      </trkpt>
      <trkpt lat="47.53808" lon="3.58961">
        <ele>207</ele>
        <time>2019-04-03T14:32:37Z</time>
      </trkpt>
      <trkpt lat="47.53805" lon="3.58953">
        <ele>207</ele>
        <time>2019-04-03T14:32:42Z</time>
      </trkpt>
      <trkpt lat="47.53801" lon="3.58947">
        <ele>209</ele>
        <time>2019-04-03T14:32:47Z</time>
      </trkpt>
      <trkpt lat="47.53798" lon="3.58943">
        <ele>209</ele>
        <time>2019-04-03T14:32:51Z</time>
      </trkpt>
      <trkpt lat="47.53795" lon="3.58936">
        <ele>209</ele>
        <time>2019-04-03T14:32:55Z</time>
      </trkpt>
      <trkpt lat="47.5379" lon="3.58933">
        <ele>208</ele>
        <time>2019-04-03T14:32:58Z</time>
      </trkpt>
      <trkpt lat="47.53787" lon="3.58929">
        <ele>209</ele>
        <time>2019-04-03T14:33:01Z</time>
      </trkpt>
      <trkpt lat="47.53785" lon="3.58926">
        <ele>208</ele>
        <time>2019-04-03T14:33:03Z</time>
      </trkpt>
      <trkpt lat="47.53781" lon="3.5892">
        <ele>207</ele>
        <time>2019-04-03T14:33:06Z</time>
      </trkpt>
      <trkpt lat="47.53777" lon="3.58917">
        <ele>208</ele>
        <time>2019-04-03T14:33:09Z</time>
      </trkpt>
      <trkpt lat="47.53774" lon="3.58911">
        <ele>208</ele>
        <time>2019-04-03T14:33:13Z</time>
      </trkpt>
      <trkpt lat="47.53772" lon="3.58907">
        <ele>206</ele>
        <time>2019-04-03T14:33:16Z</time>
      </trkpt>
      <trkpt lat="47.53768" lon="3.58901">
        <ele>206</ele>
        <time>2019-04-03T14:33:20Z</time>
      </trkpt>
      <trkpt lat="47.53765" lon="3.58894">
        <ele>206</ele>
        <time>2019-04-03T14:33:24Z</time>
      </trkpt>
      <trkpt lat="47.53762" lon="3.58887">
        <ele>207</ele>
        <time>2019-04-03T14:33:28Z</time>
      </trkpt>
      <trkpt lat="47.53758" lon="3.5888">
        <ele>206</ele>
        <time>2019-04-03T14:33:32Z</time>
      </trkpt>
      <trkpt lat="47.53756" lon="3.58876">
        <ele>206</ele>
        <time>2019-04-03T14:33:34Z</time>
      </trkpt>
      <trkpt lat="47.53752" lon="3.58869">
        <ele>206</ele>
        <time>2019-04-03T14:33:39Z</time>
      </trkpt>
      <trkpt lat="47.53749" lon="3.58863">
        <ele>208</ele>
        <time>2019-04-03T14:33:44Z</time>
      </trkpt>
      <trkpt lat="47.53747" lon="3.58859">
        <ele>208</ele>
        <time>2019-04-03T14:33:46Z</time>
      </trkpt>
      <trkpt lat="47.53744" lon="3.58856">
        <ele>208</ele>
        <time>2019-04-03T14:33:48Z</time>
      </trkpt>
      <trkpt lat="47.53741" lon="3.58851">
        <ele>208</ele>
        <time>2019-04-03T14:33:51Z</time>
      </trkpt>
      <trkpt lat="47.53738" lon="3.58845">
        <ele>207</ele>
        <time>2019-04-03T14:33:54Z</time>
      </trkpt>
      <trkpt lat="47.53735" lon="3.58838">
        <ele>208</ele>
        <time>2019-04-03T14:33:58Z</time>
      </trkpt>
      <trkpt lat="47.53731" lon="3.58831">
        <ele>208</ele>
        <time>2019-04-03T14:34:03Z</time>
      </trkpt>
      <trkpt lat="47.53729" lon="3.58828">
        <ele>207</ele>
        <time>2019-04-03T14:34:06Z</time>
      </trkpt>
      <trkpt lat="47.53725" lon="3.58823">
        <ele>207</ele>
        <time>2019-04-03T14:34:09Z</time>
      </trkpt>
      <trkpt lat="47.53723" lon="3.58817">
        <ele>207</ele>
        <time>2019-04-03T14:34:13Z</time>
      </trkpt>
      <trkpt lat="47.53722" lon="3.58813">
        <ele>207</ele>
        <time>2019-04-03T14:34:15Z</time>
      </trkpt>
      <trkpt lat="47.53719" lon="3.58808">
        <ele>207</ele>
        <time>2019-04-03T14:34:18Z</time>
      </trkpt>
      <trkpt lat="47.53717" lon="3.58804">
        <ele>206</ele>
        <time>2019-04-03T14:34:20Z</time>
      </trkpt>
      <trkpt lat="47.53713" lon="3.58799">
        <ele>207</ele>
        <time>2019-04-03T14:34:24Z</time>
      </trkpt>
      <trkpt lat="47.53711" lon="3.58796">
        <ele>207</ele>
        <time>2019-04-03T14:34:26Z</time>
      </trkpt>
      <trkpt lat="47.5371" lon="3.58793">
        <ele>207</ele>
        <time>2019-04-03T14:34:28Z</time>
      </trkpt>
      <trkpt lat="47.53708" lon="3.5879">
        <ele>207</ele>
        <time>2019-04-03T14:34:30Z</time>
      </trkpt>
      <trkpt lat="47.53704" lon="3.58783">
        <ele>208</ele>
        <time>2019-04-03T14:34:34Z</time>
      </trkpt>
      <trkpt lat="47.537" lon="3.58777">
        <ele>207</ele>
        <time>2019-04-03T14:34:38Z</time>
      </trkpt>
      <trkpt lat="47.53697" lon="3.5877">
        <ele>207</ele>
        <time>2019-04-03T14:34:42Z</time>
      </trkpt>
      <trkpt lat="47.53693" lon="3.58763">
        <ele>207</ele>
        <time>2019-04-03T14:34:46Z</time>
      </trkpt>
      <trkpt lat="47.5369" lon="3.58758">
        <ele>207</ele>
        <time>2019-04-03T14:34:49Z</time>
      </trkpt>
      <trkpt lat="47.53688" lon="3.58755">
        <ele>207</ele>
        <time>2019-04-03T14:34:51Z</time>
      </trkpt>
      <trkpt lat="47.53687" lon="3.58751">
        <ele>208</ele>
        <time>2019-04-03T14:34:53Z</time>
      </trkpt>
      <trkpt lat="47.53685" lon="3.58749">
        <ele>208</ele>
        <time>2019-04-03T14:34:55Z</time>
      </trkpt>
      <trkpt lat="47.53682" lon="3.58742">
        <ele>208</ele>
        <time>2019-04-03T14:34:59Z</time>
      </trkpt>
      <trkpt lat="47.5368" lon="3.58739">
        <ele>207</ele>
        <time>2019-04-03T14:35:01Z</time>
      </trkpt>
      <trkpt lat="47.53676" lon="3.58733">
        <ele>207</ele>
        <time>2019-04-03T14:35:04Z</time>
      </trkpt>
      <trkpt lat="47.53673" lon="3.58727">
        <ele>207</ele>
        <time>2019-04-03T14:35:08Z</time>
      </trkpt>
      <trkpt lat="47.53669" lon="3.58721">
        <ele>207</ele>
        <time>2019-04-03T14:35:11Z</time>
      </trkpt>
      <trkpt lat="47.53666" lon="3.58715">
        <ele>207</ele>
        <time>2019-04-03T14:35:15Z</time>
      </trkpt>
      <trkpt lat="47.53665" lon="3.58712">
        <ele>206</ele>
        <time>2019-04-03T14:35:17Z</time>
      </trkpt>
      <trkpt lat="47.53661" lon="3.58707">
        <ele>207</ele>
        <time>2019-04-03T14:35:21Z</time>
      </trkpt>
      <trkpt lat="47.53659" lon="3.587">
        <ele>207</ele>
        <time>2019-04-03T14:35:25Z</time>
      </trkpt>
      <trkpt lat="47.53655" lon="3.58695">
        <ele>207</ele>
        <time>2019-04-03T14:35:29Z</time>
      </trkpt>
      <trkpt lat="47.53653" lon="3.5869">
        <ele>207</ele>
        <time>2019-04-03T14:35:32Z</time>
      </trkpt>
      <trkpt lat="47.5365" lon="3.58686">
        <ele>207</ele>
        <time>2019-04-03T14:35:35Z</time>
      </trkpt>
      <trkpt lat="47.53648" lon="3.58682">
        <ele>207</ele>
        <time>2019-04-03T14:35:37Z</time>
      </trkpt>
      <trkpt lat="47.53646" lon="3.58678">
        <ele>207</ele>
        <time>2019-04-03T14:35:40Z</time>
      </trkpt>
      <trkpt lat="47.53645" lon="3.58671">
        <ele>207</ele>
        <time>2019-04-03T14:35:45Z</time>
      </trkpt>
      <trkpt lat="47.53642" lon="3.58666">
        <ele>207</ele>
        <time>2019-04-03T14:35:48Z</time>
      </trkpt>
      <trkpt lat="47.53639" lon="3.5866">
        <ele>207</ele>
        <time>2019-04-03T14:35:52Z</time>
      </trkpt>
      <trkpt lat="47.53636" lon="3.58653">
        <ele>207</ele>
        <time>2019-04-03T14:35:56Z</time>
      </trkpt>
      <trkpt lat="47.53634" lon="3.58646">
        <ele>207</ele>
        <time>2019-04-03T14:36:00Z</time>
      </trkpt>
      <trkpt lat="47.53633" lon="3.58643">
        <ele>207</ele>
        <time>2019-04-03T14:36:02Z</time>
      </trkpt>
      <trkpt lat="47.53629" lon="3.58638">
        <ele>206</ele>
        <time>2019-04-03T14:36:05Z</time>
      </trkpt>
      <trkpt lat="47.53628" lon="3.58635">
        <ele>206</ele>
        <time>2019-04-03T14:36:07Z</time>
      </trkpt>
      <trkpt lat="47.53623" lon="3.5863">
        <ele>206</ele>
        <time>2019-04-03T14:36:11Z</time>
      </trkpt>
      <trkpt lat="47.53618" lon="3.58627">
        <ele>207</ele>
        <time>2019-04-03T14:36:15Z</time>
      </trkpt>
      <trkpt lat="47.53616" lon="3.58626">
        <ele>207</ele>
        <time>2019-04-03T14:36:17Z</time>
      </trkpt>
      <trkpt lat="47.53611" lon="3.58622">
        <ele>205</ele>
        <time>2019-04-03T14:36:20Z</time>
      </trkpt>
      <trkpt lat="47.53607" lon="3.58617">
        <ele>204</ele>
        <time>2019-04-03T14:36:24Z</time>
      </trkpt>
      <trkpt lat="47.53605" lon="3.58614">
        <ele>203</ele>
        <time>2019-04-03T14:36:26Z</time>
      </trkpt>
      <trkpt lat="47.53601" lon="3.58611">
        <ele>204</ele>
        <time>2019-04-03T14:36:31Z</time>
      </trkpt>
      <trkpt lat="47.53597" lon="3.58607">
        <ele>204</ele>
        <time>2019-04-03T14:36:34Z</time>
      </trkpt>
      <trkpt lat="47.53597" lon="3.58607">
        <ele>204</ele>
        <time>2019-04-03T14:36:43Z</time>
      </trkpt>
      <trkpt lat="47.53597" lon="3.58607">
        <ele>204</ele>
        <time>2019-04-03T14:36:44Z</time>
      </trkpt>
      <trkpt lat="47.53605" lon="3.58598">
        <ele>205</ele>
        <time>2019-04-03T14:36:47Z</time>
      </trkpt>
      <trkpt lat="47.53613" lon="3.58595">
        <ele>204</ele>
        <time>2019-04-03T14:36:53Z</time>
      </trkpt>
      <trkpt lat="47.53615" lon="3.58594">
        <ele>204</ele>
        <time>2019-04-03T14:36:55Z</time>
      </trkpt>
      <trkpt lat="47.53621" lon="3.58591">
        <ele>204</ele>
        <time>2019-04-03T14:36:59Z</time>
      </trkpt>
      <trkpt lat="47.53628" lon="3.58589">
        <ele>204</ele>
        <time>2019-04-03T14:37:05Z</time>
      </trkpt>
      <trkpt lat="47.53632" lon="3.58586">
        <ele>204</ele>
        <time>2019-04-03T14:37:08Z</time>
      </trkpt>
      <trkpt lat="47.53637" lon="3.58585">
        <ele>204</ele>
        <time>2019-04-03T14:37:11Z</time>
      </trkpt>
      <trkpt lat="47.5364" lon="3.58584">
        <ele>204</ele>
        <time>2019-04-03T14:37:13Z</time>
      </trkpt>
      <trkpt lat="47.53643" lon="3.58583">
        <ele>204</ele>
        <time>2019-04-03T14:37:15Z</time>
      </trkpt>
      <trkpt lat="47.53646" lon="3.58583">
        <ele>204</ele>
        <time>2019-04-03T14:37:17Z</time>
      </trkpt>
      <trkpt lat="47.53649" lon="3.58582">
        <ele>204</ele>
        <time>2019-04-03T14:37:19Z</time>
      </trkpt>
      <trkpt lat="47.53655" lon="3.58578">
        <ele>205</ele>
        <time>2019-04-03T14:37:23Z</time>
      </trkpt>
      <trkpt lat="47.5366" lon="3.58574">
        <ele>205</ele>
        <time>2019-04-03T14:37:28Z</time>
      </trkpt>
      <trkpt lat="47.53662" lon="3.58572">
        <ele>205</ele>
        <time>2019-04-03T14:37:30Z</time>
      </trkpt>
      <trkpt lat="47.53667" lon="3.58571">
        <ele>205</ele>
        <time>2019-04-03T14:37:33Z</time>
      </trkpt>
      <trkpt lat="47.53672" lon="3.58568">
        <ele>204</ele>
        <time>2019-04-03T14:37:37Z</time>
      </trkpt>
      <trkpt lat="47.53677" lon="3.58563">
        <ele>203</ele>
        <time>2019-04-03T14:37:41Z</time>
      </trkpt>
      <trkpt lat="47.53681" lon="3.58558">
        <ele>202</ele>
        <time>2019-04-03T14:37:45Z</time>
      </trkpt>
      <trkpt lat="47.53685" lon="3.58555">
        <ele>201</ele>
        <time>2019-04-03T14:37:48Z</time>
      </trkpt>
      <trkpt lat="47.53689" lon="3.5855">
        <ele>200</ele>
        <time>2019-04-03T14:37:52Z</time>
      </trkpt>
      <trkpt lat="47.53694" lon="3.58547">
        <ele>200</ele>
        <time>2019-04-03T14:37:55Z</time>
      </trkpt>
      <trkpt lat="47.53698" lon="3.58544">
        <ele>199</ele>
        <time>2019-04-03T14:37:58Z</time>
      </trkpt>
      <trkpt lat="47.53703" lon="3.5854">
        <ele>199</ele>
        <time>2019-04-03T14:38:04Z</time>
      </trkpt>
      <trkpt lat="47.53706" lon="3.58537">
        <ele>200</ele>
        <time>2019-04-03T14:38:07Z</time>
      </trkpt>
      <trkpt lat="47.53711" lon="3.58533">
        <ele>199</ele>
        <time>2019-04-03T14:38:11Z</time>
      </trkpt>
      <trkpt lat="47.53715" lon="3.58531">
        <ele>199</ele>
        <time>2019-04-03T14:38:13Z</time>
      </trkpt>
      <trkpt lat="47.53717" lon="3.5853">
        <ele>199</ele>
        <time>2019-04-03T14:38:15Z</time>
      </trkpt>
      <trkpt lat="47.53721" lon="3.58527">
        <ele>198</ele>
        <time>2019-04-03T14:38:17Z</time>
      </trkpt>
      <trkpt lat="47.53726" lon="3.58526">
        <ele>198</ele>
        <time>2019-04-03T14:38:22Z</time>
      </trkpt>
      <trkpt lat="47.5373" lon="3.58523">
        <ele>198</ele>
        <time>2019-04-03T14:38:26Z</time>
      </trkpt>
      <trkpt lat="47.53733" lon="3.58522">
        <ele>198</ele>
        <time>2019-04-03T14:38:28Z</time>
      </trkpt>
      <trkpt lat="47.53736" lon="3.5852">
        <ele>197</ele>
        <time>2019-04-03T14:38:31Z</time>
      </trkpt>
      <trkpt lat="47.53742" lon="3.58516">
        <ele>197</ele>
        <time>2019-04-03T14:38:35Z</time>
      </trkpt>
      <trkpt lat="47.53745" lon="3.58514">
        <ele>198</ele>
        <time>2019-04-03T14:38:37Z</time>
      </trkpt>
      <trkpt lat="47.53749" lon="3.58508">
        <ele>197</ele>
        <time>2019-04-03T14:38:41Z</time>
      </trkpt>
      <trkpt lat="47.53752" lon="3.58502">
        <ele>198</ele>
        <time>2019-04-03T14:38:44Z</time>
      </trkpt>
      <trkpt lat="47.53752" lon="3.58495">
        <ele>197</ele>
        <time>2019-04-03T14:38:49Z</time>
      </trkpt>
      <trkpt lat="47.53752" lon="3.58491">
        <ele>197</ele>
        <time>2019-04-03T14:38:51Z</time>
      </trkpt>
      <trkpt lat="47.53753" lon="3.58486">
        <ele>198</ele>
        <time>2019-04-03T14:38:53Z</time>
      </trkpt>
      <trkpt lat="47.53752" lon="3.58478">
        <ele>198</ele>
        <time>2019-04-03T14:38:56Z</time>
      </trkpt>
      <trkpt lat="47.53752" lon="3.5847">
        <ele>199</ele>
        <time>2019-04-03T14:39:00Z</time>
      </trkpt>
      <trkpt lat="47.53752" lon="3.58466">
        <ele>199</ele>
        <time>2019-04-03T14:39:02Z</time>
      </trkpt>
      <trkpt lat="47.53752" lon="3.58462">
        <ele>198</ele>
        <time>2019-04-03T14:39:04Z</time>
      </trkpt>
      <trkpt lat="47.53751" lon="3.58453">
        <ele>197</ele>
        <time>2019-04-03T14:39:09Z</time>
      </trkpt>
      <trkpt lat="47.5375" lon="3.58449">
        <ele>197</ele>
        <time>2019-04-03T14:39:11Z</time>
      </trkpt>
      <trkpt lat="47.5375" lon="3.58442">
        <ele>197</ele>
        <time>2019-04-03T14:39:15Z</time>
      </trkpt>
      <trkpt lat="47.5375" lon="3.58435">
        <ele>195</ele>
        <time>2019-04-03T14:39:17Z</time>
      </trkpt>
      <trkpt lat="47.53749" lon="3.58431">
        <ele>195</ele>
        <time>2019-04-03T14:39:19Z</time>
      </trkpt>
      <trkpt lat="47.53749" lon="3.58427">
        <ele>195</ele>
        <time>2019-04-03T14:39:22Z</time>
      </trkpt>
      <trkpt lat="47.5375" lon="3.58419">
        <ele>195</ele>
        <time>2019-04-03T14:39:24Z</time>
      </trkpt>
      <trkpt lat="47.5375" lon="3.58414">
        <ele>196</ele>
        <time>2019-04-03T14:39:26Z</time>
      </trkpt>
      <trkpt lat="47.53749" lon="3.58406">
        <ele>195</ele>
        <time>2019-04-03T14:39:31Z</time>
      </trkpt>
      <trkpt lat="47.53749" lon="3.58398">
        <ele>195</ele>
        <time>2019-04-03T14:39:35Z</time>
      </trkpt>
      <trkpt lat="47.53748" lon="3.58387">
        <ele>193</ele>
        <time>2019-04-03T14:39:39Z</time>
      </trkpt>
      <trkpt lat="47.53748" lon="3.58379">
        <ele>193</ele>
        <time>2019-04-03T14:39:43Z</time>
      </trkpt>
      <trkpt lat="47.53747" lon="3.5837">
        <ele>193</ele>
        <time>2019-04-03T14:39:49Z</time>
      </trkpt>
      <trkpt lat="47.53748" lon="3.58359">
        <ele>192</ele>
        <time>2019-04-03T14:39:52Z</time>
      </trkpt>
      <trkpt lat="47.53747" lon="3.58351">
        <ele>192</ele>
        <time>2019-04-03T14:39:56Z</time>
      </trkpt>
      <trkpt lat="47.53747" lon="3.58347">
        <ele>192</ele>
        <time>2019-04-03T14:39:59Z</time>
      </trkpt>
      <trkpt lat="47.53746" lon="3.58342">
        <ele>193</ele>
        <time>2019-04-03T14:40:01Z</time>
      </trkpt>
      <trkpt lat="47.53746" lon="3.58334">
        <ele>193</ele>
        <time>2019-04-03T14:40:04Z</time>
      </trkpt>
      <trkpt lat="47.53745" lon="3.58326">
        <ele>192</ele>
        <time>2019-04-03T14:40:08Z</time>
      </trkpt>
      <trkpt lat="47.53744" lon="3.5832">
        <ele>193</ele>
        <time>2019-04-03T14:40:12Z</time>
      </trkpt>
      <trkpt lat="47.53743" lon="3.58316">
        <ele>193</ele>
        <time>2019-04-03T14:40:14Z</time>
      </trkpt>
      <trkpt lat="47.53742" lon="3.58312">
        <ele>193</ele>
        <time>2019-04-03T14:40:16Z</time>
      </trkpt>
      <trkpt lat="47.53739" lon="3.58301">
        <ele>192</ele>
        <time>2019-04-03T14:40:21Z</time>
      </trkpt>
      <trkpt lat="47.53737" lon="3.58295">
        <ele>192</ele>
        <time>2019-04-03T14:40:24Z</time>
      </trkpt>
      <trkpt lat="47.53735" lon="3.58286">
        <ele>193</ele>
        <time>2019-04-03T14:40:28Z</time>
      </trkpt>
      <trkpt lat="47.53734" lon="3.5828">
        <ele>192</ele>
        <time>2019-04-03T14:40:30Z</time>
      </trkpt>
      <trkpt lat="47.53732" lon="3.58276">
        <ele>193</ele>
        <time>2019-04-03T14:40:32Z</time>
      </trkpt>
      <trkpt lat="47.53731" lon="3.58272">
        <ele>193</ele>
        <time>2019-04-03T14:40:34Z</time>
      </trkpt>
      <trkpt lat="47.5373" lon="3.58264">
        <ele>192</ele>
        <time>2019-04-03T14:40:39Z</time>
      </trkpt>
      <trkpt lat="47.53729" lon="3.58256">
        <ele>193</ele>
        <time>2019-04-03T14:40:42Z</time>
      </trkpt>
      <trkpt lat="47.53726" lon="3.58249">
        <ele>193</ele>
        <time>2019-04-03T14:40:46Z</time>
      </trkpt>
      <trkpt lat="47.53724" lon="3.58241">
        <ele>193</ele>
        <time>2019-04-03T14:40:50Z</time>
      </trkpt>
      <trkpt lat="47.53723" lon="3.58238">
        <ele>193</ele>
        <time>2019-04-03T14:40:51Z</time>
      </trkpt>
      <trkpt lat="47.53722" lon="3.58233">
        <ele>193</ele>
        <time>2019-04-03T14:40:53Z</time>
      </trkpt>
      <trkpt lat="47.53719" lon="3.58226">
        <ele>193</ele>
        <time>2019-04-03T14:40:57Z</time>
      </trkpt>
      <trkpt lat="47.53717" lon="3.58219">
        <ele>192</ele>
        <time>2019-04-03T14:41:01Z</time>
      </trkpt>
      <trkpt lat="47.53714" lon="3.5821">
        <ele>192</ele>
        <time>2019-04-03T14:41:07Z</time>
      </trkpt>
      <trkpt lat="47.53714" lon="3.58205">
        <ele>189</ele>
        <time>2019-04-03T14:41:16Z</time>
      </trkpt>
      <trkpt lat="47.53712" lon="3.58197">
        <ele>191</ele>
        <time>2019-04-03T14:41:35Z</time>
      </trkpt>
      <trkpt lat="47.53711" lon="3.5819">
        <ele>191</ele>
        <time>2019-04-03T14:41:39Z</time>
      </trkpt>
      <trkpt lat="47.53711" lon="3.58186">
        <ele>191</ele>
        <time>2019-04-03T14:41:41Z</time>
      </trkpt>
      <trkpt lat="47.53711" lon="3.58181">
        <ele>190</ele>
        <time>2019-04-03T14:41:44Z</time>
      </trkpt>
      <trkpt lat="47.53709" lon="3.58174">
        <ele>190</ele>
        <time>2019-04-03T14:41:48Z</time>
      </trkpt>
      <trkpt lat="47.53708" lon="3.58168">
        <ele>190</ele>
        <time>2019-04-03T14:41:51Z</time>
      </trkpt>
      <trkpt lat="47.53707" lon="3.58164">
        <ele>189</ele>
        <time>2019-04-03T14:41:53Z</time>
      </trkpt>
      <trkpt lat="47.53706" lon="3.5816">
        <ele>190</ele>
        <time>2019-04-03T14:41:55Z</time>
      </trkpt>
      <trkpt lat="47.53705" lon="3.58156">
        <ele>190</ele>
        <time>2019-04-03T14:41:57Z</time>
      </trkpt>
      <trkpt lat="47.53703" lon="3.58149">
        <ele>189</ele>
        <time>2019-04-03T14:42:01Z</time>
      </trkpt>
      <trkpt lat="47.53701" lon="3.58142">
        <ele>188</ele>
        <time>2019-04-03T14:42:05Z</time>
      </trkpt>
      <trkpt lat="47.537" lon="3.58138">
        <ele>188</ele>
        <time>2019-04-03T14:42:07Z</time>
      </trkpt>
      <trkpt lat="47.53699" lon="3.58132">
        <ele>189</ele>
        <time>2019-04-03T14:42:10Z</time>
      </trkpt>
      <trkpt lat="47.53698" lon="3.58127">
        <ele>190</ele>
        <time>2019-04-03T14:42:13Z</time>
      </trkpt>
      <trkpt lat="47.53696" lon="3.58119">
        <ele>189</ele>
        <time>2019-04-03T14:42:17Z</time>
      </trkpt>
      <trkpt lat="47.53693" lon="3.58113">
        <ele>190</ele>
        <time>2019-04-03T14:42:20Z</time>
      </trkpt>
      <trkpt lat="47.53691" lon="3.58109">
        <ele>189</ele>
        <time>2019-04-03T14:42:22Z</time>
      </trkpt>
      <trkpt lat="47.5369" lon="3.58105">
        <ele>188</ele>
        <time>2019-04-03T14:42:24Z</time>
      </trkpt>
      <trkpt lat="47.53688" lon="3.58098">
        <ele>188</ele>
        <time>2019-04-03T14:42:28Z</time>
      </trkpt>
      <trkpt lat="47.53688" lon="3.58094">
        <ele>188</ele>
        <time>2019-04-03T14:42:30Z</time>
      </trkpt>
      <trkpt lat="47.53687" lon="3.5809">
        <ele>188</ele>
        <time>2019-04-03T14:42:32Z</time>
      </trkpt>
      <trkpt lat="47.53686" lon="3.58087">
        <ele>189</ele>
        <time>2019-04-03T14:42:34Z</time>
      </trkpt>
      <trkpt lat="47.53684" lon="3.58082">
        <ele>188</ele>
        <time>2019-04-03T14:42:36Z</time>
      </trkpt>
      <trkpt lat="47.53683" lon="3.58078">
        <ele>188</ele>
        <time>2019-04-03T14:42:38Z</time>
      </trkpt>
      <trkpt lat="47.53682" lon="3.58071">
        <ele>189</ele>
        <time>2019-04-03T14:42:41Z</time>
      </trkpt>
      <trkpt lat="47.53679" lon="3.58066">
        <ele>187</ele>
        <time>2019-04-03T14:42:44Z</time>
      </trkpt>
      <trkpt lat="47.53678" lon="3.58062">
        <ele>188</ele>
        <time>2019-04-03T14:42:46Z</time>
      </trkpt>
      <trkpt lat="47.53677" lon="3.58059">
        <ele>188</ele>
        <time>2019-04-03T14:42:48Z</time>
      </trkpt>
      <trkpt lat="47.53675" lon="3.58055">
        <ele>188</ele>
        <time>2019-04-03T14:42:50Z</time>
      </trkpt>
      <trkpt lat="47.53674" lon="3.58052">
        <ele>189</ele>
        <time>2019-04-03T14:42:52Z</time>
      </trkpt>
      <trkpt lat="47.53672" lon="3.58048">
        <ele>189</ele>
        <time>2019-04-03T14:42:54Z</time>
      </trkpt>
      <trkpt lat="47.5367" lon="3.58041">
        <ele>187</ele>
        <time>2019-04-03T14:42:58Z</time>
      </trkpt>
      <trkpt lat="47.53667" lon="3.58034">
        <ele>186</ele>
        <time>2019-04-03T14:43:02Z</time>
      </trkpt>
      <trkpt lat="47.53664" lon="3.58027">
        <ele>187</ele>
        <time>2019-04-03T14:43:06Z</time>
      </trkpt>
      <trkpt lat="47.53662" lon="3.5802">
        <ele>186</ele>
        <time>2019-04-03T14:43:10Z</time>
      </trkpt>
      <trkpt lat="47.53661" lon="3.58016">
        <ele>187</ele>
        <time>2019-04-03T14:43:12Z</time>
      </trkpt>
      <trkpt lat="47.53657" lon="3.58011">
        <ele>188</ele>
        <time>2019-04-03T14:43:16Z</time>
      </trkpt>
      <trkpt lat="47.53655" lon="3.58006">
        <ele>188</ele>
        <time>2019-04-03T14:43:19Z</time>
      </trkpt>
      <trkpt lat="47.53653" lon="3.58">
        <ele>188</ele>
        <time>2019-04-03T14:43:22Z</time>
      </trkpt>
      <trkpt lat="47.5365" lon="3.57993">
        <ele>187</ele>
        <time>2019-04-03T14:43:26Z</time>
      </trkpt>
      <trkpt lat="47.53648" lon="3.57987">
        <ele>187</ele>
        <time>2019-04-03T14:43:30Z</time>
      </trkpt>
      <trkpt lat="47.53645" lon="3.57981">
        <ele>188</ele>
        <time>2019-04-03T14:43:33Z</time>
      </trkpt>
      <trkpt lat="47.53643" lon="3.57978">
        <ele>187</ele>
        <time>2019-04-03T14:43:35Z</time>
      </trkpt>
      <trkpt lat="47.53641" lon="3.57974">
        <ele>188</ele>
        <time>2019-04-03T14:43:37Z</time>
      </trkpt>
      <trkpt lat="47.5364" lon="3.57971">
        <ele>188</ele>
        <time>2019-04-03T14:43:39Z</time>
      </trkpt>
      <trkpt lat="47.53637" lon="3.57965">
        <ele>189</ele>
        <time>2019-04-03T14:43:43Z</time>
      </trkpt>
      <trkpt lat="47.53633" lon="3.57958">
        <ele>189</ele>
        <time>2019-04-03T14:43:47Z</time>
      </trkpt>
      <trkpt lat="47.5363" lon="3.57951">
        <ele>188</ele>
        <time>2019-04-03T14:43:51Z</time>
      </trkpt>
      <trkpt lat="47.53628" lon="3.57946">
        <ele>189</ele>
        <time>2019-04-03T14:43:54Z</time>
      </trkpt>
      <trkpt lat="47.53625" lon="3.57939">
        <ele>189</ele>
        <time>2019-04-03T14:43:58Z</time>
      </trkpt>
      <trkpt lat="47.53623" lon="3.57935">
        <ele>188</ele>
        <time>2019-04-03T14:44:01Z</time>
      </trkpt>
      <trkpt lat="47.53621" lon="3.5793">
        <ele>188</ele>
        <time>2019-04-03T14:44:03Z</time>
      </trkpt>
      <trkpt lat="47.53619" lon="3.57926">
        <ele>188</ele>
        <time>2019-04-03T14:44:05Z</time>
      </trkpt>
      <trkpt lat="47.53618" lon="3.57923">
        <ele>188</ele>
        <time>2019-04-03T14:44:07Z</time>
      </trkpt>
      <trkpt lat="47.53616" lon="3.57916">
        <ele>187</ele>
        <time>2019-04-03T14:44:10Z</time>
      </trkpt>
      <trkpt lat="47.53613" lon="3.57909">
        <ele>186</ele>
        <time>2019-04-03T14:44:14Z</time>
      </trkpt>
      <trkpt lat="47.53611" lon="3.57906">
        <ele>187</ele>
        <time>2019-04-03T14:44:16Z</time>
      </trkpt>
      <trkpt lat="47.53609" lon="3.57899">
        <ele>186</ele>
        <time>2019-04-03T14:44:20Z</time>
      </trkpt>
      <trkpt lat="47.53607" lon="3.57892">
        <ele>187</ele>
        <time>2019-04-03T14:44:23Z</time>
      </trkpt>
      <trkpt lat="47.53605" lon="3.57885">
        <ele>187</ele>
        <time>2019-04-03T14:44:26Z</time>
      </trkpt>
      <trkpt lat="47.53605" lon="3.5788">
        <ele>186</ele>
        <time>2019-04-03T14:44:28Z</time>
      </trkpt>
      <trkpt lat="47.53602" lon="3.57873">
        <ele>187</ele>
        <time>2019-04-03T14:44:32Z</time>
      </trkpt>
      <trkpt lat="47.53602" lon="3.57869">
        <ele>186</ele>
        <time>2019-04-03T14:44:34Z</time>
      </trkpt>
      <trkpt lat="47.536" lon="3.57863">
        <ele>186</ele>
        <time>2019-04-03T14:44:37Z</time>
      </trkpt>
      <trkpt lat="47.536" lon="3.57859">
        <ele>186</ele>
        <time>2019-04-03T14:44:39Z</time>
      </trkpt>
      <trkpt lat="47.53598" lon="3.57851">
        <ele>185</ele>
        <time>2019-04-03T14:44:43Z</time>
      </trkpt>
      <trkpt lat="47.53598" lon="3.57843">
        <ele>186</ele>
        <time>2019-04-03T14:44:47Z</time>
      </trkpt>
      <trkpt lat="47.53596" lon="3.57835">
        <ele>186</ele>
        <time>2019-04-03T14:44:51Z</time>
      </trkpt>
      <trkpt lat="47.53595" lon="3.57831">
        <ele>186</ele>
        <time>2019-04-03T14:44:53Z</time>
      </trkpt>
      <trkpt lat="47.53594" lon="3.57824">
        <ele>186</ele>
        <time>2019-04-03T14:44:57Z</time>
      </trkpt>
      <trkpt lat="47.53592" lon="3.57816">
        <ele>186</ele>
        <time>2019-04-03T14:45:01Z</time>
      </trkpt>
      <trkpt lat="47.53591" lon="3.57812">
        <ele>187</ele>
        <time>2019-04-03T14:45:03Z</time>
      </trkpt>
      <trkpt lat="47.53589" lon="3.57804">
        <ele>186</ele>
        <time>2019-04-03T14:45:07Z</time>
      </trkpt>
      <trkpt lat="47.53588" lon="3.57798">
        <ele>186</ele>
        <time>2019-04-03T14:45:10Z</time>
      </trkpt>
      <trkpt lat="47.53585" lon="3.57789">
        <ele>186</ele>
        <time>2019-04-03T14:45:14Z</time>
      </trkpt>
      <trkpt lat="47.53584" lon="3.57784">
        <ele>187</ele>
        <time>2019-04-03T14:45:16Z</time>
      </trkpt>
      <trkpt lat="47.53583" lon="3.57778">
        <ele>187</ele>
        <time>2019-04-03T14:45:19Z</time>
      </trkpt>
      <trkpt lat="47.53582" lon="3.57775">
        <ele>187</ele>
        <time>2019-04-03T14:45:21Z</time>
      </trkpt>
      <trkpt lat="47.5358" lon="3.57769">
        <ele>186</ele>
        <time>2019-04-03T14:45:24Z</time>
      </trkpt>
      <trkpt lat="47.53579" lon="3.57762">
        <ele>186</ele>
        <time>2019-04-03T14:45:27Z</time>
      </trkpt>
      <trkpt lat="47.53576" lon="3.57755">
        <ele>187</ele>
        <time>2019-04-03T14:45:31Z</time>
      </trkpt>
      <trkpt lat="47.53575" lon="3.57752">
        <ele>186</ele>
        <time>2019-04-03T14:45:33Z</time>
      </trkpt>
      <trkpt lat="47.53574" lon="3.57748">
        <ele>186</ele>
        <time>2019-04-03T14:45:35Z</time>
      </trkpt>
      <trkpt lat="47.53572" lon="3.57742">
        <ele>186</ele>
        <time>2019-04-03T14:45:38Z</time>
      </trkpt>
      <trkpt lat="47.53571" lon="3.57734">
        <ele>186</ele>
        <time>2019-04-03T14:45:42Z</time>
      </trkpt>
      <trkpt lat="47.5357" lon="3.5773">
        <ele>187</ele>
        <time>2019-04-03T14:45:44Z</time>
      </trkpt>
      <trkpt lat="47.53569" lon="3.57726">
        <ele>187</ele>
        <time>2019-04-03T14:45:46Z</time>
      </trkpt>
      <trkpt lat="47.53567" lon="3.57721">
        <ele>187</ele>
        <time>2019-04-03T14:45:49Z</time>
      </trkpt>
      <trkpt lat="47.53565" lon="3.57714">
        <ele>187</ele>
        <time>2019-04-03T14:45:52Z</time>
      </trkpt>
      <trkpt lat="47.53565" lon="3.5771">
        <ele>187</ele>
        <time>2019-04-03T14:45:54Z</time>
      </trkpt>
      <trkpt lat="47.53563" lon="3.57706">
        <ele>187</ele>
        <time>2019-04-03T14:45:56Z</time>
      </trkpt>
      <trkpt lat="47.5356" lon="3.57698">
        <ele>187</ele>
        <time>2019-04-03T14:46:00Z</time>
      </trkpt>
      <trkpt lat="47.53559" lon="3.57693">
        <ele>187</ele>
        <time>2019-04-03T14:46:02Z</time>
      </trkpt>
      <trkpt lat="47.53557" lon="3.5769">
        <ele>187</ele>
        <time>2019-04-03T14:46:04Z</time>
      </trkpt>
      <trkpt lat="47.53555" lon="3.57683">
        <ele>187</ele>
        <time>2019-04-03T14:46:07Z</time>
      </trkpt>
      <trkpt lat="47.5355" lon="3.57675">
        <ele>186</ele>
        <time>2019-04-03T14:46:12Z</time>
      </trkpt>
      <trkpt lat="47.53546" lon="3.57668">
        <ele>186</ele>
        <time>2019-04-03T14:46:16Z</time>
      </trkpt>
      <trkpt lat="47.53543" lon="3.57663">
        <ele>186</ele>
        <time>2019-04-03T14:46:19Z</time>
      </trkpt>
      <trkpt lat="47.53539" lon="3.57656">
        <ele>186</ele>
        <time>2019-04-03T14:46:23Z</time>
      </trkpt>
      <trkpt lat="47.53538" lon="3.57653">
        <ele>186</ele>
        <time>2019-04-03T14:46:25Z</time>
      </trkpt>
      <trkpt lat="47.53535" lon="3.57649">
        <ele>186</ele>
        <time>2019-04-03T14:46:27Z</time>
      </trkpt>
      <trkpt lat="47.53532" lon="3.57642">
        <ele>187</ele>
        <time>2019-04-03T14:46:31Z</time>
      </trkpt>
      <trkpt lat="47.53531" lon="3.57639">
        <ele>186</ele>
        <time>2019-04-03T14:46:33Z</time>
      </trkpt>
      <trkpt lat="47.53528" lon="3.57633">
        <ele>187</ele>
        <time>2019-04-03T14:46:36Z</time>
      </trkpt>
      <trkpt lat="47.53524" lon="3.57627">
        <ele>186</ele>
        <time>2019-04-03T14:46:40Z</time>
      </trkpt>
      <trkpt lat="47.53522" lon="3.57625">
        <ele>187</ele>
        <time>2019-04-03T14:46:42Z</time>
      </trkpt>
      <trkpt lat="47.53518" lon="3.5762">
        <ele>187</ele>
        <time>2019-04-03T14:46:45Z</time>
      </trkpt>
      <trkpt lat="47.53515" lon="3.57613">
        <ele>188</ele>
        <time>2019-04-03T14:46:49Z</time>
      </trkpt>
      <trkpt lat="47.53511" lon="3.57607">
        <ele>187</ele>
        <time>2019-04-03T14:46:53Z</time>
      </trkpt>
      <trkpt lat="47.53508" lon="3.576">
        <ele>188</ele>
        <time>2019-04-03T14:46:57Z</time>
      </trkpt>
      <trkpt lat="47.53504" lon="3.57593">
        <ele>188</ele>
        <time>2019-04-03T14:47:01Z</time>
      </trkpt>
      <trkpt lat="47.53501" lon="3.5759">
        <ele>188</ele>
        <time>2019-04-03T14:47:03Z</time>
      </trkpt>
      <trkpt lat="47.53499" lon="3.57583">
        <ele>187</ele>
        <time>2019-04-03T14:47:07Z</time>
      </trkpt>
      <trkpt lat="47.53497" lon="3.57576">
        <ele>188</ele>
        <time>2019-04-03T14:47:11Z</time>
      </trkpt>
      <trkpt lat="47.53496" lon="3.57569">
        <ele>187</ele>
        <time>2019-04-03T14:47:15Z</time>
      </trkpt>
      <trkpt lat="47.53494" lon="3.57562">
        <ele>187</ele>
        <time>2019-04-03T14:47:18Z</time>
      </trkpt>
      <trkpt lat="47.53493" lon="3.57558">
        <ele>188</ele>
        <time>2019-04-03T14:47:20Z</time>
      </trkpt>
      <trkpt lat="47.53493" lon="3.57549">
        <ele>187</ele>
        <time>2019-04-03T14:47:24Z</time>
      </trkpt>
      <trkpt lat="47.53493" lon="3.57545">
        <ele>186</ele>
        <time>2019-04-03T14:47:26Z</time>
      </trkpt>
      <trkpt lat="47.53493" lon="3.57537">
        <ele>186</ele>
        <time>2019-04-03T14:47:30Z</time>
      </trkpt>
      <trkpt lat="47.53491" lon="3.57527">
        <ele>187</ele>
        <time>2019-04-03T14:47:35Z</time>
      </trkpt>
      <trkpt lat="47.5349" lon="3.57521">
        <ele>187</ele>
        <time>2019-04-03T14:47:38Z</time>
      </trkpt>
      <trkpt lat="47.53489" lon="3.57516">
        <ele>187</ele>
        <time>2019-04-03T14:47:41Z</time>
      </trkpt>
      <trkpt lat="47.53489" lon="3.57507">
        <ele>187</ele>
        <time>2019-04-03T14:47:45Z</time>
      </trkpt>
      <trkpt lat="47.53489" lon="3.57503">
        <ele>187</ele>
        <time>2019-04-03T14:47:47Z</time>
      </trkpt>
      <trkpt lat="47.53489" lon="3.57499">
        <ele>187</ele>
        <time>2019-04-03T14:47:49Z</time>
      </trkpt>
      <trkpt lat="47.53488" lon="3.57494">
        <ele>187</ele>
        <time>2019-04-03T14:47:51Z</time>
      </trkpt>
      <trkpt lat="47.53488" lon="3.57488">
        <ele>188</ele>
        <time>2019-04-03T14:47:54Z</time>
      </trkpt>
      <trkpt lat="47.53487" lon="3.57482">
        <ele>188</ele>
        <time>2019-04-03T14:47:57Z</time>
      </trkpt>
      <trkpt lat="47.53486" lon="3.57475">
        <ele>189</ele>
        <time>2019-04-03T14:48:00Z</time>
      </trkpt>
      <trkpt lat="47.53485" lon="3.57468">
        <ele>189</ele>
        <time>2019-04-03T14:48:04Z</time>
      </trkpt>
      <trkpt lat="47.53483" lon="3.57461">
        <ele>188</ele>
        <time>2019-04-03T14:48:07Z</time>
      </trkpt>
      <trkpt lat="47.5348" lon="3.57455">
        <ele>188</ele>
        <time>2019-04-03T14:48:10Z</time>
      </trkpt>
      <trkpt lat="47.53478" lon="3.57451">
        <ele>189</ele>
        <time>2019-04-03T14:48:12Z</time>
      </trkpt>
      <trkpt lat="47.53474" lon="3.57443">
        <ele>189</ele>
        <time>2019-04-03T14:48:16Z</time>
      </trkpt>
      <trkpt lat="47.53472" lon="3.57438">
        <ele>189</ele>
        <time>2019-04-03T14:48:19Z</time>
      </trkpt>
      <trkpt lat="47.53469" lon="3.57432">
        <ele>189</ele>
        <time>2019-04-03T14:48:22Z</time>
      </trkpt>
      <trkpt lat="47.53467" lon="3.57429">
        <ele>189</ele>
        <time>2019-04-03T14:48:24Z</time>
      </trkpt>
      <trkpt lat="47.53465" lon="3.57426">
        <ele>190</ele>
        <time>2019-04-03T14:48:26Z</time>
      </trkpt>
      <trkpt lat="47.53463" lon="3.5742">
        <ele>190</ele>
        <time>2019-04-03T14:48:29Z</time>
      </trkpt>
      <trkpt lat="47.53459" lon="3.57415">
        <ele>190</ele>
        <time>2019-04-03T14:48:32Z</time>
      </trkpt>
      <trkpt lat="47.53455" lon="3.57409">
        <ele>189</ele>
        <time>2019-04-03T14:48:36Z</time>
      </trkpt>
      <trkpt lat="47.53453" lon="3.57406">
        <ele>189</ele>
        <time>2019-04-03T14:48:38Z</time>
      </trkpt>
      <trkpt lat="47.5345" lon="3.57401">
        <ele>189</ele>
        <time>2019-04-03T14:48:41Z</time>
      </trkpt>
      <trkpt lat="47.53447" lon="3.57394">
        <ele>190</ele>
        <time>2019-04-03T14:48:45Z</time>
      </trkpt>
      <trkpt lat="47.53443" lon="3.57387">
        <ele>190</ele>
        <time>2019-04-03T14:48:49Z</time>
      </trkpt>
      <trkpt lat="47.53439" lon="3.57382">
        <ele>189</ele>
        <time>2019-04-03T14:48:53Z</time>
      </trkpt>
      <trkpt lat="47.53436" lon="3.57377">
        <ele>190</ele>
        <time>2019-04-03T14:48:56Z</time>
      </trkpt>
      <trkpt lat="47.53434" lon="3.57373">
        <ele>190</ele>
        <time>2019-04-03T14:48:58Z</time>
      </trkpt>
      <trkpt lat="47.53432" lon="3.57366">
        <ele>189</ele>
        <time>2019-04-03T14:49:03Z</time>
      </trkpt>
      <trkpt lat="47.53429" lon="3.57361">
        <ele>189</ele>
        <time>2019-04-03T14:49:07Z</time>
      </trkpt>
      <trkpt lat="47.53425" lon="3.57355">
        <ele>190</ele>
        <time>2019-04-03T14:49:10Z</time>
      </trkpt>
      <trkpt lat="47.53423" lon="3.5735">
        <ele>190</ele>
        <time>2019-04-03T14:49:13Z</time>
      </trkpt>
      <trkpt lat="47.53421" lon="3.57344">
        <ele>191</ele>
        <time>2019-04-03T14:49:17Z</time>
      </trkpt>
      <trkpt lat="47.53417" lon="3.5734">
        <ele>192</ele>
        <time>2019-04-03T14:49:21Z</time>
      </trkpt>
      <trkpt lat="47.53413" lon="3.57334">
        <ele>192</ele>
        <time>2019-04-03T14:49:25Z</time>
      </trkpt>
      <trkpt lat="47.53412" lon="3.57332">
        <ele>192</ele>
        <time>2019-04-03T14:49:27Z</time>
      </trkpt>
      <trkpt lat="47.53409" lon="3.57323">
        <ele>191</ele>
        <time>2019-04-03T14:49:31Z</time>
      </trkpt>
      <trkpt lat="47.53408" lon="3.57319">
        <ele>191</ele>
        <time>2019-04-03T14:49:33Z</time>
      </trkpt>
      <trkpt lat="47.53406" lon="3.57316">
        <ele>191</ele>
        <time>2019-04-03T14:49:35Z</time>
      </trkpt>
      <trkpt lat="47.53405" lon="3.57312">
        <ele>191</ele>
        <time>2019-04-03T14:49:36Z</time>
      </trkpt>
      <trkpt lat="47.53403" lon="3.57309">
        <ele>191</ele>
        <time>2019-04-03T14:49:39Z</time>
      </trkpt>
      <trkpt lat="47.53401" lon="3.57304">
        <ele>190</ele>
        <time>2019-04-03T14:49:42Z</time>
      </trkpt>
      <trkpt lat="47.53399" lon="3.573">
        <ele>190</ele>
        <time>2019-04-03T14:49:44Z</time>
      </trkpt>
      <trkpt lat="47.53396" lon="3.57294">
        <ele>191</ele>
        <time>2019-04-03T14:49:48Z</time>
      </trkpt>
      <trkpt lat="47.53392" lon="3.57285">
        <ele>192</ele>
        <time>2019-04-03T14:49:53Z</time>
      </trkpt>
      <trkpt lat="47.53391" lon="3.57281">
        <ele>192</ele>
        <time>2019-04-03T14:49:55Z</time>
      </trkpt>
      <trkpt lat="47.53388" lon="3.57275">
        <ele>191</ele>
        <time>2019-04-03T14:49:59Z</time>
      </trkpt>
      <trkpt lat="47.53384" lon="3.57268">
        <ele>191</ele>
        <time>2019-04-03T14:50:03Z</time>
      </trkpt>
      <trkpt lat="47.53382" lon="3.57261">
        <ele>192</ele>
        <time>2019-04-03T14:50:07Z</time>
      </trkpt>
      <trkpt lat="47.53381" lon="3.57257">
        <ele>193</ele>
        <time>2019-04-03T14:50:09Z</time>
      </trkpt>
      <trkpt lat="47.53378" lon="3.5725">
        <ele>193</ele>
        <time>2019-04-03T14:50:12Z</time>
      </trkpt>
      <trkpt lat="47.53376" lon="3.57247">
        <ele>194</ele>
        <time>2019-04-03T14:50:14Z</time>
      </trkpt>
      <trkpt lat="47.53374" lon="3.5724">
        <ele>194</ele>
        <time>2019-04-03T14:50:18Z</time>
      </trkpt>
      <trkpt lat="47.53373" lon="3.57234">
        <ele>194</ele>
        <time>2019-04-03T14:50:21Z</time>
      </trkpt>
      <trkpt lat="47.53371" lon="3.57231">
        <ele>194</ele>
        <time>2019-04-03T14:50:23Z</time>
      </trkpt>
      <trkpt lat="47.5337" lon="3.57227">
        <ele>194</ele>
        <time>2019-04-03T14:50:25Z</time>
      </trkpt>
      <trkpt lat="47.53367" lon="3.57218">
        <ele>194</ele>
        <time>2019-04-03T14:50:30Z</time>
      </trkpt>
      <trkpt lat="47.53365" lon="3.57211">
        <ele>195</ele>
        <time>2019-04-03T14:50:34Z</time>
      </trkpt>
      <trkpt lat="47.53363" lon="3.57204">
        <ele>196</ele>
        <time>2019-04-03T14:50:38Z</time>
      </trkpt>
      <trkpt lat="47.53362" lon="3.57197">
        <ele>196</ele>
        <time>2019-04-03T14:50:42Z</time>
      </trkpt>
      <trkpt lat="47.53361" lon="3.57192">
        <ele>197</ele>
        <time>2019-04-03T14:50:47Z</time>
      </trkpt>
      <trkpt lat="47.53359" lon="3.57187">
        <ele>198</ele>
        <time>2019-04-03T14:50:50Z</time>
      </trkpt>
      <trkpt lat="47.53358" lon="3.57182">
        <ele>196</ele>
        <time>2019-04-03T14:50:53Z</time>
      </trkpt>
      <trkpt lat="47.53357" lon="3.57177">
        <ele>197</ele>
        <time>2019-04-03T14:50:56Z</time>
      </trkpt>
      <trkpt lat="47.53357" lon="3.57173">
        <ele>197</ele>
        <time>2019-04-03T14:50:58Z</time>
      </trkpt>
      <trkpt lat="47.53356" lon="3.57169">
        <ele>197</ele>
        <time>2019-04-03T14:51:00Z</time>
      </trkpt>
      <trkpt lat="47.53356" lon="3.57162">
        <ele>196</ele>
        <time>2019-04-03T14:51:03Z</time>
      </trkpt>
      <trkpt lat="47.53355" lon="3.57156">
        <ele>197</ele>
        <time>2019-04-03T14:51:06Z</time>
      </trkpt>
      <trkpt lat="47.53354" lon="3.57149">
        <ele>197</ele>
        <time>2019-04-03T14:51:09Z</time>
      </trkpt>
      <trkpt lat="47.53354" lon="3.57145">
        <ele>197</ele>
        <time>2019-04-03T14:51:11Z</time>
      </trkpt>
      <trkpt lat="47.53353" lon="3.57139">
        <ele>197</ele>
        <time>2019-04-03T14:51:14Z</time>
      </trkpt>
      <trkpt lat="47.53352" lon="3.57133">
        <ele>197</ele>
        <time>2019-04-03T14:51:17Z</time>
      </trkpt>
      <trkpt lat="47.53351" lon="3.57129">
        <ele>197</ele>
        <time>2019-04-03T14:51:19Z</time>
      </trkpt>
      <trkpt lat="47.53349" lon="3.57121">
        <ele>198</ele>
        <time>2019-04-03T14:51:23Z</time>
      </trkpt>
      <trkpt lat="47.53348" lon="3.57112">
        <ele>198</ele>
        <time>2019-04-03T14:51:27Z</time>
      </trkpt>
      <trkpt lat="47.53348" lon="3.57105">
        <ele>198</ele>
        <time>2019-04-03T14:51:30Z</time>
      </trkpt>
      <trkpt lat="47.53346" lon="3.57097">
        <ele>198</ele>
        <time>2019-04-03T14:51:34Z</time>
      </trkpt>
      <trkpt lat="47.53345" lon="3.57091">
        <ele>198</ele>
        <time>2019-04-03T14:51:37Z</time>
      </trkpt>
      <trkpt lat="47.53344" lon="3.57084">
        <ele>198</ele>
        <time>2019-04-03T14:51:41Z</time>
      </trkpt>
      <trkpt lat="47.53341" lon="3.57075">
        <ele>197</ele>
        <time>2019-04-03T14:51:46Z</time>
      </trkpt>
      <trkpt lat="47.5334" lon="3.5707">
        <ele>198</ele>
        <time>2019-04-03T14:51:48Z</time>
      </trkpt>
      <trkpt lat="47.53339" lon="3.57062">
        <ele>198</ele>
        <time>2019-04-03T14:51:51Z</time>
      </trkpt>
      <trkpt lat="47.53338" lon="3.57054">
        <ele>198</ele>
        <time>2019-04-03T14:51:55Z</time>
      </trkpt>
      <trkpt lat="47.53337" lon="3.5705">
        <ele>198</ele>
        <time>2019-04-03T14:51:57Z</time>
      </trkpt>
      <trkpt lat="47.53336" lon="3.57044">
        <ele>198</ele>
        <time>2019-04-03T14:52:00Z</time>
      </trkpt>
      <trkpt lat="47.53335" lon="3.5704">
        <ele>198</ele>
        <time>2019-04-03T14:52:02Z</time>
      </trkpt>
      <trkpt lat="47.53335" lon="3.57037">
        <ele>199</ele>
        <time>2019-04-03T14:52:04Z</time>
      </trkpt>
      <trkpt lat="47.53334" lon="3.57028">
        <ele>198</ele>
        <time>2019-04-03T14:52:08Z</time>
      </trkpt>
      <trkpt lat="47.53333" lon="3.57021">
        <ele>199</ele>
        <time>2019-04-03T14:52:11Z</time>
      </trkpt>
      <trkpt lat="47.53332" lon="3.57017">
        <ele>198</ele>
        <time>2019-04-03T14:52:13Z</time>
      </trkpt>
      <trkpt lat="47.5333" lon="3.57009">
        <ele>199</ele>
        <time>2019-04-03T14:52:17Z</time>
      </trkpt>
      <trkpt lat="47.5333" lon="3.57006">
        <ele>199</ele>
        <time>2019-04-03T14:52:19Z</time>
      </trkpt>
      <trkpt lat="47.53329" lon="3.57002">
        <ele>199</ele>
        <time>2019-04-03T14:52:21Z</time>
      </trkpt>
      <trkpt lat="47.53329" lon="3.56994">
        <ele>200</ele>
        <time>2019-04-03T14:52:25Z</time>
      </trkpt>
      <trkpt lat="47.53328" lon="3.5699">
        <ele>200</ele>
        <time>2019-04-03T14:52:27Z</time>
      </trkpt>
      <trkpt lat="47.53328" lon="3.56986">
        <ele>200</ele>
        <time>2019-04-03T14:52:29Z</time>
      </trkpt>
      <trkpt lat="47.53328" lon="3.56979">
        <ele>199</ele>
        <time>2019-04-03T14:52:32Z</time>
      </trkpt>
      <trkpt lat="47.53327" lon="3.56972">
        <ele>200</ele>
        <time>2019-04-03T14:52:35Z</time>
      </trkpt>
      <trkpt lat="47.53326" lon="3.56968">
        <ele>200</ele>
        <time>2019-04-03T14:52:37Z</time>
      </trkpt>
      <trkpt lat="47.53325" lon="3.56965">
        <ele>200</ele>
        <time>2019-04-03T14:52:39Z</time>
      </trkpt>
      <trkpt lat="47.53324" lon="3.56958">
        <ele>201</ele>
        <time>2019-04-03T14:52:42Z</time>
      </trkpt>
      <trkpt lat="47.53322" lon="3.5695">
        <ele>201</ele>
        <time>2019-04-03T14:52:46Z</time>
      </trkpt>
      <trkpt lat="47.53321" lon="3.56946">
        <ele>201</ele>
        <time>2019-04-03T14:52:48Z</time>
      </trkpt>
      <trkpt lat="47.53319" lon="3.56941">
        <ele>201</ele>
        <time>2019-04-03T14:52:51Z</time>
      </trkpt>
      <trkpt lat="47.53317" lon="3.56937">
        <ele>201</ele>
        <time>2019-04-03T14:52:53Z</time>
      </trkpt>
      <trkpt lat="47.53315" lon="3.56933">
        <ele>200</ele>
        <time>2019-04-03T14:52:55Z</time>
      </trkpt>
      <trkpt lat="47.53312" lon="3.56928">
        <ele>200</ele>
        <time>2019-04-03T14:52:58Z</time>
      </trkpt>
      <trkpt lat="47.53309" lon="3.56921">
        <ele>201</ele>
        <time>2019-04-03T14:53:02Z</time>
      </trkpt>
      <trkpt lat="47.53306" lon="3.56916">
        <ele>201</ele>
        <time>2019-04-03T14:53:05Z</time>
      </trkpt>
      <trkpt lat="47.53302" lon="3.56907">
        <ele>201</ele>
        <time>2019-04-03T14:53:10Z</time>
      </trkpt>
      <trkpt lat="47.53298" lon="3.569">
        <ele>202</ele>
        <time>2019-04-03T14:53:14Z</time>
      </trkpt>
      <trkpt lat="47.53296" lon="3.56897">
        <ele>202</ele>
        <time>2019-04-03T14:53:16Z</time>
      </trkpt>
      <trkpt lat="47.53294" lon="3.56893">
        <ele>202</ele>
        <time>2019-04-03T14:53:18Z</time>
      </trkpt>
      <trkpt lat="47.5329" lon="3.56887">
        <ele>202</ele>
        <time>2019-04-03T14:53:23Z</time>
      </trkpt>
      <trkpt lat="47.53287" lon="3.5688">
        <ele>203</ele>
        <time>2019-04-03T14:53:27Z</time>
      </trkpt>
      <trkpt lat="47.53284" lon="3.56874">
        <ele>204</ele>
        <time>2019-04-03T14:53:31Z</time>
      </trkpt>
      <trkpt lat="47.5328" lon="3.56868">
        <ele>204</ele>
        <time>2019-04-03T14:53:35Z</time>
      </trkpt>
      <trkpt lat="47.53277" lon="3.56862">
        <ele>204</ele>
        <time>2019-04-03T14:53:38Z</time>
      </trkpt>
      <trkpt lat="47.53275" lon="3.56859">
        <ele>204</ele>
        <time>2019-04-03T14:53:40Z</time>
      </trkpt>
      <trkpt lat="47.53272" lon="3.56854">
        <ele>205</ele>
        <time>2019-04-03T14:53:43Z</time>
      </trkpt>
      <trkpt lat="47.5327" lon="3.5685">
        <ele>205</ele>
        <time>2019-04-03T14:53:45Z</time>
      </trkpt>
      <trkpt lat="47.53268" lon="3.56846">
        <ele>205</ele>
        <time>2019-04-03T14:53:47Z</time>
      </trkpt>
      <trkpt lat="47.53266" lon="3.56843">
        <ele>205</ele>
        <time>2019-04-03T14:53:49Z</time>
      </trkpt>
      <trkpt lat="47.53261" lon="3.56835">
        <ele>206</ele>
        <time>2019-04-03T14:53:54Z</time>
      </trkpt>
      <trkpt lat="47.5326" lon="3.56832">
        <ele>207</ele>
        <time>2019-04-03T14:53:56Z</time>
      </trkpt>
      <trkpt lat="47.53257" lon="3.56823">
        <ele>207</ele>
        <time>2019-04-03T14:54:00Z</time>
      </trkpt>
      <trkpt lat="47.53256" lon="3.56819">
        <ele>207</ele>
        <time>2019-04-03T14:54:02Z</time>
      </trkpt>
      <trkpt lat="47.53254" lon="3.56812">
        <ele>206</ele>
        <time>2019-04-03T14:54:06Z</time>
      </trkpt>
      <trkpt lat="47.53252" lon="3.56808">
        <ele>207</ele>
        <time>2019-04-03T14:54:08Z</time>
      </trkpt>
      <trkpt lat="47.5325" lon="3.56803">
        <ele>207</ele>
        <time>2019-04-03T14:54:11Z</time>
      </trkpt>
      <trkpt lat="47.53248" lon="3.56798">
        <ele>206</ele>
        <time>2019-04-03T14:54:14Z</time>
      </trkpt>
      <trkpt lat="47.53247" lon="3.56795">
        <ele>207</ele>
        <time>2019-04-03T14:54:16Z</time>
      </trkpt>
      <trkpt lat="47.53244" lon="3.5679">
        <ele>207</ele>
        <time>2019-04-03T14:54:19Z</time>
      </trkpt>
      <trkpt lat="47.53242" lon="3.56782">
        <ele>207</ele>
        <time>2019-04-03T14:54:23Z</time>
      </trkpt>
      <trkpt lat="47.5324" lon="3.56775">
        <ele>207</ele>
        <time>2019-04-03T14:54:27Z</time>
      </trkpt>
      <trkpt lat="47.53237" lon="3.56768">
        <ele>207</ele>
        <time>2019-04-03T14:54:31Z</time>
      </trkpt>
      <trkpt lat="47.53234" lon="3.56764">
        <ele>207</ele>
        <time>2019-04-03T14:54:33Z</time>
      </trkpt>
      <trkpt lat="47.53232" lon="3.56756">
        <ele>208</ele>
        <time>2019-04-03T14:54:37Z</time>
      </trkpt>
      <trkpt lat="47.5323" lon="3.56752">
        <ele>207</ele>
        <time>2019-04-03T14:54:40Z</time>
      </trkpt>
      <trkpt lat="47.53227" lon="3.56746">
        <ele>207</ele>
        <time>2019-04-03T14:54:43Z</time>
      </trkpt>
      <trkpt lat="47.53224" lon="3.56737">
        <ele>207</ele>
        <time>2019-04-03T14:54:48Z</time>
      </trkpt>
      <trkpt lat="47.53221" lon="3.5673">
        <ele>208</ele>
        <time>2019-04-03T14:54:52Z</time>
      </trkpt>
      <trkpt lat="47.53219" lon="3.56726">
        <ele>208</ele>
        <time>2019-04-03T14:54:54Z</time>
      </trkpt>
      <trkpt lat="47.53218" lon="3.56723">
        <ele>209</ele>
        <time>2019-04-03T14:54:56Z</time>
      </trkpt>
      <trkpt lat="47.53217" lon="3.56719">
        <ele>209</ele>
        <time>2019-04-03T14:54:58Z</time>
      </trkpt>
      <trkpt lat="47.53215" lon="3.56715">
        <ele>209</ele>
        <time>2019-04-03T14:55:00Z</time>
      </trkpt>
      <trkpt lat="47.53214" lon="3.56711">
        <ele>209</ele>
        <time>2019-04-03T14:55:02Z</time>
      </trkpt>
      <trkpt lat="47.53211" lon="3.56705">
        <ele>208</ele>
        <time>2019-04-03T14:55:05Z</time>
      </trkpt>
      <trkpt lat="47.53207" lon="3.56699">
        <ele>208</ele>
        <time>2019-04-03T14:55:09Z</time>
      </trkpt>
      <trkpt lat="47.53204" lon="3.56693">
        <ele>209</ele>
        <time>2019-04-03T14:55:12Z</time>
      </trkpt>
      <trkpt lat="47.53201" lon="3.56687">
        <ele>209</ele>
        <time>2019-04-03T14:55:15Z</time>
      </trkpt>
      <trkpt lat="47.53198" lon="3.5668">
        <ele>209</ele>
        <time>2019-04-03T14:55:19Z</time>
      </trkpt>
      <trkpt lat="47.53196" lon="3.56677">
        <ele>210</ele>
        <time>2019-04-03T14:55:21Z</time>
      </trkpt>
      <trkpt lat="47.53195" lon="3.56673">
        <ele>210</ele>
        <time>2019-04-03T14:55:23Z</time>
      </trkpt>
      <trkpt lat="47.53193" lon="3.5667">
        <ele>210</ele>
        <time>2019-04-03T14:55:25Z</time>
      </trkpt>
      <trkpt lat="47.53191" lon="3.56666">
        <ele>211</ele>
        <time>2019-04-03T14:55:27Z</time>
      </trkpt>
      <trkpt lat="47.53189" lon="3.56659">
        <ele>211</ele>
        <time>2019-04-03T14:55:31Z</time>
      </trkpt>
      <trkpt lat="47.53186" lon="3.56652">
        <ele>211</ele>
        <time>2019-04-03T14:55:35Z</time>
      </trkpt>
      <trkpt lat="47.53184" lon="3.56648">
        <ele>211</ele>
        <time>2019-04-03T14:55:37Z</time>
      </trkpt>
      <trkpt lat="47.53181" lon="3.56643">
        <ele>212</ele>
        <time>2019-04-03T14:55:41Z</time>
      </trkpt>
      <trkpt lat="47.53178" lon="3.56635">
        <ele>211</ele>
        <time>2019-04-03T14:55:45Z</time>
      </trkpt>
      <trkpt lat="47.53175" lon="3.56628">
        <ele>212</ele>
        <time>2019-04-03T14:55:49Z</time>
      </trkpt>
      <trkpt lat="47.53173" lon="3.56625">
        <ele>212</ele>
        <time>2019-04-03T14:55:51Z</time>
      </trkpt>
      <trkpt lat="47.53171" lon="3.56617">
        <ele>212</ele>
        <time>2019-04-03T14:55:55Z</time>
      </trkpt>
      <trkpt lat="47.53168" lon="3.5661">
        <ele>212</ele>
        <time>2019-04-03T14:55:59Z</time>
      </trkpt>
      <trkpt lat="47.53166" lon="3.56603">
        <ele>211</ele>
        <time>2019-04-03T14:56:03Z</time>
      </trkpt>
      <trkpt lat="47.53163" lon="3.56597">
        <ele>212</ele>
        <time>2019-04-03T14:56:06Z</time>
      </trkpt>
      <trkpt lat="47.53161" lon="3.56593">
        <ele>211</ele>
        <time>2019-04-03T14:56:08Z</time>
      </trkpt>
      <trkpt lat="47.5316" lon="3.56589">
        <ele>211</ele>
        <time>2019-04-03T14:56:10Z</time>
      </trkpt>
      <trkpt lat="47.53158" lon="3.56585">
        <ele>212</ele>
        <time>2019-04-03T14:56:12Z</time>
      </trkpt>
      <trkpt lat="47.53156" lon="3.56578">
        <ele>212</ele>
        <time>2019-04-03T14:56:16Z</time>
      </trkpt>
      <trkpt lat="47.53155" lon="3.56574">
        <ele>212</ele>
        <time>2019-04-03T14:56:18Z</time>
      </trkpt>
      <trkpt lat="47.53154" lon="3.5657">
        <ele>212</ele>
        <time>2019-04-03T14:56:20Z</time>
      </trkpt>
      <trkpt lat="47.53153" lon="3.56566">
        <ele>213</ele>
        <time>2019-04-03T14:56:22Z</time>
      </trkpt>
      <trkpt lat="47.53151" lon="3.5656">
        <ele>213</ele>
        <time>2019-04-03T14:56:25Z</time>
      </trkpt>
      <trkpt lat="47.53149" lon="3.56554">
        <ele>212</ele>
        <time>2019-04-03T14:56:28Z</time>
      </trkpt>
      <trkpt lat="47.53146" lon="3.56548">
        <ele>212</ele>
        <time>2019-04-03T14:56:31Z</time>
      </trkpt>
      <trkpt lat="47.53144" lon="3.56539">
        <ele>212</ele>
        <time>2019-04-03T14:56:35Z</time>
      </trkpt>
      <trkpt lat="47.53142" lon="3.56535">
        <ele>211</ele>
        <time>2019-04-03T14:56:37Z</time>
      </trkpt>
      <trkpt lat="47.53141" lon="3.56532">
        <ele>212</ele>
        <time>2019-04-03T14:56:39Z</time>
      </trkpt>
      <trkpt lat="47.5314" lon="3.56528">
        <ele>212</ele>
        <time>2019-04-03T14:56:41Z</time>
      </trkpt>
      <trkpt lat="47.53139" lon="3.56519">
        <ele>212</ele>
        <time>2019-04-03T14:56:45Z</time>
      </trkpt>
      <trkpt lat="47.53137" lon="3.56512">
        <ele>212</ele>
        <time>2019-04-03T14:56:48Z</time>
      </trkpt>
      <trkpt lat="47.53135" lon="3.56506">
        <ele>212</ele>
        <time>2019-04-03T14:56:51Z</time>
      </trkpt>
      <trkpt lat="47.53133" lon="3.565">
        <ele>212</ele>
        <time>2019-04-03T14:56:55Z</time>
      </trkpt>
      <trkpt lat="47.5313" lon="3.56491">
        <ele>212</ele>
        <time>2019-04-03T14:56:59Z</time>
      </trkpt>
      <trkpt lat="47.53129" lon="3.56487">
        <ele>212</ele>
        <time>2019-04-03T14:57:01Z</time>
      </trkpt>
      <trkpt lat="47.53127" lon="3.56479">
        <ele>211</ele>
        <time>2019-04-03T14:57:05Z</time>
      </trkpt>
      <trkpt lat="47.53126" lon="3.56471">
        <ele>212</ele>
        <time>2019-04-03T14:57:09Z</time>
      </trkpt>
      <trkpt lat="47.53125" lon="3.56464">
        <ele>212</ele>
        <time>2019-04-03T14:57:12Z</time>
      </trkpt>
      <trkpt lat="47.53123" lon="3.56458">
        <ele>212</ele>
        <time>2019-04-03T14:57:15Z</time>
      </trkpt>
      <trkpt lat="47.53121" lon="3.56448">
        <ele>212</ele>
        <time>2019-04-03T14:57:20Z</time>
      </trkpt>
      <trkpt lat="47.53119" lon="3.56441">
        <ele>213</ele>
        <time>2019-04-03T14:57:23Z</time>
      </trkpt>
      <trkpt lat="47.53118" lon="3.56435">
        <ele>213</ele>
        <time>2019-04-03T14:57:26Z</time>
      </trkpt>
      <trkpt lat="47.53117" lon="3.56431">
        <ele>213</ele>
        <time>2019-04-03T14:57:28Z</time>
      </trkpt>
      <trkpt lat="47.53115" lon="3.56425">
        <ele>213</ele>
        <time>2019-04-03T14:57:33Z</time>
      </trkpt>
      <trkpt lat="47.53114" lon="3.56415">
        <ele>213</ele>
        <time>2019-04-03T14:57:38Z</time>
      </trkpt>
      <trkpt lat="47.53113" lon="3.56409">
        <ele>213</ele>
        <time>2019-04-03T14:57:41Z</time>
      </trkpt>
      <trkpt lat="47.53111" lon="3.56403">
        <ele>213</ele>
        <time>2019-04-03T14:57:44Z</time>
      </trkpt>
      <trkpt lat="47.53109" lon="3.56398">
        <ele>212</ele>
        <time>2019-04-03T14:57:47Z</time>
      </trkpt>
      <trkpt lat="47.53109" lon="3.56389">
        <ele>213</ele>
        <time>2019-04-03T14:57:50Z</time>
      </trkpt>
      <trkpt lat="47.53109" lon="3.56385">
        <ele>213</ele>
        <time>2019-04-03T14:57:53Z</time>
      </trkpt>
      <trkpt lat="47.53108" lon="3.56381">
        <ele>213</ele>
        <time>2019-04-03T14:57:55Z</time>
      </trkpt>
      <trkpt lat="47.53108" lon="3.56376">
        <ele>213</ele>
        <time>2019-04-03T14:57:57Z</time>
      </trkpt>
      <trkpt lat="47.53108" lon="3.56367">
        <ele>213</ele>
        <time>2019-04-03T14:58:01Z</time>
      </trkpt>
      <trkpt lat="47.53108" lon="3.56364">
        <ele>213</ele>
        <time>2019-04-03T14:58:03Z</time>
      </trkpt>
      <trkpt lat="47.53108" lon="3.56357">
        <ele>213</ele>
        <time>2019-04-03T14:58:07Z</time>
      </trkpt>
      <trkpt lat="47.53109" lon="3.5635">
        <ele>213</ele>
        <time>2019-04-03T14:58:10Z</time>
      </trkpt>
      <trkpt lat="47.53108" lon="3.56343">
        <ele>214</ele>
        <time>2019-04-03T14:58:14Z</time>
      </trkpt>
      <trkpt lat="47.53108" lon="3.56343">
        <ele>214</ele>
        <time>2019-04-03T14:58:22Z</time>
      </trkpt>
      <trkpt lat="47.53108" lon="3.56343">
        <ele>214</ele>
        <time>2019-04-03T14:58:23Z</time>
      </trkpt>
      <trkpt lat="47.53106" lon="3.56337">
        <ele>210</ele>
        <time>2019-04-03T15:03:44Z</time>
      </trkpt>
      <trkpt lat="47.53105" lon="3.56334">
        <ele>211</ele>
        <time>2019-04-03T15:03:47Z</time>
      </trkpt>
      <trkpt lat="47.53105" lon="3.56326">
        <ele>212</ele>
        <time>2019-04-03T15:04:01Z</time>
      </trkpt>
      <trkpt lat="47.53104" lon="3.56319">
        <ele>213</ele>
        <time>2019-04-03T15:04:08Z</time>
      </trkpt>
      <trkpt lat="47.53104" lon="3.56316">
        <ele>212</ele>
        <time>2019-04-03T15:04:09Z</time>
      </trkpt>
      <trkpt lat="47.53103" lon="3.56312">
        <ele>211</ele>
        <time>2019-04-03T15:04:11Z</time>
      </trkpt>
      <trkpt lat="47.53102" lon="3.56302">
        <ele>211</ele>
        <time>2019-04-03T15:04:17Z</time>
      </trkpt>
      <trkpt lat="47.531" lon="3.56297">
        <ele>211</ele>
        <time>2019-04-03T15:04:20Z</time>
      </trkpt>
      <trkpt lat="47.53099" lon="3.56292">
        <ele>212</ele>
        <time>2019-04-03T15:04:23Z</time>
      </trkpt>
      <trkpt lat="47.53099" lon="3.56288">
        <ele>212</ele>
        <time>2019-04-03T15:04:25Z</time>
      </trkpt>
      <trkpt lat="47.53098" lon="3.56283">
        <ele>211</ele>
        <time>2019-04-03T15:04:28Z</time>
      </trkpt>
      <trkpt lat="47.53096" lon="3.56277">
        <ele>211</ele>
        <time>2019-04-03T15:04:32Z</time>
      </trkpt>
      <trkpt lat="47.53095" lon="3.56273">
        <ele>211</ele>
        <time>2019-04-03T15:04:34Z</time>
      </trkpt>
      <trkpt lat="47.53093" lon="3.56268">
        <ele>210</ele>
        <time>2019-04-03T15:04:37Z</time>
      </trkpt>
      <trkpt lat="47.53092" lon="3.56264">
        <ele>210</ele>
        <time>2019-04-03T15:04:40Z</time>
      </trkpt>
      <trkpt lat="47.53091" lon="3.56261">
        <ele>209</ele>
        <time>2019-04-03T15:04:42Z</time>
      </trkpt>
      <trkpt lat="47.5309" lon="3.56257">
        <ele>209</ele>
        <time>2019-04-03T15:04:44Z</time>
      </trkpt>
      <trkpt lat="47.53089" lon="3.56253">
        <ele>209</ele>
        <time>2019-04-03T15:04:46Z</time>
      </trkpt>
      <trkpt lat="47.53087" lon="3.56247">
        <ele>209</ele>
        <time>2019-04-03T15:04:50Z</time>
      </trkpt>
      <trkpt lat="47.53085" lon="3.5624">
        <ele>208</ele>
        <time>2019-04-03T15:04:55Z</time>
      </trkpt>
      <trkpt lat="47.53083" lon="3.56235">
        <ele>207</ele>
        <time>2019-04-03T15:04:58Z</time>
      </trkpt>
      <trkpt lat="47.53078" lon="3.56223">
        <ele>207</ele>
        <time>2019-04-03T15:05:05Z</time>
      </trkpt>
      <trkpt lat="47.53076" lon="3.56215">
        <ele>207</ele>
        <time>2019-04-03T15:05:10Z</time>
      </trkpt>
      <trkpt lat="47.53072" lon="3.56209">
        <ele>207</ele>
        <time>2019-04-03T15:05:14Z</time>
      </trkpt>
      <trkpt lat="47.53071" lon="3.56206">
        <ele>206</ele>
        <time>2019-04-03T15:05:16Z</time>
      </trkpt>
      <trkpt lat="47.53069" lon="3.56198">
        <ele>205</ele>
        <time>2019-04-03T15:05:20Z</time>
      </trkpt>
      <trkpt lat="47.53068" lon="3.56195">
        <ele>204</ele>
        <time>2019-04-03T15:05:23Z</time>
      </trkpt>
      <trkpt lat="47.53066" lon="3.56187">
        <ele>204</ele>
        <time>2019-04-03T15:05:26Z</time>
      </trkpt>
      <trkpt lat="47.53065" lon="3.56184">
        <ele>204</ele>
        <time>2019-04-03T15:05:28Z</time>
      </trkpt>
      <trkpt lat="47.53063" lon="3.5618">
        <ele>203</ele>
        <time>2019-04-03T15:05:32Z</time>
      </trkpt>
      <trkpt lat="47.53062" lon="3.56176">
        <ele>203</ele>
        <time>2019-04-03T15:05:33Z</time>
      </trkpt>
      <trkpt lat="47.5306" lon="3.56172">
        <ele>203</ele>
        <time>2019-04-03T15:05:35Z</time>
      </trkpt>
      <trkpt lat="47.53059" lon="3.56168">
        <ele>203</ele>
        <time>2019-04-03T15:05:37Z</time>
      </trkpt>
      <trkpt lat="47.53056" lon="3.56161">
        <ele>203</ele>
        <time>2019-04-03T15:05:41Z</time>
      </trkpt>
      <trkpt lat="47.53055" lon="3.56157">
        <ele>202</ele>
        <time>2019-04-03T15:05:44Z</time>
      </trkpt>
      <trkpt lat="47.53053" lon="3.56153">
        <ele>202</ele>
        <time>2019-04-03T15:05:46Z</time>
      </trkpt>
      <trkpt lat="47.53051" lon="3.56146">
        <ele>201</ele>
        <time>2019-04-03T15:05:51Z</time>
      </trkpt>
      <trkpt lat="47.5305" lon="3.56138">
        <ele>200</ele>
        <time>2019-04-03T15:05:55Z</time>
      </trkpt>
      <trkpt lat="47.53047" lon="3.56131">
        <ele>198</ele>
        <time>2019-04-03T15:06:00Z</time>
      </trkpt>
      <trkpt lat="47.53043" lon="3.56124">
        <ele>198</ele>
        <time>2019-04-03T15:06:05Z</time>
      </trkpt>
      <trkpt lat="47.53039" lon="3.56119">
        <ele>198</ele>
        <time>2019-04-03T15:06:09Z</time>
      </trkpt>
      <trkpt lat="47.53036" lon="3.56113">
        <ele>197</ele>
        <time>2019-04-03T15:06:13Z</time>
      </trkpt>
      <trkpt lat="47.53034" lon="3.5611">
        <ele>197</ele>
        <time>2019-04-03T15:06:15Z</time>
      </trkpt>
      <trkpt lat="47.53033" lon="3.56107">
        <ele>198</ele>
        <time>2019-04-03T15:06:18Z</time>
      </trkpt>
      <trkpt lat="47.53032" lon="3.56097">
        <ele>196</ele>
        <time>2019-04-03T15:06:23Z</time>
      </trkpt>
      <trkpt lat="47.53031" lon="3.56086">
        <ele>196</ele>
        <time>2019-04-03T15:06:29Z</time>
      </trkpt>
      <trkpt lat="47.53031" lon="3.56081">
        <ele>195</ele>
        <time>2019-04-03T15:06:32Z</time>
      </trkpt>
      <trkpt lat="47.5303" lon="3.56076">
        <ele>194</ele>
        <time>2019-04-03T15:06:34Z</time>
      </trkpt>
      <trkpt lat="47.53029" lon="3.5607">
        <ele>193</ele>
        <time>2019-04-03T15:06:37Z</time>
      </trkpt>
      <trkpt lat="47.53029" lon="3.56062">
        <ele>193</ele>
        <time>2019-04-03T15:06:41Z</time>
      </trkpt>
      <trkpt lat="47.53029" lon="3.56054">
        <ele>194</ele>
        <time>2019-04-03T15:06:45Z</time>
      </trkpt>
      <trkpt lat="47.53029" lon="3.56047">
        <ele>194</ele>
        <time>2019-04-03T15:06:49Z</time>
      </trkpt>
      <trkpt lat="47.53029" lon="3.56042">
        <ele>194</ele>
        <time>2019-04-03T15:06:52Z</time>
      </trkpt>
      <trkpt lat="47.53029" lon="3.56037">
        <ele>193</ele>
        <time>2019-04-03T15:06:54Z</time>
      </trkpt>
      <trkpt lat="47.53029" lon="3.56034">
        <ele>193</ele>
        <time>2019-04-03T15:06:56Z</time>
      </trkpt>
      <trkpt lat="47.53029" lon="3.56025">
        <ele>193</ele>
        <time>2019-04-03T15:07:00Z</time>
      </trkpt>
      <trkpt lat="47.53028" lon="3.56019">
        <ele>193</ele>
        <time>2019-04-03T15:07:04Z</time>
      </trkpt>
      <trkpt lat="47.53028" lon="3.56012">
        <ele>192</ele>
        <time>2019-04-03T15:07:07Z</time>
      </trkpt>
      <trkpt lat="47.53028" lon="3.56008">
        <ele>192</ele>
        <time>2019-04-03T15:07:09Z</time>
      </trkpt>
      <trkpt lat="47.53028" lon="3.56004">
        <ele>192</ele>
        <time>2019-04-03T15:07:11Z</time>
      </trkpt>
      <trkpt lat="47.53028" lon="3.56">
        <ele>192</ele>
        <time>2019-04-03T15:07:13Z</time>
      </trkpt>
      <trkpt lat="47.53028" lon="3.55993">
        <ele>192</ele>
        <time>2019-04-03T15:07:16Z</time>
      </trkpt>
      <trkpt lat="47.53028" lon="3.5599">
        <ele>192</ele>
        <time>2019-04-03T15:07:18Z</time>
      </trkpt>
      <trkpt lat="47.53028" lon="3.55981">
        <ele>193</ele>
        <time>2019-04-03T15:07:23Z</time>
      </trkpt>
      <trkpt lat="47.53028" lon="3.55976">
        <ele>193</ele>
        <time>2019-04-03T15:07:26Z</time>
      </trkpt>
      <trkpt lat="47.5303" lon="3.55968">
        <ele>194</ele>
        <time>2019-04-03T15:07:30Z</time>
      </trkpt>
      <trkpt lat="47.5303" lon="3.5596">
        <ele>195</ele>
        <time>2019-04-03T15:07:35Z</time>
      </trkpt>
      <trkpt lat="47.53029" lon="3.55954">
        <ele>195</ele>
        <time>2019-04-03T15:07:38Z</time>
      </trkpt>
      <trkpt lat="47.53029" lon="3.55945">
        <ele>196</ele>
        <time>2019-04-03T15:07:42Z</time>
      </trkpt>
      <trkpt lat="47.53029" lon="3.55937">
        <ele>195</ele>
        <time>2019-04-03T15:07:46Z</time>
      </trkpt>
      <trkpt lat="47.53029" lon="3.55933">
        <ele>195</ele>
        <time>2019-04-03T15:07:48Z</time>
      </trkpt>
      <trkpt lat="47.53029" lon="3.55927">
        <ele>196</ele>
        <time>2019-04-03T15:07:51Z</time>
      </trkpt>
      <trkpt lat="47.53029" lon="3.55923">
        <ele>196</ele>
        <time>2019-04-03T15:07:53Z</time>
      </trkpt>
      <trkpt lat="47.53029" lon="3.55916">
        <ele>196</ele>
        <time>2019-04-03T15:07:56Z</time>
      </trkpt>
      <trkpt lat="47.53026" lon="3.55909">
        <ele>194</ele>
        <time>2019-04-03T15:08:00Z</time>
      </trkpt>
      <trkpt lat="47.53026" lon="3.55902">
        <ele>194</ele>
        <time>2019-04-03T15:08:04Z</time>
      </trkpt>
      <trkpt lat="47.53026" lon="3.55892">
        <ele>193</ele>
        <time>2019-04-03T15:08:09Z</time>
      </trkpt>
      <trkpt lat="47.53026" lon="3.55888">
        <ele>193</ele>
        <time>2019-04-03T15:08:11Z</time>
      </trkpt>
      <trkpt lat="47.53026" lon="3.55882">
        <ele>193</ele>
        <time>2019-04-03T15:08:14Z</time>
      </trkpt>
      <trkpt lat="47.53026" lon="3.55875">
        <ele>193</ele>
        <time>2019-04-03T15:08:18Z</time>
      </trkpt>
      <trkpt lat="47.53025" lon="3.5587">
        <ele>193</ele>
        <time>2019-04-03T15:08:20Z</time>
      </trkpt>
      <trkpt lat="47.53025" lon="3.55866">
        <ele>193</ele>
        <time>2019-04-03T15:08:22Z</time>
      </trkpt>
      <trkpt lat="47.53024" lon="3.55863">
        <ele>193</ele>
        <time>2019-04-03T15:08:24Z</time>
      </trkpt>
      <trkpt lat="47.53025" lon="3.55854">
        <ele>192</ele>
        <time>2019-04-03T15:08:28Z</time>
      </trkpt>
      <trkpt lat="47.53024" lon="3.55845">
        <ele>192</ele>
        <time>2019-04-03T15:08:33Z</time>
      </trkpt>
      <trkpt lat="47.53023" lon="3.55839">
        <ele>191</ele>
        <time>2019-04-03T15:08:36Z</time>
      </trkpt>
      <trkpt lat="47.53023" lon="3.55832">
        <ele>190</ele>
        <time>2019-04-03T15:08:40Z</time>
      </trkpt>
      <trkpt lat="47.53023" lon="3.55824">
        <ele>190</ele>
        <time>2019-04-03T15:08:44Z</time>
      </trkpt>
      <trkpt lat="47.53022" lon="3.55817">
        <ele>190</ele>
        <time>2019-04-03T15:08:48Z</time>
      </trkpt>
      <trkpt lat="47.53021" lon="3.5581">
        <ele>190</ele>
        <time>2019-04-03T15:08:52Z</time>
      </trkpt>
      <trkpt lat="47.53021" lon="3.55803">
        <ele>190</ele>
        <time>2019-04-03T15:08:56Z</time>
      </trkpt>
      <trkpt lat="47.53021" lon="3.55799">
        <ele>190</ele>
        <time>2019-04-03T15:08:58Z</time>
      </trkpt>
      <trkpt lat="47.53021" lon="3.55793">
        <ele>191</ele>
        <time>2019-04-03T15:09:01Z</time>
      </trkpt>
      <trkpt lat="47.5302" lon="3.55789">
        <ele>191</ele>
        <time>2019-04-03T15:09:03Z</time>
      </trkpt>
      <trkpt lat="47.5302" lon="3.55782">
        <ele>191</ele>
        <time>2019-04-03T15:09:07Z</time>
      </trkpt>
      <trkpt lat="47.53018" lon="3.55775">
        <ele>191</ele>
        <time>2019-04-03T15:09:11Z</time>
      </trkpt>
      <trkpt lat="47.53017" lon="3.55769">
        <ele>192</ele>
        <time>2019-04-03T15:09:14Z</time>
      </trkpt>
      <trkpt lat="47.53015" lon="3.55759">
        <ele>191</ele>
        <time>2019-04-03T15:09:19Z</time>
      </trkpt>
      <trkpt lat="47.53014" lon="3.55755">
        <ele>191</ele>
        <time>2019-04-03T15:09:21Z</time>
      </trkpt>
      <trkpt lat="47.53013" lon="3.55749">
        <ele>191</ele>
        <time>2019-04-03T15:09:24Z</time>
      </trkpt>
      <trkpt lat="47.53013" lon="3.55745">
        <ele>191</ele>
        <time>2019-04-03T15:09:27Z</time>
      </trkpt>
      <trkpt lat="47.5301" lon="3.55738">
        <ele>190</ele>
        <time>2019-04-03T15:09:31Z</time>
      </trkpt>
      <trkpt lat="47.53009" lon="3.5573">
        <ele>191</ele>
        <time>2019-04-03T15:09:35Z</time>
      </trkpt>
      <trkpt lat="47.53007" lon="3.55724">
        <ele>191</ele>
        <time>2019-04-03T15:09:38Z</time>
      </trkpt>
      <trkpt lat="47.53006" lon="3.5572">
        <ele>192</ele>
        <time>2019-04-03T15:09:40Z</time>
      </trkpt>
      <trkpt lat="47.53005" lon="3.55711">
        <ele>192</ele>
        <time>2019-04-03T15:09:44Z</time>
      </trkpt>
      <trkpt lat="47.53004" lon="3.55704">
        <ele>192</ele>
        <time>2019-04-03T15:09:47Z</time>
      </trkpt>
      <trkpt lat="47.53004" lon="3.55701">
        <ele>192</ele>
        <time>2019-04-03T15:09:48Z</time>
      </trkpt>
      <trkpt lat="47.53003" lon="3.55695">
        <ele>193</ele>
        <time>2019-04-03T15:09:51Z</time>
      </trkpt>
      <trkpt lat="47.53003" lon="3.55686">
        <ele>194</ele>
        <time>2019-04-03T15:09:55Z</time>
      </trkpt>
      <trkpt lat="47.52999" lon="3.55678">
        <ele>194</ele>
        <time>2019-04-03T15:10:00Z</time>
      </trkpt>
      <trkpt lat="47.52996" lon="3.5567">
        <ele>195</ele>
        <time>2019-04-03T15:10:04Z</time>
      </trkpt>
      <trkpt lat="47.52993" lon="3.55661">
        <ele>195</ele>
        <time>2019-04-03T15:10:08Z</time>
      </trkpt>
      <trkpt lat="47.52991" lon="3.55655">
        <ele>195</ele>
        <time>2019-04-03T15:10:12Z</time>
      </trkpt>
      <trkpt lat="47.52987" lon="3.55645">
        <ele>194</ele>
        <time>2019-04-03T15:10:17Z</time>
      </trkpt>
      <trkpt lat="47.52982" lon="3.55639">
        <ele>194</ele>
        <time>2019-04-03T15:10:22Z</time>
      </trkpt>
      <trkpt lat="47.5298" lon="3.55631">
        <ele>193</ele>
        <time>2019-04-03T15:10:26Z</time>
      </trkpt>
      <trkpt lat="47.52979" lon="3.55623">
        <ele>193</ele>
        <time>2019-04-03T15:10:30Z</time>
      </trkpt>
      <trkpt lat="47.52979" lon="3.55618">
        <ele>192</ele>
        <time>2019-04-03T15:10:32Z</time>
      </trkpt>
      <trkpt lat="47.52977" lon="3.5561">
        <ele>193</ele>
        <time>2019-04-03T15:10:36Z</time>
      </trkpt>
      <trkpt lat="47.52976" lon="3.55603">
        <ele>194</ele>
        <time>2019-04-03T15:10:40Z</time>
      </trkpt>
      <trkpt lat="47.52975" lon="3.55596">
        <ele>195</ele>
        <time>2019-04-03T15:10:44Z</time>
      </trkpt>
      <trkpt lat="47.52973" lon="3.55588">
        <ele>195</ele>
        <time>2019-04-03T15:10:48Z</time>
      </trkpt>
      <trkpt lat="47.52971" lon="3.55581">
        <ele>195</ele>
        <time>2019-04-03T15:10:52Z</time>
      </trkpt>
      <trkpt lat="47.5297" lon="3.55574">
        <ele>196</ele>
        <time>2019-04-03T15:10:56Z</time>
      </trkpt>
      <trkpt lat="47.52969" lon="3.55565">
        <ele>196</ele>
        <time>2019-04-03T15:11:00Z</time>
      </trkpt>
      <trkpt lat="47.5297" lon="3.55558">
        <ele>195</ele>
        <time>2019-04-03T15:11:04Z</time>
      </trkpt>
      <trkpt lat="47.5297" lon="3.55551">
        <ele>193</ele>
        <time>2019-04-03T15:11:08Z</time>
      </trkpt>
      <trkpt lat="47.52968" lon="3.55543">
        <ele>193</ele>
        <time>2019-04-03T15:11:12Z</time>
      </trkpt>
      <trkpt lat="47.52965" lon="3.55538">
        <ele>193</ele>
        <time>2019-04-03T15:11:15Z</time>
      </trkpt>
      <trkpt lat="47.52963" lon="3.55531">
        <ele>194</ele>
        <time>2019-04-03T15:11:18Z</time>
      </trkpt>
      <trkpt lat="47.52959" lon="3.55526">
        <ele>193</ele>
        <time>2019-04-03T15:11:21Z</time>
      </trkpt>
      <trkpt lat="47.52957" lon="3.55519">
        <ele>194</ele>
        <time>2019-04-03T15:11:24Z</time>
      </trkpt>
      <trkpt lat="47.52955" lon="3.55513">
        <ele>194</ele>
        <time>2019-04-03T15:11:27Z</time>
      </trkpt>
      <trkpt lat="47.52953" lon="3.5551">
        <ele>194</ele>
        <time>2019-04-03T15:11:29Z</time>
      </trkpt>
      <trkpt lat="47.52951" lon="3.55504">
        <ele>194</ele>
        <time>2019-04-03T15:11:33Z</time>
      </trkpt>
      <trkpt lat="47.52949" lon="3.55501">
        <ele>194</ele>
        <time>2019-04-03T15:11:35Z</time>
      </trkpt>
      <trkpt lat="47.52947" lon="3.55495">
        <ele>194</ele>
        <time>2019-04-03T15:11:38Z</time>
      </trkpt>
      <trkpt lat="47.52944" lon="3.5549">
        <ele>194</ele>
        <time>2019-04-03T15:11:41Z</time>
      </trkpt>
      <trkpt lat="47.52941" lon="3.55485">
        <ele>192</ele>
        <time>2019-04-03T15:11:45Z</time>
      </trkpt>
      <trkpt lat="47.52938" lon="3.55478">
        <ele>192</ele>
        <time>2019-04-03T15:11:49Z</time>
      </trkpt>
      <trkpt lat="47.52934" lon="3.55475">
        <ele>190</ele>
        <time>2019-04-03T15:11:53Z</time>
      </trkpt>
      <trkpt lat="47.52932" lon="3.55468">
        <ele>188</ele>
        <time>2019-04-03T15:11:58Z</time>
      </trkpt>
      <trkpt lat="47.52929" lon="3.55459">
        <ele>190</ele>
        <time>2019-04-03T15:12:04Z</time>
      </trkpt>
      <trkpt lat="47.52924" lon="3.55457">
        <ele>191</ele>
        <time>2019-04-03T15:12:07Z</time>
      </trkpt>
      <trkpt lat="47.5292" lon="3.55456">
        <ele>191</ele>
        <time>2019-04-03T15:12:10Z</time>
      </trkpt>
      <trkpt lat="47.52915" lon="3.55456">
        <ele>190</ele>
        <time>2019-04-03T15:12:13Z</time>
      </trkpt>
      <trkpt lat="47.52911" lon="3.55457">
        <ele>188</ele>
        <time>2019-04-03T15:12:18Z</time>
      </trkpt>
      <trkpt lat="47.52906" lon="3.55457">
        <ele>188</ele>
        <time>2019-04-03T15:12:23Z</time>
      </trkpt>
      <trkpt lat="47.52902" lon="3.55457">
        <ele>188</ele>
        <time>2019-04-03T15:12:27Z</time>
      </trkpt>
      <trkpt lat="47.52899" lon="3.55457">
        <ele>189</ele>
        <time>2019-04-03T15:12:29Z</time>
      </trkpt>
      <trkpt lat="47.52893" lon="3.55462">
        <ele>191</ele>
        <time>2019-04-03T15:12:37Z</time>
      </trkpt>
      <trkpt lat="47.52887" lon="3.55468">
        <ele>190</ele>
        <time>2019-04-03T15:12:41Z</time>
      </trkpt>
      <trkpt lat="47.52881" lon="3.5547">
        <ele>190</ele>
        <time>2019-04-03T15:12:45Z</time>
      </trkpt>
      <trkpt lat="47.52877" lon="3.55471">
        <ele>191</ele>
        <time>2019-04-03T15:12:49Z</time>
      </trkpt>
      <trkpt lat="47.52872" lon="3.55473">
        <ele>191</ele>
        <time>2019-04-03T15:12:52Z</time>
      </trkpt>
      <trkpt lat="47.52867" lon="3.55475">
        <ele>191</ele>
        <time>2019-04-03T15:12:54Z</time>
      </trkpt>
      <trkpt lat="47.5286" lon="3.55475">
        <ele>191</ele>
        <time>2019-04-03T15:12:59Z</time>
      </trkpt>
      <trkpt lat="47.52855" lon="3.55476">
        <ele>189</ele>
        <time>2019-04-03T15:13:02Z</time>
      </trkpt>
      <trkpt lat="47.52852" lon="3.55477">
        <ele>188</ele>
        <time>2019-04-03T15:13:04Z</time>
      </trkpt>
      <trkpt lat="47.52848" lon="3.55478">
        <ele>187</ele>
        <time>2019-04-03T15:13:08Z</time>
      </trkpt>
      <trkpt lat="47.52843" lon="3.55481">
        <ele>189</ele>
        <time>2019-04-03T15:13:12Z</time>
      </trkpt>
      <trkpt lat="47.52838" lon="3.55482">
        <ele>189</ele>
        <time>2019-04-03T15:13:15Z</time>
      </trkpt>
      <trkpt lat="47.52836" lon="3.55483">
        <ele>189</ele>
        <time>2019-04-03T15:13:17Z</time>
      </trkpt>
      <trkpt lat="47.52831" lon="3.55486">
        <ele>189</ele>
        <time>2019-04-03T15:13:21Z</time>
      </trkpt>
      <trkpt lat="47.52824" lon="3.55488">
        <ele>189</ele>
        <time>2019-04-03T15:13:27Z</time>
      </trkpt>
      <trkpt lat="47.52821" lon="3.55489">
        <ele>190</ele>
        <time>2019-04-03T15:13:29Z</time>
      </trkpt>
      <trkpt lat="47.52819" lon="3.5549">
        <ele>191</ele>
        <time>2019-04-03T15:13:32Z</time>
      </trkpt>
      <trkpt lat="47.52817" lon="3.5549">
        <ele>190</ele>
        <time>2019-04-03T15:13:34Z</time>
      </trkpt>
      <trkpt lat="47.52813" lon="3.55491">
        <ele>190</ele>
        <time>2019-04-03T15:13:37Z</time>
      </trkpt>
      <trkpt lat="47.52808" lon="3.55493">
        <ele>189</ele>
        <time>2019-04-03T15:13:40Z</time>
      </trkpt>
      <trkpt lat="47.52797" lon="3.55497">
        <ele>190</ele>
        <time>2019-04-03T15:13:46Z</time>
      </trkpt>
      <trkpt lat="47.52794" lon="3.55498">
        <ele>190</ele>
        <time>2019-04-03T15:13:48Z</time>
      </trkpt>
      <trkpt lat="47.5279" lon="3.555">
        <ele>190</ele>
        <time>2019-04-03T15:13:51Z</time>
      </trkpt>
      <trkpt lat="47.52786" lon="3.55503">
        <ele>191</ele>
        <time>2019-04-03T15:13:54Z</time>
      </trkpt>
      <trkpt lat="47.52781" lon="3.55505">
        <ele>191</ele>
        <time>2019-04-03T15:13:58Z</time>
      </trkpt>
      <trkpt lat="47.52776" lon="3.55507">
        <ele>192</ele>
        <time>2019-04-03T15:14:02Z</time>
      </trkpt>
      <trkpt lat="47.52772" lon="3.55512">
        <ele>190</ele>
        <time>2019-04-03T15:14:06Z</time>
      </trkpt>
      <trkpt lat="47.52767" lon="3.55515">
        <ele>191</ele>
        <time>2019-04-03T15:14:10Z</time>
      </trkpt>
      <trkpt lat="47.52762" lon="3.55516">
        <ele>190</ele>
        <time>2019-04-03T15:14:14Z</time>
      </trkpt>
      <trkpt lat="47.52757" lon="3.5552">
        <ele>191</ele>
        <time>2019-04-03T15:14:18Z</time>
      </trkpt>
      <trkpt lat="47.52753" lon="3.55523">
        <ele>191</ele>
        <time>2019-04-03T15:14:22Z</time>
      </trkpt>
      <trkpt lat="47.52749" lon="3.55525">
        <ele>191</ele>
        <time>2019-04-03T15:14:25Z</time>
      </trkpt>
      <trkpt lat="47.52745" lon="3.55528">
        <ele>191</ele>
        <time>2019-04-03T15:14:28Z</time>
      </trkpt>
      <trkpt lat="47.5274" lon="3.55532">
        <ele>190</ele>
        <time>2019-04-03T15:14:32Z</time>
      </trkpt>
      <trkpt lat="47.52735" lon="3.55534">
        <ele>187</ele>
        <time>2019-04-03T15:14:37Z</time>
      </trkpt>
      <trkpt lat="47.52733" lon="3.55536">
        <ele>187</ele>
        <time>2019-04-03T15:14:39Z</time>
      </trkpt>
      <trkpt lat="47.5273" lon="3.55537">
        <ele>187</ele>
        <time>2019-04-03T15:14:41Z</time>
      </trkpt>
      <trkpt lat="47.52727" lon="3.55539">
        <ele>188</ele>
        <time>2019-04-03T15:14:43Z</time>
      </trkpt>
      <trkpt lat="47.52722" lon="3.55539">
        <ele>188</ele>
        <time>2019-04-03T15:14:47Z</time>
      </trkpt>
      <trkpt lat="47.52719" lon="3.5554">
        <ele>188</ele>
        <time>2019-04-03T15:14:50Z</time>
      </trkpt>
      <trkpt lat="47.52715" lon="3.55543">
        <ele>188</ele>
        <time>2019-04-03T15:14:55Z</time>
      </trkpt>
      <trkpt lat="47.52715" lon="3.55543">
        <ele>136.3</ele>
        <time>2019-04-03T15:15:07Z</time>
      </trkpt>
      <trkpt lat="47.52715" lon="3.55543">
        <ele>136.3</ele>
        <time>2019-04-03T15:15:09Z</time>
      </trkpt>
      <trkpt lat="47.52703" lon="3.55554">
        <ele>136.4</ele>
      </trkpt>
      <trkpt lat="47.52704" lon="3.55553">
        <ele>136.3</ele>
        <time>2019-04-04T06:14:22Z</time>
      </trkpt>
      <trkpt lat="47.52704" lon="3.55553">
        <ele>136.3</ele>
        <time>2019-04-04T06:14:22Z</time>
      </trkpt>
      <trkpt lat="47.52704" lon="3.55553">
        <ele>191</ele>
        <time>2019-04-04T06:14:28Z</time>
      </trkpt>
      <trkpt lat="47.52708" lon="3.55551">
        <ele>195</ele>
        <time>2019-04-04T06:14:35Z</time>
      </trkpt>
      <trkpt lat="47.52714" lon="3.5555">
        <ele>192</ele>
        <time>2019-04-04T06:14:41Z</time>
      </trkpt>
      <trkpt lat="47.52718" lon="3.5555">
        <ele>190</ele>
        <time>2019-04-04T06:14:44Z</time>
      </trkpt>
      <trkpt lat="47.52722" lon="3.55546">
        <ele>191</ele>
        <time>2019-04-04T06:14:48Z</time>
      </trkpt>
      <trkpt lat="47.52725" lon="3.55544">
        <ele>194</ele>
        <time>2019-04-04T06:14:51Z</time>
      </trkpt>
      <trkpt lat="47.52727" lon="3.55541">
        <ele>194</ele>
        <time>2019-04-04T06:14:53Z</time>
      </trkpt>
      <trkpt lat="47.52734" lon="3.55538">
        <ele>193</ele>
        <time>2019-04-04T06:14:58Z</time>
      </trkpt>
      <trkpt lat="47.52739" lon="3.55538">
        <ele>193</ele>
        <time>2019-04-04T06:15:03Z</time>
      </trkpt>
      <trkpt lat="47.52743" lon="3.55539">
        <ele>191</ele>
        <time>2019-04-04T06:15:07Z</time>
      </trkpt>
      <trkpt lat="47.52747" lon="3.55533">
        <ele>190</ele>
        <time>2019-04-04T06:15:12Z</time>
      </trkpt>
      <trkpt lat="47.52752" lon="3.55532">
        <ele>191</ele>
        <time>2019-04-04T06:15:16Z</time>
      </trkpt>
      <trkpt lat="47.52755" lon="3.55532">
        <ele>191</ele>
        <time>2019-04-04T06:15:19Z</time>
      </trkpt>
      <trkpt lat="47.5276" lon="3.55531">
        <ele>191</ele>
        <time>2019-04-04T06:15:22Z</time>
      </trkpt>
      <trkpt lat="47.52764" lon="3.55529">
        <ele>191</ele>
        <time>2019-04-04T06:15:26Z</time>
      </trkpt>
      <trkpt lat="47.52767" lon="3.55527">
        <ele>191</ele>
        <time>2019-04-04T06:15:29Z</time>
      </trkpt>
      <trkpt lat="47.52772" lon="3.55527">
        <ele>193</ele>
        <time>2019-04-04T06:15:34Z</time>
      </trkpt>
      <trkpt lat="47.52777" lon="3.55523">
        <ele>194</ele>
        <time>2019-04-04T06:15:37Z</time>
      </trkpt>
      <trkpt lat="47.52779" lon="3.55522">
        <ele>193</ele>
        <time>2019-04-04T06:15:40Z</time>
      </trkpt>
      <trkpt lat="47.52781" lon="3.5552">
        <ele>193</ele>
        <time>2019-04-04T06:15:42Z</time>
      </trkpt>
      <trkpt lat="47.52787" lon="3.55517">
        <ele>191</ele>
        <time>2019-04-04T06:15:47Z</time>
      </trkpt>
      <trkpt lat="47.52791" lon="3.55515">
        <ele>192</ele>
        <time>2019-04-04T06:15:51Z</time>
      </trkpt>
      <trkpt lat="47.52794" lon="3.55514">
        <ele>193</ele>
        <time>2019-04-04T06:15:54Z</time>
      </trkpt>
      <trkpt lat="47.52798" lon="3.55512">
        <ele>193</ele>
        <time>2019-04-04T06:15:57Z</time>
      </trkpt>
      <trkpt lat="47.52802" lon="3.5551">
        <ele>192</ele>
        <time>2019-04-04T06:16:00Z</time>
      </trkpt>
      <trkpt lat="47.52808" lon="3.55505">
        <ele>192</ele>
        <time>2019-04-04T06:16:05Z</time>
      </trkpt>
      <trkpt lat="47.52812" lon="3.55501">
        <ele>193</ele>
        <time>2019-04-04T06:16:09Z</time>
      </trkpt>
      <trkpt lat="47.52818" lon="3.555">
        <ele>190</ele>
        <time>2019-04-04T06:16:13Z</time>
      </trkpt>
      <trkpt lat="47.52823" lon="3.55496">
        <ele>192</ele>
        <time>2019-04-04T06:16:21Z</time>
      </trkpt>
      <trkpt lat="47.52827" lon="3.55495">
        <ele>193</ele>
        <time>2019-04-04T06:16:23Z</time>
      </trkpt>
      <trkpt lat="47.52833" lon="3.55496">
        <ele>193</ele>
        <time>2019-04-04T06:16:28Z</time>
      </trkpt>
      <trkpt lat="47.52837" lon="3.55496">
        <ele>193</ele>
        <time>2019-04-04T06:16:31Z</time>
      </trkpt>
      <trkpt lat="47.52842" lon="3.55496">
        <ele>194</ele>
        <time>2019-04-04T06:16:36Z</time>
      </trkpt>
      <trkpt lat="47.52845" lon="3.55495">
        <ele>194</ele>
        <time>2019-04-04T06:16:39Z</time>
      </trkpt>
      <trkpt lat="47.5285" lon="3.55493">
        <ele>195</ele>
        <time>2019-04-04T06:16:43Z</time>
      </trkpt>
      <trkpt lat="47.52854" lon="3.55489">
        <ele>193</ele>
        <time>2019-04-04T06:16:47Z</time>
      </trkpt>
      <trkpt lat="47.52856" lon="3.55488">
        <ele>192</ele>
        <time>2019-04-04T06:16:49Z</time>
      </trkpt>
      <trkpt lat="47.52861" lon="3.55487">
        <ele>193</ele>
        <time>2019-04-04T06:16:53Z</time>
      </trkpt>
      <trkpt lat="47.52864" lon="3.55486">
        <ele>193</ele>
        <time>2019-04-04T06:16:55Z</time>
      </trkpt>
      <trkpt lat="47.52869" lon="3.55483">
        <ele>192</ele>
        <time>2019-04-04T06:16:58Z</time>
      </trkpt>
      <trkpt lat="47.52875" lon="3.55481">
        <ele>190</ele>
        <time>2019-04-04T06:17:02Z</time>
      </trkpt>
      <trkpt lat="47.5288" lon="3.55479">
        <ele>190</ele>
        <time>2019-04-04T06:17:06Z</time>
      </trkpt>
      <trkpt lat="47.52885" lon="3.55477">
        <ele>192</ele>
        <time>2019-04-04T06:17:10Z</time>
      </trkpt>
      <trkpt lat="47.52889" lon="3.55471">
        <ele>193</ele>
        <time>2019-04-04T06:17:16Z</time>
      </trkpt>
      <trkpt lat="47.52892" lon="3.55464">
        <ele>191</ele>
        <time>2019-04-04T06:17:19Z</time>
      </trkpt>
      <trkpt lat="47.52893" lon="3.5546">
        <ele>192</ele>
        <time>2019-04-04T06:17:21Z</time>
      </trkpt>
      <trkpt lat="47.529" lon="3.55463">
        <ele>193</ele>
        <time>2019-04-04T06:17:25Z</time>
      </trkpt>
      <trkpt lat="47.52904" lon="3.55467">
        <ele>194</ele>
        <time>2019-04-04T06:17:29Z</time>
      </trkpt>
      <trkpt lat="47.52906" lon="3.55469">
        <ele>194</ele>
        <time>2019-04-04T06:17:33Z</time>
      </trkpt>
      <trkpt lat="47.52911" lon="3.55468">
        <ele>195</ele>
        <time>2019-04-04T06:17:37Z</time>
      </trkpt>
      <trkpt lat="47.52917" lon="3.55465">
        <ele>195</ele>
        <time>2019-04-04T06:17:43Z</time>
      </trkpt>
      <trkpt lat="47.52921" lon="3.55465">
        <ele>193</ele>
        <time>2019-04-04T06:17:47Z</time>
      </trkpt>
      <trkpt lat="47.52925" lon="3.5547">
        <ele>195</ele>
        <time>2019-04-04T06:17:52Z</time>
      </trkpt>
      <trkpt lat="47.52928" lon="3.55472">
        <ele>193</ele>
        <time>2019-04-04T06:17:55Z</time>
      </trkpt>
      <trkpt lat="47.52931" lon="3.55479">
        <ele>194</ele>
        <time>2019-04-04T06:18:01Z</time>
      </trkpt>
      <trkpt lat="47.52933" lon="3.55483">
        <ele>194</ele>
        <time>2019-04-04T06:18:04Z</time>
      </trkpt>
      <trkpt lat="47.52937" lon="3.55487">
        <ele>194</ele>
        <time>2019-04-04T06:18:08Z</time>
      </trkpt>
      <trkpt lat="47.5294" lon="3.55494">
        <ele>196</ele>
        <time>2019-04-04T06:18:12Z</time>
      </trkpt>
      <trkpt lat="47.52943" lon="3.55501">
        <ele>196</ele>
        <time>2019-04-04T06:18:17Z</time>
      </trkpt>
      <trkpt lat="47.52947" lon="3.55507">
        <ele>196</ele>
        <time>2019-04-04T06:18:22Z</time>
      </trkpt>
      <trkpt lat="47.5295" lon="3.5551">
        <ele>196</ele>
        <time>2019-04-04T06:18:24Z</time>
      </trkpt>
      <trkpt lat="47.52951" lon="3.55516">
        <ele>197</ele>
        <time>2019-04-04T06:18:28Z</time>
      </trkpt>
      <trkpt lat="47.52954" lon="3.55524">
        <ele>196</ele>
        <time>2019-04-04T06:18:33Z</time>
      </trkpt>
      <trkpt lat="47.52958" lon="3.55532">
        <ele>197</ele>
        <time>2019-04-04T06:18:39Z</time>
      </trkpt>
      <trkpt lat="47.52961" lon="3.55539">
        <ele>197</ele>
        <time>2019-04-04T06:18:44Z</time>
      </trkpt>
      <trkpt lat="47.52963" lon="3.55547">
        <ele>199</ele>
        <time>2019-04-04T06:18:49Z</time>
      </trkpt>
      <trkpt lat="47.52963" lon="3.55555">
        <ele>197</ele>
        <time>2019-04-04T06:18:53Z</time>
      </trkpt>
      <trkpt lat="47.52965" lon="3.55561">
        <ele>196</ele>
        <time>2019-04-04T06:18:57Z</time>
      </trkpt>
      <trkpt lat="47.52967" lon="3.55565">
        <ele>196</ele>
        <time>2019-04-04T06:18:59Z</time>
      </trkpt>
      <trkpt lat="47.52968" lon="3.55573">
        <ele>196</ele>
        <time>2019-04-04T06:19:03Z</time>
      </trkpt>
      <trkpt lat="47.52969" lon="3.5558">
        <ele>197</ele>
        <time>2019-04-04T06:19:08Z</time>
      </trkpt>
      <trkpt lat="47.52972" lon="3.55586">
        <ele>197</ele>
        <time>2019-04-04T06:19:10Z</time>
      </trkpt>
      <trkpt lat="47.52974" lon="3.55593">
        <ele>196</ele>
        <time>2019-04-04T06:19:14Z</time>
      </trkpt>
      <trkpt lat="47.52974" lon="3.55596">
        <ele>195</ele>
        <time>2019-04-04T06:19:16Z</time>
      </trkpt>
      <trkpt lat="47.52976" lon="3.55599">
        <ele>195</ele>
        <time>2019-04-04T06:19:18Z</time>
      </trkpt>
      <trkpt lat="47.52978" lon="3.55605">
        <ele>195</ele>
        <time>2019-04-04T06:19:23Z</time>
      </trkpt>
      <trkpt lat="47.52977" lon="3.55611">
        <ele>196</ele>
        <time>2019-04-04T06:19:28Z</time>
      </trkpt>
      <trkpt lat="47.52977" lon="3.55621">
        <ele>196</ele>
        <time>2019-04-04T06:19:32Z</time>
      </trkpt>
      <trkpt lat="47.52979" lon="3.55626">
        <ele>196</ele>
        <time>2019-04-04T06:19:36Z</time>
      </trkpt>
      <trkpt lat="47.52981" lon="3.55635">
        <ele>196</ele>
        <time>2019-04-04T06:19:39Z</time>
      </trkpt>
      <trkpt lat="47.52984" lon="3.55643">
        <ele>197</ele>
        <time>2019-04-04T06:19:44Z</time>
      </trkpt>
      <trkpt lat="47.52986" lon="3.55652">
        <ele>197</ele>
        <time>2019-04-04T06:19:50Z</time>
      </trkpt>
      <trkpt lat="47.52987" lon="3.55659">
        <ele>197</ele>
        <time>2019-04-04T06:19:52Z</time>
      </trkpt>
      <trkpt lat="47.52989" lon="3.55666">
        <ele>196</ele>
        <time>2019-04-04T06:19:57Z</time>
      </trkpt>
      <trkpt lat="47.52993" lon="3.55673">
        <ele>195</ele>
        <time>2019-04-04T06:20:00Z</time>
      </trkpt>
      <trkpt lat="47.52994" lon="3.5568">
        <ele>197</ele>
        <time>2019-04-04T06:20:04Z</time>
      </trkpt>
      <trkpt lat="47.52995" lon="3.55686">
        <ele>198</ele>
        <time>2019-04-04T06:20:07Z</time>
      </trkpt>
      <trkpt lat="47.52997" lon="3.55692">
        <ele>198</ele>
        <time>2019-04-04T06:20:10Z</time>
      </trkpt>
      <trkpt lat="47.53" lon="3.55698">
        <ele>198</ele>
        <time>2019-04-04T06:20:14Z</time>
      </trkpt>
      <trkpt lat="47.53002" lon="3.55704">
        <ele>198</ele>
        <time>2019-04-04T06:20:18Z</time>
      </trkpt>
      <trkpt lat="47.53003" lon="3.55708">
        <ele>197</ele>
        <time>2019-04-04T06:20:20Z</time>
      </trkpt>
      <trkpt lat="47.53004" lon="3.55716">
        <ele>197</ele>
        <time>2019-04-04T06:20:25Z</time>
      </trkpt>
      <trkpt lat="47.53005" lon="3.55722">
        <ele>197</ele>
        <time>2019-04-04T06:20:27Z</time>
      </trkpt>
      <trkpt lat="47.53007" lon="3.55728">
        <ele>196</ele>
        <time>2019-04-04T06:20:31Z</time>
      </trkpt>
      <trkpt lat="47.53008" lon="3.55732">
        <ele>195</ele>
        <time>2019-04-04T06:20:33Z</time>
      </trkpt>
      <trkpt lat="47.53008" lon="3.55739">
        <ele>196</ele>
        <time>2019-04-04T06:20:37Z</time>
      </trkpt>
      <trkpt lat="47.53009" lon="3.55746">
        <ele>196</ele>
        <time>2019-04-04T06:20:41Z</time>
      </trkpt>
      <trkpt lat="47.53011" lon="3.55753">
        <ele>194</ele>
        <time>2019-04-04T06:20:46Z</time>
      </trkpt>
      <trkpt lat="47.53012" lon="3.55761">
        <ele>195</ele>
        <time>2019-04-04T06:20:50Z</time>
      </trkpt>
      <trkpt lat="47.53012" lon="3.55769">
        <ele>196</ele>
        <time>2019-04-04T06:20:55Z</time>
      </trkpt>
      <trkpt lat="47.53012" lon="3.55773">
        <ele>196</ele>
        <time>2019-04-04T06:20:57Z</time>
      </trkpt>
      <trkpt lat="47.53014" lon="3.5578">
        <ele>195</ele>
        <time>2019-04-04T06:21:01Z</time>
      </trkpt>
      <trkpt lat="47.53015" lon="3.55783">
        <ele>197</ele>
        <time>2019-04-04T06:21:03Z</time>
      </trkpt>
      <trkpt lat="47.53018" lon="3.5579">
        <ele>196</ele>
        <time>2019-04-04T06:21:06Z</time>
      </trkpt>
      <trkpt lat="47.5302" lon="3.55797">
        <ele>197</ele>
        <time>2019-04-04T06:21:10Z</time>
      </trkpt>
      <trkpt lat="47.5302" lon="3.55805">
        <ele>197</ele>
        <time>2019-04-04T06:21:14Z</time>
      </trkpt>
      <trkpt lat="47.5302" lon="3.5581">
        <ele>195</ele>
        <time>2019-04-04T06:21:17Z</time>
      </trkpt>
      <trkpt lat="47.53019" lon="3.55817">
        <ele>197</ele>
        <time>2019-04-04T06:21:21Z</time>
      </trkpt>
      <trkpt lat="47.5302" lon="3.55826">
        <ele>197</ele>
        <time>2019-04-04T06:21:25Z</time>
      </trkpt>
      <trkpt lat="47.53021" lon="3.5583">
        <ele>197</ele>
        <time>2019-04-04T06:21:27Z</time>
      </trkpt>
      <trkpt lat="47.53021" lon="3.55834">
        <ele>197</ele>
        <time>2019-04-04T06:21:29Z</time>
      </trkpt>
      <trkpt lat="47.53021" lon="3.55837">
        <ele>198</ele>
        <time>2019-04-04T06:21:31Z</time>
      </trkpt>
      <trkpt lat="47.53022" lon="3.55844">
        <ele>197</ele>
        <time>2019-04-04T06:21:35Z</time>
      </trkpt>
      <trkpt lat="47.53022" lon="3.55851">
        <ele>197</ele>
        <time>2019-04-04T06:21:39Z</time>
      </trkpt>
      <trkpt lat="47.53023" lon="3.55855">
        <ele>197</ele>
        <time>2019-04-04T06:21:41Z</time>
      </trkpt>
      <trkpt lat="47.53023" lon="3.5586">
        <ele>197</ele>
        <time>2019-04-04T06:21:44Z</time>
      </trkpt>
      <trkpt lat="47.53022" lon="3.55868">
        <ele>197</ele>
        <time>2019-04-04T06:21:48Z</time>
      </trkpt>
      <trkpt lat="47.53021" lon="3.55874">
        <ele>197</ele>
        <time>2019-04-04T06:21:51Z</time>
      </trkpt>
      <trkpt lat="47.53021" lon="3.55882">
        <ele>198</ele>
        <time>2019-04-04T06:21:55Z</time>
      </trkpt>
      <trkpt lat="47.53022" lon="3.55889">
        <ele>198</ele>
        <time>2019-04-04T06:21:59Z</time>
      </trkpt>
      <trkpt lat="47.53022" lon="3.55897">
        <ele>197</ele>
        <time>2019-04-04T06:22:03Z</time>
      </trkpt>
      <trkpt lat="47.53022" lon="3.55901">
        <ele>197</ele>
        <time>2019-04-04T06:22:05Z</time>
      </trkpt>
      <trkpt lat="47.53022" lon="3.55908">
        <ele>198</ele>
        <time>2019-04-04T06:22:09Z</time>
      </trkpt>
      <trkpt lat="47.53021" lon="3.55915">
        <ele>199</ele>
        <time>2019-04-04T06:22:13Z</time>
      </trkpt>
      <trkpt lat="47.53022" lon="3.55922">
        <ele>200</ele>
        <time>2019-04-04T06:22:17Z</time>
      </trkpt>
      <trkpt lat="47.53022" lon="3.55929">
        <ele>200</ele>
        <time>2019-04-04T06:22:21Z</time>
      </trkpt>
      <trkpt lat="47.53023" lon="3.55937">
        <ele>200</ele>
        <time>2019-04-04T06:22:25Z</time>
      </trkpt>
      <trkpt lat="47.53023" lon="3.55944">
        <ele>199</ele>
        <time>2019-04-04T06:22:29Z</time>
      </trkpt>
      <trkpt lat="47.53024" lon="3.55951">
        <ele>200</ele>
        <time>2019-04-04T06:22:32Z</time>
      </trkpt>
      <trkpt lat="47.53024" lon="3.55959">
        <ele>200</ele>
        <time>2019-04-04T06:22:36Z</time>
      </trkpt>
      <trkpt lat="47.53023" lon="3.55962">
        <ele>200</ele>
        <time>2019-04-04T06:22:37Z</time>
      </trkpt>
      <trkpt lat="47.53022" lon="3.55969">
        <ele>200</ele>
        <time>2019-04-04T06:22:40Z</time>
      </trkpt>
      <trkpt lat="47.53024" lon="3.55977">
        <ele>200</ele>
        <time>2019-04-04T06:22:45Z</time>
      </trkpt>
      <trkpt lat="47.53024" lon="3.55984">
        <ele>201</ele>
        <time>2019-04-04T06:22:49Z</time>
      </trkpt>
      <trkpt lat="47.53024" lon="3.55988">
        <ele>200</ele>
        <time>2019-04-04T06:22:52Z</time>
      </trkpt>
      <trkpt lat="47.53025" lon="3.55996">
        <ele>199</ele>
        <time>2019-04-04T06:22:55Z</time>
      </trkpt>
      <trkpt lat="47.53025" lon="3.56003">
        <ele>199</ele>
        <time>2019-04-04T06:22:59Z</time>
      </trkpt>
      <trkpt lat="47.53025" lon="3.56007">
        <ele>199</ele>
        <time>2019-04-04T06:23:02Z</time>
      </trkpt>
      <trkpt lat="47.53025" lon="3.56012">
        <ele>199</ele>
        <time>2019-04-04T06:23:05Z</time>
      </trkpt>
      <trkpt lat="47.53025" lon="3.56017">
        <ele>199</ele>
        <time>2019-04-04T06:23:08Z</time>
      </trkpt>
      <trkpt lat="47.53025" lon="3.56022">
        <ele>199</ele>
        <time>2019-04-04T06:23:11Z</time>
      </trkpt>
      <trkpt lat="47.53025" lon="3.56027">
        <ele>199</ele>
        <time>2019-04-04T06:23:13Z</time>
      </trkpt>
      <trkpt lat="47.53026" lon="3.56034">
        <ele>199</ele>
        <time>2019-04-04T06:23:17Z</time>
      </trkpt>
      <trkpt lat="47.53026" lon="3.56038">
        <ele>198</ele>
        <time>2019-04-04T06:23:19Z</time>
      </trkpt>
      <trkpt lat="47.53026" lon="3.56044">
        <ele>198</ele>
        <time>2019-04-04T06:23:22Z</time>
      </trkpt>
      <trkpt lat="47.53026" lon="3.56049">
        <ele>198</ele>
        <time>2019-04-04T06:23:25Z</time>
      </trkpt>
      <trkpt lat="47.53026" lon="3.56056">
        <ele>199</ele>
        <time>2019-04-04T06:23:29Z</time>
      </trkpt>
      <trkpt lat="47.53027" lon="3.56064">
        <ele>200</ele>
        <time>2019-04-04T06:23:32Z</time>
      </trkpt>
      <trkpt lat="47.53026" lon="3.56071">
        <ele>200</ele>
        <time>2019-04-04T06:23:38Z</time>
      </trkpt>
      <trkpt lat="47.53027" lon="3.56078">
        <ele>200</ele>
        <time>2019-04-04T06:23:42Z</time>
      </trkpt>
      <trkpt lat="47.53027" lon="3.56084">
        <ele>199</ele>
        <time>2019-04-04T06:23:45Z</time>
      </trkpt>
      <trkpt lat="47.53028" lon="3.56091">
        <ele>200</ele>
        <time>2019-04-04T06:23:48Z</time>
      </trkpt>
      <trkpt lat="47.53027" lon="3.56102">
        <ele>201</ele>
        <time>2019-04-04T06:23:52Z</time>
      </trkpt>
      <trkpt lat="47.53027" lon="3.56109">
        <ele>202</ele>
        <time>2019-04-04T06:23:56Z</time>
      </trkpt>
      <trkpt lat="47.53028" lon="3.56114">
        <ele>202</ele>
        <time>2019-04-04T06:23:59Z</time>
      </trkpt>
      <trkpt lat="47.53028" lon="3.56121">
        <ele>202</ele>
        <time>2019-04-04T06:24:04Z</time>
      </trkpt>
      <trkpt lat="47.53028" lon="3.56125">
        <ele>202</ele>
        <time>2019-04-04T06:24:06Z</time>
      </trkpt>
      <trkpt lat="47.53029" lon="3.56133">
        <ele>203</ele>
        <time>2019-04-04T06:24:11Z</time>
      </trkpt>
      <trkpt lat="47.53029" lon="3.5614">
        <ele>204</ele>
        <time>2019-04-04T06:24:16Z</time>
      </trkpt>
      <trkpt lat="47.53029" lon="3.56147">
        <ele>204</ele>
        <time>2019-04-04T06:24:19Z</time>
      </trkpt>
      <trkpt lat="47.5303" lon="3.56153">
        <ele>204</ele>
        <time>2019-04-04T06:24:23Z</time>
      </trkpt>
      <trkpt lat="47.5303" lon="3.56162">
        <ele>203</ele>
        <time>2019-04-04T06:24:28Z</time>
      </trkpt>
      <trkpt lat="47.5303" lon="3.56169">
        <ele>203</ele>
        <time>2019-04-04T06:24:31Z</time>
      </trkpt>
      <trkpt lat="47.5303" lon="3.56172">
        <ele>203</ele>
        <time>2019-04-04T06:24:33Z</time>
      </trkpt>
      <trkpt lat="47.53031" lon="3.5618">
        <ele>204</ele>
        <time>2019-04-04T06:24:38Z</time>
      </trkpt>
      <trkpt lat="47.53032" lon="3.56189">
        <ele>203</ele>
        <time>2019-04-04T06:24:43Z</time>
      </trkpt>
      <trkpt lat="47.53032" lon="3.56193">
        <ele>204</ele>
        <time>2019-04-04T06:24:45Z</time>
      </trkpt>
      <trkpt lat="47.53032" lon="3.56197">
        <ele>205</ele>
        <time>2019-04-04T06:24:47Z</time>
      </trkpt>
      <trkpt lat="47.53033" lon="3.56201">
        <ele>205</ele>
        <time>2019-04-04T06:24:49Z</time>
      </trkpt>
      <trkpt lat="47.53033" lon="3.56205">
        <ele>206</ele>
        <time>2019-04-04T06:24:51Z</time>
      </trkpt>
      <trkpt lat="47.53032" lon="3.56212">
        <ele>207</ele>
        <time>2019-04-04T06:24:55Z</time>
      </trkpt>
      <trkpt lat="47.53032" lon="3.56219">
        <ele>207</ele>
        <time>2019-04-04T06:24:59Z</time>
      </trkpt>
      <trkpt lat="47.53032" lon="3.56222">
        <ele>207</ele>
        <time>2019-04-04T06:25:01Z</time>
      </trkpt>
      <trkpt lat="47.53032" lon="3.56227">
        <ele>207</ele>
        <time>2019-04-04T06:25:04Z</time>
      </trkpt>
      <trkpt lat="47.53033" lon="3.56231">
        <ele>207</ele>
        <time>2019-04-04T06:25:06Z</time>
      </trkpt>
      <trkpt lat="47.53033" lon="3.56236">
        <ele>207</ele>
        <time>2019-04-04T06:25:09Z</time>
      </trkpt>
      <trkpt lat="47.53032" lon="3.56244">
        <ele>208</ele>
        <time>2019-04-04T06:25:14Z</time>
      </trkpt>
      <trkpt lat="47.53032" lon="3.56248">
        <ele>209</ele>
        <time>2019-04-04T06:25:17Z</time>
      </trkpt>
      <trkpt lat="47.53033" lon="3.56256">
        <ele>210</ele>
        <time>2019-04-04T06:25:20Z</time>
      </trkpt>
      <trkpt lat="47.53033" lon="3.56263">
        <ele>211</ele>
        <time>2019-04-04T06:25:23Z</time>
      </trkpt>
      <trkpt lat="47.53033" lon="3.5627">
        <ele>211</ele>
        <time>2019-04-04T06:25:26Z</time>
      </trkpt>
      <trkpt lat="47.53034" lon="3.56277">
        <ele>211</ele>
        <time>2019-04-04T06:25:29Z</time>
      </trkpt>
      <trkpt lat="47.53035" lon="3.56282">
        <ele>211</ele>
        <time>2019-04-04T06:25:33Z</time>
      </trkpt>
      <trkpt lat="47.53037" lon="3.56289">
        <ele>210</ele>
        <time>2019-04-04T06:25:37Z</time>
      </trkpt>
      <trkpt lat="47.53038" lon="3.56295">
        <ele>211</ele>
        <time>2019-04-04T06:25:40Z</time>
      </trkpt>
      <trkpt lat="47.53039" lon="3.56299">
        <ele>211</ele>
        <time>2019-04-04T06:25:42Z</time>
      </trkpt>
      <trkpt lat="47.53039" lon="3.56307">
        <ele>211</ele>
        <time>2019-04-04T06:25:48Z</time>
      </trkpt>
      <trkpt lat="47.53039" lon="3.56314">
        <ele>211</ele>
        <time>2019-04-04T06:25:51Z</time>
      </trkpt>
      <trkpt lat="47.53039" lon="3.56319">
        <ele>212</ele>
        <time>2019-04-04T06:25:54Z</time>
      </trkpt>
      <trkpt lat="47.53039" lon="3.56324">
        <ele>213</ele>
        <time>2019-04-04T06:25:57Z</time>
      </trkpt>
      <trkpt lat="47.53038" lon="3.5633">
        <ele>213</ele>
        <time>2019-04-04T06:26:01Z</time>
      </trkpt>
      <trkpt lat="47.53038" lon="3.56336">
        <ele>214</ele>
        <time>2019-04-04T06:26:06Z</time>
      </trkpt>
      <trkpt lat="47.53038" lon="3.56344">
        <ele>214</ele>
        <time>2019-04-04T06:26:11Z</time>
      </trkpt>
      <trkpt lat="47.53039" lon="3.56348">
        <ele>215</ele>
        <time>2019-04-04T06:26:12Z</time>
      </trkpt>
      <trkpt lat="47.53039" lon="3.56351">
        <ele>215</ele>
        <time>2019-04-04T06:26:15Z</time>
      </trkpt>
      <trkpt lat="47.53039" lon="3.56355">
        <ele>215</ele>
        <time>2019-04-04T06:26:17Z</time>
      </trkpt>
      <trkpt lat="47.53041" lon="3.56363">
        <ele>216</ele>
        <time>2019-04-04T06:26:20Z</time>
      </trkpt>
      <trkpt lat="47.53042" lon="3.56371">
        <ele>215</ele>
        <time>2019-04-04T06:26:25Z</time>
      </trkpt>
      <trkpt lat="47.53043" lon="3.56378">
        <ele>215</ele>
        <time>2019-04-04T06:26:30Z</time>
      </trkpt>
      <trkpt lat="47.53043" lon="3.56383">
        <ele>215</ele>
        <time>2019-04-04T06:26:32Z</time>
      </trkpt>
      <trkpt lat="47.53044" lon="3.56389">
        <ele>216</ele>
        <time>2019-04-04T06:26:36Z</time>
      </trkpt>
      <trkpt lat="47.53045" lon="3.56393">
        <ele>216</ele>
        <time>2019-04-04T06:26:38Z</time>
      </trkpt>
      <trkpt lat="47.53046" lon="3.56397">
        <ele>215</ele>
        <time>2019-04-04T06:26:40Z</time>
      </trkpt>
      <trkpt lat="47.53047" lon="3.56402">
        <ele>215</ele>
        <time>2019-04-04T06:26:42Z</time>
      </trkpt>
      <trkpt lat="47.53048" lon="3.5641">
        <ele>215</ele>
        <time>2019-04-04T06:26:46Z</time>
      </trkpt>
      <trkpt lat="47.53048" lon="3.56414">
        <ele>214</ele>
        <time>2019-04-04T06:26:48Z</time>
      </trkpt>
      <trkpt lat="47.5305" lon="3.5642">
        <ele>214</ele>
        <time>2019-04-04T06:26:51Z</time>
      </trkpt>
      <trkpt lat="47.5305" lon="3.56428">
        <ele>214</ele>
        <time>2019-04-04T06:26:55Z</time>
      </trkpt>
      <trkpt lat="47.53051" lon="3.56436">
        <ele>214</ele>
        <time>2019-04-04T06:27:00Z</time>
      </trkpt>
      <trkpt lat="47.53052" lon="3.56443">
        <ele>215</ele>
        <time>2019-04-04T06:27:04Z</time>
      </trkpt>
      <trkpt lat="47.53053" lon="3.5645">
        <ele>213</ele>
        <time>2019-04-04T06:27:07Z</time>
      </trkpt>
      <trkpt lat="47.53054" lon="3.56454">
        <ele>214</ele>
        <time>2019-04-04T06:27:09Z</time>
      </trkpt>
      <trkpt lat="47.53055" lon="3.56458">
        <ele>214</ele>
        <time>2019-04-04T06:27:11Z</time>
      </trkpt>
      <trkpt lat="47.53053" lon="3.56465">
        <ele>215</ele>
        <time>2019-04-04T06:27:15Z</time>
      </trkpt>
      <trkpt lat="47.53055" lon="3.56473">
        <ele>215</ele>
        <time>2019-04-04T06:27:19Z</time>
      </trkpt>
      <trkpt lat="47.53055" lon="3.56477">
        <ele>215</ele>
        <time>2019-04-04T06:27:21Z</time>
      </trkpt>
      <trkpt lat="47.53057" lon="3.56484">
        <ele>214</ele>
        <time>2019-04-04T06:27:25Z</time>
      </trkpt>
      <trkpt lat="47.53058" lon="3.56495">
        <ele>214</ele>
        <time>2019-04-04T06:27:30Z</time>
      </trkpt>
      <trkpt lat="47.53058" lon="3.56503">
        <ele>214</ele>
        <time>2019-04-04T06:27:34Z</time>
      </trkpt>
      <trkpt lat="47.53058" lon="3.56508">
        <ele>214</ele>
        <time>2019-04-04T06:27:37Z</time>
      </trkpt>
      <trkpt lat="47.53058" lon="3.56513">
        <ele>215</ele>
        <time>2019-04-04T06:27:40Z</time>
      </trkpt>
      <trkpt lat="47.53058" lon="3.56517">
        <ele>215</ele>
        <time>2019-04-04T06:27:42Z</time>
      </trkpt>
      <trkpt lat="47.53058" lon="3.56521">
        <ele>214</ele>
        <time>2019-04-04T06:27:45Z</time>
      </trkpt>
      <trkpt lat="47.5306" lon="3.56528">
        <ele>214</ele>
        <time>2019-04-04T06:27:48Z</time>
      </trkpt>
      <trkpt lat="47.53061" lon="3.56531">
        <ele>214</ele>
        <time>2019-04-04T06:27:50Z</time>
      </trkpt>
      <trkpt lat="47.53061" lon="3.56539">
        <ele>215</ele>
        <time>2019-04-04T06:27:54Z</time>
      </trkpt>
      <trkpt lat="47.53062" lon="3.56546">
        <ele>214</ele>
        <time>2019-04-04T06:27:58Z</time>
      </trkpt>
      <trkpt lat="47.53064" lon="3.56552">
        <ele>214</ele>
        <time>2019-04-04T06:28:02Z</time>
      </trkpt>
      <trkpt lat="47.53065" lon="3.56558">
        <ele>213</ele>
        <time>2019-04-04T06:28:05Z</time>
      </trkpt>
      <trkpt lat="47.53066" lon="3.56567">
        <ele>213</ele>
        <time>2019-04-04T06:28:10Z</time>
      </trkpt>
      <trkpt lat="47.53067" lon="3.56575">
        <ele>213</ele>
        <time>2019-04-04T06:28:14Z</time>
      </trkpt>
      <trkpt lat="47.53068" lon="3.56579">
        <ele>213</ele>
        <time>2019-04-04T06:28:16Z</time>
      </trkpt>
      <trkpt lat="47.53069" lon="3.56583">
        <ele>213</ele>
        <time>2019-04-04T06:28:18Z</time>
      </trkpt>
      <trkpt lat="47.5307" lon="3.56591">
        <ele>213</ele>
        <time>2019-04-04T06:28:22Z</time>
      </trkpt>
      <trkpt lat="47.53071" lon="3.56597">
        <ele>213</ele>
        <time>2019-04-04T06:28:26Z</time>
      </trkpt>
      <trkpt lat="47.53071" lon="3.56601">
        <ele>212</ele>
        <time>2019-04-04T06:28:28Z</time>
      </trkpt>
      <trkpt lat="47.53072" lon="3.56605">
        <ele>212</ele>
        <time>2019-04-04T06:28:30Z</time>
      </trkpt>
      <trkpt lat="47.53072" lon="3.56616">
        <ele>212</ele>
        <time>2019-04-04T06:28:35Z</time>
      </trkpt>
      <trkpt lat="47.53074" lon="3.56624">
        <ele>211</ele>
        <time>2019-04-04T06:28:38Z</time>
      </trkpt>
      <trkpt lat="47.53075" lon="3.56628">
        <ele>211</ele>
        <time>2019-04-04T06:28:40Z</time>
      </trkpt>
      <trkpt lat="47.53075" lon="3.56631">
        <ele>211</ele>
        <time>2019-04-04T06:28:42Z</time>
      </trkpt>
      <trkpt lat="47.53076" lon="3.56635">
        <ele>211</ele>
        <time>2019-04-04T06:28:44Z</time>
      </trkpt>
      <trkpt lat="47.53076" lon="3.56641">
        <ele>211</ele>
        <time>2019-04-04T06:28:47Z</time>
      </trkpt>
      <trkpt lat="47.53077" lon="3.56644">
        <ele>211</ele>
        <time>2019-04-04T06:28:49Z</time>
      </trkpt>
      <trkpt lat="47.53077" lon="3.56649">
        <ele>212</ele>
        <time>2019-04-04T06:28:52Z</time>
      </trkpt>
      <trkpt lat="47.53078" lon="3.56653">
        <ele>212</ele>
        <time>2019-04-04T06:28:54Z</time>
      </trkpt>
      <trkpt lat="47.53078" lon="3.56656">
        <ele>212</ele>
        <time>2019-04-04T06:28:56Z</time>
      </trkpt>
      <trkpt lat="47.5308" lon="3.56663">
        <ele>212</ele>
        <time>2019-04-04T06:28:59Z</time>
      </trkpt>
      <trkpt lat="47.53082" lon="3.56672">
        <ele>212</ele>
        <time>2019-04-04T06:29:04Z</time>
      </trkpt>
      <trkpt lat="47.53082" lon="3.5668">
        <ele>212</ele>
        <time>2019-04-04T06:29:08Z</time>
      </trkpt>
      <trkpt lat="47.53083" lon="3.56687">
        <ele>213</ele>
        <time>2019-04-04T06:29:12Z</time>
      </trkpt>
      <trkpt lat="47.53084" lon="3.56691">
        <ele>213</ele>
        <time>2019-04-04T06:29:14Z</time>
      </trkpt>
      <trkpt lat="47.53084" lon="3.56695">
        <ele>213</ele>
        <time>2019-04-04T06:29:16Z</time>
      </trkpt>
      <trkpt lat="47.53085" lon="3.56701">
        <ele>213</ele>
        <time>2019-04-04T06:29:19Z</time>
      </trkpt>
      <trkpt lat="47.53085" lon="3.56706">
        <ele>213</ele>
        <time>2019-04-04T06:29:21Z</time>
      </trkpt>
      <trkpt lat="47.53087" lon="3.56713">
        <ele>211</ele>
        <time>2019-04-04T06:29:25Z</time>
      </trkpt>
      <trkpt lat="47.5309" lon="3.56719">
        <ele>211</ele>
        <time>2019-04-04T06:29:28Z</time>
      </trkpt>
      <trkpt lat="47.53091" lon="3.56725">
        <ele>209</ele>
        <time>2019-04-04T06:29:31Z</time>
      </trkpt>
      <trkpt lat="47.53092" lon="3.56729">
        <ele>209</ele>
        <time>2019-04-04T06:29:33Z</time>
      </trkpt>
      <trkpt lat="47.53093" lon="3.56733">
        <ele>209</ele>
        <time>2019-04-04T06:29:35Z</time>
      </trkpt>
      <trkpt lat="47.53094" lon="3.56737">
        <ele>209</ele>
        <time>2019-04-04T06:29:37Z</time>
      </trkpt>
      <trkpt lat="47.53096" lon="3.56743">
        <ele>209</ele>
        <time>2019-04-04T06:29:40Z</time>
      </trkpt>
      <trkpt lat="47.53097" lon="3.56752">
        <ele>209</ele>
        <time>2019-04-04T06:29:45Z</time>
      </trkpt>
      <trkpt lat="47.53098" lon="3.5676">
        <ele>208</ele>
        <time>2019-04-04T06:29:49Z</time>
      </trkpt>
      <trkpt lat="47.53099" lon="3.56767">
        <ele>209</ele>
        <time>2019-04-04T06:29:53Z</time>
      </trkpt>
      <trkpt lat="47.531" lon="3.56774">
        <ele>208</ele>
        <time>2019-04-04T06:29:56Z</time>
      </trkpt>
      <trkpt lat="47.531" lon="3.56779">
        <ele>207</ele>
        <time>2019-04-04T06:29:58Z</time>
      </trkpt>
      <trkpt lat="47.531" lon="3.56782">
        <ele>207</ele>
        <time>2019-04-04T06:30:00Z</time>
      </trkpt>
      <trkpt lat="47.53101" lon="3.56787">
        <ele>208</ele>
        <time>2019-04-04T06:30:02Z</time>
      </trkpt>
      <trkpt lat="47.53101" lon="3.56792">
        <ele>207</ele>
        <time>2019-04-04T06:30:05Z</time>
      </trkpt>
      <trkpt lat="47.53101" lon="3.56797">
        <ele>207</ele>
        <time>2019-04-04T06:30:08Z</time>
      </trkpt>
      <trkpt lat="47.53102" lon="3.56804">
        <ele>207</ele>
        <time>2019-04-04T06:30:11Z</time>
      </trkpt>
      <trkpt lat="47.53103" lon="3.56811">
        <ele>208</ele>
        <time>2019-04-04T06:30:15Z</time>
      </trkpt>
      <trkpt lat="47.53104" lon="3.56815">
        <ele>208</ele>
        <time>2019-04-04T06:30:17Z</time>
      </trkpt>
      <trkpt lat="47.53104" lon="3.56819">
        <ele>208</ele>
        <time>2019-04-04T06:30:19Z</time>
      </trkpt>
      <trkpt lat="47.53104" lon="3.56824">
        <ele>209</ele>
        <time>2019-04-04T06:30:22Z</time>
      </trkpt>
      <trkpt lat="47.53104" lon="3.56827">
        <ele>209</ele>
        <time>2019-04-04T06:30:24Z</time>
      </trkpt>
      <trkpt lat="47.53105" lon="3.56834">
        <ele>209</ele>
        <time>2019-04-04T06:30:27Z</time>
      </trkpt>
      <trkpt lat="47.53106" lon="3.5684">
        <ele>209</ele>
        <time>2019-04-04T06:30:30Z</time>
      </trkpt>
      <trkpt lat="47.53107" lon="3.56843">
        <ele>209</ele>
        <time>2019-04-04T06:30:32Z</time>
      </trkpt>
      <trkpt lat="47.53107" lon="3.56847">
        <ele>209</ele>
        <time>2019-04-04T06:30:34Z</time>
      </trkpt>
      <trkpt lat="47.53108" lon="3.56852">
        <ele>209</ele>
        <time>2019-04-04T06:30:36Z</time>
      </trkpt>
      <trkpt lat="47.53109" lon="3.56856">
        <ele>208</ele>
        <time>2019-04-04T06:30:38Z</time>
      </trkpt>
      <trkpt lat="47.5311" lon="3.56861">
        <ele>208</ele>
        <time>2019-04-04T06:30:41Z</time>
      </trkpt>
      <trkpt lat="47.53111" lon="3.56869">
        <ele>207</ele>
        <time>2019-04-04T06:30:45Z</time>
      </trkpt>
      <trkpt lat="47.53111" lon="3.56874">
        <ele>207</ele>
        <time>2019-04-04T06:30:47Z</time>
      </trkpt>
      <trkpt lat="47.53112" lon="3.56878">
        <ele>207</ele>
        <time>2019-04-04T06:30:49Z</time>
      </trkpt>
      <trkpt lat="47.53113" lon="3.56883">
        <ele>207</ele>
        <time>2019-04-04T06:30:51Z</time>
      </trkpt>
      <trkpt lat="47.53113" lon="3.56887">
        <ele>207</ele>
        <time>2019-04-04T06:30:53Z</time>
      </trkpt>
      <trkpt lat="47.53114" lon="3.56891">
        <ele>207</ele>
        <time>2019-04-04T06:30:55Z</time>
      </trkpt>
      <trkpt lat="47.53114" lon="3.56899">
        <ele>206</ele>
        <time>2019-04-04T06:31:00Z</time>
      </trkpt>
      <trkpt lat="47.53114" lon="3.56906">
        <ele>207</ele>
        <time>2019-04-04T06:31:04Z</time>
      </trkpt>
      <trkpt lat="47.53116" lon="3.56914">
        <ele>206</ele>
        <time>2019-04-04T06:31:08Z</time>
      </trkpt>
      <trkpt lat="47.53116" lon="3.56918">
        <ele>206</ele>
        <time>2019-04-04T06:31:10Z</time>
      </trkpt>
      <trkpt lat="47.53117" lon="3.56923">
        <ele>206</ele>
        <time>2019-04-04T06:31:12Z</time>
      </trkpt>
      <trkpt lat="47.53119" lon="3.56929">
        <ele>206</ele>
        <time>2019-04-04T06:31:16Z</time>
      </trkpt>
      <trkpt lat="47.53119" lon="3.56937">
        <ele>206</ele>
        <time>2019-04-04T06:31:20Z</time>
      </trkpt>
      <trkpt lat="47.5312" lon="3.56945">
        <ele>205</ele>
        <time>2019-04-04T06:31:24Z</time>
      </trkpt>
      <trkpt lat="47.5312" lon="3.5695">
        <ele>204</ele>
        <time>2019-04-04T06:31:27Z</time>
      </trkpt>
      <trkpt lat="47.53121" lon="3.56956">
        <ele>205</ele>
        <time>2019-04-04T06:31:29Z</time>
      </trkpt>
      <trkpt lat="47.53122" lon="3.56961">
        <ele>205</ele>
        <time>2019-04-04T06:31:31Z</time>
      </trkpt>
      <trkpt lat="47.53123" lon="3.56965">
        <ele>204</ele>
        <time>2019-04-04T06:31:33Z</time>
      </trkpt>
      <trkpt lat="47.53123" lon="3.56972">
        <ele>204</ele>
        <time>2019-04-04T06:31:37Z</time>
      </trkpt>
      <trkpt lat="47.53125" lon="3.56979">
        <ele>203</ele>
        <time>2019-04-04T06:31:40Z</time>
      </trkpt>
      <trkpt lat="47.53126" lon="3.56988">
        <ele>204</ele>
        <time>2019-04-04T06:31:44Z</time>
      </trkpt>
      <trkpt lat="47.53126" lon="3.56992">
        <ele>203</ele>
        <time>2019-04-04T06:31:46Z</time>
      </trkpt>
      <trkpt lat="47.53126" lon="3.56996">
        <ele>203</ele>
        <time>2019-04-04T06:31:48Z</time>
      </trkpt>
      <trkpt lat="47.53127" lon="3.57">
        <ele>203</ele>
        <time>2019-04-04T06:31:50Z</time>
      </trkpt>
      <trkpt lat="47.53127" lon="3.57005">
        <ele>204</ele>
        <time>2019-04-04T06:31:52Z</time>
      </trkpt>
      <trkpt lat="47.53128" lon="3.5701">
        <ele>203</ele>
        <time>2019-04-04T06:31:54Z</time>
      </trkpt>
      <trkpt lat="47.53129" lon="3.57018">
        <ele>202</ele>
        <time>2019-04-04T06:31:58Z</time>
      </trkpt>
      <trkpt lat="47.5313" lon="3.57023">
        <ele>203</ele>
        <time>2019-04-04T06:32:01Z</time>
      </trkpt>
      <trkpt lat="47.5313" lon="3.5703">
        <ele>203</ele>
        <time>2019-04-04T06:32:05Z</time>
      </trkpt>
      <trkpt lat="47.5313" lon="3.57034">
        <ele>203</ele>
        <time>2019-04-04T06:32:07Z</time>
      </trkpt>
      <trkpt lat="47.5313" lon="3.57041">
        <ele>203</ele>
        <time>2019-04-04T06:32:10Z</time>
      </trkpt>
      <trkpt lat="47.53131" lon="3.57045">
        <ele>202</ele>
        <time>2019-04-04T06:32:12Z</time>
      </trkpt>
      <trkpt lat="47.53131" lon="3.5705">
        <ele>203</ele>
        <time>2019-04-04T06:32:15Z</time>
      </trkpt>
      <trkpt lat="47.53132" lon="3.57056">
        <ele>202</ele>
        <time>2019-04-04T06:32:18Z</time>
      </trkpt>
      <trkpt lat="47.53132" lon="3.57061">
        <ele>202</ele>
        <time>2019-04-04T06:32:21Z</time>
      </trkpt>
      <trkpt lat="47.53134" lon="3.57068">
        <ele>202</ele>
        <time>2019-04-04T06:32:24Z</time>
      </trkpt>
      <trkpt lat="47.53135" lon="3.57075">
        <ele>202</ele>
        <time>2019-04-04T06:32:28Z</time>
      </trkpt>
      <trkpt lat="47.53136" lon="3.57079">
        <ele>202</ele>
        <time>2019-04-04T06:32:30Z</time>
      </trkpt>
      <trkpt lat="47.53137" lon="3.57084">
        <ele>202</ele>
        <time>2019-04-04T06:32:32Z</time>
      </trkpt>
      <trkpt lat="47.53138" lon="3.57091">
        <ele>203</ele>
        <time>2019-04-04T06:32:35Z</time>
      </trkpt>
      <trkpt lat="47.53138" lon="3.57095">
        <ele>202</ele>
        <time>2019-04-04T06:32:37Z</time>
      </trkpt>
      <trkpt lat="47.53139" lon="3.57099">
        <ele>202</ele>
        <time>2019-04-04T06:32:39Z</time>
      </trkpt>
      <trkpt lat="47.53139" lon="3.57105">
        <ele>202</ele>
        <time>2019-04-04T06:32:42Z</time>
      </trkpt>
      <trkpt lat="47.5314" lon="3.57112">
        <ele>201</ele>
        <time>2019-04-04T06:32:45Z</time>
      </trkpt>
      <trkpt lat="47.5314" lon="3.57117">
        <ele>201</ele>
        <time>2019-04-04T06:32:47Z</time>
      </trkpt>
      <trkpt lat="47.53142" lon="3.57125">
        <ele>201</ele>
        <time>2019-04-04T06:32:51Z</time>
      </trkpt>
      <trkpt lat="47.53142" lon="3.57132">
        <ele>201</ele>
        <time>2019-04-04T06:32:55Z</time>
      </trkpt>
      <trkpt lat="47.53143" lon="3.57138">
        <ele>200</ele>
        <time>2019-04-04T06:32:58Z</time>
      </trkpt>
      <trkpt lat="47.53144" lon="3.57145">
        <ele>201</ele>
        <time>2019-04-04T06:33:01Z</time>
      </trkpt>
      <trkpt lat="47.53144" lon="3.5715">
        <ele>201</ele>
        <time>2019-04-04T06:33:04Z</time>
      </trkpt>
      <trkpt lat="47.53145" lon="3.57154">
        <ele>201</ele>
        <time>2019-04-04T06:33:06Z</time>
      </trkpt>
      <trkpt lat="47.53146" lon="3.57158">
        <ele>201</ele>
        <time>2019-04-04T06:33:08Z</time>
      </trkpt>
      <trkpt lat="47.53146" lon="3.57165">
        <ele>201</ele>
        <time>2019-04-04T06:33:11Z</time>
      </trkpt>
      <trkpt lat="47.53148" lon="3.57172">
        <ele>201</ele>
        <time>2019-04-04T06:33:14Z</time>
      </trkpt>
      <trkpt lat="47.53148" lon="3.5718">
        <ele>201</ele>
        <time>2019-04-04T06:33:18Z</time>
      </trkpt>
      <trkpt lat="47.5315" lon="3.57188">
        <ele>200</ele>
        <time>2019-04-04T06:33:22Z</time>
      </trkpt>
      <trkpt lat="47.53151" lon="3.57197">
        <ele>200</ele>
        <time>2019-04-04T06:33:26Z</time>
      </trkpt>
      <trkpt lat="47.53152" lon="3.57203">
        <ele>200</ele>
        <time>2019-04-04T06:33:29Z</time>
      </trkpt>
      <trkpt lat="47.53153" lon="3.57211">
        <ele>199</ele>
        <time>2019-04-04T06:33:33Z</time>
      </trkpt>
      <trkpt lat="47.53153" lon="3.57218">
        <ele>200</ele>
        <time>2019-04-04T06:33:37Z</time>
      </trkpt>
      <trkpt lat="47.53154" lon="3.57223">
        <ele>200</ele>
        <time>2019-04-04T06:33:39Z</time>
      </trkpt>
      <trkpt lat="47.53154" lon="3.57227">
        <ele>199</ele>
        <time>2019-04-04T06:33:41Z</time>
      </trkpt>
      <trkpt lat="47.53154" lon="3.57231">
        <ele>199</ele>
        <time>2019-04-04T06:33:43Z</time>
      </trkpt>
      <trkpt lat="47.53155" lon="3.57235">
        <ele>198</ele>
        <time>2019-04-04T06:33:45Z</time>
      </trkpt>
      <trkpt lat="47.53156" lon="3.57242">
        <ele>198</ele>
        <time>2019-04-04T06:33:48Z</time>
      </trkpt>
      <trkpt lat="47.53157" lon="3.57249">
        <ele>198</ele>
        <time>2019-04-04T06:33:52Z</time>
      </trkpt>
      <trkpt lat="47.53157" lon="3.57255">
        <ele>199</ele>
        <time>2019-04-04T06:33:55Z</time>
      </trkpt>
      <trkpt lat="47.53158" lon="3.57259">
        <ele>199</ele>
        <time>2019-04-04T06:33:57Z</time>
      </trkpt>
      <trkpt lat="47.53159" lon="3.57268">
        <ele>199</ele>
        <time>2019-04-04T06:34:01Z</time>
      </trkpt>
      <trkpt lat="47.5316" lon="3.57272">
        <ele>198</ele>
        <time>2019-04-04T06:34:03Z</time>
      </trkpt>
      <trkpt lat="47.5316" lon="3.57276">
        <ele>198</ele>
        <time>2019-04-04T06:34:05Z</time>
      </trkpt>
      <trkpt lat="47.53161" lon="3.5728">
        <ele>199</ele>
        <time>2019-04-04T06:34:07Z</time>
      </trkpt>
      <trkpt lat="47.53162" lon="3.57287">
        <ele>198</ele>
        <time>2019-04-04T06:34:10Z</time>
      </trkpt>
      <trkpt lat="47.53164" lon="3.57296">
        <ele>199</ele>
        <time>2019-04-04T06:34:14Z</time>
      </trkpt>
      <trkpt lat="47.53164" lon="3.57302">
        <ele>198</ele>
        <time>2019-04-04T06:34:17Z</time>
      </trkpt>
      <trkpt lat="47.53164" lon="3.57309">
        <ele>198</ele>
        <time>2019-04-04T06:34:21Z</time>
      </trkpt>
      <trkpt lat="47.53164" lon="3.57312">
        <ele>197</ele>
        <time>2019-04-04T06:34:23Z</time>
      </trkpt>
      <trkpt lat="47.53166" lon="3.57321">
        <ele>198</ele>
        <time>2019-04-04T06:34:27Z</time>
      </trkpt>
      <trkpt lat="47.53166" lon="3.57329">
        <ele>198</ele>
        <time>2019-04-04T06:34:31Z</time>
      </trkpt>
      <trkpt lat="47.53168" lon="3.57338">
        <ele>198</ele>
        <time>2019-04-04T06:34:36Z</time>
      </trkpt>
      <trkpt lat="47.53168" lon="3.57346">
        <ele>197</ele>
        <time>2019-04-04T06:34:40Z</time>
      </trkpt>
      <trkpt lat="47.53168" lon="3.5735">
        <ele>197</ele>
        <time>2019-04-04T06:34:42Z</time>
      </trkpt>
      <trkpt lat="47.53169" lon="3.57358">
        <ele>198</ele>
        <time>2019-04-04T06:34:46Z</time>
      </trkpt>
      <trkpt lat="47.53171" lon="3.57366">
        <ele>197</ele>
        <time>2019-04-04T06:34:49Z</time>
      </trkpt>
      <trkpt lat="47.53171" lon="3.5737">
        <ele>196</ele>
        <time>2019-04-04T06:34:51Z</time>
      </trkpt>
      <trkpt lat="47.53172" lon="3.57377">
        <ele>197</ele>
        <time>2019-04-04T06:34:55Z</time>
      </trkpt>
      <trkpt lat="47.53172" lon="3.57383">
        <ele>197</ele>
        <time>2019-04-04T06:34:58Z</time>
      </trkpt>
      <trkpt lat="47.53174" lon="3.5739">
        <ele>198</ele>
        <time>2019-04-04T06:35:02Z</time>
      </trkpt>
      <trkpt lat="47.53175" lon="3.57394">
        <ele>197</ele>
        <time>2019-04-04T06:35:04Z</time>
      </trkpt>
      <trkpt lat="47.53175" lon="3.57402">
        <ele>197</ele>
        <time>2019-04-04T06:35:08Z</time>
      </trkpt>
      <trkpt lat="47.53177" lon="3.5741">
        <ele>198</ele>
        <time>2019-04-04T06:35:12Z</time>
      </trkpt>
      <trkpt lat="47.53177" lon="3.57413">
        <ele>198</ele>
        <time>2019-04-04T06:35:14Z</time>
      </trkpt>
      <trkpt lat="47.53178" lon="3.57417">
        <ele>198</ele>
        <time>2019-04-04T06:35:16Z</time>
      </trkpt>
      <trkpt lat="47.53178" lon="3.57422">
        <ele>198</ele>
        <time>2019-04-04T06:35:18Z</time>
      </trkpt>
      <trkpt lat="47.53179" lon="3.57425">
        <ele>198</ele>
        <time>2019-04-04T06:35:20Z</time>
      </trkpt>
      <trkpt lat="47.53179" lon="3.57432">
        <ele>197</ele>
        <time>2019-04-04T06:35:23Z</time>
      </trkpt>
      <trkpt lat="47.5318" lon="3.57439">
        <ele>197</ele>
        <time>2019-04-04T06:35:26Z</time>
      </trkpt>
      <trkpt lat="47.5318" lon="3.57446">
        <ele>197</ele>
        <time>2019-04-04T06:35:30Z</time>
      </trkpt>
      <trkpt lat="47.53181" lon="3.57456">
        <ele>196</ele>
        <time>2019-04-04T06:35:35Z</time>
      </trkpt>
      <trkpt lat="47.5318" lon="3.57462">
        <ele>195</ele>
        <time>2019-04-04T06:35:39Z</time>
      </trkpt>
      <trkpt lat="47.53181" lon="3.57473">
        <ele>194</ele>
        <time>2019-04-04T06:35:44Z</time>
      </trkpt>
      <trkpt lat="47.53182" lon="3.57478">
        <ele>195</ele>
        <time>2019-04-04T06:35:46Z</time>
      </trkpt>
      <trkpt lat="47.53184" lon="3.57487">
        <ele>195</ele>
        <time>2019-04-04T06:35:50Z</time>
      </trkpt>
      <trkpt lat="47.53184" lon="3.57495">
        <ele>194</ele>
        <time>2019-04-04T06:35:54Z</time>
      </trkpt>
      <trkpt lat="47.53184" lon="3.57502">
        <ele>194</ele>
        <time>2019-04-04T06:35:58Z</time>
      </trkpt>
      <trkpt lat="47.53185" lon="3.57509">
        <ele>194</ele>
        <time>2019-04-04T06:36:02Z</time>
      </trkpt>
      <trkpt lat="47.53185" lon="3.57513">
        <ele>194</ele>
        <time>2019-04-04T06:36:05Z</time>
      </trkpt>
      <trkpt lat="47.53185" lon="3.57516">
        <ele>193</ele>
        <time>2019-04-04T06:36:07Z</time>
      </trkpt>
      <trkpt lat="47.53186" lon="3.57523">
        <ele>194</ele>
        <time>2019-04-04T06:36:11Z</time>
      </trkpt>
      <trkpt lat="47.53188" lon="3.5753">
        <ele>192</ele>
        <time>2019-04-04T06:36:17Z</time>
      </trkpt>
      <trkpt lat="47.53187" lon="3.57534">
        <ele>191</ele>
        <time>2019-04-04T06:36:28Z</time>
      </trkpt>
      <trkpt lat="47.53182" lon="3.5753">
        <ele>191</ele>
        <time>2019-04-04T06:37:40Z</time>
      </trkpt>
      <trkpt lat="47.53176" lon="3.5753">
        <ele>191</ele>
        <time>2019-04-04T06:37:54Z</time>
      </trkpt>
      <trkpt lat="47.53171" lon="3.57529">
        <ele>192</ele>
        <time>2019-04-04T06:38:00Z</time>
      </trkpt>
      <trkpt lat="47.53165" lon="3.57527">
        <ele>191</ele>
        <time>2019-04-04T06:38:05Z</time>
      </trkpt>
      <trkpt lat="47.53163" lon="3.57527">
        <ele>191</ele>
        <time>2019-04-04T06:38:07Z</time>
      </trkpt>
      <trkpt lat="47.5316" lon="3.57527">
        <ele>193</ele>
        <time>2019-04-04T06:38:09Z</time>
      </trkpt>
      <trkpt lat="47.53157" lon="3.57527">
        <ele>192</ele>
        <time>2019-04-04T06:38:12Z</time>
      </trkpt>
      <trkpt lat="47.53155" lon="3.57527">
        <ele>192</ele>
        <time>2019-04-04T06:38:14Z</time>
      </trkpt>
      <trkpt lat="47.5315" lon="3.57526">
        <ele>193</ele>
        <time>2019-04-04T06:38:18Z</time>
      </trkpt>
      <trkpt lat="47.53144" lon="3.57526">
        <ele>194</ele>
        <time>2019-04-04T06:38:25Z</time>
      </trkpt>
      <trkpt lat="47.53141" lon="3.57525">
        <ele>194</ele>
        <time>2019-04-04T06:38:27Z</time>
      </trkpt>
      <trkpt lat="47.53138" lon="3.57525">
        <ele>194</ele>
        <time>2019-04-04T06:38:28Z</time>
      </trkpt>
      <trkpt lat="47.53135" lon="3.57525">
        <ele>193</ele>
        <time>2019-04-04T06:38:30Z</time>
      </trkpt>
      <trkpt lat="47.5313" lon="3.57523">
        <ele>193</ele>
        <time>2019-04-04T06:38:36Z</time>
      </trkpt>
      <trkpt lat="47.53124" lon="3.57522">
        <ele>193</ele>
        <time>2019-04-04T06:38:42Z</time>
      </trkpt>
      <trkpt lat="47.53119" lon="3.57522">
        <ele>194</ele>
        <time>2019-04-04T06:38:48Z</time>
      </trkpt>
      <trkpt lat="47.53117" lon="3.57521">
        <ele>194</ele>
        <time>2019-04-04T06:38:50Z</time>
      </trkpt>
      <trkpt lat="47.53111" lon="3.57522">
        <ele>195</ele>
        <time>2019-04-04T06:38:54Z</time>
      </trkpt>
      <trkpt lat="47.53106" lon="3.57522">
        <ele>195</ele>
        <time>2019-04-04T06:38:56Z</time>
      </trkpt>
      <trkpt lat="47.531" lon="3.57521">
        <ele>195</ele>
        <time>2019-04-04T06:39:00Z</time>
      </trkpt>
      <trkpt lat="47.53096" lon="3.57521">
        <ele>194</ele>
        <time>2019-04-04T06:39:04Z</time>
      </trkpt>
      <trkpt lat="47.53093" lon="3.57516">
        <ele>194</ele>
        <time>2019-04-04T06:39:08Z</time>
      </trkpt>
      <trkpt lat="47.53091" lon="3.57513">
        <ele>196</ele>
        <time>2019-04-04T06:39:11Z</time>
      </trkpt>
      <trkpt lat="47.53086" lon="3.57512">
        <ele>196</ele>
        <time>2019-04-04T06:39:16Z</time>
      </trkpt>
      <trkpt lat="47.53081" lon="3.57509">
        <ele>198</ele>
        <time>2019-04-04T06:39:21Z</time>
      </trkpt>
      <trkpt lat="47.53075" lon="3.5751">
        <ele>198</ele>
        <time>2019-04-04T06:39:24Z</time>
      </trkpt>
      <trkpt lat="47.53072" lon="3.57511">
        <ele>198</ele>
        <time>2019-04-04T06:39:26Z</time>
      </trkpt>
      <trkpt lat="47.53068" lon="3.57512">
        <ele>199</ele>
        <time>2019-04-04T06:39:28Z</time>
      </trkpt>
      <trkpt lat="47.53063" lon="3.57516">
        <ele>198</ele>
        <time>2019-04-04T06:39:31Z</time>
      </trkpt>
      <trkpt lat="47.5306" lon="3.57522">
        <ele>198</ele>
        <time>2019-04-04T06:39:34Z</time>
      </trkpt>
      <trkpt lat="47.53058" lon="3.57528">
        <ele>196</ele>
        <time>2019-04-04T06:39:38Z</time>
      </trkpt>
      <trkpt lat="47.53055" lon="3.57535">
        <ele>195</ele>
        <time>2019-04-04T06:39:42Z</time>
      </trkpt>
      <trkpt lat="47.53053" lon="3.57539">
        <ele>194</ele>
        <time>2019-04-04T06:39:43Z</time>
      </trkpt>
      <trkpt lat="47.53052" lon="3.57543">
        <ele>193</ele>
        <time>2019-04-04T06:39:45Z</time>
      </trkpt>
      <trkpt lat="47.53049" lon="3.57549">
        <ele>192</ele>
        <time>2019-04-04T06:39:49Z</time>
      </trkpt>
      <trkpt lat="47.53047" lon="3.57553">
        <ele>191</ele>
        <time>2019-04-04T06:39:52Z</time>
      </trkpt>
      <trkpt lat="47.53045" lon="3.5756">
        <ele>191</ele>
        <time>2019-04-04T06:39:56Z</time>
      </trkpt>
      <trkpt lat="47.53044" lon="3.57563">
        <ele>191</ele>
        <time>2019-04-04T06:39:58Z</time>
      </trkpt>
      <trkpt lat="47.53042" lon="3.5757">
        <ele>190</ele>
        <time>2019-04-04T06:40:02Z</time>
      </trkpt>
      <trkpt lat="47.5304" lon="3.57574">
        <ele>190</ele>
        <time>2019-04-04T06:40:04Z</time>
      </trkpt>
      <trkpt lat="47.53037" lon="3.57581">
        <ele>190</ele>
        <time>2019-04-04T06:40:08Z</time>
      </trkpt>
      <trkpt lat="47.53035" lon="3.57587">
        <ele>189</ele>
        <time>2019-04-04T06:40:11Z</time>
      </trkpt>
      <trkpt lat="47.53032" lon="3.57594">
        <ele>188</ele>
        <time>2019-04-04T06:40:15Z</time>
      </trkpt>
      <trkpt lat="47.53027" lon="3.57602">
        <ele>188</ele>
        <time>2019-04-04T06:40:20Z</time>
      </trkpt>
      <trkpt lat="47.53025" lon="3.57606">
        <ele>188</ele>
        <time>2019-04-04T06:40:23Z</time>
      </trkpt>
      <trkpt lat="47.53022" lon="3.57612">
        <ele>186</ele>
        <time>2019-04-04T06:40:27Z</time>
      </trkpt>
      <trkpt lat="47.53017" lon="3.57619">
        <ele>185</ele>
        <time>2019-04-04T06:40:32Z</time>
      </trkpt>
      <trkpt lat="47.53015" lon="3.57627">
        <ele>185</ele>
        <time>2019-04-04T06:40:36Z</time>
      </trkpt>
      <trkpt lat="47.53013" lon="3.57632">
        <ele>186</ele>
        <time>2019-04-04T06:40:39Z</time>
      </trkpt>
      <trkpt lat="47.53013" lon="3.57639">
        <ele>187</ele>
        <time>2019-04-04T06:40:43Z</time>
      </trkpt>
      <trkpt lat="47.53012" lon="3.57645">
        <ele>187</ele>
        <time>2019-04-04T06:40:46Z</time>
      </trkpt>
      <trkpt lat="47.53012" lon="3.57649">
        <ele>188</ele>
        <time>2019-04-04T06:40:48Z</time>
      </trkpt>
      <trkpt lat="47.53011" lon="3.57658">
        <ele>188</ele>
        <time>2019-04-04T06:40:52Z</time>
      </trkpt>
      <trkpt lat="47.53011" lon="3.57661">
        <ele>188</ele>
        <time>2019-04-04T06:40:54Z</time>
      </trkpt>
      <trkpt lat="47.53011" lon="3.5767">
        <ele>188</ele>
        <time>2019-04-04T06:40:59Z</time>
      </trkpt>
      <trkpt lat="47.53011" lon="3.57677">
        <ele>188</ele>
        <time>2019-04-04T06:41:02Z</time>
      </trkpt>
      <trkpt lat="47.53012" lon="3.57681">
        <ele>189</ele>
        <time>2019-04-04T06:41:04Z</time>
      </trkpt>
      <trkpt lat="47.5301" lon="3.57688">
        <ele>189</ele>
        <time>2019-04-04T06:41:09Z</time>
      </trkpt>
      <trkpt lat="47.53004" lon="3.57688">
        <ele>189</ele>
        <time>2019-04-04T06:41:15Z</time>
      </trkpt>
      <trkpt lat="47.52999" lon="3.57689">
        <ele>189</ele>
        <time>2019-04-04T06:41:18Z</time>
      </trkpt>
      <trkpt lat="47.52996" lon="3.57688">
        <ele>191</ele>
        <time>2019-04-04T06:41:27Z</time>
      </trkpt>
      <trkpt lat="47.52985" lon="3.5769">
        <ele>185</ele>
        <time>2019-04-04T06:42:55Z</time>
      </trkpt>
      <trkpt lat="47.52983" lon="3.57696">
        <ele>184</ele>
        <time>2019-04-04T06:42:59Z</time>
      </trkpt>
      <trkpt lat="47.52983" lon="3.57703">
        <ele>184</ele>
        <time>2019-04-04T06:43:03Z</time>
      </trkpt>
      <trkpt lat="47.52983" lon="3.5771">
        <ele>185</ele>
        <time>2019-04-04T06:43:07Z</time>
      </trkpt>
      <trkpt lat="47.52984" lon="3.57718">
        <ele>185</ele>
        <time>2019-04-04T06:43:11Z</time>
      </trkpt>
      <trkpt lat="47.52983" lon="3.57726">
        <ele>187</ele>
        <time>2019-04-04T06:43:15Z</time>
      </trkpt>
      <trkpt lat="47.52983" lon="3.57731">
        <ele>187</ele>
        <time>2019-04-04T06:43:17Z</time>
      </trkpt>
      <trkpt lat="47.52984" lon="3.57738">
        <ele>186</ele>
        <time>2019-04-04T06:43:21Z</time>
      </trkpt>
      <trkpt lat="47.52983" lon="3.57746">
        <ele>187</ele>
        <time>2019-04-04T06:43:25Z</time>
      </trkpt>
      <trkpt lat="47.52983" lon="3.5775">
        <ele>187</ele>
        <time>2019-04-04T06:43:27Z</time>
      </trkpt>
      <trkpt lat="47.52983" lon="3.57755">
        <ele>188</ele>
        <time>2019-04-04T06:43:29Z</time>
      </trkpt>
      <trkpt lat="47.52983" lon="3.57759">
        <ele>187</ele>
        <time>2019-04-04T06:43:31Z</time>
      </trkpt>
      <trkpt lat="47.52981" lon="3.57767">
        <ele>186</ele>
        <time>2019-04-04T06:43:36Z</time>
      </trkpt>
      <trkpt lat="47.5298" lon="3.57773">
        <ele>185</ele>
        <time>2019-04-04T06:43:39Z</time>
      </trkpt>
      <trkpt lat="47.52979" lon="3.57781">
        <ele>184</ele>
        <time>2019-04-04T06:43:43Z</time>
      </trkpt>
      <trkpt lat="47.52978" lon="3.57788">
        <ele>185</ele>
        <time>2019-04-04T06:43:47Z</time>
      </trkpt>
      <trkpt lat="47.52979" lon="3.57796">
        <ele>186</ele>
        <time>2019-04-04T06:43:50Z</time>
      </trkpt>
      <trkpt lat="47.5298" lon="3.57802">
        <ele>185</ele>
        <time>2019-04-04T06:43:53Z</time>
      </trkpt>
      <trkpt lat="47.5298" lon="3.57811">
        <ele>185</ele>
        <time>2019-04-04T06:43:57Z</time>
      </trkpt>
      <trkpt lat="47.5298" lon="3.57814">
        <ele>185</ele>
        <time>2019-04-04T06:43:59Z</time>
      </trkpt>
      <trkpt lat="47.52979" lon="3.57821">
        <ele>185</ele>
        <time>2019-04-04T06:44:02Z</time>
      </trkpt>
      <trkpt lat="47.52979" lon="3.57829">
        <ele>185</ele>
        <time>2019-04-04T06:44:06Z</time>
      </trkpt>
      <trkpt lat="47.52977" lon="3.57839">
        <ele>185</ele>
        <time>2019-04-04T06:44:11Z</time>
      </trkpt>
      <trkpt lat="47.52977" lon="3.57851">
        <ele>185</ele>
        <time>2019-04-04T06:44:17Z</time>
      </trkpt>
      <trkpt lat="47.52975" lon="3.57858">
        <ele>185</ele>
        <time>2019-04-04T06:44:20Z</time>
      </trkpt>
      <trkpt lat="47.52975" lon="3.57862">
        <ele>185</ele>
        <time>2019-04-04T06:44:22Z</time>
      </trkpt>
      <trkpt lat="47.52973" lon="3.57868">
        <ele>186</ele>
        <time>2019-04-04T06:44:24Z</time>
      </trkpt>
      <trkpt lat="47.52973" lon="3.57873">
        <ele>187</ele>
        <time>2019-04-04T06:44:26Z</time>
      </trkpt>
      <trkpt lat="47.52972" lon="3.57877">
        <ele>186</ele>
        <time>2019-04-04T06:44:28Z</time>
      </trkpt>
      <trkpt lat="47.52971" lon="3.5788">
        <ele>185</ele>
        <time>2019-04-04T06:44:30Z</time>
      </trkpt>
      <trkpt lat="47.52971" lon="3.57883">
        <ele>186</ele>
        <time>2019-04-04T06:44:32Z</time>
      </trkpt>
      <trkpt lat="47.5297" lon="3.57891">
        <ele>186</ele>
        <time>2019-04-04T06:44:36Z</time>
      </trkpt>
      <trkpt lat="47.52969" lon="3.57895">
        <ele>186</ele>
        <time>2019-04-04T06:44:39Z</time>
      </trkpt>
      <trkpt lat="47.52969" lon="3.57899">
        <ele>186</ele>
        <time>2019-04-04T06:44:41Z</time>
      </trkpt>
      <trkpt lat="47.52968" lon="3.57906">
        <ele>185</ele>
        <time>2019-04-04T06:44:45Z</time>
      </trkpt>
      <trkpt lat="47.52966" lon="3.57914">
        <ele>185</ele>
        <time>2019-04-04T06:44:50Z</time>
      </trkpt>
      <trkpt lat="47.52964" lon="3.5792">
        <ele>186</ele>
        <time>2019-04-04T06:44:52Z</time>
      </trkpt>
      <trkpt lat="47.52963" lon="3.57925">
        <ele>186</ele>
        <time>2019-04-04T06:44:55Z</time>
      </trkpt>
      <trkpt lat="47.52962" lon="3.57929">
        <ele>186</ele>
        <time>2019-04-04T06:44:57Z</time>
      </trkpt>
      <trkpt lat="47.52961" lon="3.57933">
        <ele>187</ele>
        <time>2019-04-04T06:44:59Z</time>
      </trkpt>
      <trkpt lat="47.52959" lon="3.5794">
        <ele>187</ele>
        <time>2019-04-04T06:45:03Z</time>
      </trkpt>
      <trkpt lat="47.52958" lon="3.57946">
        <ele>187</ele>
        <time>2019-04-04T06:45:06Z</time>
      </trkpt>
      <trkpt lat="47.52955" lon="3.57953">
        <ele>187</ele>
        <time>2019-04-04T06:45:10Z</time>
      </trkpt>
      <trkpt lat="47.52953" lon="3.57956">
        <ele>187</ele>
        <time>2019-04-04T06:45:12Z</time>
      </trkpt>
      <trkpt lat="47.5295" lon="3.57963">
        <ele>187</ele>
        <time>2019-04-04T06:45:16Z</time>
      </trkpt>
      <trkpt lat="47.52948" lon="3.57968">
        <ele>187</ele>
        <time>2019-04-04T06:45:19Z</time>
      </trkpt>
      <trkpt lat="47.52944" lon="3.57973">
        <ele>187</ele>
        <time>2019-04-04T06:45:23Z</time>
      </trkpt>
      <trkpt lat="47.5294" lon="3.57977">
        <ele>189</ele>
        <time>2019-04-04T06:45:27Z</time>
      </trkpt>
      <trkpt lat="47.52938" lon="3.5798">
        <ele>188</ele>
        <time>2019-04-04T06:45:29Z</time>
      </trkpt>
      <trkpt lat="47.52935" lon="3.57983">
        <ele>188</ele>
        <time>2019-04-04T06:45:31Z</time>
      </trkpt>
      <trkpt lat="47.52931" lon="3.57986">
        <ele>188</ele>
        <time>2019-04-04T06:45:35Z</time>
      </trkpt>
      <trkpt lat="47.52927" lon="3.57988">
        <ele>189</ele>
        <time>2019-04-04T06:45:38Z</time>
      </trkpt>
      <trkpt lat="47.52925" lon="3.5799">
        <ele>189</ele>
        <time>2019-04-04T06:45:40Z</time>
      </trkpt>
      <trkpt lat="47.52922" lon="3.57991">
        <ele>189</ele>
        <time>2019-04-04T06:45:42Z</time>
      </trkpt>
      <trkpt lat="47.52918" lon="3.57991">
        <ele>187</ele>
        <time>2019-04-04T06:45:46Z</time>
      </trkpt>
      <trkpt lat="47.52913" lon="3.57993">
        <ele>187</ele>
        <time>2019-04-04T06:45:51Z</time>
      </trkpt>
      <trkpt lat="47.52908" lon="3.57994">
        <ele>187</ele>
        <time>2019-04-04T06:45:54Z</time>
      </trkpt>
      <trkpt lat="47.52904" lon="3.57993">
        <ele>188</ele>
        <time>2019-04-04T06:45:57Z</time>
      </trkpt>
      <trkpt lat="47.529" lon="3.57993">
        <ele>187</ele>
        <time>2019-04-04T06:45:59Z</time>
      </trkpt>
      <trkpt lat="47.52894" lon="3.57992">
        <ele>188</ele>
        <time>2019-04-04T06:46:05Z</time>
      </trkpt>
      <trkpt lat="47.5289" lon="3.57991">
        <ele>188</ele>
        <time>2019-04-04T06:46:08Z</time>
      </trkpt>
      <trkpt lat="47.52887" lon="3.5799">
        <ele>188</ele>
        <time>2019-04-04T06:46:10Z</time>
      </trkpt>
      <trkpt lat="47.52883" lon="3.5799">
        <ele>188</ele>
        <time>2019-04-04T06:46:13Z</time>
      </trkpt>
      <trkpt lat="47.52879" lon="3.57989">
        <ele>186</ele>
        <time>2019-04-04T06:46:17Z</time>
      </trkpt>
      <trkpt lat="47.52873" lon="3.57987">
        <ele>187</ele>
        <time>2019-04-04T06:46:21Z</time>
      </trkpt>
      <trkpt lat="47.52869" lon="3.57985">
        <ele>186</ele>
        <time>2019-04-04T06:46:24Z</time>
      </trkpt>
      <trkpt lat="47.52866" lon="3.57984">
        <ele>187</ele>
        <time>2019-04-04T06:46:27Z</time>
      </trkpt>
      <trkpt lat="47.52863" lon="3.57983">
        <ele>188</ele>
        <time>2019-04-04T06:46:30Z</time>
      </trkpt>
      <trkpt lat="47.5286" lon="3.57981">
        <ele>188</ele>
        <time>2019-04-04T06:46:32Z</time>
      </trkpt>
      <trkpt lat="47.52858" lon="3.5798">
        <ele>188</ele>
        <time>2019-04-04T06:46:34Z</time>
      </trkpt>
      <trkpt lat="47.52855" lon="3.57979">
        <ele>187</ele>
        <time>2019-04-04T06:46:36Z</time>
      </trkpt>
      <trkpt lat="47.5285" lon="3.57976">
        <ele>189</ele>
        <time>2019-04-04T06:46:40Z</time>
      </trkpt>
      <trkpt lat="47.52845" lon="3.57974">
        <ele>188</ele>
        <time>2019-04-04T06:46:45Z</time>
      </trkpt>
      <trkpt lat="47.52842" lon="3.57973">
        <ele>188</ele>
        <time>2019-04-04T06:46:47Z</time>
      </trkpt>
      <trkpt lat="47.52838" lon="3.5797">
        <ele>187</ele>
        <time>2019-04-04T06:46:50Z</time>
      </trkpt>
      <trkpt lat="47.52833" lon="3.57968">
        <ele>186</ele>
        <time>2019-04-04T06:46:53Z</time>
      </trkpt>
      <trkpt lat="47.5283" lon="3.57968">
        <ele>186</ele>
        <time>2019-04-04T06:46:55Z</time>
      </trkpt>
      <trkpt lat="47.52825" lon="3.57967">
        <ele>186</ele>
        <time>2019-04-04T06:46:59Z</time>
      </trkpt>
      <trkpt lat="47.5282" lon="3.57966">
        <ele>186</ele>
        <time>2019-04-04T06:47:03Z</time>
      </trkpt>
      <trkpt lat="47.52814" lon="3.57966">
        <ele>186</ele>
        <time>2019-04-04T06:47:08Z</time>
      </trkpt>
      <trkpt lat="47.52808" lon="3.5797">
        <ele>186</ele>
        <time>2019-04-04T06:47:13Z</time>
      </trkpt>
      <trkpt lat="47.52803" lon="3.57971">
        <ele>185</ele>
        <time>2019-04-04T06:47:16Z</time>
      </trkpt>
      <trkpt lat="47.52798" lon="3.57975">
        <ele>185</ele>
        <time>2019-04-04T06:47:20Z</time>
      </trkpt>
      <trkpt lat="47.52793" lon="3.5798">
        <ele>183</ele>
        <time>2019-04-04T06:47:23Z</time>
      </trkpt>
      <trkpt lat="47.52788" lon="3.57984">
        <ele>182</ele>
        <time>2019-04-04T06:47:26Z</time>
      </trkpt>
      <trkpt lat="47.52784" lon="3.57988">
        <ele>183</ele>
        <time>2019-04-04T06:47:30Z</time>
      </trkpt>
      <trkpt lat="47.52781" lon="3.57991">
        <ele>183</ele>
        <time>2019-04-04T06:47:32Z</time>
      </trkpt>
      <trkpt lat="47.52779" lon="3.57993">
        <ele>183</ele>
        <time>2019-04-04T06:47:34Z</time>
      </trkpt>
      <trkpt lat="47.52776" lon="3.57996">
        <ele>182</ele>
        <time>2019-04-04T06:47:36Z</time>
      </trkpt>
      <trkpt lat="47.52773" lon="3.58001">
        <ele>182</ele>
        <time>2019-04-04T06:47:39Z</time>
      </trkpt>
      <trkpt lat="47.52771" lon="3.58003">
        <ele>182</ele>
        <time>2019-04-04T06:47:41Z</time>
      </trkpt>
      <trkpt lat="47.52767" lon="3.58008">
        <ele>182</ele>
        <time>2019-04-04T06:47:45Z</time>
      </trkpt>
      <trkpt lat="47.52763" lon="3.58012">
        <ele>184</ele>
        <time>2019-04-04T06:47:49Z</time>
      </trkpt>
      <trkpt lat="47.52759" lon="3.58018">
        <ele>184</ele>
        <time>2019-04-04T06:47:53Z</time>
      </trkpt>
      <trkpt lat="47.52755" lon="3.58023">
        <ele>185</ele>
        <time>2019-04-04T06:47:57Z</time>
      </trkpt>
      <trkpt lat="47.52752" lon="3.58027">
        <ele>184</ele>
        <time>2019-04-04T06:47:59Z</time>
      </trkpt>
      <trkpt lat="47.52749" lon="3.5803">
        <ele>184</ele>
        <time>2019-04-04T06:48:03Z</time>
      </trkpt>
      <trkpt lat="47.52746" lon="3.58033">
        <ele>185</ele>
        <time>2019-04-04T06:48:06Z</time>
      </trkpt>
      <trkpt lat="47.52743" lon="3.58039">
        <ele>184</ele>
        <time>2019-04-04T06:48:10Z</time>
      </trkpt>
      <trkpt lat="47.5274" lon="3.58043">
        <ele>184</ele>
        <time>2019-04-04T06:48:13Z</time>
      </trkpt>
      <trkpt lat="47.52738" lon="3.58045">
        <ele>185</ele>
        <time>2019-04-04T06:48:15Z</time>
      </trkpt>
      <trkpt lat="47.52734" lon="3.58049">
        <ele>184</ele>
        <time>2019-04-04T06:48:19Z</time>
      </trkpt>
      <trkpt lat="47.52732" lon="3.58052">
        <ele>185</ele>
        <time>2019-04-04T06:48:21Z</time>
      </trkpt>
      <trkpt lat="47.5273" lon="3.58055">
        <ele>185</ele>
        <time>2019-04-04T06:48:23Z</time>
      </trkpt>
      <trkpt lat="47.52727" lon="3.58059">
        <ele>184</ele>
        <time>2019-04-04T06:48:26Z</time>
      </trkpt>
      <trkpt lat="47.52724" lon="3.58062">
        <ele>185</ele>
        <time>2019-04-04T06:48:29Z</time>
      </trkpt>
      <trkpt lat="47.52722" lon="3.58065">
        <ele>185</ele>
        <time>2019-04-04T06:48:31Z</time>
      </trkpt>
      <trkpt lat="47.5272" lon="3.58067">
        <ele>185</ele>
        <time>2019-04-04T06:48:33Z</time>
      </trkpt>
      <trkpt lat="47.52718" lon="3.58071">
        <ele>185</ele>
        <time>2019-04-04T06:48:35Z</time>
      </trkpt>
      <trkpt lat="47.52716" lon="3.58074">
        <ele>184</ele>
        <time>2019-04-04T06:48:37Z</time>
      </trkpt>
      <trkpt lat="47.52713" lon="3.58079">
        <ele>184</ele>
        <time>2019-04-04T06:48:41Z</time>
      </trkpt>
      <trkpt lat="47.52708" lon="3.58084">
        <ele>184</ele>
        <time>2019-04-04T06:48:45Z</time>
      </trkpt>
      <trkpt lat="47.52705" lon="3.5809">
        <ele>184</ele>
        <time>2019-04-04T06:48:49Z</time>
      </trkpt>
      <trkpt lat="47.527" lon="3.58095">
        <ele>184</ele>
        <time>2019-04-04T06:48:53Z</time>
      </trkpt>
      <trkpt lat="47.52697" lon="3.58099">
        <ele>184</ele>
        <time>2019-04-04T06:48:56Z</time>
      </trkpt>
      <trkpt lat="47.52693" lon="3.58104">
        <ele>185</ele>
        <time>2019-04-04T06:49:00Z</time>
      </trkpt>
      <trkpt lat="47.5269" lon="3.58107">
        <ele>186</ele>
        <time>2019-04-04T06:49:03Z</time>
      </trkpt>
      <trkpt lat="47.52687" lon="3.58112">
        <ele>185</ele>
        <time>2019-04-04T06:49:06Z</time>
      </trkpt>
      <trkpt lat="47.52683" lon="3.58116">
        <ele>185</ele>
        <time>2019-04-04T06:49:10Z</time>
      </trkpt>
      <trkpt lat="47.52681" lon="3.58119">
        <ele>185</ele>
        <time>2019-04-04T06:49:12Z</time>
      </trkpt>
      <trkpt lat="47.52676" lon="3.58124">
        <ele>186</ele>
        <time>2019-04-04T06:49:16Z</time>
      </trkpt>
      <trkpt lat="47.52672" lon="3.5813">
        <ele>186</ele>
        <time>2019-04-04T06:49:20Z</time>
      </trkpt>
      <trkpt lat="47.5267" lon="3.58133">
        <ele>185</ele>
        <time>2019-04-04T06:49:22Z</time>
      </trkpt>
      <trkpt lat="47.52667" lon="3.58136">
        <ele>185</ele>
        <time>2019-04-04T06:49:25Z</time>
      </trkpt>
      <trkpt lat="47.52664" lon="3.58142">
        <ele>185</ele>
        <time>2019-04-04T06:49:29Z</time>
      </trkpt>
      <trkpt lat="47.5266" lon="3.58147">
        <ele>185</ele>
        <time>2019-04-04T06:49:33Z</time>
      </trkpt>
      <trkpt lat="47.52658" lon="3.5815">
        <ele>184</ele>
        <time>2019-04-04T06:49:36Z</time>
      </trkpt>
      <trkpt lat="47.52655" lon="3.58154">
        <ele>185</ele>
        <time>2019-04-04T06:49:39Z</time>
      </trkpt>
      <trkpt lat="47.52652" lon="3.58156">
        <ele>184</ele>
        <time>2019-04-04T06:49:41Z</time>
      </trkpt>
      <trkpt lat="47.52649" lon="3.5816">
        <ele>184</ele>
        <time>2019-04-04T06:49:44Z</time>
      </trkpt>
      <trkpt lat="47.52647" lon="3.58163">
        <ele>185</ele>
        <time>2019-04-04T06:49:46Z</time>
      </trkpt>
      <trkpt lat="47.52643" lon="3.58167">
        <ele>184</ele>
        <time>2019-04-04T06:49:49Z</time>
      </trkpt>
      <trkpt lat="47.52638" lon="3.58171">
        <ele>184</ele>
        <time>2019-04-04T06:49:53Z</time>
      </trkpt>
      <trkpt lat="47.52633" lon="3.58176">
        <ele>185</ele>
        <time>2019-04-04T06:49:57Z</time>
      </trkpt>
      <trkpt lat="47.5263" lon="3.5818">
        <ele>184</ele>
        <time>2019-04-04T06:50:00Z</time>
      </trkpt>
      <trkpt lat="47.52626" lon="3.58186">
        <ele>182</ele>
        <time>2019-04-04T06:50:04Z</time>
      </trkpt>
      <trkpt lat="47.52624" lon="3.58189">
        <ele>182</ele>
        <time>2019-04-04T06:50:06Z</time>
      </trkpt>
      <trkpt lat="47.5262" lon="3.58194">
        <ele>181</ele>
        <time>2019-04-04T06:50:10Z</time>
      </trkpt>
      <trkpt lat="47.52617" lon="3.582">
        <ele>182</ele>
        <time>2019-04-04T06:50:14Z</time>
      </trkpt>
      <trkpt lat="47.52612" lon="3.58203">
        <ele>182</ele>
        <time>2019-04-04T06:50:17Z</time>
      </trkpt>
      <trkpt lat="47.52608" lon="3.58206">
        <ele>183</ele>
        <time>2019-04-04T06:50:20Z</time>
      </trkpt>
      <trkpt lat="47.52605" lon="3.58213">
        <ele>182</ele>
        <time>2019-04-04T06:50:24Z</time>
      </trkpt>
      <trkpt lat="47.52602" lon="3.58218">
        <ele>182</ele>
        <time>2019-04-04T06:50:28Z</time>
      </trkpt>
      <trkpt lat="47.52597" lon="3.58221">
        <ele>182</ele>
        <time>2019-04-04T06:50:31Z</time>
      </trkpt>
      <trkpt lat="47.52594" lon="3.58224">
        <ele>182</ele>
        <time>2019-04-04T06:50:33Z</time>
      </trkpt>
      <trkpt lat="47.5259" lon="3.58228">
        <ele>181</ele>
        <time>2019-04-04T06:50:36Z</time>
      </trkpt>
      <trkpt lat="47.52584" lon="3.58234">
        <ele>181</ele>
        <time>2019-04-04T06:50:41Z</time>
      </trkpt>
      <trkpt lat="47.52581" lon="3.58239">
        <ele>182</ele>
        <time>2019-04-04T06:50:45Z</time>
      </trkpt>
      <trkpt lat="47.52578" lon="3.58244">
        <ele>183</ele>
        <time>2019-04-04T06:50:50Z</time>
      </trkpt>
      <trkpt lat="47.52573" lon="3.58249">
        <ele>184</ele>
        <time>2019-04-04T06:50:55Z</time>
      </trkpt>
      <trkpt lat="47.52567" lon="3.58251">
        <ele>183</ele>
        <time>2019-04-04T06:50:59Z</time>
      </trkpt>
      <trkpt lat="47.52563" lon="3.58254">
        <ele>183</ele>
        <time>2019-04-04T06:51:02Z</time>
      </trkpt>
      <trkpt lat="47.52558" lon="3.58255">
        <ele>184</ele>
        <time>2019-04-04T06:51:06Z</time>
      </trkpt>
      <trkpt lat="47.52555" lon="3.58255">
        <ele>184</ele>
        <time>2019-04-04T06:51:09Z</time>
      </trkpt>
      <trkpt lat="47.52551" lon="3.58256">
        <ele>184</ele>
        <time>2019-04-04T06:51:11Z</time>
      </trkpt>
      <trkpt lat="47.52546" lon="3.58254">
        <ele>185</ele>
        <time>2019-04-04T06:51:15Z</time>
      </trkpt>
      <trkpt lat="47.52539" lon="3.58252">
        <ele>185</ele>
        <time>2019-04-04T06:51:21Z</time>
      </trkpt>
      <trkpt lat="47.52537" lon="3.58251">
        <ele>185</ele>
        <time>2019-04-04T06:51:23Z</time>
      </trkpt>
      <trkpt lat="47.52532" lon="3.58248">
        <ele>186</ele>
        <time>2019-04-04T06:51:27Z</time>
      </trkpt>
      <trkpt lat="47.5253" lon="3.58246">
        <ele>187</ele>
        <time>2019-04-04T06:51:29Z</time>
      </trkpt>
      <trkpt lat="47.52527" lon="3.58245">
        <ele>187</ele>
        <time>2019-04-04T06:51:32Z</time>
      </trkpt>
      <trkpt lat="47.52524" lon="3.58243">
        <ele>186</ele>
        <time>2019-04-04T06:51:36Z</time>
      </trkpt>
      <trkpt lat="47.52524" lon="3.58243">
        <ele>186</ele>
        <time>2019-04-04T06:51:43Z</time>
      </trkpt>
      <trkpt lat="47.52524" lon="3.58243">
        <ele>186</ele>
        <time>2019-04-04T06:51:44Z</time>
      </trkpt>
      <trkpt lat="47.52512" lon="3.58245">
        <ele>183</ele>
        <time>2019-04-04T06:53:19Z</time>
      </trkpt>
      <trkpt lat="47.5251" lon="3.58245">
        <ele>184</ele>
        <time>2019-04-04T06:53:34Z</time>
      </trkpt>
      <trkpt lat="47.52507" lon="3.58253">
        <ele>186</ele>
        <time>2019-04-04T06:53:41Z</time>
      </trkpt>
      <trkpt lat="47.52505" lon="3.58259">
        <ele>187</ele>
        <time>2019-04-04T06:53:44Z</time>
      </trkpt>
      <trkpt lat="47.52503" lon="3.5827">
        <ele>186</ele>
        <time>2019-04-04T06:53:51Z</time>
      </trkpt>
      <trkpt lat="47.52502" lon="3.58281">
        <ele>187</ele>
        <time>2019-04-04T06:53:57Z</time>
      </trkpt>
      <trkpt lat="47.52499" lon="3.58287">
        <ele>188</ele>
        <time>2019-04-04T06:54:03Z</time>
      </trkpt>
      <trkpt lat="47.52496" lon="3.58292">
        <ele>187</ele>
        <time>2019-04-04T06:54:06Z</time>
      </trkpt>
      <trkpt lat="47.52493" lon="3.58299">
        <ele>187</ele>
        <time>2019-04-04T06:54:10Z</time>
      </trkpt>
      <trkpt lat="47.5249" lon="3.58305">
        <ele>186</ele>
        <time>2019-04-04T06:54:13Z</time>
      </trkpt>
      <trkpt lat="47.52489" lon="3.58315">
        <ele>187</ele>
        <time>2019-04-04T06:54:21Z</time>
      </trkpt>
      <trkpt lat="47.52487" lon="3.58322">
        <ele>187</ele>
        <time>2019-04-04T06:54:26Z</time>
      </trkpt>
      <trkpt lat="47.52484" lon="3.58329">
        <ele>187</ele>
        <time>2019-04-04T06:54:29Z</time>
      </trkpt>
      <trkpt lat="47.52482" lon="3.58333">
        <ele>187</ele>
        <time>2019-04-04T06:54:33Z</time>
      </trkpt>
      <trkpt lat="47.52479" lon="3.58339">
        <ele>187</ele>
        <time>2019-04-04T06:54:36Z</time>
      </trkpt>
      <trkpt lat="47.52477" lon="3.58347">
        <ele>187</ele>
        <time>2019-04-04T06:54:42Z</time>
      </trkpt>
      <trkpt lat="47.52474" lon="3.58352">
        <ele>188</ele>
        <time>2019-04-04T06:54:45Z</time>
      </trkpt>
      <trkpt lat="47.52473" lon="3.58356">
        <ele>187</ele>
        <time>2019-04-04T06:54:47Z</time>
      </trkpt>
      <trkpt lat="47.52471" lon="3.5836">
        <ele>188</ele>
        <time>2019-04-04T06:54:50Z</time>
      </trkpt>
      <trkpt lat="47.52469" lon="3.58367">
        <ele>188</ele>
        <time>2019-04-04T06:54:54Z</time>
      </trkpt>
      <trkpt lat="47.52465" lon="3.58373">
        <ele>187</ele>
        <time>2019-04-04T06:54:59Z</time>
      </trkpt>
      <trkpt lat="47.52463" lon="3.58376">
        <ele>188</ele>
        <time>2019-04-04T06:55:03Z</time>
      </trkpt>
      <trkpt lat="47.5246" lon="3.58379">
        <ele>189</ele>
        <time>2019-04-04T06:55:06Z</time>
      </trkpt>
      <trkpt lat="47.52458" lon="3.58386">
        <ele>191</ele>
        <time>2019-04-04T06:55:10Z</time>
      </trkpt>
      <trkpt lat="47.52456" lon="3.58394">
        <ele>190</ele>
        <time>2019-04-04T06:55:15Z</time>
      </trkpt>
      <trkpt lat="47.52453" lon="3.584">
        <ele>190</ele>
        <time>2019-04-04T06:55:18Z</time>
      </trkpt>
      <trkpt lat="47.5245" lon="3.58407">
        <ele>189</ele>
        <time>2019-04-04T06:55:22Z</time>
      </trkpt>
      <trkpt lat="47.52447" lon="3.58413">
        <ele>188</ele>
        <time>2019-04-04T06:55:26Z</time>
      </trkpt>
      <trkpt lat="47.52446" lon="3.5842">
        <ele>187</ele>
        <time>2019-04-04T06:55:30Z</time>
      </trkpt>
      <trkpt lat="47.52446" lon="3.58424">
        <ele>188</ele>
        <time>2019-04-04T06:55:32Z</time>
      </trkpt>
      <trkpt lat="47.52443" lon="3.58429">
        <ele>188</ele>
        <time>2019-04-04T06:55:37Z</time>
      </trkpt>
      <trkpt lat="47.52441" lon="3.58433">
        <ele>189</ele>
        <time>2019-04-04T06:55:39Z</time>
      </trkpt>
      <trkpt lat="47.52439" lon="3.58441">
        <ele>187</ele>
        <time>2019-04-04T06:55:43Z</time>
      </trkpt>
      <trkpt lat="47.52437" lon="3.5845">
        <ele>188</ele>
        <time>2019-04-04T06:55:49Z</time>
      </trkpt>
      <trkpt lat="47.52436" lon="3.58454">
        <ele>188</ele>
        <time>2019-04-04T06:55:51Z</time>
      </trkpt>
      <trkpt lat="47.52434" lon="3.5846">
        <ele>188</ele>
        <time>2019-04-04T06:55:54Z</time>
      </trkpt>
      <trkpt lat="47.52432" lon="3.58464">
        <ele>187</ele>
        <time>2019-04-04T06:55:56Z</time>
      </trkpt>
      <trkpt lat="47.52431" lon="3.58468">
        <ele>186</ele>
        <time>2019-04-04T06:55:59Z</time>
      </trkpt>
      <trkpt lat="47.5243" lon="3.58471">
        <ele>185</ele>
        <time>2019-04-04T06:56:01Z</time>
      </trkpt>
      <trkpt lat="47.52428" lon="3.58477">
        <ele>185</ele>
        <time>2019-04-04T06:56:05Z</time>
      </trkpt>
      <trkpt lat="47.52427" lon="3.58481">
        <ele>186</ele>
        <time>2019-04-04T06:56:07Z</time>
      </trkpt>
      <trkpt lat="47.52426" lon="3.58485">
        <ele>186</ele>
        <time>2019-04-04T06:56:09Z</time>
      </trkpt>
      <trkpt lat="47.52424" lon="3.58492">
        <ele>185</ele>
        <time>2019-04-04T06:56:14Z</time>
      </trkpt>
      <trkpt lat="47.52423" lon="3.58495">
        <ele>186</ele>
        <time>2019-04-04T06:56:16Z</time>
      </trkpt>
      <trkpt lat="47.52422" lon="3.58502">
        <ele>186</ele>
        <time>2019-04-04T06:56:22Z</time>
      </trkpt>
      <trkpt lat="47.52422" lon="3.5851">
        <ele>186</ele>
        <time>2019-04-04T06:56:25Z</time>
      </trkpt>
      <trkpt lat="47.52419" lon="3.58517">
        <ele>187</ele>
        <time>2019-04-04T06:56:30Z</time>
      </trkpt>
      <trkpt lat="47.52416" lon="3.58523">
        <ele>186</ele>
        <time>2019-04-04T06:56:35Z</time>
      </trkpt>
      <trkpt lat="47.52413" lon="3.58529">
        <ele>186</ele>
        <time>2019-04-04T06:56:38Z</time>
      </trkpt>
      <trkpt lat="47.52412" lon="3.58534">
        <ele>186</ele>
        <time>2019-04-04T06:56:43Z</time>
      </trkpt>
      <trkpt lat="47.52408" lon="3.58543">
        <ele>187</ele>
        <time>2019-04-04T06:56:49Z</time>
      </trkpt>
      <trkpt lat="47.52406" lon="3.58548">
        <ele>188</ele>
        <time>2019-04-04T06:56:53Z</time>
      </trkpt>
      <trkpt lat="47.52403" lon="3.58557">
        <ele>187</ele>
        <time>2019-04-04T06:56:58Z</time>
      </trkpt>
      <trkpt lat="47.52402" lon="3.58561">
        <ele>187</ele>
        <time>2019-04-04T06:57:00Z</time>
      </trkpt>
      <trkpt lat="47.524" lon="3.58567">
        <ele>187</ele>
        <time>2019-04-04T06:57:02Z</time>
      </trkpt>
      <trkpt lat="47.52398" lon="3.58573">
        <ele>187</ele>
        <time>2019-04-04T06:57:05Z</time>
      </trkpt>
      <trkpt lat="47.52396" lon="3.58577">
        <ele>186</ele>
        <time>2019-04-04T06:57:07Z</time>
      </trkpt>
      <trkpt lat="47.52395" lon="3.5858">
        <ele>186</ele>
        <time>2019-04-04T06:57:09Z</time>
      </trkpt>
      <trkpt lat="47.52393" lon="3.58585">
        <ele>186</ele>
        <time>2019-04-04T06:57:15Z</time>
      </trkpt>
      <trkpt lat="47.52391" lon="3.58589">
        <ele>186</ele>
        <time>2019-04-04T06:57:17Z</time>
      </trkpt>
      <trkpt lat="47.5239" lon="3.58592">
        <ele>186</ele>
        <time>2019-04-04T06:57:19Z</time>
      </trkpt>
      <trkpt lat="47.52389" lon="3.58596">
        <ele>187</ele>
        <time>2019-04-04T06:57:22Z</time>
      </trkpt>
      <trkpt lat="47.52387" lon="3.586">
        <ele>187</ele>
        <time>2019-04-04T06:57:24Z</time>
      </trkpt>
      <trkpt lat="47.52385" lon="3.58606">
        <ele>187</ele>
        <time>2019-04-04T06:57:28Z</time>
      </trkpt>
      <trkpt lat="47.52383" lon="3.58611">
        <ele>187</ele>
        <time>2019-04-04T06:57:32Z</time>
      </trkpt>
      <trkpt lat="47.52382" lon="3.58616">
        <ele>187</ele>
        <time>2019-04-04T06:57:35Z</time>
      </trkpt>
      <trkpt lat="47.52381" lon="3.58619">
        <ele>187</ele>
        <time>2019-04-04T06:57:37Z</time>
      </trkpt>
      <trkpt lat="47.52379" lon="3.58627">
        <ele>187</ele>
        <time>2019-04-04T06:57:42Z</time>
      </trkpt>
      <trkpt lat="47.52375" lon="3.58636">
        <ele>187</ele>
        <time>2019-04-04T06:57:46Z</time>
      </trkpt>
      <trkpt lat="47.52374" lon="3.58642">
        <ele>188</ele>
        <time>2019-04-04T06:57:49Z</time>
      </trkpt>
      <trkpt lat="47.52371" lon="3.58647">
        <ele>189</ele>
        <time>2019-04-04T06:57:53Z</time>
      </trkpt>
      <trkpt lat="47.52369" lon="3.58654">
        <ele>189</ele>
        <time>2019-04-04T06:57:57Z</time>
      </trkpt>
      <trkpt lat="47.52367" lon="3.5866">
        <ele>189</ele>
        <time>2019-04-04T06:58:01Z</time>
      </trkpt>
      <trkpt lat="47.52365" lon="3.58665">
        <ele>189</ele>
        <time>2019-04-04T06:58:05Z</time>
      </trkpt>
      <trkpt lat="47.52363" lon="3.58672">
        <ele>189</ele>
        <time>2019-04-04T06:58:08Z</time>
      </trkpt>
      <trkpt lat="47.52361" lon="3.58678">
        <ele>190</ele>
        <time>2019-04-04T06:58:13Z</time>
      </trkpt>
      <trkpt lat="47.5236" lon="3.58682">
        <ele>191</ele>
        <time>2019-04-04T06:58:15Z</time>
      </trkpt>
      <trkpt lat="47.52358" lon="3.58686">
        <ele>191</ele>
        <time>2019-04-04T06:58:16Z</time>
      </trkpt>
      <trkpt lat="47.52357" lon="3.5869">
        <ele>190</ele>
        <time>2019-04-04T06:58:18Z</time>
      </trkpt>
      <trkpt lat="47.52355" lon="3.58694">
        <ele>190</ele>
        <time>2019-04-04T06:58:21Z</time>
      </trkpt>
      <trkpt lat="47.52353" lon="3.58699">
        <ele>191</ele>
        <time>2019-04-04T06:58:25Z</time>
      </trkpt>
      <trkpt lat="47.5235" lon="3.58706">
        <ele>191</ele>
        <time>2019-04-04T06:58:29Z</time>
      </trkpt>
      <trkpt lat="47.52348" lon="3.58712">
        <ele>191</ele>
        <time>2019-04-04T06:58:32Z</time>
      </trkpt>
      <trkpt lat="47.52347" lon="3.58716">
        <ele>191</ele>
        <time>2019-04-04T06:58:35Z</time>
      </trkpt>
      <trkpt lat="47.52346" lon="3.5872">
        <ele>191</ele>
        <time>2019-04-04T06:58:37Z</time>
      </trkpt>
      <trkpt lat="47.52344" lon="3.58727">
        <ele>192</ele>
        <time>2019-04-04T06:58:41Z</time>
      </trkpt>
      <trkpt lat="47.52342" lon="3.58732">
        <ele>191</ele>
        <time>2019-04-04T06:58:44Z</time>
      </trkpt>
      <trkpt lat="47.5234" lon="3.58735">
        <ele>191</ele>
        <time>2019-04-04T06:58:46Z</time>
      </trkpt>
      <trkpt lat="47.52338" lon="3.58739">
        <ele>190</ele>
        <time>2019-04-04T06:58:49Z</time>
      </trkpt>
      <trkpt lat="47.52337" lon="3.58747">
        <ele>190</ele>
        <time>2019-04-04T06:58:53Z</time>
      </trkpt>
      <trkpt lat="47.52335" lon="3.58752">
        <ele>189</ele>
        <time>2019-04-04T06:58:56Z</time>
      </trkpt>
      <trkpt lat="47.52332" lon="3.5876">
        <ele>188</ele>
        <time>2019-04-04T06:59:01Z</time>
      </trkpt>
      <trkpt lat="47.5233" lon="3.58765">
        <ele>189</ele>
        <time>2019-04-04T06:59:04Z</time>
      </trkpt>
      <trkpt lat="47.52329" lon="3.5877">
        <ele>190</ele>
        <time>2019-04-04T06:59:08Z</time>
      </trkpt>
      <trkpt lat="47.52326" lon="3.58776">
        <ele>191</ele>
        <time>2019-04-04T06:59:12Z</time>
      </trkpt>
      <trkpt lat="47.52325" lon="3.5878">
        <ele>190</ele>
        <time>2019-04-04T06:59:15Z</time>
      </trkpt>
      <trkpt lat="47.52322" lon="3.58789">
        <ele>190</ele>
        <time>2019-04-04T06:59:20Z</time>
      </trkpt>
      <trkpt lat="47.52319" lon="3.58795">
        <ele>190</ele>
        <time>2019-04-04T06:59:24Z</time>
      </trkpt>
      <trkpt lat="47.52316" lon="3.58803">
        <ele>190</ele>
        <time>2019-04-04T06:59:29Z</time>
      </trkpt>
      <trkpt lat="47.52315" lon="3.58809">
        <ele>189</ele>
        <time>2019-04-04T06:59:33Z</time>
      </trkpt>
      <trkpt lat="47.52311" lon="3.58818">
        <ele>189</ele>
        <time>2019-04-04T06:59:38Z</time>
      </trkpt>
      <trkpt lat="47.52309" lon="3.58824">
        <ele>190</ele>
        <time>2019-04-04T06:59:42Z</time>
      </trkpt>
      <trkpt lat="47.52307" lon="3.58831">
        <ele>189</ele>
        <time>2019-04-04T06:59:47Z</time>
      </trkpt>
      <trkpt lat="47.52304" lon="3.58837">
        <ele>189</ele>
        <time>2019-04-04T06:59:51Z</time>
      </trkpt>
      <trkpt lat="47.52303" lon="3.58844">
        <ele>189</ele>
        <time>2019-04-04T06:59:55Z</time>
      </trkpt>
      <trkpt lat="47.523" lon="3.5885">
        <ele>189</ele>
        <time>2019-04-04T06:59:59Z</time>
      </trkpt>
      <trkpt lat="47.52298" lon="3.58854">
        <ele>188</ele>
        <time>2019-04-04T07:00:01Z</time>
      </trkpt>
      <trkpt lat="47.52296" lon="3.58862">
        <ele>189</ele>
        <time>2019-04-04T07:00:06Z</time>
      </trkpt>
      <trkpt lat="47.52295" lon="3.58868">
        <ele>189</ele>
        <time>2019-04-04T07:00:10Z</time>
      </trkpt>
      <trkpt lat="47.52291" lon="3.58876">
        <ele>190</ele>
        <time>2019-04-04T07:00:15Z</time>
      </trkpt>
      <trkpt lat="47.5229" lon="3.5888">
        <ele>190</ele>
        <time>2019-04-04T07:00:17Z</time>
      </trkpt>
      <trkpt lat="47.52286" lon="3.58886">
        <ele>189</ele>
        <time>2019-04-04T07:00:21Z</time>
      </trkpt>
      <trkpt lat="47.52284" lon="3.58895">
        <ele>189</ele>
        <time>2019-04-04T07:00:27Z</time>
      </trkpt>
      <trkpt lat="47.52281" lon="3.58901">
        <ele>190</ele>
        <time>2019-04-04T07:00:30Z</time>
      </trkpt>
      <trkpt lat="47.5228" lon="3.58904">
        <ele>190</ele>
        <time>2019-04-04T07:00:32Z</time>
      </trkpt>
      <trkpt lat="47.52278" lon="3.58907">
        <ele>191</ele>
        <time>2019-04-04T07:00:34Z</time>
      </trkpt>
      <trkpt lat="47.52277" lon="3.5891">
        <ele>191</ele>
        <time>2019-04-04T07:00:36Z</time>
      </trkpt>
      <trkpt lat="47.52274" lon="3.58917">
        <ele>191</ele>
        <time>2019-04-04T07:00:40Z</time>
      </trkpt>
      <trkpt lat="47.52272" lon="3.58924">
        <ele>192</ele>
        <time>2019-04-04T07:00:44Z</time>
      </trkpt>
      <trkpt lat="47.5227" lon="3.58932">
        <ele>191</ele>
        <time>2019-04-04T07:00:48Z</time>
      </trkpt>
      <trkpt lat="47.52268" lon="3.58937">
        <ele>191</ele>
        <time>2019-04-04T07:00:52Z</time>
      </trkpt>
      <trkpt lat="47.52267" lon="3.58944">
        <ele>191</ele>
        <time>2019-04-04T07:00:57Z</time>
      </trkpt>
      <trkpt lat="47.52265" lon="3.58951">
        <ele>191</ele>
        <time>2019-04-04T07:01:01Z</time>
      </trkpt>
      <trkpt lat="47.52263" lon="3.58955">
        <ele>191</ele>
        <time>2019-04-04T07:01:04Z</time>
      </trkpt>
      <trkpt lat="47.52262" lon="3.58962">
        <ele>191</ele>
        <time>2019-04-04T07:01:08Z</time>
      </trkpt>
      <trkpt lat="47.52261" lon="3.58967">
        <ele>191</ele>
        <time>2019-04-04T07:01:11Z</time>
      </trkpt>
      <trkpt lat="47.52258" lon="3.58974">
        <ele>190</ele>
        <time>2019-04-04T07:01:15Z</time>
      </trkpt>
      <trkpt lat="47.52257" lon="3.58978">
        <ele>191</ele>
        <time>2019-04-04T07:01:17Z</time>
      </trkpt>
      <trkpt lat="47.52255" lon="3.58985">
        <ele>190</ele>
        <time>2019-04-04T07:01:21Z</time>
      </trkpt>
      <trkpt lat="47.52252" lon="3.5899">
        <ele>191</ele>
        <time>2019-04-04T07:01:24Z</time>
      </trkpt>
      <trkpt lat="47.5225" lon="3.58998">
        <ele>191</ele>
        <time>2019-04-04T07:01:28Z</time>
      </trkpt>
      <trkpt lat="47.52249" lon="3.59004">
        <ele>191</ele>
        <time>2019-04-04T07:01:31Z</time>
      </trkpt>
      <trkpt lat="47.52247" lon="3.59011">
        <ele>191</ele>
        <time>2019-04-04T07:01:35Z</time>
      </trkpt>
      <trkpt lat="47.52245" lon="3.59017">
        <ele>191</ele>
        <time>2019-04-04T07:01:39Z</time>
      </trkpt>
      <trkpt lat="47.52243" lon="3.59025">
        <ele>191</ele>
        <time>2019-04-04T07:01:43Z</time>
      </trkpt>
      <trkpt lat="47.52242" lon="3.59029">
        <ele>190</ele>
        <time>2019-04-04T07:01:46Z</time>
      </trkpt>
      <trkpt lat="47.5224" lon="3.59036">
        <ele>190</ele>
        <time>2019-04-04T07:01:50Z</time>
      </trkpt>
      <trkpt lat="47.52239" lon="3.5904">
        <ele>190</ele>
        <time>2019-04-04T07:01:53Z</time>
      </trkpt>
      <trkpt lat="47.52238" lon="3.59043">
        <ele>189</ele>
        <time>2019-04-04T07:01:55Z</time>
      </trkpt>
      <trkpt lat="47.52238" lon="3.59051">
        <ele>189</ele>
        <time>2019-04-04T07:01:59Z</time>
      </trkpt>
      <trkpt lat="47.52236" lon="3.59058">
        <ele>188</ele>
        <time>2019-04-04T07:02:02Z</time>
      </trkpt>
      <trkpt lat="47.52235" lon="3.59063">
        <ele>187</ele>
        <time>2019-04-04T07:02:04Z</time>
      </trkpt>
      <trkpt lat="47.52233" lon="3.59068">
        <ele>188</ele>
        <time>2019-04-04T07:02:07Z</time>
      </trkpt>
      <trkpt lat="47.52233" lon="3.59072">
        <ele>187</ele>
        <time>2019-04-04T07:02:09Z</time>
      </trkpt>
      <trkpt lat="47.52232" lon="3.59076">
        <ele>187</ele>
        <time>2019-04-04T07:02:12Z</time>
      </trkpt>
      <trkpt lat="47.52231" lon="3.5908">
        <ele>187</ele>
        <time>2019-04-04T07:02:14Z</time>
      </trkpt>
      <trkpt lat="47.5223" lon="3.59083">
        <ele>187</ele>
        <time>2019-04-04T07:02:16Z</time>
      </trkpt>
      <trkpt lat="47.52228" lon="3.59089">
        <ele>186</ele>
        <time>2019-04-04T07:02:20Z</time>
      </trkpt>
      <trkpt lat="47.52228" lon="3.59097">
        <ele>187</ele>
        <time>2019-04-04T07:02:24Z</time>
      </trkpt>
      <trkpt lat="47.52226" lon="3.59104">
        <ele>187</ele>
        <time>2019-04-04T07:02:28Z</time>
      </trkpt>
      <trkpt lat="47.52225" lon="3.59108">
        <ele>188</ele>
        <time>2019-04-04T07:02:30Z</time>
      </trkpt>
      <trkpt lat="47.52224" lon="3.59112">
        <ele>187</ele>
        <time>2019-04-04T07:02:33Z</time>
      </trkpt>
      <trkpt lat="47.52223" lon="3.59117">
        <ele>187</ele>
        <time>2019-04-04T07:02:35Z</time>
      </trkpt>
      <trkpt lat="47.52223" lon="3.59125">
        <ele>188</ele>
        <time>2019-04-04T07:02:39Z</time>
      </trkpt>
      <trkpt lat="47.52221" lon="3.59131">
        <ele>188</ele>
        <time>2019-04-04T07:02:42Z</time>
      </trkpt>
      <trkpt lat="47.52221" lon="3.59138">
        <ele>187</ele>
        <time>2019-04-04T07:02:45Z</time>
      </trkpt>
      <trkpt lat="47.52221" lon="3.59143">
        <ele>188</ele>
        <time>2019-04-04T07:02:48Z</time>
      </trkpt>
      <trkpt lat="47.52219" lon="3.5915">
        <ele>188</ele>
        <time>2019-04-04T07:02:52Z</time>
      </trkpt>
      <trkpt lat="47.52218" lon="3.59157">
        <ele>189</ele>
        <time>2019-04-04T07:02:57Z</time>
      </trkpt>
      <trkpt lat="47.52218" lon="3.59161">
        <ele>190</ele>
        <time>2019-04-04T07:02:59Z</time>
      </trkpt>
      <trkpt lat="47.52218" lon="3.59165">
        <ele>188</ele>
        <time>2019-04-04T07:03:01Z</time>
      </trkpt>
      <trkpt lat="47.52216" lon="3.59173">
        <ele>188</ele>
        <time>2019-04-04T07:03:05Z</time>
      </trkpt>
      <trkpt lat="47.52215" lon="3.59178">
        <ele>187</ele>
        <time>2019-04-04T07:03:08Z</time>
      </trkpt>
      <trkpt lat="47.52214" lon="3.59187">
        <ele>187</ele>
        <time>2019-04-04T07:03:12Z</time>
      </trkpt>
      <trkpt lat="47.52214" lon="3.5919">
        <ele>187</ele>
        <time>2019-04-04T07:03:14Z</time>
      </trkpt>
      <trkpt lat="47.52213" lon="3.59198">
        <ele>187</ele>
        <time>2019-04-04T07:03:18Z</time>
      </trkpt>
      <trkpt lat="47.52213" lon="3.59205">
        <ele>187</ele>
        <time>2019-04-04T07:03:22Z</time>
      </trkpt>
      <trkpt lat="47.52212" lon="3.59213">
        <ele>188</ele>
        <time>2019-04-04T07:03:26Z</time>
      </trkpt>
      <trkpt lat="47.52212" lon="3.59219">
        <ele>187</ele>
        <time>2019-04-04T07:03:29Z</time>
      </trkpt>
      <trkpt lat="47.52211" lon="3.59225">
        <ele>187</ele>
        <time>2019-04-04T07:03:32Z</time>
      </trkpt>
      <trkpt lat="47.52211" lon="3.59229">
        <ele>186</ele>
        <time>2019-04-04T07:03:35Z</time>
      </trkpt>
      <trkpt lat="47.52211" lon="3.59237">
        <ele>187</ele>
        <time>2019-04-04T07:03:38Z</time>
      </trkpt>
      <trkpt lat="47.5221" lon="3.59245">
        <ele>186</ele>
        <time>2019-04-04T07:03:42Z</time>
      </trkpt>
      <trkpt lat="47.52209" lon="3.5925">
        <ele>187</ele>
        <time>2019-04-04T07:03:45Z</time>
      </trkpt>
      <trkpt lat="47.52209" lon="3.59258">
        <ele>187</ele>
        <time>2019-04-04T07:03:49Z</time>
      </trkpt>
      <trkpt lat="47.5221" lon="3.59265">
        <ele>187</ele>
        <time>2019-04-04T07:03:54Z</time>
      </trkpt>
      <trkpt lat="47.52209" lon="3.59275">
        <ele>186</ele>
        <time>2019-04-04T07:03:59Z</time>
      </trkpt>
      <trkpt lat="47.52209" lon="3.59279">
        <ele>186</ele>
        <time>2019-04-04T07:04:01Z</time>
      </trkpt>
      <trkpt lat="47.52209" lon="3.59283">
        <ele>187</ele>
        <time>2019-04-04T07:04:03Z</time>
      </trkpt>
      <trkpt lat="47.5221" lon="3.59286">
        <ele>187</ele>
        <time>2019-04-04T07:04:05Z</time>
      </trkpt>
      <trkpt lat="47.5221" lon="3.59294">
        <ele>187</ele>
        <time>2019-04-04T07:04:09Z</time>
      </trkpt>
      <trkpt lat="47.5221" lon="3.593">
        <ele>187</ele>
        <time>2019-04-04T07:04:12Z</time>
      </trkpt>
      <trkpt lat="47.52209" lon="3.59305">
        <ele>188</ele>
        <time>2019-04-04T07:04:14Z</time>
      </trkpt>
      <trkpt lat="47.5221" lon="3.59312">
        <ele>187</ele>
        <time>2019-04-04T07:04:18Z</time>
      </trkpt>
      <trkpt lat="47.5221" lon="3.59319">
        <ele>188</ele>
        <time>2019-04-04T07:04:22Z</time>
      </trkpt>
      <trkpt lat="47.5221" lon="3.59326">
        <ele>187</ele>
        <time>2019-04-04T07:04:26Z</time>
      </trkpt>
      <trkpt lat="47.5221" lon="3.59332">
        <ele>187</ele>
        <time>2019-04-04T07:04:28Z</time>
      </trkpt>
      <trkpt lat="47.52211" lon="3.59339">
        <ele>186</ele>
        <time>2019-04-04T07:04:32Z</time>
      </trkpt>
      <trkpt lat="47.52212" lon="3.59343">
        <ele>187</ele>
        <time>2019-04-04T07:04:34Z</time>
      </trkpt>
      <trkpt lat="47.52212" lon="3.59347">
        <ele>187</ele>
        <time>2019-04-04T07:04:36Z</time>
      </trkpt>
      <trkpt lat="47.52212" lon="3.59354">
        <ele>187</ele>
        <time>2019-04-04T07:04:40Z</time>
      </trkpt>
      <trkpt lat="47.52212" lon="3.59358">
        <ele>187</ele>
        <time>2019-04-04T07:04:42Z</time>
      </trkpt>
      <trkpt lat="47.52213" lon="3.59366">
        <ele>185</ele>
        <time>2019-04-04T07:04:46Z</time>
      </trkpt>
      <trkpt lat="47.52214" lon="3.59372">
        <ele>186</ele>
        <time>2019-04-04T07:04:49Z</time>
      </trkpt>
      <trkpt lat="47.52214" lon="3.59379">
        <ele>186</ele>
        <time>2019-04-04T07:04:53Z</time>
      </trkpt>
      <trkpt lat="47.52215" lon="3.59386">
        <ele>187</ele>
        <time>2019-04-04T07:04:57Z</time>
      </trkpt>
      <trkpt lat="47.52215" lon="3.5939">
        <ele>187</ele>
        <time>2019-04-04T07:04:59Z</time>
      </trkpt>
      <trkpt lat="47.52215" lon="3.59395">
        <ele>186</ele>
        <time>2019-04-04T07:05:02Z</time>
      </trkpt>
      <trkpt lat="47.52215" lon="3.59402">
        <ele>186</ele>
        <time>2019-04-04T07:05:06Z</time>
      </trkpt>
      <trkpt lat="47.52215" lon="3.59407">
        <ele>186</ele>
        <time>2019-04-04T07:05:10Z</time>
      </trkpt>
      <trkpt lat="47.52216" lon="3.59416">
        <ele>186</ele>
        <time>2019-04-04T07:05:14Z</time>
      </trkpt>
      <trkpt lat="47.52217" lon="3.5942">
        <ele>187</ele>
        <time>2019-04-04T07:05:16Z</time>
      </trkpt>
      <trkpt lat="47.52217" lon="3.59427">
        <ele>186</ele>
        <time>2019-04-04T07:05:19Z</time>
      </trkpt>
      <trkpt lat="47.52217" lon="3.59431">
        <ele>186</ele>
        <time>2019-04-04T07:05:21Z</time>
      </trkpt>
      <trkpt lat="47.52217" lon="3.59434">
        <ele>187</ele>
        <time>2019-04-04T07:05:23Z</time>
      </trkpt>
      <trkpt lat="47.52217" lon="3.59442">
        <ele>186</ele>
        <time>2019-04-04T07:05:27Z</time>
      </trkpt>
      <trkpt lat="47.52217" lon="3.59451">
        <ele>185</ele>
        <time>2019-04-04T07:05:32Z</time>
      </trkpt>
      <trkpt lat="47.52218" lon="3.59457">
        <ele>186</ele>
        <time>2019-04-04T07:05:35Z</time>
      </trkpt>
      <trkpt lat="47.52218" lon="3.59461">
        <ele>185</ele>
        <time>2019-04-04T07:05:37Z</time>
      </trkpt>
      <trkpt lat="47.52218" lon="3.59469">
        <ele>185</ele>
        <time>2019-04-04T07:05:41Z</time>
      </trkpt>
      <trkpt lat="47.52219" lon="3.59476">
        <ele>186</ele>
        <time>2019-04-04T07:05:45Z</time>
      </trkpt>
      <trkpt lat="47.5222" lon="3.59481">
        <ele>186</ele>
        <time>2019-04-04T07:05:48Z</time>
      </trkpt>
      <trkpt lat="47.5222" lon="3.59489">
        <ele>186</ele>
        <time>2019-04-04T07:05:52Z</time>
      </trkpt>
      <trkpt lat="47.52222" lon="3.59496">
        <ele>186</ele>
        <time>2019-04-04T07:05:56Z</time>
      </trkpt>
      <trkpt lat="47.52223" lon="3.59506">
        <ele>187</ele>
        <time>2019-04-04T07:06:02Z</time>
      </trkpt>
      <trkpt lat="47.52223" lon="3.59513">
        <ele>188</ele>
        <time>2019-04-04T07:06:06Z</time>
      </trkpt>
      <trkpt lat="47.52223" lon="3.59517">
        <ele>187</ele>
        <time>2019-04-04T07:06:08Z</time>
      </trkpt>
      <trkpt lat="47.52223" lon="3.59524">
        <ele>188</ele>
        <time>2019-04-04T07:06:10Z</time>
      </trkpt>
      <trkpt lat="47.52225" lon="3.5953">
        <ele>188</ele>
        <time>2019-04-04T07:06:15Z</time>
      </trkpt>
      <trkpt lat="47.52226" lon="3.59537">
        <ele>187</ele>
        <time>2019-04-04T07:06:19Z</time>
      </trkpt>
      <trkpt lat="47.52226" lon="3.59544">
        <ele>187</ele>
        <time>2019-04-04T07:06:22Z</time>
      </trkpt>
      <trkpt lat="47.52225" lon="3.59552">
        <ele>187</ele>
        <time>2019-04-04T07:06:26Z</time>
      </trkpt>
      <trkpt lat="47.52225" lon="3.59556">
        <ele>187</ele>
        <time>2019-04-04T07:06:28Z</time>
      </trkpt>
      <trkpt lat="47.52225" lon="3.5956">
        <ele>188</ele>
        <time>2019-04-04T07:06:30Z</time>
      </trkpt>
      <trkpt lat="47.52225" lon="3.59568">
        <ele>188</ele>
        <time>2019-04-04T07:06:34Z</time>
      </trkpt>
      <trkpt lat="47.52225" lon="3.59571">
        <ele>188</ele>
        <time>2019-04-04T07:06:36Z</time>
      </trkpt>
      <trkpt lat="47.52226" lon="3.59576">
        <ele>188</ele>
        <time>2019-04-04T07:06:39Z</time>
      </trkpt>
      <trkpt lat="47.52226" lon="3.59583">
        <ele>188</ele>
        <time>2019-04-04T07:06:43Z</time>
      </trkpt>
      <trkpt lat="47.52227" lon="3.59588">
        <ele>187</ele>
        <time>2019-04-04T07:06:45Z</time>
      </trkpt>
      <trkpt lat="47.52226" lon="3.59595">
        <ele>188</ele>
        <time>2019-04-04T07:06:49Z</time>
      </trkpt>
      <trkpt lat="47.52227" lon="3.59602">
        <ele>188</ele>
        <time>2019-04-04T07:06:53Z</time>
      </trkpt>
      <trkpt lat="47.52227" lon="3.59607">
        <ele>188</ele>
        <time>2019-04-04T07:06:56Z</time>
      </trkpt>
      <trkpt lat="47.52228" lon="3.5961">
        <ele>188</ele>
        <time>2019-04-04T07:06:58Z</time>
      </trkpt>
      <trkpt lat="47.52228" lon="3.59615">
        <ele>188</ele>
        <time>2019-04-04T07:07:00Z</time>
      </trkpt>
      <trkpt lat="47.52229" lon="3.59623">
        <ele>188</ele>
        <time>2019-04-04T07:07:04Z</time>
      </trkpt>
      <trkpt lat="47.52229" lon="3.59631">
        <ele>188</ele>
        <time>2019-04-04T07:07:08Z</time>
      </trkpt>
      <trkpt lat="47.5223" lon="3.59634">
        <ele>188</ele>
        <time>2019-04-04T07:07:10Z</time>
      </trkpt>
      <trkpt lat="47.5223" lon="3.59638">
        <ele>188</ele>
        <time>2019-04-04T07:07:12Z</time>
      </trkpt>
      <trkpt lat="47.5223" lon="3.59645">
        <ele>188</ele>
        <time>2019-04-04T07:07:16Z</time>
      </trkpt>
      <trkpt lat="47.52232" lon="3.59654">
        <ele>188</ele>
        <time>2019-04-04T07:07:20Z</time>
      </trkpt>
      <trkpt lat="47.52232" lon="3.59661">
        <ele>188</ele>
        <time>2019-04-04T07:07:24Z</time>
      </trkpt>
      <trkpt lat="47.52232" lon="3.59665">
        <ele>188</ele>
        <time>2019-04-04T07:07:26Z</time>
      </trkpt>
      <trkpt lat="47.52232" lon="3.59672">
        <ele>188</ele>
        <time>2019-04-04T07:07:29Z</time>
      </trkpt>
      <trkpt lat="47.52233" lon="3.59681">
        <ele>187</ele>
        <time>2019-04-04T07:07:33Z</time>
      </trkpt>
      <trkpt lat="47.52233" lon="3.59688">
        <ele>187</ele>
        <time>2019-04-04T07:07:37Z</time>
      </trkpt>
      <trkpt lat="47.52232" lon="3.59692">
        <ele>186</ele>
        <time>2019-04-04T07:07:39Z</time>
      </trkpt>
      <trkpt lat="47.52233" lon="3.59699">
        <ele>187</ele>
        <time>2019-04-04T07:07:42Z</time>
      </trkpt>
      <trkpt lat="47.52234" lon="3.59703">
        <ele>187</ele>
        <time>2019-04-04T07:07:44Z</time>
      </trkpt>
      <trkpt lat="47.52234" lon="3.59708">
        <ele>188</ele>
        <time>2019-04-04T07:07:47Z</time>
      </trkpt>
      <trkpt lat="47.52234" lon="3.59715">
        <ele>188</ele>
        <time>2019-04-04T07:07:51Z</time>
      </trkpt>
      <trkpt lat="47.52234" lon="3.59723">
        <ele>188</ele>
        <time>2019-04-04T07:07:55Z</time>
      </trkpt>
      <trkpt lat="47.52235" lon="3.5973">
        <ele>188</ele>
        <time>2019-04-04T07:07:58Z</time>
      </trkpt>
      <trkpt lat="47.52235" lon="3.59733">
        <ele>188</ele>
        <time>2019-04-04T07:08:01Z</time>
      </trkpt>
      <trkpt lat="47.52236" lon="3.59739">
        <ele>189</ele>
        <time>2019-04-04T07:08:03Z</time>
      </trkpt>
      <trkpt lat="47.52236" lon="3.59744">
        <ele>188</ele>
        <time>2019-04-04T07:08:06Z</time>
      </trkpt>
      <trkpt lat="47.52237" lon="3.5975">
        <ele>188</ele>
        <time>2019-04-04T07:08:10Z</time>
      </trkpt>
      <trkpt lat="47.52237" lon="3.59757">
        <ele>188</ele>
        <time>2019-04-04T07:08:14Z</time>
      </trkpt>
      <trkpt lat="47.52237" lon="3.59761">
        <ele>188</ele>
        <time>2019-04-04T07:08:16Z</time>
      </trkpt>
      <trkpt lat="47.52238" lon="3.59768">
        <ele>187</ele>
        <time>2019-04-04T07:08:19Z</time>
      </trkpt>
      <trkpt lat="47.52238" lon="3.59775">
        <ele>188</ele>
        <time>2019-04-04T07:08:23Z</time>
      </trkpt>
      <trkpt lat="47.52238" lon="3.59782">
        <ele>188</ele>
        <time>2019-04-04T07:08:27Z</time>
      </trkpt>
      <trkpt lat="47.52238" lon="3.5979">
        <ele>188</ele>
        <time>2019-04-04T07:08:31Z</time>
      </trkpt>
      <trkpt lat="47.52239" lon="3.59795">
        <ele>188</ele>
        <time>2019-04-04T07:08:34Z</time>
      </trkpt>
      <trkpt lat="47.52239" lon="3.598">
        <ele>187</ele>
        <time>2019-04-04T07:08:36Z</time>
      </trkpt>
      <trkpt lat="47.5224" lon="3.59806">
        <ele>187</ele>
        <time>2019-04-04T07:08:39Z</time>
      </trkpt>
      <trkpt lat="47.5224" lon="3.59812">
        <ele>188</ele>
        <time>2019-04-04T07:08:42Z</time>
      </trkpt>
      <trkpt lat="47.5224" lon="3.59816">
        <ele>189</ele>
        <time>2019-04-04T07:08:44Z</time>
      </trkpt>
      <trkpt lat="47.52241" lon="3.5982">
        <ele>189</ele>
        <time>2019-04-04T07:08:46Z</time>
      </trkpt>
      <trkpt lat="47.52241" lon="3.59826">
        <ele>189</ele>
        <time>2019-04-04T07:08:49Z</time>
      </trkpt>
      <trkpt lat="47.52242" lon="3.59834">
        <ele>189</ele>
        <time>2019-04-04T07:08:54Z</time>
      </trkpt>
      <trkpt lat="47.52242" lon="3.59842">
        <ele>188</ele>
        <time>2019-04-04T07:08:58Z</time>
      </trkpt>
      <trkpt lat="47.52243" lon="3.5985">
        <ele>189</ele>
        <time>2019-04-04T07:09:01Z</time>
      </trkpt>
      <trkpt lat="47.52243" lon="3.59854">
        <ele>190</ele>
        <time>2019-04-04T07:09:04Z</time>
      </trkpt>
      <trkpt lat="47.52244" lon="3.59861">
        <ele>190</ele>
        <time>2019-04-04T07:09:08Z</time>
      </trkpt>
      <trkpt lat="47.52244" lon="3.59867">
        <ele>191</ele>
        <time>2019-04-04T07:09:11Z</time>
      </trkpt>
      <trkpt lat="47.52244" lon="3.59874">
        <ele>191</ele>
        <time>2019-04-04T07:09:16Z</time>
      </trkpt>
      <trkpt lat="47.52245" lon="3.59878">
        <ele>190</ele>
        <time>2019-04-04T07:09:18Z</time>
      </trkpt>
      <trkpt lat="47.52245" lon="3.59885">
        <ele>190</ele>
        <time>2019-04-04T07:09:21Z</time>
      </trkpt>
      <trkpt lat="47.52245" lon="3.59892">
        <ele>190</ele>
        <time>2019-04-04T07:09:25Z</time>
      </trkpt>
      <trkpt lat="47.52246" lon="3.599">
        <ele>190</ele>
        <time>2019-04-04T07:09:29Z</time>
      </trkpt>
      <trkpt lat="47.52246" lon="3.59908">
        <ele>190</ele>
        <time>2019-04-04T07:09:33Z</time>
      </trkpt>
      <trkpt lat="47.52247" lon="3.59916">
        <ele>190</ele>
        <time>2019-04-04T07:09:37Z</time>
      </trkpt>
      <trkpt lat="47.52248" lon="3.5992">
        <ele>190</ele>
        <time>2019-04-04T07:09:39Z</time>
      </trkpt>
      <trkpt lat="47.52249" lon="3.59925">
        <ele>191</ele>
        <time>2019-04-04T07:09:42Z</time>
      </trkpt>
      <trkpt lat="47.52248" lon="3.59932">
        <ele>191</ele>
        <time>2019-04-04T07:09:46Z</time>
      </trkpt>
      <trkpt lat="47.52248" lon="3.59936">
        <ele>191</ele>
        <time>2019-04-04T07:09:49Z</time>
      </trkpt>
      <trkpt lat="47.52249" lon="3.59943">
        <ele>191</ele>
        <time>2019-04-04T07:09:53Z</time>
      </trkpt>
      <trkpt lat="47.5225" lon="3.59948">
        <ele>190</ele>
        <time>2019-04-04T07:09:55Z</time>
      </trkpt>
      <trkpt lat="47.5225" lon="3.59952">
        <ele>191</ele>
        <time>2019-04-04T07:09:57Z</time>
      </trkpt>
      <trkpt lat="47.52251" lon="3.59956">
        <ele>191</ele>
        <time>2019-04-04T07:09:59Z</time>
      </trkpt>
      <trkpt lat="47.52252" lon="3.59962">
        <ele>191</ele>
        <time>2019-04-04T07:10:02Z</time>
      </trkpt>
      <trkpt lat="47.52253" lon="3.59971">
        <ele>190</ele>
        <time>2019-04-04T07:10:06Z</time>
      </trkpt>
      <trkpt lat="47.52253" lon="3.59975">
        <ele>191</ele>
        <time>2019-04-04T07:10:08Z</time>
      </trkpt>
      <trkpt lat="47.52253" lon="3.59979">
        <ele>191</ele>
        <time>2019-04-04T07:10:10Z</time>
      </trkpt>
      <trkpt lat="47.52253" lon="3.59983">
        <ele>191</ele>
        <time>2019-04-04T07:10:12Z</time>
      </trkpt>
      <trkpt lat="47.52254" lon="3.5999">
        <ele>192</ele>
        <time>2019-04-04T07:10:16Z</time>
      </trkpt>
      <trkpt lat="47.52253" lon="3.59997">
        <ele>192</ele>
        <time>2019-04-04T07:10:20Z</time>
      </trkpt>
      <trkpt lat="47.52254" lon="3.60005">
        <ele>191</ele>
        <time>2019-04-04T07:10:24Z</time>
      </trkpt>
      <trkpt lat="47.52253" lon="3.60012">
        <ele>190</ele>
        <time>2019-04-04T07:10:28Z</time>
      </trkpt>
      <trkpt lat="47.52254" lon="3.6002">
        <ele>191</ele>
        <time>2019-04-04T07:10:32Z</time>
      </trkpt>
      <trkpt lat="47.52254" lon="3.60024">
        <ele>191</ele>
        <time>2019-04-04T07:10:34Z</time>
      </trkpt>
      <trkpt lat="47.52254" lon="3.60033">
        <ele>191</ele>
        <time>2019-04-04T07:10:39Z</time>
      </trkpt>
      <trkpt lat="47.52255" lon="3.6004">
        <ele>191</ele>
        <time>2019-04-04T07:10:43Z</time>
      </trkpt>
      <trkpt lat="47.52255" lon="3.60044">
        <ele>191</ele>
        <time>2019-04-04T07:10:45Z</time>
      </trkpt>
      <trkpt lat="47.52255" lon="3.60048">
        <ele>191</ele>
        <time>2019-04-04T07:10:47Z</time>
      </trkpt>
      <trkpt lat="47.52256" lon="3.60053">
        <ele>191</ele>
        <time>2019-04-04T07:10:50Z</time>
      </trkpt>
      <trkpt lat="47.52257" lon="3.60056">
        <ele>191</ele>
        <time>2019-04-04T07:10:52Z</time>
      </trkpt>
      <trkpt lat="47.52258" lon="3.60062">
        <ele>191</ele>
        <time>2019-04-04T07:10:56Z</time>
      </trkpt>
      <trkpt lat="47.52258" lon="3.6007">
        <ele>191</ele>
        <time>2019-04-04T07:11:00Z</time>
      </trkpt>
      <trkpt lat="47.52258" lon="3.60074">
        <ele>191</ele>
        <time>2019-04-04T07:11:02Z</time>
      </trkpt>
      <trkpt lat="47.52259" lon="3.60083">
        <ele>191</ele>
        <time>2019-04-04T07:11:06Z</time>
      </trkpt>
      <trkpt lat="47.52258" lon="3.60088">
        <ele>192</ele>
        <time>2019-04-04T07:11:09Z</time>
      </trkpt>
      <trkpt lat="47.52258" lon="3.60092">
        <ele>191</ele>
        <time>2019-04-04T07:11:11Z</time>
      </trkpt>
      <trkpt lat="47.52258" lon="3.60096">
        <ele>192</ele>
        <time>2019-04-04T07:11:13Z</time>
      </trkpt>
      <trkpt lat="47.52258" lon="3.60101">
        <ele>191</ele>
        <time>2019-04-04T07:11:15Z</time>
      </trkpt>
      <trkpt lat="47.5226" lon="3.60108">
        <ele>192</ele>
        <time>2019-04-04T07:11:19Z</time>
      </trkpt>
      <trkpt lat="47.52261" lon="3.60115">
        <ele>192</ele>
        <time>2019-04-04T07:11:23Z</time>
      </trkpt>
      <trkpt lat="47.52261" lon="3.60123">
        <ele>191</ele>
        <time>2019-04-04T07:11:28Z</time>
      </trkpt>
      <trkpt lat="47.52261" lon="3.60127">
        <ele>191</ele>
        <time>2019-04-04T07:11:30Z</time>
      </trkpt>
      <trkpt lat="47.52261" lon="3.60131">
        <ele>192</ele>
        <time>2019-04-04T07:11:32Z</time>
      </trkpt>
      <trkpt lat="47.52262" lon="3.60136">
        <ele>192</ele>
        <time>2019-04-04T07:11:35Z</time>
      </trkpt>
      <trkpt lat="47.52262" lon="3.6014">
        <ele>192</ele>
        <time>2019-04-04T07:11:37Z</time>
      </trkpt>
      <trkpt lat="47.52262" lon="3.60147">
        <ele>192</ele>
        <time>2019-04-04T07:11:40Z</time>
      </trkpt>
      <trkpt lat="47.52262" lon="3.60151">
        <ele>192</ele>
        <time>2019-04-04T07:11:42Z</time>
      </trkpt>
      <trkpt lat="47.52262" lon="3.60155">
        <ele>191</ele>
        <time>2019-04-04T07:11:44Z</time>
      </trkpt>
      <trkpt lat="47.52261" lon="3.60164">
        <ele>190</ele>
        <time>2019-04-04T07:11:48Z</time>
      </trkpt>
      <trkpt lat="47.52262" lon="3.60171">
        <ele>190</ele>
        <time>2019-04-04T07:11:52Z</time>
      </trkpt>
      <trkpt lat="47.52263" lon="3.60179">
        <ele>189</ele>
        <time>2019-04-04T07:11:56Z</time>
      </trkpt>
      <trkpt lat="47.52263" lon="3.60183">
        <ele>189</ele>
        <time>2019-04-04T07:11:58Z</time>
      </trkpt>
      <trkpt lat="47.52264" lon="3.6019">
        <ele>188</ele>
        <time>2019-04-04T07:12:02Z</time>
      </trkpt>
      <trkpt lat="47.52263" lon="3.60198">
        <ele>188</ele>
        <time>2019-04-04T07:12:07Z</time>
      </trkpt>
      <trkpt lat="47.52263" lon="3.60202">
        <ele>189</ele>
        <time>2019-04-04T07:12:09Z</time>
      </trkpt>
      <trkpt lat="47.52263" lon="3.60208">
        <ele>187</ele>
        <time>2019-04-04T07:12:12Z</time>
      </trkpt>
      <trkpt lat="47.52263" lon="3.60213">
        <ele>187</ele>
        <time>2019-04-04T07:12:14Z</time>
      </trkpt>
      <trkpt lat="47.52264" lon="3.60221">
        <ele>186</ele>
        <time>2019-04-04T07:12:18Z</time>
      </trkpt>
      <trkpt lat="47.52265" lon="3.60226">
        <ele>186</ele>
        <time>2019-04-04T07:12:21Z</time>
      </trkpt>
      <trkpt lat="47.52265" lon="3.6023">
        <ele>185</ele>
        <time>2019-04-04T07:12:23Z</time>
      </trkpt>
      <trkpt lat="47.52266" lon="3.60234">
        <ele>185</ele>
        <time>2019-04-04T07:12:25Z</time>
      </trkpt>
      <trkpt lat="47.52266" lon="3.60239">
        <ele>186</ele>
        <time>2019-04-04T07:12:27Z</time>
      </trkpt>
      <trkpt lat="47.52267" lon="3.60242">
        <ele>185</ele>
        <time>2019-04-04T07:12:29Z</time>
      </trkpt>
      <trkpt lat="47.52266" lon="3.6025">
        <ele>185</ele>
        <time>2019-04-04T07:12:33Z</time>
      </trkpt>
      <trkpt lat="47.52267" lon="3.60257">
        <ele>186</ele>
        <time>2019-04-04T07:12:37Z</time>
      </trkpt>
      <trkpt lat="47.52269" lon="3.60263">
        <ele>186</ele>
        <time>2019-04-04T07:12:40Z</time>
      </trkpt>
      <trkpt lat="47.52269" lon="3.60271">
        <ele>186</ele>
        <time>2019-04-04T07:12:44Z</time>
      </trkpt>
      <trkpt lat="47.52269" lon="3.60275">
        <ele>186</ele>
        <time>2019-04-04T07:12:46Z</time>
      </trkpt>
      <trkpt lat="47.5227" lon="3.60279">
        <ele>187</ele>
        <time>2019-04-04T07:12:48Z</time>
      </trkpt>
      <trkpt lat="47.52271" lon="3.60286">
        <ele>187</ele>
        <time>2019-04-04T07:12:52Z</time>
      </trkpt>
      <trkpt lat="47.52272" lon="3.60292">
        <ele>187</ele>
        <time>2019-04-04T07:12:55Z</time>
      </trkpt>
      <trkpt lat="47.52273" lon="3.60296">
        <ele>187</ele>
        <time>2019-04-04T07:12:57Z</time>
      </trkpt>
      <trkpt lat="47.52274" lon="3.60299">
        <ele>186</ele>
        <time>2019-04-04T07:12:59Z</time>
      </trkpt>
      <trkpt lat="47.52275" lon="3.60303">
        <ele>185</ele>
        <time>2019-04-04T07:13:02Z</time>
      </trkpt>
      <trkpt lat="47.52277" lon="3.60312">
        <ele>186</ele>
        <time>2019-04-04T07:13:06Z</time>
      </trkpt>
      <trkpt lat="47.52277" lon="3.60315">
        <ele>187</ele>
        <time>2019-04-04T07:13:08Z</time>
      </trkpt>
      <trkpt lat="47.52279" lon="3.60322">
        <ele>187</ele>
        <time>2019-04-04T07:13:12Z</time>
      </trkpt>
      <trkpt lat="47.52281" lon="3.6033">
        <ele>189</ele>
        <time>2019-04-04T07:13:16Z</time>
      </trkpt>
      <trkpt lat="47.52283" lon="3.60338">
        <ele>189</ele>
        <time>2019-04-04T07:13:20Z</time>
      </trkpt>
      <trkpt lat="47.52284" lon="3.60342">
        <ele>189</ele>
        <time>2019-04-04T07:13:23Z</time>
      </trkpt>
      <trkpt lat="47.52287" lon="3.60349">
        <ele>190</ele>
        <time>2019-04-04T07:13:27Z</time>
      </trkpt>
      <trkpt lat="47.52289" lon="3.60356">
        <ele>191</ele>
        <time>2019-04-04T07:13:31Z</time>
      </trkpt>
      <trkpt lat="47.5229" lon="3.60363">
        <ele>190</ele>
        <time>2019-04-04T07:13:35Z</time>
      </trkpt>
      <trkpt lat="47.52293" lon="3.60369">
        <ele>190</ele>
        <time>2019-04-04T07:13:39Z</time>
      </trkpt>
      <trkpt lat="47.52294" lon="3.60373">
        <ele>190</ele>
        <time>2019-04-04T07:13:41Z</time>
      </trkpt>
      <trkpt lat="47.52297" lon="3.60377">
        <ele>189</ele>
        <time>2019-04-04T07:13:44Z</time>
      </trkpt>
      <trkpt lat="47.523" lon="3.60384">
        <ele>189</ele>
        <time>2019-04-04T07:13:48Z</time>
      </trkpt>
      <trkpt lat="47.52303" lon="3.6039">
        <ele>190</ele>
        <time>2019-04-04T07:13:51Z</time>
      </trkpt>
      <trkpt lat="47.52304" lon="3.60395">
        <ele>189</ele>
        <time>2019-04-04T07:13:53Z</time>
      </trkpt>
      <trkpt lat="47.52306" lon="3.60398">
        <ele>189</ele>
        <time>2019-04-04T07:13:55Z</time>
      </trkpt>
      <trkpt lat="47.52309" lon="3.60404">
        <ele>191</ele>
        <time>2019-04-04T07:13:59Z</time>
      </trkpt>
      <trkpt lat="47.5231" lon="3.60408">
        <ele>190</ele>
        <time>2019-04-04T07:14:01Z</time>
      </trkpt>
      <trkpt lat="47.52314" lon="3.60412">
        <ele>190</ele>
        <time>2019-04-04T07:14:05Z</time>
      </trkpt>
      <trkpt lat="47.52317" lon="3.60421">
        <ele>189</ele>
        <time>2019-04-04T07:14:10Z</time>
      </trkpt>
      <trkpt lat="47.5232" lon="3.60425">
        <ele>189</ele>
        <time>2019-04-04T07:14:13Z</time>
      </trkpt>
      <trkpt lat="47.52323" lon="3.60431">
        <ele>190</ele>
        <time>2019-04-04T07:14:16Z</time>
      </trkpt>
      <trkpt lat="47.52326" lon="3.60437">
        <ele>190</ele>
        <time>2019-04-04T07:14:21Z</time>
      </trkpt>
      <trkpt lat="47.5233" lon="3.60442">
        <ele>191</ele>
        <time>2019-04-04T07:14:26Z</time>
      </trkpt>
      <trkpt lat="47.52333" lon="3.60447">
        <ele>192</ele>
        <time>2019-04-04T07:14:30Z</time>
      </trkpt>
      <trkpt lat="47.52336" lon="3.6045">
        <ele>192</ele>
        <time>2019-04-04T07:14:33Z</time>
      </trkpt>
      <trkpt lat="47.5234" lon="3.60453">
        <ele>192</ele>
        <time>2019-04-04T07:14:37Z</time>
      </trkpt>
      <trkpt lat="47.52344" lon="3.60456">
        <ele>193</ele>
        <time>2019-04-04T07:14:41Z</time>
      </trkpt>
      <trkpt lat="47.52348" lon="3.60462">
        <ele>193</ele>
        <time>2019-04-04T07:14:45Z</time>
      </trkpt>
      <trkpt lat="47.52353" lon="3.60467">
        <ele>192</ele>
        <time>2019-04-04T07:14:48Z</time>
      </trkpt>
      <trkpt lat="47.52356" lon="3.6047">
        <ele>191</ele>
        <time>2019-04-04T07:14:51Z</time>
      </trkpt>
      <trkpt lat="47.5236" lon="3.60475">
        <ele>191</ele>
        <time>2019-04-04T07:14:55Z</time>
      </trkpt>
      <trkpt lat="47.52365" lon="3.60478">
        <ele>190</ele>
        <time>2019-04-04T07:15:01Z</time>
      </trkpt>
      <trkpt lat="47.52351" lon="3.60483">
        <ele>192</ele>
        <time>2019-04-04T07:15:32Z</time>
      </trkpt>
      <trkpt lat="47.52347" lon="3.6048">
        <ele>192</ele>
        <time>2019-04-04T07:15:37Z</time>
      </trkpt>
      <trkpt lat="47.52342" lon="3.60478">
        <ele>191</ele>
        <time>2019-04-04T07:15:40Z</time>
      </trkpt>
      <trkpt lat="47.52336" lon="3.60474">
        <ele>191</ele>
        <time>2019-04-04T07:15:45Z</time>
      </trkpt>
      <trkpt lat="47.52331" lon="3.60471">
        <ele>194</ele>
        <time>2019-04-04T07:15:50Z</time>
      </trkpt>
      <trkpt lat="47.52327" lon="3.60466">
        <ele>195</ele>
        <time>2019-04-04T07:15:55Z</time>
      </trkpt>
      <trkpt lat="47.52323" lon="3.60463">
        <ele>194</ele>
        <time>2019-04-04T07:15:58Z</time>
      </trkpt>
      <trkpt lat="47.52321" lon="3.60462">
        <ele>195</ele>
        <time>2019-04-04T07:16:01Z</time>
      </trkpt>
      <trkpt lat="47.52317" lon="3.60459">
        <ele>195</ele>
        <time>2019-04-04T07:16:04Z</time>
      </trkpt>
      <trkpt lat="47.52313" lon="3.60457">
        <ele>195</ele>
        <time>2019-04-04T07:16:08Z</time>
      </trkpt>
      <trkpt lat="47.52309" lon="3.60452">
        <ele>196</ele>
        <time>2019-04-04T07:16:13Z</time>
      </trkpt>
      <trkpt lat="47.52304" lon="3.60449">
        <ele>196</ele>
        <time>2019-04-04T07:16:19Z</time>
      </trkpt>
      <trkpt lat="47.52299" lon="3.60447">
        <ele>197</ele>
        <time>2019-04-04T07:16:22Z</time>
      </trkpt>
      <trkpt lat="47.52295" lon="3.60443">
        <ele>196</ele>
        <time>2019-04-04T07:16:26Z</time>
      </trkpt>
      <trkpt lat="47.52293" lon="3.60442">
        <ele>196</ele>
        <time>2019-04-04T07:16:28Z</time>
      </trkpt>
      <trkpt lat="47.52289" lon="3.60438">
        <ele>196</ele>
        <time>2019-04-04T07:16:32Z</time>
      </trkpt>
      <trkpt lat="47.52283" lon="3.60436">
        <ele>197</ele>
        <time>2019-04-04T07:16:36Z</time>
      </trkpt>
      <trkpt lat="47.52278" lon="3.60433">
        <ele>196</ele>
        <time>2019-04-04T07:16:40Z</time>
      </trkpt>
      <trkpt lat="47.52271" lon="3.60432">
        <ele>197</ele>
        <time>2019-04-04T07:16:44Z</time>
      </trkpt>
      <trkpt lat="47.52266" lon="3.6043">
        <ele>196</ele>
        <time>2019-04-04T07:16:48Z</time>
      </trkpt>
      <trkpt lat="47.52263" lon="3.6043">
        <ele>195</ele>
        <time>2019-04-04T07:16:51Z</time>
      </trkpt>
      <trkpt lat="47.52257" lon="3.60427">
        <ele>196</ele>
        <time>2019-04-04T07:16:57Z</time>
      </trkpt>
      <trkpt lat="47.52253" lon="3.60426">
        <ele>195</ele>
        <time>2019-04-04T07:16:59Z</time>
      </trkpt>
      <trkpt lat="47.52247" lon="3.60423">
        <ele>195</ele>
        <time>2019-04-04T07:17:04Z</time>
      </trkpt>
      <trkpt lat="47.52242" lon="3.6042">
        <ele>193</ele>
        <time>2019-04-04T07:17:08Z</time>
      </trkpt>
      <trkpt lat="47.52237" lon="3.6042">
        <ele>194</ele>
        <time>2019-04-04T07:17:13Z</time>
      </trkpt>
      <trkpt lat="47.52232" lon="3.60418">
        <ele>193</ele>
        <time>2019-04-04T07:17:17Z</time>
      </trkpt>
      <trkpt lat="47.52229" lon="3.60417">
        <ele>194</ele>
        <time>2019-04-04T07:17:20Z</time>
      </trkpt>
      <trkpt lat="47.52224" lon="3.60417">
        <ele>194</ele>
        <time>2019-04-04T07:17:25Z</time>
      </trkpt>
      <trkpt lat="47.52219" lon="3.60415">
        <ele>194</ele>
        <time>2019-04-04T07:17:28Z</time>
      </trkpt>
      <trkpt lat="47.52214" lon="3.60416">
        <ele>194</ele>
        <time>2019-04-04T07:17:32Z</time>
      </trkpt>
      <trkpt lat="47.5221" lon="3.60417">
        <ele>195</ele>
        <time>2019-04-04T07:17:35Z</time>
      </trkpt>
      <trkpt lat="47.52204" lon="3.60416">
        <ele>194</ele>
        <time>2019-04-04T07:17:39Z</time>
      </trkpt>
      <trkpt lat="47.52201" lon="3.60414">
        <ele>194</ele>
        <time>2019-04-04T07:17:41Z</time>
      </trkpt>
      <trkpt lat="47.52194" lon="3.60415">
        <ele>192</ele>
        <time>2019-04-04T07:17:46Z</time>
      </trkpt>
      <trkpt lat="47.52189" lon="3.60414">
        <ele>192</ele>
        <time>2019-04-04T07:17:49Z</time>
      </trkpt>
      <trkpt lat="47.52183" lon="3.60413">
        <ele>191</ele>
        <time>2019-04-04T07:17:52Z</time>
      </trkpt>
      <trkpt lat="47.52177" lon="3.60416">
        <ele>192</ele>
        <time>2019-04-04T07:17:59Z</time>
      </trkpt>
      <trkpt lat="47.52172" lon="3.60418">
        <ele>191</ele>
        <time>2019-04-04T07:18:03Z</time>
      </trkpt>
      <trkpt lat="47.52167" lon="3.60415">
        <ele>191</ele>
        <time>2019-04-04T07:18:06Z</time>
      </trkpt>
      <trkpt lat="47.52162" lon="3.60416">
        <ele>190</ele>
        <time>2019-04-04T07:18:10Z</time>
      </trkpt>
      <trkpt lat="47.5216" lon="3.60422">
        <ele>192</ele>
        <time>2019-04-04T07:18:18Z</time>
      </trkpt>
      <trkpt lat="47.52163" lon="3.60428">
        <ele>192</ele>
        <time>2019-04-04T07:18:22Z</time>
      </trkpt>
      <trkpt lat="47.52166" lon="3.60433">
        <ele>193</ele>
        <time>2019-04-04T07:18:26Z</time>
      </trkpt>
      <trkpt lat="47.52169" lon="3.60436">
        <ele>194</ele>
        <time>2019-04-04T07:18:29Z</time>
      </trkpt>
      <trkpt lat="47.52174" lon="3.60441">
        <ele>196</ele>
        <time>2019-04-04T07:18:33Z</time>
      </trkpt>
      <trkpt lat="47.52179" lon="3.60447">
        <ele>198</ele>
        <time>2019-04-04T07:18:39Z</time>
      </trkpt>
      <trkpt lat="47.52184" lon="3.60451">
        <ele>200</ele>
        <time>2019-04-04T07:18:44Z</time>
      </trkpt>
      <trkpt lat="47.52189" lon="3.60453">
        <ele>202</ele>
        <time>2019-04-04T07:18:48Z</time>
      </trkpt>
      <trkpt lat="47.52194" lon="3.60457">
        <ele>203</ele>
        <time>2019-04-04T07:18:52Z</time>
      </trkpt>
      <trkpt lat="47.52196" lon="3.60459">
        <ele>204</ele>
        <time>2019-04-04T07:18:54Z</time>
      </trkpt>
      <trkpt lat="47.52198" lon="3.6046">
        <ele>205</ele>
        <time>2019-04-04T07:18:56Z</time>
      </trkpt>
      <trkpt lat="47.52204" lon="3.60462">
        <ele>207</ele>
        <time>2019-04-04T07:19:01Z</time>
      </trkpt>
      <trkpt lat="47.52208" lon="3.60466">
        <ele>209</ele>
        <time>2019-04-04T07:19:05Z</time>
      </trkpt>
      <trkpt lat="47.52214" lon="3.60469">
        <ele>211</ele>
        <time>2019-04-04T07:19:09Z</time>
      </trkpt>
      <trkpt lat="47.5222" lon="3.60473">
        <ele>212</ele>
        <time>2019-04-04T07:19:13Z</time>
      </trkpt>
      <trkpt lat="47.52224" lon="3.60476">
        <ele>212</ele>
        <time>2019-04-04T07:19:17Z</time>
      </trkpt>
      <trkpt lat="47.52226" lon="3.60478">
        <ele>212</ele>
        <time>2019-04-04T07:19:19Z</time>
      </trkpt>
      <trkpt lat="47.52231" lon="3.60483">
        <ele>212</ele>
        <time>2019-04-04T07:19:22Z</time>
      </trkpt>
      <trkpt lat="47.52239" lon="3.60488">
        <ele>211</ele>
        <time>2019-04-04T07:19:29Z</time>
      </trkpt>
      <trkpt lat="47.52242" lon="3.60491">
        <ele>211</ele>
        <time>2019-04-04T07:19:31Z</time>
      </trkpt>
      <trkpt lat="47.52245" lon="3.60493">
        <ele>212</ele>
        <time>2019-04-04T07:19:34Z</time>
      </trkpt>
      <trkpt lat="47.52247" lon="3.60495">
        <ele>212</ele>
        <time>2019-04-04T07:19:36Z</time>
      </trkpt>
      <trkpt lat="47.5225" lon="3.60498">
        <ele>212</ele>
        <time>2019-04-04T07:19:38Z</time>
      </trkpt>
      <trkpt lat="47.52254" lon="3.605">
        <ele>213</ele>
        <time>2019-04-04T07:19:41Z</time>
      </trkpt>
      <trkpt lat="47.52259" lon="3.60505">
        <ele>214</ele>
        <time>2019-04-04T07:19:45Z</time>
      </trkpt>
      <trkpt lat="47.52262" lon="3.60507">
        <ele>215</ele>
        <time>2019-04-04T07:19:48Z</time>
      </trkpt>
      <trkpt lat="47.52266" lon="3.60512">
        <ele>216</ele>
        <time>2019-04-04T07:19:53Z</time>
      </trkpt>
      <trkpt lat="47.52272" lon="3.60516">
        <ele>216</ele>
        <time>2019-04-04T07:19:59Z</time>
      </trkpt>
      <trkpt lat="47.52276" lon="3.60521">
        <ele>217</ele>
        <time>2019-04-04T07:20:03Z</time>
      </trkpt>
      <trkpt lat="47.52282" lon="3.60525">
        <ele>218</ele>
        <time>2019-04-04T07:20:07Z</time>
      </trkpt>
      <trkpt lat="47.52284" lon="3.60527">
        <ele>218</ele>
        <time>2019-04-04T07:20:09Z</time>
      </trkpt>
      <trkpt lat="47.52286" lon="3.6053">
        <ele>217</ele>
        <time>2019-04-04T07:20:11Z</time>
      </trkpt>
      <trkpt lat="47.52294" lon="3.60534">
        <ele>215</ele>
        <time>2019-04-04T07:20:17Z</time>
      </trkpt>
      <trkpt lat="47.52298" lon="3.60538">
        <ele>215</ele>
        <time>2019-04-04T07:20:21Z</time>
      </trkpt>
      <trkpt lat="47.52303" lon="3.60543">
        <ele>213</ele>
        <time>2019-04-04T07:20:26Z</time>
      </trkpt>
      <trkpt lat="47.52308" lon="3.60548">
        <ele>214</ele>
        <time>2019-04-04T07:20:30Z</time>
      </trkpt>
      <trkpt lat="47.52312" lon="3.60552">
        <ele>214</ele>
        <time>2019-04-04T07:20:34Z</time>
      </trkpt>
      <trkpt lat="47.52316" lon="3.60559">
        <ele>214</ele>
        <time>2019-04-04T07:20:40Z</time>
      </trkpt>
      <trkpt lat="47.52319" lon="3.60564">
        <ele>214</ele>
        <time>2019-04-04T07:20:44Z</time>
      </trkpt>
      <trkpt lat="47.52324" lon="3.6057">
        <ele>213</ele>
        <time>2019-04-04T07:20:48Z</time>
      </trkpt>
      <trkpt lat="47.52327" lon="3.60576">
        <ele>213</ele>
        <time>2019-04-04T07:20:52Z</time>
      </trkpt>
      <trkpt lat="47.5233" lon="3.60581">
        <ele>213</ele>
        <time>2019-04-04T07:20:54Z</time>
      </trkpt>
      <trkpt lat="47.52333" lon="3.60585">
        <ele>213</ele>
        <time>2019-04-04T07:20:57Z</time>
      </trkpt>
      <trkpt lat="47.52337" lon="3.60591">
        <ele>212</ele>
        <time>2019-04-04T07:21:01Z</time>
      </trkpt>
      <trkpt lat="47.52339" lon="3.60596">
        <ele>212</ele>
        <time>2019-04-04T07:21:04Z</time>
      </trkpt>
      <trkpt lat="47.52341" lon="3.60601">
        <ele>211</ele>
        <time>2019-04-04T07:21:07Z</time>
      </trkpt>
      <trkpt lat="47.52343" lon="3.60607">
        <ele>211</ele>
        <time>2019-04-04T07:21:11Z</time>
      </trkpt>
      <trkpt lat="47.52347" lon="3.60613">
        <ele>210</ele>
        <time>2019-04-04T07:21:15Z</time>
      </trkpt>
      <trkpt lat="47.52349" lon="3.6062">
        <ele>210</ele>
        <time>2019-04-04T07:21:19Z</time>
      </trkpt>
      <trkpt lat="47.52351" lon="3.60626">
        <ele>211</ele>
        <time>2019-04-04T07:21:23Z</time>
      </trkpt>
      <trkpt lat="47.52353" lon="3.60629">
        <ele>211</ele>
        <time>2019-04-04T07:21:25Z</time>
      </trkpt>
      <trkpt lat="47.52356" lon="3.60637">
        <ele>210</ele>
        <time>2019-04-04T07:21:30Z</time>
      </trkpt>
      <trkpt lat="47.52357" lon="3.60641">
        <ele>211</ele>
        <time>2019-04-04T07:21:32Z</time>
      </trkpt>
      <trkpt lat="47.52358" lon="3.60645">
        <ele>211</ele>
        <time>2019-04-04T07:21:34Z</time>
      </trkpt>
      <trkpt lat="47.52359" lon="3.60648">
        <ele>211</ele>
        <time>2019-04-04T07:21:36Z</time>
      </trkpt>
      <trkpt lat="47.5236" lon="3.60656">
        <ele>211</ele>
        <time>2019-04-04T07:21:41Z</time>
      </trkpt>
      <trkpt lat="47.52364" lon="3.60663">
        <ele>212</ele>
        <time>2019-04-04T07:21:46Z</time>
      </trkpt>
      <trkpt lat="47.52368" lon="3.60672">
        <ele>213</ele>
        <time>2019-04-04T07:21:51Z</time>
      </trkpt>
      <trkpt lat="47.5237" lon="3.60681">
        <ele>212</ele>
        <time>2019-04-04T07:21:56Z</time>
      </trkpt>
      <trkpt lat="47.52372" lon="3.60687">
        <ele>213</ele>
        <time>2019-04-04T07:21:59Z</time>
      </trkpt>
      <trkpt lat="47.52373" lon="3.60694">
        <ele>214</ele>
        <time>2019-04-04T07:22:03Z</time>
      </trkpt>
      <trkpt lat="47.52376" lon="3.60701">
        <ele>215</ele>
        <time>2019-04-04T07:22:08Z</time>
      </trkpt>
      <trkpt lat="47.52377" lon="3.60705">
        <ele>215</ele>
        <time>2019-04-04T07:22:11Z</time>
      </trkpt>
      <trkpt lat="47.5238" lon="3.60714">
        <ele>218</ele>
        <time>2019-04-04T07:22:16Z</time>
      </trkpt>
      <trkpt lat="47.52381" lon="3.60722">
        <ele>217</ele>
        <time>2019-04-04T07:22:20Z</time>
      </trkpt>
      <trkpt lat="47.52382" lon="3.60729">
        <ele>219</ele>
        <time>2019-04-04T07:22:24Z</time>
      </trkpt>
      <trkpt lat="47.52383" lon="3.60733">
        <ele>219</ele>
        <time>2019-04-04T07:22:26Z</time>
      </trkpt>
      <trkpt lat="47.52386" lon="3.6074">
        <ele>219</ele>
        <time>2019-04-04T07:22:30Z</time>
      </trkpt>
      <trkpt lat="47.52387" lon="3.60744">
        <ele>221</ele>
        <time>2019-04-04T07:22:33Z</time>
      </trkpt>
      <trkpt lat="47.5239" lon="3.60752">
        <ele>222</ele>
        <time>2019-04-04T07:22:37Z</time>
      </trkpt>
      <trkpt lat="47.52392" lon="3.6076">
        <ele>223</ele>
        <time>2019-04-04T07:22:41Z</time>
      </trkpt>
      <trkpt lat="47.52394" lon="3.60767">
        <ele>224</ele>
        <time>2019-04-04T07:22:44Z</time>
      </trkpt>
      <trkpt lat="47.52394" lon="3.60775">
        <ele>224</ele>
        <time>2019-04-04T07:22:48Z</time>
      </trkpt>
      <trkpt lat="47.52396" lon="3.60781">
        <ele>225</ele>
        <time>2019-04-04T07:22:52Z</time>
      </trkpt>
      <trkpt lat="47.524" lon="3.60793">
        <ele>226</ele>
        <time>2019-04-04T07:22:58Z</time>
      </trkpt>
      <trkpt lat="47.52402" lon="3.608">
        <ele>228</ele>
        <time>2019-04-04T07:23:02Z</time>
      </trkpt>
      <trkpt lat="47.52404" lon="3.60808">
        <ele>229</ele>
        <time>2019-04-04T07:23:08Z</time>
      </trkpt>
      <trkpt lat="47.52405" lon="3.60815">
        <ele>228</ele>
        <time>2019-04-04T07:23:12Z</time>
      </trkpt>
      <trkpt lat="47.52405" lon="3.60823">
        <ele>229</ele>
        <time>2019-04-04T07:23:17Z</time>
      </trkpt>
      <trkpt lat="47.52405" lon="3.6083">
        <ele>230</ele>
        <time>2019-04-04T07:23:21Z</time>
      </trkpt>
      <trkpt lat="47.52407" lon="3.60837">
        <ele>229</ele>
        <time>2019-04-04T07:23:25Z</time>
      </trkpt>
      <trkpt lat="47.52408" lon="3.60842">
        <ele>229</ele>
        <time>2019-04-04T07:23:28Z</time>
      </trkpt>
      <trkpt lat="47.52409" lon="3.60846">
        <ele>229</ele>
        <time>2019-04-04T07:23:30Z</time>
      </trkpt>
      <trkpt lat="47.5241" lon="3.60854">
        <ele>229</ele>
        <time>2019-04-04T07:23:33Z</time>
      </trkpt>
      <trkpt lat="47.52411" lon="3.6086">
        <ele>229</ele>
        <time>2019-04-04T07:23:37Z</time>
      </trkpt>
      <trkpt lat="47.52412" lon="3.60867">
        <ele>230</ele>
        <time>2019-04-04T07:23:39Z</time>
      </trkpt>
      <trkpt lat="47.52413" lon="3.60871">
        <ele>230</ele>
        <time>2019-04-04T07:23:41Z</time>
      </trkpt>
      <trkpt lat="47.52413" lon="3.60875">
        <ele>230</ele>
        <time>2019-04-04T07:23:43Z</time>
      </trkpt>
      <trkpt lat="47.52414" lon="3.60879">
        <ele>229</ele>
        <time>2019-04-04T07:23:45Z</time>
      </trkpt>
      <trkpt lat="47.52415" lon="3.60883">
        <ele>230</ele>
        <time>2019-04-04T07:23:47Z</time>
      </trkpt>
      <trkpt lat="47.52416" lon="3.60891">
        <ele>231</ele>
        <time>2019-04-04T07:23:51Z</time>
      </trkpt>
      <trkpt lat="47.52418" lon="3.60897">
        <ele>231</ele>
        <time>2019-04-04T07:23:55Z</time>
      </trkpt>
      <trkpt lat="47.52418" lon="3.60905">
        <ele>232</ele>
        <time>2019-04-04T07:24:00Z</time>
      </trkpt>
      <trkpt lat="47.52419" lon="3.60909">
        <ele>232</ele>
        <time>2019-04-04T07:24:02Z</time>
      </trkpt>
      <trkpt lat="47.52419" lon="3.60913">
        <ele>232</ele>
        <time>2019-04-04T07:24:04Z</time>
      </trkpt>
      <trkpt lat="47.5242" lon="3.60917">
        <ele>233</ele>
        <time>2019-04-04T07:24:06Z</time>
      </trkpt>
      <trkpt lat="47.52421" lon="3.60921">
        <ele>233</ele>
        <time>2019-04-04T07:24:08Z</time>
      </trkpt>
      <trkpt lat="47.52421" lon="3.6093">
        <ele>233</ele>
        <time>2019-04-04T07:24:13Z</time>
      </trkpt>
      <trkpt lat="47.52423" lon="3.60936">
        <ele>233</ele>
        <time>2019-04-04T07:24:17Z</time>
      </trkpt>
      <trkpt lat="47.52424" lon="3.60944">
        <ele>233</ele>
        <time>2019-04-04T07:24:21Z</time>
      </trkpt>
      <trkpt lat="47.52424" lon="3.60949">
        <ele>232</ele>
        <time>2019-04-04T07:24:26Z</time>
      </trkpt>
      <trkpt lat="47.52425" lon="3.60955">
        <ele>232</ele>
        <time>2019-04-04T07:24:30Z</time>
      </trkpt>
      <trkpt lat="47.52425" lon="3.6096">
        <ele>232</ele>
        <time>2019-04-04T07:24:33Z</time>
      </trkpt>
      <trkpt lat="47.52426" lon="3.60965">
        <ele>233</ele>
        <time>2019-04-04T07:24:36Z</time>
      </trkpt>
      <trkpt lat="47.52426" lon="3.60969">
        <ele>233</ele>
        <time>2019-04-04T07:24:38Z</time>
      </trkpt>
      <trkpt lat="47.52427" lon="3.60972">
        <ele>233</ele>
        <time>2019-04-04T07:24:40Z</time>
      </trkpt>
      <trkpt lat="47.52428" lon="3.60981">
        <ele>233</ele>
        <time>2019-04-04T07:24:45Z</time>
      </trkpt>
      <trkpt lat="47.52429" lon="3.60989">
        <ele>233</ele>
        <time>2019-04-04T07:24:49Z</time>
      </trkpt>
      <trkpt lat="47.52429" lon="3.60997">
        <ele>232</ele>
        <time>2019-04-04T07:24:53Z</time>
      </trkpt>
      <trkpt lat="47.52429" lon="3.61">
        <ele>232</ele>
        <time>2019-04-04T07:24:55Z</time>
      </trkpt>
      <trkpt lat="47.5243" lon="3.61008">
        <ele>233</ele>
        <time>2019-04-04T07:24:59Z</time>
      </trkpt>
      <trkpt lat="47.5243" lon="3.61016">
        <ele>232</ele>
        <time>2019-04-04T07:25:03Z</time>
      </trkpt>
      <trkpt lat="47.5243" lon="3.6102">
        <ele>231</ele>
        <time>2019-04-04T07:25:05Z</time>
      </trkpt>
      <trkpt lat="47.52432" lon="3.61028">
        <ele>230</ele>
        <time>2019-04-04T07:25:10Z</time>
      </trkpt>
      <trkpt lat="47.52433" lon="3.61036">
        <ele>230</ele>
        <time>2019-04-04T07:25:14Z</time>
      </trkpt>
      <trkpt lat="47.52434" lon="3.61043">
        <ele>231</ele>
        <time>2019-04-04T07:25:18Z</time>
      </trkpt>
      <trkpt lat="47.52433" lon="3.6105">
        <ele>230</ele>
        <time>2019-04-04T07:25:22Z</time>
      </trkpt>
      <trkpt lat="47.52433" lon="3.61057">
        <ele>229</ele>
        <time>2019-04-04T07:25:25Z</time>
      </trkpt>
      <trkpt lat="47.52434" lon="3.61064">
        <ele>229</ele>
        <time>2019-04-04T07:25:29Z</time>
      </trkpt>
      <trkpt lat="47.52435" lon="3.61073">
        <ele>229</ele>
        <time>2019-04-04T07:25:34Z</time>
      </trkpt>
      <trkpt lat="47.52436" lon="3.61077">
        <ele>228</ele>
        <time>2019-04-04T07:25:36Z</time>
      </trkpt>
      <trkpt lat="47.52437" lon="3.61082">
        <ele>228</ele>
        <time>2019-04-04T07:25:39Z</time>
      </trkpt>
      <trkpt lat="47.52438" lon="3.61092">
        <ele>229</ele>
        <time>2019-04-04T07:25:44Z</time>
      </trkpt>
      <trkpt lat="47.52439" lon="3.61096">
        <ele>229</ele>
        <time>2019-04-04T07:25:46Z</time>
      </trkpt>
      <trkpt lat="47.5244" lon="3.61101">
        <ele>229</ele>
        <time>2019-04-04T07:25:49Z</time>
      </trkpt>
      <trkpt lat="47.5244" lon="3.61105">
        <ele>229</ele>
        <time>2019-04-04T07:25:51Z</time>
      </trkpt>
      <trkpt lat="47.52441" lon="3.61113">
        <ele>229</ele>
        <time>2019-04-04T07:25:55Z</time>
      </trkpt>
      <trkpt lat="47.52441" lon="3.61117">
        <ele>229</ele>
        <time>2019-04-04T07:25:57Z</time>
      </trkpt>
      <trkpt lat="47.52441" lon="3.61121">
        <ele>229</ele>
        <time>2019-04-04T07:25:59Z</time>
      </trkpt>
      <trkpt lat="47.52443" lon="3.61129">
        <ele>229</ele>
        <time>2019-04-04T07:26:03Z</time>
      </trkpt>
      <trkpt lat="47.52443" lon="3.61133">
        <ele>229</ele>
        <time>2019-04-04T07:26:05Z</time>
      </trkpt>
      <trkpt lat="47.52445" lon="3.6114">
        <ele>230</ele>
        <time>2019-04-04T07:26:09Z</time>
      </trkpt>
      <trkpt lat="47.52446" lon="3.61147">
        <ele>229</ele>
        <time>2019-04-04T07:26:13Z</time>
      </trkpt>
      <trkpt lat="47.52446" lon="3.61151">
        <ele>230</ele>
        <time>2019-04-04T07:26:15Z</time>
      </trkpt>
      <trkpt lat="47.52447" lon="3.61158">
        <ele>230</ele>
        <time>2019-04-04T07:26:18Z</time>
      </trkpt>
      <trkpt lat="47.52447" lon="3.61161">
        <ele>230</ele>
        <time>2019-04-04T07:26:20Z</time>
      </trkpt>
      <trkpt lat="47.52448" lon="3.61166">
        <ele>230</ele>
        <time>2019-04-04T07:26:22Z</time>
      </trkpt>
      <trkpt lat="47.52449" lon="3.61169">
        <ele>230</ele>
        <time>2019-04-04T07:26:24Z</time>
      </trkpt>
      <trkpt lat="47.52449" lon="3.61173">
        <ele>230</ele>
        <time>2019-04-04T07:26:26Z</time>
      </trkpt>
      <trkpt lat="47.52449" lon="3.61177">
        <ele>230</ele>
        <time>2019-04-04T07:26:29Z</time>
      </trkpt>
      <trkpt lat="47.5245" lon="3.61185">
        <ele>229</ele>
        <time>2019-04-04T07:26:33Z</time>
      </trkpt>
      <trkpt lat="47.52451" lon="3.61189">
        <ele>230</ele>
        <time>2019-04-04T07:26:35Z</time>
      </trkpt>
      <trkpt lat="47.52453" lon="3.61197">
        <ele>230</ele>
        <time>2019-04-04T07:26:39Z</time>
      </trkpt>
      <trkpt lat="47.52454" lon="3.61201">
        <ele>230</ele>
        <time>2019-04-04T07:26:41Z</time>
      </trkpt>
      <trkpt lat="47.52455" lon="3.61208">
        <ele>231</ele>
        <time>2019-04-04T07:26:45Z</time>
      </trkpt>
      <trkpt lat="47.52456" lon="3.61212">
        <ele>231</ele>
        <time>2019-04-04T07:26:47Z</time>
      </trkpt>
      <trkpt lat="47.52456" lon="3.61216">
        <ele>231</ele>
        <time>2019-04-04T07:26:50Z</time>
      </trkpt>
      <trkpt lat="47.52458" lon="3.61224">
        <ele>232</ele>
        <time>2019-04-04T07:26:55Z</time>
      </trkpt>
      <trkpt lat="47.52459" lon="3.61232">
        <ele>232</ele>
        <time>2019-04-04T07:26:59Z</time>
      </trkpt>
      <trkpt lat="47.52459" lon="3.61241">
        <ele>232</ele>
        <time>2019-04-04T07:27:03Z</time>
      </trkpt>
      <trkpt lat="47.5246" lon="3.61247">
        <ele>232</ele>
        <time>2019-04-04T07:27:06Z</time>
      </trkpt>
      <trkpt lat="47.5246" lon="3.61253">
        <ele>232</ele>
        <time>2019-04-04T07:27:09Z</time>
      </trkpt>
      <trkpt lat="47.52462" lon="3.6126">
        <ele>233</ele>
        <time>2019-04-04T07:27:13Z</time>
      </trkpt>
      <trkpt lat="47.52462" lon="3.61267">
        <ele>233</ele>
        <time>2019-04-04T07:27:17Z</time>
      </trkpt>
      <trkpt lat="47.52463" lon="3.61274">
        <ele>234</ele>
        <time>2019-04-04T07:27:21Z</time>
      </trkpt>
      <trkpt lat="47.52464" lon="3.61282">
        <ele>233</ele>
        <time>2019-04-04T07:27:25Z</time>
      </trkpt>
      <trkpt lat="47.52464" lon="3.61286">
        <ele>233</ele>
        <time>2019-04-04T07:27:27Z</time>
      </trkpt>
      <trkpt lat="47.52465" lon="3.6129">
        <ele>233</ele>
        <time>2019-04-04T07:27:29Z</time>
      </trkpt>
      <trkpt lat="47.52466" lon="3.61295">
        <ele>233</ele>
        <time>2019-04-04T07:27:31Z</time>
      </trkpt>
      <trkpt lat="47.52467" lon="3.61301">
        <ele>233</ele>
        <time>2019-04-04T07:27:35Z</time>
      </trkpt>
      <trkpt lat="47.52467" lon="3.61309">
        <ele>234</ele>
        <time>2019-04-04T07:27:40Z</time>
      </trkpt>
      <trkpt lat="47.52469" lon="3.61318">
        <ele>233</ele>
        <time>2019-04-04T07:27:44Z</time>
      </trkpt>
      <trkpt lat="47.5247" lon="3.61323">
        <ele>234</ele>
        <time>2019-04-04T07:27:47Z</time>
      </trkpt>
      <trkpt lat="47.5247" lon="3.61327">
        <ele>234</ele>
        <time>2019-04-04T07:27:49Z</time>
      </trkpt>
      <trkpt lat="47.52471" lon="3.61331">
        <ele>234</ele>
        <time>2019-04-04T07:27:51Z</time>
      </trkpt>
      <trkpt lat="47.52472" lon="3.61334">
        <ele>234</ele>
        <time>2019-04-04T07:27:53Z</time>
      </trkpt>
      <trkpt lat="47.52473" lon="3.61339">
        <ele>235</ele>
        <time>2019-04-04T07:27:56Z</time>
      </trkpt>
      <trkpt lat="47.52473" lon="3.61342">
        <ele>234</ele>
        <time>2019-04-04T07:27:58Z</time>
      </trkpt>
      <trkpt lat="47.52473" lon="3.61346">
        <ele>234</ele>
        <time>2019-04-04T07:28:00Z</time>
      </trkpt>
      <trkpt lat="47.52475" lon="3.61354">
        <ele>234</ele>
        <time>2019-04-04T07:28:04Z</time>
      </trkpt>
      <trkpt lat="47.52474" lon="3.61361">
        <ele>234</ele>
        <time>2019-04-04T07:28:08Z</time>
      </trkpt>
      <trkpt lat="47.52475" lon="3.61368">
        <ele>234</ele>
        <time>2019-04-04T07:28:12Z</time>
      </trkpt>
      <trkpt lat="47.52475" lon="3.61372">
        <ele>234</ele>
        <time>2019-04-04T07:28:14Z</time>
      </trkpt>
      <trkpt lat="47.52477" lon="3.61379">
        <ele>234</ele>
        <time>2019-04-04T07:28:18Z</time>
      </trkpt>
      <trkpt lat="47.52478" lon="3.61388">
        <ele>235</ele>
        <time>2019-04-04T07:28:22Z</time>
      </trkpt>
      <trkpt lat="47.52478" lon="3.61391">
        <ele>234</ele>
        <time>2019-04-04T07:28:24Z</time>
      </trkpt>
      <trkpt lat="47.52479" lon="3.61396">
        <ele>235</ele>
        <time>2019-04-04T07:28:27Z</time>
      </trkpt>
      <trkpt lat="47.52479" lon="3.61405">
        <ele>235</ele>
        <time>2019-04-04T07:28:32Z</time>
      </trkpt>
      <trkpt lat="47.5248" lon="3.61412">
        <ele>235</ele>
        <time>2019-04-04T07:28:36Z</time>
      </trkpt>
      <trkpt lat="47.52481" lon="3.61416">
        <ele>235</ele>
        <time>2019-04-04T07:28:38Z</time>
      </trkpt>
      <trkpt lat="47.52482" lon="3.6142">
        <ele>235</ele>
        <time>2019-04-04T07:28:40Z</time>
      </trkpt>
      <trkpt lat="47.52482" lon="3.61423">
        <ele>235</ele>
        <time>2019-04-04T07:28:42Z</time>
      </trkpt>
      <trkpt lat="47.52483" lon="3.61428">
        <ele>235</ele>
        <time>2019-04-04T07:28:45Z</time>
      </trkpt>
      <trkpt lat="47.52483" lon="3.61428">
        <ele>235</ele>
        <time>2019-04-04T07:28:52Z</time>
      </trkpt>
      <trkpt lat="47.52483" lon="3.61428">
        <ele>235</ele>
        <time>2019-04-04T07:28:54Z</time>
      </trkpt>
      <trkpt lat="47.52484" lon="3.61435">
        <ele>232</ele>
        <time>2019-04-04T07:31:37Z</time>
      </trkpt>
      <trkpt lat="47.52484" lon="3.61443">
        <ele>232</ele>
        <time>2019-04-04T07:31:43Z</time>
      </trkpt>
      <trkpt lat="47.52484" lon="3.61451">
        <ele>232</ele>
        <time>2019-04-04T07:31:48Z</time>
      </trkpt>
      <trkpt lat="47.52485" lon="3.61459">
        <ele>233</ele>
        <time>2019-04-04T07:31:53Z</time>
      </trkpt>
      <trkpt lat="47.52488" lon="3.61466">
        <ele>232</ele>
        <time>2019-04-04T07:31:58Z</time>
      </trkpt>
      <trkpt lat="47.52489" lon="3.61473">
        <ele>232</ele>
        <time>2019-04-04T07:32:03Z</time>
      </trkpt>
      <trkpt lat="47.52491" lon="3.61479">
        <ele>232</ele>
        <time>2019-04-04T07:32:07Z</time>
      </trkpt>
      <trkpt lat="47.52493" lon="3.61485">
        <ele>233</ele>
        <time>2019-04-04T07:32:10Z</time>
      </trkpt>
      <trkpt lat="47.52494" lon="3.61488">
        <ele>233</ele>
        <time>2019-04-04T07:32:12Z</time>
      </trkpt>
      <trkpt lat="47.52495" lon="3.61492">
        <ele>233</ele>
        <time>2019-04-04T07:32:15Z</time>
      </trkpt>
      <trkpt lat="47.52497" lon="3.61499">
        <ele>233</ele>
        <time>2019-04-04T07:32:19Z</time>
      </trkpt>
      <trkpt lat="47.52499" lon="3.61502">
        <ele>233</ele>
        <time>2019-04-04T07:32:21Z</time>
      </trkpt>
      <trkpt lat="47.525" lon="3.61507">
        <ele>233</ele>
        <time>2019-04-04T07:32:23Z</time>
      </trkpt>
      <trkpt lat="47.52502" lon="3.61515">
        <ele>234</ele>
        <time>2019-04-04T07:32:27Z</time>
      </trkpt>
      <trkpt lat="47.52504" lon="3.61522">
        <ele>233</ele>
        <time>2019-04-04T07:32:31Z</time>
      </trkpt>
      <trkpt lat="47.52504" lon="3.61527">
        <ele>233</ele>
        <time>2019-04-04T07:32:34Z</time>
      </trkpt>
      <trkpt lat="47.52507" lon="3.61533">
        <ele>232</ele>
        <time>2019-04-04T07:32:38Z</time>
      </trkpt>
      <trkpt lat="47.52508" lon="3.61541">
        <ele>233</ele>
        <time>2019-04-04T07:32:42Z</time>
      </trkpt>
      <trkpt lat="47.52509" lon="3.61544">
        <ele>233</ele>
        <time>2019-04-04T07:32:44Z</time>
      </trkpt>
      <trkpt lat="47.52511" lon="3.61551">
        <ele>233</ele>
        <time>2019-04-04T07:32:48Z</time>
      </trkpt>
      <trkpt lat="47.52513" lon="3.61557">
        <ele>233</ele>
        <time>2019-04-04T07:32:52Z</time>
      </trkpt>
      <trkpt lat="47.52514" lon="3.61563">
        <ele>233</ele>
        <time>2019-04-04T07:32:55Z</time>
      </trkpt>
      <trkpt lat="47.52517" lon="3.6157">
        <ele>234</ele>
        <time>2019-04-04T07:32:59Z</time>
      </trkpt>
      <trkpt lat="47.52518" lon="3.61573">
        <ele>234</ele>
        <time>2019-04-04T07:33:01Z</time>
      </trkpt>
      <trkpt lat="47.52519" lon="3.61579">
        <ele>235</ele>
        <time>2019-04-04T07:33:05Z</time>
      </trkpt>
      <trkpt lat="47.52522" lon="3.61586">
        <ele>235</ele>
        <time>2019-04-04T07:33:10Z</time>
      </trkpt>
      <trkpt lat="47.52524" lon="3.6159">
        <ele>235</ele>
        <time>2019-04-04T07:33:12Z</time>
      </trkpt>
      <trkpt lat="47.52525" lon="3.61593">
        <ele>235</ele>
        <time>2019-04-04T07:33:14Z</time>
      </trkpt>
      <trkpt lat="47.52526" lon="3.61597">
        <ele>236</ele>
        <time>2019-04-04T07:33:16Z</time>
      </trkpt>
      <trkpt lat="47.52528" lon="3.61604">
        <ele>235</ele>
        <time>2019-04-04T07:33:20Z</time>
      </trkpt>
      <trkpt lat="47.5253" lon="3.61611">
        <ele>235</ele>
        <time>2019-04-04T07:33:24Z</time>
      </trkpt>
      <trkpt lat="47.52533" lon="3.61621">
        <ele>235</ele>
        <time>2019-04-04T07:33:31Z</time>
      </trkpt>
      <trkpt lat="47.52536" lon="3.61627">
        <ele>236</ele>
        <time>2019-04-04T07:33:35Z</time>
      </trkpt>
      <trkpt lat="47.52537" lon="3.61632">
        <ele>236</ele>
        <time>2019-04-04T07:33:38Z</time>
      </trkpt>
      <trkpt lat="47.52539" lon="3.6164">
        <ele>237</ele>
        <time>2019-04-04T07:33:43Z</time>
      </trkpt>
      <trkpt lat="47.5254" lon="3.61644">
        <ele>237</ele>
        <time>2019-04-04T07:33:45Z</time>
      </trkpt>
      <trkpt lat="47.52544" lon="3.6165">
        <ele>237</ele>
        <time>2019-04-04T07:33:49Z</time>
      </trkpt>
      <trkpt lat="47.52545" lon="3.61657">
        <ele>237</ele>
        <time>2019-04-04T07:33:53Z</time>
      </trkpt>
      <trkpt lat="47.52548" lon="3.61664">
        <ele>237</ele>
        <time>2019-04-04T07:33:58Z</time>
      </trkpt>
      <trkpt lat="47.52549" lon="3.61671">
        <ele>237</ele>
        <time>2019-04-04T07:34:01Z</time>
      </trkpt>
      <trkpt lat="47.52552" lon="3.61677">
        <ele>238</ele>
        <time>2019-04-04T07:34:05Z</time>
      </trkpt>
      <trkpt lat="47.52554" lon="3.61684">
        <ele>238</ele>
        <time>2019-04-04T07:34:09Z</time>
      </trkpt>
      <trkpt lat="47.52556" lon="3.61691">
        <ele>238</ele>
        <time>2019-04-04T07:34:13Z</time>
      </trkpt>
      <trkpt lat="47.52559" lon="3.61697">
        <ele>238</ele>
        <time>2019-04-04T07:34:17Z</time>
      </trkpt>
      <trkpt lat="47.5256" lon="3.61701">
        <ele>238</ele>
        <time>2019-04-04T07:34:20Z</time>
      </trkpt>
      <trkpt lat="47.52563" lon="3.61706">
        <ele>238</ele>
        <time>2019-04-04T07:34:23Z</time>
      </trkpt>
      <trkpt lat="47.52565" lon="3.61714">
        <ele>238</ele>
        <time>2019-04-04T07:34:26Z</time>
      </trkpt>
      <trkpt lat="47.52566" lon="3.61717">
        <ele>239</ele>
        <time>2019-04-04T07:34:28Z</time>
      </trkpt>
      <trkpt lat="47.52567" lon="3.61721">
        <ele>239</ele>
        <time>2019-04-04T07:34:31Z</time>
      </trkpt>
      <trkpt lat="47.52568" lon="3.61725">
        <ele>239</ele>
        <time>2019-04-04T07:34:33Z</time>
      </trkpt>
      <trkpt lat="47.52569" lon="3.61729">
        <ele>239</ele>
        <time>2019-04-04T07:34:35Z</time>
      </trkpt>
      <trkpt lat="47.52571" lon="3.61733">
        <ele>239</ele>
        <time>2019-04-04T07:34:38Z</time>
      </trkpt>
      <trkpt lat="47.52573" lon="3.6174">
        <ele>240</ele>
        <time>2019-04-04T07:34:41Z</time>
      </trkpt>
      <trkpt lat="47.52574" lon="3.61746">
        <ele>238</ele>
        <time>2019-04-04T07:34:45Z</time>
      </trkpt>
      <trkpt lat="47.52576" lon="3.61752">
        <ele>239</ele>
        <time>2019-04-04T07:34:48Z</time>
      </trkpt>
      <trkpt lat="47.52579" lon="3.61758">
        <ele>239</ele>
        <time>2019-04-04T07:34:52Z</time>
      </trkpt>
      <trkpt lat="47.52581" lon="3.61761">
        <ele>239</ele>
        <time>2019-04-04T07:34:55Z</time>
      </trkpt>
      <trkpt lat="47.52583" lon="3.61767">
        <ele>239</ele>
        <time>2019-04-04T07:34:59Z</time>
      </trkpt>
      <trkpt lat="47.52584" lon="3.6177">
        <ele>239</ele>
        <time>2019-04-04T07:35:01Z</time>
      </trkpt>
      <trkpt lat="47.52585" lon="3.61773">
        <ele>238</ele>
        <time>2019-04-04T07:35:03Z</time>
      </trkpt>
      <trkpt lat="47.52587" lon="3.61779">
        <ele>237</ele>
        <time>2019-04-04T07:35:07Z</time>
      </trkpt>
      <trkpt lat="47.52589" lon="3.61786">
        <ele>237</ele>
        <time>2019-04-04T07:35:11Z</time>
      </trkpt>
      <trkpt lat="47.52591" lon="3.61793">
        <ele>237</ele>
        <time>2019-04-04T07:35:15Z</time>
      </trkpt>
      <trkpt lat="47.52593" lon="3.61801">
        <ele>236</ele>
        <time>2019-04-04T07:35:19Z</time>
      </trkpt>
      <trkpt lat="47.52594" lon="3.61804">
        <ele>236</ele>
        <time>2019-04-04T07:35:21Z</time>
      </trkpt>
      <trkpt lat="47.52595" lon="3.61808">
        <ele>236</ele>
        <time>2019-04-04T07:35:23Z</time>
      </trkpt>
      <trkpt lat="47.52596" lon="3.61814">
        <ele>237</ele>
        <time>2019-04-04T07:35:26Z</time>
      </trkpt>
      <trkpt lat="47.52597" lon="3.61821">
        <ele>237</ele>
        <time>2019-04-04T07:35:29Z</time>
      </trkpt>
      <trkpt lat="47.52599" lon="3.61829">
        <ele>236</ele>
        <time>2019-04-04T07:35:33Z</time>
      </trkpt>
      <trkpt lat="47.526" lon="3.61834">
        <ele>236</ele>
        <time>2019-04-04T07:35:37Z</time>
      </trkpt>
      <trkpt lat="47.52601" lon="3.61837">
        <ele>237</ele>
        <time>2019-04-04T07:35:38Z</time>
      </trkpt>
      <trkpt lat="47.52602" lon="3.61843">
        <ele>237</ele>
        <time>2019-04-04T07:35:42Z</time>
      </trkpt>
      <trkpt lat="47.52602" lon="3.61852">
        <ele>237</ele>
        <time>2019-04-04T07:35:47Z</time>
      </trkpt>
      <trkpt lat="47.52602" lon="3.61855">
        <ele>237</ele>
        <time>2019-04-04T07:35:49Z</time>
      </trkpt>
      <trkpt lat="47.52603" lon="3.61859">
        <ele>237</ele>
        <time>2019-04-04T07:35:51Z</time>
      </trkpt>
      <trkpt lat="47.52602" lon="3.61866">
        <ele>237</ele>
        <time>2019-04-04T07:35:55Z</time>
      </trkpt>
      <trkpt lat="47.52602" lon="3.61869">
        <ele>237</ele>
        <time>2019-04-04T07:35:57Z</time>
      </trkpt>
      <trkpt lat="47.52601" lon="3.61873">
        <ele>237</ele>
        <time>2019-04-04T07:35:59Z</time>
      </trkpt>
      <trkpt lat="47.52601" lon="3.61879">
        <ele>237</ele>
        <time>2019-04-04T07:36:02Z</time>
      </trkpt>
      <trkpt lat="47.52601" lon="3.61882">
        <ele>237</ele>
        <time>2019-04-04T07:36:04Z</time>
      </trkpt>
      <trkpt lat="47.526" lon="3.6189">
        <ele>237</ele>
        <time>2019-04-04T07:36:08Z</time>
      </trkpt>
      <trkpt lat="47.526" lon="3.61894">
        <ele>236</ele>
        <time>2019-04-04T07:36:10Z</time>
      </trkpt>
      <trkpt lat="47.52598" lon="3.61902">
        <ele>236</ele>
        <time>2019-04-04T07:36:15Z</time>
      </trkpt>
      <trkpt lat="47.52597" lon="3.61907">
        <ele>236</ele>
        <time>2019-04-04T07:36:18Z</time>
      </trkpt>
      <trkpt lat="47.52597" lon="3.61915">
        <ele>236</ele>
        <time>2019-04-04T07:36:22Z</time>
      </trkpt>
      <trkpt lat="47.52596" lon="3.6192">
        <ele>236</ele>
        <time>2019-04-04T07:36:25Z</time>
      </trkpt>
      <trkpt lat="47.52596" lon="3.61924">
        <ele>237</ele>
        <time>2019-04-04T07:36:27Z</time>
      </trkpt>
      <trkpt lat="47.52595" lon="3.61931">
        <ele>236</ele>
        <time>2019-04-04T07:36:31Z</time>
      </trkpt>
      <trkpt lat="47.52594" lon="3.61937">
        <ele>237</ele>
        <time>2019-04-04T07:36:34Z</time>
      </trkpt>
      <trkpt lat="47.52593" lon="3.61942">
        <ele>236</ele>
        <time>2019-04-04T07:36:37Z</time>
      </trkpt>
      <trkpt lat="47.52592" lon="3.61947">
        <ele>235</ele>
        <time>2019-04-04T07:36:40Z</time>
      </trkpt>
      <trkpt lat="47.52591" lon="3.61952">
        <ele>235</ele>
        <time>2019-04-04T07:36:44Z</time>
      </trkpt>
      <trkpt lat="47.5259" lon="3.61956">
        <ele>234</ele>
        <time>2019-04-04T07:36:47Z</time>
      </trkpt>
      <trkpt lat="47.52589" lon="3.61963">
        <ele>235</ele>
        <time>2019-04-04T07:36:52Z</time>
      </trkpt>
      <trkpt lat="47.52588" lon="3.6197">
        <ele>236</ele>
        <time>2019-04-04T07:36:58Z</time>
      </trkpt>
      <trkpt lat="47.52586" lon="3.61977">
        <ele>234</ele>
        <time>2019-04-04T07:37:03Z</time>
      </trkpt>
      <trkpt lat="47.52585" lon="3.6198">
        <ele>234</ele>
        <time>2019-04-04T07:37:05Z</time>
      </trkpt>
      <trkpt lat="47.52584" lon="3.61986">
        <ele>233</ele>
        <time>2019-04-04T07:37:09Z</time>
      </trkpt>
      <trkpt lat="47.52584" lon="3.61986">
        <ele>233</ele>
        <time>2019-04-04T07:37:16Z</time>
      </trkpt>
      <trkpt lat="47.52584" lon="3.61986">
        <ele>233</ele>
        <time>2019-04-04T07:37:18Z</time>
      </trkpt>
      <trkpt lat="47.52582" lon="3.61994">
        <ele>233</ele>
        <time>2019-04-04T07:37:21Z</time>
      </trkpt>
      <trkpt lat="47.5258" lon="3.61998">
        <ele>233</ele>
        <time>2019-04-04T07:37:24Z</time>
      </trkpt>
      <trkpt lat="47.52578" lon="3.62006">
        <ele>233</ele>
        <time>2019-04-04T07:37:28Z</time>
      </trkpt>
      <trkpt lat="47.52577" lon="3.62014">
        <ele>232</ele>
        <time>2019-04-04T07:37:32Z</time>
      </trkpt>
      <trkpt lat="47.52576" lon="3.62017">
        <ele>232</ele>
        <time>2019-04-04T07:37:34Z</time>
      </trkpt>
      <trkpt lat="47.52575" lon="3.62023">
        <ele>231</ele>
        <time>2019-04-04T07:37:37Z</time>
      </trkpt>
      <trkpt lat="47.52573" lon="3.6203">
        <ele>231</ele>
        <time>2019-04-04T07:37:41Z</time>
      </trkpt>
      <trkpt lat="47.52573" lon="3.62033">
        <ele>231</ele>
        <time>2019-04-04T07:37:43Z</time>
      </trkpt>
      <trkpt lat="47.52572" lon="3.62037">
        <ele>231</ele>
        <time>2019-04-04T07:37:45Z</time>
      </trkpt>
      <trkpt lat="47.5257" lon="3.62043">
        <ele>231</ele>
        <time>2019-04-04T07:37:48Z</time>
      </trkpt>
      <trkpt lat="47.52568" lon="3.6205">
        <ele>230</ele>
        <time>2019-04-04T07:37:52Z</time>
      </trkpt>
      <trkpt lat="47.52567" lon="3.62054">
        <ele>230</ele>
        <time>2019-04-04T07:37:54Z</time>
      </trkpt>
      <trkpt lat="47.52564" lon="3.62061">
        <ele>229</ele>
        <time>2019-04-04T07:37:57Z</time>
      </trkpt>
      <trkpt lat="47.52562" lon="3.62064">
        <ele>229</ele>
        <time>2019-04-04T07:38:00Z</time>
      </trkpt>
      <trkpt lat="47.52561" lon="3.62069">
        <ele>229</ele>
        <time>2019-04-04T07:38:03Z</time>
      </trkpt>
      <trkpt lat="47.5256" lon="3.62072">
        <ele>229</ele>
        <time>2019-04-04T07:38:05Z</time>
      </trkpt>
      <trkpt lat="47.52558" lon="3.62079">
        <ele>229</ele>
        <time>2019-04-04T07:38:09Z</time>
      </trkpt>
      <trkpt lat="47.52557" lon="3.62083">
        <ele>228</ele>
        <time>2019-04-04T07:38:11Z</time>
      </trkpt>
      <trkpt lat="47.52555" lon="3.6209">
        <ele>229</ele>
        <time>2019-04-04T07:38:15Z</time>
      </trkpt>
      <trkpt lat="47.52552" lon="3.62096">
        <ele>229</ele>
        <time>2019-04-04T07:38:19Z</time>
      </trkpt>
      <trkpt lat="47.52549" lon="3.62103">
        <ele>228</ele>
        <time>2019-04-04T07:38:23Z</time>
      </trkpt>
      <trkpt lat="47.52546" lon="3.62108">
        <ele>227</ele>
        <time>2019-04-04T07:38:25Z</time>
      </trkpt>
      <trkpt lat="47.52544" lon="3.62111">
        <ele>227</ele>
        <time>2019-04-04T07:38:27Z</time>
      </trkpt>
      <trkpt lat="47.52543" lon="3.62115">
        <ele>226</ele>
        <time>2019-04-04T07:38:29Z</time>
      </trkpt>
      <trkpt lat="47.5254" lon="3.6212">
        <ele>226</ele>
        <time>2019-04-04T07:38:33Z</time>
      </trkpt>
      <trkpt lat="47.52537" lon="3.62126">
        <ele>226</ele>
        <time>2019-04-04T07:38:37Z</time>
      </trkpt>
      <trkpt lat="47.52533" lon="3.62131">
        <ele>225</ele>
        <time>2019-04-04T07:38:41Z</time>
      </trkpt>
      <trkpt lat="47.5253" lon="3.62136">
        <ele>225</ele>
        <time>2019-04-04T07:38:44Z</time>
      </trkpt>
      <trkpt lat="47.52526" lon="3.62139">
        <ele>224</ele>
        <time>2019-04-04T07:38:48Z</time>
      </trkpt>
      <trkpt lat="47.52521" lon="3.62142">
        <ele>224</ele>
        <time>2019-04-04T07:38:52Z</time>
      </trkpt>
      <trkpt lat="47.52516" lon="3.62144">
        <ele>224</ele>
        <time>2019-04-04T07:38:56Z</time>
      </trkpt>
      <trkpt lat="47.5251" lon="3.62145">
        <ele>224</ele>
        <time>2019-04-04T07:39:00Z</time>
      </trkpt>
      <trkpt lat="47.52508" lon="3.62146">
        <ele>224</ele>
        <time>2019-04-04T07:39:02Z</time>
      </trkpt>
      <trkpt lat="47.52503" lon="3.62149">
        <ele>224</ele>
        <time>2019-04-04T07:39:06Z</time>
      </trkpt>
      <trkpt lat="47.52501" lon="3.62151">
        <ele>224</ele>
        <time>2019-04-04T07:39:08Z</time>
      </trkpt>
      <trkpt lat="47.52496" lon="3.62154">
        <ele>224</ele>
        <time>2019-04-04T07:39:12Z</time>
      </trkpt>
      <trkpt lat="47.52493" lon="3.62158">
        <ele>223</ele>
        <time>2019-04-04T07:39:15Z</time>
      </trkpt>
      <trkpt lat="47.52491" lon="3.6216">
        <ele>223</ele>
        <time>2019-04-04T07:39:17Z</time>
      </trkpt>
      <trkpt lat="47.52485" lon="3.62162">
        <ele>223</ele>
        <time>2019-04-04T07:39:21Z</time>
      </trkpt>
      <trkpt lat="47.52481" lon="3.62166">
        <ele>223</ele>
        <time>2019-04-04T07:39:26Z</time>
      </trkpt>
      <trkpt lat="47.52478" lon="3.62169">
        <ele>223</ele>
        <time>2019-04-04T07:39:29Z</time>
      </trkpt>
      <trkpt lat="47.52475" lon="3.62174">
        <ele>223</ele>
        <time>2019-04-04T07:39:32Z</time>
      </trkpt>
      <trkpt lat="47.52471" lon="3.62177">
        <ele>222</ele>
        <time>2019-04-04T07:39:34Z</time>
      </trkpt>
      <trkpt lat="47.52469" lon="3.62179">
        <ele>222</ele>
        <time>2019-04-04T07:39:36Z</time>
      </trkpt>
      <trkpt lat="47.52465" lon="3.62185">
        <ele>221</ele>
        <time>2019-04-04T07:39:40Z</time>
      </trkpt>
      <trkpt lat="47.52462" lon="3.6219">
        <ele>221</ele>
        <time>2019-04-04T07:39:43Z</time>
      </trkpt>
      <trkpt lat="47.52458" lon="3.62197">
        <ele>222</ele>
        <time>2019-04-04T07:39:48Z</time>
      </trkpt>
      <trkpt lat="47.52456" lon="3.622">
        <ele>222</ele>
        <time>2019-04-04T07:39:50Z</time>
      </trkpt>
      <trkpt lat="47.52454" lon="3.62206">
        <ele>223</ele>
        <time>2019-04-04T07:39:53Z</time>
      </trkpt>
      <trkpt lat="47.52452" lon="3.62209">
        <ele>223</ele>
        <time>2019-04-04T07:39:55Z</time>
      </trkpt>
      <trkpt lat="47.52449" lon="3.62213">
        <ele>223</ele>
        <time>2019-04-04T07:39:59Z</time>
      </trkpt>
      <trkpt lat="47.52447" lon="3.62216">
        <ele>223</ele>
        <time>2019-04-04T07:40:01Z</time>
      </trkpt>
      <trkpt lat="47.52444" lon="3.6222">
        <ele>223</ele>
        <time>2019-04-04T07:40:05Z</time>
      </trkpt>
      <trkpt lat="47.5244" lon="3.62224">
        <ele>224</ele>
        <time>2019-04-04T07:40:09Z</time>
      </trkpt>
      <trkpt lat="47.52434" lon="3.62224">
        <ele>224</ele>
        <time>2019-04-04T07:40:14Z</time>
      </trkpt>
      <trkpt lat="47.52429" lon="3.62223">
        <ele>225</ele>
        <time>2019-04-04T07:40:18Z</time>
      </trkpt>
      <trkpt lat="47.52424" lon="3.62222">
        <ele>224</ele>
        <time>2019-04-04T07:40:22Z</time>
      </trkpt>
      <trkpt lat="47.5242" lon="3.62221">
        <ele>225</ele>
        <time>2019-04-04T07:40:26Z</time>
      </trkpt>
      <trkpt lat="47.52415" lon="3.62221">
        <ele>225</ele>
        <time>2019-04-04T07:40:30Z</time>
      </trkpt>
      <trkpt lat="47.5241" lon="3.62219">
        <ele>226</ele>
        <time>2019-04-04T07:40:34Z</time>
      </trkpt>
      <trkpt lat="47.52407" lon="3.62218">
        <ele>225</ele>
        <time>2019-04-04T07:40:36Z</time>
      </trkpt>
      <trkpt lat="47.52404" lon="3.62217">
        <ele>226</ele>
        <time>2019-04-04T07:40:39Z</time>
      </trkpt>
      <trkpt lat="47.524" lon="3.62217">
        <ele>226</ele>
        <time>2019-04-04T07:40:41Z</time>
      </trkpt>
      <trkpt lat="47.52395" lon="3.62214">
        <ele>226</ele>
        <time>2019-04-04T07:40:45Z</time>
      </trkpt>
      <trkpt lat="47.52392" lon="3.62213">
        <ele>226</ele>
        <time>2019-04-04T07:40:48Z</time>
      </trkpt>
      <trkpt lat="47.52387" lon="3.62211">
        <ele>227</ele>
        <time>2019-04-04T07:40:52Z</time>
      </trkpt>
      <trkpt lat="47.52382" lon="3.62209">
        <ele>227</ele>
        <time>2019-04-04T07:40:56Z</time>
      </trkpt>
      <trkpt lat="47.52379" lon="3.62208">
        <ele>226</ele>
        <time>2019-04-04T07:40:58Z</time>
      </trkpt>
      <trkpt lat="47.52376" lon="3.62207">
        <ele>226</ele>
        <time>2019-04-04T07:41:00Z</time>
      </trkpt>
      <trkpt lat="47.52372" lon="3.62205">
        <ele>226</ele>
        <time>2019-04-04T07:41:04Z</time>
      </trkpt>
      <trkpt lat="47.52369" lon="3.62204">
        <ele>227</ele>
        <time>2019-04-04T07:41:06Z</time>
      </trkpt>
      <trkpt lat="47.52366" lon="3.62203">
        <ele>227</ele>
        <time>2019-04-04T07:41:09Z</time>
      </trkpt>
      <trkpt lat="47.52361" lon="3.62202">
        <ele>227</ele>
        <time>2019-04-04T07:41:13Z</time>
      </trkpt>
      <trkpt lat="47.52357" lon="3.62202">
        <ele>228</ele>
        <time>2019-04-04T07:41:16Z</time>
      </trkpt>
      <trkpt lat="47.52355" lon="3.62202">
        <ele>228</ele>
        <time>2019-04-04T07:41:18Z</time>
      </trkpt>
      <trkpt lat="47.52352" lon="3.62201">
        <ele>228</ele>
        <time>2019-04-04T07:41:20Z</time>
      </trkpt>
      <trkpt lat="47.5235" lon="3.62201">
        <ele>228</ele>
        <time>2019-04-04T07:41:22Z</time>
      </trkpt>
      <trkpt lat="47.52347" lon="3.62201">
        <ele>229</ele>
        <time>2019-04-04T07:41:24Z</time>
      </trkpt>
      <trkpt lat="47.52344" lon="3.62201">
        <ele>228</ele>
        <time>2019-04-04T07:41:26Z</time>
      </trkpt>
      <trkpt lat="47.5234" lon="3.622">
        <ele>228</ele>
        <time>2019-04-04T07:41:30Z</time>
      </trkpt>
      <trkpt lat="47.52335" lon="3.622">
        <ele>228</ele>
        <time>2019-04-04T07:41:34Z</time>
      </trkpt>
      <trkpt lat="47.5233" lon="3.622">
        <ele>228</ele>
        <time>2019-04-04T07:41:38Z</time>
      </trkpt>
      <trkpt lat="47.52325" lon="3.622">
        <ele>229</ele>
        <time>2019-04-04T07:41:42Z</time>
      </trkpt>
      <trkpt lat="47.5232" lon="3.622">
        <ele>229</ele>
        <time>2019-04-04T07:41:46Z</time>
      </trkpt>
      <trkpt lat="47.52316" lon="3.622">
        <ele>229</ele>
        <time>2019-04-04T07:41:49Z</time>
      </trkpt>
      <trkpt lat="47.52312" lon="3.622">
        <ele>230</ele>
        <time>2019-04-04T07:41:53Z</time>
      </trkpt>
      <trkpt lat="47.52308" lon="3.622">
        <ele>230</ele>
        <time>2019-04-04T07:41:56Z</time>
      </trkpt>
      <trkpt lat="47.52303" lon="3.62203">
        <ele>230</ele>
        <time>2019-04-04T07:42:01Z</time>
      </trkpt>
      <trkpt lat="47.52298" lon="3.62203">
        <ele>230</ele>
        <time>2019-04-04T07:42:05Z</time>
      </trkpt>
      <trkpt lat="47.52293" lon="3.62205">
        <ele>231</ele>
        <time>2019-04-04T07:42:09Z</time>
      </trkpt>
      <trkpt lat="47.52291" lon="3.62206">
        <ele>231</ele>
        <time>2019-04-04T07:42:11Z</time>
      </trkpt>
      <trkpt lat="47.52286" lon="3.62206">
        <ele>232</ele>
        <time>2019-04-04T07:42:15Z</time>
      </trkpt>
      <trkpt lat="47.52283" lon="3.62207">
        <ele>232</ele>
        <time>2019-04-04T07:42:17Z</time>
      </trkpt>
      <trkpt lat="47.52278" lon="3.62208">
        <ele>232</ele>
        <time>2019-04-04T07:42:21Z</time>
      </trkpt>
      <trkpt lat="47.52273" lon="3.62211">
        <ele>232</ele>
        <time>2019-04-04T07:42:26Z</time>
      </trkpt>
      <trkpt lat="47.5227" lon="3.62212">
        <ele>233</ele>
        <time>2019-04-04T07:42:28Z</time>
      </trkpt>
      <trkpt lat="47.52266" lon="3.62214">
        <ele>232</ele>
        <time>2019-04-04T07:42:32Z</time>
      </trkpt>
      <trkpt lat="47.52263" lon="3.62215">
        <ele>232</ele>
        <time>2019-04-04T07:42:34Z</time>
      </trkpt>
      <trkpt lat="47.52261" lon="3.62216">
        <ele>233</ele>
        <time>2019-04-04T07:42:36Z</time>
      </trkpt>
      <trkpt lat="47.52257" lon="3.62218">
        <ele>233</ele>
        <time>2019-04-04T07:42:39Z</time>
      </trkpt>
      <trkpt lat="47.52252" lon="3.6222">
        <ele>233</ele>
        <time>2019-04-04T07:42:43Z</time>
      </trkpt>
      <trkpt lat="47.52249" lon="3.62222">
        <ele>234</ele>
        <time>2019-04-04T07:42:46Z</time>
      </trkpt>
      <trkpt lat="47.52246" lon="3.62224">
        <ele>234</ele>
        <time>2019-04-04T07:42:49Z</time>
      </trkpt>
      <trkpt lat="47.52244" lon="3.62225">
        <ele>234</ele>
        <time>2019-04-04T07:42:51Z</time>
      </trkpt>
      <trkpt lat="47.52241" lon="3.62227">
        <ele>234</ele>
        <time>2019-04-04T07:42:53Z</time>
      </trkpt>
      <trkpt lat="47.52237" lon="3.6223">
        <ele>234</ele>
        <time>2019-04-04T07:42:56Z</time>
      </trkpt>
      <trkpt lat="47.52233" lon="3.62234">
        <ele>234</ele>
        <time>2019-04-04T07:43:00Z</time>
      </trkpt>
      <trkpt lat="47.52228" lon="3.62239">
        <ele>234</ele>
        <time>2019-04-04T07:43:05Z</time>
      </trkpt>
      <trkpt lat="47.52226" lon="3.62241">
        <ele>233</ele>
        <time>2019-04-04T07:43:08Z</time>
      </trkpt>
      <trkpt lat="47.52223" lon="3.62244">
        <ele>234</ele>
        <time>2019-04-04T07:43:10Z</time>
      </trkpt>
      <trkpt lat="47.52219" lon="3.62249">
        <ele>234</ele>
        <time>2019-04-04T07:43:14Z</time>
      </trkpt>
      <trkpt lat="47.52217" lon="3.62252">
        <ele>235</ele>
        <time>2019-04-04T07:43:17Z</time>
      </trkpt>
      <trkpt lat="47.52212" lon="3.62257">
        <ele>235</ele>
        <time>2019-04-04T07:43:21Z</time>
      </trkpt>
      <trkpt lat="47.52209" lon="3.62263">
        <ele>236</ele>
        <time>2019-04-04T07:43:26Z</time>
      </trkpt>
      <trkpt lat="47.52207" lon="3.62267">
        <ele>236</ele>
        <time>2019-04-04T07:43:29Z</time>
      </trkpt>
      <trkpt lat="47.52206" lon="3.62271">
        <ele>235</ele>
        <time>2019-04-04T07:43:31Z</time>
      </trkpt>
      <trkpt lat="47.52204" lon="3.62274">
        <ele>235</ele>
        <time>2019-04-04T07:43:33Z</time>
      </trkpt>
      <trkpt lat="47.52202" lon="3.62282">
        <ele>235</ele>
        <time>2019-04-04T07:43:37Z</time>
      </trkpt>
      <trkpt lat="47.522" lon="3.62289">
        <ele>237</ele>
        <time>2019-04-04T07:43:42Z</time>
      </trkpt>
      <trkpt lat="47.52198" lon="3.62292">
        <ele>237</ele>
        <time>2019-04-04T07:43:44Z</time>
      </trkpt>
      <trkpt lat="47.52197" lon="3.62297">
        <ele>237</ele>
        <time>2019-04-04T07:43:47Z</time>
      </trkpt>
      <trkpt lat="47.52194" lon="3.62304">
        <ele>237</ele>
        <time>2019-04-04T07:43:52Z</time>
      </trkpt>
      <trkpt lat="47.52193" lon="3.62308">
        <ele>237</ele>
        <time>2019-04-04T07:43:54Z</time>
      </trkpt>
      <trkpt lat="47.52192" lon="3.62311">
        <ele>238</ele>
        <time>2019-04-04T07:43:56Z</time>
      </trkpt>
      <trkpt lat="47.52189" lon="3.62317">
        <ele>238</ele>
        <time>2019-04-04T07:44:01Z</time>
      </trkpt>
      <trkpt lat="47.52188" lon="3.6232">
        <ele>238</ele>
        <time>2019-04-04T07:44:03Z</time>
      </trkpt>
      <trkpt lat="47.52186" lon="3.62325">
        <ele>239</ele>
        <time>2019-04-04T07:44:06Z</time>
      </trkpt>
      <trkpt lat="47.52185" lon="3.6233">
        <ele>239</ele>
        <time>2019-04-04T07:44:09Z</time>
      </trkpt>
      <trkpt lat="47.52183" lon="3.62336">
        <ele>239</ele>
        <time>2019-04-04T07:44:13Z</time>
      </trkpt>
      <trkpt lat="47.52181" lon="3.62343">
        <ele>239</ele>
        <time>2019-04-04T07:44:17Z</time>
      </trkpt>
      <trkpt lat="47.52178" lon="3.62349">
        <ele>239</ele>
        <time>2019-04-04T07:44:21Z</time>
      </trkpt>
      <trkpt lat="47.52176" lon="3.62354">
        <ele>239</ele>
        <time>2019-04-04T07:44:24Z</time>
      </trkpt>
      <trkpt lat="47.52174" lon="3.62358">
        <ele>239</ele>
        <time>2019-04-04T07:44:27Z</time>
      </trkpt>
      <trkpt lat="47.52172" lon="3.62362">
        <ele>239</ele>
        <time>2019-04-04T07:44:29Z</time>
      </trkpt>
      <trkpt lat="47.5217" lon="3.62368">
        <ele>239</ele>
        <time>2019-04-04T07:44:32Z</time>
      </trkpt>
      <trkpt lat="47.52166" lon="3.62373">
        <ele>239</ele>
        <time>2019-04-04T07:44:36Z</time>
      </trkpt>
      <trkpt lat="47.52162" lon="3.62378">
        <ele>240</ele>
        <time>2019-04-04T07:44:40Z</time>
      </trkpt>
      <trkpt lat="47.52158" lon="3.62384">
        <ele>240</ele>
        <time>2019-04-04T07:44:44Z</time>
      </trkpt>
      <trkpt lat="47.52153" lon="3.62388">
        <ele>241</ele>
        <time>2019-04-04T07:44:48Z</time>
      </trkpt>
      <trkpt lat="47.5215" lon="3.62391">
        <ele>240</ele>
        <time>2019-04-04T07:44:51Z</time>
      </trkpt>
      <trkpt lat="47.52147" lon="3.62395">
        <ele>241</ele>
        <time>2019-04-04T07:44:55Z</time>
      </trkpt>
      <trkpt lat="47.52143" lon="3.62398">
        <ele>241</ele>
        <time>2019-04-04T07:44:58Z</time>
      </trkpt>
      <trkpt lat="47.52141" lon="3.62401">
        <ele>241</ele>
        <time>2019-04-04T07:45:00Z</time>
      </trkpt>
      <trkpt lat="47.52137" lon="3.62405">
        <ele>241</ele>
        <time>2019-04-04T07:45:04Z</time>
      </trkpt>
      <trkpt lat="47.52133" lon="3.62409">
        <ele>240</ele>
        <time>2019-04-04T07:45:08Z</time>
      </trkpt>
      <trkpt lat="47.5213" lon="3.62411">
        <ele>241</ele>
        <time>2019-04-04T07:45:10Z</time>
      </trkpt>
      <trkpt lat="47.52128" lon="3.62413">
        <ele>241</ele>
        <time>2019-04-04T07:45:12Z</time>
      </trkpt>
      <trkpt lat="47.52126" lon="3.62414">
        <ele>240</ele>
        <time>2019-04-04T07:45:14Z</time>
      </trkpt>
      <trkpt lat="47.52123" lon="3.62416">
        <ele>240</ele>
        <time>2019-04-04T07:45:16Z</time>
      </trkpt>
      <trkpt lat="47.52119" lon="3.6242">
        <ele>240</ele>
        <time>2019-04-04T07:45:20Z</time>
      </trkpt>
      <trkpt lat="47.52114" lon="3.62425">
        <ele>239</ele>
        <time>2019-04-04T07:45:24Z</time>
      </trkpt>
      <trkpt lat="47.52112" lon="3.62427">
        <ele>239</ele>
        <time>2019-04-04T07:45:26Z</time>
      </trkpt>
      <trkpt lat="47.52107" lon="3.62431">
        <ele>240</ele>
        <time>2019-04-04T07:45:30Z</time>
      </trkpt>
      <trkpt lat="47.52105" lon="3.62433">
        <ele>240</ele>
        <time>2019-04-04T07:45:32Z</time>
      </trkpt>
      <trkpt lat="47.52103" lon="3.62435">
        <ele>240</ele>
        <time>2019-04-04T07:45:34Z</time>
      </trkpt>
      <trkpt lat="47.52099" lon="3.62439">
        <ele>240</ele>
        <time>2019-04-04T07:45:38Z</time>
      </trkpt>
      <trkpt lat="47.52096" lon="3.62443">
        <ele>241</ele>
        <time>2019-04-04T07:45:42Z</time>
      </trkpt>
      <trkpt lat="47.52093" lon="3.62446">
        <ele>241</ele>
        <time>2019-04-04T07:45:45Z</time>
      </trkpt>
      <trkpt lat="47.5209" lon="3.62449">
        <ele>242</ele>
        <time>2019-04-04T07:45:48Z</time>
      </trkpt>
      <trkpt lat="47.52086" lon="3.62453">
        <ele>242</ele>
        <time>2019-04-04T07:45:51Z</time>
      </trkpt>
      <trkpt lat="47.52084" lon="3.62455">
        <ele>242</ele>
        <time>2019-04-04T07:45:53Z</time>
      </trkpt>
      <trkpt lat="47.52082" lon="3.62458">
        <ele>242</ele>
        <time>2019-04-04T07:45:55Z</time>
      </trkpt>
      <trkpt lat="47.52077" lon="3.62462">
        <ele>241</ele>
        <time>2019-04-04T07:46:00Z</time>
      </trkpt>
      <trkpt lat="47.52075" lon="3.62464">
        <ele>242</ele>
        <time>2019-04-04T07:46:03Z</time>
      </trkpt>
      <trkpt lat="47.5207" lon="3.62467">
        <ele>242</ele>
        <time>2019-04-04T07:46:07Z</time>
      </trkpt>
      <trkpt lat="47.52066" lon="3.62471">
        <ele>242</ele>
        <time>2019-04-04T07:46:11Z</time>
      </trkpt>
      <trkpt lat="47.52064" lon="3.62473">
        <ele>243</ele>
        <time>2019-04-04T07:46:13Z</time>
      </trkpt>
      <trkpt lat="47.52061" lon="3.62476">
        <ele>244</ele>
        <time>2019-04-04T07:46:16Z</time>
      </trkpt>
      <trkpt lat="47.52056" lon="3.62479">
        <ele>244</ele>
        <time>2019-04-04T07:46:20Z</time>
      </trkpt>
      <trkpt lat="47.52052" lon="3.62482">
        <ele>244</ele>
        <time>2019-04-04T07:46:24Z</time>
      </trkpt>
      <trkpt lat="47.52049" lon="3.62484">
        <ele>245</ele>
        <time>2019-04-04T07:46:27Z</time>
      </trkpt>
      <trkpt lat="47.52046" lon="3.62487">
        <ele>244</ele>
        <time>2019-04-04T07:46:30Z</time>
      </trkpt>
      <trkpt lat="47.52042" lon="3.62491">
        <ele>245</ele>
        <time>2019-04-04T07:46:34Z</time>
      </trkpt>
      <trkpt lat="47.5204" lon="3.62493">
        <ele>244</ele>
        <time>2019-04-04T07:46:36Z</time>
      </trkpt>
      <trkpt lat="47.52036" lon="3.62496">
        <ele>245</ele>
        <time>2019-04-04T07:46:39Z</time>
      </trkpt>
      <trkpt lat="47.52033" lon="3.62498">
        <ele>245</ele>
        <time>2019-04-04T07:46:41Z</time>
      </trkpt>
      <trkpt lat="47.52029" lon="3.62501">
        <ele>245</ele>
        <time>2019-04-04T07:46:45Z</time>
      </trkpt>
      <trkpt lat="47.52027" lon="3.62502">
        <ele>245</ele>
        <time>2019-04-04T07:46:47Z</time>
      </trkpt>
      <trkpt lat="47.52023" lon="3.62505">
        <ele>245</ele>
        <time>2019-04-04T07:46:51Z</time>
      </trkpt>
      <trkpt lat="47.52018" lon="3.62511">
        <ele>245</ele>
        <time>2019-04-04T07:46:56Z</time>
      </trkpt>
      <trkpt lat="47.52014" lon="3.62514">
        <ele>246</ele>
        <time>2019-04-04T07:47:00Z</time>
      </trkpt>
      <trkpt lat="47.52009" lon="3.62517">
        <ele>246</ele>
        <time>2019-04-04T07:47:04Z</time>
      </trkpt>
      <trkpt lat="47.52005" lon="3.62521">
        <ele>247</ele>
        <time>2019-04-04T07:47:09Z</time>
      </trkpt>
      <trkpt lat="47.51999" lon="3.62525">
        <ele>247</ele>
        <time>2019-04-04T07:47:14Z</time>
      </trkpt>
      <trkpt lat="47.51996" lon="3.62528">
        <ele>247</ele>
        <time>2019-04-04T07:47:17Z</time>
      </trkpt>
      <trkpt lat="47.51992" lon="3.62531">
        <ele>247</ele>
        <time>2019-04-04T07:47:20Z</time>
      </trkpt>
      <trkpt lat="47.51988" lon="3.62535">
        <ele>248</ele>
        <time>2019-04-04T07:47:24Z</time>
      </trkpt>
      <trkpt lat="47.51986" lon="3.62538">
        <ele>248</ele>
        <time>2019-04-04T07:47:26Z</time>
      </trkpt>
      <trkpt lat="47.51984" lon="3.6254">
        <ele>248</ele>
        <time>2019-04-04T07:47:28Z</time>
      </trkpt>
      <trkpt lat="47.51979" lon="3.62544">
        <ele>249</ele>
        <time>2019-04-04T07:47:32Z</time>
      </trkpt>
      <trkpt lat="47.51976" lon="3.62549">
        <ele>248</ele>
        <time>2019-04-04T07:47:35Z</time>
      </trkpt>
      <trkpt lat="47.51972" lon="3.62552">
        <ele>249</ele>
        <time>2019-04-04T07:47:39Z</time>
      </trkpt>
      <trkpt lat="47.5197" lon="3.62554">
        <ele>248</ele>
        <time>2019-04-04T07:47:41Z</time>
      </trkpt>
      <trkpt lat="47.51966" lon="3.62556">
        <ele>248</ele>
        <time>2019-04-04T07:47:44Z</time>
      </trkpt>
      <trkpt lat="47.51963" lon="3.62559">
        <ele>248</ele>
        <time>2019-04-04T07:47:47Z</time>
      </trkpt>
      <trkpt lat="47.51958" lon="3.62564">
        <ele>249</ele>
        <time>2019-04-04T07:47:52Z</time>
      </trkpt>
      <trkpt lat="47.51954" lon="3.62568">
        <ele>249</ele>
        <time>2019-04-04T07:47:56Z</time>
      </trkpt>
      <trkpt lat="47.51949" lon="3.62572">
        <ele>249</ele>
        <time>2019-04-04T07:48:00Z</time>
      </trkpt>
      <trkpt lat="47.51947" lon="3.62574">
        <ele>249</ele>
        <time>2019-04-04T07:48:02Z</time>
      </trkpt>
      <trkpt lat="47.51943" lon="3.62578">
        <ele>249</ele>
        <time>2019-04-04T07:48:06Z</time>
      </trkpt>
      <trkpt lat="47.5194" lon="3.6258">
        <ele>250</ele>
        <time>2019-04-04T07:48:09Z</time>
      </trkpt>
      <trkpt lat="47.51938" lon="3.62582">
        <ele>250</ele>
        <time>2019-04-04T07:48:11Z</time>
      </trkpt>
      <trkpt lat="47.51934" lon="3.62586">
        <ele>251</ele>
        <time>2019-04-04T07:48:15Z</time>
      </trkpt>
      <trkpt lat="47.51931" lon="3.62589">
        <ele>250</ele>
        <time>2019-04-04T07:48:18Z</time>
      </trkpt>
      <trkpt lat="47.51927" lon="3.62592">
        <ele>251</ele>
        <time>2019-04-04T07:48:21Z</time>
      </trkpt>
      <trkpt lat="47.51923" lon="3.62597">
        <ele>252</ele>
        <time>2019-04-04T07:48:25Z</time>
      </trkpt>
      <trkpt lat="47.51918" lon="3.62602">
        <ele>252</ele>
        <time>2019-04-04T07:48:30Z</time>
      </trkpt>
      <trkpt lat="47.51912" lon="3.62606">
        <ele>252</ele>
        <time>2019-04-04T07:48:35Z</time>
      </trkpt>
      <trkpt lat="47.51907" lon="3.62611">
        <ele>253</ele>
        <time>2019-04-04T07:48:41Z</time>
      </trkpt>
      <trkpt lat="47.51904" lon="3.62616">
        <ele>254</ele>
        <time>2019-04-04T07:48:46Z</time>
      </trkpt>
      <trkpt lat="47.51902" lon="3.62619">
        <ele>254</ele>
        <time>2019-04-04T07:48:48Z</time>
      </trkpt>
      <trkpt lat="47.51898" lon="3.62623">
        <ele>255</ele>
        <time>2019-04-04T07:48:51Z</time>
      </trkpt>
      <trkpt lat="47.51895" lon="3.62627">
        <ele>254</ele>
        <time>2019-04-04T07:48:54Z</time>
      </trkpt>
      <trkpt lat="47.51893" lon="3.6263">
        <ele>254</ele>
        <time>2019-04-04T07:48:56Z</time>
      </trkpt>
      <trkpt lat="47.51891" lon="3.62632">
        <ele>254</ele>
        <time>2019-04-04T07:48:58Z</time>
      </trkpt>
      <trkpt lat="47.51887" lon="3.62637">
        <ele>254</ele>
        <time>2019-04-04T07:49:02Z</time>
      </trkpt>
      <trkpt lat="47.51883" lon="3.62642">
        <ele>254</ele>
        <time>2019-04-04T07:49:06Z</time>
      </trkpt>
      <trkpt lat="47.51881" lon="3.62645">
        <ele>254</ele>
        <time>2019-04-04T07:49:08Z</time>
      </trkpt>
      <trkpt lat="47.51878" lon="3.62651">
        <ele>253</ele>
        <time>2019-04-04T07:49:12Z</time>
      </trkpt>
      <trkpt lat="47.51874" lon="3.62657">
        <ele>254</ele>
        <time>2019-04-04T07:49:17Z</time>
      </trkpt>
      <trkpt lat="47.51869" lon="3.62662">
        <ele>253</ele>
        <time>2019-04-04T07:49:22Z</time>
      </trkpt>
      <trkpt lat="47.51864" lon="3.6266">
        <ele>253</ele>
        <time>2019-04-04T07:49:27Z</time>
      </trkpt>
      <trkpt lat="47.51861" lon="3.62659">
        <ele>254</ele>
        <time>2019-04-04T07:49:29Z</time>
      </trkpt>
      <trkpt lat="47.51856" lon="3.62654">
        <ele>254</ele>
        <time>2019-04-04T07:49:34Z</time>
      </trkpt>
      <trkpt lat="47.51855" lon="3.62651">
        <ele>253</ele>
        <time>2019-04-04T07:49:36Z</time>
      </trkpt>
      <trkpt lat="47.51852" lon="3.62648">
        <ele>253</ele>
        <time>2019-04-04T07:49:38Z</time>
      </trkpt>
      <trkpt lat="47.5185" lon="3.62646">
        <ele>253</ele>
        <time>2019-04-04T07:49:40Z</time>
      </trkpt>
      <trkpt lat="47.51847" lon="3.62642">
        <ele>253</ele>
        <time>2019-04-04T07:49:43Z</time>
      </trkpt>
      <trkpt lat="47.51843" lon="3.62637">
        <ele>253</ele>
        <time>2019-04-04T07:49:47Z</time>
      </trkpt>
      <trkpt lat="47.51839" lon="3.62633">
        <ele>254</ele>
        <time>2019-04-04T07:49:51Z</time>
      </trkpt>
      <trkpt lat="47.51835" lon="3.62629">
        <ele>254</ele>
        <time>2019-04-04T07:49:55Z</time>
      </trkpt>
      <trkpt lat="47.51831" lon="3.62625">
        <ele>253</ele>
        <time>2019-04-04T07:49:59Z</time>
      </trkpt>
      <trkpt lat="47.51829" lon="3.62623">
        <ele>253</ele>
        <time>2019-04-04T07:50:01Z</time>
      </trkpt>
      <trkpt lat="47.51827" lon="3.6262">
        <ele>253</ele>
        <time>2019-04-04T07:50:03Z</time>
      </trkpt>
      <trkpt lat="47.51825" lon="3.62618">
        <ele>253</ele>
        <time>2019-04-04T07:50:05Z</time>
      </trkpt>
      <trkpt lat="47.51823" lon="3.62616">
        <ele>253</ele>
        <time>2019-04-04T07:50:07Z</time>
      </trkpt>
      <trkpt lat="47.51818" lon="3.62612">
        <ele>253</ele>
        <time>2019-04-04T07:50:11Z</time>
      </trkpt>
      <trkpt lat="47.51814" lon="3.62607">
        <ele>253</ele>
        <time>2019-04-04T07:50:15Z</time>
      </trkpt>
      <trkpt lat="47.51813" lon="3.62604">
        <ele>253</ele>
        <time>2019-04-04T07:50:17Z</time>
      </trkpt>
      <trkpt lat="47.5181" lon="3.62601">
        <ele>253</ele>
        <time>2019-04-04T07:50:20Z</time>
      </trkpt>
      <trkpt lat="47.51805" lon="3.62597">
        <ele>253</ele>
        <time>2019-04-04T07:50:24Z</time>
      </trkpt>
      <trkpt lat="47.51802" lon="3.62593">
        <ele>253</ele>
        <time>2019-04-04T07:50:27Z</time>
      </trkpt>
      <trkpt lat="47.51799" lon="3.62591">
        <ele>253</ele>
        <time>2019-04-04T07:50:30Z</time>
      </trkpt>
      <trkpt lat="47.51795" lon="3.62587">
        <ele>253</ele>
        <time>2019-04-04T07:50:34Z</time>
      </trkpt>
      <trkpt lat="47.51793" lon="3.62585">
        <ele>253</ele>
        <time>2019-04-04T07:50:36Z</time>
      </trkpt>
      <trkpt lat="47.5179" lon="3.62582">
        <ele>252</ele>
        <time>2019-04-04T07:50:39Z</time>
      </trkpt>
      <trkpt lat="47.51786" lon="3.62577">
        <ele>253</ele>
        <time>2019-04-04T07:50:43Z</time>
      </trkpt>
      <trkpt lat="47.51782" lon="3.62574">
        <ele>253</ele>
        <time>2019-04-04T07:50:47Z</time>
      </trkpt>
      <trkpt lat="47.51779" lon="3.62572">
        <ele>253</ele>
        <time>2019-04-04T07:50:49Z</time>
      </trkpt>
      <trkpt lat="47.51776" lon="3.62569">
        <ele>254</ele>
        <time>2019-04-04T07:50:52Z</time>
      </trkpt>
      <trkpt lat="47.51774" lon="3.62567">
        <ele>254</ele>
        <time>2019-04-04T07:50:54Z</time>
      </trkpt>
      <trkpt lat="47.51771" lon="3.62563">
        <ele>254</ele>
        <time>2019-04-04T07:50:57Z</time>
      </trkpt>
      <trkpt lat="47.51768" lon="3.6256">
        <ele>253</ele>
        <time>2019-04-04T07:51:00Z</time>
      </trkpt>
      <trkpt lat="47.51763" lon="3.62555">
        <ele>253</ele>
        <time>2019-04-04T07:51:04Z</time>
      </trkpt>
      <trkpt lat="47.51761" lon="3.62553">
        <ele>253</ele>
        <time>2019-04-04T07:51:06Z</time>
      </trkpt>
      <trkpt lat="47.51756" lon="3.62549">
        <ele>252</ele>
        <time>2019-04-04T07:51:10Z</time>
      </trkpt>
      <trkpt lat="47.51752" lon="3.62546">
        <ele>252</ele>
        <time>2019-04-04T07:51:14Z</time>
      </trkpt>
      <trkpt lat="47.5175" lon="3.62544">
        <ele>253</ele>
        <time>2019-04-04T07:51:16Z</time>
      </trkpt>
      <trkpt lat="47.51745" lon="3.62541">
        <ele>254</ele>
        <time>2019-04-04T07:51:20Z</time>
      </trkpt>
      <trkpt lat="47.51742" lon="3.62538">
        <ele>254</ele>
        <time>2019-04-04T07:51:23Z</time>
      </trkpt>
      <trkpt lat="47.5174" lon="3.62537">
        <ele>254</ele>
        <time>2019-04-04T07:51:25Z</time>
      </trkpt>
      <trkpt lat="47.51738" lon="3.62535">
        <ele>253</ele>
        <time>2019-04-04T07:51:27Z</time>
      </trkpt>
      <trkpt lat="47.51735" lon="3.62533">
        <ele>253</ele>
        <time>2019-04-04T07:51:29Z</time>
      </trkpt>
      <trkpt lat="47.51733" lon="3.62531">
        <ele>253</ele>
        <time>2019-04-04T07:51:31Z</time>
      </trkpt>
      <trkpt lat="47.51728" lon="3.62528">
        <ele>253</ele>
        <time>2019-04-04T07:51:35Z</time>
      </trkpt>
      <trkpt lat="47.51726" lon="3.62527">
        <ele>252</ele>
        <time>2019-04-04T07:51:37Z</time>
      </trkpt>
      <trkpt lat="47.51723" lon="3.62525">
        <ele>252</ele>
        <time>2019-04-04T07:51:39Z</time>
      </trkpt>
      <trkpt lat="47.51719" lon="3.62521">
        <ele>252</ele>
        <time>2019-04-04T07:51:43Z</time>
      </trkpt>
      <trkpt lat="47.51716" lon="3.6252">
        <ele>251</ele>
        <time>2019-04-04T07:51:45Z</time>
      </trkpt>
      <trkpt lat="47.51712" lon="3.62514">
        <ele>252</ele>
        <time>2019-04-04T07:51:49Z</time>
      </trkpt>
      <trkpt lat="47.51707" lon="3.62511">
        <ele>251</ele>
        <time>2019-04-04T07:51:53Z</time>
      </trkpt>
      <trkpt lat="47.51705" lon="3.62509">
        <ele>252</ele>
        <time>2019-04-04T07:51:55Z</time>
      </trkpt>
      <trkpt lat="47.51702" lon="3.62506">
        <ele>252</ele>
        <time>2019-04-04T07:51:57Z</time>
      </trkpt>
      <trkpt lat="47.51699" lon="3.62504">
        <ele>252</ele>
        <time>2019-04-04T07:52:00Z</time>
      </trkpt>
      <trkpt lat="47.51695" lon="3.62501">
        <ele>252</ele>
        <time>2019-04-04T07:52:04Z</time>
      </trkpt>
      <trkpt lat="47.51693" lon="3.62499">
        <ele>253</ele>
        <time>2019-04-04T07:52:06Z</time>
      </trkpt>
      <trkpt lat="47.51688" lon="3.62495">
        <ele>253</ele>
        <time>2019-04-04T07:52:10Z</time>
      </trkpt>
      <trkpt lat="47.51686" lon="3.62493">
        <ele>253</ele>
        <time>2019-04-04T07:52:12Z</time>
      </trkpt>
      <trkpt lat="47.51683" lon="3.62491">
        <ele>253</ele>
        <time>2019-04-04T07:52:14Z</time>
      </trkpt>
      <trkpt lat="47.51678" lon="3.62488">
        <ele>253</ele>
        <time>2019-04-04T07:52:18Z</time>
      </trkpt>
      <trkpt lat="47.51676" lon="3.62487">
        <ele>253</ele>
        <time>2019-04-04T07:52:20Z</time>
      </trkpt>
      <trkpt lat="47.51671" lon="3.62483">
        <ele>253</ele>
        <time>2019-04-04T07:52:24Z</time>
      </trkpt>
      <trkpt lat="47.51666" lon="3.62483">
        <ele>254</ele>
        <time>2019-04-04T07:52:28Z</time>
      </trkpt>
      <trkpt lat="47.51661" lon="3.62484">
        <ele>253</ele>
        <time>2019-04-04T07:52:32Z</time>
      </trkpt>
      <trkpt lat="47.51658" lon="3.6249">
        <ele>254</ele>
        <time>2019-04-04T07:52:36Z</time>
      </trkpt>
      <trkpt lat="47.51656" lon="3.62493">
        <ele>254</ele>
        <time>2019-04-04T07:52:38Z</time>
      </trkpt>
      <trkpt lat="47.51653" lon="3.62503">
        <ele>254</ele>
        <time>2019-04-04T07:52:45Z</time>
      </trkpt>
      <trkpt lat="47.51652" lon="3.62509">
        <ele>253</ele>
        <time>2019-04-04T07:52:48Z</time>
      </trkpt>
      <trkpt lat="47.5165" lon="3.62517">
        <ele>253</ele>
        <time>2019-04-04T07:52:52Z</time>
      </trkpt>
      <trkpt lat="47.51648" lon="3.62524">
        <ele>253</ele>
        <time>2019-04-04T07:52:57Z</time>
      </trkpt>
      <trkpt lat="47.51646" lon="3.62531">
        <ele>254</ele>
        <time>2019-04-04T07:53:02Z</time>
      </trkpt>
      <trkpt lat="47.51645" lon="3.62538">
        <ele>255</ele>
        <time>2019-04-04T07:53:07Z</time>
      </trkpt>
      <trkpt lat="47.51642" lon="3.62544">
        <ele>254</ele>
        <time>2019-04-04T07:53:11Z</time>
      </trkpt>
      <trkpt lat="47.51641" lon="3.62552">
        <ele>254</ele>
        <time>2019-04-04T07:53:16Z</time>
      </trkpt>
      <trkpt lat="47.51638" lon="3.62558">
        <ele>253</ele>
        <time>2019-04-04T07:53:21Z</time>
      </trkpt>
      <trkpt lat="47.51636" lon="3.62565">
        <ele>253</ele>
        <time>2019-04-04T07:53:26Z</time>
      </trkpt>
      <trkpt lat="47.51634" lon="3.62571">
        <ele>253</ele>
        <time>2019-04-04T07:53:30Z</time>
      </trkpt>
      <trkpt lat="47.51633" lon="3.62574">
        <ele>253</ele>
        <time>2019-04-04T07:53:32Z</time>
      </trkpt>
      <trkpt lat="47.51632" lon="3.62575">
        <ele>253</ele>
        <time>2019-04-04T07:53:40Z</time>
      </trkpt>
      <trkpt lat="47.51631" lon="3.62583">
        <ele>254</ele>
        <time>2019-04-04T07:53:59Z</time>
      </trkpt>
      <trkpt lat="47.5163" lon="3.62587">
        <ele>254</ele>
        <time>2019-04-04T07:54:07Z</time>
      </trkpt>
      <trkpt lat="47.51629" lon="3.62591">
        <ele>253</ele>
        <time>2019-04-04T07:54:10Z</time>
      </trkpt>
      <trkpt lat="47.51626" lon="3.62599">
        <ele>253</ele>
        <time>2019-04-04T07:54:16Z</time>
      </trkpt>
      <trkpt lat="47.51624" lon="3.62605">
        <ele>252</ele>
        <time>2019-04-04T07:54:20Z</time>
      </trkpt>
      <trkpt lat="47.51621" lon="3.62612">
        <ele>252</ele>
        <time>2019-04-04T07:54:25Z</time>
      </trkpt>
      <trkpt lat="47.51619" lon="3.62615">
        <ele>253</ele>
        <time>2019-04-04T07:54:27Z</time>
      </trkpt>
      <trkpt lat="47.51617" lon="3.62621">
        <ele>253</ele>
        <time>2019-04-04T07:54:31Z</time>
      </trkpt>
      <trkpt lat="47.51616" lon="3.62625">
        <ele>253</ele>
        <time>2019-04-04T07:54:33Z</time>
      </trkpt>
      <trkpt lat="47.51615" lon="3.62628">
        <ele>253</ele>
        <time>2019-04-04T07:54:35Z</time>
      </trkpt>
      <trkpt lat="47.51614" lon="3.62632">
        <ele>253</ele>
        <time>2019-04-04T07:54:37Z</time>
      </trkpt>
      <trkpt lat="47.51613" lon="3.62638">
        <ele>253</ele>
        <time>2019-04-04T07:54:41Z</time>
      </trkpt>
      <trkpt lat="47.51612" lon="3.62642">
        <ele>253</ele>
        <time>2019-04-04T07:54:43Z</time>
      </trkpt>
      <trkpt lat="47.51611" lon="3.62646">
        <ele>254</ele>
        <time>2019-04-04T07:54:45Z</time>
      </trkpt>
      <trkpt lat="47.51608" lon="3.62652">
        <ele>254</ele>
        <time>2019-04-04T07:54:49Z</time>
      </trkpt>
      <trkpt lat="47.51606" lon="3.6266">
        <ele>254</ele>
        <time>2019-04-04T07:54:54Z</time>
      </trkpt>
      <trkpt lat="47.51604" lon="3.62666">
        <ele>253</ele>
        <time>2019-04-04T07:54:57Z</time>
      </trkpt>
      <trkpt lat="47.51603" lon="3.62671">
        <ele>254</ele>
        <time>2019-04-04T07:55:00Z</time>
      </trkpt>
      <trkpt lat="47.516" lon="3.62677">
        <ele>255</ele>
        <time>2019-04-04T07:55:04Z</time>
      </trkpt>
      <trkpt lat="47.51598" lon="3.62683">
        <ele>254</ele>
        <time>2019-04-04T07:55:08Z</time>
      </trkpt>
      <trkpt lat="47.51597" lon="3.62687">
        <ele>254</ele>
        <time>2019-04-04T07:55:10Z</time>
      </trkpt>
      <trkpt lat="47.51595" lon="3.62694">
        <ele>254</ele>
        <time>2019-04-04T07:55:14Z</time>
      </trkpt>
      <trkpt lat="47.51593" lon="3.627">
        <ele>254</ele>
        <time>2019-04-04T07:55:17Z</time>
      </trkpt>
      <trkpt lat="47.51591" lon="3.62707">
        <ele>254</ele>
        <time>2019-04-04T07:55:21Z</time>
      </trkpt>
      <trkpt lat="47.51588" lon="3.62715">
        <ele>254</ele>
        <time>2019-04-04T07:55:25Z</time>
      </trkpt>
      <trkpt lat="47.51587" lon="3.62719">
        <ele>253</ele>
        <time>2019-04-04T07:55:27Z</time>
      </trkpt>
      <trkpt lat="47.51586" lon="3.62726">
        <ele>254</ele>
        <time>2019-04-04T07:55:31Z</time>
      </trkpt>
      <trkpt lat="47.51585" lon="3.62729">
        <ele>253</ele>
        <time>2019-04-04T07:55:33Z</time>
      </trkpt>
      <trkpt lat="47.51583" lon="3.62735">
        <ele>253</ele>
        <time>2019-04-04T07:55:37Z</time>
      </trkpt>
      <trkpt lat="47.5158" lon="3.62743">
        <ele>253</ele>
        <time>2019-04-04T07:55:42Z</time>
      </trkpt>
      <trkpt lat="47.51579" lon="3.62747">
        <ele>254</ele>
        <time>2019-04-04T07:55:44Z</time>
      </trkpt>
      <trkpt lat="47.51578" lon="3.62754">
        <ele>253</ele>
        <time>2019-04-04T07:55:48Z</time>
      </trkpt>
      <trkpt lat="47.51576" lon="3.62761">
        <ele>253</ele>
        <time>2019-04-04T07:55:52Z</time>
      </trkpt>
      <trkpt lat="47.51575" lon="3.62765">
        <ele>252</ele>
        <time>2019-04-04T07:55:55Z</time>
      </trkpt>
      <trkpt lat="47.51574" lon="3.62769">
        <ele>252</ele>
        <time>2019-04-04T07:55:57Z</time>
      </trkpt>
      <trkpt lat="47.51573" lon="3.62772">
        <ele>252</ele>
        <time>2019-04-04T07:55:59Z</time>
      </trkpt>
      <trkpt lat="47.51572" lon="3.62776">
        <ele>252</ele>
        <time>2019-04-04T07:56:02Z</time>
      </trkpt>
      <trkpt lat="47.5157" lon="3.62784">
        <ele>251</ele>
        <time>2019-04-04T07:56:07Z</time>
      </trkpt>
      <trkpt lat="47.51567" lon="3.6279">
        <ele>252</ele>
        <time>2019-04-04T07:56:11Z</time>
      </trkpt>
      <trkpt lat="47.51565" lon="3.62798">
        <ele>252</ele>
        <time>2019-04-04T07:56:15Z</time>
      </trkpt>
      <trkpt lat="47.51563" lon="3.62805">
        <ele>251</ele>
        <time>2019-04-04T07:56:19Z</time>
      </trkpt>
      <trkpt lat="47.5156" lon="3.62814">
        <ele>251</ele>
        <time>2019-04-04T07:56:24Z</time>
      </trkpt>
      <trkpt lat="47.51558" lon="3.62819">
        <ele>250</ele>
        <time>2019-04-04T07:56:27Z</time>
      </trkpt>
      <trkpt lat="47.51555" lon="3.62825">
        <ele>250</ele>
        <time>2019-04-04T07:56:31Z</time>
      </trkpt>
      <trkpt lat="47.51554" lon="3.62828">
        <ele>250</ele>
        <time>2019-04-04T07:56:33Z</time>
      </trkpt>
      <trkpt lat="47.51553" lon="3.62836">
        <ele>249</ele>
        <time>2019-04-04T07:56:38Z</time>
      </trkpt>
      <trkpt lat="47.5155" lon="3.62843">
        <ele>248</ele>
        <time>2019-04-04T07:56:42Z</time>
      </trkpt>
      <trkpt lat="47.51549" lon="3.62847">
        <ele>248</ele>
        <time>2019-04-04T07:56:44Z</time>
      </trkpt>
      <trkpt lat="47.51547" lon="3.62854">
        <ele>247</ele>
        <time>2019-04-04T07:56:48Z</time>
      </trkpt>
      <trkpt lat="47.51546" lon="3.62859">
        <ele>247</ele>
        <time>2019-04-04T07:56:51Z</time>
      </trkpt>
      <trkpt lat="47.51545" lon="3.62863">
        <ele>247</ele>
        <time>2019-04-04T07:56:53Z</time>
      </trkpt>
      <trkpt lat="47.51543" lon="3.6287">
        <ele>246</ele>
        <time>2019-04-04T07:56:57Z</time>
      </trkpt>
      <trkpt lat="47.51542" lon="3.62873">
        <ele>247</ele>
        <time>2019-04-04T07:56:59Z</time>
      </trkpt>
      <trkpt lat="47.5154" lon="3.62878">
        <ele>247</ele>
        <time>2019-04-04T07:57:02Z</time>
      </trkpt>
      <trkpt lat="47.51538" lon="3.62884">
        <ele>247</ele>
        <time>2019-04-04T07:57:06Z</time>
      </trkpt>
      <trkpt lat="47.51536" lon="3.62892">
        <ele>247</ele>
        <time>2019-04-04T07:57:10Z</time>
      </trkpt>
      <trkpt lat="47.51535" lon="3.62898">
        <ele>247</ele>
        <time>2019-04-04T07:57:14Z</time>
      </trkpt>
      <trkpt lat="47.51534" lon="3.62904">
        <ele>246</ele>
        <time>2019-04-04T07:57:18Z</time>
      </trkpt>
      <trkpt lat="47.51533" lon="3.62912">
        <ele>247</ele>
        <time>2019-04-04T07:57:23Z</time>
      </trkpt>
      <trkpt lat="47.5153" lon="3.62919">
        <ele>247</ele>
        <time>2019-04-04T07:57:27Z</time>
      </trkpt>
      <trkpt lat="47.51529" lon="3.62925">
        <ele>248</ele>
        <time>2019-04-04T07:57:31Z</time>
      </trkpt>
      <trkpt lat="47.51528" lon="3.62929">
        <ele>247</ele>
        <time>2019-04-04T07:57:33Z</time>
      </trkpt>
      <trkpt lat="47.51527" lon="3.62933">
        <ele>247</ele>
        <time>2019-04-04T07:57:35Z</time>
      </trkpt>
      <trkpt lat="47.51526" lon="3.62936">
        <ele>247</ele>
        <time>2019-04-04T07:57:37Z</time>
      </trkpt>
      <trkpt lat="47.51524" lon="3.6294">
        <ele>247</ele>
        <time>2019-04-04T07:57:39Z</time>
      </trkpt>
      <trkpt lat="47.51522" lon="3.62948">
        <ele>248</ele>
        <time>2019-04-04T07:57:44Z</time>
      </trkpt>
      <trkpt lat="47.51521" lon="3.62951">
        <ele>247</ele>
        <time>2019-04-04T07:57:46Z</time>
      </trkpt>
      <trkpt lat="47.5152" lon="3.62955">
        <ele>247</ele>
        <time>2019-04-04T07:57:48Z</time>
      </trkpt>
      <trkpt lat="47.51519" lon="3.62958">
        <ele>246</ele>
        <time>2019-04-04T07:57:50Z</time>
      </trkpt>
      <trkpt lat="47.51518" lon="3.62962">
        <ele>246</ele>
        <time>2019-04-04T07:57:53Z</time>
      </trkpt>
      <trkpt lat="47.51516" lon="3.62968">
        <ele>247</ele>
        <time>2019-04-04T07:57:56Z</time>
      </trkpt>
      <trkpt lat="47.51514" lon="3.62977">
        <ele>248</ele>
        <time>2019-04-04T07:58:01Z</time>
      </trkpt>
      <trkpt lat="47.51513" lon="3.62982">
        <ele>248</ele>
        <time>2019-04-04T07:58:04Z</time>
      </trkpt>
      <trkpt lat="47.51511" lon="3.62989">
        <ele>249</ele>
        <time>2019-04-04T07:58:08Z</time>
      </trkpt>
      <trkpt lat="47.51508" lon="3.62995">
        <ele>248</ele>
        <time>2019-04-04T07:58:12Z</time>
      </trkpt>
      <trkpt lat="47.51506" lon="3.63003">
        <ele>248</ele>
        <time>2019-04-04T07:58:16Z</time>
      </trkpt>
      <trkpt lat="47.51505" lon="3.63006">
        <ele>247</ele>
        <time>2019-04-04T07:58:18Z</time>
      </trkpt>
      <trkpt lat="47.51503" lon="3.6301">
        <ele>248</ele>
        <time>2019-04-04T07:58:22Z</time>
      </trkpt>
      <trkpt lat="47.51499" lon="3.63014">
        <ele>248</ele>
        <time>2019-04-04T07:58:26Z</time>
      </trkpt>
      <trkpt lat="47.51494" lon="3.63015">
        <ele>250</ele>
        <time>2019-04-04T07:58:32Z</time>
      </trkpt>
      <trkpt lat="47.51489" lon="3.63016">
        <ele>251</ele>
        <time>2019-04-04T07:58:36Z</time>
      </trkpt>
      <trkpt lat="47.51485" lon="3.63017">
        <ele>251</ele>
        <time>2019-04-04T07:58:39Z</time>
      </trkpt>
      <trkpt lat="47.51481" lon="3.63018">
        <ele>251</ele>
        <time>2019-04-04T07:58:43Z</time>
      </trkpt>
      <trkpt lat="47.51476" lon="3.6302">
        <ele>251</ele>
        <time>2019-04-04T07:58:47Z</time>
      </trkpt>
      <trkpt lat="47.51472" lon="3.63021">
        <ele>250</ele>
        <time>2019-04-04T07:58:51Z</time>
      </trkpt>
      <trkpt lat="47.51467" lon="3.63021">
        <ele>250</ele>
        <time>2019-04-04T07:58:55Z</time>
      </trkpt>
      <trkpt lat="47.51461" lon="3.63021">
        <ele>250</ele>
        <time>2019-04-04T07:58:59Z</time>
      </trkpt>
      <trkpt lat="47.51459" lon="3.6302">
        <ele>250</ele>
        <time>2019-04-04T07:59:01Z</time>
      </trkpt>
      <trkpt lat="47.51454" lon="3.6302">
        <ele>251</ele>
        <time>2019-04-04T07:59:05Z</time>
      </trkpt>
      <trkpt lat="47.51452" lon="3.63019">
        <ele>251</ele>
        <time>2019-04-04T07:59:07Z</time>
      </trkpt>
      <trkpt lat="47.51448" lon="3.63019">
        <ele>251</ele>
        <time>2019-04-04T07:59:10Z</time>
      </trkpt>
      <trkpt lat="47.51443" lon="3.63018">
        <ele>251</ele>
        <time>2019-04-04T07:59:14Z</time>
      </trkpt>
      <trkpt lat="47.5144" lon="3.63017">
        <ele>251</ele>
        <time>2019-04-04T07:59:17Z</time>
      </trkpt>
      <trkpt lat="47.51435" lon="3.63017">
        <ele>251</ele>
        <time>2019-04-04T07:59:22Z</time>
      </trkpt>
      <trkpt lat="47.5143" lon="3.63015">
        <ele>250</ele>
        <time>2019-04-04T07:59:25Z</time>
      </trkpt>
      <trkpt lat="47.51426" lon="3.63013">
        <ele>250</ele>
        <time>2019-04-04T07:59:29Z</time>
      </trkpt>
      <trkpt lat="47.5142" lon="3.63011">
        <ele>250</ele>
        <time>2019-04-04T07:59:34Z</time>
      </trkpt>
      <trkpt lat="47.51415" lon="3.63009">
        <ele>250</ele>
        <time>2019-04-04T07:59:39Z</time>
      </trkpt>
      <trkpt lat="47.51412" lon="3.63008">
        <ele>250</ele>
        <time>2019-04-04T07:59:41Z</time>
      </trkpt>
      <trkpt lat="47.51408" lon="3.63006">
        <ele>250</ele>
        <time>2019-04-04T07:59:45Z</time>
      </trkpt>
      <trkpt lat="47.51403" lon="3.63004">
        <ele>249</ele>
        <time>2019-04-04T07:59:49Z</time>
      </trkpt>
      <trkpt lat="47.51397" lon="3.63002">
        <ele>250</ele>
        <time>2019-04-04T07:59:53Z</time>
      </trkpt>
      <trkpt lat="47.51395" lon="3.63002">
        <ele>250</ele>
        <time>2019-04-04T07:59:55Z</time>
      </trkpt>
      <trkpt lat="47.51391" lon="3.63">
        <ele>249</ele>
        <time>2019-04-04T07:59:58Z</time>
      </trkpt>
      <trkpt lat="47.51388" lon="3.62998">
        <ele>249</ele>
        <time>2019-04-04T08:00:01Z</time>
      </trkpt>
      <trkpt lat="47.51383" lon="3.62996">
        <ele>249</ele>
        <time>2019-04-04T08:00:05Z</time>
      </trkpt>
      <trkpt lat="47.51379" lon="3.62995">
        <ele>251</ele>
        <time>2019-04-04T08:00:08Z</time>
      </trkpt>
      <trkpt lat="47.51375" lon="3.62994">
        <ele>250</ele>
        <time>2019-04-04T08:00:12Z</time>
      </trkpt>
      <trkpt lat="47.5137" lon="3.62992">
        <ele>250</ele>
        <time>2019-04-04T08:00:18Z</time>
      </trkpt>
      <trkpt lat="47.51368" lon="3.62992">
        <ele>250</ele>
        <time>2019-04-04T08:00:20Z</time>
      </trkpt>
      <trkpt lat="47.51363" lon="3.62992">
        <ele>250</ele>
        <time>2019-04-04T08:00:25Z</time>
      </trkpt>
      <trkpt lat="47.51358" lon="3.62988">
        <ele>249</ele>
        <time>2019-04-04T08:00:29Z</time>
      </trkpt>
      <trkpt lat="47.51355" lon="3.62986">
        <ele>250</ele>
        <time>2019-04-04T08:00:33Z</time>
      </trkpt>
      <trkpt lat="47.5135" lon="3.62982">
        <ele>250</ele>
        <time>2019-04-04T08:00:39Z</time>
      </trkpt>
      <trkpt lat="47.51346" lon="3.62979">
        <ele>249</ele>
        <time>2019-04-04T08:00:41Z</time>
      </trkpt>
      <trkpt lat="47.51343" lon="3.62978">
        <ele>249</ele>
        <time>2019-04-04T08:00:43Z</time>
      </trkpt>
      <trkpt lat="47.51341" lon="3.62977">
        <ele>249</ele>
        <time>2019-04-04T08:00:46Z</time>
      </trkpt>
      <trkpt lat="47.51339" lon="3.62976">
        <ele>249</ele>
        <time>2019-04-04T08:00:48Z</time>
      </trkpt>
      <trkpt lat="47.51334" lon="3.62974">
        <ele>249</ele>
        <time>2019-04-04T08:00:53Z</time>
      </trkpt>
      <trkpt lat="47.51332" lon="3.62972">
        <ele>249</ele>
        <time>2019-04-04T08:00:55Z</time>
      </trkpt>
      <trkpt lat="47.51329" lon="3.6297">
        <ele>249</ele>
        <time>2019-04-04T08:00:59Z</time>
      </trkpt>
      <trkpt lat="47.51325" lon="3.62968">
        <ele>248</ele>
        <time>2019-04-04T08:01:03Z</time>
      </trkpt>
      <trkpt lat="47.51322" lon="3.62965">
        <ele>248</ele>
        <time>2019-04-04T08:01:07Z</time>
      </trkpt>
      <trkpt lat="47.51318" lon="3.6296">
        <ele>248</ele>
        <time>2019-04-04T08:01:12Z</time>
      </trkpt>
      <trkpt lat="47.51313" lon="3.62957">
        <ele>247</ele>
        <time>2019-04-04T08:01:17Z</time>
      </trkpt>
      <trkpt lat="47.51311" lon="3.62956">
        <ele>247</ele>
        <time>2019-04-04T08:01:19Z</time>
      </trkpt>
      <trkpt lat="47.51306" lon="3.62952">
        <ele>247</ele>
        <time>2019-04-04T08:01:23Z</time>
      </trkpt>
      <trkpt lat="47.51303" lon="3.62949">
        <ele>247</ele>
        <time>2019-04-04T08:01:26Z</time>
      </trkpt>
      <trkpt lat="47.51301" lon="3.62948">
        <ele>246</ele>
        <time>2019-04-04T08:01:28Z</time>
      </trkpt>
      <trkpt lat="47.51297" lon="3.62944">
        <ele>246</ele>
        <time>2019-04-04T08:01:32Z</time>
      </trkpt>
      <trkpt lat="47.51295" lon="3.62942">
        <ele>246</ele>
        <time>2019-04-04T08:01:34Z</time>
      </trkpt>
      <trkpt lat="47.5129" lon="3.62939">
        <ele>247</ele>
        <time>2019-04-04T08:01:39Z</time>
      </trkpt>
      <trkpt lat="47.51286" lon="3.62935">
        <ele>248</ele>
        <time>2019-04-04T08:01:43Z</time>
      </trkpt>
      <trkpt lat="47.51283" lon="3.62933">
        <ele>247</ele>
        <time>2019-04-04T08:01:46Z</time>
      </trkpt>
      <trkpt lat="47.51278" lon="3.6293">
        <ele>247</ele>
        <time>2019-04-04T08:01:51Z</time>
      </trkpt>
      <trkpt lat="47.51274" lon="3.62928">
        <ele>247</ele>
        <time>2019-04-04T08:01:55Z</time>
      </trkpt>
      <trkpt lat="47.51269" lon="3.62927">
        <ele>248</ele>
        <time>2019-04-04T08:02:03Z</time>
      </trkpt>
      <trkpt lat="47.51264" lon="3.62922">
        <ele>248</ele>
        <time>2019-04-04T08:02:09Z</time>
      </trkpt>
      <trkpt lat="47.51259" lon="3.62921">
        <ele>249</ele>
        <time>2019-04-04T08:02:14Z</time>
      </trkpt>
      <trkpt lat="47.51253" lon="3.62917">
        <ele>248</ele>
        <time>2019-04-04T08:02:19Z</time>
      </trkpt>
      <trkpt lat="47.5125" lon="3.62915">
        <ele>249</ele>
        <time>2019-04-04T08:02:21Z</time>
      </trkpt>
      <trkpt lat="47.51245" lon="3.6291">
        <ele>249</ele>
        <time>2019-04-04T08:02:25Z</time>
      </trkpt>
      <trkpt lat="47.51242" lon="3.62908">
        <ele>249</ele>
        <time>2019-04-04T08:02:27Z</time>
      </trkpt>
      <trkpt lat="47.51238" lon="3.62906">
        <ele>249</ele>
        <time>2019-04-04T08:02:31Z</time>
      </trkpt>
      <trkpt lat="47.51233" lon="3.62902">
        <ele>249</ele>
        <time>2019-04-04T08:02:35Z</time>
      </trkpt>
      <trkpt lat="47.51229" lon="3.62899">
        <ele>250</ele>
        <time>2019-04-04T08:02:39Z</time>
      </trkpt>
      <trkpt lat="47.51225" lon="3.62895">
        <ele>251</ele>
        <time>2019-04-04T08:02:42Z</time>
      </trkpt>
      <trkpt lat="47.51223" lon="3.62893">
        <ele>251</ele>
        <time>2019-04-04T08:02:44Z</time>
      </trkpt>
      <trkpt lat="47.5122" lon="3.62891">
        <ele>251</ele>
        <time>2019-04-04T08:02:47Z</time>
      </trkpt>
      <trkpt lat="47.51217" lon="3.62889">
        <ele>250</ele>
        <time>2019-04-04T08:02:49Z</time>
      </trkpt>
      <trkpt lat="47.51212" lon="3.62885">
        <ele>250</ele>
        <time>2019-04-04T08:02:53Z</time>
      </trkpt>
      <trkpt lat="47.5121" lon="3.62884">
        <ele>251</ele>
        <time>2019-04-04T08:02:55Z</time>
      </trkpt>
      <trkpt lat="47.51207" lon="3.62881">
        <ele>251</ele>
        <time>2019-04-04T08:02:58Z</time>
      </trkpt>
      <trkpt lat="47.51202" lon="3.62879">
        <ele>251</ele>
        <time>2019-04-04T08:03:02Z</time>
      </trkpt>
      <trkpt lat="47.51197" lon="3.62875">
        <ele>251</ele>
        <time>2019-04-04T08:03:06Z</time>
      </trkpt>
      <trkpt lat="47.51193" lon="3.6287">
        <ele>252</ele>
        <time>2019-04-04T08:03:11Z</time>
      </trkpt>
      <trkpt lat="47.5119" lon="3.62868">
        <ele>252</ele>
        <time>2019-04-04T08:03:13Z</time>
      </trkpt>
      <trkpt lat="47.51185" lon="3.62864">
        <ele>254</ele>
        <time>2019-04-04T08:03:17Z</time>
      </trkpt>
      <trkpt lat="47.51179" lon="3.62862">
        <ele>253</ele>
        <time>2019-04-04T08:03:21Z</time>
      </trkpt>
      <trkpt lat="47.51177" lon="3.62861">
        <ele>254</ele>
        <time>2019-04-04T08:03:23Z</time>
      </trkpt>
      <trkpt lat="47.51172" lon="3.6286">
        <ele>254</ele>
        <time>2019-04-04T08:03:27Z</time>
      </trkpt>
      <trkpt lat="47.51167" lon="3.62858">
        <ele>255</ele>
        <time>2019-04-04T08:03:32Z</time>
      </trkpt>
      <trkpt lat="47.51164" lon="3.62857">
        <ele>255</ele>
        <time>2019-04-04T08:03:34Z</time>
      </trkpt>
      <trkpt lat="47.51161" lon="3.62856">
        <ele>255</ele>
        <time>2019-04-04T08:03:37Z</time>
      </trkpt>
      <trkpt lat="47.51156" lon="3.62853">
        <ele>256</ele>
        <time>2019-04-04T08:03:42Z</time>
      </trkpt>
      <trkpt lat="47.51151" lon="3.62855">
        <ele>258</ele>
        <time>2019-04-04T08:03:48Z</time>
      </trkpt>
      <trkpt lat="47.51148" lon="3.62851">
        <ele>258</ele>
        <time>2019-04-04T08:03:51Z</time>
      </trkpt>
      <trkpt lat="47.51145" lon="3.62849">
        <ele>258</ele>
        <time>2019-04-04T08:03:53Z</time>
      </trkpt>
      <trkpt lat="47.5114" lon="3.62847">
        <ele>260</ele>
        <time>2019-04-04T08:03:58Z</time>
      </trkpt>
      <trkpt lat="47.51138" lon="3.62845">
        <ele>261</ele>
        <time>2019-04-04T08:04:01Z</time>
      </trkpt>
      <trkpt lat="47.51136" lon="3.62844">
        <ele>261</ele>
        <time>2019-04-04T08:04:02Z</time>
      </trkpt>
      <trkpt lat="47.51131" lon="3.62844">
        <ele>262</ele>
        <time>2019-04-04T08:04:05Z</time>
      </trkpt>
      <trkpt lat="47.51125" lon="3.62847">
        <ele>262</ele>
        <time>2019-04-04T08:04:09Z</time>
      </trkpt>
      <trkpt lat="47.51122" lon="3.62848">
        <ele>261</ele>
        <time>2019-04-04T08:04:11Z</time>
      </trkpt>
      <trkpt lat="47.51116" lon="3.62847">
        <ele>262</ele>
        <time>2019-04-04T08:04:15Z</time>
      </trkpt>
      <trkpt lat="47.51112" lon="3.62847">
        <ele>262</ele>
        <time>2019-04-04T08:04:19Z</time>
      </trkpt>
      <trkpt lat="47.51107" lon="3.62846">
        <ele>264</ele>
        <time>2019-04-04T08:04:22Z</time>
      </trkpt>
      <trkpt lat="47.51101" lon="3.62845">
        <ele>265</ele>
        <time>2019-04-04T08:04:27Z</time>
      </trkpt>
      <trkpt lat="47.51099" lon="3.62844">
        <ele>264</ele>
        <time>2019-04-04T08:04:29Z</time>
      </trkpt>
      <trkpt lat="47.51096" lon="3.62843">
        <ele>265</ele>
        <time>2019-04-04T08:04:31Z</time>
      </trkpt>
      <trkpt lat="47.51093" lon="3.62847">
        <ele>264</ele>
        <time>2019-04-04T08:04:39Z</time>
      </trkpt>
      <trkpt lat="47.51088" lon="3.62845">
        <ele>261</ele>
        <time>2019-04-04T08:19:22Z</time>
      </trkpt>
      <trkpt lat="47.51085" lon="3.62844">
        <ele>260</ele>
        <time>2019-04-04T08:19:27Z</time>
      </trkpt>
      <trkpt lat="47.51083" lon="3.62843">
        <ele>261</ele>
        <time>2019-04-04T08:19:31Z</time>
      </trkpt>
      <trkpt lat="47.51077" lon="3.62841">
        <ele>263</ele>
        <time>2019-04-04T08:19:37Z</time>
      </trkpt>
      <trkpt lat="47.51072" lon="3.62841">
        <ele>265</ele>
        <time>2019-04-04T08:19:41Z</time>
      </trkpt>
      <trkpt lat="47.51068" lon="3.62841">
        <ele>264</ele>
        <time>2019-04-04T08:19:46Z</time>
      </trkpt>
      <trkpt lat="47.51065" lon="3.62842">
        <ele>263</ele>
        <time>2019-04-04T08:19:49Z</time>
      </trkpt>
      <trkpt lat="47.51063" lon="3.62842">
        <ele>264</ele>
        <time>2019-04-04T08:19:52Z</time>
      </trkpt>
      <trkpt lat="47.51058" lon="3.62842">
        <ele>265</ele>
        <time>2019-04-04T08:19:58Z</time>
      </trkpt>
      <trkpt lat="47.51052" lon="3.62842">
        <ele>266</ele>
        <time>2019-04-04T08:20:03Z</time>
      </trkpt>
      <trkpt lat="47.51047" lon="3.62842">
        <ele>267</ele>
        <time>2019-04-04T08:20:08Z</time>
      </trkpt>
      <trkpt lat="47.51042" lon="3.62843">
        <ele>266</ele>
        <time>2019-04-04T08:20:12Z</time>
      </trkpt>
      <trkpt lat="47.51036" lon="3.6284">
        <ele>267</ele>
        <time>2019-04-04T08:20:18Z</time>
      </trkpt>
      <trkpt lat="47.51033" lon="3.62838">
        <ele>268</ele>
        <time>2019-04-04T08:20:20Z</time>
      </trkpt>
      <trkpt lat="47.51028" lon="3.62838">
        <ele>268</ele>
        <time>2019-04-04T08:20:26Z</time>
      </trkpt>
      <trkpt lat="47.51022" lon="3.62837">
        <ele>269</ele>
        <time>2019-04-04T08:20:30Z</time>
      </trkpt>
      <trkpt lat="47.51018" lon="3.62835">
        <ele>269</ele>
        <time>2019-04-04T08:20:32Z</time>
      </trkpt>
      <trkpt lat="47.51013" lon="3.62835">
        <ele>269</ele>
        <time>2019-04-04T08:20:38Z</time>
      </trkpt>
      <trkpt lat="47.51008" lon="3.62835">
        <ele>269</ele>
        <time>2019-04-04T08:20:41Z</time>
      </trkpt>
      <trkpt lat="47.51003" lon="3.62837">
        <ele>269</ele>
        <time>2019-04-04T08:20:45Z</time>
      </trkpt>
      <trkpt lat="47.50997" lon="3.62837">
        <ele>267</ele>
        <time>2019-04-04T08:20:50Z</time>
      </trkpt>
      <trkpt lat="47.50994" lon="3.62837">
        <ele>268</ele>
        <time>2019-04-04T08:20:54Z</time>
      </trkpt>
      <trkpt lat="47.50989" lon="3.62835">
        <ele>268</ele>
        <time>2019-04-04T08:20:58Z</time>
      </trkpt>
      <trkpt lat="47.50984" lon="3.62835">
        <ele>269</ele>
        <time>2019-04-04T08:21:04Z</time>
      </trkpt>
      <trkpt lat="47.50979" lon="3.62834">
        <ele>270</ele>
        <time>2019-04-04T08:21:09Z</time>
      </trkpt>
      <trkpt lat="47.50977" lon="3.62833">
        <ele>270</ele>
        <time>2019-04-04T08:21:12Z</time>
      </trkpt>
      <trkpt lat="47.50972" lon="3.62833">
        <ele>270</ele>
        <time>2019-04-04T08:21:16Z</time>
      </trkpt>
      <trkpt lat="47.50967" lon="3.62835">
        <ele>270</ele>
        <time>2019-04-04T08:21:21Z</time>
      </trkpt>
      <trkpt lat="47.50961" lon="3.62834">
        <ele>269</ele>
        <time>2019-04-04T08:21:25Z</time>
      </trkpt>
      <trkpt lat="47.50956" lon="3.62836">
        <ele>269</ele>
        <time>2019-04-04T08:21:29Z</time>
      </trkpt>
      <trkpt lat="47.5095" lon="3.62835">
        <ele>269</ele>
        <time>2019-04-04T08:21:36Z</time>
      </trkpt>
      <trkpt lat="47.50947" lon="3.62835">
        <ele>269</ele>
        <time>2019-04-04T08:21:38Z</time>
      </trkpt>
      <trkpt lat="47.50944" lon="3.62834">
        <ele>269</ele>
        <time>2019-04-04T08:21:40Z</time>
      </trkpt>
      <trkpt lat="47.5094" lon="3.62834">
        <ele>269</ele>
        <time>2019-04-04T08:21:43Z</time>
      </trkpt>
      <trkpt lat="47.50937" lon="3.62833">
        <ele>269</ele>
        <time>2019-04-04T08:21:46Z</time>
      </trkpt>
      <trkpt lat="47.50933" lon="3.62834">
        <ele>268</ele>
        <time>2019-04-04T08:21:50Z</time>
      </trkpt>
      <trkpt lat="47.50927" lon="3.62834">
        <ele>269</ele>
        <time>2019-04-04T08:21:54Z</time>
      </trkpt>
      <trkpt lat="47.50923" lon="3.62835">
        <ele>269</ele>
        <time>2019-04-04T08:21:57Z</time>
      </trkpt>
      <trkpt lat="47.50918" lon="3.62836">
        <ele>267</ele>
        <time>2019-04-04T08:22:01Z</time>
      </trkpt>
      <trkpt lat="47.50915" lon="3.62836">
        <ele>267</ele>
        <time>2019-04-04T08:22:04Z</time>
      </trkpt>
      <trkpt lat="47.5091" lon="3.62834">
        <ele>267</ele>
        <time>2019-04-04T08:22:10Z</time>
      </trkpt>
      <trkpt lat="47.50905" lon="3.62833">
        <ele>267</ele>
        <time>2019-04-04T08:22:13Z</time>
      </trkpt>
      <trkpt lat="47.509" lon="3.62833">
        <ele>267</ele>
        <time>2019-04-04T08:22:17Z</time>
      </trkpt>
      <trkpt lat="47.50895" lon="3.62834">
        <ele>268</ele>
        <time>2019-04-04T08:22:21Z</time>
      </trkpt>
      <trkpt lat="47.50892" lon="3.62834">
        <ele>268</ele>
        <time>2019-04-04T08:22:23Z</time>
      </trkpt>
      <trkpt lat="47.50888" lon="3.62834">
        <ele>267</ele>
        <time>2019-04-04T08:22:27Z</time>
      </trkpt>
      <trkpt lat="47.50885" lon="3.62833">
        <ele>266</ele>
        <time>2019-04-04T08:22:30Z</time>
      </trkpt>
      <trkpt lat="47.50879" lon="3.62832">
        <ele>266</ele>
        <time>2019-04-04T08:22:35Z</time>
      </trkpt>
      <trkpt lat="47.50875" lon="3.62831">
        <ele>266</ele>
        <time>2019-04-04T08:22:39Z</time>
      </trkpt>
      <trkpt lat="47.5087" lon="3.62832">
        <ele>267</ele>
        <time>2019-04-04T08:22:44Z</time>
      </trkpt>
      <trkpt lat="47.50865" lon="3.6283">
        <ele>266</ele>
        <time>2019-04-04T08:22:48Z</time>
      </trkpt>
      <trkpt lat="47.5086" lon="3.6283">
        <ele>265</ele>
        <time>2019-04-04T08:22:52Z</time>
      </trkpt>
      <trkpt lat="47.50857" lon="3.6283">
        <ele>265</ele>
        <time>2019-04-04T08:22:54Z</time>
      </trkpt>
      <trkpt lat="47.50853" lon="3.62829">
        <ele>266</ele>
        <time>2019-04-04T08:22:57Z</time>
      </trkpt>
      <trkpt lat="47.50849" lon="3.62829">
        <ele>266</ele>
        <time>2019-04-04T08:23:00Z</time>
      </trkpt>
      <trkpt lat="47.50845" lon="3.62829">
        <ele>266</ele>
        <time>2019-04-04T08:23:03Z</time>
      </trkpt>
      <trkpt lat="47.50842" lon="3.62828">
        <ele>266</ele>
        <time>2019-04-04T08:23:06Z</time>
      </trkpt>
      <trkpt lat="47.5084" lon="3.62828">
        <ele>266</ele>
        <time>2019-04-04T08:23:08Z</time>
      </trkpt>
      <trkpt lat="47.50836" lon="3.62827">
        <ele>265</ele>
        <time>2019-04-04T08:23:11Z</time>
      </trkpt>
      <trkpt lat="47.50831" lon="3.62826">
        <ele>265</ele>
        <time>2019-04-04T08:23:15Z</time>
      </trkpt>
      <trkpt lat="47.50826" lon="3.62827">
        <ele>266</ele>
        <time>2019-04-04T08:23:19Z</time>
      </trkpt>
      <trkpt lat="47.50821" lon="3.62829">
        <ele>266</ele>
        <time>2019-04-04T08:23:23Z</time>
      </trkpt>
      <trkpt lat="47.50815" lon="3.62828">
        <ele>265</ele>
        <time>2019-04-04T08:23:29Z</time>
      </trkpt>
      <trkpt lat="47.50809" lon="3.62829">
        <ele>262</ele>
        <time>2019-04-04T08:23:36Z</time>
      </trkpt>
      <trkpt lat="47.50806" lon="3.62829">
        <ele>264</ele>
        <time>2019-04-04T08:23:39Z</time>
      </trkpt>
      <trkpt lat="47.508" lon="3.62827">
        <ele>265</ele>
        <time>2019-04-04T08:23:43Z</time>
      </trkpt>
      <trkpt lat="47.50798" lon="3.62826">
        <ele>265</ele>
        <time>2019-04-04T08:23:45Z</time>
      </trkpt>
      <trkpt lat="47.50793" lon="3.62825">
        <ele>265</ele>
        <time>2019-04-04T08:23:48Z</time>
      </trkpt>
      <trkpt lat="47.5079" lon="3.62823">
        <ele>266</ele>
        <time>2019-04-04T08:23:51Z</time>
      </trkpt>
      <trkpt lat="47.50787" lon="3.62822">
        <ele>267</ele>
        <time>2019-04-04T08:23:54Z</time>
      </trkpt>
      <trkpt lat="47.50784" lon="3.62821">
        <ele>267</ele>
        <time>2019-04-04T08:23:56Z</time>
      </trkpt>
      <trkpt lat="47.50779" lon="3.62818">
        <ele>268</ele>
        <time>2019-04-04T08:24:00Z</time>
      </trkpt>
      <trkpt lat="47.50774" lon="3.62817">
        <ele>271</ele>
        <time>2019-04-04T08:24:05Z</time>
      </trkpt>
      <trkpt lat="47.50769" lon="3.62821">
        <ele>270</ele>
        <time>2019-04-04T08:24:10Z</time>
      </trkpt>
      <trkpt lat="47.50764" lon="3.62819">
        <ele>270</ele>
        <time>2019-04-04T08:24:17Z</time>
      </trkpt>
      <trkpt lat="47.50759" lon="3.62816">
        <ele>271</ele>
        <time>2019-04-04T08:24:22Z</time>
      </trkpt>
      <trkpt lat="47.50755" lon="3.62815">
        <ele>272</ele>
        <time>2019-04-04T08:24:26Z</time>
      </trkpt>
      <trkpt lat="47.5075" lon="3.62812">
        <ele>273</ele>
        <time>2019-04-04T08:24:30Z</time>
      </trkpt>
      <trkpt lat="47.50746" lon="3.6281">
        <ele>275</ele>
        <time>2019-04-04T08:24:34Z</time>
      </trkpt>
      <trkpt lat="47.50741" lon="3.62809">
        <ele>276</ele>
        <time>2019-04-04T08:24:39Z</time>
      </trkpt>
      <trkpt lat="47.50736" lon="3.62806">
        <ele>276</ele>
        <time>2019-04-04T08:24:43Z</time>
      </trkpt>
      <trkpt lat="47.50731" lon="3.62804">
        <ele>277</ele>
        <time>2019-04-04T08:24:48Z</time>
      </trkpt>
      <trkpt lat="47.50726" lon="3.62802">
        <ele>277</ele>
        <time>2019-04-04T08:24:51Z</time>
      </trkpt>
      <trkpt lat="47.50724" lon="3.62801">
        <ele>276</ele>
        <time>2019-04-04T08:24:53Z</time>
      </trkpt>
      <trkpt lat="47.50719" lon="3.62801">
        <ele>275</ele>
        <time>2019-04-04T08:24:57Z</time>
      </trkpt>
      <trkpt lat="47.50716" lon="3.628">
        <ele>275</ele>
        <time>2019-04-04T08:25:00Z</time>
      </trkpt>
      <trkpt lat="47.50711" lon="3.62801">
        <ele>275</ele>
        <time>2019-04-04T08:25:04Z</time>
      </trkpt>
      <trkpt lat="47.50704" lon="3.628">
        <ele>273</ele>
        <time>2019-04-04T08:25:09Z</time>
      </trkpt>
      <trkpt lat="47.50698" lon="3.62799">
        <ele>273</ele>
        <time>2019-04-04T08:25:13Z</time>
      </trkpt>
      <trkpt lat="47.50695" lon="3.62799">
        <ele>272</ele>
        <time>2019-04-04T08:25:15Z</time>
      </trkpt>
      <trkpt lat="47.50692" lon="3.62799">
        <ele>273</ele>
        <time>2019-04-04T08:25:17Z</time>
      </trkpt>
      <trkpt lat="47.50687" lon="3.628">
        <ele>274</ele>
        <time>2019-04-04T08:25:21Z</time>
      </trkpt>
      <trkpt lat="47.5068" lon="3.628">
        <ele>272</ele>
        <time>2019-04-04T08:25:28Z</time>
      </trkpt>
      <trkpt lat="47.50675" lon="3.628">
        <ele>272</ele>
        <time>2019-04-04T08:25:32Z</time>
      </trkpt>
      <trkpt lat="47.5067" lon="3.62799">
        <ele>271</ele>
        <time>2019-04-04T08:25:36Z</time>
      </trkpt>
      <trkpt lat="47.50665" lon="3.62796">
        <ele>271</ele>
        <time>2019-04-04T08:25:39Z</time>
      </trkpt>
      <trkpt lat="47.50659" lon="3.62793">
        <ele>272</ele>
        <time>2019-04-04T08:25:44Z</time>
      </trkpt>
      <trkpt lat="47.50652" lon="3.62791">
        <ele>271</ele>
        <time>2019-04-04T08:25:49Z</time>
      </trkpt>
      <trkpt lat="47.50647" lon="3.62792">
        <ele>272</ele>
        <time>2019-04-04T08:25:54Z</time>
      </trkpt>
      <trkpt lat="47.50641" lon="3.62792">
        <ele>272</ele>
        <time>2019-04-04T08:25:58Z</time>
      </trkpt>
      <trkpt lat="47.50638" lon="3.62792">
        <ele>272</ele>
        <time>2019-04-04T08:26:00Z</time>
      </trkpt>
      <trkpt lat="47.50632" lon="3.62794">
        <ele>270</ele>
        <time>2019-04-04T08:26:05Z</time>
      </trkpt>
      <trkpt lat="47.50628" lon="3.62793">
        <ele>269</ele>
        <time>2019-04-04T08:26:08Z</time>
      </trkpt>
      <trkpt lat="47.50622" lon="3.6279">
        <ele>268</ele>
        <time>2019-04-04T08:26:14Z</time>
      </trkpt>
      <trkpt lat="47.50617" lon="3.62789">
        <ele>269</ele>
        <time>2019-04-04T08:26:19Z</time>
      </trkpt>
      <trkpt lat="47.50611" lon="3.62785">
        <ele>270</ele>
        <time>2019-04-04T08:26:24Z</time>
      </trkpt>
      <trkpt lat="47.50609" lon="3.62783">
        <ele>271</ele>
        <time>2019-04-04T08:26:26Z</time>
      </trkpt>
      <trkpt lat="47.50605" lon="3.62779">
        <ele>270</ele>
        <time>2019-04-04T08:26:31Z</time>
      </trkpt>
      <trkpt lat="47.506" lon="3.62776">
        <ele>269</ele>
        <time>2019-04-04T08:26:35Z</time>
      </trkpt>
      <trkpt lat="47.50595" lon="3.62773">
        <ele>270</ele>
        <time>2019-04-04T08:26:40Z</time>
      </trkpt>
      <trkpt lat="47.5059" lon="3.6277">
        <ele>271</ele>
        <time>2019-04-04T08:26:45Z</time>
      </trkpt>
      <trkpt lat="47.50588" lon="3.62768">
        <ele>271</ele>
        <time>2019-04-04T08:26:47Z</time>
      </trkpt>
      <trkpt lat="47.50583" lon="3.62766">
        <ele>272</ele>
        <time>2019-04-04T08:26:51Z</time>
      </trkpt>
      <trkpt lat="47.50578" lon="3.62761">
        <ele>274</ele>
        <time>2019-04-04T08:26:56Z</time>
      </trkpt>
      <trkpt lat="47.50574" lon="3.62758">
        <ele>273</ele>
        <time>2019-04-04T08:26:59Z</time>
      </trkpt>
      <trkpt lat="47.50567" lon="3.62754">
        <ele>275</ele>
        <time>2019-04-04T08:27:04Z</time>
      </trkpt>
      <trkpt lat="47.50562" lon="3.62749">
        <ele>274</ele>
        <time>2019-04-04T08:27:08Z</time>
      </trkpt>
      <trkpt lat="47.50557" lon="3.62746">
        <ele>273</ele>
        <time>2019-04-04T08:27:11Z</time>
      </trkpt>
      <trkpt lat="47.50551" lon="3.62742">
        <ele>273</ele>
        <time>2019-04-04T08:27:15Z</time>
      </trkpt>
      <trkpt lat="47.50546" lon="3.62736">
        <ele>272</ele>
        <time>2019-04-04T08:27:20Z</time>
      </trkpt>
      <trkpt lat="47.50542" lon="3.6273">
        <ele>271</ele>
        <time>2019-04-04T08:27:25Z</time>
      </trkpt>
      <trkpt lat="47.5054" lon="3.62727">
        <ele>270</ele>
        <time>2019-04-04T08:27:27Z</time>
      </trkpt>
      <trkpt lat="47.50535" lon="3.62724">
        <ele>270</ele>
        <time>2019-04-04T08:27:31Z</time>
      </trkpt>
      <trkpt lat="47.50531" lon="3.62719">
        <ele>269</ele>
        <time>2019-04-04T08:27:34Z</time>
      </trkpt>
      <trkpt lat="47.50527" lon="3.62712">
        <ele>269</ele>
        <time>2019-04-04T08:27:39Z</time>
      </trkpt>
      <trkpt lat="47.50522" lon="3.62708">
        <ele>269</ele>
        <time>2019-04-04T08:27:43Z</time>
      </trkpt>
      <trkpt lat="47.5052" lon="3.62705">
        <ele>269</ele>
        <time>2019-04-04T08:27:45Z</time>
      </trkpt>
      <trkpt lat="47.50515" lon="3.62699">
        <ele>267</ele>
        <time>2019-04-04T08:27:51Z</time>
      </trkpt>
      <trkpt lat="47.50511" lon="3.62695">
        <ele>268</ele>
        <time>2019-04-04T08:27:54Z</time>
      </trkpt>
      <trkpt lat="47.50507" lon="3.6269">
        <ele>270</ele>
        <time>2019-04-04T08:27:58Z</time>
      </trkpt>
      <trkpt lat="47.50503" lon="3.62687">
        <ele>269</ele>
        <time>2019-04-04T08:28:02Z</time>
      </trkpt>
      <trkpt lat="47.50498" lon="3.62681">
        <ele>269</ele>
        <time>2019-04-04T08:28:06Z</time>
      </trkpt>
      <trkpt lat="47.50493" lon="3.62675">
        <ele>270</ele>
        <time>2019-04-04T08:28:11Z</time>
      </trkpt>
      <trkpt lat="47.50491" lon="3.62671">
        <ele>270</ele>
        <time>2019-04-04T08:28:13Z</time>
      </trkpt>
      <trkpt lat="47.50486" lon="3.62668">
        <ele>269</ele>
        <time>2019-04-04T08:28:17Z</time>
      </trkpt>
      <trkpt lat="47.50482" lon="3.62662">
        <ele>269</ele>
        <time>2019-04-04T08:28:22Z</time>
      </trkpt>
      <trkpt lat="47.50478" lon="3.62658">
        <ele>268</ele>
        <time>2019-04-04T08:28:26Z</time>
      </trkpt>
      <trkpt lat="47.50474" lon="3.62652">
        <ele>267</ele>
        <time>2019-04-04T08:28:30Z</time>
      </trkpt>
      <trkpt lat="47.5047" lon="3.62647">
        <ele>267</ele>
        <time>2019-04-04T08:28:35Z</time>
      </trkpt>
      <trkpt lat="47.50467" lon="3.62645">
        <ele>266</ele>
        <time>2019-04-04T08:28:37Z</time>
      </trkpt>
      <trkpt lat="47.50465" lon="3.62642">
        <ele>266</ele>
        <time>2019-04-04T08:28:39Z</time>
      </trkpt>
      <trkpt lat="47.50464" lon="3.62634">
        <ele>265</ele>
        <time>2019-04-04T08:28:43Z</time>
      </trkpt>
      <trkpt lat="47.50464" lon="3.62631">
        <ele>265</ele>
        <time>2019-04-04T08:28:45Z</time>
      </trkpt>
      <trkpt lat="47.50459" lon="3.62626">
        <ele>266</ele>
        <time>2019-04-04T08:28:49Z</time>
      </trkpt>
      <trkpt lat="47.50455" lon="3.62622">
        <ele>266</ele>
        <time>2019-04-04T08:28:53Z</time>
      </trkpt>
      <trkpt lat="47.5045" lon="3.62614">
        <ele>266</ele>
        <time>2019-04-04T08:28:59Z</time>
      </trkpt>
      <trkpt lat="47.50448" lon="3.6261">
        <ele>266</ele>
        <time>2019-04-04T08:29:01Z</time>
      </trkpt>
      <trkpt lat="47.50447" lon="3.62607">
        <ele>267</ele>
        <time>2019-04-04T08:29:03Z</time>
      </trkpt>
      <trkpt lat="47.50445" lon="3.62603">
        <ele>266</ele>
        <time>2019-04-04T08:29:05Z</time>
      </trkpt>
      <trkpt lat="47.5044" lon="3.62597">
        <ele>268</ele>
        <time>2019-04-04T08:29:09Z</time>
      </trkpt>
      <trkpt lat="47.50438" lon="3.62595">
        <ele>267</ele>
        <time>2019-04-04T08:29:11Z</time>
      </trkpt>
      <trkpt lat="47.50435" lon="3.62589">
        <ele>267</ele>
        <time>2019-04-04T08:29:15Z</time>
      </trkpt>
      <trkpt lat="47.50432" lon="3.62585">
        <ele>266</ele>
        <time>2019-04-04T08:29:19Z</time>
      </trkpt>
      <trkpt lat="47.50428" lon="3.6258">
        <ele>266</ele>
        <time>2019-04-04T08:29:23Z</time>
      </trkpt>
      <trkpt lat="47.50424" lon="3.62574">
        <ele>267</ele>
        <time>2019-04-04T08:29:28Z</time>
      </trkpt>
      <trkpt lat="47.50422" lon="3.62569">
        <ele>266</ele>
        <time>2019-04-04T08:29:31Z</time>
      </trkpt>
      <trkpt lat="47.5042" lon="3.62566">
        <ele>266</ele>
        <time>2019-04-04T08:29:33Z</time>
      </trkpt>
      <trkpt lat="47.50417" lon="3.6256">
        <ele>266</ele>
        <time>2019-04-04T08:29:37Z</time>
      </trkpt>
      <trkpt lat="47.50414" lon="3.62556">
        <ele>266</ele>
        <time>2019-04-04T08:29:40Z</time>
      </trkpt>
      <trkpt lat="47.50411" lon="3.62552">
        <ele>266</ele>
        <time>2019-04-04T08:29:43Z</time>
      </trkpt>
      <trkpt lat="47.50409" lon="3.62544">
        <ele>264</ele>
        <time>2019-04-04T08:29:47Z</time>
      </trkpt>
      <trkpt lat="47.50406" lon="3.62535">
        <ele>263</ele>
        <time>2019-04-04T08:29:52Z</time>
      </trkpt>
      <trkpt lat="47.50403" lon="3.62529">
        <ele>264</ele>
        <time>2019-04-04T08:29:56Z</time>
      </trkpt>
      <trkpt lat="47.504" lon="3.62523">
        <ele>262</ele>
        <time>2019-04-04T08:30:02Z</time>
      </trkpt>
      <trkpt lat="47.50397" lon="3.62514">
        <ele>260</ele>
        <time>2019-04-04T08:30:07Z</time>
      </trkpt>
      <trkpt lat="47.50394" lon="3.62509">
        <ele>259</ele>
        <time>2019-04-04T08:30:11Z</time>
      </trkpt>
      <trkpt lat="47.50391" lon="3.62503">
        <ele>258</ele>
        <time>2019-04-04T08:30:14Z</time>
      </trkpt>
      <trkpt lat="47.50387" lon="3.62497">
        <ele>258</ele>
        <time>2019-04-04T08:30:18Z</time>
      </trkpt>
      <trkpt lat="47.50384" lon="3.62492">
        <ele>257</ele>
        <time>2019-04-04T08:30:22Z</time>
      </trkpt>
      <trkpt lat="47.50379" lon="3.62486">
        <ele>258</ele>
        <time>2019-04-04T08:30:26Z</time>
      </trkpt>
      <trkpt lat="47.50377" lon="3.62484">
        <ele>258</ele>
        <time>2019-04-04T08:30:28Z</time>
      </trkpt>
      <trkpt lat="47.50376" lon="3.62477">
        <ele>258</ele>
        <time>2019-04-04T08:30:33Z</time>
      </trkpt>
      <trkpt lat="47.50371" lon="3.62474">
        <ele>256</ele>
        <time>2019-04-04T08:30:37Z</time>
      </trkpt>
      <trkpt lat="47.50366" lon="3.6247">
        <ele>256</ele>
        <time>2019-04-04T08:30:41Z</time>
      </trkpt>
      <trkpt lat="47.50363" lon="3.62463">
        <ele>257</ele>
        <time>2019-04-04T08:30:45Z</time>
      </trkpt>
      <trkpt lat="47.50361" lon="3.62456">
        <ele>259</ele>
        <time>2019-04-04T08:30:50Z</time>
      </trkpt>
      <trkpt lat="47.50355" lon="3.62449">
        <ele>258</ele>
        <time>2019-04-04T08:30:54Z</time>
      </trkpt>
      <trkpt lat="47.50353" lon="3.62441">
        <ele>259</ele>
        <time>2019-04-04T08:30:58Z</time>
      </trkpt>
      <trkpt lat="47.50348" lon="3.62435">
        <ele>260</ele>
        <time>2019-04-04T08:31:02Z</time>
      </trkpt>
      <trkpt lat="47.50344" lon="3.62431">
        <ele>258</ele>
        <time>2019-04-04T08:31:05Z</time>
      </trkpt>
      <trkpt lat="47.50342" lon="3.62429">
        <ele>259</ele>
        <time>2019-04-04T08:31:07Z</time>
      </trkpt>
      <trkpt lat="47.50339" lon="3.62423">
        <ele>256</ele>
        <time>2019-04-04T08:31:14Z</time>
      </trkpt>
      <trkpt lat="47.50337" lon="3.62418">
        <ele>253</ele>
        <time>2019-04-04T08:31:33Z</time>
      </trkpt>
      <trkpt lat="47.50335" lon="3.6241">
        <ele>254</ele>
        <time>2019-04-04T08:31:38Z</time>
      </trkpt>
      <trkpt lat="47.50332" lon="3.62404">
        <ele>256</ele>
        <time>2019-04-04T08:31:47Z</time>
      </trkpt>
      <trkpt lat="47.5033" lon="3.62398">
        <ele>257</ele>
        <time>2019-04-04T08:31:52Z</time>
      </trkpt>
      <trkpt lat="47.50328" lon="3.62392">
        <ele>258</ele>
        <time>2019-04-04T08:31:56Z</time>
      </trkpt>
      <trkpt lat="47.50323" lon="3.62386">
        <ele>259</ele>
        <time>2019-04-04T08:32:01Z</time>
      </trkpt>
      <trkpt lat="47.5032" lon="3.62382">
        <ele>259</ele>
        <time>2019-04-04T08:32:05Z</time>
      </trkpt>
      <trkpt lat="47.50318" lon="3.6238">
        <ele>259</ele>
        <time>2019-04-04T08:32:08Z</time>
      </trkpt>
      <trkpt lat="47.50316" lon="3.62377">
        <ele>259</ele>
        <time>2019-04-04T08:32:10Z</time>
      </trkpt>
      <trkpt lat="47.50313" lon="3.62371">
        <ele>262</ele>
        <time>2019-04-04T08:32:14Z</time>
      </trkpt>
      <trkpt lat="47.50309" lon="3.62365">
        <ele>263</ele>
        <time>2019-04-04T08:32:18Z</time>
      </trkpt>
      <trkpt lat="47.50301" lon="3.62361">
        <ele>263</ele>
        <time>2019-04-04T08:32:23Z</time>
      </trkpt>
      <trkpt lat="47.50299" lon="3.6236">
        <ele>263</ele>
        <time>2019-04-04T08:32:26Z</time>
      </trkpt>
      <trkpt lat="47.50295" lon="3.62358">
        <ele>262</ele>
        <time>2019-04-04T08:32:28Z</time>
      </trkpt>
      <trkpt lat="47.50291" lon="3.62356">
        <ele>261</ele>
        <time>2019-04-04T08:32:30Z</time>
      </trkpt>
      <trkpt lat="47.50288" lon="3.62354">
        <ele>261</ele>
        <time>2019-04-04T08:32:32Z</time>
      </trkpt>
      <trkpt lat="47.50284" lon="3.62352">
        <ele>260</ele>
        <time>2019-04-04T08:32:35Z</time>
      </trkpt>
      <trkpt lat="47.50278" lon="3.62349">
        <ele>260</ele>
        <time>2019-04-04T08:32:39Z</time>
      </trkpt>
      <trkpt lat="47.50271" lon="3.62352">
        <ele>258</ele>
        <time>2019-04-04T08:32:44Z</time>
      </trkpt>
      <trkpt lat="47.50263" lon="3.62353">
        <ele>258</ele>
        <time>2019-04-04T08:32:50Z</time>
      </trkpt>
      <trkpt lat="47.50258" lon="3.62352">
        <ele>258</ele>
        <time>2019-04-04T08:32:55Z</time>
      </trkpt>
      <trkpt lat="47.50253" lon="3.62351">
        <ele>257</ele>
        <time>2019-04-04T08:33:00Z</time>
      </trkpt>
      <trkpt lat="47.50248" lon="3.62351">
        <ele>258</ele>
        <time>2019-04-04T08:33:03Z</time>
      </trkpt>
      <trkpt lat="47.50242" lon="3.62351">
        <ele>258</ele>
        <time>2019-04-04T08:33:07Z</time>
      </trkpt>
      <trkpt lat="47.50236" lon="3.62352">
        <ele>259</ele>
        <time>2019-04-04T08:33:12Z</time>
      </trkpt>
      <trkpt lat="47.5023" lon="3.62352">
        <ele>260</ele>
        <time>2019-04-04T08:33:16Z</time>
      </trkpt>
      <trkpt lat="47.50226" lon="3.62354">
        <ele>258</ele>
        <time>2019-04-04T08:33:19Z</time>
      </trkpt>
      <trkpt lat="47.5022" lon="3.62354">
        <ele>257</ele>
        <time>2019-04-04T08:33:23Z</time>
      </trkpt>
      <trkpt lat="47.50216" lon="3.62353">
        <ele>258</ele>
        <time>2019-04-04T08:33:27Z</time>
      </trkpt>
      <trkpt lat="47.50211" lon="3.6235">
        <ele>258</ele>
        <time>2019-04-04T08:33:31Z</time>
      </trkpt>
      <trkpt lat="47.50207" lon="3.62348">
        <ele>258</ele>
        <time>2019-04-04T08:33:38Z</time>
      </trkpt>
      <trkpt lat="47.50202" lon="3.62348">
        <ele>258</ele>
        <time>2019-04-04T08:33:43Z</time>
      </trkpt>
      <trkpt lat="47.50196" lon="3.62346">
        <ele>259</ele>
        <time>2019-04-04T08:33:48Z</time>
      </trkpt>
      <trkpt lat="47.50193" lon="3.62345">
        <ele>259</ele>
        <time>2019-04-04T08:33:51Z</time>
      </trkpt>
      <trkpt lat="47.5019" lon="3.62344">
        <ele>260</ele>
        <time>2019-04-04T08:33:53Z</time>
      </trkpt>
      <trkpt lat="47.50184" lon="3.62341">
        <ele>262</ele>
        <time>2019-04-04T08:33:57Z</time>
      </trkpt>
      <trkpt lat="47.50181" lon="3.62339">
        <ele>262</ele>
        <time>2019-04-04T08:33:59Z</time>
      </trkpt>
      <trkpt lat="47.50178" lon="3.62337">
        <ele>263</ele>
        <time>2019-04-04T08:34:02Z</time>
      </trkpt>
      <trkpt lat="47.50175" lon="3.62336">
        <ele>264</ele>
        <time>2019-04-04T08:34:05Z</time>
      </trkpt>
      <trkpt lat="47.50173" lon="3.62334">
        <ele>264</ele>
        <time>2019-04-04T08:34:07Z</time>
      </trkpt>
      <trkpt lat="47.50169" lon="3.62329">
        <ele>263</ele>
        <time>2019-04-04T08:34:11Z</time>
      </trkpt>
      <trkpt lat="47.50164" lon="3.62328">
        <ele>264</ele>
        <time>2019-04-04T08:34:15Z</time>
      </trkpt>
      <trkpt lat="47.50162" lon="3.62328">
        <ele>263</ele>
        <time>2019-04-04T08:34:17Z</time>
      </trkpt>
      <trkpt lat="47.50156" lon="3.62324">
        <ele>264</ele>
        <time>2019-04-04T08:34:22Z</time>
      </trkpt>
      <trkpt lat="47.50152" lon="3.6232">
        <ele>264</ele>
        <time>2019-04-04T08:34:26Z</time>
      </trkpt>
      <trkpt lat="47.50146" lon="3.62319">
        <ele>264</ele>
        <time>2019-04-04T08:34:30Z</time>
      </trkpt>
      <trkpt lat="47.5014" lon="3.62315">
        <ele>264</ele>
        <time>2019-04-04T08:34:36Z</time>
      </trkpt>
      <trkpt lat="47.50136" lon="3.62311">
        <ele>264</ele>
        <time>2019-04-04T08:34:41Z</time>
      </trkpt>
      <trkpt lat="47.50133" lon="3.62309">
        <ele>264</ele>
        <time>2019-04-04T08:34:43Z</time>
      </trkpt>
      <trkpt lat="47.50129" lon="3.62307">
        <ele>265</ele>
        <time>2019-04-04T08:34:47Z</time>
      </trkpt>
      <trkpt lat="47.50126" lon="3.62306">
        <ele>265</ele>
        <time>2019-04-04T08:34:48Z</time>
      </trkpt>
      <trkpt lat="47.50121" lon="3.62303">
        <ele>266</ele>
        <time>2019-04-04T08:34:53Z</time>
      </trkpt>
      <trkpt lat="47.50118" lon="3.62302">
        <ele>266</ele>
        <time>2019-04-04T08:34:57Z</time>
      </trkpt>
      <trkpt lat="47.50115" lon="3.62299">
        <ele>265</ele>
        <time>2019-04-04T08:35:00Z</time>
      </trkpt>
      <trkpt lat="47.50111" lon="3.62295">
        <ele>264</ele>
        <time>2019-04-04T08:35:04Z</time>
      </trkpt>
      <trkpt lat="47.50106" lon="3.62292">
        <ele>264</ele>
        <time>2019-04-04T08:35:08Z</time>
      </trkpt>
      <trkpt lat="47.50102" lon="3.62288">
        <ele>263</ele>
        <time>2019-04-04T08:35:12Z</time>
      </trkpt>
      <trkpt lat="47.50098" lon="3.62285">
        <ele>263</ele>
        <time>2019-04-04T08:35:15Z</time>
      </trkpt>
      <trkpt lat="47.50093" lon="3.62281">
        <ele>262</ele>
        <time>2019-04-04T08:35:19Z</time>
      </trkpt>
      <trkpt lat="47.5009" lon="3.62279">
        <ele>263</ele>
        <time>2019-04-04T08:35:23Z</time>
      </trkpt>
      <trkpt lat="47.50087" lon="3.62277">
        <ele>263</ele>
        <time>2019-04-04T08:35:27Z</time>
      </trkpt>
      <trkpt lat="47.50081" lon="3.62275">
        <ele>264</ele>
        <time>2019-04-04T08:35:31Z</time>
      </trkpt>
      <trkpt lat="47.50077" lon="3.62272">
        <ele>265</ele>
        <time>2019-04-04T08:35:34Z</time>
      </trkpt>
      <trkpt lat="47.50073" lon="3.62269">
        <ele>265</ele>
        <time>2019-04-04T08:35:38Z</time>
      </trkpt>
      <trkpt lat="47.5007" lon="3.62267">
        <ele>264</ele>
        <time>2019-04-04T08:35:41Z</time>
      </trkpt>
      <trkpt lat="47.50067" lon="3.62265">
        <ele>264</ele>
        <time>2019-04-04T08:35:43Z</time>
      </trkpt>
      <trkpt lat="47.50063" lon="3.6226">
        <ele>264</ele>
        <time>2019-04-04T08:35:47Z</time>
      </trkpt>
      <trkpt lat="47.5006" lon="3.62257">
        <ele>264</ele>
        <time>2019-04-04T08:35:50Z</time>
      </trkpt>
      <trkpt lat="47.50058" lon="3.62255">
        <ele>265</ele>
        <time>2019-04-04T08:35:53Z</time>
      </trkpt>
      <trkpt lat="47.50055" lon="3.62253">
        <ele>264</ele>
        <time>2019-04-04T08:35:56Z</time>
      </trkpt>
      <trkpt lat="47.50048" lon="3.62248">
        <ele>265</ele>
        <time>2019-04-04T08:36:01Z</time>
      </trkpt>
      <trkpt lat="47.50044" lon="3.62244">
        <ele>265</ele>
        <time>2019-04-04T08:36:04Z</time>
      </trkpt>
      <trkpt lat="47.5004" lon="3.6224">
        <ele>265</ele>
        <time>2019-04-04T08:36:07Z</time>
      </trkpt>
      <trkpt lat="47.50035" lon="3.62237">
        <ele>266</ele>
        <time>2019-04-04T08:36:12Z</time>
      </trkpt>
      <trkpt lat="47.50028" lon="3.62234">
        <ele>266</ele>
        <time>2019-04-04T08:36:19Z</time>
      </trkpt>
      <trkpt lat="47.50022" lon="3.6223">
        <ele>266</ele>
        <time>2019-04-04T08:36:24Z</time>
      </trkpt>
      <trkpt lat="47.50017" lon="3.62228">
        <ele>265</ele>
        <time>2019-04-04T08:36:28Z</time>
      </trkpt>
      <trkpt lat="47.50012" lon="3.62224">
        <ele>266</ele>
        <time>2019-04-04T08:36:32Z</time>
      </trkpt>
      <trkpt lat="47.5001" lon="3.62223">
        <ele>266</ele>
        <time>2019-04-04T08:36:34Z</time>
      </trkpt>
      <trkpt lat="47.50004" lon="3.6222">
        <ele>264</ele>
        <time>2019-04-04T08:36:40Z</time>
      </trkpt>
      <trkpt lat="47.49999" lon="3.62214">
        <ele>264</ele>
        <time>2019-04-04T08:36:46Z</time>
      </trkpt>
      <trkpt lat="47.49995" lon="3.62209">
        <ele>265</ele>
        <time>2019-04-04T08:36:50Z</time>
      </trkpt>
      <trkpt lat="47.4999" lon="3.62205">
        <ele>264</ele>
        <time>2019-04-04T08:36:56Z</time>
      </trkpt>
      <trkpt lat="47.49988" lon="3.62204">
        <ele>265</ele>
        <time>2019-04-04T08:36:58Z</time>
      </trkpt>
      <trkpt lat="47.49986" lon="3.62203">
        <ele>267</ele>
        <time>2019-04-04T08:37:03Z</time>
      </trkpt>
      <trkpt lat="47.49977" lon="3.62197">
        <ele>266</ele>
        <time>2019-04-04T08:37:12Z</time>
      </trkpt>
      <trkpt lat="47.49972" lon="3.62193">
        <ele>267</ele>
        <time>2019-04-04T08:37:17Z</time>
      </trkpt>
      <trkpt lat="47.49966" lon="3.62191">
        <ele>268</ele>
        <time>2019-04-04T08:37:20Z</time>
      </trkpt>
      <trkpt lat="47.49961" lon="3.62188">
        <ele>268</ele>
        <time>2019-04-04T08:37:23Z</time>
      </trkpt>
      <trkpt lat="47.49957" lon="3.62183">
        <ele>268</ele>
        <time>2019-04-04T08:37:26Z</time>
      </trkpt>
      <trkpt lat="47.49951" lon="3.62181">
        <ele>267</ele>
        <time>2019-04-04T08:37:30Z</time>
      </trkpt>
      <trkpt lat="47.49946" lon="3.62178">
        <ele>267</ele>
        <time>2019-04-04T08:37:33Z</time>
      </trkpt>
      <trkpt lat="47.49939" lon="3.62175">
        <ele>268</ele>
        <time>2019-04-04T08:37:39Z</time>
      </trkpt>
      <trkpt lat="47.49933" lon="3.62174">
        <ele>268</ele>
        <time>2019-04-04T08:37:43Z</time>
      </trkpt>
      <trkpt lat="47.49926" lon="3.62173">
        <ele>267</ele>
        <time>2019-04-04T08:37:46Z</time>
      </trkpt>
      <trkpt lat="47.49922" lon="3.6217">
        <ele>266</ele>
        <time>2019-04-04T08:37:49Z</time>
      </trkpt>
      <trkpt lat="47.49915" lon="3.62168">
        <ele>268</ele>
        <time>2019-04-04T08:37:54Z</time>
      </trkpt>
      <trkpt lat="47.49911" lon="3.6217">
        <ele>264</ele>
        <time>2019-04-04T08:37:58Z</time>
      </trkpt>
      <trkpt lat="47.49905" lon="3.62169">
        <ele>264</ele>
        <time>2019-04-04T08:38:01Z</time>
      </trkpt>
      <trkpt lat="47.49902" lon="3.62168">
        <ele>264</ele>
        <time>2019-04-04T08:38:04Z</time>
      </trkpt>
      <trkpt lat="47.49898" lon="3.62167">
        <ele>262</ele>
        <time>2019-04-04T08:38:07Z</time>
      </trkpt>
      <trkpt lat="47.49893" lon="3.62167">
        <ele>262</ele>
        <time>2019-04-04T08:38:10Z</time>
      </trkpt>
      <trkpt lat="47.49887" lon="3.62165">
        <ele>262</ele>
        <time>2019-04-04T08:38:16Z</time>
      </trkpt>
      <trkpt lat="47.49883" lon="3.62162">
        <ele>263</ele>
        <time>2019-04-04T08:38:20Z</time>
      </trkpt>
      <trkpt lat="47.49877" lon="3.6216">
        <ele>264</ele>
        <time>2019-04-04T08:38:27Z</time>
      </trkpt>
      <trkpt lat="47.49871" lon="3.6216">
        <ele>264</ele>
        <time>2019-04-04T08:38:31Z</time>
      </trkpt>
      <trkpt lat="47.49869" lon="3.6216">
        <ele>263</ele>
        <time>2019-04-04T08:38:34Z</time>
      </trkpt>
      <trkpt lat="47.49865" lon="3.62156">
        <ele>263</ele>
        <time>2019-04-04T08:38:38Z</time>
      </trkpt>
      <trkpt lat="47.49858" lon="3.62156">
        <ele>265</ele>
        <time>2019-04-04T08:38:44Z</time>
      </trkpt>
      <trkpt lat="47.49854" lon="3.62154">
        <ele>265</ele>
        <time>2019-04-04T08:38:47Z</time>
      </trkpt>
      <trkpt lat="47.49851" lon="3.62153">
        <ele>265</ele>
        <time>2019-04-04T08:38:49Z</time>
      </trkpt>
      <trkpt lat="47.49847" lon="3.62149">
        <ele>267</ele>
        <time>2019-04-04T08:38:54Z</time>
      </trkpt>
      <trkpt lat="47.49842" lon="3.62145">
        <ele>267</ele>
        <time>2019-04-04T08:38:58Z</time>
      </trkpt>
      <trkpt lat="47.49837" lon="3.62145">
        <ele>267</ele>
        <time>2019-04-04T08:39:01Z</time>
      </trkpt>
      <trkpt lat="47.49832" lon="3.62142">
        <ele>268</ele>
        <time>2019-04-04T08:39:06Z</time>
      </trkpt>
      <trkpt lat="47.49828" lon="3.62135">
        <ele>267</ele>
        <time>2019-04-04T08:39:12Z</time>
      </trkpt>
      <trkpt lat="47.49824" lon="3.62131">
        <ele>267</ele>
        <time>2019-04-04T08:39:17Z</time>
      </trkpt>
      <trkpt lat="47.4982" lon="3.62125">
        <ele>267</ele>
        <time>2019-04-04T08:39:21Z</time>
      </trkpt>
      <trkpt lat="47.49817" lon="3.6212">
        <ele>269</ele>
        <time>2019-04-04T08:39:24Z</time>
      </trkpt>
      <trkpt lat="47.49815" lon="3.62115">
        <ele>268</ele>
        <time>2019-04-04T08:39:28Z</time>
      </trkpt>
      <trkpt lat="47.49813" lon="3.6211">
        <ele>269</ele>
        <time>2019-04-04T08:39:33Z</time>
      </trkpt>
      <trkpt lat="47.4981" lon="3.62102">
        <ele>268</ele>
        <time>2019-04-04T08:39:38Z</time>
      </trkpt>
      <trkpt lat="47.49806" lon="3.62096">
        <ele>269</ele>
        <time>2019-04-04T08:39:43Z</time>
      </trkpt>
      <trkpt lat="47.49804" lon="3.62092">
        <ele>270</ele>
        <time>2019-04-04T08:39:45Z</time>
      </trkpt>
      <trkpt lat="47.49801" lon="3.62084">
        <ele>270</ele>
        <time>2019-04-04T08:39:49Z</time>
      </trkpt>
      <trkpt lat="47.498" lon="3.62081">
        <ele>272</ele>
        <time>2019-04-04T08:39:52Z</time>
      </trkpt>
      <trkpt lat="47.49796" lon="3.62075">
        <ele>270</ele>
        <time>2019-04-04T08:39:57Z</time>
      </trkpt>
      <trkpt lat="47.49794" lon="3.62071">
        <ele>271</ele>
        <time>2019-04-04T08:40:01Z</time>
      </trkpt>
      <trkpt lat="47.49791" lon="3.62067">
        <ele>270</ele>
        <time>2019-04-04T08:40:04Z</time>
      </trkpt>
      <trkpt lat="47.49788" lon="3.6206">
        <ele>268</ele>
        <time>2019-04-04T08:40:07Z</time>
      </trkpt>
      <trkpt lat="47.49787" lon="3.62062">
        <ele>267</ele>
        <time>2019-04-04T08:40:17Z</time>
      </trkpt>
      <trkpt lat="47.49766" lon="3.62045">
        <ele>263</ele>
        <time>2019-04-04T08:42:32Z</time>
      </trkpt>
      <trkpt lat="47.49764" lon="3.62044">
        <ele>264</ele>
        <time>2019-04-04T08:42:34Z</time>
      </trkpt>
      <trkpt lat="47.49759" lon="3.62039">
        <ele>264</ele>
        <time>2019-04-04T08:42:40Z</time>
      </trkpt>
      <trkpt lat="47.49752" lon="3.62039">
        <ele>264</ele>
        <time>2019-04-04T08:42:47Z</time>
      </trkpt>
      <trkpt lat="47.49747" lon="3.6204">
        <ele>264</ele>
        <time>2019-04-04T08:42:52Z</time>
      </trkpt>
      <trkpt lat="47.49743" lon="3.62042">
        <ele>264</ele>
        <time>2019-04-04T08:42:55Z</time>
      </trkpt>
      <trkpt lat="47.49737" lon="3.62042">
        <ele>265</ele>
        <time>2019-04-04T08:43:00Z</time>
      </trkpt>
      <trkpt lat="47.49732" lon="3.62042">
        <ele>265</ele>
        <time>2019-04-04T08:43:03Z</time>
      </trkpt>
      <trkpt lat="47.49727" lon="3.62046">
        <ele>267</ele>
        <time>2019-04-04T08:43:08Z</time>
      </trkpt>
      <trkpt lat="47.49725" lon="3.62048">
        <ele>268</ele>
        <time>2019-04-04T08:43:10Z</time>
      </trkpt>
      <trkpt lat="47.49719" lon="3.62053">
        <ele>269</ele>
        <time>2019-04-04T08:43:13Z</time>
      </trkpt>
      <trkpt lat="47.49715" lon="3.62054">
        <ele>270</ele>
        <time>2019-04-04T08:43:16Z</time>
      </trkpt>
      <trkpt lat="47.49709" lon="3.62056">
        <ele>269</ele>
        <time>2019-04-04T08:43:22Z</time>
      </trkpt>
      <trkpt lat="47.49704" lon="3.62056">
        <ele>272</ele>
        <time>2019-04-04T08:43:27Z</time>
      </trkpt>
      <trkpt lat="47.49699" lon="3.62056">
        <ele>272</ele>
        <time>2019-04-04T08:43:34Z</time>
      </trkpt>
      <trkpt lat="47.49695" lon="3.62056">
        <ele>272</ele>
        <time>2019-04-04T08:43:41Z</time>
      </trkpt>
      <trkpt lat="47.4969" lon="3.62054">
        <ele>271</ele>
        <time>2019-04-04T08:43:45Z</time>
      </trkpt>
      <trkpt lat="47.49684" lon="3.62053">
        <ele>269</ele>
        <time>2019-04-04T08:43:50Z</time>
      </trkpt>
      <trkpt lat="47.4968" lon="3.62053">
        <ele>270</ele>
        <time>2019-04-04T08:43:53Z</time>
      </trkpt>
      <trkpt lat="47.49674" lon="3.62052">
        <ele>270</ele>
        <time>2019-04-04T08:43:57Z</time>
      </trkpt>
      <trkpt lat="47.49667" lon="3.62055">
        <ele>272</ele>
        <time>2019-04-04T08:44:02Z</time>
      </trkpt>
      <trkpt lat="47.49661" lon="3.62057">
        <ele>274</ele>
        <time>2019-04-04T08:44:05Z</time>
      </trkpt>
      <trkpt lat="47.49657" lon="3.62061">
        <ele>273</ele>
        <time>2019-04-04T08:44:08Z</time>
      </trkpt>
      <trkpt lat="47.49653" lon="3.62066">
        <ele>272</ele>
        <time>2019-04-04T08:44:11Z</time>
      </trkpt>
      <trkpt lat="47.4965" lon="3.62069">
        <ele>272</ele>
        <time>2019-04-04T08:44:13Z</time>
      </trkpt>
      <trkpt lat="47.49644" lon="3.62075">
        <ele>270</ele>
        <time>2019-04-04T08:44:18Z</time>
      </trkpt>
      <trkpt lat="47.49642" lon="3.62077">
        <ele>271</ele>
        <time>2019-04-04T08:44:20Z</time>
      </trkpt>
      <trkpt lat="47.49638" lon="3.62082">
        <ele>270</ele>
        <time>2019-04-04T08:44:23Z</time>
      </trkpt>
      <trkpt lat="47.49637" lon="3.62089">
        <ele>270</ele>
        <time>2019-04-04T08:44:27Z</time>
      </trkpt>
      <trkpt lat="47.49634" lon="3.62095">
        <ele>269</ele>
        <time>2019-04-04T08:44:32Z</time>
      </trkpt>
      <trkpt lat="47.4963" lon="3.621">
        <ele>270</ele>
        <time>2019-04-04T08:44:37Z</time>
      </trkpt>
      <trkpt lat="47.49627" lon="3.62106">
        <ele>270</ele>
        <time>2019-04-04T08:44:41Z</time>
      </trkpt>
      <trkpt lat="47.49624" lon="3.62111">
        <ele>270</ele>
        <time>2019-04-04T08:44:46Z</time>
      </trkpt>
      <trkpt lat="47.49622" lon="3.62114">
        <ele>270</ele>
        <time>2019-04-04T08:44:49Z</time>
      </trkpt>
      <trkpt lat="47.49622" lon="3.62114">
        <ele>270</ele>
        <time>2019-04-04T08:44:57Z</time>
      </trkpt>
      <trkpt lat="47.49622" lon="3.62114">
        <ele>270</ele>
        <time>2019-04-04T08:44:59Z</time>
      </trkpt>
      <trkpt lat="47.49617" lon="3.62117">
        <ele>270</ele>
        <time>2019-04-04T08:45:03Z</time>
      </trkpt>
      <trkpt lat="47.49612" lon="3.62117">
        <ele>269</ele>
        <time>2019-04-04T08:45:09Z</time>
      </trkpt>
      <trkpt lat="47.49607" lon="3.62116">
        <ele>269</ele>
        <time>2019-04-04T08:45:15Z</time>
      </trkpt>
      <trkpt lat="47.49603" lon="3.62113">
        <ele>268</ele>
        <time>2019-04-04T08:45:20Z</time>
      </trkpt>
      <trkpt lat="47.49599" lon="3.62111">
        <ele>267</ele>
        <time>2019-04-04T08:45:23Z</time>
      </trkpt>
      <trkpt lat="47.49594" lon="3.6211">
        <ele>264</ele>
        <time>2019-04-04T08:45:31Z</time>
      </trkpt>
      <trkpt lat="47.49589" lon="3.6211">
        <ele>265</ele>
        <time>2019-04-04T08:45:34Z</time>
      </trkpt>
      <trkpt lat="47.49584" lon="3.62113">
        <ele>266</ele>
        <time>2019-04-04T08:45:38Z</time>
      </trkpt>
      <trkpt lat="47.49579" lon="3.62117">
        <ele>263</ele>
        <time>2019-04-04T08:45:41Z</time>
      </trkpt>
      <trkpt lat="47.49576" lon="3.62123">
        <ele>265</ele>
        <time>2019-04-04T08:45:45Z</time>
      </trkpt>
      <trkpt lat="47.49572" lon="3.6213">
        <ele>265</ele>
        <time>2019-04-04T08:45:49Z</time>
      </trkpt>
      <trkpt lat="47.49571" lon="3.62133">
        <ele>266</ele>
        <time>2019-04-04T08:45:52Z</time>
      </trkpt>
      <trkpt lat="47.49567" lon="3.62143">
        <ele>263</ele>
        <time>2019-04-04T08:46:01Z</time>
      </trkpt>
      <trkpt lat="47.49567" lon="3.62151">
        <ele>262</ele>
        <time>2019-04-04T08:46:07Z</time>
      </trkpt>
      <trkpt lat="47.49566" lon="3.62161">
        <ele>262</ele>
        <time>2019-04-04T08:46:11Z</time>
      </trkpt>
      <trkpt lat="47.49567" lon="3.62169">
        <ele>260</ele>
        <time>2019-04-04T08:46:15Z</time>
      </trkpt>
      <trkpt lat="47.49568" lon="3.62174">
        <ele>258</ele>
        <time>2019-04-04T08:46:21Z</time>
      </trkpt>
      <trkpt lat="47.4956" lon="3.62177">
        <ele>258</ele>
        <time>2019-04-04T08:46:29Z</time>
      </trkpt>
      <trkpt lat="47.4956" lon="3.62186">
        <ele>257</ele>
        <time>2019-04-04T08:46:33Z</time>
      </trkpt>
      <trkpt lat="47.49561" lon="3.62195">
        <ele>259</ele>
        <time>2019-04-04T08:46:37Z</time>
      </trkpt>
      <trkpt lat="47.49562" lon="3.622">
        <ele>260</ele>
        <time>2019-04-04T08:46:43Z</time>
      </trkpt>
      <trkpt lat="47.4956" lon="3.62202">
        <ele>262</ele>
        <time>2019-04-04T08:46:53Z</time>
      </trkpt>
      <trkpt lat="47.49556" lon="3.62206">
        <ele>262</ele>
        <time>2019-04-04T08:46:56Z</time>
      </trkpt>
      <trkpt lat="47.49554" lon="3.62212">
        <ele>261</ele>
        <time>2019-04-04T08:47:01Z</time>
      </trkpt>
      <trkpt lat="47.49554" lon="3.62216">
        <ele>261</ele>
        <time>2019-04-04T08:47:03Z</time>
      </trkpt>
      <trkpt lat="47.49553" lon="3.62224">
        <ele>260</ele>
        <time>2019-04-04T08:47:06Z</time>
      </trkpt>
      <trkpt lat="47.49553" lon="3.6223">
        <ele>260</ele>
        <time>2019-04-04T08:47:09Z</time>
      </trkpt>
      <trkpt lat="47.49554" lon="3.62239">
        <ele>257</ele>
        <time>2019-04-04T08:47:14Z</time>
      </trkpt>
      <trkpt lat="47.49553" lon="3.62244">
        <ele>258</ele>
        <time>2019-04-04T08:47:23Z</time>
      </trkpt>
      <trkpt lat="47.4955" lon="3.6225">
        <ele>257</ele>
        <time>2019-04-04T08:47:32Z</time>
      </trkpt>
      <trkpt lat="47.49547" lon="3.62255">
        <ele>256</ele>
        <time>2019-04-04T08:47:35Z</time>
      </trkpt>
      <trkpt lat="47.49546" lon="3.62263">
        <ele>257</ele>
        <time>2019-04-04T08:47:40Z</time>
      </trkpt>
      <trkpt lat="47.49544" lon="3.6227">
        <ele>259</ele>
        <time>2019-04-04T08:47:46Z</time>
      </trkpt>
      <trkpt lat="47.49542" lon="3.62274">
        <ele>258</ele>
        <time>2019-04-04T08:47:49Z</time>
      </trkpt>
      <trkpt lat="47.4954" lon="3.6228">
        <ele>258</ele>
        <time>2019-04-04T08:47:53Z</time>
      </trkpt>
      <trkpt lat="47.49539" lon="3.62284">
        <ele>258</ele>
        <time>2019-04-04T08:47:57Z</time>
      </trkpt>
      <trkpt lat="47.49538" lon="3.62288">
        <ele>257</ele>
        <time>2019-04-04T08:48:04Z</time>
      </trkpt>
      <trkpt lat="47.49534" lon="3.62292">
        <ele>254</ele>
        <time>2019-04-04T08:48:23Z</time>
      </trkpt>
      <trkpt lat="47.4953" lon="3.62294">
        <ele>252</ele>
        <time>2019-04-04T08:48:28Z</time>
      </trkpt>
      <trkpt lat="47.49526" lon="3.62299">
        <ele>250</ele>
        <time>2019-04-04T08:48:33Z</time>
      </trkpt>
      <trkpt lat="47.49522" lon="3.62304">
        <ele>252</ele>
        <time>2019-04-04T08:48:39Z</time>
      </trkpt>
      <trkpt lat="47.4952" lon="3.62312">
        <ele>252</ele>
        <time>2019-04-04T08:48:46Z</time>
      </trkpt>
      <trkpt lat="47.49515" lon="3.62313">
        <ele>250</ele>
        <time>2019-04-04T08:48:55Z</time>
      </trkpt>
      <trkpt lat="47.49512" lon="3.62314">
        <ele>249</ele>
        <time>2019-04-04T08:48:59Z</time>
      </trkpt>
      <trkpt lat="47.49505" lon="3.62318">
        <ele>249</ele>
        <time>2019-04-04T08:49:05Z</time>
      </trkpt>
      <trkpt lat="47.495" lon="3.62317">
        <ele>247</ele>
        <time>2019-04-04T08:49:18Z</time>
      </trkpt>
      <trkpt lat="47.49491" lon="3.62315">
        <ele>245</ele>
        <time>2019-04-04T08:49:26Z</time>
      </trkpt>
      <trkpt lat="47.49483" lon="3.62323">
        <ele>245</ele>
        <time>2019-04-04T08:49:32Z</time>
      </trkpt>
      <trkpt lat="47.4948" lon="3.6233">
        <ele>241</ele>
        <time>2019-04-04T08:49:35Z</time>
      </trkpt>
      <trkpt lat="47.49476" lon="3.62339">
        <ele>240</ele>
        <time>2019-04-04T08:49:42Z</time>
      </trkpt>
      <trkpt lat="47.49471" lon="3.62342">
        <ele>239</ele>
        <time>2019-04-04T08:49:49Z</time>
      </trkpt>
      <trkpt lat="47.49468" lon="3.62348">
        <ele>238</ele>
        <time>2019-04-04T08:49:55Z</time>
      </trkpt>
      <trkpt lat="47.49468" lon="3.62355">
        <ele>236</ele>
        <time>2019-04-04T08:50:09Z</time>
      </trkpt>
      <trkpt lat="47.49465" lon="3.62364">
        <ele>235</ele>
        <time>2019-04-04T08:50:15Z</time>
      </trkpt>
      <trkpt lat="47.49464" lon="3.62369">
        <ele>234</ele>
        <time>2019-04-04T08:50:17Z</time>
      </trkpt>
      <trkpt lat="47.49459" lon="3.62372">
        <ele>226</ele>
        <time>2019-04-04T08:50:49Z</time>
      </trkpt>
      <trkpt lat="47.49454" lon="3.62373">
        <ele>227</ele>
        <time>2019-04-04T08:51:02Z</time>
      </trkpt>
      <trkpt lat="47.4945" lon="3.62377">
        <ele>228</ele>
        <time>2019-04-04T08:51:09Z</time>
      </trkpt>
      <trkpt lat="47.49448" lon="3.62383">
        <ele>227</ele>
        <time>2019-04-04T08:51:13Z</time>
      </trkpt>
      <trkpt lat="47.49442" lon="3.62383">
        <ele>224</ele>
        <time>2019-04-04T08:51:27Z</time>
      </trkpt>
      <trkpt lat="47.49437" lon="3.62382">
        <ele>224</ele>
        <time>2019-04-04T08:51:35Z</time>
      </trkpt>
      <trkpt lat="47.4943" lon="3.62384">
        <ele>227</ele>
        <time>2019-04-04T08:51:45Z</time>
      </trkpt>
      <trkpt lat="47.49424" lon="3.62384">
        <ele>226</ele>
        <time>2019-04-04T08:51:51Z</time>
      </trkpt>
      <trkpt lat="47.49421" lon="3.62384">
        <ele>225</ele>
        <time>2019-04-04T08:51:54Z</time>
      </trkpt>
      <trkpt lat="47.49418" lon="3.62386">
        <ele>225</ele>
        <time>2019-04-04T08:52:02Z</time>
      </trkpt>
      <trkpt lat="47.49414" lon="3.62386">
        <ele>226</ele>
        <time>2019-04-04T08:52:17Z</time>
      </trkpt>
      <trkpt lat="47.49407" lon="3.62385">
        <ele>230</ele>
        <time>2019-04-04T08:52:27Z</time>
      </trkpt>
      <trkpt lat="47.49404" lon="3.62385">
        <ele>230</ele>
        <time>2019-04-04T08:52:30Z</time>
      </trkpt>
      <trkpt lat="47.49399" lon="3.62386">
        <ele>229</ele>
        <time>2019-04-04T08:52:39Z</time>
      </trkpt>
      <trkpt lat="47.49395" lon="3.62389">
        <ele>228</ele>
        <time>2019-04-04T08:52:46Z</time>
      </trkpt>
      <trkpt lat="47.4939" lon="3.62387">
        <ele>229</ele>
        <time>2019-04-04T08:52:56Z</time>
      </trkpt>
      <trkpt lat="47.49386" lon="3.62383">
        <ele>230</ele>
        <time>2019-04-04T08:53:04Z</time>
      </trkpt>
      <trkpt lat="47.49381" lon="3.6238">
        <ele>232</ele>
        <time>2019-04-04T08:53:12Z</time>
      </trkpt>
      <trkpt lat="47.49376" lon="3.62381">
        <ele>231</ele>
        <time>2019-04-04T08:53:18Z</time>
      </trkpt>
      <trkpt lat="47.49372" lon="3.62381">
        <ele>231</ele>
        <time>2019-04-04T08:53:23Z</time>
      </trkpt>
      <trkpt lat="47.49367" lon="3.62379">
        <ele>231</ele>
        <time>2019-04-04T08:53:38Z</time>
      </trkpt>
      <trkpt lat="47.49362" lon="3.62379">
        <ele>232</ele>
        <time>2019-04-04T08:53:42Z</time>
      </trkpt>
      <trkpt lat="47.49357" lon="3.6238">
        <ele>232</ele>
        <time>2019-04-04T08:53:45Z</time>
      </trkpt>
      <trkpt lat="47.49353" lon="3.6238">
        <ele>232</ele>
        <time>2019-04-04T08:53:48Z</time>
      </trkpt>
      <trkpt lat="47.49349" lon="3.62383">
        <ele>231</ele>
        <time>2019-04-04T08:53:53Z</time>
      </trkpt>
      <trkpt lat="47.49344" lon="3.62387">
        <ele>231</ele>
        <time>2019-04-04T08:53:57Z</time>
      </trkpt>
      <trkpt lat="47.49339" lon="3.62389">
        <ele>230</ele>
        <time>2019-04-04T08:54:04Z</time>
      </trkpt>
      <trkpt lat="47.49336" lon="3.62389">
        <ele>230</ele>
        <time>2019-04-04T08:54:09Z</time>
      </trkpt>
      <trkpt lat="47.49334" lon="3.6239">
        <ele>229</ele>
        <time>2019-04-04T08:54:13Z</time>
      </trkpt>
      <trkpt lat="47.4933" lon="3.62394">
        <ele>230</ele>
        <time>2019-04-04T08:54:17Z</time>
      </trkpt>
      <trkpt lat="47.49325" lon="3.624">
        <ele>230</ele>
        <time>2019-04-04T08:54:27Z</time>
      </trkpt>
      <trkpt lat="47.4932" lon="3.62405">
        <ele>230</ele>
        <time>2019-04-04T08:54:32Z</time>
      </trkpt>
      <trkpt lat="47.49316" lon="3.62411">
        <ele>230</ele>
        <time>2019-04-04T08:54:37Z</time>
      </trkpt>
      <trkpt lat="47.49313" lon="3.62415">
        <ele>230</ele>
        <time>2019-04-04T08:54:41Z</time>
      </trkpt>
      <trkpt lat="47.49312" lon="3.62422">
        <ele>228</ele>
        <time>2019-04-04T08:54:48Z</time>
      </trkpt>
      <trkpt lat="47.49311" lon="3.62427">
        <ele>229</ele>
        <time>2019-04-04T08:54:51Z</time>
      </trkpt>
      <trkpt lat="47.4931" lon="3.62427">
        <ele>228</ele>
        <time>2019-04-04T08:55:02Z</time>
      </trkpt>
      <trkpt lat="47.49297" lon="3.62434">
        <ele>233</ele>
        <time>2019-04-04T08:57:13Z</time>
      </trkpt>
      <trkpt lat="47.49293" lon="3.62435">
        <ele>234</ele>
        <time>2019-04-04T08:57:19Z</time>
      </trkpt>
      <trkpt lat="47.49287" lon="3.62439">
        <ele>234</ele>
        <time>2019-04-04T08:57:24Z</time>
      </trkpt>
      <trkpt lat="47.49282" lon="3.62441">
        <ele>233</ele>
        <time>2019-04-04T08:57:28Z</time>
      </trkpt>
      <trkpt lat="47.49279" lon="3.62443">
        <ele>233</ele>
        <time>2019-04-04T08:57:32Z</time>
      </trkpt>
      <trkpt lat="47.49272" lon="3.62447">
        <ele>233</ele>
        <time>2019-04-04T08:57:39Z</time>
      </trkpt>
      <trkpt lat="47.49268" lon="3.62449">
        <ele>232</ele>
        <time>2019-04-04T08:57:44Z</time>
      </trkpt>
      <trkpt lat="47.49262" lon="3.62451">
        <ele>229</ele>
        <time>2019-04-04T08:57:52Z</time>
      </trkpt>
      <trkpt lat="47.49257" lon="3.62454">
        <ele>229</ele>
        <time>2019-04-04T08:57:57Z</time>
      </trkpt>
      <trkpt lat="47.49253" lon="3.62459">
        <ele>228</ele>
        <time>2019-04-04T08:58:03Z</time>
      </trkpt>
      <trkpt lat="47.49249" lon="3.62463">
        <ele>228</ele>
        <time>2019-04-04T08:58:07Z</time>
      </trkpt>
      <trkpt lat="47.49249" lon="3.62467">
        <ele>225</ele>
        <time>2019-04-04T08:58:16Z</time>
      </trkpt>
      <trkpt lat="47.49224" lon="3.62485">
        <ele>216</ele>
        <time>2019-04-04T08:59:16Z</time>
      </trkpt>
      <trkpt lat="47.49222" lon="3.62491">
        <ele>216</ele>
        <time>2019-04-04T08:59:28Z</time>
      </trkpt>
      <trkpt lat="47.4922" lon="3.62498">
        <ele>216</ele>
        <time>2019-04-04T08:59:33Z</time>
      </trkpt>
      <trkpt lat="47.49217" lon="3.62504">
        <ele>214</ele>
        <time>2019-04-04T08:59:38Z</time>
      </trkpt>
      <trkpt lat="47.49217" lon="3.62512">
        <ele>215</ele>
        <time>2019-04-04T08:59:44Z</time>
      </trkpt>
      <trkpt lat="47.49215" lon="3.62518">
        <ele>214</ele>
        <time>2019-04-04T08:59:49Z</time>
      </trkpt>
      <trkpt lat="47.49214" lon="3.62526">
        <ele>213</ele>
        <time>2019-04-04T08:59:53Z</time>
      </trkpt>
      <trkpt lat="47.49213" lon="3.62533">
        <ele>215</ele>
        <time>2019-04-04T08:59:57Z</time>
      </trkpt>
      <trkpt lat="47.49212" lon="3.6254">
        <ele>212</ele>
        <time>2019-04-04T09:00:03Z</time>
      </trkpt>
      <trkpt lat="47.4921" lon="3.62549">
        <ele>213</ele>
        <time>2019-04-04T09:00:08Z</time>
      </trkpt>
      <trkpt lat="47.49209" lon="3.62554">
        <ele>212</ele>
        <time>2019-04-04T09:00:10Z</time>
      </trkpt>
      <trkpt lat="47.49209" lon="3.62562">
        <ele>214</ele>
        <time>2019-04-04T09:00:14Z</time>
      </trkpt>
      <trkpt lat="47.49207" lon="3.62569">
        <ele>213</ele>
        <time>2019-04-04T09:00:18Z</time>
      </trkpt>
      <trkpt lat="47.49207" lon="3.62577">
        <ele>215</ele>
        <time>2019-04-04T09:00:23Z</time>
      </trkpt>
      <trkpt lat="47.49205" lon="3.62585">
        <ele>215</ele>
        <time>2019-04-04T09:00:28Z</time>
      </trkpt>
      <trkpt lat="47.49205" lon="3.62592">
        <ele>214</ele>
        <time>2019-04-04T09:00:32Z</time>
      </trkpt>
      <trkpt lat="47.49202" lon="3.62598">
        <ele>214</ele>
        <time>2019-04-04T09:00:36Z</time>
      </trkpt>
      <trkpt lat="47.492" lon="3.62604">
        <ele>214</ele>
        <time>2019-04-04T09:00:40Z</time>
      </trkpt>
      <trkpt lat="47.49196" lon="3.62609">
        <ele>214</ele>
        <time>2019-04-04T09:00:46Z</time>
      </trkpt>
      <trkpt lat="47.49195" lon="3.62612">
        <ele>213</ele>
        <time>2019-04-04T09:00:49Z</time>
      </trkpt>
      <trkpt lat="47.4919" lon="3.62615">
        <ele>214</ele>
        <time>2019-04-04T09:00:53Z</time>
      </trkpt>
      <trkpt lat="47.49185" lon="3.62617">
        <ele>214</ele>
        <time>2019-04-04T09:01:00Z</time>
      </trkpt>
      <trkpt lat="47.49185" lon="3.62621">
        <ele>215</ele>
        <time>2019-04-04T09:01:08Z</time>
      </trkpt>
      <trkpt lat="47.49183" lon="3.62628">
        <ele>215</ele>
        <time>2019-04-04T09:01:12Z</time>
      </trkpt>
      <trkpt lat="47.4918" lon="3.62635">
        <ele>216</ele>
        <time>2019-04-04T09:01:17Z</time>
      </trkpt>
      <trkpt lat="47.49176" lon="3.6264">
        <ele>215</ele>
        <time>2019-04-04T09:01:21Z</time>
      </trkpt>
      <trkpt lat="47.49175" lon="3.6265">
        <ele>216</ele>
        <time>2019-04-04T09:01:25Z</time>
      </trkpt>
      <trkpt lat="47.49174" lon="3.62659">
        <ele>214</ele>
        <time>2019-04-04T09:01:28Z</time>
      </trkpt>
      <trkpt lat="47.49173" lon="3.62665">
        <ele>213</ele>
        <time>2019-04-04T09:01:32Z</time>
      </trkpt>
      <trkpt lat="47.4917" lon="3.62671">
        <ele>214</ele>
        <time>2019-04-04T09:01:38Z</time>
      </trkpt>
      <trkpt lat="47.49168" lon="3.62677">
        <ele>214</ele>
        <time>2019-04-04T09:01:42Z</time>
      </trkpt>
      <trkpt lat="47.49166" lon="3.6268">
        <ele>216</ele>
        <time>2019-04-04T09:01:46Z</time>
      </trkpt>
      <trkpt lat="47.49164" lon="3.62689">
        <ele>217</ele>
        <time>2019-04-04T09:01:52Z</time>
      </trkpt>
      <trkpt lat="47.49163" lon="3.62693">
        <ele>217</ele>
        <time>2019-04-04T09:01:54Z</time>
      </trkpt>
      <trkpt lat="47.4916" lon="3.62698">
        <ele>218</ele>
        <time>2019-04-04T09:01:58Z</time>
      </trkpt>
      <trkpt lat="47.49158" lon="3.62701">
        <ele>218</ele>
        <time>2019-04-04T09:02:00Z</time>
      </trkpt>
      <trkpt lat="47.49156" lon="3.62704">
        <ele>218</ele>
        <time>2019-04-04T09:02:02Z</time>
      </trkpt>
      <trkpt lat="47.49154" lon="3.62712">
        <ele>217</ele>
        <time>2019-04-04T09:02:06Z</time>
      </trkpt>
      <trkpt lat="47.49154" lon="3.62719">
        <ele>218</ele>
        <time>2019-04-04T09:02:13Z</time>
      </trkpt>
      <trkpt lat="47.49152" lon="3.62726">
        <ele>218</ele>
        <time>2019-04-04T09:02:17Z</time>
      </trkpt>
      <trkpt lat="47.49149" lon="3.62731">
        <ele>219</ele>
        <time>2019-04-04T09:02:23Z</time>
      </trkpt>
      <trkpt lat="47.49145" lon="3.62735">
        <ele>218</ele>
        <time>2019-04-04T09:02:28Z</time>
      </trkpt>
      <trkpt lat="47.49143" lon="3.62741">
        <ele>216</ele>
        <time>2019-04-04T09:02:33Z</time>
      </trkpt>
      <trkpt lat="47.49142" lon="3.62744">
        <ele>216</ele>
        <time>2019-04-04T09:02:35Z</time>
      </trkpt>
      <trkpt lat="47.49139" lon="3.62751">
        <ele>216</ele>
        <time>2019-04-04T09:02:39Z</time>
      </trkpt>
      <trkpt lat="47.49139" lon="3.62758">
        <ele>216</ele>
        <time>2019-04-04T09:02:43Z</time>
      </trkpt>
      <trkpt lat="47.49137" lon="3.62765">
        <ele>216</ele>
        <time>2019-04-04T09:02:47Z</time>
      </trkpt>
      <trkpt lat="47.49134" lon="3.62772">
        <ele>216</ele>
        <time>2019-04-04T09:02:51Z</time>
      </trkpt>
      <trkpt lat="47.49132" lon="3.62777">
        <ele>216</ele>
        <time>2019-04-04T09:02:54Z</time>
      </trkpt>
      <trkpt lat="47.49131" lon="3.62784">
        <ele>217</ele>
        <time>2019-04-04T09:02:57Z</time>
      </trkpt>
      <trkpt lat="47.49128" lon="3.6279">
        <ele>216</ele>
        <time>2019-04-04T09:03:03Z</time>
      </trkpt>
      <trkpt lat="47.49126" lon="3.62797">
        <ele>215</ele>
        <time>2019-04-04T09:03:07Z</time>
      </trkpt>
      <trkpt lat="47.49125" lon="3.628">
        <ele>215</ele>
        <time>2019-04-04T09:03:08Z</time>
      </trkpt>
      <trkpt lat="47.49123" lon="3.62807">
        <ele>215</ele>
        <time>2019-04-04T09:03:13Z</time>
      </trkpt>
      <trkpt lat="47.49121" lon="3.62812">
        <ele>214</ele>
        <time>2019-04-04T09:03:17Z</time>
      </trkpt>
      <trkpt lat="47.4912" lon="3.62816">
        <ele>214</ele>
        <time>2019-04-04T09:03:19Z</time>
      </trkpt>
      <trkpt lat="47.49119" lon="3.62823">
        <ele>212</ele>
        <time>2019-04-04T09:03:24Z</time>
      </trkpt>
      <trkpt lat="47.49118" lon="3.6283">
        <ele>213</ele>
        <time>2019-04-04T09:03:27Z</time>
      </trkpt>
      <trkpt lat="47.49116" lon="3.62836">
        <ele>214</ele>
        <time>2019-04-04T09:03:31Z</time>
      </trkpt>
      <trkpt lat="47.49116" lon="3.62844">
        <ele>214</ele>
        <time>2019-04-04T09:03:35Z</time>
      </trkpt>
      <trkpt lat="47.49115" lon="3.62848">
        <ele>215</ele>
        <time>2019-04-04T09:03:38Z</time>
      </trkpt>
      <trkpt lat="47.49114" lon="3.62855">
        <ele>216</ele>
        <time>2019-04-04T09:03:42Z</time>
      </trkpt>
      <trkpt lat="47.49113" lon="3.62859">
        <ele>216</ele>
        <time>2019-04-04T09:03:45Z</time>
      </trkpt>
      <trkpt lat="47.49112" lon="3.62868">
        <ele>217</ele>
        <time>2019-04-04T09:03:50Z</time>
      </trkpt>
      <trkpt lat="47.49112" lon="3.62872">
        <ele>216</ele>
        <time>2019-04-04T09:03:52Z</time>
      </trkpt>
      <trkpt lat="47.49111" lon="3.62879">
        <ele>215</ele>
        <time>2019-04-04T09:03:56Z</time>
      </trkpt>
      <trkpt lat="47.4911" lon="3.62886">
        <ele>215</ele>
        <time>2019-04-04T09:04:00Z</time>
      </trkpt>
      <trkpt lat="47.49109" lon="3.62892">
        <ele>215</ele>
        <time>2019-04-04T09:04:03Z</time>
      </trkpt>
      <trkpt lat="47.4911" lon="3.62901">
        <ele>216</ele>
        <time>2019-04-04T09:04:07Z</time>
      </trkpt>
      <trkpt lat="47.49109" lon="3.62909">
        <ele>216</ele>
        <time>2019-04-04T09:04:13Z</time>
      </trkpt>
      <trkpt lat="47.49108" lon="3.62914">
        <ele>216</ele>
        <time>2019-04-04T09:04:16Z</time>
      </trkpt>
      <trkpt lat="47.49108" lon="3.62921">
        <ele>216</ele>
        <time>2019-04-04T09:04:20Z</time>
      </trkpt>
      <trkpt lat="47.49107" lon="3.62929">
        <ele>216</ele>
        <time>2019-04-04T09:04:25Z</time>
      </trkpt>
      <trkpt lat="47.49107" lon="3.62935">
        <ele>217</ele>
        <time>2019-04-04T09:04:28Z</time>
      </trkpt>
      <trkpt lat="47.49107" lon="3.62943">
        <ele>216</ele>
        <time>2019-04-04T09:04:32Z</time>
      </trkpt>
      <trkpt lat="47.49106" lon="3.62951">
        <ele>217</ele>
        <time>2019-04-04T09:04:36Z</time>
      </trkpt>
      <trkpt lat="47.49104" lon="3.62958">
        <ele>217</ele>
        <time>2019-04-04T09:04:40Z</time>
      </trkpt>
      <trkpt lat="47.49103" lon="3.62962">
        <ele>217</ele>
        <time>2019-04-04T09:04:43Z</time>
      </trkpt>
      <trkpt lat="47.49102" lon="3.62967">
        <ele>218</ele>
        <time>2019-04-04T09:04:47Z</time>
      </trkpt>
      <trkpt lat="47.49102" lon="3.62974">
        <ele>219</ele>
        <time>2019-04-04T09:04:51Z</time>
      </trkpt>
      <trkpt lat="47.49101" lon="3.62981">
        <ele>220</ele>
        <time>2019-04-04T09:04:55Z</time>
      </trkpt>
      <trkpt lat="47.49099" lon="3.62988">
        <ele>220</ele>
        <time>2019-04-04T09:05:00Z</time>
      </trkpt>
      <trkpt lat="47.49097" lon="3.62993">
        <ele>220</ele>
        <time>2019-04-04T09:05:03Z</time>
      </trkpt>
      <trkpt lat="47.49095" lon="3.63">
        <ele>221</ele>
        <time>2019-04-04T09:05:07Z</time>
      </trkpt>
      <trkpt lat="47.49092" lon="3.63007">
        <ele>221</ele>
        <time>2019-04-04T09:05:11Z</time>
      </trkpt>
      <trkpt lat="47.49089" lon="3.63014">
        <ele>221</ele>
        <time>2019-04-04T09:05:16Z</time>
      </trkpt>
      <trkpt lat="47.49088" lon="3.63017">
        <ele>221</ele>
        <time>2019-04-04T09:05:18Z</time>
      </trkpt>
      <trkpt lat="47.49086" lon="3.63021">
        <ele>221</ele>
        <time>2019-04-04T09:05:21Z</time>
      </trkpt>
      <trkpt lat="47.49082" lon="3.63028">
        <ele>222</ele>
        <time>2019-04-04T09:05:24Z</time>
      </trkpt>
      <trkpt lat="47.4908" lon="3.63031">
        <ele>221</ele>
        <time>2019-04-04T09:05:28Z</time>
      </trkpt>
      <trkpt lat="47.49077" lon="3.63037">
        <ele>221</ele>
        <time>2019-04-04T09:05:32Z</time>
      </trkpt>
      <trkpt lat="47.49075" lon="3.63043">
        <ele>222</ele>
        <time>2019-04-04T09:05:37Z</time>
      </trkpt>
      <trkpt lat="47.49071" lon="3.63048">
        <ele>221</ele>
        <time>2019-04-04T09:05:41Z</time>
      </trkpt>
      <trkpt lat="47.49068" lon="3.63056">
        <ele>223</ele>
        <time>2019-04-04T09:05:46Z</time>
      </trkpt>
      <trkpt lat="47.49066" lon="3.63062">
        <ele>222</ele>
        <time>2019-04-04T09:05:48Z</time>
      </trkpt>
      <trkpt lat="47.49063" lon="3.6307">
        <ele>222</ele>
        <time>2019-04-04T09:05:54Z</time>
      </trkpt>
      <trkpt lat="47.49061" lon="3.63077">
        <ele>221</ele>
        <time>2019-04-04T09:05:58Z</time>
      </trkpt>
      <trkpt lat="47.49059" lon="3.63081">
        <ele>222</ele>
        <time>2019-04-04T09:06:01Z</time>
      </trkpt>
      <trkpt lat="47.49058" lon="3.63088">
        <ele>223</ele>
        <time>2019-04-04T09:06:06Z</time>
      </trkpt>
      <trkpt lat="47.49054" lon="3.63093">
        <ele>223</ele>
        <time>2019-04-04T09:06:10Z</time>
      </trkpt>
      <trkpt lat="47.4905" lon="3.63098">
        <ele>224</ele>
        <time>2019-04-04T09:06:16Z</time>
      </trkpt>
      <trkpt lat="47.49046" lon="3.63105">
        <ele>224</ele>
        <time>2019-04-04T09:06:20Z</time>
      </trkpt>
      <trkpt lat="47.49042" lon="3.6311">
        <ele>225</ele>
        <time>2019-04-04T09:06:24Z</time>
      </trkpt>
      <trkpt lat="47.49038" lon="3.63115">
        <ele>225</ele>
        <time>2019-04-04T09:06:27Z</time>
      </trkpt>
      <trkpt lat="47.49036" lon="3.63118">
        <ele>225</ele>
        <time>2019-04-04T09:06:29Z</time>
      </trkpt>
      <trkpt lat="47.49034" lon="3.63124">
        <ele>225</ele>
        <time>2019-04-04T09:06:33Z</time>
      </trkpt>
      <trkpt lat="47.4903" lon="3.63129">
        <ele>226</ele>
        <time>2019-04-04T09:06:39Z</time>
      </trkpt>
      <trkpt lat="47.49026" lon="3.63133">
        <ele>226</ele>
        <time>2019-04-04T09:06:44Z</time>
      </trkpt>
      <trkpt lat="47.49025" lon="3.6314">
        <ele>224</ele>
        <time>2019-04-04T09:06:48Z</time>
      </trkpt>
      <trkpt lat="47.49023" lon="3.63142">
        <ele>220</ele>
        <time>2019-04-04T09:06:57Z</time>
      </trkpt>
      <trkpt lat="47.49016" lon="3.63136">
        <ele>223</ele>
        <time>2019-04-04T09:07:05Z</time>
      </trkpt>
      <trkpt lat="47.4901" lon="3.63133">
        <ele>224</ele>
        <time>2019-04-04T09:07:10Z</time>
      </trkpt>
      <trkpt lat="47.49007" lon="3.63129">
        <ele>224</ele>
        <time>2019-04-04T09:07:14Z</time>
      </trkpt>
      <trkpt lat="47.49002" lon="3.63126">
        <ele>224</ele>
        <time>2019-04-04T09:07:19Z</time>
      </trkpt>
      <trkpt lat="47.48997" lon="3.63121">
        <ele>225</ele>
        <time>2019-04-04T09:07:24Z</time>
      </trkpt>
      <trkpt lat="47.48993" lon="3.63118">
        <ele>225</ele>
        <time>2019-04-04T09:07:27Z</time>
      </trkpt>
      <trkpt lat="47.48989" lon="3.63115">
        <ele>225</ele>
        <time>2019-04-04T09:07:30Z</time>
      </trkpt>
      <trkpt lat="47.48985" lon="3.63111">
        <ele>226</ele>
        <time>2019-04-04T09:07:35Z</time>
      </trkpt>
      <trkpt lat="47.48982" lon="3.63108">
        <ele>225</ele>
        <time>2019-04-04T09:07:38Z</time>
      </trkpt>
      <trkpt lat="47.4898" lon="3.63105">
        <ele>225</ele>
        <time>2019-04-04T09:07:41Z</time>
      </trkpt>
      <trkpt lat="47.48977" lon="3.63103">
        <ele>225</ele>
        <time>2019-04-04T09:07:43Z</time>
      </trkpt>
      <trkpt lat="47.48973" lon="3.631">
        <ele>226</ele>
        <time>2019-04-04T09:07:46Z</time>
      </trkpt>
      <trkpt lat="47.48969" lon="3.63095">
        <ele>227</ele>
        <time>2019-04-04T09:07:50Z</time>
      </trkpt>
      <trkpt lat="47.48964" lon="3.63092">
        <ele>228</ele>
        <time>2019-04-04T09:07:55Z</time>
      </trkpt>
      <trkpt lat="47.48961" lon="3.6309">
        <ele>228</ele>
        <time>2019-04-04T09:07:59Z</time>
      </trkpt>
      <trkpt lat="47.48958" lon="3.63088">
        <ele>229</ele>
        <time>2019-04-04T09:08:02Z</time>
      </trkpt>
      <trkpt lat="47.48954" lon="3.63084">
        <ele>229</ele>
        <time>2019-04-04T09:08:06Z</time>
      </trkpt>
      <trkpt lat="47.48949" lon="3.63082">
        <ele>229</ele>
        <time>2019-04-04T09:08:11Z</time>
      </trkpt>
      <trkpt lat="47.48945" lon="3.63076">
        <ele>229</ele>
        <time>2019-04-04T09:08:15Z</time>
      </trkpt>
      <trkpt lat="47.48943" lon="3.63074">
        <ele>229</ele>
        <time>2019-04-04T09:08:17Z</time>
      </trkpt>
      <trkpt lat="47.48939" lon="3.6307">
        <ele>230</ele>
        <time>2019-04-04T09:08:22Z</time>
      </trkpt>
      <trkpt lat="47.48934" lon="3.63068">
        <ele>232</ele>
        <time>2019-04-04T09:08:27Z</time>
      </trkpt>
      <trkpt lat="47.4893" lon="3.63064">
        <ele>232</ele>
        <time>2019-04-04T09:08:30Z</time>
      </trkpt>
      <trkpt lat="47.48925" lon="3.63062">
        <ele>232</ele>
        <time>2019-04-04T09:08:34Z</time>
      </trkpt>
      <trkpt lat="47.48922" lon="3.6306">
        <ele>232</ele>
        <time>2019-04-04T09:08:37Z</time>
      </trkpt>
      <trkpt lat="47.48917" lon="3.63058">
        <ele>232</ele>
        <time>2019-04-04T09:08:41Z</time>
      </trkpt>
      <trkpt lat="47.48913" lon="3.63056">
        <ele>232</ele>
        <time>2019-04-04T09:08:46Z</time>
      </trkpt>
      <trkpt lat="47.48909" lon="3.63054">
        <ele>232</ele>
        <time>2019-04-04T09:08:50Z</time>
      </trkpt>
      <trkpt lat="47.48905" lon="3.63053">
        <ele>232</ele>
        <time>2019-04-04T09:08:53Z</time>
      </trkpt>
      <trkpt lat="47.48901" lon="3.63051">
        <ele>233</ele>
        <time>2019-04-04T09:08:56Z</time>
      </trkpt>
      <trkpt lat="47.48897" lon="3.6305">
        <ele>233</ele>
        <time>2019-04-04T09:08:59Z</time>
      </trkpt>
      <trkpt lat="47.48895" lon="3.6305">
        <ele>233</ele>
        <time>2019-04-04T09:09:01Z</time>
      </trkpt>
      <trkpt lat="47.48892" lon="3.63049">
        <ele>233</ele>
        <time>2019-04-04T09:09:03Z</time>
      </trkpt>
      <trkpt lat="47.48886" lon="3.6305">
        <ele>234</ele>
        <time>2019-04-04T09:09:07Z</time>
      </trkpt>
      <trkpt lat="47.48881" lon="3.63048">
        <ele>234</ele>
        <time>2019-04-04T09:09:11Z</time>
      </trkpt>
      <trkpt lat="47.48879" lon="3.63047">
        <ele>235</ele>
        <time>2019-04-04T09:09:14Z</time>
      </trkpt>
      <trkpt lat="47.48873" lon="3.63046">
        <ele>236</ele>
        <time>2019-04-04T09:09:18Z</time>
      </trkpt>
      <trkpt lat="47.4887" lon="3.63046">
        <ele>237</ele>
        <time>2019-04-04T09:09:22Z</time>
      </trkpt>
      <trkpt lat="47.48864" lon="3.63046">
        <ele>238</ele>
        <time>2019-04-04T09:09:28Z</time>
      </trkpt>
      <trkpt lat="47.48858" lon="3.63045">
        <ele>237</ele>
        <time>2019-04-04T09:09:31Z</time>
      </trkpt>
      <trkpt lat="47.48855" lon="3.63045">
        <ele>238</ele>
        <time>2019-04-04T09:09:34Z</time>
      </trkpt>
      <trkpt lat="47.48853" lon="3.63044">
        <ele>238</ele>
        <time>2019-04-04T09:09:37Z</time>
      </trkpt>
      <trkpt lat="47.48848" lon="3.63046">
        <ele>238</ele>
        <time>2019-04-04T09:09:41Z</time>
      </trkpt>
      <trkpt lat="47.48842" lon="3.63048">
        <ele>238</ele>
        <time>2019-04-04T09:09:45Z</time>
      </trkpt>
      <trkpt lat="47.48839" lon="3.63048">
        <ele>238</ele>
        <time>2019-04-04T09:09:48Z</time>
      </trkpt>
      <trkpt lat="47.48836" lon="3.63048">
        <ele>238</ele>
        <time>2019-04-04T09:09:51Z</time>
      </trkpt>
      <trkpt lat="47.48831" lon="3.63049">
        <ele>238</ele>
        <time>2019-04-04T09:09:55Z</time>
      </trkpt>
      <trkpt lat="47.48826" lon="3.63049">
        <ele>238</ele>
        <time>2019-04-04T09:09:59Z</time>
      </trkpt>
      <trkpt lat="47.4882" lon="3.63051">
        <ele>238</ele>
        <time>2019-04-04T09:10:04Z</time>
      </trkpt>
      <trkpt lat="47.48818" lon="3.63051">
        <ele>238</ele>
        <time>2019-04-04T09:10:06Z</time>
      </trkpt>
      <trkpt lat="47.48814" lon="3.63054">
        <ele>238</ele>
        <time>2019-04-04T09:10:15Z</time>
      </trkpt>
      <trkpt lat="47.48806" lon="3.63054">
        <ele>239</ele>
        <time>2019-04-04T09:10:35Z</time>
      </trkpt>
      <trkpt lat="47.48801" lon="3.63054">
        <ele>240</ele>
        <time>2019-04-04T09:10:39Z</time>
      </trkpt>
      <trkpt lat="47.48798" lon="3.63054">
        <ele>240</ele>
        <time>2019-04-04T09:10:41Z</time>
      </trkpt>
      <trkpt lat="47.48795" lon="3.63054">
        <ele>240</ele>
        <time>2019-04-04T09:10:43Z</time>
      </trkpt>
      <trkpt lat="47.48793" lon="3.63054">
        <ele>240</ele>
        <time>2019-04-04T09:10:45Z</time>
      </trkpt>
      <trkpt lat="47.48789" lon="3.63054">
        <ele>240</ele>
        <time>2019-04-04T09:10:47Z</time>
      </trkpt>
      <trkpt lat="47.48786" lon="3.63054">
        <ele>240</ele>
        <time>2019-04-04T09:10:50Z</time>
      </trkpt>
      <trkpt lat="47.48783" lon="3.63054">
        <ele>241</ele>
        <time>2019-04-04T09:10:53Z</time>
      </trkpt>
      <trkpt lat="47.48778" lon="3.63053">
        <ele>241</ele>
        <time>2019-04-04T09:10:57Z</time>
      </trkpt>
      <trkpt lat="47.48772" lon="3.63054">
        <ele>241</ele>
        <time>2019-04-04T09:11:02Z</time>
      </trkpt>
      <trkpt lat="47.48767" lon="3.63054">
        <ele>242</ele>
        <time>2019-04-04T09:11:07Z</time>
      </trkpt>
      <trkpt lat="47.48762" lon="3.63054">
        <ele>242</ele>
        <time>2019-04-04T09:11:11Z</time>
      </trkpt>
      <trkpt lat="47.48759" lon="3.63054">
        <ele>242</ele>
        <time>2019-04-04T09:11:14Z</time>
      </trkpt>
      <trkpt lat="47.48756" lon="3.63054">
        <ele>243</ele>
        <time>2019-04-04T09:11:17Z</time>
      </trkpt>
      <trkpt lat="47.48751" lon="3.63053">
        <ele>243</ele>
        <time>2019-04-04T09:11:21Z</time>
      </trkpt>
      <trkpt lat="47.48749" lon="3.63053">
        <ele>244</ele>
        <time>2019-04-04T09:11:23Z</time>
      </trkpt>
      <trkpt lat="47.48746" lon="3.63052">
        <ele>244</ele>
        <time>2019-04-04T09:11:25Z</time>
      </trkpt>
      <trkpt lat="47.48741" lon="3.6305">
        <ele>243</ele>
        <time>2019-04-04T09:11:29Z</time>
      </trkpt>
      <trkpt lat="47.48738" lon="3.63049">
        <ele>243</ele>
        <time>2019-04-04T09:11:31Z</time>
      </trkpt>
      <trkpt lat="47.48736" lon="3.63049">
        <ele>244</ele>
        <time>2019-04-04T09:11:33Z</time>
      </trkpt>
      <trkpt lat="47.48733" lon="3.63047">
        <ele>244</ele>
        <time>2019-04-04T09:11:36Z</time>
      </trkpt>
      <trkpt lat="47.48731" lon="3.63047">
        <ele>245</ele>
        <time>2019-04-04T09:11:38Z</time>
      </trkpt>
      <trkpt lat="47.48725" lon="3.63045">
        <ele>246</ele>
        <time>2019-04-04T09:11:43Z</time>
      </trkpt>
      <trkpt lat="47.4872" lon="3.63044">
        <ele>246</ele>
        <time>2019-04-04T09:11:48Z</time>
      </trkpt>
      <trkpt lat="47.48715" lon="3.63043">
        <ele>247</ele>
        <time>2019-04-04T09:11:52Z</time>
      </trkpt>
      <trkpt lat="47.48712" lon="3.63042">
        <ele>246</ele>
        <time>2019-04-04T09:11:56Z</time>
      </trkpt>
      <trkpt lat="47.48706" lon="3.6304">
        <ele>246</ele>
        <time>2019-04-04T09:12:01Z</time>
      </trkpt>
      <trkpt lat="47.48703" lon="3.63039">
        <ele>247</ele>
        <time>2019-04-04T09:12:04Z</time>
      </trkpt>
      <trkpt lat="47.48699" lon="3.63038">
        <ele>247</ele>
        <time>2019-04-04T09:12:07Z</time>
      </trkpt>
      <trkpt lat="47.48694" lon="3.63036">
        <ele>248</ele>
        <time>2019-04-04T09:12:11Z</time>
      </trkpt>
      <trkpt lat="47.48692" lon="3.63036">
        <ele>248</ele>
        <time>2019-04-04T09:12:13Z</time>
      </trkpt>
      <trkpt lat="47.48686" lon="3.63035">
        <ele>248</ele>
        <time>2019-04-04T09:12:18Z</time>
      </trkpt>
      <trkpt lat="47.48682" lon="3.63033">
        <ele>248</ele>
        <time>2019-04-04T09:12:22Z</time>
      </trkpt>
      <trkpt lat="47.48679" lon="3.63032">
        <ele>248</ele>
        <time>2019-04-04T09:12:24Z</time>
      </trkpt>
      <trkpt lat="47.48674" lon="3.63032">
        <ele>248</ele>
        <time>2019-04-04T09:12:27Z</time>
      </trkpt>
      <trkpt lat="47.48671" lon="3.63032">
        <ele>249</ele>
        <time>2019-04-04T09:12:30Z</time>
      </trkpt>
      <trkpt lat="47.48668" lon="3.63031">
        <ele>248</ele>
        <time>2019-04-04T09:12:32Z</time>
      </trkpt>
      <trkpt lat="47.48665" lon="3.63031">
        <ele>249</ele>
        <time>2019-04-04T09:12:34Z</time>
      </trkpt>
      <trkpt lat="47.4866" lon="3.63028">
        <ele>249</ele>
        <time>2019-04-04T09:12:39Z</time>
      </trkpt>
      <trkpt lat="47.48655" lon="3.63028">
        <ele>250</ele>
        <time>2019-04-04T09:12:43Z</time>
      </trkpt>
      <trkpt lat="47.48648" lon="3.63027">
        <ele>251</ele>
        <time>2019-04-04T09:12:48Z</time>
      </trkpt>
      <trkpt lat="47.48646" lon="3.63026">
        <ele>251</ele>
        <time>2019-04-04T09:12:50Z</time>
      </trkpt>
      <trkpt lat="47.48643" lon="3.63026">
        <ele>251</ele>
        <time>2019-04-04T09:12:52Z</time>
      </trkpt>
      <trkpt lat="47.48639" lon="3.63025">
        <ele>251</ele>
        <time>2019-04-04T09:12:55Z</time>
      </trkpt>
      <trkpt lat="47.48637" lon="3.63025">
        <ele>251</ele>
        <time>2019-04-04T09:12:57Z</time>
      </trkpt>
      <trkpt lat="47.48634" lon="3.63025">
        <ele>251</ele>
        <time>2019-04-04T09:12:59Z</time>
      </trkpt>
      <trkpt lat="47.4863" lon="3.63024">
        <ele>251</ele>
        <time>2019-04-04T09:13:02Z</time>
      </trkpt>
      <trkpt lat="47.48626" lon="3.63024">
        <ele>251</ele>
        <time>2019-04-04T09:13:05Z</time>
      </trkpt>
      <trkpt lat="47.48623" lon="3.63024">
        <ele>251</ele>
        <time>2019-04-04T09:13:08Z</time>
      </trkpt>
      <trkpt lat="47.4862" lon="3.63024">
        <ele>251</ele>
        <time>2019-04-04T09:13:10Z</time>
      </trkpt>
      <trkpt lat="47.48617" lon="3.63024">
        <ele>251</ele>
        <time>2019-04-04T09:13:12Z</time>
      </trkpt>
      <trkpt lat="47.48614" lon="3.63024">
        <ele>251</ele>
        <time>2019-04-04T09:13:14Z</time>
      </trkpt>
      <trkpt lat="47.4861" lon="3.63023">
        <ele>251</ele>
        <time>2019-04-04T09:13:18Z</time>
      </trkpt>
      <trkpt lat="47.48605" lon="3.63024">
        <ele>252</ele>
        <time>2019-04-04T09:13:22Z</time>
      </trkpt>
      <trkpt lat="47.486" lon="3.63023">
        <ele>252</ele>
        <time>2019-04-04T09:13:26Z</time>
      </trkpt>
      <trkpt lat="47.48597" lon="3.63023">
        <ele>252</ele>
        <time>2019-04-04T09:13:28Z</time>
      </trkpt>
      <trkpt lat="47.48592" lon="3.63023">
        <ele>252</ele>
        <time>2019-04-04T09:13:32Z</time>
      </trkpt>
      <trkpt lat="47.48589" lon="3.63023">
        <ele>252</ele>
        <time>2019-04-04T09:13:34Z</time>
      </trkpt>
      <trkpt lat="47.48584" lon="3.63024">
        <ele>253</ele>
        <time>2019-04-04T09:13:38Z</time>
      </trkpt>
      <trkpt lat="47.48579" lon="3.63024">
        <ele>253</ele>
        <time>2019-04-04T09:13:43Z</time>
      </trkpt>
      <trkpt lat="47.48574" lon="3.63025">
        <ele>253</ele>
        <time>2019-04-04T09:13:47Z</time>
      </trkpt>
      <trkpt lat="47.4857" lon="3.63026">
        <ele>254</ele>
        <time>2019-04-04T09:13:51Z</time>
      </trkpt>
      <trkpt lat="47.48567" lon="3.63026">
        <ele>254</ele>
        <time>2019-04-04T09:13:53Z</time>
      </trkpt>
      <trkpt lat="47.48562" lon="3.63025">
        <ele>255</ele>
        <time>2019-04-04T09:13:56Z</time>
      </trkpt>
      <trkpt lat="47.48559" lon="3.63025">
        <ele>255</ele>
        <time>2019-04-04T09:13:58Z</time>
      </trkpt>
      <trkpt lat="47.48555" lon="3.63024">
        <ele>256</ele>
        <time>2019-04-04T09:14:01Z</time>
      </trkpt>
      <trkpt lat="47.48551" lon="3.63024">
        <ele>257</ele>
        <time>2019-04-04T09:14:04Z</time>
      </trkpt>
      <trkpt lat="47.48549" lon="3.63023">
        <ele>256</ele>
        <time>2019-04-04T09:14:06Z</time>
      </trkpt>
      <trkpt lat="47.48543" lon="3.63022">
        <ele>257</ele>
        <time>2019-04-04T09:14:10Z</time>
      </trkpt>
      <trkpt lat="47.48541" lon="3.63022">
        <ele>258</ele>
        <time>2019-04-04T09:14:12Z</time>
      </trkpt>
      <trkpt lat="47.48536" lon="3.6302">
        <ele>258</ele>
        <time>2019-04-04T09:14:16Z</time>
      </trkpt>
      <trkpt lat="47.48533" lon="3.63019">
        <ele>258</ele>
        <time>2019-04-04T09:14:19Z</time>
      </trkpt>
      <trkpt lat="47.48529" lon="3.63017">
        <ele>258</ele>
        <time>2019-04-04T09:14:23Z</time>
      </trkpt>
      <trkpt lat="47.48524" lon="3.63016">
        <ele>259</ele>
        <time>2019-04-04T09:14:27Z</time>
      </trkpt>
      <trkpt lat="47.48519" lon="3.63014">
        <ele>259</ele>
        <time>2019-04-04T09:14:31Z</time>
      </trkpt>
      <trkpt lat="47.48515" lon="3.63011">
        <ele>260</ele>
        <time>2019-04-04T09:14:35Z</time>
      </trkpt>
      <trkpt lat="47.4851" lon="3.63009">
        <ele>261</ele>
        <time>2019-04-04T09:14:39Z</time>
      </trkpt>
      <trkpt lat="47.48508" lon="3.63007">
        <ele>261</ele>
        <time>2019-04-04T09:14:41Z</time>
      </trkpt>
      <trkpt lat="47.48504" lon="3.63004">
        <ele>260</ele>
        <time>2019-04-04T09:14:44Z</time>
      </trkpt>
      <trkpt lat="47.48502" lon="3.63002">
        <ele>259</ele>
        <time>2019-04-04T09:14:46Z</time>
      </trkpt>
      <trkpt lat="47.48496" lon="3.62997">
        <ele>259</ele>
        <time>2019-04-04T09:14:51Z</time>
      </trkpt>
      <trkpt lat="47.48494" lon="3.62995">
        <ele>259</ele>
        <time>2019-04-04T09:14:53Z</time>
      </trkpt>
      <trkpt lat="47.4849" lon="3.62993">
        <ele>260</ele>
        <time>2019-04-04T09:14:56Z</time>
      </trkpt>
      <trkpt lat="47.48486" lon="3.62988">
        <ele>259</ele>
        <time>2019-04-04T09:15:00Z</time>
      </trkpt>
      <trkpt lat="47.48483" lon="3.62984">
        <ele>260</ele>
        <time>2019-04-04T09:15:02Z</time>
      </trkpt>
      <trkpt lat="47.48481" lon="3.62982">
        <ele>260</ele>
        <time>2019-04-04T09:15:04Z</time>
      </trkpt>
      <trkpt lat="47.48476" lon="3.62981">
        <ele>261</ele>
        <time>2019-04-04T09:15:08Z</time>
      </trkpt>
      <trkpt lat="47.48473" lon="3.62982">
        <ele>258</ele>
        <time>2019-04-04T09:15:18Z</time>
      </trkpt>
      <trkpt lat="47.48471" lon="3.62988">
        <ele>259</ele>
        <time>2019-04-04T09:16:17Z</time>
      </trkpt>
      <trkpt lat="47.48469" lon="3.62994">
        <ele>259</ele>
        <time>2019-04-04T09:16:21Z</time>
      </trkpt>
      <trkpt lat="47.48468" lon="3.63003">
        <ele>260</ele>
        <time>2019-04-04T09:16:27Z</time>
      </trkpt>
      <trkpt lat="47.48467" lon="3.63007">
        <ele>259</ele>
        <time>2019-04-04T09:16:30Z</time>
      </trkpt>
      <trkpt lat="47.48466" lon="3.63013">
        <ele>260</ele>
        <time>2019-04-04T09:16:34Z</time>
      </trkpt>
      <trkpt lat="47.48465" lon="3.6302">
        <ele>260</ele>
        <time>2019-04-04T09:16:39Z</time>
      </trkpt>
      <trkpt lat="47.48463" lon="3.6303">
        <ele>260</ele>
        <time>2019-04-04T09:16:45Z</time>
      </trkpt>
      <trkpt lat="47.48462" lon="3.63034">
        <ele>260</ele>
        <time>2019-04-04T09:16:47Z</time>
      </trkpt>
      <trkpt lat="47.48461" lon="3.63039">
        <ele>260</ele>
        <time>2019-04-04T09:16:50Z</time>
      </trkpt>
      <trkpt lat="47.48461" lon="3.63043">
        <ele>261</ele>
        <time>2019-04-04T09:16:52Z</time>
      </trkpt>
      <trkpt lat="47.4846" lon="3.6305">
        <ele>261</ele>
        <time>2019-04-04T09:16:56Z</time>
      </trkpt>
      <trkpt lat="47.48459" lon="3.63055">
        <ele>262</ele>
        <time>2019-04-04T09:16:59Z</time>
      </trkpt>
      <trkpt lat="47.48458" lon="3.63062">
        <ele>261</ele>
        <time>2019-04-04T09:17:03Z</time>
      </trkpt>
      <trkpt lat="47.48457" lon="3.63066">
        <ele>261</ele>
        <time>2019-04-04T09:17:05Z</time>
      </trkpt>
      <trkpt lat="47.48457" lon="3.63069">
        <ele>261</ele>
        <time>2019-04-04T09:17:07Z</time>
      </trkpt>
      <trkpt lat="47.48456" lon="3.63073">
        <ele>261</ele>
        <time>2019-04-04T09:17:09Z</time>
      </trkpt>
      <trkpt lat="47.48455" lon="3.6308">
        <ele>262</ele>
        <time>2019-04-04T09:17:13Z</time>
      </trkpt>
      <trkpt lat="47.48453" lon="3.63087">
        <ele>262</ele>
        <time>2019-04-04T09:17:17Z</time>
      </trkpt>
      <trkpt lat="47.48453" lon="3.63091">
        <ele>262</ele>
        <time>2019-04-04T09:17:18Z</time>
      </trkpt>
      <trkpt lat="47.48451" lon="3.63096">
        <ele>263</ele>
        <time>2019-04-04T09:17:21Z</time>
      </trkpt>
      <trkpt lat="47.4845" lon="3.631">
        <ele>263</ele>
        <time>2019-04-04T09:17:24Z</time>
      </trkpt>
      <trkpt lat="47.48449" lon="3.63107">
        <ele>264</ele>
        <time>2019-04-04T09:17:29Z</time>
      </trkpt>
      <trkpt lat="47.48449" lon="3.63111">
        <ele>264</ele>
        <time>2019-04-04T09:17:31Z</time>
      </trkpt>
      <trkpt lat="47.48449" lon="3.63114">
        <ele>264</ele>
        <time>2019-04-04T09:17:33Z</time>
      </trkpt>
      <trkpt lat="47.48448" lon="3.63121">
        <ele>263</ele>
        <time>2019-04-04T09:17:36Z</time>
      </trkpt>
      <trkpt lat="47.48447" lon="3.63127">
        <ele>263</ele>
        <time>2019-04-04T09:17:39Z</time>
      </trkpt>
      <trkpt lat="47.48446" lon="3.63131">
        <ele>263</ele>
        <time>2019-04-04T09:17:42Z</time>
      </trkpt>
      <trkpt lat="47.48445" lon="3.63135">
        <ele>264</ele>
        <time>2019-04-04T09:17:44Z</time>
      </trkpt>
      <trkpt lat="47.48445" lon="3.63142">
        <ele>265</ele>
        <time>2019-04-04T09:17:49Z</time>
      </trkpt>
      <trkpt lat="47.48445" lon="3.63146">
        <ele>264</ele>
        <time>2019-04-04T09:17:52Z</time>
      </trkpt>
      <trkpt lat="47.48444" lon="3.63154">
        <ele>264</ele>
        <time>2019-04-04T09:17:56Z</time>
      </trkpt>
      <trkpt lat="47.48443" lon="3.63159">
        <ele>264</ele>
        <time>2019-04-04T09:17:59Z</time>
      </trkpt>
      <trkpt lat="47.48443" lon="3.63166">
        <ele>266</ele>
        <time>2019-04-04T09:18:03Z</time>
      </trkpt>
      <trkpt lat="47.48441" lon="3.63173">
        <ele>266</ele>
        <time>2019-04-04T09:18:08Z</time>
      </trkpt>
      <trkpt lat="47.48439" lon="3.63181">
        <ele>266</ele>
        <time>2019-04-04T09:18:12Z</time>
      </trkpt>
      <trkpt lat="47.48438" lon="3.63189">
        <ele>266</ele>
        <time>2019-04-04T09:18:17Z</time>
      </trkpt>
      <trkpt lat="47.48436" lon="3.63197">
        <ele>266</ele>
        <time>2019-04-04T09:18:22Z</time>
      </trkpt>
      <trkpt lat="47.48435" lon="3.63203">
        <ele>266</ele>
        <time>2019-04-04T09:18:26Z</time>
      </trkpt>
      <trkpt lat="47.48434" lon="3.63208">
        <ele>265</ele>
        <time>2019-04-04T09:18:29Z</time>
      </trkpt>
      <trkpt lat="47.48433" lon="3.63212">
        <ele>266</ele>
        <time>2019-04-04T09:18:32Z</time>
      </trkpt>
      <trkpt lat="47.4843" lon="3.63221">
        <ele>266</ele>
        <time>2019-04-04T09:18:38Z</time>
      </trkpt>
      <trkpt lat="47.48428" lon="3.63229">
        <ele>266</ele>
        <time>2019-04-04T09:18:42Z</time>
      </trkpt>
      <trkpt lat="47.48426" lon="3.63237">
        <ele>267</ele>
        <time>2019-04-04T09:18:47Z</time>
      </trkpt>
      <trkpt lat="47.48425" lon="3.6324">
        <ele>267</ele>
        <time>2019-04-04T09:18:49Z</time>
      </trkpt>
      <trkpt lat="47.48422" lon="3.63248">
        <ele>268</ele>
        <time>2019-04-04T09:18:55Z</time>
      </trkpt>
      <trkpt lat="47.48421" lon="3.63252">
        <ele>268</ele>
        <time>2019-04-04T09:18:58Z</time>
      </trkpt>
      <trkpt lat="47.48419" lon="3.63259">
        <ele>269</ele>
        <time>2019-04-04T09:19:03Z</time>
      </trkpt>
      <trkpt lat="47.48418" lon="3.63263">
        <ele>269</ele>
        <time>2019-04-04T09:19:05Z</time>
      </trkpt>
      <trkpt lat="47.48416" lon="3.63269">
        <ele>269</ele>
        <time>2019-04-04T09:19:10Z</time>
      </trkpt>
      <trkpt lat="47.48415" lon="3.63272">
        <ele>270</ele>
        <time>2019-04-04T09:19:12Z</time>
      </trkpt>
      <trkpt lat="47.48414" lon="3.63277">
        <ele>271</ele>
        <time>2019-04-04T09:19:15Z</time>
      </trkpt>
      <trkpt lat="47.48413" lon="3.6328">
        <ele>270</ele>
        <time>2019-04-04T09:19:17Z</time>
      </trkpt>
      <trkpt lat="47.48411" lon="3.63286">
        <ele>271</ele>
        <time>2019-04-04T09:19:20Z</time>
      </trkpt>
      <trkpt lat="47.4841" lon="3.63289">
        <ele>271</ele>
        <time>2019-04-04T09:19:22Z</time>
      </trkpt>
      <trkpt lat="47.48407" lon="3.63296">
        <ele>271</ele>
        <time>2019-04-04T09:19:27Z</time>
      </trkpt>
      <trkpt lat="47.48405" lon="3.63303">
        <ele>271</ele>
        <time>2019-04-04T09:19:32Z</time>
      </trkpt>
      <trkpt lat="47.48404" lon="3.6331">
        <ele>271</ele>
        <time>2019-04-04T09:19:36Z</time>
      </trkpt>
      <trkpt lat="47.48402" lon="3.63318">
        <ele>272</ele>
        <time>2019-04-04T09:19:41Z</time>
      </trkpt>
      <trkpt lat="47.48401" lon="3.63321">
        <ele>272</ele>
        <time>2019-04-04T09:19:43Z</time>
      </trkpt>
      <trkpt lat="47.484" lon="3.63328">
        <ele>272</ele>
        <time>2019-04-04T09:19:47Z</time>
      </trkpt>
      <trkpt lat="47.48399" lon="3.63334">
        <ele>273</ele>
        <time>2019-04-04T09:19:51Z</time>
      </trkpt>
      <trkpt lat="47.48398" lon="3.63339">
        <ele>273</ele>
        <time>2019-04-04T09:19:54Z</time>
      </trkpt>
      <trkpt lat="47.48397" lon="3.63344">
        <ele>273</ele>
        <time>2019-04-04T09:19:57Z</time>
      </trkpt>
      <trkpt lat="47.48395" lon="3.63353">
        <ele>274</ele>
        <time>2019-04-04T09:20:04Z</time>
      </trkpt>
      <trkpt lat="47.48394" lon="3.63357">
        <ele>274</ele>
        <time>2019-04-04T09:20:06Z</time>
      </trkpt>
      <trkpt lat="47.48393" lon="3.63364">
        <ele>274</ele>
        <time>2019-04-04T09:20:10Z</time>
      </trkpt>
      <trkpt lat="47.48392" lon="3.63369">
        <ele>275</ele>
        <time>2019-04-04T09:20:13Z</time>
      </trkpt>
      <trkpt lat="47.48391" lon="3.63375">
        <ele>276</ele>
        <time>2019-04-04T09:20:17Z</time>
      </trkpt>
      <trkpt lat="47.4839" lon="3.63379">
        <ele>275</ele>
        <time>2019-04-04T09:20:19Z</time>
      </trkpt>
      <trkpt lat="47.48389" lon="3.63382">
        <ele>276</ele>
        <time>2019-04-04T09:20:21Z</time>
      </trkpt>
      <trkpt lat="47.48389" lon="3.63387">
        <ele>276</ele>
        <time>2019-04-04T09:20:24Z</time>
      </trkpt>
      <trkpt lat="47.48387" lon="3.63392">
        <ele>276</ele>
        <time>2019-04-04T09:20:28Z</time>
      </trkpt>
      <trkpt lat="47.48386" lon="3.634">
        <ele>275</ele>
        <time>2019-04-04T09:20:33Z</time>
      </trkpt>
      <trkpt lat="47.48386" lon="3.63404">
        <ele>276</ele>
        <time>2019-04-04T09:20:36Z</time>
      </trkpt>
      <trkpt lat="47.48385" lon="3.63408">
        <ele>275</ele>
        <time>2019-04-04T09:20:38Z</time>
      </trkpt>
      <trkpt lat="47.48384" lon="3.63415">
        <ele>275</ele>
        <time>2019-04-04T09:20:42Z</time>
      </trkpt>
      <trkpt lat="47.48383" lon="3.63419">
        <ele>275</ele>
        <time>2019-04-04T09:20:44Z</time>
      </trkpt>
      <trkpt lat="47.48382" lon="3.63424">
        <ele>275</ele>
        <time>2019-04-04T09:20:47Z</time>
      </trkpt>
      <trkpt lat="47.48382" lon="3.63427">
        <ele>276</ele>
        <time>2019-04-04T09:20:49Z</time>
      </trkpt>
      <trkpt lat="47.48381" lon="3.63436">
        <ele>276</ele>
        <time>2019-04-04T09:20:53Z</time>
      </trkpt>
      <trkpt lat="47.4838" lon="3.63441">
        <ele>277</ele>
        <time>2019-04-04T09:20:56Z</time>
      </trkpt>
      <trkpt lat="47.48379" lon="3.63449">
        <ele>277</ele>
        <time>2019-04-04T09:21:02Z</time>
      </trkpt>
      <trkpt lat="47.48379" lon="3.63453">
        <ele>278</ele>
        <time>2019-04-04T09:21:04Z</time>
      </trkpt>
      <trkpt lat="47.48378" lon="3.6346">
        <ele>278</ele>
        <time>2019-04-04T09:21:07Z</time>
      </trkpt>
      <trkpt lat="47.48377" lon="3.63466">
        <ele>278</ele>
        <time>2019-04-04T09:21:13Z</time>
      </trkpt>
      <trkpt lat="47.48376" lon="3.63475">
        <ele>278</ele>
        <time>2019-04-04T09:21:17Z</time>
      </trkpt>
      <trkpt lat="47.48375" lon="3.63483">
        <ele>279</ele>
        <time>2019-04-04T09:21:22Z</time>
      </trkpt>
      <trkpt lat="47.48375" lon="3.63488">
        <ele>278</ele>
        <time>2019-04-04T09:21:25Z</time>
      </trkpt>
      <trkpt lat="47.48373" lon="3.63495">
        <ele>279</ele>
        <time>2019-04-04T09:21:29Z</time>
      </trkpt>
      <trkpt lat="47.48373" lon="3.63503">
        <ele>280</ele>
        <time>2019-04-04T09:21:34Z</time>
      </trkpt>
      <trkpt lat="47.48373" lon="3.63507">
        <ele>279</ele>
        <time>2019-04-04T09:21:36Z</time>
      </trkpt>
      <trkpt lat="47.48371" lon="3.63515">
        <ele>281</ele>
        <time>2019-04-04T09:21:41Z</time>
      </trkpt>
      <trkpt lat="47.48371" lon="3.63518">
        <ele>281</ele>
        <time>2019-04-04T09:21:43Z</time>
      </trkpt>
      <trkpt lat="47.4837" lon="3.63523">
        <ele>282</ele>
        <time>2019-04-04T09:21:46Z</time>
      </trkpt>
      <trkpt lat="47.4837" lon="3.63527">
        <ele>281</ele>
        <time>2019-04-04T09:21:48Z</time>
      </trkpt>
      <trkpt lat="47.48369" lon="3.6353">
        <ele>282</ele>
        <time>2019-04-04T09:21:51Z</time>
      </trkpt>
      <trkpt lat="47.48369" lon="3.63535">
        <ele>281</ele>
        <time>2019-04-04T09:21:54Z</time>
      </trkpt>
      <trkpt lat="47.48369" lon="3.63539">
        <ele>282</ele>
        <time>2019-04-04T09:21:56Z</time>
      </trkpt>
      <trkpt lat="47.48368" lon="3.63547">
        <ele>281</ele>
        <time>2019-04-04T09:22:01Z</time>
      </trkpt>
      <trkpt lat="47.48368" lon="3.63552">
        <ele>281</ele>
        <time>2019-04-04T09:22:03Z</time>
      </trkpt>
      <trkpt lat="47.48368" lon="3.63559">
        <ele>281</ele>
        <time>2019-04-04T09:22:05Z</time>
      </trkpt>
      <trkpt lat="47.48367" lon="3.63566">
        <ele>281</ele>
        <time>2019-04-04T09:22:10Z</time>
      </trkpt>
      <trkpt lat="47.48367" lon="3.63573">
        <ele>281</ele>
        <time>2019-04-04T09:22:15Z</time>
      </trkpt>
      <trkpt lat="47.48366" lon="3.6358">
        <ele>282</ele>
        <time>2019-04-04T09:22:21Z</time>
      </trkpt>
      <trkpt lat="47.48365" lon="3.63585">
        <ele>283</ele>
        <time>2019-04-04T09:22:24Z</time>
      </trkpt>
      <trkpt lat="47.48365" lon="3.63589">
        <ele>282</ele>
        <time>2019-04-04T09:22:26Z</time>
      </trkpt>
      <trkpt lat="47.48364" lon="3.63595">
        <ele>283</ele>
        <time>2019-04-04T09:22:30Z</time>
      </trkpt>
      <trkpt lat="47.48364" lon="3.63599">
        <ele>283</ele>
        <time>2019-04-04T09:22:33Z</time>
      </trkpt>
      <trkpt lat="47.48363" lon="3.63606">
        <ele>283</ele>
        <time>2019-04-04T09:22:38Z</time>
      </trkpt>
      <trkpt lat="47.48363" lon="3.63614">
        <ele>284</ele>
        <time>2019-04-04T09:22:42Z</time>
      </trkpt>
      <trkpt lat="47.48362" lon="3.6362">
        <ele>285</ele>
        <time>2019-04-04T09:22:45Z</time>
      </trkpt>
      <trkpt lat="47.48361" lon="3.63628">
        <ele>285</ele>
        <time>2019-04-04T09:22:50Z</time>
      </trkpt>
      <trkpt lat="47.48361" lon="3.63632">
        <ele>285</ele>
        <time>2019-04-04T09:22:53Z</time>
      </trkpt>
      <trkpt lat="47.48361" lon="3.63639">
        <ele>285</ele>
        <time>2019-04-04T09:22:58Z</time>
      </trkpt>
      <trkpt lat="47.4836" lon="3.63642">
        <ele>285</ele>
        <time>2019-04-04T09:23:00Z</time>
      </trkpt>
      <trkpt lat="47.48359" lon="3.6365">
        <ele>286</ele>
        <time>2019-04-04T09:23:04Z</time>
      </trkpt>
      <trkpt lat="47.48359" lon="3.63654">
        <ele>286</ele>
        <time>2019-04-04T09:23:06Z</time>
      </trkpt>
      <trkpt lat="47.48358" lon="3.63658">
        <ele>287</ele>
        <time>2019-04-04T09:23:09Z</time>
      </trkpt>
      <trkpt lat="47.48358" lon="3.63666">
        <ele>287</ele>
        <time>2019-04-04T09:23:15Z</time>
      </trkpt>
      <trkpt lat="47.48357" lon="3.63673">
        <ele>287</ele>
        <time>2019-04-04T09:23:19Z</time>
      </trkpt>
      <trkpt lat="47.48357" lon="3.63678">
        <ele>288</ele>
        <time>2019-04-04T09:23:22Z</time>
      </trkpt>
      <trkpt lat="47.48357" lon="3.63682">
        <ele>287</ele>
        <time>2019-04-04T09:23:24Z</time>
      </trkpt>
      <trkpt lat="47.48357" lon="3.63687">
        <ele>287</ele>
        <time>2019-04-04T09:23:27Z</time>
      </trkpt>
      <trkpt lat="47.48356" lon="3.63694">
        <ele>288</ele>
        <time>2019-04-04T09:23:31Z</time>
      </trkpt>
      <trkpt lat="47.48355" lon="3.63698">
        <ele>287</ele>
        <time>2019-04-04T09:23:34Z</time>
      </trkpt>
      <trkpt lat="47.48355" lon="3.63703">
        <ele>286</ele>
        <time>2019-04-04T09:23:36Z</time>
      </trkpt>
      <trkpt lat="47.48354" lon="3.63711">
        <ele>287</ele>
        <time>2019-04-04T09:23:40Z</time>
      </trkpt>
      <trkpt lat="47.48354" lon="3.63714">
        <ele>287</ele>
        <time>2019-04-04T09:23:42Z</time>
      </trkpt>
      <trkpt lat="47.48353" lon="3.63721">
        <ele>287</ele>
        <time>2019-04-04T09:23:46Z</time>
      </trkpt>
      <trkpt lat="47.48352" lon="3.63727">
        <ele>287</ele>
        <time>2019-04-04T09:23:50Z</time>
      </trkpt>
      <trkpt lat="47.48352" lon="3.63732">
        <ele>288</ele>
        <time>2019-04-04T09:23:53Z</time>
      </trkpt>
      <trkpt lat="47.48351" lon="3.63739">
        <ele>289</ele>
        <time>2019-04-04T09:23:57Z</time>
      </trkpt>
      <trkpt lat="47.48351" lon="3.63742">
        <ele>288</ele>
        <time>2019-04-04T09:23:59Z</time>
      </trkpt>
      <trkpt lat="47.48351" lon="3.63747">
        <ele>288</ele>
        <time>2019-04-04T09:24:02Z</time>
      </trkpt>
      <trkpt lat="47.48349" lon="3.63754">
        <ele>287</ele>
        <time>2019-04-04T09:24:06Z</time>
      </trkpt>
      <trkpt lat="47.48349" lon="3.63759">
        <ele>287</ele>
        <time>2019-04-04T09:24:08Z</time>
      </trkpt>
      <trkpt lat="47.48348" lon="3.63762">
        <ele>287</ele>
        <time>2019-04-04T09:24:10Z</time>
      </trkpt>
      <trkpt lat="47.48348" lon="3.6377">
        <ele>287</ele>
        <time>2019-04-04T09:24:15Z</time>
      </trkpt>
      <trkpt lat="47.48346" lon="3.63777">
        <ele>287</ele>
        <time>2019-04-04T09:24:19Z</time>
      </trkpt>
      <trkpt lat="47.48346" lon="3.63781">
        <ele>287</ele>
        <time>2019-04-04T09:24:21Z</time>
      </trkpt>
      <trkpt lat="47.48345" lon="3.63785">
        <ele>287</ele>
        <time>2019-04-04T09:24:24Z</time>
      </trkpt>
      <trkpt lat="47.48344" lon="3.6379">
        <ele>287</ele>
        <time>2019-04-04T09:24:27Z</time>
      </trkpt>
      <trkpt lat="47.48344" lon="3.63798">
        <ele>288</ele>
        <time>2019-04-04T09:24:32Z</time>
      </trkpt>
      <trkpt lat="47.48342" lon="3.63806">
        <ele>288</ele>
        <time>2019-04-04T09:24:36Z</time>
      </trkpt>
      <trkpt lat="47.48341" lon="3.63809">
        <ele>289</ele>
        <time>2019-04-04T09:24:38Z</time>
      </trkpt>
      <trkpt lat="47.48341" lon="3.63817">
        <ele>288</ele>
        <time>2019-04-04T09:24:43Z</time>
      </trkpt>
      <trkpt lat="47.48339" lon="3.63824">
        <ele>288</ele>
        <time>2019-04-04T09:24:47Z</time>
      </trkpt>
      <trkpt lat="47.48338" lon="3.63831">
        <ele>289</ele>
        <time>2019-04-04T09:24:50Z</time>
      </trkpt>
      <trkpt lat="47.48337" lon="3.63841">
        <ele>290</ele>
        <time>2019-04-04T09:24:56Z</time>
      </trkpt>
      <trkpt lat="47.48336" lon="3.63844">
        <ele>289</ele>
        <time>2019-04-04T09:24:58Z</time>
      </trkpt>
      <trkpt lat="47.48336" lon="3.63848">
        <ele>290</ele>
        <time>2019-04-04T09:25:00Z</time>
      </trkpt>
      <trkpt lat="47.48335" lon="3.63852">
        <ele>289</ele>
        <time>2019-04-04T09:25:03Z</time>
      </trkpt>
      <trkpt lat="47.48335" lon="3.6386">
        <ele>290</ele>
        <time>2019-04-04T09:25:07Z</time>
      </trkpt>
      <trkpt lat="47.48333" lon="3.63868">
        <ele>290</ele>
        <time>2019-04-04T09:25:12Z</time>
      </trkpt>
      <trkpt lat="47.48331" lon="3.63874">
        <ele>290</ele>
        <time>2019-04-04T09:25:16Z</time>
      </trkpt>
      <trkpt lat="47.48329" lon="3.63881">
        <ele>291</ele>
        <time>2019-04-04T09:25:20Z</time>
      </trkpt>
      <trkpt lat="47.48328" lon="3.63889">
        <ele>290</ele>
        <time>2019-04-04T09:25:24Z</time>
      </trkpt>
      <trkpt lat="47.48326" lon="3.63895">
        <ele>290</ele>
        <time>2019-04-04T09:25:28Z</time>
      </trkpt>
      <trkpt lat="47.48325" lon="3.63904">
        <ele>290</ele>
        <time>2019-04-04T09:25:33Z</time>
      </trkpt>
      <trkpt lat="47.48325" lon="3.63908">
        <ele>290</ele>
        <time>2019-04-04T09:25:35Z</time>
      </trkpt>
      <trkpt lat="47.48324" lon="3.63915">
        <ele>290</ele>
        <time>2019-04-04T09:25:39Z</time>
      </trkpt>
      <trkpt lat="47.48323" lon="3.63922">
        <ele>290</ele>
        <time>2019-04-04T09:25:43Z</time>
      </trkpt>
      <trkpt lat="47.48324" lon="3.63929">
        <ele>290</ele>
        <time>2019-04-04T09:25:47Z</time>
      </trkpt>
      <trkpt lat="47.48324" lon="3.63933">
        <ele>290</ele>
        <time>2019-04-04T09:25:49Z</time>
      </trkpt>
      <trkpt lat="47.48323" lon="3.6394">
        <ele>290</ele>
        <time>2019-04-04T09:25:53Z</time>
      </trkpt>
      <trkpt lat="47.48323" lon="3.63947">
        <ele>290</ele>
        <time>2019-04-04T09:25:58Z</time>
      </trkpt>
      <trkpt lat="47.48322" lon="3.63955">
        <ele>289</ele>
        <time>2019-04-04T09:26:03Z</time>
      </trkpt>
      <trkpt lat="47.48322" lon="3.6396">
        <ele>289</ele>
        <time>2019-04-04T09:26:06Z</time>
      </trkpt>
      <trkpt lat="47.48321" lon="3.63964">
        <ele>288</ele>
        <time>2019-04-04T09:26:08Z</time>
      </trkpt>
      <trkpt lat="47.4832" lon="3.63972">
        <ele>288</ele>
        <time>2019-04-04T09:26:13Z</time>
      </trkpt>
      <trkpt lat="47.4832" lon="3.6398">
        <ele>287</ele>
        <time>2019-04-04T09:26:17Z</time>
      </trkpt>
      <trkpt lat="47.48318" lon="3.63988">
        <ele>288</ele>
        <time>2019-04-04T09:26:21Z</time>
      </trkpt>
      <trkpt lat="47.48317" lon="3.63997">
        <ele>288</ele>
        <time>2019-04-04T09:26:26Z</time>
      </trkpt>
      <trkpt lat="47.48317" lon="3.64002">
        <ele>287</ele>
        <time>2019-04-04T09:26:29Z</time>
      </trkpt>
      <trkpt lat="47.48316" lon="3.6401">
        <ele>287</ele>
        <time>2019-04-04T09:26:33Z</time>
      </trkpt>
      <trkpt lat="47.48315" lon="3.64013">
        <ele>287</ele>
        <time>2019-04-04T09:26:35Z</time>
      </trkpt>
      <trkpt lat="47.48315" lon="3.64019">
        <ele>286</ele>
        <time>2019-04-04T09:26:38Z</time>
      </trkpt>
      <trkpt lat="47.48314" lon="3.64026">
        <ele>287</ele>
        <time>2019-04-04T09:26:42Z</time>
      </trkpt>
      <trkpt lat="47.48313" lon="3.64031">
        <ele>286</ele>
        <time>2019-04-04T09:26:45Z</time>
      </trkpt>
      <trkpt lat="47.48313" lon="3.64036">
        <ele>286</ele>
        <time>2019-04-04T09:26:48Z</time>
      </trkpt>
      <trkpt lat="47.48311" lon="3.64042">
        <ele>285</ele>
        <time>2019-04-04T09:26:52Z</time>
      </trkpt>
      <trkpt lat="47.4831" lon="3.64049">
        <ele>285</ele>
        <time>2019-04-04T09:26:56Z</time>
      </trkpt>
      <trkpt lat="47.48309" lon="3.64054">
        <ele>285</ele>
        <time>2019-04-04T09:26:58Z</time>
      </trkpt>
      <trkpt lat="47.48309" lon="3.64058">
        <ele>284</ele>
        <time>2019-04-04T09:27:00Z</time>
      </trkpt>
      <trkpt lat="47.48308" lon="3.64062">
        <ele>284</ele>
        <time>2019-04-04T09:27:03Z</time>
      </trkpt>
      <trkpt lat="47.48305" lon="3.6407">
        <ele>284</ele>
        <time>2019-04-04T09:27:09Z</time>
      </trkpt>
      <trkpt lat="47.48303" lon="3.6408">
        <ele>283</ele>
        <time>2019-04-04T09:27:14Z</time>
      </trkpt>
      <trkpt lat="47.48302" lon="3.64085">
        <ele>283</ele>
        <time>2019-04-04T09:27:18Z</time>
      </trkpt>
      <trkpt lat="47.48302" lon="3.64092">
        <ele>283</ele>
        <time>2019-04-04T09:27:22Z</time>
      </trkpt>
      <trkpt lat="47.48302" lon="3.64097">
        <ele>283</ele>
        <time>2019-04-04T09:27:25Z</time>
      </trkpt>
      <trkpt lat="47.48302" lon="3.64103">
        <ele>284</ele>
        <time>2019-04-04T09:27:29Z</time>
      </trkpt>
      <trkpt lat="47.483" lon="3.64111">
        <ele>283</ele>
        <time>2019-04-04T09:27:33Z</time>
      </trkpt>
      <trkpt lat="47.48299" lon="3.64116">
        <ele>283</ele>
        <time>2019-04-04T09:27:37Z</time>
      </trkpt>
      <trkpt lat="47.48298" lon="3.64119">
        <ele>282</ele>
        <time>2019-04-04T09:27:39Z</time>
      </trkpt>
      <trkpt lat="47.48296" lon="3.64125">
        <ele>281</ele>
        <time>2019-04-04T09:27:43Z</time>
      </trkpt>
      <trkpt lat="47.48295" lon="3.64132">
        <ele>282</ele>
        <time>2019-04-04T09:27:47Z</time>
      </trkpt>
      <trkpt lat="47.48295" lon="3.64136">
        <ele>282</ele>
        <time>2019-04-04T09:27:50Z</time>
      </trkpt>
      <trkpt lat="47.48293" lon="3.64143">
        <ele>282</ele>
        <time>2019-04-04T09:27:55Z</time>
      </trkpt>
      <trkpt lat="47.48292" lon="3.64153">
        <ele>280</ele>
        <time>2019-04-04T09:27:59Z</time>
      </trkpt>
      <trkpt lat="47.48291" lon="3.6416">
        <ele>280</ele>
        <time>2019-04-04T09:28:04Z</time>
      </trkpt>
      <trkpt lat="47.48289" lon="3.64165">
        <ele>280</ele>
        <time>2019-04-04T09:28:07Z</time>
      </trkpt>
      <trkpt lat="47.48289" lon="3.64172">
        <ele>278</ele>
        <time>2019-04-04T09:28:11Z</time>
      </trkpt>
      <trkpt lat="47.48285" lon="3.64179">
        <ele>277</ele>
        <time>2019-04-04T09:28:17Z</time>
      </trkpt>
      <trkpt lat="47.48282" lon="3.64187">
        <ele>274</ele>
        <time>2019-04-04T09:28:22Z</time>
      </trkpt>
      <trkpt lat="47.4828" lon="3.64195">
        <ele>273</ele>
        <time>2019-04-04T09:28:27Z</time>
      </trkpt>
      <trkpt lat="47.48277" lon="3.64201">
        <ele>273</ele>
        <time>2019-04-04T09:28:30Z</time>
      </trkpt>
      <trkpt lat="47.48276" lon="3.64208">
        <ele>274</ele>
        <time>2019-04-04T09:28:34Z</time>
      </trkpt>
      <trkpt lat="47.48274" lon="3.64216">
        <ele>271</ele>
        <time>2019-04-04T09:28:40Z</time>
      </trkpt>
      <trkpt lat="47.48273" lon="3.64223">
        <ele>270</ele>
        <time>2019-04-04T09:28:44Z</time>
      </trkpt>
      <trkpt lat="47.48272" lon="3.64229">
        <ele>269</ele>
        <time>2019-04-04T09:28:47Z</time>
      </trkpt>
      <trkpt lat="47.48271" lon="3.64233">
        <ele>269</ele>
        <time>2019-04-04T09:28:50Z</time>
      </trkpt>
      <trkpt lat="47.48268" lon="3.6424">
        <ele>268</ele>
        <time>2019-04-04T09:28:55Z</time>
      </trkpt>
      <trkpt lat="47.48268" lon="3.6425">
        <ele>267</ele>
        <time>2019-04-04T09:29:00Z</time>
      </trkpt>
      <trkpt lat="47.48267" lon="3.64254">
        <ele>266</ele>
        <time>2019-04-04T09:29:02Z</time>
      </trkpt>
      <trkpt lat="47.48267" lon="3.64259">
        <ele>264</ele>
        <time>2019-04-04T09:29:06Z</time>
      </trkpt>
      <trkpt lat="47.48268" lon="3.64271">
        <ele>264</ele>
        <time>2019-04-04T09:29:12Z</time>
      </trkpt>
      <trkpt lat="47.48268" lon="3.64274">
        <ele>264</ele>
        <time>2019-04-04T09:29:14Z</time>
      </trkpt>
      <trkpt lat="47.48267" lon="3.64281">
        <ele>264</ele>
        <time>2019-04-04T09:29:18Z</time>
      </trkpt>
      <trkpt lat="47.48268" lon="3.64289">
        <ele>262</ele>
        <time>2019-04-04T09:29:22Z</time>
      </trkpt>
      <trkpt lat="47.48269" lon="3.64293">
        <ele>262</ele>
        <time>2019-04-04T09:29:24Z</time>
      </trkpt>
      <trkpt lat="47.48269" lon="3.643">
        <ele>262</ele>
        <time>2019-04-04T09:29:28Z</time>
      </trkpt>
      <trkpt lat="47.48268" lon="3.64304">
        <ele>263</ele>
        <time>2019-04-04T09:29:30Z</time>
      </trkpt>
      <trkpt lat="47.48269" lon="3.64312">
        <ele>262</ele>
        <time>2019-04-04T09:29:34Z</time>
      </trkpt>
      <trkpt lat="47.48268" lon="3.64321">
        <ele>262</ele>
        <time>2019-04-04T09:29:38Z</time>
      </trkpt>
      <trkpt lat="47.48269" lon="3.64328">
        <ele>261</ele>
        <time>2019-04-04T09:29:42Z</time>
      </trkpt>
      <trkpt lat="47.4827" lon="3.64334">
        <ele>262</ele>
        <time>2019-04-04T09:29:46Z</time>
      </trkpt>
      <trkpt lat="47.48269" lon="3.64342">
        <ele>262</ele>
        <time>2019-04-04T09:29:51Z</time>
      </trkpt>
      <trkpt lat="47.48268" lon="3.64351">
        <ele>262</ele>
        <time>2019-04-04T09:29:56Z</time>
      </trkpt>
      <trkpt lat="47.48268" lon="3.64359">
        <ele>262</ele>
        <time>2019-04-04T09:30:00Z</time>
      </trkpt>
      <trkpt lat="47.48266" lon="3.64366">
        <ele>262</ele>
        <time>2019-04-04T09:30:04Z</time>
      </trkpt>
      <trkpt lat="47.48266" lon="3.6437">
        <ele>261</ele>
        <time>2019-04-04T09:30:06Z</time>
      </trkpt>
      <trkpt lat="47.48265" lon="3.64374">
        <ele>261</ele>
        <time>2019-04-04T09:30:08Z</time>
      </trkpt>
      <trkpt lat="47.48263" lon="3.64381">
        <ele>259</ele>
        <time>2019-04-04T09:30:13Z</time>
      </trkpt>
      <trkpt lat="47.48262" lon="3.64384">
        <ele>259</ele>
        <time>2019-04-04T09:30:15Z</time>
      </trkpt>
      <trkpt lat="47.48259" lon="3.6439">
        <ele>260</ele>
        <time>2019-04-04T09:30:20Z</time>
      </trkpt>
      <trkpt lat="47.48255" lon="3.64396">
        <ele>260</ele>
        <time>2019-04-04T09:30:25Z</time>
      </trkpt>
      <trkpt lat="47.48252" lon="3.644">
        <ele>260</ele>
        <time>2019-04-04T09:30:28Z</time>
      </trkpt>
      <trkpt lat="47.4825" lon="3.64402">
        <ele>259</ele>
        <time>2019-04-04T09:30:31Z</time>
      </trkpt>
      <trkpt lat="47.48248" lon="3.64405">
        <ele>259</ele>
        <time>2019-04-04T09:30:33Z</time>
      </trkpt>
      <trkpt lat="47.48247" lon="3.64408">
        <ele>259</ele>
        <time>2019-04-04T09:30:35Z</time>
      </trkpt>
      <trkpt lat="47.48245" lon="3.64411">
        <ele>259</ele>
        <time>2019-04-04T09:30:37Z</time>
      </trkpt>
      <trkpt lat="47.48244" lon="3.64414">
        <ele>258</ele>
        <time>2019-04-04T09:30:39Z</time>
      </trkpt>
      <trkpt lat="47.48242" lon="3.64417">
        <ele>258</ele>
        <time>2019-04-04T09:30:41Z</time>
      </trkpt>
      <trkpt lat="47.48239" lon="3.64421">
        <ele>258</ele>
        <time>2019-04-04T09:30:44Z</time>
      </trkpt>
      <trkpt lat="47.48238" lon="3.64428">
        <ele>258</ele>
        <time>2019-04-04T09:30:48Z</time>
      </trkpt>
      <trkpt lat="47.48237" lon="3.64431">
        <ele>258</ele>
        <time>2019-04-04T09:30:50Z</time>
      </trkpt>
      <trkpt lat="47.48235" lon="3.64436">
        <ele>258</ele>
        <time>2019-04-04T09:30:53Z</time>
      </trkpt>
      <trkpt lat="47.48234" lon="3.64443">
        <ele>257</ele>
        <time>2019-04-04T09:30:57Z</time>
      </trkpt>
      <trkpt lat="47.48234" lon="3.64447">
        <ele>258</ele>
        <time>2019-04-04T09:30:59Z</time>
      </trkpt>
      <trkpt lat="47.48232" lon="3.64452">
        <ele>257</ele>
        <time>2019-04-04T09:31:02Z</time>
      </trkpt>
      <trkpt lat="47.48231" lon="3.64459">
        <ele>256</ele>
        <time>2019-04-04T09:31:05Z</time>
      </trkpt>
      <trkpt lat="47.48231" lon="3.64463">
        <ele>256</ele>
        <time>2019-04-04T09:31:07Z</time>
      </trkpt>
      <trkpt lat="47.48229" lon="3.64471">
        <ele>256</ele>
        <time>2019-04-04T09:31:12Z</time>
      </trkpt>
      <trkpt lat="47.48228" lon="3.64479">
        <ele>256</ele>
        <time>2019-04-04T09:31:16Z</time>
      </trkpt>
      <trkpt lat="47.48225" lon="3.64485">
        <ele>256</ele>
        <time>2019-04-04T09:31:20Z</time>
      </trkpt>
      <trkpt lat="47.48223" lon="3.64493">
        <ele>255</ele>
        <time>2019-04-04T09:31:25Z</time>
      </trkpt>
      <trkpt lat="47.48222" lon="3.64496">
        <ele>254</ele>
        <time>2019-04-04T09:31:27Z</time>
      </trkpt>
      <trkpt lat="47.48219" lon="3.64503">
        <ele>253</ele>
        <time>2019-04-04T09:31:32Z</time>
      </trkpt>
      <trkpt lat="47.48216" lon="3.6451">
        <ele>252</ele>
        <time>2019-04-04T09:31:37Z</time>
      </trkpt>
      <trkpt lat="47.48212" lon="3.64519">
        <ele>252</ele>
        <time>2019-04-04T09:31:45Z</time>
      </trkpt>
      <trkpt lat="47.4821" lon="3.64522">
        <ele>251</ele>
        <time>2019-04-04T09:31:48Z</time>
      </trkpt>
      <trkpt lat="47.48208" lon="3.64527">
        <ele>250</ele>
        <time>2019-04-04T09:31:51Z</time>
      </trkpt>
      <trkpt lat="47.48206" lon="3.64533">
        <ele>249</ele>
        <time>2019-04-04T09:31:55Z</time>
      </trkpt>
      <trkpt lat="47.48205" lon="3.64539">
        <ele>249</ele>
        <time>2019-04-04T09:31:58Z</time>
      </trkpt>
      <trkpt lat="47.48202" lon="3.64545">
        <ele>249</ele>
        <time>2019-04-04T09:32:03Z</time>
      </trkpt>
      <trkpt lat="47.48202" lon="3.64551">
        <ele>248</ele>
        <time>2019-04-04T09:32:10Z</time>
      </trkpt>
      <trkpt lat="47.482" lon="3.64558">
        <ele>248</ele>
        <time>2019-04-04T09:32:15Z</time>
      </trkpt>
      <trkpt lat="47.48199" lon="3.64565">
        <ele>248</ele>
        <time>2019-04-04T09:32:21Z</time>
      </trkpt>
      <trkpt lat="47.48199" lon="3.64565">
        <ele>248</ele>
        <time>2019-04-04T09:32:30Z</time>
      </trkpt>
      <trkpt lat="47.48199" lon="3.64565">
        <ele>248</ele>
        <time>2019-04-04T09:32:31Z</time>
      </trkpt>
      <trkpt lat="47.48203" lon="3.64573">
        <ele>246</ele>
        <time>2019-04-04T09:37:04Z</time>
      </trkpt>
      <trkpt lat="47.48204" lon="3.6458">
        <ele>246</ele>
        <time>2019-04-04T09:37:09Z</time>
      </trkpt>
      <trkpt lat="47.48208" lon="3.64584">
        <ele>246</ele>
        <time>2019-04-04T09:37:14Z</time>
      </trkpt>
      <trkpt lat="47.48208" lon="3.64584">
        <ele>246</ele>
        <time>2019-04-04T09:37:22Z</time>
      </trkpt>
      <trkpt lat="47.4821" lon="3.6459">
        <ele>245</ele>
        <time>2019-04-04T09:37:23Z</time>
      </trkpt>
      <trkpt lat="47.48205" lon="3.64596">
        <ele>245</ele>
        <time>2019-04-04T09:37:32Z</time>
      </trkpt>
      <trkpt lat="47.48203" lon="3.64599">
        <ele>245</ele>
        <time>2019-04-04T09:37:40Z</time>
      </trkpt>
      <trkpt lat="47.48198" lon="3.646">
        <ele>245</ele>
        <time>2019-04-04T09:37:45Z</time>
      </trkpt>
      <trkpt lat="47.48194" lon="3.64603">
        <ele>245</ele>
        <time>2019-04-04T09:37:52Z</time>
      </trkpt>
      <trkpt lat="47.48191" lon="3.64605">
        <ele>246</ele>
        <time>2019-04-04T09:37:56Z</time>
      </trkpt>
      <trkpt lat="47.48185" lon="3.64608">
        <ele>247</ele>
        <time>2019-04-04T09:38:01Z</time>
      </trkpt>
      <trkpt lat="47.48181" lon="3.64611">
        <ele>247</ele>
        <time>2019-04-04T09:38:06Z</time>
      </trkpt>
      <trkpt lat="47.48175" lon="3.64612">
        <ele>248</ele>
        <time>2019-04-04T09:38:11Z</time>
      </trkpt>
      <trkpt lat="47.48171" lon="3.64615">
        <ele>250</ele>
        <time>2019-04-04T09:38:16Z</time>
      </trkpt>
      <trkpt lat="47.48166" lon="3.64618">
        <ele>250</ele>
        <time>2019-04-04T09:38:21Z</time>
      </trkpt>
      <trkpt lat="47.4816" lon="3.6462">
        <ele>250</ele>
        <time>2019-04-04T09:38:25Z</time>
      </trkpt>
      <trkpt lat="47.48156" lon="3.64624">
        <ele>251</ele>
        <time>2019-04-04T09:38:30Z</time>
      </trkpt>
      <trkpt lat="47.48152" lon="3.64629">
        <ele>253</ele>
        <time>2019-04-04T09:38:36Z</time>
      </trkpt>
      <trkpt lat="47.4815" lon="3.64631">
        <ele>252</ele>
        <time>2019-04-04T09:38:38Z</time>
      </trkpt>
      <trkpt lat="47.48146" lon="3.64638">
        <ele>251</ele>
        <time>2019-04-04T09:38:45Z</time>
      </trkpt>
      <trkpt lat="47.48146" lon="3.64645">
        <ele>253</ele>
        <time>2019-04-04T09:38:50Z</time>
      </trkpt>
      <trkpt lat="47.48149" lon="3.64652">
        <ele>253</ele>
        <time>2019-04-04T09:38:54Z</time>
      </trkpt>
      <trkpt lat="47.48151" lon="3.64656">
        <ele>253</ele>
        <time>2019-04-04T09:38:56Z</time>
      </trkpt>
      <trkpt lat="47.48152" lon="3.6466">
        <ele>253</ele>
        <time>2019-04-04T09:38:58Z</time>
      </trkpt>
      <trkpt lat="47.48155" lon="3.64668">
        <ele>253</ele>
        <time>2019-04-04T09:39:02Z</time>
      </trkpt>
      <trkpt lat="47.48158" lon="3.64674">
        <ele>253</ele>
        <time>2019-04-04T09:39:06Z</time>
      </trkpt>
      <trkpt lat="47.48161" lon="3.64681">
        <ele>253</ele>
        <time>2019-04-04T09:39:10Z</time>
      </trkpt>
      <trkpt lat="47.48162" lon="3.64683">
        <ele>253</ele>
        <time>2019-04-04T09:39:11Z</time>
      </trkpt>
      <trkpt lat="47.48163" lon="3.64691">
        <ele>254</ele>
        <time>2019-04-04T09:39:16Z</time>
      </trkpt>
      <trkpt lat="47.48164" lon="3.64696">
        <ele>252</ele>
        <time>2019-04-04T09:39:19Z</time>
      </trkpt>
      <trkpt lat="47.48165" lon="3.64702">
        <ele>251</ele>
        <time>2019-04-04T09:39:25Z</time>
      </trkpt>
      <trkpt lat="47.48166" lon="3.64709">
        <ele>252</ele>
        <time>2019-04-04T09:39:29Z</time>
      </trkpt>
      <trkpt lat="47.48169" lon="3.64715">
        <ele>252</ele>
        <time>2019-04-04T09:39:33Z</time>
      </trkpt>
      <trkpt lat="47.4817" lon="3.64723">
        <ele>252</ele>
        <time>2019-04-04T09:39:38Z</time>
      </trkpt>
      <trkpt lat="47.4817" lon="3.64723">
        <ele>252</ele>
        <time>2019-04-04T09:39:47Z</time>
      </trkpt>
      <trkpt lat="47.48182" lon="3.64736">
        <ele>253</ele>
        <time>2019-04-04T09:43:21Z</time>
      </trkpt>
      <trkpt lat="47.48184" lon="3.64738">
        <ele>255</ele>
        <time>2019-04-04T09:43:24Z</time>
      </trkpt>
      <trkpt lat="47.48187" lon="3.64745">
        <ele>254</ele>
        <time>2019-04-04T09:43:30Z</time>
      </trkpt>
      <trkpt lat="47.48191" lon="3.6475">
        <ele>254</ele>
        <time>2019-04-04T09:43:35Z</time>
      </trkpt>
      <trkpt lat="47.48195" lon="3.64753">
        <ele>255</ele>
        <time>2019-04-04T09:43:40Z</time>
      </trkpt>
      <trkpt lat="47.482" lon="3.64756">
        <ele>257</ele>
        <time>2019-04-04T09:43:47Z</time>
      </trkpt>
      <trkpt lat="47.48205" lon="3.64758">
        <ele>257</ele>
        <time>2019-04-04T09:43:53Z</time>
      </trkpt>
      <trkpt lat="47.48208" lon="3.64761">
        <ele>258</ele>
        <time>2019-04-04T09:43:59Z</time>
      </trkpt>
      <trkpt lat="47.48214" lon="3.64767">
        <ele>256</ele>
        <time>2019-04-04T09:44:04Z</time>
      </trkpt>
      <trkpt lat="47.48214" lon="3.64767">
        <ele>256</ele>
        <time>2019-04-04T09:44:12Z</time>
      </trkpt>
      <trkpt lat="47.48214" lon="3.64767">
        <ele>256</ele>
        <time>2019-04-04T09:44:13Z</time>
      </trkpt>
      <trkpt lat="47.48222" lon="3.64766">
        <ele>258</ele>
        <time>2019-04-04T09:49:26Z</time>
      </trkpt>
      <trkpt lat="47.48226" lon="3.64768">
        <ele>257</ele>
        <time>2019-04-04T09:49:30Z</time>
      </trkpt>
      <trkpt lat="47.48231" lon="3.64769">
        <ele>256</ele>
        <time>2019-04-04T09:49:35Z</time>
      </trkpt>
      <trkpt lat="47.48235" lon="3.6477">
        <ele>254</ele>
        <time>2019-04-04T09:49:42Z</time>
      </trkpt>
      <trkpt lat="47.48235" lon="3.64773">
        <ele>255</ele>
        <time>2019-04-04T09:49:51Z</time>
      </trkpt>
      <trkpt lat="47.48235" lon="3.6478">
        <ele>255</ele>
        <time>2019-04-04T09:49:57Z</time>
      </trkpt>
      <trkpt lat="47.48235" lon="3.64786">
        <ele>255</ele>
        <time>2019-04-04T09:50:01Z</time>
      </trkpt>
      <trkpt lat="47.48235" lon="3.64789">
        <ele>256</ele>
        <time>2019-04-04T09:50:04Z</time>
      </trkpt>
      <trkpt lat="47.48235" lon="3.64794">
        <ele>256</ele>
        <time>2019-04-04T09:50:07Z</time>
      </trkpt>
      <trkpt lat="47.48237" lon="3.648">
        <ele>258</ele>
        <time>2019-04-04T09:50:12Z</time>
      </trkpt>
      <trkpt lat="47.48238" lon="3.64807">
        <ele>258</ele>
        <time>2019-04-04T09:50:17Z</time>
      </trkpt>
      <trkpt lat="47.4824" lon="3.64814">
        <ele>255</ele>
        <time>2019-04-04T09:50:24Z</time>
      </trkpt>
      <trkpt lat="47.48239" lon="3.64789">
        <ele>256</ele>
        <time>2019-04-04T09:50:49Z</time>
      </trkpt>
      <trkpt lat="47.48241" lon="3.64782">
        <ele>255</ele>
        <time>2019-04-04T09:50:54Z</time>
      </trkpt>
      <trkpt lat="47.48243" lon="3.64776">
        <ele>255</ele>
        <time>2019-04-04T09:51:02Z</time>
      </trkpt>
      <trkpt lat="47.48247" lon="3.64772">
        <ele>255</ele>
        <time>2019-04-04T09:51:08Z</time>
      </trkpt>
      <trkpt lat="47.48238" lon="3.64759">
        <ele>255</ele>
        <time>2019-04-04T09:51:44Z</time>
      </trkpt>
      <trkpt lat="47.48233" lon="3.64756">
        <ele>256</ele>
        <time>2019-04-04T09:51:48Z</time>
      </trkpt>
      <trkpt lat="47.48227" lon="3.64754">
        <ele>256</ele>
        <time>2019-04-04T09:51:55Z</time>
      </trkpt>
      <trkpt lat="47.48222" lon="3.64754">
        <ele>257</ele>
        <time>2019-04-04T09:52:03Z</time>
      </trkpt>
      <trkpt lat="47.48217" lon="3.64751">
        <ele>258</ele>
        <time>2019-04-04T09:52:07Z</time>
      </trkpt>
      <trkpt lat="47.48211" lon="3.64749">
        <ele>258</ele>
        <time>2019-04-04T09:52:12Z</time>
      </trkpt>
      <trkpt lat="47.48208" lon="3.64748">
        <ele>258</ele>
        <time>2019-04-04T09:52:14Z</time>
      </trkpt>
      <trkpt lat="47.48204" lon="3.64744">
        <ele>258</ele>
        <time>2019-04-04T09:52:19Z</time>
      </trkpt>
      <trkpt lat="47.48198" lon="3.64741">
        <ele>257</ele>
        <time>2019-04-04T09:52:26Z</time>
      </trkpt>
      <trkpt lat="47.48194" lon="3.64737">
        <ele>256</ele>
        <time>2019-04-04T09:52:31Z</time>
      </trkpt>
      <trkpt lat="47.48192" lon="3.64735">
        <ele>255</ele>
        <time>2019-04-04T09:52:34Z</time>
      </trkpt>
      <trkpt lat="47.48189" lon="3.64733">
        <ele>253</ele>
        <time>2019-04-04T09:52:42Z</time>
      </trkpt>
      <trkpt lat="47.48186" lon="3.64729">
        <ele>254</ele>
        <time>2019-04-04T09:52:45Z</time>
      </trkpt>
      <trkpt lat="47.48188" lon="3.64737">
        <ele>247</ele>
        <time>2019-04-04T10:39:48Z</time>
      </trkpt>
      <trkpt lat="47.48189" lon="3.64743">
        <ele>247</ele>
        <time>2019-04-04T10:39:52Z</time>
      </trkpt>
      <trkpt lat="47.48191" lon="3.64749">
        <ele>247</ele>
        <time>2019-04-04T10:39:56Z</time>
      </trkpt>
      <trkpt lat="47.48194" lon="3.64754">
        <ele>246</ele>
        <time>2019-04-04T10:40:00Z</time>
      </trkpt>
      <trkpt lat="47.48196" lon="3.64757">
        <ele>245</ele>
        <time>2019-04-04T10:40:04Z</time>
      </trkpt>
      <trkpt lat="47.48198" lon="3.64761">
        <ele>245</ele>
        <time>2019-04-04T10:40:07Z</time>
      </trkpt>
      <trkpt lat="47.48203" lon="3.64763">
        <ele>247</ele>
        <time>2019-04-04T10:40:15Z</time>
      </trkpt>
      <trkpt lat="47.48206" lon="3.64764">
        <ele>249</ele>
        <time>2019-04-04T10:40:18Z</time>
      </trkpt>
      <trkpt lat="47.48211" lon="3.64768">
        <ele>248</ele>
        <time>2019-04-04T10:40:22Z</time>
      </trkpt>
      <trkpt lat="47.48214" lon="3.64775">
        <ele>248</ele>
        <time>2019-04-04T10:40:26Z</time>
      </trkpt>
      <trkpt lat="47.48214" lon="3.64775">
        <ele>248</ele>
        <time>2019-04-04T10:40:35Z</time>
      </trkpt>
      <trkpt lat="47.48214" lon="3.64775">
        <ele>248</ele>
        <time>2019-04-04T10:40:36Z</time>
      </trkpt>
      <trkpt lat="47.48218" lon="3.64771">
        <ele>249</ele>
        <time>2019-04-04T10:42:28Z</time>
      </trkpt>
      <trkpt lat="47.48211" lon="3.6476">
        <ele>247</ele>
        <time>2019-04-04T10:42:36Z</time>
      </trkpt>
      <trkpt lat="47.48208" lon="3.64754">
        <ele>246</ele>
        <time>2019-04-04T10:42:41Z</time>
      </trkpt>
      <trkpt lat="47.48205" lon="3.64749">
        <ele>245</ele>
        <time>2019-04-04T10:42:45Z</time>
      </trkpt>
      <trkpt lat="47.48201" lon="3.64745">
        <ele>240</ele>
        <time>2019-04-04T10:42:53Z</time>
      </trkpt>
      <trkpt lat="47.48197" lon="3.6474">
        <ele>241</ele>
        <time>2019-04-04T10:43:00Z</time>
      </trkpt>
      <trkpt lat="47.48197" lon="3.6474">
        <ele>241</ele>
        <time>2019-04-04T10:48:10Z</time>
      </trkpt>
      <trkpt lat="47.48176" lon="3.64733">
        <ele>249</ele>
        <time>2019-04-04T10:48:42Z</time>
      </trkpt>
      <trkpt lat="47.48173" lon="3.64727">
        <ele>250</ele>
        <time>2019-04-04T10:48:47Z</time>
      </trkpt>
      <trkpt lat="47.48173" lon="3.6472">
        <ele>248</ele>
        <time>2019-04-04T10:48:53Z</time>
      </trkpt>
      <trkpt lat="47.48171" lon="3.64712">
        <ele>248</ele>
        <time>2019-04-04T10:48:58Z</time>
      </trkpt>
      <trkpt lat="47.4817" lon="3.64707">
        <ele>245</ele>
        <time>2019-04-04T10:49:01Z</time>
      </trkpt>
      <trkpt lat="47.48168" lon="3.64701">
        <ele>242</ele>
        <time>2019-04-04T10:49:06Z</time>
      </trkpt>
      <trkpt lat="47.48167" lon="3.64694">
        <ele>243</ele>
        <time>2019-04-04T10:49:11Z</time>
      </trkpt>
      <trkpt lat="47.48167" lon="3.6469">
        <ele>242</ele>
        <time>2019-04-04T10:49:13Z</time>
      </trkpt>
      <trkpt lat="47.48165" lon="3.64684">
        <ele>240</ele>
        <time>2019-04-04T10:49:17Z</time>
      </trkpt>
      <trkpt lat="47.48164" lon="3.6468">
        <ele>239</ele>
        <time>2019-04-04T10:49:20Z</time>
      </trkpt>
      <trkpt lat="47.48159" lon="3.64673">
        <ele>242</ele>
        <time>2019-04-04T10:49:26Z</time>
      </trkpt>
      <trkpt lat="47.48158" lon="3.6467">
        <ele>243</ele>
        <time>2019-04-04T10:49:28Z</time>
      </trkpt>
      <trkpt lat="47.48156" lon="3.64667">
        <ele>243</ele>
        <time>2019-04-04T10:49:30Z</time>
      </trkpt>
      <trkpt lat="47.48154" lon="3.64661">
        <ele>244</ele>
        <time>2019-04-04T10:49:34Z</time>
      </trkpt>
      <trkpt lat="47.48153" lon="3.64658">
        <ele>245</ele>
        <time>2019-04-04T10:49:37Z</time>
      </trkpt>
      <trkpt lat="47.48152" lon="3.64653">
        <ele>245</ele>
        <time>2019-04-04T10:49:40Z</time>
      </trkpt>
      <trkpt lat="47.48149" lon="3.64645">
        <ele>246</ele>
        <time>2019-04-04T10:49:46Z</time>
      </trkpt>
      <trkpt lat="47.48145" lon="3.64642">
        <ele>247</ele>
        <time>2019-04-04T10:49:51Z</time>
      </trkpt>
      <trkpt lat="47.48141" lon="3.6464">
        <ele>248</ele>
        <time>2019-04-04T10:49:54Z</time>
      </trkpt>
      <trkpt lat="47.48135" lon="3.6464">
        <ele>248</ele>
        <time>2019-04-04T10:49:58Z</time>
      </trkpt>
      <trkpt lat="47.4813" lon="3.64643">
        <ele>249</ele>
        <time>2019-04-04T10:50:04Z</time>
      </trkpt>
      <trkpt lat="47.48126" lon="3.64646">
        <ele>248</ele>
        <time>2019-04-04T10:50:09Z</time>
      </trkpt>
      <trkpt lat="47.4812" lon="3.64648">
        <ele>248</ele>
        <time>2019-04-04T10:50:14Z</time>
      </trkpt>
      <trkpt lat="47.48114" lon="3.64652">
        <ele>249</ele>
        <time>2019-04-04T10:50:21Z</time>
      </trkpt>
      <trkpt lat="47.4811" lon="3.64656">
        <ele>250</ele>
        <time>2019-04-04T10:50:25Z</time>
      </trkpt>
      <trkpt lat="47.48107" lon="3.64658">
        <ele>251</ele>
        <time>2019-04-04T10:50:27Z</time>
      </trkpt>
      <trkpt lat="47.48105" lon="3.6466">
        <ele>252</ele>
        <time>2019-04-04T10:50:29Z</time>
      </trkpt>
      <trkpt lat="47.48101" lon="3.64665">
        <ele>254</ele>
        <time>2019-04-04T10:50:33Z</time>
      </trkpt>
      <trkpt lat="47.48099" lon="3.64667">
        <ele>254</ele>
        <time>2019-04-04T10:50:35Z</time>
      </trkpt>
      <trkpt lat="47.48097" lon="3.64669">
        <ele>255</ele>
        <time>2019-04-04T10:50:37Z</time>
      </trkpt>
      <trkpt lat="47.48095" lon="3.64671">
        <ele>255</ele>
        <time>2019-04-04T10:50:39Z</time>
      </trkpt>
      <trkpt lat="47.48092" lon="3.64678">
        <ele>255</ele>
        <time>2019-04-04T10:50:44Z</time>
      </trkpt>
      <trkpt lat="47.48089" lon="3.64685">
        <ele>255</ele>
        <time>2019-04-04T10:50:49Z</time>
      </trkpt>
      <trkpt lat="47.48087" lon="3.64692">
        <ele>253</ele>
        <time>2019-04-04T10:50:53Z</time>
      </trkpt>
      <trkpt lat="47.48086" lon="3.64697">
        <ele>253</ele>
        <time>2019-04-04T10:50:56Z</time>
      </trkpt>
      <trkpt lat="47.48085" lon="3.64702">
        <ele>253</ele>
        <time>2019-04-04T10:50:59Z</time>
      </trkpt>
      <trkpt lat="47.48083" lon="3.64709">
        <ele>253</ele>
        <time>2019-04-04T10:51:04Z</time>
      </trkpt>
      <trkpt lat="47.48078" lon="3.64715">
        <ele>253</ele>
        <time>2019-04-04T10:51:10Z</time>
      </trkpt>
      <trkpt lat="47.48076" lon="3.64718">
        <ele>252</ele>
        <time>2019-04-04T10:51:12Z</time>
      </trkpt>
      <trkpt lat="47.48071" lon="3.64721">
        <ele>252</ele>
        <time>2019-04-04T10:51:16Z</time>
      </trkpt>
      <trkpt lat="47.48069" lon="3.64723">
        <ele>251</ele>
        <time>2019-04-04T10:51:18Z</time>
      </trkpt>
      <trkpt lat="47.48065" lon="3.64727">
        <ele>253</ele>
        <time>2019-04-04T10:51:23Z</time>
      </trkpt>
      <trkpt lat="47.4806" lon="3.6473">
        <ele>251</ele>
        <time>2019-04-04T10:51:27Z</time>
      </trkpt>
      <trkpt lat="47.48057" lon="3.64732">
        <ele>251</ele>
        <time>2019-04-04T10:51:29Z</time>
      </trkpt>
      <trkpt lat="47.48055" lon="3.64733">
        <ele>252</ele>
        <time>2019-04-04T10:51:31Z</time>
      </trkpt>
      <trkpt lat="47.48052" lon="3.64739">
        <ele>253</ele>
        <time>2019-04-04T10:51:35Z</time>
      </trkpt>
      <trkpt lat="47.48048" lon="3.64744">
        <ele>254</ele>
        <time>2019-04-04T10:51:39Z</time>
      </trkpt>
      <trkpt lat="47.48045" lon="3.64749">
        <ele>255</ele>
        <time>2019-04-04T10:51:42Z</time>
      </trkpt>
      <trkpt lat="47.48042" lon="3.64754">
        <ele>254</ele>
        <time>2019-04-04T10:51:47Z</time>
      </trkpt>
      <trkpt lat="47.48039" lon="3.64758">
        <ele>254</ele>
        <time>2019-04-04T10:51:50Z</time>
      </trkpt>
      <trkpt lat="47.48037" lon="3.64761">
        <ele>255</ele>
        <time>2019-04-04T10:51:53Z</time>
      </trkpt>
      <trkpt lat="47.48033" lon="3.64767">
        <ele>255</ele>
        <time>2019-04-04T10:51:58Z</time>
      </trkpt>
      <trkpt lat="47.48029" lon="3.64771">
        <ele>255</ele>
        <time>2019-04-04T10:52:02Z</time>
      </trkpt>
      <trkpt lat="47.48025" lon="3.64773">
        <ele>255</ele>
        <time>2019-04-04T10:52:07Z</time>
      </trkpt>
      <trkpt lat="47.48021" lon="3.64777">
        <ele>255</ele>
        <time>2019-04-04T10:52:12Z</time>
      </trkpt>
      <trkpt lat="47.48017" lon="3.6478">
        <ele>255</ele>
        <time>2019-04-04T10:52:15Z</time>
      </trkpt>
      <trkpt lat="47.48015" lon="3.64783">
        <ele>255</ele>
        <time>2019-04-04T10:52:18Z</time>
      </trkpt>
      <trkpt lat="47.4801" lon="3.64785">
        <ele>253</ele>
        <time>2019-04-04T10:52:22Z</time>
      </trkpt>
      <trkpt lat="47.48007" lon="3.64786">
        <ele>253</ele>
        <time>2019-04-04T10:52:24Z</time>
      </trkpt>
      <trkpt lat="47.48002" lon="3.64787">
        <ele>253</ele>
        <time>2019-04-04T10:52:27Z</time>
      </trkpt>
      <trkpt lat="47.48" lon="3.64788">
        <ele>252</ele>
        <time>2019-04-04T10:52:29Z</time>
      </trkpt>
      <trkpt lat="47.47994" lon="3.64791">
        <ele>253</ele>
        <time>2019-04-04T10:52:34Z</time>
      </trkpt>
      <trkpt lat="47.47989" lon="3.64792">
        <ele>253</ele>
        <time>2019-04-04T10:52:39Z</time>
      </trkpt>
      <trkpt lat="47.47985" lon="3.64794">
        <ele>254</ele>
        <time>2019-04-04T10:52:42Z</time>
      </trkpt>
      <trkpt lat="47.47981" lon="3.64795">
        <ele>255</ele>
        <time>2019-04-04T10:52:45Z</time>
      </trkpt>
      <trkpt lat="47.47976" lon="3.64795">
        <ele>254</ele>
        <time>2019-04-04T10:52:49Z</time>
      </trkpt>
      <trkpt lat="47.4797" lon="3.64797">
        <ele>254</ele>
        <time>2019-04-04T10:52:53Z</time>
      </trkpt>
      <trkpt lat="47.47965" lon="3.64797">
        <ele>255</ele>
        <time>2019-04-04T10:52:58Z</time>
      </trkpt>
      <trkpt lat="47.47962" lon="3.64798">
        <ele>255</ele>
        <time>2019-04-04T10:53:00Z</time>
      </trkpt>
      <trkpt lat="47.4796" lon="3.64798">
        <ele>255</ele>
        <time>2019-04-04T10:53:02Z</time>
      </trkpt>
      <trkpt lat="47.47955" lon="3.648">
        <ele>254</ele>
        <time>2019-04-04T10:53:06Z</time>
      </trkpt>
      <trkpt lat="47.47948" lon="3.64801">
        <ele>256</ele>
        <time>2019-04-04T10:53:11Z</time>
      </trkpt>
      <trkpt lat="47.47945" lon="3.64802">
        <ele>256</ele>
        <time>2019-04-04T10:53:14Z</time>
      </trkpt>
      <trkpt lat="47.47942" lon="3.64803">
        <ele>257</ele>
        <time>2019-04-04T10:53:17Z</time>
      </trkpt>
      <trkpt lat="47.47937" lon="3.64803">
        <ele>258</ele>
        <time>2019-04-04T10:53:22Z</time>
      </trkpt>
      <trkpt lat="47.47932" lon="3.64803">
        <ele>259</ele>
        <time>2019-04-04T10:53:26Z</time>
      </trkpt>
      <trkpt lat="47.47928" lon="3.64804">
        <ele>259</ele>
        <time>2019-04-04T10:53:29Z</time>
      </trkpt>
      <trkpt lat="47.47925" lon="3.64804">
        <ele>258</ele>
        <time>2019-04-04T10:53:31Z</time>
      </trkpt>
      <trkpt lat="47.47921" lon="3.64804">
        <ele>259</ele>
        <time>2019-04-04T10:53:34Z</time>
      </trkpt>
      <trkpt lat="47.47919" lon="3.64804">
        <ele>259</ele>
        <time>2019-04-04T10:53:36Z</time>
      </trkpt>
      <trkpt lat="47.47914" lon="3.64804">
        <ele>258</ele>
        <time>2019-04-04T10:53:40Z</time>
      </trkpt>
      <trkpt lat="47.47911" lon="3.64804">
        <ele>258</ele>
        <time>2019-04-04T10:53:42Z</time>
      </trkpt>
      <trkpt lat="47.47907" lon="3.64803">
        <ele>259</ele>
        <time>2019-04-04T10:53:46Z</time>
      </trkpt>
      <trkpt lat="47.47904" lon="3.64803">
        <ele>259</ele>
        <time>2019-04-04T10:53:48Z</time>
      </trkpt>
      <trkpt lat="47.47899" lon="3.64802">
        <ele>258</ele>
        <time>2019-04-04T10:53:53Z</time>
      </trkpt>
      <trkpt lat="47.47895" lon="3.64802">
        <ele>257</ele>
        <time>2019-04-04T10:53:56Z</time>
      </trkpt>
      <trkpt lat="47.47893" lon="3.64802">
        <ele>257</ele>
        <time>2019-04-04T10:53:58Z</time>
      </trkpt>
      <trkpt lat="47.4789" lon="3.64802">
        <ele>257</ele>
        <time>2019-04-04T10:54:00Z</time>
      </trkpt>
      <trkpt lat="47.47888" lon="3.64802">
        <ele>257</ele>
        <time>2019-04-04T10:54:02Z</time>
      </trkpt>
      <trkpt lat="47.47885" lon="3.64802">
        <ele>257</ele>
        <time>2019-04-04T10:54:04Z</time>
      </trkpt>
      <trkpt lat="47.47882" lon="3.64802">
        <ele>257</ele>
        <time>2019-04-04T10:54:06Z</time>
      </trkpt>
      <trkpt lat="47.47879" lon="3.64802">
        <ele>257</ele>
        <time>2019-04-04T10:54:08Z</time>
      </trkpt>
      <trkpt lat="47.47876" lon="3.64802">
        <ele>257</ele>
        <time>2019-04-04T10:54:11Z</time>
      </trkpt>
      <trkpt lat="47.4787" lon="3.64802">
        <ele>258</ele>
        <time>2019-04-04T10:54:15Z</time>
      </trkpt>
      <trkpt lat="47.47866" lon="3.64801">
        <ele>259</ele>
        <time>2019-04-04T10:54:19Z</time>
      </trkpt>
      <trkpt lat="47.4786" lon="3.64801">
        <ele>259</ele>
        <time>2019-04-04T10:54:23Z</time>
      </trkpt>
      <trkpt lat="47.47858" lon="3.64801">
        <ele>259</ele>
        <time>2019-04-04T10:54:25Z</time>
      </trkpt>
      <trkpt lat="47.47852" lon="3.64801">
        <ele>260</ele>
        <time>2019-04-04T10:54:30Z</time>
      </trkpt>
      <trkpt lat="47.47846" lon="3.64802">
        <ele>261</ele>
        <time>2019-04-04T10:54:36Z</time>
      </trkpt>
      <trkpt lat="47.47841" lon="3.64804">
        <ele>261</ele>
        <time>2019-04-04T10:54:40Z</time>
      </trkpt>
      <trkpt lat="47.47837" lon="3.64804">
        <ele>263</ele>
        <time>2019-04-04T10:54:44Z</time>
      </trkpt>
      <trkpt lat="47.47834" lon="3.64805">
        <ele>263</ele>
        <time>2019-04-04T10:54:46Z</time>
      </trkpt>
      <trkpt lat="47.4783" lon="3.64806">
        <ele>263</ele>
        <time>2019-04-04T10:54:51Z</time>
      </trkpt>
      <trkpt lat="47.47824" lon="3.64806">
        <ele>263</ele>
        <time>2019-04-04T10:54:56Z</time>
      </trkpt>
      <trkpt lat="47.47819" lon="3.64807">
        <ele>263</ele>
        <time>2019-04-04T10:55:00Z</time>
      </trkpt>
      <trkpt lat="47.47814" lon="3.64808">
        <ele>264</ele>
        <time>2019-04-04T10:55:04Z</time>
      </trkpt>
      <trkpt lat="47.47811" lon="3.64808">
        <ele>264</ele>
        <time>2019-04-04T10:55:07Z</time>
      </trkpt>
      <trkpt lat="47.47806" lon="3.64808">
        <ele>264</ele>
        <time>2019-04-04T10:55:11Z</time>
      </trkpt>
      <trkpt lat="47.478" lon="3.64808">
        <ele>265</ele>
        <time>2019-04-04T10:55:16Z</time>
      </trkpt>
      <trkpt lat="47.47797" lon="3.64808">
        <ele>266</ele>
        <time>2019-04-04T10:55:18Z</time>
      </trkpt>
      <trkpt lat="47.47794" lon="3.64809">
        <ele>265</ele>
        <time>2019-04-04T10:55:20Z</time>
      </trkpt>
      <trkpt lat="47.47791" lon="3.64809">
        <ele>266</ele>
        <time>2019-04-04T10:55:22Z</time>
      </trkpt>
      <trkpt lat="47.47787" lon="3.64811">
        <ele>266</ele>
        <time>2019-04-04T10:55:26Z</time>
      </trkpt>
      <trkpt lat="47.47784" lon="3.64811">
        <ele>266</ele>
        <time>2019-04-04T10:55:28Z</time>
      </trkpt>
      <trkpt lat="47.47781" lon="3.64812">
        <ele>267</ele>
        <time>2019-04-04T10:55:30Z</time>
      </trkpt>
      <trkpt lat="47.47779" lon="3.64813">
        <ele>267</ele>
        <time>2019-04-04T10:55:32Z</time>
      </trkpt>
      <trkpt lat="47.47774" lon="3.64815">
        <ele>267</ele>
        <time>2019-04-04T10:55:36Z</time>
      </trkpt>
      <trkpt lat="47.47769" lon="3.64817">
        <ele>267</ele>
        <time>2019-04-04T10:55:41Z</time>
      </trkpt>
      <trkpt lat="47.47763" lon="3.64816">
        <ele>265</ele>
        <time>2019-04-04T10:55:46Z</time>
      </trkpt>
      <trkpt lat="47.47761" lon="3.64816">
        <ele>264</ele>
        <time>2019-04-04T10:55:48Z</time>
      </trkpt>
      <trkpt lat="47.47756" lon="3.64817">
        <ele>264</ele>
        <time>2019-04-04T10:55:52Z</time>
      </trkpt>
      <trkpt lat="47.47753" lon="3.64818">
        <ele>265</ele>
        <time>2019-04-04T10:55:55Z</time>
      </trkpt>
      <trkpt lat="47.47751" lon="3.64819">
        <ele>264</ele>
        <time>2019-04-04T10:55:57Z</time>
      </trkpt>
      <trkpt lat="47.47746" lon="3.64819">
        <ele>265</ele>
        <time>2019-04-04T10:56:01Z</time>
      </trkpt>
      <trkpt lat="47.47742" lon="3.64818">
        <ele>265</ele>
        <time>2019-04-04T10:56:05Z</time>
      </trkpt>
      <trkpt lat="47.47737" lon="3.64818">
        <ele>266</ele>
        <time>2019-04-04T10:56:09Z</time>
      </trkpt>
      <trkpt lat="47.47731" lon="3.64818">
        <ele>266</ele>
        <time>2019-04-04T10:56:15Z</time>
      </trkpt>
      <trkpt lat="47.47725" lon="3.64817">
        <ele>267</ele>
        <time>2019-04-04T10:56:20Z</time>
      </trkpt>
      <trkpt lat="47.47721" lon="3.64817">
        <ele>268</ele>
        <time>2019-04-04T10:56:24Z</time>
      </trkpt>
      <trkpt lat="47.47719" lon="3.64817">
        <ele>269</ele>
        <time>2019-04-04T10:56:26Z</time>
      </trkpt>
      <trkpt lat="47.47713" lon="3.64814">
        <ele>271</ele>
        <time>2019-04-04T10:56:31Z</time>
      </trkpt>
      <trkpt lat="47.47708" lon="3.64815">
        <ele>272</ele>
        <time>2019-04-04T10:56:35Z</time>
      </trkpt>
      <trkpt lat="47.47701" lon="3.64817">
        <ele>274</ele>
        <time>2019-04-04T10:56:41Z</time>
      </trkpt>
      <trkpt lat="47.47696" lon="3.64816">
        <ele>275</ele>
        <time>2019-04-04T10:56:44Z</time>
      </trkpt>
      <trkpt lat="47.47692" lon="3.64814">
        <ele>276</ele>
        <time>2019-04-04T10:56:47Z</time>
      </trkpt>
      <trkpt lat="47.47686" lon="3.64814">
        <ele>277</ele>
        <time>2019-04-04T10:56:51Z</time>
      </trkpt>
      <trkpt lat="47.47683" lon="3.64814">
        <ele>278</ele>
        <time>2019-04-04T10:56:53Z</time>
      </trkpt>
      <trkpt lat="47.4768" lon="3.64815">
        <ele>278</ele>
        <time>2019-04-04T10:56:55Z</time>
      </trkpt>
      <trkpt lat="47.47675" lon="3.64816">
        <ele>276</ele>
        <time>2019-04-04T10:56:59Z</time>
      </trkpt>
      <trkpt lat="47.47671" lon="3.64817">
        <ele>276</ele>
        <time>2019-04-04T10:57:03Z</time>
      </trkpt>
      <trkpt lat="47.47667" lon="3.64817">
        <ele>277</ele>
        <time>2019-04-04T10:57:06Z</time>
      </trkpt>
      <trkpt lat="47.47662" lon="3.64816">
        <ele>276</ele>
        <time>2019-04-04T10:57:10Z</time>
      </trkpt>
      <trkpt lat="47.47657" lon="3.64813">
        <ele>275</ele>
        <time>2019-04-04T10:57:14Z</time>
      </trkpt>
      <trkpt lat="47.47654" lon="3.64811">
        <ele>275</ele>
        <time>2019-04-04T10:57:17Z</time>
      </trkpt>
      <trkpt lat="47.47649" lon="3.64809">
        <ele>275</ele>
        <time>2019-04-04T10:57:22Z</time>
      </trkpt>
      <trkpt lat="47.47645" lon="3.64805">
        <ele>275</ele>
        <time>2019-04-04T10:57:26Z</time>
      </trkpt>
      <trkpt lat="47.47641" lon="3.64802">
        <ele>277</ele>
        <time>2019-04-04T10:57:30Z</time>
      </trkpt>
      <trkpt lat="47.47638" lon="3.64801">
        <ele>277</ele>
        <time>2019-04-04T10:57:32Z</time>
      </trkpt>
      <trkpt lat="47.47634" lon="3.64798">
        <ele>278</ele>
        <time>2019-04-04T10:57:36Z</time>
      </trkpt>
      <trkpt lat="47.4763" lon="3.64795">
        <ele>277</ele>
        <time>2019-04-04T10:57:40Z</time>
      </trkpt>
      <trkpt lat="47.47625" lon="3.64791">
        <ele>277</ele>
        <time>2019-04-04T10:57:44Z</time>
      </trkpt>
      <trkpt lat="47.47622" lon="3.64788">
        <ele>278</ele>
        <time>2019-04-04T10:57:48Z</time>
      </trkpt>
      <trkpt lat="47.4762" lon="3.64785">
        <ele>278</ele>
        <time>2019-04-04T10:57:52Z</time>
      </trkpt>
      <trkpt lat="47.47615" lon="3.64781">
        <ele>279</ele>
        <time>2019-04-04T10:57:58Z</time>
      </trkpt>
      <trkpt lat="47.4761" lon="3.6478">
        <ele>280</ele>
        <time>2019-04-04T10:58:01Z</time>
      </trkpt>
      <trkpt lat="47.47606" lon="3.64778">
        <ele>281</ele>
        <time>2019-04-04T10:58:05Z</time>
      </trkpt>
      <trkpt lat="47.47601" lon="3.64773">
        <ele>282</ele>
        <time>2019-04-04T10:58:10Z</time>
      </trkpt>
      <trkpt lat="47.47597" lon="3.64767">
        <ele>283</ele>
        <time>2019-04-04T10:58:16Z</time>
      </trkpt>
      <trkpt lat="47.47594" lon="3.64764">
        <ele>283</ele>
        <time>2019-04-04T10:58:20Z</time>
      </trkpt>
      <trkpt lat="47.4759" lon="3.6476">
        <ele>283</ele>
        <time>2019-04-04T10:58:25Z</time>
      </trkpt>
      <trkpt lat="47.47582" lon="3.64757">
        <ele>284</ele>
        <time>2019-04-04T10:58:30Z</time>
      </trkpt>
      <trkpt lat="47.47577" lon="3.64757">
        <ele>286</ele>
        <time>2019-04-04T10:58:33Z</time>
      </trkpt>
      <trkpt lat="47.47571" lon="3.64754">
        <ele>286</ele>
        <time>2019-04-04T10:58:38Z</time>
      </trkpt>
      <trkpt lat="47.47566" lon="3.64755">
        <ele>286</ele>
        <time>2019-04-04T10:58:41Z</time>
      </trkpt>
      <trkpt lat="47.47564" lon="3.64756">
        <ele>286</ele>
        <time>2019-04-04T10:58:43Z</time>
      </trkpt>
      <trkpt lat="47.4756" lon="3.64757">
        <ele>286</ele>
        <time>2019-04-04T10:58:50Z</time>
      </trkpt>
      <trkpt lat="47.47554" lon="3.64757">
        <ele>285</ele>
        <time>2019-04-04T10:58:56Z</time>
      </trkpt>
      <trkpt lat="47.47551" lon="3.64758">
        <ele>286</ele>
        <time>2019-04-04T10:58:59Z</time>
      </trkpt>
      <trkpt lat="47.47547" lon="3.64758">
        <ele>287</ele>
        <time>2019-04-04T10:59:03Z</time>
      </trkpt>
      <trkpt lat="47.47542" lon="3.64756">
        <ele>287</ele>
        <time>2019-04-04T10:59:07Z</time>
      </trkpt>
      <trkpt lat="47.47539" lon="3.64756">
        <ele>289</ele>
        <time>2019-04-04T10:59:09Z</time>
      </trkpt>
      <trkpt lat="47.47534" lon="3.64756">
        <ele>289</ele>
        <time>2019-04-04T10:59:15Z</time>
      </trkpt>
      <trkpt lat="47.4753" lon="3.64752">
        <ele>290</ele>
        <time>2019-04-04T10:59:19Z</time>
      </trkpt>
      <trkpt lat="47.47522" lon="3.64754">
        <ele>292</ele>
        <time>2019-04-04T10:59:23Z</time>
      </trkpt>
      <trkpt lat="47.47518" lon="3.64754">
        <ele>292</ele>
        <time>2019-04-04T10:59:25Z</time>
      </trkpt>
      <trkpt lat="47.47511" lon="3.64756">
        <ele>293</ele>
        <time>2019-04-04T10:59:29Z</time>
      </trkpt>
      <trkpt lat="47.47504" lon="3.64758">
        <ele>295</ele>
        <time>2019-04-04T10:59:34Z</time>
      </trkpt>
      <trkpt lat="47.47499" lon="3.64761">
        <ele>297</ele>
        <time>2019-04-04T10:59:38Z</time>
      </trkpt>
      <trkpt lat="47.47495" lon="3.64763">
        <ele>298</ele>
        <time>2019-04-04T10:59:41Z</time>
      </trkpt>
      <trkpt lat="47.4749" lon="3.64768">
        <ele>300</ele>
        <time>2019-04-04T10:59:46Z</time>
      </trkpt>
      <trkpt lat="47.47487" lon="3.64772">
        <ele>300</ele>
        <time>2019-04-04T10:59:49Z</time>
      </trkpt>
      <trkpt lat="47.47485" lon="3.64774">
        <ele>301</ele>
        <time>2019-04-04T10:59:51Z</time>
      </trkpt>
      <trkpt lat="47.47483" lon="3.64776">
        <ele>303</ele>
        <time>2019-04-04T10:59:53Z</time>
      </trkpt>
      <trkpt lat="47.47481" lon="3.64784">
        <ele>302</ele>
        <time>2019-04-04T10:59:58Z</time>
      </trkpt>
      <trkpt lat="47.47477" lon="3.64789">
        <ele>299</ele>
        <time>2019-04-04T11:00:05Z</time>
      </trkpt>
      <trkpt lat="47.47474" lon="3.64792">
        <ele>299</ele>
        <time>2019-04-04T11:00:14Z</time>
      </trkpt>
      <trkpt lat="47.47469" lon="3.64789">
        <ele>300</ele>
        <time>2019-04-04T11:00:16Z</time>
      </trkpt>
      <trkpt lat="47.47463" lon="3.64788">
        <ele>302</ele>
        <time>2019-04-04T11:00:21Z</time>
      </trkpt>
      <trkpt lat="47.47458" lon="3.64785">
        <ele>302</ele>
        <time>2019-04-04T11:00:28Z</time>
      </trkpt>
      <trkpt lat="47.47451" lon="3.64784">
        <ele>299</ele>
        <time>2019-04-04T11:00:34Z</time>
      </trkpt>
      <trkpt lat="47.47447" lon="3.64782">
        <ele>297</ele>
        <time>2019-04-04T11:00:38Z</time>
      </trkpt>
      <trkpt lat="47.47445" lon="3.6478">
        <ele>297</ele>
        <time>2019-04-04T11:00:40Z</time>
      </trkpt>
      <trkpt lat="47.47439" lon="3.64779">
        <ele>295</ele>
        <time>2019-04-04T11:00:44Z</time>
      </trkpt>
      <trkpt lat="47.47434" lon="3.64779">
        <ele>295</ele>
        <time>2019-04-04T11:00:50Z</time>
      </trkpt>
      <trkpt lat="47.47429" lon="3.64776">
        <ele>296</ele>
        <time>2019-04-04T11:00:55Z</time>
      </trkpt>
      <trkpt lat="47.47423" lon="3.64775">
        <ele>294</ele>
        <time>2019-04-04T11:01:00Z</time>
      </trkpt>
      <trkpt lat="47.47418" lon="3.64773">
        <ele>294</ele>
        <time>2019-04-04T11:01:04Z</time>
      </trkpt>
      <trkpt lat="47.47412" lon="3.64773">
        <ele>295</ele>
        <time>2019-04-04T11:01:07Z</time>
      </trkpt>
      <trkpt lat="47.47407" lon="3.64769">
        <ele>294</ele>
        <time>2019-04-04T11:01:11Z</time>
      </trkpt>
      <trkpt lat="47.47402" lon="3.64767">
        <ele>295</ele>
        <time>2019-04-04T11:01:18Z</time>
      </trkpt>
      <trkpt lat="47.47397" lon="3.64766">
        <ele>297</ele>
        <time>2019-04-04T11:01:22Z</time>
      </trkpt>
      <trkpt lat="47.47392" lon="3.64763">
        <ele>297</ele>
        <time>2019-04-04T11:01:26Z</time>
      </trkpt>
      <trkpt lat="47.47388" lon="3.64759">
        <ele>296</ele>
        <time>2019-04-04T11:01:29Z</time>
      </trkpt>
      <trkpt lat="47.47384" lon="3.64759">
        <ele>295</ele>
        <time>2019-04-04T11:01:32Z</time>
      </trkpt>
      <trkpt lat="47.47378" lon="3.6476">
        <ele>297</ele>
        <time>2019-04-04T11:01:37Z</time>
      </trkpt>
      <trkpt lat="47.47374" lon="3.64759">
        <ele>296</ele>
        <time>2019-04-04T11:01:41Z</time>
      </trkpt>
      <trkpt lat="47.47369" lon="3.64756">
        <ele>296</ele>
        <time>2019-04-04T11:01:44Z</time>
      </trkpt>
      <trkpt lat="47.47367" lon="3.64755">
        <ele>296</ele>
        <time>2019-04-04T11:01:46Z</time>
      </trkpt>
      <trkpt lat="47.47363" lon="3.6475">
        <ele>295</ele>
        <time>2019-04-04T11:01:52Z</time>
      </trkpt>
      <trkpt lat="47.47357" lon="3.64748">
        <ele>296</ele>
        <time>2019-04-04T11:01:56Z</time>
      </trkpt>
      <trkpt lat="47.47355" lon="3.64747">
        <ele>296</ele>
        <time>2019-04-04T11:01:58Z</time>
      </trkpt>
      <trkpt lat="47.4735" lon="3.64744">
        <ele>296</ele>
        <time>2019-04-04T11:02:01Z</time>
      </trkpt>
      <trkpt lat="47.47346" lon="3.64743">
        <ele>296</ele>
        <time>2019-04-04T11:02:04Z</time>
      </trkpt>
      <trkpt lat="47.47341" lon="3.64741">
        <ele>297</ele>
        <time>2019-04-04T11:02:08Z</time>
      </trkpt>
      <trkpt lat="47.47333" lon="3.6474">
        <ele>297</ele>
        <time>2019-04-04T11:02:16Z</time>
      </trkpt>
      <trkpt lat="47.47329" lon="3.64739">
        <ele>298</ele>
        <time>2019-04-04T11:02:18Z</time>
      </trkpt>
      <trkpt lat="47.47326" lon="3.64739">
        <ele>299</ele>
        <time>2019-04-04T11:02:20Z</time>
      </trkpt>
      <trkpt lat="47.47319" lon="3.64734">
        <ele>300</ele>
        <time>2019-04-04T11:02:26Z</time>
      </trkpt>
      <trkpt lat="47.47312" lon="3.64731">
        <ele>298</ele>
        <time>2019-04-04T11:02:31Z</time>
      </trkpt>
      <trkpt lat="47.47306" lon="3.6473">
        <ele>298</ele>
        <time>2019-04-04T11:02:36Z</time>
      </trkpt>
      <trkpt lat="47.47302" lon="3.6473">
        <ele>296</ele>
        <time>2019-04-04T11:02:40Z</time>
      </trkpt>
      <trkpt lat="47.47297" lon="3.64728">
        <ele>294</ele>
        <time>2019-04-04T11:02:44Z</time>
      </trkpt>
      <trkpt lat="47.47294" lon="3.64727">
        <ele>293</ele>
        <time>2019-04-04T11:02:46Z</time>
      </trkpt>
      <trkpt lat="47.47289" lon="3.64725">
        <ele>293</ele>
        <time>2019-04-04T11:02:50Z</time>
      </trkpt>
      <trkpt lat="47.47284" lon="3.64725">
        <ele>293</ele>
        <time>2019-04-04T11:02:53Z</time>
      </trkpt>
      <trkpt lat="47.47279" lon="3.64722">
        <ele>295</ele>
        <time>2019-04-04T11:02:59Z</time>
      </trkpt>
      <trkpt lat="47.47274" lon="3.64719">
        <ele>294</ele>
        <time>2019-04-04T11:03:04Z</time>
      </trkpt>
      <trkpt lat="47.47271" lon="3.64716">
        <ele>294</ele>
        <time>2019-04-04T11:03:07Z</time>
      </trkpt>
      <trkpt lat="47.47269" lon="3.64714">
        <ele>294</ele>
        <time>2019-04-04T11:03:10Z</time>
      </trkpt>
      <trkpt lat="47.47265" lon="3.64711">
        <ele>296</ele>
        <time>2019-04-04T11:03:13Z</time>
      </trkpt>
      <trkpt lat="47.4726" lon="3.64708">
        <ele>297</ele>
        <time>2019-04-04T11:03:17Z</time>
      </trkpt>
      <trkpt lat="47.47255" lon="3.64706">
        <ele>298</ele>
        <time>2019-04-04T11:03:21Z</time>
      </trkpt>
      <trkpt lat="47.4725" lon="3.64704">
        <ele>298</ele>
        <time>2019-04-04T11:03:24Z</time>
      </trkpt>
      <trkpt lat="47.47243" lon="3.64703">
        <ele>299</ele>
        <time>2019-04-04T11:03:30Z</time>
      </trkpt>
      <trkpt lat="47.47237" lon="3.64698">
        <ele>299</ele>
        <time>2019-04-04T11:03:36Z</time>
      </trkpt>
      <trkpt lat="47.47232" lon="3.64697">
        <ele>296</ele>
        <time>2019-04-04T11:03:42Z</time>
      </trkpt>
      <trkpt lat="47.4723" lon="3.64695">
        <ele>297</ele>
        <time>2019-04-04T11:03:44Z</time>
      </trkpt>
      <trkpt lat="47.47225" lon="3.64694">
        <ele>296</ele>
        <time>2019-04-04T11:03:47Z</time>
      </trkpt>
      <trkpt lat="47.4722" lon="3.64692">
        <ele>298</ele>
        <time>2019-04-04T11:03:50Z</time>
      </trkpt>
      <trkpt lat="47.47218" lon="3.64691">
        <ele>297</ele>
        <time>2019-04-04T11:03:51Z</time>
      </trkpt>
      <trkpt lat="47.47216" lon="3.64689">
        <ele>298</ele>
        <time>2019-04-04T11:03:53Z</time>
      </trkpt>
      <trkpt lat="47.47212" lon="3.64687">
        <ele>299</ele>
        <time>2019-04-04T11:03:56Z</time>
      </trkpt>
      <trkpt lat="47.47207" lon="3.64685">
        <ele>298</ele>
        <time>2019-04-04T11:04:00Z</time>
      </trkpt>
      <trkpt lat="47.47205" lon="3.64684">
        <ele>298</ele>
        <time>2019-04-04T11:04:02Z</time>
      </trkpt>
      <trkpt lat="47.47203" lon="3.64682">
        <ele>298</ele>
        <time>2019-04-04T11:04:05Z</time>
      </trkpt>
      <trkpt lat="47.47197" lon="3.64681">
        <ele>298</ele>
        <time>2019-04-04T11:04:10Z</time>
      </trkpt>
      <trkpt lat="47.47194" lon="3.6468">
        <ele>298</ele>
        <time>2019-04-04T11:04:12Z</time>
      </trkpt>
      <trkpt lat="47.47191" lon="3.6468">
        <ele>299</ele>
        <time>2019-04-04T11:04:14Z</time>
      </trkpt>
      <trkpt lat="47.47186" lon="3.64678">
        <ele>298</ele>
        <time>2019-04-04T11:04:18Z</time>
      </trkpt>
      <trkpt lat="47.47182" lon="3.64675">
        <ele>297</ele>
        <time>2019-04-04T11:04:23Z</time>
      </trkpt>
      <trkpt lat="47.47176" lon="3.64671">
        <ele>295</ele>
        <time>2019-04-04T11:04:28Z</time>
      </trkpt>
      <trkpt lat="47.47172" lon="3.64669">
        <ele>296</ele>
        <time>2019-04-04T11:04:32Z</time>
      </trkpt>
      <trkpt lat="47.47166" lon="3.64665">
        <ele>298</ele>
        <time>2019-04-04T11:04:38Z</time>
      </trkpt>
      <trkpt lat="47.47162" lon="3.6466">
        <ele>297</ele>
        <time>2019-04-04T11:04:42Z</time>
      </trkpt>
      <trkpt lat="47.47157" lon="3.6466">
        <ele>296</ele>
        <time>2019-04-04T11:04:46Z</time>
      </trkpt>
      <trkpt lat="47.47155" lon="3.64659">
        <ele>295</ele>
        <time>2019-04-04T11:04:48Z</time>
      </trkpt>
      <trkpt lat="47.4715" lon="3.64657">
        <ele>297</ele>
        <time>2019-04-04T11:04:52Z</time>
      </trkpt>
      <trkpt lat="47.47148" lon="3.64656">
        <ele>296</ele>
        <time>2019-04-04T11:04:54Z</time>
      </trkpt>
      <trkpt lat="47.47143" lon="3.64655">
        <ele>297</ele>
        <time>2019-04-04T11:04:57Z</time>
      </trkpt>
      <trkpt lat="47.4714" lon="3.64654">
        <ele>296</ele>
        <time>2019-04-04T11:04:59Z</time>
      </trkpt>
      <trkpt lat="47.47135" lon="3.6465">
        <ele>297</ele>
        <time>2019-04-04T11:05:03Z</time>
      </trkpt>
      <trkpt lat="47.47129" lon="3.64648">
        <ele>298</ele>
        <time>2019-04-04T11:05:08Z</time>
      </trkpt>
      <trkpt lat="47.47125" lon="3.64644">
        <ele>295</ele>
        <time>2019-04-04T11:05:13Z</time>
      </trkpt>
      <trkpt lat="47.4712" lon="3.64641">
        <ele>295</ele>
        <time>2019-04-04T11:05:18Z</time>
      </trkpt>
      <trkpt lat="47.47117" lon="3.64639">
        <ele>296</ele>
        <time>2019-04-04T11:05:20Z</time>
      </trkpt>
      <trkpt lat="47.47111" lon="3.64638">
        <ele>295</ele>
        <time>2019-04-04T11:05:25Z</time>
      </trkpt>
      <trkpt lat="47.47109" lon="3.64637">
        <ele>295</ele>
        <time>2019-04-04T11:05:27Z</time>
      </trkpt>
      <trkpt lat="47.47104" lon="3.64634">
        <ele>296</ele>
        <time>2019-04-04T11:05:31Z</time>
      </trkpt>
      <trkpt lat="47.47099" lon="3.64632">
        <ele>294</ele>
        <time>2019-04-04T11:05:36Z</time>
      </trkpt>
      <trkpt lat="47.47096" lon="3.64628">
        <ele>291</ele>
        <time>2019-04-04T11:05:42Z</time>
      </trkpt>
      <trkpt lat="47.4709" lon="3.64626">
        <ele>291</ele>
        <time>2019-04-04T11:05:45Z</time>
      </trkpt>
      <trkpt lat="47.47086" lon="3.64621">
        <ele>292</ele>
        <time>2019-04-04T11:05:49Z</time>
      </trkpt>
      <trkpt lat="47.4708" lon="3.6462">
        <ele>295</ele>
        <time>2019-04-04T11:05:53Z</time>
      </trkpt>
      <trkpt lat="47.47076" lon="3.64618">
        <ele>294</ele>
        <time>2019-04-04T11:05:56Z</time>
      </trkpt>
      <trkpt lat="47.47072" lon="3.64614">
        <ele>292</ele>
        <time>2019-04-04T11:06:01Z</time>
      </trkpt>
      <trkpt lat="47.47067" lon="3.64613">
        <ele>294</ele>
        <time>2019-04-04T11:06:07Z</time>
      </trkpt>
      <trkpt lat="47.47062" lon="3.64613">
        <ele>293</ele>
        <time>2019-04-04T11:06:12Z</time>
      </trkpt>
      <trkpt lat="47.47057" lon="3.64611">
        <ele>293</ele>
        <time>2019-04-04T11:06:15Z</time>
      </trkpt>
      <trkpt lat="47.47053" lon="3.64609">
        <ele>295</ele>
        <time>2019-04-04T11:06:18Z</time>
      </trkpt>
      <trkpt lat="47.4705" lon="3.64608">
        <ele>294</ele>
        <time>2019-04-04T11:06:20Z</time>
      </trkpt>
      <trkpt lat="47.47044" lon="3.64605">
        <ele>295</ele>
        <time>2019-04-04T11:06:26Z</time>
      </trkpt>
      <trkpt lat="47.4704" lon="3.64602">
        <ele>295</ele>
        <time>2019-04-04T11:06:29Z</time>
      </trkpt>
      <trkpt lat="47.47036" lon="3.64597">
        <ele>296</ele>
        <time>2019-04-04T11:06:33Z</time>
      </trkpt>
      <trkpt lat="47.47029" lon="3.64591">
        <ele>296</ele>
        <time>2019-04-04T11:06:39Z</time>
      </trkpt>
      <trkpt lat="47.47025" lon="3.64585">
        <ele>297</ele>
        <time>2019-04-04T11:06:44Z</time>
      </trkpt>
      <trkpt lat="47.47021" lon="3.64581">
        <ele>296</ele>
        <time>2019-04-04T11:06:48Z</time>
      </trkpt>
      <trkpt lat="47.47018" lon="3.64579">
        <ele>296</ele>
        <time>2019-04-04T11:06:51Z</time>
      </trkpt>
      <trkpt lat="47.47012" lon="3.64575">
        <ele>294</ele>
        <time>2019-04-04T11:06:55Z</time>
      </trkpt>
      <trkpt lat="47.47009" lon="3.64571">
        <ele>294</ele>
        <time>2019-04-04T11:06:59Z</time>
      </trkpt>
      <trkpt lat="47.47007" lon="3.64568">
        <ele>295</ele>
        <time>2019-04-04T11:07:01Z</time>
      </trkpt>
      <trkpt lat="47.47003" lon="3.64564">
        <ele>295</ele>
        <time>2019-04-04T11:07:07Z</time>
      </trkpt>
      <trkpt lat="47.46998" lon="3.6456">
        <ele>293</ele>
        <time>2019-04-04T11:07:12Z</time>
      </trkpt>
      <trkpt lat="47.46996" lon="3.64559">
        <ele>293</ele>
        <time>2019-04-04T11:07:14Z</time>
      </trkpt>
      <trkpt lat="47.46992" lon="3.64556">
        <ele>294</ele>
        <time>2019-04-04T11:07:17Z</time>
      </trkpt>
      <trkpt lat="47.46988" lon="3.64553">
        <ele>295</ele>
        <time>2019-04-04T11:07:21Z</time>
      </trkpt>
      <trkpt lat="47.46982" lon="3.64549">
        <ele>295</ele>
        <time>2019-04-04T11:07:27Z</time>
      </trkpt>
      <trkpt lat="47.46977" lon="3.64546">
        <ele>296</ele>
        <time>2019-04-04T11:07:31Z</time>
      </trkpt>
      <trkpt lat="47.46975" lon="3.64544">
        <ele>295</ele>
        <time>2019-04-04T11:07:34Z</time>
      </trkpt>
      <trkpt lat="47.46972" lon="3.64543">
        <ele>295</ele>
        <time>2019-04-04T11:07:36Z</time>
      </trkpt>
      <trkpt lat="47.46968" lon="3.64539">
        <ele>295</ele>
        <time>2019-04-04T11:07:40Z</time>
      </trkpt>
      <trkpt lat="47.46962" lon="3.64535">
        <ele>296</ele>
        <time>2019-04-04T11:07:46Z</time>
      </trkpt>
      <trkpt lat="47.46956" lon="3.6453">
        <ele>296</ele>
        <time>2019-04-04T11:07:51Z</time>
      </trkpt>
      <trkpt lat="47.46952" lon="3.64527">
        <ele>295</ele>
        <time>2019-04-04T11:07:54Z</time>
      </trkpt>
      <trkpt lat="47.46947" lon="3.64521">
        <ele>294</ele>
        <time>2019-04-04T11:07:59Z</time>
      </trkpt>
      <trkpt lat="47.46943" lon="3.64519">
        <ele>293</ele>
        <time>2019-04-04T11:08:02Z</time>
      </trkpt>
      <trkpt lat="47.46939" lon="3.64513">
        <ele>295</ele>
        <time>2019-04-04T11:08:05Z</time>
      </trkpt>
      <trkpt lat="47.46937" lon="3.6451">
        <ele>295</ele>
        <time>2019-04-04T11:08:08Z</time>
      </trkpt>
      <trkpt lat="47.46932" lon="3.64506">
        <ele>296</ele>
        <time>2019-04-04T11:08:13Z</time>
      </trkpt>
      <trkpt lat="47.46929" lon="3.645">
        <ele>296</ele>
        <time>2019-04-04T11:08:18Z</time>
      </trkpt>
      <trkpt lat="47.46927" lon="3.64496">
        <ele>295</ele>
        <time>2019-04-04T11:08:22Z</time>
      </trkpt>
      <trkpt lat="47.46925" lon="3.64491">
        <ele>297</ele>
        <time>2019-04-04T11:08:25Z</time>
      </trkpt>
      <trkpt lat="47.46923" lon="3.64486">
        <ele>296</ele>
        <time>2019-04-04T11:08:27Z</time>
      </trkpt>
      <trkpt lat="47.4692" lon="3.64481">
        <ele>295</ele>
        <time>2019-04-04T11:08:31Z</time>
      </trkpt>
      <trkpt lat="47.46915" lon="3.64479">
        <ele>296</ele>
        <time>2019-04-04T11:08:34Z</time>
      </trkpt>
      <trkpt lat="47.46911" lon="3.64475">
        <ele>297</ele>
        <time>2019-04-04T11:08:38Z</time>
      </trkpt>
      <trkpt lat="47.46909" lon="3.64468">
        <ele>297</ele>
        <time>2019-04-04T11:08:43Z</time>
      </trkpt>
      <trkpt lat="47.46904" lon="3.64464">
        <ele>297</ele>
        <time>2019-04-04T11:08:49Z</time>
      </trkpt>
      <trkpt lat="47.46901" lon="3.64461">
        <ele>297</ele>
        <time>2019-04-04T11:08:52Z</time>
      </trkpt>
      <trkpt lat="47.46897" lon="3.64458">
        <ele>297</ele>
        <time>2019-04-04T11:08:55Z</time>
      </trkpt>
      <trkpt lat="47.46892" lon="3.64454">
        <ele>298</ele>
        <time>2019-04-04T11:09:00Z</time>
      </trkpt>
      <trkpt lat="47.46887" lon="3.64449">
        <ele>298</ele>
        <time>2019-04-04T11:09:05Z</time>
      </trkpt>
      <trkpt lat="47.46883" lon="3.64445">
        <ele>298</ele>
        <time>2019-04-04T11:09:08Z</time>
      </trkpt>
      <trkpt lat="47.46877" lon="3.64442">
        <ele>298</ele>
        <time>2019-04-04T11:09:12Z</time>
      </trkpt>
      <trkpt lat="47.46873" lon="3.64436">
        <ele>297</ele>
        <time>2019-04-04T11:09:17Z</time>
      </trkpt>
      <trkpt lat="47.46868" lon="3.64432">
        <ele>296</ele>
        <time>2019-04-04T11:09:22Z</time>
      </trkpt>
      <trkpt lat="47.46865" lon="3.64427">
        <ele>296</ele>
        <time>2019-04-04T11:09:26Z</time>
      </trkpt>
      <trkpt lat="47.46863" lon="3.64422">
        <ele>299</ele>
        <time>2019-04-04T11:09:31Z</time>
      </trkpt>
      <trkpt lat="47.46858" lon="3.64417">
        <ele>301</ele>
        <time>2019-04-04T11:09:37Z</time>
      </trkpt>
      <trkpt lat="47.46852" lon="3.64411">
        <ele>302</ele>
        <time>2019-04-04T11:09:43Z</time>
      </trkpt>
      <trkpt lat="47.46849" lon="3.64409">
        <ele>302</ele>
        <time>2019-04-04T11:09:45Z</time>
      </trkpt>
      <trkpt lat="47.46847" lon="3.64407">
        <ele>301</ele>
        <time>2019-04-04T11:09:47Z</time>
      </trkpt>
      <trkpt lat="47.46844" lon="3.64403">
        <ele>302</ele>
        <time>2019-04-04T11:09:51Z</time>
      </trkpt>
      <trkpt lat="47.46838" lon="3.644">
        <ele>303</ele>
        <time>2019-04-04T11:09:57Z</time>
      </trkpt>
      <trkpt lat="47.4683" lon="3.64395">
        <ele>302</ele>
        <time>2019-04-04T11:10:04Z</time>
      </trkpt>
      <trkpt lat="47.46827" lon="3.64393">
        <ele>302</ele>
        <time>2019-04-04T11:10:06Z</time>
      </trkpt>
      <trkpt lat="47.46824" lon="3.64392">
        <ele>302</ele>
        <time>2019-04-04T11:10:08Z</time>
      </trkpt>
      <trkpt lat="47.4682" lon="3.6439">
        <ele>302</ele>
        <time>2019-04-04T11:10:11Z</time>
      </trkpt>
      <trkpt lat="47.46816" lon="3.64389">
        <ele>303</ele>
        <time>2019-04-04T11:10:14Z</time>
      </trkpt>
      <trkpt lat="47.4681" lon="3.64387">
        <ele>301</ele>
        <time>2019-04-04T11:10:18Z</time>
      </trkpt>
      <trkpt lat="47.46806" lon="3.64385">
        <ele>301</ele>
        <time>2019-04-04T11:10:22Z</time>
      </trkpt>
      <trkpt lat="47.46801" lon="3.64381">
        <ele>300</ele>
        <time>2019-04-04T11:10:26Z</time>
      </trkpt>
      <trkpt lat="47.46796" lon="3.64378">
        <ele>297</ele>
        <time>2019-04-04T11:10:30Z</time>
      </trkpt>
      <trkpt lat="47.46793" lon="3.64377">
        <ele>297</ele>
        <time>2019-04-04T11:10:32Z</time>
      </trkpt>
      <trkpt lat="47.46788" lon="3.64373">
        <ele>298</ele>
        <time>2019-04-04T11:10:37Z</time>
      </trkpt>
      <trkpt lat="47.46784" lon="3.64369">
        <ele>300</ele>
        <time>2019-04-04T11:10:43Z</time>
      </trkpt>
      <trkpt lat="47.46779" lon="3.64367">
        <ele>299</ele>
        <time>2019-04-04T11:10:47Z</time>
      </trkpt>
      <trkpt lat="47.46776" lon="3.64366">
        <ele>301</ele>
        <time>2019-04-04T11:10:50Z</time>
      </trkpt>
      <trkpt lat="47.46774" lon="3.64364">
        <ele>300</ele>
        <time>2019-04-04T11:10:52Z</time>
      </trkpt>
      <trkpt lat="47.46768" lon="3.64361">
        <ele>300</ele>
        <time>2019-04-04T11:10:56Z</time>
      </trkpt>
      <trkpt lat="47.46766" lon="3.6436">
        <ele>301</ele>
        <time>2019-04-04T11:10:58Z</time>
      </trkpt>
      <trkpt lat="47.46761" lon="3.64355">
        <ele>300</ele>
        <time>2019-04-04T11:11:02Z</time>
      </trkpt>
      <trkpt lat="47.46758" lon="3.64353">
        <ele>300</ele>
        <time>2019-04-04T11:11:04Z</time>
      </trkpt>
      <trkpt lat="47.46754" lon="3.64349">
        <ele>300</ele>
        <time>2019-04-04T11:11:08Z</time>
      </trkpt>
      <trkpt lat="47.4675" lon="3.64347">
        <ele>299</ele>
        <time>2019-04-04T11:11:12Z</time>
      </trkpt>
      <trkpt lat="47.46745" lon="3.64345">
        <ele>299</ele>
        <time>2019-04-04T11:11:16Z</time>
      </trkpt>
      <trkpt lat="47.46741" lon="3.64343">
        <ele>298</ele>
        <time>2019-04-04T11:11:19Z</time>
      </trkpt>
      <trkpt lat="47.46737" lon="3.6434">
        <ele>298</ele>
        <time>2019-04-04T11:11:24Z</time>
      </trkpt>
      <trkpt lat="47.46734" lon="3.64333">
        <ele>297</ele>
        <time>2019-04-04T11:11:30Z</time>
      </trkpt>
      <trkpt lat="47.46733" lon="3.64326">
        <ele>300</ele>
        <time>2019-04-04T11:11:34Z</time>
      </trkpt>
      <trkpt lat="47.46729" lon="3.6432">
        <ele>300</ele>
        <time>2019-04-04T11:11:37Z</time>
      </trkpt>
      <trkpt lat="47.46725" lon="3.64316">
        <ele>300</ele>
        <time>2019-04-04T11:11:40Z</time>
      </trkpt>
      <trkpt lat="47.46721" lon="3.64314">
        <ele>298</ele>
        <time>2019-04-04T11:11:44Z</time>
      </trkpt>
      <trkpt lat="47.46718" lon="3.64313">
        <ele>299</ele>
        <time>2019-04-04T11:11:46Z</time>
      </trkpt>
      <trkpt lat="47.46712" lon="3.64309">
        <ele>298</ele>
        <time>2019-04-04T11:11:50Z</time>
      </trkpt>
      <trkpt lat="47.4671" lon="3.64306">
        <ele>297</ele>
        <time>2019-04-04T11:11:52Z</time>
      </trkpt>
      <trkpt lat="47.46705" lon="3.64304">
        <ele>297</ele>
        <time>2019-04-04T11:11:55Z</time>
      </trkpt>
      <trkpt lat="47.46701" lon="3.64302">
        <ele>296</ele>
        <time>2019-04-04T11:11:58Z</time>
      </trkpt>
      <trkpt lat="47.46697" lon="3.643">
        <ele>297</ele>
        <time>2019-04-04T11:12:01Z</time>
      </trkpt>
      <trkpt lat="47.46694" lon="3.64299">
        <ele>297</ele>
        <time>2019-04-04T11:12:04Z</time>
      </trkpt>
      <trkpt lat="47.4669" lon="3.64296">
        <ele>296</ele>
        <time>2019-04-04T11:12:08Z</time>
      </trkpt>
      <trkpt lat="47.46685" lon="3.64294">
        <ele>297</ele>
        <time>2019-04-04T11:12:11Z</time>
      </trkpt>
      <trkpt lat="47.4668" lon="3.64291">
        <ele>297</ele>
        <time>2019-04-04T11:12:15Z</time>
      </trkpt>
      <trkpt lat="47.46675" lon="3.64289">
        <ele>297</ele>
        <time>2019-04-04T11:12:18Z</time>
      </trkpt>
      <trkpt lat="47.46671" lon="3.64285">
        <ele>296</ele>
        <time>2019-04-04T11:12:22Z</time>
      </trkpt>
      <trkpt lat="47.46663" lon="3.64282">
        <ele>297</ele>
        <time>2019-04-04T11:12:27Z</time>
      </trkpt>
      <trkpt lat="47.46661" lon="3.6428">
        <ele>297</ele>
        <time>2019-04-04T11:12:29Z</time>
      </trkpt>
      <trkpt lat="47.46658" lon="3.64279">
        <ele>297</ele>
        <time>2019-04-04T11:12:31Z</time>
      </trkpt>
      <trkpt lat="47.46654" lon="3.64275">
        <ele>297</ele>
        <time>2019-04-04T11:12:36Z</time>
      </trkpt>
      <trkpt lat="47.46649" lon="3.64272">
        <ele>297</ele>
        <time>2019-04-04T11:12:41Z</time>
      </trkpt>
      <trkpt lat="47.46644" lon="3.64269">
        <ele>296</ele>
        <time>2019-04-04T11:12:45Z</time>
      </trkpt>
      <trkpt lat="47.46642" lon="3.64268">
        <ele>297</ele>
        <time>2019-04-04T11:12:47Z</time>
      </trkpt>
      <trkpt lat="47.46638" lon="3.64266">
        <ele>297</ele>
        <time>2019-04-04T11:12:50Z</time>
      </trkpt>
      <trkpt lat="47.46635" lon="3.64265">
        <ele>296</ele>
        <time>2019-04-04T11:12:52Z</time>
      </trkpt>
      <trkpt lat="47.4663" lon="3.64263">
        <ele>297</ele>
        <time>2019-04-04T11:12:55Z</time>
      </trkpt>
      <trkpt lat="47.46625" lon="3.6426">
        <ele>297</ele>
        <time>2019-04-04T11:12:59Z</time>
      </trkpt>
      <trkpt lat="47.46622" lon="3.64258">
        <ele>297</ele>
        <time>2019-04-04T11:13:02Z</time>
      </trkpt>
      <trkpt lat="47.46618" lon="3.64254">
        <ele>298</ele>
        <time>2019-04-04T11:13:08Z</time>
      </trkpt>
      <trkpt lat="47.46614" lon="3.64251">
        <ele>297</ele>
        <time>2019-04-04T11:13:11Z</time>
      </trkpt>
      <trkpt lat="47.4661" lon="3.64246">
        <ele>296</ele>
        <time>2019-04-04T11:13:14Z</time>
      </trkpt>
      <trkpt lat="47.46606" lon="3.64243">
        <ele>296</ele>
        <time>2019-04-04T11:13:17Z</time>
      </trkpt>
      <trkpt lat="47.46604" lon="3.64241">
        <ele>295</ele>
        <time>2019-04-04T11:13:19Z</time>
      </trkpt>
      <trkpt lat="47.466" lon="3.64239">
        <ele>296</ele>
        <time>2019-04-04T11:13:22Z</time>
      </trkpt>
      <trkpt lat="47.46596" lon="3.6424">
        <ele>297</ele>
        <time>2019-04-04T11:13:27Z</time>
      </trkpt>
      <trkpt lat="47.46591" lon="3.64237">
        <ele>298</ele>
        <time>2019-04-04T11:13:31Z</time>
      </trkpt>
      <trkpt lat="47.46586" lon="3.64233">
        <ele>298</ele>
        <time>2019-04-04T11:13:34Z</time>
      </trkpt>
      <trkpt lat="47.46583" lon="3.64231">
        <ele>298</ele>
        <time>2019-04-04T11:13:37Z</time>
      </trkpt>
      <trkpt lat="47.46578" lon="3.64226">
        <ele>299</ele>
        <time>2019-04-04T11:13:41Z</time>
      </trkpt>
      <trkpt lat="47.46575" lon="3.64224">
        <ele>298</ele>
        <time>2019-04-04T11:13:43Z</time>
      </trkpt>
      <trkpt lat="47.46571" lon="3.64221">
        <ele>298</ele>
        <time>2019-04-04T11:13:47Z</time>
      </trkpt>
      <trkpt lat="47.46568" lon="3.64219">
        <ele>299</ele>
        <time>2019-04-04T11:13:50Z</time>
      </trkpt>
      <trkpt lat="47.46563" lon="3.64217">
        <ele>299</ele>
        <time>2019-04-04T11:13:53Z</time>
      </trkpt>
      <trkpt lat="47.46559" lon="3.64215">
        <ele>300</ele>
        <time>2019-04-04T11:13:56Z</time>
      </trkpt>
      <trkpt lat="47.46555" lon="3.64214">
        <ele>300</ele>
        <time>2019-04-04T11:13:59Z</time>
      </trkpt>
      <trkpt lat="47.46549" lon="3.64211">
        <ele>298</ele>
        <time>2019-04-04T11:14:03Z</time>
      </trkpt>
      <trkpt lat="47.46544" lon="3.64207">
        <ele>299</ele>
        <time>2019-04-04T11:14:07Z</time>
      </trkpt>
      <trkpt lat="47.46539" lon="3.64206">
        <ele>299</ele>
        <time>2019-04-04T11:14:10Z</time>
      </trkpt>
      <trkpt lat="47.46538" lon="3.6421">
        <ele>300</ele>
        <time>2019-04-04T11:14:18Z</time>
      </trkpt>
      <trkpt lat="47.46535" lon="3.64205">
        <ele>295</ele>
        <time>2019-04-04T11:14:40Z</time>
      </trkpt>
      <trkpt lat="47.46529" lon="3.64201">
        <ele>295</ele>
        <time>2019-04-04T11:14:43Z</time>
      </trkpt>
      <trkpt lat="47.46524" lon="3.64203">
        <ele>297</ele>
        <time>2019-04-04T11:14:48Z</time>
      </trkpt>
      <trkpt lat="47.4652" lon="3.64208">
        <ele>296</ele>
        <time>2019-04-04T11:14:51Z</time>
      </trkpt>
      <trkpt lat="47.46515" lon="3.6421">
        <ele>296</ele>
        <time>2019-04-04T11:14:55Z</time>
      </trkpt>
      <trkpt lat="47.4651" lon="3.64212">
        <ele>299</ele>
        <time>2019-04-04T11:15:00Z</time>
      </trkpt>
      <trkpt lat="47.46507" lon="3.64213">
        <ele>300</ele>
        <time>2019-04-04T11:15:06Z</time>
      </trkpt>
      <trkpt lat="47.46498" lon="3.64215">
        <ele>302</ele>
        <time>2019-04-04T11:15:15Z</time>
      </trkpt>
      <trkpt lat="47.46493" lon="3.64218">
        <ele>303</ele>
        <time>2019-04-04T11:15:18Z</time>
      </trkpt>
      <trkpt lat="47.46487" lon="3.64221">
        <ele>303</ele>
        <time>2019-04-04T11:15:23Z</time>
      </trkpt>
      <trkpt lat="47.46483" lon="3.64223">
        <ele>303</ele>
        <time>2019-04-04T11:15:27Z</time>
      </trkpt>
      <trkpt lat="47.4648" lon="3.64224">
        <ele>304</ele>
        <time>2019-04-04T11:15:30Z</time>
      </trkpt>
      <trkpt lat="47.46478" lon="3.64225">
        <ele>304</ele>
        <time>2019-04-04T11:15:32Z</time>
      </trkpt>
      <trkpt lat="47.46474" lon="3.64227">
        <ele>306</ele>
        <time>2019-04-04T11:15:34Z</time>
      </trkpt>
      <trkpt lat="47.4647" lon="3.64229">
        <ele>306</ele>
        <time>2019-04-04T11:15:38Z</time>
      </trkpt>
      <trkpt lat="47.46468" lon="3.6423">
        <ele>306</ele>
        <time>2019-04-04T11:15:41Z</time>
      </trkpt>
      <trkpt lat="47.46461" lon="3.64236">
        <ele>307</ele>
        <time>2019-04-04T11:15:46Z</time>
      </trkpt>
      <trkpt lat="47.46456" lon="3.64239">
        <ele>308</ele>
        <time>2019-04-04T11:15:49Z</time>
      </trkpt>
      <trkpt lat="47.46451" lon="3.64241">
        <ele>308</ele>
        <time>2019-04-04T11:15:53Z</time>
      </trkpt>
      <trkpt lat="47.46446" lon="3.64247">
        <ele>311</ele>
        <time>2019-04-04T11:16:00Z</time>
      </trkpt>
      <trkpt lat="47.46441" lon="3.64251">
        <ele>310</ele>
        <time>2019-04-04T11:16:04Z</time>
      </trkpt>
      <trkpt lat="47.46436" lon="3.64256">
        <ele>309</ele>
        <time>2019-04-04T11:16:09Z</time>
      </trkpt>
      <trkpt lat="47.46432" lon="3.64263">
        <ele>310</ele>
        <time>2019-04-04T11:16:12Z</time>
      </trkpt>
      <trkpt lat="47.46429" lon="3.64267">
        <ele>311</ele>
        <time>2019-04-04T11:16:15Z</time>
      </trkpt>
      <trkpt lat="47.46426" lon="3.64278">
        <ele>311</ele>
        <time>2019-04-04T11:16:21Z</time>
      </trkpt>
      <trkpt lat="47.46424" lon="3.64286">
        <ele>308</ele>
        <time>2019-04-04T11:16:26Z</time>
      </trkpt>
      <trkpt lat="47.46423" lon="3.64294">
        <ele>306</ele>
        <time>2019-04-04T11:16:30Z</time>
      </trkpt>
      <trkpt lat="47.4642" lon="3.643">
        <ele>306</ele>
        <time>2019-04-04T11:16:34Z</time>
      </trkpt>
      <trkpt lat="47.46419" lon="3.64313">
        <ele>307</ele>
        <time>2019-04-04T11:16:39Z</time>
      </trkpt>
      <trkpt lat="47.46416" lon="3.64319">
        <ele>310</ele>
        <time>2019-04-04T11:16:43Z</time>
      </trkpt>
      <trkpt lat="47.46413" lon="3.64326">
        <ele>310</ele>
        <time>2019-04-04T11:16:48Z</time>
      </trkpt>
      <trkpt lat="47.46413" lon="3.64331">
        <ele>307</ele>
        <time>2019-04-04T11:16:58Z</time>
      </trkpt>
      <trkpt lat="47.46407" lon="3.64331">
        <ele>305</ele>
        <time>2019-04-04T11:17:04Z</time>
      </trkpt>
      <trkpt lat="47.46402" lon="3.64334">
        <ele>307</ele>
        <time>2019-04-04T11:17:11Z</time>
      </trkpt>
      <trkpt lat="47.46399" lon="3.64336">
        <ele>309</ele>
        <time>2019-04-04T11:17:14Z</time>
      </trkpt>
      <trkpt lat="47.46396" lon="3.64337">
        <ele>310</ele>
        <time>2019-04-04T11:17:17Z</time>
      </trkpt>
      <trkpt lat="47.46392" lon="3.6434">
        <ele>310</ele>
        <time>2019-04-04T11:17:21Z</time>
      </trkpt>
      <trkpt lat="47.46388" lon="3.6434">
        <ele>309</ele>
        <time>2019-04-04T11:17:28Z</time>
      </trkpt>
      <trkpt lat="47.46383" lon="3.64339">
        <ele>306</ele>
        <time>2019-04-04T11:17:34Z</time>
      </trkpt>
      <trkpt lat="47.46378" lon="3.64337">
        <ele>304</ele>
        <time>2019-04-04T11:17:38Z</time>
      </trkpt>
      <trkpt lat="47.46372" lon="3.64336">
        <ele>302</ele>
        <time>2019-04-04T11:17:42Z</time>
      </trkpt>
      <trkpt lat="47.46368" lon="3.64334">
        <ele>304</ele>
        <time>2019-04-04T11:17:46Z</time>
      </trkpt>
      <trkpt lat="47.46362" lon="3.64333">
        <ele>304</ele>
        <time>2019-04-04T11:17:50Z</time>
      </trkpt>
      <trkpt lat="47.46357" lon="3.64331">
        <ele>306</ele>
        <time>2019-04-04T11:17:53Z</time>
      </trkpt>
      <trkpt lat="47.46352" lon="3.6433">
        <ele>306</ele>
        <time>2019-04-04T11:17:56Z</time>
      </trkpt>
      <trkpt lat="47.46346" lon="3.64331">
        <ele>307</ele>
        <time>2019-04-04T11:17:59Z</time>
      </trkpt>
      <trkpt lat="47.4634" lon="3.64331">
        <ele>309</ele>
        <time>2019-04-04T11:18:03Z</time>
      </trkpt>
      <trkpt lat="47.46333" lon="3.64329">
        <ele>309</ele>
        <time>2019-04-04T11:18:07Z</time>
      </trkpt>
      <trkpt lat="47.46331" lon="3.64329">
        <ele>310</ele>
        <time>2019-04-04T11:18:08Z</time>
      </trkpt>
      <trkpt lat="47.46327" lon="3.64332">
        <ele>311</ele>
        <time>2019-04-04T11:18:11Z</time>
      </trkpt>
      <trkpt lat="47.46324" lon="3.64335">
        <ele>312</ele>
        <time>2019-04-04T11:18:14Z</time>
      </trkpt>
      <trkpt lat="47.46321" lon="3.64338">
        <ele>312</ele>
        <time>2019-04-04T11:18:17Z</time>
      </trkpt>
      <trkpt lat="47.46316" lon="3.6434">
        <ele>310</ele>
        <time>2019-04-04T11:18:21Z</time>
      </trkpt>
      <trkpt lat="47.46312" lon="3.64342">
        <ele>310</ele>
        <time>2019-04-04T11:18:23Z</time>
      </trkpt>
      <trkpt lat="47.46305" lon="3.64346">
        <ele>310</ele>
        <time>2019-04-04T11:18:28Z</time>
      </trkpt>
      <trkpt lat="47.46302" lon="3.64348">
        <ele>309</ele>
        <time>2019-04-04T11:18:29Z</time>
      </trkpt>
      <trkpt lat="47.46299" lon="3.6435">
        <ele>307</ele>
        <time>2019-04-04T11:18:32Z</time>
      </trkpt>
      <trkpt lat="47.46296" lon="3.64353">
        <ele>305</ele>
        <time>2019-04-04T11:18:37Z</time>
      </trkpt>
      <trkpt lat="47.46291" lon="3.64354">
        <ele>302</ele>
        <time>2019-04-04T11:18:40Z</time>
      </trkpt>
      <trkpt lat="47.46287" lon="3.64351">
        <ele>298</ele>
        <time>2019-04-04T11:18:46Z</time>
      </trkpt>
      <trkpt lat="47.46283" lon="3.6435">
        <ele>296</ele>
        <time>2019-04-04T11:18:48Z</time>
      </trkpt>
      <trkpt lat="47.46279" lon="3.64348">
        <ele>297</ele>
        <time>2019-04-04T11:18:51Z</time>
      </trkpt>
      <trkpt lat="47.46274" lon="3.64346">
        <ele>295</ele>
        <time>2019-04-04T11:18:55Z</time>
      </trkpt>
      <trkpt lat="47.46269" lon="3.64343">
        <ele>294</ele>
        <time>2019-04-04T11:19:00Z</time>
      </trkpt>
      <trkpt lat="47.46263" lon="3.6434">
        <ele>294</ele>
        <time>2019-04-04T11:19:05Z</time>
      </trkpt>
      <trkpt lat="47.46258" lon="3.64339">
        <ele>294</ele>
        <time>2019-04-04T11:19:10Z</time>
      </trkpt>
      <trkpt lat="47.46252" lon="3.64338">
        <ele>294</ele>
        <time>2019-04-04T11:19:13Z</time>
      </trkpt>
      <trkpt lat="47.46249" lon="3.64337">
        <ele>295</ele>
        <time>2019-04-04T11:19:15Z</time>
      </trkpt>
      <trkpt lat="47.46246" lon="3.64336">
        <ele>294</ele>
        <time>2019-04-04T11:19:17Z</time>
      </trkpt>
      <trkpt lat="47.46241" lon="3.64334">
        <ele>294</ele>
        <time>2019-04-04T11:19:21Z</time>
      </trkpt>
      <trkpt lat="47.46237" lon="3.64333">
        <ele>294</ele>
        <time>2019-04-04T11:19:26Z</time>
      </trkpt>
      <trkpt lat="47.46232" lon="3.64334">
        <ele>294</ele>
        <time>2019-04-04T11:19:30Z</time>
      </trkpt>
      <trkpt lat="47.46227" lon="3.64333">
        <ele>294</ele>
        <time>2019-04-04T11:19:34Z</time>
      </trkpt>
      <trkpt lat="47.46222" lon="3.64332">
        <ele>293</ele>
        <time>2019-04-04T11:19:39Z</time>
      </trkpt>
      <trkpt lat="47.46217" lon="3.64332">
        <ele>292</ele>
        <time>2019-04-04T11:19:42Z</time>
      </trkpt>
      <trkpt lat="47.46213" lon="3.64332">
        <ele>293</ele>
        <time>2019-04-04T11:19:44Z</time>
      </trkpt>
      <trkpt lat="47.46208" lon="3.64333">
        <ele>294</ele>
        <time>2019-04-04T11:19:48Z</time>
      </trkpt>
      <trkpt lat="47.46203" lon="3.64333">
        <ele>293</ele>
        <time>2019-04-04T11:19:52Z</time>
      </trkpt>
      <trkpt lat="47.462" lon="3.64332">
        <ele>292</ele>
        <time>2019-04-04T11:19:54Z</time>
      </trkpt>
      <trkpt lat="47.46194" lon="3.64332">
        <ele>293</ele>
        <time>2019-04-04T11:19:57Z</time>
      </trkpt>
      <trkpt lat="47.46188" lon="3.64333">
        <ele>293</ele>
        <time>2019-04-04T11:20:01Z</time>
      </trkpt>
      <trkpt lat="47.46185" lon="3.64333">
        <ele>293</ele>
        <time>2019-04-04T11:20:03Z</time>
      </trkpt>
      <trkpt lat="47.4618" lon="3.64332">
        <ele>293</ele>
        <time>2019-04-04T11:20:06Z</time>
      </trkpt>
      <trkpt lat="47.46177" lon="3.64331">
        <ele>293</ele>
        <time>2019-04-04T11:20:08Z</time>
      </trkpt>
      <trkpt lat="47.46171" lon="3.6433">
        <ele>293</ele>
        <time>2019-04-04T11:20:15Z</time>
      </trkpt>
      <trkpt lat="47.46168" lon="3.6433">
        <ele>294</ele>
        <time>2019-04-04T11:20:18Z</time>
      </trkpt>
      <trkpt lat="47.46165" lon="3.64329">
        <ele>294</ele>
        <time>2019-04-04T11:20:20Z</time>
      </trkpt>
      <trkpt lat="47.46159" lon="3.64328">
        <ele>294</ele>
        <time>2019-04-04T11:20:23Z</time>
      </trkpt>
      <trkpt lat="47.46155" lon="3.64328">
        <ele>295</ele>
        <time>2019-04-04T11:20:26Z</time>
      </trkpt>
      <trkpt lat="47.46151" lon="3.64327">
        <ele>295</ele>
        <time>2019-04-04T11:20:28Z</time>
      </trkpt>
      <trkpt lat="47.46146" lon="3.64327">
        <ele>295</ele>
        <time>2019-04-04T11:20:31Z</time>
      </trkpt>
      <trkpt lat="47.46141" lon="3.64326">
        <ele>295</ele>
        <time>2019-04-04T11:20:36Z</time>
      </trkpt>
      <trkpt lat="47.46137" lon="3.64324">
        <ele>293</ele>
        <time>2019-04-04T11:20:40Z</time>
      </trkpt>
      <trkpt lat="47.4613" lon="3.64322">
        <ele>294</ele>
        <time>2019-04-04T11:20:45Z</time>
      </trkpt>
      <trkpt lat="47.46126" lon="3.6432">
        <ele>294</ele>
        <time>2019-04-04T11:20:47Z</time>
      </trkpt>
      <trkpt lat="47.46121" lon="3.6432">
        <ele>295</ele>
        <time>2019-04-04T11:20:50Z</time>
      </trkpt>
      <trkpt lat="47.46115" lon="3.6432">
        <ele>295</ele>
        <time>2019-04-04T11:20:55Z</time>
      </trkpt>
      <trkpt lat="47.46111" lon="3.64318">
        <ele>296</ele>
        <time>2019-04-04T11:20:59Z</time>
      </trkpt>
      <trkpt lat="47.46106" lon="3.64317">
        <ele>298</ele>
        <time>2019-04-04T11:21:03Z</time>
      </trkpt>
      <trkpt lat="47.46101" lon="3.64318">
        <ele>298</ele>
        <time>2019-04-04T11:21:06Z</time>
      </trkpt>
      <trkpt lat="47.46095" lon="3.6432">
        <ele>294</ele>
        <time>2019-04-04T11:21:11Z</time>
      </trkpt>
      <trkpt lat="47.46093" lon="3.64321">
        <ele>293</ele>
        <time>2019-04-04T11:21:14Z</time>
      </trkpt>
      <trkpt lat="47.46087" lon="3.64322">
        <ele>293</ele>
        <time>2019-04-04T11:21:18Z</time>
      </trkpt>
      <trkpt lat="47.46081" lon="3.64325">
        <ele>294</ele>
        <time>2019-04-04T11:21:23Z</time>
      </trkpt>
      <trkpt lat="47.46076" lon="3.64328">
        <ele>294</ele>
        <time>2019-04-04T11:21:26Z</time>
      </trkpt>
      <trkpt lat="47.46074" lon="3.6433">
        <ele>294</ele>
        <time>2019-04-04T11:21:28Z</time>
      </trkpt>
      <trkpt lat="47.46069" lon="3.64332">
        <ele>293</ele>
        <time>2019-04-04T11:21:34Z</time>
      </trkpt>
      <trkpt lat="47.46064" lon="3.64333">
        <ele>294</ele>
        <time>2019-04-04T11:21:38Z</time>
      </trkpt>
      <trkpt lat="47.4606" lon="3.64337">
        <ele>294</ele>
        <time>2019-04-04T11:21:41Z</time>
      </trkpt>
      <trkpt lat="47.46057" lon="3.64342">
        <ele>292</ele>
        <time>2019-04-04T11:21:44Z</time>
      </trkpt>
      <trkpt lat="47.46054" lon="3.64346">
        <ele>290</ele>
        <time>2019-04-04T11:21:46Z</time>
      </trkpt>
      <trkpt lat="47.46052" lon="3.64349">
        <ele>289</ele>
        <time>2019-04-04T11:21:49Z</time>
      </trkpt>
      <trkpt lat="47.4605" lon="3.64356">
        <ele>289</ele>
        <time>2019-04-04T11:21:52Z</time>
      </trkpt>
      <trkpt lat="47.46048" lon="3.64362">
        <ele>289</ele>
        <time>2019-04-04T11:21:55Z</time>
      </trkpt>
      <trkpt lat="47.46047" lon="3.64366">
        <ele>288</ele>
        <time>2019-04-04T11:21:57Z</time>
      </trkpt>
      <trkpt lat="47.46046" lon="3.64373">
        <ele>286</ele>
        <time>2019-04-04T11:22:00Z</time>
      </trkpt>
      <trkpt lat="47.46046" lon="3.6438">
        <ele>285</ele>
        <time>2019-04-04T11:22:03Z</time>
      </trkpt>
      <trkpt lat="47.46046" lon="3.64386">
        <ele>285</ele>
        <time>2019-04-04T11:22:06Z</time>
      </trkpt>
      <trkpt lat="47.46047" lon="3.64395">
        <ele>285</ele>
        <time>2019-04-04T11:22:10Z</time>
      </trkpt>
      <trkpt lat="47.46047" lon="3.644">
        <ele>285</ele>
        <time>2019-04-04T11:22:12Z</time>
      </trkpt>
      <trkpt lat="47.46049" lon="3.64409">
        <ele>285</ele>
        <time>2019-04-04T11:22:16Z</time>
      </trkpt>
      <trkpt lat="47.46051" lon="3.64417">
        <ele>285</ele>
        <time>2019-04-04T11:22:19Z</time>
      </trkpt>
      <trkpt lat="47.46053" lon="3.64426">
        <ele>286</ele>
        <time>2019-04-04T11:22:23Z</time>
      </trkpt>
      <trkpt lat="47.46054" lon="3.64431">
        <ele>285</ele>
        <time>2019-04-04T11:22:26Z</time>
      </trkpt>
      <trkpt lat="47.46055" lon="3.64439">
        <ele>284</ele>
        <time>2019-04-04T11:22:30Z</time>
      </trkpt>
      <trkpt lat="47.46057" lon="3.64445">
        <ele>284</ele>
        <time>2019-04-04T11:22:35Z</time>
      </trkpt>
      <trkpt lat="47.46058" lon="3.6445">
        <ele>284</ele>
        <time>2019-04-04T11:22:37Z</time>
      </trkpt>
      <trkpt lat="47.46061" lon="3.64459">
        <ele>285</ele>
        <time>2019-04-04T11:22:42Z</time>
      </trkpt>
      <trkpt lat="47.46062" lon="3.64465">
        <ele>286</ele>
        <time>2019-04-04T11:22:45Z</time>
      </trkpt>
      <trkpt lat="47.46063" lon="3.64471">
        <ele>286</ele>
        <time>2019-04-04T11:22:50Z</time>
      </trkpt>
      <trkpt lat="47.46064" lon="3.64479">
        <ele>287</ele>
        <time>2019-04-04T11:22:53Z</time>
      </trkpt>
      <trkpt lat="47.46066" lon="3.64485">
        <ele>286</ele>
        <time>2019-04-04T11:22:56Z</time>
      </trkpt>
      <trkpt lat="47.46067" lon="3.64491">
        <ele>286</ele>
        <time>2019-04-04T11:23:00Z</time>
      </trkpt>
      <trkpt lat="47.46068" lon="3.64495">
        <ele>286</ele>
        <time>2019-04-04T11:23:02Z</time>
      </trkpt>
      <trkpt lat="47.46069" lon="3.64503">
        <ele>287</ele>
        <time>2019-04-04T11:23:06Z</time>
      </trkpt>
      <trkpt lat="47.46069" lon="3.64507">
        <ele>287</ele>
        <time>2019-04-04T11:23:09Z</time>
      </trkpt>
      <trkpt lat="47.46069" lon="3.64513">
        <ele>286</ele>
        <time>2019-04-04T11:23:12Z</time>
      </trkpt>
      <trkpt lat="47.4607" lon="3.64521">
        <ele>285</ele>
        <time>2019-04-04T11:23:16Z</time>
      </trkpt>
      <trkpt lat="47.46071" lon="3.64529">
        <ele>285</ele>
        <time>2019-04-04T11:23:20Z</time>
      </trkpt>
      <trkpt lat="47.46073" lon="3.64536">
        <ele>284</ele>
        <time>2019-04-04T11:23:24Z</time>
      </trkpt>
      <trkpt lat="47.46074" lon="3.64544">
        <ele>283</ele>
        <time>2019-04-04T11:23:28Z</time>
      </trkpt>
      <trkpt lat="47.46075" lon="3.64551">
        <ele>282</ele>
        <time>2019-04-04T11:23:33Z</time>
      </trkpt>
      <trkpt lat="47.46076" lon="3.64559">
        <ele>282</ele>
        <time>2019-04-04T11:23:37Z</time>
      </trkpt>
      <trkpt lat="47.46077" lon="3.64566">
        <ele>282</ele>
        <time>2019-04-04T11:23:40Z</time>
      </trkpt>
      <trkpt lat="47.46077" lon="3.64569">
        <ele>281</ele>
        <time>2019-04-04T11:23:42Z</time>
      </trkpt>
      <trkpt lat="47.46078" lon="3.64573">
        <ele>281</ele>
        <time>2019-04-04T11:23:44Z</time>
      </trkpt>
      <trkpt lat="47.46078" lon="3.64576">
        <ele>281</ele>
        <time>2019-04-04T11:23:46Z</time>
      </trkpt>
      <trkpt lat="47.4608" lon="3.64583">
        <ele>280</ele>
        <time>2019-04-04T11:23:49Z</time>
      </trkpt>
      <trkpt lat="47.46081" lon="3.64593">
        <ele>280</ele>
        <time>2019-04-04T11:23:54Z</time>
      </trkpt>
      <trkpt lat="47.46083" lon="3.646">
        <ele>279</ele>
        <time>2019-04-04T11:23:58Z</time>
      </trkpt>
      <trkpt lat="47.46084" lon="3.64604">
        <ele>279</ele>
        <time>2019-04-04T11:24:00Z</time>
      </trkpt>
      <trkpt lat="47.46086" lon="3.64611">
        <ele>278</ele>
        <time>2019-04-04T11:24:05Z</time>
      </trkpt>
      <trkpt lat="47.46088" lon="3.64619">
        <ele>278</ele>
        <time>2019-04-04T11:24:09Z</time>
      </trkpt>
      <trkpt lat="47.46091" lon="3.64626">
        <ele>277</ele>
        <time>2019-04-04T11:24:13Z</time>
      </trkpt>
      <trkpt lat="47.46095" lon="3.64632">
        <ele>276</ele>
        <time>2019-04-04T11:24:18Z</time>
      </trkpt>
      <trkpt lat="47.46098" lon="3.64637">
        <ele>276</ele>
        <time>2019-04-04T11:24:21Z</time>
      </trkpt>
      <trkpt lat="47.46101" lon="3.64642">
        <ele>276</ele>
        <time>2019-04-04T11:24:23Z</time>
      </trkpt>
      <trkpt lat="47.46103" lon="3.64646">
        <ele>276</ele>
        <time>2019-04-04T11:24:26Z</time>
      </trkpt>
      <trkpt lat="47.46105" lon="3.64649">
        <ele>275</ele>
        <time>2019-04-04T11:24:28Z</time>
      </trkpt>
      <trkpt lat="47.46106" lon="3.64652">
        <ele>276</ele>
        <time>2019-04-04T11:24:30Z</time>
      </trkpt>
      <trkpt lat="47.46111" lon="3.64657">
        <ele>275</ele>
        <time>2019-04-04T11:24:34Z</time>
      </trkpt>
      <trkpt lat="47.46114" lon="3.64661">
        <ele>274</ele>
        <time>2019-04-04T11:24:37Z</time>
      </trkpt>
      <trkpt lat="47.46115" lon="3.64664">
        <ele>275</ele>
        <time>2019-04-04T11:24:39Z</time>
      </trkpt>
      <trkpt lat="47.46119" lon="3.64668">
        <ele>274</ele>
        <time>2019-04-04T11:24:43Z</time>
      </trkpt>
      <trkpt lat="47.46123" lon="3.64673">
        <ele>273</ele>
        <time>2019-04-04T11:24:48Z</time>
      </trkpt>
      <trkpt lat="47.46127" lon="3.64677">
        <ele>273</ele>
        <time>2019-04-04T11:24:52Z</time>
      </trkpt>
      <trkpt lat="47.46129" lon="3.6468">
        <ele>273</ele>
        <time>2019-04-04T11:24:54Z</time>
      </trkpt>
      <trkpt lat="47.46132" lon="3.64686">
        <ele>273</ele>
        <time>2019-04-04T11:24:58Z</time>
      </trkpt>
      <trkpt lat="47.46138" lon="3.64693">
        <ele>272</ele>
        <time>2019-04-04T11:25:02Z</time>
      </trkpt>
      <trkpt lat="47.4614" lon="3.64696">
        <ele>272</ele>
        <time>2019-04-04T11:25:04Z</time>
      </trkpt>
      <trkpt lat="47.46141" lon="3.64699">
        <ele>272</ele>
        <time>2019-04-04T11:25:06Z</time>
      </trkpt>
      <trkpt lat="47.46143" lon="3.64702">
        <ele>272</ele>
        <time>2019-04-04T11:25:09Z</time>
      </trkpt>
      <trkpt lat="47.46147" lon="3.64708">
        <ele>272</ele>
        <time>2019-04-04T11:25:13Z</time>
      </trkpt>
      <trkpt lat="47.4615" lon="3.64713">
        <ele>271</ele>
        <time>2019-04-04T11:25:17Z</time>
      </trkpt>
      <trkpt lat="47.46152" lon="3.64715">
        <ele>271</ele>
        <time>2019-04-04T11:25:19Z</time>
      </trkpt>
      <trkpt lat="47.46155" lon="3.64721">
        <ele>270</ele>
        <time>2019-04-04T11:25:23Z</time>
      </trkpt>
      <trkpt lat="47.46158" lon="3.64724">
        <ele>270</ele>
        <time>2019-04-04T11:25:25Z</time>
      </trkpt>
      <trkpt lat="47.4616" lon="3.64727">
        <ele>270</ele>
        <time>2019-04-04T11:25:27Z</time>
      </trkpt>
      <trkpt lat="47.46162" lon="3.64729">
        <ele>270</ele>
        <time>2019-04-04T11:25:29Z</time>
      </trkpt>
      <trkpt lat="47.46165" lon="3.64732">
        <ele>270</ele>
        <time>2019-04-04T11:25:32Z</time>
      </trkpt>
      <trkpt lat="47.46167" lon="3.64734">
        <ele>269</ele>
        <time>2019-04-04T11:25:34Z</time>
      </trkpt>
      <trkpt lat="47.46171" lon="3.6474">
        <ele>268</ele>
        <time>2019-04-04T11:25:38Z</time>
      </trkpt>
      <trkpt lat="47.46173" lon="3.64743">
        <ele>269</ele>
        <time>2019-04-04T11:25:40Z</time>
      </trkpt>
      <trkpt lat="47.46175" lon="3.64745">
        <ele>268</ele>
        <time>2019-04-04T11:25:42Z</time>
      </trkpt>
      <trkpt lat="47.46176" lon="3.64748">
        <ele>268</ele>
        <time>2019-04-04T11:25:44Z</time>
      </trkpt>
      <trkpt lat="47.46178" lon="3.64751">
        <ele>268</ele>
        <time>2019-04-04T11:25:46Z</time>
      </trkpt>
      <trkpt lat="47.46181" lon="3.64755">
        <ele>268</ele>
        <time>2019-04-04T11:25:49Z</time>
      </trkpt>
      <trkpt lat="47.46183" lon="3.64759">
        <ele>267</ele>
        <time>2019-04-04T11:25:52Z</time>
      </trkpt>
      <trkpt lat="47.46185" lon="3.64762">
        <ele>266</ele>
        <time>2019-04-04T11:25:54Z</time>
      </trkpt>
      <trkpt lat="47.46188" lon="3.64768">
        <ele>265</ele>
        <time>2019-04-04T11:25:58Z</time>
      </trkpt>
      <trkpt lat="47.4619" lon="3.64775">
        <ele>266</ele>
        <time>2019-04-04T11:26:01Z</time>
      </trkpt>
      <trkpt lat="47.46193" lon="3.64781">
        <ele>265</ele>
        <time>2019-04-04T11:26:04Z</time>
      </trkpt>
      <trkpt lat="47.46194" lon="3.64785">
        <ele>265</ele>
        <time>2019-04-04T11:26:07Z</time>
      </trkpt>
      <trkpt lat="47.46196" lon="3.64788">
        <ele>265</ele>
        <time>2019-04-04T11:26:09Z</time>
      </trkpt>
      <trkpt lat="47.46198" lon="3.64794">
        <ele>264</ele>
        <time>2019-04-04T11:26:12Z</time>
      </trkpt>
      <trkpt lat="47.46199" lon="3.64798">
        <ele>263</ele>
        <time>2019-04-04T11:26:14Z</time>
      </trkpt>
      <trkpt lat="47.46202" lon="3.64805">
        <ele>264</ele>
        <time>2019-04-04T11:26:18Z</time>
      </trkpt>
      <trkpt lat="47.46203" lon="3.64812">
        <ele>264</ele>
        <time>2019-04-04T11:26:21Z</time>
      </trkpt>
      <trkpt lat="47.46204" lon="3.64815">
        <ele>264</ele>
        <time>2019-04-04T11:26:24Z</time>
      </trkpt>
      <trkpt lat="47.46205" lon="3.64819">
        <ele>265</ele>
        <time>2019-04-04T11:26:26Z</time>
      </trkpt>
      <trkpt lat="47.46206" lon="3.64823">
        <ele>265</ele>
        <time>2019-04-04T11:26:28Z</time>
      </trkpt>
      <trkpt lat="47.46208" lon="3.64827">
        <ele>265</ele>
        <time>2019-04-04T11:26:30Z</time>
      </trkpt>
      <trkpt lat="47.46209" lon="3.6483">
        <ele>265</ele>
        <time>2019-04-04T11:26:32Z</time>
      </trkpt>
      <trkpt lat="47.4621" lon="3.64838">
        <ele>265</ele>
        <time>2019-04-04T11:26:36Z</time>
      </trkpt>
      <trkpt lat="47.4621" lon="3.64842">
        <ele>266</ele>
        <time>2019-04-04T11:26:38Z</time>
      </trkpt>
      <trkpt lat="47.46211" lon="3.64846">
        <ele>266</ele>
        <time>2019-04-04T11:26:40Z</time>
      </trkpt>
      <trkpt lat="47.46212" lon="3.64853">
        <ele>266</ele>
        <time>2019-04-04T11:26:44Z</time>
      </trkpt>
      <trkpt lat="47.46213" lon="3.64857">
        <ele>266</ele>
        <time>2019-04-04T11:26:46Z</time>
      </trkpt>
      <trkpt lat="47.46216" lon="3.64865">
        <ele>266</ele>
        <time>2019-04-04T11:26:51Z</time>
      </trkpt>
      <trkpt lat="47.46218" lon="3.64877">
        <ele>268</ele>
        <time>2019-04-04T11:26:56Z</time>
      </trkpt>
      <trkpt lat="47.4622" lon="3.64883">
        <ele>269</ele>
        <time>2019-04-04T11:27:00Z</time>
      </trkpt>
      <trkpt lat="47.46223" lon="3.64889">
        <ele>268</ele>
        <time>2019-04-04T11:27:05Z</time>
      </trkpt>
      <trkpt lat="47.46224" lon="3.64896">
        <ele>267</ele>
        <time>2019-04-04T11:27:09Z</time>
      </trkpt>
      <trkpt lat="47.46225" lon="3.649">
        <ele>268</ele>
        <time>2019-04-04T11:27:12Z</time>
      </trkpt>
      <trkpt lat="47.46226" lon="3.64904">
        <ele>269</ele>
        <time>2019-04-04T11:27:14Z</time>
      </trkpt>
      <trkpt lat="47.46227" lon="3.64908">
        <ele>269</ele>
        <time>2019-04-04T11:27:16Z</time>
      </trkpt>
      <trkpt lat="47.46228" lon="3.64912">
        <ele>269</ele>
        <time>2019-04-04T11:27:19Z</time>
      </trkpt>
      <trkpt lat="47.46228" lon="3.64915">
        <ele>268</ele>
        <time>2019-04-04T11:27:21Z</time>
      </trkpt>
      <trkpt lat="47.46228" lon="3.64923">
        <ele>268</ele>
        <time>2019-04-04T11:27:25Z</time>
      </trkpt>
      <trkpt lat="47.4623" lon="3.64932">
        <ele>268</ele>
        <time>2019-04-04T11:27:29Z</time>
      </trkpt>
      <trkpt lat="47.46231" lon="3.64937">
        <ele>268</ele>
        <time>2019-04-04T11:27:32Z</time>
      </trkpt>
      <trkpt lat="47.46232" lon="3.6494">
        <ele>268</ele>
        <time>2019-04-04T11:27:34Z</time>
      </trkpt>
      <trkpt lat="47.46234" lon="3.64948">
        <ele>267</ele>
        <time>2019-04-04T11:27:38Z</time>
      </trkpt>
      <trkpt lat="47.46235" lon="3.64953">
        <ele>267</ele>
        <time>2019-04-04T11:27:39Z</time>
      </trkpt>
      <trkpt lat="47.46238" lon="3.6496">
        <ele>266</ele>
        <time>2019-04-04T11:27:43Z</time>
      </trkpt>
      <trkpt lat="47.4624" lon="3.64967">
        <ele>265</ele>
        <time>2019-04-04T11:27:47Z</time>
      </trkpt>
      <trkpt lat="47.46241" lon="3.6497">
        <ele>265</ele>
        <time>2019-04-04T11:27:49Z</time>
      </trkpt>
      <trkpt lat="47.46243" lon="3.64978">
        <ele>265</ele>
        <time>2019-04-04T11:27:53Z</time>
      </trkpt>
      <trkpt lat="47.46246" lon="3.64986">
        <ele>265</ele>
        <time>2019-04-04T11:27:57Z</time>
      </trkpt>
      <trkpt lat="47.46248" lon="3.64989">
        <ele>265</ele>
        <time>2019-04-04T11:27:59Z</time>
      </trkpt>
      <trkpt lat="47.4625" lon="3.64998">
        <ele>264</ele>
        <time>2019-04-04T11:28:04Z</time>
      </trkpt>
      <trkpt lat="47.46252" lon="3.65006">
        <ele>264</ele>
        <time>2019-04-04T11:28:10Z</time>
      </trkpt>
      <trkpt lat="47.46254" lon="3.65012">
        <ele>263</ele>
        <time>2019-04-04T11:28:12Z</time>
      </trkpt>
      <trkpt lat="47.46255" lon="3.65015">
        <ele>263</ele>
        <time>2019-04-04T11:28:15Z</time>
      </trkpt>
      <trkpt lat="47.46258" lon="3.65021">
        <ele>262</ele>
        <time>2019-04-04T11:28:19Z</time>
      </trkpt>
      <trkpt lat="47.46262" lon="3.65026">
        <ele>262</ele>
        <time>2019-04-04T11:28:22Z</time>
      </trkpt>
      <trkpt lat="47.46264" lon="3.65029">
        <ele>261</ele>
        <time>2019-04-04T11:28:24Z</time>
      </trkpt>
      <trkpt lat="47.46266" lon="3.65037">
        <ele>261</ele>
        <time>2019-04-04T11:28:28Z</time>
      </trkpt>
      <trkpt lat="47.46269" lon="3.65044">
        <ele>260</ele>
        <time>2019-04-04T11:28:32Z</time>
      </trkpt>
      <trkpt lat="47.4627" lon="3.65048">
        <ele>260</ele>
        <time>2019-04-04T11:28:34Z</time>
      </trkpt>
      <trkpt lat="47.46271" lon="3.65054">
        <ele>259</ele>
        <time>2019-04-04T11:28:37Z</time>
      </trkpt>
      <trkpt lat="47.46274" lon="3.6506">
        <ele>257</ele>
        <time>2019-04-04T11:28:40Z</time>
      </trkpt>
      <trkpt lat="47.46275" lon="3.65064">
        <ele>258</ele>
        <time>2019-04-04T11:28:43Z</time>
      </trkpt>
      <trkpt lat="47.46278" lon="3.6507">
        <ele>256</ele>
        <time>2019-04-04T11:28:47Z</time>
      </trkpt>
      <trkpt lat="47.46279" lon="3.65073">
        <ele>256</ele>
        <time>2019-04-04T11:28:49Z</time>
      </trkpt>
      <trkpt lat="47.46281" lon="3.65077">
        <ele>255</ele>
        <time>2019-04-04T11:28:51Z</time>
      </trkpt>
      <trkpt lat="47.46282" lon="3.65079">
        <ele>255</ele>
        <time>2019-04-04T11:28:54Z</time>
      </trkpt>
      <trkpt lat="47.46284" lon="3.65086">
        <ele>254</ele>
        <time>2019-04-04T11:28:57Z</time>
      </trkpt>
      <trkpt lat="47.46288" lon="3.65092">
        <ele>254</ele>
        <time>2019-04-04T11:29:01Z</time>
      </trkpt>
      <trkpt lat="47.4629" lon="3.651">
        <ele>253</ele>
        <time>2019-04-04T11:29:06Z</time>
      </trkpt>
      <trkpt lat="47.46291" lon="3.65105">
        <ele>254</ele>
        <time>2019-04-04T11:29:08Z</time>
      </trkpt>
      <trkpt lat="47.46294" lon="3.6511">
        <ele>252</ele>
        <time>2019-04-04T11:29:13Z</time>
      </trkpt>
      <trkpt lat="47.46296" lon="3.65115">
        <ele>252</ele>
        <time>2019-04-04T11:29:17Z</time>
      </trkpt>
      <trkpt lat="47.46297" lon="3.65117">
        <ele>251</ele>
        <time>2019-04-04T11:29:26Z</time>
      </trkpt>
      <trkpt lat="47.46292" lon="3.65134">
        <ele>251</ele>
        <time>2019-04-04T11:30:18Z</time>
      </trkpt>
      <trkpt lat="47.46288" lon="3.65139">
        <ele>252</ele>
        <time>2019-04-04T11:30:25Z</time>
      </trkpt>
      <trkpt lat="47.46283" lon="3.65143">
        <ele>251</ele>
        <time>2019-04-04T11:30:29Z</time>
      </trkpt>
      <trkpt lat="47.46279" lon="3.65145">
        <ele>249</ele>
        <time>2019-04-04T11:30:36Z</time>
      </trkpt>
      <trkpt lat="47.46274" lon="3.65147">
        <ele>248</ele>
        <time>2019-04-04T11:30:39Z</time>
      </trkpt>
      <trkpt lat="47.4627" lon="3.65152">
        <ele>249</ele>
        <time>2019-04-04T11:30:43Z</time>
      </trkpt>
      <trkpt lat="47.46268" lon="3.65155">
        <ele>250</ele>
        <time>2019-04-04T11:30:46Z</time>
      </trkpt>
      <trkpt lat="47.46263" lon="3.65161">
        <ele>249</ele>
        <time>2019-04-04T11:30:50Z</time>
      </trkpt>
      <trkpt lat="47.46259" lon="3.65164">
        <ele>248</ele>
        <time>2019-04-04T11:30:53Z</time>
      </trkpt>
      <trkpt lat="47.46255" lon="3.6517">
        <ele>247</ele>
        <time>2019-04-04T11:30:56Z</time>
      </trkpt>
      <trkpt lat="47.46254" lon="3.65177">
        <ele>246</ele>
        <time>2019-04-04T11:31:00Z</time>
      </trkpt>
      <trkpt lat="47.4625" lon="3.65184">
        <ele>246</ele>
        <time>2019-04-04T11:31:03Z</time>
      </trkpt>
      <trkpt lat="47.46248" lon="3.65188">
        <ele>246</ele>
        <time>2019-04-04T11:31:06Z</time>
      </trkpt>
      <trkpt lat="47.46247" lon="3.65195">
        <ele>244</ele>
        <time>2019-04-04T11:31:10Z</time>
      </trkpt>
      <trkpt lat="47.46247" lon="3.65201">
        <ele>243</ele>
        <time>2019-04-04T11:31:12Z</time>
      </trkpt>
      <trkpt lat="47.46246" lon="3.65207">
        <ele>241</ele>
        <time>2019-04-04T11:31:15Z</time>
      </trkpt>
      <trkpt lat="47.46246" lon="3.65213">
        <ele>243</ele>
        <time>2019-04-04T11:31:18Z</time>
      </trkpt>
      <trkpt lat="47.46245" lon="3.65221">
        <ele>243</ele>
        <time>2019-04-04T11:31:24Z</time>
      </trkpt>
      <trkpt lat="47.46243" lon="3.65227">
        <ele>242</ele>
        <time>2019-04-04T11:31:29Z</time>
      </trkpt>
      <trkpt lat="47.46241" lon="3.65231">
        <ele>244</ele>
        <time>2019-04-04T11:31:32Z</time>
      </trkpt>
      <trkpt lat="47.46241" lon="3.65239">
        <ele>243</ele>
        <time>2019-04-04T11:31:37Z</time>
      </trkpt>
      <trkpt lat="47.4624" lon="3.65246">
        <ele>242</ele>
        <time>2019-04-04T11:31:41Z</time>
      </trkpt>
      <trkpt lat="47.46239" lon="3.65253">
        <ele>242</ele>
        <time>2019-04-04T11:31:46Z</time>
      </trkpt>
      <trkpt lat="47.46237" lon="3.6526">
        <ele>243</ele>
        <time>2019-04-04T11:31:51Z</time>
      </trkpt>
      <trkpt lat="47.46236" lon="3.65263">
        <ele>243</ele>
        <time>2019-04-04T11:31:53Z</time>
      </trkpt>
      <trkpt lat="47.46237" lon="3.6527">
        <ele>244</ele>
        <time>2019-04-04T11:31:58Z</time>
      </trkpt>
      <trkpt lat="47.46237" lon="3.65271">
        <ele>244</ele>
        <time>2019-04-04T11:32:07Z</time>
      </trkpt>
      <trkpt lat="47.46238" lon="3.65278">
        <ele>243</ele>
        <time>2019-04-04T11:32:15Z</time>
      </trkpt>
      <trkpt lat="47.46241" lon="3.65283">
        <ele>244</ele>
        <time>2019-04-04T11:32:19Z</time>
      </trkpt>
      <trkpt lat="47.46243" lon="3.65288">
        <ele>242</ele>
        <time>2019-04-04T11:32:22Z</time>
      </trkpt>
      <trkpt lat="47.46247" lon="3.65293">
        <ele>245</ele>
        <time>2019-04-04T11:32:27Z</time>
      </trkpt>
      <trkpt lat="47.46249" lon="3.65299">
        <ele>245</ele>
        <time>2019-04-04T11:32:31Z</time>
      </trkpt>
      <trkpt lat="47.4625" lon="3.65301">
        <ele>244</ele>
        <time>2019-04-04T11:32:33Z</time>
      </trkpt>
      <trkpt lat="47.46254" lon="3.65306">
        <ele>245</ele>
        <time>2019-04-04T11:32:37Z</time>
      </trkpt>
      <trkpt lat="47.46258" lon="3.65311">
        <ele>245</ele>
        <time>2019-04-04T11:32:44Z</time>
      </trkpt>
      <trkpt lat="47.4626" lon="3.65318">
        <ele>246</ele>
        <time>2019-04-04T11:32:49Z</time>
      </trkpt>
      <trkpt lat="47.46265" lon="3.65324">
        <ele>246</ele>
        <time>2019-04-04T11:32:53Z</time>
      </trkpt>
      <trkpt lat="47.46268" lon="3.65328">
        <ele>246</ele>
        <time>2019-04-04T11:32:56Z</time>
      </trkpt>
      <trkpt lat="47.46274" lon="3.65335">
        <ele>246</ele>
        <time>2019-04-04T11:33:02Z</time>
      </trkpt>
      <trkpt lat="47.46277" lon="3.65338">
        <ele>246</ele>
        <time>2019-04-04T11:33:04Z</time>
      </trkpt>
      <trkpt lat="47.46283" lon="3.6534">
        <ele>247</ele>
        <time>2019-04-04T11:33:07Z</time>
      </trkpt>
      <trkpt lat="47.46288" lon="3.65344">
        <ele>245</ele>
        <time>2019-04-04T11:33:12Z</time>
      </trkpt>
      <trkpt lat="47.4629" lon="3.65345">
        <ele>244</ele>
        <time>2019-04-04T11:33:14Z</time>
      </trkpt>
      <trkpt lat="47.46294" lon="3.65348">
        <ele>244</ele>
        <time>2019-04-04T11:33:17Z</time>
      </trkpt>
      <trkpt lat="47.46299" lon="3.65352">
        <ele>246</ele>
        <time>2019-04-04T11:33:22Z</time>
      </trkpt>
      <trkpt lat="47.46304" lon="3.65357">
        <ele>244</ele>
        <time>2019-04-04T11:33:27Z</time>
      </trkpt>
      <trkpt lat="47.46308" lon="3.65362">
        <ele>244</ele>
        <time>2019-04-04T11:33:30Z</time>
      </trkpt>
      <trkpt lat="47.46313" lon="3.65365">
        <ele>245</ele>
        <time>2019-04-04T11:33:35Z</time>
      </trkpt>
      <trkpt lat="47.46319" lon="3.65365">
        <ele>245</ele>
        <time>2019-04-04T11:33:39Z</time>
      </trkpt>
      <trkpt lat="47.46326" lon="3.65368">
        <ele>244</ele>
        <time>2019-04-04T11:33:44Z</time>
      </trkpt>
      <trkpt lat="47.4633" lon="3.65372">
        <ele>244</ele>
        <time>2019-04-04T11:33:48Z</time>
      </trkpt>
      <trkpt lat="47.46334" lon="3.65374">
        <ele>244</ele>
        <time>2019-04-04T11:33:52Z</time>
      </trkpt>
      <trkpt lat="47.46338" lon="3.65376">
        <ele>243</ele>
        <time>2019-04-04T11:33:54Z</time>
      </trkpt>
      <trkpt lat="47.46342" lon="3.6538">
        <ele>243</ele>
        <time>2019-04-04T11:33:58Z</time>
      </trkpt>
      <trkpt lat="47.46347" lon="3.65385">
        <ele>243</ele>
        <time>2019-04-04T11:34:02Z</time>
      </trkpt>
      <trkpt lat="47.4635" lon="3.65389">
        <ele>243</ele>
        <time>2019-04-04T11:34:05Z</time>
      </trkpt>
      <trkpt lat="47.46353" lon="3.65393">
        <ele>242</ele>
        <time>2019-04-04T11:34:07Z</time>
      </trkpt>
      <trkpt lat="47.46355" lon="3.65395">
        <ele>242</ele>
        <time>2019-04-04T11:34:09Z</time>
      </trkpt>
      <trkpt lat="47.46358" lon="3.654">
        <ele>242</ele>
        <time>2019-04-04T11:34:13Z</time>
      </trkpt>
      <trkpt lat="47.46358" lon="3.65404">
        <ele>243</ele>
        <time>2019-04-04T11:34:20Z</time>
      </trkpt>
      <trkpt lat="47.46353" lon="3.65399">
        <ele>244</ele>
        <time>2019-04-04T11:34:38Z</time>
      </trkpt>
      <trkpt lat="47.46351" lon="3.65397">
        <ele>245</ele>
        <time>2019-04-04T11:34:40Z</time>
      </trkpt>
      <trkpt lat="47.46349" lon="3.65394">
        <ele>245</ele>
        <time>2019-04-04T11:34:43Z</time>
      </trkpt>
      <trkpt lat="47.46346" lon="3.65392">
        <ele>245</ele>
        <time>2019-04-04T11:34:45Z</time>
      </trkpt>
      <trkpt lat="47.46343" lon="3.65386">
        <ele>244</ele>
        <time>2019-04-04T11:34:50Z</time>
      </trkpt>
      <trkpt lat="47.46338" lon="3.65381">
        <ele>247</ele>
        <time>2019-04-04T11:34:57Z</time>
      </trkpt>
      <trkpt lat="47.46333" lon="3.65379">
        <ele>246</ele>
        <time>2019-04-04T11:35:01Z</time>
      </trkpt>
      <trkpt lat="47.46329" lon="3.65376">
        <ele>248</ele>
        <time>2019-04-04T11:35:06Z</time>
      </trkpt>
      <trkpt lat="47.46326" lon="3.65371">
        <ele>248</ele>
        <time>2019-04-04T11:35:11Z</time>
      </trkpt>
      <trkpt lat="47.4632" lon="3.6537">
        <ele>250</ele>
        <time>2019-04-04T11:35:18Z</time>
      </trkpt>
      <trkpt lat="47.46311" lon="3.65368">
        <ele>251</ele>
        <time>2019-04-04T11:35:26Z</time>
      </trkpt>
      <trkpt lat="47.46306" lon="3.65368">
        <ele>252</ele>
        <time>2019-04-04T11:35:28Z</time>
      </trkpt>
      <trkpt lat="47.46302" lon="3.65367">
        <ele>252</ele>
        <time>2019-04-04T11:35:31Z</time>
      </trkpt>
      <trkpt lat="47.46299" lon="3.65366">
        <ele>253</ele>
        <time>2019-04-04T11:35:34Z</time>
      </trkpt>
      <trkpt lat="47.46294" lon="3.65367">
        <ele>255</ele>
        <time>2019-04-04T11:35:38Z</time>
      </trkpt>
      <trkpt lat="47.46289" lon="3.65369">
        <ele>257</ele>
        <time>2019-04-04T11:35:42Z</time>
      </trkpt>
      <trkpt lat="47.46286" lon="3.6537">
        <ele>258</ele>
        <time>2019-04-04T11:35:45Z</time>
      </trkpt>
      <trkpt lat="47.46283" lon="3.6537">
        <ele>260</ele>
        <time>2019-04-04T11:35:48Z</time>
      </trkpt>
      <trkpt lat="47.46277" lon="3.65372">
        <ele>262</ele>
        <time>2019-04-04T11:35:53Z</time>
      </trkpt>
      <trkpt lat="47.46274" lon="3.65374">
        <ele>263</ele>
        <time>2019-04-04T11:35:56Z</time>
      </trkpt>
      <trkpt lat="47.4627" lon="3.65375">
        <ele>264</ele>
        <time>2019-04-04T11:36:00Z</time>
      </trkpt>
      <trkpt lat="47.46264" lon="3.65383">
        <ele>264</ele>
        <time>2019-04-04T11:36:09Z</time>
      </trkpt>
      <trkpt lat="47.46261" lon="3.65389">
        <ele>263</ele>
        <time>2019-04-04T11:36:12Z</time>
      </trkpt>
      <trkpt lat="47.46259" lon="3.65392">
        <ele>262</ele>
        <time>2019-04-04T11:36:14Z</time>
      </trkpt>
      <trkpt lat="47.46255" lon="3.65399">
        <ele>262</ele>
        <time>2019-04-04T11:36:19Z</time>
      </trkpt>
      <trkpt lat="47.46254" lon="3.65403">
        <ele>264</ele>
        <time>2019-04-04T11:36:23Z</time>
      </trkpt>
      <trkpt lat="47.46252" lon="3.65411">
        <ele>264</ele>
        <time>2019-04-04T11:36:29Z</time>
      </trkpt>
      <trkpt lat="47.46251" lon="3.65415">
        <ele>265</ele>
        <time>2019-04-04T11:36:32Z</time>
      </trkpt>
      <trkpt lat="47.46248" lon="3.65421">
        <ele>266</ele>
        <time>2019-04-04T11:36:37Z</time>
      </trkpt>
      <trkpt lat="47.46241" lon="3.65426">
        <ele>269</ele>
        <time>2019-04-04T11:36:44Z</time>
      </trkpt>
      <trkpt lat="47.46236" lon="3.65426">
        <ele>268</ele>
        <time>2019-04-04T11:36:48Z</time>
      </trkpt>
      <trkpt lat="47.46234" lon="3.65426">
        <ele>269</ele>
        <time>2019-04-04T11:36:51Z</time>
      </trkpt>
      <trkpt lat="47.46231" lon="3.65427">
        <ele>269</ele>
        <time>2019-04-04T11:36:53Z</time>
      </trkpt>
      <trkpt lat="47.46229" lon="3.65427">
        <ele>269</ele>
        <time>2019-04-04T11:36:55Z</time>
      </trkpt>
      <trkpt lat="47.46224" lon="3.65428">
        <ele>270</ele>
        <time>2019-04-04T11:36:58Z</time>
      </trkpt>
      <trkpt lat="47.46219" lon="3.65431">
        <ele>271</ele>
        <time>2019-04-04T11:37:02Z</time>
      </trkpt>
      <trkpt lat="47.46215" lon="3.65433">
        <ele>273</ele>
        <time>2019-04-04T11:37:06Z</time>
      </trkpt>
      <trkpt lat="47.4621" lon="3.65436">
        <ele>275</ele>
        <time>2019-04-04T11:37:11Z</time>
      </trkpt>
      <trkpt lat="47.46206" lon="3.65438">
        <ele>275</ele>
        <time>2019-04-04T11:37:15Z</time>
      </trkpt>
      <trkpt lat="47.46201" lon="3.65441">
        <ele>276</ele>
        <time>2019-04-04T11:37:19Z</time>
      </trkpt>
      <trkpt lat="47.46198" lon="3.65446">
        <ele>276</ele>
        <time>2019-04-04T11:37:23Z</time>
      </trkpt>
      <trkpt lat="47.46194" lon="3.65449">
        <ele>276</ele>
        <time>2019-04-04T11:37:27Z</time>
      </trkpt>
      <trkpt lat="47.46187" lon="3.65452">
        <ele>277</ele>
        <time>2019-04-04T11:37:33Z</time>
      </trkpt>
      <trkpt lat="47.46183" lon="3.65456">
        <ele>277</ele>
        <time>2019-04-04T11:37:36Z</time>
      </trkpt>
      <trkpt lat="47.46179" lon="3.65461">
        <ele>277</ele>
        <time>2019-04-04T11:37:41Z</time>
      </trkpt>
      <trkpt lat="47.46176" lon="3.65466">
        <ele>277</ele>
        <time>2019-04-04T11:37:45Z</time>
      </trkpt>
      <trkpt lat="47.46173" lon="3.6547">
        <ele>278</ele>
        <time>2019-04-04T11:37:48Z</time>
      </trkpt>
      <trkpt lat="47.46169" lon="3.65473">
        <ele>277</ele>
        <time>2019-04-04T11:37:51Z</time>
      </trkpt>
      <trkpt lat="47.46166" lon="3.65476">
        <ele>277</ele>
        <time>2019-04-04T11:37:54Z</time>
      </trkpt>
      <trkpt lat="47.46163" lon="3.65478">
        <ele>277</ele>
        <time>2019-04-04T11:37:56Z</time>
      </trkpt>
      <trkpt lat="47.46161" lon="3.65479">
        <ele>276</ele>
        <time>2019-04-04T11:37:59Z</time>
      </trkpt>
      <trkpt lat="47.4616" lon="3.65481">
        <ele>276</ele>
        <time>2019-04-04T11:38:08Z</time>
      </trkpt>
      <trkpt lat="47.4615" lon="3.65492">
        <ele>279</ele>
        <time>2019-04-04T11:40:24Z</time>
      </trkpt>
      <trkpt lat="47.46146" lon="3.65498">
        <ele>281</ele>
        <time>2019-04-04T11:40:27Z</time>
      </trkpt>
      <trkpt lat="47.46141" lon="3.65502">
        <ele>281</ele>
        <time>2019-04-04T11:40:34Z</time>
      </trkpt>
      <trkpt lat="47.46135" lon="3.65504">
        <ele>279</ele>
        <time>2019-04-04T11:40:47Z</time>
      </trkpt>
      <trkpt lat="47.46131" lon="3.65506">
        <ele>280</ele>
        <time>2019-04-04T11:40:58Z</time>
      </trkpt>
      <trkpt lat="47.46127" lon="3.6551">
        <ele>281</ele>
        <time>2019-04-04T11:41:01Z</time>
      </trkpt>
      <trkpt lat="47.46125" lon="3.65513">
        <ele>280</ele>
        <time>2019-04-04T11:41:03Z</time>
      </trkpt>
      <trkpt lat="47.46121" lon="3.65518">
        <ele>282</ele>
        <time>2019-04-04T11:41:08Z</time>
      </trkpt>
      <trkpt lat="47.46118" lon="3.65526">
        <ele>281</ele>
        <time>2019-04-04T11:41:20Z</time>
      </trkpt>
      <trkpt lat="47.46115" lon="3.65531">
        <ele>279</ele>
        <time>2019-04-04T11:41:26Z</time>
      </trkpt>
      <trkpt lat="47.46115" lon="3.65539">
        <ele>279</ele>
        <time>2019-04-04T11:41:43Z</time>
      </trkpt>
      <trkpt lat="47.46108" lon="3.65541">
        <ele>280</ele>
        <time>2019-04-04T11:42:01Z</time>
      </trkpt>
      <trkpt lat="47.46103" lon="3.65544">
        <ele>282</ele>
        <time>2019-04-04T11:42:05Z</time>
      </trkpt>
      <trkpt lat="47.46097" lon="3.65549">
        <ele>285</ele>
        <time>2019-04-04T11:42:13Z</time>
      </trkpt>
      <trkpt lat="47.46091" lon="3.65553">
        <ele>288</ele>
        <time>2019-04-04T11:42:20Z</time>
      </trkpt>
      <trkpt lat="47.46085" lon="3.65555">
        <ele>289</ele>
        <time>2019-04-04T11:42:24Z</time>
      </trkpt>
      <trkpt lat="47.46078" lon="3.65558">
        <ele>290</ele>
        <time>2019-04-04T11:42:30Z</time>
      </trkpt>
      <trkpt lat="47.46073" lon="3.65564">
        <ele>291</ele>
        <time>2019-04-04T11:42:35Z</time>
      </trkpt>
      <trkpt lat="47.4607" lon="3.65568">
        <ele>291</ele>
        <time>2019-04-04T11:42:38Z</time>
      </trkpt>
      <trkpt lat="47.46067" lon="3.65572">
        <ele>293</ele>
        <time>2019-04-04T11:42:45Z</time>
      </trkpt>
      <trkpt lat="47.46062" lon="3.65574">
        <ele>294</ele>
        <time>2019-04-04T11:42:49Z</time>
      </trkpt>
      <trkpt lat="47.46059" lon="3.65579">
        <ele>293</ele>
        <time>2019-04-04T11:42:54Z</time>
      </trkpt>
      <trkpt lat="47.46053" lon="3.65581">
        <ele>291</ele>
        <time>2019-04-04T11:42:57Z</time>
      </trkpt>
      <trkpt lat="47.46049" lon="3.65578">
        <ele>292</ele>
        <time>2019-04-04T11:43:02Z</time>
      </trkpt>
      <trkpt lat="47.46044" lon="3.65578">
        <ele>294</ele>
        <time>2019-04-04T11:43:07Z</time>
      </trkpt>
      <trkpt lat="47.46037" lon="3.6558">
        <ele>294</ele>
        <time>2019-04-04T11:43:15Z</time>
      </trkpt>
      <trkpt lat="47.46034" lon="3.6558">
        <ele>294</ele>
        <time>2019-04-04T11:43:17Z</time>
      </trkpt>
      <trkpt lat="47.46032" lon="3.65581">
        <ele>295</ele>
        <time>2019-04-04T11:43:19Z</time>
      </trkpt>
      <trkpt lat="47.46025" lon="3.65583">
        <ele>296</ele>
        <time>2019-04-04T11:43:27Z</time>
      </trkpt>
      <trkpt lat="47.46021" lon="3.65583">
        <ele>297</ele>
        <time>2019-04-04T11:43:32Z</time>
      </trkpt>
      <trkpt lat="47.46016" lon="3.65581">
        <ele>296</ele>
        <time>2019-04-04T11:43:35Z</time>
      </trkpt>
      <trkpt lat="47.4601" lon="3.65578">
        <ele>297</ele>
        <time>2019-04-04T11:43:41Z</time>
      </trkpt>
      <trkpt lat="47.46005" lon="3.6558">
        <ele>297</ele>
        <time>2019-04-04T11:43:45Z</time>
      </trkpt>
      <trkpt lat="47.45998" lon="3.65579">
        <ele>295</ele>
        <time>2019-04-04T11:43:50Z</time>
      </trkpt>
      <trkpt lat="47.45993" lon="3.65581">
        <ele>294</ele>
        <time>2019-04-04T11:43:55Z</time>
      </trkpt>
      <trkpt lat="47.45989" lon="3.65579">
        <ele>294</ele>
        <time>2019-04-04T11:44:00Z</time>
      </trkpt>
      <trkpt lat="47.45985" lon="3.65577">
        <ele>295</ele>
        <time>2019-04-04T11:44:03Z</time>
      </trkpt>
      <trkpt lat="47.45977" lon="3.6558">
        <ele>298</ele>
        <time>2019-04-04T11:44:09Z</time>
      </trkpt>
      <trkpt lat="47.45973" lon="3.65578">
        <ele>297</ele>
        <time>2019-04-04T11:44:14Z</time>
      </trkpt>
      <trkpt lat="47.45966" lon="3.6558">
        <ele>300</ele>
        <time>2019-04-04T11:44:19Z</time>
      </trkpt>
      <trkpt lat="47.45963" lon="3.65582">
        <ele>300</ele>
        <time>2019-04-04T11:44:21Z</time>
      </trkpt>
      <trkpt lat="47.45957" lon="3.65583">
        <ele>300</ele>
        <time>2019-04-04T11:44:24Z</time>
      </trkpt>
      <trkpt lat="47.45953" lon="3.65583">
        <ele>299</ele>
        <time>2019-04-04T11:44:27Z</time>
      </trkpt>
      <trkpt lat="47.45948" lon="3.65586">
        <ele>300</ele>
        <time>2019-04-04T11:44:30Z</time>
      </trkpt>
      <trkpt lat="47.45945" lon="3.65587">
        <ele>299</ele>
        <time>2019-04-04T11:44:32Z</time>
      </trkpt>
      <trkpt lat="47.45941" lon="3.65588">
        <ele>300</ele>
        <time>2019-04-04T11:44:34Z</time>
      </trkpt>
      <trkpt lat="47.45934" lon="3.65591">
        <ele>299</ele>
        <time>2019-04-04T11:44:38Z</time>
      </trkpt>
      <trkpt lat="47.45931" lon="3.65593">
        <ele>299</ele>
        <time>2019-04-04T11:44:40Z</time>
      </trkpt>
      <trkpt lat="47.45925" lon="3.65595">
        <ele>300</ele>
        <time>2019-04-04T11:44:44Z</time>
      </trkpt>
      <trkpt lat="47.45921" lon="3.65599">
        <ele>299</ele>
        <time>2019-04-04T11:44:49Z</time>
      </trkpt>
      <trkpt lat="47.45919" lon="3.65601">
        <ele>300</ele>
        <time>2019-04-04T11:44:52Z</time>
      </trkpt>
      <trkpt lat="47.45914" lon="3.65607">
        <ele>299</ele>
        <time>2019-04-04T11:44:56Z</time>
      </trkpt>
      <trkpt lat="47.45912" lon="3.65609">
        <ele>299</ele>
        <time>2019-04-04T11:44:58Z</time>
      </trkpt>
      <trkpt lat="47.45909" lon="3.65612">
        <ele>299</ele>
        <time>2019-04-04T11:45:00Z</time>
      </trkpt>
      <trkpt lat="47.45905" lon="3.65615">
        <ele>302</ele>
        <time>2019-04-04T11:45:04Z</time>
      </trkpt>
      <trkpt lat="47.459" lon="3.6562">
        <ele>302</ele>
        <time>2019-04-04T11:45:10Z</time>
      </trkpt>
      <trkpt lat="47.45896" lon="3.65627">
        <ele>305</ele>
        <time>2019-04-04T11:45:15Z</time>
      </trkpt>
      <trkpt lat="47.45892" lon="3.65635">
        <ele>305</ele>
        <time>2019-04-04T11:45:18Z</time>
      </trkpt>
      <trkpt lat="47.45891" lon="3.65639">
        <ele>305</ele>
        <time>2019-04-04T11:45:20Z</time>
      </trkpt>
      <trkpt lat="47.45888" lon="3.65644">
        <ele>304</ele>
        <time>2019-04-04T11:45:24Z</time>
      </trkpt>
      <trkpt lat="47.45887" lon="3.65648">
        <ele>304</ele>
        <time>2019-04-04T11:45:26Z</time>
      </trkpt>
      <trkpt lat="47.45885" lon="3.65655">
        <ele>304</ele>
        <time>2019-04-04T11:45:28Z</time>
      </trkpt>
      <trkpt lat="47.45885" lon="3.65658">
        <ele>304</ele>
        <time>2019-04-04T11:45:29Z</time>
      </trkpt>
      <trkpt lat="47.45882" lon="3.65666">
        <ele>303</ele>
        <time>2019-04-04T11:45:32Z</time>
      </trkpt>
      <trkpt lat="47.45881" lon="3.6567">
        <ele>303</ele>
        <time>2019-04-04T11:45:34Z</time>
      </trkpt>
      <trkpt lat="47.4588" lon="3.6568">
        <ele>303</ele>
        <time>2019-04-04T11:45:41Z</time>
      </trkpt>
      <trkpt lat="47.45877" lon="3.65686">
        <ele>303</ele>
        <time>2019-04-04T11:45:45Z</time>
      </trkpt>
      <trkpt lat="47.45875" lon="3.65691">
        <ele>303</ele>
        <time>2019-04-04T11:45:48Z</time>
      </trkpt>
      <trkpt lat="47.45873" lon="3.65695">
        <ele>304</ele>
        <time>2019-04-04T11:45:50Z</time>
      </trkpt>
      <trkpt lat="47.45871" lon="3.65699">
        <ele>303</ele>
        <time>2019-04-04T11:45:52Z</time>
      </trkpt>
      <trkpt lat="47.4587" lon="3.65706">
        <ele>305</ele>
        <time>2019-04-04T11:45:55Z</time>
      </trkpt>
      <trkpt lat="47.45869" lon="3.65713">
        <ele>305</ele>
        <time>2019-04-04T11:45:59Z</time>
      </trkpt>
      <trkpt lat="47.4587" lon="3.65722">
        <ele>304</ele>
        <time>2019-04-04T11:46:04Z</time>
      </trkpt>
      <trkpt lat="47.45871" lon="3.65734">
        <ele>303</ele>
        <time>2019-04-04T11:46:08Z</time>
      </trkpt>
      <trkpt lat="47.45869" lon="3.65742">
        <ele>301</ele>
        <time>2019-04-04T11:46:14Z</time>
      </trkpt>
      <trkpt lat="47.45866" lon="3.65749">
        <ele>303</ele>
        <time>2019-04-04T11:46:19Z</time>
      </trkpt>
      <trkpt lat="47.45864" lon="3.65755">
        <ele>302</ele>
        <time>2019-04-04T11:46:26Z</time>
      </trkpt>
      <trkpt lat="47.45863" lon="3.65758">
        <ele>302</ele>
        <time>2019-04-04T11:46:28Z</time>
      </trkpt>
      <trkpt lat="47.45861" lon="3.65765">
        <ele>302</ele>
        <time>2019-04-04T11:46:32Z</time>
      </trkpt>
      <trkpt lat="47.4586" lon="3.65768">
        <ele>302</ele>
        <time>2019-04-04T11:46:35Z</time>
      </trkpt>
      <trkpt lat="47.45857" lon="3.65773">
        <ele>303</ele>
        <time>2019-04-04T11:46:39Z</time>
      </trkpt>
      <trkpt lat="47.45854" lon="3.65777">
        <ele>302</ele>
        <time>2019-04-04T11:46:42Z</time>
      </trkpt>
      <trkpt lat="47.45852" lon="3.65783">
        <ele>304</ele>
        <time>2019-04-04T11:46:47Z</time>
      </trkpt>
      <trkpt lat="47.45848" lon="3.65789">
        <ele>308</ele>
        <time>2019-04-04T11:46:54Z</time>
      </trkpt>
      <trkpt lat="47.45843" lon="3.65794">
        <ele>309</ele>
        <time>2019-04-04T11:47:00Z</time>
      </trkpt>
      <trkpt lat="47.4584" lon="3.65797">
        <ele>309</ele>
        <time>2019-04-04T11:47:04Z</time>
      </trkpt>
      <trkpt lat="47.45836" lon="3.658">
        <ele>308</ele>
        <time>2019-04-04T11:47:07Z</time>
      </trkpt>
      <trkpt lat="47.4583" lon="3.65804">
        <ele>309</ele>
        <time>2019-04-04T11:47:12Z</time>
      </trkpt>
      <trkpt lat="47.45826" lon="3.6581">
        <ele>309</ele>
        <time>2019-04-04T11:47:17Z</time>
      </trkpt>
      <trkpt lat="47.45823" lon="3.65814">
        <ele>308</ele>
        <time>2019-04-04T11:47:20Z</time>
      </trkpt>
      <trkpt lat="47.45819" lon="3.65821">
        <ele>307</ele>
        <time>2019-04-04T11:47:24Z</time>
      </trkpt>
      <trkpt lat="47.45816" lon="3.65825">
        <ele>305</ele>
        <time>2019-04-04T11:47:29Z</time>
      </trkpt>
      <trkpt lat="47.45812" lon="3.65829">
        <ele>305</ele>
        <time>2019-04-04T11:47:31Z</time>
      </trkpt>
      <trkpt lat="47.45807" lon="3.65835">
        <ele>305</ele>
        <time>2019-04-04T11:47:35Z</time>
      </trkpt>
      <trkpt lat="47.45803" lon="3.6584">
        <ele>305</ele>
        <time>2019-04-04T11:47:38Z</time>
      </trkpt>
      <trkpt lat="47.45799" lon="3.65845">
        <ele>307</ele>
        <time>2019-04-04T11:47:42Z</time>
      </trkpt>
      <trkpt lat="47.45798" lon="3.65852">
        <ele>306</ele>
        <time>2019-04-04T11:47:47Z</time>
      </trkpt>
      <trkpt lat="47.45796" lon="3.65856">
        <ele>307</ele>
        <time>2019-04-04T11:47:51Z</time>
      </trkpt>
      <trkpt lat="47.45791" lon="3.65868">
        <ele>308</ele>
        <time>2019-04-04T11:47:58Z</time>
      </trkpt>
      <trkpt lat="47.45787" lon="3.65873">
        <ele>309</ele>
        <time>2019-04-04T11:48:01Z</time>
      </trkpt>
      <trkpt lat="47.45785" lon="3.65876">
        <ele>308</ele>
        <time>2019-04-04T11:48:04Z</time>
      </trkpt>
      <trkpt lat="47.45779" lon="3.6588">
        <ele>309</ele>
        <time>2019-04-04T11:48:10Z</time>
      </trkpt>
      <trkpt lat="47.45774" lon="3.65887">
        <ele>310</ele>
        <time>2019-04-04T11:48:14Z</time>
      </trkpt>
      <trkpt lat="47.45768" lon="3.65893">
        <ele>310</ele>
        <time>2019-04-04T11:48:20Z</time>
      </trkpt>
      <trkpt lat="47.45766" lon="3.65899">
        <ele>310</ele>
        <time>2019-04-04T11:48:23Z</time>
      </trkpt>
      <trkpt lat="47.45764" lon="3.65902">
        <ele>309</ele>
        <time>2019-04-04T11:48:25Z</time>
      </trkpt>
      <trkpt lat="47.45762" lon="3.65907">
        <ele>309</ele>
        <time>2019-04-04T11:48:27Z</time>
      </trkpt>
      <trkpt lat="47.45758" lon="3.65911">
        <ele>306</ele>
        <time>2019-04-04T11:48:30Z</time>
      </trkpt>
      <trkpt lat="47.45755" lon="3.65916">
        <ele>306</ele>
        <time>2019-04-04T11:48:33Z</time>
      </trkpt>
      <trkpt lat="47.45753" lon="3.6592">
        <ele>305</ele>
        <time>2019-04-04T11:48:35Z</time>
      </trkpt>
      <trkpt lat="47.45749" lon="3.65925">
        <ele>302</ele>
        <time>2019-04-04T11:48:42Z</time>
      </trkpt>
      <trkpt lat="47.45745" lon="3.65931">
        <ele>302</ele>
        <time>2019-04-04T11:48:47Z</time>
      </trkpt>
      <trkpt lat="47.45741" lon="3.65932">
        <ele>300</ele>
        <time>2019-04-04T11:48:52Z</time>
      </trkpt>
      <trkpt lat="47.45735" lon="3.65935">
        <ele>302</ele>
        <time>2019-04-04T11:49:02Z</time>
      </trkpt>
      <trkpt lat="47.45731" lon="3.65938">
        <ele>302</ele>
        <time>2019-04-04T11:49:06Z</time>
      </trkpt>
      <trkpt lat="47.45726" lon="3.6594">
        <ele>301</ele>
        <time>2019-04-04T11:49:11Z</time>
      </trkpt>
      <trkpt lat="47.45721" lon="3.65946">
        <ele>300</ele>
        <time>2019-04-04T11:49:15Z</time>
      </trkpt>
      <trkpt lat="47.45717" lon="3.65951">
        <ele>299</ele>
        <time>2019-04-04T11:49:18Z</time>
      </trkpt>
      <trkpt lat="47.45712" lon="3.65959">
        <ele>296</ele>
        <time>2019-04-04T11:49:23Z</time>
      </trkpt>
      <trkpt lat="47.4571" lon="3.65964">
        <ele>296</ele>
        <time>2019-04-04T11:49:26Z</time>
      </trkpt>
      <trkpt lat="47.45707" lon="3.65971">
        <ele>294</ele>
        <time>2019-04-04T11:49:30Z</time>
      </trkpt>
      <trkpt lat="47.45704" lon="3.65978">
        <ele>292</ele>
        <time>2019-04-04T11:49:35Z</time>
      </trkpt>
      <trkpt lat="47.45703" lon="3.65981">
        <ele>292</ele>
        <time>2019-04-04T11:49:39Z</time>
      </trkpt>
      <trkpt lat="47.457" lon="3.6599">
        <ele>290</ele>
        <time>2019-04-04T11:49:45Z</time>
      </trkpt>
      <trkpt lat="47.45699" lon="3.65993">
        <ele>290</ele>
        <time>2019-04-04T11:49:48Z</time>
      </trkpt>
      <trkpt lat="47.45698" lon="3.66">
        <ele>288</ele>
        <time>2019-04-04T11:49:51Z</time>
      </trkpt>
      <trkpt lat="47.45697" lon="3.66003">
        <ele>288</ele>
        <time>2019-04-04T11:49:53Z</time>
      </trkpt>
      <trkpt lat="47.45696" lon="3.66011">
        <ele>286</ele>
        <time>2019-04-04T11:49:58Z</time>
      </trkpt>
      <trkpt lat="47.45695" lon="3.66015">
        <ele>285</ele>
        <time>2019-04-04T11:50:00Z</time>
      </trkpt>
      <trkpt lat="47.45695" lon="3.66027">
        <ele>284</ele>
        <time>2019-04-04T11:50:06Z</time>
      </trkpt>
      <trkpt lat="47.45695" lon="3.66031">
        <ele>283</ele>
        <time>2019-04-04T11:50:08Z</time>
      </trkpt>
      <trkpt lat="47.45698" lon="3.66039">
        <ele>284</ele>
        <time>2019-04-04T11:50:13Z</time>
      </trkpt>
      <trkpt lat="47.45699" lon="3.66044">
        <ele>284</ele>
        <time>2019-04-04T11:50:16Z</time>
      </trkpt>
      <trkpt lat="47.45701" lon="3.66049">
        <ele>282</ele>
        <time>2019-04-04T11:50:19Z</time>
      </trkpt>
      <trkpt lat="47.45703" lon="3.66056">
        <ele>280</ele>
        <time>2019-04-04T11:50:26Z</time>
      </trkpt>
      <trkpt lat="47.45705" lon="3.66062">
        <ele>279</ele>
        <time>2019-04-04T11:50:31Z</time>
      </trkpt>
      <trkpt lat="47.45707" lon="3.66065">
        <ele>278</ele>
        <time>2019-04-04T11:50:33Z</time>
      </trkpt>
      <trkpt lat="47.45707" lon="3.66072">
        <ele>277</ele>
        <time>2019-04-04T11:50:37Z</time>
      </trkpt>
      <trkpt lat="47.45708" lon="3.6608">
        <ele>276</ele>
        <time>2019-04-04T11:50:43Z</time>
      </trkpt>
      <trkpt lat="47.45708" lon="3.66085">
        <ele>276</ele>
        <time>2019-04-04T11:50:46Z</time>
      </trkpt>
      <trkpt lat="47.45709" lon="3.66091">
        <ele>276</ele>
        <time>2019-04-04T11:50:49Z</time>
      </trkpt>
      <trkpt lat="47.4571" lon="3.66096">
        <ele>274</ele>
        <time>2019-04-04T11:50:51Z</time>
      </trkpt>
      <trkpt lat="47.4571" lon="3.661">
        <ele>274</ele>
        <time>2019-04-04T11:50:53Z</time>
      </trkpt>
      <trkpt lat="47.45711" lon="3.66106">
        <ele>273</ele>
        <time>2019-04-04T11:50:58Z</time>
      </trkpt>
      <trkpt lat="47.45713" lon="3.66113">
        <ele>271</ele>
        <time>2019-04-04T11:51:04Z</time>
      </trkpt>
      <trkpt lat="47.45714" lon="3.6612">
        <ele>270</ele>
        <time>2019-04-04T11:51:10Z</time>
      </trkpt>
      <trkpt lat="47.45715" lon="3.66124">
        <ele>269</ele>
        <time>2019-04-04T11:51:12Z</time>
      </trkpt>
      <trkpt lat="47.45715" lon="3.66132">
        <ele>267</ele>
        <time>2019-04-04T11:51:16Z</time>
      </trkpt>
      <trkpt lat="47.45717" lon="3.66139">
        <ele>267</ele>
        <time>2019-04-04T11:51:19Z</time>
      </trkpt>
      <trkpt lat="47.45717" lon="3.66146">
        <ele>267</ele>
        <time>2019-04-04T11:51:21Z</time>
      </trkpt>
      <trkpt lat="47.45718" lon="3.66152">
        <ele>267</ele>
        <time>2019-04-04T11:51:25Z</time>
      </trkpt>
      <trkpt lat="47.45719" lon="3.66158">
        <ele>267</ele>
        <time>2019-04-04T11:51:28Z</time>
      </trkpt>
      <trkpt lat="47.45719" lon="3.66158">
        <ele>267</ele>
        <time>2019-04-04T11:51:36Z</time>
      </trkpt>
      <trkpt lat="47.45719" lon="3.66158">
        <ele>267</ele>
        <time>2019-04-04T11:51:38Z</time>
      </trkpt>
      <trkpt lat="47.45733" lon="3.66173">
        <ele>260</ele>
        <time>2019-04-04T11:56:59Z</time>
      </trkpt>
      <trkpt lat="47.45735" lon="3.6618">
        <ele>260</ele>
        <time>2019-04-04T11:57:13Z</time>
      </trkpt>
      <trkpt lat="47.45737" lon="3.66186">
        <ele>259</ele>
        <time>2019-04-04T11:57:16Z</time>
      </trkpt>
      <trkpt lat="47.45739" lon="3.66191">
        <ele>260</ele>
        <time>2019-04-04T11:57:21Z</time>
      </trkpt>
      <trkpt lat="47.45742" lon="3.66199">
        <ele>262</ele>
        <time>2019-04-04T11:57:28Z</time>
      </trkpt>
      <trkpt lat="47.45744" lon="3.66203">
        <ele>263</ele>
        <time>2019-04-04T11:57:31Z</time>
      </trkpt>
      <trkpt lat="47.45744" lon="3.6621">
        <ele>263</ele>
        <time>2019-04-04T11:57:35Z</time>
      </trkpt>
      <trkpt lat="47.45745" lon="3.66212">
        <ele>263</ele>
        <time>2019-04-04T11:57:45Z</time>
      </trkpt>
      <trkpt lat="47.45745" lon="3.66216">
        <ele>264</ele>
        <time>2019-04-04T11:57:48Z</time>
      </trkpt>
      <trkpt lat="47.45746" lon="3.6622">
        <ele>265</ele>
        <time>2019-04-04T11:57:51Z</time>
      </trkpt>
      <trkpt lat="47.45744" lon="3.66229">
        <ele>266</ele>
        <time>2019-04-04T11:57:57Z</time>
      </trkpt>
      <trkpt lat="47.45744" lon="3.66233">
        <ele>267</ele>
        <time>2019-04-04T11:58:00Z</time>
      </trkpt>
      <trkpt lat="47.45743" lon="3.66242">
        <ele>267</ele>
        <time>2019-04-04T11:58:05Z</time>
      </trkpt>
      <trkpt lat="47.45738" lon="3.66246">
        <ele>266</ele>
        <time>2019-04-04T11:58:09Z</time>
      </trkpt>
      <trkpt lat="47.45735" lon="3.66253">
        <ele>265</ele>
        <time>2019-04-04T11:58:13Z</time>
      </trkpt>
      <trkpt lat="47.45734" lon="3.66262">
        <ele>263</ele>
        <time>2019-04-04T11:58:19Z</time>
      </trkpt>
      <trkpt lat="47.45733" lon="3.66271">
        <ele>262</ele>
        <time>2019-04-04T11:58:25Z</time>
      </trkpt>
      <trkpt lat="47.45732" lon="3.66276">
        <ele>261</ele>
        <time>2019-04-04T11:58:27Z</time>
      </trkpt>
      <trkpt lat="47.45731" lon="3.66281">
        <ele>261</ele>
        <time>2019-04-04T11:58:30Z</time>
      </trkpt>
      <trkpt lat="47.45731" lon="3.66284">
        <ele>261</ele>
        <time>2019-04-04T11:58:32Z</time>
      </trkpt>
      <trkpt lat="47.4573" lon="3.66293">
        <ele>262</ele>
        <time>2019-04-04T11:58:36Z</time>
      </trkpt>
      <trkpt lat="47.4573" lon="3.66301">
        <ele>263</ele>
        <time>2019-04-04T11:58:40Z</time>
      </trkpt>
      <trkpt lat="47.45731" lon="3.66305">
        <ele>263</ele>
        <time>2019-04-04T11:58:42Z</time>
      </trkpt>
      <trkpt lat="47.45731" lon="3.6631">
        <ele>263</ele>
        <time>2019-04-04T11:58:44Z</time>
      </trkpt>
      <trkpt lat="47.45731" lon="3.66314">
        <ele>262</ele>
        <time>2019-04-04T11:58:46Z</time>
      </trkpt>
      <trkpt lat="47.45733" lon="3.6632">
        <ele>262</ele>
        <time>2019-04-04T11:58:50Z</time>
      </trkpt>
      <trkpt lat="47.45734" lon="3.66326">
        <ele>262</ele>
        <time>2019-04-04T11:58:53Z</time>
      </trkpt>
      <trkpt lat="47.45735" lon="3.66334">
        <ele>261</ele>
        <time>2019-04-04T11:58:57Z</time>
      </trkpt>
      <trkpt lat="47.45734" lon="3.66343">
        <ele>258</ele>
        <time>2019-04-04T11:59:02Z</time>
      </trkpt>
      <trkpt lat="47.45734" lon="3.6635">
        <ele>258</ele>
        <time>2019-04-04T11:59:06Z</time>
      </trkpt>
      <trkpt lat="47.45734" lon="3.66355">
        <ele>258</ele>
        <time>2019-04-04T11:59:08Z</time>
      </trkpt>
      <trkpt lat="47.45735" lon="3.66364">
        <ele>257</ele>
        <time>2019-04-04T11:59:12Z</time>
      </trkpt>
      <trkpt lat="47.45735" lon="3.66371">
        <ele>256</ele>
        <time>2019-04-04T11:59:16Z</time>
      </trkpt>
      <trkpt lat="47.45735" lon="3.66375">
        <ele>256</ele>
        <time>2019-04-04T11:59:18Z</time>
      </trkpt>
      <trkpt lat="47.45735" lon="3.66382">
        <ele>257</ele>
        <time>2019-04-04T11:59:22Z</time>
      </trkpt>
      <trkpt lat="47.45736" lon="3.66389">
        <ele>258</ele>
        <time>2019-04-04T11:59:26Z</time>
      </trkpt>
      <trkpt lat="47.45736" lon="3.66395">
        <ele>258</ele>
        <time>2019-04-04T11:59:29Z</time>
      </trkpt>
      <trkpt lat="47.45737" lon="3.66404">
        <ele>258</ele>
        <time>2019-04-04T11:59:33Z</time>
      </trkpt>
      <trkpt lat="47.45737" lon="3.66407">
        <ele>258</ele>
        <time>2019-04-04T11:59:35Z</time>
      </trkpt>
      <trkpt lat="47.45737" lon="3.6641">
        <ele>258</ele>
        <time>2019-04-04T11:59:37Z</time>
      </trkpt>
      <trkpt lat="47.45737" lon="3.66414">
        <ele>258</ele>
        <time>2019-04-04T11:59:39Z</time>
      </trkpt>
      <trkpt lat="47.45738" lon="3.66421">
        <ele>259</ele>
        <time>2019-04-04T11:59:43Z</time>
      </trkpt>
      <trkpt lat="47.45739" lon="3.66427">
        <ele>259</ele>
        <time>2019-04-04T11:59:46Z</time>
      </trkpt>
      <trkpt lat="47.45739" lon="3.66434">
        <ele>259</ele>
        <time>2019-04-04T11:59:51Z</time>
      </trkpt>
      <trkpt lat="47.4574" lon="3.66442">
        <ele>259</ele>
        <time>2019-04-04T11:59:55Z</time>
      </trkpt>
      <trkpt lat="47.45742" lon="3.66448">
        <ele>258</ele>
        <time>2019-04-04T11:59:59Z</time>
      </trkpt>
      <trkpt lat="47.45743" lon="3.66456">
        <ele>259</ele>
        <time>2019-04-04T12:00:04Z</time>
      </trkpt>
      <trkpt lat="47.45744" lon="3.66463">
        <ele>260</ele>
        <time>2019-04-04T12:00:08Z</time>
      </trkpt>
      <trkpt lat="47.45745" lon="3.66473">
        <ele>261</ele>
        <time>2019-04-04T12:00:14Z</time>
      </trkpt>
      <trkpt lat="47.45746" lon="3.66481">
        <ele>261</ele>
        <time>2019-04-04T12:00:18Z</time>
      </trkpt>
      <trkpt lat="47.45746" lon="3.66486">
        <ele>258</ele>
        <time>2019-04-04T12:00:21Z</time>
      </trkpt>
      <trkpt lat="47.45748" lon="3.66493">
        <ele>257</ele>
        <time>2019-04-04T12:00:25Z</time>
      </trkpt>
      <trkpt lat="47.45749" lon="3.665">
        <ele>258</ele>
        <time>2019-04-04T12:00:29Z</time>
      </trkpt>
      <trkpt lat="47.4575" lon="3.66504">
        <ele>259</ele>
        <time>2019-04-04T12:00:31Z</time>
      </trkpt>
      <trkpt lat="47.4575" lon="3.66509">
        <ele>260</ele>
        <time>2019-04-04T12:00:34Z</time>
      </trkpt>
      <trkpt lat="47.45751" lon="3.66516">
        <ele>260</ele>
        <time>2019-04-04T12:00:38Z</time>
      </trkpt>
      <trkpt lat="47.45751" lon="3.66521">
        <ele>261</ele>
        <time>2019-04-04T12:00:40Z</time>
      </trkpt>
      <trkpt lat="47.45751" lon="3.66525">
        <ele>262</ele>
        <time>2019-04-04T12:00:42Z</time>
      </trkpt>
      <trkpt lat="47.45752" lon="3.66529">
        <ele>263</ele>
        <time>2019-04-04T12:00:44Z</time>
      </trkpt>
      <trkpt lat="47.45752" lon="3.66532">
        <ele>264</ele>
        <time>2019-04-04T12:00:46Z</time>
      </trkpt>
      <trkpt lat="47.45752" lon="3.66536">
        <ele>264</ele>
        <time>2019-04-04T12:00:48Z</time>
      </trkpt>
      <trkpt lat="47.45752" lon="3.66544">
        <ele>266</ele>
        <time>2019-04-04T12:00:53Z</time>
      </trkpt>
      <trkpt lat="47.45753" lon="3.66551">
        <ele>267</ele>
        <time>2019-04-04T12:00:58Z</time>
      </trkpt>
      <trkpt lat="47.45754" lon="3.66556">
        <ele>266</ele>
        <time>2019-04-04T12:01:01Z</time>
      </trkpt>
      <trkpt lat="47.45754" lon="3.66565">
        <ele>267</ele>
        <time>2019-04-04T12:01:06Z</time>
      </trkpt>
      <trkpt lat="47.45755" lon="3.66569">
        <ele>267</ele>
        <time>2019-04-04T12:01:08Z</time>
      </trkpt>
      <trkpt lat="47.45755" lon="3.66572">
        <ele>267</ele>
        <time>2019-04-04T12:01:10Z</time>
      </trkpt>
      <trkpt lat="47.45754" lon="3.6658">
        <ele>268</ele>
        <time>2019-04-04T12:01:14Z</time>
      </trkpt>
      <trkpt lat="47.45754" lon="3.66584">
        <ele>268</ele>
        <time>2019-04-04T12:01:17Z</time>
      </trkpt>
      <trkpt lat="47.45754" lon="3.66592">
        <ele>268</ele>
        <time>2019-04-04T12:01:22Z</time>
      </trkpt>
      <trkpt lat="47.45753" lon="3.66599">
        <ele>270</ele>
        <time>2019-04-04T12:01:27Z</time>
      </trkpt>
      <trkpt lat="47.45752" lon="3.66603">
        <ele>271</ele>
        <time>2019-04-04T12:01:29Z</time>
      </trkpt>
      <trkpt lat="47.45753" lon="3.66612">
        <ele>272</ele>
        <time>2019-04-04T12:01:34Z</time>
      </trkpt>
      <trkpt lat="47.45752" lon="3.66618">
        <ele>273</ele>
        <time>2019-04-04T12:01:38Z</time>
      </trkpt>
      <trkpt lat="47.45751" lon="3.66627">
        <ele>274</ele>
        <time>2019-04-04T12:01:43Z</time>
      </trkpt>
      <trkpt lat="47.45751" lon="3.66634">
        <ele>275</ele>
        <time>2019-04-04T12:01:48Z</time>
      </trkpt>
      <trkpt lat="47.45753" lon="3.66642">
        <ele>276</ele>
        <time>2019-04-04T12:01:53Z</time>
      </trkpt>
      <trkpt lat="47.45753" lon="3.66646">
        <ele>276</ele>
        <time>2019-04-04T12:01:55Z</time>
      </trkpt>
      <trkpt lat="47.45754" lon="3.66653">
        <ele>277</ele>
        <time>2019-04-04T12:01:59Z</time>
      </trkpt>
      <trkpt lat="47.45756" lon="3.66661">
        <ele>277</ele>
        <time>2019-04-04T12:02:03Z</time>
      </trkpt>
      <trkpt lat="47.45762" lon="3.66669">
        <ele>277</ele>
        <time>2019-04-04T12:02:08Z</time>
      </trkpt>
      <trkpt lat="47.45764" lon="3.66673">
        <ele>277</ele>
        <time>2019-04-04T12:02:11Z</time>
      </trkpt>
      <trkpt lat="47.45767" lon="3.66678">
        <ele>276</ele>
        <time>2019-04-04T12:02:14Z</time>
      </trkpt>
      <trkpt lat="47.4577" lon="3.66681">
        <ele>275</ele>
        <time>2019-04-04T12:02:17Z</time>
      </trkpt>
      <trkpt lat="47.45772" lon="3.66687">
        <ele>275</ele>
        <time>2019-04-04T12:02:20Z</time>
      </trkpt>
      <trkpt lat="47.45776" lon="3.66693">
        <ele>276</ele>
        <time>2019-04-04T12:02:24Z</time>
      </trkpt>
      <trkpt lat="47.45782" lon="3.66698">
        <ele>278</ele>
        <time>2019-04-04T12:02:29Z</time>
      </trkpt>
      <trkpt lat="47.45786" lon="3.66701">
        <ele>278</ele>
        <time>2019-04-04T12:02:33Z</time>
      </trkpt>
      <trkpt lat="47.45792" lon="3.66706">
        <ele>279</ele>
        <time>2019-04-04T12:02:39Z</time>
      </trkpt>
      <trkpt lat="47.45794" lon="3.66707">
        <ele>279</ele>
        <time>2019-04-04T12:02:41Z</time>
      </trkpt>
      <trkpt lat="47.45796" lon="3.6671">
        <ele>280</ele>
        <time>2019-04-04T12:02:43Z</time>
      </trkpt>
      <trkpt lat="47.458" lon="3.66715">
        <ele>280</ele>
        <time>2019-04-04T12:02:47Z</time>
      </trkpt>
      <trkpt lat="47.45803" lon="3.66719">
        <ele>282</ele>
        <time>2019-04-04T12:02:52Z</time>
      </trkpt>
      <trkpt lat="47.45808" lon="3.66721">
        <ele>282</ele>
        <time>2019-04-04T12:02:56Z</time>
      </trkpt>
      <trkpt lat="47.45812" lon="3.66725">
        <ele>281</ele>
        <time>2019-04-04T12:03:00Z</time>
      </trkpt>
      <trkpt lat="47.45817" lon="3.66729">
        <ele>282</ele>
        <time>2019-04-04T12:03:05Z</time>
      </trkpt>
      <trkpt lat="47.4582" lon="3.66734">
        <ele>282</ele>
        <time>2019-04-04T12:03:09Z</time>
      </trkpt>
      <trkpt lat="47.45825" lon="3.66738">
        <ele>283</ele>
        <time>2019-04-04T12:03:14Z</time>
      </trkpt>
      <trkpt lat="47.45829" lon="3.66744">
        <ele>283</ele>
        <time>2019-04-04T12:03:18Z</time>
      </trkpt>
      <trkpt lat="47.45833" lon="3.66748">
        <ele>283</ele>
        <time>2019-04-04T12:03:23Z</time>
      </trkpt>
      <trkpt lat="47.45835" lon="3.6675">
        <ele>283</ele>
        <time>2019-04-04T12:03:25Z</time>
      </trkpt>
      <trkpt lat="47.45837" lon="3.66752">
        <ele>284</ele>
        <time>2019-04-04T12:03:27Z</time>
      </trkpt>
      <trkpt lat="47.4584" lon="3.66758">
        <ele>285</ele>
        <time>2019-04-04T12:03:31Z</time>
      </trkpt>
      <trkpt lat="47.45842" lon="3.66762">
        <ele>286</ele>
        <time>2019-04-04T12:03:34Z</time>
      </trkpt>
      <trkpt lat="47.45846" lon="3.66767">
        <ele>286</ele>
        <time>2019-04-04T12:03:37Z</time>
      </trkpt>
      <trkpt lat="47.45847" lon="3.6677">
        <ele>287</ele>
        <time>2019-04-04T12:03:39Z</time>
      </trkpt>
      <trkpt lat="47.4585" lon="3.66777">
        <ele>288</ele>
        <time>2019-04-04T12:03:44Z</time>
      </trkpt>
      <trkpt lat="47.45853" lon="3.66781">
        <ele>289</ele>
        <time>2019-04-04T12:03:47Z</time>
      </trkpt>
      <trkpt lat="47.45855" lon="3.66784">
        <ele>288</ele>
        <time>2019-04-04T12:03:50Z</time>
      </trkpt>
      <trkpt lat="47.45857" lon="3.66791">
        <ele>287</ele>
        <time>2019-04-04T12:03:55Z</time>
      </trkpt>
      <trkpt lat="47.45858" lon="3.66798">
        <ele>288</ele>
        <time>2019-04-04T12:04:00Z</time>
      </trkpt>
      <trkpt lat="47.45859" lon="3.66803">
        <ele>288</ele>
        <time>2019-04-04T12:04:05Z</time>
      </trkpt>
      <trkpt lat="47.45862" lon="3.66811">
        <ele>291</ele>
        <time>2019-04-04T12:04:11Z</time>
      </trkpt>
      <trkpt lat="47.45864" lon="3.66817">
        <ele>291</ele>
        <time>2019-04-04T12:04:14Z</time>
      </trkpt>
      <trkpt lat="47.45865" lon="3.66821">
        <ele>291</ele>
        <time>2019-04-04T12:04:16Z</time>
      </trkpt>
      <trkpt lat="47.45868" lon="3.66827">
        <ele>290</ele>
        <time>2019-04-04T12:04:19Z</time>
      </trkpt>
      <trkpt lat="47.45872" lon="3.66835">
        <ele>291</ele>
        <time>2019-04-04T12:04:23Z</time>
      </trkpt>
      <trkpt lat="47.45874" lon="3.66841">
        <ele>291</ele>
        <time>2019-04-04T12:04:27Z</time>
      </trkpt>
      <trkpt lat="47.45878" lon="3.66848">
        <ele>291</ele>
        <time>2019-04-04T12:04:31Z</time>
      </trkpt>
      <trkpt lat="47.45879" lon="3.66851">
        <ele>291</ele>
        <time>2019-04-04T12:04:34Z</time>
      </trkpt>
      <trkpt lat="47.45881" lon="3.66854">
        <ele>291</ele>
        <time>2019-04-04T12:04:37Z</time>
      </trkpt>
      <trkpt lat="47.45883" lon="3.66858">
        <ele>290</ele>
        <time>2019-04-04T12:04:40Z</time>
      </trkpt>
      <trkpt lat="47.45886" lon="3.66864">
        <ele>292</ele>
        <time>2019-04-04T12:04:44Z</time>
      </trkpt>
      <trkpt lat="47.45887" lon="3.66871">
        <ele>292</ele>
        <time>2019-04-04T12:04:48Z</time>
      </trkpt>
      <trkpt lat="47.45889" lon="3.66878">
        <ele>290</ele>
        <time>2019-04-04T12:04:54Z</time>
      </trkpt>
      <trkpt lat="47.4589" lon="3.66882">
        <ele>290</ele>
        <time>2019-04-04T12:05:00Z</time>
      </trkpt>
      <trkpt lat="47.4589" lon="3.66885">
        <ele>290</ele>
        <time>2019-04-04T12:05:08Z</time>
      </trkpt>
      <trkpt lat="47.45892" lon="3.66891">
        <ele>290</ele>
        <time>2019-04-04T12:05:12Z</time>
      </trkpt>
      <trkpt lat="47.45894" lon="3.66898">
        <ele>290</ele>
        <time>2019-04-04T12:05:17Z</time>
      </trkpt>
      <trkpt lat="47.45895" lon="3.66898">
        <ele>290</ele>
        <time>2019-04-04T12:05:25Z</time>
      </trkpt>
      <trkpt lat="47.45899" lon="3.66902">
        <ele>290</ele>
        <time>2019-04-04T12:09:08Z</time>
      </trkpt>
      <trkpt lat="47.459" lon="3.66911">
        <ele>291</ele>
        <time>2019-04-04T12:09:13Z</time>
      </trkpt>
      <trkpt lat="47.459" lon="3.66918">
        <ele>290</ele>
        <time>2019-04-04T12:09:17Z</time>
      </trkpt>
      <trkpt lat="47.45901" lon="3.66925">
        <ele>290</ele>
        <time>2019-04-04T12:09:21Z</time>
      </trkpt>
      <trkpt lat="47.45901" lon="3.66932">
        <ele>290</ele>
        <time>2019-04-04T12:09:25Z</time>
      </trkpt>
      <trkpt lat="47.45903" lon="3.66942">
        <ele>290</ele>
        <time>2019-04-04T12:09:31Z</time>
      </trkpt>
      <trkpt lat="47.45903" lon="3.66949">
        <ele>289</ele>
        <time>2019-04-04T12:09:35Z</time>
      </trkpt>
      <trkpt lat="47.45905" lon="3.66955">
        <ele>287</ele>
        <time>2019-04-04T12:09:39Z</time>
      </trkpt>
      <trkpt lat="47.45906" lon="3.66962">
        <ele>288</ele>
        <time>2019-04-04T12:09:43Z</time>
      </trkpt>
      <trkpt lat="47.45907" lon="3.66969">
        <ele>287</ele>
        <time>2019-04-04T12:09:47Z</time>
      </trkpt>
      <trkpt lat="47.45908" lon="3.66972">
        <ele>287</ele>
        <time>2019-04-04T12:09:49Z</time>
      </trkpt>
      <trkpt lat="47.45909" lon="3.66976">
        <ele>286</ele>
        <time>2019-04-04T12:09:51Z</time>
      </trkpt>
      <trkpt lat="47.45911" lon="3.66983">
        <ele>286</ele>
        <time>2019-04-04T12:09:55Z</time>
      </trkpt>
      <trkpt lat="47.45914" lon="3.66992">
        <ele>286</ele>
        <time>2019-04-04T12:10:01Z</time>
      </trkpt>
      <trkpt lat="47.45915" lon="3.66996">
        <ele>286</ele>
        <time>2019-04-04T12:10:03Z</time>
      </trkpt>
      <trkpt lat="47.45916" lon="3.66999">
        <ele>287</ele>
        <time>2019-04-04T12:10:05Z</time>
      </trkpt>
      <trkpt lat="47.45917" lon="3.67006">
        <ele>287</ele>
        <time>2019-04-04T12:10:10Z</time>
      </trkpt>
      <trkpt lat="47.45919" lon="3.67014">
        <ele>289</ele>
        <time>2019-04-04T12:10:14Z</time>
      </trkpt>
      <trkpt lat="47.45922" lon="3.6702">
        <ele>288</ele>
        <time>2019-04-04T12:10:19Z</time>
      </trkpt>
      <trkpt lat="47.45924" lon="3.67025">
        <ele>288</ele>
        <time>2019-04-04T12:10:23Z</time>
      </trkpt>
      <trkpt lat="47.45926" lon="3.67035">
        <ele>290</ele>
        <time>2019-04-04T12:10:29Z</time>
      </trkpt>
      <trkpt lat="47.45928" lon="3.67042">
        <ele>289</ele>
        <time>2019-04-04T12:10:33Z</time>
      </trkpt>
      <trkpt lat="47.4593" lon="3.67049">
        <ele>289</ele>
        <time>2019-04-04T12:10:37Z</time>
      </trkpt>
      <trkpt lat="47.45932" lon="3.67055">
        <ele>289</ele>
        <time>2019-04-04T12:10:39Z</time>
      </trkpt>
      <trkpt lat="47.45935" lon="3.67062">
        <ele>289</ele>
        <time>2019-04-04T12:10:44Z</time>
      </trkpt>
      <trkpt lat="47.45936" lon="3.67071">
        <ele>292</ele>
        <time>2019-04-04T12:10:50Z</time>
      </trkpt>
      <trkpt lat="47.45936" lon="3.67076">
        <ele>293</ele>
        <time>2019-04-04T12:10:53Z</time>
      </trkpt>
      <trkpt lat="47.45939" lon="3.67082">
        <ele>292</ele>
        <time>2019-04-04T12:10:56Z</time>
      </trkpt>
      <trkpt lat="47.45941" lon="3.6709">
        <ele>291</ele>
        <time>2019-04-04T12:11:01Z</time>
      </trkpt>
      <trkpt lat="47.45942" lon="3.67101">
        <ele>292</ele>
        <time>2019-04-04T12:11:05Z</time>
      </trkpt>
      <trkpt lat="47.45944" lon="3.67107">
        <ele>290</ele>
        <time>2019-04-04T12:11:10Z</time>
      </trkpt>
      <trkpt lat="47.45947" lon="3.67115">
        <ele>289</ele>
        <time>2019-04-04T12:11:15Z</time>
      </trkpt>
      <trkpt lat="47.45948" lon="3.67122">
        <ele>289</ele>
        <time>2019-04-04T12:11:19Z</time>
      </trkpt>
      <trkpt lat="47.45952" lon="3.67129">
        <ele>288</ele>
        <time>2019-04-04T12:11:23Z</time>
      </trkpt>
      <trkpt lat="47.45954" lon="3.67134">
        <ele>288</ele>
        <time>2019-04-04T12:11:26Z</time>
      </trkpt>
      <trkpt lat="47.45956" lon="3.67138">
        <ele>289</ele>
        <time>2019-04-04T12:11:28Z</time>
      </trkpt>
      <trkpt lat="47.45958" lon="3.67144">
        <ele>288</ele>
        <time>2019-04-04T12:11:32Z</time>
      </trkpt>
      <trkpt lat="47.4596" lon="3.67149">
        <ele>289</ele>
        <time>2019-04-04T12:11:35Z</time>
      </trkpt>
      <trkpt lat="47.45965" lon="3.67157">
        <ele>289</ele>
        <time>2019-04-04T12:11:40Z</time>
      </trkpt>
      <trkpt lat="47.45968" lon="3.67161">
        <ele>288</ele>
        <time>2019-04-04T12:11:43Z</time>
      </trkpt>
      <trkpt lat="47.45971" lon="3.67167">
        <ele>288</ele>
        <time>2019-04-04T12:11:47Z</time>
      </trkpt>
      <trkpt lat="47.45974" lon="3.67173">
        <ele>289</ele>
        <time>2019-04-04T12:11:52Z</time>
      </trkpt>
      <trkpt lat="47.45977" lon="3.67181">
        <ele>290</ele>
        <time>2019-04-04T12:11:57Z</time>
      </trkpt>
      <trkpt lat="47.4598" lon="3.6719">
        <ele>289</ele>
        <time>2019-04-04T12:12:02Z</time>
      </trkpt>
      <trkpt lat="47.45984" lon="3.67196">
        <ele>290</ele>
        <time>2019-04-04T12:12:06Z</time>
      </trkpt>
      <trkpt lat="47.45987" lon="3.67201">
        <ele>290</ele>
        <time>2019-04-04T12:12:10Z</time>
      </trkpt>
      <trkpt lat="47.45989" lon="3.67209">
        <ele>288</ele>
        <time>2019-04-04T12:12:14Z</time>
      </trkpt>
      <trkpt lat="47.45994" lon="3.67216">
        <ele>288</ele>
        <time>2019-04-04T12:12:18Z</time>
      </trkpt>
      <trkpt lat="47.45996" lon="3.6722">
        <ele>288</ele>
        <time>2019-04-04T12:12:21Z</time>
      </trkpt>
      <trkpt lat="47.45998" lon="3.67227">
        <ele>287</ele>
        <time>2019-04-04T12:12:24Z</time>
      </trkpt>
      <trkpt lat="47.46001" lon="3.67232">
        <ele>286</ele>
        <time>2019-04-04T12:12:28Z</time>
      </trkpt>
      <trkpt lat="47.46004" lon="3.67236">
        <ele>285</ele>
        <time>2019-04-04T12:12:30Z</time>
      </trkpt>
      <trkpt lat="47.46005" lon="3.67242">
        <ele>284</ele>
        <time>2019-04-04T12:12:34Z</time>
      </trkpt>
      <trkpt lat="47.46007" lon="3.67249">
        <ele>285</ele>
        <time>2019-04-04T12:12:39Z</time>
      </trkpt>
      <trkpt lat="47.46009" lon="3.67253">
        <ele>284</ele>
        <time>2019-04-04T12:12:41Z</time>
      </trkpt>
      <trkpt lat="47.46013" lon="3.67261">
        <ele>285</ele>
        <time>2019-04-04T12:12:45Z</time>
      </trkpt>
      <trkpt lat="47.46014" lon="3.67264">
        <ele>286</ele>
        <time>2019-04-04T12:12:47Z</time>
      </trkpt>
      <trkpt lat="47.46016" lon="3.67268">
        <ele>285</ele>
        <time>2019-04-04T12:12:49Z</time>
      </trkpt>
      <trkpt lat="47.4602" lon="3.67273">
        <ele>285</ele>
        <time>2019-04-04T12:12:53Z</time>
      </trkpt>
      <trkpt lat="47.46024" lon="3.67279">
        <ele>284</ele>
        <time>2019-04-04T12:12:58Z</time>
      </trkpt>
      <trkpt lat="47.46027" lon="3.67283">
        <ele>284</ele>
        <time>2019-04-04T12:13:02Z</time>
      </trkpt>
      <trkpt lat="47.46031" lon="3.67291">
        <ele>284</ele>
        <time>2019-04-04T12:13:09Z</time>
      </trkpt>
      <trkpt lat="47.46035" lon="3.67296">
        <ele>284</ele>
        <time>2019-04-04T12:13:13Z</time>
      </trkpt>
      <trkpt lat="47.46038" lon="3.67302">
        <ele>285</ele>
        <time>2019-04-04T12:13:17Z</time>
      </trkpt>
      <trkpt lat="47.46041" lon="3.67307">
        <ele>285</ele>
        <time>2019-04-04T12:13:21Z</time>
      </trkpt>
      <trkpt lat="47.46046" lon="3.67316">
        <ele>286</ele>
        <time>2019-04-04T12:13:27Z</time>
      </trkpt>
      <trkpt lat="47.4605" lon="3.67321">
        <ele>286</ele>
        <time>2019-04-04T12:13:31Z</time>
      </trkpt>
      <trkpt lat="47.46053" lon="3.67327">
        <ele>286</ele>
        <time>2019-04-04T12:13:36Z</time>
      </trkpt>
      <trkpt lat="47.46055" lon="3.67334">
        <ele>287</ele>
        <time>2019-04-04T12:13:42Z</time>
      </trkpt>
      <trkpt lat="47.46056" lon="3.67337">
        <ele>286</ele>
        <time>2019-04-04T12:13:44Z</time>
      </trkpt>
      <trkpt lat="47.46058" lon="3.67343">
        <ele>288</ele>
        <time>2019-04-04T12:13:48Z</time>
      </trkpt>
      <trkpt lat="47.46061" lon="3.67351">
        <ele>288</ele>
        <time>2019-04-04T12:13:52Z</time>
      </trkpt>
      <trkpt lat="47.46063" lon="3.6736">
        <ele>290</ele>
        <time>2019-04-04T12:13:58Z</time>
      </trkpt>
      <trkpt lat="47.46067" lon="3.6737">
        <ele>291</ele>
        <time>2019-04-04T12:14:06Z</time>
      </trkpt>
      <trkpt lat="47.46069" lon="3.67379">
        <ele>290</ele>
        <time>2019-04-04T12:14:11Z</time>
      </trkpt>
      <trkpt lat="47.46072" lon="3.67387">
        <ele>291</ele>
        <time>2019-04-04T12:14:16Z</time>
      </trkpt>
      <trkpt lat="47.46074" lon="3.67392">
        <ele>290</ele>
        <time>2019-04-04T12:14:20Z</time>
      </trkpt>
      <trkpt lat="47.46077" lon="3.67397">
        <ele>290</ele>
        <time>2019-04-04T12:14:23Z</time>
      </trkpt>
      <trkpt lat="47.46079" lon="3.67403">
        <ele>289</ele>
        <time>2019-04-04T12:14:26Z</time>
      </trkpt>
      <trkpt lat="47.4608" lon="3.67406">
        <ele>289</ele>
        <time>2019-04-04T12:14:28Z</time>
      </trkpt>
      <trkpt lat="47.46083" lon="3.67412">
        <ele>290</ele>
        <time>2019-04-04T12:14:31Z</time>
      </trkpt>
      <trkpt lat="47.46085" lon="3.67418">
        <ele>290</ele>
        <time>2019-04-04T12:14:35Z</time>
      </trkpt>
      <trkpt lat="47.46088" lon="3.67425">
        <ele>290</ele>
        <time>2019-04-04T12:14:39Z</time>
      </trkpt>
      <trkpt lat="47.46089" lon="3.67435">
        <ele>291</ele>
        <time>2019-04-04T12:14:46Z</time>
      </trkpt>
      <trkpt lat="47.46091" lon="3.67441">
        <ele>292</ele>
        <time>2019-04-04T12:14:50Z</time>
      </trkpt>
      <trkpt lat="47.46092" lon="3.67444">
        <ele>293</ele>
        <time>2019-04-04T12:14:52Z</time>
      </trkpt>
      <trkpt lat="47.46093" lon="3.67447">
        <ele>294</ele>
        <time>2019-04-04T12:14:55Z</time>
      </trkpt>
      <trkpt lat="47.46094" lon="3.67455">
        <ele>295</ele>
        <time>2019-04-04T12:15:00Z</time>
      </trkpt>
      <trkpt lat="47.46095" lon="3.67463">
        <ele>296</ele>
        <time>2019-04-04T12:15:04Z</time>
      </trkpt>
      <trkpt lat="47.46094" lon="3.67473">
        <ele>297</ele>
        <time>2019-04-04T12:15:10Z</time>
      </trkpt>
      <trkpt lat="47.46096" lon="3.6748">
        <ele>298</ele>
        <time>2019-04-04T12:15:14Z</time>
      </trkpt>
      <trkpt lat="47.46099" lon="3.67485">
        <ele>298</ele>
        <time>2019-04-04T12:15:18Z</time>
      </trkpt>
      <trkpt lat="47.46102" lon="3.6749">
        <ele>300</ele>
        <time>2019-04-04T12:15:21Z</time>
      </trkpt>
      <trkpt lat="47.46104" lon="3.67493">
        <ele>301</ele>
        <time>2019-04-04T12:15:23Z</time>
      </trkpt>
      <trkpt lat="47.46106" lon="3.67496">
        <ele>301</ele>
        <time>2019-04-04T12:15:25Z</time>
      </trkpt>
      <trkpt lat="47.46109" lon="3.67501">
        <ele>301</ele>
        <time>2019-04-04T12:15:29Z</time>
      </trkpt>
      <trkpt lat="47.46112" lon="3.67504">
        <ele>302</ele>
        <time>2019-04-04T12:15:31Z</time>
      </trkpt>
      <trkpt lat="47.46115" lon="3.67507">
        <ele>303</ele>
        <time>2019-04-04T12:15:33Z</time>
      </trkpt>
      <trkpt lat="47.46117" lon="3.6751">
        <ele>303</ele>
        <time>2019-04-04T12:15:35Z</time>
      </trkpt>
      <trkpt lat="47.46119" lon="3.67518">
        <ele>304</ele>
        <time>2019-04-04T12:15:41Z</time>
      </trkpt>
      <trkpt lat="47.46121" lon="3.67526">
        <ele>305</ele>
        <time>2019-04-04T12:15:47Z</time>
      </trkpt>
      <trkpt lat="47.46123" lon="3.67534">
        <ele>304</ele>
        <time>2019-04-04T12:15:52Z</time>
      </trkpt>
      <trkpt lat="47.46124" lon="3.67538">
        <ele>304</ele>
        <time>2019-04-04T12:15:55Z</time>
      </trkpt>
      <trkpt lat="47.46127" lon="3.67546">
        <ele>303</ele>
        <time>2019-04-04T12:16:00Z</time>
      </trkpt>
      <trkpt lat="47.46128" lon="3.67555">
        <ele>306</ele>
        <time>2019-04-04T12:16:07Z</time>
      </trkpt>
      <trkpt lat="47.46133" lon="3.67561">
        <ele>308</ele>
        <time>2019-04-04T12:16:12Z</time>
      </trkpt>
      <trkpt lat="47.46135" lon="3.67568">
        <ele>309</ele>
        <time>2019-04-04T12:16:17Z</time>
      </trkpt>
      <trkpt lat="47.46138" lon="3.67574">
        <ele>309</ele>
        <time>2019-04-04T12:16:22Z</time>
      </trkpt>
      <trkpt lat="47.46142" lon="3.67583">
        <ele>308</ele>
        <time>2019-04-04T12:16:29Z</time>
      </trkpt>
      <trkpt lat="47.46146" lon="3.67588">
        <ele>308</ele>
        <time>2019-04-04T12:16:34Z</time>
      </trkpt>
      <trkpt lat="47.4615" lon="3.67593">
        <ele>308</ele>
        <time>2019-04-04T12:16:37Z</time>
      </trkpt>
      <trkpt lat="47.46154" lon="3.67596">
        <ele>307</ele>
        <time>2019-04-04T12:16:40Z</time>
      </trkpt>
      <trkpt lat="47.46158" lon="3.676">
        <ele>306</ele>
        <time>2019-04-04T12:16:43Z</time>
      </trkpt>
      <trkpt lat="47.46162" lon="3.67605">
        <ele>305</ele>
        <time>2019-04-04T12:16:47Z</time>
      </trkpt>
      <trkpt lat="47.46167" lon="3.6761">
        <ele>307</ele>
        <time>2019-04-04T12:16:51Z</time>
      </trkpt>
      <trkpt lat="47.46169" lon="3.67612">
        <ele>309</ele>
        <time>2019-04-04T12:16:53Z</time>
      </trkpt>
      <trkpt lat="47.46171" lon="3.67613">
        <ele>309</ele>
        <time>2019-04-04T12:16:55Z</time>
      </trkpt>
      <trkpt lat="47.46175" lon="3.67618">
        <ele>310</ele>
        <time>2019-04-04T12:16:58Z</time>
      </trkpt>
      <trkpt lat="47.4618" lon="3.67621">
        <ele>313</ele>
        <time>2019-04-04T12:17:02Z</time>
      </trkpt>
      <trkpt lat="47.46185" lon="3.67626">
        <ele>313</ele>
        <time>2019-04-04T12:17:08Z</time>
      </trkpt>
      <trkpt lat="47.46188" lon="3.67628">
        <ele>312</ele>
        <time>2019-04-04T12:17:11Z</time>
      </trkpt>
      <trkpt lat="47.46193" lon="3.67632">
        <ele>314</ele>
        <time>2019-04-04T12:17:16Z</time>
      </trkpt>
      <trkpt lat="47.46199" lon="3.67635">
        <ele>314</ele>
        <time>2019-04-04T12:17:21Z</time>
      </trkpt>
      <trkpt lat="47.46202" lon="3.67637">
        <ele>316</ele>
        <time>2019-04-04T12:17:25Z</time>
      </trkpt>
      <trkpt lat="47.46207" lon="3.67638">
        <ele>316</ele>
        <time>2019-04-04T12:17:28Z</time>
      </trkpt>
      <trkpt lat="47.46214" lon="3.6764">
        <ele>316</ele>
        <time>2019-04-04T12:17:34Z</time>
      </trkpt>
      <trkpt lat="47.46219" lon="3.67644">
        <ele>316</ele>
        <time>2019-04-04T12:17:40Z</time>
      </trkpt>
      <trkpt lat="47.46223" lon="3.67646">
        <ele>314</ele>
        <time>2019-04-04T12:17:45Z</time>
      </trkpt>
      <trkpt lat="47.46228" lon="3.67652">
        <ele>315</ele>
        <time>2019-04-04T12:17:51Z</time>
      </trkpt>
      <trkpt lat="47.46232" lon="3.67655">
        <ele>314</ele>
        <time>2019-04-04T12:17:55Z</time>
      </trkpt>
      <trkpt lat="47.46232" lon="3.67655">
        <ele>314</ele>
        <time>2019-04-04T12:18:02Z</time>
      </trkpt>
      <trkpt lat="47.46232" lon="3.67655">
        <ele>314</ele>
        <time>2019-04-04T12:18:03Z</time>
      </trkpt>
      <trkpt lat="47.4624" lon="3.6766">
        <ele>313</ele>
        <time>2019-04-04T12:18:07Z</time>
      </trkpt>
      <trkpt lat="47.46242" lon="3.67662">
        <ele>313</ele>
        <time>2019-04-04T12:18:09Z</time>
      </trkpt>
      <trkpt lat="47.46246" lon="3.67667">
        <ele>312</ele>
        <time>2019-04-04T12:18:12Z</time>
      </trkpt>
      <trkpt lat="47.46251" lon="3.67671">
        <ele>312</ele>
        <time>2019-04-04T12:18:15Z</time>
      </trkpt>
      <trkpt lat="47.46257" lon="3.67674">
        <ele>311</ele>
        <time>2019-04-04T12:18:20Z</time>
      </trkpt>
      <trkpt lat="47.46261" lon="3.67677">
        <ele>311</ele>
        <time>2019-04-04T12:18:24Z</time>
      </trkpt>
      <trkpt lat="47.46265" lon="3.6768">
        <ele>311</ele>
        <time>2019-04-04T12:18:28Z</time>
      </trkpt>
      <trkpt lat="47.46272" lon="3.67683">
        <ele>309</ele>
        <time>2019-04-04T12:18:34Z</time>
      </trkpt>
      <trkpt lat="47.46275" lon="3.67688">
        <ele>309</ele>
        <time>2019-04-04T12:18:36Z</time>
      </trkpt>
      <trkpt lat="47.4628" lon="3.67691">
        <ele>312</ele>
        <time>2019-04-04T12:18:41Z</time>
      </trkpt>
      <trkpt lat="47.46284" lon="3.67697">
        <ele>313</ele>
        <time>2019-04-04T12:18:48Z</time>
      </trkpt>
      <trkpt lat="47.46288" lon="3.67702">
        <ele>314</ele>
        <time>2019-04-04T12:18:54Z</time>
      </trkpt>
      <trkpt lat="47.46292" lon="3.67706">
        <ele>315</ele>
        <time>2019-04-04T12:18:58Z</time>
      </trkpt>
      <trkpt lat="47.46295" lon="3.67708">
        <ele>316</ele>
        <time>2019-04-04T12:19:01Z</time>
      </trkpt>
      <trkpt lat="47.46299" lon="3.67714">
        <ele>316</ele>
        <time>2019-04-04T12:19:06Z</time>
      </trkpt>
      <trkpt lat="47.46304" lon="3.67718">
        <ele>316</ele>
        <time>2019-04-04T12:19:11Z</time>
      </trkpt>
      <trkpt lat="47.46307" lon="3.67724">
        <ele>315</ele>
        <time>2019-04-04T12:19:15Z</time>
      </trkpt>
      <trkpt lat="47.46309" lon="3.6773">
        <ele>315</ele>
        <time>2019-04-04T12:19:20Z</time>
      </trkpt>
      <trkpt lat="47.46313" lon="3.67734">
        <ele>316</ele>
        <time>2019-04-04T12:19:23Z</time>
      </trkpt>
      <trkpt lat="47.46317" lon="3.6774">
        <ele>314</ele>
        <time>2019-04-04T12:19:27Z</time>
      </trkpt>
      <trkpt lat="47.46321" lon="3.67747">
        <ele>313</ele>
        <time>2019-04-04T12:19:31Z</time>
      </trkpt>
      <trkpt lat="47.46326" lon="3.67749">
        <ele>314</ele>
        <time>2019-04-04T12:19:35Z</time>
      </trkpt>
      <trkpt lat="47.46332" lon="3.67758">
        <ele>313</ele>
        <time>2019-04-04T12:19:38Z</time>
      </trkpt>
      <trkpt lat="47.46335" lon="3.67762">
        <ele>312</ele>
        <time>2019-04-04T12:19:41Z</time>
      </trkpt>
      <trkpt lat="47.4634" lon="3.67766">
        <ele>312</ele>
        <time>2019-04-04T12:19:45Z</time>
      </trkpt>
      <trkpt lat="47.46342" lon="3.67769">
        <ele>311</ele>
        <time>2019-04-04T12:19:48Z</time>
      </trkpt>
      <trkpt lat="47.46342" lon="3.67769">
        <ele>311</ele>
        <time>2019-04-04T12:19:56Z</time>
      </trkpt>
      <trkpt lat="47.46342" lon="3.67769">
        <ele>311</ele>
        <time>2019-04-04T12:19:57Z</time>
      </trkpt>
      <trkpt lat="47.46348" lon="3.67772">
        <ele>311</ele>
        <time>2019-04-04T12:19:58Z</time>
      </trkpt>
      <trkpt lat="47.46353" lon="3.67775">
        <ele>309</ele>
        <time>2019-04-04T12:20:04Z</time>
      </trkpt>
      <trkpt lat="47.46356" lon="3.6778">
        <ele>306</ele>
        <time>2019-04-04T12:20:17Z</time>
      </trkpt>
      <trkpt lat="47.46358" lon="3.67786">
        <ele>307</ele>
        <time>2019-04-04T12:20:23Z</time>
      </trkpt>
      <trkpt lat="47.46359" lon="3.67789">
        <ele>309</ele>
        <time>2019-04-04T12:20:26Z</time>
      </trkpt>
      <trkpt lat="47.46357" lon="3.67796">
        <ele>311</ele>
        <time>2019-04-04T12:20:33Z</time>
      </trkpt>
      <trkpt lat="47.46354" lon="3.67801">
        <ele>312</ele>
        <time>2019-04-04T12:20:34Z</time>
      </trkpt>
      <trkpt lat="47.46354" lon="3.6781">
        <ele>309</ele>
        <time>2019-04-04T12:20:39Z</time>
      </trkpt>
      <trkpt lat="47.46353" lon="3.67817">
        <ele>309</ele>
        <time>2019-04-04T12:20:42Z</time>
      </trkpt>
      <trkpt lat="47.46353" lon="3.6782">
        <ele>310</ele>
        <time>2019-04-04T12:20:45Z</time>
      </trkpt>
      <trkpt lat="47.46349" lon="3.6783">
        <ele>307</ele>
        <time>2019-04-04T12:20:51Z</time>
      </trkpt>
      <trkpt lat="47.46348" lon="3.67837">
        <ele>305</ele>
        <time>2019-04-04T12:20:53Z</time>
      </trkpt>
      <trkpt lat="47.46347" lon="3.67844">
        <ele>304</ele>
        <time>2019-04-04T12:20:56Z</time>
      </trkpt>
      <trkpt lat="47.46348" lon="3.67851">
        <ele>303</ele>
        <time>2019-04-04T12:20:59Z</time>
      </trkpt>
      <trkpt lat="47.46351" lon="3.67861">
        <ele>307</ele>
        <time>2019-04-04T12:21:05Z</time>
      </trkpt>
      <trkpt lat="47.46352" lon="3.67865">
        <ele>306</ele>
        <time>2019-04-04T12:21:07Z</time>
      </trkpt>
      <trkpt lat="47.46356" lon="3.67871">
        <ele>305</ele>
        <time>2019-04-04T12:21:13Z</time>
      </trkpt>
      <trkpt lat="47.4636" lon="3.6788">
        <ele>303</ele>
        <time>2019-04-04T12:21:16Z</time>
      </trkpt>
      <trkpt lat="47.46363" lon="3.67885">
        <ele>303</ele>
        <time>2019-04-04T12:21:22Z</time>
      </trkpt>
      <trkpt lat="47.46367" lon="3.6789">
        <ele>303</ele>
        <time>2019-04-04T12:21:29Z</time>
      </trkpt>
      <trkpt lat="47.4637" lon="3.67895">
        <ele>303</ele>
        <time>2019-04-04T12:21:31Z</time>
      </trkpt>
      <trkpt lat="47.46375" lon="3.67896">
        <ele>304</ele>
        <time>2019-04-04T12:21:36Z</time>
      </trkpt>
      <trkpt lat="47.46378" lon="3.67899">
        <ele>303</ele>
        <time>2019-04-04T12:21:46Z</time>
      </trkpt>
      <trkpt lat="47.46382" lon="3.67904">
        <ele>301</ele>
        <time>2019-04-04T12:21:54Z</time>
      </trkpt>
      <trkpt lat="47.46387" lon="3.67913">
        <ele>301</ele>
        <time>2019-04-04T12:22:00Z</time>
      </trkpt>
      <trkpt lat="47.46389" lon="3.67916">
        <ele>301</ele>
        <time>2019-04-04T12:22:02Z</time>
      </trkpt>
      <trkpt lat="47.46394" lon="3.67921">
        <ele>301</ele>
        <time>2019-04-04T12:22:06Z</time>
      </trkpt>
      <trkpt lat="47.46397" lon="3.67924">
        <ele>301</ele>
        <time>2019-04-04T12:22:09Z</time>
      </trkpt>
      <trkpt lat="47.46401" lon="3.67928">
        <ele>300</ele>
        <time>2019-04-04T12:22:12Z</time>
      </trkpt>
      <trkpt lat="47.46407" lon="3.6793">
        <ele>304</ele>
        <time>2019-04-04T12:22:19Z</time>
      </trkpt>
      <trkpt lat="47.46412" lon="3.6793">
        <ele>303</ele>
        <time>2019-04-04T12:22:22Z</time>
      </trkpt>
      <trkpt lat="47.46417" lon="3.67932">
        <ele>302</ele>
        <time>2019-04-04T12:22:26Z</time>
      </trkpt>
      <trkpt lat="47.4642" lon="3.67934">
        <ele>303</ele>
        <time>2019-04-04T12:22:28Z</time>
      </trkpt>
      <trkpt lat="47.46424" lon="3.67928">
        <ele>304</ele>
        <time>2019-04-04T12:22:31Z</time>
      </trkpt>
      <trkpt lat="47.46428" lon="3.67925">
        <ele>302</ele>
        <time>2019-04-04T12:22:37Z</time>
      </trkpt>
      <trkpt lat="47.46434" lon="3.67924">
        <ele>304</ele>
        <time>2019-04-04T12:22:43Z</time>
      </trkpt>
      <trkpt lat="47.46438" lon="3.67923">
        <ele>304</ele>
        <time>2019-04-04T12:22:48Z</time>
      </trkpt>
      <trkpt lat="47.46446" lon="3.67919">
        <ele>307</ele>
        <time>2019-04-04T12:22:56Z</time>
      </trkpt>
      <trkpt lat="47.46452" lon="3.67918">
        <ele>306</ele>
        <time>2019-04-04T12:23:02Z</time>
      </trkpt>
      <trkpt lat="47.46456" lon="3.67918">
        <ele>306</ele>
        <time>2019-04-04T12:23:05Z</time>
      </trkpt>
      <trkpt lat="47.46461" lon="3.67916">
        <ele>306</ele>
        <time>2019-04-04T12:23:09Z</time>
      </trkpt>
      <trkpt lat="47.46466" lon="3.67915">
        <ele>304</ele>
        <time>2019-04-04T12:23:15Z</time>
      </trkpt>
      <trkpt lat="47.46471" lon="3.67915">
        <ele>305</ele>
        <time>2019-04-04T12:23:20Z</time>
      </trkpt>
      <trkpt lat="47.46476" lon="3.67917">
        <ele>301</ele>
        <time>2019-04-04T12:23:29Z</time>
      </trkpt>
      <trkpt lat="47.4648" lon="3.67917">
        <ele>302</ele>
        <time>2019-04-04T12:23:33Z</time>
      </trkpt>
      <trkpt lat="47.46484" lon="3.67923">
        <ele>299</ele>
        <time>2019-04-04T12:23:41Z</time>
      </trkpt>
      <trkpt lat="47.46492" lon="3.67929">
        <ele>299</ele>
        <time>2019-04-04T12:23:47Z</time>
      </trkpt>
      <trkpt lat="47.46497" lon="3.67933">
        <ele>301</ele>
        <time>2019-04-04T12:23:52Z</time>
      </trkpt>
      <trkpt lat="47.46497" lon="3.67933">
        <ele>301</ele>
        <time>2019-04-04T12:24:00Z</time>
      </trkpt>
      <trkpt lat="47.46502" lon="3.67935">
        <ele>301</ele>
        <time>2019-04-04T12:24:01Z</time>
      </trkpt>
      <trkpt lat="47.46506" lon="3.67939">
        <ele>301</ele>
        <time>2019-04-04T12:24:05Z</time>
      </trkpt>
      <trkpt lat="47.46511" lon="3.67943">
        <ele>298</ele>
        <time>2019-04-04T12:24:08Z</time>
      </trkpt>
      <trkpt lat="47.46517" lon="3.67943">
        <ele>297</ele>
        <time>2019-04-04T12:24:12Z</time>
      </trkpt>
      <trkpt lat="47.4652" lon="3.67946">
        <ele>298</ele>
        <time>2019-04-04T12:24:23Z</time>
      </trkpt>
      <trkpt lat="47.4652" lon="3.67953">
        <ele>297</ele>
        <time>2019-04-04T12:24:32Z</time>
      </trkpt>
      <trkpt lat="47.46519" lon="3.67961">
        <ele>301</ele>
        <time>2019-04-04T12:24:43Z</time>
      </trkpt>
      <trkpt lat="47.46519" lon="3.67965">
        <ele>300</ele>
        <time>2019-04-04T12:24:46Z</time>
      </trkpt>
      <trkpt lat="47.46519" lon="3.67972">
        <ele>300</ele>
        <time>2019-04-04T12:24:56Z</time>
      </trkpt>
      <trkpt lat="47.46519" lon="3.67979">
        <ele>300</ele>
        <time>2019-04-04T12:25:00Z</time>
      </trkpt>
      <trkpt lat="47.4652" lon="3.67986">
        <ele>300</ele>
        <time>2019-04-04T12:25:05Z</time>
      </trkpt>
      <trkpt lat="47.46522" lon="3.67993">
        <ele>301</ele>
        <time>2019-04-04T12:25:11Z</time>
      </trkpt>
      <trkpt lat="47.46522" lon="3.68002">
        <ele>302</ele>
        <time>2019-04-04T12:25:16Z</time>
      </trkpt>
      <trkpt lat="47.46522" lon="3.68007">
        <ele>304</ele>
        <time>2019-04-04T12:25:19Z</time>
      </trkpt>
      <trkpt lat="47.46524" lon="3.68014">
        <ele>304</ele>
        <time>2019-04-04T12:25:22Z</time>
      </trkpt>
      <trkpt lat="47.46525" lon="3.6802">
        <ele>304</ele>
        <time>2019-04-04T12:25:27Z</time>
      </trkpt>
      <trkpt lat="47.46524" lon="3.68032">
        <ele>305</ele>
        <time>2019-04-04T12:25:35Z</time>
      </trkpt>
      <trkpt lat="47.46523" lon="3.68039">
        <ele>305</ele>
        <time>2019-04-04T12:25:40Z</time>
      </trkpt>
      <trkpt lat="47.46523" lon="3.68048">
        <ele>304</ele>
        <time>2019-04-04T12:25:44Z</time>
      </trkpt>
      <trkpt lat="47.46523" lon="3.68057">
        <ele>304</ele>
        <time>2019-04-04T12:25:49Z</time>
      </trkpt>
      <trkpt lat="47.46523" lon="3.68067">
        <ele>306</ele>
        <time>2019-04-04T12:25:54Z</time>
      </trkpt>
      <trkpt lat="47.46522" lon="3.68074">
        <ele>307</ele>
        <time>2019-04-04T12:25:59Z</time>
      </trkpt>
      <trkpt lat="47.46522" lon="3.68083">
        <ele>308</ele>
        <time>2019-04-04T12:26:03Z</time>
      </trkpt>
      <trkpt lat="47.46524" lon="3.68091">
        <ele>308</ele>
        <time>2019-04-04T12:26:07Z</time>
      </trkpt>
      <trkpt lat="47.46522" lon="3.68098">
        <ele>306</ele>
        <time>2019-04-04T12:26:11Z</time>
      </trkpt>
      <trkpt lat="47.4652" lon="3.68107">
        <ele>307</ele>
        <time>2019-04-04T12:26:18Z</time>
      </trkpt>
      <trkpt lat="47.46519" lon="3.68114">
        <ele>307</ele>
        <time>2019-04-04T12:26:24Z</time>
      </trkpt>
      <trkpt lat="47.46518" lon="3.68117">
        <ele>308</ele>
        <time>2019-04-04T12:26:25Z</time>
      </trkpt>
      <trkpt lat="47.46518" lon="3.68121">
        <ele>306</ele>
        <time>2019-04-04T12:26:27Z</time>
      </trkpt>
      <trkpt lat="47.46519" lon="3.68128">
        <ele>307</ele>
        <time>2019-04-04T12:26:31Z</time>
      </trkpt>
      <trkpt lat="47.46519" lon="3.68135">
        <ele>306</ele>
        <time>2019-04-04T12:26:34Z</time>
      </trkpt>
      <trkpt lat="47.46519" lon="3.68143">
        <ele>307</ele>
        <time>2019-04-04T12:26:38Z</time>
      </trkpt>
      <trkpt lat="47.46521" lon="3.68151">
        <ele>307</ele>
        <time>2019-04-04T12:26:42Z</time>
      </trkpt>
      <trkpt lat="47.46521" lon="3.68158">
        <ele>308</ele>
        <time>2019-04-04T12:26:46Z</time>
      </trkpt>
      <trkpt lat="47.46521" lon="3.68164">
        <ele>308</ele>
        <time>2019-04-04T12:26:50Z</time>
      </trkpt>
      <trkpt lat="47.46521" lon="3.68167">
        <ele>310</ele>
        <time>2019-04-04T12:26:53Z</time>
      </trkpt>
      <trkpt lat="47.46518" lon="3.68176">
        <ele>312</ele>
        <time>2019-04-04T12:26:59Z</time>
      </trkpt>
      <trkpt lat="47.46517" lon="3.68183">
        <ele>311</ele>
        <time>2019-04-04T12:27:03Z</time>
      </trkpt>
      <trkpt lat="47.46517" lon="3.68191">
        <ele>311</ele>
        <time>2019-04-04T12:27:07Z</time>
      </trkpt>
      <trkpt lat="47.46517" lon="3.68197">
        <ele>310</ele>
        <time>2019-04-04T12:27:11Z</time>
      </trkpt>
      <trkpt lat="47.46518" lon="3.68205">
        <ele>309</ele>
        <time>2019-04-04T12:27:16Z</time>
      </trkpt>
      <trkpt lat="47.46518" lon="3.6821">
        <ele>307</ele>
        <time>2019-04-04T12:27:18Z</time>
      </trkpt>
      <trkpt lat="47.46519" lon="3.68218">
        <ele>307</ele>
        <time>2019-04-04T12:27:21Z</time>
      </trkpt>
      <trkpt lat="47.46519" lon="3.68222">
        <ele>308</ele>
        <time>2019-04-04T12:27:23Z</time>
      </trkpt>
      <trkpt lat="47.46519" lon="3.68227">
        <ele>308</ele>
        <time>2019-04-04T12:27:25Z</time>
      </trkpt>
      <trkpt lat="47.4652" lon="3.68234">
        <ele>306</ele>
        <time>2019-04-04T12:27:28Z</time>
      </trkpt>
      <trkpt lat="47.46522" lon="3.68243">
        <ele>303</ele>
        <time>2019-04-04T12:27:31Z</time>
      </trkpt>
      <trkpt lat="47.46524" lon="3.68248">
        <ele>301</ele>
        <time>2019-04-04T12:27:33Z</time>
      </trkpt>
      <trkpt lat="47.46525" lon="3.68252">
        <ele>300</ele>
        <time>2019-04-04T12:27:35Z</time>
      </trkpt>
      <trkpt lat="47.46526" lon="3.68259">
        <ele>299</ele>
        <time>2019-04-04T12:27:38Z</time>
      </trkpt>
      <trkpt lat="47.46528" lon="3.68265">
        <ele>298</ele>
        <time>2019-04-04T12:27:42Z</time>
      </trkpt>
      <trkpt lat="47.46528" lon="3.68272">
        <ele>299</ele>
        <time>2019-04-04T12:27:47Z</time>
      </trkpt>
      <trkpt lat="47.46528" lon="3.68276">
        <ele>301</ele>
        <time>2019-04-04T12:27:50Z</time>
      </trkpt>
      <trkpt lat="47.46528" lon="3.68283">
        <ele>300</ele>
        <time>2019-04-04T12:27:55Z</time>
      </trkpt>
      <trkpt lat="47.46525" lon="3.68291">
        <ele>303</ele>
        <time>2019-04-04T12:28:01Z</time>
      </trkpt>
      <trkpt lat="47.46524" lon="3.68298">
        <ele>305</ele>
        <time>2019-04-04T12:28:07Z</time>
      </trkpt>
      <trkpt lat="47.46523" lon="3.68304">
        <ele>306</ele>
        <time>2019-04-04T12:28:11Z</time>
      </trkpt>
      <trkpt lat="47.46521" lon="3.68312">
        <ele>307</ele>
        <time>2019-04-04T12:28:15Z</time>
      </trkpt>
      <trkpt lat="47.46519" lon="3.68317">
        <ele>307</ele>
        <time>2019-04-04T12:28:18Z</time>
      </trkpt>
      <trkpt lat="47.46516" lon="3.68323">
        <ele>307</ele>
        <time>2019-04-04T12:28:22Z</time>
      </trkpt>
      <trkpt lat="47.46513" lon="3.68333">
        <ele>307</ele>
        <time>2019-04-04T12:28:29Z</time>
      </trkpt>
      <trkpt lat="47.46512" lon="3.68337">
        <ele>307</ele>
        <time>2019-04-04T12:28:32Z</time>
      </trkpt>
      <trkpt lat="47.46511" lon="3.68347">
        <ele>306</ele>
        <time>2019-04-04T12:28:40Z</time>
      </trkpt>
      <trkpt lat="47.46507" lon="3.68355">
        <ele>305</ele>
        <time>2019-04-04T12:28:44Z</time>
      </trkpt>
      <trkpt lat="47.46504" lon="3.6836">
        <ele>307</ele>
        <time>2019-04-04T12:28:48Z</time>
      </trkpt>
      <trkpt lat="47.46502" lon="3.68364">
        <ele>307</ele>
        <time>2019-04-04T12:28:50Z</time>
      </trkpt>
      <trkpt lat="47.465" lon="3.68368">
        <ele>309</ele>
        <time>2019-04-04T12:28:53Z</time>
      </trkpt>
      <trkpt lat="47.46496" lon="3.68374">
        <ele>312</ele>
        <time>2019-04-04T12:28:57Z</time>
      </trkpt>
      <trkpt lat="47.46494" lon="3.68378">
        <ele>312</ele>
        <time>2019-04-04T12:29:01Z</time>
      </trkpt>
      <trkpt lat="47.46491" lon="3.68384">
        <ele>311</ele>
        <time>2019-04-04T12:29:06Z</time>
      </trkpt>
      <trkpt lat="47.46489" lon="3.68387">
        <ele>312</ele>
        <time>2019-04-04T12:29:09Z</time>
      </trkpt>
      <trkpt lat="47.46486" lon="3.68391">
        <ele>313</ele>
        <time>2019-04-04T12:29:12Z</time>
      </trkpt>
      <trkpt lat="47.46484" lon="3.68397">
        <ele>313</ele>
        <time>2019-04-04T12:29:16Z</time>
      </trkpt>
      <trkpt lat="47.46483" lon="3.68401">
        <ele>314</ele>
        <time>2019-04-04T12:29:18Z</time>
      </trkpt>
      <trkpt lat="47.46481" lon="3.68407">
        <ele>313</ele>
        <time>2019-04-04T12:29:21Z</time>
      </trkpt>
      <trkpt lat="47.46478" lon="3.68412">
        <ele>311</ele>
        <time>2019-04-04T12:29:26Z</time>
      </trkpt>
      <trkpt lat="47.46476" lon="3.68415">
        <ele>313</ele>
        <time>2019-04-04T12:29:28Z</time>
      </trkpt>
      <trkpt lat="47.46473" lon="3.68423">
        <ele>310</ele>
        <time>2019-04-04T12:29:33Z</time>
      </trkpt>
      <trkpt lat="47.4647" lon="3.68428">
        <ele>310</ele>
        <time>2019-04-04T12:29:37Z</time>
      </trkpt>
      <trkpt lat="47.46468" lon="3.68434">
        <ele>313</ele>
        <time>2019-04-04T12:29:42Z</time>
      </trkpt>
      <trkpt lat="47.46465" lon="3.68439">
        <ele>314</ele>
        <time>2019-04-04T12:29:45Z</time>
      </trkpt>
      <trkpt lat="47.46462" lon="3.68447">
        <ele>315</ele>
        <time>2019-04-04T12:29:50Z</time>
      </trkpt>
      <trkpt lat="47.46459" lon="3.68452">
        <ele>314</ele>
        <time>2019-04-04T12:29:54Z</time>
      </trkpt>
      <trkpt lat="47.46455" lon="3.68459">
        <ele>316</ele>
        <time>2019-04-04T12:29:59Z</time>
      </trkpt>
      <trkpt lat="47.46452" lon="3.68466">
        <ele>315</ele>
        <time>2019-04-04T12:30:03Z</time>
      </trkpt>
      <trkpt lat="47.46451" lon="3.68472">
        <ele>316</ele>
        <time>2019-04-04T12:30:06Z</time>
      </trkpt>
      <trkpt lat="47.46449" lon="3.68476">
        <ele>315</ele>
        <time>2019-04-04T12:30:08Z</time>
      </trkpt>
      <trkpt lat="47.46447" lon="3.68482">
        <ele>314</ele>
        <time>2019-04-04T12:30:11Z</time>
      </trkpt>
      <trkpt lat="47.46445" lon="3.68487">
        <ele>313</ele>
        <time>2019-04-04T12:30:13Z</time>
      </trkpt>
      <trkpt lat="47.46443" lon="3.68493">
        <ele>313</ele>
        <time>2019-04-04T12:30:17Z</time>
      </trkpt>
      <trkpt lat="47.46441" lon="3.68502">
        <ele>312</ele>
        <time>2019-04-04T12:30:23Z</time>
      </trkpt>
      <trkpt lat="47.46438" lon="3.6851">
        <ele>312</ele>
        <time>2019-04-04T12:30:29Z</time>
      </trkpt>
      <trkpt lat="47.46436" lon="3.68518">
        <ele>311</ele>
        <time>2019-04-04T12:30:35Z</time>
      </trkpt>
      <trkpt lat="47.46435" lon="3.68524">
        <ele>313</ele>
        <time>2019-04-04T12:30:39Z</time>
      </trkpt>
      <trkpt lat="47.46433" lon="3.68529">
        <ele>314</ele>
        <time>2019-04-04T12:30:42Z</time>
      </trkpt>
      <trkpt lat="47.46432" lon="3.68533">
        <ele>314</ele>
        <time>2019-04-04T12:30:44Z</time>
      </trkpt>
      <trkpt lat="47.4643" lon="3.68543">
        <ele>315</ele>
        <time>2019-04-04T12:30:49Z</time>
      </trkpt>
      <trkpt lat="47.46429" lon="3.68551">
        <ele>316</ele>
        <time>2019-04-04T12:30:53Z</time>
      </trkpt>
      <trkpt lat="47.46428" lon="3.68558">
        <ele>315</ele>
        <time>2019-04-04T12:30:58Z</time>
      </trkpt>
      <trkpt lat="47.46425" lon="3.68565">
        <ele>316</ele>
        <time>2019-04-04T12:31:04Z</time>
      </trkpt>
      <trkpt lat="47.46422" lon="3.68575">
        <ele>316</ele>
        <time>2019-04-04T12:31:09Z</time>
      </trkpt>
      <trkpt lat="47.46421" lon="3.68587">
        <ele>316</ele>
        <time>2019-04-04T12:31:15Z</time>
      </trkpt>
      <trkpt lat="47.4642" lon="3.6859">
        <ele>316</ele>
        <time>2019-04-04T12:31:17Z</time>
      </trkpt>
      <trkpt lat="47.4642" lon="3.68597">
        <ele>316</ele>
        <time>2019-04-04T12:31:21Z</time>
      </trkpt>
      <trkpt lat="47.46418" lon="3.68604">
        <ele>317</ele>
        <time>2019-04-04T12:31:24Z</time>
      </trkpt>
      <trkpt lat="47.46418" lon="3.68607">
        <ele>317</ele>
        <time>2019-04-04T12:31:26Z</time>
      </trkpt>
      <trkpt lat="47.46417" lon="3.68613">
        <ele>317</ele>
        <time>2019-04-04T12:31:28Z</time>
      </trkpt>
      <trkpt lat="47.46416" lon="3.68624">
        <ele>317</ele>
        <time>2019-04-04T12:31:34Z</time>
      </trkpt>
      <trkpt lat="47.46416" lon="3.68631">
        <ele>319</ele>
        <time>2019-04-04T12:31:39Z</time>
      </trkpt>
      <trkpt lat="47.46415" lon="3.68638">
        <ele>320</ele>
        <time>2019-04-04T12:31:42Z</time>
      </trkpt>
      <trkpt lat="47.46414" lon="3.68642">
        <ele>321</ele>
        <time>2019-04-04T12:31:44Z</time>
      </trkpt>
      <trkpt lat="47.46415" lon="3.68649">
        <ele>321</ele>
        <time>2019-04-04T12:31:47Z</time>
      </trkpt>
      <trkpt lat="47.46418" lon="3.6866">
        <ele>321</ele>
        <time>2019-04-04T12:31:52Z</time>
      </trkpt>
      <trkpt lat="47.46419" lon="3.68667">
        <ele>321</ele>
        <time>2019-04-04T12:31:55Z</time>
      </trkpt>
      <trkpt lat="47.4642" lon="3.68672">
        <ele>322</ele>
        <time>2019-04-04T12:31:58Z</time>
      </trkpt>
      <trkpt lat="47.46421" lon="3.68677">
        <ele>320</ele>
        <time>2019-04-04T12:32:01Z</time>
      </trkpt>
      <trkpt lat="47.46421" lon="3.68684">
        <ele>318</ele>
        <time>2019-04-04T12:32:04Z</time>
      </trkpt>
      <trkpt lat="47.46421" lon="3.6869">
        <ele>317</ele>
        <time>2019-04-04T12:32:09Z</time>
      </trkpt>
      <trkpt lat="47.46422" lon="3.68696">
        <ele>317</ele>
        <time>2019-04-04T12:32:17Z</time>
      </trkpt>
      <trkpt lat="47.46422" lon="3.687">
        <ele>317</ele>
        <time>2019-04-04T12:32:19Z</time>
      </trkpt>
      <trkpt lat="47.46422" lon="3.68708">
        <ele>319</ele>
        <time>2019-04-04T12:32:23Z</time>
      </trkpt>
      <trkpt lat="47.46423" lon="3.68713">
        <ele>318</ele>
        <time>2019-04-04T12:32:27Z</time>
      </trkpt>
      <trkpt lat="47.46423" lon="3.68719">
        <ele>319</ele>
        <time>2019-04-04T12:32:30Z</time>
      </trkpt>
      <trkpt lat="47.46423" lon="3.68729">
        <ele>320</ele>
        <time>2019-04-04T12:32:36Z</time>
      </trkpt>
      <trkpt lat="47.46422" lon="3.68733">
        <ele>321</ele>
        <time>2019-04-04T12:32:38Z</time>
      </trkpt>
      <trkpt lat="47.46424" lon="3.68739">
        <ele>321</ele>
        <time>2019-04-04T12:32:42Z</time>
      </trkpt>
      <trkpt lat="47.46426" lon="3.68746">
        <ele>321</ele>
        <time>2019-04-04T12:32:46Z</time>
      </trkpt>
      <trkpt lat="47.46427" lon="3.68757">
        <ele>320</ele>
        <time>2019-04-04T12:32:52Z</time>
      </trkpt>
      <trkpt lat="47.46427" lon="3.68761">
        <ele>322</ele>
        <time>2019-04-04T12:32:54Z</time>
      </trkpt>
      <trkpt lat="47.46428" lon="3.68767">
        <ele>320</ele>
        <time>2019-04-04T12:32:58Z</time>
      </trkpt>
      <trkpt lat="47.4643" lon="3.68775">
        <ele>321</ele>
        <time>2019-04-04T12:33:02Z</time>
      </trkpt>
      <trkpt lat="47.46432" lon="3.68783">
        <ele>320</ele>
        <time>2019-04-04T12:33:06Z</time>
      </trkpt>
      <trkpt lat="47.46433" lon="3.68789">
        <ele>322</ele>
        <time>2019-04-04T12:33:10Z</time>
      </trkpt>
      <trkpt lat="47.46434" lon="3.68795">
        <ele>321</ele>
        <time>2019-04-04T12:33:13Z</time>
      </trkpt>
      <trkpt lat="47.46433" lon="3.68802">
        <ele>323</ele>
        <time>2019-04-04T12:33:16Z</time>
      </trkpt>
      <trkpt lat="47.46433" lon="3.6881">
        <ele>321</ele>
        <time>2019-04-04T12:33:20Z</time>
      </trkpt>
      <trkpt lat="47.46433" lon="3.68815">
        <ele>321</ele>
        <time>2019-04-04T12:33:22Z</time>
      </trkpt>
      <trkpt lat="47.46434" lon="3.68824">
        <ele>320</ele>
        <time>2019-04-04T12:33:27Z</time>
      </trkpt>
      <trkpt lat="47.46434" lon="3.68829">
        <ele>319</ele>
        <time>2019-04-04T12:33:29Z</time>
      </trkpt>
      <trkpt lat="47.46436" lon="3.68836">
        <ele>317</ele>
        <time>2019-04-04T12:33:34Z</time>
      </trkpt>
      <trkpt lat="47.46438" lon="3.68844">
        <ele>316</ele>
        <time>2019-04-04T12:33:39Z</time>
      </trkpt>
      <trkpt lat="47.46438" lon="3.68848">
        <ele>317</ele>
        <time>2019-04-04T12:33:41Z</time>
      </trkpt>
      <trkpt lat="47.46439" lon="3.68855">
        <ele>317</ele>
        <time>2019-04-04T12:33:44Z</time>
      </trkpt>
      <trkpt lat="47.46439" lon="3.68858">
        <ele>317</ele>
        <time>2019-04-04T12:33:46Z</time>
      </trkpt>
      <trkpt lat="47.46441" lon="3.68865">
        <ele>318</ele>
        <time>2019-04-04T12:33:50Z</time>
      </trkpt>
      <trkpt lat="47.46444" lon="3.68872">
        <ele>319</ele>
        <time>2019-04-04T12:33:55Z</time>
      </trkpt>
      <trkpt lat="47.46448" lon="3.68878">
        <ele>320</ele>
        <time>2019-04-04T12:33:59Z</time>
      </trkpt>
      <trkpt lat="47.46451" lon="3.68885">
        <ele>319</ele>
        <time>2019-04-04T12:34:03Z</time>
      </trkpt>
      <trkpt lat="47.46455" lon="3.68892">
        <ele>319</ele>
        <time>2019-04-04T12:34:07Z</time>
      </trkpt>
      <trkpt lat="47.46459" lon="3.68897">
        <ele>320</ele>
        <time>2019-04-04T12:34:11Z</time>
      </trkpt>
      <trkpt lat="47.46462" lon="3.68903">
        <ele>320</ele>
        <time>2019-04-04T12:34:15Z</time>
      </trkpt>
      <trkpt lat="47.46465" lon="3.68909">
        <ele>319</ele>
        <time>2019-04-04T12:34:19Z</time>
      </trkpt>
      <trkpt lat="47.46469" lon="3.68914">
        <ele>320</ele>
        <time>2019-04-04T12:34:22Z</time>
      </trkpt>
      <trkpt lat="47.46471" lon="3.6892">
        <ele>320</ele>
        <time>2019-04-04T12:34:25Z</time>
      </trkpt>
      <trkpt lat="47.46473" lon="3.68923">
        <ele>319</ele>
        <time>2019-04-04T12:34:27Z</time>
      </trkpt>
      <trkpt lat="47.46477" lon="3.68932">
        <ele>316</ele>
        <time>2019-04-04T12:34:35Z</time>
      </trkpt>
      <trkpt lat="47.46479" lon="3.68939">
        <ele>316</ele>
        <time>2019-04-04T12:34:38Z</time>
      </trkpt>
      <trkpt lat="47.46481" lon="3.68945">
        <ele>316</ele>
        <time>2019-04-04T12:34:41Z</time>
      </trkpt>
      <trkpt lat="47.46482" lon="3.68949">
        <ele>316</ele>
        <time>2019-04-04T12:34:43Z</time>
      </trkpt>
      <trkpt lat="47.46486" lon="3.68957">
        <ele>316</ele>
        <time>2019-04-04T12:34:47Z</time>
      </trkpt>
      <trkpt lat="47.46489" lon="3.68962">
        <ele>316</ele>
        <time>2019-04-04T12:34:50Z</time>
      </trkpt>
      <trkpt lat="47.46491" lon="3.68966">
        <ele>316</ele>
        <time>2019-04-04T12:34:53Z</time>
      </trkpt>
      <trkpt lat="47.46494" lon="3.68972">
        <ele>319</ele>
        <time>2019-04-04T12:34:59Z</time>
      </trkpt>
      <trkpt lat="47.46495" lon="3.6898">
        <ele>318</ele>
        <time>2019-04-04T12:35:03Z</time>
      </trkpt>
      <trkpt lat="47.46496" lon="3.68983">
        <ele>318</ele>
        <time>2019-04-04T12:35:11Z</time>
      </trkpt>
      <trkpt lat="47.46499" lon="3.68989">
        <ele>317</ele>
        <time>2019-04-04T12:38:58Z</time>
      </trkpt>
      <trkpt lat="47.46502" lon="3.68993">
        <ele>317</ele>
        <time>2019-04-04T12:39:13Z</time>
      </trkpt>
      <trkpt lat="47.46503" lon="3.69">
        <ele>315</ele>
        <time>2019-04-04T12:39:19Z</time>
      </trkpt>
      <trkpt lat="47.46506" lon="3.69007">
        <ele>315</ele>
        <time>2019-04-04T12:39:29Z</time>
      </trkpt>
      <trkpt lat="47.46506" lon="3.69014">
        <ele>314</ele>
        <time>2019-04-04T12:39:33Z</time>
      </trkpt>
      <trkpt lat="47.46507" lon="3.69019">
        <ele>313</ele>
        <time>2019-04-04T12:39:36Z</time>
      </trkpt>
      <trkpt lat="47.46507" lon="3.69026">
        <ele>313</ele>
        <time>2019-04-04T12:39:40Z</time>
      </trkpt>
      <trkpt lat="47.46507" lon="3.6903">
        <ele>313</ele>
        <time>2019-04-04T12:39:42Z</time>
      </trkpt>
      <trkpt lat="47.46507" lon="3.69035">
        <ele>315</ele>
        <time>2019-04-04T12:39:44Z</time>
      </trkpt>
      <trkpt lat="47.46509" lon="3.69042">
        <ele>314</ele>
        <time>2019-04-04T12:39:47Z</time>
      </trkpt>
      <trkpt lat="47.46512" lon="3.69048">
        <ele>314</ele>
        <time>2019-04-04T12:39:51Z</time>
      </trkpt>
      <trkpt lat="47.46513" lon="3.69056">
        <ele>313</ele>
        <time>2019-04-04T12:39:56Z</time>
      </trkpt>
      <trkpt lat="47.46513" lon="3.69064">
        <ele>314</ele>
        <time>2019-04-04T12:40:01Z</time>
      </trkpt>
      <trkpt lat="47.46513" lon="3.69072">
        <ele>314</ele>
        <time>2019-04-04T12:40:06Z</time>
      </trkpt>
      <trkpt lat="47.46515" lon="3.69078">
        <ele>314</ele>
        <time>2019-04-04T12:40:10Z</time>
      </trkpt>
      <trkpt lat="47.46517" lon="3.69084">
        <ele>316</ele>
        <time>2019-04-04T12:40:14Z</time>
      </trkpt>
      <trkpt lat="47.46518" lon="3.69091">
        <ele>316</ele>
        <time>2019-04-04T12:40:18Z</time>
      </trkpt>
      <trkpt lat="47.46516" lon="3.69099">
        <ele>318</ele>
        <time>2019-04-04T12:40:23Z</time>
      </trkpt>
      <trkpt lat="47.46517" lon="3.69106">
        <ele>319</ele>
        <time>2019-04-04T12:40:27Z</time>
      </trkpt>
      <trkpt lat="47.46518" lon="3.69115">
        <ele>318</ele>
        <time>2019-04-04T12:40:31Z</time>
      </trkpt>
      <trkpt lat="47.46518" lon="3.69119">
        <ele>319</ele>
        <time>2019-04-04T12:40:33Z</time>
      </trkpt>
      <trkpt lat="47.46519" lon="3.69129">
        <ele>319</ele>
        <time>2019-04-04T12:40:37Z</time>
      </trkpt>
      <trkpt lat="47.46519" lon="3.69137">
        <ele>319</ele>
        <time>2019-04-04T12:40:42Z</time>
      </trkpt>
      <trkpt lat="47.46518" lon="3.69143">
        <ele>319</ele>
        <time>2019-04-04T12:40:47Z</time>
      </trkpt>
      <trkpt lat="47.46518" lon="3.69146">
        <ele>319</ele>
        <time>2019-04-04T12:40:49Z</time>
      </trkpt>
      <trkpt lat="47.46518" lon="3.6915">
        <ele>319</ele>
        <time>2019-04-04T12:40:51Z</time>
      </trkpt>
      <trkpt lat="47.46519" lon="3.69157">
        <ele>320</ele>
        <time>2019-04-04T12:40:55Z</time>
      </trkpt>
      <trkpt lat="47.46521" lon="3.69164">
        <ele>319</ele>
        <time>2019-04-04T12:40:58Z</time>
      </trkpt>
      <trkpt lat="47.46523" lon="3.69172">
        <ele>319</ele>
        <time>2019-04-04T12:41:01Z</time>
      </trkpt>
      <trkpt lat="47.46524" lon="3.69178">
        <ele>319</ele>
        <time>2019-04-04T12:41:04Z</time>
      </trkpt>
      <trkpt lat="47.46525" lon="3.69182">
        <ele>319</ele>
        <time>2019-04-04T12:41:06Z</time>
      </trkpt>
      <trkpt lat="47.46527" lon="3.6919">
        <ele>318</ele>
        <time>2019-04-04T12:41:10Z</time>
      </trkpt>
      <trkpt lat="47.46527" lon="3.69195">
        <ele>319</ele>
        <time>2019-04-04T12:41:13Z</time>
      </trkpt>
      <trkpt lat="47.46528" lon="3.69202">
        <ele>318</ele>
        <time>2019-04-04T12:41:18Z</time>
      </trkpt>
      <trkpt lat="47.46529" lon="3.69209">
        <ele>317</ele>
        <time>2019-04-04T12:41:22Z</time>
      </trkpt>
      <trkpt lat="47.4653" lon="3.69217">
        <ele>318</ele>
        <time>2019-04-04T12:41:26Z</time>
      </trkpt>
      <trkpt lat="47.4653" lon="3.69225">
        <ele>318</ele>
        <time>2019-04-04T12:41:31Z</time>
      </trkpt>
      <trkpt lat="47.46529" lon="3.69233">
        <ele>320</ele>
        <time>2019-04-04T12:41:39Z</time>
      </trkpt>
      <trkpt lat="47.4653" lon="3.69243">
        <ele>322</ele>
        <time>2019-04-04T12:41:44Z</time>
      </trkpt>
      <trkpt lat="47.46529" lon="3.69251">
        <ele>322</ele>
        <time>2019-04-04T12:41:48Z</time>
      </trkpt>
      <trkpt lat="47.46529" lon="3.69259">
        <ele>324</ele>
        <time>2019-04-04T12:41:52Z</time>
      </trkpt>
      <trkpt lat="47.46528" lon="3.69266">
        <ele>325</ele>
        <time>2019-04-04T12:41:57Z</time>
      </trkpt>
      <trkpt lat="47.46529" lon="3.69273">
        <ele>324</ele>
        <time>2019-04-04T12:42:02Z</time>
      </trkpt>
      <trkpt lat="47.46529" lon="3.6928">
        <ele>325</ele>
        <time>2019-04-04T12:42:05Z</time>
      </trkpt>
      <trkpt lat="47.46529" lon="3.69285">
        <ele>325</ele>
        <time>2019-04-04T12:42:07Z</time>
      </trkpt>
      <trkpt lat="47.46529" lon="3.69289">
        <ele>326</ele>
        <time>2019-04-04T12:42:09Z</time>
      </trkpt>
      <trkpt lat="47.4653" lon="3.69297">
        <ele>326</ele>
        <time>2019-04-04T12:42:14Z</time>
      </trkpt>
      <trkpt lat="47.4653" lon="3.69302">
        <ele>327</ele>
        <time>2019-04-04T12:42:17Z</time>
      </trkpt>
      <trkpt lat="47.46532" lon="3.69308">
        <ele>327</ele>
        <time>2019-04-04T12:42:21Z</time>
      </trkpt>
      <trkpt lat="47.46532" lon="3.69315">
        <ele>327</ele>
        <time>2019-04-04T12:42:25Z</time>
      </trkpt>
      <trkpt lat="47.46533" lon="3.69324">
        <ele>326</ele>
        <time>2019-04-04T12:42:30Z</time>
      </trkpt>
      <trkpt lat="47.46535" lon="3.69331">
        <ele>325</ele>
        <time>2019-04-04T12:42:33Z</time>
      </trkpt>
      <trkpt lat="47.46536" lon="3.69336">
        <ele>325</ele>
        <time>2019-04-04T12:42:36Z</time>
      </trkpt>
      <trkpt lat="47.46537" lon="3.69344">
        <ele>325</ele>
        <time>2019-04-04T12:42:41Z</time>
      </trkpt>
      <trkpt lat="47.46539" lon="3.69351">
        <ele>326</ele>
        <time>2019-04-04T12:42:46Z</time>
      </trkpt>
      <trkpt lat="47.46538" lon="3.69361">
        <ele>326</ele>
        <time>2019-04-04T12:42:51Z</time>
      </trkpt>
      <trkpt lat="47.46539" lon="3.69369">
        <ele>329</ele>
        <time>2019-04-04T12:42:57Z</time>
      </trkpt>
      <trkpt lat="47.46539" lon="3.69373">
        <ele>329</ele>
        <time>2019-04-04T12:42:59Z</time>
      </trkpt>
      <trkpt lat="47.4654" lon="3.69378">
        <ele>327</ele>
        <time>2019-04-04T12:43:02Z</time>
      </trkpt>
      <trkpt lat="47.4654" lon="3.69386">
        <ele>326</ele>
        <time>2019-04-04T12:43:06Z</time>
      </trkpt>
      <trkpt lat="47.4654" lon="3.69389">
        <ele>326</ele>
        <time>2019-04-04T12:43:08Z</time>
      </trkpt>
      <trkpt lat="47.4654" lon="3.69394">
        <ele>326</ele>
        <time>2019-04-04T12:43:10Z</time>
      </trkpt>
      <trkpt lat="47.46539" lon="3.69402">
        <ele>326</ele>
        <time>2019-04-04T12:43:15Z</time>
      </trkpt>
      <trkpt lat="47.46538" lon="3.69408">
        <ele>326</ele>
        <time>2019-04-04T12:43:19Z</time>
      </trkpt>
      <trkpt lat="47.46538" lon="3.69417">
        <ele>326</ele>
        <time>2019-04-04T12:43:24Z</time>
      </trkpt>
      <trkpt lat="47.46536" lon="3.69423">
        <ele>326</ele>
        <time>2019-04-04T12:43:28Z</time>
      </trkpt>
      <trkpt lat="47.46536" lon="3.69427">
        <ele>326</ele>
        <time>2019-04-04T12:43:31Z</time>
      </trkpt>
      <trkpt lat="47.46536" lon="3.69435">
        <ele>324</ele>
        <time>2019-04-04T12:43:35Z</time>
      </trkpt>
      <trkpt lat="47.46535" lon="3.69443">
        <ele>321</ele>
        <time>2019-04-04T12:43:39Z</time>
      </trkpt>
      <trkpt lat="47.46535" lon="3.6945">
        <ele>323</ele>
        <time>2019-04-04T12:43:43Z</time>
      </trkpt>
      <trkpt lat="47.46533" lon="3.69457">
        <ele>322</ele>
        <time>2019-04-04T12:43:47Z</time>
      </trkpt>
      <trkpt lat="47.46531" lon="3.69466">
        <ele>323</ele>
        <time>2019-04-04T12:43:52Z</time>
      </trkpt>
      <trkpt lat="47.46529" lon="3.69471">
        <ele>321</ele>
        <time>2019-04-04T12:43:54Z</time>
      </trkpt>
      <trkpt lat="47.46528" lon="3.69479">
        <ele>320</ele>
        <time>2019-04-04T12:43:58Z</time>
      </trkpt>
      <trkpt lat="47.46526" lon="3.69486">
        <ele>319</ele>
        <time>2019-04-04T12:44:02Z</time>
      </trkpt>
      <trkpt lat="47.46526" lon="3.69494">
        <ele>320</ele>
        <time>2019-04-04T12:44:08Z</time>
      </trkpt>
      <trkpt lat="47.46526" lon="3.69502">
        <ele>320</ele>
        <time>2019-04-04T12:44:12Z</time>
      </trkpt>
      <trkpt lat="47.46524" lon="3.69509">
        <ele>321</ele>
        <time>2019-04-04T12:44:16Z</time>
      </trkpt>
      <trkpt lat="47.46523" lon="3.69515">
        <ele>319</ele>
        <time>2019-04-04T12:44:19Z</time>
      </trkpt>
      <trkpt lat="47.46521" lon="3.69523">
        <ele>319</ele>
        <time>2019-04-04T12:44:23Z</time>
      </trkpt>
      <trkpt lat="47.4652" lon="3.69527">
        <ele>319</ele>
        <time>2019-04-04T12:44:25Z</time>
      </trkpt>
      <trkpt lat="47.4652" lon="3.69535">
        <ele>320</ele>
        <time>2019-04-04T12:44:31Z</time>
      </trkpt>
      <trkpt lat="47.46516" lon="3.69542">
        <ele>320</ele>
        <time>2019-04-04T12:44:38Z</time>
      </trkpt>
      <trkpt lat="47.46513" lon="3.6955">
        <ele>320</ele>
        <time>2019-04-04T12:44:42Z</time>
      </trkpt>
      <trkpt lat="47.46512" lon="3.69553">
        <ele>320</ele>
        <time>2019-04-04T12:44:44Z</time>
      </trkpt>
      <trkpt lat="47.46511" lon="3.6956">
        <ele>320</ele>
        <time>2019-04-04T12:44:47Z</time>
      </trkpt>
      <trkpt lat="47.4651" lon="3.69565">
        <ele>322</ele>
        <time>2019-04-04T12:44:50Z</time>
      </trkpt>
      <trkpt lat="47.46508" lon="3.69572">
        <ele>324</ele>
        <time>2019-04-04T12:44:55Z</time>
      </trkpt>
      <trkpt lat="47.46505" lon="3.69578">
        <ele>321</ele>
        <time>2019-04-04T12:44:59Z</time>
      </trkpt>
      <trkpt lat="47.46503" lon="3.69587">
        <ele>324</ele>
        <time>2019-04-04T12:45:04Z</time>
      </trkpt>
      <trkpt lat="47.46501" lon="3.69593">
        <ele>323</ele>
        <time>2019-04-04T12:45:08Z</time>
      </trkpt>
      <trkpt lat="47.46502" lon="3.69601">
        <ele>325</ele>
        <time>2019-04-04T12:45:12Z</time>
      </trkpt>
      <trkpt lat="47.46502" lon="3.69605">
        <ele>324</ele>
        <time>2019-04-04T12:45:15Z</time>
      </trkpt>
      <trkpt lat="47.465" lon="3.69612">
        <ele>322</ele>
        <time>2019-04-04T12:45:19Z</time>
      </trkpt>
      <trkpt lat="47.46499" lon="3.69615">
        <ele>323</ele>
        <time>2019-04-04T12:45:22Z</time>
      </trkpt>
      <trkpt lat="47.46493" lon="3.69624">
        <ele>323</ele>
        <time>2019-04-04T12:45:27Z</time>
      </trkpt>
      <trkpt lat="47.46491" lon="3.6963">
        <ele>324</ele>
        <time>2019-04-04T12:45:31Z</time>
      </trkpt>
      <trkpt lat="47.46487" lon="3.69635">
        <ele>324</ele>
        <time>2019-04-04T12:45:34Z</time>
      </trkpt>
      <trkpt lat="47.46484" lon="3.69643">
        <ele>325</ele>
        <time>2019-04-04T12:45:38Z</time>
      </trkpt>
      <trkpt lat="47.46481" lon="3.69652">
        <ele>324</ele>
        <time>2019-04-04T12:45:44Z</time>
      </trkpt>
      <trkpt lat="47.4648" lon="3.69659">
        <ele>325</ele>
        <time>2019-04-04T12:45:47Z</time>
      </trkpt>
      <trkpt lat="47.46479" lon="3.69664">
        <ele>325</ele>
        <time>2019-04-04T12:45:50Z</time>
      </trkpt>
      <trkpt lat="47.46478" lon="3.69668">
        <ele>324</ele>
        <time>2019-04-04T12:45:52Z</time>
      </trkpt>
      <trkpt lat="47.46476" lon="3.69674">
        <ele>324</ele>
        <time>2019-04-04T12:45:55Z</time>
      </trkpt>
      <trkpt lat="47.46475" lon="3.69683">
        <ele>324</ele>
        <time>2019-04-04T12:46:00Z</time>
      </trkpt>
      <trkpt lat="47.46474" lon="3.69689">
        <ele>325</ele>
        <time>2019-04-04T12:46:03Z</time>
      </trkpt>
      <trkpt lat="47.4647" lon="3.69697">
        <ele>326</ele>
        <time>2019-04-04T12:46:08Z</time>
      </trkpt>
      <trkpt lat="47.4647" lon="3.69704">
        <ele>325</ele>
        <time>2019-04-04T12:46:13Z</time>
      </trkpt>
      <trkpt lat="47.4647" lon="3.69704">
        <ele>325</ele>
        <time>2019-04-04T12:46:22Z</time>
      </trkpt>
      <trkpt lat="47.4647" lon="3.69704">
        <ele>325</ele>
        <time>2019-04-04T12:46:23Z</time>
      </trkpt>
      <trkpt lat="47.46469" lon="3.69715">
        <ele>324</ele>
        <time>2019-04-04T12:47:07Z</time>
      </trkpt>
      <trkpt lat="47.46464" lon="3.69718">
        <ele>321</ele>
        <time>2019-04-04T12:47:13Z</time>
      </trkpt>
      <trkpt lat="47.46462" lon="3.69724">
        <ele>318</ele>
        <time>2019-04-04T12:47:17Z</time>
      </trkpt>
      <trkpt lat="47.4646" lon="3.69729">
        <ele>318</ele>
        <time>2019-04-04T12:47:20Z</time>
      </trkpt>
      <trkpt lat="47.46459" lon="3.69733">
        <ele>318</ele>
        <time>2019-04-04T12:47:23Z</time>
      </trkpt>
      <trkpt lat="47.46457" lon="3.69741">
        <ele>317</ele>
        <time>2019-04-04T12:47:27Z</time>
      </trkpt>
      <trkpt lat="47.46456" lon="3.69747">
        <ele>317</ele>
        <time>2019-04-04T12:47:30Z</time>
      </trkpt>
      <trkpt lat="47.46455" lon="3.69752">
        <ele>314</ele>
        <time>2019-04-04T12:47:33Z</time>
      </trkpt>
      <trkpt lat="47.46453" lon="3.6976">
        <ele>313</ele>
        <time>2019-04-04T12:47:38Z</time>
      </trkpt>
      <trkpt lat="47.46454" lon="3.69768">
        <ele>313</ele>
        <time>2019-04-04T12:47:42Z</time>
      </trkpt>
      <trkpt lat="47.46451" lon="3.69774">
        <ele>315</ele>
        <time>2019-04-04T12:47:47Z</time>
      </trkpt>
      <trkpt lat="47.4645" lon="3.6978">
        <ele>316</ele>
        <time>2019-04-04T12:47:51Z</time>
      </trkpt>
      <trkpt lat="47.46449" lon="3.69785">
        <ele>316</ele>
        <time>2019-04-04T12:47:53Z</time>
      </trkpt>
      <trkpt lat="47.46448" lon="3.69791">
        <ele>316</ele>
        <time>2019-04-04T12:47:56Z</time>
      </trkpt>
      <trkpt lat="47.46445" lon="3.69797">
        <ele>316</ele>
        <time>2019-04-04T12:48:01Z</time>
      </trkpt>
      <trkpt lat="47.46443" lon="3.69801">
        <ele>316</ele>
        <time>2019-04-04T12:48:03Z</time>
      </trkpt>
      <trkpt lat="47.4644" lon="3.69806">
        <ele>316</ele>
        <time>2019-04-04T12:48:06Z</time>
      </trkpt>
      <trkpt lat="47.46438" lon="3.6981">
        <ele>316</ele>
        <time>2019-04-04T12:48:10Z</time>
      </trkpt>
      <trkpt lat="47.46433" lon="3.69817">
        <ele>316</ele>
        <time>2019-04-04T12:48:17Z</time>
      </trkpt>
      <trkpt lat="47.46431" lon="3.69828">
        <ele>317</ele>
        <time>2019-04-04T12:48:23Z</time>
      </trkpt>
      <trkpt lat="47.46429" lon="3.69835">
        <ele>315</ele>
        <time>2019-04-04T12:48:27Z</time>
      </trkpt>
      <trkpt lat="47.46428" lon="3.69839">
        <ele>315</ele>
        <time>2019-04-04T12:48:29Z</time>
      </trkpt>
      <trkpt lat="47.46426" lon="3.69847">
        <ele>311</ele>
        <time>2019-04-04T12:48:35Z</time>
      </trkpt>
      <trkpt lat="47.46423" lon="3.69854">
        <ele>313</ele>
        <time>2019-04-04T12:48:39Z</time>
      </trkpt>
      <trkpt lat="47.46422" lon="3.69857">
        <ele>313</ele>
        <time>2019-04-04T12:48:41Z</time>
      </trkpt>
      <trkpt lat="47.46419" lon="3.69863">
        <ele>312</ele>
        <time>2019-04-04T12:48:45Z</time>
      </trkpt>
      <trkpt lat="47.46418" lon="3.69871">
        <ele>316</ele>
        <time>2019-04-04T12:48:49Z</time>
      </trkpt>
      <trkpt lat="47.46416" lon="3.69878">
        <ele>319</ele>
        <time>2019-04-04T12:48:53Z</time>
      </trkpt>
      <trkpt lat="47.46415" lon="3.69886">
        <ele>323</ele>
        <time>2019-04-04T12:48:59Z</time>
      </trkpt>
      <trkpt lat="47.46412" lon="3.69895">
        <ele>322</ele>
        <time>2019-04-04T12:49:07Z</time>
      </trkpt>
      <trkpt lat="47.4641" lon="3.69902">
        <ele>323</ele>
        <time>2019-04-04T12:49:10Z</time>
      </trkpt>
      <trkpt lat="47.46409" lon="3.69907">
        <ele>323</ele>
        <time>2019-04-04T12:49:12Z</time>
      </trkpt>
      <trkpt lat="47.46406" lon="3.69915">
        <ele>325</ele>
        <time>2019-04-04T12:49:18Z</time>
      </trkpt>
      <trkpt lat="47.46404" lon="3.69921">
        <ele>324</ele>
        <time>2019-04-04T12:49:22Z</time>
      </trkpt>
      <trkpt lat="47.46402" lon="3.69928">
        <ele>322</ele>
        <time>2019-04-04T12:49:26Z</time>
      </trkpt>
      <trkpt lat="47.46401" lon="3.69935">
        <ele>324</ele>
        <time>2019-04-04T12:49:30Z</time>
      </trkpt>
      <trkpt lat="47.46398" lon="3.69943">
        <ele>325</ele>
        <time>2019-04-04T12:49:35Z</time>
      </trkpt>
      <trkpt lat="47.46396" lon="3.69948">
        <ele>325</ele>
        <time>2019-04-04T12:49:38Z</time>
      </trkpt>
      <trkpt lat="47.46393" lon="3.69957">
        <ele>326</ele>
        <time>2019-04-04T12:49:45Z</time>
      </trkpt>
      <trkpt lat="47.46393" lon="3.69965">
        <ele>327</ele>
        <time>2019-04-04T12:49:49Z</time>
      </trkpt>
      <trkpt lat="47.4639" lon="3.6997">
        <ele>327</ele>
        <time>2019-04-04T12:49:52Z</time>
      </trkpt>
      <trkpt lat="47.46389" lon="3.69977">
        <ele>328</ele>
        <time>2019-04-04T12:49:56Z</time>
      </trkpt>
      <trkpt lat="47.46388" lon="3.69984">
        <ele>329</ele>
        <time>2019-04-04T12:50:00Z</time>
      </trkpt>
      <trkpt lat="47.46388" lon="3.69992">
        <ele>329</ele>
        <time>2019-04-04T12:50:06Z</time>
      </trkpt>
      <trkpt lat="47.46387" lon="3.70001">
        <ele>329</ele>
        <time>2019-04-04T12:50:10Z</time>
      </trkpt>
      <trkpt lat="47.46387" lon="3.70006">
        <ele>329</ele>
        <time>2019-04-04T12:50:13Z</time>
      </trkpt>
      <trkpt lat="47.46387" lon="3.70011">
        <ele>329</ele>
        <time>2019-04-04T12:50:15Z</time>
      </trkpt>
      <trkpt lat="47.46387" lon="3.70018">
        <ele>330</ele>
        <time>2019-04-04T12:50:18Z</time>
      </trkpt>
      <trkpt lat="47.46385" lon="3.70025">
        <ele>328</ele>
        <time>2019-04-04T12:50:21Z</time>
      </trkpt>
      <trkpt lat="47.46383" lon="3.70032">
        <ele>326</ele>
        <time>2019-04-04T12:50:25Z</time>
      </trkpt>
      <trkpt lat="47.46383" lon="3.70039">
        <ele>326</ele>
        <time>2019-04-04T12:50:29Z</time>
      </trkpt>
      <trkpt lat="47.46382" lon="3.70046">
        <ele>324</ele>
        <time>2019-04-04T12:50:33Z</time>
      </trkpt>
      <trkpt lat="47.46379" lon="3.70056">
        <ele>325</ele>
        <time>2019-04-04T12:50:39Z</time>
      </trkpt>
      <trkpt lat="47.46378" lon="3.7006">
        <ele>325</ele>
        <time>2019-04-04T12:50:41Z</time>
      </trkpt>
      <trkpt lat="47.46377" lon="3.7007">
        <ele>328</ele>
        <time>2019-04-04T12:50:46Z</time>
      </trkpt>
      <trkpt lat="47.46375" lon="3.70082">
        <ele>330</ele>
        <time>2019-04-04T12:50:54Z</time>
      </trkpt>
      <trkpt lat="47.46374" lon="3.70087">
        <ele>330</ele>
        <time>2019-04-04T12:50:58Z</time>
      </trkpt>
      <trkpt lat="47.46373" lon="3.70093">
        <ele>330</ele>
        <time>2019-04-04T12:51:01Z</time>
      </trkpt>
      <trkpt lat="47.46372" lon="3.70097">
        <ele>330</ele>
        <time>2019-04-04T12:51:03Z</time>
      </trkpt>
      <trkpt lat="47.46371" lon="3.70104">
        <ele>331</ele>
        <time>2019-04-04T12:51:06Z</time>
      </trkpt>
      <trkpt lat="47.46369" lon="3.7011">
        <ele>332</ele>
        <time>2019-04-04T12:51:09Z</time>
      </trkpt>
      <trkpt lat="47.46368" lon="3.70114">
        <ele>331</ele>
        <time>2019-04-04T12:51:11Z</time>
      </trkpt>
      <trkpt lat="47.46366" lon="3.70119">
        <ele>331</ele>
        <time>2019-04-04T12:51:14Z</time>
      </trkpt>
      <trkpt lat="47.46364" lon="3.70125">
        <ele>331</ele>
        <time>2019-04-04T12:51:17Z</time>
      </trkpt>
      <trkpt lat="47.46362" lon="3.70132">
        <ele>330</ele>
        <time>2019-04-04T12:51:21Z</time>
      </trkpt>
      <trkpt lat="47.46362" lon="3.7014">
        <ele>332</ele>
        <time>2019-04-04T12:51:25Z</time>
      </trkpt>
      <trkpt lat="47.46362" lon="3.70144">
        <ele>332</ele>
        <time>2019-04-04T12:51:29Z</time>
      </trkpt>
      <trkpt lat="47.46359" lon="3.70152">
        <ele>332</ele>
        <time>2019-04-04T12:51:34Z</time>
      </trkpt>
      <trkpt lat="47.46358" lon="3.70164">
        <ele>332</ele>
        <time>2019-04-04T12:51:40Z</time>
      </trkpt>
      <trkpt lat="47.46359" lon="3.70172">
        <ele>332</ele>
        <time>2019-04-04T12:51:43Z</time>
      </trkpt>
      <trkpt lat="47.46358" lon="3.70179">
        <ele>331</ele>
        <time>2019-04-04T12:51:46Z</time>
      </trkpt>
      <trkpt lat="47.46359" lon="3.70187">
        <ele>331</ele>
        <time>2019-04-04T12:51:50Z</time>
      </trkpt>
      <trkpt lat="47.46358" lon="3.70195">
        <ele>329</ele>
        <time>2019-04-04T12:51:54Z</time>
      </trkpt>
      <trkpt lat="47.46358" lon="3.702">
        <ele>327</ele>
        <time>2019-04-04T12:51:56Z</time>
      </trkpt>
      <trkpt lat="47.46356" lon="3.70206">
        <ele>325</ele>
        <time>2019-04-04T12:51:59Z</time>
      </trkpt>
      <trkpt lat="47.46355" lon="3.70213">
        <ele>326</ele>
        <time>2019-04-04T12:52:02Z</time>
      </trkpt>
      <trkpt lat="47.46352" lon="3.70219">
        <ele>326</ele>
        <time>2019-04-04T12:52:05Z</time>
      </trkpt>
      <trkpt lat="47.46349" lon="3.70224">
        <ele>326</ele>
        <time>2019-04-04T12:52:09Z</time>
      </trkpt>
      <trkpt lat="47.46347" lon="3.70231">
        <ele>326</ele>
        <time>2019-04-04T12:52:13Z</time>
      </trkpt>
      <trkpt lat="47.46348" lon="3.70238">
        <ele>326</ele>
        <time>2019-04-04T12:52:17Z</time>
      </trkpt>
      <trkpt lat="47.46348" lon="3.70241">
        <ele>329</ele>
        <time>2019-04-04T12:52:26Z</time>
      </trkpt>
      <trkpt lat="47.46346" lon="3.70247">
        <ele>325</ele>
        <time>2019-04-04T12:56:42Z</time>
      </trkpt>
      <trkpt lat="47.46345" lon="3.70254">
        <ele>326</ele>
        <time>2019-04-04T12:56:46Z</time>
      </trkpt>
      <trkpt lat="47.46345" lon="3.70261">
        <ele>328</ele>
        <time>2019-04-04T12:56:50Z</time>
      </trkpt>
      <trkpt lat="47.46345" lon="3.70261">
        <ele>328</ele>
        <time>2019-04-04T12:56:57Z</time>
      </trkpt>
      <trkpt lat="47.46345" lon="3.70261">
        <ele>328</ele>
        <time>2019-04-04T12:56:58Z</time>
      </trkpt>
      <trkpt lat="47.46348" lon="3.7027">
        <ele>329</ele>
        <time>2019-04-04T12:57:02Z</time>
      </trkpt>
      <trkpt lat="47.46347" lon="3.70278">
        <ele>330</ele>
        <time>2019-04-04T12:57:09Z</time>
      </trkpt>
      <trkpt lat="47.46348" lon="3.70287">
        <ele>332</ele>
        <time>2019-04-04T12:57:12Z</time>
      </trkpt>
      <trkpt lat="47.46348" lon="3.70294">
        <ele>333</ele>
        <time>2019-04-04T12:57:16Z</time>
      </trkpt>
      <trkpt lat="47.4635" lon="3.70304">
        <ele>332</ele>
        <time>2019-04-04T12:57:22Z</time>
      </trkpt>
      <trkpt lat="47.46353" lon="3.70317">
        <ele>334</ele>
        <time>2019-04-04T12:57:30Z</time>
      </trkpt>
      <trkpt lat="47.46356" lon="3.70326">
        <ele>336</ele>
        <time>2019-04-04T12:57:34Z</time>
      </trkpt>
      <trkpt lat="47.46358" lon="3.70333">
        <ele>336</ele>
        <time>2019-04-04T12:57:37Z</time>
      </trkpt>
      <trkpt lat="47.46358" lon="3.7034">
        <ele>334</ele>
        <time>2019-04-04T12:57:40Z</time>
      </trkpt>
      <trkpt lat="47.46359" lon="3.70346">
        <ele>333</ele>
        <time>2019-04-04T12:57:43Z</time>
      </trkpt>
      <trkpt lat="47.4636" lon="3.70353">
        <ele>332</ele>
        <time>2019-04-04T12:57:47Z</time>
      </trkpt>
      <trkpt lat="47.46361" lon="3.70363">
        <ele>333</ele>
        <time>2019-04-04T12:57:54Z</time>
      </trkpt>
      <trkpt lat="47.46361" lon="3.70372">
        <ele>333</ele>
        <time>2019-04-04T12:57:59Z</time>
      </trkpt>
      <trkpt lat="47.46361" lon="3.70376">
        <ele>333</ele>
        <time>2019-04-04T12:58:01Z</time>
      </trkpt>
      <trkpt lat="47.46361" lon="3.70384">
        <ele>334</ele>
        <time>2019-04-04T12:58:05Z</time>
      </trkpt>
      <trkpt lat="47.46361" lon="3.70389">
        <ele>335</ele>
        <time>2019-04-04T12:58:08Z</time>
      </trkpt>
      <trkpt lat="47.46362" lon="3.70392">
        <ele>334</ele>
        <time>2019-04-04T12:58:10Z</time>
      </trkpt>
      <trkpt lat="47.46362" lon="3.70398">
        <ele>335</ele>
        <time>2019-04-04T12:58:13Z</time>
      </trkpt>
      <trkpt lat="47.46361" lon="3.70403">
        <ele>336</ele>
        <time>2019-04-04T12:58:15Z</time>
      </trkpt>
      <trkpt lat="47.46361" lon="3.70406">
        <ele>334</ele>
        <time>2019-04-04T12:58:17Z</time>
      </trkpt>
      <trkpt lat="47.46362" lon="3.70414">
        <ele>335</ele>
        <time>2019-04-04T12:58:22Z</time>
      </trkpt>
      <trkpt lat="47.46361" lon="3.70422">
        <ele>337</ele>
        <time>2019-04-04T12:58:27Z</time>
      </trkpt>
      <trkpt lat="47.4636" lon="3.70426">
        <ele>337</ele>
        <time>2019-04-04T12:58:29Z</time>
      </trkpt>
      <trkpt lat="47.46359" lon="3.7043">
        <ele>337</ele>
        <time>2019-04-04T12:58:31Z</time>
      </trkpt>
      <trkpt lat="47.46359" lon="3.70435">
        <ele>338</ele>
        <time>2019-04-04T12:58:34Z</time>
      </trkpt>
      <trkpt lat="47.46358" lon="3.70441">
        <ele>337</ele>
        <time>2019-04-04T12:58:37Z</time>
      </trkpt>
      <trkpt lat="47.46356" lon="3.70448">
        <ele>336</ele>
        <time>2019-04-04T12:58:41Z</time>
      </trkpt>
      <trkpt lat="47.46354" lon="3.70454">
        <ele>333</ele>
        <time>2019-04-04T12:58:45Z</time>
      </trkpt>
      <trkpt lat="47.46353" lon="3.7046">
        <ele>333</ele>
        <time>2019-04-04T12:58:48Z</time>
      </trkpt>
      <trkpt lat="47.46353" lon="3.70467">
        <ele>332</ele>
        <time>2019-04-04T12:58:51Z</time>
      </trkpt>
      <trkpt lat="47.46351" lon="3.70476">
        <ele>334</ele>
        <time>2019-04-04T12:58:56Z</time>
      </trkpt>
      <trkpt lat="47.46349" lon="3.70483">
        <ele>332</ele>
        <time>2019-04-04T12:59:00Z</time>
      </trkpt>
      <trkpt lat="47.46348" lon="3.70492">
        <ele>330</ele>
        <time>2019-04-04T12:59:05Z</time>
      </trkpt>
      <trkpt lat="47.46347" lon="3.70495">
        <ele>330</ele>
        <time>2019-04-04T12:59:14Z</time>
      </trkpt>
      <trkpt lat="47.46351" lon="3.70507">
        <ele>330</ele>
        <time>2019-04-04T13:01:47Z</time>
      </trkpt>
      <trkpt lat="47.46349" lon="3.70515">
        <ele>333</ele>
        <time>2019-04-04T13:01:55Z</time>
      </trkpt>
      <trkpt lat="47.46348" lon="3.70521">
        <ele>334</ele>
        <time>2019-04-04T13:01:58Z</time>
      </trkpt>
      <trkpt lat="47.46347" lon="3.70529">
        <ele>333</ele>
        <time>2019-04-04T13:02:02Z</time>
      </trkpt>
      <trkpt lat="47.46346" lon="3.70533">
        <ele>335</ele>
        <time>2019-04-04T13:02:05Z</time>
      </trkpt>
      <trkpt lat="47.46345" lon="3.7054">
        <ele>334</ele>
        <time>2019-04-04T13:02:10Z</time>
      </trkpt>
      <trkpt lat="47.46343" lon="3.70548">
        <ele>336</ele>
        <time>2019-04-04T13:02:14Z</time>
      </trkpt>
      <trkpt lat="47.46344" lon="3.70556">
        <ele>336</ele>
        <time>2019-04-04T13:02:19Z</time>
      </trkpt>
      <trkpt lat="47.46345" lon="3.70563">
        <ele>335</ele>
        <time>2019-04-04T13:02:23Z</time>
      </trkpt>
      <trkpt lat="47.46343" lon="3.70571">
        <ele>335</ele>
        <time>2019-04-04T13:02:28Z</time>
      </trkpt>
      <trkpt lat="47.46342" lon="3.70575">
        <ele>334</ele>
        <time>2019-04-04T13:02:30Z</time>
      </trkpt>
      <trkpt lat="47.46341" lon="3.70583">
        <ele>334</ele>
        <time>2019-04-04T13:02:35Z</time>
      </trkpt>
      <trkpt lat="47.46338" lon="3.70591">
        <ele>332</ele>
        <time>2019-04-04T13:02:40Z</time>
      </trkpt>
      <trkpt lat="47.46337" lon="3.70598">
        <ele>332</ele>
        <time>2019-04-04T13:02:44Z</time>
      </trkpt>
      <trkpt lat="47.46336" lon="3.70603">
        <ele>332</ele>
        <time>2019-04-04T13:02:47Z</time>
      </trkpt>
      <trkpt lat="47.46336" lon="3.7061">
        <ele>334</ele>
        <time>2019-04-04T13:02:51Z</time>
      </trkpt>
      <trkpt lat="47.46334" lon="3.70618">
        <ele>333</ele>
        <time>2019-04-04T13:02:56Z</time>
      </trkpt>
      <trkpt lat="47.46331" lon="3.70625">
        <ele>332</ele>
        <time>2019-04-04T13:03:01Z</time>
      </trkpt>
      <trkpt lat="47.4633" lon="3.70632">
        <ele>332</ele>
        <time>2019-04-04T13:03:05Z</time>
      </trkpt>
      <trkpt lat="47.46327" lon="3.70642">
        <ele>331</ele>
        <time>2019-04-04T13:03:11Z</time>
      </trkpt>
      <trkpt lat="47.46325" lon="3.70647">
        <ele>330</ele>
        <time>2019-04-04T13:03:15Z</time>
      </trkpt>
      <trkpt lat="47.46324" lon="3.70656">
        <ele>331</ele>
        <time>2019-04-04T13:03:20Z</time>
      </trkpt>
      <trkpt lat="47.46323" lon="3.70666">
        <ele>331</ele>
        <time>2019-04-04T13:03:25Z</time>
      </trkpt>
      <trkpt lat="47.46322" lon="3.70673">
        <ele>332</ele>
        <time>2019-04-04T13:03:28Z</time>
      </trkpt>
      <trkpt lat="47.46322" lon="3.70676">
        <ele>333</ele>
        <time>2019-04-04T13:03:30Z</time>
      </trkpt>
      <trkpt lat="47.46322" lon="3.70683">
        <ele>333</ele>
        <time>2019-04-04T13:03:34Z</time>
      </trkpt>
      <trkpt lat="47.46322" lon="3.70689">
        <ele>333</ele>
        <time>2019-04-04T13:03:37Z</time>
      </trkpt>
      <trkpt lat="47.46322" lon="3.70696">
        <ele>334</ele>
        <time>2019-04-04T13:03:41Z</time>
      </trkpt>
      <trkpt lat="47.46322" lon="3.70705">
        <ele>333</ele>
        <time>2019-04-04T13:03:46Z</time>
      </trkpt>
      <trkpt lat="47.46323" lon="3.70716">
        <ele>332</ele>
        <time>2019-04-04T13:03:52Z</time>
      </trkpt>
      <trkpt lat="47.46323" lon="3.7072">
        <ele>332</ele>
        <time>2019-04-04T13:03:54Z</time>
      </trkpt>
      <trkpt lat="47.46324" lon="3.70727">
        <ele>332</ele>
        <time>2019-04-04T13:03:58Z</time>
      </trkpt>
      <trkpt lat="47.46325" lon="3.70731">
        <ele>332</ele>
        <time>2019-04-04T13:04:00Z</time>
      </trkpt>
      <trkpt lat="47.46326" lon="3.70737">
        <ele>331</ele>
        <time>2019-04-04T13:04:03Z</time>
      </trkpt>
      <trkpt lat="47.46328" lon="3.70745">
        <ele>330</ele>
        <time>2019-04-04T13:04:07Z</time>
      </trkpt>
      <trkpt lat="47.46329" lon="3.70751">
        <ele>330</ele>
        <time>2019-04-04T13:04:10Z</time>
      </trkpt>
      <trkpt lat="47.46329" lon="3.70755">
        <ele>331</ele>
        <time>2019-04-04T13:04:12Z</time>
      </trkpt>
      <trkpt lat="47.46331" lon="3.70761">
        <ele>331</ele>
        <time>2019-04-04T13:04:15Z</time>
      </trkpt>
      <trkpt lat="47.46332" lon="3.70768">
        <ele>331</ele>
        <time>2019-04-04T13:04:20Z</time>
      </trkpt>
      <trkpt lat="47.46334" lon="3.70775">
        <ele>332</ele>
        <time>2019-04-04T13:04:24Z</time>
      </trkpt>
      <trkpt lat="47.46335" lon="3.70779">
        <ele>334</ele>
        <time>2019-04-04T13:04:27Z</time>
      </trkpt>
      <trkpt lat="47.46336" lon="3.70784">
        <ele>332</ele>
        <time>2019-04-04T13:04:30Z</time>
      </trkpt>
      <trkpt lat="47.46339" lon="3.70793">
        <ele>331</ele>
        <time>2019-04-04T13:04:34Z</time>
      </trkpt>
      <trkpt lat="47.46341" lon="3.708">
        <ele>331</ele>
        <time>2019-04-04T13:04:37Z</time>
      </trkpt>
      <trkpt lat="47.46342" lon="3.70804">
        <ele>331</ele>
        <time>2019-04-04T13:04:39Z</time>
      </trkpt>
      <trkpt lat="47.46345" lon="3.70813">
        <ele>332</ele>
        <time>2019-04-04T13:04:45Z</time>
      </trkpt>
      <trkpt lat="47.46346" lon="3.70821">
        <ele>332</ele>
        <time>2019-04-04T13:04:48Z</time>
      </trkpt>
      <trkpt lat="47.46346" lon="3.70824">
        <ele>332</ele>
        <time>2019-04-04T13:04:51Z</time>
      </trkpt>
      <trkpt lat="47.46349" lon="3.70832">
        <ele>331</ele>
        <time>2019-04-04T13:04:56Z</time>
      </trkpt>
      <trkpt lat="47.46351" lon="3.7084">
        <ele>333</ele>
        <time>2019-04-04T13:05:00Z</time>
      </trkpt>
      <trkpt lat="47.46352" lon="3.70847">
        <ele>332</ele>
        <time>2019-04-04T13:05:03Z</time>
      </trkpt>
      <trkpt lat="47.46353" lon="3.70852">
        <ele>331</ele>
        <time>2019-04-04T13:05:06Z</time>
      </trkpt>
      <trkpt lat="47.46357" lon="3.7086">
        <ele>333</ele>
        <time>2019-04-04T13:05:11Z</time>
      </trkpt>
      <trkpt lat="47.46359" lon="3.70867">
        <ele>332</ele>
        <time>2019-04-04T13:05:14Z</time>
      </trkpt>
      <trkpt lat="47.4636" lon="3.70871">
        <ele>331</ele>
        <time>2019-04-04T13:05:16Z</time>
      </trkpt>
      <trkpt lat="47.46362" lon="3.70878">
        <ele>330</ele>
        <time>2019-04-04T13:05:19Z</time>
      </trkpt>
      <trkpt lat="47.46365" lon="3.70887">
        <ele>332</ele>
        <time>2019-04-04T13:05:24Z</time>
      </trkpt>
      <trkpt lat="47.46368" lon="3.70894">
        <ele>334</ele>
        <time>2019-04-04T13:05:29Z</time>
      </trkpt>
      <trkpt lat="47.46372" lon="3.70902">
        <ele>335</ele>
        <time>2019-04-04T13:05:35Z</time>
      </trkpt>
      <trkpt lat="47.46375" lon="3.70906">
        <ele>335</ele>
        <time>2019-04-04T13:05:39Z</time>
      </trkpt>
      <trkpt lat="47.46377" lon="3.70914">
        <ele>338</ele>
        <time>2019-04-04T13:05:44Z</time>
      </trkpt>
      <trkpt lat="47.4638" lon="3.70922">
        <ele>337</ele>
        <time>2019-04-04T13:05:49Z</time>
      </trkpt>
      <trkpt lat="47.46382" lon="3.70931">
        <ele>336</ele>
        <time>2019-04-04T13:05:55Z</time>
      </trkpt>
      <trkpt lat="47.46385" lon="3.70937">
        <ele>337</ele>
        <time>2019-04-04T13:05:59Z</time>
      </trkpt>
      <trkpt lat="47.46387" lon="3.7094">
        <ele>337</ele>
        <time>2019-04-04T13:06:02Z</time>
      </trkpt>
      <trkpt lat="47.46389" lon="3.70943">
        <ele>337</ele>
        <time>2019-04-04T13:06:04Z</time>
      </trkpt>
      <trkpt lat="47.4639" lon="3.70954">
        <ele>337</ele>
        <time>2019-04-04T13:06:09Z</time>
      </trkpt>
      <trkpt lat="47.46394" lon="3.70958">
        <ele>335</ele>
        <time>2019-04-04T13:06:13Z</time>
      </trkpt>
      <trkpt lat="47.46398" lon="3.70962">
        <ele>334</ele>
        <time>2019-04-04T13:06:17Z</time>
      </trkpt>
      <trkpt lat="47.464" lon="3.7097">
        <ele>334</ele>
        <time>2019-04-04T13:06:21Z</time>
      </trkpt>
      <trkpt lat="47.46401" lon="3.70974">
        <ele>335</ele>
        <time>2019-04-04T13:06:23Z</time>
      </trkpt>
      <trkpt lat="47.46401" lon="3.70982">
        <ele>334</ele>
        <time>2019-04-04T13:06:28Z</time>
      </trkpt>
      <trkpt lat="47.46403" lon="3.70989">
        <ele>334</ele>
        <time>2019-04-04T13:06:33Z</time>
      </trkpt>
      <trkpt lat="47.46404" lon="3.70993">
        <ele>337</ele>
        <time>2019-04-04T13:06:36Z</time>
      </trkpt>
      <trkpt lat="47.46406" lon="3.71">
        <ele>340</ele>
        <time>2019-04-04T13:06:41Z</time>
      </trkpt>
      <trkpt lat="47.46409" lon="3.71008">
        <ele>343</ele>
        <time>2019-04-04T13:06:45Z</time>
      </trkpt>
      <trkpt lat="47.46412" lon="3.71013">
        <ele>344</ele>
        <time>2019-04-04T13:06:48Z</time>
      </trkpt>
      <trkpt lat="47.46414" lon="3.71018">
        <ele>345</ele>
        <time>2019-04-04T13:06:52Z</time>
      </trkpt>
      <trkpt lat="47.46416" lon="3.71027">
        <ele>344</ele>
        <time>2019-04-04T13:06:56Z</time>
      </trkpt>
      <trkpt lat="47.46417" lon="3.71035">
        <ele>343</ele>
        <time>2019-04-04T13:07:01Z</time>
      </trkpt>
      <trkpt lat="47.4642" lon="3.71042">
        <ele>344</ele>
        <time>2019-04-04T13:07:06Z</time>
      </trkpt>
      <trkpt lat="47.46421" lon="3.71046">
        <ele>343</ele>
        <time>2019-04-04T13:07:09Z</time>
      </trkpt>
      <trkpt lat="47.46424" lon="3.71056">
        <ele>343</ele>
        <time>2019-04-04T13:07:14Z</time>
      </trkpt>
      <trkpt lat="47.46425" lon="3.7106">
        <ele>343</ele>
        <time>2019-04-04T13:07:16Z</time>
      </trkpt>
      <trkpt lat="47.46427" lon="3.71066">
        <ele>343</ele>
        <time>2019-04-04T13:07:20Z</time>
      </trkpt>
      <trkpt lat="47.46428" lon="3.7107">
        <ele>342</ele>
        <time>2019-04-04T13:07:23Z</time>
      </trkpt>
      <trkpt lat="47.46429" lon="3.71078">
        <ele>340</ele>
        <time>2019-04-04T13:07:27Z</time>
      </trkpt>
      <trkpt lat="47.4643" lon="3.71086">
        <ele>338</ele>
        <time>2019-04-04T13:07:30Z</time>
      </trkpt>
      <trkpt lat="47.46432" lon="3.71092">
        <ele>338</ele>
        <time>2019-04-04T13:07:36Z</time>
      </trkpt>
      <trkpt lat="47.46433" lon="3.71095">
        <ele>338</ele>
        <time>2019-04-04T13:07:38Z</time>
      </trkpt>
      <trkpt lat="47.46436" lon="3.71101">
        <ele>339</ele>
        <time>2019-04-04T13:07:42Z</time>
      </trkpt>
      <trkpt lat="47.46438" lon="3.71105">
        <ele>338</ele>
        <time>2019-04-04T13:07:45Z</time>
      </trkpt>
      <trkpt lat="47.46439" lon="3.71113">
        <ele>338</ele>
        <time>2019-04-04T13:07:49Z</time>
      </trkpt>
      <trkpt lat="47.46441" lon="3.71119">
        <ele>339</ele>
        <time>2019-04-04T13:07:52Z</time>
      </trkpt>
      <trkpt lat="47.46442" lon="3.71124">
        <ele>339</ele>
        <time>2019-04-04T13:07:54Z</time>
      </trkpt>
      <trkpt lat="47.46443" lon="3.71131">
        <ele>339</ele>
        <time>2019-04-04T13:07:57Z</time>
      </trkpt>
      <trkpt lat="47.46444" lon="3.71138">
        <ele>338</ele>
        <time>2019-04-04T13:08:00Z</time>
      </trkpt>
      <trkpt lat="47.46447" lon="3.71144">
        <ele>338</ele>
        <time>2019-04-04T13:08:04Z</time>
      </trkpt>
      <trkpt lat="47.46448" lon="3.71154">
        <ele>336</ele>
        <time>2019-04-04T13:08:09Z</time>
      </trkpt>
      <trkpt lat="47.4645" lon="3.71162">
        <ele>336</ele>
        <time>2019-04-04T13:08:14Z</time>
      </trkpt>
      <trkpt lat="47.46451" lon="3.71165">
        <ele>336</ele>
        <time>2019-04-04T13:08:16Z</time>
      </trkpt>
      <trkpt lat="47.46453" lon="3.71171">
        <ele>336</ele>
        <time>2019-04-04T13:08:20Z</time>
      </trkpt>
      <trkpt lat="47.46455" lon="3.71174">
        <ele>335</ele>
        <time>2019-04-04T13:08:22Z</time>
      </trkpt>
      <trkpt lat="47.46457" lon="3.71182">
        <ele>334</ele>
        <time>2019-04-04T13:08:27Z</time>
      </trkpt>
      <trkpt lat="47.46459" lon="3.7119">
        <ele>333</ele>
        <time>2019-04-04T13:08:31Z</time>
      </trkpt>
      <trkpt lat="47.46461" lon="3.71196">
        <ele>331</ele>
        <time>2019-04-04T13:08:36Z</time>
      </trkpt>
      <trkpt lat="47.46461" lon="3.71204">
        <ele>330</ele>
        <time>2019-04-04T13:08:40Z</time>
      </trkpt>
      <trkpt lat="47.46463" lon="3.71211">
        <ele>330</ele>
        <time>2019-04-04T13:08:45Z</time>
      </trkpt>
      <trkpt lat="47.46463" lon="3.71219">
        <ele>329</ele>
        <time>2019-04-04T13:08:51Z</time>
      </trkpt>
      <trkpt lat="47.46463" lon="3.71227">
        <ele>328</ele>
        <time>2019-04-04T13:08:54Z</time>
      </trkpt>
      <trkpt lat="47.46465" lon="3.71234">
        <ele>328</ele>
        <time>2019-04-04T13:08:58Z</time>
      </trkpt>
      <trkpt lat="47.46463" lon="3.7124">
        <ele>326</ele>
        <time>2019-04-04T13:09:01Z</time>
      </trkpt>
      <trkpt lat="47.46462" lon="3.71248">
        <ele>325</ele>
        <time>2019-04-04T13:09:06Z</time>
      </trkpt>
      <trkpt lat="47.46461" lon="3.71255">
        <ele>325</ele>
        <time>2019-04-04T13:09:10Z</time>
      </trkpt>
      <trkpt lat="47.46459" lon="3.71268">
        <ele>328</ele>
        <time>2019-04-04T13:09:16Z</time>
      </trkpt>
      <trkpt lat="47.46457" lon="3.71276">
        <ele>328</ele>
        <time>2019-04-04T13:09:20Z</time>
      </trkpt>
      <trkpt lat="47.46455" lon="3.71282">
        <ele>327</ele>
        <time>2019-04-04T13:09:24Z</time>
      </trkpt>
      <trkpt lat="47.46453" lon="3.71286">
        <ele>327</ele>
        <time>2019-04-04T13:09:26Z</time>
      </trkpt>
      <trkpt lat="47.46452" lon="3.71296">
        <ele>327</ele>
        <time>2019-04-04T13:09:32Z</time>
      </trkpt>
      <trkpt lat="47.46452" lon="3.71306">
        <ele>327</ele>
        <time>2019-04-04T13:09:37Z</time>
      </trkpt>
      <trkpt lat="47.46452" lon="3.71306">
        <ele>327</ele>
        <time>2019-04-04T13:09:45Z</time>
      </trkpt>
      <trkpt lat="47.46452" lon="3.71306">
        <ele>327</ele>
        <time>2019-04-04T13:09:46Z</time>
      </trkpt>
      <trkpt lat="47.46451" lon="3.71326">
        <ele>323</ele>
        <time>2019-04-04T13:10:28Z</time>
      </trkpt>
      <trkpt lat="47.46447" lon="3.71331">
        <ele>325</ele>
        <time>2019-04-04T13:10:34Z</time>
      </trkpt>
      <trkpt lat="47.46443" lon="3.71337">
        <ele>326</ele>
        <time>2019-04-04T13:10:39Z</time>
      </trkpt>
      <trkpt lat="47.46439" lon="3.71342">
        <ele>326</ele>
        <time>2019-04-04T13:10:43Z</time>
      </trkpt>
      <trkpt lat="47.46437" lon="3.71344">
        <ele>326</ele>
        <time>2019-04-04T13:10:46Z</time>
      </trkpt>
      <trkpt lat="47.46434" lon="3.7135">
        <ele>325</ele>
        <time>2019-04-04T13:10:50Z</time>
      </trkpt>
      <trkpt lat="47.46428" lon="3.71353">
        <ele>324</ele>
        <time>2019-04-04T13:10:54Z</time>
      </trkpt>
      <trkpt lat="47.46426" lon="3.71354">
        <ele>323</ele>
        <time>2019-04-04T13:10:56Z</time>
      </trkpt>
      <trkpt lat="47.46422" lon="3.71359">
        <ele>323</ele>
        <time>2019-04-04T13:11:02Z</time>
      </trkpt>
      <trkpt lat="47.46419" lon="3.71362">
        <ele>322</ele>
        <time>2019-04-04T13:11:05Z</time>
      </trkpt>
      <trkpt lat="47.46416" lon="3.71368">
        <ele>323</ele>
        <time>2019-04-04T13:11:11Z</time>
      </trkpt>
      <trkpt lat="47.46411" lon="3.71373">
        <ele>320</ele>
        <time>2019-04-04T13:11:15Z</time>
      </trkpt>
      <trkpt lat="47.46407" lon="3.71376">
        <ele>319</ele>
        <time>2019-04-04T13:11:18Z</time>
      </trkpt>
      <trkpt lat="47.46403" lon="3.71379">
        <ele>317</ele>
        <time>2019-04-04T13:11:21Z</time>
      </trkpt>
      <trkpt lat="47.464" lon="3.71382">
        <ele>316</ele>
        <time>2019-04-04T13:11:23Z</time>
      </trkpt>
      <trkpt lat="47.46398" lon="3.71384">
        <ele>316</ele>
        <time>2019-04-04T13:11:25Z</time>
      </trkpt>
      <trkpt lat="47.46396" lon="3.71386">
        <ele>316</ele>
        <time>2019-04-04T13:11:27Z</time>
      </trkpt>
      <trkpt lat="47.46393" lon="3.71388">
        <ele>315</ele>
        <time>2019-04-04T13:11:30Z</time>
      </trkpt>
      <trkpt lat="47.46391" lon="3.7139">
        <ele>314</ele>
        <time>2019-04-04T13:11:32Z</time>
      </trkpt>
      <trkpt lat="47.46385" lon="3.71397">
        <ele>314</ele>
        <time>2019-04-04T13:11:37Z</time>
      </trkpt>
      <trkpt lat="47.46381" lon="3.71402">
        <ele>313</ele>
        <time>2019-04-04T13:11:42Z</time>
      </trkpt>
      <trkpt lat="47.46378" lon="3.71407">
        <ele>312</ele>
        <time>2019-04-04T13:11:45Z</time>
      </trkpt>
      <trkpt lat="47.46375" lon="3.71411">
        <ele>310</ele>
        <time>2019-04-04T13:11:48Z</time>
      </trkpt>
      <trkpt lat="47.46371" lon="3.71415">
        <ele>309</ele>
        <time>2019-04-04T13:11:51Z</time>
      </trkpt>
      <trkpt lat="47.46367" lon="3.71419">
        <ele>308</ele>
        <time>2019-04-04T13:11:56Z</time>
      </trkpt>
      <trkpt lat="47.46362" lon="3.71422">
        <ele>306</ele>
        <time>2019-04-04T13:12:00Z</time>
      </trkpt>
      <trkpt lat="47.46359" lon="3.71425">
        <ele>305</ele>
        <time>2019-04-04T13:12:03Z</time>
      </trkpt>
      <trkpt lat="47.46356" lon="3.71427">
        <ele>305</ele>
        <time>2019-04-04T13:12:05Z</time>
      </trkpt>
      <trkpt lat="47.46352" lon="3.71433">
        <ele>305</ele>
        <time>2019-04-04T13:12:09Z</time>
      </trkpt>
      <trkpt lat="47.46349" lon="3.71439">
        <ele>306</ele>
        <time>2019-04-04T13:12:13Z</time>
      </trkpt>
      <trkpt lat="47.46348" lon="3.71442">
        <ele>305</ele>
        <time>2019-04-04T13:12:15Z</time>
      </trkpt>
      <trkpt lat="47.46345" lon="3.71446">
        <ele>304</ele>
        <time>2019-04-04T13:12:17Z</time>
      </trkpt>
      <trkpt lat="47.46343" lon="3.71456">
        <ele>304</ele>
        <time>2019-04-04T13:12:23Z</time>
      </trkpt>
      <trkpt lat="47.46337" lon="3.71463">
        <ele>303</ele>
        <time>2019-04-04T13:12:27Z</time>
      </trkpt>
      <trkpt lat="47.46336" lon="3.71466">
        <ele>303</ele>
        <time>2019-04-04T13:12:29Z</time>
      </trkpt>
      <trkpt lat="47.46333" lon="3.71473">
        <ele>304</ele>
        <time>2019-04-04T13:12:34Z</time>
      </trkpt>
      <trkpt lat="47.46331" lon="3.71478">
        <ele>305</ele>
        <time>2019-04-04T13:12:38Z</time>
      </trkpt>
      <trkpt lat="47.46329" lon="3.71485">
        <ele>305</ele>
        <time>2019-04-04T13:12:42Z</time>
      </trkpt>
      <trkpt lat="47.46325" lon="3.71492">
        <ele>305</ele>
        <time>2019-04-04T13:12:45Z</time>
      </trkpt>
      <trkpt lat="47.46323" lon="3.71496">
        <ele>304</ele>
        <time>2019-04-04T13:12:48Z</time>
      </trkpt>
      <trkpt lat="47.46321" lon="3.71503">
        <ele>304</ele>
        <time>2019-04-04T13:12:52Z</time>
      </trkpt>
      <trkpt lat="47.46319" lon="3.71511">
        <ele>305</ele>
        <time>2019-04-04T13:12:56Z</time>
      </trkpt>
      <trkpt lat="47.46317" lon="3.71517">
        <ele>304</ele>
        <time>2019-04-04T13:13:00Z</time>
      </trkpt>
      <trkpt lat="47.46315" lon="3.71523">
        <ele>304</ele>
        <time>2019-04-04T13:13:05Z</time>
      </trkpt>
      <trkpt lat="47.46312" lon="3.71529">
        <ele>304</ele>
        <time>2019-04-04T13:13:09Z</time>
      </trkpt>
      <trkpt lat="47.4631" lon="3.71535">
        <ele>304</ele>
        <time>2019-04-04T13:13:12Z</time>
      </trkpt>
      <trkpt lat="47.46308" lon="3.71538">
        <ele>303</ele>
        <time>2019-04-04T13:13:14Z</time>
      </trkpt>
      <trkpt lat="47.46306" lon="3.71544">
        <ele>303</ele>
        <time>2019-04-04T13:13:19Z</time>
      </trkpt>
      <trkpt lat="47.46304" lon="3.7155">
        <ele>303</ele>
        <time>2019-04-04T13:13:22Z</time>
      </trkpt>
      <trkpt lat="47.46303" lon="3.71555">
        <ele>303</ele>
        <time>2019-04-04T13:13:24Z</time>
      </trkpt>
      <trkpt lat="47.46298" lon="3.71564">
        <ele>304</ele>
        <time>2019-04-04T13:13:29Z</time>
      </trkpt>
      <trkpt lat="47.46297" lon="3.7157">
        <ele>303</ele>
        <time>2019-04-04T13:13:33Z</time>
      </trkpt>
      <trkpt lat="47.46295" lon="3.71577">
        <ele>306</ele>
        <time>2019-04-04T13:13:37Z</time>
      </trkpt>
      <trkpt lat="47.46293" lon="3.71583">
        <ele>305</ele>
        <time>2019-04-04T13:13:41Z</time>
      </trkpt>
      <trkpt lat="47.46289" lon="3.71591">
        <ele>305</ele>
        <time>2019-04-04T13:13:47Z</time>
      </trkpt>
      <trkpt lat="47.46287" lon="3.71595">
        <ele>304</ele>
        <time>2019-04-04T13:13:49Z</time>
      </trkpt>
      <trkpt lat="47.46285" lon="3.71601">
        <ele>304</ele>
        <time>2019-04-04T13:13:53Z</time>
      </trkpt>
      <trkpt lat="47.46284" lon="3.71607">
        <ele>304</ele>
        <time>2019-04-04T13:13:56Z</time>
      </trkpt>
      <trkpt lat="47.46283" lon="3.71615">
        <ele>304</ele>
        <time>2019-04-04T13:13:59Z</time>
      </trkpt>
      <trkpt lat="47.46285" lon="3.71622">
        <ele>302</ele>
        <time>2019-04-04T13:14:02Z</time>
      </trkpt>
      <trkpt lat="47.46289" lon="3.71628">
        <ele>302</ele>
        <time>2019-04-04T13:14:05Z</time>
      </trkpt>
      <trkpt lat="47.46293" lon="3.71634">
        <ele>300</ele>
        <time>2019-04-04T13:14:07Z</time>
      </trkpt>
      <trkpt lat="47.46297" lon="3.7164">
        <ele>301</ele>
        <time>2019-04-04T13:14:11Z</time>
      </trkpt>
      <trkpt lat="47.46302" lon="3.71645">
        <ele>301</ele>
        <time>2019-04-04T13:14:15Z</time>
      </trkpt>
      <trkpt lat="47.46306" lon="3.71648">
        <ele>300</ele>
        <time>2019-04-04T13:14:20Z</time>
      </trkpt>
      <trkpt lat="47.46309" lon="3.71651">
        <ele>300</ele>
        <time>2019-04-04T13:14:23Z</time>
      </trkpt>
      <trkpt lat="47.46312" lon="3.71652">
        <ele>299</ele>
        <time>2019-04-04T13:14:25Z</time>
      </trkpt>
      <trkpt lat="47.46314" lon="3.71655">
        <ele>299</ele>
        <time>2019-04-04T13:14:27Z</time>
      </trkpt>
      <trkpt lat="47.46316" lon="3.71657">
        <ele>298</ele>
        <time>2019-04-04T13:14:29Z</time>
      </trkpt>
      <trkpt lat="47.46321" lon="3.7166">
        <ele>299</ele>
        <time>2019-04-04T13:14:33Z</time>
      </trkpt>
      <trkpt lat="47.46325" lon="3.71663">
        <ele>301</ele>
        <time>2019-04-04T13:14:37Z</time>
      </trkpt>
      <trkpt lat="47.4633" lon="3.71666">
        <ele>303</ele>
        <time>2019-04-04T13:14:40Z</time>
      </trkpt>
      <trkpt lat="47.46333" lon="3.71667">
        <ele>303</ele>
        <time>2019-04-04T13:14:42Z</time>
      </trkpt>
      <trkpt lat="47.46336" lon="3.71669">
        <ele>304</ele>
        <time>2019-04-04T13:14:45Z</time>
      </trkpt>
      <trkpt lat="47.4634" lon="3.71673">
        <ele>303</ele>
        <time>2019-04-04T13:14:49Z</time>
      </trkpt>
      <trkpt lat="47.46345" lon="3.71675">
        <ele>303</ele>
        <time>2019-04-04T13:14:52Z</time>
      </trkpt>
      <trkpt lat="47.46348" lon="3.71677">
        <ele>303</ele>
        <time>2019-04-04T13:14:55Z</time>
      </trkpt>
      <trkpt lat="47.46353" lon="3.71678">
        <ele>305</ele>
        <time>2019-04-04T13:15:01Z</time>
      </trkpt>
      <trkpt lat="47.46358" lon="3.71681">
        <ele>306</ele>
        <time>2019-04-04T13:15:04Z</time>
      </trkpt>
      <trkpt lat="47.46362" lon="3.71683">
        <ele>306</ele>
        <time>2019-04-04T13:15:07Z</time>
      </trkpt>
      <trkpt lat="47.46367" lon="3.71685">
        <ele>306</ele>
        <time>2019-04-04T13:15:11Z</time>
      </trkpt>
      <trkpt lat="47.46371" lon="3.71688">
        <ele>308</ele>
        <time>2019-04-04T13:15:15Z</time>
      </trkpt>
      <trkpt lat="47.46377" lon="3.71689">
        <ele>308</ele>
        <time>2019-04-04T13:15:19Z</time>
      </trkpt>
      <trkpt lat="47.46381" lon="3.71692">
        <ele>307</ele>
        <time>2019-04-04T13:15:23Z</time>
      </trkpt>
      <trkpt lat="47.46386" lon="3.71696">
        <ele>308</ele>
        <time>2019-04-04T13:15:27Z</time>
      </trkpt>
      <trkpt lat="47.4639" lon="3.71698">
        <ele>309</ele>
        <time>2019-04-04T13:15:32Z</time>
      </trkpt>
      <trkpt lat="47.46394" lon="3.71702">
        <ele>309</ele>
        <time>2019-04-04T13:15:36Z</time>
      </trkpt>
      <trkpt lat="47.46396" lon="3.71704">
        <ele>309</ele>
        <time>2019-04-04T13:15:38Z</time>
      </trkpt>
      <trkpt lat="47.46399" lon="3.71711">
        <ele>310</ele>
        <time>2019-04-04T13:15:46Z</time>
      </trkpt>
      <trkpt lat="47.46397" lon="3.7172">
        <ele>309</ele>
        <time>2019-04-04T13:15:53Z</time>
      </trkpt>
      <trkpt lat="47.46396" lon="3.71723">
        <ele>310</ele>
        <time>2019-04-04T13:15:55Z</time>
      </trkpt>
      <trkpt lat="47.46395" lon="3.71727">
        <ele>310</ele>
        <time>2019-04-04T13:15:57Z</time>
      </trkpt>
      <trkpt lat="47.46394" lon="3.71734">
        <ele>310</ele>
        <time>2019-04-04T13:16:00Z</time>
      </trkpt>
      <trkpt lat="47.46392" lon="3.71741">
        <ele>311</ele>
        <time>2019-04-04T13:16:04Z</time>
      </trkpt>
      <trkpt lat="47.46392" lon="3.71749">
        <ele>311</ele>
        <time>2019-04-04T13:16:08Z</time>
      </trkpt>
      <trkpt lat="47.46391" lon="3.71754">
        <ele>311</ele>
        <time>2019-04-04T13:16:11Z</time>
      </trkpt>
      <trkpt lat="47.46392" lon="3.71761">
        <ele>313</ele>
        <time>2019-04-04T13:16:16Z</time>
      </trkpt>
      <trkpt lat="47.46392" lon="3.71768">
        <ele>313</ele>
        <time>2019-04-04T13:16:20Z</time>
      </trkpt>
      <trkpt lat="47.46393" lon="3.71776">
        <ele>311</ele>
        <time>2019-04-04T13:16:24Z</time>
      </trkpt>
      <trkpt lat="47.46396" lon="3.71785">
        <ele>312</ele>
        <time>2019-04-04T13:16:30Z</time>
      </trkpt>
      <trkpt lat="47.46397" lon="3.7179">
        <ele>312</ele>
        <time>2019-04-04T13:16:33Z</time>
      </trkpt>
      <trkpt lat="47.46398" lon="3.71795">
        <ele>312</ele>
        <time>2019-04-04T13:16:36Z</time>
      </trkpt>
      <trkpt lat="47.464" lon="3.71803">
        <ele>312</ele>
        <time>2019-04-04T13:16:40Z</time>
      </trkpt>
      <trkpt lat="47.46403" lon="3.71809">
        <ele>312</ele>
        <time>2019-04-04T13:16:44Z</time>
      </trkpt>
      <trkpt lat="47.46406" lon="3.71817">
        <ele>313</ele>
        <time>2019-04-04T13:16:49Z</time>
      </trkpt>
      <trkpt lat="47.46407" lon="3.7182">
        <ele>313</ele>
        <time>2019-04-04T13:16:51Z</time>
      </trkpt>
      <trkpt lat="47.46408" lon="3.71825">
        <ele>312</ele>
        <time>2019-04-04T13:16:54Z</time>
      </trkpt>
      <trkpt lat="47.4641" lon="3.71833">
        <ele>312</ele>
        <time>2019-04-04T13:16:58Z</time>
      </trkpt>
      <trkpt lat="47.46412" lon="3.71839">
        <ele>311</ele>
        <time>2019-04-04T13:17:01Z</time>
      </trkpt>
      <trkpt lat="47.46413" lon="3.71843">
        <ele>311</ele>
        <time>2019-04-04T13:17:04Z</time>
      </trkpt>
      <trkpt lat="47.46415" lon="3.7185">
        <ele>311</ele>
        <time>2019-04-04T13:17:08Z</time>
      </trkpt>
      <trkpt lat="47.46416" lon="3.71854">
        <ele>310</ele>
        <time>2019-04-04T13:17:11Z</time>
      </trkpt>
      <trkpt lat="47.46418" lon="3.71858">
        <ele>310</ele>
        <time>2019-04-04T13:17:15Z</time>
      </trkpt>
      <trkpt lat="47.4642" lon="3.71863">
        <ele>310</ele>
        <time>2019-04-04T13:17:18Z</time>
      </trkpt>
      <trkpt lat="47.46421" lon="3.71869">
        <ele>309</ele>
        <time>2019-04-04T13:17:22Z</time>
      </trkpt>
      <trkpt lat="47.46422" lon="3.71878">
        <ele>308</ele>
        <time>2019-04-04T13:17:27Z</time>
      </trkpt>
      <trkpt lat="47.46425" lon="3.71885">
        <ele>306</ele>
        <time>2019-04-04T13:17:31Z</time>
      </trkpt>
      <trkpt lat="47.46427" lon="3.71889">
        <ele>305</ele>
        <time>2019-04-04T13:17:33Z</time>
      </trkpt>
      <trkpt lat="47.46429" lon="3.71896">
        <ele>305</ele>
        <time>2019-04-04T13:17:37Z</time>
      </trkpt>
      <trkpt lat="47.46432" lon="3.71902">
        <ele>304</ele>
        <time>2019-04-04T13:17:41Z</time>
      </trkpt>
      <trkpt lat="47.46435" lon="3.71908">
        <ele>303</ele>
        <time>2019-04-04T13:17:44Z</time>
      </trkpt>
      <trkpt lat="47.46437" lon="3.71911">
        <ele>303</ele>
        <time>2019-04-04T13:17:46Z</time>
      </trkpt>
      <trkpt lat="47.4644" lon="3.71918">
        <ele>304</ele>
        <time>2019-04-04T13:17:51Z</time>
      </trkpt>
      <trkpt lat="47.46441" lon="3.71925">
        <ele>303</ele>
        <time>2019-04-04T13:17:55Z</time>
      </trkpt>
      <trkpt lat="47.46443" lon="3.71931">
        <ele>301</ele>
        <time>2019-04-04T13:17:59Z</time>
      </trkpt>
      <trkpt lat="47.46447" lon="3.7194">
        <ele>299</ele>
        <time>2019-04-04T13:18:04Z</time>
      </trkpt>
      <trkpt lat="47.46449" lon="3.71947">
        <ele>299</ele>
        <time>2019-04-04T13:18:07Z</time>
      </trkpt>
      <trkpt lat="47.4645" lon="3.7195">
        <ele>300</ele>
        <time>2019-04-04T13:18:11Z</time>
      </trkpt>
      <trkpt lat="47.46451" lon="3.71956">
        <ele>300</ele>
        <time>2019-04-04T13:18:14Z</time>
      </trkpt>
      <trkpt lat="47.46455" lon="3.71962">
        <ele>299</ele>
        <time>2019-04-04T13:18:19Z</time>
      </trkpt>
      <trkpt lat="47.46457" lon="3.71966">
        <ele>298</ele>
        <time>2019-04-04T13:18:21Z</time>
      </trkpt>
      <trkpt lat="47.46459" lon="3.71971">
        <ele>297</ele>
        <time>2019-04-04T13:18:25Z</time>
      </trkpt>
      <trkpt lat="47.46464" lon="3.71979">
        <ele>295</ele>
        <time>2019-04-04T13:18:31Z</time>
      </trkpt>
      <trkpt lat="47.46467" lon="3.71985">
        <ele>294</ele>
        <time>2019-04-04T13:18:34Z</time>
      </trkpt>
      <trkpt lat="47.46469" lon="3.71988">
        <ele>295</ele>
        <time>2019-04-04T13:18:38Z</time>
      </trkpt>
      <trkpt lat="47.46473" lon="3.71992">
        <ele>294</ele>
        <time>2019-04-04T13:18:43Z</time>
      </trkpt>
      <trkpt lat="47.46476" lon="3.71997">
        <ele>293</ele>
        <time>2019-04-04T13:18:47Z</time>
      </trkpt>
      <trkpt lat="47.46479" lon="3.72004">
        <ele>292</ele>
        <time>2019-04-04T13:18:52Z</time>
      </trkpt>
      <trkpt lat="47.46478" lon="3.72015">
        <ele>290</ele>
        <time>2019-04-04T13:18:58Z</time>
      </trkpt>
      <trkpt lat="47.46474" lon="3.72022">
        <ele>290</ele>
        <time>2019-04-04T13:19:04Z</time>
      </trkpt>
      <trkpt lat="47.46473" lon="3.72025">
        <ele>289</ele>
        <time>2019-04-04T13:19:06Z</time>
      </trkpt>
      <trkpt lat="47.46469" lon="3.72035">
        <ele>291</ele>
        <time>2019-04-04T13:19:12Z</time>
      </trkpt>
      <trkpt lat="47.4647" lon="3.72043">
        <ele>290</ele>
        <time>2019-04-04T13:19:16Z</time>
      </trkpt>
      <trkpt lat="47.4647" lon="3.72048">
        <ele>290</ele>
        <time>2019-04-04T13:19:18Z</time>
      </trkpt>
      <trkpt lat="47.46471" lon="3.72053">
        <ele>289</ele>
        <time>2019-04-04T13:19:20Z</time>
      </trkpt>
      <trkpt lat="47.46471" lon="3.72064">
        <ele>288</ele>
        <time>2019-04-04T13:19:25Z</time>
      </trkpt>
      <trkpt lat="47.46469" lon="3.72072">
        <ele>287</ele>
        <time>2019-04-04T13:19:32Z</time>
      </trkpt>
      <trkpt lat="47.46469" lon="3.7208">
        <ele>284</ele>
        <time>2019-04-04T13:19:35Z</time>
      </trkpt>
      <trkpt lat="47.46469" lon="3.7209">
        <ele>282</ele>
        <time>2019-04-04T13:19:40Z</time>
      </trkpt>
      <trkpt lat="47.46467" lon="3.721">
        <ele>282</ele>
        <time>2019-04-04T13:19:45Z</time>
      </trkpt>
      <trkpt lat="47.46465" lon="3.72106">
        <ele>282</ele>
        <time>2019-04-04T13:19:49Z</time>
      </trkpt>
      <trkpt lat="47.46464" lon="3.72109">
        <ele>281</ele>
        <time>2019-04-04T13:19:51Z</time>
      </trkpt>
      <trkpt lat="47.46463" lon="3.72116">
        <ele>280</ele>
        <time>2019-04-04T13:19:55Z</time>
      </trkpt>
      <trkpt lat="47.4646" lon="3.72122">
        <ele>280</ele>
        <time>2019-04-04T13:19:59Z</time>
      </trkpt>
      <trkpt lat="47.46459" lon="3.72125">
        <ele>279</ele>
        <time>2019-04-04T13:20:01Z</time>
      </trkpt>
      <trkpt lat="47.46457" lon="3.72131">
        <ele>277</ele>
        <time>2019-04-04T13:20:05Z</time>
      </trkpt>
      <trkpt lat="47.46456" lon="3.72136">
        <ele>278</ele>
        <time>2019-04-04T13:20:07Z</time>
      </trkpt>
      <trkpt lat="47.46454" lon="3.72143">
        <ele>277</ele>
        <time>2019-04-04T13:20:12Z</time>
      </trkpt>
      <trkpt lat="47.46454" lon="3.72147">
        <ele>278</ele>
        <time>2019-04-04T13:20:14Z</time>
      </trkpt>
      <trkpt lat="47.46452" lon="3.72156">
        <ele>278</ele>
        <time>2019-04-04T13:20:18Z</time>
      </trkpt>
      <trkpt lat="47.46448" lon="3.72162">
        <ele>278</ele>
        <time>2019-04-04T13:20:22Z</time>
      </trkpt>
      <trkpt lat="47.46445" lon="3.7217">
        <ele>277</ele>
        <time>2019-04-04T13:20:28Z</time>
      </trkpt>
      <trkpt lat="47.46444" lon="3.72178">
        <ele>277</ele>
        <time>2019-04-04T13:20:33Z</time>
      </trkpt>
      <trkpt lat="47.46442" lon="3.72185">
        <ele>277</ele>
        <time>2019-04-04T13:20:37Z</time>
      </trkpt>
      <trkpt lat="47.4644" lon="3.72191">
        <ele>276</ele>
        <time>2019-04-04T13:20:40Z</time>
      </trkpt>
      <trkpt lat="47.46439" lon="3.722">
        <ele>275</ele>
        <time>2019-04-04T13:20:45Z</time>
      </trkpt>
      <trkpt lat="47.46438" lon="3.72203">
        <ele>275</ele>
        <time>2019-04-04T13:20:47Z</time>
      </trkpt>
      <trkpt lat="47.46437" lon="3.72208">
        <ele>272</ele>
        <time>2019-04-04T13:20:50Z</time>
      </trkpt>
      <trkpt lat="47.46438" lon="3.72215">
        <ele>271</ele>
        <time>2019-04-04T13:20:53Z</time>
      </trkpt>
      <trkpt lat="47.46438" lon="3.72222">
        <ele>271</ele>
        <time>2019-04-04T13:20:56Z</time>
      </trkpt>
      <trkpt lat="47.46438" lon="3.72228">
        <ele>272</ele>
        <time>2019-04-04T13:20:59Z</time>
      </trkpt>
      <trkpt lat="47.46438" lon="3.72232">
        <ele>272</ele>
        <time>2019-04-04T13:21:01Z</time>
      </trkpt>
      <trkpt lat="47.46438" lon="3.72236">
        <ele>273</ele>
        <time>2019-04-04T13:21:03Z</time>
      </trkpt>
      <trkpt lat="47.4644" lon="3.72244">
        <ele>274</ele>
        <time>2019-04-04T13:21:07Z</time>
      </trkpt>
      <trkpt lat="47.46444" lon="3.72249">
        <ele>272</ele>
        <time>2019-04-04T13:21:11Z</time>
      </trkpt>
      <trkpt lat="47.46444" lon="3.72249">
        <ele>272</ele>
        <time>2019-04-04T13:21:20Z</time>
      </trkpt>
      <trkpt lat="47.46444" lon="3.72249">
        <ele>272</ele>
        <time>2019-04-04T13:21:21Z</time>
      </trkpt>
      <trkpt lat="47.46445" lon="3.72255">
        <ele>271</ele>
        <time>2019-04-04T13:21:39Z</time>
      </trkpt>
      <trkpt lat="47.46444" lon="3.72263">
        <ele>272</ele>
        <time>2019-04-04T13:21:48Z</time>
      </trkpt>
      <trkpt lat="47.46443" lon="3.72273">
        <ele>271</ele>
        <time>2019-04-04T13:21:56Z</time>
      </trkpt>
      <trkpt lat="47.46443" lon="3.72279">
        <ele>271</ele>
        <time>2019-04-04T13:21:59Z</time>
      </trkpt>
      <trkpt lat="47.46442" lon="3.72286">
        <ele>270</ele>
        <time>2019-04-04T13:22:02Z</time>
      </trkpt>
      <trkpt lat="47.46441" lon="3.72292">
        <ele>270</ele>
        <time>2019-04-04T13:22:06Z</time>
      </trkpt>
      <trkpt lat="47.46441" lon="3.72299">
        <ele>268</ele>
        <time>2019-04-04T13:22:11Z</time>
      </trkpt>
      <trkpt lat="47.46439" lon="3.72309">
        <ele>270</ele>
        <time>2019-04-04T13:22:17Z</time>
      </trkpt>
      <trkpt lat="47.46439" lon="3.7232">
        <ele>272</ele>
        <time>2019-04-04T13:22:26Z</time>
      </trkpt>
      <trkpt lat="47.46438" lon="3.72327">
        <ele>272</ele>
        <time>2019-04-04T13:22:30Z</time>
      </trkpt>
      <trkpt lat="47.46436" lon="3.72333">
        <ele>271</ele>
        <time>2019-04-04T13:22:34Z</time>
      </trkpt>
      <trkpt lat="47.46435" lon="3.72337">
        <ele>270</ele>
        <time>2019-04-04T13:22:36Z</time>
      </trkpt>
      <trkpt lat="47.46434" lon="3.72341">
        <ele>270</ele>
        <time>2019-04-04T13:22:39Z</time>
      </trkpt>
      <trkpt lat="47.46434" lon="3.7235">
        <ele>269</ele>
        <time>2019-04-04T13:22:43Z</time>
      </trkpt>
      <trkpt lat="47.46434" lon="3.72354">
        <ele>270</ele>
        <time>2019-04-04T13:22:46Z</time>
      </trkpt>
      <trkpt lat="47.46434" lon="3.72361">
        <ele>269</ele>
        <time>2019-04-04T13:22:48Z</time>
      </trkpt>
      <trkpt lat="47.46433" lon="3.72369">
        <ele>268</ele>
        <time>2019-04-04T13:22:54Z</time>
      </trkpt>
      <trkpt lat="47.46433" lon="3.72376">
        <ele>268</ele>
        <time>2019-04-04T13:22:58Z</time>
      </trkpt>
      <trkpt lat="47.46433" lon="3.72383">
        <ele>269</ele>
        <time>2019-04-04T13:23:01Z</time>
      </trkpt>
      <trkpt lat="47.46434" lon="3.72387">
        <ele>269</ele>
        <time>2019-04-04T13:23:03Z</time>
      </trkpt>
      <trkpt lat="47.46433" lon="3.72394">
        <ele>268</ele>
        <time>2019-04-04T13:23:07Z</time>
      </trkpt>
      <trkpt lat="47.46433" lon="3.72399">
        <ele>268</ele>
        <time>2019-04-04T13:23:10Z</time>
      </trkpt>
      <trkpt lat="47.46433" lon="3.72406">
        <ele>268</ele>
        <time>2019-04-04T13:23:13Z</time>
      </trkpt>
      <trkpt lat="47.46433" lon="3.72414">
        <ele>268</ele>
        <time>2019-04-04T13:23:16Z</time>
      </trkpt>
      <trkpt lat="47.46434" lon="3.72418">
        <ele>268</ele>
        <time>2019-04-04T13:23:18Z</time>
      </trkpt>
      <trkpt lat="47.46434" lon="3.72422">
        <ele>269</ele>
        <time>2019-04-04T13:23:20Z</time>
      </trkpt>
      <trkpt lat="47.46434" lon="3.72425">
        <ele>269</ele>
        <time>2019-04-04T13:23:22Z</time>
      </trkpt>
      <trkpt lat="47.46436" lon="3.72433">
        <ele>270</ele>
        <time>2019-04-04T13:23:27Z</time>
      </trkpt>
      <trkpt lat="47.46437" lon="3.72438">
        <ele>269</ele>
        <time>2019-04-04T13:23:30Z</time>
      </trkpt>
      <trkpt lat="47.46439" lon="3.72445">
        <ele>269</ele>
        <time>2019-04-04T13:23:34Z</time>
      </trkpt>
      <trkpt lat="47.46439" lon="3.72449">
        <ele>269</ele>
        <time>2019-04-04T13:23:36Z</time>
      </trkpt>
      <trkpt lat="47.4644" lon="3.72459">
        <ele>269</ele>
        <time>2019-04-04T13:23:41Z</time>
      </trkpt>
      <trkpt lat="47.46441" lon="3.72466">
        <ele>268</ele>
        <time>2019-04-04T13:23:44Z</time>
      </trkpt>
      <trkpt lat="47.46442" lon="3.72473">
        <ele>269</ele>
        <time>2019-04-04T13:23:48Z</time>
      </trkpt>
      <trkpt lat="47.46442" lon="3.72479">
        <ele>269</ele>
        <time>2019-04-04T13:23:51Z</time>
      </trkpt>
      <trkpt lat="47.46443" lon="3.72483">
        <ele>268</ele>
        <time>2019-04-04T13:23:53Z</time>
      </trkpt>
      <trkpt lat="47.46443" lon="3.72486">
        <ele>268</ele>
        <time>2019-04-04T13:23:55Z</time>
      </trkpt>
      <trkpt lat="47.46444" lon="3.7249">
        <ele>269</ele>
        <time>2019-04-04T13:23:57Z</time>
      </trkpt>
      <trkpt lat="47.46444" lon="3.72494">
        <ele>268</ele>
        <time>2019-04-04T13:23:59Z</time>
      </trkpt>
      <trkpt lat="47.46444" lon="3.72498">
        <ele>269</ele>
        <time>2019-04-04T13:24:02Z</time>
      </trkpt>
      <trkpt lat="47.46446" lon="3.72505">
        <ele>268</ele>
        <time>2019-04-04T13:24:06Z</time>
      </trkpt>
      <trkpt lat="47.46447" lon="3.72513">
        <ele>267</ele>
        <time>2019-04-04T13:24:10Z</time>
      </trkpt>
      <trkpt lat="47.46447" lon="3.7252">
        <ele>267</ele>
        <time>2019-04-04T13:24:13Z</time>
      </trkpt>
      <trkpt lat="47.46449" lon="3.72528">
        <ele>267</ele>
        <time>2019-04-04T13:24:16Z</time>
      </trkpt>
      <trkpt lat="47.4645" lon="3.72532">
        <ele>267</ele>
        <time>2019-04-04T13:24:18Z</time>
      </trkpt>
      <trkpt lat="47.4645" lon="3.72535">
        <ele>268</ele>
        <time>2019-04-04T13:24:20Z</time>
      </trkpt>
      <trkpt lat="47.46452" lon="3.72543">
        <ele>269</ele>
        <time>2019-04-04T13:24:24Z</time>
      </trkpt>
      <trkpt lat="47.46453" lon="3.72547">
        <ele>270</ele>
        <time>2019-04-04T13:24:26Z</time>
      </trkpt>
      <trkpt lat="47.46453" lon="3.72552">
        <ele>270</ele>
        <time>2019-04-04T13:24:28Z</time>
      </trkpt>
      <trkpt lat="47.46454" lon="3.72556">
        <ele>271</ele>
        <time>2019-04-04T13:24:30Z</time>
      </trkpt>
      <trkpt lat="47.46456" lon="3.72563">
        <ele>272</ele>
        <time>2019-04-04T13:24:34Z</time>
      </trkpt>
      <trkpt lat="47.46458" lon="3.7257">
        <ele>271</ele>
        <time>2019-04-04T13:24:38Z</time>
      </trkpt>
      <trkpt lat="47.46461" lon="3.72576">
        <ele>271</ele>
        <time>2019-04-04T13:24:43Z</time>
      </trkpt>
      <trkpt lat="47.46462" lon="3.72583">
        <ele>272</ele>
        <time>2019-04-04T13:24:47Z</time>
      </trkpt>
      <trkpt lat="47.46463" lon="3.72588">
        <ele>273</ele>
        <time>2019-04-04T13:24:50Z</time>
      </trkpt>
      <trkpt lat="47.46466" lon="3.72596">
        <ele>273</ele>
        <time>2019-04-04T13:24:54Z</time>
      </trkpt>
      <trkpt lat="47.4647" lon="3.72605">
        <ele>271</ele>
        <time>2019-04-04T13:24:58Z</time>
      </trkpt>
      <trkpt lat="47.46471" lon="3.72608">
        <ele>271</ele>
        <time>2019-04-04T13:25:00Z</time>
      </trkpt>
      <trkpt lat="47.46473" lon="3.72611">
        <ele>271</ele>
        <time>2019-04-04T13:25:02Z</time>
      </trkpt>
      <trkpt lat="47.46474" lon="3.72615">
        <ele>270</ele>
        <time>2019-04-04T13:25:04Z</time>
      </trkpt>
      <trkpt lat="47.46476" lon="3.7262">
        <ele>269</ele>
        <time>2019-04-04T13:25:07Z</time>
      </trkpt>
      <trkpt lat="47.46479" lon="3.72627">
        <ele>268</ele>
        <time>2019-04-04T13:25:10Z</time>
      </trkpt>
      <trkpt lat="47.46481" lon="3.72634">
        <ele>267</ele>
        <time>2019-04-04T13:25:13Z</time>
      </trkpt>
      <trkpt lat="47.46484" lon="3.72639">
        <ele>265</ele>
        <time>2019-04-04T13:25:17Z</time>
      </trkpt>
      <trkpt lat="47.46487" lon="3.72645">
        <ele>264</ele>
        <time>2019-04-04T13:25:22Z</time>
      </trkpt>
      <trkpt lat="47.46489" lon="3.72649">
        <ele>264</ele>
        <time>2019-04-04T13:25:25Z</time>
      </trkpt>
      <trkpt lat="47.46492" lon="3.72656">
        <ele>264</ele>
        <time>2019-04-04T13:25:28Z</time>
      </trkpt>
      <trkpt lat="47.46494" lon="3.7266">
        <ele>264</ele>
        <time>2019-04-04T13:25:30Z</time>
      </trkpt>
      <trkpt lat="47.46495" lon="3.72667">
        <ele>264</ele>
        <time>2019-04-04T13:25:35Z</time>
      </trkpt>
      <trkpt lat="47.46498" lon="3.72673">
        <ele>264</ele>
        <time>2019-04-04T13:25:39Z</time>
      </trkpt>
      <trkpt lat="47.46501" lon="3.7268">
        <ele>264</ele>
        <time>2019-04-04T13:25:43Z</time>
      </trkpt>
      <trkpt lat="47.46504" lon="3.72688">
        <ele>266</ele>
        <time>2019-04-04T13:25:47Z</time>
      </trkpt>
      <trkpt lat="47.46505" lon="3.72691">
        <ele>266</ele>
        <time>2019-04-04T13:25:49Z</time>
      </trkpt>
      <trkpt lat="47.46506" lon="3.72695">
        <ele>266</ele>
        <time>2019-04-04T13:25:51Z</time>
      </trkpt>
      <trkpt lat="47.46508" lon="3.72701">
        <ele>266</ele>
        <time>2019-04-04T13:25:57Z</time>
      </trkpt>
      <trkpt lat="47.46511" lon="3.72708">
        <ele>265</ele>
        <time>2019-04-04T13:26:02Z</time>
      </trkpt>
      <trkpt lat="47.46514" lon="3.72716">
        <ele>264</ele>
        <time>2019-04-04T13:26:06Z</time>
      </trkpt>
      <trkpt lat="47.46515" lon="3.72723">
        <ele>264</ele>
        <time>2019-04-04T13:26:09Z</time>
      </trkpt>
      <trkpt lat="47.46517" lon="3.7273">
        <ele>263</ele>
        <time>2019-04-04T13:26:14Z</time>
      </trkpt>
      <trkpt lat="47.46519" lon="3.72738">
        <ele>264</ele>
        <time>2019-04-04T13:26:18Z</time>
      </trkpt>
      <trkpt lat="47.46521" lon="3.72744">
        <ele>264</ele>
        <time>2019-04-04T13:26:21Z</time>
      </trkpt>
      <trkpt lat="47.46522" lon="3.72748">
        <ele>264</ele>
        <time>2019-04-04T13:26:23Z</time>
      </trkpt>
      <trkpt lat="47.46526" lon="3.72757">
        <ele>264</ele>
        <time>2019-04-04T13:26:28Z</time>
      </trkpt>
      <trkpt lat="47.46529" lon="3.72765">
        <ele>263</ele>
        <time>2019-04-04T13:26:32Z</time>
      </trkpt>
      <trkpt lat="47.46531" lon="3.7277">
        <ele>261</ele>
        <time>2019-04-04T13:26:35Z</time>
      </trkpt>
      <trkpt lat="47.46534" lon="3.72777">
        <ele>261</ele>
        <time>2019-04-04T13:26:38Z</time>
      </trkpt>
      <trkpt lat="47.46536" lon="3.72783">
        <ele>262</ele>
        <time>2019-04-04T13:26:41Z</time>
      </trkpt>
      <trkpt lat="47.46538" lon="3.72787">
        <ele>262</ele>
        <time>2019-04-04T13:26:43Z</time>
      </trkpt>
      <trkpt lat="47.46542" lon="3.72792">
        <ele>263</ele>
        <time>2019-04-04T13:26:47Z</time>
      </trkpt>
      <trkpt lat="47.46545" lon="3.72798">
        <ele>262</ele>
        <time>2019-04-04T13:26:51Z</time>
      </trkpt>
      <trkpt lat="47.46546" lon="3.72801">
        <ele>261</ele>
        <time>2019-04-04T13:26:53Z</time>
      </trkpt>
      <trkpt lat="47.46549" lon="3.72804">
        <ele>261</ele>
        <time>2019-04-04T13:26:56Z</time>
      </trkpt>
      <trkpt lat="47.46551" lon="3.72811">
        <ele>261</ele>
        <time>2019-04-04T13:27:00Z</time>
      </trkpt>
      <trkpt lat="47.46555" lon="3.72817">
        <ele>260</ele>
        <time>2019-04-04T13:27:04Z</time>
      </trkpt>
      <trkpt lat="47.46558" lon="3.72823">
        <ele>260</ele>
        <time>2019-04-04T13:27:08Z</time>
      </trkpt>
      <trkpt lat="47.46561" lon="3.7283">
        <ele>259</ele>
        <time>2019-04-04T13:27:12Z</time>
      </trkpt>
      <trkpt lat="47.46562" lon="3.72833">
        <ele>259</ele>
        <time>2019-04-04T13:27:14Z</time>
      </trkpt>
      <trkpt lat="47.46564" lon="3.72836">
        <ele>260</ele>
        <time>2019-04-04T13:27:16Z</time>
      </trkpt>
      <trkpt lat="47.46566" lon="3.72843">
        <ele>259</ele>
        <time>2019-04-04T13:27:20Z</time>
      </trkpt>
      <trkpt lat="47.46569" lon="3.7285">
        <ele>259</ele>
        <time>2019-04-04T13:27:24Z</time>
      </trkpt>
      <trkpt lat="47.46571" lon="3.72854">
        <ele>259</ele>
        <time>2019-04-04T13:27:26Z</time>
      </trkpt>
      <trkpt lat="47.46572" lon="3.72858">
        <ele>259</ele>
        <time>2019-04-04T13:27:28Z</time>
      </trkpt>
      <trkpt lat="47.46573" lon="3.72864">
        <ele>257</ele>
        <time>2019-04-04T13:27:31Z</time>
      </trkpt>
      <trkpt lat="47.46575" lon="3.72869">
        <ele>256</ele>
        <time>2019-04-04T13:27:34Z</time>
      </trkpt>
      <trkpt lat="47.46577" lon="3.7287">
        <ele>257</ele>
        <time>2019-04-04T13:27:44Z</time>
      </trkpt>
      <trkpt lat="47.4658" lon="3.72877">
        <ele>256</ele>
        <time>2019-04-04T13:27:54Z</time>
      </trkpt>
      <trkpt lat="47.46582" lon="3.72882">
        <ele>255</ele>
        <time>2019-04-04T13:27:59Z</time>
      </trkpt>
      <trkpt lat="47.46584" lon="3.7289">
        <ele>254</ele>
        <time>2019-04-04T13:28:04Z</time>
      </trkpt>
      <trkpt lat="47.46587" lon="3.72898">
        <ele>255</ele>
        <time>2019-04-04T13:28:10Z</time>
      </trkpt>
      <trkpt lat="47.46589" lon="3.72904">
        <ele>256</ele>
        <time>2019-04-04T13:28:15Z</time>
      </trkpt>
      <trkpt lat="47.46593" lon="3.7291">
        <ele>254</ele>
        <time>2019-04-04T13:28:19Z</time>
      </trkpt>
      <trkpt lat="47.46595" lon="3.72912">
        <ele>254</ele>
        <time>2019-04-04T13:28:21Z</time>
      </trkpt>
      <trkpt lat="47.46598" lon="3.72919">
        <ele>253</ele>
        <time>2019-04-04T13:28:26Z</time>
      </trkpt>
      <trkpt lat="47.466" lon="3.72924">
        <ele>252</ele>
        <time>2019-04-04T13:28:29Z</time>
      </trkpt>
      <trkpt lat="47.46602" lon="3.72926">
        <ele>252</ele>
        <time>2019-04-04T13:28:31Z</time>
      </trkpt>
      <trkpt lat="47.46604" lon="3.72935">
        <ele>251</ele>
        <time>2019-04-04T13:28:37Z</time>
      </trkpt>
      <trkpt lat="47.46602" lon="3.72937">
        <ele>251</ele>
        <time>2019-04-04T13:28:46Z</time>
      </trkpt>
      <trkpt lat="47.46606" lon="3.72943">
        <ele>251</ele>
        <time>2019-04-04T13:28:56Z</time>
      </trkpt>
      <trkpt lat="47.46607" lon="3.72946">
        <ele>251</ele>
        <time>2019-04-04T13:29:05Z</time>
      </trkpt>
      <trkpt lat="47.46609" lon="3.7295">
        <ele>251</ele>
        <time>2019-04-04T13:29:20Z</time>
      </trkpt>
      <trkpt lat="47.46612" lon="3.7296">
        <ele>252</ele>
        <time>2019-04-04T13:29:27Z</time>
      </trkpt>
      <trkpt lat="47.46615" lon="3.72966">
        <ele>252</ele>
        <time>2019-04-04T13:29:31Z</time>
      </trkpt>
      <trkpt lat="47.46616" lon="3.72971">
        <ele>251</ele>
        <time>2019-04-04T13:29:33Z</time>
      </trkpt>
      <trkpt lat="47.46617" lon="3.72974">
        <ele>251</ele>
        <time>2019-04-04T13:29:36Z</time>
      </trkpt>
      <trkpt lat="47.46619" lon="3.72978">
        <ele>250</ele>
        <time>2019-04-04T13:29:38Z</time>
      </trkpt>
      <trkpt lat="47.46622" lon="3.72983">
        <ele>250</ele>
        <time>2019-04-04T13:29:43Z</time>
      </trkpt>
      <trkpt lat="47.46623" lon="3.7299">
        <ele>249</ele>
        <time>2019-04-04T13:29:47Z</time>
      </trkpt>
      <trkpt lat="47.46626" lon="3.72996">
        <ele>248</ele>
        <time>2019-04-04T13:29:52Z</time>
      </trkpt>
      <trkpt lat="47.46629" lon="3.73003">
        <ele>248</ele>
        <time>2019-04-04T13:29:57Z</time>
      </trkpt>
      <trkpt lat="47.4663" lon="3.73006">
        <ele>248</ele>
        <time>2019-04-04T13:29:59Z</time>
      </trkpt>
      <trkpt lat="47.46632" lon="3.7301">
        <ele>248</ele>
        <time>2019-04-04T13:30:00Z</time>
      </trkpt>
      <trkpt lat="47.46633" lon="3.73013">
        <ele>249</ele>
        <time>2019-04-04T13:30:03Z</time>
      </trkpt>
      <trkpt lat="47.46636" lon="3.73019">
        <ele>247</ele>
        <time>2019-04-04T13:30:07Z</time>
      </trkpt>
      <trkpt lat="47.46639" lon="3.73024">
        <ele>248</ele>
        <time>2019-04-04T13:30:12Z</time>
      </trkpt>
      <trkpt lat="47.46641" lon="3.73027">
        <ele>248</ele>
        <time>2019-04-04T13:30:14Z</time>
      </trkpt>
      <trkpt lat="47.46643" lon="3.73029">
        <ele>248</ele>
        <time>2019-04-04T13:30:16Z</time>
      </trkpt>
      <trkpt lat="47.46646" lon="3.73034">
        <ele>247</ele>
        <time>2019-04-04T13:30:21Z</time>
      </trkpt>
      <trkpt lat="47.46649" lon="3.7304">
        <ele>246</ele>
        <time>2019-04-04T13:30:25Z</time>
      </trkpt>
      <trkpt lat="47.46652" lon="3.73044">
        <ele>245</ele>
        <time>2019-04-04T13:30:28Z</time>
      </trkpt>
      <trkpt lat="47.46654" lon="3.73047">
        <ele>245</ele>
        <time>2019-04-04T13:30:30Z</time>
      </trkpt>
      <trkpt lat="47.46656" lon="3.73055">
        <ele>245</ele>
        <time>2019-04-04T13:30:34Z</time>
      </trkpt>
      <trkpt lat="47.4666" lon="3.73062">
        <ele>245</ele>
        <time>2019-04-04T13:30:38Z</time>
      </trkpt>
      <trkpt lat="47.46661" lon="3.73066">
        <ele>245</ele>
        <time>2019-04-04T13:30:40Z</time>
      </trkpt>
      <trkpt lat="47.46667" lon="3.73071">
        <ele>245</ele>
        <time>2019-04-04T13:30:44Z</time>
      </trkpt>
      <trkpt lat="47.4667" lon="3.73078">
        <ele>245</ele>
        <time>2019-04-04T13:30:48Z</time>
      </trkpt>
      <trkpt lat="47.46672" lon="3.73083">
        <ele>246</ele>
        <time>2019-04-04T13:30:52Z</time>
      </trkpt>
      <trkpt lat="47.46675" lon="3.73088">
        <ele>245</ele>
        <time>2019-04-04T13:30:56Z</time>
      </trkpt>
      <trkpt lat="47.46677" lon="3.73092">
        <ele>245</ele>
        <time>2019-04-04T13:30:59Z</time>
      </trkpt>
      <trkpt lat="47.4668" lon="3.73097">
        <ele>245</ele>
        <time>2019-04-04T13:31:03Z</time>
      </trkpt>
      <trkpt lat="47.46681" lon="3.73101">
        <ele>246</ele>
        <time>2019-04-04T13:31:06Z</time>
      </trkpt>
      <trkpt lat="47.46683" lon="3.73107">
        <ele>247</ele>
        <time>2019-04-04T13:31:10Z</time>
      </trkpt>
      <trkpt lat="47.46685" lon="3.73111">
        <ele>247</ele>
        <time>2019-04-04T13:31:12Z</time>
      </trkpt>
      <trkpt lat="47.46686" lon="3.73116">
        <ele>246</ele>
        <time>2019-04-04T13:31:15Z</time>
      </trkpt>
      <trkpt lat="47.46687" lon="3.73119">
        <ele>246</ele>
        <time>2019-04-04T13:31:17Z</time>
      </trkpt>
      <trkpt lat="47.4669" lon="3.73125">
        <ele>247</ele>
        <time>2019-04-04T13:31:20Z</time>
      </trkpt>
      <trkpt lat="47.46692" lon="3.73129">
        <ele>246</ele>
        <time>2019-04-04T13:31:22Z</time>
      </trkpt>
      <trkpt lat="47.46693" lon="3.73133">
        <ele>245</ele>
        <time>2019-04-04T13:31:25Z</time>
      </trkpt>
      <trkpt lat="47.46697" lon="3.73137">
        <ele>246</ele>
        <time>2019-04-04T13:31:29Z</time>
      </trkpt>
      <trkpt lat="47.46699" lon="3.73139">
        <ele>246</ele>
        <time>2019-04-04T13:31:32Z</time>
      </trkpt>
      <trkpt lat="47.46701" lon="3.73142">
        <ele>247</ele>
        <time>2019-04-04T13:31:33Z</time>
      </trkpt>
      <trkpt lat="47.46703" lon="3.73145">
        <ele>246</ele>
        <time>2019-04-04T13:31:35Z</time>
      </trkpt>
      <trkpt lat="47.46705" lon="3.73151">
        <ele>247</ele>
        <time>2019-04-04T13:31:38Z</time>
      </trkpt>
      <trkpt lat="47.46709" lon="3.73157">
        <ele>247</ele>
        <time>2019-04-04T13:31:43Z</time>
      </trkpt>
      <trkpt lat="47.46712" lon="3.73161">
        <ele>248</ele>
        <time>2019-04-04T13:31:46Z</time>
      </trkpt>
      <trkpt lat="47.46717" lon="3.73165">
        <ele>245</ele>
        <time>2019-04-04T13:31:51Z</time>
      </trkpt>
      <trkpt lat="47.46722" lon="3.73168">
        <ele>245</ele>
        <time>2019-04-04T13:31:53Z</time>
      </trkpt>
      <trkpt lat="47.46726" lon="3.73172">
        <ele>244</ele>
        <time>2019-04-04T13:31:57Z</time>
      </trkpt>
      <trkpt lat="47.4673" lon="3.73177">
        <ele>243</ele>
        <time>2019-04-04T13:32:01Z</time>
      </trkpt>
      <trkpt lat="47.46731" lon="3.73183">
        <ele>244</ele>
        <time>2019-04-04T13:32:10Z</time>
      </trkpt>
      <trkpt lat="47.46735" lon="3.73189">
        <ele>242</ele>
        <time>2019-04-04T13:32:13Z</time>
      </trkpt>
      <trkpt lat="47.4674" lon="3.73192">
        <ele>241</ele>
        <time>2019-04-04T13:32:19Z</time>
      </trkpt>
      <trkpt lat="47.46744" lon="3.73194">
        <ele>241</ele>
        <time>2019-04-04T13:32:24Z</time>
      </trkpt>
      <trkpt lat="47.46748" lon="3.732">
        <ele>243</ele>
        <time>2019-04-04T13:32:31Z</time>
      </trkpt>
      <trkpt lat="47.46751" lon="3.73206">
        <ele>244</ele>
        <time>2019-04-04T13:32:34Z</time>
      </trkpt>
      <trkpt lat="47.46755" lon="3.73211">
        <ele>242</ele>
        <time>2019-04-04T13:32:38Z</time>
      </trkpt>
      <trkpt lat="47.46757" lon="3.73215">
        <ele>243</ele>
        <time>2019-04-04T13:32:47Z</time>
      </trkpt>
      <trkpt lat="47.4676" lon="3.73218">
        <ele>245</ele>
        <time>2019-04-04T13:32:53Z</time>
      </trkpt>
      <trkpt lat="47.46762" lon="3.73225">
        <ele>246</ele>
        <time>2019-04-04T13:33:07Z</time>
      </trkpt>
      <trkpt lat="47.46761" lon="3.73232">
        <ele>246</ele>
        <time>2019-04-04T13:33:28Z</time>
      </trkpt>
      <trkpt lat="47.46769" lon="3.73234">
        <ele>249</ele>
        <time>2019-04-04T13:33:40Z</time>
      </trkpt>
      <trkpt lat="47.46774" lon="3.73237">
        <ele>249</ele>
        <time>2019-04-04T13:33:46Z</time>
      </trkpt>
      <trkpt lat="47.4678" lon="3.73243">
        <ele>250</ele>
        <time>2019-04-04T13:33:53Z</time>
      </trkpt>
      <trkpt lat="47.46783" lon="3.73248">
        <ele>250</ele>
        <time>2019-04-04T13:33:58Z</time>
      </trkpt>
      <trkpt lat="47.46785" lon="3.73252">
        <ele>248</ele>
        <time>2019-04-04T13:34:01Z</time>
      </trkpt>
      <trkpt lat="47.46788" lon="3.73258">
        <ele>247</ele>
        <time>2019-04-04T13:34:06Z</time>
      </trkpt>
      <trkpt lat="47.46791" lon="3.73267">
        <ele>246</ele>
        <time>2019-04-04T13:34:11Z</time>
      </trkpt>
      <trkpt lat="47.46795" lon="3.73272">
        <ele>245</ele>
        <time>2019-04-04T13:34:15Z</time>
      </trkpt>
      <trkpt lat="47.46798" lon="3.73278">
        <ele>245</ele>
        <time>2019-04-04T13:34:21Z</time>
      </trkpt>
      <trkpt lat="47.46802" lon="3.73283">
        <ele>248</ele>
        <time>2019-04-04T13:34:25Z</time>
      </trkpt>
      <trkpt lat="47.46805" lon="3.73285">
        <ele>248</ele>
        <time>2019-04-04T13:34:29Z</time>
      </trkpt>
      <trkpt lat="47.46808" lon="3.73292">
        <ele>248</ele>
        <time>2019-04-04T13:34:33Z</time>
      </trkpt>
      <trkpt lat="47.46811" lon="3.73297">
        <ele>248</ele>
        <time>2019-04-04T13:34:37Z</time>
      </trkpt>
      <trkpt lat="47.46818" lon="3.73298">
        <ele>247</ele>
        <time>2019-04-04T13:34:45Z</time>
      </trkpt>
      <trkpt lat="47.46823" lon="3.73301">
        <ele>246</ele>
        <time>2019-04-04T13:34:49Z</time>
      </trkpt>
      <trkpt lat="47.46826" lon="3.73307">
        <ele>246</ele>
        <time>2019-04-04T13:34:54Z</time>
      </trkpt>
      <trkpt lat="47.46831" lon="3.73311">
        <ele>245</ele>
        <time>2019-04-04T13:34:57Z</time>
      </trkpt>
      <trkpt lat="47.46834" lon="3.73322">
        <ele>242</ele>
        <time>2019-04-04T13:35:00Z</time>
      </trkpt>
      <trkpt lat="47.46837" lon="3.73326">
        <ele>240</ele>
        <time>2019-04-04T13:35:04Z</time>
      </trkpt>
      <trkpt lat="47.46841" lon="3.73333">
        <ele>241</ele>
        <time>2019-04-04T13:35:08Z</time>
      </trkpt>
      <trkpt lat="47.46843" lon="3.73337">
        <ele>240</ele>
        <time>2019-04-04T13:35:12Z</time>
      </trkpt>
      <trkpt lat="47.46845" lon="3.7334">
        <ele>239</ele>
        <time>2019-04-04T13:35:15Z</time>
      </trkpt>
      <trkpt lat="47.46848" lon="3.73345">
        <ele>240</ele>
        <time>2019-04-04T13:35:19Z</time>
      </trkpt>
      <trkpt lat="47.46851" lon="3.73349">
        <ele>240</ele>
        <time>2019-04-04T13:35:22Z</time>
      </trkpt>
      <trkpt lat="47.46853" lon="3.73352">
        <ele>240</ele>
        <time>2019-04-04T13:35:25Z</time>
      </trkpt>
      <trkpt lat="47.46858" lon="3.73356">
        <ele>240</ele>
        <time>2019-04-04T13:35:29Z</time>
      </trkpt>
      <trkpt lat="47.46861" lon="3.73362">
        <ele>240</ele>
        <time>2019-04-04T13:35:34Z</time>
      </trkpt>
      <trkpt lat="47.46864" lon="3.73365">
        <ele>239</ele>
        <time>2019-04-04T13:35:38Z</time>
      </trkpt>
      <trkpt lat="47.46869" lon="3.73369">
        <ele>239</ele>
        <time>2019-04-04T13:35:42Z</time>
      </trkpt>
      <trkpt lat="47.46873" lon="3.73372">
        <ele>239</ele>
        <time>2019-04-04T13:35:46Z</time>
      </trkpt>
      <trkpt lat="47.46875" lon="3.73374">
        <ele>239</ele>
        <time>2019-04-04T13:35:48Z</time>
      </trkpt>
      <trkpt lat="47.4688" lon="3.73377">
        <ele>240</ele>
        <time>2019-04-04T13:35:53Z</time>
      </trkpt>
      <trkpt lat="47.46885" lon="3.73382">
        <ele>240</ele>
        <time>2019-04-04T13:35:58Z</time>
      </trkpt>
      <trkpt lat="47.46888" lon="3.73385">
        <ele>240</ele>
        <time>2019-04-04T13:36:01Z</time>
      </trkpt>
      <trkpt lat="47.46893" lon="3.73389">
        <ele>241</ele>
        <time>2019-04-04T13:36:05Z</time>
      </trkpt>
      <trkpt lat="47.46896" lon="3.73394">
        <ele>242</ele>
        <time>2019-04-04T13:36:08Z</time>
      </trkpt>
      <trkpt lat="47.46899" lon="3.73396">
        <ele>242</ele>
        <time>2019-04-04T13:36:11Z</time>
      </trkpt>
      <trkpt lat="47.46901" lon="3.73399">
        <ele>242</ele>
        <time>2019-04-04T13:36:13Z</time>
      </trkpt>
      <trkpt lat="47.46904" lon="3.73402">
        <ele>243</ele>
        <time>2019-04-04T13:36:16Z</time>
      </trkpt>
      <trkpt lat="47.46909" lon="3.73404">
        <ele>242</ele>
        <time>2019-04-04T13:36:21Z</time>
      </trkpt>
      <trkpt lat="47.46914" lon="3.73406">
        <ele>241</ele>
        <time>2019-04-04T13:36:24Z</time>
      </trkpt>
      <trkpt lat="47.46917" lon="3.73407">
        <ele>242</ele>
        <time>2019-04-04T13:36:27Z</time>
      </trkpt>
      <trkpt lat="47.46921" lon="3.73411">
        <ele>241</ele>
        <time>2019-04-04T13:36:31Z</time>
      </trkpt>
      <trkpt lat="47.46925" lon="3.73413">
        <ele>241</ele>
        <time>2019-04-04T13:36:37Z</time>
      </trkpt>
      <trkpt lat="47.4693" lon="3.73416">
        <ele>241</ele>
        <time>2019-04-04T13:36:40Z</time>
      </trkpt>
      <trkpt lat="47.46933" lon="3.73419">
        <ele>241</ele>
        <time>2019-04-04T13:36:43Z</time>
      </trkpt>
      <trkpt lat="47.46936" lon="3.73421">
        <ele>241</ele>
        <time>2019-04-04T13:36:45Z</time>
      </trkpt>
      <trkpt lat="47.4694" lon="3.73425">
        <ele>241</ele>
        <time>2019-04-04T13:36:49Z</time>
      </trkpt>
      <trkpt lat="47.46943" lon="3.73428">
        <ele>241</ele>
        <time>2019-04-04T13:36:52Z</time>
      </trkpt>
      <trkpt lat="47.46948" lon="3.7343">
        <ele>241</ele>
        <time>2019-04-04T13:36:56Z</time>
      </trkpt>
      <trkpt lat="47.46953" lon="3.73431">
        <ele>240</ele>
        <time>2019-04-04T13:37:01Z</time>
      </trkpt>
      <trkpt lat="47.46953" lon="3.73439">
        <ele>241</ele>
        <time>2019-04-04T13:37:10Z</time>
      </trkpt>
      <trkpt lat="47.46954" lon="3.73451">
        <ele>240</ele>
        <time>2019-04-04T13:37:17Z</time>
      </trkpt>
      <trkpt lat="47.46954" lon="3.73457">
        <ele>240</ele>
        <time>2019-04-04T13:37:20Z</time>
      </trkpt>
      <trkpt lat="47.46956" lon="3.73465">
        <ele>240</ele>
        <time>2019-04-04T13:37:24Z</time>
      </trkpt>
      <trkpt lat="47.46956" lon="3.73473">
        <ele>239</ele>
        <time>2019-04-04T13:37:29Z</time>
      </trkpt>
      <trkpt lat="47.46956" lon="3.73477">
        <ele>239</ele>
        <time>2019-04-04T13:37:31Z</time>
      </trkpt>
      <trkpt lat="47.46956" lon="3.73485">
        <ele>238</ele>
        <time>2019-04-04T13:37:36Z</time>
      </trkpt>
      <trkpt lat="47.46957" lon="3.73491">
        <ele>237</ele>
        <time>2019-04-04T13:37:39Z</time>
      </trkpt>
      <trkpt lat="47.46956" lon="3.73498">
        <ele>237</ele>
        <time>2019-04-04T13:37:43Z</time>
      </trkpt>
      <trkpt lat="47.46955" lon="3.73507">
        <ele>237</ele>
        <time>2019-04-04T13:37:48Z</time>
      </trkpt>
      <trkpt lat="47.46955" lon="3.7351">
        <ele>237</ele>
        <time>2019-04-04T13:37:50Z</time>
      </trkpt>
      <trkpt lat="47.46954" lon="3.73518">
        <ele>236</ele>
        <time>2019-04-04T13:37:55Z</time>
      </trkpt>
      <trkpt lat="47.46952" lon="3.73525">
        <ele>234</ele>
        <time>2019-04-04T13:38:00Z</time>
      </trkpt>
      <trkpt lat="47.46951" lon="3.73529">
        <ele>234</ele>
        <time>2019-04-04T13:38:02Z</time>
      </trkpt>
      <trkpt lat="47.4695" lon="3.73536">
        <ele>234</ele>
        <time>2019-04-04T13:38:06Z</time>
      </trkpt>
      <trkpt lat="47.46947" lon="3.73543">
        <ele>233</ele>
        <time>2019-04-04T13:38:10Z</time>
      </trkpt>
      <trkpt lat="47.46946" lon="3.73546">
        <ele>233</ele>
        <time>2019-04-04T13:38:12Z</time>
      </trkpt>
      <trkpt lat="47.46944" lon="3.73551">
        <ele>233</ele>
        <time>2019-04-04T13:38:14Z</time>
      </trkpt>
      <trkpt lat="47.46942" lon="3.73554">
        <ele>232</ele>
        <time>2019-04-04T13:38:17Z</time>
      </trkpt>
      <trkpt lat="47.46939" lon="3.73561">
        <ele>231</ele>
        <time>2019-04-04T13:38:22Z</time>
      </trkpt>
      <trkpt lat="47.46938" lon="3.73565">
        <ele>231</ele>
        <time>2019-04-04T13:38:24Z</time>
      </trkpt>
      <trkpt lat="47.46936" lon="3.73568">
        <ele>231</ele>
        <time>2019-04-04T13:38:26Z</time>
      </trkpt>
      <trkpt lat="47.46935" lon="3.73573">
        <ele>231</ele>
        <time>2019-04-04T13:38:29Z</time>
      </trkpt>
      <trkpt lat="47.46932" lon="3.73579">
        <ele>231</ele>
        <time>2019-04-04T13:38:33Z</time>
      </trkpt>
      <trkpt lat="47.4693" lon="3.73586">
        <ele>231</ele>
        <time>2019-04-04T13:38:38Z</time>
      </trkpt>
      <trkpt lat="47.46928" lon="3.73591">
        <ele>231</ele>
        <time>2019-04-04T13:38:41Z</time>
      </trkpt>
      <trkpt lat="47.46927" lon="3.73595">
        <ele>230</ele>
        <time>2019-04-04T13:38:43Z</time>
      </trkpt>
      <trkpt lat="47.46924" lon="3.73601">
        <ele>230</ele>
        <time>2019-04-04T13:38:47Z</time>
      </trkpt>
      <trkpt lat="47.46923" lon="3.73604">
        <ele>230</ele>
        <time>2019-04-04T13:38:49Z</time>
      </trkpt>
      <trkpt lat="47.46921" lon="3.73611">
        <ele>229</ele>
        <time>2019-04-04T13:38:53Z</time>
      </trkpt>
      <trkpt lat="47.4692" lon="3.73615">
        <ele>228</ele>
        <time>2019-04-04T13:38:55Z</time>
      </trkpt>
      <trkpt lat="47.46918" lon="3.73622">
        <ele>228</ele>
        <time>2019-04-04T13:38:59Z</time>
      </trkpt>
      <trkpt lat="47.46915" lon="3.73628">
        <ele>226</ele>
        <time>2019-04-04T13:39:04Z</time>
      </trkpt>
      <trkpt lat="47.46914" lon="3.73632">
        <ele>226</ele>
        <time>2019-04-04T13:39:06Z</time>
      </trkpt>
      <trkpt lat="47.46913" lon="3.73636">
        <ele>226</ele>
        <time>2019-04-04T13:39:09Z</time>
      </trkpt>
      <trkpt lat="47.46911" lon="3.7364">
        <ele>226</ele>
        <time>2019-04-04T13:39:11Z</time>
      </trkpt>
      <trkpt lat="47.4691" lon="3.73647">
        <ele>225</ele>
        <time>2019-04-04T13:39:15Z</time>
      </trkpt>
      <trkpt lat="47.46908" lon="3.73654">
        <ele>224</ele>
        <time>2019-04-04T13:39:20Z</time>
      </trkpt>
      <trkpt lat="47.46906" lon="3.73661">
        <ele>225</ele>
        <time>2019-04-04T13:39:24Z</time>
      </trkpt>
      <trkpt lat="47.46904" lon="3.7367">
        <ele>225</ele>
        <time>2019-04-04T13:39:30Z</time>
      </trkpt>
      <trkpt lat="47.46901" lon="3.73678">
        <ele>226</ele>
        <time>2019-04-04T13:39:35Z</time>
      </trkpt>
      <trkpt lat="47.46899" lon="3.73686">
        <ele>226</ele>
        <time>2019-04-04T13:39:40Z</time>
      </trkpt>
      <trkpt lat="47.46896" lon="3.73692">
        <ele>227</ele>
        <time>2019-04-04T13:39:44Z</time>
      </trkpt>
      <trkpt lat="47.46895" lon="3.73698">
        <ele>228</ele>
        <time>2019-04-04T13:39:50Z</time>
      </trkpt>
      <trkpt lat="47.4689" lon="3.73704">
        <ele>228</ele>
        <time>2019-04-04T13:39:55Z</time>
      </trkpt>
      <trkpt lat="47.46887" lon="3.73708">
        <ele>230</ele>
        <time>2019-04-04T13:39:59Z</time>
      </trkpt>
      <trkpt lat="47.46885" lon="3.73711">
        <ele>229</ele>
        <time>2019-04-04T13:40:02Z</time>
      </trkpt>
      <trkpt lat="47.46883" lon="3.73713">
        <ele>229</ele>
        <time>2019-04-04T13:40:04Z</time>
      </trkpt>
      <trkpt lat="47.46881" lon="3.73715">
        <ele>230</ele>
        <time>2019-04-04T13:40:06Z</time>
      </trkpt>
      <trkpt lat="47.46877" lon="3.73719">
        <ele>231</ele>
        <time>2019-04-04T13:40:11Z</time>
      </trkpt>
      <trkpt lat="47.46875" lon="3.73726">
        <ele>232</ele>
        <time>2019-04-04T13:40:16Z</time>
      </trkpt>
      <trkpt lat="47.46872" lon="3.73733">
        <ele>232</ele>
        <time>2019-04-04T13:40:21Z</time>
      </trkpt>
      <trkpt lat="47.46869" lon="3.73739">
        <ele>232</ele>
        <time>2019-04-04T13:40:25Z</time>
      </trkpt>
      <trkpt lat="47.46866" lon="3.73746">
        <ele>233</ele>
        <time>2019-04-04T13:40:30Z</time>
      </trkpt>
      <trkpt lat="47.46865" lon="3.73749">
        <ele>234</ele>
        <time>2019-04-04T13:40:33Z</time>
      </trkpt>
      <trkpt lat="47.46863" lon="3.73756">
        <ele>235</ele>
        <time>2019-04-04T13:40:38Z</time>
      </trkpt>
      <trkpt lat="47.4686" lon="3.73762">
        <ele>235</ele>
        <time>2019-04-04T13:40:42Z</time>
      </trkpt>
      <trkpt lat="47.46859" lon="3.73765">
        <ele>235</ele>
        <time>2019-04-04T13:40:45Z</time>
      </trkpt>
      <trkpt lat="47.46857" lon="3.73767">
        <ele>236</ele>
        <time>2019-04-04T13:40:46Z</time>
      </trkpt>
      <trkpt lat="47.46856" lon="3.73771">
        <ele>236</ele>
        <time>2019-04-04T13:40:49Z</time>
      </trkpt>
      <trkpt lat="47.46852" lon="3.73775">
        <ele>237</ele>
        <time>2019-04-04T13:40:55Z</time>
      </trkpt>
      <trkpt lat="47.46849" lon="3.73778">
        <ele>238</ele>
        <time>2019-04-04T13:40:58Z</time>
      </trkpt>
      <trkpt lat="47.46846" lon="3.73783">
        <ele>238</ele>
        <time>2019-04-04T13:41:03Z</time>
      </trkpt>
      <trkpt lat="47.46842" lon="3.73787">
        <ele>240</ele>
        <time>2019-04-04T13:41:07Z</time>
      </trkpt>
      <trkpt lat="47.4684" lon="3.7379">
        <ele>240</ele>
        <time>2019-04-04T13:41:09Z</time>
      </trkpt>
      <trkpt lat="47.46835" lon="3.73794">
        <ele>240</ele>
        <time>2019-04-04T13:41:14Z</time>
      </trkpt>
      <trkpt lat="47.46833" lon="3.73796">
        <ele>241</ele>
        <time>2019-04-04T13:41:17Z</time>
      </trkpt>
      <trkpt lat="47.46829" lon="3.73801">
        <ele>243</ele>
        <time>2019-04-04T13:41:22Z</time>
      </trkpt>
      <trkpt lat="47.46827" lon="3.73804">
        <ele>242</ele>
        <time>2019-04-04T13:41:25Z</time>
      </trkpt>
      <trkpt lat="47.46825" lon="3.73806">
        <ele>242</ele>
        <time>2019-04-04T13:41:27Z</time>
      </trkpt>
      <trkpt lat="47.46823" lon="3.7381">
        <ele>243</ele>
        <time>2019-04-04T13:41:30Z</time>
      </trkpt>
      <trkpt lat="47.46819" lon="3.73814">
        <ele>243</ele>
        <time>2019-04-04T13:41:34Z</time>
      </trkpt>
      <trkpt lat="47.46815" lon="3.73818">
        <ele>244</ele>
        <time>2019-04-04T13:41:38Z</time>
      </trkpt>
      <trkpt lat="47.46812" lon="3.73821">
        <ele>244</ele>
        <time>2019-04-04T13:41:41Z</time>
      </trkpt>
      <trkpt lat="47.46808" lon="3.73826">
        <ele>244</ele>
        <time>2019-04-04T13:41:45Z</time>
      </trkpt>
      <trkpt lat="47.46804" lon="3.73829">
        <ele>246</ele>
        <time>2019-04-04T13:41:50Z</time>
      </trkpt>
      <trkpt lat="47.46802" lon="3.73832">
        <ele>246</ele>
        <time>2019-04-04T13:41:52Z</time>
      </trkpt>
      <trkpt lat="47.46799" lon="3.73835">
        <ele>246</ele>
        <time>2019-04-04T13:41:55Z</time>
      </trkpt>
      <trkpt lat="47.46797" lon="3.73837">
        <ele>247</ele>
        <time>2019-04-04T13:41:57Z</time>
      </trkpt>
      <trkpt lat="47.46794" lon="3.7384">
        <ele>247</ele>
        <time>2019-04-04T13:42:00Z</time>
      </trkpt>
      <trkpt lat="47.46789" lon="3.73844">
        <ele>247</ele>
        <time>2019-04-04T13:42:04Z</time>
      </trkpt>
      <trkpt lat="47.46786" lon="3.7385">
        <ele>247</ele>
        <time>2019-04-04T13:42:08Z</time>
      </trkpt>
      <trkpt lat="47.46784" lon="3.73854">
        <ele>246</ele>
        <time>2019-04-04T13:42:11Z</time>
      </trkpt>
      <trkpt lat="47.46782" lon="3.73857">
        <ele>246</ele>
        <time>2019-04-04T13:42:13Z</time>
      </trkpt>
      <trkpt lat="47.46779" lon="3.73863">
        <ele>245</ele>
        <time>2019-04-04T13:42:17Z</time>
      </trkpt>
      <trkpt lat="47.46774" lon="3.73867">
        <ele>245</ele>
        <time>2019-04-04T13:42:22Z</time>
      </trkpt>
      <trkpt lat="47.46771" lon="3.7387">
        <ele>245</ele>
        <time>2019-04-04T13:42:25Z</time>
      </trkpt>
      <trkpt lat="47.46769" lon="3.73872">
        <ele>246</ele>
        <time>2019-04-04T13:42:27Z</time>
      </trkpt>
      <trkpt lat="47.46764" lon="3.73874">
        <ele>247</ele>
        <time>2019-04-04T13:42:32Z</time>
      </trkpt>
      <trkpt lat="47.4676" lon="3.73879">
        <ele>248</ele>
        <time>2019-04-04T13:42:37Z</time>
      </trkpt>
      <trkpt lat="47.46756" lon="3.73883">
        <ele>249</ele>
        <time>2019-04-04T13:42:42Z</time>
      </trkpt>
      <trkpt lat="47.46754" lon="3.73886">
        <ele>250</ele>
        <time>2019-04-04T13:42:44Z</time>
      </trkpt>
      <trkpt lat="47.46752" lon="3.73888">
        <ele>250</ele>
        <time>2019-04-04T13:42:47Z</time>
      </trkpt>
      <trkpt lat="47.46749" lon="3.73891">
        <ele>251</ele>
        <time>2019-04-04T13:42:49Z</time>
      </trkpt>
      <trkpt lat="47.46744" lon="3.73894">
        <ele>251</ele>
        <time>2019-04-04T13:42:54Z</time>
      </trkpt>
      <trkpt lat="47.4674" lon="3.73898">
        <ele>252</ele>
        <time>2019-04-04T13:42:59Z</time>
      </trkpt>
      <trkpt lat="47.46736" lon="3.73903">
        <ele>252</ele>
        <time>2019-04-04T13:43:03Z</time>
      </trkpt>
      <trkpt lat="47.46733" lon="3.73905">
        <ele>252</ele>
        <time>2019-04-04T13:43:05Z</time>
      </trkpt>
      <trkpt lat="47.46729" lon="3.73911">
        <ele>253</ele>
        <time>2019-04-04T13:43:09Z</time>
      </trkpt>
      <trkpt lat="47.46723" lon="3.73919">
        <ele>253</ele>
        <time>2019-04-04T13:43:16Z</time>
      </trkpt>
      <trkpt lat="47.4672" lon="3.73923">
        <ele>253</ele>
        <time>2019-04-04T13:43:19Z</time>
      </trkpt>
      <trkpt lat="47.46716" lon="3.73927">
        <ele>253</ele>
        <time>2019-04-04T13:43:23Z</time>
      </trkpt>
      <trkpt lat="47.46713" lon="3.73932">
        <ele>255</ele>
        <time>2019-04-04T13:43:27Z</time>
      </trkpt>
      <trkpt lat="47.4671" lon="3.73936">
        <ele>254</ele>
        <time>2019-04-04T13:43:30Z</time>
      </trkpt>
      <trkpt lat="47.46707" lon="3.73941">
        <ele>254</ele>
        <time>2019-04-04T13:43:34Z</time>
      </trkpt>
      <trkpt lat="47.46704" lon="3.73945">
        <ele>254</ele>
        <time>2019-04-04T13:43:37Z</time>
      </trkpt>
      <trkpt lat="47.46699" lon="3.73949">
        <ele>255</ele>
        <time>2019-04-04T13:43:42Z</time>
      </trkpt>
      <trkpt lat="47.46696" lon="3.73951">
        <ele>255</ele>
        <time>2019-04-04T13:43:44Z</time>
      </trkpt>
      <trkpt lat="47.46692" lon="3.73957">
        <ele>255</ele>
        <time>2019-04-04T13:43:49Z</time>
      </trkpt>
      <trkpt lat="47.4669" lon="3.73959">
        <ele>255</ele>
        <time>2019-04-04T13:43:51Z</time>
      </trkpt>
      <trkpt lat="47.46686" lon="3.73964">
        <ele>255</ele>
        <time>2019-04-04T13:43:54Z</time>
      </trkpt>
      <trkpt lat="47.46682" lon="3.73968">
        <ele>256</ele>
        <time>2019-04-04T13:43:58Z</time>
      </trkpt>
      <trkpt lat="47.4668" lon="3.7397">
        <ele>256</ele>
        <time>2019-04-04T13:44:00Z</time>
      </trkpt>
      <trkpt lat="47.46676" lon="3.73976">
        <ele>256</ele>
        <time>2019-04-04T13:44:06Z</time>
      </trkpt>
      <trkpt lat="47.46674" lon="3.73979">
        <ele>256</ele>
        <time>2019-04-04T13:44:09Z</time>
      </trkpt>
      <trkpt lat="47.46669" lon="3.73984">
        <ele>257</ele>
        <time>2019-04-04T13:44:14Z</time>
      </trkpt>
      <trkpt lat="47.46668" lon="3.73992">
        <ele>257</ele>
        <time>2019-04-04T13:44:20Z</time>
      </trkpt>
      <trkpt lat="47.46667" lon="3.73997">
        <ele>259</ele>
        <time>2019-04-04T13:44:30Z</time>
      </trkpt>
      <trkpt lat="47.46669" lon="3.74003">
        <ele>254</ele>
        <time>2019-04-04T13:50:43Z</time>
      </trkpt>
      <trkpt lat="47.46672" lon="3.74007">
        <ele>254</ele>
        <time>2019-04-04T13:50:47Z</time>
      </trkpt>
      <trkpt lat="47.46675" lon="3.74013">
        <ele>254</ele>
        <time>2019-04-04T13:50:52Z</time>
      </trkpt>
      <trkpt lat="47.46679" lon="3.74018">
        <ele>255</ele>
        <time>2019-04-04T13:50:59Z</time>
      </trkpt>
      <trkpt lat="47.46681" lon="3.74024">
        <ele>254</ele>
        <time>2019-04-04T13:51:04Z</time>
      </trkpt>
      <trkpt lat="47.46683" lon="3.74031">
        <ele>255</ele>
        <time>2019-04-04T13:51:08Z</time>
      </trkpt>
      <trkpt lat="47.46685" lon="3.74037">
        <ele>256</ele>
        <time>2019-04-04T13:51:12Z</time>
      </trkpt>
      <trkpt lat="47.46687" lon="3.74043">
        <ele>257</ele>
        <time>2019-04-04T13:51:16Z</time>
      </trkpt>
      <trkpt lat="47.4669" lon="3.74049">
        <ele>257</ele>
        <time>2019-04-04T13:51:20Z</time>
      </trkpt>
      <trkpt lat="47.46691" lon="3.74052">
        <ele>257</ele>
        <time>2019-04-04T13:51:22Z</time>
      </trkpt>
      <trkpt lat="47.46694" lon="3.74061">
        <ele>256</ele>
        <time>2019-04-04T13:51:27Z</time>
      </trkpt>
      <trkpt lat="47.46698" lon="3.74067">
        <ele>254</ele>
        <time>2019-04-04T13:51:32Z</time>
      </trkpt>
      <trkpt lat="47.46699" lon="3.7407">
        <ele>253</ele>
        <time>2019-04-04T13:51:35Z</time>
      </trkpt>
      <trkpt lat="47.46701" lon="3.74077">
        <ele>254</ele>
        <time>2019-04-04T13:51:40Z</time>
      </trkpt>
      <trkpt lat="47.46702" lon="3.74082">
        <ele>255</ele>
        <time>2019-04-04T13:51:43Z</time>
      </trkpt>
      <trkpt lat="47.46705" lon="3.74088">
        <ele>255</ele>
        <time>2019-04-04T13:51:47Z</time>
      </trkpt>
      <trkpt lat="47.46706" lon="3.74092">
        <ele>254</ele>
        <time>2019-04-04T13:51:49Z</time>
      </trkpt>
      <trkpt lat="47.46708" lon="3.74096">
        <ele>254</ele>
        <time>2019-04-04T13:51:51Z</time>
      </trkpt>
      <trkpt lat="47.46711" lon="3.74101">
        <ele>254</ele>
        <time>2019-04-04T13:51:55Z</time>
      </trkpt>
      <trkpt lat="47.46713" lon="3.74105">
        <ele>254</ele>
        <time>2019-04-04T13:51:58Z</time>
      </trkpt>
      <trkpt lat="47.46716" lon="3.74114">
        <ele>253</ele>
        <time>2019-04-04T13:52:04Z</time>
      </trkpt>
      <trkpt lat="47.46718" lon="3.74117">
        <ele>252</ele>
        <time>2019-04-04T13:52:06Z</time>
      </trkpt>
      <trkpt lat="47.46719" lon="3.7412">
        <ele>253</ele>
        <time>2019-04-04T13:52:08Z</time>
      </trkpt>
      <trkpt lat="47.46721" lon="3.74124">
        <ele>253</ele>
        <time>2019-04-04T13:52:11Z</time>
      </trkpt>
      <trkpt lat="47.46723" lon="3.74131">
        <ele>254</ele>
        <time>2019-04-04T13:52:16Z</time>
      </trkpt>
      <trkpt lat="47.46728" lon="3.74139">
        <ele>252</ele>
        <time>2019-04-04T13:52:21Z</time>
      </trkpt>
      <trkpt lat="47.4673" lon="3.74145">
        <ele>252</ele>
        <time>2019-04-04T13:52:24Z</time>
      </trkpt>
      <trkpt lat="47.46731" lon="3.7415">
        <ele>252</ele>
        <time>2019-04-04T13:52:26Z</time>
      </trkpt>
      <trkpt lat="47.46734" lon="3.74156">
        <ele>251</ele>
        <time>2019-04-04T13:52:29Z</time>
      </trkpt>
      <trkpt lat="47.46736" lon="3.7416">
        <ele>250</ele>
        <time>2019-04-04T13:52:31Z</time>
      </trkpt>
      <trkpt lat="47.46737" lon="3.74164">
        <ele>251</ele>
        <time>2019-04-04T13:52:34Z</time>
      </trkpt>
      <trkpt lat="47.46739" lon="3.74166">
        <ele>251</ele>
        <time>2019-04-04T13:52:36Z</time>
      </trkpt>
      <trkpt lat="47.46742" lon="3.74172">
        <ele>250</ele>
        <time>2019-04-04T13:52:40Z</time>
      </trkpt>
      <trkpt lat="47.46744" lon="3.74176">
        <ele>251</ele>
        <time>2019-04-04T13:52:42Z</time>
      </trkpt>
      <trkpt lat="47.46746" lon="3.74181">
        <ele>250</ele>
        <time>2019-04-04T13:52:45Z</time>
      </trkpt>
      <trkpt lat="47.4675" lon="3.74186">
        <ele>249</ele>
        <time>2019-04-04T13:52:49Z</time>
      </trkpt>
      <trkpt lat="47.46752" lon="3.74189">
        <ele>248</ele>
        <time>2019-04-04T13:52:51Z</time>
      </trkpt>
      <trkpt lat="47.46754" lon="3.74192">
        <ele>248</ele>
        <time>2019-04-04T13:52:53Z</time>
      </trkpt>
      <trkpt lat="47.46757" lon="3.74197">
        <ele>248</ele>
        <time>2019-04-04T13:52:56Z</time>
      </trkpt>
      <trkpt lat="47.46758" lon="3.742">
        <ele>248</ele>
        <time>2019-04-04T13:52:58Z</time>
      </trkpt>
      <trkpt lat="47.46762" lon="3.74205">
        <ele>247</ele>
        <time>2019-04-04T13:53:02Z</time>
      </trkpt>
      <trkpt lat="47.46766" lon="3.7421">
        <ele>247</ele>
        <time>2019-04-04T13:53:06Z</time>
      </trkpt>
      <trkpt lat="47.4677" lon="3.74214">
        <ele>247</ele>
        <time>2019-04-04T13:53:10Z</time>
      </trkpt>
      <trkpt lat="47.46773" lon="3.74216">
        <ele>247</ele>
        <time>2019-04-04T13:53:12Z</time>
      </trkpt>
      <trkpt lat="47.46775" lon="3.74217">
        <ele>247</ele>
        <time>2019-04-04T13:53:14Z</time>
      </trkpt>
      <trkpt lat="47.46779" lon="3.74219">
        <ele>247</ele>
        <time>2019-04-04T13:53:17Z</time>
      </trkpt>
      <trkpt lat="47.46784" lon="3.74221">
        <ele>247</ele>
        <time>2019-04-04T13:53:20Z</time>
      </trkpt>
      <trkpt lat="47.46788" lon="3.74224">
        <ele>246</ele>
        <time>2019-04-04T13:53:24Z</time>
      </trkpt>
      <trkpt lat="47.46793" lon="3.74227">
        <ele>247</ele>
        <time>2019-04-04T13:53:27Z</time>
      </trkpt>
      <trkpt lat="47.46796" lon="3.74228">
        <ele>246</ele>
        <time>2019-04-04T13:53:29Z</time>
      </trkpt>
      <trkpt lat="47.468" lon="3.7423">
        <ele>246</ele>
        <time>2019-04-04T13:53:32Z</time>
      </trkpt>
      <trkpt lat="47.46804" lon="3.74233">
        <ele>246</ele>
        <time>2019-04-04T13:53:36Z</time>
      </trkpt>
      <trkpt lat="47.46809" lon="3.74234">
        <ele>246</ele>
        <time>2019-04-04T13:53:39Z</time>
      </trkpt>
      <trkpt lat="47.46811" lon="3.74235">
        <ele>246</ele>
        <time>2019-04-04T13:53:41Z</time>
      </trkpt>
      <trkpt lat="47.46816" lon="3.74237">
        <ele>247</ele>
        <time>2019-04-04T13:53:44Z</time>
      </trkpt>
      <trkpt lat="47.4682" lon="3.7424">
        <ele>247</ele>
        <time>2019-04-04T13:53:48Z</time>
      </trkpt>
      <trkpt lat="47.46825" lon="3.74242">
        <ele>246</ele>
        <time>2019-04-04T13:53:52Z</time>
      </trkpt>
      <trkpt lat="47.46828" lon="3.74243">
        <ele>245</ele>
        <time>2019-04-04T13:53:54Z</time>
      </trkpt>
      <trkpt lat="47.46831" lon="3.74245">
        <ele>246</ele>
        <time>2019-04-04T13:53:56Z</time>
      </trkpt>
      <trkpt lat="47.46833" lon="3.74246">
        <ele>246</ele>
        <time>2019-04-04T13:53:58Z</time>
      </trkpt>
      <trkpt lat="47.46838" lon="3.74248">
        <ele>245</ele>
        <time>2019-04-04T13:54:02Z</time>
      </trkpt>
      <trkpt lat="47.46843" lon="3.74251">
        <ele>245</ele>
        <time>2019-04-04T13:54:06Z</time>
      </trkpt>
      <trkpt lat="47.46847" lon="3.74254">
        <ele>244</ele>
        <time>2019-04-04T13:54:09Z</time>
      </trkpt>
      <trkpt lat="47.46852" lon="3.74255">
        <ele>244</ele>
        <time>2019-04-04T13:54:13Z</time>
      </trkpt>
      <trkpt lat="47.46856" lon="3.74258">
        <ele>244</ele>
        <time>2019-04-04T13:54:17Z</time>
      </trkpt>
      <trkpt lat="47.46861" lon="3.74262">
        <ele>244</ele>
        <time>2019-04-04T13:54:21Z</time>
      </trkpt>
      <trkpt lat="47.46865" lon="3.74265">
        <ele>243</ele>
        <time>2019-04-04T13:54:24Z</time>
      </trkpt>
      <trkpt lat="47.46867" lon="3.74267">
        <ele>244</ele>
        <time>2019-04-04T13:54:26Z</time>
      </trkpt>
      <trkpt lat="47.4687" lon="3.74268">
        <ele>244</ele>
        <time>2019-04-04T13:54:28Z</time>
      </trkpt>
      <trkpt lat="47.46874" lon="3.74271">
        <ele>243</ele>
        <time>2019-04-04T13:54:32Z</time>
      </trkpt>
      <trkpt lat="47.46879" lon="3.74274">
        <ele>243</ele>
        <time>2019-04-04T13:54:36Z</time>
      </trkpt>
      <trkpt lat="47.46882" lon="3.74276">
        <ele>243</ele>
        <time>2019-04-04T13:54:38Z</time>
      </trkpt>
      <trkpt lat="47.46888" lon="3.74279">
        <ele>243</ele>
        <time>2019-04-04T13:54:42Z</time>
      </trkpt>
      <trkpt lat="47.46892" lon="3.7428">
        <ele>243</ele>
        <time>2019-04-04T13:54:45Z</time>
      </trkpt>
      <trkpt lat="47.46896" lon="3.74281">
        <ele>243</ele>
        <time>2019-04-04T13:54:47Z</time>
      </trkpt>
      <trkpt lat="47.46899" lon="3.74282">
        <ele>243</ele>
        <time>2019-04-04T13:54:49Z</time>
      </trkpt>
      <trkpt lat="47.46902" lon="3.74283">
        <ele>243</ele>
        <time>2019-04-04T13:54:51Z</time>
      </trkpt>
      <trkpt lat="47.46906" lon="3.74284">
        <ele>243</ele>
        <time>2019-04-04T13:54:54Z</time>
      </trkpt>
      <trkpt lat="47.4691" lon="3.74286">
        <ele>242</ele>
        <time>2019-04-04T13:54:57Z</time>
      </trkpt>
      <trkpt lat="47.46915" lon="3.74287">
        <ele>242</ele>
        <time>2019-04-04T13:55:00Z</time>
      </trkpt>
      <trkpt lat="47.46918" lon="3.74287">
        <ele>242</ele>
        <time>2019-04-04T13:55:02Z</time>
      </trkpt>
      <trkpt lat="47.46921" lon="3.74289">
        <ele>242</ele>
        <time>2019-04-04T13:55:05Z</time>
      </trkpt>
      <trkpt lat="47.46925" lon="3.7429">
        <ele>241</ele>
        <time>2019-04-04T13:55:08Z</time>
      </trkpt>
      <trkpt lat="47.4693" lon="3.74292">
        <ele>242</ele>
        <time>2019-04-04T13:55:13Z</time>
      </trkpt>
      <trkpt lat="47.46933" lon="3.74292">
        <ele>241</ele>
        <time>2019-04-04T13:55:15Z</time>
      </trkpt>
      <trkpt lat="47.46938" lon="3.74295">
        <ele>241</ele>
        <time>2019-04-04T13:55:19Z</time>
      </trkpt>
      <trkpt lat="47.46944" lon="3.74298">
        <ele>240</ele>
        <time>2019-04-04T13:55:23Z</time>
      </trkpt>
      <trkpt lat="47.46946" lon="3.74298">
        <ele>239</ele>
        <time>2019-04-04T13:55:25Z</time>
      </trkpt>
      <trkpt lat="47.4695" lon="3.743">
        <ele>238</ele>
        <time>2019-04-04T13:55:28Z</time>
      </trkpt>
      <trkpt lat="47.46955" lon="3.74301">
        <ele>237</ele>
        <time>2019-04-04T13:55:32Z</time>
      </trkpt>
      <trkpt lat="47.46958" lon="3.74303">
        <ele>237</ele>
        <time>2019-04-04T13:55:35Z</time>
      </trkpt>
      <trkpt lat="47.46963" lon="3.74303">
        <ele>236</ele>
        <time>2019-04-04T13:55:40Z</time>
      </trkpt>
      <trkpt lat="47.46968" lon="3.74305">
        <ele>236</ele>
        <time>2019-04-04T13:55:44Z</time>
      </trkpt>
      <trkpt lat="47.46974" lon="3.74306">
        <ele>235</ele>
        <time>2019-04-04T13:55:48Z</time>
      </trkpt>
      <trkpt lat="47.46979" lon="3.74309">
        <ele>234</ele>
        <time>2019-04-04T13:55:52Z</time>
      </trkpt>
      <trkpt lat="47.46982" lon="3.7431">
        <ele>235</ele>
        <time>2019-04-04T13:55:55Z</time>
      </trkpt>
      <trkpt lat="47.46987" lon="3.74313">
        <ele>236</ele>
        <time>2019-04-04T13:55:59Z</time>
      </trkpt>
      <trkpt lat="47.4699" lon="3.74316">
        <ele>235</ele>
        <time>2019-04-04T13:56:02Z</time>
      </trkpt>
      <trkpt lat="47.46992" lon="3.74317">
        <ele>236</ele>
        <time>2019-04-04T13:56:04Z</time>
      </trkpt>
      <trkpt lat="47.46995" lon="3.74319">
        <ele>235</ele>
        <time>2019-04-04T13:56:06Z</time>
      </trkpt>
      <trkpt lat="47.46997" lon="3.74321">
        <ele>235</ele>
        <time>2019-04-04T13:56:08Z</time>
      </trkpt>
      <trkpt lat="47.47001" lon="3.74323">
        <ele>235</ele>
        <time>2019-04-04T13:56:11Z</time>
      </trkpt>
      <trkpt lat="47.47005" lon="3.74325">
        <ele>234</ele>
        <time>2019-04-04T13:56:15Z</time>
      </trkpt>
      <trkpt lat="47.47009" lon="3.74328">
        <ele>233</ele>
        <time>2019-04-04T13:56:19Z</time>
      </trkpt>
      <trkpt lat="47.47012" lon="3.74331">
        <ele>232</ele>
        <time>2019-04-04T13:56:22Z</time>
      </trkpt>
      <trkpt lat="47.47015" lon="3.74334">
        <ele>233</ele>
        <time>2019-04-04T13:56:25Z</time>
      </trkpt>
      <trkpt lat="47.47018" lon="3.74337">
        <ele>233</ele>
        <time>2019-04-04T13:56:28Z</time>
      </trkpt>
      <trkpt lat="47.47023" lon="3.74341">
        <ele>233</ele>
        <time>2019-04-04T13:56:33Z</time>
      </trkpt>
      <trkpt lat="47.47027" lon="3.74347">
        <ele>232</ele>
        <time>2019-04-04T13:56:37Z</time>
      </trkpt>
      <trkpt lat="47.47028" lon="3.74351">
        <ele>232</ele>
        <time>2019-04-04T13:56:39Z</time>
      </trkpt>
      <trkpt lat="47.47032" lon="3.74357">
        <ele>233</ele>
        <time>2019-04-04T13:56:43Z</time>
      </trkpt>
      <trkpt lat="47.47036" lon="3.74362">
        <ele>232</ele>
        <time>2019-04-04T13:56:47Z</time>
      </trkpt>
      <trkpt lat="47.47038" lon="3.74367">
        <ele>233</ele>
        <time>2019-04-04T13:56:50Z</time>
      </trkpt>
      <trkpt lat="47.47042" lon="3.74372">
        <ele>233</ele>
        <time>2019-04-04T13:56:54Z</time>
      </trkpt>
      <trkpt lat="47.47044" lon="3.74375">
        <ele>232</ele>
        <time>2019-04-04T13:56:57Z</time>
      </trkpt>
      <trkpt lat="47.47047" lon="3.74381">
        <ele>232</ele>
        <time>2019-04-04T13:57:01Z</time>
      </trkpt>
      <trkpt lat="47.4705" lon="3.74386">
        <ele>232</ele>
        <time>2019-04-04T13:57:05Z</time>
      </trkpt>
      <trkpt lat="47.47052" lon="3.74388">
        <ele>232</ele>
        <time>2019-04-04T13:57:07Z</time>
      </trkpt>
      <trkpt lat="47.47054" lon="3.74392">
        <ele>232</ele>
        <time>2019-04-04T13:57:10Z</time>
      </trkpt>
      <trkpt lat="47.47056" lon="3.74394">
        <ele>233</ele>
        <time>2019-04-04T13:57:12Z</time>
      </trkpt>
      <trkpt lat="47.47059" lon="3.74399">
        <ele>233</ele>
        <time>2019-04-04T13:57:15Z</time>
      </trkpt>
      <trkpt lat="47.47062" lon="3.74403">
        <ele>232</ele>
        <time>2019-04-04T13:57:18Z</time>
      </trkpt>
      <trkpt lat="47.47065" lon="3.74407">
        <ele>232</ele>
        <time>2019-04-04T13:57:21Z</time>
      </trkpt>
      <trkpt lat="47.47069" lon="3.74412">
        <ele>232</ele>
        <time>2019-04-04T13:57:26Z</time>
      </trkpt>
      <trkpt lat="47.47072" lon="3.74419">
        <ele>232</ele>
        <time>2019-04-04T13:57:30Z</time>
      </trkpt>
      <trkpt lat="47.47076" lon="3.74424">
        <ele>232</ele>
        <time>2019-04-04T13:57:34Z</time>
      </trkpt>
      <trkpt lat="47.47079" lon="3.74428">
        <ele>232</ele>
        <time>2019-04-04T13:57:37Z</time>
      </trkpt>
      <trkpt lat="47.47082" lon="3.74433">
        <ele>231</ele>
        <time>2019-04-04T13:57:41Z</time>
      </trkpt>
      <trkpt lat="47.47083" lon="3.74436">
        <ele>232</ele>
        <time>2019-04-04T13:57:43Z</time>
      </trkpt>
      <trkpt lat="47.47086" lon="3.7444">
        <ele>232</ele>
        <time>2019-04-04T13:57:46Z</time>
      </trkpt>
      <trkpt lat="47.47087" lon="3.74443">
        <ele>232</ele>
        <time>2019-04-04T13:57:48Z</time>
      </trkpt>
      <trkpt lat="47.47091" lon="3.74448">
        <ele>232</ele>
        <time>2019-04-04T13:57:52Z</time>
      </trkpt>
      <trkpt lat="47.47093" lon="3.74451">
        <ele>232</ele>
        <time>2019-04-04T13:57:54Z</time>
      </trkpt>
      <trkpt lat="47.47095" lon="3.74454">
        <ele>232</ele>
        <time>2019-04-04T13:57:56Z</time>
      </trkpt>
      <trkpt lat="47.47098" lon="3.7446">
        <ele>232</ele>
        <time>2019-04-04T13:58:00Z</time>
      </trkpt>
      <trkpt lat="47.471" lon="3.74465">
        <ele>232</ele>
        <time>2019-04-04T13:58:03Z</time>
      </trkpt>
      <trkpt lat="47.47102" lon="3.74467">
        <ele>233</ele>
        <time>2019-04-04T13:58:05Z</time>
      </trkpt>
      <trkpt lat="47.47107" lon="3.74473">
        <ele>232</ele>
        <time>2019-04-04T13:58:10Z</time>
      </trkpt>
      <trkpt lat="47.47111" lon="3.74479">
        <ele>231</ele>
        <time>2019-04-04T13:58:15Z</time>
      </trkpt>
      <trkpt lat="47.47115" lon="3.74485">
        <ele>231</ele>
        <time>2019-04-04T13:58:19Z</time>
      </trkpt>
      <trkpt lat="47.47118" lon="3.7449">
        <ele>231</ele>
        <time>2019-04-04T13:58:23Z</time>
      </trkpt>
      <trkpt lat="47.47121" lon="3.74494">
        <ele>231</ele>
        <time>2019-04-04T13:58:26Z</time>
      </trkpt>
      <trkpt lat="47.47123" lon="3.74497">
        <ele>231</ele>
        <time>2019-04-04T13:58:28Z</time>
      </trkpt>
      <trkpt lat="47.47125" lon="3.745">
        <ele>231</ele>
        <time>2019-04-04T13:58:30Z</time>
      </trkpt>
      <trkpt lat="47.47127" lon="3.74503">
        <ele>231</ele>
        <time>2019-04-04T13:58:32Z</time>
      </trkpt>
      <trkpt lat="47.47129" lon="3.74506">
        <ele>232</ele>
        <time>2019-04-04T13:58:34Z</time>
      </trkpt>
      <trkpt lat="47.47132" lon="3.74511">
        <ele>232</ele>
        <time>2019-04-04T13:58:37Z</time>
      </trkpt>
      <trkpt lat="47.47137" lon="3.74517">
        <ele>230</ele>
        <time>2019-04-04T13:58:42Z</time>
      </trkpt>
      <trkpt lat="47.47142" lon="3.74522">
        <ele>231</ele>
        <time>2019-04-04T13:58:47Z</time>
      </trkpt>
      <trkpt lat="47.47144" lon="3.74525">
        <ele>231</ele>
        <time>2019-04-04T13:58:49Z</time>
      </trkpt>
      <trkpt lat="47.47149" lon="3.74533">
        <ele>230</ele>
        <time>2019-04-04T13:58:55Z</time>
      </trkpt>
      <trkpt lat="47.4715" lon="3.74536">
        <ele>231</ele>
        <time>2019-04-04T13:58:57Z</time>
      </trkpt>
      <trkpt lat="47.47154" lon="3.7454">
        <ele>230</ele>
        <time>2019-04-04T13:59:01Z</time>
      </trkpt>
      <trkpt lat="47.47158" lon="3.74544">
        <ele>228</ele>
        <time>2019-04-04T13:59:04Z</time>
      </trkpt>
      <trkpt lat="47.47162" lon="3.74549">
        <ele>228</ele>
        <time>2019-04-04T13:59:08Z</time>
      </trkpt>
      <trkpt lat="47.47166" lon="3.74554">
        <ele>228</ele>
        <time>2019-04-04T13:59:12Z</time>
      </trkpt>
      <trkpt lat="47.4717" lon="3.74559">
        <ele>227</ele>
        <time>2019-04-04T13:59:16Z</time>
      </trkpt>
      <trkpt lat="47.47172" lon="3.74561">
        <ele>227</ele>
        <time>2019-04-04T13:59:19Z</time>
      </trkpt>
      <trkpt lat="47.47175" lon="3.74564">
        <ele>227</ele>
        <time>2019-04-04T13:59:22Z</time>
      </trkpt>
      <trkpt lat="47.4718" lon="3.74571">
        <ele>227</ele>
        <time>2019-04-04T13:59:26Z</time>
      </trkpt>
      <trkpt lat="47.47184" lon="3.74576">
        <ele>226</ele>
        <time>2019-04-04T13:59:30Z</time>
      </trkpt>
      <trkpt lat="47.47186" lon="3.74578">
        <ele>226</ele>
        <time>2019-04-04T13:59:32Z</time>
      </trkpt>
      <trkpt lat="47.4719" lon="3.74584">
        <ele>227</ele>
        <time>2019-04-04T13:59:36Z</time>
      </trkpt>
      <trkpt lat="47.47193" lon="3.74587">
        <ele>227</ele>
        <time>2019-04-04T13:59:39Z</time>
      </trkpt>
      <trkpt lat="47.47195" lon="3.7459">
        <ele>227</ele>
        <time>2019-04-04T13:59:41Z</time>
      </trkpt>
      <trkpt lat="47.47199" lon="3.74596">
        <ele>227</ele>
        <time>2019-04-04T13:59:45Z</time>
      </trkpt>
      <trkpt lat="47.47201" lon="3.74599">
        <ele>227</ele>
        <time>2019-04-04T13:59:47Z</time>
      </trkpt>
      <trkpt lat="47.47202" lon="3.74602">
        <ele>226</ele>
        <time>2019-04-04T13:59:49Z</time>
      </trkpt>
      <trkpt lat="47.47206" lon="3.74605">
        <ele>227</ele>
        <time>2019-04-04T13:59:53Z</time>
      </trkpt>
      <trkpt lat="47.47209" lon="3.74611">
        <ele>226</ele>
        <time>2019-04-04T13:59:57Z</time>
      </trkpt>
      <trkpt lat="47.47213" lon="3.74616">
        <ele>226</ele>
        <time>2019-04-04T14:00:01Z</time>
      </trkpt>
      <trkpt lat="47.47216" lon="3.74621">
        <ele>226</ele>
        <time>2019-04-04T14:00:05Z</time>
      </trkpt>
      <trkpt lat="47.47219" lon="3.74628">
        <ele>225</ele>
        <time>2019-04-04T14:00:09Z</time>
      </trkpt>
      <trkpt lat="47.47223" lon="3.74633">
        <ele>226</ele>
        <time>2019-04-04T14:00:13Z</time>
      </trkpt>
      <trkpt lat="47.47226" lon="3.7464">
        <ele>226</ele>
        <time>2019-04-04T14:00:17Z</time>
      </trkpt>
      <trkpt lat="47.4723" lon="3.74645">
        <ele>225</ele>
        <time>2019-04-04T14:00:21Z</time>
      </trkpt>
      <trkpt lat="47.47233" lon="3.74649">
        <ele>225</ele>
        <time>2019-04-04T14:00:23Z</time>
      </trkpt>
      <trkpt lat="47.47236" lon="3.74656">
        <ele>226</ele>
        <time>2019-04-04T14:00:27Z</time>
      </trkpt>
      <trkpt lat="47.47241" lon="3.74662">
        <ele>225</ele>
        <time>2019-04-04T14:00:32Z</time>
      </trkpt>
      <trkpt lat="47.47243" lon="3.74665">
        <ele>225</ele>
        <time>2019-04-04T14:00:35Z</time>
      </trkpt>
      <trkpt lat="47.47246" lon="3.74671">
        <ele>224</ele>
        <time>2019-04-04T14:00:40Z</time>
      </trkpt>
      <trkpt lat="47.47249" lon="3.74678">
        <ele>223</ele>
        <time>2019-04-04T14:00:43Z</time>
      </trkpt>
      <trkpt lat="47.47252" lon="3.74685">
        <ele>223</ele>
        <time>2019-04-04T14:00:48Z</time>
      </trkpt>
      <trkpt lat="47.47255" lon="3.74691">
        <ele>222</ele>
        <time>2019-04-04T14:00:52Z</time>
      </trkpt>
      <trkpt lat="47.47257" lon="3.74695">
        <ele>223</ele>
        <time>2019-04-04T14:00:55Z</time>
      </trkpt>
      <trkpt lat="47.47259" lon="3.747">
        <ele>223</ele>
        <time>2019-04-04T14:00:58Z</time>
      </trkpt>
      <trkpt lat="47.47261" lon="3.74703">
        <ele>223</ele>
        <time>2019-04-04T14:01:00Z</time>
      </trkpt>
      <trkpt lat="47.47262" lon="3.74706">
        <ele>223</ele>
        <time>2019-04-04T14:01:02Z</time>
      </trkpt>
      <trkpt lat="47.47264" lon="3.74709">
        <ele>223</ele>
        <time>2019-04-04T14:01:04Z</time>
      </trkpt>
      <trkpt lat="47.47265" lon="3.74713">
        <ele>223</ele>
        <time>2019-04-04T14:01:06Z</time>
      </trkpt>
      <trkpt lat="47.47267" lon="3.74716">
        <ele>223</ele>
        <time>2019-04-04T14:01:09Z</time>
      </trkpt>
      <trkpt lat="47.47268" lon="3.74719">
        <ele>223</ele>
        <time>2019-04-04T14:01:11Z</time>
      </trkpt>
      <trkpt lat="47.47269" lon="3.74727">
        <ele>222</ele>
        <time>2019-04-04T14:01:14Z</time>
      </trkpt>
      <trkpt lat="47.47272" lon="3.74734">
        <ele>222</ele>
        <time>2019-04-04T14:01:18Z</time>
      </trkpt>
      <trkpt lat="47.47275" lon="3.74741">
        <ele>222</ele>
        <time>2019-04-04T14:01:23Z</time>
      </trkpt>
      <trkpt lat="47.47278" lon="3.74748">
        <ele>222</ele>
        <time>2019-04-04T14:01:27Z</time>
      </trkpt>
      <trkpt lat="47.47282" lon="3.74754">
        <ele>223</ele>
        <time>2019-04-04T14:01:31Z</time>
      </trkpt>
      <trkpt lat="47.47285" lon="3.7476">
        <ele>222</ele>
        <time>2019-04-04T14:01:35Z</time>
      </trkpt>
      <trkpt lat="47.47287" lon="3.74768">
        <ele>223</ele>
        <time>2019-04-04T14:01:39Z</time>
      </trkpt>
      <trkpt lat="47.47291" lon="3.74773">
        <ele>224</ele>
        <time>2019-04-04T14:01:44Z</time>
      </trkpt>
      <trkpt lat="47.47293" lon="3.74777">
        <ele>224</ele>
        <time>2019-04-04T14:01:47Z</time>
      </trkpt>
      <trkpt lat="47.47296" lon="3.74784">
        <ele>225</ele>
        <time>2019-04-04T14:01:51Z</time>
      </trkpt>
      <trkpt lat="47.47297" lon="3.74788">
        <ele>226</ele>
        <time>2019-04-04T14:01:54Z</time>
      </trkpt>
      <trkpt lat="47.473" lon="3.74794">
        <ele>226</ele>
        <time>2019-04-04T14:01:58Z</time>
      </trkpt>
      <trkpt lat="47.47303" lon="3.748">
        <ele>226</ele>
        <time>2019-04-04T14:02:03Z</time>
      </trkpt>
      <trkpt lat="47.47306" lon="3.74804">
        <ele>227</ele>
        <time>2019-04-04T14:02:07Z</time>
      </trkpt>
      <trkpt lat="47.47309" lon="3.74811">
        <ele>227</ele>
        <time>2019-04-04T14:02:12Z</time>
      </trkpt>
      <trkpt lat="47.47312" lon="3.74819">
        <ele>228</ele>
        <time>2019-04-04T14:02:16Z</time>
      </trkpt>
      <trkpt lat="47.47315" lon="3.74823">
        <ele>228</ele>
        <time>2019-04-04T14:02:18Z</time>
      </trkpt>
      <trkpt lat="47.47318" lon="3.74828">
        <ele>229</ele>
        <time>2019-04-04T14:02:21Z</time>
      </trkpt>
      <trkpt lat="47.4732" lon="3.74833">
        <ele>229</ele>
        <time>2019-04-04T14:02:24Z</time>
      </trkpt>
      <trkpt lat="47.47322" lon="3.74839">
        <ele>229</ele>
        <time>2019-04-04T14:02:27Z</time>
      </trkpt>
      <trkpt lat="47.47325" lon="3.74845">
        <ele>228</ele>
        <time>2019-04-04T14:02:31Z</time>
      </trkpt>
      <trkpt lat="47.47328" lon="3.74849">
        <ele>228</ele>
        <time>2019-04-04T14:02:35Z</time>
      </trkpt>
      <trkpt lat="47.47332" lon="3.74856">
        <ele>228</ele>
        <time>2019-04-04T14:02:38Z</time>
      </trkpt>
      <trkpt lat="47.47335" lon="3.74863">
        <ele>229</ele>
        <time>2019-04-04T14:02:42Z</time>
      </trkpt>
      <trkpt lat="47.47336" lon="3.74866">
        <ele>229</ele>
        <time>2019-04-04T14:02:44Z</time>
      </trkpt>
      <trkpt lat="47.47339" lon="3.74872">
        <ele>229</ele>
        <time>2019-04-04T14:02:49Z</time>
      </trkpt>
      <trkpt lat="47.47341" lon="3.74875">
        <ele>229</ele>
        <time>2019-04-04T14:02:50Z</time>
      </trkpt>
      <trkpt lat="47.47343" lon="3.74879">
        <ele>229</ele>
        <time>2019-04-04T14:02:53Z</time>
      </trkpt>
      <trkpt lat="47.47345" lon="3.74882">
        <ele>228</ele>
        <time>2019-04-04T14:02:55Z</time>
      </trkpt>
      <trkpt lat="47.47348" lon="3.74889">
        <ele>228</ele>
        <time>2019-04-04T14:03:00Z</time>
      </trkpt>
      <trkpt lat="47.47351" lon="3.74897">
        <ele>228</ele>
        <time>2019-04-04T14:03:04Z</time>
      </trkpt>
      <trkpt lat="47.47353" lon="3.74901">
        <ele>228</ele>
        <time>2019-04-04T14:03:07Z</time>
      </trkpt>
      <trkpt lat="47.47356" lon="3.74907">
        <ele>227</ele>
        <time>2019-04-04T14:03:11Z</time>
      </trkpt>
      <trkpt lat="47.47358" lon="3.74912">
        <ele>227</ele>
        <time>2019-04-04T14:03:14Z</time>
      </trkpt>
      <trkpt lat="47.4736" lon="3.74915">
        <ele>227</ele>
        <time>2019-04-04T14:03:16Z</time>
      </trkpt>
      <trkpt lat="47.47361" lon="3.74918">
        <ele>226</ele>
        <time>2019-04-04T14:03:18Z</time>
      </trkpt>
      <trkpt lat="47.47362" lon="3.74922">
        <ele>226</ele>
        <time>2019-04-04T14:03:20Z</time>
      </trkpt>
      <trkpt lat="47.47366" lon="3.74928">
        <ele>226</ele>
        <time>2019-04-04T14:03:25Z</time>
      </trkpt>
      <trkpt lat="47.47369" lon="3.74935">
        <ele>225</ele>
        <time>2019-04-04T14:03:29Z</time>
      </trkpt>
      <trkpt lat="47.4737" lon="3.74938">
        <ele>226</ele>
        <time>2019-04-04T14:03:32Z</time>
      </trkpt>
      <trkpt lat="47.47372" lon="3.74942">
        <ele>226</ele>
        <time>2019-04-04T14:03:34Z</time>
      </trkpt>
      <trkpt lat="47.47373" lon="3.74946">
        <ele>226</ele>
        <time>2019-04-04T14:03:37Z</time>
      </trkpt>
      <trkpt lat="47.47376" lon="3.74952">
        <ele>226</ele>
        <time>2019-04-04T14:03:40Z</time>
      </trkpt>
      <trkpt lat="47.47377" lon="3.74959">
        <ele>226</ele>
        <time>2019-04-04T14:03:44Z</time>
      </trkpt>
      <trkpt lat="47.4738" lon="3.74965">
        <ele>225</ele>
        <time>2019-04-04T14:03:48Z</time>
      </trkpt>
      <trkpt lat="47.47383" lon="3.74971">
        <ele>225</ele>
        <time>2019-04-04T14:03:51Z</time>
      </trkpt>
      <trkpt lat="47.47384" lon="3.74978">
        <ele>226</ele>
        <time>2019-04-04T14:03:57Z</time>
      </trkpt>
      <trkpt lat="47.47384" lon="3.74978">
        <ele>226</ele>
        <time>2019-04-04T14:04:04Z</time>
      </trkpt>
      <trkpt lat="47.47384" lon="3.74978">
        <ele>226</ele>
        <time>2019-04-04T14:04:05Z</time>
      </trkpt>
      <trkpt lat="47.47375" lon="3.74979">
        <ele>226</ele>
        <time>2019-04-04T14:04:09Z</time>
      </trkpt>
      <trkpt lat="47.4737" lon="3.74979">
        <ele>226</ele>
        <time>2019-04-04T14:04:14Z</time>
      </trkpt>
      <trkpt lat="47.47366" lon="3.74978">
        <ele>225</ele>
        <time>2019-04-04T14:04:19Z</time>
      </trkpt>
      <trkpt lat="47.47361" lon="3.74978">
        <ele>226</ele>
        <time>2019-04-04T14:04:22Z</time>
      </trkpt>
      <trkpt lat="47.47359" lon="3.74979">
        <ele>225</ele>
        <time>2019-04-04T14:04:24Z</time>
      </trkpt>
      <trkpt lat="47.47356" lon="3.74979">
        <ele>225</ele>
        <time>2019-04-04T14:04:27Z</time>
      </trkpt>
      <trkpt lat="47.47353" lon="3.74978">
        <ele>225</ele>
        <time>2019-04-04T14:04:30Z</time>
      </trkpt>
      <trkpt lat="47.47348" lon="3.7498">
        <ele>225</ele>
        <time>2019-04-04T14:04:34Z</time>
      </trkpt>
      <trkpt lat="47.47343" lon="3.74979">
        <ele>224</ele>
        <time>2019-04-04T14:04:38Z</time>
      </trkpt>
      <trkpt lat="47.47337" lon="3.74979">
        <ele>225</ele>
        <time>2019-04-04T14:04:41Z</time>
      </trkpt>
      <trkpt lat="47.47334" lon="3.7498">
        <ele>225</ele>
        <time>2019-04-04T14:04:44Z</time>
      </trkpt>
      <trkpt lat="47.47329" lon="3.7498">
        <ele>226</ele>
        <time>2019-04-04T14:04:48Z</time>
      </trkpt>
      <trkpt lat="47.47324" lon="3.7498">
        <ele>227</ele>
        <time>2019-04-04T14:04:53Z</time>
      </trkpt>
      <trkpt lat="47.47317" lon="3.7498">
        <ele>228</ele>
        <time>2019-04-04T14:04:58Z</time>
      </trkpt>
      <trkpt lat="47.47315" lon="3.7498">
        <ele>228</ele>
        <time>2019-04-04T14:05:00Z</time>
      </trkpt>
      <trkpt lat="47.47312" lon="3.7498">
        <ele>228</ele>
        <time>2019-04-04T14:05:03Z</time>
      </trkpt>
      <trkpt lat="47.47306" lon="3.74981">
        <ele>229</ele>
        <time>2019-04-04T14:05:07Z</time>
      </trkpt>
      <trkpt lat="47.47303" lon="3.74982">
        <ele>229</ele>
        <time>2019-04-04T14:05:09Z</time>
      </trkpt>
      <trkpt lat="47.47301" lon="3.74983">
        <ele>229</ele>
        <time>2019-04-04T14:05:11Z</time>
      </trkpt>
      <trkpt lat="47.47296" lon="3.74983">
        <ele>229</ele>
        <time>2019-04-04T14:05:15Z</time>
      </trkpt>
      <trkpt lat="47.47293" lon="3.74984">
        <ele>230</ele>
        <time>2019-04-04T14:05:17Z</time>
      </trkpt>
      <trkpt lat="47.47291" lon="3.74984">
        <ele>230</ele>
        <time>2019-04-04T14:05:19Z</time>
      </trkpt>
      <trkpt lat="47.47288" lon="3.74985">
        <ele>230</ele>
        <time>2019-04-04T14:05:22Z</time>
      </trkpt>
      <trkpt lat="47.47284" lon="3.74985">
        <ele>231</ele>
        <time>2019-04-04T14:05:25Z</time>
      </trkpt>
      <trkpt lat="47.47282" lon="3.74985">
        <ele>231</ele>
        <time>2019-04-04T14:05:27Z</time>
      </trkpt>
      <trkpt lat="47.47278" lon="3.74985">
        <ele>231</ele>
        <time>2019-04-04T14:05:30Z</time>
      </trkpt>
      <trkpt lat="47.47275" lon="3.74986">
        <ele>231</ele>
        <time>2019-04-04T14:05:33Z</time>
      </trkpt>
      <trkpt lat="47.47271" lon="3.74986">
        <ele>230</ele>
        <time>2019-04-04T14:05:36Z</time>
      </trkpt>
      <trkpt lat="47.47269" lon="3.74986">
        <ele>230</ele>
        <time>2019-04-04T14:05:38Z</time>
      </trkpt>
      <trkpt lat="47.47266" lon="3.74987">
        <ele>230</ele>
        <time>2019-04-04T14:05:40Z</time>
      </trkpt>
      <trkpt lat="47.47261" lon="3.74987">
        <ele>230</ele>
        <time>2019-04-04T14:05:44Z</time>
      </trkpt>
      <trkpt lat="47.47256" lon="3.74988">
        <ele>231</ele>
        <time>2019-04-04T14:05:49Z</time>
      </trkpt>
      <trkpt lat="47.47253" lon="3.74991">
        <ele>231</ele>
        <time>2019-04-04T14:05:58Z</time>
      </trkpt>
      <trkpt lat="47.47248" lon="3.7499">
        <ele>229</ele>
        <time>2019-04-04T14:08:26Z</time>
      </trkpt>
      <trkpt lat="47.47243" lon="3.74991">
        <ele>229</ele>
        <time>2019-04-04T14:08:30Z</time>
      </trkpt>
      <trkpt lat="47.47238" lon="3.74991">
        <ele>232</ele>
        <time>2019-04-04T14:08:34Z</time>
      </trkpt>
      <trkpt lat="47.47238" lon="3.74991">
        <ele>232</ele>
        <time>2019-04-04T14:08:42Z</time>
      </trkpt>
      <trkpt lat="47.47238" lon="3.74991">
        <ele>232</ele>
        <time>2019-04-04T14:08:45Z</time>
      </trkpt>
      <trkpt lat="47.47232" lon="3.74994">
        <ele>231</ele>
        <time>2019-04-04T14:09:15Z</time>
      </trkpt>
      <trkpt lat="47.47228" lon="3.74996">
        <ele>233</ele>
        <time>2019-04-04T14:09:25Z</time>
      </trkpt>
      <trkpt lat="47.47225" lon="3.74997">
        <ele>234</ele>
        <time>2019-04-04T14:09:29Z</time>
      </trkpt>
      <trkpt lat="47.47223" lon="3.74997">
        <ele>236</ele>
        <time>2019-04-04T14:09:32Z</time>
      </trkpt>
      <trkpt lat="47.47218" lon="3.74999">
        <ele>238</ele>
        <time>2019-04-04T14:09:37Z</time>
      </trkpt>
      <trkpt lat="47.47213" lon="3.74999">
        <ele>240</ele>
        <time>2019-04-04T14:09:41Z</time>
      </trkpt>
      <trkpt lat="47.4721" lon="3.74999">
        <ele>241</ele>
        <time>2019-04-04T14:09:43Z</time>
      </trkpt>
      <trkpt lat="47.47205" lon="3.75">
        <ele>242</ele>
        <time>2019-04-04T14:09:49Z</time>
      </trkpt>
      <trkpt lat="47.47201" lon="3.75">
        <ele>244</ele>
        <time>2019-04-04T14:09:53Z</time>
      </trkpt>
      <trkpt lat="47.47196" lon="3.75">
        <ele>244</ele>
        <time>2019-04-04T14:09:58Z</time>
      </trkpt>
      <trkpt lat="47.4719" lon="3.74999">
        <ele>246</ele>
        <time>2019-04-04T14:10:03Z</time>
      </trkpt>
      <trkpt lat="47.47184" lon="3.75">
        <ele>247</ele>
        <time>2019-04-04T14:10:08Z</time>
      </trkpt>
      <trkpt lat="47.47182" lon="3.75001">
        <ele>247</ele>
        <time>2019-04-04T14:10:11Z</time>
      </trkpt>
      <trkpt lat="47.47177" lon="3.75">
        <ele>248</ele>
        <time>2019-04-04T14:10:16Z</time>
      </trkpt>
      <trkpt lat="47.47171" lon="3.75001">
        <ele>248</ele>
        <time>2019-04-04T14:10:22Z</time>
      </trkpt>
      <trkpt lat="47.47167" lon="3.75002">
        <ele>249</ele>
        <time>2019-04-04T14:10:26Z</time>
      </trkpt>
      <trkpt lat="47.47162" lon="3.75002">
        <ele>250</ele>
        <time>2019-04-04T14:10:31Z</time>
      </trkpt>
      <trkpt lat="47.47157" lon="3.75003">
        <ele>250</ele>
        <time>2019-04-04T14:10:36Z</time>
      </trkpt>
      <trkpt lat="47.47152" lon="3.75002">
        <ele>251</ele>
        <time>2019-04-04T14:10:40Z</time>
      </trkpt>
      <trkpt lat="47.47148" lon="3.75002">
        <ele>252</ele>
        <time>2019-04-04T14:10:44Z</time>
      </trkpt>
      <trkpt lat="47.47143" lon="3.75004">
        <ele>252</ele>
        <time>2019-04-04T14:10:48Z</time>
      </trkpt>
      <trkpt lat="47.47139" lon="3.75004">
        <ele>252</ele>
        <time>2019-04-04T14:10:51Z</time>
      </trkpt>
      <trkpt lat="47.47137" lon="3.75005">
        <ele>253</ele>
        <time>2019-04-04T14:10:53Z</time>
      </trkpt>
      <trkpt lat="47.47132" lon="3.75006">
        <ele>253</ele>
        <time>2019-04-04T14:10:57Z</time>
      </trkpt>
      <trkpt lat="47.47128" lon="3.75009">
        <ele>254</ele>
        <time>2019-04-04T14:11:02Z</time>
      </trkpt>
      <trkpt lat="47.47123" lon="3.75012">
        <ele>253</ele>
        <time>2019-04-04T14:11:07Z</time>
      </trkpt>
      <trkpt lat="47.4712" lon="3.75016">
        <ele>254</ele>
        <time>2019-04-04T14:11:11Z</time>
      </trkpt>
      <trkpt lat="47.47117" lon="3.75019">
        <ele>254</ele>
        <time>2019-04-04T14:11:14Z</time>
      </trkpt>
      <trkpt lat="47.47115" lon="3.75021">
        <ele>255</ele>
        <time>2019-04-04T14:11:17Z</time>
      </trkpt>
      <trkpt lat="47.47113" lon="3.75023">
        <ele>256</ele>
        <time>2019-04-04T14:11:19Z</time>
      </trkpt>
      <trkpt lat="47.4711" lon="3.75025">
        <ele>255</ele>
        <time>2019-04-04T14:11:21Z</time>
      </trkpt>
      <trkpt lat="47.47106" lon="3.75031">
        <ele>255</ele>
        <time>2019-04-04T14:11:25Z</time>
      </trkpt>
      <trkpt lat="47.47101" lon="3.75035">
        <ele>256</ele>
        <time>2019-04-04T14:11:29Z</time>
      </trkpt>
      <trkpt lat="47.47099" lon="3.75038">
        <ele>256</ele>
        <time>2019-04-04T14:11:32Z</time>
      </trkpt>
      <trkpt lat="47.47094" lon="3.7504">
        <ele>256</ele>
        <time>2019-04-04T14:11:36Z</time>
      </trkpt>
      <trkpt lat="47.47091" lon="3.75042">
        <ele>256</ele>
        <time>2019-04-04T14:11:39Z</time>
      </trkpt>
      <trkpt lat="47.47085" lon="3.75046">
        <ele>255</ele>
        <time>2019-04-04T14:11:44Z</time>
      </trkpt>
      <trkpt lat="47.47079" lon="3.75047">
        <ele>256</ele>
        <time>2019-04-04T14:11:48Z</time>
      </trkpt>
      <trkpt lat="47.47074" lon="3.75047">
        <ele>255</ele>
        <time>2019-04-04T14:11:52Z</time>
      </trkpt>
      <trkpt lat="47.47069" lon="3.75048">
        <ele>256</ele>
        <time>2019-04-04T14:11:56Z</time>
      </trkpt>
      <trkpt lat="47.47066" lon="3.75049">
        <ele>256</ele>
        <time>2019-04-04T14:11:58Z</time>
      </trkpt>
      <trkpt lat="47.47062" lon="3.75049">
        <ele>256</ele>
        <time>2019-04-04T14:12:01Z</time>
      </trkpt>
      <trkpt lat="47.4706" lon="3.75049">
        <ele>256</ele>
        <time>2019-04-04T14:12:03Z</time>
      </trkpt>
      <trkpt lat="47.47057" lon="3.7505">
        <ele>256</ele>
        <time>2019-04-04T14:12:05Z</time>
      </trkpt>
      <trkpt lat="47.47052" lon="3.7505">
        <ele>256</ele>
        <time>2019-04-04T14:12:09Z</time>
      </trkpt>
      <trkpt lat="47.47049" lon="3.7505">
        <ele>256</ele>
        <time>2019-04-04T14:12:12Z</time>
      </trkpt>
      <trkpt lat="47.47045" lon="3.7505">
        <ele>257</ele>
        <time>2019-04-04T14:12:15Z</time>
      </trkpt>
      <trkpt lat="47.47043" lon="3.7505">
        <ele>257</ele>
        <time>2019-04-04T14:12:17Z</time>
      </trkpt>
      <trkpt lat="47.47041" lon="3.7505">
        <ele>257</ele>
        <time>2019-04-04T14:12:19Z</time>
      </trkpt>
      <trkpt lat="47.47038" lon="3.75049">
        <ele>258</ele>
        <time>2019-04-04T14:12:21Z</time>
      </trkpt>
      <trkpt lat="47.47035" lon="3.75049">
        <ele>260</ele>
        <time>2019-04-04T14:12:24Z</time>
      </trkpt>
      <trkpt lat="47.47032" lon="3.75049">
        <ele>260</ele>
        <time>2019-04-04T14:12:26Z</time>
      </trkpt>
      <trkpt lat="47.47029" lon="3.75048">
        <ele>261</ele>
        <time>2019-04-04T14:12:29Z</time>
      </trkpt>
      <trkpt lat="47.47026" lon="3.75048">
        <ele>261</ele>
        <time>2019-04-04T14:12:31Z</time>
      </trkpt>
      <trkpt lat="47.4702" lon="3.75046">
        <ele>263</ele>
        <time>2019-04-04T14:12:36Z</time>
      </trkpt>
      <trkpt lat="47.47015" lon="3.75047">
        <ele>264</ele>
        <time>2019-04-04T14:12:40Z</time>
      </trkpt>
      <trkpt lat="47.47013" lon="3.75047">
        <ele>265</ele>
        <time>2019-04-04T14:12:42Z</time>
      </trkpt>
      <trkpt lat="47.47008" lon="3.75047">
        <ele>265</ele>
        <time>2019-04-04T14:12:46Z</time>
      </trkpt>
      <trkpt lat="47.47003" lon="3.75049">
        <ele>264</ele>
        <time>2019-04-04T14:12:51Z</time>
      </trkpt>
      <trkpt lat="47.46998" lon="3.75049">
        <ele>265</ele>
        <time>2019-04-04T14:12:56Z</time>
      </trkpt>
      <trkpt lat="47.46993" lon="3.7505">
        <ele>265</ele>
        <time>2019-04-04T14:12:59Z</time>
      </trkpt>
      <trkpt lat="47.46989" lon="3.75051">
        <ele>267</ele>
        <time>2019-04-04T14:13:04Z</time>
      </trkpt>
      <trkpt lat="47.46984" lon="3.75054">
        <ele>268</ele>
        <time>2019-04-04T14:13:08Z</time>
      </trkpt>
      <trkpt lat="47.46979" lon="3.75055">
        <ele>267</ele>
        <time>2019-04-04T14:13:12Z</time>
      </trkpt>
      <trkpt lat="47.46973" lon="3.75055">
        <ele>269</ele>
        <time>2019-04-04T14:13:18Z</time>
      </trkpt>
      <trkpt lat="47.46971" lon="3.75054">
        <ele>269</ele>
        <time>2019-04-04T14:13:20Z</time>
      </trkpt>
      <trkpt lat="47.46966" lon="3.75056">
        <ele>270</ele>
        <time>2019-04-04T14:13:25Z</time>
      </trkpt>
      <trkpt lat="47.46963" lon="3.75058">
        <ele>270</ele>
        <time>2019-04-04T14:13:28Z</time>
      </trkpt>
      <trkpt lat="47.46957" lon="3.75058">
        <ele>272</ele>
        <time>2019-04-04T14:13:35Z</time>
      </trkpt>
      <trkpt lat="47.46952" lon="3.75056">
        <ele>273</ele>
        <time>2019-04-04T14:13:40Z</time>
      </trkpt>
      <trkpt lat="47.46947" lon="3.75056">
        <ele>273</ele>
        <time>2019-04-04T14:13:45Z</time>
      </trkpt>
      <trkpt lat="47.46944" lon="3.75055">
        <ele>273</ele>
        <time>2019-04-04T14:13:48Z</time>
      </trkpt>
      <trkpt lat="47.4694" lon="3.75055">
        <ele>274</ele>
        <time>2019-04-04T14:13:51Z</time>
      </trkpt>
      <trkpt lat="47.46935" lon="3.75054">
        <ele>275</ele>
        <time>2019-04-04T14:13:55Z</time>
      </trkpt>
      <trkpt lat="47.46931" lon="3.7505">
        <ele>276</ele>
        <time>2019-04-04T14:14:00Z</time>
      </trkpt>
      <trkpt lat="47.46926" lon="3.75048">
        <ele>278</ele>
        <time>2019-04-04T14:14:06Z</time>
      </trkpt>
      <trkpt lat="47.46922" lon="3.75043">
        <ele>279</ele>
        <time>2019-04-04T14:14:11Z</time>
      </trkpt>
      <trkpt lat="47.46919" lon="3.75039">
        <ele>281</ele>
        <time>2019-04-04T14:14:16Z</time>
      </trkpt>
      <trkpt lat="47.46916" lon="3.75033">
        <ele>282</ele>
        <time>2019-04-04T14:14:23Z</time>
      </trkpt>
      <trkpt lat="47.46915" lon="3.75028">
        <ele>282</ele>
        <time>2019-04-04T14:14:26Z</time>
      </trkpt>
      <trkpt lat="47.46913" lon="3.75025">
        <ele>283</ele>
        <time>2019-04-04T14:14:29Z</time>
      </trkpt>
      <trkpt lat="47.4691" lon="3.7502">
        <ele>283</ele>
        <time>2019-04-04T14:14:33Z</time>
      </trkpt>
      <trkpt lat="47.46907" lon="3.75015">
        <ele>284</ele>
        <time>2019-04-04T14:14:37Z</time>
      </trkpt>
      <trkpt lat="47.46904" lon="3.75009">
        <ele>287</ele>
        <time>2019-04-04T14:14:42Z</time>
      </trkpt>
      <trkpt lat="47.46903" lon="3.75006">
        <ele>286</ele>
        <time>2019-04-04T14:14:45Z</time>
      </trkpt>
      <trkpt lat="47.46899" lon="3.75">
        <ele>287</ele>
        <time>2019-04-04T14:14:50Z</time>
      </trkpt>
      <trkpt lat="47.46897" lon="3.74992">
        <ele>289</ele>
        <time>2019-04-04T14:14:55Z</time>
      </trkpt>
      <trkpt lat="47.46894" lon="3.74987">
        <ele>291</ele>
        <time>2019-04-04T14:15:00Z</time>
      </trkpt>
      <trkpt lat="47.4689" lon="3.74979">
        <ele>294</ele>
        <time>2019-04-04T14:15:06Z</time>
      </trkpt>
      <trkpt lat="47.46888" lon="3.74976">
        <ele>295</ele>
        <time>2019-04-04T14:15:10Z</time>
      </trkpt>
      <trkpt lat="47.46887" lon="3.74973">
        <ele>297</ele>
        <time>2019-04-04T14:15:13Z</time>
      </trkpt>
      <trkpt lat="47.46883" lon="3.74968">
        <ele>297</ele>
        <time>2019-04-04T14:15:17Z</time>
      </trkpt>
      <trkpt lat="47.46879" lon="3.74964">
        <ele>297</ele>
        <time>2019-04-04T14:15:20Z</time>
      </trkpt>
      <trkpt lat="47.46876" lon="3.7496">
        <ele>297</ele>
        <time>2019-04-04T14:15:24Z</time>
      </trkpt>
      <trkpt lat="47.46873" lon="3.74953">
        <ele>298</ele>
        <time>2019-04-04T14:15:28Z</time>
      </trkpt>
      <trkpt lat="47.4687" lon="3.74948">
        <ele>299</ele>
        <time>2019-04-04T14:15:31Z</time>
      </trkpt>
      <trkpt lat="47.46867" lon="3.74942">
        <ele>298</ele>
        <time>2019-04-04T14:15:35Z</time>
      </trkpt>
      <trkpt lat="47.46865" lon="3.74937">
        <ele>299</ele>
        <time>2019-04-04T14:15:39Z</time>
      </trkpt>
      <trkpt lat="47.46863" lon="3.7493">
        <ele>301</ele>
        <time>2019-04-04T14:15:44Z</time>
      </trkpt>
      <trkpt lat="47.46862" lon="3.74925">
        <ele>301</ele>
        <time>2019-04-04T14:15:47Z</time>
      </trkpt>
      <trkpt lat="47.4686" lon="3.74918">
        <ele>302</ele>
        <time>2019-04-04T14:15:52Z</time>
      </trkpt>
      <trkpt lat="47.46856" lon="3.74912">
        <ele>304</ele>
        <time>2019-04-04T14:15:57Z</time>
      </trkpt>
      <trkpt lat="47.46855" lon="3.74908">
        <ele>305</ele>
        <time>2019-04-04T14:16:00Z</time>
      </trkpt>
      <trkpt lat="47.4685" lon="3.74901">
        <ele>307</ele>
        <time>2019-04-04T14:16:06Z</time>
      </trkpt>
      <trkpt lat="47.46847" lon="3.74895">
        <ele>307</ele>
        <time>2019-04-04T14:16:10Z</time>
      </trkpt>
      <trkpt lat="47.46844" lon="3.7489">
        <ele>309</ele>
        <time>2019-04-04T14:16:14Z</time>
      </trkpt>
      <trkpt lat="47.4684" lon="3.74886">
        <ele>309</ele>
        <time>2019-04-04T14:16:18Z</time>
      </trkpt>
      <trkpt lat="47.46838" lon="3.74884">
        <ele>310</ele>
        <time>2019-04-04T14:16:20Z</time>
      </trkpt>
      <trkpt lat="47.46836" lon="3.74881">
        <ele>309</ele>
        <time>2019-04-04T14:16:22Z</time>
      </trkpt>
      <trkpt lat="47.46832" lon="3.74877">
        <ele>310</ele>
        <time>2019-04-04T14:16:25Z</time>
      </trkpt>
      <trkpt lat="47.46828" lon="3.74873">
        <ele>312</ele>
        <time>2019-04-04T14:16:30Z</time>
      </trkpt>
      <trkpt lat="47.46825" lon="3.74865">
        <ele>315</ele>
        <time>2019-04-04T14:16:38Z</time>
      </trkpt>
      <trkpt lat="47.46817" lon="3.74861">
        <ele>316</ele>
        <time>2019-04-04T14:16:43Z</time>
      </trkpt>
      <trkpt lat="47.46814" lon="3.74856">
        <ele>315</ele>
        <time>2019-04-04T14:16:46Z</time>
      </trkpt>
      <trkpt lat="47.46812" lon="3.74854">
        <ele>314</ele>
        <time>2019-04-04T14:16:48Z</time>
      </trkpt>
      <trkpt lat="47.46807" lon="3.74852">
        <ele>316</ele>
        <time>2019-04-04T14:16:51Z</time>
      </trkpt>
      <trkpt lat="47.46802" lon="3.7485">
        <ele>315</ele>
        <time>2019-04-04T14:16:54Z</time>
      </trkpt>
      <trkpt lat="47.46798" lon="3.74846">
        <ele>315</ele>
        <time>2019-04-04T14:16:57Z</time>
      </trkpt>
      <trkpt lat="47.46796" lon="3.74843">
        <ele>316</ele>
        <time>2019-04-04T14:17:00Z</time>
      </trkpt>
      <trkpt lat="47.46792" lon="3.7484">
        <ele>317</ele>
        <time>2019-04-04T14:17:03Z</time>
      </trkpt>
      <trkpt lat="47.46789" lon="3.74838">
        <ele>316</ele>
        <time>2019-04-04T14:17:05Z</time>
      </trkpt>
      <trkpt lat="47.46786" lon="3.74836">
        <ele>317</ele>
        <time>2019-04-04T14:17:07Z</time>
      </trkpt>
      <trkpt lat="47.46784" lon="3.74834">
        <ele>317</ele>
        <time>2019-04-04T14:17:09Z</time>
      </trkpt>
      <trkpt lat="47.46782" lon="3.74833">
        <ele>319</ele>
        <time>2019-04-04T14:17:11Z</time>
      </trkpt>
      <trkpt lat="47.46779" lon="3.74827">
        <ele>321</ele>
        <time>2019-04-04T14:17:16Z</time>
      </trkpt>
      <trkpt lat="47.46775" lon="3.74822">
        <ele>321</ele>
        <time>2019-04-04T14:17:20Z</time>
      </trkpt>
      <trkpt lat="47.46774" lon="3.7482">
        <ele>322</ele>
        <time>2019-04-04T14:17:22Z</time>
      </trkpt>
      <trkpt lat="47.4677" lon="3.74813">
        <ele>323</ele>
        <time>2019-04-04T14:17:26Z</time>
      </trkpt>
      <trkpt lat="47.46768" lon="3.7481">
        <ele>323</ele>
        <time>2019-04-04T14:17:29Z</time>
      </trkpt>
      <trkpt lat="47.46764" lon="3.74805">
        <ele>326</ele>
        <time>2019-04-04T14:17:34Z</time>
      </trkpt>
      <trkpt lat="47.46762" lon="3.74801">
        <ele>327</ele>
        <time>2019-04-04T14:17:37Z</time>
      </trkpt>
      <trkpt lat="47.46758" lon="3.74795">
        <ele>328</ele>
        <time>2019-04-04T14:17:41Z</time>
      </trkpt>
      <trkpt lat="47.46753" lon="3.74788">
        <ele>330</ele>
        <time>2019-04-04T14:17:46Z</time>
      </trkpt>
      <trkpt lat="47.46751" lon="3.74785">
        <ele>330</ele>
        <time>2019-04-04T14:17:48Z</time>
      </trkpt>
      <trkpt lat="47.46747" lon="3.7478">
        <ele>332</ele>
        <time>2019-04-04T14:17:53Z</time>
      </trkpt>
      <trkpt lat="47.46744" lon="3.74778">
        <ele>332</ele>
        <time>2019-04-04T14:17:55Z</time>
      </trkpt>
      <trkpt lat="47.4674" lon="3.74772">
        <ele>333</ele>
        <time>2019-04-04T14:17:59Z</time>
      </trkpt>
      <trkpt lat="47.46738" lon="3.74769">
        <ele>334</ele>
        <time>2019-04-04T14:18:02Z</time>
      </trkpt>
      <trkpt lat="47.46734" lon="3.74763">
        <ele>336</ele>
        <time>2019-04-04T14:18:08Z</time>
      </trkpt>
      <trkpt lat="47.46729" lon="3.7476">
        <ele>336</ele>
        <time>2019-04-04T14:18:12Z</time>
      </trkpt>
      <trkpt lat="47.46722" lon="3.74758">
        <ele>338</ele>
        <time>2019-04-04T14:18:18Z</time>
      </trkpt>
      <trkpt lat="47.46715" lon="3.74756">
        <ele>339</ele>
        <time>2019-04-04T14:18:22Z</time>
      </trkpt>
      <trkpt lat="47.4671" lon="3.74757">
        <ele>339</ele>
        <time>2019-04-04T14:18:25Z</time>
      </trkpt>
      <trkpt lat="47.46707" lon="3.74757">
        <ele>341</ele>
        <time>2019-04-04T14:18:28Z</time>
      </trkpt>
      <trkpt lat="47.46702" lon="3.74758">
        <ele>342</ele>
        <time>2019-04-04T14:18:31Z</time>
      </trkpt>
      <trkpt lat="47.46696" lon="3.74755">
        <ele>343</ele>
        <time>2019-04-04T14:18:36Z</time>
      </trkpt>
      <trkpt lat="47.46693" lon="3.74754">
        <ele>343</ele>
        <time>2019-04-04T14:18:38Z</time>
      </trkpt>
      <trkpt lat="47.46688" lon="3.74755">
        <ele>343</ele>
        <time>2019-04-04T14:18:41Z</time>
      </trkpt>
      <trkpt lat="47.46683" lon="3.74757">
        <ele>344</ele>
        <time>2019-04-04T14:18:45Z</time>
      </trkpt>
      <trkpt lat="47.46677" lon="3.7476">
        <ele>345</ele>
        <time>2019-04-04T14:18:49Z</time>
      </trkpt>
      <trkpt lat="47.46672" lon="3.74759">
        <ele>342</ele>
        <time>2019-04-04T14:18:54Z</time>
      </trkpt>
      <trkpt lat="47.46667" lon="3.74753">
        <ele>341</ele>
        <time>2019-04-04T14:18:59Z</time>
      </trkpt>
      <trkpt lat="47.46667" lon="3.74744">
        <ele>341</ele>
        <time>2019-04-04T14:19:03Z</time>
      </trkpt>
      <trkpt lat="47.46666" lon="3.74738">
        <ele>341</ele>
        <time>2019-04-04T14:19:05Z</time>
      </trkpt>
      <trkpt lat="47.46664" lon="3.74735">
        <ele>345</ele>
        <time>2019-04-04T14:19:14Z</time>
      </trkpt>
      <trkpt lat="47.46653" lon="3.74742">
        <ele>344</ele>
        <time>2019-04-04T14:27:25Z</time>
      </trkpt>
      <trkpt lat="47.46648" lon="3.74745">
        <ele>344</ele>
        <time>2019-04-04T14:27:30Z</time>
      </trkpt>
      <trkpt lat="47.46645" lon="3.74746">
        <ele>344</ele>
        <time>2019-04-04T14:27:33Z</time>
      </trkpt>
      <trkpt lat="47.46641" lon="3.74748">
        <ele>343</ele>
        <time>2019-04-04T14:27:38Z</time>
      </trkpt>
      <trkpt lat="47.46637" lon="3.74751">
        <ele>344</ele>
        <time>2019-04-04T14:27:41Z</time>
      </trkpt>
      <trkpt lat="47.46632" lon="3.74749">
        <ele>344</ele>
        <time>2019-04-04T14:27:49Z</time>
      </trkpt>
      <trkpt lat="47.46628" lon="3.74746">
        <ele>344</ele>
        <time>2019-04-04T14:27:56Z</time>
      </trkpt>
      <trkpt lat="47.46624" lon="3.74744">
        <ele>344</ele>
        <time>2019-04-04T14:27:59Z</time>
      </trkpt>
      <trkpt lat="47.46619" lon="3.74746">
        <ele>346</ele>
        <time>2019-04-04T14:28:04Z</time>
      </trkpt>
      <trkpt lat="47.46617" lon="3.74747">
        <ele>348</ele>
        <time>2019-04-04T14:28:07Z</time>
      </trkpt>
      <trkpt lat="47.46614" lon="3.74753">
        <ele>348</ele>
        <time>2019-04-04T14:28:12Z</time>
      </trkpt>
      <trkpt lat="47.46612" lon="3.74758">
        <ele>349</ele>
        <time>2019-04-04T14:28:16Z</time>
      </trkpt>
      <trkpt lat="47.4661" lon="3.74765">
        <ele>349</ele>
        <time>2019-04-04T14:28:21Z</time>
      </trkpt>
      <trkpt lat="47.46609" lon="3.74776">
        <ele>349</ele>
        <time>2019-04-04T14:28:27Z</time>
      </trkpt>
      <trkpt lat="47.46609" lon="3.74783">
        <ele>349</ele>
        <time>2019-04-04T14:28:31Z</time>
      </trkpt>
      <trkpt lat="47.4661" lon="3.74789">
        <ele>349</ele>
        <time>2019-04-04T14:28:34Z</time>
      </trkpt>
      <trkpt lat="47.46611" lon="3.74793">
        <ele>349</ele>
        <time>2019-04-04T14:28:36Z</time>
      </trkpt>
      <trkpt lat="47.46612" lon="3.748">
        <ele>348</ele>
        <time>2019-04-04T14:28:40Z</time>
      </trkpt>
      <trkpt lat="47.46608" lon="3.74805">
        <ele>350</ele>
        <time>2019-04-04T14:28:45Z</time>
      </trkpt>
      <trkpt lat="47.46603" lon="3.74807">
        <ele>349</ele>
        <time>2019-04-04T14:28:53Z</time>
      </trkpt>
      <trkpt lat="47.46599" lon="3.74808">
        <ele>349</ele>
        <time>2019-04-04T14:28:57Z</time>
      </trkpt>
      <trkpt lat="47.46599" lon="3.7481">
        <ele>347</ele>
        <time>2019-04-04T14:29:06Z</time>
      </trkpt>
      <trkpt lat="47.46593" lon="3.74814">
        <ele>350</ele>
        <time>2019-04-04T14:29:25Z</time>
      </trkpt>
      <trkpt lat="47.4659" lon="3.7482">
        <ele>347</ele>
        <time>2019-04-04T14:29:31Z</time>
      </trkpt>
      <trkpt lat="47.46583" lon="3.74824">
        <ele>349</ele>
        <time>2019-04-04T14:29:40Z</time>
      </trkpt>
      <trkpt lat="47.4658" lon="3.74827">
        <ele>349</ele>
        <time>2019-04-04T14:29:43Z</time>
      </trkpt>
      <trkpt lat="47.46576" lon="3.7483">
        <ele>350</ele>
        <time>2019-04-04T14:29:47Z</time>
      </trkpt>
      <trkpt lat="47.46573" lon="3.74835">
        <ele>350</ele>
        <time>2019-04-04T14:29:50Z</time>
      </trkpt>
      <trkpt lat="47.46573" lon="3.74843">
        <ele>350</ele>
        <time>2019-04-04T14:29:55Z</time>
      </trkpt>
      <trkpt lat="47.46572" lon="3.74848">
        <ele>351</ele>
        <time>2019-04-04T14:29:59Z</time>
      </trkpt>
      <trkpt lat="47.46573" lon="3.74855">
        <ele>349</ele>
        <time>2019-04-04T14:30:03Z</time>
      </trkpt>
      <trkpt lat="47.46573" lon="3.74861">
        <ele>348</ele>
        <time>2019-04-04T14:30:06Z</time>
      </trkpt>
      <trkpt lat="47.46574" lon="3.7487">
        <ele>348</ele>
        <time>2019-04-04T14:30:10Z</time>
      </trkpt>
      <trkpt lat="47.46575" lon="3.74877">
        <ele>348</ele>
        <time>2019-04-04T14:30:14Z</time>
      </trkpt>
      <trkpt lat="47.46575" lon="3.74881">
        <ele>349</ele>
        <time>2019-04-04T14:30:17Z</time>
      </trkpt>
      <trkpt lat="47.46575" lon="3.74889">
        <ele>349</ele>
        <time>2019-04-04T14:30:21Z</time>
      </trkpt>
      <trkpt lat="47.46575" lon="3.74892">
        <ele>348</ele>
        <time>2019-04-04T14:30:23Z</time>
      </trkpt>
      <trkpt lat="47.46576" lon="3.749">
        <ele>349</ele>
        <time>2019-04-04T14:30:28Z</time>
      </trkpt>
      <trkpt lat="47.46576" lon="3.74908">
        <ele>349</ele>
        <time>2019-04-04T14:30:33Z</time>
      </trkpt>
      <trkpt lat="47.46577" lon="3.74913">
        <ele>350</ele>
        <time>2019-04-04T14:30:36Z</time>
      </trkpt>
      <trkpt lat="47.46578" lon="3.74921">
        <ele>349</ele>
        <time>2019-04-04T14:30:41Z</time>
      </trkpt>
      <trkpt lat="47.46578" lon="3.74927">
        <ele>348</ele>
        <time>2019-04-04T14:30:45Z</time>
      </trkpt>
      <trkpt lat="47.46579" lon="3.74932">
        <ele>348</ele>
        <time>2019-04-04T14:30:48Z</time>
      </trkpt>
      <trkpt lat="47.46579" lon="3.74941">
        <ele>348</ele>
        <time>2019-04-04T14:30:55Z</time>
      </trkpt>
      <trkpt lat="47.46579" lon="3.74947">
        <ele>349</ele>
        <time>2019-04-04T14:31:00Z</time>
      </trkpt>
      <trkpt lat="47.46578" lon="3.74953">
        <ele>350</ele>
        <time>2019-04-04T14:31:07Z</time>
      </trkpt>
      <trkpt lat="47.46577" lon="3.74957">
        <ele>350</ele>
        <time>2019-04-04T14:31:12Z</time>
      </trkpt>
      <trkpt lat="47.46574" lon="3.74961">
        <ele>352</ele>
        <time>2019-04-04T14:31:17Z</time>
      </trkpt>
      <trkpt lat="47.46572" lon="3.74968">
        <ele>351</ele>
        <time>2019-04-04T14:31:22Z</time>
      </trkpt>
      <trkpt lat="47.46569" lon="3.74974">
        <ele>350</ele>
        <time>2019-04-04T14:31:26Z</time>
      </trkpt>
      <trkpt lat="47.46567" lon="3.74982">
        <ele>349</ele>
        <time>2019-04-04T14:31:29Z</time>
      </trkpt>
      <trkpt lat="47.46565" lon="3.74986">
        <ele>347</ele>
        <time>2019-04-04T14:31:32Z</time>
      </trkpt>
      <trkpt lat="47.46563" lon="3.74992">
        <ele>348</ele>
        <time>2019-04-04T14:31:38Z</time>
      </trkpt>
      <trkpt lat="47.46562" lon="3.74996">
        <ele>348</ele>
        <time>2019-04-04T14:31:41Z</time>
      </trkpt>
      <trkpt lat="47.46562" lon="3.74996">
        <ele>348</ele>
        <time>2019-04-04T14:31:49Z</time>
      </trkpt>
      <trkpt lat="47.46562" lon="3.74996">
        <ele>348</ele>
        <time>2019-04-04T14:31:51Z</time>
      </trkpt>
      <trkpt lat="47.46556" lon="3.75002">
        <ele>347</ele>
        <time>2019-04-04T14:35:32Z</time>
      </trkpt>
      <trkpt lat="47.46554" lon="3.75008">
        <ele>348</ele>
        <time>2019-04-04T14:35:36Z</time>
      </trkpt>
      <trkpt lat="47.46553" lon="3.75012">
        <ele>348</ele>
        <time>2019-04-04T14:35:39Z</time>
      </trkpt>
      <trkpt lat="47.46552" lon="3.75016">
        <ele>348</ele>
        <time>2019-04-04T14:35:42Z</time>
      </trkpt>
      <trkpt lat="47.46549" lon="3.75023">
        <ele>348</ele>
        <time>2019-04-04T14:35:48Z</time>
      </trkpt>
      <trkpt lat="47.46545" lon="3.75027">
        <ele>347</ele>
        <time>2019-04-04T14:35:54Z</time>
      </trkpt>
      <trkpt lat="47.46542" lon="3.7503">
        <ele>347</ele>
        <time>2019-04-04T14:35:59Z</time>
      </trkpt>
      <trkpt lat="47.46542" lon="3.7503">
        <ele>347</ele>
        <time>2019-04-04T14:36:08Z</time>
      </trkpt>
      <trkpt lat="47.46549" lon="3.75031">
        <ele>343</ele>
        <time>2019-04-04T14:37:07Z</time>
      </trkpt>
      <trkpt lat="47.46554" lon="3.75029">
        <ele>343</ele>
        <time>2019-04-04T14:37:11Z</time>
      </trkpt>
      <trkpt lat="47.46557" lon="3.75024">
        <ele>343</ele>
        <time>2019-04-04T14:37:14Z</time>
      </trkpt>
      <trkpt lat="47.46559" lon="3.75021">
        <ele>342</ele>
        <time>2019-04-04T14:37:16Z</time>
      </trkpt>
      <trkpt lat="47.46566" lon="3.75015">
        <ele>343</ele>
        <time>2019-04-04T14:37:23Z</time>
      </trkpt>
      <trkpt lat="47.46569" lon="3.75009">
        <ele>343</ele>
        <time>2019-04-04T14:37:27Z</time>
      </trkpt>
      <trkpt lat="47.46573" lon="3.75003">
        <ele>343</ele>
        <time>2019-04-04T14:37:31Z</time>
      </trkpt>
      <trkpt lat="47.46575" lon="3.74996">
        <ele>343</ele>
        <time>2019-04-04T14:37:35Z</time>
      </trkpt>
      <trkpt lat="47.46577" lon="3.74993">
        <ele>343</ele>
        <time>2019-04-04T14:37:37Z</time>
      </trkpt>
      <trkpt lat="47.46578" lon="3.74989">
        <ele>344</ele>
        <time>2019-04-04T14:37:40Z</time>
      </trkpt>
      <trkpt lat="47.46577" lon="3.74993">
        <ele>343</ele>
        <time>2019-04-04T14:37:49Z</time>
      </trkpt>
      <trkpt lat="47.46578" lon="3.74986">
        <ele>343</ele>
        <time>2019-04-04T14:37:51Z</time>
      </trkpt>
      <trkpt lat="47.4658" lon="3.74977">
        <ele>343</ele>
        <time>2019-04-04T14:37:56Z</time>
      </trkpt>
      <trkpt lat="47.4658" lon="3.74968">
        <ele>344</ele>
        <time>2019-04-04T14:38:02Z</time>
      </trkpt>
      <trkpt lat="47.46582" lon="3.74962">
        <ele>345</ele>
        <time>2019-04-04T14:38:06Z</time>
      </trkpt>
      <trkpt lat="47.46583" lon="3.74957">
        <ele>346</ele>
        <time>2019-04-04T14:38:10Z</time>
      </trkpt>
      <trkpt lat="47.46584" lon="3.74949">
        <ele>346</ele>
        <time>2019-04-04T14:38:16Z</time>
      </trkpt>
      <trkpt lat="47.46584" lon="3.74944">
        <ele>345</ele>
        <time>2019-04-04T14:38:19Z</time>
      </trkpt>
      <trkpt lat="47.46585" lon="3.74937">
        <ele>346</ele>
        <time>2019-04-04T14:38:23Z</time>
      </trkpt>
      <trkpt lat="47.46584" lon="3.7493">
        <ele>348</ele>
        <time>2019-04-04T14:38:29Z</time>
      </trkpt>
      <trkpt lat="47.46583" lon="3.74922">
        <ele>348</ele>
        <time>2019-04-04T14:38:34Z</time>
      </trkpt>
      <trkpt lat="47.46583" lon="3.74918">
        <ele>349</ele>
        <time>2019-04-04T14:38:36Z</time>
      </trkpt>
      <trkpt lat="47.46583" lon="3.74915">
        <ele>349</ele>
        <time>2019-04-04T14:38:38Z</time>
      </trkpt>
      <trkpt lat="47.46582" lon="3.74907">
        <ele>349</ele>
        <time>2019-04-04T14:38:41Z</time>
      </trkpt>
      <trkpt lat="47.46581" lon="3.74903">
        <ele>349</ele>
        <time>2019-04-04T14:38:43Z</time>
      </trkpt>
      <trkpt lat="47.4658" lon="3.74896">
        <ele>348</ele>
        <time>2019-04-04T14:38:47Z</time>
      </trkpt>
      <trkpt lat="47.4658" lon="3.74892">
        <ele>348</ele>
        <time>2019-04-04T14:38:49Z</time>
      </trkpt>
      <trkpt lat="47.46579" lon="3.74887">
        <ele>348</ele>
        <time>2019-04-04T14:38:52Z</time>
      </trkpt>
      <trkpt lat="47.46578" lon="3.7488">
        <ele>347</ele>
        <time>2019-04-04T14:38:57Z</time>
      </trkpt>
      <trkpt lat="47.46578" lon="3.74875">
        <ele>347</ele>
        <time>2019-04-04T14:39:00Z</time>
      </trkpt>
      <trkpt lat="47.46577" lon="3.74872">
        <ele>348</ele>
        <time>2019-04-04T14:39:02Z</time>
      </trkpt>
      <trkpt lat="47.46575" lon="3.74863">
        <ele>348</ele>
        <time>2019-04-04T14:39:08Z</time>
      </trkpt>
      <trkpt lat="47.46574" lon="3.74856">
        <ele>349</ele>
        <time>2019-04-04T14:39:13Z</time>
      </trkpt>
      <trkpt lat="47.46574" lon="3.74852">
        <ele>349</ele>
        <time>2019-04-04T14:39:16Z</time>
      </trkpt>
      <trkpt lat="47.46575" lon="3.74844">
        <ele>348</ele>
        <time>2019-04-04T14:39:21Z</time>
      </trkpt>
      <trkpt lat="47.46574" lon="3.74836">
        <ele>348</ele>
        <time>2019-04-04T14:39:26Z</time>
      </trkpt>
      <trkpt lat="47.46578" lon="3.74828">
        <ele>350</ele>
        <time>2019-04-04T14:39:32Z</time>
      </trkpt>
      <trkpt lat="47.46579" lon="3.74825">
        <ele>350</ele>
        <time>2019-04-04T14:39:35Z</time>
      </trkpt>
      <trkpt lat="47.46581" lon="3.7482">
        <ele>351</ele>
        <time>2019-04-04T14:39:38Z</time>
      </trkpt>
      <trkpt lat="47.46588" lon="3.7482">
        <ele>348</ele>
        <time>2019-04-04T14:39:44Z</time>
      </trkpt>
      <trkpt lat="47.46594" lon="3.74818">
        <ele>349</ele>
        <time>2019-04-04T14:39:48Z</time>
      </trkpt>
      <trkpt lat="47.46599" lon="3.74818">
        <ele>350</ele>
        <time>2019-04-04T14:39:52Z</time>
      </trkpt>
      <trkpt lat="47.46604" lon="3.74818">
        <ele>349</ele>
        <time>2019-04-04T14:39:56Z</time>
      </trkpt>
      <trkpt lat="47.4661" lon="3.74819">
        <ele>350</ele>
        <time>2019-04-04T14:40:00Z</time>
      </trkpt>
      <trkpt lat="47.46615" lon="3.74818">
        <ele>351</ele>
        <time>2019-04-04T14:40:06Z</time>
      </trkpt>
      <trkpt lat="47.46615" lon="3.74818">
        <ele>351</ele>
        <time>2019-04-04T14:40:13Z</time>
      </trkpt>
      <trkpt lat="47.46615" lon="3.74818">
        <ele>351</ele>
        <time>2019-04-04T14:40:14Z</time>
      </trkpt>
      <trkpt lat="47.46616" lon="3.74829">
        <ele>352</ele>
        <time>2019-04-04T14:40:18Z</time>
      </trkpt>
      <trkpt lat="47.46616" lon="3.74837">
        <ele>352</ele>
        <time>2019-04-04T14:40:25Z</time>
      </trkpt>
      <trkpt lat="47.46616" lon="3.74844">
        <ele>354</ele>
        <time>2019-04-04T14:40:30Z</time>
      </trkpt>
      <trkpt lat="47.46617" lon="3.74848">
        <ele>354</ele>
        <time>2019-04-04T14:40:33Z</time>
      </trkpt>
      <trkpt lat="47.46617" lon="3.74852">
        <ele>355</ele>
        <time>2019-04-04T14:40:36Z</time>
      </trkpt>
      <trkpt lat="47.46637" lon="3.749">
        <ele>270</ele>
        <time>2019-04-04T14:44:04Z</time>
      </trkpt>
      <trkpt lat="47.4664" lon="3.74914">
        <ele>311</ele>
        <time>2019-04-04T14:44:13Z</time>
      </trkpt>
      <trkpt lat="47.46643" lon="3.74919">
        <ele>319</ele>
        <time>2019-04-04T14:44:15Z</time>
      </trkpt>
      <trkpt lat="47.46648" lon="3.74931">
        <ele>331</ele>
        <time>2019-04-04T14:44:18Z</time>
      </trkpt>
      <trkpt lat="47.46658" lon="3.74934">
        <ele>326</ele>
        <time>2019-04-04T14:44:21Z</time>
      </trkpt>
      <trkpt lat="47.46664" lon="3.74935">
        <ele>324</ele>
        <time>2019-04-04T14:44:23Z</time>
      </trkpt>
      <trkpt lat="47.46671" lon="3.74933">
        <ele>323</ele>
        <time>2019-04-04T14:44:25Z</time>
      </trkpt>
      <trkpt lat="47.46671" lon="3.74933">
        <ele>323</ele>
        <time>2019-04-04T14:44:30Z</time>
      </trkpt>
      <trkpt lat="47.46671" lon="3.74933">
        <ele>323</ele>
        <time>2019-04-04T14:44:32Z</time>
      </trkpt>
      <trkpt lat="47.46671" lon="3.74933">
        <ele>323</ele>
        <time>2019-04-04T14:47:29Z</time>
      </trkpt>
      <trkpt lat="47.46671" lon="3.74933">
        <ele>323</ele>
        <time>2019-04-04T14:51:27Z</time>
      </trkpt>
      <trkpt lat="47.46612" lon="3.74839">
        <ele>337</ele>
        <time>2019-04-04T14:51:34Z</time>
      </trkpt>
      <trkpt lat="47.46612" lon="3.74832">
        <ele>343</ele>
        <time>2019-04-04T14:51:49Z</time>
      </trkpt>
      <trkpt lat="47.46612" lon="3.74828">
        <ele>344</ele>
        <time>2019-04-04T14:51:52Z</time>
      </trkpt>
      <trkpt lat="47.46609" lon="3.74821">
        <ele>346</ele>
        <time>2019-04-04T14:51:56Z</time>
      </trkpt>
      <trkpt lat="47.46607" lon="3.74816">
        <ele>345</ele>
        <time>2019-04-04T14:52:01Z</time>
      </trkpt>
      <trkpt lat="47.46606" lon="3.74809">
        <ele>345</ele>
        <time>2019-04-04T14:52:06Z</time>
      </trkpt>
      <trkpt lat="47.46606" lon="3.74801">
        <ele>346</ele>
        <time>2019-04-04T14:52:09Z</time>
      </trkpt>
      <trkpt lat="47.46607" lon="3.74793">
        <ele>347</ele>
        <time>2019-04-04T14:52:17Z</time>
      </trkpt>
      <trkpt lat="47.46608" lon="3.74785">
        <ele>348</ele>
        <time>2019-04-04T14:52:22Z</time>
      </trkpt>
      <trkpt lat="47.46609" lon="3.74777">
        <ele>348</ele>
        <time>2019-04-04T14:52:27Z</time>
      </trkpt>
      <trkpt lat="47.46607" lon="3.74768">
        <ele>351</ele>
        <time>2019-04-04T14:52:40Z</time>
      </trkpt>
      <trkpt lat="47.46606" lon="3.74764">
        <ele>351</ele>
        <time>2019-04-04T14:52:42Z</time>
      </trkpt>
      <trkpt lat="47.46605" lon="3.74759">
        <ele>353</ele>
        <time>2019-04-04T14:52:46Z</time>
      </trkpt>
      <trkpt lat="47.46604" lon="3.74755">
        <ele>353</ele>
        <time>2019-04-04T14:52:48Z</time>
      </trkpt>
      <trkpt lat="47.46602" lon="3.74748">
        <ele>354</ele>
        <time>2019-04-04T14:52:52Z</time>
      </trkpt>
      <trkpt lat="47.46603" lon="3.7474">
        <ele>355</ele>
        <time>2019-04-04T14:52:59Z</time>
      </trkpt>
      <trkpt lat="47.46601" lon="3.74733">
        <ele>356</ele>
        <time>2019-04-04T14:53:05Z</time>
      </trkpt>
      <trkpt lat="47.46602" lon="3.74726">
        <ele>357</ele>
        <time>2019-04-04T14:53:11Z</time>
      </trkpt>
      <trkpt lat="47.46599" lon="3.7472">
        <ele>359</ele>
        <time>2019-04-04T14:53:17Z</time>
      </trkpt>
      <trkpt lat="47.46601" lon="3.74713">
        <ele>361</ele>
        <time>2019-04-04T14:53:25Z</time>
      </trkpt>
      <trkpt lat="47.46601" lon="3.74705">
        <ele>362</ele>
        <time>2019-04-04T14:53:31Z</time>
      </trkpt>
      <trkpt lat="47.46601" lon="3.74702">
        <ele>362</ele>
        <time>2019-04-04T14:53:34Z</time>
      </trkpt>
      <trkpt lat="47.46601" lon="3.74697">
        <ele>363</ele>
        <time>2019-04-04T14:53:36Z</time>
      </trkpt>
      <trkpt lat="47.46602" lon="3.74688">
        <ele>364</ele>
        <time>2019-04-04T14:53:40Z</time>
      </trkpt>
      <trkpt lat="47.46599" lon="3.74682">
        <ele>365</ele>
        <time>2019-04-04T14:53:44Z</time>
      </trkpt>
      <trkpt lat="47.46595" lon="3.74677">
        <ele>364</ele>
        <time>2019-04-04T14:53:47Z</time>
      </trkpt>
      <trkpt lat="47.4659" lon="3.74675">
        <ele>363</ele>
        <time>2019-04-04T14:53:49Z</time>
      </trkpt>
      <trkpt lat="47.46583" lon="3.74672">
        <ele>361</ele>
        <time>2019-04-04T14:53:52Z</time>
      </trkpt>
      <trkpt lat="47.46581" lon="3.74667">
        <ele>362</ele>
        <time>2019-04-04T14:53:56Z</time>
      </trkpt>
      <trkpt lat="47.46579" lon="3.74663">
        <ele>361</ele>
        <time>2019-04-04T14:53:58Z</time>
      </trkpt>
      <trkpt lat="47.46581" lon="3.74656">
        <ele>362</ele>
        <time>2019-04-04T14:54:01Z</time>
      </trkpt>
      <trkpt lat="47.46582" lon="3.74652">
        <ele>362</ele>
        <time>2019-04-04T14:54:03Z</time>
      </trkpt>
      <trkpt lat="47.46579" lon="3.74647">
        <ele>363</ele>
        <time>2019-04-04T14:54:07Z</time>
      </trkpt>
      <trkpt lat="47.46577" lon="3.74644">
        <ele>362</ele>
        <time>2019-04-04T14:54:12Z</time>
      </trkpt>
      <trkpt lat="47.46572" lon="3.74637">
        <ele>361</ele>
        <time>2019-04-04T14:54:18Z</time>
      </trkpt>
      <trkpt lat="47.46572" lon="3.74629">
        <ele>360</ele>
        <time>2019-04-04T14:54:27Z</time>
      </trkpt>
      <trkpt lat="47.46569" lon="3.74623">
        <ele>360</ele>
        <time>2019-04-04T14:54:30Z</time>
      </trkpt>
      <trkpt lat="47.46569" lon="3.74616">
        <ele>360</ele>
        <time>2019-04-04T14:54:37Z</time>
      </trkpt>
      <trkpt lat="47.46567" lon="3.74607">
        <ele>361</ele>
        <time>2019-04-04T14:54:42Z</time>
      </trkpt>
      <trkpt lat="47.46561" lon="3.74602">
        <ele>360</ele>
        <time>2019-04-04T14:54:48Z</time>
      </trkpt>
      <trkpt lat="47.46561" lon="3.74595">
        <ele>359</ele>
        <time>2019-04-04T14:54:54Z</time>
      </trkpt>
      <trkpt lat="47.46561" lon="3.74595">
        <ele>359</ele>
        <time>2019-04-04T14:55:01Z</time>
      </trkpt>
      <trkpt lat="47.46561" lon="3.74595">
        <ele>359</ele>
        <time>2019-04-04T14:55:02Z</time>
      </trkpt>
      <trkpt lat="47.46563" lon="3.74586">
        <ele>357</ele>
        <time>2019-04-04T14:55:06Z</time>
      </trkpt>
      <trkpt lat="47.46561" lon="3.74577">
        <ele>357</ele>
        <time>2019-04-04T14:55:15Z</time>
      </trkpt>
      <trkpt lat="47.46562" lon="3.7457">
        <ele>357</ele>
        <time>2019-04-04T14:55:20Z</time>
      </trkpt>
      <trkpt lat="47.46557" lon="3.74564">
        <ele>357</ele>
        <time>2019-04-04T14:55:26Z</time>
      </trkpt>
      <trkpt lat="47.46555" lon="3.74561">
        <ele>358</ele>
        <time>2019-04-04T14:55:32Z</time>
      </trkpt>
      <trkpt lat="47.4655" lon="3.74555">
        <ele>358</ele>
        <time>2019-04-04T14:55:38Z</time>
      </trkpt>
      <trkpt lat="47.4655" lon="3.74555">
        <ele>358</ele>
        <time>2019-04-04T14:55:46Z</time>
      </trkpt>
      <trkpt lat="47.46546" lon="3.74551">
        <ele>358</ele>
        <time>2019-04-04T14:55:47Z</time>
      </trkpt>
      <trkpt lat="47.46544" lon="3.74544">
        <ele>359</ele>
        <time>2019-04-04T14:55:54Z</time>
      </trkpt>
      <trkpt lat="47.46542" lon="3.74538">
        <ele>359</ele>
        <time>2019-04-04T14:55:57Z</time>
      </trkpt>
      <trkpt lat="47.46545" lon="3.74529">
        <ele>358</ele>
        <time>2019-04-04T14:56:02Z</time>
      </trkpt>
      <trkpt lat="47.46537" lon="3.74521">
        <ele>357</ele>
        <time>2019-04-04T14:56:09Z</time>
      </trkpt>
      <trkpt lat="47.4653" lon="3.7452">
        <ele>356</ele>
        <time>2019-04-04T14:56:13Z</time>
      </trkpt>
      <trkpt lat="47.46526" lon="3.74515">
        <ele>355</ele>
        <time>2019-04-04T14:56:16Z</time>
      </trkpt>
      <trkpt lat="47.4652" lon="3.74517">
        <ele>353</ele>
        <time>2019-04-04T14:56:18Z</time>
      </trkpt>
      <trkpt lat="47.46515" lon="3.74517">
        <ele>350</ele>
        <time>2019-04-04T14:56:21Z</time>
      </trkpt>
      <trkpt lat="47.46511" lon="3.74512">
        <ele>347</ele>
        <time>2019-04-04T14:56:25Z</time>
      </trkpt>
      <trkpt lat="47.46506" lon="3.74502">
        <ele>344</ele>
        <time>2019-04-04T14:56:32Z</time>
      </trkpt>
      <trkpt lat="47.46502" lon="3.74499">
        <ele>344</ele>
        <time>2019-04-04T14:56:35Z</time>
      </trkpt>
      <trkpt lat="47.46499" lon="3.74496">
        <ele>343</ele>
        <time>2019-04-04T14:56:43Z</time>
      </trkpt>
      <trkpt lat="47.46497" lon="3.74484">
        <ele>341</ele>
        <time>2019-04-04T14:56:46Z</time>
      </trkpt>
      <trkpt lat="47.46495" lon="3.74478">
        <ele>338</ele>
        <time>2019-04-04T14:56:48Z</time>
      </trkpt>
      <trkpt lat="47.46493" lon="3.7447">
        <ele>334</ele>
        <time>2019-04-04T14:56:51Z</time>
      </trkpt>
      <trkpt lat="47.46492" lon="3.74464">
        <ele>334</ele>
        <time>2019-04-04T14:56:58Z</time>
      </trkpt>
      <trkpt lat="47.46488" lon="3.74458">
        <ele>334</ele>
        <time>2019-04-04T14:57:05Z</time>
      </trkpt>
      <trkpt lat="47.46484" lon="3.74454">
        <ele>335</ele>
        <time>2019-04-04T14:57:09Z</time>
      </trkpt>
      <trkpt lat="47.4648" lon="3.74449">
        <ele>335</ele>
        <time>2019-04-04T14:57:15Z</time>
      </trkpt>
      <trkpt lat="47.46474" lon="3.74445">
        <ele>335</ele>
        <time>2019-04-04T14:57:20Z</time>
      </trkpt>
      <trkpt lat="47.46472" lon="3.74443">
        <ele>335</ele>
        <time>2019-04-04T14:57:22Z</time>
      </trkpt>
      <trkpt lat="47.46468" lon="3.74441">
        <ele>335</ele>
        <time>2019-04-04T14:57:23Z</time>
      </trkpt>
      <trkpt lat="47.46462" lon="3.74438">
        <ele>334</ele>
        <time>2019-04-04T14:57:29Z</time>
      </trkpt>
      <trkpt lat="47.4646" lon="3.74432">
        <ele>333</ele>
        <time>2019-04-04T14:57:33Z</time>
      </trkpt>
      <trkpt lat="47.46455" lon="3.74427">
        <ele>332</ele>
        <time>2019-04-04T14:57:38Z</time>
      </trkpt>
      <trkpt lat="47.46452" lon="3.74424">
        <ele>331</ele>
        <time>2019-04-04T14:57:42Z</time>
      </trkpt>
      <trkpt lat="47.46448" lon="3.74421">
        <ele>332</ele>
        <time>2019-04-04T14:57:45Z</time>
      </trkpt>
      <trkpt lat="47.46443" lon="3.74415">
        <ele>332</ele>
        <time>2019-04-04T14:57:52Z</time>
      </trkpt>
      <trkpt lat="47.4644" lon="3.74413">
        <ele>332</ele>
        <time>2019-04-04T14:57:55Z</time>
      </trkpt>
      <trkpt lat="47.46436" lon="3.74411">
        <ele>331</ele>
        <time>2019-04-04T14:57:58Z</time>
      </trkpt>
      <trkpt lat="47.46434" lon="3.74404">
        <ele>329</ele>
        <time>2019-04-04T14:58:03Z</time>
      </trkpt>
      <trkpt lat="47.46431" lon="3.74399">
        <ele>327</ele>
        <time>2019-04-04T14:58:08Z</time>
      </trkpt>
      <trkpt lat="47.46427" lon="3.74395">
        <ele>327</ele>
        <time>2019-04-04T14:58:11Z</time>
      </trkpt>
      <trkpt lat="47.46424" lon="3.74388">
        <ele>327</ele>
        <time>2019-04-04T14:58:16Z</time>
      </trkpt>
      <trkpt lat="47.46419" lon="3.74385">
        <ele>326</ele>
        <time>2019-04-04T14:58:20Z</time>
      </trkpt>
      <trkpt lat="47.46415" lon="3.74379">
        <ele>326</ele>
        <time>2019-04-04T14:58:26Z</time>
      </trkpt>
      <trkpt lat="47.46411" lon="3.74373">
        <ele>325</ele>
        <time>2019-04-04T14:58:31Z</time>
      </trkpt>
      <trkpt lat="47.46407" lon="3.74368">
        <ele>326</ele>
        <time>2019-04-04T14:58:35Z</time>
      </trkpt>
      <trkpt lat="47.46405" lon="3.74361">
        <ele>326</ele>
        <time>2019-04-04T14:58:40Z</time>
      </trkpt>
      <trkpt lat="47.464" lon="3.74357">
        <ele>328</ele>
        <time>2019-04-04T14:58:47Z</time>
      </trkpt>
      <trkpt lat="47.46397" lon="3.74354">
        <ele>327</ele>
        <time>2019-04-04T14:58:50Z</time>
      </trkpt>
      <trkpt lat="47.46393" lon="3.74349">
        <ele>328</ele>
        <time>2019-04-04T14:58:54Z</time>
      </trkpt>
      <trkpt lat="47.46391" lon="3.74346">
        <ele>327</ele>
        <time>2019-04-04T14:58:56Z</time>
      </trkpt>
      <trkpt lat="47.46387" lon="3.74338">
        <ele>325</ele>
        <time>2019-04-04T14:59:02Z</time>
      </trkpt>
      <trkpt lat="47.46383" lon="3.74334">
        <ele>323</ele>
        <time>2019-04-04T14:59:06Z</time>
      </trkpt>
      <trkpt lat="47.46381" lon="3.74328">
        <ele>321</ele>
        <time>2019-04-04T14:59:11Z</time>
      </trkpt>
      <trkpt lat="47.46379" lon="3.74325">
        <ele>321</ele>
        <time>2019-04-04T14:59:13Z</time>
      </trkpt>
      <trkpt lat="47.46376" lon="3.74319">
        <ele>319</ele>
        <time>2019-04-04T14:59:18Z</time>
      </trkpt>
      <trkpt lat="47.46373" lon="3.74313">
        <ele>318</ele>
        <time>2019-04-04T14:59:23Z</time>
      </trkpt>
      <trkpt lat="47.46373" lon="3.74313">
        <ele>318</ele>
        <time>2019-04-04T14:59:32Z</time>
      </trkpt>
      <trkpt lat="47.46373" lon="3.74313">
        <ele>318</ele>
        <time>2019-04-04T14:59:33Z</time>
      </trkpt>
      <trkpt lat="47.46383" lon="3.74317">
        <ele>315</ele>
        <time>2019-04-04T14:59:53Z</time>
      </trkpt>
      <trkpt lat="47.46385" lon="3.74319">
        <ele>316</ele>
        <time>2019-04-04T14:59:55Z</time>
      </trkpt>
      <trkpt lat="47.46389" lon="3.74324">
        <ele>315</ele>
        <time>2019-04-04T15:00:00Z</time>
      </trkpt>
      <trkpt lat="47.46393" lon="3.74327">
        <ele>316</ele>
        <time>2019-04-04T15:00:04Z</time>
      </trkpt>
      <trkpt lat="47.46396" lon="3.74332">
        <ele>316</ele>
        <time>2019-04-04T15:00:09Z</time>
      </trkpt>
      <trkpt lat="47.46399" lon="3.74337">
        <ele>315</ele>
        <time>2019-04-04T15:00:14Z</time>
      </trkpt>
      <trkpt lat="47.46402" lon="3.74344">
        <ele>315</ele>
        <time>2019-04-04T15:00:19Z</time>
      </trkpt>
      <trkpt lat="47.46405" lon="3.74349">
        <ele>315</ele>
        <time>2019-04-04T15:00:23Z</time>
      </trkpt>
      <trkpt lat="47.46406" lon="3.74352">
        <ele>315</ele>
        <time>2019-04-04T15:00:25Z</time>
      </trkpt>
      <trkpt lat="47.46411" lon="3.74357">
        <ele>316</ele>
        <time>2019-04-04T15:00:30Z</time>
      </trkpt>
      <trkpt lat="47.46413" lon="3.74361">
        <ele>317</ele>
        <time>2019-04-04T15:00:33Z</time>
      </trkpt>
      <trkpt lat="47.46416" lon="3.74366">
        <ele>317</ele>
        <time>2019-04-04T15:00:39Z</time>
      </trkpt>
      <trkpt lat="47.4642" lon="3.74371">
        <ele>318</ele>
        <time>2019-04-04T15:00:43Z</time>
      </trkpt>
      <trkpt lat="47.46422" lon="3.74374">
        <ele>318</ele>
        <time>2019-04-04T15:00:46Z</time>
      </trkpt>
      <trkpt lat="47.46424" lon="3.74377">
        <ele>318</ele>
        <time>2019-04-04T15:00:49Z</time>
      </trkpt>
      <trkpt lat="47.46427" lon="3.74383">
        <ele>319</ele>
        <time>2019-04-04T15:00:54Z</time>
      </trkpt>
      <trkpt lat="47.46429" lon="3.74386">
        <ele>319</ele>
        <time>2019-04-04T15:00:57Z</time>
      </trkpt>
      <trkpt lat="47.46431" lon="3.7439">
        <ele>320</ele>
        <time>2019-04-04T15:01:00Z</time>
      </trkpt>
      <trkpt lat="47.46432" lon="3.74393">
        <ele>320</ele>
        <time>2019-04-04T15:01:02Z</time>
      </trkpt>
      <trkpt lat="47.46436" lon="3.74399">
        <ele>320</ele>
        <time>2019-04-04T15:01:07Z</time>
      </trkpt>
      <trkpt lat="47.4644" lon="3.74407">
        <ele>321</ele>
        <time>2019-04-04T15:01:13Z</time>
      </trkpt>
      <trkpt lat="47.46443" lon="3.74412">
        <ele>320</ele>
        <time>2019-04-04T15:01:17Z</time>
      </trkpt>
      <trkpt lat="47.46447" lon="3.74415">
        <ele>321</ele>
        <time>2019-04-04T15:01:22Z</time>
      </trkpt>
      <trkpt lat="47.46451" lon="3.74418">
        <ele>321</ele>
        <time>2019-04-04T15:01:25Z</time>
      </trkpt>
      <trkpt lat="47.46453" lon="3.7442">
        <ele>321</ele>
        <time>2019-04-04T15:01:27Z</time>
      </trkpt>
      <trkpt lat="47.46457" lon="3.74426">
        <ele>320</ele>
        <time>2019-04-04T15:01:32Z</time>
      </trkpt>
      <trkpt lat="47.46458" lon="3.74428">
        <ele>321</ele>
        <time>2019-04-04T15:01:34Z</time>
      </trkpt>
      <trkpt lat="47.46464" lon="3.74432">
        <ele>321</ele>
        <time>2019-04-04T15:01:40Z</time>
      </trkpt>
      <trkpt lat="47.46468" lon="3.74437">
        <ele>322</ele>
        <time>2019-04-04T15:01:45Z</time>
      </trkpt>
      <trkpt lat="47.4647" lon="3.7444">
        <ele>323</ele>
        <time>2019-04-04T15:01:47Z</time>
      </trkpt>
      <trkpt lat="47.46473" lon="3.74443">
        <ele>323</ele>
        <time>2019-04-04T15:01:51Z</time>
      </trkpt>
      <trkpt lat="47.46478" lon="3.74446">
        <ele>325</ele>
        <time>2019-04-04T15:01:55Z</time>
      </trkpt>
      <trkpt lat="47.4648" lon="3.74448">
        <ele>325</ele>
        <time>2019-04-04T15:01:57Z</time>
      </trkpt>
      <trkpt lat="47.46485" lon="3.74453">
        <ele>325</ele>
        <time>2019-04-04T15:02:03Z</time>
      </trkpt>
      <trkpt lat="47.46489" lon="3.7446">
        <ele>324</ele>
        <time>2019-04-04T15:02:09Z</time>
      </trkpt>
      <trkpt lat="47.46492" lon="3.74465">
        <ele>324</ele>
        <time>2019-04-04T15:02:13Z</time>
      </trkpt>
      <trkpt lat="47.46495" lon="3.7447">
        <ele>324</ele>
        <time>2019-04-04T15:02:18Z</time>
      </trkpt>
      <trkpt lat="47.46498" lon="3.74474">
        <ele>324</ele>
        <time>2019-04-04T15:02:22Z</time>
      </trkpt>
      <trkpt lat="47.465" lon="3.74478">
        <ele>324</ele>
        <time>2019-04-04T15:02:25Z</time>
      </trkpt>
      <trkpt lat="47.46502" lon="3.74481">
        <ele>324</ele>
        <time>2019-04-04T15:02:28Z</time>
      </trkpt>
      <trkpt lat="47.46504" lon="3.74487">
        <ele>324</ele>
        <time>2019-04-04T15:02:33Z</time>
      </trkpt>
      <trkpt lat="47.46506" lon="3.74494">
        <ele>326</ele>
        <time>2019-04-04T15:02:38Z</time>
      </trkpt>
      <trkpt lat="47.46506" lon="3.74503">
        <ele>327</ele>
        <time>2019-04-04T15:02:44Z</time>
      </trkpt>
      <trkpt lat="47.46506" lon="3.74509">
        <ele>327</ele>
        <time>2019-04-04T15:02:48Z</time>
      </trkpt>
      <trkpt lat="47.46506" lon="3.74515">
        <ele>328</ele>
        <time>2019-04-04T15:02:52Z</time>
      </trkpt>
      <trkpt lat="47.46507" lon="3.7452">
        <ele>328</ele>
        <time>2019-04-04T15:02:55Z</time>
      </trkpt>
      <trkpt lat="47.46507" lon="3.74524">
        <ele>329</ele>
        <time>2019-04-04T15:02:57Z</time>
      </trkpt>
      <trkpt lat="47.46507" lon="3.74533">
        <ele>330</ele>
        <time>2019-04-04T15:03:05Z</time>
      </trkpt>
      <trkpt lat="47.46508" lon="3.7454">
        <ele>331</ele>
        <time>2019-04-04T15:03:09Z</time>
      </trkpt>
      <trkpt lat="47.46511" lon="3.74547">
        <ele>331</ele>
        <time>2019-04-04T15:03:14Z</time>
      </trkpt>
      <trkpt lat="47.46514" lon="3.74554">
        <ele>330</ele>
        <time>2019-04-04T15:03:18Z</time>
      </trkpt>
      <trkpt lat="47.46515" lon="3.74559">
        <ele>331</ele>
        <time>2019-04-04T15:03:21Z</time>
      </trkpt>
      <trkpt lat="47.46517" lon="3.74566">
        <ele>330</ele>
        <time>2019-04-04T15:03:26Z</time>
      </trkpt>
      <trkpt lat="47.4652" lon="3.74573">
        <ele>330</ele>
        <time>2019-04-04T15:03:30Z</time>
      </trkpt>
      <trkpt lat="47.46523" lon="3.74578">
        <ele>329</ele>
        <time>2019-04-04T15:03:34Z</time>
      </trkpt>
      <trkpt lat="47.46527" lon="3.74583">
        <ele>330</ele>
        <time>2019-04-04T15:03:38Z</time>
      </trkpt>
      <trkpt lat="47.4653" lon="3.7459">
        <ele>332</ele>
        <time>2019-04-04T15:03:43Z</time>
      </trkpt>
      <trkpt lat="47.46531" lon="3.74597">
        <ele>332</ele>
        <time>2019-04-04T15:03:47Z</time>
      </trkpt>
      <trkpt lat="47.46531" lon="3.74604">
        <ele>331</ele>
        <time>2019-04-04T15:03:55Z</time>
      </trkpt>
      <trkpt lat="47.46532" lon="3.7461">
        <ele>332</ele>
        <time>2019-04-04T15:03:58Z</time>
      </trkpt>
      <trkpt lat="47.46532" lon="3.74613">
        <ele>332</ele>
        <time>2019-04-04T15:04:00Z</time>
      </trkpt>
      <trkpt lat="47.46531" lon="3.7462">
        <ele>332</ele>
        <time>2019-04-04T15:04:04Z</time>
      </trkpt>
      <trkpt lat="47.4653" lon="3.74625">
        <ele>332</ele>
        <time>2019-04-04T15:04:07Z</time>
      </trkpt>
      <trkpt lat="47.4653" lon="3.74629">
        <ele>333</ele>
        <time>2019-04-04T15:04:09Z</time>
      </trkpt>
      <trkpt lat="47.46529" lon="3.74632">
        <ele>333</ele>
        <time>2019-04-04T15:04:11Z</time>
      </trkpt>
      <trkpt lat="47.46527" lon="3.74636">
        <ele>333</ele>
        <time>2019-04-04T15:04:14Z</time>
      </trkpt>
      <trkpt lat="47.46524" lon="3.74637">
        <ele>334</ele>
        <time>2019-04-04T15:04:22Z</time>
      </trkpt>
      <trkpt lat="47.46527" lon="3.74642">
        <ele>334</ele>
        <time>2019-04-04T15:05:30Z</time>
      </trkpt>
      <trkpt lat="47.46527" lon="3.7465">
        <ele>333</ele>
        <time>2019-04-04T15:05:33Z</time>
      </trkpt>
      <trkpt lat="47.46529" lon="3.74657">
        <ele>333</ele>
        <time>2019-04-04T15:05:37Z</time>
      </trkpt>
      <trkpt lat="47.46529" lon="3.74664">
        <ele>334</ele>
        <time>2019-04-04T15:05:41Z</time>
      </trkpt>
      <trkpt lat="47.4653" lon="3.74668">
        <ele>334</ele>
        <time>2019-04-04T15:05:44Z</time>
      </trkpt>
      <trkpt lat="47.46531" lon="3.74675">
        <ele>333</ele>
        <time>2019-04-04T15:05:48Z</time>
      </trkpt>
      <trkpt lat="47.46532" lon="3.74682">
        <ele>332</ele>
        <time>2019-04-04T15:05:52Z</time>
      </trkpt>
      <trkpt lat="47.46533" lon="3.7469">
        <ele>333</ele>
        <time>2019-04-04T15:05:57Z</time>
      </trkpt>
      <trkpt lat="47.46533" lon="3.74694">
        <ele>333</ele>
        <time>2019-04-04T15:06:00Z</time>
      </trkpt>
      <trkpt lat="47.46529" lon="3.74699">
        <ele>333</ele>
        <time>2019-04-04T15:06:04Z</time>
      </trkpt>
      <trkpt lat="47.46528" lon="3.74706">
        <ele>334</ele>
        <time>2019-04-04T15:06:09Z</time>
      </trkpt>
      <trkpt lat="47.46527" lon="3.74709">
        <ele>334</ele>
        <time>2019-04-04T15:06:11Z</time>
      </trkpt>
      <trkpt lat="47.46526" lon="3.74713">
        <ele>334</ele>
        <time>2019-04-04T15:06:13Z</time>
      </trkpt>
      <trkpt lat="47.46526" lon="3.74722">
        <ele>334</ele>
        <time>2019-04-04T15:06:18Z</time>
      </trkpt>
      <trkpt lat="47.46527" lon="3.74726">
        <ele>334</ele>
        <time>2019-04-04T15:06:21Z</time>
      </trkpt>
      <trkpt lat="47.46526" lon="3.74734">
        <ele>335</ele>
        <time>2019-04-04T15:06:26Z</time>
      </trkpt>
      <trkpt lat="47.46527" lon="3.74742">
        <ele>335</ele>
        <time>2019-04-04T15:06:31Z</time>
      </trkpt>
      <trkpt lat="47.46527" lon="3.7475">
        <ele>336</ele>
        <time>2019-04-04T15:06:36Z</time>
      </trkpt>
      <trkpt lat="47.46528" lon="3.74756">
        <ele>337</ele>
        <time>2019-04-04T15:06:40Z</time>
      </trkpt>
      <trkpt lat="47.46527" lon="3.74763">
        <ele>339</ele>
        <time>2019-04-04T15:06:45Z</time>
      </trkpt>
      <trkpt lat="47.46528" lon="3.74769">
        <ele>338</ele>
        <time>2019-04-04T15:06:49Z</time>
      </trkpt>
      <trkpt lat="47.46533" lon="3.74774">
        <ele>337</ele>
        <time>2019-04-04T15:06:54Z</time>
      </trkpt>
      <trkpt lat="47.46538" lon="3.74776">
        <ele>338</ele>
        <time>2019-04-04T15:07:00Z</time>
      </trkpt>
      <trkpt lat="47.46537" lon="3.74786">
        <ele>339</ele>
        <time>2019-04-04T15:07:07Z</time>
      </trkpt>
      <trkpt lat="47.46537" lon="3.7479">
        <ele>340</ele>
        <time>2019-04-04T15:07:09Z</time>
      </trkpt>
      <trkpt lat="47.46537" lon="3.74794">
        <ele>340</ele>
        <time>2019-04-04T15:07:12Z</time>
      </trkpt>
      <trkpt lat="47.46539" lon="3.748">
        <ele>341</ele>
        <time>2019-04-04T15:07:18Z</time>
      </trkpt>
      <trkpt lat="47.46546" lon="3.74801">
        <ele>342</ele>
        <time>2019-04-04T15:07:24Z</time>
      </trkpt>
      <trkpt lat="47.46551" lon="3.748">
        <ele>341</ele>
        <time>2019-04-04T15:07:28Z</time>
      </trkpt>
      <trkpt lat="47.46554" lon="3.748">
        <ele>342</ele>
        <time>2019-04-04T15:07:31Z</time>
      </trkpt>
      <trkpt lat="47.46561" lon="3.74801">
        <ele>344</ele>
        <time>2019-04-04T15:07:38Z</time>
      </trkpt>
      <trkpt lat="47.46565" lon="3.74799">
        <ele>345</ele>
        <time>2019-04-04T15:07:44Z</time>
      </trkpt>
      <trkpt lat="47.46568" lon="3.74798">
        <ele>347</ele>
        <time>2019-04-04T15:07:47Z</time>
      </trkpt>
      <trkpt lat="47.46569" lon="3.7479">
        <ele>348</ele>
        <time>2019-04-04T15:07:53Z</time>
      </trkpt>
      <trkpt lat="47.46572" lon="3.74782">
        <ele>346</ele>
        <time>2019-04-04T15:07:57Z</time>
      </trkpt>
      <trkpt lat="47.46577" lon="3.74781">
        <ele>349</ele>
        <time>2019-04-04T15:08:02Z</time>
      </trkpt>
      <trkpt lat="47.46584" lon="3.74783">
        <ele>351</ele>
        <time>2019-04-04T15:08:09Z</time>
      </trkpt>
      <trkpt lat="47.4659" lon="3.74783">
        <ele>352</ele>
        <time>2019-04-04T15:08:14Z</time>
      </trkpt>
      <trkpt lat="47.46595" lon="3.74786">
        <ele>353</ele>
        <time>2019-04-04T15:08:19Z</time>
      </trkpt>
      <trkpt lat="47.466" lon="3.74783">
        <ele>357</ele>
        <time>2019-04-04T15:08:24Z</time>
      </trkpt>
      <trkpt lat="47.46603" lon="3.74781">
        <ele>360</ele>
        <time>2019-04-04T15:08:27Z</time>
      </trkpt>
      <trkpt lat="47.46607" lon="3.74786">
        <ele>361</ele>
        <time>2019-04-04T15:08:31Z</time>
      </trkpt>
      <trkpt lat="47.46609" lon="3.74797">
        <ele>358</ele>
        <time>2019-04-04T15:08:35Z</time>
      </trkpt>
      <trkpt lat="47.46609" lon="3.74805">
        <ele>356</ele>
        <time>2019-04-04T15:08:38Z</time>
      </trkpt>
      <trkpt lat="47.46604" lon="3.74809">
        <ele>355</ele>
        <time>2019-04-04T15:08:42Z</time>
      </trkpt>
      <trkpt lat="47.466" lon="3.74813">
        <ele>355</ele>
        <time>2019-04-04T15:08:46Z</time>
      </trkpt>
      <trkpt lat="47.46596" lon="3.74815">
        <ele>354</ele>
        <time>2019-04-04T15:08:49Z</time>
      </trkpt>
      <trkpt lat="47.46592" lon="3.7482">
        <ele>353</ele>
        <time>2019-04-04T15:08:55Z</time>
      </trkpt>
      <trkpt lat="47.46587" lon="3.74824">
        <ele>352</ele>
        <time>2019-04-04T15:08:59Z</time>
      </trkpt>
      <trkpt lat="47.46585" lon="3.74825">
        <ele>352</ele>
        <time>2019-04-04T15:09:01Z</time>
      </trkpt>
      <trkpt lat="47.4658" lon="3.74828">
        <ele>352</ele>
        <time>2019-04-04T15:09:07Z</time>
      </trkpt>
      <trkpt lat="47.46576" lon="3.74834">
        <ele>351</ele>
        <time>2019-04-04T15:09:12Z</time>
      </trkpt>
      <trkpt lat="47.46573" lon="3.74841">
        <ele>351</ele>
        <time>2019-04-04T15:09:17Z</time>
      </trkpt>
      <trkpt lat="47.46573" lon="3.74851">
        <ele>351</ele>
        <time>2019-04-04T15:09:22Z</time>
      </trkpt>
      <trkpt lat="47.46573" lon="3.74856">
        <ele>351</ele>
        <time>2019-04-04T15:09:25Z</time>
      </trkpt>
      <trkpt lat="47.46574" lon="3.74863">
        <ele>350</ele>
        <time>2019-04-04T15:09:28Z</time>
      </trkpt>
      <trkpt lat="47.46575" lon="3.74869">
        <ele>349</ele>
        <time>2019-04-04T15:09:31Z</time>
      </trkpt>
      <trkpt lat="47.46576" lon="3.74877">
        <ele>349</ele>
        <time>2019-04-04T15:09:36Z</time>
      </trkpt>
      <trkpt lat="47.46577" lon="3.74884">
        <ele>350</ele>
        <time>2019-04-04T15:09:39Z</time>
      </trkpt>
      <trkpt lat="47.46577" lon="3.74888">
        <ele>350</ele>
        <time>2019-04-04T15:09:41Z</time>
      </trkpt>
      <trkpt lat="47.46577" lon="3.74897">
        <ele>349</ele>
        <time>2019-04-04T15:09:48Z</time>
      </trkpt>
      <trkpt lat="47.46578" lon="3.74905">
        <ele>349</ele>
        <time>2019-04-04T15:09:53Z</time>
      </trkpt>
      <trkpt lat="47.46578" lon="3.74909">
        <ele>350</ele>
        <time>2019-04-04T15:09:56Z</time>
      </trkpt>
      <trkpt lat="47.46578" lon="3.74912">
        <ele>349</ele>
        <time>2019-04-04T15:09:58Z</time>
      </trkpt>
      <trkpt lat="47.46577" lon="3.74919">
        <ele>349</ele>
        <time>2019-04-04T15:10:02Z</time>
      </trkpt>
      <trkpt lat="47.46578" lon="3.74926">
        <ele>350</ele>
        <time>2019-04-04T15:10:06Z</time>
      </trkpt>
      <trkpt lat="47.46578" lon="3.74935">
        <ele>350</ele>
        <time>2019-04-04T15:10:11Z</time>
      </trkpt>
      <trkpt lat="47.46578" lon="3.74939">
        <ele>350</ele>
        <time>2019-04-04T15:10:13Z</time>
      </trkpt>
      <trkpt lat="47.46578" lon="3.74944">
        <ele>350</ele>
        <time>2019-04-04T15:10:16Z</time>
      </trkpt>
      <trkpt lat="47.46579" lon="3.74952">
        <ele>350</ele>
        <time>2019-04-04T15:10:19Z</time>
      </trkpt>
      <trkpt lat="47.46579" lon="3.74955">
        <ele>351</ele>
        <time>2019-04-04T15:10:21Z</time>
      </trkpt>
      <trkpt lat="47.46575" lon="3.74963">
        <ele>352</ele>
        <time>2019-04-04T15:10:27Z</time>
      </trkpt>
      <trkpt lat="47.46574" lon="3.74966">
        <ele>352</ele>
        <time>2019-04-04T15:10:30Z</time>
      </trkpt>
      <trkpt lat="47.46573" lon="3.74969">
        <ele>352</ele>
        <time>2019-04-04T15:10:32Z</time>
      </trkpt>
      <trkpt lat="47.46572" lon="3.74972">
        <ele>352</ele>
        <time>2019-04-04T15:10:34Z</time>
      </trkpt>
      <trkpt lat="47.4657" lon="3.74976">
        <ele>353</ele>
        <time>2019-04-04T15:10:37Z</time>
      </trkpt>
      <trkpt lat="47.46569" lon="3.74984">
        <ele>351</ele>
        <time>2019-04-04T15:10:42Z</time>
      </trkpt>
      <trkpt lat="47.46567" lon="3.7499">
        <ele>350</ele>
        <time>2019-04-04T15:10:46Z</time>
      </trkpt>
      <trkpt lat="47.46565" lon="3.74997">
        <ele>349</ele>
        <time>2019-04-04T15:10:51Z</time>
      </trkpt>
      <trkpt lat="47.46563" lon="3.75003">
        <ele>349</ele>
        <time>2019-04-04T15:10:56Z</time>
      </trkpt>
      <trkpt lat="47.46562" lon="3.75007">
        <ele>349</ele>
        <time>2019-04-04T15:11:01Z</time>
      </trkpt>
      <trkpt lat="47.46562" lon="3.75007">
        <ele>349</ele>
        <time>2019-04-04T15:18:19Z</time>
      </trkpt>
      <trkpt lat="47.46561" lon="3.75">
        <ele>347</ele>
        <time>2019-04-04T15:24:09Z</time>
      </trkpt>
      <trkpt lat="47.46564" lon="3.74993">
        <ele>346</ele>
        <time>2019-04-04T15:24:16Z</time>
      </trkpt>
      <trkpt lat="47.46566" lon="3.74988">
        <ele>346</ele>
        <time>2019-04-04T15:24:20Z</time>
      </trkpt>
      <trkpt lat="47.46567" lon="3.74985">
        <ele>346</ele>
        <time>2019-04-04T15:24:23Z</time>
      </trkpt>
      <trkpt lat="47.46572" lon="3.74976">
        <ele>348</ele>
        <time>2019-04-04T15:24:31Z</time>
      </trkpt>
      <trkpt lat="47.46573" lon="3.74969">
        <ele>347</ele>
        <time>2019-04-04T15:24:38Z</time>
      </trkpt>
      <trkpt lat="47.46575" lon="3.74964">
        <ele>348</ele>
        <time>2019-04-04T15:24:42Z</time>
      </trkpt>
      <trkpt lat="47.46578" lon="3.74958">
        <ele>349</ele>
        <time>2019-04-04T15:24:49Z</time>
      </trkpt>
      <trkpt lat="47.46579" lon="3.74955">
        <ele>347</ele>
        <time>2019-04-04T15:24:52Z</time>
      </trkpt>
      <trkpt lat="47.4658" lon="3.74947">
        <ele>347</ele>
        <time>2019-04-04T15:24:59Z</time>
      </trkpt>
      <trkpt lat="47.46579" lon="3.74939">
        <ele>348</ele>
        <time>2019-04-04T15:25:07Z</time>
      </trkpt>
      <trkpt lat="47.46579" lon="3.74935">
        <ele>349</ele>
        <time>2019-04-04T15:25:09Z</time>
      </trkpt>
      <trkpt lat="47.46577" lon="3.74928">
        <ele>349</ele>
        <time>2019-04-04T15:25:14Z</time>
      </trkpt>
      <trkpt lat="47.46577" lon="3.74921">
        <ele>348</ele>
        <time>2019-04-04T15:25:21Z</time>
      </trkpt>
      <trkpt lat="47.46577" lon="3.74913">
        <ele>347</ele>
        <time>2019-04-04T15:25:26Z</time>
      </trkpt>
      <trkpt lat="47.46576" lon="3.74904">
        <ele>347</ele>
        <time>2019-04-04T15:25:32Z</time>
      </trkpt>
      <trkpt lat="47.46576" lon="3.74896">
        <ele>347</ele>
        <time>2019-04-04T15:25:37Z</time>
      </trkpt>
      <trkpt lat="47.46576" lon="3.74891">
        <ele>347</ele>
        <time>2019-04-04T15:25:41Z</time>
      </trkpt>
      <trkpt lat="47.46576" lon="3.74883">
        <ele>346</ele>
        <time>2019-04-04T15:25:47Z</time>
      </trkpt>
      <trkpt lat="47.46576" lon="3.74879">
        <ele>346</ele>
        <time>2019-04-04T15:25:50Z</time>
      </trkpt>
      <trkpt lat="47.46574" lon="3.74871">
        <ele>345</ele>
        <time>2019-04-04T15:25:56Z</time>
      </trkpt>
      <trkpt lat="47.46574" lon="3.74868">
        <ele>345</ele>
        <time>2019-04-04T15:25:58Z</time>
      </trkpt>
      <trkpt lat="47.46573" lon="3.74864">
        <ele>345</ele>
        <time>2019-04-04T15:26:01Z</time>
      </trkpt>
      <trkpt lat="47.46573" lon="3.74856">
        <ele>345</ele>
        <time>2019-04-04T15:26:06Z</time>
      </trkpt>
      <trkpt lat="47.46573" lon="3.7485">
        <ele>345</ele>
        <time>2019-04-04T15:26:11Z</time>
      </trkpt>
      <trkpt lat="47.46576" lon="3.74841">
        <ele>345</ele>
        <time>2019-04-04T15:26:17Z</time>
      </trkpt>
      <trkpt lat="47.46578" lon="3.74834">
        <ele>345</ele>
        <time>2019-04-04T15:26:21Z</time>
      </trkpt>
      <trkpt lat="47.46581" lon="3.74828">
        <ele>346</ele>
        <time>2019-04-04T15:26:27Z</time>
      </trkpt>
      <trkpt lat="47.46585" lon="3.7482">
        <ele>347</ele>
        <time>2019-04-04T15:26:33Z</time>
      </trkpt>
      <trkpt lat="47.46589" lon="3.74816">
        <ele>348</ele>
        <time>2019-04-04T15:26:37Z</time>
      </trkpt>
      <trkpt lat="47.46594" lon="3.74813">
        <ele>348</ele>
        <time>2019-04-04T15:26:42Z</time>
      </trkpt>
      <trkpt lat="47.466" lon="3.74809">
        <ele>350</ele>
        <time>2019-04-04T15:26:48Z</time>
      </trkpt>
      <trkpt lat="47.46605" lon="3.74808">
        <ele>350</ele>
        <time>2019-04-04T15:26:51Z</time>
      </trkpt>
      <trkpt lat="47.4661" lon="3.74805">
        <ele>354</ele>
        <time>2019-04-04T15:27:00Z</time>
      </trkpt>
      <trkpt lat="47.46611" lon="3.74798">
        <ele>358</ele>
        <time>2019-04-04T15:27:09Z</time>
      </trkpt>
      <trkpt lat="47.46611" lon="3.74791">
        <ele>360</ele>
        <time>2019-04-04T15:27:14Z</time>
      </trkpt>
      <trkpt lat="47.46614" lon="3.74785">
        <ele>358</ele>
        <time>2019-04-04T15:27:18Z</time>
      </trkpt>
      <trkpt lat="47.46614" lon="3.74778">
        <ele>355</ele>
        <time>2019-04-04T15:27:24Z</time>
      </trkpt>
      <trkpt lat="47.46617" lon="3.7477">
        <ele>355</ele>
        <time>2019-04-04T15:27:31Z</time>
      </trkpt>
      <trkpt lat="47.46618" lon="3.74763">
        <ele>354</ele>
        <time>2019-04-04T15:27:37Z</time>
      </trkpt>
      <trkpt lat="47.46618" lon="3.74756">
        <ele>354</ele>
        <time>2019-04-04T15:27:42Z</time>
      </trkpt>
      <trkpt lat="47.46618" lon="3.74752">
        <ele>354</ele>
        <time>2019-04-04T15:27:47Z</time>
      </trkpt>
      <trkpt lat="47.46616" lon="3.74746">
        <ele>353</ele>
        <time>2019-04-04T15:27:52Z</time>
      </trkpt>
      <trkpt lat="47.46614" lon="3.74742">
        <ele>352</ele>
        <time>2019-04-04T15:27:56Z</time>
      </trkpt>
      <trkpt lat="47.46613" lon="3.74733">
        <ele>350</ele>
        <time>2019-04-04T15:28:04Z</time>
      </trkpt>
      <trkpt lat="47.4661" lon="3.74727">
        <ele>349</ele>
        <time>2019-04-04T15:28:08Z</time>
      </trkpt>
      <trkpt lat="47.46605" lon="3.7472">
        <ele>347</ele>
        <time>2019-04-04T15:28:13Z</time>
      </trkpt>
      <trkpt lat="47.46603" lon="3.7471">
        <ele>346</ele>
        <time>2019-04-04T15:28:19Z</time>
      </trkpt>
      <trkpt lat="47.46601" lon="3.74704">
        <ele>348</ele>
        <time>2019-04-04T15:28:23Z</time>
      </trkpt>
      <trkpt lat="47.466" lon="3.74697">
        <ele>349</ele>
        <time>2019-04-04T15:28:28Z</time>
      </trkpt>
      <trkpt lat="47.46597" lon="3.74686">
        <ele>351</ele>
        <time>2019-04-04T15:28:35Z</time>
      </trkpt>
      <trkpt lat="47.46596" lon="3.74682">
        <ele>352</ele>
        <time>2019-04-04T15:28:38Z</time>
      </trkpt>
      <trkpt lat="47.46593" lon="3.74674">
        <ele>352</ele>
        <time>2019-04-04T15:28:44Z</time>
      </trkpt>
      <trkpt lat="47.46589" lon="3.74669">
        <ele>353</ele>
        <time>2019-04-04T15:28:48Z</time>
      </trkpt>
      <trkpt lat="47.46587" lon="3.74666">
        <ele>352</ele>
        <time>2019-04-04T15:28:51Z</time>
      </trkpt>
      <trkpt lat="47.46586" lon="3.74659">
        <ele>349</ele>
        <time>2019-04-04T15:28:57Z</time>
      </trkpt>
      <trkpt lat="47.46586" lon="3.74652">
        <ele>346</ele>
        <time>2019-04-04T15:29:06Z</time>
      </trkpt>
      <trkpt lat="47.46585" lon="3.74645">
        <ele>346</ele>
        <time>2019-04-04T15:29:12Z</time>
      </trkpt>
      <trkpt lat="47.46585" lon="3.74645">
        <ele>346</ele>
        <time>2019-04-04T15:29:21Z</time>
      </trkpt>
      <trkpt lat="47.46584" lon="3.74637">
        <ele>347</ele>
        <time>2019-04-04T15:29:22Z</time>
      </trkpt>
      <trkpt lat="47.4658" lon="3.7463">
        <ele>347</ele>
        <time>2019-04-04T15:29:31Z</time>
      </trkpt>
      <trkpt lat="47.46577" lon="3.74623">
        <ele>346</ele>
        <time>2019-04-04T15:29:36Z</time>
      </trkpt>
      <trkpt lat="47.46575" lon="3.74617">
        <ele>345</ele>
        <time>2019-04-04T15:29:42Z</time>
      </trkpt>
      <trkpt lat="47.46572" lon="3.74611">
        <ele>345</ele>
        <time>2019-04-04T15:29:48Z</time>
      </trkpt>
      <trkpt lat="47.46569" lon="3.74604">
        <ele>344</ele>
        <time>2019-04-04T15:29:52Z</time>
      </trkpt>
      <trkpt lat="47.46567" lon="3.74598">
        <ele>344</ele>
        <time>2019-04-04T15:29:57Z</time>
      </trkpt>
      <trkpt lat="47.46565" lon="3.74592">
        <ele>343</ele>
        <time>2019-04-04T15:30:03Z</time>
      </trkpt>
      <trkpt lat="47.46563" lon="3.74585">
        <ele>342</ele>
        <time>2019-04-04T15:30:09Z</time>
      </trkpt>
      <trkpt lat="47.46562" lon="3.74578">
        <ele>340</ele>
        <time>2019-04-04T15:30:16Z</time>
      </trkpt>
      <trkpt lat="47.46559" lon="3.74573">
        <ele>339</ele>
        <time>2019-04-04T15:30:22Z</time>
      </trkpt>
      <trkpt lat="47.46555" lon="3.74568">
        <ele>341</ele>
        <time>2019-04-04T15:30:31Z</time>
      </trkpt>
      <trkpt lat="47.46551" lon="3.74563">
        <ele>342</ele>
        <time>2019-04-04T15:31:33Z</time>
      </trkpt>
      <trkpt lat="47.46549" lon="3.74561">
        <ele>343</ele>
        <time>2019-04-04T15:31:36Z</time>
      </trkpt>
      <trkpt lat="47.46545" lon="3.74555">
        <ele>344</ele>
        <time>2019-04-04T15:31:44Z</time>
      </trkpt>
      <trkpt lat="47.46542" lon="3.74549">
        <ele>345</ele>
        <time>2019-04-04T15:31:51Z</time>
      </trkpt>
      <trkpt lat="47.46538" lon="3.74543">
        <ele>343</ele>
        <time>2019-04-04T15:31:57Z</time>
      </trkpt>
      <trkpt lat="47.46534" lon="3.74536">
        <ele>343</ele>
        <time>2019-04-04T15:32:03Z</time>
      </trkpt>
      <trkpt lat="47.46532" lon="3.74531">
        <ele>344</ele>
        <time>2019-04-04T15:32:08Z</time>
      </trkpt>
      <trkpt lat="47.46528" lon="3.74525">
        <ele>342</ele>
        <time>2019-04-04T15:32:15Z</time>
      </trkpt>
      <trkpt lat="47.46526" lon="3.74519">
        <ele>343</ele>
        <time>2019-04-04T15:32:19Z</time>
      </trkpt>
      <trkpt lat="47.46525" lon="3.74516">
        <ele>343</ele>
        <time>2019-04-04T15:32:22Z</time>
      </trkpt>
      <trkpt lat="47.46521" lon="3.74512">
        <ele>344</ele>
        <time>2019-04-04T15:32:27Z</time>
      </trkpt>
      <trkpt lat="47.46518" lon="3.74509">
        <ele>342</ele>
        <time>2019-04-04T15:32:30Z</time>
      </trkpt>
      <trkpt lat="47.46512" lon="3.74505">
        <ele>339</ele>
        <time>2019-04-04T15:32:35Z</time>
      </trkpt>
      <trkpt lat="47.46507" lon="3.74498">
        <ele>336</ele>
        <time>2019-04-04T15:32:43Z</time>
      </trkpt>
      <trkpt lat="47.46505" lon="3.74494">
        <ele>336</ele>
        <time>2019-04-04T15:32:47Z</time>
      </trkpt>
      <trkpt lat="47.46502" lon="3.74489">
        <ele>336</ele>
        <time>2019-04-04T15:32:51Z</time>
      </trkpt>
      <trkpt lat="47.465" lon="3.74486">
        <ele>337</ele>
        <time>2019-04-04T15:32:54Z</time>
      </trkpt>
      <trkpt lat="47.46496" lon="3.74482">
        <ele>336</ele>
        <time>2019-04-04T15:32:59Z</time>
      </trkpt>
      <trkpt lat="47.46493" lon="3.74474">
        <ele>335</ele>
        <time>2019-04-04T15:33:06Z</time>
      </trkpt>
      <trkpt lat="47.46493" lon="3.74467">
        <ele>331</ele>
        <time>2019-04-04T15:33:11Z</time>
      </trkpt>
      <trkpt lat="47.4649" lon="3.7446">
        <ele>332</ele>
        <time>2019-04-04T15:33:16Z</time>
      </trkpt>
      <trkpt lat="47.46486" lon="3.74455">
        <ele>332</ele>
        <time>2019-04-04T15:33:22Z</time>
      </trkpt>
      <trkpt lat="47.46482" lon="3.7445">
        <ele>333</ele>
        <time>2019-04-04T15:33:27Z</time>
      </trkpt>
      <trkpt lat="47.46479" lon="3.74448">
        <ele>333</ele>
        <time>2019-04-04T15:33:29Z</time>
      </trkpt>
      <trkpt lat="47.46475" lon="3.74444">
        <ele>334</ele>
        <time>2019-04-04T15:33:34Z</time>
      </trkpt>
      <trkpt lat="47.4647" lon="3.74442">
        <ele>333</ele>
        <time>2019-04-04T15:33:37Z</time>
      </trkpt>
      <trkpt lat="47.46467" lon="3.74441">
        <ele>332</ele>
        <time>2019-04-04T15:33:40Z</time>
      </trkpt>
      <trkpt lat="47.46461" lon="3.74436">
        <ele>332</ele>
        <time>2019-04-04T15:33:46Z</time>
      </trkpt>
      <trkpt lat="47.46457" lon="3.74431">
        <ele>332</ele>
        <time>2019-04-04T15:33:50Z</time>
      </trkpt>
      <trkpt lat="47.46455" lon="3.74428">
        <ele>331</ele>
        <time>2019-04-04T15:33:53Z</time>
      </trkpt>
      <trkpt lat="47.46452" lon="3.74422">
        <ele>330</ele>
        <time>2019-04-04T15:33:59Z</time>
      </trkpt>
      <trkpt lat="47.46448" lon="3.74417">
        <ele>329</ele>
        <time>2019-04-04T15:34:04Z</time>
      </trkpt>
      <trkpt lat="47.46446" lon="3.74415">
        <ele>330</ele>
        <time>2019-04-04T15:34:06Z</time>
      </trkpt>
      <trkpt lat="47.46443" lon="3.74412">
        <ele>330</ele>
        <time>2019-04-04T15:34:10Z</time>
      </trkpt>
      <trkpt lat="47.4644" lon="3.74409">
        <ele>330</ele>
        <time>2019-04-04T15:34:12Z</time>
      </trkpt>
      <trkpt lat="47.46438" lon="3.74407">
        <ele>331</ele>
        <time>2019-04-04T15:34:15Z</time>
      </trkpt>
      <trkpt lat="47.46435" lon="3.74401">
        <ele>331</ele>
        <time>2019-04-04T15:34:20Z</time>
      </trkpt>
      <trkpt lat="47.4643" lon="3.74397">
        <ele>327</ele>
        <time>2019-04-04T15:34:24Z</time>
      </trkpt>
      <trkpt lat="47.46428" lon="3.74391">
        <ele>324</ele>
        <time>2019-04-04T15:34:29Z</time>
      </trkpt>
      <trkpt lat="47.46425" lon="3.74385">
        <ele>323</ele>
        <time>2019-04-04T15:34:34Z</time>
      </trkpt>
      <trkpt lat="47.46421" lon="3.74381">
        <ele>322</ele>
        <time>2019-04-04T15:34:38Z</time>
      </trkpt>
      <trkpt lat="47.46417" lon="3.74375">
        <ele>321</ele>
        <time>2019-04-04T15:34:44Z</time>
      </trkpt>
      <trkpt lat="47.46415" lon="3.74371">
        <ele>322</ele>
        <time>2019-04-04T15:34:47Z</time>
      </trkpt>
      <trkpt lat="47.46413" lon="3.74368">
        <ele>322</ele>
        <time>2019-04-04T15:34:50Z</time>
      </trkpt>
      <trkpt lat="47.4641" lon="3.74363">
        <ele>321</ele>
        <time>2019-04-04T15:34:54Z</time>
      </trkpt>
      <trkpt lat="47.46407" lon="3.74358">
        <ele>321</ele>
        <time>2019-04-04T15:34:58Z</time>
      </trkpt>
      <trkpt lat="47.46404" lon="3.74353">
        <ele>322</ele>
        <time>2019-04-04T15:35:03Z</time>
      </trkpt>
      <trkpt lat="47.46402" lon="3.74349">
        <ele>322</ele>
        <time>2019-04-04T15:35:12Z</time>
      </trkpt>
      <trkpt lat="47.46384" lon="3.74334">
        <ele>323</ele>
        <time>2019-04-04T15:36:30Z</time>
      </trkpt>
      <trkpt lat="47.46382" lon="3.74328">
        <ele>324</ele>
        <time>2019-04-04T15:36:39Z</time>
      </trkpt>
      <trkpt lat="47.4638" lon="3.74324">
        <ele>326</ele>
        <time>2019-04-04T15:36:42Z</time>
      </trkpt>
      <trkpt lat="47.46379" lon="3.74317">
        <ele>325</ele>
        <time>2019-04-04T15:36:47Z</time>
      </trkpt>
      <trkpt lat="47.46376" lon="3.74311">
        <ele>325</ele>
        <time>2019-04-04T15:36:53Z</time>
      </trkpt>
      <trkpt lat="47.46375" lon="3.74308">
        <ele>325</ele>
        <time>2019-04-04T15:36:55Z</time>
      </trkpt>
      <trkpt lat="47.46372" lon="3.74298">
        <ele>325</ele>
        <time>2019-04-04T15:37:02Z</time>
      </trkpt>
      <trkpt lat="47.4637" lon="3.74293">
        <ele>326</ele>
        <time>2019-04-04T15:37:05Z</time>
      </trkpt>
      <trkpt lat="47.46369" lon="3.74289">
        <ele>325</ele>
        <time>2019-04-04T15:37:07Z</time>
      </trkpt>
      <trkpt lat="47.46367" lon="3.74284">
        <ele>325</ele>
        <time>2019-04-04T15:37:10Z</time>
      </trkpt>
      <trkpt lat="47.46366" lon="3.74281">
        <ele>324</ele>
        <time>2019-04-04T15:37:13Z</time>
      </trkpt>
      <trkpt lat="47.46366" lon="3.74276">
        <ele>320</ele>
        <time>2019-04-04T15:37:22Z</time>
      </trkpt>
      <trkpt lat="47.46361" lon="3.74254">
        <ele>315</ele>
        <time>2019-04-04T15:43:32Z</time>
      </trkpt>
      <trkpt lat="47.46359" lon="3.74248">
        <ele>315</ele>
        <time>2019-04-04T15:43:38Z</time>
      </trkpt>
      <trkpt lat="47.46358" lon="3.7424">
        <ele>314</ele>
        <time>2019-04-04T15:43:43Z</time>
      </trkpt>
      <trkpt lat="47.46358" lon="3.74234">
        <ele>310</ele>
        <time>2019-04-04T15:43:48Z</time>
      </trkpt>
      <trkpt lat="47.46357" lon="3.74234">
        <ele>309</ele>
        <time>2019-04-04T15:43:57Z</time>
      </trkpt>
      <trkpt lat="47.46345" lon="3.74224">
        <ele>298</ele>
        <time>2019-04-04T15:48:16Z</time>
      </trkpt>
      <trkpt lat="47.46344" lon="3.74217">
        <ele>298</ele>
        <time>2019-04-04T15:48:23Z</time>
      </trkpt>
      <trkpt lat="47.46345" lon="3.74209">
        <ele>298</ele>
        <time>2019-04-04T15:48:28Z</time>
      </trkpt>
      <trkpt lat="47.46342" lon="3.74204">
        <ele>299</ele>
        <time>2019-04-04T15:48:33Z</time>
      </trkpt>
      <trkpt lat="47.46337" lon="3.74203">
        <ele>298</ele>
        <time>2019-04-04T15:48:38Z</time>
      </trkpt>
      <trkpt lat="47.46332" lon="3.74204">
        <ele>300</ele>
        <time>2019-04-04T15:48:43Z</time>
      </trkpt>
      <trkpt lat="47.46327" lon="3.74207">
        <ele>300</ele>
        <time>2019-04-04T15:48:47Z</time>
      </trkpt>
      <trkpt lat="47.46324" lon="3.74209">
        <ele>300</ele>
        <time>2019-04-04T15:48:50Z</time>
      </trkpt>
      <trkpt lat="47.4632" lon="3.74211">
        <ele>301</ele>
        <time>2019-04-04T15:48:54Z</time>
      </trkpt>
      <trkpt lat="47.46316" lon="3.74213">
        <ele>301</ele>
        <time>2019-04-04T15:48:58Z</time>
      </trkpt>
      <trkpt lat="47.46313" lon="3.74214">
        <ele>301</ele>
        <time>2019-04-04T15:49:01Z</time>
      </trkpt>
      <trkpt lat="47.46308" lon="3.74214">
        <ele>300</ele>
        <time>2019-04-04T15:49:07Z</time>
      </trkpt>
      <trkpt lat="47.46305" lon="3.74214">
        <ele>301</ele>
        <time>2019-04-04T15:49:13Z</time>
      </trkpt>
      <trkpt lat="47.46302" lon="3.74214">
        <ele>301</ele>
        <time>2019-04-04T15:49:16Z</time>
      </trkpt>
      <trkpt lat="47.46299" lon="3.74214">
        <ele>300</ele>
        <time>2019-04-04T15:49:20Z</time>
      </trkpt>
      <trkpt lat="47.46294" lon="3.74215">
        <ele>299</ele>
        <time>2019-04-04T15:49:24Z</time>
      </trkpt>
      <trkpt lat="47.46292" lon="3.74215">
        <ele>299</ele>
        <time>2019-04-04T15:49:27Z</time>
      </trkpt>
      <trkpt lat="47.46287" lon="3.74219">
        <ele>299</ele>
        <time>2019-04-04T15:49:32Z</time>
      </trkpt>
      <trkpt lat="47.46282" lon="3.7422">
        <ele>300</ele>
        <time>2019-04-04T15:49:37Z</time>
      </trkpt>
      <trkpt lat="47.46278" lon="3.74221">
        <ele>300</ele>
        <time>2019-04-04T15:49:40Z</time>
      </trkpt>
      <trkpt lat="47.46274" lon="3.74222">
        <ele>300</ele>
        <time>2019-04-04T15:49:44Z</time>
      </trkpt>
      <trkpt lat="47.46271" lon="3.74215">
        <ele>297</ele>
        <time>2019-04-04T15:49:50Z</time>
      </trkpt>
      <trkpt lat="47.46266" lon="3.74211">
        <ele>296</ele>
        <time>2019-04-04T15:49:55Z</time>
      </trkpt>
      <trkpt lat="47.46261" lon="3.74212">
        <ele>296</ele>
        <time>2019-04-04T15:50:00Z</time>
      </trkpt>
      <trkpt lat="47.46258" lon="3.74212">
        <ele>296</ele>
        <time>2019-04-04T15:50:02Z</time>
      </trkpt>
      <trkpt lat="47.46253" lon="3.74213">
        <ele>296</ele>
        <time>2019-04-04T15:50:06Z</time>
      </trkpt>
      <trkpt lat="47.46248" lon="3.74213">
        <ele>297</ele>
        <time>2019-04-04T15:50:10Z</time>
      </trkpt>
      <trkpt lat="47.46246" lon="3.74213">
        <ele>298</ele>
        <time>2019-04-04T15:50:12Z</time>
      </trkpt>
      <trkpt lat="47.46243" lon="3.74213">
        <ele>298</ele>
        <time>2019-04-04T15:50:14Z</time>
      </trkpt>
      <trkpt lat="47.4624" lon="3.74213">
        <ele>298</ele>
        <time>2019-04-04T15:50:16Z</time>
      </trkpt>
      <trkpt lat="47.46238" lon="3.74212">
        <ele>298</ele>
        <time>2019-04-04T15:50:18Z</time>
      </trkpt>
      <trkpt lat="47.46236" lon="3.74212">
        <ele>299</ele>
        <time>2019-04-04T15:50:20Z</time>
      </trkpt>
      <trkpt lat="47.46233" lon="3.74211">
        <ele>297</ele>
        <time>2019-04-04T15:50:25Z</time>
      </trkpt>
      <trkpt lat="47.46228" lon="3.74208">
        <ele>297</ele>
        <time>2019-04-04T15:50:30Z</time>
      </trkpt>
      <trkpt lat="47.46223" lon="3.74207">
        <ele>295</ele>
        <time>2019-04-04T15:50:35Z</time>
      </trkpt>
      <trkpt lat="47.4622" lon="3.74206">
        <ele>294</ele>
        <time>2019-04-04T15:50:37Z</time>
      </trkpt>
      <trkpt lat="47.46217" lon="3.74206">
        <ele>295</ele>
        <time>2019-04-04T15:50:40Z</time>
      </trkpt>
      <trkpt lat="47.46215" lon="3.74205">
        <ele>295</ele>
        <time>2019-04-04T15:50:42Z</time>
      </trkpt>
      <trkpt lat="47.4621" lon="3.74205">
        <ele>296</ele>
        <time>2019-04-04T15:50:46Z</time>
      </trkpt>
      <trkpt lat="47.46206" lon="3.74203">
        <ele>296</ele>
        <time>2019-04-04T15:50:50Z</time>
      </trkpt>
      <trkpt lat="47.46199" lon="3.742">
        <ele>296</ele>
        <time>2019-04-04T15:50:56Z</time>
      </trkpt>
      <trkpt lat="47.46195" lon="3.74198">
        <ele>296</ele>
        <time>2019-04-04T15:51:00Z</time>
      </trkpt>
      <trkpt lat="47.46192" lon="3.74196">
        <ele>295</ele>
        <time>2019-04-04T15:51:03Z</time>
      </trkpt>
      <trkpt lat="47.46189" lon="3.74194">
        <ele>295</ele>
        <time>2019-04-04T15:51:06Z</time>
      </trkpt>
      <trkpt lat="47.46186" lon="3.74192">
        <ele>296</ele>
        <time>2019-04-04T15:51:09Z</time>
      </trkpt>
      <trkpt lat="47.46181" lon="3.74188">
        <ele>296</ele>
        <time>2019-04-04T15:51:14Z</time>
      </trkpt>
      <trkpt lat="47.46175" lon="3.74185">
        <ele>296</ele>
        <time>2019-04-04T15:51:19Z</time>
      </trkpt>
      <trkpt lat="47.46172" lon="3.74183">
        <ele>297</ele>
        <time>2019-04-04T15:51:22Z</time>
      </trkpt>
      <trkpt lat="47.46169" lon="3.74178">
        <ele>297</ele>
        <time>2019-04-04T15:51:26Z</time>
      </trkpt>
      <trkpt lat="47.46163" lon="3.74172">
        <ele>297</ele>
        <time>2019-04-04T15:51:32Z</time>
      </trkpt>
      <trkpt lat="47.46158" lon="3.74165">
        <ele>298</ele>
        <time>2019-04-04T15:51:40Z</time>
      </trkpt>
      <trkpt lat="47.46155" lon="3.7416">
        <ele>297</ele>
        <time>2019-04-04T15:51:44Z</time>
      </trkpt>
      <trkpt lat="47.46151" lon="3.74155">
        <ele>297</ele>
        <time>2019-04-04T15:51:49Z</time>
      </trkpt>
      <trkpt lat="47.46148" lon="3.7415">
        <ele>297</ele>
        <time>2019-04-04T15:51:53Z</time>
      </trkpt>
      <trkpt lat="47.46146" lon="3.74147">
        <ele>297</ele>
        <time>2019-04-04T15:51:56Z</time>
      </trkpt>
      <trkpt lat="47.46141" lon="3.74139">
        <ele>298</ele>
        <time>2019-04-04T15:52:03Z</time>
      </trkpt>
      <trkpt lat="47.46139" lon="3.74136">
        <ele>298</ele>
        <time>2019-04-04T15:52:05Z</time>
      </trkpt>
      <trkpt lat="47.46136" lon="3.74131">
        <ele>297</ele>
        <time>2019-04-04T15:52:09Z</time>
      </trkpt>
      <trkpt lat="47.46133" lon="3.74124">
        <ele>296</ele>
        <time>2019-04-04T15:52:14Z</time>
      </trkpt>
      <trkpt lat="47.46129" lon="3.74118">
        <ele>295</ele>
        <time>2019-04-04T15:52:19Z</time>
      </trkpt>
      <trkpt lat="47.46126" lon="3.74111">
        <ele>295</ele>
        <time>2019-04-04T15:52:24Z</time>
      </trkpt>
      <trkpt lat="47.46125" lon="3.74108">
        <ele>295</ele>
        <time>2019-04-04T15:52:26Z</time>
      </trkpt>
      <trkpt lat="47.46123" lon="3.74103">
        <ele>295</ele>
        <time>2019-04-04T15:52:31Z</time>
      </trkpt>
      <trkpt lat="47.46121" lon="3.74097">
        <ele>294</ele>
        <time>2019-04-04T15:52:35Z</time>
      </trkpt>
      <trkpt lat="47.46119" lon="3.74091">
        <ele>294</ele>
        <time>2019-04-04T15:52:39Z</time>
      </trkpt>
      <trkpt lat="47.46117" lon="3.74085">
        <ele>294</ele>
        <time>2019-04-04T15:52:43Z</time>
      </trkpt>
      <trkpt lat="47.46114" lon="3.74079">
        <ele>295</ele>
        <time>2019-04-04T15:52:48Z</time>
      </trkpt>
      <trkpt lat="47.46112" lon="3.74076">
        <ele>295</ele>
        <time>2019-04-04T15:52:50Z</time>
      </trkpt>
      <trkpt lat="47.46111" lon="3.74072">
        <ele>295</ele>
        <time>2019-04-04T15:52:53Z</time>
      </trkpt>
      <trkpt lat="47.46109" lon="3.74067">
        <ele>294</ele>
        <time>2019-04-04T15:52:56Z</time>
      </trkpt>
      <trkpt lat="47.46105" lon="3.7406">
        <ele>294</ele>
        <time>2019-04-04T15:53:01Z</time>
      </trkpt>
      <trkpt lat="47.46103" lon="3.74056">
        <ele>294</ele>
        <time>2019-04-04T15:53:04Z</time>
      </trkpt>
      <trkpt lat="47.46101" lon="3.74053">
        <ele>294</ele>
        <time>2019-04-04T15:53:06Z</time>
      </trkpt>
      <trkpt lat="47.46099" lon="3.7405">
        <ele>293</ele>
        <time>2019-04-04T15:53:09Z</time>
      </trkpt>
      <trkpt lat="47.46096" lon="3.74047">
        <ele>293</ele>
        <time>2019-04-04T15:53:12Z</time>
      </trkpt>
      <trkpt lat="47.46093" lon="3.7404">
        <ele>292</ele>
        <time>2019-04-04T15:53:17Z</time>
      </trkpt>
      <trkpt lat="47.46091" lon="3.74036">
        <ele>291</ele>
        <time>2019-04-04T15:53:20Z</time>
      </trkpt>
      <trkpt lat="47.46088" lon="3.7403">
        <ele>291</ele>
        <time>2019-04-04T15:53:25Z</time>
      </trkpt>
      <trkpt lat="47.46086" lon="3.74028">
        <ele>291</ele>
        <time>2019-04-04T15:53:27Z</time>
      </trkpt>
      <trkpt lat="47.46083" lon="3.74025">
        <ele>290</ele>
        <time>2019-04-04T15:53:30Z</time>
      </trkpt>
      <trkpt lat="47.46081" lon="3.74023">
        <ele>290</ele>
        <time>2019-04-04T15:53:33Z</time>
      </trkpt>
      <trkpt lat="47.46078" lon="3.74018">
        <ele>292</ele>
        <time>2019-04-04T15:53:42Z</time>
      </trkpt>
      <trkpt lat="47.46074" lon="3.74014">
        <ele>292</ele>
        <time>2019-04-04T15:53:46Z</time>
      </trkpt>
      <trkpt lat="47.46072" lon="3.74012">
        <ele>292</ele>
        <time>2019-04-04T15:53:48Z</time>
      </trkpt>
      <trkpt lat="47.46068" lon="3.74007">
        <ele>292</ele>
        <time>2019-04-04T15:53:52Z</time>
      </trkpt>
      <trkpt lat="47.46066" lon="3.74004">
        <ele>292</ele>
        <time>2019-04-04T15:53:55Z</time>
      </trkpt>
      <trkpt lat="47.46064" lon="3.74001">
        <ele>292</ele>
        <time>2019-04-04T15:53:57Z</time>
      </trkpt>
      <trkpt lat="47.4606" lon="3.73997">
        <ele>292</ele>
        <time>2019-04-04T15:54:01Z</time>
      </trkpt>
      <trkpt lat="47.46056" lon="3.73993">
        <ele>293</ele>
        <time>2019-04-04T15:54:05Z</time>
      </trkpt>
      <trkpt lat="47.46053" lon="3.7399">
        <ele>293</ele>
        <time>2019-04-04T15:54:10Z</time>
      </trkpt>
      <trkpt lat="47.46049" lon="3.73987">
        <ele>292</ele>
        <time>2019-04-04T15:54:14Z</time>
      </trkpt>
      <trkpt lat="47.46044" lon="3.73984">
        <ele>292</ele>
        <time>2019-04-04T15:54:19Z</time>
      </trkpt>
      <trkpt lat="47.4604" lon="3.73981">
        <ele>292</ele>
        <time>2019-04-04T15:54:22Z</time>
      </trkpt>
      <trkpt lat="47.46038" lon="3.73979">
        <ele>291</ele>
        <time>2019-04-04T15:54:24Z</time>
      </trkpt>
      <trkpt lat="47.46032" lon="3.73977">
        <ele>291</ele>
        <time>2019-04-04T15:54:30Z</time>
      </trkpt>
      <trkpt lat="47.46025" lon="3.73972">
        <ele>290</ele>
        <time>2019-04-04T15:54:36Z</time>
      </trkpt>
      <trkpt lat="47.46023" lon="3.73971">
        <ele>290</ele>
        <time>2019-04-04T15:54:38Z</time>
      </trkpt>
      <trkpt lat="47.46017" lon="3.73968">
        <ele>290</ele>
        <time>2019-04-04T15:54:43Z</time>
      </trkpt>
      <trkpt lat="47.46014" lon="3.73966">
        <ele>290</ele>
        <time>2019-04-04T15:54:46Z</time>
      </trkpt>
      <trkpt lat="47.46011" lon="3.73964">
        <ele>290</ele>
        <time>2019-04-04T15:54:49Z</time>
      </trkpt>
      <trkpt lat="47.46008" lon="3.73963">
        <ele>290</ele>
        <time>2019-04-04T15:54:51Z</time>
      </trkpt>
      <trkpt lat="47.46006" lon="3.73962">
        <ele>290</ele>
        <time>2019-04-04T15:54:53Z</time>
      </trkpt>
      <trkpt lat="47.46004" lon="3.73961">
        <ele>289</ele>
        <time>2019-04-04T15:54:55Z</time>
      </trkpt>
      <trkpt lat="47.45998" lon="3.73958">
        <ele>289</ele>
        <time>2019-04-04T15:55:01Z</time>
      </trkpt>
      <trkpt lat="47.45996" lon="3.73956">
        <ele>289</ele>
        <time>2019-04-04T15:55:02Z</time>
      </trkpt>
      <trkpt lat="47.45994" lon="3.73955">
        <ele>289</ele>
        <time>2019-04-04T15:55:04Z</time>
      </trkpt>
      <trkpt lat="47.45991" lon="3.73954">
        <ele>289</ele>
        <time>2019-04-04T15:55:06Z</time>
      </trkpt>
      <trkpt lat="47.45989" lon="3.73952">
        <ele>288</ele>
        <time>2019-04-04T15:55:08Z</time>
      </trkpt>
      <trkpt lat="47.45984" lon="3.7395">
        <ele>289</ele>
        <time>2019-04-04T15:55:13Z</time>
      </trkpt>
      <trkpt lat="47.4598" lon="3.73947">
        <ele>289</ele>
        <time>2019-04-04T15:55:18Z</time>
      </trkpt>
      <trkpt lat="47.45976" lon="3.73943">
        <ele>289</ele>
        <time>2019-04-04T15:55:22Z</time>
      </trkpt>
      <trkpt lat="47.45972" lon="3.73938">
        <ele>289</ele>
        <time>2019-04-04T15:55:26Z</time>
      </trkpt>
      <trkpt lat="47.45969" lon="3.73936">
        <ele>290</ele>
        <time>2019-04-04T15:55:29Z</time>
      </trkpt>
      <trkpt lat="47.45966" lon="3.73933">
        <ele>290</ele>
        <time>2019-04-04T15:55:32Z</time>
      </trkpt>
      <trkpt lat="47.45961" lon="3.73929">
        <ele>290</ele>
        <time>2019-04-04T15:55:36Z</time>
      </trkpt>
      <trkpt lat="47.45957" lon="3.73924">
        <ele>291</ele>
        <time>2019-04-04T15:55:41Z</time>
      </trkpt>
      <trkpt lat="47.45953" lon="3.73918">
        <ele>291</ele>
        <time>2019-04-04T15:55:46Z</time>
      </trkpt>
      <trkpt lat="47.4595" lon="3.73914">
        <ele>291</ele>
        <time>2019-04-04T15:55:49Z</time>
      </trkpt>
      <trkpt lat="47.45948" lon="3.73912">
        <ele>291</ele>
        <time>2019-04-04T15:55:51Z</time>
      </trkpt>
      <trkpt lat="47.45944" lon="3.73907">
        <ele>290</ele>
        <time>2019-04-04T15:55:55Z</time>
      </trkpt>
      <trkpt lat="47.45941" lon="3.73901">
        <ele>291</ele>
        <time>2019-04-04T15:55:59Z</time>
      </trkpt>
      <trkpt lat="47.45937" lon="3.73896">
        <ele>290</ele>
        <time>2019-04-04T15:56:04Z</time>
      </trkpt>
      <trkpt lat="47.45934" lon="3.73893">
        <ele>290</ele>
        <time>2019-04-04T15:56:06Z</time>
      </trkpt>
      <trkpt lat="47.45931" lon="3.7389">
        <ele>290</ele>
        <time>2019-04-04T15:56:09Z</time>
      </trkpt>
      <trkpt lat="47.45928" lon="3.73884">
        <ele>290</ele>
        <time>2019-04-04T15:56:13Z</time>
      </trkpt>
      <trkpt lat="47.45926" lon="3.73882">
        <ele>290</ele>
        <time>2019-04-04T15:56:15Z</time>
      </trkpt>
      <trkpt lat="47.45924" lon="3.73879">
        <ele>290</ele>
        <time>2019-04-04T15:56:17Z</time>
      </trkpt>
      <trkpt lat="47.45922" lon="3.73876">
        <ele>291</ele>
        <time>2019-04-04T15:56:19Z</time>
      </trkpt>
      <trkpt lat="47.4592" lon="3.73873">
        <ele>290</ele>
        <time>2019-04-04T15:56:22Z</time>
      </trkpt>
      <trkpt lat="47.45917" lon="3.73868">
        <ele>290</ele>
        <time>2019-04-04T15:56:25Z</time>
      </trkpt>
      <trkpt lat="47.45914" lon="3.73862">
        <ele>291</ele>
        <time>2019-04-04T15:56:29Z</time>
      </trkpt>
      <trkpt lat="47.45911" lon="3.73856">
        <ele>291</ele>
        <time>2019-04-04T15:56:33Z</time>
      </trkpt>
      <trkpt lat="47.45906" lon="3.73851">
        <ele>291</ele>
        <time>2019-04-04T15:56:37Z</time>
      </trkpt>
      <trkpt lat="47.45902" lon="3.73844">
        <ele>291</ele>
        <time>2019-04-04T15:56:43Z</time>
      </trkpt>
      <trkpt lat="47.45901" lon="3.73841">
        <ele>291</ele>
        <time>2019-04-04T15:56:45Z</time>
      </trkpt>
      <trkpt lat="47.45897" lon="3.73836">
        <ele>292</ele>
        <time>2019-04-04T15:56:49Z</time>
      </trkpt>
      <trkpt lat="47.45895" lon="3.73834">
        <ele>292</ele>
        <time>2019-04-04T15:56:51Z</time>
      </trkpt>
      <trkpt lat="47.45894" lon="3.73834">
        <ele>293</ele>
        <time>2019-04-04T15:56:59Z</time>
      </trkpt>
      <trkpt lat="47.45891" lon="3.73828">
        <ele>292</ele>
        <time>2019-04-04T15:57:09Z</time>
      </trkpt>
      <trkpt lat="47.45886" lon="3.73824">
        <ele>292</ele>
        <time>2019-04-04T15:57:13Z</time>
      </trkpt>
      <trkpt lat="47.45883" lon="3.73819">
        <ele>292</ele>
        <time>2019-04-04T15:57:17Z</time>
      </trkpt>
      <trkpt lat="47.45881" lon="3.73813">
        <ele>292</ele>
        <time>2019-04-04T15:57:21Z</time>
      </trkpt>
      <trkpt lat="47.45876" lon="3.73809">
        <ele>293</ele>
        <time>2019-04-04T15:57:25Z</time>
      </trkpt>
      <trkpt lat="47.45874" lon="3.73806">
        <ele>293</ele>
        <time>2019-04-04T15:57:28Z</time>
      </trkpt>
      <trkpt lat="47.45871" lon="3.73804">
        <ele>294</ele>
        <time>2019-04-04T15:57:30Z</time>
      </trkpt>
      <trkpt lat="47.45869" lon="3.73802">
        <ele>294</ele>
        <time>2019-04-04T15:57:33Z</time>
      </trkpt>
      <trkpt lat="47.45865" lon="3.73798">
        <ele>294</ele>
        <time>2019-04-04T15:57:37Z</time>
      </trkpt>
      <trkpt lat="47.45861" lon="3.73794">
        <ele>294</ele>
        <time>2019-04-04T15:57:41Z</time>
      </trkpt>
      <trkpt lat="47.45859" lon="3.73791">
        <ele>293</ele>
        <time>2019-04-04T15:57:44Z</time>
      </trkpt>
      <trkpt lat="47.45854" lon="3.73788">
        <ele>293</ele>
        <time>2019-04-04T15:57:48Z</time>
      </trkpt>
      <trkpt lat="47.45851" lon="3.73786">
        <ele>293</ele>
        <time>2019-04-04T15:57:51Z</time>
      </trkpt>
      <trkpt lat="47.45848" lon="3.73785">
        <ele>293</ele>
        <time>2019-04-04T15:57:53Z</time>
      </trkpt>
      <trkpt lat="47.45844" lon="3.73782">
        <ele>294</ele>
        <time>2019-04-04T15:57:57Z</time>
      </trkpt>
      <trkpt lat="47.45842" lon="3.7378">
        <ele>294</ele>
        <time>2019-04-04T15:57:59Z</time>
      </trkpt>
      <trkpt lat="47.4584" lon="3.73778">
        <ele>294</ele>
        <time>2019-04-04T15:58:01Z</time>
      </trkpt>
      <trkpt lat="47.45835" lon="3.73774">
        <ele>294</ele>
        <time>2019-04-04T15:58:06Z</time>
      </trkpt>
      <trkpt lat="47.45833" lon="3.73772">
        <ele>295</ele>
        <time>2019-04-04T15:58:08Z</time>
      </trkpt>
      <trkpt lat="47.45826" lon="3.73768">
        <ele>295</ele>
        <time>2019-04-04T15:58:15Z</time>
      </trkpt>
      <trkpt lat="47.45821" lon="3.73765">
        <ele>294</ele>
        <time>2019-04-04T15:58:20Z</time>
      </trkpt>
      <trkpt lat="47.45816" lon="3.73762">
        <ele>294</ele>
        <time>2019-04-04T15:58:25Z</time>
      </trkpt>
      <trkpt lat="47.45813" lon="3.73761">
        <ele>294</ele>
        <time>2019-04-04T15:58:28Z</time>
      </trkpt>
      <trkpt lat="47.4581" lon="3.73759">
        <ele>294</ele>
        <time>2019-04-04T15:58:31Z</time>
      </trkpt>
      <trkpt lat="47.45804" lon="3.73757">
        <ele>294</ele>
        <time>2019-04-04T15:58:36Z</time>
      </trkpt>
      <trkpt lat="47.45802" lon="3.73757">
        <ele>294</ele>
        <time>2019-04-04T15:58:38Z</time>
      </trkpt>
      <trkpt lat="47.45797" lon="3.73754">
        <ele>295</ele>
        <time>2019-04-04T15:58:43Z</time>
      </trkpt>
      <trkpt lat="47.45794" lon="3.73753">
        <ele>295</ele>
        <time>2019-04-04T15:58:45Z</time>
      </trkpt>
      <trkpt lat="47.45789" lon="3.73752">
        <ele>295</ele>
        <time>2019-04-04T15:58:49Z</time>
      </trkpt>
      <trkpt lat="47.45784" lon="3.73752">
        <ele>295</ele>
        <time>2019-04-04T15:58:54Z</time>
      </trkpt>
      <trkpt lat="47.4578" lon="3.73752">
        <ele>295</ele>
        <time>2019-04-04T15:58:57Z</time>
      </trkpt>
      <trkpt lat="47.45775" lon="3.73751">
        <ele>296</ele>
        <time>2019-04-04T15:59:02Z</time>
      </trkpt>
      <trkpt lat="47.45773" lon="3.7375">
        <ele>295</ele>
        <time>2019-04-04T15:59:04Z</time>
      </trkpt>
      <trkpt lat="47.4577" lon="3.7375">
        <ele>295</ele>
        <time>2019-04-04T15:59:06Z</time>
      </trkpt>
      <trkpt lat="47.45767" lon="3.7375">
        <ele>296</ele>
        <time>2019-04-04T15:59:09Z</time>
      </trkpt>
      <trkpt lat="47.45762" lon="3.7375">
        <ele>296</ele>
        <time>2019-04-04T15:59:13Z</time>
      </trkpt>
      <trkpt lat="47.45758" lon="3.73749">
        <ele>296</ele>
        <time>2019-04-04T15:59:17Z</time>
      </trkpt>
      <trkpt lat="47.45753" lon="3.7375">
        <ele>296</ele>
        <time>2019-04-04T15:59:21Z</time>
      </trkpt>
      <trkpt lat="47.45748" lon="3.73749">
        <ele>297</ele>
        <time>2019-04-04T15:59:25Z</time>
      </trkpt>
      <trkpt lat="47.45745" lon="3.73748">
        <ele>297</ele>
        <time>2019-04-04T15:59:28Z</time>
      </trkpt>
      <trkpt lat="47.4574" lon="3.73748">
        <ele>297</ele>
        <time>2019-04-04T15:59:32Z</time>
      </trkpt>
      <trkpt lat="47.45737" lon="3.73748">
        <ele>298</ele>
        <time>2019-04-04T15:59:34Z</time>
      </trkpt>
      <trkpt lat="47.45733" lon="3.73747">
        <ele>298</ele>
        <time>2019-04-04T15:59:38Z</time>
      </trkpt>
      <trkpt lat="47.45729" lon="3.73745">
        <ele>298</ele>
        <time>2019-04-04T15:59:41Z</time>
      </trkpt>
      <trkpt lat="47.45726" lon="3.73744">
        <ele>298</ele>
        <time>2019-04-04T15:59:44Z</time>
      </trkpt>
      <trkpt lat="47.45724" lon="3.73744">
        <ele>298</ele>
        <time>2019-04-04T15:59:46Z</time>
      </trkpt>
      <trkpt lat="47.4572" lon="3.73743">
        <ele>299</ele>
        <time>2019-04-04T15:59:49Z</time>
      </trkpt>
      <trkpt lat="47.45716" lon="3.73743">
        <ele>300</ele>
        <time>2019-04-04T15:59:53Z</time>
      </trkpt>
      <trkpt lat="47.45713" lon="3.73742">
        <ele>300</ele>
        <time>2019-04-04T15:59:55Z</time>
      </trkpt>
      <trkpt lat="47.45708" lon="3.73743">
        <ele>298</ele>
        <time>2019-04-04T15:59:59Z</time>
      </trkpt>
      <trkpt lat="47.45702" lon="3.73746">
        <ele>298</ele>
        <time>2019-04-04T16:00:05Z</time>
      </trkpt>
      <trkpt lat="47.45698" lon="3.73748">
        <ele>300</ele>
        <time>2019-04-04T16:00:09Z</time>
      </trkpt>
      <trkpt lat="47.45695" lon="3.73753">
        <ele>301</ele>
        <time>2019-04-04T16:00:14Z</time>
      </trkpt>
      <trkpt lat="47.45693" lon="3.73755">
        <ele>301</ele>
        <time>2019-04-04T16:00:17Z</time>
      </trkpt>
      <trkpt lat="47.45691" lon="3.73757">
        <ele>301</ele>
        <time>2019-04-04T16:00:19Z</time>
      </trkpt>
      <trkpt lat="47.4569" lon="3.73765">
        <ele>300</ele>
        <time>2019-04-04T16:00:24Z</time>
      </trkpt>
      <trkpt lat="47.4569" lon="3.73772">
        <ele>300</ele>
        <time>2019-04-04T16:00:30Z</time>
      </trkpt>
      <trkpt lat="47.45687" lon="3.73778">
        <ele>300</ele>
        <time>2019-04-04T16:00:35Z</time>
      </trkpt>
      <trkpt lat="47.45682" lon="3.73781">
        <ele>300</ele>
        <time>2019-04-04T16:00:40Z</time>
      </trkpt>
      <trkpt lat="47.45677" lon="3.73785">
        <ele>301</ele>
        <time>2019-04-04T16:00:45Z</time>
      </trkpt>
      <trkpt lat="47.45675" lon="3.73786">
        <ele>301</ele>
        <time>2019-04-04T16:00:47Z</time>
      </trkpt>
      <trkpt lat="47.45673" lon="3.73788">
        <ele>301</ele>
        <time>2019-04-04T16:00:49Z</time>
      </trkpt>
      <trkpt lat="47.45669" lon="3.73791">
        <ele>302</ele>
        <time>2019-04-04T16:00:53Z</time>
      </trkpt>
      <trkpt lat="47.45664" lon="3.73794">
        <ele>303</ele>
        <time>2019-04-04T16:00:58Z</time>
      </trkpt>
      <trkpt lat="47.45662" lon="3.73796">
        <ele>303</ele>
        <time>2019-04-04T16:01:00Z</time>
      </trkpt>
      <trkpt lat="47.45658" lon="3.738">
        <ele>303</ele>
        <time>2019-04-04T16:01:04Z</time>
      </trkpt>
      <trkpt lat="47.45656" lon="3.73803">
        <ele>304</ele>
        <time>2019-04-04T16:01:07Z</time>
      </trkpt>
      <trkpt lat="47.45654" lon="3.73808">
        <ele>303</ele>
        <time>2019-04-04T16:01:16Z</time>
      </trkpt>
      <trkpt lat="47.45654" lon="3.73808">
        <ele>254.3</ele>
        <time>2019-04-04T16:01:35Z</time>
      </trkpt>
      <trkpt lat="47.45654" lon="3.73808">
        <ele>254.3</ele>
        <time>2019-04-04T16:01:37Z</time>
      </trkpt>
      <trkpt lat="47.45637" lon="3.73792">
        <ele>253</ele>
        <time>2019-04-05T06:14:31Z</time>
      </trkpt>
      <trkpt lat="47.45637" lon="3.73792">
        <ele>253</ele>
        <time>2019-04-05T06:14:31Z</time>
      </trkpt>
      <trkpt lat="47.45637" lon="3.73792">
        <ele>302</ele>
        <time>2019-04-05T06:14:39Z</time>
      </trkpt>
      <trkpt lat="47.45642" lon="3.73794">
        <ele>298</ele>
        <time>2019-04-05T06:14:43Z</time>
      </trkpt>
      <trkpt lat="47.45644" lon="3.73796">
        <ele>296</ele>
        <time>2019-04-05T06:14:45Z</time>
      </trkpt>
      <trkpt lat="47.45647" lon="3.73801">
        <ele>296</ele>
        <time>2019-04-05T06:14:52Z</time>
      </trkpt>
      <trkpt lat="47.45651" lon="3.73804">
        <ele>296</ele>
        <time>2019-04-05T06:14:57Z</time>
      </trkpt>
      <trkpt lat="47.45655" lon="3.73808">
        <ele>296</ele>
        <time>2019-04-05T06:15:01Z</time>
      </trkpt>
      <trkpt lat="47.45657" lon="3.73814">
        <ele>296</ele>
        <time>2019-04-05T06:15:07Z</time>
      </trkpt>
      <trkpt lat="47.45659" lon="3.73818">
        <ele>296</ele>
        <time>2019-04-05T06:15:10Z</time>
      </trkpt>
      <trkpt lat="47.45657" lon="3.73829">
        <ele>298</ele>
        <time>2019-04-05T06:15:25Z</time>
      </trkpt>
      <trkpt lat="47.45652" lon="3.7383">
        <ele>299</ele>
        <time>2019-04-05T06:15:30Z</time>
      </trkpt>
      <trkpt lat="47.45647" lon="3.7383">
        <ele>301</ele>
        <time>2019-04-05T06:15:35Z</time>
      </trkpt>
      <trkpt lat="47.45644" lon="3.73833">
        <ele>303</ele>
        <time>2019-04-05T06:15:40Z</time>
      </trkpt>
      <trkpt lat="47.45639" lon="3.73836">
        <ele>304</ele>
        <time>2019-04-05T06:15:45Z</time>
      </trkpt>
      <trkpt lat="47.45635" lon="3.73839">
        <ele>305</ele>
        <time>2019-04-05T06:15:49Z</time>
      </trkpt>
      <trkpt lat="47.45631" lon="3.73844">
        <ele>305</ele>
        <time>2019-04-05T06:15:53Z</time>
      </trkpt>
      <trkpt lat="47.45627" lon="3.73848">
        <ele>305</ele>
        <time>2019-04-05T06:15:57Z</time>
      </trkpt>
      <trkpt lat="47.45623" lon="3.73851">
        <ele>305</ele>
        <time>2019-04-05T06:16:02Z</time>
      </trkpt>
      <trkpt lat="47.45618" lon="3.73855">
        <ele>306</ele>
        <time>2019-04-05T06:16:07Z</time>
      </trkpt>
      <trkpt lat="47.45615" lon="3.73858">
        <ele>306</ele>
        <time>2019-04-05T06:16:09Z</time>
      </trkpt>
      <trkpt lat="47.45611" lon="3.73861">
        <ele>305</ele>
        <time>2019-04-05T06:16:13Z</time>
      </trkpt>
      <trkpt lat="47.45607" lon="3.73865">
        <ele>306</ele>
        <time>2019-04-05T06:16:17Z</time>
      </trkpt>
      <trkpt lat="47.45602" lon="3.73867">
        <ele>304</ele>
        <time>2019-04-05T06:16:22Z</time>
      </trkpt>
      <trkpt lat="47.45598" lon="3.73871">
        <ele>303</ele>
        <time>2019-04-05T06:16:28Z</time>
      </trkpt>
      <trkpt lat="47.45592" lon="3.73874">
        <ele>303</ele>
        <time>2019-04-05T06:16:33Z</time>
      </trkpt>
      <trkpt lat="47.45588" lon="3.73878">
        <ele>302</ele>
        <time>2019-04-05T06:16:37Z</time>
      </trkpt>
      <trkpt lat="47.45585" lon="3.7388">
        <ele>302</ele>
        <time>2019-04-05T06:16:39Z</time>
      </trkpt>
      <trkpt lat="47.45582" lon="3.73885">
        <ele>302</ele>
        <time>2019-04-05T06:16:43Z</time>
      </trkpt>
      <trkpt lat="47.45579" lon="3.73888">
        <ele>303</ele>
        <time>2019-04-05T06:16:46Z</time>
      </trkpt>
      <trkpt lat="47.45578" lon="3.7389">
        <ele>303</ele>
        <time>2019-04-05T06:16:48Z</time>
      </trkpt>
      <trkpt lat="47.45575" lon="3.73898">
        <ele>302</ele>
        <time>2019-04-05T06:16:52Z</time>
      </trkpt>
      <trkpt lat="47.45572" lon="3.73903">
        <ele>301</ele>
        <time>2019-04-05T06:16:56Z</time>
      </trkpt>
      <trkpt lat="47.45569" lon="3.73909">
        <ele>302</ele>
        <time>2019-04-05T06:17:02Z</time>
      </trkpt>
      <trkpt lat="47.45565" lon="3.73915">
        <ele>301</ele>
        <time>2019-04-05T06:17:07Z</time>
      </trkpt>
      <trkpt lat="47.45562" lon="3.7392">
        <ele>302</ele>
        <time>2019-04-05T06:17:12Z</time>
      </trkpt>
      <trkpt lat="47.4556" lon="3.73923">
        <ele>301</ele>
        <time>2019-04-05T06:17:15Z</time>
      </trkpt>
      <trkpt lat="47.45558" lon="3.73927">
        <ele>302</ele>
        <time>2019-04-05T06:17:18Z</time>
      </trkpt>
      <trkpt lat="47.45557" lon="3.73931">
        <ele>302</ele>
        <time>2019-04-05T06:17:21Z</time>
      </trkpt>
      <trkpt lat="47.45555" lon="3.73938">
        <ele>302</ele>
        <time>2019-04-05T06:17:26Z</time>
      </trkpt>
      <trkpt lat="47.45553" lon="3.73946">
        <ele>301</ele>
        <time>2019-04-05T06:17:31Z</time>
      </trkpt>
      <trkpt lat="47.45551" lon="3.73952">
        <ele>300</ele>
        <time>2019-04-05T06:17:35Z</time>
      </trkpt>
      <trkpt lat="47.4555" lon="3.73956">
        <ele>300</ele>
        <time>2019-04-05T06:17:37Z</time>
      </trkpt>
      <trkpt lat="47.45548" lon="3.73963">
        <ele>301</ele>
        <time>2019-04-05T06:17:43Z</time>
      </trkpt>
      <trkpt lat="47.45548" lon="3.73967">
        <ele>301</ele>
        <time>2019-04-05T06:17:46Z</time>
      </trkpt>
      <trkpt lat="47.45548" lon="3.73975">
        <ele>301</ele>
        <time>2019-04-05T06:17:53Z</time>
      </trkpt>
      <trkpt lat="47.45547" lon="3.73983">
        <ele>301</ele>
        <time>2019-04-05T06:17:59Z</time>
      </trkpt>
      <trkpt lat="47.45547" lon="3.73987">
        <ele>301</ele>
        <time>2019-04-05T06:18:02Z</time>
      </trkpt>
      <trkpt lat="47.45547" lon="3.73994">
        <ele>301</ele>
        <time>2019-04-05T06:18:07Z</time>
      </trkpt>
      <trkpt lat="47.45546" lon="3.74001">
        <ele>300</ele>
        <time>2019-04-05T06:18:11Z</time>
      </trkpt>
      <trkpt lat="47.45546" lon="3.74011">
        <ele>300</ele>
        <time>2019-04-05T06:18:16Z</time>
      </trkpt>
      <trkpt lat="47.45544" lon="3.74018">
        <ele>300</ele>
        <time>2019-04-05T06:18:20Z</time>
      </trkpt>
      <trkpt lat="47.45544" lon="3.74026">
        <ele>299</ele>
        <time>2019-04-05T06:18:25Z</time>
      </trkpt>
      <trkpt lat="47.45543" lon="3.74034">
        <ele>300</ele>
        <time>2019-04-05T06:18:30Z</time>
      </trkpt>
      <trkpt lat="47.45543" lon="3.74037">
        <ele>300</ele>
        <time>2019-04-05T06:18:32Z</time>
      </trkpt>
      <trkpt lat="47.45543" lon="3.74045">
        <ele>299</ele>
        <time>2019-04-05T06:18:36Z</time>
      </trkpt>
      <trkpt lat="47.45543" lon="3.74051">
        <ele>299</ele>
        <time>2019-04-05T06:18:39Z</time>
      </trkpt>
      <trkpt lat="47.45543" lon="3.74055">
        <ele>299</ele>
        <time>2019-04-05T06:18:41Z</time>
      </trkpt>
      <trkpt lat="47.45543" lon="3.74061">
        <ele>299</ele>
        <time>2019-04-05T06:18:44Z</time>
      </trkpt>
      <trkpt lat="47.45543" lon="3.74066">
        <ele>298</ele>
        <time>2019-04-05T06:18:47Z</time>
      </trkpt>
      <trkpt lat="47.45543" lon="3.74069">
        <ele>298</ele>
        <time>2019-04-05T06:18:49Z</time>
      </trkpt>
      <trkpt lat="47.45543" lon="3.74074">
        <ele>298</ele>
        <time>2019-04-05T06:18:52Z</time>
      </trkpt>
      <trkpt lat="47.45544" lon="3.7408">
        <ele>298</ele>
        <time>2019-04-05T06:18:56Z</time>
      </trkpt>
      <trkpt lat="47.45544" lon="3.74084">
        <ele>298</ele>
        <time>2019-04-05T06:18:58Z</time>
      </trkpt>
      <trkpt lat="47.45545" lon="3.74087">
        <ele>298</ele>
        <time>2019-04-05T06:19:00Z</time>
      </trkpt>
      <trkpt lat="47.45545" lon="3.74095">
        <ele>299</ele>
        <time>2019-04-05T06:19:05Z</time>
      </trkpt>
      <trkpt lat="47.45546" lon="3.74103">
        <ele>299</ele>
        <time>2019-04-05T06:19:10Z</time>
      </trkpt>
      <trkpt lat="47.45546" lon="3.74107">
        <ele>300</ele>
        <time>2019-04-05T06:19:13Z</time>
      </trkpt>
      <trkpt lat="47.45547" lon="3.74114">
        <ele>299</ele>
        <time>2019-04-05T06:19:17Z</time>
      </trkpt>
      <trkpt lat="47.45548" lon="3.74119">
        <ele>298</ele>
        <time>2019-04-05T06:19:20Z</time>
      </trkpt>
      <trkpt lat="47.4555" lon="3.74126">
        <ele>299</ele>
        <time>2019-04-05T06:19:25Z</time>
      </trkpt>
      <trkpt lat="47.45553" lon="3.74133">
        <ele>298</ele>
        <time>2019-04-05T06:19:29Z</time>
      </trkpt>
      <trkpt lat="47.45554" lon="3.7414">
        <ele>298</ele>
        <time>2019-04-05T06:19:34Z</time>
      </trkpt>
      <trkpt lat="47.45556" lon="3.74147">
        <ele>297</ele>
        <time>2019-04-05T06:19:39Z</time>
      </trkpt>
      <trkpt lat="47.4556" lon="3.74153">
        <ele>297</ele>
        <time>2019-04-05T06:19:44Z</time>
      </trkpt>
      <trkpt lat="47.45563" lon="3.7416">
        <ele>297</ele>
        <time>2019-04-05T06:19:48Z</time>
      </trkpt>
      <trkpt lat="47.45565" lon="3.74167">
        <ele>297</ele>
        <time>2019-04-05T06:19:52Z</time>
      </trkpt>
      <trkpt lat="47.45569" lon="3.74171">
        <ele>297</ele>
        <time>2019-04-05T06:19:56Z</time>
      </trkpt>
      <trkpt lat="47.45572" lon="3.74174">
        <ele>296</ele>
        <time>2019-04-05T06:19:59Z</time>
      </trkpt>
      <trkpt lat="47.45574" lon="3.74176">
        <ele>296</ele>
        <time>2019-04-05T06:20:02Z</time>
      </trkpt>
      <trkpt lat="47.45578" lon="3.74178">
        <ele>296</ele>
        <time>2019-04-05T06:20:10Z</time>
      </trkpt>
      <trkpt lat="47.45578" lon="3.74185">
        <ele>294</ele>
        <time>2019-04-05T06:22:24Z</time>
      </trkpt>
      <trkpt lat="47.45581" lon="3.74191">
        <ele>293</ele>
        <time>2019-04-05T06:22:29Z</time>
      </trkpt>
      <trkpt lat="47.45584" lon="3.74196">
        <ele>294</ele>
        <time>2019-04-05T06:22:33Z</time>
      </trkpt>
      <trkpt lat="47.45587" lon="3.74202">
        <ele>292</ele>
        <time>2019-04-05T06:22:37Z</time>
      </trkpt>
      <trkpt lat="47.45592" lon="3.74208">
        <ele>292</ele>
        <time>2019-04-05T06:22:43Z</time>
      </trkpt>
      <trkpt lat="47.45594" lon="3.74215">
        <ele>290</ele>
        <time>2019-04-05T06:22:50Z</time>
      </trkpt>
      <trkpt lat="47.45596" lon="3.74219">
        <ele>289</ele>
        <time>2019-04-05T06:22:54Z</time>
      </trkpt>
      <trkpt lat="47.45598" lon="3.74227">
        <ele>287</ele>
        <time>2019-04-05T06:22:59Z</time>
      </trkpt>
      <trkpt lat="47.45599" lon="3.74231">
        <ele>287</ele>
        <time>2019-04-05T06:23:02Z</time>
      </trkpt>
      <trkpt lat="47.456" lon="3.7424">
        <ele>287</ele>
        <time>2019-04-05T06:23:08Z</time>
      </trkpt>
      <trkpt lat="47.456" lon="3.74243">
        <ele>287</ele>
        <time>2019-04-05T06:23:10Z</time>
      </trkpt>
      <trkpt lat="47.45601" lon="3.7425">
        <ele>287</ele>
        <time>2019-04-05T06:23:14Z</time>
      </trkpt>
      <trkpt lat="47.45602" lon="3.74258">
        <ele>286</ele>
        <time>2019-04-05T06:23:19Z</time>
      </trkpt>
      <trkpt lat="47.45604" lon="3.74264">
        <ele>285</ele>
        <time>2019-04-05T06:23:23Z</time>
      </trkpt>
      <trkpt lat="47.45606" lon="3.7427">
        <ele>284</ele>
        <time>2019-04-05T06:23:27Z</time>
      </trkpt>
      <trkpt lat="47.45606" lon="3.74274">
        <ele>285</ele>
        <time>2019-04-05T06:23:29Z</time>
      </trkpt>
      <trkpt lat="47.45607" lon="3.74278">
        <ele>285</ele>
        <time>2019-04-05T06:23:32Z</time>
      </trkpt>
      <trkpt lat="47.45607" lon="3.74282">
        <ele>284</ele>
        <time>2019-04-05T06:23:36Z</time>
      </trkpt>
      <trkpt lat="47.45609" lon="3.74288">
        <ele>281</ele>
        <time>2019-04-05T06:23:42Z</time>
      </trkpt>
      <trkpt lat="47.4561" lon="3.74297">
        <ele>281</ele>
        <time>2019-04-05T06:23:48Z</time>
      </trkpt>
      <trkpt lat="47.45613" lon="3.74304">
        <ele>281</ele>
        <time>2019-04-05T06:23:54Z</time>
      </trkpt>
      <trkpt lat="47.45617" lon="3.7431">
        <ele>279</ele>
        <time>2019-04-05T06:23:58Z</time>
      </trkpt>
      <trkpt lat="47.45621" lon="3.74317">
        <ele>278</ele>
        <time>2019-04-05T06:24:02Z</time>
      </trkpt>
      <trkpt lat="47.45622" lon="3.7432">
        <ele>277</ele>
        <time>2019-04-05T06:24:05Z</time>
      </trkpt>
      <trkpt lat="47.45625" lon="3.74326">
        <ele>276</ele>
        <time>2019-04-05T06:24:10Z</time>
      </trkpt>
      <trkpt lat="47.45628" lon="3.74332">
        <ele>277</ele>
        <time>2019-04-05T06:24:15Z</time>
      </trkpt>
      <trkpt lat="47.4563" lon="3.74336">
        <ele>276</ele>
        <time>2019-04-05T06:24:17Z</time>
      </trkpt>
      <trkpt lat="47.45631" lon="3.74339">
        <ele>277</ele>
        <time>2019-04-05T06:24:20Z</time>
      </trkpt>
      <trkpt lat="47.45634" lon="3.74344">
        <ele>277</ele>
        <time>2019-04-05T06:24:23Z</time>
      </trkpt>
      <trkpt lat="47.45636" lon="3.7435">
        <ele>277</ele>
        <time>2019-04-05T06:24:27Z</time>
      </trkpt>
      <trkpt lat="47.45638" lon="3.74354">
        <ele>277</ele>
        <time>2019-04-05T06:24:30Z</time>
      </trkpt>
      <trkpt lat="47.45641" lon="3.74359">
        <ele>275</ele>
        <time>2019-04-05T06:24:34Z</time>
      </trkpt>
      <trkpt lat="47.45644" lon="3.74365">
        <ele>274</ele>
        <time>2019-04-05T06:24:38Z</time>
      </trkpt>
      <trkpt lat="47.45647" lon="3.7437">
        <ele>273</ele>
        <time>2019-04-05T06:24:42Z</time>
      </trkpt>
      <trkpt lat="47.4565" lon="3.74376">
        <ele>272</ele>
        <time>2019-04-05T06:24:46Z</time>
      </trkpt>
      <trkpt lat="47.45653" lon="3.74382">
        <ele>274</ele>
        <time>2019-04-05T06:24:50Z</time>
      </trkpt>
      <trkpt lat="47.45655" lon="3.74385">
        <ele>273</ele>
        <time>2019-04-05T06:24:52Z</time>
      </trkpt>
      <trkpt lat="47.45657" lon="3.74388">
        <ele>273</ele>
        <time>2019-04-05T06:24:55Z</time>
      </trkpt>
      <trkpt lat="47.4566" lon="3.74393">
        <ele>274</ele>
        <time>2019-04-05T06:25:00Z</time>
      </trkpt>
      <trkpt lat="47.45663" lon="3.744">
        <ele>273</ele>
        <time>2019-04-05T06:25:05Z</time>
      </trkpt>
      <trkpt lat="47.45668" lon="3.74406">
        <ele>272</ele>
        <time>2019-04-05T06:25:10Z</time>
      </trkpt>
      <trkpt lat="47.45669" lon="3.74408">
        <ele>272</ele>
        <time>2019-04-05T06:25:12Z</time>
      </trkpt>
      <trkpt lat="47.45672" lon="3.74411">
        <ele>271</ele>
        <time>2019-04-05T06:25:14Z</time>
      </trkpt>
      <trkpt lat="47.45675" lon="3.74417">
        <ele>271</ele>
        <time>2019-04-05T06:25:18Z</time>
      </trkpt>
      <trkpt lat="47.45676" lon="3.7442">
        <ele>270</ele>
        <time>2019-04-05T06:25:20Z</time>
      </trkpt>
      <trkpt lat="47.45679" lon="3.74424">
        <ele>269</ele>
        <time>2019-04-05T06:25:23Z</time>
      </trkpt>
      <trkpt lat="47.4568" lon="3.74427">
        <ele>269</ele>
        <time>2019-04-05T06:25:25Z</time>
      </trkpt>
      <trkpt lat="47.45684" lon="3.74433">
        <ele>269</ele>
        <time>2019-04-05T06:25:29Z</time>
      </trkpt>
      <trkpt lat="47.45687" lon="3.74438">
        <ele>269</ele>
        <time>2019-04-05T06:25:33Z</time>
      </trkpt>
      <trkpt lat="47.45691" lon="3.74442">
        <ele>267</ele>
        <time>2019-04-05T06:25:37Z</time>
      </trkpt>
      <trkpt lat="47.45694" lon="3.74449">
        <ele>267</ele>
        <time>2019-04-05T06:25:42Z</time>
      </trkpt>
      <trkpt lat="47.45695" lon="3.74456">
        <ele>267</ele>
        <time>2019-04-05T06:25:46Z</time>
      </trkpt>
      <trkpt lat="47.45698" lon="3.74462">
        <ele>267</ele>
        <time>2019-04-05T06:25:50Z</time>
      </trkpt>
      <trkpt lat="47.457" lon="3.74469">
        <ele>268</ele>
        <time>2019-04-05T06:25:54Z</time>
      </trkpt>
      <trkpt lat="47.45701" lon="3.74473">
        <ele>267</ele>
        <time>2019-04-05T06:25:57Z</time>
      </trkpt>
      <trkpt lat="47.45704" lon="3.7448">
        <ele>265</ele>
        <time>2019-04-05T06:26:02Z</time>
      </trkpt>
      <trkpt lat="47.45705" lon="3.74484">
        <ele>264</ele>
        <time>2019-04-05T06:26:04Z</time>
      </trkpt>
      <trkpt lat="47.45707" lon="3.7449">
        <ele>263</ele>
        <time>2019-04-05T06:26:08Z</time>
      </trkpt>
      <trkpt lat="47.45709" lon="3.74496">
        <ele>263</ele>
        <time>2019-04-05T06:26:11Z</time>
      </trkpt>
      <trkpt lat="47.45711" lon="3.74504">
        <ele>263</ele>
        <time>2019-04-05T06:26:15Z</time>
      </trkpt>
      <trkpt lat="47.45712" lon="3.74507">
        <ele>262</ele>
        <time>2019-04-05T06:26:17Z</time>
      </trkpt>
      <trkpt lat="47.45713" lon="3.74515">
        <ele>262</ele>
        <time>2019-04-05T06:26:22Z</time>
      </trkpt>
      <trkpt lat="47.45715" lon="3.74523">
        <ele>262</ele>
        <time>2019-04-05T06:26:26Z</time>
      </trkpt>
      <trkpt lat="47.45717" lon="3.7453">
        <ele>261</ele>
        <time>2019-04-05T06:26:30Z</time>
      </trkpt>
      <trkpt lat="47.45718" lon="3.74539">
        <ele>261</ele>
        <time>2019-04-05T06:26:35Z</time>
      </trkpt>
      <trkpt lat="47.45719" lon="3.74547">
        <ele>260</ele>
        <time>2019-04-05T06:26:40Z</time>
      </trkpt>
      <trkpt lat="47.45721" lon="3.74554">
        <ele>259</ele>
        <time>2019-04-05T06:26:44Z</time>
      </trkpt>
      <trkpt lat="47.45721" lon="3.74562">
        <ele>258</ele>
        <time>2019-04-05T06:26:49Z</time>
      </trkpt>
      <trkpt lat="47.45721" lon="3.74567">
        <ele>258</ele>
        <time>2019-04-05T06:26:52Z</time>
      </trkpt>
      <trkpt lat="47.4572" lon="3.74575">
        <ele>258</ele>
        <time>2019-04-05T06:26:57Z</time>
      </trkpt>
      <trkpt lat="47.45719" lon="3.7458">
        <ele>259</ele>
        <time>2019-04-05T06:27:00Z</time>
      </trkpt>
      <trkpt lat="47.45718" lon="3.74584">
        <ele>260</ele>
        <time>2019-04-05T06:27:02Z</time>
      </trkpt>
      <trkpt lat="47.45718" lon="3.7459">
        <ele>261</ele>
        <time>2019-04-05T06:27:06Z</time>
      </trkpt>
      <trkpt lat="47.45717" lon="3.74597">
        <ele>261</ele>
        <time>2019-04-05T06:27:10Z</time>
      </trkpt>
      <trkpt lat="47.45716" lon="3.74601">
        <ele>260</ele>
        <time>2019-04-05T06:27:13Z</time>
      </trkpt>
      <trkpt lat="47.45714" lon="3.74607">
        <ele>260</ele>
        <time>2019-04-05T06:27:16Z</time>
      </trkpt>
      <trkpt lat="47.45713" lon="3.74615">
        <ele>259</ele>
        <time>2019-04-05T06:27:22Z</time>
      </trkpt>
      <trkpt lat="47.45711" lon="3.74623">
        <ele>261</ele>
        <time>2019-04-05T06:27:27Z</time>
      </trkpt>
      <trkpt lat="47.4571" lon="3.74626">
        <ele>262</ele>
        <time>2019-04-05T06:27:29Z</time>
      </trkpt>
      <trkpt lat="47.45707" lon="3.74633">
        <ele>262</ele>
        <time>2019-04-05T06:27:33Z</time>
      </trkpt>
      <trkpt lat="47.45706" lon="3.74637">
        <ele>262</ele>
        <time>2019-04-05T06:27:35Z</time>
      </trkpt>
      <trkpt lat="47.45705" lon="3.74641">
        <ele>262</ele>
        <time>2019-04-05T06:27:38Z</time>
      </trkpt>
      <trkpt lat="47.45705" lon="3.74649">
        <ele>263</ele>
        <time>2019-04-05T06:27:42Z</time>
      </trkpt>
      <trkpt lat="47.45704" lon="3.74653">
        <ele>262</ele>
        <time>2019-04-05T06:27:44Z</time>
      </trkpt>
      <trkpt lat="47.45704" lon="3.74661">
        <ele>261</ele>
        <time>2019-04-05T06:27:48Z</time>
      </trkpt>
      <trkpt lat="47.45704" lon="3.74668">
        <ele>261</ele>
        <time>2019-04-05T06:27:52Z</time>
      </trkpt>
      <trkpt lat="47.45703" lon="3.74676">
        <ele>261</ele>
        <time>2019-04-05T06:27:57Z</time>
      </trkpt>
      <trkpt lat="47.45703" lon="3.74683">
        <ele>261</ele>
        <time>2019-04-05T06:28:01Z</time>
      </trkpt>
      <trkpt lat="47.45703" lon="3.74687">
        <ele>260</ele>
        <time>2019-04-05T06:28:03Z</time>
      </trkpt>
      <trkpt lat="47.45705" lon="3.74694">
        <ele>258</ele>
        <time>2019-04-05T06:28:07Z</time>
      </trkpt>
      <trkpt lat="47.45705" lon="3.74701">
        <ele>259</ele>
        <time>2019-04-05T06:28:10Z</time>
      </trkpt>
      <trkpt lat="47.45707" lon="3.74708">
        <ele>259</ele>
        <time>2019-04-05T06:28:14Z</time>
      </trkpt>
      <trkpt lat="47.45707" lon="3.74713">
        <ele>257</ele>
        <time>2019-04-05T06:28:18Z</time>
      </trkpt>
      <trkpt lat="47.45708" lon="3.74721">
        <ele>257</ele>
        <time>2019-04-05T06:28:22Z</time>
      </trkpt>
      <trkpt lat="47.45708" lon="3.74728">
        <ele>257</ele>
        <time>2019-04-05T06:28:26Z</time>
      </trkpt>
      <trkpt lat="47.45708" lon="3.74734">
        <ele>257</ele>
        <time>2019-04-05T06:28:29Z</time>
      </trkpt>
      <trkpt lat="47.45708" lon="3.74743">
        <ele>257</ele>
        <time>2019-04-05T06:28:34Z</time>
      </trkpt>
      <trkpt lat="47.45707" lon="3.7475">
        <ele>257</ele>
        <time>2019-04-05T06:28:38Z</time>
      </trkpt>
      <trkpt lat="47.45708" lon="3.74758">
        <ele>258</ele>
        <time>2019-04-05T06:28:42Z</time>
      </trkpt>
      <trkpt lat="47.45707" lon="3.74766">
        <ele>257</ele>
        <time>2019-04-05T06:28:46Z</time>
      </trkpt>
      <trkpt lat="47.45707" lon="3.74771">
        <ele>257</ele>
        <time>2019-04-05T06:28:49Z</time>
      </trkpt>
      <trkpt lat="47.45708" lon="3.74775">
        <ele>258</ele>
        <time>2019-04-05T06:28:51Z</time>
      </trkpt>
      <trkpt lat="47.45707" lon="3.74785">
        <ele>258</ele>
        <time>2019-04-05T06:28:57Z</time>
      </trkpt>
      <trkpt lat="47.45707" lon="3.74791">
        <ele>258</ele>
        <time>2019-04-05T06:29:00Z</time>
      </trkpt>
      <trkpt lat="47.45705" lon="3.74799">
        <ele>258</ele>
        <time>2019-04-05T06:29:05Z</time>
      </trkpt>
      <trkpt lat="47.45705" lon="3.74807">
        <ele>257</ele>
        <time>2019-04-05T06:29:09Z</time>
      </trkpt>
      <trkpt lat="47.45705" lon="3.74812">
        <ele>257</ele>
        <time>2019-04-05T06:29:12Z</time>
      </trkpt>
      <trkpt lat="47.45705" lon="3.74818">
        <ele>258</ele>
        <time>2019-04-05T06:29:16Z</time>
      </trkpt>
      <trkpt lat="47.45704" lon="3.74826">
        <ele>257</ele>
        <time>2019-04-05T06:29:21Z</time>
      </trkpt>
      <trkpt lat="47.45704" lon="3.7483">
        <ele>257</ele>
        <time>2019-04-05T06:29:23Z</time>
      </trkpt>
      <trkpt lat="47.45704" lon="3.74837">
        <ele>257</ele>
        <time>2019-04-05T06:29:27Z</time>
      </trkpt>
      <trkpt lat="47.45703" lon="3.74845">
        <ele>259</ele>
        <time>2019-04-05T06:29:32Z</time>
      </trkpt>
      <trkpt lat="47.45703" lon="3.74852">
        <ele>258</ele>
        <time>2019-04-05T06:29:36Z</time>
      </trkpt>
      <trkpt lat="47.45704" lon="3.74859">
        <ele>257</ele>
        <time>2019-04-05T06:29:40Z</time>
      </trkpt>
      <trkpt lat="47.45706" lon="3.74867">
        <ele>257</ele>
        <time>2019-04-05T06:29:44Z</time>
      </trkpt>
      <trkpt lat="47.45707" lon="3.74874">
        <ele>257</ele>
        <time>2019-04-05T06:29:47Z</time>
      </trkpt>
      <trkpt lat="47.45708" lon="3.74878">
        <ele>256</ele>
        <time>2019-04-05T06:29:49Z</time>
      </trkpt>
      <trkpt lat="47.4571" lon="3.74885">
        <ele>255</ele>
        <time>2019-04-05T06:29:54Z</time>
      </trkpt>
      <trkpt lat="47.45712" lon="3.74896">
        <ele>254</ele>
        <time>2019-04-05T06:29:59Z</time>
      </trkpt>
      <trkpt lat="47.45714" lon="3.74902">
        <ele>255</ele>
        <time>2019-04-05T06:30:03Z</time>
      </trkpt>
      <trkpt lat="47.45715" lon="3.74906">
        <ele>255</ele>
        <time>2019-04-05T06:30:05Z</time>
      </trkpt>
      <trkpt lat="47.45717" lon="3.74913">
        <ele>255</ele>
        <time>2019-04-05T06:30:10Z</time>
      </trkpt>
      <trkpt lat="47.45718" lon="3.74919">
        <ele>254</ele>
        <time>2019-04-05T06:30:14Z</time>
      </trkpt>
      <trkpt lat="47.45719" lon="3.74923">
        <ele>255</ele>
        <time>2019-04-05T06:30:16Z</time>
      </trkpt>
      <trkpt lat="47.45721" lon="3.7493">
        <ele>255</ele>
        <time>2019-04-05T06:30:20Z</time>
      </trkpt>
      <trkpt lat="47.45723" lon="3.74935">
        <ele>255</ele>
        <time>2019-04-05T06:30:24Z</time>
      </trkpt>
      <trkpt lat="47.45724" lon="3.7494">
        <ele>255</ele>
        <time>2019-04-05T06:30:27Z</time>
      </trkpt>
      <trkpt lat="47.45727" lon="3.74947">
        <ele>254</ele>
        <time>2019-04-05T06:30:31Z</time>
      </trkpt>
      <trkpt lat="47.4573" lon="3.74953">
        <ele>255</ele>
        <time>2019-04-05T06:30:34Z</time>
      </trkpt>
      <trkpt lat="47.45735" lon="3.74961">
        <ele>254</ele>
        <time>2019-04-05T06:30:39Z</time>
      </trkpt>
      <trkpt lat="47.45737" lon="3.74967">
        <ele>254</ele>
        <time>2019-04-05T06:30:42Z</time>
      </trkpt>
      <trkpt lat="47.45739" lon="3.74969">
        <ele>254</ele>
        <time>2019-04-05T06:30:44Z</time>
      </trkpt>
      <trkpt lat="47.45741" lon="3.74974">
        <ele>254</ele>
        <time>2019-04-05T06:30:47Z</time>
      </trkpt>
      <trkpt lat="47.45743" lon="3.74976">
        <ele>254</ele>
        <time>2019-04-05T06:30:49Z</time>
      </trkpt>
      <trkpt lat="47.45745" lon="3.7498">
        <ele>254</ele>
        <time>2019-04-05T06:30:52Z</time>
      </trkpt>
      <trkpt lat="47.45749" lon="3.74984">
        <ele>254</ele>
        <time>2019-04-05T06:30:57Z</time>
      </trkpt>
      <trkpt lat="47.45752" lon="3.74987">
        <ele>253</ele>
        <time>2019-04-05T06:30:59Z</time>
      </trkpt>
      <trkpt lat="47.45754" lon="3.7499">
        <ele>252</ele>
        <time>2019-04-05T06:31:02Z</time>
      </trkpt>
      <trkpt lat="47.45758" lon="3.74997">
        <ele>250</ele>
        <time>2019-04-05T06:31:07Z</time>
      </trkpt>
      <trkpt lat="47.4576" lon="3.75">
        <ele>251</ele>
        <time>2019-04-05T06:31:09Z</time>
      </trkpt>
      <trkpt lat="47.45764" lon="3.75007">
        <ele>251</ele>
        <time>2019-04-05T06:31:15Z</time>
      </trkpt>
      <trkpt lat="47.45767" lon="3.75012">
        <ele>251</ele>
        <time>2019-04-05T06:31:19Z</time>
      </trkpt>
      <trkpt lat="47.45771" lon="3.75019">
        <ele>251</ele>
        <time>2019-04-05T06:31:23Z</time>
      </trkpt>
      <trkpt lat="47.45773" lon="3.75026">
        <ele>251</ele>
        <time>2019-04-05T06:31:28Z</time>
      </trkpt>
      <trkpt lat="47.45775" lon="3.75031">
        <ele>250</ele>
        <time>2019-04-05T06:31:30Z</time>
      </trkpt>
      <trkpt lat="47.45777" lon="3.75035">
        <ele>250</ele>
        <time>2019-04-05T06:31:32Z</time>
      </trkpt>
      <trkpt lat="47.4578" lon="3.75042">
        <ele>250</ele>
        <time>2019-04-05T06:31:36Z</time>
      </trkpt>
      <trkpt lat="47.45781" lon="3.75049">
        <ele>249</ele>
        <time>2019-04-05T06:31:40Z</time>
      </trkpt>
      <trkpt lat="47.45783" lon="3.75056">
        <ele>249</ele>
        <time>2019-04-05T06:31:43Z</time>
      </trkpt>
      <trkpt lat="47.45784" lon="3.7506">
        <ele>250</ele>
        <time>2019-04-05T06:31:45Z</time>
      </trkpt>
      <trkpt lat="47.45786" lon="3.75066">
        <ele>250</ele>
        <time>2019-04-05T06:31:49Z</time>
      </trkpt>
      <trkpt lat="47.45787" lon="3.75069">
        <ele>249</ele>
        <time>2019-04-05T06:31:51Z</time>
      </trkpt>
      <trkpt lat="47.45788" lon="3.75072">
        <ele>250</ele>
        <time>2019-04-05T06:31:53Z</time>
      </trkpt>
      <trkpt lat="47.45792" lon="3.75077">
        <ele>250</ele>
        <time>2019-04-05T06:31:57Z</time>
      </trkpt>
      <trkpt lat="47.45795" lon="3.75083">
        <ele>250</ele>
        <time>2019-04-05T06:32:01Z</time>
      </trkpt>
      <trkpt lat="47.45798" lon="3.75089">
        <ele>250</ele>
        <time>2019-04-05T06:32:05Z</time>
      </trkpt>
      <trkpt lat="47.45802" lon="3.75093">
        <ele>251</ele>
        <time>2019-04-05T06:32:10Z</time>
      </trkpt>
      <trkpt lat="47.45805" lon="3.75099">
        <ele>250</ele>
        <time>2019-04-05T06:32:14Z</time>
      </trkpt>
      <trkpt lat="47.45807" lon="3.75101">
        <ele>251</ele>
        <time>2019-04-05T06:32:16Z</time>
      </trkpt>
      <trkpt lat="47.45809" lon="3.75108">
        <ele>252</ele>
        <time>2019-04-05T06:32:22Z</time>
      </trkpt>
      <trkpt lat="47.45811" lon="3.75113">
        <ele>252</ele>
        <time>2019-04-05T06:32:25Z</time>
      </trkpt>
      <trkpt lat="47.45813" lon="3.75118">
        <ele>252</ele>
        <time>2019-04-05T06:32:28Z</time>
      </trkpt>
      <trkpt lat="47.45816" lon="3.75123">
        <ele>253</ele>
        <time>2019-04-05T06:32:32Z</time>
      </trkpt>
      <trkpt lat="47.45819" lon="3.75129">
        <ele>252</ele>
        <time>2019-04-05T06:32:37Z</time>
      </trkpt>
      <trkpt lat="47.4582" lon="3.75137">
        <ele>253</ele>
        <time>2019-04-05T06:32:42Z</time>
      </trkpt>
      <trkpt lat="47.45824" lon="3.75142">
        <ele>253</ele>
        <time>2019-04-05T06:32:46Z</time>
      </trkpt>
      <trkpt lat="47.45826" lon="3.7515">
        <ele>252</ele>
        <time>2019-04-05T06:32:50Z</time>
      </trkpt>
      <trkpt lat="47.45829" lon="3.75156">
        <ele>253</ele>
        <time>2019-04-05T06:32:54Z</time>
      </trkpt>
      <trkpt lat="47.45832" lon="3.75161">
        <ele>253</ele>
        <time>2019-04-05T06:32:58Z</time>
      </trkpt>
      <trkpt lat="47.45834" lon="3.75168">
        <ele>252</ele>
        <time>2019-04-05T06:33:03Z</time>
      </trkpt>
      <trkpt lat="47.45836" lon="3.75175">
        <ele>252</ele>
        <time>2019-04-05T06:33:07Z</time>
      </trkpt>
      <trkpt lat="47.45838" lon="3.75181">
        <ele>252</ele>
        <time>2019-04-05T06:33:11Z</time>
      </trkpt>
      <trkpt lat="47.4584" lon="3.75186">
        <ele>252</ele>
        <time>2019-04-05T06:33:14Z</time>
      </trkpt>
      <trkpt lat="47.45842" lon="3.7519">
        <ele>252</ele>
        <time>2019-04-05T06:33:17Z</time>
      </trkpt>
      <trkpt lat="47.45844" lon="3.75196">
        <ele>252</ele>
        <time>2019-04-05T06:33:20Z</time>
      </trkpt>
      <trkpt lat="47.45846" lon="3.752">
        <ele>252</ele>
        <time>2019-04-05T06:33:22Z</time>
      </trkpt>
      <trkpt lat="47.45849" lon="3.75206">
        <ele>251</ele>
        <time>2019-04-05T06:33:26Z</time>
      </trkpt>
      <trkpt lat="47.4585" lon="3.75209">
        <ele>251</ele>
        <time>2019-04-05T06:33:28Z</time>
      </trkpt>
      <trkpt lat="47.45853" lon="3.75216">
        <ele>251</ele>
        <time>2019-04-05T06:33:32Z</time>
      </trkpt>
      <trkpt lat="47.45854" lon="3.7522">
        <ele>251</ele>
        <time>2019-04-05T06:33:35Z</time>
      </trkpt>
      <trkpt lat="47.45855" lon="3.75223">
        <ele>250</ele>
        <time>2019-04-05T06:33:37Z</time>
      </trkpt>
      <trkpt lat="47.45858" lon="3.75229">
        <ele>250</ele>
        <time>2019-04-05T06:33:41Z</time>
      </trkpt>
      <trkpt lat="47.4586" lon="3.75236">
        <ele>250</ele>
        <time>2019-04-05T06:33:45Z</time>
      </trkpt>
      <trkpt lat="47.45863" lon="3.75243">
        <ele>249</ele>
        <time>2019-04-05T06:33:49Z</time>
      </trkpt>
      <trkpt lat="47.45867" lon="3.75249">
        <ele>247</ele>
        <time>2019-04-05T06:33:53Z</time>
      </trkpt>
      <trkpt lat="47.45869" lon="3.75252">
        <ele>247</ele>
        <time>2019-04-05T06:33:55Z</time>
      </trkpt>
      <trkpt lat="47.4587" lon="3.75254">
        <ele>247</ele>
        <time>2019-04-05T06:33:57Z</time>
      </trkpt>
      <trkpt lat="47.45873" lon="3.75257">
        <ele>247</ele>
        <time>2019-04-05T06:34:01Z</time>
      </trkpt>
      <trkpt lat="47.45877" lon="3.75261">
        <ele>246</ele>
        <time>2019-04-05T06:34:08Z</time>
      </trkpt>
      <trkpt lat="47.45881" lon="3.75267">
        <ele>248</ele>
        <time>2019-04-05T06:34:13Z</time>
      </trkpt>
      <trkpt lat="47.45883" lon="3.75271">
        <ele>248</ele>
        <time>2019-04-05T06:34:16Z</time>
      </trkpt>
      <trkpt lat="47.45886" lon="3.75275">
        <ele>248</ele>
        <time>2019-04-05T06:34:19Z</time>
      </trkpt>
      <trkpt lat="47.4589" lon="3.75283">
        <ele>247</ele>
        <time>2019-04-05T06:34:24Z</time>
      </trkpt>
      <trkpt lat="47.45895" lon="3.7529">
        <ele>248</ele>
        <time>2019-04-05T06:34:29Z</time>
      </trkpt>
      <trkpt lat="47.45897" lon="3.75293">
        <ele>248</ele>
        <time>2019-04-05T06:34:31Z</time>
      </trkpt>
      <trkpt lat="47.45902" lon="3.753">
        <ele>248</ele>
        <time>2019-04-05T06:34:37Z</time>
      </trkpt>
      <trkpt lat="47.45904" lon="3.75303">
        <ele>247</ele>
        <time>2019-04-05T06:34:39Z</time>
      </trkpt>
      <trkpt lat="47.45906" lon="3.75305">
        <ele>247</ele>
        <time>2019-04-05T06:34:41Z</time>
      </trkpt>
      <trkpt lat="47.4591" lon="3.75312">
        <ele>247</ele>
        <time>2019-04-05T06:34:45Z</time>
      </trkpt>
      <trkpt lat="47.45912" lon="3.75316">
        <ele>246</ele>
        <time>2019-04-05T06:34:48Z</time>
      </trkpt>
      <trkpt lat="47.45916" lon="3.75322">
        <ele>247</ele>
        <time>2019-04-05T06:34:52Z</time>
      </trkpt>
      <trkpt lat="47.45919" lon="3.75325">
        <ele>247</ele>
        <time>2019-04-05T06:34:54Z</time>
      </trkpt>
      <trkpt lat="47.45924" lon="3.75331">
        <ele>248</ele>
        <time>2019-04-05T06:35:00Z</time>
      </trkpt>
      <trkpt lat="47.45926" lon="3.75333">
        <ele>248</ele>
        <time>2019-04-05T06:35:02Z</time>
      </trkpt>
      <trkpt lat="47.45929" lon="3.75335">
        <ele>248</ele>
        <time>2019-04-05T06:35:05Z</time>
      </trkpt>
      <trkpt lat="47.45931" lon="3.75338">
        <ele>247</ele>
        <time>2019-04-05T06:35:07Z</time>
      </trkpt>
      <trkpt lat="47.45934" lon="3.75341">
        <ele>247</ele>
        <time>2019-04-05T06:35:09Z</time>
      </trkpt>
      <trkpt lat="47.45937" lon="3.75344">
        <ele>249</ele>
        <time>2019-04-05T06:35:14Z</time>
      </trkpt>
      <trkpt lat="47.45939" lon="3.75346">
        <ele>249</ele>
        <time>2019-04-05T06:35:18Z</time>
      </trkpt>
      <trkpt lat="47.45945" lon="3.75346">
        <ele>249</ele>
        <time>2019-04-05T06:36:16Z</time>
      </trkpt>
      <trkpt lat="47.4595" lon="3.75344">
        <ele>249</ele>
        <time>2019-04-05T06:36:23Z</time>
      </trkpt>
      <trkpt lat="47.45956" lon="3.75345">
        <ele>249</ele>
        <time>2019-04-05T06:36:30Z</time>
      </trkpt>
      <trkpt lat="47.45959" lon="3.75346">
        <ele>249</ele>
        <time>2019-04-05T06:36:33Z</time>
      </trkpt>
      <trkpt lat="47.45966" lon="3.75345">
        <ele>250</ele>
        <time>2019-04-05T06:36:39Z</time>
      </trkpt>
      <trkpt lat="47.45968" lon="3.75344">
        <ele>250</ele>
        <time>2019-04-05T06:36:41Z</time>
      </trkpt>
      <trkpt lat="47.45972" lon="3.75344">
        <ele>250</ele>
        <time>2019-04-05T06:36:45Z</time>
      </trkpt>
      <trkpt lat="47.45976" lon="3.75344">
        <ele>250</ele>
        <time>2019-04-05T06:36:48Z</time>
      </trkpt>
      <trkpt lat="47.45981" lon="3.75343">
        <ele>251</ele>
        <time>2019-04-05T06:36:52Z</time>
      </trkpt>
      <trkpt lat="47.45986" lon="3.75341">
        <ele>252</ele>
        <time>2019-04-05T06:36:57Z</time>
      </trkpt>
      <trkpt lat="47.4599" lon="3.75341">
        <ele>252</ele>
        <time>2019-04-05T06:37:01Z</time>
      </trkpt>
      <trkpt lat="47.45995" lon="3.75341">
        <ele>252</ele>
        <time>2019-04-05T06:37:06Z</time>
      </trkpt>
      <trkpt lat="47.45998" lon="3.7534">
        <ele>251</ele>
        <time>2019-04-05T06:37:10Z</time>
      </trkpt>
      <trkpt lat="47.46003" lon="3.75338">
        <ele>252</ele>
        <time>2019-04-05T06:37:15Z</time>
      </trkpt>
      <trkpt lat="47.46007" lon="3.75341">
        <ele>251</ele>
        <time>2019-04-05T06:37:24Z</time>
      </trkpt>
      <trkpt lat="47.46006" lon="3.75348">
        <ele>254</ele>
        <time>2019-04-05T06:38:10Z</time>
      </trkpt>
      <trkpt lat="47.46005" lon="3.75351">
        <ele>253</ele>
        <time>2019-04-05T06:38:12Z</time>
      </trkpt>
      <trkpt lat="47.46005" lon="3.75358">
        <ele>252</ele>
        <time>2019-04-05T06:38:16Z</time>
      </trkpt>
      <trkpt lat="47.46006" lon="3.75366">
        <ele>253</ele>
        <time>2019-04-05T06:38:21Z</time>
      </trkpt>
      <trkpt lat="47.46006" lon="3.7537">
        <ele>253</ele>
        <time>2019-04-05T06:38:23Z</time>
      </trkpt>
      <trkpt lat="47.46007" lon="3.75376">
        <ele>253</ele>
        <time>2019-04-05T06:38:26Z</time>
      </trkpt>
      <trkpt lat="47.46007" lon="3.75379">
        <ele>252</ele>
        <time>2019-04-05T06:38:28Z</time>
      </trkpt>
      <trkpt lat="47.46007" lon="3.75379">
        <ele>252</ele>
        <time>2019-04-05T06:38:33Z</time>
      </trkpt>
      <trkpt lat="47.46007" lon="3.75388">
        <ele>252</ele>
        <time>2019-04-05T06:38:34Z</time>
      </trkpt>
      <trkpt lat="47.46007" lon="3.75393">
        <ele>253</ele>
        <time>2019-04-05T06:38:36Z</time>
      </trkpt>
      <trkpt lat="47.46007" lon="3.75401">
        <ele>252</ele>
        <time>2019-04-05T06:38:41Z</time>
      </trkpt>
      <trkpt lat="47.46006" lon="3.75406">
        <ele>252</ele>
        <time>2019-04-05T06:38:44Z</time>
      </trkpt>
      <trkpt lat="47.46006" lon="3.7541">
        <ele>253</ele>
        <time>2019-04-05T06:38:47Z</time>
      </trkpt>
      <trkpt lat="47.46007" lon="3.75418">
        <ele>252</ele>
        <time>2019-04-05T06:38:52Z</time>
      </trkpt>
      <trkpt lat="47.46007" lon="3.75423">
        <ele>251</ele>
        <time>2019-04-05T06:38:54Z</time>
      </trkpt>
      <trkpt lat="47.46007" lon="3.75427">
        <ele>252</ele>
        <time>2019-04-05T06:38:57Z</time>
      </trkpt>
      <trkpt lat="47.46006" lon="3.75434">
        <ele>252</ele>
        <time>2019-04-05T06:39:01Z</time>
      </trkpt>
      <trkpt lat="47.46005" lon="3.75437">
        <ele>252</ele>
        <time>2019-04-05T06:39:03Z</time>
      </trkpt>
      <trkpt lat="47.46004" lon="3.75444">
        <ele>252</ele>
        <time>2019-04-05T06:39:07Z</time>
      </trkpt>
      <trkpt lat="47.46004" lon="3.75451">
        <ele>254</ele>
        <time>2019-04-05T06:39:12Z</time>
      </trkpt>
      <trkpt lat="47.46003" lon="3.75455">
        <ele>253</ele>
        <time>2019-04-05T06:39:14Z</time>
      </trkpt>
      <trkpt lat="47.46002" lon="3.75462">
        <ele>253</ele>
        <time>2019-04-05T06:39:18Z</time>
      </trkpt>
      <trkpt lat="47.45999" lon="3.7547">
        <ele>253</ele>
        <time>2019-04-05T06:39:23Z</time>
      </trkpt>
      <trkpt lat="47.45997" lon="3.75475">
        <ele>253</ele>
        <time>2019-04-05T06:39:26Z</time>
      </trkpt>
      <trkpt lat="47.45996" lon="3.75479">
        <ele>252</ele>
        <time>2019-04-05T06:39:28Z</time>
      </trkpt>
      <trkpt lat="47.45993" lon="3.75486">
        <ele>252</ele>
        <time>2019-04-05T06:39:32Z</time>
      </trkpt>
      <trkpt lat="47.4599" lon="3.75491">
        <ele>253</ele>
        <time>2019-04-05T06:39:36Z</time>
      </trkpt>
      <trkpt lat="47.45988" lon="3.75495">
        <ele>252</ele>
        <time>2019-04-05T06:39:39Z</time>
      </trkpt>
      <trkpt lat="47.45985" lon="3.75502">
        <ele>252</ele>
        <time>2019-04-05T06:39:44Z</time>
      </trkpt>
      <trkpt lat="47.45981" lon="3.75507">
        <ele>252</ele>
        <time>2019-04-05T06:39:48Z</time>
      </trkpt>
      <trkpt lat="47.4598" lon="3.7551">
        <ele>253</ele>
        <time>2019-04-05T06:39:50Z</time>
      </trkpt>
      <trkpt lat="47.45978" lon="3.75513">
        <ele>253</ele>
        <time>2019-04-05T06:39:52Z</time>
      </trkpt>
      <trkpt lat="47.45974" lon="3.75519">
        <ele>253</ele>
        <time>2019-04-05T06:39:56Z</time>
      </trkpt>
      <trkpt lat="47.45972" lon="3.75522">
        <ele>253</ele>
        <time>2019-04-05T06:39:59Z</time>
      </trkpt>
      <trkpt lat="47.45969" lon="3.75527">
        <ele>254</ele>
        <time>2019-04-05T06:40:02Z</time>
      </trkpt>
      <trkpt lat="47.45966" lon="3.75531">
        <ele>253</ele>
        <time>2019-04-05T06:40:05Z</time>
      </trkpt>
      <trkpt lat="47.45962" lon="3.75536">
        <ele>253</ele>
        <time>2019-04-05T06:40:09Z</time>
      </trkpt>
      <trkpt lat="47.45958" lon="3.75542">
        <ele>253</ele>
        <time>2019-04-05T06:40:13Z</time>
      </trkpt>
      <trkpt lat="47.45955" lon="3.75547">
        <ele>253</ele>
        <time>2019-04-05T06:40:16Z</time>
      </trkpt>
      <trkpt lat="47.45952" lon="3.75551">
        <ele>252</ele>
        <time>2019-04-05T06:40:19Z</time>
      </trkpt>
      <trkpt lat="47.4595" lon="3.75558">
        <ele>252</ele>
        <time>2019-04-05T06:40:23Z</time>
      </trkpt>
      <trkpt lat="47.45948" lon="3.75564">
        <ele>251</ele>
        <time>2019-04-05T06:40:27Z</time>
      </trkpt>
      <trkpt lat="47.45945" lon="3.75569">
        <ele>251</ele>
        <time>2019-04-05T06:40:31Z</time>
      </trkpt>
      <trkpt lat="47.45942" lon="3.75575">
        <ele>251</ele>
        <time>2019-04-05T06:40:34Z</time>
      </trkpt>
      <trkpt lat="47.4594" lon="3.75581">
        <ele>251</ele>
        <time>2019-04-05T06:40:38Z</time>
      </trkpt>
      <trkpt lat="47.45938" lon="3.75584">
        <ele>250</ele>
        <time>2019-04-05T06:40:40Z</time>
      </trkpt>
      <trkpt lat="47.45936" lon="3.75591">
        <ele>251</ele>
        <time>2019-04-05T06:40:44Z</time>
      </trkpt>
      <trkpt lat="47.45932" lon="3.75597">
        <ele>251</ele>
        <time>2019-04-05T06:40:48Z</time>
      </trkpt>
      <trkpt lat="47.45929" lon="3.75604">
        <ele>252</ele>
        <time>2019-04-05T06:40:52Z</time>
      </trkpt>
      <trkpt lat="47.45928" lon="3.75608">
        <ele>251</ele>
        <time>2019-04-05T06:40:54Z</time>
      </trkpt>
      <trkpt lat="47.45926" lon="3.75612">
        <ele>252</ele>
        <time>2019-04-05T06:40:57Z</time>
      </trkpt>
      <trkpt lat="47.45924" lon="3.75617">
        <ele>251</ele>
        <time>2019-04-05T06:41:01Z</time>
      </trkpt>
      <trkpt lat="47.45921" lon="3.75622">
        <ele>251</ele>
        <time>2019-04-05T06:41:04Z</time>
      </trkpt>
      <trkpt lat="47.45919" lon="3.75629">
        <ele>250</ele>
        <time>2019-04-05T06:41:08Z</time>
      </trkpt>
      <trkpt lat="47.45916" lon="3.75634">
        <ele>249</ele>
        <time>2019-04-05T06:41:12Z</time>
      </trkpt>
      <trkpt lat="47.45912" lon="3.75641">
        <ele>249</ele>
        <time>2019-04-05T06:41:17Z</time>
      </trkpt>
      <trkpt lat="47.4591" lon="3.75648">
        <ele>249</ele>
        <time>2019-04-05T06:41:21Z</time>
      </trkpt>
      <trkpt lat="47.45907" lon="3.75654">
        <ele>249</ele>
        <time>2019-04-05T06:41:25Z</time>
      </trkpt>
      <trkpt lat="47.45905" lon="3.75656">
        <ele>249</ele>
        <time>2019-04-05T06:41:27Z</time>
      </trkpt>
      <trkpt lat="47.45903" lon="3.75659">
        <ele>249</ele>
        <time>2019-04-05T06:41:29Z</time>
      </trkpt>
      <trkpt lat="47.45901" lon="3.75666">
        <ele>249</ele>
        <time>2019-04-05T06:41:34Z</time>
      </trkpt>
      <trkpt lat="47.45898" lon="3.75672">
        <ele>249</ele>
        <time>2019-04-05T06:41:38Z</time>
      </trkpt>
      <trkpt lat="47.45896" lon="3.75675">
        <ele>250</ele>
        <time>2019-04-05T06:41:40Z</time>
      </trkpt>
      <trkpt lat="47.45893" lon="3.75682">
        <ele>249</ele>
        <time>2019-04-05T06:41:45Z</time>
      </trkpt>
      <trkpt lat="47.45892" lon="3.75686">
        <ele>249</ele>
        <time>2019-04-05T06:41:47Z</time>
      </trkpt>
      <trkpt lat="47.4589" lon="3.7569">
        <ele>250</ele>
        <time>2019-04-05T06:41:50Z</time>
      </trkpt>
      <trkpt lat="47.45888" lon="3.75697">
        <ele>249</ele>
        <time>2019-04-05T06:41:54Z</time>
      </trkpt>
      <trkpt lat="47.45885" lon="3.75704">
        <ele>249</ele>
        <time>2019-04-05T06:41:58Z</time>
      </trkpt>
      <trkpt lat="47.45882" lon="3.75711">
        <ele>250</ele>
        <time>2019-04-05T06:42:02Z</time>
      </trkpt>
      <trkpt lat="47.45881" lon="3.75714">
        <ele>249</ele>
        <time>2019-04-05T06:42:04Z</time>
      </trkpt>
      <trkpt lat="47.45879" lon="3.75721">
        <ele>248</ele>
        <time>2019-04-05T06:42:08Z</time>
      </trkpt>
      <trkpt lat="47.45876" lon="3.75728">
        <ele>248</ele>
        <time>2019-04-05T06:42:12Z</time>
      </trkpt>
      <trkpt lat="47.45874" lon="3.75735">
        <ele>248</ele>
        <time>2019-04-05T06:42:16Z</time>
      </trkpt>
      <trkpt lat="47.45873" lon="3.7574">
        <ele>248</ele>
        <time>2019-04-05T06:42:19Z</time>
      </trkpt>
      <trkpt lat="47.4587" lon="3.75746">
        <ele>248</ele>
        <time>2019-04-05T06:42:22Z</time>
      </trkpt>
      <trkpt lat="47.45868" lon="3.75753">
        <ele>247</ele>
        <time>2019-04-05T06:42:26Z</time>
      </trkpt>
      <trkpt lat="47.45867" lon="3.75756">
        <ele>247</ele>
        <time>2019-04-05T06:42:28Z</time>
      </trkpt>
      <trkpt lat="47.45865" lon="3.75759">
        <ele>247</ele>
        <time>2019-04-05T06:42:30Z</time>
      </trkpt>
      <trkpt lat="47.45864" lon="3.75762">
        <ele>247</ele>
        <time>2019-04-05T06:42:32Z</time>
      </trkpt>
      <trkpt lat="47.45861" lon="3.75769">
        <ele>246</ele>
        <time>2019-04-05T06:42:36Z</time>
      </trkpt>
      <trkpt lat="47.45859" lon="3.75773">
        <ele>246</ele>
        <time>2019-04-05T06:42:38Z</time>
      </trkpt>
      <trkpt lat="47.45857" lon="3.75778">
        <ele>246</ele>
        <time>2019-04-05T06:42:41Z</time>
      </trkpt>
      <trkpt lat="47.45853" lon="3.75785">
        <ele>246</ele>
        <time>2019-04-05T06:42:46Z</time>
      </trkpt>
      <trkpt lat="47.45851" lon="3.7579">
        <ele>245</ele>
        <time>2019-04-05T06:42:49Z</time>
      </trkpt>
      <trkpt lat="47.4585" lon="3.75794">
        <ele>245</ele>
        <time>2019-04-05T06:42:52Z</time>
      </trkpt>
      <trkpt lat="47.45848" lon="3.75797">
        <ele>245</ele>
        <time>2019-04-05T06:42:54Z</time>
      </trkpt>
      <trkpt lat="47.45845" lon="3.75804">
        <ele>245</ele>
        <time>2019-04-05T06:42:58Z</time>
      </trkpt>
      <trkpt lat="47.45844" lon="3.75809">
        <ele>244</ele>
        <time>2019-04-05T06:43:02Z</time>
      </trkpt>
      <trkpt lat="47.45842" lon="3.75817">
        <ele>244</ele>
        <time>2019-04-05T06:43:07Z</time>
      </trkpt>
      <trkpt lat="47.4584" lon="3.75822">
        <ele>241</ele>
        <time>2019-04-05T06:43:11Z</time>
      </trkpt>
      <trkpt lat="47.45838" lon="3.75829">
        <ele>240</ele>
        <time>2019-04-05T06:43:15Z</time>
      </trkpt>
      <trkpt lat="47.45835" lon="3.75835">
        <ele>240</ele>
        <time>2019-04-05T06:43:20Z</time>
      </trkpt>
      <trkpt lat="47.45834" lon="3.75838">
        <ele>240</ele>
        <time>2019-04-05T06:43:22Z</time>
      </trkpt>
      <trkpt lat="47.45832" lon="3.75841">
        <ele>240</ele>
        <time>2019-04-05T06:43:24Z</time>
      </trkpt>
      <trkpt lat="47.4583" lon="3.75847">
        <ele>239</ele>
        <time>2019-04-05T06:43:28Z</time>
      </trkpt>
      <trkpt lat="47.45828" lon="3.75854">
        <ele>239</ele>
        <time>2019-04-05T06:43:32Z</time>
      </trkpt>
      <trkpt lat="47.45826" lon="3.75859">
        <ele>239</ele>
        <time>2019-04-05T06:43:35Z</time>
      </trkpt>
      <trkpt lat="47.45824" lon="3.75866">
        <ele>238</ele>
        <time>2019-04-05T06:43:38Z</time>
      </trkpt>
      <trkpt lat="47.45822" lon="3.75872">
        <ele>237</ele>
        <time>2019-04-05T06:43:42Z</time>
      </trkpt>
      <trkpt lat="47.45821" lon="3.75876">
        <ele>237</ele>
        <time>2019-04-05T06:43:45Z</time>
      </trkpt>
      <trkpt lat="47.45818" lon="3.75882">
        <ele>236</ele>
        <time>2019-04-05T06:43:49Z</time>
      </trkpt>
      <trkpt lat="47.45816" lon="3.75887">
        <ele>235</ele>
        <time>2019-04-05T06:43:52Z</time>
      </trkpt>
      <trkpt lat="47.45815" lon="3.75892">
        <ele>235</ele>
        <time>2019-04-05T06:43:54Z</time>
      </trkpt>
      <trkpt lat="47.45812" lon="3.75898">
        <ele>235</ele>
        <time>2019-04-05T06:43:59Z</time>
      </trkpt>
      <trkpt lat="47.4581" lon="3.75903">
        <ele>235</ele>
        <time>2019-04-05T06:44:02Z</time>
      </trkpt>
      <trkpt lat="47.45806" lon="3.75909">
        <ele>234</ele>
        <time>2019-04-05T06:44:06Z</time>
      </trkpt>
      <trkpt lat="47.45804" lon="3.75913">
        <ele>233</ele>
        <time>2019-04-05T06:44:09Z</time>
      </trkpt>
      <trkpt lat="47.458" lon="3.7592">
        <ele>232</ele>
        <time>2019-04-05T06:44:14Z</time>
      </trkpt>
      <trkpt lat="47.45797" lon="3.75924">
        <ele>232</ele>
        <time>2019-04-05T06:44:17Z</time>
      </trkpt>
      <trkpt lat="47.45794" lon="3.75932">
        <ele>231</ele>
        <time>2019-04-05T06:44:22Z</time>
      </trkpt>
      <trkpt lat="47.45791" lon="3.75937">
        <ele>230</ele>
        <time>2019-04-05T06:44:26Z</time>
      </trkpt>
      <trkpt lat="47.45788" lon="3.75943">
        <ele>230</ele>
        <time>2019-04-05T06:44:30Z</time>
      </trkpt>
      <trkpt lat="47.45787" lon="3.75951">
        <ele>229</ele>
        <time>2019-04-05T06:44:34Z</time>
      </trkpt>
      <trkpt lat="47.45784" lon="3.7596">
        <ele>229</ele>
        <time>2019-04-05T06:44:39Z</time>
      </trkpt>
      <trkpt lat="47.45785" lon="3.7597">
        <ele>227</ele>
        <time>2019-04-05T06:44:45Z</time>
      </trkpt>
      <trkpt lat="47.45786" lon="3.75975">
        <ele>227</ele>
        <time>2019-04-05T06:44:48Z</time>
      </trkpt>
      <trkpt lat="47.45786" lon="3.75981">
        <ele>227</ele>
        <time>2019-04-05T06:44:52Z</time>
      </trkpt>
      <trkpt lat="47.45785" lon="3.75988">
        <ele>228</ele>
        <time>2019-04-05T06:44:57Z</time>
      </trkpt>
      <trkpt lat="47.45785" lon="3.75995">
        <ele>228</ele>
        <time>2019-04-05T06:45:01Z</time>
      </trkpt>
      <trkpt lat="47.45784" lon="3.76005">
        <ele>227</ele>
        <time>2019-04-05T06:45:06Z</time>
      </trkpt>
      <trkpt lat="47.45785" lon="3.76014">
        <ele>226</ele>
        <time>2019-04-05T06:45:10Z</time>
      </trkpt>
      <trkpt lat="47.45786" lon="3.76021">
        <ele>225</ele>
        <time>2019-04-05T06:45:14Z</time>
      </trkpt>
      <trkpt lat="47.45787" lon="3.7603">
        <ele>224</ele>
        <time>2019-04-05T06:45:19Z</time>
      </trkpt>
      <trkpt lat="47.45788" lon="3.76038">
        <ele>223</ele>
        <time>2019-04-05T06:45:24Z</time>
      </trkpt>
      <trkpt lat="47.45789" lon="3.76044">
        <ele>222</ele>
        <time>2019-04-05T06:45:27Z</time>
      </trkpt>
      <trkpt lat="47.4579" lon="3.76052">
        <ele>222</ele>
        <time>2019-04-05T06:45:31Z</time>
      </trkpt>
      <trkpt lat="47.45791" lon="3.76058">
        <ele>220</ele>
        <time>2019-04-05T06:45:35Z</time>
      </trkpt>
      <trkpt lat="47.45792" lon="3.76065">
        <ele>220</ele>
        <time>2019-04-05T06:45:39Z</time>
      </trkpt>
      <trkpt lat="47.45794" lon="3.7607">
        <ele>220</ele>
        <time>2019-04-05T06:45:42Z</time>
      </trkpt>
      <trkpt lat="47.45795" lon="3.76076">
        <ele>220</ele>
        <time>2019-04-05T06:45:45Z</time>
      </trkpt>
      <trkpt lat="47.45798" lon="3.76082">
        <ele>220</ele>
        <time>2019-04-05T06:45:48Z</time>
      </trkpt>
      <trkpt lat="47.45801" lon="3.76089">
        <ele>218</ele>
        <time>2019-04-05T06:45:53Z</time>
      </trkpt>
      <trkpt lat="47.45803" lon="3.76094">
        <ele>217</ele>
        <time>2019-04-05T06:45:57Z</time>
      </trkpt>
      <trkpt lat="47.45803" lon="3.76102">
        <ele>218</ele>
        <time>2019-04-05T06:46:02Z</time>
      </trkpt>
      <trkpt lat="47.45804" lon="3.76109">
        <ele>216</ele>
        <time>2019-04-05T06:46:06Z</time>
      </trkpt>
      <trkpt lat="47.45805" lon="3.76113">
        <ele>216</ele>
        <time>2019-04-05T06:46:08Z</time>
      </trkpt>
      <trkpt lat="47.45806" lon="3.76121">
        <ele>216</ele>
        <time>2019-04-05T06:46:12Z</time>
      </trkpt>
      <trkpt lat="47.45807" lon="3.76127">
        <ele>216</ele>
        <time>2019-04-05T06:46:16Z</time>
      </trkpt>
      <trkpt lat="47.45808" lon="3.76134">
        <ele>217</ele>
        <time>2019-04-05T06:46:21Z</time>
      </trkpt>
      <trkpt lat="47.45811" lon="3.76143">
        <ele>216</ele>
        <time>2019-04-05T06:46:26Z</time>
      </trkpt>
      <trkpt lat="47.45815" lon="3.7615">
        <ele>215</ele>
        <time>2019-04-05T06:46:31Z</time>
      </trkpt>
      <trkpt lat="47.45815" lon="3.76158">
        <ele>213</ele>
        <time>2019-04-05T06:46:35Z</time>
      </trkpt>
      <trkpt lat="47.45816" lon="3.76165">
        <ele>211</ele>
        <time>2019-04-05T06:46:39Z</time>
      </trkpt>
      <trkpt lat="47.45817" lon="3.76168">
        <ele>211</ele>
        <time>2019-04-05T06:46:41Z</time>
      </trkpt>
      <trkpt lat="47.45817" lon="3.76172">
        <ele>209</ele>
        <time>2019-04-05T06:46:44Z</time>
      </trkpt>
      <trkpt lat="47.45818" lon="3.76175">
        <ele>209</ele>
        <time>2019-04-05T06:46:46Z</time>
      </trkpt>
      <trkpt lat="47.45819" lon="3.76179">
        <ele>208</ele>
        <time>2019-04-05T06:46:48Z</time>
      </trkpt>
      <trkpt lat="47.45822" lon="3.76186">
        <ele>208</ele>
        <time>2019-04-05T06:46:51Z</time>
      </trkpt>
      <trkpt lat="47.45823" lon="3.76194">
        <ele>207</ele>
        <time>2019-04-05T06:46:56Z</time>
      </trkpt>
      <trkpt lat="47.45825" lon="3.76201">
        <ele>207</ele>
        <time>2019-04-05T06:47:00Z</time>
      </trkpt>
      <trkpt lat="47.45826" lon="3.76205">
        <ele>207</ele>
        <time>2019-04-05T06:47:03Z</time>
      </trkpt>
      <trkpt lat="47.45827" lon="3.76209">
        <ele>207</ele>
        <time>2019-04-05T06:47:06Z</time>
      </trkpt>
      <trkpt lat="47.45826" lon="3.76217">
        <ele>205</ele>
        <time>2019-04-05T06:47:12Z</time>
      </trkpt>
      <trkpt lat="47.45826" lon="3.7622">
        <ele>205</ele>
        <time>2019-04-05T06:47:15Z</time>
      </trkpt>
      <trkpt lat="47.45825" lon="3.76226">
        <ele>201</ele>
        <time>2019-04-05T06:47:22Z</time>
      </trkpt>
      <trkpt lat="47.45827" lon="3.76229">
        <ele>197</ele>
        <time>2019-04-05T06:47:31Z</time>
      </trkpt>
      <trkpt lat="47.45822" lon="3.76232">
        <ele>196</ele>
        <time>2019-04-05T06:48:20Z</time>
      </trkpt>
      <trkpt lat="47.45821" lon="3.76239">
        <ele>196</ele>
        <time>2019-04-05T06:48:25Z</time>
      </trkpt>
      <trkpt lat="47.4582" lon="3.76244">
        <ele>196</ele>
        <time>2019-04-05T06:48:31Z</time>
      </trkpt>
      <trkpt lat="47.45818" lon="3.76251">
        <ele>198</ele>
        <time>2019-04-05T06:48:35Z</time>
      </trkpt>
      <trkpt lat="47.45818" lon="3.76261">
        <ele>199</ele>
        <time>2019-04-05T06:48:40Z</time>
      </trkpt>
      <trkpt lat="47.45819" lon="3.76268">
        <ele>199</ele>
        <time>2019-04-05T06:48:44Z</time>
      </trkpt>
      <trkpt lat="47.4582" lon="3.76276">
        <ele>199</ele>
        <time>2019-04-05T06:48:48Z</time>
      </trkpt>
      <trkpt lat="47.45819" lon="3.76284">
        <ele>198</ele>
        <time>2019-04-05T06:48:52Z</time>
      </trkpt>
      <trkpt lat="47.45818" lon="3.76288">
        <ele>198</ele>
        <time>2019-04-05T06:48:54Z</time>
      </trkpt>
      <trkpt lat="47.45819" lon="3.76296">
        <ele>198</ele>
        <time>2019-04-05T06:48:58Z</time>
      </trkpt>
      <trkpt lat="47.45818" lon="3.76304">
        <ele>198</ele>
        <time>2019-04-05T06:49:02Z</time>
      </trkpt>
      <trkpt lat="47.45818" lon="3.76308">
        <ele>198</ele>
        <time>2019-04-05T06:49:04Z</time>
      </trkpt>
      <trkpt lat="47.45816" lon="3.76315">
        <ele>198</ele>
        <time>2019-04-05T06:49:09Z</time>
      </trkpt>
      <trkpt lat="47.45816" lon="3.76323">
        <ele>199</ele>
        <time>2019-04-05T06:49:14Z</time>
      </trkpt>
      <trkpt lat="47.45817" lon="3.7633">
        <ele>198</ele>
        <time>2019-04-05T06:49:17Z</time>
      </trkpt>
      <trkpt lat="47.45818" lon="3.76334">
        <ele>197</ele>
        <time>2019-04-05T06:49:20Z</time>
      </trkpt>
      <trkpt lat="47.4582" lon="3.76341">
        <ele>197</ele>
        <time>2019-04-05T06:49:24Z</time>
      </trkpt>
      <trkpt lat="47.45816" lon="3.76349">
        <ele>197</ele>
        <time>2019-04-05T06:49:34Z</time>
      </trkpt>
      <trkpt lat="47.45812" lon="3.76354">
        <ele>198</ele>
        <time>2019-04-05T06:49:38Z</time>
      </trkpt>
      <trkpt lat="47.45808" lon="3.76361">
        <ele>198</ele>
        <time>2019-04-05T06:49:43Z</time>
      </trkpt>
      <trkpt lat="47.45803" lon="3.76365">
        <ele>200</ele>
        <time>2019-04-05T06:49:47Z</time>
      </trkpt>
      <trkpt lat="47.458" lon="3.76372">
        <ele>201</ele>
        <time>2019-04-05T06:49:52Z</time>
      </trkpt>
      <trkpt lat="47.45799" lon="3.76375">
        <ele>201</ele>
        <time>2019-04-05T06:49:54Z</time>
      </trkpt>
      <trkpt lat="47.45795" lon="3.7638">
        <ele>201</ele>
        <time>2019-04-05T06:49:58Z</time>
      </trkpt>
      <trkpt lat="47.4579" lon="3.76389">
        <ele>202</ele>
        <time>2019-04-05T06:50:03Z</time>
      </trkpt>
      <trkpt lat="47.4579" lon="3.76397">
        <ele>201</ele>
        <time>2019-04-05T06:50:07Z</time>
      </trkpt>
      <trkpt lat="47.45788" lon="3.76403">
        <ele>201</ele>
        <time>2019-04-05T06:50:10Z</time>
      </trkpt>
      <trkpt lat="47.45785" lon="3.76409">
        <ele>201</ele>
        <time>2019-04-05T06:50:13Z</time>
      </trkpt>
      <trkpt lat="47.45781" lon="3.76415">
        <ele>202</ele>
        <time>2019-04-05T06:50:18Z</time>
      </trkpt>
      <trkpt lat="47.4578" lon="3.76418">
        <ele>202</ele>
        <time>2019-04-05T06:50:20Z</time>
      </trkpt>
      <trkpt lat="47.45778" lon="3.76422">
        <ele>202</ele>
        <time>2019-04-05T06:50:22Z</time>
      </trkpt>
      <trkpt lat="47.45772" lon="3.76427">
        <ele>202</ele>
        <time>2019-04-05T06:50:27Z</time>
      </trkpt>
      <trkpt lat="47.4577" lon="3.76433">
        <ele>201</ele>
        <time>2019-04-05T06:50:31Z</time>
      </trkpt>
      <trkpt lat="47.45768" lon="3.76438">
        <ele>202</ele>
        <time>2019-04-05T06:50:34Z</time>
      </trkpt>
      <trkpt lat="47.45765" lon="3.76445">
        <ele>202</ele>
        <time>2019-04-05T06:50:39Z</time>
      </trkpt>
      <trkpt lat="47.45764" lon="3.76448">
        <ele>202</ele>
        <time>2019-04-05T06:50:42Z</time>
      </trkpt>
      <trkpt lat="47.45766" lon="3.76457">
        <ele>203</ele>
        <time>2019-04-05T06:50:46Z</time>
      </trkpt>
      <trkpt lat="47.4577" lon="3.76463">
        <ele>202</ele>
        <time>2019-04-05T06:50:49Z</time>
      </trkpt>
      <trkpt lat="47.45773" lon="3.76468">
        <ele>202</ele>
        <time>2019-04-05T06:50:55Z</time>
      </trkpt>
      <trkpt lat="47.45777" lon="3.76473">
        <ele>202</ele>
        <time>2019-04-05T06:50:59Z</time>
      </trkpt>
      <trkpt lat="47.45781" lon="3.76481">
        <ele>201</ele>
        <time>2019-04-05T06:51:05Z</time>
      </trkpt>
      <trkpt lat="47.45787" lon="3.76487">
        <ele>200</ele>
        <time>2019-04-05T06:51:10Z</time>
      </trkpt>
      <trkpt lat="47.4579" lon="3.7649">
        <ele>201</ele>
        <time>2019-04-05T06:51:14Z</time>
      </trkpt>
      <trkpt lat="47.45794" lon="3.76497">
        <ele>202</ele>
        <time>2019-04-05T06:51:19Z</time>
      </trkpt>
      <trkpt lat="47.45795" lon="3.765">
        <ele>201</ele>
        <time>2019-04-05T06:51:21Z</time>
      </trkpt>
      <trkpt lat="47.458" lon="3.76504">
        <ele>203</ele>
        <time>2019-04-05T06:51:26Z</time>
      </trkpt>
      <trkpt lat="47.45803" lon="3.76507">
        <ele>203</ele>
        <time>2019-04-05T06:51:30Z</time>
      </trkpt>
      <trkpt lat="47.45807" lon="3.76512">
        <ele>204</ele>
        <time>2019-04-05T06:51:34Z</time>
      </trkpt>
      <trkpt lat="47.45811" lon="3.76516">
        <ele>205</ele>
        <time>2019-04-05T06:51:38Z</time>
      </trkpt>
      <trkpt lat="47.45813" lon="3.76513">
        <ele>207</ele>
        <time>2019-04-05T06:51:48Z</time>
      </trkpt>
      <trkpt lat="47.45819" lon="3.76513">
        <ele>207</ele>
        <time>2019-04-05T06:51:59Z</time>
      </trkpt>
      <trkpt lat="47.45824" lon="3.76513">
        <ele>207</ele>
        <time>2019-04-05T06:52:04Z</time>
      </trkpt>
      <trkpt lat="47.45828" lon="3.76513">
        <ele>207</ele>
        <time>2019-04-05T06:52:08Z</time>
      </trkpt>
      <trkpt lat="47.45833" lon="3.76513">
        <ele>209</ele>
        <time>2019-04-05T06:52:24Z</time>
      </trkpt>
      <trkpt lat="47.45838" lon="3.76515">
        <ele>208</ele>
        <time>2019-04-05T06:52:28Z</time>
      </trkpt>
      <trkpt lat="47.45843" lon="3.76513">
        <ele>208</ele>
        <time>2019-04-05T06:52:31Z</time>
      </trkpt>
      <trkpt lat="47.45846" lon="3.76512">
        <ele>207</ele>
        <time>2019-04-05T06:52:33Z</time>
      </trkpt>
      <trkpt lat="47.4585" lon="3.76511">
        <ele>206</ele>
        <time>2019-04-05T06:52:36Z</time>
      </trkpt>
      <trkpt lat="47.45853" lon="3.76509">
        <ele>206</ele>
        <time>2019-04-05T06:52:38Z</time>
      </trkpt>
      <trkpt lat="47.45855" lon="3.76508">
        <ele>204</ele>
        <time>2019-04-05T06:52:40Z</time>
      </trkpt>
      <trkpt lat="47.45858" lon="3.76507">
        <ele>204</ele>
        <time>2019-04-05T06:52:42Z</time>
      </trkpt>
      <trkpt lat="47.45863" lon="3.76505">
        <ele>201</ele>
        <time>2019-04-05T06:52:46Z</time>
      </trkpt>
      <trkpt lat="47.45867" lon="3.76504">
        <ele>200</ele>
        <time>2019-04-05T06:52:49Z</time>
      </trkpt>
      <trkpt lat="47.45871" lon="3.76502">
        <ele>199</ele>
        <time>2019-04-05T06:52:53Z</time>
      </trkpt>
      <trkpt lat="47.45871" lon="3.76497">
        <ele>199</ele>
        <time>2019-04-05T06:53:02Z</time>
      </trkpt>
      <trkpt lat="47.45883" lon="3.76496">
        <ele>197</ele>
        <time>2019-04-05T06:54:27Z</time>
      </trkpt>
      <trkpt lat="47.45886" lon="3.76496">
        <ele>200</ele>
        <time>2019-04-05T06:54:32Z</time>
      </trkpt>
      <trkpt lat="47.4589" lon="3.76494">
        <ele>200</ele>
        <time>2019-04-05T06:54:37Z</time>
      </trkpt>
      <trkpt lat="47.45894" lon="3.76492">
        <ele>200</ele>
        <time>2019-04-05T06:54:40Z</time>
      </trkpt>
      <trkpt lat="47.45897" lon="3.7649">
        <ele>199</ele>
        <time>2019-04-05T06:54:43Z</time>
      </trkpt>
      <trkpt lat="47.45901" lon="3.76486">
        <ele>197</ele>
        <time>2019-04-05T06:54:47Z</time>
      </trkpt>
      <trkpt lat="47.45903" lon="3.76484">
        <ele>195</ele>
        <time>2019-04-05T06:54:53Z</time>
      </trkpt>
      <trkpt lat="47.45908" lon="3.76485">
        <ele>196</ele>
        <time>2019-04-05T06:54:58Z</time>
      </trkpt>
      <trkpt lat="47.45912" lon="3.76488">
        <ele>198</ele>
        <time>2019-04-05T06:55:04Z</time>
      </trkpt>
      <trkpt lat="47.45915" lon="3.76489">
        <ele>198</ele>
        <time>2019-04-05T06:55:06Z</time>
      </trkpt>
      <trkpt lat="47.4592" lon="3.7649">
        <ele>198</ele>
        <time>2019-04-05T06:55:09Z</time>
      </trkpt>
      <trkpt lat="47.45925" lon="3.76493">
        <ele>198</ele>
        <time>2019-04-05T06:55:13Z</time>
      </trkpt>
      <trkpt lat="47.45927" lon="3.76493">
        <ele>198</ele>
        <time>2019-04-05T06:55:15Z</time>
      </trkpt>
      <trkpt lat="47.45931" lon="3.76497">
        <ele>198</ele>
        <time>2019-04-05T06:55:19Z</time>
      </trkpt>
      <trkpt lat="47.45937" lon="3.76501">
        <ele>198</ele>
        <time>2019-04-05T06:55:24Z</time>
      </trkpt>
      <trkpt lat="47.45943" lon="3.76502">
        <ele>199</ele>
        <time>2019-04-05T06:55:29Z</time>
      </trkpt>
      <trkpt lat="47.45946" lon="3.76502">
        <ele>199</ele>
        <time>2019-04-05T06:55:31Z</time>
      </trkpt>
      <trkpt lat="47.45949" lon="3.76507">
        <ele>199</ele>
        <time>2019-04-05T06:55:36Z</time>
      </trkpt>
      <trkpt lat="47.45952" lon="3.76511">
        <ele>200</ele>
        <time>2019-04-05T06:55:40Z</time>
      </trkpt>
      <trkpt lat="47.45958" lon="3.76514">
        <ele>202</ele>
        <time>2019-04-05T06:55:45Z</time>
      </trkpt>
      <trkpt lat="47.45963" lon="3.76513">
        <ele>203</ele>
        <time>2019-04-05T06:55:49Z</time>
      </trkpt>
      <trkpt lat="47.45969" lon="3.76513">
        <ele>202</ele>
        <time>2019-04-05T06:55:53Z</time>
      </trkpt>
      <trkpt lat="47.45974" lon="3.76517">
        <ele>201</ele>
        <time>2019-04-05T06:55:58Z</time>
      </trkpt>
      <trkpt lat="47.45979" lon="3.7652">
        <ele>201</ele>
        <time>2019-04-05T06:56:01Z</time>
      </trkpt>
      <trkpt lat="47.45984" lon="3.76521">
        <ele>200</ele>
        <time>2019-04-05T06:56:05Z</time>
      </trkpt>
      <trkpt lat="47.45989" lon="3.76523">
        <ele>199</ele>
        <time>2019-04-05T06:56:09Z</time>
      </trkpt>
      <trkpt lat="47.45994" lon="3.76528">
        <ele>200</ele>
        <time>2019-04-05T06:56:13Z</time>
      </trkpt>
      <trkpt lat="47.45997" lon="3.76533">
        <ele>201</ele>
        <time>2019-04-05T06:56:16Z</time>
      </trkpt>
      <trkpt lat="47.46001" lon="3.76538">
        <ele>201</ele>
        <time>2019-04-05T06:56:20Z</time>
      </trkpt>
      <trkpt lat="47.46005" lon="3.76542">
        <ele>201</ele>
        <time>2019-04-05T06:56:25Z</time>
      </trkpt>
      <trkpt lat="47.4601" lon="3.76543">
        <ele>201</ele>
        <time>2019-04-05T06:56:29Z</time>
      </trkpt>
      <trkpt lat="47.46014" lon="3.76545">
        <ele>201</ele>
        <time>2019-04-05T06:56:32Z</time>
      </trkpt>
      <trkpt lat="47.46018" lon="3.76547">
        <ele>200</ele>
        <time>2019-04-05T06:56:36Z</time>
      </trkpt>
      <trkpt lat="47.46023" lon="3.76546">
        <ele>200</ele>
        <time>2019-04-05T06:56:40Z</time>
      </trkpt>
      <trkpt lat="47.46028" lon="3.76546">
        <ele>200</ele>
        <time>2019-04-05T06:56:44Z</time>
      </trkpt>
      <trkpt lat="47.46033" lon="3.76548">
        <ele>199</ele>
        <time>2019-04-05T06:56:48Z</time>
      </trkpt>
      <trkpt lat="47.46037" lon="3.7655">
        <ele>199</ele>
        <time>2019-04-05T06:56:52Z</time>
      </trkpt>
      <trkpt lat="47.46043" lon="3.7655">
        <ele>201</ele>
        <time>2019-04-05T06:56:56Z</time>
      </trkpt>
      <trkpt lat="47.46047" lon="3.76547">
        <ele>202</ele>
        <time>2019-04-05T06:56:59Z</time>
      </trkpt>
      <trkpt lat="47.46052" lon="3.76543">
        <ele>200</ele>
        <time>2019-04-05T06:57:03Z</time>
      </trkpt>
      <trkpt lat="47.46057" lon="3.76544">
        <ele>200</ele>
        <time>2019-04-05T06:57:07Z</time>
      </trkpt>
      <trkpt lat="47.46061" lon="3.7654">
        <ele>200</ele>
        <time>2019-04-05T06:57:10Z</time>
      </trkpt>
      <trkpt lat="47.46065" lon="3.76535">
        <ele>198</ele>
        <time>2019-04-05T06:57:13Z</time>
      </trkpt>
      <trkpt lat="47.46067" lon="3.76532">
        <ele>198</ele>
        <time>2019-04-05T06:57:15Z</time>
      </trkpt>
      <trkpt lat="47.46073" lon="3.76527">
        <ele>199</ele>
        <time>2019-04-05T06:57:21Z</time>
      </trkpt>
      <trkpt lat="47.46076" lon="3.76525">
        <ele>200</ele>
        <time>2019-04-05T06:57:24Z</time>
      </trkpt>
      <trkpt lat="47.46079" lon="3.76519">
        <ele>200</ele>
        <time>2019-04-05T06:57:28Z</time>
      </trkpt>
      <trkpt lat="47.46082" lon="3.76513">
        <ele>197</ele>
        <time>2019-04-05T06:57:32Z</time>
      </trkpt>
      <trkpt lat="47.46082" lon="3.76506">
        <ele>199</ele>
        <time>2019-04-05T06:57:37Z</time>
      </trkpt>
      <trkpt lat="47.46082" lon="3.76506">
        <ele>199</ele>
        <time>2019-04-05T06:57:45Z</time>
      </trkpt>
      <trkpt lat="47.46082" lon="3.76506">
        <ele>199</ele>
        <time>2019-04-05T06:57:46Z</time>
      </trkpt>
      <trkpt lat="47.46084" lon="3.76498">
        <ele>202</ele>
        <time>2019-04-05T06:57:47Z</time>
      </trkpt>
      <trkpt lat="47.46085" lon="3.76495">
        <ele>202</ele>
        <time>2019-04-05T06:57:49Z</time>
      </trkpt>
      <trkpt lat="47.46083" lon="3.76486">
        <ele>203</ele>
        <time>2019-04-05T06:57:54Z</time>
      </trkpt>
      <trkpt lat="47.4608" lon="3.76479">
        <ele>204</ele>
        <time>2019-04-05T06:57:58Z</time>
      </trkpt>
      <trkpt lat="47.46077" lon="3.76475">
        <ele>205</ele>
        <time>2019-04-05T06:58:05Z</time>
      </trkpt>
      <trkpt lat="47.46072" lon="3.76474">
        <ele>200</ele>
        <time>2019-04-05T06:58:13Z</time>
      </trkpt>
      <trkpt lat="47.46069" lon="3.76473">
        <ele>198</ele>
        <time>2019-04-05T06:58:17Z</time>
      </trkpt>
      <trkpt lat="47.46064" lon="3.76468">
        <ele>199</ele>
        <time>2019-04-05T06:58:51Z</time>
      </trkpt>
      <trkpt lat="47.4606" lon="3.76461">
        <ele>200</ele>
        <time>2019-04-05T06:58:56Z</time>
      </trkpt>
      <trkpt lat="47.46057" lon="3.76457">
        <ele>200</ele>
        <time>2019-04-05T06:59:00Z</time>
      </trkpt>
      <trkpt lat="47.46054" lon="3.76448">
        <ele>201</ele>
        <time>2019-04-05T06:59:05Z</time>
      </trkpt>
      <trkpt lat="47.46049" lon="3.76441">
        <ele>201</ele>
        <time>2019-04-05T06:59:10Z</time>
      </trkpt>
      <trkpt lat="47.46044" lon="3.76432">
        <ele>202</ele>
        <time>2019-04-05T06:59:15Z</time>
      </trkpt>
      <trkpt lat="47.4604" lon="3.76427">
        <ele>201</ele>
        <time>2019-04-05T06:59:19Z</time>
      </trkpt>
      <trkpt lat="47.46037" lon="3.76423">
        <ele>201</ele>
        <time>2019-04-05T06:59:23Z</time>
      </trkpt>
      <trkpt lat="47.46037" lon="3.76423">
        <ele>201</ele>
        <time>2019-04-05T06:59:30Z</time>
      </trkpt>
      <trkpt lat="47.46037" lon="3.76423">
        <ele>201</ele>
        <time>2019-04-05T06:59:32Z</time>
      </trkpt>
      <trkpt lat="47.46035" lon="3.7643">
        <ele>223</ele>
        <time>2019-04-05T07:02:41Z</time>
      </trkpt>
      <trkpt lat="47.46038" lon="3.76435">
        <ele>218</ele>
        <time>2019-04-05T07:02:47Z</time>
      </trkpt>
      <trkpt lat="47.46039" lon="3.76439">
        <ele>216</ele>
        <time>2019-04-05T07:02:49Z</time>
      </trkpt>
      <trkpt lat="47.46041" lon="3.76443">
        <ele>214</ele>
        <time>2019-04-05T07:02:52Z</time>
      </trkpt>
      <trkpt lat="47.46044" lon="3.76448">
        <ele>212</ele>
        <time>2019-04-05T07:02:56Z</time>
      </trkpt>
      <trkpt lat="47.46048" lon="3.76453">
        <ele>209</ele>
        <time>2019-04-05T07:03:00Z</time>
      </trkpt>
      <trkpt lat="47.46051" lon="3.7646">
        <ele>208</ele>
        <time>2019-04-05T07:03:04Z</time>
      </trkpt>
      <trkpt lat="47.46054" lon="3.76466">
        <ele>206</ele>
        <time>2019-04-05T07:03:09Z</time>
      </trkpt>
      <trkpt lat="47.46057" lon="3.76472">
        <ele>206</ele>
        <time>2019-04-05T07:03:13Z</time>
      </trkpt>
      <trkpt lat="47.46062" lon="3.76475">
        <ele>204</ele>
        <time>2019-04-05T07:03:23Z</time>
      </trkpt>
      <trkpt lat="47.46066" lon="3.76482">
        <ele>200</ele>
        <time>2019-04-05T07:10:42Z</time>
      </trkpt>
      <trkpt lat="47.46069" lon="3.76486">
        <ele>200</ele>
        <time>2019-04-05T07:10:46Z</time>
      </trkpt>
      <trkpt lat="47.46072" lon="3.76491">
        <ele>199</ele>
        <time>2019-04-05T07:10:51Z</time>
      </trkpt>
      <trkpt lat="47.46075" lon="3.76499">
        <ele>200</ele>
        <time>2019-04-05T07:10:56Z</time>
      </trkpt>
      <trkpt lat="47.46078" lon="3.76504">
        <ele>200</ele>
        <time>2019-04-05T07:11:00Z</time>
      </trkpt>
      <trkpt lat="47.46082" lon="3.76507">
        <ele>198</ele>
        <time>2019-04-05T07:11:06Z</time>
      </trkpt>
      <trkpt lat="47.46086" lon="3.76516">
        <ele>198</ele>
        <time>2019-04-05T07:11:11Z</time>
      </trkpt>
      <trkpt lat="47.46087" lon="3.76521">
        <ele>199</ele>
        <time>2019-04-05T07:11:14Z</time>
      </trkpt>
      <trkpt lat="47.46091" lon="3.76527">
        <ele>200</ele>
        <time>2019-04-05T07:11:18Z</time>
      </trkpt>
      <trkpt lat="47.46093" lon="3.76531">
        <ele>200</ele>
        <time>2019-04-05T07:11:21Z</time>
      </trkpt>
      <trkpt lat="47.46097" lon="3.76537">
        <ele>200</ele>
        <time>2019-04-05T07:11:27Z</time>
      </trkpt>
      <trkpt lat="47.46102" lon="3.76538">
        <ele>201</ele>
        <time>2019-04-05T07:11:34Z</time>
      </trkpt>
      <trkpt lat="47.46106" lon="3.76545">
        <ele>199</ele>
        <time>2019-04-05T07:11:40Z</time>
      </trkpt>
      <trkpt lat="47.46109" lon="3.76549">
        <ele>198</ele>
        <time>2019-04-05T07:11:44Z</time>
      </trkpt>
      <trkpt lat="47.46114" lon="3.76553">
        <ele>198</ele>
        <time>2019-04-05T07:12:13Z</time>
      </trkpt>
      <trkpt lat="47.46118" lon="3.76558">
        <ele>196</ele>
        <time>2019-04-05T07:13:19Z</time>
      </trkpt>
      <trkpt lat="47.4612" lon="3.76565">
        <ele>196</ele>
        <time>2019-04-05T07:13:25Z</time>
      </trkpt>
      <trkpt lat="47.46121" lon="3.7657">
        <ele>197</ele>
        <time>2019-04-05T07:13:28Z</time>
      </trkpt>
      <trkpt lat="47.46124" lon="3.76576">
        <ele>198</ele>
        <time>2019-04-05T07:13:33Z</time>
      </trkpt>
      <trkpt lat="47.46127" lon="3.76582">
        <ele>197</ele>
        <time>2019-04-05T07:13:39Z</time>
      </trkpt>
      <trkpt lat="47.46128" lon="3.76582">
        <ele>198</ele>
        <time>2019-04-05T07:13:49Z</time>
      </trkpt>
      <trkpt lat="47.46132" lon="3.76586">
        <ele>200</ele>
        <time>2019-04-05T07:13:57Z</time>
      </trkpt>
      <trkpt lat="47.46131" lon="3.76595">
        <ele>202</ele>
        <time>2019-04-05T07:14:06Z</time>
      </trkpt>
      <trkpt lat="47.46134" lon="3.766">
        <ele>203</ele>
        <time>2019-04-05T07:14:10Z</time>
      </trkpt>
      <trkpt lat="47.46136" lon="3.76603">
        <ele>204</ele>
        <time>2019-04-05T07:14:12Z</time>
      </trkpt>
      <trkpt lat="47.4614" lon="3.76608">
        <ele>203</ele>
        <time>2019-04-05T07:14:17Z</time>
      </trkpt>
      <trkpt lat="47.46143" lon="3.76614">
        <ele>204</ele>
        <time>2019-04-05T07:14:20Z</time>
      </trkpt>
      <trkpt lat="47.46145" lon="3.76619">
        <ele>204</ele>
        <time>2019-04-05T07:14:23Z</time>
      </trkpt>
      <trkpt lat="47.46148" lon="3.76626">
        <ele>203</ele>
        <time>2019-04-05T07:14:29Z</time>
      </trkpt>
      <trkpt lat="47.46151" lon="3.76635">
        <ele>204</ele>
        <time>2019-04-05T07:14:35Z</time>
      </trkpt>
      <trkpt lat="47.46154" lon="3.7664">
        <ele>205</ele>
        <time>2019-04-05T07:14:39Z</time>
      </trkpt>
      <trkpt lat="47.46156" lon="3.76647">
        <ele>204</ele>
        <time>2019-04-05T07:14:43Z</time>
      </trkpt>
      <trkpt lat="47.46157" lon="3.76651">
        <ele>203</ele>
        <time>2019-04-05T07:14:45Z</time>
      </trkpt>
      <trkpt lat="47.4616" lon="3.76656">
        <ele>203</ele>
        <time>2019-04-05T07:14:49Z</time>
      </trkpt>
      <trkpt lat="47.46163" lon="3.76662">
        <ele>203</ele>
        <time>2019-04-05T07:14:52Z</time>
      </trkpt>
      <trkpt lat="47.46164" lon="3.76665">
        <ele>203</ele>
        <time>2019-04-05T07:14:54Z</time>
      </trkpt>
      <trkpt lat="47.46166" lon="3.76674">
        <ele>202</ele>
        <time>2019-04-05T07:15:00Z</time>
      </trkpt>
      <trkpt lat="47.46169" lon="3.76681">
        <ele>202</ele>
        <time>2019-04-05T07:15:05Z</time>
      </trkpt>
      <trkpt lat="47.4617" lon="3.76689">
        <ele>203</ele>
        <time>2019-04-05T07:15:10Z</time>
      </trkpt>
      <trkpt lat="47.46172" lon="3.76695">
        <ele>203</ele>
        <time>2019-04-05T07:15:13Z</time>
      </trkpt>
      <trkpt lat="47.46173" lon="3.767">
        <ele>202</ele>
        <time>2019-04-05T07:15:16Z</time>
      </trkpt>
      <trkpt lat="47.46176" lon="3.76708">
        <ele>203</ele>
        <time>2019-04-05T07:15:21Z</time>
      </trkpt>
      <trkpt lat="47.46177" lon="3.76716">
        <ele>203</ele>
        <time>2019-04-05T07:15:25Z</time>
      </trkpt>
      <trkpt lat="47.46182" lon="3.76718">
        <ele>203</ele>
        <time>2019-04-05T07:15:30Z</time>
      </trkpt>
      <trkpt lat="47.46186" lon="3.76722">
        <ele>202</ele>
        <time>2019-04-05T07:15:35Z</time>
      </trkpt>
      <trkpt lat="47.46188" lon="3.76725">
        <ele>203</ele>
        <time>2019-04-05T07:15:37Z</time>
      </trkpt>
      <trkpt lat="47.46191" lon="3.7673">
        <ele>203</ele>
        <time>2019-04-05T07:15:41Z</time>
      </trkpt>
      <trkpt lat="47.46194" lon="3.76736">
        <ele>203</ele>
        <time>2019-04-05T07:15:44Z</time>
      </trkpt>
      <trkpt lat="47.46197" lon="3.7674">
        <ele>204</ele>
        <time>2019-04-05T07:15:48Z</time>
      </trkpt>
      <trkpt lat="47.46199" lon="3.76743">
        <ele>203</ele>
        <time>2019-04-05T07:15:50Z</time>
      </trkpt>
      <trkpt lat="47.46201" lon="3.76749">
        <ele>201</ele>
        <time>2019-04-05T07:15:55Z</time>
      </trkpt>
      <trkpt lat="47.46203" lon="3.76754">
        <ele>200</ele>
        <time>2019-04-05T07:15:59Z</time>
      </trkpt>
      <trkpt lat="47.46204" lon="3.76758">
        <ele>199</ele>
        <time>2019-04-05T07:16:01Z</time>
      </trkpt>
      <trkpt lat="47.46206" lon="3.76761">
        <ele>200</ele>
        <time>2019-04-05T07:16:03Z</time>
      </trkpt>
      <trkpt lat="47.46209" lon="3.7677">
        <ele>200</ele>
        <time>2019-04-05T07:16:08Z</time>
      </trkpt>
      <trkpt lat="47.46212" lon="3.76776">
        <ele>197</ele>
        <time>2019-04-05T07:16:13Z</time>
      </trkpt>
      <trkpt lat="47.46213" lon="3.76779">
        <ele>196</ele>
        <time>2019-04-05T07:16:15Z</time>
      </trkpt>
      <trkpt lat="47.46217" lon="3.76785">
        <ele>197</ele>
        <time>2019-04-05T07:16:19Z</time>
      </trkpt>
      <trkpt lat="47.46219" lon="3.76792">
        <ele>196</ele>
        <time>2019-04-05T07:16:23Z</time>
      </trkpt>
      <trkpt lat="47.46223" lon="3.76799">
        <ele>195</ele>
        <time>2019-04-05T07:16:28Z</time>
      </trkpt>
      <trkpt lat="47.46225" lon="3.76803">
        <ele>195</ele>
        <time>2019-04-05T07:16:31Z</time>
      </trkpt>
      <trkpt lat="47.46227" lon="3.76807">
        <ele>195</ele>
        <time>2019-04-05T07:16:35Z</time>
      </trkpt>
      <trkpt lat="47.46228" lon="3.7681">
        <ele>195</ele>
        <time>2019-04-05T07:16:37Z</time>
      </trkpt>
      <trkpt lat="47.46232" lon="3.76815">
        <ele>196</ele>
        <time>2019-04-05T07:16:41Z</time>
      </trkpt>
      <trkpt lat="47.46235" lon="3.76822">
        <ele>197</ele>
        <time>2019-04-05T07:16:45Z</time>
      </trkpt>
      <trkpt lat="47.46238" lon="3.76827">
        <ele>196</ele>
        <time>2019-04-05T07:16:49Z</time>
      </trkpt>
      <trkpt lat="47.46239" lon="3.76829">
        <ele>196</ele>
        <time>2019-04-05T07:16:51Z</time>
      </trkpt>
      <trkpt lat="47.46241" lon="3.76832">
        <ele>197</ele>
        <time>2019-04-05T07:16:53Z</time>
      </trkpt>
      <trkpt lat="47.46244" lon="3.76838">
        <ele>196</ele>
        <time>2019-04-05T07:16:58Z</time>
      </trkpt>
      <trkpt lat="47.46248" lon="3.76844">
        <ele>196</ele>
        <time>2019-04-05T07:17:02Z</time>
      </trkpt>
      <trkpt lat="47.46253" lon="3.76846">
        <ele>197</ele>
        <time>2019-04-05T07:17:06Z</time>
      </trkpt>
      <trkpt lat="47.46258" lon="3.76848">
        <ele>198</ele>
        <time>2019-04-05T07:17:11Z</time>
      </trkpt>
      <trkpt lat="47.46264" lon="3.76852">
        <ele>198</ele>
        <time>2019-04-05T07:17:17Z</time>
      </trkpt>
      <trkpt lat="47.46266" lon="3.76854">
        <ele>198</ele>
        <time>2019-04-05T07:17:19Z</time>
      </trkpt>
      <trkpt lat="47.4627" lon="3.76856">
        <ele>198</ele>
        <time>2019-04-05T07:17:23Z</time>
      </trkpt>
      <trkpt lat="47.46275" lon="3.76858">
        <ele>199</ele>
        <time>2019-04-05T07:17:28Z</time>
      </trkpt>
      <trkpt lat="47.46278" lon="3.76859">
        <ele>199</ele>
        <time>2019-04-05T07:17:30Z</time>
      </trkpt>
      <trkpt lat="47.46282" lon="3.76861">
        <ele>200</ele>
        <time>2019-04-05T07:17:34Z</time>
      </trkpt>
      <trkpt lat="47.46287" lon="3.76865">
        <ele>200</ele>
        <time>2019-04-05T07:17:39Z</time>
      </trkpt>
      <trkpt lat="47.46289" lon="3.76867">
        <ele>200</ele>
        <time>2019-04-05T07:17:41Z</time>
      </trkpt>
      <trkpt lat="47.46292" lon="3.7687">
        <ele>201</ele>
        <time>2019-04-05T07:17:44Z</time>
      </trkpt>
      <trkpt lat="47.46296" lon="3.76872">
        <ele>201</ele>
        <time>2019-04-05T07:17:48Z</time>
      </trkpt>
      <trkpt lat="47.46298" lon="3.76873">
        <ele>201</ele>
        <time>2019-04-05T07:17:50Z</time>
      </trkpt>
      <trkpt lat="47.46302" lon="3.76875">
        <ele>202</ele>
        <time>2019-04-05T07:17:53Z</time>
      </trkpt>
      <trkpt lat="47.46306" lon="3.76877">
        <ele>203</ele>
        <time>2019-04-05T07:17:56Z</time>
      </trkpt>
      <trkpt lat="47.46311" lon="3.76878">
        <ele>204</ele>
        <time>2019-04-05T07:18:00Z</time>
      </trkpt>
      <trkpt lat="47.46316" lon="3.76881">
        <ele>204</ele>
        <time>2019-04-05T07:18:04Z</time>
      </trkpt>
      <trkpt lat="47.46319" lon="3.76883">
        <ele>204</ele>
        <time>2019-04-05T07:18:07Z</time>
      </trkpt>
      <trkpt lat="47.46321" lon="3.76884">
        <ele>205</ele>
        <time>2019-04-05T07:18:09Z</time>
      </trkpt>
      <trkpt lat="47.46325" lon="3.76885">
        <ele>204</ele>
        <time>2019-04-05T07:18:12Z</time>
      </trkpt>
      <trkpt lat="47.46331" lon="3.76889">
        <ele>204</ele>
        <time>2019-04-05T07:18:17Z</time>
      </trkpt>
      <trkpt lat="47.46334" lon="3.7689">
        <ele>205</ele>
        <time>2019-04-05T07:18:19Z</time>
      </trkpt>
      <trkpt lat="47.46338" lon="3.76893">
        <ele>204</ele>
        <time>2019-04-05T07:18:23Z</time>
      </trkpt>
      <trkpt lat="47.46341" lon="3.76894">
        <ele>205</ele>
        <time>2019-04-05T07:18:25Z</time>
      </trkpt>
      <trkpt lat="47.46346" lon="3.76899">
        <ele>203</ele>
        <time>2019-04-05T07:18:31Z</time>
      </trkpt>
      <trkpt lat="47.46348" lon="3.76901">
        <ele>203</ele>
        <time>2019-04-05T07:18:33Z</time>
      </trkpt>
      <trkpt lat="47.46354" lon="3.76903">
        <ele>203</ele>
        <time>2019-04-05T07:18:37Z</time>
      </trkpt>
      <trkpt lat="47.46357" lon="3.76904">
        <ele>203</ele>
        <time>2019-04-05T07:18:40Z</time>
      </trkpt>
      <trkpt lat="47.4636" lon="3.76906">
        <ele>203</ele>
        <time>2019-04-05T07:18:43Z</time>
      </trkpt>
      <trkpt lat="47.46364" lon="3.76908">
        <ele>202</ele>
        <time>2019-04-05T07:18:47Z</time>
      </trkpt>
      <trkpt lat="47.46369" lon="3.7691">
        <ele>202</ele>
        <time>2019-04-05T07:18:51Z</time>
      </trkpt>
      <trkpt lat="47.46374" lon="3.76913">
        <ele>203</ele>
        <time>2019-04-05T07:18:55Z</time>
      </trkpt>
      <trkpt lat="47.46378" lon="3.76916">
        <ele>203</ele>
        <time>2019-04-05T07:18:58Z</time>
      </trkpt>
      <trkpt lat="47.46383" lon="3.76918">
        <ele>203</ele>
        <time>2019-04-05T07:19:02Z</time>
      </trkpt>
      <trkpt lat="47.46388" lon="3.76919">
        <ele>204</ele>
        <time>2019-04-05T07:19:05Z</time>
      </trkpt>
      <trkpt lat="47.46392" lon="3.7692">
        <ele>204</ele>
        <time>2019-04-05T07:19:08Z</time>
      </trkpt>
      <trkpt lat="47.46397" lon="3.76922">
        <ele>205</ele>
        <time>2019-04-05T07:19:13Z</time>
      </trkpt>
      <trkpt lat="47.46401" lon="3.76924">
        <ele>204</ele>
        <time>2019-04-05T07:19:17Z</time>
      </trkpt>
      <trkpt lat="47.46405" lon="3.76925">
        <ele>205</ele>
        <time>2019-04-05T07:19:20Z</time>
      </trkpt>
      <trkpt lat="47.46408" lon="3.76926">
        <ele>206</ele>
        <time>2019-04-05T07:19:22Z</time>
      </trkpt>
      <trkpt lat="47.4641" lon="3.76927">
        <ele>206</ele>
        <time>2019-04-05T07:19:24Z</time>
      </trkpt>
      <trkpt lat="47.46412" lon="3.76928">
        <ele>207</ele>
        <time>2019-04-05T07:19:26Z</time>
      </trkpt>
      <trkpt lat="47.46417" lon="3.76929">
        <ele>207</ele>
        <time>2019-04-05T07:19:30Z</time>
      </trkpt>
      <trkpt lat="47.46422" lon="3.76929">
        <ele>207</ele>
        <time>2019-04-05T07:19:34Z</time>
      </trkpt>
      <trkpt lat="47.46428" lon="3.76931">
        <ele>208</ele>
        <time>2019-04-05T07:19:39Z</time>
      </trkpt>
      <trkpt lat="47.46434" lon="3.76933">
        <ele>209</ele>
        <time>2019-04-05T07:19:43Z</time>
      </trkpt>
      <trkpt lat="47.46438" lon="3.76935">
        <ele>208</ele>
        <time>2019-04-05T07:19:46Z</time>
      </trkpt>
      <trkpt lat="47.46442" lon="3.76936">
        <ele>208</ele>
        <time>2019-04-05T07:19:50Z</time>
      </trkpt>
      <trkpt lat="47.46445" lon="3.76937">
        <ele>208</ele>
        <time>2019-04-05T07:19:52Z</time>
      </trkpt>
      <trkpt lat="47.4645" lon="3.76939">
        <ele>208</ele>
        <time>2019-04-05T07:19:56Z</time>
      </trkpt>
      <trkpt lat="47.46453" lon="3.7694">
        <ele>207</ele>
        <time>2019-04-05T07:20:00Z</time>
      </trkpt>
      <trkpt lat="47.46455" lon="3.76941">
        <ele>207</ele>
        <time>2019-04-05T07:20:02Z</time>
      </trkpt>
      <trkpt lat="47.4646" lon="3.76944">
        <ele>207</ele>
        <time>2019-04-05T07:20:06Z</time>
      </trkpt>
      <trkpt lat="47.46466" lon="3.76946">
        <ele>208</ele>
        <time>2019-04-05T07:20:10Z</time>
      </trkpt>
      <trkpt lat="47.4647" lon="3.76947">
        <ele>208</ele>
        <time>2019-04-05T07:20:13Z</time>
      </trkpt>
      <trkpt lat="47.46473" lon="3.76948">
        <ele>208</ele>
        <time>2019-04-05T07:20:15Z</time>
      </trkpt>
      <trkpt lat="47.46478" lon="3.76949">
        <ele>209</ele>
        <time>2019-04-05T07:20:19Z</time>
      </trkpt>
      <trkpt lat="47.46483" lon="3.7695">
        <ele>209</ele>
        <time>2019-04-05T07:20:23Z</time>
      </trkpt>
      <trkpt lat="47.46488" lon="3.76953">
        <ele>210</ele>
        <time>2019-04-05T07:20:27Z</time>
      </trkpt>
      <trkpt lat="47.46493" lon="3.76954">
        <ele>210</ele>
        <time>2019-04-05T07:20:31Z</time>
      </trkpt>
      <trkpt lat="47.46498" lon="3.76955">
        <ele>210</ele>
        <time>2019-04-05T07:20:35Z</time>
      </trkpt>
      <trkpt lat="47.46502" lon="3.76956">
        <ele>211</ele>
        <time>2019-04-05T07:20:39Z</time>
      </trkpt>
      <trkpt lat="47.46506" lon="3.76957">
        <ele>211</ele>
        <time>2019-04-05T07:20:42Z</time>
      </trkpt>
      <trkpt lat="47.4651" lon="3.76959">
        <ele>211</ele>
        <time>2019-04-05T07:20:47Z</time>
      </trkpt>
      <trkpt lat="47.46514" lon="3.76961">
        <ele>213</ele>
        <time>2019-04-05T07:20:51Z</time>
      </trkpt>
      <trkpt lat="47.46517" lon="3.76962">
        <ele>214</ele>
        <time>2019-04-05T07:20:56Z</time>
      </trkpt>
      <trkpt lat="47.46519" lon="3.76964">
        <ele>214</ele>
        <time>2019-04-05T07:21:05Z</time>
      </trkpt>
      <trkpt lat="47.46522" lon="3.76972">
        <ele>214</ele>
        <time>2019-04-05T07:21:15Z</time>
      </trkpt>
      <trkpt lat="47.46525" lon="3.76977">
        <ele>214</ele>
        <time>2019-04-05T07:21:19Z</time>
      </trkpt>
      <trkpt lat="47.46529" lon="3.76983">
        <ele>215</ele>
        <time>2019-04-05T07:21:23Z</time>
      </trkpt>
      <trkpt lat="47.4653" lon="3.76985">
        <ele>215</ele>
        <time>2019-04-05T07:21:25Z</time>
      </trkpt>
      <trkpt lat="47.46534" lon="3.7699">
        <ele>215</ele>
        <time>2019-04-05T07:21:30Z</time>
      </trkpt>
      <trkpt lat="47.46538" lon="3.76997">
        <ele>216</ele>
        <time>2019-04-05T07:21:36Z</time>
      </trkpt>
      <trkpt lat="47.46541" lon="3.77003">
        <ele>216</ele>
        <time>2019-04-05T07:21:41Z</time>
      </trkpt>
      <trkpt lat="47.46544" lon="3.77009">
        <ele>216</ele>
        <time>2019-04-05T07:21:46Z</time>
      </trkpt>
      <trkpt lat="47.46548" lon="3.77013">
        <ele>217</ele>
        <time>2019-04-05T07:21:51Z</time>
      </trkpt>
      <trkpt lat="47.46551" lon="3.77019">
        <ele>218</ele>
        <time>2019-04-05T07:21:56Z</time>
      </trkpt>
      <trkpt lat="47.46555" lon="3.77025">
        <ele>218</ele>
        <time>2019-04-05T07:22:01Z</time>
      </trkpt>
      <trkpt lat="47.46556" lon="3.77028">
        <ele>218</ele>
        <time>2019-04-05T07:22:04Z</time>
      </trkpt>
      <trkpt lat="47.46559" lon="3.77034">
        <ele>217</ele>
        <time>2019-04-05T07:22:08Z</time>
      </trkpt>
      <trkpt lat="47.46563" lon="3.77038">
        <ele>218</ele>
        <time>2019-04-05T07:22:15Z</time>
      </trkpt>
      <trkpt lat="47.46565" lon="3.77041">
        <ele>218</ele>
        <time>2019-04-05T07:22:19Z</time>
      </trkpt>
      <trkpt lat="47.46569" lon="3.77045">
        <ele>219</ele>
        <time>2019-04-05T07:22:27Z</time>
      </trkpt>
      <trkpt lat="47.46574" lon="3.7705">
        <ele>220</ele>
        <time>2019-04-05T07:22:34Z</time>
      </trkpt>
      <trkpt lat="47.46577" lon="3.77057">
        <ele>220</ele>
        <time>2019-04-05T07:22:42Z</time>
      </trkpt>
      <trkpt lat="47.46582" lon="3.77063">
        <ele>221</ele>
        <time>2019-04-05T07:22:49Z</time>
      </trkpt>
      <trkpt lat="47.46586" lon="3.77068">
        <ele>221</ele>
        <time>2019-04-05T07:22:55Z</time>
      </trkpt>
      <trkpt lat="47.46589" lon="3.77072">
        <ele>222</ele>
        <time>2019-04-05T07:22:59Z</time>
      </trkpt>
      <trkpt lat="47.46593" lon="3.77077">
        <ele>223</ele>
        <time>2019-04-05T07:23:03Z</time>
      </trkpt>
      <trkpt lat="47.46596" lon="3.77082">
        <ele>222</ele>
        <time>2019-04-05T07:23:07Z</time>
      </trkpt>
      <trkpt lat="47.46599" lon="3.77088">
        <ele>223</ele>
        <time>2019-04-05T07:23:12Z</time>
      </trkpt>
      <trkpt lat="47.46602" lon="3.77094">
        <ele>224</ele>
        <time>2019-04-05T07:23:17Z</time>
      </trkpt>
      <trkpt lat="47.46604" lon="3.77097">
        <ele>224</ele>
        <time>2019-04-05T07:23:20Z</time>
      </trkpt>
      <trkpt lat="47.46609" lon="3.77103">
        <ele>226</ele>
        <time>2019-04-05T07:23:26Z</time>
      </trkpt>
      <trkpt lat="47.46611" lon="3.77106">
        <ele>226</ele>
        <time>2019-04-05T07:23:29Z</time>
      </trkpt>
      <trkpt lat="47.46614" lon="3.77109">
        <ele>226</ele>
        <time>2019-04-05T07:23:32Z</time>
      </trkpt>
      <trkpt lat="47.46617" lon="3.77115">
        <ele>227</ele>
        <time>2019-04-05T07:23:37Z</time>
      </trkpt>
      <trkpt lat="47.4662" lon="3.7712">
        <ele>227</ele>
        <time>2019-04-05T07:23:41Z</time>
      </trkpt>
      <trkpt lat="47.46623" lon="3.77124">
        <ele>227</ele>
        <time>2019-04-05T07:23:44Z</time>
      </trkpt>
      <trkpt lat="47.46626" lon="3.77131">
        <ele>227</ele>
        <time>2019-04-05T07:23:50Z</time>
      </trkpt>
      <trkpt lat="47.46628" lon="3.77135">
        <ele>228</ele>
        <time>2019-04-05T07:23:53Z</time>
      </trkpt>
      <trkpt lat="47.46631" lon="3.7714">
        <ele>228</ele>
        <time>2019-04-05T07:23:58Z</time>
      </trkpt>
      <trkpt lat="47.46633" lon="3.77146">
        <ele>229</ele>
        <time>2019-04-05T07:24:03Z</time>
      </trkpt>
      <trkpt lat="47.46638" lon="3.77151">
        <ele>230</ele>
        <time>2019-04-05T07:24:08Z</time>
      </trkpt>
      <trkpt lat="47.46641" lon="3.77156">
        <ele>230</ele>
        <time>2019-04-05T07:24:13Z</time>
      </trkpt>
      <trkpt lat="47.46644" lon="3.77162">
        <ele>231</ele>
        <time>2019-04-05T07:24:17Z</time>
      </trkpt>
      <trkpt lat="47.46646" lon="3.77169">
        <ele>231</ele>
        <time>2019-04-05T07:24:22Z</time>
      </trkpt>
      <trkpt lat="47.46649" lon="3.77175">
        <ele>232</ele>
        <time>2019-04-05T07:24:28Z</time>
      </trkpt>
      <trkpt lat="47.46653" lon="3.77181">
        <ele>233</ele>
        <time>2019-04-05T07:24:33Z</time>
      </trkpt>
      <trkpt lat="47.46654" lon="3.77188">
        <ele>233</ele>
        <time>2019-04-05T07:24:39Z</time>
      </trkpt>
      <trkpt lat="47.46657" lon="3.77195">
        <ele>234</ele>
        <time>2019-04-05T07:24:45Z</time>
      </trkpt>
      <trkpt lat="47.46659" lon="3.77198">
        <ele>235</ele>
        <time>2019-04-05T07:24:48Z</time>
      </trkpt>
      <trkpt lat="47.46661" lon="3.77205">
        <ele>236</ele>
        <time>2019-04-05T07:24:53Z</time>
      </trkpt>
      <trkpt lat="47.46662" lon="3.77209">
        <ele>237</ele>
        <time>2019-04-05T07:24:56Z</time>
      </trkpt>
      <trkpt lat="47.46665" lon="3.77218">
        <ele>237</ele>
        <time>2019-04-05T07:25:04Z</time>
      </trkpt>
      <trkpt lat="47.46667" lon="3.77221">
        <ele>237</ele>
        <time>2019-04-05T07:25:06Z</time>
      </trkpt>
      <trkpt lat="47.4667" lon="3.77225">
        <ele>238</ele>
        <time>2019-04-05T07:25:12Z</time>
      </trkpt>
      <trkpt lat="47.46674" lon="3.7723">
        <ele>240</ele>
        <time>2019-04-05T07:25:17Z</time>
      </trkpt>
      <trkpt lat="47.46676" lon="3.77234">
        <ele>240</ele>
        <time>2019-04-05T07:25:20Z</time>
      </trkpt>
      <trkpt lat="47.4668" lon="3.77238">
        <ele>240</ele>
        <time>2019-04-05T07:25:26Z</time>
      </trkpt>
      <trkpt lat="47.46683" lon="3.77244">
        <ele>240</ele>
        <time>2019-04-05T07:25:30Z</time>
      </trkpt>
      <trkpt lat="47.46688" lon="3.77247">
        <ele>241</ele>
        <time>2019-04-05T07:25:35Z</time>
      </trkpt>
      <trkpt lat="47.46691" lon="3.77252">
        <ele>243</ele>
        <time>2019-04-05T07:25:40Z</time>
      </trkpt>
      <trkpt lat="47.46694" lon="3.77257">
        <ele>243</ele>
        <time>2019-04-05T07:25:44Z</time>
      </trkpt>
      <trkpt lat="47.46698" lon="3.77261">
        <ele>244</ele>
        <time>2019-04-05T07:25:49Z</time>
      </trkpt>
      <trkpt lat="47.46701" lon="3.77267">
        <ele>243</ele>
        <time>2019-04-05T07:25:53Z</time>
      </trkpt>
      <trkpt lat="47.46705" lon="3.77272">
        <ele>244</ele>
        <time>2019-04-05T07:25:58Z</time>
      </trkpt>
      <trkpt lat="47.46709" lon="3.7728">
        <ele>245</ele>
        <time>2019-04-05T07:26:06Z</time>
      </trkpt>
      <trkpt lat="47.46709" lon="3.7728">
        <ele>246</ele>
        <time>2019-04-05T07:26:14Z</time>
      </trkpt>
      <trkpt lat="47.46713" lon="3.77284">
        <ele>248</ele>
        <time>2019-04-05T07:28:52Z</time>
      </trkpt>
      <trkpt lat="47.46717" lon="3.77289">
        <ele>248</ele>
        <time>2019-04-05T07:28:57Z</time>
      </trkpt>
      <trkpt lat="47.46719" lon="3.77294">
        <ele>249</ele>
        <time>2019-04-05T07:29:01Z</time>
      </trkpt>
      <trkpt lat="47.46722" lon="3.77298">
        <ele>249</ele>
        <time>2019-04-05T07:29:04Z</time>
      </trkpt>
      <trkpt lat="47.46724" lon="3.77301">
        <ele>249</ele>
        <time>2019-04-05T07:29:06Z</time>
      </trkpt>
      <trkpt lat="47.46727" lon="3.77307">
        <ele>249</ele>
        <time>2019-04-05T07:29:11Z</time>
      </trkpt>
      <trkpt lat="47.46728" lon="3.7731">
        <ele>249</ele>
        <time>2019-04-05T07:29:14Z</time>
      </trkpt>
      <trkpt lat="47.46731" lon="3.77315">
        <ele>249</ele>
        <time>2019-04-05T07:29:18Z</time>
      </trkpt>
      <trkpt lat="47.46733" lon="3.77318">
        <ele>249</ele>
        <time>2019-04-05T07:29:20Z</time>
      </trkpt>
      <trkpt lat="47.46736" lon="3.77323">
        <ele>247</ele>
        <time>2019-04-05T07:29:23Z</time>
      </trkpt>
      <trkpt lat="47.4674" lon="3.77327">
        <ele>246</ele>
        <time>2019-04-05T07:29:27Z</time>
      </trkpt>
      <trkpt lat="47.46743" lon="3.77333">
        <ele>247</ele>
        <time>2019-04-05T07:29:32Z</time>
      </trkpt>
      <trkpt lat="47.46744" lon="3.77338">
        <ele>247</ele>
        <time>2019-04-05T07:29:35Z</time>
      </trkpt>
      <trkpt lat="47.46749" lon="3.77343">
        <ele>249</ele>
        <time>2019-04-05T07:29:39Z</time>
      </trkpt>
      <trkpt lat="47.46752" lon="3.77349">
        <ele>250</ele>
        <time>2019-04-05T07:29:44Z</time>
      </trkpt>
      <trkpt lat="47.46755" lon="3.77353">
        <ele>250</ele>
        <time>2019-04-05T07:29:48Z</time>
      </trkpt>
      <trkpt lat="47.46759" lon="3.77357">
        <ele>249</ele>
        <time>2019-04-05T07:29:52Z</time>
      </trkpt>
      <trkpt lat="47.46762" lon="3.77364">
        <ele>250</ele>
        <time>2019-04-05T07:29:56Z</time>
      </trkpt>
      <trkpt lat="47.46766" lon="3.77369">
        <ele>250</ele>
        <time>2019-04-05T07:30:00Z</time>
      </trkpt>
      <trkpt lat="47.46768" lon="3.77374">
        <ele>250</ele>
        <time>2019-04-05T07:30:03Z</time>
      </trkpt>
      <trkpt lat="47.46769" lon="3.77376">
        <ele>250</ele>
        <time>2019-04-05T07:30:05Z</time>
      </trkpt>
      <trkpt lat="47.46772" lon="3.77382">
        <ele>250</ele>
        <time>2019-04-05T07:30:09Z</time>
      </trkpt>
      <trkpt lat="47.46776" lon="3.77387">
        <ele>250</ele>
        <time>2019-04-05T07:30:16Z</time>
      </trkpt>
      <trkpt lat="47.46779" lon="3.77394">
        <ele>250</ele>
        <time>2019-04-05T07:30:20Z</time>
      </trkpt>
      <trkpt lat="47.46781" lon="3.77397">
        <ele>250</ele>
        <time>2019-04-05T07:30:22Z</time>
      </trkpt>
      <trkpt lat="47.46784" lon="3.77403">
        <ele>251</ele>
        <time>2019-04-05T07:30:26Z</time>
      </trkpt>
      <trkpt lat="47.46789" lon="3.77409">
        <ele>251</ele>
        <time>2019-04-05T07:30:31Z</time>
      </trkpt>
      <trkpt lat="47.46792" lon="3.77413">
        <ele>251</ele>
        <time>2019-04-05T07:30:34Z</time>
      </trkpt>
      <trkpt lat="47.46796" lon="3.77421">
        <ele>252</ele>
        <time>2019-04-05T07:30:40Z</time>
      </trkpt>
      <trkpt lat="47.468" lon="3.77427">
        <ele>251</ele>
        <time>2019-04-05T07:30:46Z</time>
      </trkpt>
      <trkpt lat="47.46802" lon="3.77429">
        <ele>250</ele>
        <time>2019-04-05T07:30:48Z</time>
      </trkpt>
      <trkpt lat="47.46806" lon="3.77436">
        <ele>250</ele>
        <time>2019-04-05T07:30:53Z</time>
      </trkpt>
      <trkpt lat="47.46808" lon="3.77441">
        <ele>250</ele>
        <time>2019-04-05T07:30:56Z</time>
      </trkpt>
      <trkpt lat="47.46812" lon="3.77446">
        <ele>250</ele>
        <time>2019-04-05T07:31:00Z</time>
      </trkpt>
      <trkpt lat="47.46815" lon="3.77448">
        <ele>249</ele>
        <time>2019-04-05T07:31:03Z</time>
      </trkpt>
      <trkpt lat="47.46819" lon="3.77451">
        <ele>249</ele>
        <time>2019-04-05T07:31:08Z</time>
      </trkpt>
      <trkpt lat="47.46824" lon="3.77453">
        <ele>249</ele>
        <time>2019-04-05T07:31:12Z</time>
      </trkpt>
      <trkpt lat="47.46828" lon="3.77457">
        <ele>249</ele>
        <time>2019-04-05T07:31:16Z</time>
      </trkpt>
      <trkpt lat="47.46832" lon="3.7746">
        <ele>248</ele>
        <time>2019-04-05T07:31:20Z</time>
      </trkpt>
      <trkpt lat="47.46834" lon="3.77462">
        <ele>249</ele>
        <time>2019-04-05T07:31:22Z</time>
      </trkpt>
      <trkpt lat="47.46837" lon="3.77465">
        <ele>249</ele>
        <time>2019-04-05T07:31:24Z</time>
      </trkpt>
      <trkpt lat="47.46839" lon="3.77467">
        <ele>249</ele>
        <time>2019-04-05T07:31:26Z</time>
      </trkpt>
      <trkpt lat="47.46843" lon="3.7747">
        <ele>249</ele>
        <time>2019-04-05T07:31:30Z</time>
      </trkpt>
      <trkpt lat="47.46848" lon="3.77472">
        <ele>250</ele>
        <time>2019-04-05T07:31:34Z</time>
      </trkpt>
      <trkpt lat="47.4685" lon="3.77473">
        <ele>251</ele>
        <time>2019-04-05T07:31:36Z</time>
      </trkpt>
      <trkpt lat="47.46853" lon="3.77474">
        <ele>251</ele>
        <time>2019-04-05T07:31:38Z</time>
      </trkpt>
      <trkpt lat="47.46858" lon="3.77477">
        <ele>250</ele>
        <time>2019-04-05T07:31:42Z</time>
      </trkpt>
      <trkpt lat="47.46862" lon="3.77481">
        <ele>250</ele>
        <time>2019-04-05T07:31:46Z</time>
      </trkpt>
      <trkpt lat="47.46867" lon="3.77484">
        <ele>249</ele>
        <time>2019-04-05T07:31:52Z</time>
      </trkpt>
      <trkpt lat="47.46872" lon="3.77487">
        <ele>249</ele>
        <time>2019-04-05T07:31:57Z</time>
      </trkpt>
      <trkpt lat="47.46875" lon="3.77489">
        <ele>249</ele>
        <time>2019-04-05T07:32:00Z</time>
      </trkpt>
      <trkpt lat="47.46878" lon="3.7749">
        <ele>248</ele>
        <time>2019-04-05T07:32:02Z</time>
      </trkpt>
      <trkpt lat="47.46882" lon="3.77492">
        <ele>248</ele>
        <time>2019-04-05T07:32:06Z</time>
      </trkpt>
      <trkpt lat="47.46887" lon="3.77495">
        <ele>248</ele>
        <time>2019-04-05T07:32:11Z</time>
      </trkpt>
      <trkpt lat="47.46893" lon="3.775">
        <ele>248</ele>
        <time>2019-04-05T07:32:17Z</time>
      </trkpt>
      <trkpt lat="47.46895" lon="3.77502">
        <ele>248</ele>
        <time>2019-04-05T07:32:19Z</time>
      </trkpt>
      <trkpt lat="47.46897" lon="3.77504">
        <ele>248</ele>
        <time>2019-04-05T07:32:21Z</time>
      </trkpt>
      <trkpt lat="47.469" lon="3.77506">
        <ele>248</ele>
        <time>2019-04-05T07:32:23Z</time>
      </trkpt>
      <trkpt lat="47.46902" lon="3.77509">
        <ele>248</ele>
        <time>2019-04-05T07:32:25Z</time>
      </trkpt>
      <trkpt lat="47.46907" lon="3.77515">
        <ele>248</ele>
        <time>2019-04-05T07:32:32Z</time>
      </trkpt>
      <trkpt lat="47.46911" lon="3.77521">
        <ele>247</ele>
        <time>2019-04-05T07:32:37Z</time>
      </trkpt>
      <trkpt lat="47.46915" lon="3.77525">
        <ele>246</ele>
        <time>2019-04-05T07:32:41Z</time>
      </trkpt>
      <trkpt lat="47.46918" lon="3.77531">
        <ele>246</ele>
        <time>2019-04-05T07:32:45Z</time>
      </trkpt>
      <trkpt lat="47.4692" lon="3.77534">
        <ele>246</ele>
        <time>2019-04-05T07:32:47Z</time>
      </trkpt>
      <trkpt lat="47.46924" lon="3.77538">
        <ele>247</ele>
        <time>2019-04-05T07:32:51Z</time>
      </trkpt>
      <trkpt lat="47.46926" lon="3.77541">
        <ele>246</ele>
        <time>2019-04-05T07:32:54Z</time>
      </trkpt>
      <trkpt lat="47.46928" lon="3.77543">
        <ele>246</ele>
        <time>2019-04-05T07:32:56Z</time>
      </trkpt>
      <trkpt lat="47.46933" lon="3.77547">
        <ele>246</ele>
        <time>2019-04-05T07:33:01Z</time>
      </trkpt>
      <trkpt lat="47.46936" lon="3.7755">
        <ele>246</ele>
        <time>2019-04-05T07:33:04Z</time>
      </trkpt>
      <trkpt lat="47.46941" lon="3.77555">
        <ele>246</ele>
        <time>2019-04-05T07:33:09Z</time>
      </trkpt>
      <trkpt lat="47.46943" lon="3.77557">
        <ele>246</ele>
        <time>2019-04-05T07:33:11Z</time>
      </trkpt>
      <trkpt lat="47.46946" lon="3.77562">
        <ele>246</ele>
        <time>2019-04-05T07:33:15Z</time>
      </trkpt>
      <trkpt lat="47.46948" lon="3.77564">
        <ele>246</ele>
        <time>2019-04-05T07:33:17Z</time>
      </trkpt>
      <trkpt lat="47.46951" lon="3.7757">
        <ele>246</ele>
        <time>2019-04-05T07:33:20Z</time>
      </trkpt>
      <trkpt lat="47.46955" lon="3.77574">
        <ele>247</ele>
        <time>2019-04-05T07:33:26Z</time>
      </trkpt>
      <trkpt lat="47.46959" lon="3.77579">
        <ele>248</ele>
        <time>2019-04-05T07:33:31Z</time>
      </trkpt>
      <trkpt lat="47.46964" lon="3.77588">
        <ele>247</ele>
        <time>2019-04-05T07:33:36Z</time>
      </trkpt>
      <trkpt lat="47.46966" lon="3.77591">
        <ele>246</ele>
        <time>2019-04-05T07:33:38Z</time>
      </trkpt>
      <trkpt lat="47.46969" lon="3.77595">
        <ele>247</ele>
        <time>2019-04-05T07:33:41Z</time>
      </trkpt>
      <trkpt lat="47.4697" lon="3.77597">
        <ele>246</ele>
        <time>2019-04-05T07:33:43Z</time>
      </trkpt>
      <trkpt lat="47.46973" lon="3.77603">
        <ele>245</ele>
        <time>2019-04-05T07:33:47Z</time>
      </trkpt>
      <trkpt lat="47.46976" lon="3.77607">
        <ele>245</ele>
        <time>2019-04-05T07:33:50Z</time>
      </trkpt>
      <trkpt lat="47.46981" lon="3.77616">
        <ele>246</ele>
        <time>2019-04-05T07:33:56Z</time>
      </trkpt>
      <trkpt lat="47.46983" lon="3.7762">
        <ele>246</ele>
        <time>2019-04-05T07:33:59Z</time>
      </trkpt>
      <trkpt lat="47.46985" lon="3.77623">
        <ele>246</ele>
        <time>2019-04-05T07:34:01Z</time>
      </trkpt>
      <trkpt lat="47.46988" lon="3.77634">
        <ele>247</ele>
        <time>2019-04-05T07:34:07Z</time>
      </trkpt>
      <trkpt lat="47.46992" lon="3.77639">
        <ele>247</ele>
        <time>2019-04-05T07:34:11Z</time>
      </trkpt>
      <trkpt lat="47.46994" lon="3.77641">
        <ele>246</ele>
        <time>2019-04-05T07:34:13Z</time>
      </trkpt>
      <trkpt lat="47.46996" lon="3.77647">
        <ele>246</ele>
        <time>2019-04-05T07:34:18Z</time>
      </trkpt>
      <trkpt lat="47.46999" lon="3.77655">
        <ele>247</ele>
        <time>2019-04-05T07:34:23Z</time>
      </trkpt>
      <trkpt lat="47.47" lon="3.77658">
        <ele>247</ele>
        <time>2019-04-05T07:34:25Z</time>
      </trkpt>
      <trkpt lat="47.47001" lon="3.77663">
        <ele>247</ele>
        <time>2019-04-05T07:34:28Z</time>
      </trkpt>
      <trkpt lat="47.47005" lon="3.77669">
        <ele>246</ele>
        <time>2019-04-05T07:34:33Z</time>
      </trkpt>
      <trkpt lat="47.47009" lon="3.77675">
        <ele>246</ele>
        <time>2019-04-05T07:34:38Z</time>
      </trkpt>
      <trkpt lat="47.47011" lon="3.7768">
        <ele>246</ele>
        <time>2019-04-05T07:34:42Z</time>
      </trkpt>
      <trkpt lat="47.47013" lon="3.77684">
        <ele>247</ele>
        <time>2019-04-05T07:34:45Z</time>
      </trkpt>
      <trkpt lat="47.47014" lon="3.77687">
        <ele>246</ele>
        <time>2019-04-05T07:34:47Z</time>
      </trkpt>
      <trkpt lat="47.47019" lon="3.77694">
        <ele>245</ele>
        <time>2019-04-05T07:34:51Z</time>
      </trkpt>
      <trkpt lat="47.47021" lon="3.77697">
        <ele>245</ele>
        <time>2019-04-05T07:34:53Z</time>
      </trkpt>
      <trkpt lat="47.47025" lon="3.77701">
        <ele>245</ele>
        <time>2019-04-05T07:34:56Z</time>
      </trkpt>
      <trkpt lat="47.4703" lon="3.77706">
        <ele>245</ele>
        <time>2019-04-05T07:35:02Z</time>
      </trkpt>
      <trkpt lat="47.47036" lon="3.77709">
        <ele>246</ele>
        <time>2019-04-05T07:35:06Z</time>
      </trkpt>
      <trkpt lat="47.47041" lon="3.77713">
        <ele>245</ele>
        <time>2019-04-05T07:35:10Z</time>
      </trkpt>
      <trkpt lat="47.47046" lon="3.77714">
        <ele>245</ele>
        <time>2019-04-05T07:35:14Z</time>
      </trkpt>
      <trkpt lat="47.47053" lon="3.77713">
        <ele>247</ele>
        <time>2019-04-05T07:35:20Z</time>
      </trkpt>
      <trkpt lat="47.47056" lon="3.77712">
        <ele>247</ele>
        <time>2019-04-05T07:35:22Z</time>
      </trkpt>
      <trkpt lat="47.47058" lon="3.77712">
        <ele>247</ele>
        <time>2019-04-05T07:35:24Z</time>
      </trkpt>
      <trkpt lat="47.47061" lon="3.77711">
        <ele>247</ele>
        <time>2019-04-05T07:35:26Z</time>
      </trkpt>
      <trkpt lat="47.47066" lon="3.77713">
        <ele>246</ele>
        <time>2019-04-05T07:35:30Z</time>
      </trkpt>
      <trkpt lat="47.47068" lon="3.77714">
        <ele>246</ele>
        <time>2019-04-05T07:35:32Z</time>
      </trkpt>
      <trkpt lat="47.47072" lon="3.77714">
        <ele>246</ele>
        <time>2019-04-05T07:35:35Z</time>
      </trkpt>
      <trkpt lat="47.47076" lon="3.77716">
        <ele>247</ele>
        <time>2019-04-05T07:35:39Z</time>
      </trkpt>
      <trkpt lat="47.47081" lon="3.77716">
        <ele>248</ele>
        <time>2019-04-05T07:35:43Z</time>
      </trkpt>
      <trkpt lat="47.47083" lon="3.77716">
        <ele>248</ele>
        <time>2019-04-05T07:35:45Z</time>
      </trkpt>
      <trkpt lat="47.47091" lon="3.77719">
        <ele>248</ele>
        <time>2019-04-05T07:35:51Z</time>
      </trkpt>
      <trkpt lat="47.47094" lon="3.7772">
        <ele>246</ele>
        <time>2019-04-05T07:35:54Z</time>
      </trkpt>
      <trkpt lat="47.47099" lon="3.77719">
        <ele>244</ele>
        <time>2019-04-05T07:35:58Z</time>
      </trkpt>
      <trkpt lat="47.47104" lon="3.77719">
        <ele>242</ele>
        <time>2019-04-05T07:36:02Z</time>
      </trkpt>
      <trkpt lat="47.47108" lon="3.77714">
        <ele>242</ele>
        <time>2019-04-05T07:36:06Z</time>
      </trkpt>
      <trkpt lat="47.4711" lon="3.77712">
        <ele>242</ele>
        <time>2019-04-05T07:36:09Z</time>
      </trkpt>
      <trkpt lat="47.47114" lon="3.77709">
        <ele>241</ele>
        <time>2019-04-05T07:36:13Z</time>
      </trkpt>
      <trkpt lat="47.47119" lon="3.77705">
        <ele>241</ele>
        <time>2019-04-05T07:36:17Z</time>
      </trkpt>
      <trkpt lat="47.47125" lon="3.77702">
        <ele>240</ele>
        <time>2019-04-05T07:36:22Z</time>
      </trkpt>
      <trkpt lat="47.47128" lon="3.777">
        <ele>238</ele>
        <time>2019-04-05T07:36:26Z</time>
      </trkpt>
      <trkpt lat="47.47133" lon="3.77698">
        <ele>236</ele>
        <time>2019-04-05T07:36:31Z</time>
      </trkpt>
      <trkpt lat="47.47138" lon="3.77695">
        <ele>235</ele>
        <time>2019-04-05T07:36:36Z</time>
      </trkpt>
      <trkpt lat="47.47143" lon="3.77694">
        <ele>235</ele>
        <time>2019-04-05T07:36:40Z</time>
      </trkpt>
      <trkpt lat="47.47148" lon="3.77691">
        <ele>234</ele>
        <time>2019-04-05T07:36:46Z</time>
      </trkpt>
      <trkpt lat="47.47154" lon="3.7769">
        <ele>233</ele>
        <time>2019-04-05T07:36:50Z</time>
      </trkpt>
      <trkpt lat="47.47159" lon="3.77691">
        <ele>233</ele>
        <time>2019-04-05T07:36:55Z</time>
      </trkpt>
      <trkpt lat="47.47164" lon="3.77688">
        <ele>232</ele>
        <time>2019-04-05T07:36:59Z</time>
      </trkpt>
      <trkpt lat="47.47168" lon="3.77681">
        <ele>232</ele>
        <time>2019-04-05T07:37:04Z</time>
      </trkpt>
      <trkpt lat="47.4717" lon="3.77678">
        <ele>231</ele>
        <time>2019-04-05T07:37:06Z</time>
      </trkpt>
      <trkpt lat="47.47171" lon="3.77674">
        <ele>231</ele>
        <time>2019-04-05T07:37:08Z</time>
      </trkpt>
      <trkpt lat="47.47172" lon="3.77666">
        <ele>232</ele>
        <time>2019-04-05T07:37:12Z</time>
      </trkpt>
      <trkpt lat="47.47174" lon="3.77659">
        <ele>232</ele>
        <time>2019-04-05T07:37:17Z</time>
      </trkpt>
      <trkpt lat="47.47178" lon="3.77655">
        <ele>230</ele>
        <time>2019-04-05T07:37:23Z</time>
      </trkpt>
      <trkpt lat="47.47183" lon="3.77659">
        <ele>232</ele>
        <time>2019-04-05T07:37:30Z</time>
      </trkpt>
      <trkpt lat="47.47188" lon="3.77665">
        <ele>234</ele>
        <time>2019-04-05T07:37:36Z</time>
      </trkpt>
      <trkpt lat="47.4719" lon="3.77667">
        <ele>234</ele>
        <time>2019-04-05T07:37:40Z</time>
      </trkpt>
      <trkpt lat="47.47193" lon="3.77672">
        <ele>233</ele>
        <time>2019-04-05T07:37:44Z</time>
      </trkpt>
      <trkpt lat="47.47196" lon="3.77676">
        <ele>234</ele>
        <time>2019-04-05T07:37:47Z</time>
      </trkpt>
      <trkpt lat="47.47198" lon="3.77679">
        <ele>233</ele>
        <time>2019-04-05T07:37:50Z</time>
      </trkpt>
      <trkpt lat="47.472" lon="3.77681">
        <ele>233</ele>
        <time>2019-04-05T07:37:52Z</time>
      </trkpt>
      <trkpt lat="47.47202" lon="3.77684">
        <ele>233</ele>
        <time>2019-04-05T07:37:55Z</time>
      </trkpt>
      <trkpt lat="47.47206" lon="3.7769">
        <ele>234</ele>
        <time>2019-04-05T07:38:01Z</time>
      </trkpt>
      <trkpt lat="47.47208" lon="3.77697">
        <ele>235</ele>
        <time>2019-04-05T07:38:06Z</time>
      </trkpt>
      <trkpt lat="47.47211" lon="3.77705">
        <ele>235</ele>
        <time>2019-04-05T07:38:10Z</time>
      </trkpt>
      <trkpt lat="47.47215" lon="3.77708">
        <ele>236</ele>
        <time>2019-04-05T07:38:13Z</time>
      </trkpt>
      <trkpt lat="47.47219" lon="3.77713">
        <ele>236</ele>
        <time>2019-04-05T07:38:16Z</time>
      </trkpt>
      <trkpt lat="47.47221" lon="3.77716">
        <ele>236</ele>
        <time>2019-04-05T07:38:18Z</time>
      </trkpt>
      <trkpt lat="47.47224" lon="3.77722">
        <ele>237</ele>
        <time>2019-04-05T07:38:23Z</time>
      </trkpt>
      <trkpt lat="47.47229" lon="3.77727">
        <ele>236</ele>
        <time>2019-04-05T07:38:27Z</time>
      </trkpt>
      <trkpt lat="47.47232" lon="3.7773">
        <ele>239</ele>
        <time>2019-04-05T07:38:33Z</time>
      </trkpt>
      <trkpt lat="47.47237" lon="3.77733">
        <ele>239</ele>
        <time>2019-04-05T07:38:37Z</time>
      </trkpt>
      <trkpt lat="47.4724" lon="3.77738">
        <ele>240</ele>
        <time>2019-04-05T07:38:42Z</time>
      </trkpt>
      <trkpt lat="47.47245" lon="3.77742">
        <ele>242</ele>
        <time>2019-04-05T07:38:51Z</time>
      </trkpt>
      <trkpt lat="47.4725" lon="3.77743">
        <ele>243</ele>
        <time>2019-04-05T07:38:56Z</time>
      </trkpt>
      <trkpt lat="47.47252" lon="3.77744">
        <ele>242</ele>
        <time>2019-04-05T07:38:58Z</time>
      </trkpt>
      <trkpt lat="47.47256" lon="3.77745">
        <ele>242</ele>
        <time>2019-04-05T07:39:01Z</time>
      </trkpt>
      <trkpt lat="47.4726" lon="3.77744">
        <ele>243</ele>
        <time>2019-04-05T07:39:05Z</time>
      </trkpt>
      <trkpt lat="47.47264" lon="3.77743">
        <ele>243</ele>
        <time>2019-04-05T07:39:08Z</time>
      </trkpt>
      <trkpt lat="47.47266" lon="3.77743">
        <ele>242</ele>
        <time>2019-04-05T07:39:10Z</time>
      </trkpt>
      <trkpt lat="47.4727" lon="3.77742">
        <ele>242</ele>
        <time>2019-04-05T07:39:13Z</time>
      </trkpt>
      <trkpt lat="47.47275" lon="3.77741">
        <ele>239</ele>
        <time>2019-04-05T07:39:18Z</time>
      </trkpt>
      <trkpt lat="47.4728" lon="3.77738">
        <ele>239</ele>
        <time>2019-04-05T07:39:23Z</time>
      </trkpt>
      <trkpt lat="47.47285" lon="3.77734">
        <ele>240</ele>
        <time>2019-04-05T07:39:28Z</time>
      </trkpt>
      <trkpt lat="47.47291" lon="3.77734">
        <ele>239</ele>
        <time>2019-04-05T07:39:33Z</time>
      </trkpt>
      <trkpt lat="47.47295" lon="3.77733">
        <ele>239</ele>
        <time>2019-04-05T07:39:37Z</time>
      </trkpt>
      <trkpt lat="47.47302" lon="3.7773">
        <ele>242</ele>
        <time>2019-04-05T07:39:43Z</time>
      </trkpt>
      <trkpt lat="47.47304" lon="3.7773">
        <ele>242</ele>
        <time>2019-04-05T07:39:45Z</time>
      </trkpt>
      <trkpt lat="47.4731" lon="3.77731">
        <ele>242</ele>
        <time>2019-04-05T07:39:49Z</time>
      </trkpt>
      <trkpt lat="47.47313" lon="3.77731">
        <ele>242</ele>
        <time>2019-04-05T07:39:52Z</time>
      </trkpt>
      <trkpt lat="47.47318" lon="3.77733">
        <ele>242</ele>
        <time>2019-04-05T07:39:57Z</time>
      </trkpt>
      <trkpt lat="47.47321" lon="3.77734">
        <ele>242</ele>
        <time>2019-04-05T07:40:00Z</time>
      </trkpt>
      <trkpt lat="47.47324" lon="3.77738">
        <ele>242</ele>
        <time>2019-04-05T07:40:05Z</time>
      </trkpt>
      <trkpt lat="47.47328" lon="3.77743">
        <ele>241</ele>
        <time>2019-04-05T07:40:09Z</time>
      </trkpt>
      <trkpt lat="47.4733" lon="3.77745">
        <ele>242</ele>
        <time>2019-04-05T07:40:12Z</time>
      </trkpt>
      <trkpt lat="47.47332" lon="3.77748">
        <ele>242</ele>
        <time>2019-04-05T07:40:15Z</time>
      </trkpt>
      <trkpt lat="47.47336" lon="3.77753">
        <ele>242</ele>
        <time>2019-04-05T07:40:19Z</time>
      </trkpt>
      <trkpt lat="47.4734" lon="3.77759">
        <ele>242</ele>
        <time>2019-04-05T07:40:24Z</time>
      </trkpt>
      <trkpt lat="47.47344" lon="3.77764">
        <ele>242</ele>
        <time>2019-04-05T07:40:29Z</time>
      </trkpt>
      <trkpt lat="47.47346" lon="3.77767">
        <ele>242</ele>
        <time>2019-04-05T07:40:32Z</time>
      </trkpt>
      <trkpt lat="47.47348" lon="3.77769">
        <ele>242</ele>
        <time>2019-04-05T07:40:35Z</time>
      </trkpt>
      <trkpt lat="47.47351" lon="3.77774">
        <ele>242</ele>
        <time>2019-04-05T07:40:39Z</time>
      </trkpt>
      <trkpt lat="47.47355" lon="3.7778">
        <ele>242</ele>
        <time>2019-04-05T07:40:44Z</time>
      </trkpt>
      <trkpt lat="47.4736" lon="3.77787">
        <ele>242</ele>
        <time>2019-04-05T07:40:50Z</time>
      </trkpt>
      <trkpt lat="47.47364" lon="3.77793">
        <ele>243</ele>
        <time>2019-04-05T07:40:55Z</time>
      </trkpt>
      <trkpt lat="47.47366" lon="3.77796">
        <ele>243</ele>
        <time>2019-04-05T07:40:57Z</time>
      </trkpt>
      <trkpt lat="47.4737" lon="3.778">
        <ele>244</ele>
        <time>2019-04-05T07:41:01Z</time>
      </trkpt>
      <trkpt lat="47.47374" lon="3.77805">
        <ele>244</ele>
        <time>2019-04-05T07:41:05Z</time>
      </trkpt>
      <trkpt lat="47.47376" lon="3.77807">
        <ele>244</ele>
        <time>2019-04-05T07:41:07Z</time>
      </trkpt>
      <trkpt lat="47.47379" lon="3.77809">
        <ele>245</ele>
        <time>2019-04-05T07:41:10Z</time>
      </trkpt>
      <trkpt lat="47.47381" lon="3.77811">
        <ele>246</ele>
        <time>2019-04-05T07:41:12Z</time>
      </trkpt>
      <trkpt lat="47.47386" lon="3.77817">
        <ele>246</ele>
        <time>2019-04-05T07:41:17Z</time>
      </trkpt>
      <trkpt lat="47.47388" lon="3.7782">
        <ele>246</ele>
        <time>2019-04-05T07:41:20Z</time>
      </trkpt>
      <trkpt lat="47.4739" lon="3.77822">
        <ele>247</ele>
        <time>2019-04-05T07:41:22Z</time>
      </trkpt>
      <trkpt lat="47.47393" lon="3.77825">
        <ele>247</ele>
        <time>2019-04-05T07:41:26Z</time>
      </trkpt>
      <trkpt lat="47.47397" lon="3.77829">
        <ele>249</ele>
        <time>2019-04-05T07:41:29Z</time>
      </trkpt>
      <trkpt lat="47.47399" lon="3.77831">
        <ele>248</ele>
        <time>2019-04-05T07:41:31Z</time>
      </trkpt>
      <trkpt lat="47.47402" lon="3.77834">
        <ele>248</ele>
        <time>2019-04-05T07:41:33Z</time>
      </trkpt>
      <trkpt lat="47.47404" lon="3.77836">
        <ele>248</ele>
        <time>2019-04-05T07:41:35Z</time>
      </trkpt>
      <trkpt lat="47.47406" lon="3.77839">
        <ele>249</ele>
        <time>2019-04-05T07:41:38Z</time>
      </trkpt>
      <trkpt lat="47.47413" lon="3.77843">
        <ele>250</ele>
        <time>2019-04-05T07:41:44Z</time>
      </trkpt>
      <trkpt lat="47.47418" lon="3.77846">
        <ele>251</ele>
        <time>2019-04-05T07:41:48Z</time>
      </trkpt>
      <trkpt lat="47.47421" lon="3.77847">
        <ele>251</ele>
        <time>2019-04-05T07:41:50Z</time>
      </trkpt>
      <trkpt lat="47.47425" lon="3.77848">
        <ele>251</ele>
        <time>2019-04-05T07:41:54Z</time>
      </trkpt>
      <trkpt lat="47.47431" lon="3.77853">
        <ele>252</ele>
        <time>2019-04-05T07:42:01Z</time>
      </trkpt>
      <trkpt lat="47.47433" lon="3.77855">
        <ele>253</ele>
        <time>2019-04-05T07:42:03Z</time>
      </trkpt>
      <trkpt lat="47.47435" lon="3.77857">
        <ele>254</ele>
        <time>2019-04-05T07:42:05Z</time>
      </trkpt>
      <trkpt lat="47.47439" lon="3.7786">
        <ele>254</ele>
        <time>2019-04-05T07:42:09Z</time>
      </trkpt>
      <trkpt lat="47.47445" lon="3.77863">
        <ele>254</ele>
        <time>2019-04-05T07:42:13Z</time>
      </trkpt>
      <trkpt lat="47.47449" lon="3.77866">
        <ele>254</ele>
        <time>2019-04-05T07:42:17Z</time>
      </trkpt>
      <trkpt lat="47.47452" lon="3.77869">
        <ele>255</ele>
        <time>2019-04-05T07:42:21Z</time>
      </trkpt>
      <trkpt lat="47.47457" lon="3.7787">
        <ele>254</ele>
        <time>2019-04-05T07:42:25Z</time>
      </trkpt>
      <trkpt lat="47.47462" lon="3.77874">
        <ele>255</ele>
        <time>2019-04-05T07:42:31Z</time>
      </trkpt>
      <trkpt lat="47.47466" lon="3.77877">
        <ele>255</ele>
        <time>2019-04-05T07:42:34Z</time>
      </trkpt>
      <trkpt lat="47.47469" lon="3.77879">
        <ele>256</ele>
        <time>2019-04-05T07:42:38Z</time>
      </trkpt>
      <trkpt lat="47.47472" lon="3.77881">
        <ele>257</ele>
        <time>2019-04-05T07:42:41Z</time>
      </trkpt>
      <trkpt lat="47.47476" lon="3.77884">
        <ele>257</ele>
        <time>2019-04-05T07:42:45Z</time>
      </trkpt>
      <trkpt lat="47.4748" lon="3.77888">
        <ele>258</ele>
        <time>2019-04-05T07:42:49Z</time>
      </trkpt>
      <trkpt lat="47.47485" lon="3.77892">
        <ele>258</ele>
        <time>2019-04-05T07:42:53Z</time>
      </trkpt>
      <trkpt lat="47.47489" lon="3.77899">
        <ele>259</ele>
        <time>2019-04-05T07:42:58Z</time>
      </trkpt>
      <trkpt lat="47.47493" lon="3.77902">
        <ele>260</ele>
        <time>2019-04-05T07:43:01Z</time>
      </trkpt>
      <trkpt lat="47.47498" lon="3.77907">
        <ele>260</ele>
        <time>2019-04-05T07:43:05Z</time>
      </trkpt>
      <trkpt lat="47.475" lon="3.77909">
        <ele>260</ele>
        <time>2019-04-05T07:43:07Z</time>
      </trkpt>
      <trkpt lat="47.47504" lon="3.77916">
        <ele>259</ele>
        <time>2019-04-05T07:43:12Z</time>
      </trkpt>
      <trkpt lat="47.47509" lon="3.7792">
        <ele>259</ele>
        <time>2019-04-05T07:43:17Z</time>
      </trkpt>
      <trkpt lat="47.47512" lon="3.77923">
        <ele>259</ele>
        <time>2019-04-05T07:43:20Z</time>
      </trkpt>
      <trkpt lat="47.47514" lon="3.77925">
        <ele>259</ele>
        <time>2019-04-05T07:43:22Z</time>
      </trkpt>
      <trkpt lat="47.47517" lon="3.77928">
        <ele>259</ele>
        <time>2019-04-05T07:43:24Z</time>
      </trkpt>
      <trkpt lat="47.47522" lon="3.77935">
        <ele>259</ele>
        <time>2019-04-05T07:43:29Z</time>
      </trkpt>
      <trkpt lat="47.47527" lon="3.77941">
        <ele>261</ele>
        <time>2019-04-05T07:43:36Z</time>
      </trkpt>
      <trkpt lat="47.47531" lon="3.77945">
        <ele>261</ele>
        <time>2019-04-05T07:43:40Z</time>
      </trkpt>
      <trkpt lat="47.47535" lon="3.77949">
        <ele>261</ele>
        <time>2019-04-05T07:43:43Z</time>
      </trkpt>
      <trkpt lat="47.4754" lon="3.77953">
        <ele>262</ele>
        <time>2019-04-05T07:43:47Z</time>
      </trkpt>
      <trkpt lat="47.47542" lon="3.77955">
        <ele>262</ele>
        <time>2019-04-05T07:43:49Z</time>
      </trkpt>
      <trkpt lat="47.47544" lon="3.77957">
        <ele>262</ele>
        <time>2019-04-05T07:43:51Z</time>
      </trkpt>
      <trkpt lat="47.47548" lon="3.77961">
        <ele>264</ele>
        <time>2019-04-05T07:43:55Z</time>
      </trkpt>
      <trkpt lat="47.47551" lon="3.77968">
        <ele>263</ele>
        <time>2019-04-05T07:44:01Z</time>
      </trkpt>
      <trkpt lat="47.47555" lon="3.77972">
        <ele>263</ele>
        <time>2019-04-05T07:44:06Z</time>
      </trkpt>
      <trkpt lat="47.47559" lon="3.77975">
        <ele>262</ele>
        <time>2019-04-05T07:44:09Z</time>
      </trkpt>
      <trkpt lat="47.47564" lon="3.77983">
        <ele>262</ele>
        <time>2019-04-05T07:44:14Z</time>
      </trkpt>
      <trkpt lat="47.47566" lon="3.77985">
        <ele>262</ele>
        <time>2019-04-05T07:44:16Z</time>
      </trkpt>
      <trkpt lat="47.4757" lon="3.77989">
        <ele>261</ele>
        <time>2019-04-05T07:44:21Z</time>
      </trkpt>
      <trkpt lat="47.47575" lon="3.77997">
        <ele>262</ele>
        <time>2019-04-05T07:44:26Z</time>
      </trkpt>
      <trkpt lat="47.47578" lon="3.78003">
        <ele>262</ele>
        <time>2019-04-05T07:44:30Z</time>
      </trkpt>
      <trkpt lat="47.47582" lon="3.78007">
        <ele>263</ele>
        <time>2019-04-05T07:44:34Z</time>
      </trkpt>
      <trkpt lat="47.47587" lon="3.78011">
        <ele>262</ele>
        <time>2019-04-05T07:44:38Z</time>
      </trkpt>
      <trkpt lat="47.4759" lon="3.78017">
        <ele>263</ele>
        <time>2019-04-05T07:44:42Z</time>
      </trkpt>
      <trkpt lat="47.47596" lon="3.78022">
        <ele>263</ele>
        <time>2019-04-05T07:44:49Z</time>
      </trkpt>
      <trkpt lat="47.47598" lon="3.78024">
        <ele>263</ele>
        <time>2019-04-05T07:44:51Z</time>
      </trkpt>
      <trkpt lat="47.47603" lon="3.78028">
        <ele>264</ele>
        <time>2019-04-05T07:44:56Z</time>
      </trkpt>
      <trkpt lat="47.47608" lon="3.7803">
        <ele>264</ele>
        <time>2019-04-05T07:45:01Z</time>
      </trkpt>
      <trkpt lat="47.47613" lon="3.78033">
        <ele>265</ele>
        <time>2019-04-05T07:45:05Z</time>
      </trkpt>
      <trkpt lat="47.47617" lon="3.78036">
        <ele>265</ele>
        <time>2019-04-05T07:45:08Z</time>
      </trkpt>
      <trkpt lat="47.47621" lon="3.7804">
        <ele>266</ele>
        <time>2019-04-05T07:45:12Z</time>
      </trkpt>
      <trkpt lat="47.47627" lon="3.78046">
        <ele>267</ele>
        <time>2019-04-05T07:45:18Z</time>
      </trkpt>
      <trkpt lat="47.47631" lon="3.78048">
        <ele>268</ele>
        <time>2019-04-05T07:45:22Z</time>
      </trkpt>
      <trkpt lat="47.47637" lon="3.78054">
        <ele>269</ele>
        <time>2019-04-05T07:45:27Z</time>
      </trkpt>
      <trkpt lat="47.47639" lon="3.78057">
        <ele>269</ele>
        <time>2019-04-05T07:45:30Z</time>
      </trkpt>
      <trkpt lat="47.47641" lon="3.78059">
        <ele>269</ele>
        <time>2019-04-05T07:45:32Z</time>
      </trkpt>
      <trkpt lat="47.47646" lon="3.78062">
        <ele>270</ele>
        <time>2019-04-05T07:45:36Z</time>
      </trkpt>
      <trkpt lat="47.47649" lon="3.78064">
        <ele>270</ele>
        <time>2019-04-05T07:45:39Z</time>
      </trkpt>
      <trkpt lat="47.47651" lon="3.78066">
        <ele>270</ele>
        <time>2019-04-05T07:45:41Z</time>
      </trkpt>
      <trkpt lat="47.47653" lon="3.78068">
        <ele>272</ele>
        <time>2019-04-05T07:45:43Z</time>
      </trkpt>
      <trkpt lat="47.47657" lon="3.7807">
        <ele>272</ele>
        <time>2019-04-05T07:45:46Z</time>
      </trkpt>
      <trkpt lat="47.47659" lon="3.78072">
        <ele>272</ele>
        <time>2019-04-05T07:45:48Z</time>
      </trkpt>
      <trkpt lat="47.47664" lon="3.78074">
        <ele>270</ele>
        <time>2019-04-05T07:45:52Z</time>
      </trkpt>
      <trkpt lat="47.47668" lon="3.78077">
        <ele>267</ele>
        <time>2019-04-05T07:45:59Z</time>
      </trkpt>
      <trkpt lat="47.47671" lon="3.7808">
        <ele>267</ele>
        <time>2019-04-05T07:46:08Z</time>
      </trkpt>
      <trkpt lat="47.47674" lon="3.78085">
        <ele>268</ele>
        <time>2019-04-05T07:46:13Z</time>
      </trkpt>
      <trkpt lat="47.47676" lon="3.78088">
        <ele>268</ele>
        <time>2019-04-05T07:46:15Z</time>
      </trkpt>
      <trkpt lat="47.4768" lon="3.78092">
        <ele>269</ele>
        <time>2019-04-05T07:46:19Z</time>
      </trkpt>
      <trkpt lat="47.47683" lon="3.78094">
        <ele>270</ele>
        <time>2019-04-05T07:46:22Z</time>
      </trkpt>
      <trkpt lat="47.47687" lon="3.78097">
        <ele>271</ele>
        <time>2019-04-05T07:46:28Z</time>
      </trkpt>
      <trkpt lat="47.4769" lon="3.78098">
        <ele>271</ele>
        <time>2019-04-05T07:46:30Z</time>
      </trkpt>
      <trkpt lat="47.47694" lon="3.78101">
        <ele>271</ele>
        <time>2019-04-05T07:46:33Z</time>
      </trkpt>
      <trkpt lat="47.47696" lon="3.78103">
        <ele>271</ele>
        <time>2019-04-05T07:46:35Z</time>
      </trkpt>
      <trkpt lat="47.47701" lon="3.78105">
        <ele>271</ele>
        <time>2019-04-05T07:46:39Z</time>
      </trkpt>
      <trkpt lat="47.47705" lon="3.78108">
        <ele>271</ele>
        <time>2019-04-05T07:46:43Z</time>
      </trkpt>
      <trkpt lat="47.47711" lon="3.7811">
        <ele>271</ele>
        <time>2019-04-05T07:46:48Z</time>
      </trkpt>
      <trkpt lat="47.47714" lon="3.78112">
        <ele>272</ele>
        <time>2019-04-05T07:46:53Z</time>
      </trkpt>
      <trkpt lat="47.47718" lon="3.78113">
        <ele>272</ele>
        <time>2019-04-05T07:46:55Z</time>
      </trkpt>
      <trkpt lat="47.4772" lon="3.78114">
        <ele>272</ele>
        <time>2019-04-05T07:46:57Z</time>
      </trkpt>
      <trkpt lat="47.47723" lon="3.78114">
        <ele>271</ele>
        <time>2019-04-05T07:46:59Z</time>
      </trkpt>
      <trkpt lat="47.47726" lon="3.78114">
        <ele>271</ele>
        <time>2019-04-05T07:47:01Z</time>
      </trkpt>
      <trkpt lat="47.47732" lon="3.78113">
        <ele>271</ele>
        <time>2019-04-05T07:47:06Z</time>
      </trkpt>
      <trkpt lat="47.47738" lon="3.78112">
        <ele>271</ele>
        <time>2019-04-05T07:47:10Z</time>
      </trkpt>
      <trkpt lat="47.47744" lon="3.78114">
        <ele>271</ele>
        <time>2019-04-05T07:47:15Z</time>
      </trkpt>
      <trkpt lat="47.47749" lon="3.78115">
        <ele>272</ele>
        <time>2019-04-05T07:47:19Z</time>
      </trkpt>
      <trkpt lat="47.47754" lon="3.78113">
        <ele>272</ele>
        <time>2019-04-05T07:47:23Z</time>
      </trkpt>
      <trkpt lat="47.47758" lon="3.78113">
        <ele>271</ele>
        <time>2019-04-05T07:47:25Z</time>
      </trkpt>
      <trkpt lat="47.4776" lon="3.78112">
        <ele>271</ele>
        <time>2019-04-05T07:47:27Z</time>
      </trkpt>
      <trkpt lat="47.47765" lon="3.7811">
        <ele>271</ele>
        <time>2019-04-05T07:47:31Z</time>
      </trkpt>
      <trkpt lat="47.4777" lon="3.78108">
        <ele>270</ele>
        <time>2019-04-05T07:47:36Z</time>
      </trkpt>
      <trkpt lat="47.47775" lon="3.78107">
        <ele>269</ele>
        <time>2019-04-05T07:47:40Z</time>
      </trkpt>
      <trkpt lat="47.47781" lon="3.78107">
        <ele>270</ele>
        <time>2019-04-05T07:47:46Z</time>
      </trkpt>
      <trkpt lat="47.47785" lon="3.78107">
        <ele>270</ele>
        <time>2019-04-05T07:47:50Z</time>
      </trkpt>
      <trkpt lat="47.47789" lon="3.78107">
        <ele>270</ele>
        <time>2019-04-05T07:47:53Z</time>
      </trkpt>
      <trkpt lat="47.47796" lon="3.78107">
        <ele>270</ele>
        <time>2019-04-05T07:47:58Z</time>
      </trkpt>
      <trkpt lat="47.47799" lon="3.78107">
        <ele>268</ele>
        <time>2019-04-05T07:48:01Z</time>
      </trkpt>
      <trkpt lat="47.47802" lon="3.78107">
        <ele>266</ele>
        <time>2019-04-05T07:48:04Z</time>
      </trkpt>
      <trkpt lat="47.47807" lon="3.78107">
        <ele>267</ele>
        <time>2019-04-05T07:48:08Z</time>
      </trkpt>
      <trkpt lat="47.47814" lon="3.78109">
        <ele>267</ele>
        <time>2019-04-05T07:48:13Z</time>
      </trkpt>
      <trkpt lat="47.47819" lon="3.78112">
        <ele>267</ele>
        <time>2019-04-05T07:48:16Z</time>
      </trkpt>
      <trkpt lat="47.47825" lon="3.78114">
        <ele>266</ele>
        <time>2019-04-05T07:48:22Z</time>
      </trkpt>
      <trkpt lat="47.4783" lon="3.78114">
        <ele>267</ele>
        <time>2019-04-05T07:48:26Z</time>
      </trkpt>
      <trkpt lat="47.47834" lon="3.78115">
        <ele>267</ele>
        <time>2019-04-05T07:48:29Z</time>
      </trkpt>
      <trkpt lat="47.47837" lon="3.78115">
        <ele>266</ele>
        <time>2019-04-05T07:48:31Z</time>
      </trkpt>
      <trkpt lat="47.47842" lon="3.78117">
        <ele>266</ele>
        <time>2019-04-05T07:48:36Z</time>
      </trkpt>
      <trkpt lat="47.47846" lon="3.78118">
        <ele>266</ele>
        <time>2019-04-05T07:48:39Z</time>
      </trkpt>
      <trkpt lat="47.47852" lon="3.78117">
        <ele>267</ele>
        <time>2019-04-05T07:48:45Z</time>
      </trkpt>
      <trkpt lat="47.47858" lon="3.78118">
        <ele>267</ele>
        <time>2019-04-05T07:48:51Z</time>
      </trkpt>
      <trkpt lat="47.47862" lon="3.78121">
        <ele>268</ele>
        <time>2019-04-05T07:48:55Z</time>
      </trkpt>
      <trkpt lat="47.47867" lon="3.78122">
        <ele>270</ele>
        <time>2019-04-05T07:49:00Z</time>
      </trkpt>
      <trkpt lat="47.47873" lon="3.78122">
        <ele>273</ele>
        <time>2019-04-05T07:49:05Z</time>
      </trkpt>
      <trkpt lat="47.47878" lon="3.78125">
        <ele>273</ele>
        <time>2019-04-05T07:49:13Z</time>
      </trkpt>
      <trkpt lat="47.47883" lon="3.78125">
        <ele>274</ele>
        <time>2019-04-05T07:49:19Z</time>
      </trkpt>
      <trkpt lat="47.47889" lon="3.78128">
        <ele>276</ele>
        <time>2019-04-05T07:49:24Z</time>
      </trkpt>
      <trkpt lat="47.47894" lon="3.78127">
        <ele>276</ele>
        <time>2019-04-05T07:49:28Z</time>
      </trkpt>
      <trkpt lat="47.479" lon="3.78129">
        <ele>277</ele>
        <time>2019-04-05T07:49:32Z</time>
      </trkpt>
      <trkpt lat="47.47905" lon="3.78129">
        <ele>277</ele>
        <time>2019-04-05T07:49:37Z</time>
      </trkpt>
      <trkpt lat="47.47912" lon="3.78131">
        <ele>277</ele>
        <time>2019-04-05T07:49:43Z</time>
      </trkpt>
      <trkpt lat="47.47915" lon="3.78132">
        <ele>277</ele>
        <time>2019-04-05T07:49:46Z</time>
      </trkpt>
      <trkpt lat="47.47918" lon="3.78133">
        <ele>278</ele>
        <time>2019-04-05T07:49:48Z</time>
      </trkpt>
      <trkpt lat="47.47923" lon="3.78133">
        <ele>278</ele>
        <time>2019-04-05T07:49:53Z</time>
      </trkpt>
      <trkpt lat="47.4793" lon="3.78135">
        <ele>279</ele>
        <time>2019-04-05T07:49:59Z</time>
      </trkpt>
      <trkpt lat="47.47936" lon="3.78138">
        <ele>279</ele>
        <time>2019-04-05T07:50:03Z</time>
      </trkpt>
      <trkpt lat="47.4794" lon="3.78142">
        <ele>280</ele>
        <time>2019-04-05T07:50:07Z</time>
      </trkpt>
      <trkpt lat="47.47946" lon="3.78145">
        <ele>282</ele>
        <time>2019-04-05T07:50:13Z</time>
      </trkpt>
      <trkpt lat="47.4795" lon="3.78145">
        <ele>282</ele>
        <time>2019-04-05T07:50:17Z</time>
      </trkpt>
      <trkpt lat="47.47956" lon="3.78147">
        <ele>283</ele>
        <time>2019-04-05T07:50:22Z</time>
      </trkpt>
      <trkpt lat="47.47961" lon="3.78148">
        <ele>284</ele>
        <time>2019-04-05T07:50:27Z</time>
      </trkpt>
      <trkpt lat="47.47966" lon="3.7815">
        <ele>286</ele>
        <time>2019-04-05T07:50:32Z</time>
      </trkpt>
      <trkpt lat="47.47968" lon="3.7815">
        <ele>286</ele>
        <time>2019-04-05T07:50:34Z</time>
      </trkpt>
      <trkpt lat="47.47975" lon="3.78152">
        <ele>287</ele>
        <time>2019-04-05T07:50:40Z</time>
      </trkpt>
      <trkpt lat="47.47977" lon="3.78153">
        <ele>287</ele>
        <time>2019-04-05T07:50:42Z</time>
      </trkpt>
      <trkpt lat="47.4798" lon="3.78153">
        <ele>287</ele>
        <time>2019-04-05T07:50:44Z</time>
      </trkpt>
      <trkpt lat="47.47982" lon="3.78154">
        <ele>287</ele>
        <time>2019-04-05T07:50:46Z</time>
      </trkpt>
      <trkpt lat="47.47985" lon="3.78156">
        <ele>287</ele>
        <time>2019-04-05T07:50:50Z</time>
      </trkpt>
      <trkpt lat="47.47991" lon="3.7816">
        <ele>286</ele>
        <time>2019-04-05T07:50:55Z</time>
      </trkpt>
      <trkpt lat="47.47994" lon="3.78163">
        <ele>287</ele>
        <time>2019-04-05T07:50:58Z</time>
      </trkpt>
      <trkpt lat="47.48" lon="3.78166">
        <ele>288</ele>
        <time>2019-04-05T07:51:02Z</time>
      </trkpt>
      <trkpt lat="47.48005" lon="3.78169">
        <ele>289</ele>
        <time>2019-04-05T07:51:07Z</time>
      </trkpt>
      <trkpt lat="47.4801" lon="3.7817">
        <ele>288</ele>
        <time>2019-04-05T07:51:11Z</time>
      </trkpt>
      <trkpt lat="47.48014" lon="3.78171">
        <ele>289</ele>
        <time>2019-04-05T07:51:15Z</time>
      </trkpt>
      <trkpt lat="47.4802" lon="3.78171">
        <ele>291</ele>
        <time>2019-04-05T07:51:20Z</time>
      </trkpt>
      <trkpt lat="47.48025" lon="3.78173">
        <ele>291</ele>
        <time>2019-04-05T07:51:24Z</time>
      </trkpt>
      <trkpt lat="47.48027" lon="3.78174">
        <ele>292</ele>
        <time>2019-04-05T07:51:26Z</time>
      </trkpt>
      <trkpt lat="47.48029" lon="3.78175">
        <ele>292</ele>
        <time>2019-04-05T07:51:28Z</time>
      </trkpt>
      <trkpt lat="47.48035" lon="3.78179">
        <ele>292</ele>
        <time>2019-04-05T07:51:33Z</time>
      </trkpt>
      <trkpt lat="47.4804" lon="3.78179">
        <ele>293</ele>
        <time>2019-04-05T07:51:37Z</time>
      </trkpt>
      <trkpt lat="47.48046" lon="3.78182">
        <ele>292</ele>
        <time>2019-04-05T07:51:41Z</time>
      </trkpt>
      <trkpt lat="47.48049" lon="3.78183">
        <ele>293</ele>
        <time>2019-04-05T07:51:44Z</time>
      </trkpt>
      <trkpt lat="47.48054" lon="3.78187">
        <ele>294</ele>
        <time>2019-04-05T07:51:49Z</time>
      </trkpt>
      <trkpt lat="47.48059" lon="3.78189">
        <ele>294</ele>
        <time>2019-04-05T07:51:53Z</time>
      </trkpt>
      <trkpt lat="47.48062" lon="3.7819">
        <ele>295</ele>
        <time>2019-04-05T07:51:56Z</time>
      </trkpt>
      <trkpt lat="47.48067" lon="3.78193">
        <ele>295</ele>
        <time>2019-04-05T07:52:02Z</time>
      </trkpt>
      <trkpt lat="47.48071" lon="3.78198">
        <ele>296</ele>
        <time>2019-04-05T07:52:06Z</time>
      </trkpt>
      <trkpt lat="47.48073" lon="3.78201">
        <ele>296</ele>
        <time>2019-04-05T07:52:09Z</time>
      </trkpt>
      <trkpt lat="47.4808" lon="3.78205">
        <ele>293</ele>
        <time>2019-04-05T07:52:15Z</time>
      </trkpt>
      <trkpt lat="47.48084" lon="3.78208">
        <ele>294</ele>
        <time>2019-04-05T07:52:19Z</time>
      </trkpt>
      <trkpt lat="47.48088" lon="3.78214">
        <ele>294</ele>
        <time>2019-04-05T07:52:24Z</time>
      </trkpt>
      <trkpt lat="47.4809" lon="3.78217">
        <ele>295</ele>
        <time>2019-04-05T07:52:26Z</time>
      </trkpt>
      <trkpt lat="47.48094" lon="3.78222">
        <ele>295</ele>
        <time>2019-04-05T07:52:31Z</time>
      </trkpt>
      <trkpt lat="47.48096" lon="3.78224">
        <ele>295</ele>
        <time>2019-04-05T07:52:33Z</time>
      </trkpt>
      <trkpt lat="47.48099" lon="3.78229">
        <ele>296</ele>
        <time>2019-04-05T07:52:38Z</time>
      </trkpt>
      <trkpt lat="47.48102" lon="3.78235">
        <ele>297</ele>
        <time>2019-04-05T07:52:42Z</time>
      </trkpt>
      <trkpt lat="47.48106" lon="3.78239">
        <ele>297</ele>
        <time>2019-04-05T07:52:46Z</time>
      </trkpt>
      <trkpt lat="47.48107" lon="3.78246">
        <ele>296</ele>
        <time>2019-04-05T07:52:51Z</time>
      </trkpt>
      <trkpt lat="47.48108" lon="3.78251">
        <ele>297</ele>
        <time>2019-04-05T07:52:58Z</time>
      </trkpt>
      <trkpt lat="47.4811" lon="3.78257">
        <ele>296</ele>
        <time>2019-04-05T07:53:01Z</time>
      </trkpt>
      <trkpt lat="47.48111" lon="3.78261">
        <ele>296</ele>
        <time>2019-04-05T07:53:03Z</time>
      </trkpt>
      <trkpt lat="47.48112" lon="3.7827">
        <ele>297</ele>
        <time>2019-04-05T07:53:08Z</time>
      </trkpt>
      <trkpt lat="47.48111" lon="3.78277">
        <ele>298</ele>
        <time>2019-04-05T07:53:13Z</time>
      </trkpt>
      <trkpt lat="47.48113" lon="3.78288">
        <ele>298</ele>
        <time>2019-04-05T07:53:22Z</time>
      </trkpt>
      <trkpt lat="47.48112" lon="3.78295">
        <ele>297</ele>
        <time>2019-04-05T07:53:27Z</time>
      </trkpt>
      <trkpt lat="47.48112" lon="3.78303">
        <ele>296</ele>
        <time>2019-04-05T07:53:31Z</time>
      </trkpt>
      <trkpt lat="47.48113" lon="3.78311">
        <ele>298</ele>
        <time>2019-04-05T07:53:36Z</time>
      </trkpt>
      <trkpt lat="47.48113" lon="3.78318">
        <ele>299</ele>
        <time>2019-04-05T07:53:41Z</time>
      </trkpt>
      <trkpt lat="47.48113" lon="3.78328">
        <ele>298</ele>
        <time>2019-04-05T07:53:47Z</time>
      </trkpt>
      <trkpt lat="47.48113" lon="3.78335">
        <ele>299</ele>
        <time>2019-04-05T07:53:51Z</time>
      </trkpt>
      <trkpt lat="47.48113" lon="3.78346">
        <ele>301</ele>
        <time>2019-04-05T07:53:56Z</time>
      </trkpt>
      <trkpt lat="47.48113" lon="3.78354">
        <ele>302</ele>
        <time>2019-04-05T07:54:02Z</time>
      </trkpt>
      <trkpt lat="47.48113" lon="3.78363">
        <ele>302</ele>
        <time>2019-04-05T07:54:06Z</time>
      </trkpt>
      <trkpt lat="47.48114" lon="3.7837">
        <ele>302</ele>
        <time>2019-04-05T07:54:09Z</time>
      </trkpt>
      <trkpt lat="47.48115" lon="3.78374">
        <ele>302</ele>
        <time>2019-04-05T07:54:11Z</time>
      </trkpt>
      <trkpt lat="47.48115" lon="3.78379">
        <ele>301</ele>
        <time>2019-04-05T07:54:13Z</time>
      </trkpt>
      <trkpt lat="47.48118" lon="3.78388">
        <ele>300</ele>
        <time>2019-04-05T07:54:17Z</time>
      </trkpt>
      <trkpt lat="47.48121" lon="3.78394">
        <ele>300</ele>
        <time>2019-04-05T07:54:20Z</time>
      </trkpt>
      <trkpt lat="47.48124" lon="3.78401">
        <ele>301</ele>
        <time>2019-04-05T07:54:24Z</time>
      </trkpt>
      <trkpt lat="47.48127" lon="3.78405">
        <ele>301</ele>
        <time>2019-04-05T07:54:28Z</time>
      </trkpt>
      <trkpt lat="47.4813" lon="3.78411">
        <ele>303</ele>
        <time>2019-04-05T07:54:32Z</time>
      </trkpt>
      <trkpt lat="47.48132" lon="3.78414">
        <ele>304</ele>
        <time>2019-04-05T07:54:35Z</time>
      </trkpt>
      <trkpt lat="47.48136" lon="3.78419">
        <ele>305</ele>
        <time>2019-04-05T07:54:40Z</time>
      </trkpt>
      <trkpt lat="47.48139" lon="3.78425">
        <ele>308</ele>
        <time>2019-04-05T07:54:46Z</time>
      </trkpt>
      <trkpt lat="47.48142" lon="3.78434">
        <ele>310</ele>
        <time>2019-04-05T07:54:50Z</time>
      </trkpt>
      <trkpt lat="47.48143" lon="3.78439">
        <ele>311</ele>
        <time>2019-04-05T07:54:53Z</time>
      </trkpt>
      <trkpt lat="47.48148" lon="3.78445">
        <ele>312</ele>
        <time>2019-04-05T07:54:57Z</time>
      </trkpt>
      <trkpt lat="47.48151" lon="3.78451">
        <ele>313</ele>
        <time>2019-04-05T07:55:03Z</time>
      </trkpt>
      <trkpt lat="47.48154" lon="3.7846">
        <ele>314</ele>
        <time>2019-04-05T07:55:07Z</time>
      </trkpt>
      <trkpt lat="47.48158" lon="3.78465">
        <ele>315</ele>
        <time>2019-04-05T07:55:11Z</time>
      </trkpt>
      <trkpt lat="47.4816" lon="3.78472">
        <ele>317</ele>
        <time>2019-04-05T07:55:15Z</time>
      </trkpt>
      <trkpt lat="47.48161" lon="3.78476">
        <ele>317</ele>
        <time>2019-04-05T07:55:18Z</time>
      </trkpt>
      <trkpt lat="47.48164" lon="3.78482">
        <ele>317</ele>
        <time>2019-04-05T07:55:21Z</time>
      </trkpt>
      <trkpt lat="47.48166" lon="3.78488">
        <ele>316</ele>
        <time>2019-04-05T07:55:25Z</time>
      </trkpt>
      <trkpt lat="47.4817" lon="3.78493">
        <ele>317</ele>
        <time>2019-04-05T07:55:29Z</time>
      </trkpt>
      <trkpt lat="47.48173" lon="3.78499">
        <ele>316</ele>
        <time>2019-04-05T07:55:33Z</time>
      </trkpt>
      <trkpt lat="47.48174" lon="3.78503">
        <ele>314</ele>
        <time>2019-04-05T07:55:36Z</time>
      </trkpt>
      <trkpt lat="47.48177" lon="3.78512">
        <ele>313</ele>
        <time>2019-04-05T07:55:44Z</time>
      </trkpt>
      <trkpt lat="47.48178" lon="3.78516">
        <ele>312</ele>
        <time>2019-04-05T07:55:46Z</time>
      </trkpt>
      <trkpt lat="47.48181" lon="3.78522">
        <ele>312</ele>
        <time>2019-04-05T07:55:50Z</time>
      </trkpt>
      <trkpt lat="47.48183" lon="3.78528">
        <ele>313</ele>
        <time>2019-04-05T07:55:54Z</time>
      </trkpt>
      <trkpt lat="47.48184" lon="3.78531">
        <ele>312</ele>
        <time>2019-04-05T07:55:56Z</time>
      </trkpt>
      <trkpt lat="47.48186" lon="3.78539">
        <ele>311</ele>
        <time>2019-04-05T07:56:04Z</time>
      </trkpt>
      <trkpt lat="47.48186" lon="3.78543">
        <ele>311</ele>
        <time>2019-04-05T07:56:06Z</time>
      </trkpt>
      <trkpt lat="47.48187" lon="3.78551">
        <ele>311</ele>
        <time>2019-04-05T07:56:09Z</time>
      </trkpt>
      <trkpt lat="47.48189" lon="3.78561">
        <ele>310</ele>
        <time>2019-04-05T07:56:13Z</time>
      </trkpt>
      <trkpt lat="47.4819" lon="3.78566">
        <ele>309</ele>
        <time>2019-04-05T07:56:15Z</time>
      </trkpt>
      <trkpt lat="47.48192" lon="3.7857">
        <ele>308</ele>
        <time>2019-04-05T07:56:17Z</time>
      </trkpt>
      <trkpt lat="47.48193" lon="3.78578">
        <ele>307</ele>
        <time>2019-04-05T07:56:21Z</time>
      </trkpt>
      <trkpt lat="47.48195" lon="3.78583">
        <ele>309</ele>
        <time>2019-04-05T07:56:24Z</time>
      </trkpt>
      <trkpt lat="47.48199" lon="3.78587">
        <ele>311</ele>
        <time>2019-04-05T07:56:28Z</time>
      </trkpt>
      <trkpt lat="47.48202" lon="3.78589">
        <ele>311</ele>
        <time>2019-04-05T07:56:30Z</time>
      </trkpt>
      <trkpt lat="47.48207" lon="3.78594">
        <ele>312</ele>
        <time>2019-04-05T07:56:34Z</time>
      </trkpt>
      <trkpt lat="47.48213" lon="3.78601">
        <ele>313</ele>
        <time>2019-04-05T07:56:39Z</time>
      </trkpt>
      <trkpt lat="47.48215" lon="3.78603">
        <ele>313</ele>
        <time>2019-04-05T07:56:41Z</time>
      </trkpt>
      <trkpt lat="47.48219" lon="3.7861">
        <ele>313</ele>
        <time>2019-04-05T07:56:46Z</time>
      </trkpt>
      <trkpt lat="47.48224" lon="3.78616">
        <ele>315</ele>
        <time>2019-04-05T07:56:51Z</time>
      </trkpt>
      <trkpt lat="47.48229" lon="3.78619">
        <ele>317</ele>
        <time>2019-04-05T07:56:56Z</time>
      </trkpt>
      <trkpt lat="47.48233" lon="3.78624">
        <ele>320</ele>
        <time>2019-04-05T07:57:01Z</time>
      </trkpt>
      <trkpt lat="47.48237" lon="3.78629">
        <ele>321</ele>
        <time>2019-04-05T07:57:05Z</time>
      </trkpt>
      <trkpt lat="47.48245" lon="3.78632">
        <ele>323</ele>
        <time>2019-04-05T07:57:10Z</time>
      </trkpt>
      <trkpt lat="47.48249" lon="3.78637">
        <ele>325</ele>
        <time>2019-04-05T07:57:15Z</time>
      </trkpt>
      <trkpt lat="47.48254" lon="3.78639">
        <ele>327</ele>
        <time>2019-04-05T07:57:21Z</time>
      </trkpt>
      <trkpt lat="47.4826" lon="3.78644">
        <ele>328</ele>
        <time>2019-04-05T07:57:28Z</time>
      </trkpt>
      <trkpt lat="47.48266" lon="3.7865">
        <ele>329</ele>
        <time>2019-04-05T07:57:33Z</time>
      </trkpt>
      <trkpt lat="47.48271" lon="3.78653">
        <ele>328</ele>
        <time>2019-04-05T07:57:37Z</time>
      </trkpt>
      <trkpt lat="47.48274" lon="3.78654">
        <ele>328</ele>
        <time>2019-04-05T07:57:39Z</time>
      </trkpt>
      <trkpt lat="47.48279" lon="3.78656">
        <ele>328</ele>
        <time>2019-04-05T07:57:43Z</time>
      </trkpt>
      <trkpt lat="47.48284" lon="3.78656">
        <ele>327</ele>
        <time>2019-04-05T07:57:46Z</time>
      </trkpt>
      <trkpt lat="47.48286" lon="3.78656">
        <ele>325</ele>
        <time>2019-04-05T07:57:49Z</time>
      </trkpt>
      <trkpt lat="47.48291" lon="3.78658">
        <ele>325</ele>
        <time>2019-04-05T07:57:54Z</time>
      </trkpt>
      <trkpt lat="47.48297" lon="3.78663">
        <ele>324</ele>
        <time>2019-04-05T07:57:59Z</time>
      </trkpt>
      <trkpt lat="47.483" lon="3.78665">
        <ele>324</ele>
        <time>2019-04-05T07:58:01Z</time>
      </trkpt>
      <trkpt lat="47.48305" lon="3.78668">
        <ele>324</ele>
        <time>2019-04-05T07:58:05Z</time>
      </trkpt>
      <trkpt lat="47.48309" lon="3.78672">
        <ele>323</ele>
        <time>2019-04-05T07:58:09Z</time>
      </trkpt>
      <trkpt lat="47.48314" lon="3.78675">
        <ele>322</ele>
        <time>2019-04-05T07:58:13Z</time>
      </trkpt>
      <trkpt lat="47.4832" lon="3.78677">
        <ele>321</ele>
        <time>2019-04-05T07:58:17Z</time>
      </trkpt>
      <trkpt lat="47.48324" lon="3.78678">
        <ele>320</ele>
        <time>2019-04-05T07:58:20Z</time>
      </trkpt>
      <trkpt lat="47.4833" lon="3.78681">
        <ele>320</ele>
        <time>2019-04-05T07:58:25Z</time>
      </trkpt>
      <trkpt lat="47.48333" lon="3.78683">
        <ele>320</ele>
        <time>2019-04-05T07:58:28Z</time>
      </trkpt>
      <trkpt lat="47.48338" lon="3.78685">
        <ele>320</ele>
        <time>2019-04-05T07:58:32Z</time>
      </trkpt>
      <trkpt lat="47.48342" lon="3.78688">
        <ele>319</ele>
        <time>2019-04-05T07:58:36Z</time>
      </trkpt>
      <trkpt lat="47.48347" lon="3.78691">
        <ele>319</ele>
        <time>2019-04-05T07:58:41Z</time>
      </trkpt>
      <trkpt lat="47.4835" lon="3.78693">
        <ele>319</ele>
        <time>2019-04-05T07:58:44Z</time>
      </trkpt>
      <trkpt lat="47.48354" lon="3.78695">
        <ele>319</ele>
        <time>2019-04-05T07:58:47Z</time>
      </trkpt>
      <trkpt lat="47.48359" lon="3.78698">
        <ele>319</ele>
        <time>2019-04-05T07:58:51Z</time>
      </trkpt>
      <trkpt lat="47.48364" lon="3.787">
        <ele>319</ele>
        <time>2019-04-05T07:58:57Z</time>
      </trkpt>
      <trkpt lat="47.48371" lon="3.78701">
        <ele>319</ele>
        <time>2019-04-05T07:59:04Z</time>
      </trkpt>
      <trkpt lat="47.48375" lon="3.78703">
        <ele>318</ele>
        <time>2019-04-05T07:59:08Z</time>
      </trkpt>
      <trkpt lat="47.4838" lon="3.78706">
        <ele>317</ele>
        <time>2019-04-05T07:59:12Z</time>
      </trkpt>
      <trkpt lat="47.48383" lon="3.78707">
        <ele>317</ele>
        <time>2019-04-05T07:59:15Z</time>
      </trkpt>
      <trkpt lat="47.48388" lon="3.7871">
        <ele>316</ele>
        <time>2019-04-05T07:59:19Z</time>
      </trkpt>
      <trkpt lat="47.48392" lon="3.78713">
        <ele>316</ele>
        <time>2019-04-05T07:59:24Z</time>
      </trkpt>
      <trkpt lat="47.48397" lon="3.78716">
        <ele>317</ele>
        <time>2019-04-05T07:59:29Z</time>
      </trkpt>
      <trkpt lat="47.48402" lon="3.7872">
        <ele>318</ele>
        <time>2019-04-05T07:59:33Z</time>
      </trkpt>
      <trkpt lat="47.48405" lon="3.78723">
        <ele>317</ele>
        <time>2019-04-05T07:59:36Z</time>
      </trkpt>
      <trkpt lat="47.48409" lon="3.78725">
        <ele>317</ele>
        <time>2019-04-05T07:59:40Z</time>
      </trkpt>
      <trkpt lat="47.48413" lon="3.78727">
        <ele>317</ele>
        <time>2019-04-05T07:59:44Z</time>
      </trkpt>
      <trkpt lat="47.48416" lon="3.78728">
        <ele>317</ele>
        <time>2019-04-05T07:59:46Z</time>
      </trkpt>
      <trkpt lat="47.48421" lon="3.78733">
        <ele>318</ele>
        <time>2019-04-05T07:59:51Z</time>
      </trkpt>
      <trkpt lat="47.48425" lon="3.78733">
        <ele>318</ele>
        <time>2019-04-05T07:59:55Z</time>
      </trkpt>
      <trkpt lat="47.48428" lon="3.78733">
        <ele>319</ele>
        <time>2019-04-05T07:59:57Z</time>
      </trkpt>
      <trkpt lat="47.48431" lon="3.78733">
        <ele>318</ele>
        <time>2019-04-05T07:59:59Z</time>
      </trkpt>
      <trkpt lat="47.48436" lon="3.78734">
        <ele>317</ele>
        <time>2019-04-05T08:00:03Z</time>
      </trkpt>
      <trkpt lat="47.4844" lon="3.78734">
        <ele>318</ele>
        <time>2019-04-05T08:00:07Z</time>
      </trkpt>
      <trkpt lat="47.48445" lon="3.78736">
        <ele>316</ele>
        <time>2019-04-05T08:00:12Z</time>
      </trkpt>
      <trkpt lat="47.48447" lon="3.78738">
        <ele>316</ele>
        <time>2019-04-05T08:00:14Z</time>
      </trkpt>
      <trkpt lat="47.48452" lon="3.78742">
        <ele>316</ele>
        <time>2019-04-05T08:00:18Z</time>
      </trkpt>
      <trkpt lat="47.48456" lon="3.78744">
        <ele>317</ele>
        <time>2019-04-05T08:00:21Z</time>
      </trkpt>
      <trkpt lat="47.48461" lon="3.78746">
        <ele>317</ele>
        <time>2019-04-05T08:00:25Z</time>
      </trkpt>
      <trkpt lat="47.48465" lon="3.7875">
        <ele>317</ele>
        <time>2019-04-05T08:00:29Z</time>
      </trkpt>
      <trkpt lat="47.48471" lon="3.78753">
        <ele>318</ele>
        <time>2019-04-05T08:00:33Z</time>
      </trkpt>
      <trkpt lat="47.48477" lon="3.78754">
        <ele>318</ele>
        <time>2019-04-05T08:00:37Z</time>
      </trkpt>
      <trkpt lat="47.48482" lon="3.78758">
        <ele>319</ele>
        <time>2019-04-05T08:00:41Z</time>
      </trkpt>
      <trkpt lat="47.48486" lon="3.78762">
        <ele>319</ele>
        <time>2019-04-05T08:00:45Z</time>
      </trkpt>
      <trkpt lat="47.48491" lon="3.78763">
        <ele>319</ele>
        <time>2019-04-05T08:00:49Z</time>
      </trkpt>
      <trkpt lat="47.48496" lon="3.78767">
        <ele>320</ele>
        <time>2019-04-05T08:00:53Z</time>
      </trkpt>
      <trkpt lat="47.48498" lon="3.78768">
        <ele>320</ele>
        <time>2019-04-05T08:00:55Z</time>
      </trkpt>
      <trkpt lat="47.48501" lon="3.7877">
        <ele>320</ele>
        <time>2019-04-05T08:00:58Z</time>
      </trkpt>
      <trkpt lat="47.48506" lon="3.78775">
        <ele>320</ele>
        <time>2019-04-05T08:01:02Z</time>
      </trkpt>
      <trkpt lat="47.48512" lon="3.78778">
        <ele>320</ele>
        <time>2019-04-05T08:01:06Z</time>
      </trkpt>
      <trkpt lat="47.48517" lon="3.78779">
        <ele>321</ele>
        <time>2019-04-05T08:01:11Z</time>
      </trkpt>
      <trkpt lat="47.48522" lon="3.78783">
        <ele>322</ele>
        <time>2019-04-05T08:01:15Z</time>
      </trkpt>
      <trkpt lat="47.48527" lon="3.78786">
        <ele>322</ele>
        <time>2019-04-05T08:01:19Z</time>
      </trkpt>
      <trkpt lat="47.48531" lon="3.7879">
        <ele>322</ele>
        <time>2019-04-05T08:01:23Z</time>
      </trkpt>
      <trkpt lat="47.48534" lon="3.78792">
        <ele>323</ele>
        <time>2019-04-05T08:01:26Z</time>
      </trkpt>
      <trkpt lat="47.48536" lon="3.78794">
        <ele>325</ele>
        <time>2019-04-05T08:01:28Z</time>
      </trkpt>
      <trkpt lat="47.4854" lon="3.78799">
        <ele>324</ele>
        <time>2019-04-05T08:01:31Z</time>
      </trkpt>
      <trkpt lat="47.48544" lon="3.78802">
        <ele>324</ele>
        <time>2019-04-05T08:01:34Z</time>
      </trkpt>
      <trkpt lat="47.48548" lon="3.78808">
        <ele>324</ele>
        <time>2019-04-05T08:01:38Z</time>
      </trkpt>
      <trkpt lat="47.48551" lon="3.78812">
        <ele>323</ele>
        <time>2019-04-05T08:01:42Z</time>
      </trkpt>
      <trkpt lat="47.48558" lon="3.78819">
        <ele>324</ele>
        <time>2019-04-05T08:01:49Z</time>
      </trkpt>
      <trkpt lat="47.48561" lon="3.78824">
        <ele>324</ele>
        <time>2019-04-05T08:01:53Z</time>
      </trkpt>
      <trkpt lat="47.48564" lon="3.78826">
        <ele>324</ele>
        <time>2019-04-05T08:01:55Z</time>
      </trkpt>
      <trkpt lat="47.48566" lon="3.78829">
        <ele>324</ele>
        <time>2019-04-05T08:01:57Z</time>
      </trkpt>
      <trkpt lat="47.48569" lon="3.78833">
        <ele>326</ele>
        <time>2019-04-05T08:02:01Z</time>
      </trkpt>
      <trkpt lat="47.48571" lon="3.78837">
        <ele>326</ele>
        <time>2019-04-05T08:02:04Z</time>
      </trkpt>
      <trkpt lat="47.48576" lon="3.78841">
        <ele>328</ele>
        <time>2019-04-05T08:02:08Z</time>
      </trkpt>
      <trkpt lat="47.48581" lon="3.78844">
        <ele>329</ele>
        <time>2019-04-05T08:02:13Z</time>
      </trkpt>
      <trkpt lat="47.48586" lon="3.78845">
        <ele>330</ele>
        <time>2019-04-05T08:02:17Z</time>
      </trkpt>
      <trkpt lat="47.4859" lon="3.78849">
        <ele>332</ele>
        <time>2019-04-05T08:02:22Z</time>
      </trkpt>
      <trkpt lat="47.4859" lon="3.78849">
        <ele>332</ele>
        <time>2019-04-05T08:02:30Z</time>
      </trkpt>
      <trkpt lat="47.4859" lon="3.78849">
        <ele>332</ele>
        <time>2019-04-05T08:02:31Z</time>
      </trkpt>
      <trkpt lat="47.48595" lon="3.7885">
        <ele>331</ele>
        <time>2019-04-05T08:23:01Z</time>
      </trkpt>
      <trkpt lat="47.48599" lon="3.78847">
        <ele>333</ele>
        <time>2019-04-05T08:23:10Z</time>
      </trkpt>
      <trkpt lat="47.48601" lon="3.78845">
        <ele>334</ele>
        <time>2019-04-05T08:23:13Z</time>
      </trkpt>
      <trkpt lat="47.48604" lon="3.78843">
        <ele>334</ele>
        <time>2019-04-05T08:23:15Z</time>
      </trkpt>
      <trkpt lat="47.48608" lon="3.78841">
        <ele>334</ele>
        <time>2019-04-05T08:23:19Z</time>
      </trkpt>
      <trkpt lat="47.48612" lon="3.78836">
        <ele>336</ele>
        <time>2019-04-05T08:23:25Z</time>
      </trkpt>
      <trkpt lat="47.48619" lon="3.78837">
        <ele>334</ele>
        <time>2019-04-05T08:23:31Z</time>
      </trkpt>
      <trkpt lat="47.48622" lon="3.78838">
        <ele>334</ele>
        <time>2019-04-05T08:23:34Z</time>
      </trkpt>
      <trkpt lat="47.48624" lon="3.78839">
        <ele>333</ele>
        <time>2019-04-05T08:23:37Z</time>
      </trkpt>
      <trkpt lat="47.4863" lon="3.78839">
        <ele>334</ele>
        <time>2019-04-05T08:23:42Z</time>
      </trkpt>
      <trkpt lat="47.48635" lon="3.7884">
        <ele>334</ele>
        <time>2019-04-05T08:23:47Z</time>
      </trkpt>
      <trkpt lat="47.4864" lon="3.78843">
        <ele>334</ele>
        <time>2019-04-05T08:23:52Z</time>
      </trkpt>
      <trkpt lat="47.48645" lon="3.78844">
        <ele>333</ele>
        <time>2019-04-05T08:23:56Z</time>
      </trkpt>
      <trkpt lat="47.4865" lon="3.78847">
        <ele>335</ele>
        <time>2019-04-05T08:24:00Z</time>
      </trkpt>
      <trkpt lat="47.48655" lon="3.78847">
        <ele>335</ele>
        <time>2019-04-05T08:24:04Z</time>
      </trkpt>
      <trkpt lat="47.48659" lon="3.78849">
        <ele>336</ele>
        <time>2019-04-05T08:24:08Z</time>
      </trkpt>
      <trkpt lat="47.48664" lon="3.7885">
        <ele>336</ele>
        <time>2019-04-05T08:24:12Z</time>
      </trkpt>
      <trkpt lat="47.48666" lon="3.7885">
        <ele>336</ele>
        <time>2019-04-05T08:24:14Z</time>
      </trkpt>
      <trkpt lat="47.4867" lon="3.78851">
        <ele>337</ele>
        <time>2019-04-05T08:24:18Z</time>
      </trkpt>
      <trkpt lat="47.48673" lon="3.78851">
        <ele>337</ele>
        <time>2019-04-05T08:24:20Z</time>
      </trkpt>
      <trkpt lat="47.48678" lon="3.78851">
        <ele>338</ele>
        <time>2019-04-05T08:24:24Z</time>
      </trkpt>
      <trkpt lat="47.48681" lon="3.78851">
        <ele>337</ele>
        <time>2019-04-05T08:24:27Z</time>
      </trkpt>
      <trkpt lat="47.48685" lon="3.78851">
        <ele>337</ele>
        <time>2019-04-05T08:24:31Z</time>
      </trkpt>
      <trkpt lat="47.48689" lon="3.78851">
        <ele>337</ele>
        <time>2019-04-05T08:24:34Z</time>
      </trkpt>
      <trkpt lat="47.48691" lon="3.78851">
        <ele>337</ele>
        <time>2019-04-05T08:24:36Z</time>
      </trkpt>
      <trkpt lat="47.48696" lon="3.7885">
        <ele>337</ele>
        <time>2019-04-05T08:24:40Z</time>
      </trkpt>
      <trkpt lat="47.48699" lon="3.78848">
        <ele>337</ele>
        <time>2019-04-05T08:24:43Z</time>
      </trkpt>
      <trkpt lat="47.48702" lon="3.78847">
        <ele>336</ele>
        <time>2019-04-05T08:24:45Z</time>
      </trkpt>
      <trkpt lat="47.48707" lon="3.78848">
        <ele>336</ele>
        <time>2019-04-05T08:24:49Z</time>
      </trkpt>
      <trkpt lat="47.48711" lon="3.78848">
        <ele>335</ele>
        <time>2019-04-05T08:24:52Z</time>
      </trkpt>
      <trkpt lat="47.48717" lon="3.78847">
        <ele>335</ele>
        <time>2019-04-05T08:24:56Z</time>
      </trkpt>
      <trkpt lat="47.48721" lon="3.78845">
        <ele>335</ele>
        <time>2019-04-05T08:25:00Z</time>
      </trkpt>
      <trkpt lat="47.48724" lon="3.78845">
        <ele>335</ele>
        <time>2019-04-05T08:25:02Z</time>
      </trkpt>
      <trkpt lat="47.48726" lon="3.78845">
        <ele>335</ele>
        <time>2019-04-05T08:25:04Z</time>
      </trkpt>
      <trkpt lat="47.48731" lon="3.78846">
        <ele>335</ele>
        <time>2019-04-05T08:25:08Z</time>
      </trkpt>
      <trkpt lat="47.48737" lon="3.78845">
        <ele>335</ele>
        <time>2019-04-05T08:25:12Z</time>
      </trkpt>
      <trkpt lat="47.48742" lon="3.78845">
        <ele>334</ele>
        <time>2019-04-05T08:25:17Z</time>
      </trkpt>
      <trkpt lat="47.48747" lon="3.78845">
        <ele>334</ele>
        <time>2019-04-05T08:25:21Z</time>
      </trkpt>
      <trkpt lat="47.48752" lon="3.78844">
        <ele>335</ele>
        <time>2019-04-05T08:25:25Z</time>
      </trkpt>
      <trkpt lat="47.48757" lon="3.78844">
        <ele>337</ele>
        <time>2019-04-05T08:25:30Z</time>
      </trkpt>
      <trkpt lat="47.48763" lon="3.78843">
        <ele>337</ele>
        <time>2019-04-05T08:25:34Z</time>
      </trkpt>
      <trkpt lat="47.48768" lon="3.78843">
        <ele>336</ele>
        <time>2019-04-05T08:25:39Z</time>
      </trkpt>
      <trkpt lat="47.48773" lon="3.78845">
        <ele>336</ele>
        <time>2019-04-05T08:25:44Z</time>
      </trkpt>
      <trkpt lat="47.48779" lon="3.78845">
        <ele>335</ele>
        <time>2019-04-05T08:25:48Z</time>
      </trkpt>
      <trkpt lat="47.48782" lon="3.78845">
        <ele>334</ele>
        <time>2019-04-05T08:25:50Z</time>
      </trkpt>
      <trkpt lat="47.48785" lon="3.78845">
        <ele>335</ele>
        <time>2019-04-05T08:25:54Z</time>
      </trkpt>
      <trkpt lat="47.4879" lon="3.78844">
        <ele>334</ele>
        <time>2019-04-05T08:25:58Z</time>
      </trkpt>
      <trkpt lat="47.48794" lon="3.78843">
        <ele>333</ele>
        <time>2019-04-05T08:26:02Z</time>
      </trkpt>
      <trkpt lat="47.48799" lon="3.78839">
        <ele>333</ele>
        <time>2019-04-05T08:26:06Z</time>
      </trkpt>
      <trkpt lat="47.48804" lon="3.78838">
        <ele>332</ele>
        <time>2019-04-05T08:26:10Z</time>
      </trkpt>
      <trkpt lat="47.48807" lon="3.78837">
        <ele>333</ele>
        <time>2019-04-05T08:26:12Z</time>
      </trkpt>
      <trkpt lat="47.48812" lon="3.78841">
        <ele>333</ele>
        <time>2019-04-05T08:26:17Z</time>
      </trkpt>
      <trkpt lat="47.48814" lon="3.78843">
        <ele>333</ele>
        <time>2019-04-05T08:26:20Z</time>
      </trkpt>
      <trkpt lat="47.48819" lon="3.78847">
        <ele>333</ele>
        <time>2019-04-05T08:26:25Z</time>
      </trkpt>
      <trkpt lat="47.48822" lon="3.7885">
        <ele>335</ele>
        <time>2019-04-05T08:26:28Z</time>
      </trkpt>
      <trkpt lat="47.48824" lon="3.78852">
        <ele>336</ele>
        <time>2019-04-05T08:26:31Z</time>
      </trkpt>
      <trkpt lat="47.48827" lon="3.78854">
        <ele>335</ele>
        <time>2019-04-05T08:26:33Z</time>
      </trkpt>
      <trkpt lat="47.48831" lon="3.78859">
        <ele>337</ele>
        <time>2019-04-05T08:26:37Z</time>
      </trkpt>
      <trkpt lat="47.48835" lon="3.78863">
        <ele>337</ele>
        <time>2019-04-05T08:26:41Z</time>
      </trkpt>
      <trkpt lat="47.48837" lon="3.78866">
        <ele>338</ele>
        <time>2019-04-05T08:26:44Z</time>
      </trkpt>
      <trkpt lat="47.48839" lon="3.78868">
        <ele>338</ele>
        <time>2019-04-05T08:26:46Z</time>
      </trkpt>
      <trkpt lat="47.48842" lon="3.78873">
        <ele>339</ele>
        <time>2019-04-05T08:26:50Z</time>
      </trkpt>
      <trkpt lat="47.48847" lon="3.78877">
        <ele>338</ele>
        <time>2019-04-05T08:26:55Z</time>
      </trkpt>
      <trkpt lat="47.48851" lon="3.78882">
        <ele>338</ele>
        <time>2019-04-05T08:26:59Z</time>
      </trkpt>
      <trkpt lat="47.48855" lon="3.78886">
        <ele>336</ele>
        <time>2019-04-05T08:27:02Z</time>
      </trkpt>
      <trkpt lat="47.48858" lon="3.78893">
        <ele>336</ele>
        <time>2019-04-05T08:27:07Z</time>
      </trkpt>
      <trkpt lat="47.48861" lon="3.78899">
        <ele>336</ele>
        <time>2019-04-05T08:27:12Z</time>
      </trkpt>
      <trkpt lat="47.48863" lon="3.78905">
        <ele>336</ele>
        <time>2019-04-05T08:27:17Z</time>
      </trkpt>
      <trkpt lat="47.48866" lon="3.78912">
        <ele>336</ele>
        <time>2019-04-05T08:27:22Z</time>
      </trkpt>
      <trkpt lat="47.48869" lon="3.78918">
        <ele>335</ele>
        <time>2019-04-05T08:27:29Z</time>
      </trkpt>
      <trkpt lat="47.4887" lon="3.78922">
        <ele>333</ele>
        <time>2019-04-05T08:27:35Z</time>
      </trkpt>
      <trkpt lat="47.48871" lon="3.7893">
        <ele>331</ele>
        <time>2019-04-05T08:27:41Z</time>
      </trkpt>
      <trkpt lat="47.48875" lon="3.78936">
        <ele>333</ele>
        <time>2019-04-05T08:27:45Z</time>
      </trkpt>
      <trkpt lat="47.48877" lon="3.7894">
        <ele>333</ele>
        <time>2019-04-05T08:27:47Z</time>
      </trkpt>
      <trkpt lat="47.48879" lon="3.78944">
        <ele>332</ele>
        <time>2019-04-05T08:27:49Z</time>
      </trkpt>
      <trkpt lat="47.48882" lon="3.78949">
        <ele>332</ele>
        <time>2019-04-05T08:27:52Z</time>
      </trkpt>
      <trkpt lat="47.48883" lon="3.78953">
        <ele>332</ele>
        <time>2019-04-05T08:27:54Z</time>
      </trkpt>
      <trkpt lat="47.48886" lon="3.78958">
        <ele>331</ele>
        <time>2019-04-05T08:27:57Z</time>
      </trkpt>
      <trkpt lat="47.48889" lon="3.78963">
        <ele>331</ele>
        <time>2019-04-05T08:28:01Z</time>
      </trkpt>
      <trkpt lat="47.48891" lon="3.7897">
        <ele>331</ele>
        <time>2019-04-05T08:28:05Z</time>
      </trkpt>
      <trkpt lat="47.48893" lon="3.78973">
        <ele>331</ele>
        <time>2019-04-05T08:28:07Z</time>
      </trkpt>
      <trkpt lat="47.48895" lon="3.78977">
        <ele>332</ele>
        <time>2019-04-05T08:28:10Z</time>
      </trkpt>
      <trkpt lat="47.48896" lon="3.7898">
        <ele>333</ele>
        <time>2019-04-05T08:28:13Z</time>
      </trkpt>
      <trkpt lat="47.48898" lon="3.78984">
        <ele>333</ele>
        <time>2019-04-05T08:28:19Z</time>
      </trkpt>
      <trkpt lat="47.48902" lon="3.78991">
        <ele>332</ele>
        <time>2019-04-05T08:28:27Z</time>
      </trkpt>
      <trkpt lat="47.48905" lon="3.78995">
        <ele>333</ele>
        <time>2019-04-05T08:28:29Z</time>
      </trkpt>
      <trkpt lat="47.48907" lon="3.78999">
        <ele>333</ele>
        <time>2019-04-05T08:28:31Z</time>
      </trkpt>
      <trkpt lat="47.4891" lon="3.79008">
        <ele>333</ele>
        <time>2019-04-05T08:28:36Z</time>
      </trkpt>
      <trkpt lat="47.48913" lon="3.79013">
        <ele>334</ele>
        <time>2019-04-05T08:28:40Z</time>
      </trkpt>
      <trkpt lat="47.48915" lon="3.79019">
        <ele>335</ele>
        <time>2019-04-05T08:28:43Z</time>
      </trkpt>
      <trkpt lat="47.48919" lon="3.79025">
        <ele>334</ele>
        <time>2019-04-05T08:28:47Z</time>
      </trkpt>
      <trkpt lat="47.48925" lon="3.7903">
        <ele>336</ele>
        <time>2019-04-05T08:28:53Z</time>
      </trkpt>
      <trkpt lat="47.48929" lon="3.79035">
        <ele>334</ele>
        <time>2019-04-05T08:28:57Z</time>
      </trkpt>
      <trkpt lat="47.48931" lon="3.79038">
        <ele>334</ele>
        <time>2019-04-05T08:28:59Z</time>
      </trkpt>
      <trkpt lat="47.48936" lon="3.79043">
        <ele>333</ele>
        <time>2019-04-05T08:29:03Z</time>
      </trkpt>
      <trkpt lat="47.4894" lon="3.79049">
        <ele>333</ele>
        <time>2019-04-05T08:29:07Z</time>
      </trkpt>
      <trkpt lat="47.48942" lon="3.79051">
        <ele>333</ele>
        <time>2019-04-05T08:29:09Z</time>
      </trkpt>
      <trkpt lat="47.48948" lon="3.79055">
        <ele>334</ele>
        <time>2019-04-05T08:29:15Z</time>
      </trkpt>
      <trkpt lat="47.48952" lon="3.79059">
        <ele>334</ele>
        <time>2019-04-05T08:29:18Z</time>
      </trkpt>
      <trkpt lat="47.48954" lon="3.7906">
        <ele>334</ele>
        <time>2019-04-05T08:29:20Z</time>
      </trkpt>
      <trkpt lat="47.48958" lon="3.79063">
        <ele>334</ele>
        <time>2019-04-05T08:29:24Z</time>
      </trkpt>
      <trkpt lat="47.48961" lon="3.79068">
        <ele>334</ele>
        <time>2019-04-05T08:29:28Z</time>
      </trkpt>
      <trkpt lat="47.48966" lon="3.79072">
        <ele>334</ele>
        <time>2019-04-05T08:29:32Z</time>
      </trkpt>
      <trkpt lat="47.48972" lon="3.79078">
        <ele>333</ele>
        <time>2019-04-05T08:29:36Z</time>
      </trkpt>
      <trkpt lat="47.48976" lon="3.79084">
        <ele>334</ele>
        <time>2019-04-05T08:29:39Z</time>
      </trkpt>
      <trkpt lat="47.4898" lon="3.79088">
        <ele>333</ele>
        <time>2019-04-05T08:29:45Z</time>
      </trkpt>
      <trkpt lat="47.48985" lon="3.79089">
        <ele>332</ele>
        <time>2019-04-05T08:29:49Z</time>
      </trkpt>
      <trkpt lat="47.48989" lon="3.79092">
        <ele>332</ele>
        <time>2019-04-05T08:29:52Z</time>
      </trkpt>
      <trkpt lat="47.48993" lon="3.79095">
        <ele>332</ele>
        <time>2019-04-05T08:29:55Z</time>
      </trkpt>
      <trkpt lat="47.48997" lon="3.791">
        <ele>332</ele>
        <time>2019-04-05T08:30:00Z</time>
      </trkpt>
      <trkpt lat="47.49001" lon="3.79104">
        <ele>331</ele>
        <time>2019-04-05T08:30:05Z</time>
      </trkpt>
      <trkpt lat="47.49006" lon="3.7911">
        <ele>331</ele>
        <time>2019-04-05T08:30:10Z</time>
      </trkpt>
      <trkpt lat="47.49011" lon="3.79112">
        <ele>330</ele>
        <time>2019-04-05T08:30:13Z</time>
      </trkpt>
      <trkpt lat="47.49015" lon="3.79121">
        <ele>329</ele>
        <time>2019-04-05T08:30:19Z</time>
      </trkpt>
      <trkpt lat="47.49016" lon="3.79127">
        <ele>328</ele>
        <time>2019-04-05T08:30:23Z</time>
      </trkpt>
      <trkpt lat="47.49018" lon="3.79135">
        <ele>328</ele>
        <time>2019-04-05T08:30:27Z</time>
      </trkpt>
      <trkpt lat="47.4902" lon="3.7914">
        <ele>328</ele>
        <time>2019-04-05T08:30:29Z</time>
      </trkpt>
      <trkpt lat="47.49021" lon="3.79145">
        <ele>327</ele>
        <time>2019-04-05T08:30:32Z</time>
      </trkpt>
      <trkpt lat="47.49023" lon="3.79149">
        <ele>327</ele>
        <time>2019-04-05T08:30:36Z</time>
      </trkpt>
      <trkpt lat="47.49024" lon="3.79152">
        <ele>328</ele>
        <time>2019-04-05T08:30:39Z</time>
      </trkpt>
      <trkpt lat="47.49026" lon="3.79157">
        <ele>329</ele>
        <time>2019-04-05T08:30:44Z</time>
      </trkpt>
      <trkpt lat="47.49027" lon="3.79164">
        <ele>330</ele>
        <time>2019-04-05T08:30:49Z</time>
      </trkpt>
      <trkpt lat="47.49029" lon="3.7917">
        <ele>329</ele>
        <time>2019-04-05T08:30:52Z</time>
      </trkpt>
      <trkpt lat="47.49031" lon="3.79176">
        <ele>329</ele>
        <time>2019-04-05T08:30:57Z</time>
      </trkpt>
      <trkpt lat="47.49034" lon="3.79182">
        <ele>329</ele>
        <time>2019-04-05T08:31:01Z</time>
      </trkpt>
      <trkpt lat="47.49036" lon="3.79189">
        <ele>330</ele>
        <time>2019-04-05T08:31:04Z</time>
      </trkpt>
      <trkpt lat="47.49038" lon="3.79195">
        <ele>331</ele>
        <time>2019-04-05T08:31:09Z</time>
      </trkpt>
      <trkpt lat="47.49041" lon="3.79201">
        <ele>330</ele>
        <time>2019-04-05T08:31:12Z</time>
      </trkpt>
      <trkpt lat="47.49043" lon="3.79208">
        <ele>331</ele>
        <time>2019-04-05T08:31:17Z</time>
      </trkpt>
      <trkpt lat="47.49045" lon="3.79213">
        <ele>332</ele>
        <time>2019-04-05T08:31:21Z</time>
      </trkpt>
      <trkpt lat="47.49049" lon="3.79223">
        <ele>332</ele>
        <time>2019-04-05T08:31:27Z</time>
      </trkpt>
      <trkpt lat="47.4905" lon="3.79232">
        <ele>333</ele>
        <time>2019-04-05T08:31:31Z</time>
      </trkpt>
      <trkpt lat="47.49052" lon="3.79239">
        <ele>333</ele>
        <time>2019-04-05T08:31:35Z</time>
      </trkpt>
      <trkpt lat="47.49054" lon="3.79249">
        <ele>334</ele>
        <time>2019-04-05T08:31:42Z</time>
      </trkpt>
      <trkpt lat="47.49057" lon="3.79257">
        <ele>334</ele>
        <time>2019-04-05T08:31:45Z</time>
      </trkpt>
      <trkpt lat="47.49058" lon="3.7926">
        <ele>335</ele>
        <time>2019-04-05T08:31:47Z</time>
      </trkpt>
      <trkpt lat="47.4906" lon="3.7927">
        <ele>335</ele>
        <time>2019-04-05T08:31:52Z</time>
      </trkpt>
      <trkpt lat="47.49063" lon="3.79278">
        <ele>336</ele>
        <time>2019-04-05T08:31:57Z</time>
      </trkpt>
      <trkpt lat="47.49064" lon="3.79286">
        <ele>338</ele>
        <time>2019-04-05T08:32:01Z</time>
      </trkpt>
      <trkpt lat="47.49067" lon="3.79292">
        <ele>337</ele>
        <time>2019-04-05T08:32:05Z</time>
      </trkpt>
      <trkpt lat="47.4907" lon="3.79298">
        <ele>337</ele>
        <time>2019-04-05T08:32:09Z</time>
      </trkpt>
      <trkpt lat="47.49072" lon="3.79303">
        <ele>339</ele>
        <time>2019-04-05T08:32:11Z</time>
      </trkpt>
      <trkpt lat="47.49073" lon="3.79308">
        <ele>338</ele>
        <time>2019-04-05T08:32:14Z</time>
      </trkpt>
      <trkpt lat="47.49074" lon="3.79311">
        <ele>338</ele>
        <time>2019-04-05T08:32:15Z</time>
      </trkpt>
      <trkpt lat="47.49076" lon="3.79315">
        <ele>338</ele>
        <time>2019-04-05T08:32:17Z</time>
      </trkpt>
      <trkpt lat="47.49078" lon="3.79321">
        <ele>339</ele>
        <time>2019-04-05T08:32:22Z</time>
      </trkpt>
      <trkpt lat="47.4908" lon="3.79324">
        <ele>338</ele>
        <time>2019-04-05T08:32:26Z</time>
      </trkpt>
      <trkpt lat="47.49081" lon="3.79328">
        <ele>339</ele>
        <time>2019-04-05T08:32:29Z</time>
      </trkpt>
      <trkpt lat="47.49083" lon="3.79332">
        <ele>339</ele>
        <time>2019-04-05T08:32:32Z</time>
      </trkpt>
      <trkpt lat="47.49087" lon="3.79339">
        <ele>339</ele>
        <time>2019-04-05T08:32:37Z</time>
      </trkpt>
      <trkpt lat="47.49089" lon="3.79349">
        <ele>338</ele>
        <time>2019-04-05T08:32:43Z</time>
      </trkpt>
      <trkpt lat="47.4909" lon="3.79357">
        <ele>338</ele>
        <time>2019-04-05T08:32:48Z</time>
      </trkpt>
      <trkpt lat="47.49093" lon="3.79363">
        <ele>337</ele>
        <time>2019-04-05T08:32:52Z</time>
      </trkpt>
      <trkpt lat="47.49097" lon="3.79371">
        <ele>339</ele>
        <time>2019-04-05T08:32:56Z</time>
      </trkpt>
      <trkpt lat="47.491" lon="3.79375">
        <ele>338</ele>
        <time>2019-04-05T08:33:00Z</time>
      </trkpt>
      <trkpt lat="47.49101" lon="3.79379">
        <ele>338</ele>
        <time>2019-04-05T08:33:02Z</time>
      </trkpt>
      <trkpt lat="47.49104" lon="3.79385">
        <ele>336</ele>
        <time>2019-04-05T08:33:05Z</time>
      </trkpt>
      <trkpt lat="47.49107" lon="3.79389">
        <ele>335</ele>
        <time>2019-04-05T08:33:07Z</time>
      </trkpt>
      <trkpt lat="47.49109" lon="3.79396">
        <ele>336</ele>
        <time>2019-04-05T08:33:11Z</time>
      </trkpt>
      <trkpt lat="47.4911" lon="3.79399">
        <ele>336</ele>
        <time>2019-04-05T08:33:13Z</time>
      </trkpt>
      <trkpt lat="47.49113" lon="3.79406">
        <ele>335</ele>
        <time>2019-04-05T08:33:16Z</time>
      </trkpt>
      <trkpt lat="47.49116" lon="3.79415">
        <ele>334</ele>
        <time>2019-04-05T08:33:22Z</time>
      </trkpt>
      <trkpt lat="47.49117" lon="3.79424">
        <ele>334</ele>
        <time>2019-04-05T08:33:25Z</time>
      </trkpt>
      <trkpt lat="47.49119" lon="3.79431">
        <ele>332</ele>
        <time>2019-04-05T08:33:31Z</time>
      </trkpt>
      <trkpt lat="47.4912" lon="3.79438">
        <ele>331</ele>
        <time>2019-04-05T08:33:35Z</time>
      </trkpt>
      <trkpt lat="47.49121" lon="3.79447">
        <ele>331</ele>
        <time>2019-04-05T08:33:41Z</time>
      </trkpt>
      <trkpt lat="47.49123" lon="3.79456">
        <ele>331</ele>
        <time>2019-04-05T08:33:45Z</time>
      </trkpt>
      <trkpt lat="47.49126" lon="3.79463">
        <ele>330</ele>
        <time>2019-04-05T08:33:49Z</time>
      </trkpt>
      <trkpt lat="47.49128" lon="3.7947">
        <ele>329</ele>
        <time>2019-04-05T08:33:53Z</time>
      </trkpt>
      <trkpt lat="47.49132" lon="3.79476">
        <ele>330</ele>
        <time>2019-04-05T08:33:57Z</time>
      </trkpt>
      <trkpt lat="47.49135" lon="3.79485">
        <ele>328</ele>
        <time>2019-04-05T08:34:02Z</time>
      </trkpt>
      <trkpt lat="47.49138" lon="3.79491">
        <ele>327</ele>
        <time>2019-04-05T08:34:08Z</time>
      </trkpt>
      <trkpt lat="47.49139" lon="3.79495">
        <ele>327</ele>
        <time>2019-04-05T08:34:11Z</time>
      </trkpt>
      <trkpt lat="47.49139" lon="3.79503">
        <ele>327</ele>
        <time>2019-04-05T08:34:16Z</time>
      </trkpt>
      <trkpt lat="47.4914" lon="3.7951">
        <ele>327</ele>
        <time>2019-04-05T08:34:19Z</time>
      </trkpt>
      <trkpt lat="47.49141" lon="3.79514">
        <ele>327</ele>
        <time>2019-04-05T08:34:21Z</time>
      </trkpt>
      <trkpt lat="47.49142" lon="3.79519">
        <ele>326</ele>
        <time>2019-04-05T08:34:24Z</time>
      </trkpt>
      <trkpt lat="47.49145" lon="3.79526">
        <ele>324</ele>
        <time>2019-04-05T08:34:29Z</time>
      </trkpt>
      <trkpt lat="47.49147" lon="3.79534">
        <ele>324</ele>
        <time>2019-04-05T08:34:33Z</time>
      </trkpt>
      <trkpt lat="47.49149" lon="3.79541">
        <ele>323</ele>
        <time>2019-04-05T08:34:37Z</time>
      </trkpt>
      <trkpt lat="47.49152" lon="3.79549">
        <ele>323</ele>
        <time>2019-04-05T08:34:42Z</time>
      </trkpt>
      <trkpt lat="47.49153" lon="3.79554">
        <ele>322</ele>
        <time>2019-04-05T08:34:46Z</time>
      </trkpt>
      <trkpt lat="47.49155" lon="3.79562">
        <ele>323</ele>
        <time>2019-04-05T08:34:54Z</time>
      </trkpt>
      <trkpt lat="47.49157" lon="3.7957">
        <ele>323</ele>
        <time>2019-04-05T08:34:59Z</time>
      </trkpt>
      <trkpt lat="47.49158" lon="3.79575">
        <ele>322</ele>
        <time>2019-04-05T08:35:02Z</time>
      </trkpt>
      <trkpt lat="47.4916" lon="3.79582">
        <ele>322</ele>
        <time>2019-04-05T08:35:07Z</time>
      </trkpt>
      <trkpt lat="47.49161" lon="3.79591">
        <ele>320</ele>
        <time>2019-04-05T08:35:12Z</time>
      </trkpt>
      <trkpt lat="47.49162" lon="3.79596">
        <ele>319</ele>
        <time>2019-04-05T08:35:14Z</time>
      </trkpt>
      <trkpt lat="47.49164" lon="3.79603">
        <ele>319</ele>
        <time>2019-04-05T08:35:21Z</time>
      </trkpt>
      <trkpt lat="47.49165" lon="3.7961">
        <ele>319</ele>
        <time>2019-04-05T08:35:25Z</time>
      </trkpt>
      <trkpt lat="47.49167" lon="3.79616">
        <ele>319</ele>
        <time>2019-04-05T08:35:29Z</time>
      </trkpt>
      <trkpt lat="47.49167" lon="3.79624">
        <ele>320</ele>
        <time>2019-04-05T08:35:34Z</time>
      </trkpt>
      <trkpt lat="47.49167" lon="3.79628">
        <ele>320</ele>
        <time>2019-04-05T08:35:36Z</time>
      </trkpt>
      <trkpt lat="47.49168" lon="3.79634">
        <ele>320</ele>
        <time>2019-04-05T08:35:39Z</time>
      </trkpt>
      <trkpt lat="47.49168" lon="3.79641">
        <ele>321</ele>
        <time>2019-04-05T08:35:44Z</time>
      </trkpt>
      <trkpt lat="47.49169" lon="3.79648">
        <ele>320</ele>
        <time>2019-04-05T08:35:48Z</time>
      </trkpt>
      <trkpt lat="47.49169" lon="3.79655">
        <ele>321</ele>
        <time>2019-04-05T08:35:52Z</time>
      </trkpt>
      <trkpt lat="47.4917" lon="3.7966">
        <ele>321</ele>
        <time>2019-04-05T08:35:55Z</time>
      </trkpt>
      <trkpt lat="47.49171" lon="3.79665">
        <ele>321</ele>
        <time>2019-04-05T08:35:57Z</time>
      </trkpt>
      <trkpt lat="47.49171" lon="3.79671">
        <ele>319</ele>
        <time>2019-04-05T08:36:01Z</time>
      </trkpt>
      <trkpt lat="47.49173" lon="3.79681">
        <ele>321</ele>
        <time>2019-04-05T08:36:06Z</time>
      </trkpt>
      <trkpt lat="47.49173" lon="3.79691">
        <ele>322</ele>
        <time>2019-04-05T08:36:11Z</time>
      </trkpt>
      <trkpt lat="47.49173" lon="3.79695">
        <ele>322</ele>
        <time>2019-04-05T08:36:13Z</time>
      </trkpt>
      <trkpt lat="47.49173" lon="3.79702">
        <ele>322</ele>
        <time>2019-04-05T08:36:17Z</time>
      </trkpt>
      <trkpt lat="47.49173" lon="3.79706">
        <ele>322</ele>
        <time>2019-04-05T08:36:19Z</time>
      </trkpt>
      <trkpt lat="47.49173" lon="3.79711">
        <ele>322</ele>
        <time>2019-04-05T08:36:22Z</time>
      </trkpt>
      <trkpt lat="47.49173" lon="3.79718">
        <ele>322</ele>
        <time>2019-04-05T08:36:26Z</time>
      </trkpt>
      <trkpt lat="47.49173" lon="3.79722">
        <ele>323</ele>
        <time>2019-04-05T08:36:28Z</time>
      </trkpt>
      <trkpt lat="47.49174" lon="3.7973">
        <ele>322</ele>
        <time>2019-04-05T08:36:33Z</time>
      </trkpt>
      <trkpt lat="47.49173" lon="3.79739">
        <ele>324</ele>
        <time>2019-04-05T08:36:38Z</time>
      </trkpt>
      <trkpt lat="47.49174" lon="3.79747">
        <ele>325</ele>
        <time>2019-04-05T08:36:42Z</time>
      </trkpt>
      <trkpt lat="47.49174" lon="3.79751">
        <ele>324</ele>
        <time>2019-04-05T08:36:45Z</time>
      </trkpt>
      <trkpt lat="47.49174" lon="3.79758">
        <ele>325</ele>
        <time>2019-04-05T08:36:49Z</time>
      </trkpt>
      <trkpt lat="47.49174" lon="3.79762">
        <ele>325</ele>
        <time>2019-04-05T08:36:51Z</time>
      </trkpt>
      <trkpt lat="47.49173" lon="3.79769">
        <ele>325</ele>
        <time>2019-04-05T08:36:55Z</time>
      </trkpt>
      <trkpt lat="47.49173" lon="3.79776">
        <ele>325</ele>
        <time>2019-04-05T08:36:58Z</time>
      </trkpt>
      <trkpt lat="47.49173" lon="3.79784">
        <ele>326</ele>
        <time>2019-04-05T08:37:02Z</time>
      </trkpt>
      <trkpt lat="47.49172" lon="3.79792">
        <ele>326</ele>
        <time>2019-04-05T08:37:07Z</time>
      </trkpt>
      <trkpt lat="47.49172" lon="3.79795">
        <ele>326</ele>
        <time>2019-04-05T08:37:09Z</time>
      </trkpt>
      <trkpt lat="47.49172" lon="3.79804">
        <ele>326</ele>
        <time>2019-04-05T08:37:14Z</time>
      </trkpt>
      <trkpt lat="47.49171" lon="3.79808">
        <ele>326</ele>
        <time>2019-04-05T08:37:16Z</time>
      </trkpt>
      <trkpt lat="47.49171" lon="3.79813">
        <ele>328</ele>
        <time>2019-04-05T08:37:19Z</time>
      </trkpt>
      <trkpt lat="47.49172" lon="3.79822">
        <ele>329</ele>
        <time>2019-04-05T08:37:24Z</time>
      </trkpt>
      <trkpt lat="47.49172" lon="3.79829">
        <ele>328</ele>
        <time>2019-04-05T08:37:28Z</time>
      </trkpt>
      <trkpt lat="47.49172" lon="3.79833">
        <ele>329</ele>
        <time>2019-04-05T08:37:30Z</time>
      </trkpt>
      <trkpt lat="47.49171" lon="3.79837">
        <ele>328</ele>
        <time>2019-04-05T08:37:32Z</time>
      </trkpt>
      <trkpt lat="47.49171" lon="3.79841">
        <ele>329</ele>
        <time>2019-04-05T08:37:34Z</time>
      </trkpt>
      <trkpt lat="47.49171" lon="3.79844">
        <ele>330</ele>
        <time>2019-04-05T08:37:36Z</time>
      </trkpt>
      <trkpt lat="47.4917" lon="3.79851">
        <ele>329</ele>
        <time>2019-04-05T08:37:40Z</time>
      </trkpt>
      <trkpt lat="47.49169" lon="3.7986">
        <ele>329</ele>
        <time>2019-04-05T08:37:45Z</time>
      </trkpt>
      <trkpt lat="47.49167" lon="3.79866">
        <ele>329</ele>
        <time>2019-04-05T08:37:49Z</time>
      </trkpt>
      <trkpt lat="47.49165" lon="3.79873">
        <ele>329</ele>
        <time>2019-04-05T08:37:53Z</time>
      </trkpt>
      <trkpt lat="47.49164" lon="3.7988">
        <ele>330</ele>
        <time>2019-04-05T08:37:57Z</time>
      </trkpt>
      <trkpt lat="47.49162" lon="3.79888">
        <ele>331</ele>
        <time>2019-04-05T08:38:02Z</time>
      </trkpt>
      <trkpt lat="47.4916" lon="3.79893">
        <ele>330</ele>
        <time>2019-04-05T08:38:06Z</time>
      </trkpt>
      <trkpt lat="47.49159" lon="3.79897">
        <ele>329</ele>
        <time>2019-04-05T08:38:09Z</time>
      </trkpt>
      <trkpt lat="47.49157" lon="3.79904">
        <ele>329</ele>
        <time>2019-04-05T08:38:13Z</time>
      </trkpt>
      <trkpt lat="47.49156" lon="3.79911">
        <ele>329</ele>
        <time>2019-04-05T08:38:17Z</time>
      </trkpt>
      <trkpt lat="47.49155" lon="3.79917">
        <ele>329</ele>
        <time>2019-04-05T08:38:20Z</time>
      </trkpt>
      <trkpt lat="47.49154" lon="3.79922">
        <ele>328</ele>
        <time>2019-04-05T08:38:23Z</time>
      </trkpt>
      <trkpt lat="47.49152" lon="3.79928">
        <ele>328</ele>
        <time>2019-04-05T08:38:27Z</time>
      </trkpt>
      <trkpt lat="47.4915" lon="3.79935">
        <ele>327</ele>
        <time>2019-04-05T08:38:31Z</time>
      </trkpt>
      <trkpt lat="47.49148" lon="3.79941">
        <ele>327</ele>
        <time>2019-04-05T08:38:35Z</time>
      </trkpt>
      <trkpt lat="47.49146" lon="3.79948">
        <ele>326</ele>
        <time>2019-04-05T08:38:39Z</time>
      </trkpt>
      <trkpt lat="47.49145" lon="3.79955">
        <ele>326</ele>
        <time>2019-04-05T08:38:43Z</time>
      </trkpt>
      <trkpt lat="47.49144" lon="3.7996">
        <ele>326</ele>
        <time>2019-04-05T08:38:46Z</time>
      </trkpt>
      <trkpt lat="47.49144" lon="3.79966">
        <ele>326</ele>
        <time>2019-04-05T08:38:49Z</time>
      </trkpt>
      <trkpt lat="47.49143" lon="3.79971">
        <ele>326</ele>
        <time>2019-04-05T08:38:51Z</time>
      </trkpt>
      <trkpt lat="47.49142" lon="3.79976">
        <ele>326</ele>
        <time>2019-04-05T08:38:54Z</time>
      </trkpt>
      <trkpt lat="47.49142" lon="3.79979">
        <ele>325</ele>
        <time>2019-04-05T08:38:56Z</time>
      </trkpt>
      <trkpt lat="47.49142" lon="3.79987">
        <ele>325</ele>
        <time>2019-04-05T08:39:00Z</time>
      </trkpt>
      <trkpt lat="47.49142" lon="3.79992">
        <ele>325</ele>
        <time>2019-04-05T08:39:02Z</time>
      </trkpt>
      <trkpt lat="47.49141" lon="3.79996">
        <ele>324</ele>
        <time>2019-04-05T08:39:04Z</time>
      </trkpt>
      <trkpt lat="47.49141" lon="3.80003">
        <ele>324</ele>
        <time>2019-04-05T08:39:08Z</time>
      </trkpt>
      <trkpt lat="47.49142" lon="3.80008">
        <ele>324</ele>
        <time>2019-04-05T08:39:11Z</time>
      </trkpt>
      <trkpt lat="47.49142" lon="3.80015">
        <ele>322</ele>
        <time>2019-04-05T08:39:15Z</time>
      </trkpt>
      <trkpt lat="47.49143" lon="3.80023">
        <ele>322</ele>
        <time>2019-04-05T08:39:20Z</time>
      </trkpt>
      <trkpt lat="47.49143" lon="3.80028">
        <ele>322</ele>
        <time>2019-04-05T08:39:23Z</time>
      </trkpt>
      <trkpt lat="47.49141" lon="3.80036">
        <ele>322</ele>
        <time>2019-04-05T08:39:28Z</time>
      </trkpt>
      <trkpt lat="47.49141" lon="3.80043">
        <ele>321</ele>
        <time>2019-04-05T08:39:32Z</time>
      </trkpt>
      <trkpt lat="47.4914" lon="3.80047">
        <ele>320</ele>
        <time>2019-04-05T08:39:34Z</time>
      </trkpt>
      <trkpt lat="47.4914" lon="3.80052">
        <ele>319</ele>
        <time>2019-04-05T08:39:37Z</time>
      </trkpt>
      <trkpt lat="47.4914" lon="3.80056">
        <ele>319</ele>
        <time>2019-04-05T08:39:39Z</time>
      </trkpt>
      <trkpt lat="47.4914" lon="3.80066">
        <ele>318</ele>
        <time>2019-04-05T08:39:45Z</time>
      </trkpt>
      <trkpt lat="47.49141" lon="3.80073">
        <ele>317</ele>
        <time>2019-04-05T08:39:49Z</time>
      </trkpt>
      <trkpt lat="47.49142" lon="3.80081">
        <ele>317</ele>
        <time>2019-04-05T08:39:54Z</time>
      </trkpt>
      <trkpt lat="47.49142" lon="3.80085">
        <ele>316</ele>
        <time>2019-04-05T08:39:56Z</time>
      </trkpt>
      <trkpt lat="47.49142" lon="3.80089">
        <ele>315</ele>
        <time>2019-04-05T08:39:58Z</time>
      </trkpt>
      <trkpt lat="47.49142" lon="3.80092">
        <ele>315</ele>
        <time>2019-04-05T08:40:00Z</time>
      </trkpt>
      <trkpt lat="47.49142" lon="3.80098">
        <ele>314</ele>
        <time>2019-04-05T08:40:03Z</time>
      </trkpt>
      <trkpt lat="47.49142" lon="3.80101">
        <ele>314</ele>
        <time>2019-04-05T08:40:05Z</time>
      </trkpt>
      <trkpt lat="47.49142" lon="3.80108">
        <ele>313</ele>
        <time>2019-04-05T08:40:09Z</time>
      </trkpt>
      <trkpt lat="47.49142" lon="3.80112">
        <ele>313</ele>
        <time>2019-04-05T08:40:11Z</time>
      </trkpt>
      <trkpt lat="47.49143" lon="3.80116">
        <ele>311</ele>
        <time>2019-04-05T08:40:14Z</time>
      </trkpt>
      <trkpt lat="47.49142" lon="3.80124">
        <ele>310</ele>
        <time>2019-04-05T08:40:19Z</time>
      </trkpt>
      <trkpt lat="47.49142" lon="3.80129">
        <ele>309</ele>
        <time>2019-04-05T08:40:23Z</time>
      </trkpt>
      <trkpt lat="47.49142" lon="3.80134">
        <ele>309</ele>
        <time>2019-04-05T08:40:26Z</time>
      </trkpt>
      <trkpt lat="47.49142" lon="3.80137">
        <ele>309</ele>
        <time>2019-04-05T08:40:28Z</time>
      </trkpt>
      <trkpt lat="47.49143" lon="3.80144">
        <ele>309</ele>
        <time>2019-04-05T08:40:32Z</time>
      </trkpt>
      <trkpt lat="47.49143" lon="3.80152">
        <ele>309</ele>
        <time>2019-04-05T08:40:36Z</time>
      </trkpt>
      <trkpt lat="47.49143" lon="3.8016">
        <ele>309</ele>
        <time>2019-04-05T08:40:41Z</time>
      </trkpt>
      <trkpt lat="47.49143" lon="3.80166">
        <ele>309</ele>
        <time>2019-04-05T08:40:43Z</time>
      </trkpt>
      <trkpt lat="47.49143" lon="3.80173">
        <ele>307</ele>
        <time>2019-04-05T08:40:48Z</time>
      </trkpt>
      <trkpt lat="47.49143" lon="3.80181">
        <ele>306</ele>
        <time>2019-04-05T08:40:53Z</time>
      </trkpt>
      <trkpt lat="47.49143" lon="3.80184">
        <ele>306</ele>
        <time>2019-04-05T08:40:54Z</time>
      </trkpt>
      <trkpt lat="47.49143" lon="3.80188">
        <ele>305</ele>
        <time>2019-04-05T08:40:56Z</time>
      </trkpt>
      <trkpt lat="47.49142" lon="3.80193">
        <ele>305</ele>
        <time>2019-04-05T08:40:59Z</time>
      </trkpt>
      <trkpt lat="47.49142" lon="3.80197">
        <ele>304</ele>
        <time>2019-04-05T08:41:01Z</time>
      </trkpt>
      <trkpt lat="47.49141" lon="3.80201">
        <ele>303</ele>
        <time>2019-04-05T08:41:03Z</time>
      </trkpt>
      <trkpt lat="47.49141" lon="3.80204">
        <ele>303</ele>
        <time>2019-04-05T08:41:05Z</time>
      </trkpt>
      <trkpt lat="47.49142" lon="3.80212">
        <ele>302</ele>
        <time>2019-04-05T08:41:10Z</time>
      </trkpt>
      <trkpt lat="47.49141" lon="3.80222">
        <ele>301</ele>
        <time>2019-04-05T08:41:16Z</time>
      </trkpt>
      <trkpt lat="47.4914" lon="3.80226">
        <ele>300</ele>
        <time>2019-04-05T08:41:19Z</time>
      </trkpt>
      <trkpt lat="47.4914" lon="3.80232">
        <ele>299</ele>
        <time>2019-04-05T08:41:23Z</time>
      </trkpt>
      <trkpt lat="47.49141" lon="3.80238">
        <ele>298</ele>
        <time>2019-04-05T08:41:27Z</time>
      </trkpt>
      <trkpt lat="47.49141" lon="3.80242">
        <ele>297</ele>
        <time>2019-04-05T08:41:29Z</time>
      </trkpt>
      <trkpt lat="47.49141" lon="3.80243">
        <ele>297</ele>
        <time>2019-04-05T08:41:37Z</time>
      </trkpt>
      <trkpt lat="47.49141" lon="3.80251">
        <ele>292</ele>
        <time>2019-04-05T08:42:17Z</time>
      </trkpt>
      <trkpt lat="47.4914" lon="3.80257">
        <ele>292</ele>
        <time>2019-04-05T08:42:21Z</time>
      </trkpt>
      <trkpt lat="47.49139" lon="3.80263">
        <ele>292</ele>
        <time>2019-04-05T08:42:25Z</time>
      </trkpt>
      <trkpt lat="47.49139" lon="3.80271">
        <ele>293</ele>
        <time>2019-04-05T08:42:31Z</time>
      </trkpt>
      <trkpt lat="47.49138" lon="3.80277">
        <ele>291</ele>
        <time>2019-04-05T08:42:34Z</time>
      </trkpt>
      <trkpt lat="47.49138" lon="3.8028">
        <ele>291</ele>
        <time>2019-04-05T08:42:36Z</time>
      </trkpt>
      <trkpt lat="47.49137" lon="3.80288">
        <ele>290</ele>
        <time>2019-04-05T08:42:41Z</time>
      </trkpt>
      <trkpt lat="47.49136" lon="3.80295">
        <ele>290</ele>
        <time>2019-04-05T08:42:45Z</time>
      </trkpt>
      <trkpt lat="47.49136" lon="3.803">
        <ele>290</ele>
        <time>2019-04-05T08:42:48Z</time>
      </trkpt>
      <trkpt lat="47.49135" lon="3.80303">
        <ele>290</ele>
        <time>2019-04-05T08:42:50Z</time>
      </trkpt>
      <trkpt lat="47.49135" lon="3.80307">
        <ele>289</ele>
        <time>2019-04-05T08:42:52Z</time>
      </trkpt>
      <trkpt lat="47.49135" lon="3.80312">
        <ele>288</ele>
        <time>2019-04-05T08:42:55Z</time>
      </trkpt>
      <trkpt lat="47.49134" lon="3.80318">
        <ele>287</ele>
        <time>2019-04-05T08:42:59Z</time>
      </trkpt>
      <trkpt lat="47.49134" lon="3.80324">
        <ele>286</ele>
        <time>2019-04-05T08:43:02Z</time>
      </trkpt>
      <trkpt lat="47.49133" lon="3.80331">
        <ele>285</ele>
        <time>2019-04-05T08:43:07Z</time>
      </trkpt>
      <trkpt lat="47.49132" lon="3.80336">
        <ele>284</ele>
        <time>2019-04-05T08:43:10Z</time>
      </trkpt>
      <trkpt lat="47.49131" lon="3.80344">
        <ele>283</ele>
        <time>2019-04-05T08:43:14Z</time>
      </trkpt>
      <trkpt lat="47.49131" lon="3.80349">
        <ele>283</ele>
        <time>2019-04-05T08:43:17Z</time>
      </trkpt>
      <trkpt lat="47.49131" lon="3.80355">
        <ele>282</ele>
        <time>2019-04-05T08:43:21Z</time>
      </trkpt>
      <trkpt lat="47.4913" lon="3.80361">
        <ele>281</ele>
        <time>2019-04-05T08:43:25Z</time>
      </trkpt>
      <trkpt lat="47.4913" lon="3.80365">
        <ele>280</ele>
        <time>2019-04-05T08:43:27Z</time>
      </trkpt>
      <trkpt lat="47.4913" lon="3.80369">
        <ele>278</ele>
        <time>2019-04-05T08:43:32Z</time>
      </trkpt>
      <trkpt lat="47.49129" lon="3.80376">
        <ele>278</ele>
        <time>2019-04-05T08:43:36Z</time>
      </trkpt>
      <trkpt lat="47.49128" lon="3.80384">
        <ele>278</ele>
        <time>2019-04-05T08:43:41Z</time>
      </trkpt>
      <trkpt lat="47.49128" lon="3.80388">
        <ele>278</ele>
        <time>2019-04-05T08:43:43Z</time>
      </trkpt>
      <trkpt lat="47.49126" lon="3.80395">
        <ele>279</ele>
        <time>2019-04-05T08:43:47Z</time>
      </trkpt>
      <trkpt lat="47.49125" lon="3.80402">
        <ele>279</ele>
        <time>2019-04-05T08:43:51Z</time>
      </trkpt>
      <trkpt lat="47.49124" lon="3.80406">
        <ele>279</ele>
        <time>2019-04-05T08:43:53Z</time>
      </trkpt>
      <trkpt lat="47.49124" lon="3.80413">
        <ele>278</ele>
        <time>2019-04-05T08:43:57Z</time>
      </trkpt>
      <trkpt lat="47.49123" lon="3.80417">
        <ele>278</ele>
        <time>2019-04-05T08:43:59Z</time>
      </trkpt>
      <trkpt lat="47.49123" lon="3.80424">
        <ele>279</ele>
        <time>2019-04-05T08:44:03Z</time>
      </trkpt>
      <trkpt lat="47.49123" lon="3.80429">
        <ele>279</ele>
        <time>2019-04-05T08:44:05Z</time>
      </trkpt>
      <trkpt lat="47.49123" lon="3.80433">
        <ele>278</ele>
        <time>2019-04-05T08:44:07Z</time>
      </trkpt>
      <trkpt lat="47.49122" lon="3.80441">
        <ele>277</ele>
        <time>2019-04-05T08:44:11Z</time>
      </trkpt>
      <trkpt lat="47.49122" lon="3.80449">
        <ele>277</ele>
        <time>2019-04-05T08:44:15Z</time>
      </trkpt>
      <trkpt lat="47.49121" lon="3.80455">
        <ele>277</ele>
        <time>2019-04-05T08:44:18Z</time>
      </trkpt>
      <trkpt lat="47.49121" lon="3.80459">
        <ele>277</ele>
        <time>2019-04-05T08:44:20Z</time>
      </trkpt>
      <trkpt lat="47.49121" lon="3.80463">
        <ele>277</ele>
        <time>2019-04-05T08:44:22Z</time>
      </trkpt>
      <trkpt lat="47.4912" lon="3.80471">
        <ele>278</ele>
        <time>2019-04-05T08:44:26Z</time>
      </trkpt>
      <trkpt lat="47.4912" lon="3.80475">
        <ele>279</ele>
        <time>2019-04-05T08:44:28Z</time>
      </trkpt>
      <trkpt lat="47.49119" lon="3.80483">
        <ele>280</ele>
        <time>2019-04-05T08:44:32Z</time>
      </trkpt>
      <trkpt lat="47.49119" lon="3.80493">
        <ele>281</ele>
        <time>2019-04-05T08:44:37Z</time>
      </trkpt>
      <trkpt lat="47.49119" lon="3.80502">
        <ele>282</ele>
        <time>2019-04-05T08:44:41Z</time>
      </trkpt>
      <trkpt lat="47.49119" lon="3.80509">
        <ele>281</ele>
        <time>2019-04-05T08:44:46Z</time>
      </trkpt>
      <trkpt lat="47.4912" lon="3.80512">
        <ele>281</ele>
        <time>2019-04-05T08:44:48Z</time>
      </trkpt>
      <trkpt lat="47.49119" lon="3.80516">
        <ele>281</ele>
        <time>2019-04-05T08:44:51Z</time>
      </trkpt>
      <trkpt lat="47.49119" lon="3.8052">
        <ele>282</ele>
        <time>2019-04-05T08:44:53Z</time>
      </trkpt>
      <trkpt lat="47.49119" lon="3.80524">
        <ele>282</ele>
        <time>2019-04-05T08:44:56Z</time>
      </trkpt>
      <trkpt lat="47.49119" lon="3.80527">
        <ele>282</ele>
        <time>2019-04-05T08:44:58Z</time>
      </trkpt>
      <trkpt lat="47.49119" lon="3.80531">
        <ele>282</ele>
        <time>2019-04-05T08:45:00Z</time>
      </trkpt>
      <trkpt lat="47.4912" lon="3.80539">
        <ele>282</ele>
        <time>2019-04-05T08:45:04Z</time>
      </trkpt>
      <trkpt lat="47.4912" lon="3.80549">
        <ele>284</ele>
        <time>2019-04-05T08:45:09Z</time>
      </trkpt>
      <trkpt lat="47.49121" lon="3.80556">
        <ele>284</ele>
        <time>2019-04-05T08:45:13Z</time>
      </trkpt>
      <trkpt lat="47.49121" lon="3.80561">
        <ele>284</ele>
        <time>2019-04-05T08:45:15Z</time>
      </trkpt>
      <trkpt lat="47.49122" lon="3.80565">
        <ele>283</ele>
        <time>2019-04-05T08:45:17Z</time>
      </trkpt>
      <trkpt lat="47.49121" lon="3.80573">
        <ele>283</ele>
        <time>2019-04-05T08:45:22Z</time>
      </trkpt>
      <trkpt lat="47.49121" lon="3.8058">
        <ele>283</ele>
        <time>2019-04-05T08:45:26Z</time>
      </trkpt>
      <trkpt lat="47.49122" lon="3.80588">
        <ele>283</ele>
        <time>2019-04-05T08:45:30Z</time>
      </trkpt>
      <trkpt lat="47.49122" lon="3.80595">
        <ele>284</ele>
        <time>2019-04-05T08:45:34Z</time>
      </trkpt>
      <trkpt lat="47.49124" lon="3.80605">
        <ele>283</ele>
        <time>2019-04-05T08:45:40Z</time>
      </trkpt>
      <trkpt lat="47.49123" lon="3.80612">
        <ele>283</ele>
        <time>2019-04-05T08:45:45Z</time>
      </trkpt>
      <trkpt lat="47.49122" lon="3.80614">
        <ele>282</ele>
        <time>2019-04-05T08:45:54Z</time>
      </trkpt>
      <trkpt lat="47.49123" lon="3.80622">
        <ele>282</ele>
        <time>2019-04-05T08:46:14Z</time>
      </trkpt>
      <trkpt lat="47.49122" lon="3.8063">
        <ele>283</ele>
        <time>2019-04-05T08:46:26Z</time>
      </trkpt>
      <trkpt lat="47.49121" lon="3.80638">
        <ele>283</ele>
        <time>2019-04-05T08:46:35Z</time>
      </trkpt>
      <trkpt lat="47.49119" lon="3.80645">
        <ele>283</ele>
        <time>2019-04-05T08:46:41Z</time>
      </trkpt>
      <trkpt lat="47.49117" lon="3.8065">
        <ele>281</ele>
        <time>2019-04-05T08:46:50Z</time>
      </trkpt>
      <trkpt lat="47.49115" lon="3.80653">
        <ele>281</ele>
        <time>2019-04-05T08:46:54Z</time>
      </trkpt>
      <trkpt lat="47.49113" lon="3.80657">
        <ele>281</ele>
        <time>2019-04-05T08:46:57Z</time>
      </trkpt>
      <trkpt lat="47.49111" lon="3.80664">
        <ele>280</ele>
        <time>2019-04-05T08:47:02Z</time>
      </trkpt>
      <trkpt lat="47.49108" lon="3.80669">
        <ele>280</ele>
        <time>2019-04-05T08:47:08Z</time>
      </trkpt>
      <trkpt lat="47.49105" lon="3.80676">
        <ele>279</ele>
        <time>2019-04-05T08:47:14Z</time>
      </trkpt>
      <trkpt lat="47.49103" lon="3.80679">
        <ele>278</ele>
        <time>2019-04-05T08:47:17Z</time>
      </trkpt>
      <trkpt lat="47.49102" lon="3.80685">
        <ele>277</ele>
        <time>2019-04-05T08:47:22Z</time>
      </trkpt>
      <trkpt lat="47.491" lon="3.80689">
        <ele>277</ele>
        <time>2019-04-05T08:47:25Z</time>
      </trkpt>
      <trkpt lat="47.49097" lon="3.80694">
        <ele>276</ele>
        <time>2019-04-05T08:47:30Z</time>
      </trkpt>
      <trkpt lat="47.49095" lon="3.80698">
        <ele>277</ele>
        <time>2019-04-05T08:47:34Z</time>
      </trkpt>
      <trkpt lat="47.49093" lon="3.80705">
        <ele>275</ele>
        <time>2019-04-05T08:47:39Z</time>
      </trkpt>
      <trkpt lat="47.49092" lon="3.8071">
        <ele>273</ele>
        <time>2019-04-05T08:47:42Z</time>
      </trkpt>
      <trkpt lat="47.4909" lon="3.80718">
        <ele>272</ele>
        <time>2019-04-05T08:47:49Z</time>
      </trkpt>
      <trkpt lat="47.49086" lon="3.80723">
        <ele>272</ele>
        <time>2019-04-05T08:47:55Z</time>
      </trkpt>
      <trkpt lat="47.49083" lon="3.80728">
        <ele>268</ele>
        <time>2019-04-05T08:48:01Z</time>
      </trkpt>
      <trkpt lat="47.49081" lon="3.80731">
        <ele>267</ele>
        <time>2019-04-05T08:48:07Z</time>
      </trkpt>
      <trkpt lat="47.4908" lon="3.80739">
        <ele>266</ele>
        <time>2019-04-05T08:48:14Z</time>
      </trkpt>
      <trkpt lat="47.4908" lon="3.80743">
        <ele>266</ele>
        <time>2019-04-05T08:48:19Z</time>
      </trkpt>
      <trkpt lat="47.49079" lon="3.80747">
        <ele>265</ele>
        <time>2019-04-05T08:48:22Z</time>
      </trkpt>
      <trkpt lat="47.49079" lon="3.80753">
        <ele>265</ele>
        <time>2019-04-05T08:48:26Z</time>
      </trkpt>
      <trkpt lat="47.49081" lon="3.8076">
        <ele>262</ele>
        <time>2019-04-05T08:48:31Z</time>
      </trkpt>
      <trkpt lat="47.49078" lon="3.80766">
        <ele>257</ele>
        <time>2019-04-05T08:48:45Z</time>
      </trkpt>
      <trkpt lat="47.49077" lon="3.80773">
        <ele>257</ele>
        <time>2019-04-05T08:48:49Z</time>
      </trkpt>
      <trkpt lat="47.49078" lon="3.8078">
        <ele>259</ele>
        <time>2019-04-05T08:48:53Z</time>
      </trkpt>
      <trkpt lat="47.49081" lon="3.80787">
        <ele>260</ele>
        <time>2019-04-05T08:48:57Z</time>
      </trkpt>
      <trkpt lat="47.49081" lon="3.80795">
        <ele>259</ele>
        <time>2019-04-05T08:49:01Z</time>
      </trkpt>
      <trkpt lat="47.49083" lon="3.80801">
        <ele>259</ele>
        <time>2019-04-05T08:49:05Z</time>
      </trkpt>
      <trkpt lat="47.49085" lon="3.8081">
        <ele>257</ele>
        <time>2019-04-05T08:49:10Z</time>
      </trkpt>
      <trkpt lat="47.49086" lon="3.80814">
        <ele>257</ele>
        <time>2019-04-05T08:49:13Z</time>
      </trkpt>
      <trkpt lat="47.49088" lon="3.80819">
        <ele>256</ele>
        <time>2019-04-05T08:49:16Z</time>
      </trkpt>
      <trkpt lat="47.49087" lon="3.80826">
        <ele>254</ele>
        <time>2019-04-05T08:49:22Z</time>
      </trkpt>
      <trkpt lat="47.49087" lon="3.80826">
        <ele>254</ele>
        <time>2019-04-05T08:49:29Z</time>
      </trkpt>
      <trkpt lat="47.49087" lon="3.80826">
        <ele>254</ele>
        <time>2019-04-05T08:49:31Z</time>
      </trkpt>
      <trkpt lat="47.49087" lon="3.80833">
        <ele>252</ele>
        <time>2019-04-05T08:49:38Z</time>
      </trkpt>
      <trkpt lat="47.49088" lon="3.8084">
        <ele>251</ele>
        <time>2019-04-05T08:49:51Z</time>
      </trkpt>
      <trkpt lat="47.49091" lon="3.80847">
        <ele>250</ele>
        <time>2019-04-05T08:50:01Z</time>
      </trkpt>
      <trkpt lat="47.49096" lon="3.80848">
        <ele>250</ele>
        <time>2019-04-05T08:50:07Z</time>
      </trkpt>
      <trkpt lat="47.49101" lon="3.80845">
        <ele>249</ele>
        <time>2019-04-05T08:50:12Z</time>
      </trkpt>
      <trkpt lat="47.49107" lon="3.80843">
        <ele>250</ele>
        <time>2019-04-05T08:50:17Z</time>
      </trkpt>
      <trkpt lat="47.4911" lon="3.80841">
        <ele>250</ele>
        <time>2019-04-05T08:50:20Z</time>
      </trkpt>
      <trkpt lat="47.49114" lon="3.80837">
        <ele>249</ele>
        <time>2019-04-05T08:50:25Z</time>
      </trkpt>
      <trkpt lat="47.49119" lon="3.80834">
        <ele>250</ele>
        <time>2019-04-05T08:50:29Z</time>
      </trkpt>
      <trkpt lat="47.49124" lon="3.80833">
        <ele>250</ele>
        <time>2019-04-05T08:50:33Z</time>
      </trkpt>
      <trkpt lat="47.49129" lon="3.80829">
        <ele>251</ele>
        <time>2019-04-05T08:50:38Z</time>
      </trkpt>
      <trkpt lat="47.49132" lon="3.80826">
        <ele>251</ele>
        <time>2019-04-05T08:50:41Z</time>
      </trkpt>
      <trkpt lat="47.49137" lon="3.80823">
        <ele>250</ele>
        <time>2019-04-05T08:50:47Z</time>
      </trkpt>
      <trkpt lat="47.4914" lon="3.80821">
        <ele>249</ele>
        <time>2019-04-05T08:50:51Z</time>
      </trkpt>
      <trkpt lat="47.49146" lon="3.80818">
        <ele>249</ele>
        <time>2019-04-05T08:50:56Z</time>
      </trkpt>
      <trkpt lat="47.4915" lon="3.80814">
        <ele>249</ele>
        <time>2019-04-05T08:51:00Z</time>
      </trkpt>
      <trkpt lat="47.49154" lon="3.80811">
        <ele>248</ele>
        <time>2019-04-05T08:51:05Z</time>
      </trkpt>
      <trkpt lat="47.49154" lon="3.80811">
        <ele>248</ele>
        <time>2019-04-05T08:51:13Z</time>
      </trkpt>
      <trkpt lat="47.49154" lon="3.80811">
        <ele>248</ele>
        <time>2019-04-05T08:51:14Z</time>
      </trkpt>
      <trkpt lat="47.4915" lon="3.80807">
        <ele>246</ele>
        <time>2019-04-05T08:52:52Z</time>
      </trkpt>
      <trkpt lat="47.49145" lon="3.80808">
        <ele>246</ele>
        <time>2019-04-05T08:52:57Z</time>
      </trkpt>
      <trkpt lat="47.4914" lon="3.80812">
        <ele>247</ele>
        <time>2019-04-05T08:53:01Z</time>
      </trkpt>
      <trkpt lat="47.49138" lon="3.80814">
        <ele>247</ele>
        <time>2019-04-05T08:53:03Z</time>
      </trkpt>
      <trkpt lat="47.49134" lon="3.80818">
        <ele>247</ele>
        <time>2019-04-05T08:53:07Z</time>
      </trkpt>
      <trkpt lat="47.49128" lon="3.80821">
        <ele>247</ele>
        <time>2019-04-05T08:53:12Z</time>
      </trkpt>
      <trkpt lat="47.49124" lon="3.80823">
        <ele>247</ele>
        <time>2019-04-05T08:53:17Z</time>
      </trkpt>
      <trkpt lat="47.49119" lon="3.80826">
        <ele>248</ele>
        <time>2019-04-05T08:53:21Z</time>
      </trkpt>
      <trkpt lat="47.49114" lon="3.8083">
        <ele>248</ele>
        <time>2019-04-05T08:53:26Z</time>
      </trkpt>
      <trkpt lat="47.49109" lon="3.80834">
        <ele>248</ele>
        <time>2019-04-05T08:53:31Z</time>
      </trkpt>
      <trkpt lat="47.49106" lon="3.80836">
        <ele>247</ele>
        <time>2019-04-05T08:53:34Z</time>
      </trkpt>
      <trkpt lat="47.49102" lon="3.8084">
        <ele>248</ele>
        <time>2019-04-05T08:53:38Z</time>
      </trkpt>
      <trkpt lat="47.49098" lon="3.80844">
        <ele>250</ele>
        <time>2019-04-05T08:53:43Z</time>
      </trkpt>
      <trkpt lat="47.49095" lon="3.80846">
        <ele>251</ele>
        <time>2019-04-05T08:53:47Z</time>
      </trkpt>
      <trkpt lat="47.49093" lon="3.80853">
        <ele>248</ele>
        <time>2019-04-05T08:53:53Z</time>
      </trkpt>
      <trkpt lat="47.49093" lon="3.80861">
        <ele>249</ele>
        <time>2019-04-05T08:53:58Z</time>
      </trkpt>
      <trkpt lat="47.49093" lon="3.80865">
        <ele>249</ele>
        <time>2019-04-05T08:54:07Z</time>
      </trkpt>
      <trkpt lat="47.49095" lon="3.80875">
        <ele>247</ele>
        <time>2019-04-05T08:54:13Z</time>
      </trkpt>
      <trkpt lat="47.49097" lon="3.80882">
        <ele>247</ele>
        <time>2019-04-05T08:54:18Z</time>
      </trkpt>
      <trkpt lat="47.49099" lon="3.80886">
        <ele>247</ele>
        <time>2019-04-05T08:54:21Z</time>
      </trkpt>
      <trkpt lat="47.491" lon="3.8089">
        <ele>246</ele>
        <time>2019-04-05T08:54:23Z</time>
      </trkpt>
      <trkpt lat="47.49101" lon="3.80897">
        <ele>247</ele>
        <time>2019-04-05T08:54:27Z</time>
      </trkpt>
      <trkpt lat="47.49104" lon="3.80908">
        <ele>249</ele>
        <time>2019-04-05T08:54:34Z</time>
      </trkpt>
      <trkpt lat="47.49104" lon="3.80908">
        <ele>249</ele>
        <time>2019-04-05T08:54:41Z</time>
      </trkpt>
      <trkpt lat="47.49104" lon="3.80908">
        <ele>249</ele>
        <time>2019-04-05T08:54:42Z</time>
      </trkpt>
      <trkpt lat="47.49108" lon="3.80912">
        <ele>248</ele>
        <time>2019-04-05T08:54:54Z</time>
      </trkpt>
      <trkpt lat="47.49109" lon="3.80919">
        <ele>248</ele>
        <time>2019-04-05T08:55:03Z</time>
      </trkpt>
      <trkpt lat="47.49112" lon="3.80924">
        <ele>247</ele>
        <time>2019-04-05T08:55:08Z</time>
      </trkpt>
      <trkpt lat="47.49115" lon="3.8093">
        <ele>248</ele>
        <time>2019-04-05T08:55:12Z</time>
      </trkpt>
      <trkpt lat="47.49116" lon="3.80934">
        <ele>248</ele>
        <time>2019-04-05T08:55:15Z</time>
      </trkpt>
      <trkpt lat="47.49118" lon="3.80938">
        <ele>248</ele>
        <time>2019-04-05T08:55:19Z</time>
      </trkpt>
      <trkpt lat="47.4912" lon="3.80943">
        <ele>249</ele>
        <time>2019-04-05T08:55:22Z</time>
      </trkpt>
      <trkpt lat="47.49122" lon="3.80948">
        <ele>249</ele>
        <time>2019-04-05T08:55:27Z</time>
      </trkpt>
      <trkpt lat="47.49124" lon="3.80955">
        <ele>250</ele>
        <time>2019-04-05T08:55:31Z</time>
      </trkpt>
      <trkpt lat="47.49123" lon="3.80961">
        <ele>251</ele>
        <time>2019-04-05T08:55:35Z</time>
      </trkpt>
      <trkpt lat="47.49123" lon="3.8097">
        <ele>252</ele>
        <time>2019-04-05T08:55:41Z</time>
      </trkpt>
      <trkpt lat="47.49126" lon="3.80977">
        <ele>254</ele>
        <time>2019-04-05T08:55:46Z</time>
      </trkpt>
      <trkpt lat="47.4913" lon="3.80982">
        <ele>258</ele>
        <time>2019-04-05T08:55:53Z</time>
      </trkpt>
      <trkpt lat="47.49135" lon="3.80985">
        <ele>258</ele>
        <time>2019-04-05T08:55:58Z</time>
      </trkpt>
      <trkpt lat="47.4914" lon="3.80986">
        <ele>259</ele>
        <time>2019-04-05T08:56:04Z</time>
      </trkpt>
      <trkpt lat="47.49143" lon="3.80986">
        <ele>260</ele>
        <time>2019-04-05T08:56:06Z</time>
      </trkpt>
      <trkpt lat="47.49147" lon="3.80987">
        <ele>260</ele>
        <time>2019-04-05T08:56:10Z</time>
      </trkpt>
      <trkpt lat="47.49151" lon="3.80988">
        <ele>261</ele>
        <time>2019-04-05T08:56:12Z</time>
      </trkpt>
      <trkpt lat="47.49156" lon="3.80986">
        <ele>262</ele>
        <time>2019-04-05T08:56:18Z</time>
      </trkpt>
      <trkpt lat="47.49161" lon="3.80987">
        <ele>263</ele>
        <time>2019-04-05T08:56:23Z</time>
      </trkpt>
      <trkpt lat="47.49165" lon="3.80982">
        <ele>265</ele>
        <time>2019-04-05T08:56:29Z</time>
      </trkpt>
      <trkpt lat="47.49172" lon="3.80984">
        <ele>266</ele>
        <time>2019-04-05T08:56:35Z</time>
      </trkpt>
      <trkpt lat="47.49177" lon="3.80983">
        <ele>266</ele>
        <time>2019-04-05T08:56:39Z</time>
      </trkpt>
      <trkpt lat="47.49182" lon="3.8098">
        <ele>267</ele>
        <time>2019-04-05T08:56:44Z</time>
      </trkpt>
      <trkpt lat="47.49184" lon="3.80979">
        <ele>267</ele>
        <time>2019-04-05T08:56:46Z</time>
      </trkpt>
      <trkpt lat="47.4919" lon="3.8098">
        <ele>266</ele>
        <time>2019-04-05T08:56:50Z</time>
      </trkpt>
      <trkpt lat="47.49193" lon="3.80982">
        <ele>266</ele>
        <time>2019-04-05T08:56:54Z</time>
      </trkpt>
      <trkpt lat="47.49198" lon="3.80979">
        <ele>266</ele>
        <time>2019-04-05T08:57:00Z</time>
      </trkpt>
      <trkpt lat="47.49203" lon="3.80977">
        <ele>267</ele>
        <time>2019-04-05T08:57:04Z</time>
      </trkpt>
      <trkpt lat="47.49208" lon="3.80978">
        <ele>268</ele>
        <time>2019-04-05T08:57:08Z</time>
      </trkpt>
      <trkpt lat="47.49212" lon="3.80979">
        <ele>269</ele>
        <time>2019-04-05T08:57:12Z</time>
      </trkpt>
      <trkpt lat="47.49216" lon="3.80984">
        <ele>268</ele>
        <time>2019-04-05T08:57:18Z</time>
      </trkpt>
      <trkpt lat="47.49221" lon="3.80985">
        <ele>269</ele>
        <time>2019-04-05T08:57:23Z</time>
      </trkpt>
      <trkpt lat="47.49225" lon="3.80989">
        <ele>270</ele>
        <time>2019-04-05T08:57:27Z</time>
      </trkpt>
      <trkpt lat="47.49228" lon="3.80991">
        <ele>270</ele>
        <time>2019-04-05T08:57:29Z</time>
      </trkpt>
      <trkpt lat="47.49233" lon="3.80991">
        <ele>270</ele>
        <time>2019-04-05T08:57:33Z</time>
      </trkpt>
      <trkpt lat="47.49238" lon="3.80993">
        <ele>271</ele>
        <time>2019-04-05T08:57:38Z</time>
      </trkpt>
      <trkpt lat="47.49243" lon="3.80994">
        <ele>272</ele>
        <time>2019-04-05T08:57:43Z</time>
      </trkpt>
      <trkpt lat="47.49248" lon="3.80996">
        <ele>274</ele>
        <time>2019-04-05T08:57:49Z</time>
      </trkpt>
      <trkpt lat="47.49253" lon="3.80998">
        <ele>274</ele>
        <time>2019-04-05T08:57:52Z</time>
      </trkpt>
      <trkpt lat="47.49257" lon="3.81002">
        <ele>275</ele>
        <time>2019-04-05T08:57:57Z</time>
      </trkpt>
      <trkpt lat="47.49261" lon="3.81005">
        <ele>275</ele>
        <time>2019-04-05T08:58:02Z</time>
      </trkpt>
      <trkpt lat="47.49265" lon="3.81009">
        <ele>277</ele>
        <time>2019-04-05T08:58:07Z</time>
      </trkpt>
      <trkpt lat="47.4927" lon="3.81011">
        <ele>277</ele>
        <time>2019-04-05T08:58:12Z</time>
      </trkpt>
      <trkpt lat="47.49275" lon="3.81014">
        <ele>277</ele>
        <time>2019-04-05T08:58:17Z</time>
      </trkpt>
      <trkpt lat="47.49279" lon="3.81019">
        <ele>278</ele>
        <time>2019-04-05T08:58:21Z</time>
      </trkpt>
      <trkpt lat="47.49284" lon="3.81022">
        <ele>278</ele>
        <time>2019-04-05T08:58:27Z</time>
      </trkpt>
      <trkpt lat="47.49287" lon="3.81023">
        <ele>279</ele>
        <time>2019-04-05T08:58:30Z</time>
      </trkpt>
      <trkpt lat="47.4929" lon="3.81025">
        <ele>278</ele>
        <time>2019-04-05T08:58:33Z</time>
      </trkpt>
      <trkpt lat="47.49294" lon="3.81029">
        <ele>280</ele>
        <time>2019-04-05T08:58:39Z</time>
      </trkpt>
      <trkpt lat="47.49296" lon="3.81031">
        <ele>280</ele>
        <time>2019-04-05T08:58:41Z</time>
      </trkpt>
      <trkpt lat="47.49298" lon="3.81033">
        <ele>280</ele>
        <time>2019-04-05T08:58:43Z</time>
      </trkpt>
      <trkpt lat="47.49303" lon="3.81036">
        <ele>280</ele>
        <time>2019-04-05T08:58:47Z</time>
      </trkpt>
      <trkpt lat="47.49308" lon="3.81037">
        <ele>280</ele>
        <time>2019-04-05T08:58:51Z</time>
      </trkpt>
      <trkpt lat="47.49312" lon="3.81041">
        <ele>280</ele>
        <time>2019-04-05T08:58:55Z</time>
      </trkpt>
      <trkpt lat="47.49315" lon="3.81037">
        <ele>277</ele>
        <time>2019-04-05T08:59:03Z</time>
      </trkpt>
      <trkpt lat="47.49316" lon="3.81044">
        <ele>281</ele>
        <time>2019-04-05T08:59:59Z</time>
      </trkpt>
      <trkpt lat="47.49314" lon="3.8105">
        <ele>284</ele>
        <time>2019-04-05T09:00:05Z</time>
      </trkpt>
      <trkpt lat="47.49313" lon="3.81054">
        <ele>284</ele>
        <time>2019-04-05T09:00:08Z</time>
      </trkpt>
      <trkpt lat="47.49312" lon="3.8106">
        <ele>284</ele>
        <time>2019-04-05T09:00:13Z</time>
      </trkpt>
      <trkpt lat="47.49311" lon="3.81065">
        <ele>286</ele>
        <time>2019-04-05T09:00:16Z</time>
      </trkpt>
      <trkpt lat="47.49307" lon="3.81072">
        <ele>288</ele>
        <time>2019-04-05T09:00:23Z</time>
      </trkpt>
      <trkpt lat="47.49306" lon="3.81079">
        <ele>287</ele>
        <time>2019-04-05T09:00:28Z</time>
      </trkpt>
      <trkpt lat="47.49305" lon="3.81087">
        <ele>288</ele>
        <time>2019-04-05T09:00:33Z</time>
      </trkpt>
      <trkpt lat="47.49305" lon="3.8109">
        <ele>290</ele>
        <time>2019-04-05T09:00:36Z</time>
      </trkpt>
      <trkpt lat="47.49305" lon="3.81094">
        <ele>289</ele>
        <time>2019-04-05T09:00:39Z</time>
      </trkpt>
      <trkpt lat="47.49305" lon="3.811">
        <ele>291</ele>
        <time>2019-04-05T09:00:43Z</time>
      </trkpt>
      <trkpt lat="47.49305" lon="3.81108">
        <ele>292</ele>
        <time>2019-04-05T09:00:47Z</time>
      </trkpt>
      <trkpt lat="47.49305" lon="3.81112">
        <ele>291</ele>
        <time>2019-04-05T09:00:50Z</time>
      </trkpt>
      <trkpt lat="47.49305" lon="3.8112">
        <ele>291</ele>
        <time>2019-04-05T09:00:55Z</time>
      </trkpt>
      <trkpt lat="47.49305" lon="3.81128">
        <ele>292</ele>
        <time>2019-04-05T09:01:00Z</time>
      </trkpt>
      <trkpt lat="47.49305" lon="3.81131">
        <ele>292</ele>
        <time>2019-04-05T09:01:02Z</time>
      </trkpt>
      <trkpt lat="47.49305" lon="3.81137">
        <ele>291</ele>
        <time>2019-04-05T09:01:06Z</time>
      </trkpt>
      <trkpt lat="47.49306" lon="3.81141">
        <ele>291</ele>
        <time>2019-04-05T09:01:08Z</time>
      </trkpt>
      <trkpt lat="47.49306" lon="3.81148">
        <ele>292</ele>
        <time>2019-04-05T09:01:12Z</time>
      </trkpt>
      <trkpt lat="47.49305" lon="3.81156">
        <ele>293</ele>
        <time>2019-04-05T09:01:16Z</time>
      </trkpt>
      <trkpt lat="47.49306" lon="3.81159">
        <ele>294</ele>
        <time>2019-04-05T09:01:18Z</time>
      </trkpt>
      <trkpt lat="47.49306" lon="3.81167">
        <ele>295</ele>
        <time>2019-04-05T09:01:22Z</time>
      </trkpt>
      <trkpt lat="47.49305" lon="3.81174">
        <ele>295</ele>
        <time>2019-04-05T09:01:27Z</time>
      </trkpt>
      <trkpt lat="47.49306" lon="3.81182">
        <ele>295</ele>
        <time>2019-04-05T09:01:31Z</time>
      </trkpt>
      <trkpt lat="47.49306" lon="3.81189">
        <ele>295</ele>
        <time>2019-04-05T09:01:36Z</time>
      </trkpt>
      <trkpt lat="47.49306" lon="3.81193">
        <ele>295</ele>
        <time>2019-04-05T09:01:38Z</time>
      </trkpt>
      <trkpt lat="47.49308" lon="3.812">
        <ele>296</ele>
        <time>2019-04-05T09:01:42Z</time>
      </trkpt>
      <trkpt lat="47.49309" lon="3.81208">
        <ele>296</ele>
        <time>2019-04-05T09:01:46Z</time>
      </trkpt>
      <trkpt lat="47.4931" lon="3.81215">
        <ele>296</ele>
        <time>2019-04-05T09:01:50Z</time>
      </trkpt>
      <trkpt lat="47.49311" lon="3.81222">
        <ele>297</ele>
        <time>2019-04-05T09:01:54Z</time>
      </trkpt>
      <trkpt lat="47.49313" lon="3.8123">
        <ele>297</ele>
        <time>2019-04-05T09:01:58Z</time>
      </trkpt>
      <trkpt lat="47.49314" lon="3.81237">
        <ele>299</ele>
        <time>2019-04-05T09:02:02Z</time>
      </trkpt>
      <trkpt lat="47.49314" lon="3.81242">
        <ele>300</ele>
        <time>2019-04-05T09:02:05Z</time>
      </trkpt>
      <trkpt lat="47.49315" lon="3.81245">
        <ele>300</ele>
        <time>2019-04-05T09:02:07Z</time>
      </trkpt>
      <trkpt lat="47.49315" lon="3.81253">
        <ele>302</ele>
        <time>2019-04-05T09:02:13Z</time>
      </trkpt>
      <trkpt lat="47.49314" lon="3.81257">
        <ele>302</ele>
        <time>2019-04-05T09:02:15Z</time>
      </trkpt>
      <trkpt lat="47.49315" lon="3.81264">
        <ele>302</ele>
        <time>2019-04-05T09:02:20Z</time>
      </trkpt>
      <trkpt lat="47.49315" lon="3.81269">
        <ele>303</ele>
        <time>2019-04-05T09:02:23Z</time>
      </trkpt>
      <trkpt lat="47.49315" lon="3.81275">
        <ele>303</ele>
        <time>2019-04-05T09:02:26Z</time>
      </trkpt>
      <trkpt lat="47.49315" lon="3.81279">
        <ele>304</ele>
        <time>2019-04-05T09:02:28Z</time>
      </trkpt>
      <trkpt lat="47.49315" lon="3.81283">
        <ele>304</ele>
        <time>2019-04-05T09:02:31Z</time>
      </trkpt>
      <trkpt lat="47.49314" lon="3.81292">
        <ele>305</ele>
        <time>2019-04-05T09:02:36Z</time>
      </trkpt>
      <trkpt lat="47.49313" lon="3.81295">
        <ele>305</ele>
        <time>2019-04-05T09:02:38Z</time>
      </trkpt>
      <trkpt lat="47.49314" lon="3.81302">
        <ele>305</ele>
        <time>2019-04-05T09:02:43Z</time>
      </trkpt>
      <trkpt lat="47.49312" lon="3.8131">
        <ele>306</ele>
        <time>2019-04-05T09:02:49Z</time>
      </trkpt>
      <trkpt lat="47.49311" lon="3.81318">
        <ele>306</ele>
        <time>2019-04-05T09:02:53Z</time>
      </trkpt>
      <trkpt lat="47.49311" lon="3.81322">
        <ele>306</ele>
        <time>2019-04-05T09:02:55Z</time>
      </trkpt>
      <trkpt lat="47.49311" lon="3.81326">
        <ele>307</ele>
        <time>2019-04-05T09:02:58Z</time>
      </trkpt>
      <trkpt lat="47.49312" lon="3.81333">
        <ele>306</ele>
        <time>2019-04-05T09:03:02Z</time>
      </trkpt>
      <trkpt lat="47.49313" lon="3.81341">
        <ele>306</ele>
        <time>2019-04-05T09:03:06Z</time>
      </trkpt>
      <trkpt lat="47.49313" lon="3.81345">
        <ele>307</ele>
        <time>2019-04-05T09:03:08Z</time>
      </trkpt>
      <trkpt lat="47.49313" lon="3.81352">
        <ele>307</ele>
        <time>2019-04-05T09:03:11Z</time>
      </trkpt>
      <trkpt lat="47.49314" lon="3.8136">
        <ele>308</ele>
        <time>2019-04-05T09:03:14Z</time>
      </trkpt>
      <trkpt lat="47.49315" lon="3.81368">
        <ele>307</ele>
        <time>2019-04-05T09:03:19Z</time>
      </trkpt>
      <trkpt lat="47.49315" lon="3.81376">
        <ele>307</ele>
        <time>2019-04-05T09:03:23Z</time>
      </trkpt>
      <trkpt lat="47.49316" lon="3.81384">
        <ele>307</ele>
        <time>2019-04-05T09:03:29Z</time>
      </trkpt>
      <trkpt lat="47.49317" lon="3.81392">
        <ele>307</ele>
        <time>2019-04-05T09:03:33Z</time>
      </trkpt>
      <trkpt lat="47.49318" lon="3.81401">
        <ele>306</ele>
        <time>2019-04-05T09:03:38Z</time>
      </trkpt>
      <trkpt lat="47.49319" lon="3.81409">
        <ele>305</ele>
        <time>2019-04-05T09:03:42Z</time>
      </trkpt>
      <trkpt lat="47.49319" lon="3.81415">
        <ele>306</ele>
        <time>2019-04-05T09:03:45Z</time>
      </trkpt>
      <trkpt lat="47.49319" lon="3.81422">
        <ele>307</ele>
        <time>2019-04-05T09:03:49Z</time>
      </trkpt>
      <trkpt lat="47.4932" lon="3.8143">
        <ele>307</ele>
        <time>2019-04-05T09:03:53Z</time>
      </trkpt>
      <trkpt lat="47.4932" lon="3.81437">
        <ele>307</ele>
        <time>2019-04-05T09:03:57Z</time>
      </trkpt>
      <trkpt lat="47.49321" lon="3.81445">
        <ele>307</ele>
        <time>2019-04-05T09:04:01Z</time>
      </trkpt>
      <trkpt lat="47.49321" lon="3.81453">
        <ele>307</ele>
        <time>2019-04-05T09:04:05Z</time>
      </trkpt>
      <trkpt lat="47.49321" lon="3.81457">
        <ele>308</ele>
        <time>2019-04-05T09:04:07Z</time>
      </trkpt>
      <trkpt lat="47.49323" lon="3.81464">
        <ele>308</ele>
        <time>2019-04-05T09:04:12Z</time>
      </trkpt>
      <trkpt lat="47.49323" lon="3.81472">
        <ele>308</ele>
        <time>2019-04-05T09:04:16Z</time>
      </trkpt>
      <trkpt lat="47.49323" lon="3.81475">
        <ele>309</ele>
        <time>2019-04-05T09:04:18Z</time>
      </trkpt>
      <trkpt lat="47.49323" lon="3.81479">
        <ele>309</ele>
        <time>2019-04-05T09:04:20Z</time>
      </trkpt>
      <trkpt lat="47.49323" lon="3.81485">
        <ele>309</ele>
        <time>2019-04-05T09:04:23Z</time>
      </trkpt>
      <trkpt lat="47.49324" lon="3.81488">
        <ele>310</ele>
        <time>2019-04-05T09:04:25Z</time>
      </trkpt>
      <trkpt lat="47.49324" lon="3.81495">
        <ele>309</ele>
        <time>2019-04-05T09:04:29Z</time>
      </trkpt>
      <trkpt lat="47.49325" lon="3.81504">
        <ele>309</ele>
        <time>2019-04-05T09:04:34Z</time>
      </trkpt>
      <trkpt lat="47.49325" lon="3.81511">
        <ele>308</ele>
        <time>2019-04-05T09:04:43Z</time>
      </trkpt>
      <trkpt lat="47.4933" lon="3.81509">
        <ele>306</ele>
        <time>2019-04-05T09:05:39Z</time>
      </trkpt>
      <trkpt lat="47.49334" lon="3.81515">
        <ele>307</ele>
        <time>2019-04-05T09:05:48Z</time>
      </trkpt>
      <trkpt lat="47.49336" lon="3.81517">
        <ele>307</ele>
        <time>2019-04-05T09:05:51Z</time>
      </trkpt>
      <trkpt lat="47.49341" lon="3.81519">
        <ele>308</ele>
        <time>2019-04-05T09:05:56Z</time>
      </trkpt>
      <trkpt lat="47.49343" lon="3.8152">
        <ele>308</ele>
        <time>2019-04-05T09:05:58Z</time>
      </trkpt>
      <trkpt lat="47.49347" lon="3.81524">
        <ele>309</ele>
        <time>2019-04-05T09:06:02Z</time>
      </trkpt>
      <trkpt lat="47.49351" lon="3.81528">
        <ele>309</ele>
        <time>2019-04-05T09:06:06Z</time>
      </trkpt>
      <trkpt lat="47.49353" lon="3.8153">
        <ele>309</ele>
        <time>2019-04-05T09:06:08Z</time>
      </trkpt>
      <trkpt lat="47.49357" lon="3.81533">
        <ele>308</ele>
        <time>2019-04-05T09:06:12Z</time>
      </trkpt>
      <trkpt lat="47.49361" lon="3.81535">
        <ele>308</ele>
        <time>2019-04-05T09:06:15Z</time>
      </trkpt>
      <trkpt lat="47.49365" lon="3.81538">
        <ele>309</ele>
        <time>2019-04-05T09:06:18Z</time>
      </trkpt>
      <trkpt lat="47.49369" lon="3.81542">
        <ele>309</ele>
        <time>2019-04-05T09:06:22Z</time>
      </trkpt>
      <trkpt lat="47.49374" lon="3.81546">
        <ele>309</ele>
        <time>2019-04-05T09:06:26Z</time>
      </trkpt>
      <trkpt lat="47.49376" lon="3.81548">
        <ele>309</ele>
        <time>2019-04-05T09:06:28Z</time>
      </trkpt>
      <trkpt lat="47.49378" lon="3.8155">
        <ele>309</ele>
        <time>2019-04-05T09:06:30Z</time>
      </trkpt>
      <trkpt lat="47.49381" lon="3.81552">
        <ele>309</ele>
        <time>2019-04-05T09:06:32Z</time>
      </trkpt>
      <trkpt lat="47.49384" lon="3.81555">
        <ele>310</ele>
        <time>2019-04-05T09:06:35Z</time>
      </trkpt>
      <trkpt lat="47.49388" lon="3.8156">
        <ele>310</ele>
        <time>2019-04-05T09:06:39Z</time>
      </trkpt>
      <trkpt lat="47.49394" lon="3.81565">
        <ele>311</ele>
        <time>2019-04-05T09:06:44Z</time>
      </trkpt>
      <trkpt lat="47.49399" lon="3.81568">
        <ele>310</ele>
        <time>2019-04-05T09:06:48Z</time>
      </trkpt>
      <trkpt lat="47.49403" lon="3.81573">
        <ele>310</ele>
        <time>2019-04-05T09:06:52Z</time>
      </trkpt>
      <trkpt lat="47.49406" lon="3.81576">
        <ele>310</ele>
        <time>2019-04-05T09:06:55Z</time>
      </trkpt>
      <trkpt lat="47.49408" lon="3.81578">
        <ele>310</ele>
        <time>2019-04-05T09:06:57Z</time>
      </trkpt>
      <trkpt lat="47.49411" lon="3.8158">
        <ele>310</ele>
        <time>2019-04-05T09:06:59Z</time>
      </trkpt>
      <trkpt lat="47.49416" lon="3.81583">
        <ele>310</ele>
        <time>2019-04-05T09:07:03Z</time>
      </trkpt>
      <trkpt lat="47.4942" lon="3.81587">
        <ele>310</ele>
        <time>2019-04-05T09:07:07Z</time>
      </trkpt>
      <trkpt lat="47.49422" lon="3.81589">
        <ele>310</ele>
        <time>2019-04-05T09:07:09Z</time>
      </trkpt>
      <trkpt lat="47.49425" lon="3.81592">
        <ele>310</ele>
        <time>2019-04-05T09:07:11Z</time>
      </trkpt>
      <trkpt lat="47.49427" lon="3.81594">
        <ele>311</ele>
        <time>2019-04-05T09:07:14Z</time>
      </trkpt>
      <trkpt lat="47.4943" lon="3.81596">
        <ele>311</ele>
        <time>2019-04-05T09:07:16Z</time>
      </trkpt>
      <trkpt lat="47.49435" lon="3.816">
        <ele>311</ele>
        <time>2019-04-05T09:07:20Z</time>
      </trkpt>
      <trkpt lat="47.49439" lon="3.81602">
        <ele>311</ele>
        <time>2019-04-05T09:07:24Z</time>
      </trkpt>
      <trkpt lat="47.49443" lon="3.81606">
        <ele>310</ele>
        <time>2019-04-05T09:07:27Z</time>
      </trkpt>
      <trkpt lat="47.49446" lon="3.81608">
        <ele>310</ele>
        <time>2019-04-05T09:07:31Z</time>
      </trkpt>
      <trkpt lat="47.49449" lon="3.8161">
        <ele>310</ele>
        <time>2019-04-05T09:07:32Z</time>
      </trkpt>
      <trkpt lat="47.49451" lon="3.81612">
        <ele>310</ele>
        <time>2019-04-05T09:07:34Z</time>
      </trkpt>
      <trkpt lat="47.49453" lon="3.81613">
        <ele>310</ele>
        <time>2019-04-05T09:07:36Z</time>
      </trkpt>
      <trkpt lat="47.49457" lon="3.81617">
        <ele>311</ele>
        <time>2019-04-05T09:07:40Z</time>
      </trkpt>
      <trkpt lat="47.4946" lon="3.8162">
        <ele>311</ele>
        <time>2019-04-05T09:07:43Z</time>
      </trkpt>
      <trkpt lat="47.49464" lon="3.81625">
        <ele>311</ele>
        <time>2019-04-05T09:07:48Z</time>
      </trkpt>
      <trkpt lat="47.49468" lon="3.8163">
        <ele>312</ele>
        <time>2019-04-05T09:07:52Z</time>
      </trkpt>
      <trkpt lat="47.49471" lon="3.81633">
        <ele>312</ele>
        <time>2019-04-05T09:07:55Z</time>
      </trkpt>
      <trkpt lat="47.49474" lon="3.81636">
        <ele>312</ele>
        <time>2019-04-05T09:07:58Z</time>
      </trkpt>
      <trkpt lat="47.49478" lon="3.8164">
        <ele>312</ele>
        <time>2019-04-05T09:08:02Z</time>
      </trkpt>
      <trkpt lat="47.49483" lon="3.81643">
        <ele>312</ele>
        <time>2019-04-05T09:08:06Z</time>
      </trkpt>
      <trkpt lat="47.49485" lon="3.81645">
        <ele>312</ele>
        <time>2019-04-05T09:08:08Z</time>
      </trkpt>
      <trkpt lat="47.49489" lon="3.8165">
        <ele>312</ele>
        <time>2019-04-05T09:08:12Z</time>
      </trkpt>
      <trkpt lat="47.49494" lon="3.81654">
        <ele>312</ele>
        <time>2019-04-05T09:08:16Z</time>
      </trkpt>
      <trkpt lat="47.49497" lon="3.8166">
        <ele>312</ele>
        <time>2019-04-05T09:08:20Z</time>
      </trkpt>
      <trkpt lat="47.49502" lon="3.81664">
        <ele>312</ele>
        <time>2019-04-05T09:08:25Z</time>
      </trkpt>
      <trkpt lat="47.49507" lon="3.81669">
        <ele>312</ele>
        <time>2019-04-05T09:08:28Z</time>
      </trkpt>
      <trkpt lat="47.4951" lon="3.81672">
        <ele>312</ele>
        <time>2019-04-05T09:08:32Z</time>
      </trkpt>
      <trkpt lat="47.49514" lon="3.81677">
        <ele>312</ele>
        <time>2019-04-05T09:08:35Z</time>
      </trkpt>
      <trkpt lat="47.49517" lon="3.81682">
        <ele>313</ele>
        <time>2019-04-05T09:08:39Z</time>
      </trkpt>
      <trkpt lat="47.4952" lon="3.81685">
        <ele>313</ele>
        <time>2019-04-05T09:08:42Z</time>
      </trkpt>
      <trkpt lat="47.49522" lon="3.81687">
        <ele>313</ele>
        <time>2019-04-05T09:08:44Z</time>
      </trkpt>
      <trkpt lat="47.49524" lon="3.81689">
        <ele>313</ele>
        <time>2019-04-05T09:08:47Z</time>
      </trkpt>
      <trkpt lat="47.49528" lon="3.81693">
        <ele>313</ele>
        <time>2019-04-05T09:08:50Z</time>
      </trkpt>
      <trkpt lat="47.4953" lon="3.81695">
        <ele>313</ele>
        <time>2019-04-05T09:08:52Z</time>
      </trkpt>
      <trkpt lat="47.49535" lon="3.81701">
        <ele>313</ele>
        <time>2019-04-05T09:08:57Z</time>
      </trkpt>
      <trkpt lat="47.49537" lon="3.81703">
        <ele>313</ele>
        <time>2019-04-05T09:08:59Z</time>
      </trkpt>
      <trkpt lat="47.4954" lon="3.81706">
        <ele>313</ele>
        <time>2019-04-05T09:09:02Z</time>
      </trkpt>
      <trkpt lat="47.49543" lon="3.8171">
        <ele>314</ele>
        <time>2019-04-05T09:09:05Z</time>
      </trkpt>
      <trkpt lat="47.49545" lon="3.81712">
        <ele>314</ele>
        <time>2019-04-05T09:09:07Z</time>
      </trkpt>
      <trkpt lat="47.49548" lon="3.81714">
        <ele>314</ele>
        <time>2019-04-05T09:09:09Z</time>
      </trkpt>
      <trkpt lat="47.4955" lon="3.81717">
        <ele>315</ele>
        <time>2019-04-05T09:09:12Z</time>
      </trkpt>
      <trkpt lat="47.49553" lon="3.81721">
        <ele>316</ele>
        <time>2019-04-05T09:09:15Z</time>
      </trkpt>
      <trkpt lat="47.49556" lon="3.81725">
        <ele>316</ele>
        <time>2019-04-05T09:09:18Z</time>
      </trkpt>
      <trkpt lat="47.49558" lon="3.81727">
        <ele>316</ele>
        <time>2019-04-05T09:09:20Z</time>
      </trkpt>
      <trkpt lat="47.49561" lon="3.81731">
        <ele>316</ele>
        <time>2019-04-05T09:09:24Z</time>
      </trkpt>
      <trkpt lat="47.49565" lon="3.81737">
        <ele>317</ele>
        <time>2019-04-05T09:09:29Z</time>
      </trkpt>
      <trkpt lat="47.49569" lon="3.81743">
        <ele>317</ele>
        <time>2019-04-05T09:09:34Z</time>
      </trkpt>
      <trkpt lat="47.49573" lon="3.81747">
        <ele>317</ele>
        <time>2019-04-05T09:09:38Z</time>
      </trkpt>
      <trkpt lat="47.49575" lon="3.81749">
        <ele>317</ele>
        <time>2019-04-05T09:09:40Z</time>
      </trkpt>
      <trkpt lat="47.49578" lon="3.81752">
        <ele>317</ele>
        <time>2019-04-05T09:09:43Z</time>
      </trkpt>
      <trkpt lat="47.49581" lon="3.81757">
        <ele>319</ele>
        <time>2019-04-05T09:09:47Z</time>
      </trkpt>
      <trkpt lat="47.49583" lon="3.81759">
        <ele>318</ele>
        <time>2019-04-05T09:09:49Z</time>
      </trkpt>
      <trkpt lat="47.49587" lon="3.81764">
        <ele>318</ele>
        <time>2019-04-05T09:09:53Z</time>
      </trkpt>
      <trkpt lat="47.4959" lon="3.81767">
        <ele>319</ele>
        <time>2019-04-05T09:09:56Z</time>
      </trkpt>
      <trkpt lat="47.49593" lon="3.81771">
        <ele>318</ele>
        <time>2019-04-05T09:09:59Z</time>
      </trkpt>
      <trkpt lat="47.49594" lon="3.81773">
        <ele>318</ele>
        <time>2019-04-05T09:10:01Z</time>
      </trkpt>
      <trkpt lat="47.49597" lon="3.81778">
        <ele>319</ele>
        <time>2019-04-05T09:10:05Z</time>
      </trkpt>
      <trkpt lat="47.496" lon="3.81782">
        <ele>319</ele>
        <time>2019-04-05T09:10:08Z</time>
      </trkpt>
      <trkpt lat="47.49601" lon="3.81785">
        <ele>320</ele>
        <time>2019-04-05T09:10:10Z</time>
      </trkpt>
      <trkpt lat="47.49603" lon="3.81789">
        <ele>319</ele>
        <time>2019-04-05T09:10:12Z</time>
      </trkpt>
      <trkpt lat="47.49606" lon="3.81796">
        <ele>320</ele>
        <time>2019-04-05T09:10:16Z</time>
      </trkpt>
      <trkpt lat="47.49609" lon="3.81802">
        <ele>321</ele>
        <time>2019-04-05T09:10:20Z</time>
      </trkpt>
      <trkpt lat="47.49611" lon="3.81806">
        <ele>321</ele>
        <time>2019-04-05T09:10:23Z</time>
      </trkpt>
      <trkpt lat="47.49613" lon="3.81813">
        <ele>322</ele>
        <time>2019-04-05T09:10:28Z</time>
      </trkpt>
      <trkpt lat="47.49615" lon="3.81817">
        <ele>323</ele>
        <time>2019-04-05T09:10:31Z</time>
      </trkpt>
      <trkpt lat="47.49617" lon="3.81824">
        <ele>322</ele>
        <time>2019-04-05T09:10:36Z</time>
      </trkpt>
      <trkpt lat="47.49619" lon="3.81828">
        <ele>322</ele>
        <time>2019-04-05T09:10:39Z</time>
      </trkpt>
      <trkpt lat="47.49621" lon="3.81835">
        <ele>323</ele>
        <time>2019-04-05T09:10:44Z</time>
      </trkpt>
      <trkpt lat="47.49624" lon="3.81841">
        <ele>324</ele>
        <time>2019-04-05T09:10:48Z</time>
      </trkpt>
      <trkpt lat="47.49626" lon="3.81847">
        <ele>324</ele>
        <time>2019-04-05T09:10:52Z</time>
      </trkpt>
      <trkpt lat="47.49629" lon="3.81854">
        <ele>324</ele>
        <time>2019-04-05T09:10:57Z</time>
      </trkpt>
      <trkpt lat="47.4963" lon="3.81857">
        <ele>324</ele>
        <time>2019-04-05T09:10:59Z</time>
      </trkpt>
      <trkpt lat="47.49634" lon="3.81863">
        <ele>325</ele>
        <time>2019-04-05T09:11:04Z</time>
      </trkpt>
      <trkpt lat="47.49636" lon="3.81869">
        <ele>325</ele>
        <time>2019-04-05T09:11:08Z</time>
      </trkpt>
      <trkpt lat="47.4964" lon="3.81874">
        <ele>325</ele>
        <time>2019-04-05T09:11:13Z</time>
      </trkpt>
      <trkpt lat="47.49642" lon="3.81878">
        <ele>325</ele>
        <time>2019-04-05T09:11:16Z</time>
      </trkpt>
      <trkpt lat="47.49643" lon="3.81881">
        <ele>325</ele>
        <time>2019-04-05T09:11:18Z</time>
      </trkpt>
      <trkpt lat="47.49645" lon="3.81883">
        <ele>326</ele>
        <time>2019-04-05T09:11:20Z</time>
      </trkpt>
      <trkpt lat="47.49647" lon="3.81886">
        <ele>326</ele>
        <time>2019-04-05T09:11:22Z</time>
      </trkpt>
      <trkpt lat="47.49651" lon="3.8189">
        <ele>326</ele>
        <time>2019-04-05T09:11:26Z</time>
      </trkpt>
      <trkpt lat="47.49656" lon="3.81894">
        <ele>325</ele>
        <time>2019-04-05T09:11:30Z</time>
      </trkpt>
      <trkpt lat="47.49658" lon="3.81897">
        <ele>326</ele>
        <time>2019-04-05T09:11:32Z</time>
      </trkpt>
      <trkpt lat="47.49663" lon="3.81901">
        <ele>326</ele>
        <time>2019-04-05T09:11:37Z</time>
      </trkpt>
      <trkpt lat="47.49667" lon="3.81905">
        <ele>326</ele>
        <time>2019-04-05T09:11:41Z</time>
      </trkpt>
      <trkpt lat="47.49672" lon="3.81909">
        <ele>325</ele>
        <time>2019-04-05T09:11:45Z</time>
      </trkpt>
      <trkpt lat="47.49674" lon="3.81911">
        <ele>325</ele>
        <time>2019-04-05T09:11:47Z</time>
      </trkpt>
      <trkpt lat="47.49677" lon="3.81915">
        <ele>325</ele>
        <time>2019-04-05T09:11:50Z</time>
      </trkpt>
      <trkpt lat="47.49681" lon="3.81918">
        <ele>325</ele>
        <time>2019-04-05T09:11:53Z</time>
      </trkpt>
      <trkpt lat="47.49685" lon="3.81923">
        <ele>325</ele>
        <time>2019-04-05T09:11:57Z</time>
      </trkpt>
      <trkpt lat="47.49687" lon="3.81926">
        <ele>326</ele>
        <time>2019-04-05T09:12:00Z</time>
      </trkpt>
      <trkpt lat="47.4969" lon="3.8193">
        <ele>326</ele>
        <time>2019-04-05T09:12:04Z</time>
      </trkpt>
      <trkpt lat="47.49692" lon="3.81933">
        <ele>326</ele>
        <time>2019-04-05T09:12:06Z</time>
      </trkpt>
      <trkpt lat="47.49696" lon="3.81938">
        <ele>327</ele>
        <time>2019-04-05T09:12:10Z</time>
      </trkpt>
      <trkpt lat="47.49701" lon="3.81942">
        <ele>326</ele>
        <time>2019-04-05T09:12:14Z</time>
      </trkpt>
      <trkpt lat="47.49704" lon="3.81947">
        <ele>327</ele>
        <time>2019-04-05T09:12:18Z</time>
      </trkpt>
      <trkpt lat="47.49708" lon="3.81951">
        <ele>327</ele>
        <time>2019-04-05T09:12:21Z</time>
      </trkpt>
      <trkpt lat="47.49712" lon="3.81955">
        <ele>326</ele>
        <time>2019-04-05T09:12:24Z</time>
      </trkpt>
      <trkpt lat="47.49714" lon="3.81957">
        <ele>326</ele>
        <time>2019-04-05T09:12:26Z</time>
      </trkpt>
      <trkpt lat="47.49717" lon="3.81961">
        <ele>327</ele>
        <time>2019-04-05T09:12:29Z</time>
      </trkpt>
      <trkpt lat="47.49721" lon="3.81965">
        <ele>329</ele>
        <time>2019-04-05T09:12:33Z</time>
      </trkpt>
      <trkpt lat="47.49725" lon="3.8197">
        <ele>327</ele>
        <time>2019-04-05T09:12:37Z</time>
      </trkpt>
      <trkpt lat="47.49729" lon="3.81974">
        <ele>328</ele>
        <time>2019-04-05T09:12:42Z</time>
      </trkpt>
      <trkpt lat="47.49731" lon="3.81976">
        <ele>327</ele>
        <time>2019-04-05T09:12:44Z</time>
      </trkpt>
      <trkpt lat="47.49734" lon="3.81981">
        <ele>327</ele>
        <time>2019-04-05T09:12:48Z</time>
      </trkpt>
      <trkpt lat="47.49738" lon="3.81987">
        <ele>327</ele>
        <time>2019-04-05T09:12:52Z</time>
      </trkpt>
      <trkpt lat="47.4974" lon="3.8199">
        <ele>327</ele>
        <time>2019-04-05T09:12:54Z</time>
      </trkpt>
      <trkpt lat="47.49743" lon="3.81996">
        <ele>328</ele>
        <time>2019-04-05T09:12:58Z</time>
      </trkpt>
      <trkpt lat="47.49745" lon="3.82">
        <ele>327</ele>
        <time>2019-04-05T09:13:01Z</time>
      </trkpt>
      <trkpt lat="47.49748" lon="3.82005">
        <ele>327</ele>
        <time>2019-04-05T09:13:05Z</time>
      </trkpt>
      <trkpt lat="47.49753" lon="3.82011">
        <ele>327</ele>
        <time>2019-04-05T09:13:10Z</time>
      </trkpt>
      <trkpt lat="47.49756" lon="3.82015">
        <ele>328</ele>
        <time>2019-04-05T09:13:13Z</time>
      </trkpt>
      <trkpt lat="47.49758" lon="3.82018">
        <ele>328</ele>
        <time>2019-04-05T09:13:16Z</time>
      </trkpt>
      <trkpt lat="47.49761" lon="3.82024">
        <ele>328</ele>
        <time>2019-04-05T09:13:20Z</time>
      </trkpt>
      <trkpt lat="47.49763" lon="3.82026">
        <ele>327</ele>
        <time>2019-04-05T09:13:22Z</time>
      </trkpt>
      <trkpt lat="47.49765" lon="3.8203">
        <ele>328</ele>
        <time>2019-04-05T09:13:25Z</time>
      </trkpt>
      <trkpt lat="47.4977" lon="3.82036">
        <ele>328</ele>
        <time>2019-04-05T09:13:30Z</time>
      </trkpt>
      <trkpt lat="47.49774" lon="3.82041">
        <ele>329</ele>
        <time>2019-04-05T09:13:34Z</time>
      </trkpt>
      <trkpt lat="47.49778" lon="3.82047">
        <ele>329</ele>
        <time>2019-04-05T09:13:40Z</time>
      </trkpt>
      <trkpt lat="47.4978" lon="3.8205">
        <ele>329</ele>
        <time>2019-04-05T09:13:42Z</time>
      </trkpt>
      <trkpt lat="47.49783" lon="3.82053">
        <ele>330</ele>
        <time>2019-04-05T09:13:45Z</time>
      </trkpt>
      <trkpt lat="47.49786" lon="3.82056">
        <ele>330</ele>
        <time>2019-04-05T09:13:49Z</time>
      </trkpt>
      <trkpt lat="47.49789" lon="3.82062">
        <ele>331</ele>
        <time>2019-04-05T09:13:53Z</time>
      </trkpt>
      <trkpt lat="47.49792" lon="3.82065">
        <ele>330</ele>
        <time>2019-04-05T09:13:55Z</time>
      </trkpt>
      <trkpt lat="47.49795" lon="3.82073">
        <ele>330</ele>
        <time>2019-04-05T09:13:59Z</time>
      </trkpt>
      <trkpt lat="47.49798" lon="3.82079">
        <ele>330</ele>
        <time>2019-04-05T09:14:04Z</time>
      </trkpt>
      <trkpt lat="47.49803" lon="3.82085">
        <ele>330</ele>
        <time>2019-04-05T09:14:11Z</time>
      </trkpt>
      <trkpt lat="47.49808" lon="3.8209">
        <ele>331</ele>
        <time>2019-04-05T09:14:15Z</time>
      </trkpt>
      <trkpt lat="47.49812" lon="3.82095">
        <ele>333</ele>
        <time>2019-04-05T09:14:20Z</time>
      </trkpt>
      <trkpt lat="47.49815" lon="3.821">
        <ele>335</ele>
        <time>2019-04-05T09:14:25Z</time>
      </trkpt>
      <trkpt lat="47.49817" lon="3.82107">
        <ele>334</ele>
        <time>2019-04-05T09:14:30Z</time>
      </trkpt>
      <trkpt lat="47.49821" lon="3.82111">
        <ele>334</ele>
        <time>2019-04-05T09:14:35Z</time>
      </trkpt>
      <trkpt lat="47.49824" lon="3.82117">
        <ele>333</ele>
        <time>2019-04-05T09:14:38Z</time>
      </trkpt>
      <trkpt lat="47.49828" lon="3.82123">
        <ele>332</ele>
        <time>2019-04-05T09:14:42Z</time>
      </trkpt>
      <trkpt lat="47.49832" lon="3.82127">
        <ele>332</ele>
        <time>2019-04-05T09:14:47Z</time>
      </trkpt>
      <trkpt lat="47.49836" lon="3.8213">
        <ele>331</ele>
        <time>2019-04-05T09:14:50Z</time>
      </trkpt>
      <trkpt lat="47.49841" lon="3.82134">
        <ele>331</ele>
        <time>2019-04-05T09:14:55Z</time>
      </trkpt>
      <trkpt lat="47.49845" lon="3.82138">
        <ele>332</ele>
        <time>2019-04-05T09:14:59Z</time>
      </trkpt>
      <trkpt lat="47.49848" lon="3.82139">
        <ele>332</ele>
        <time>2019-04-05T09:15:02Z</time>
      </trkpt>
      <trkpt lat="47.49851" lon="3.82144">
        <ele>333</ele>
        <time>2019-04-05T09:15:05Z</time>
      </trkpt>
      <trkpt lat="47.49855" lon="3.8215">
        <ele>333</ele>
        <time>2019-04-05T09:15:08Z</time>
      </trkpt>
      <trkpt lat="47.4986" lon="3.82153">
        <ele>335</ele>
        <time>2019-04-05T09:15:12Z</time>
      </trkpt>
      <trkpt lat="47.49863" lon="3.82154">
        <ele>335</ele>
        <time>2019-04-05T09:15:13Z</time>
      </trkpt>
      <trkpt lat="47.49868" lon="3.82156">
        <ele>337</ele>
        <time>2019-04-05T09:15:17Z</time>
      </trkpt>
      <trkpt lat="47.49872" lon="3.8216">
        <ele>337</ele>
        <time>2019-04-05T09:15:22Z</time>
      </trkpt>
      <trkpt lat="47.49875" lon="3.82163">
        <ele>339</ele>
        <time>2019-04-05T09:15:26Z</time>
      </trkpt>
      <trkpt lat="47.49879" lon="3.8217">
        <ele>337</ele>
        <time>2019-04-05T09:15:32Z</time>
      </trkpt>
      <trkpt lat="47.49884" lon="3.82174">
        <ele>338</ele>
        <time>2019-04-05T09:15:36Z</time>
      </trkpt>
      <trkpt lat="47.49888" lon="3.82178">
        <ele>337</ele>
        <time>2019-04-05T09:15:40Z</time>
      </trkpt>
      <trkpt lat="47.49892" lon="3.82182">
        <ele>337</ele>
        <time>2019-04-05T09:15:44Z</time>
      </trkpt>
      <trkpt lat="47.49896" lon="3.82187">
        <ele>338</ele>
        <time>2019-04-05T09:15:49Z</time>
      </trkpt>
      <trkpt lat="47.49899" lon="3.8219">
        <ele>338</ele>
        <time>2019-04-05T09:15:52Z</time>
      </trkpt>
      <trkpt lat="47.49903" lon="3.82195">
        <ele>338</ele>
        <time>2019-04-05T09:15:57Z</time>
      </trkpt>
      <trkpt lat="47.49908" lon="3.82201">
        <ele>339</ele>
        <time>2019-04-05T09:16:01Z</time>
      </trkpt>
      <trkpt lat="47.49914" lon="3.82206">
        <ele>339</ele>
        <time>2019-04-05T09:16:06Z</time>
      </trkpt>
      <trkpt lat="47.49919" lon="3.82208">
        <ele>340</ele>
        <time>2019-04-05T09:16:12Z</time>
      </trkpt>
      <trkpt lat="47.49924" lon="3.82209">
        <ele>341</ele>
        <time>2019-04-05T09:16:16Z</time>
      </trkpt>
      <trkpt lat="47.49928" lon="3.82212">
        <ele>342</ele>
        <time>2019-04-05T09:16:21Z</time>
      </trkpt>
      <trkpt lat="47.49934" lon="3.82217">
        <ele>342</ele>
        <time>2019-04-05T09:16:26Z</time>
      </trkpt>
      <trkpt lat="47.49938" lon="3.8222">
        <ele>344</ele>
        <time>2019-04-05T09:16:30Z</time>
      </trkpt>
      <trkpt lat="47.49943" lon="3.82223">
        <ele>344</ele>
        <time>2019-04-05T09:16:33Z</time>
      </trkpt>
      <trkpt lat="47.49949" lon="3.82226">
        <ele>344</ele>
        <time>2019-04-05T09:16:37Z</time>
      </trkpt>
      <trkpt lat="47.49951" lon="3.82232">
        <ele>346</ele>
        <time>2019-04-05T09:16:43Z</time>
      </trkpt>
      <trkpt lat="47.49956" lon="3.82237">
        <ele>348</ele>
        <time>2019-04-05T09:16:49Z</time>
      </trkpt>
      <trkpt lat="47.4996" lon="3.8224">
        <ele>347</ele>
        <time>2019-04-05T09:16:52Z</time>
      </trkpt>
      <trkpt lat="47.49967" lon="3.82245">
        <ele>346</ele>
        <time>2019-04-05T09:16:56Z</time>
      </trkpt>
      <trkpt lat="47.49972" lon="3.82249">
        <ele>346</ele>
        <time>2019-04-05T09:16:59Z</time>
      </trkpt>
      <trkpt lat="47.49976" lon="3.82253">
        <ele>345</ele>
        <time>2019-04-05T09:17:02Z</time>
      </trkpt>
      <trkpt lat="47.49981" lon="3.82258">
        <ele>345</ele>
        <time>2019-04-05T09:17:06Z</time>
      </trkpt>
      <trkpt lat="47.49983" lon="3.82264">
        <ele>344</ele>
        <time>2019-04-05T09:17:09Z</time>
      </trkpt>
      <trkpt lat="47.49988" lon="3.8227">
        <ele>344</ele>
        <time>2019-04-05T09:17:14Z</time>
      </trkpt>
      <trkpt lat="47.49992" lon="3.82274">
        <ele>344</ele>
        <time>2019-04-05T09:17:17Z</time>
      </trkpt>
      <trkpt lat="47.49994" lon="3.82279">
        <ele>342</ele>
        <time>2019-04-05T09:17:20Z</time>
      </trkpt>
      <trkpt lat="47.49998" lon="3.82284">
        <ele>340</ele>
        <time>2019-04-05T09:17:24Z</time>
      </trkpt>
      <trkpt lat="47.5" lon="3.82292">
        <ele>339</ele>
        <time>2019-04-05T09:17:32Z</time>
      </trkpt>
      <trkpt lat="47.50004" lon="3.82298">
        <ele>339</ele>
        <time>2019-04-05T09:17:35Z</time>
      </trkpt>
      <trkpt lat="47.50008" lon="3.82303">
        <ele>340</ele>
        <time>2019-04-05T09:17:40Z</time>
      </trkpt>
      <trkpt lat="47.50011" lon="3.82308">
        <ele>341</ele>
        <time>2019-04-05T09:17:45Z</time>
      </trkpt>
      <trkpt lat="47.50011" lon="3.82308">
        <ele>341</ele>
        <time>2019-04-05T09:17:54Z</time>
      </trkpt>
      <trkpt lat="47.50011" lon="3.82308">
        <ele>341</ele>
        <time>2019-04-05T09:17:55Z</time>
      </trkpt>
      <trkpt lat="47.50018" lon="3.82311">
        <ele>344</ele>
        <time>2019-04-05T09:19:47Z</time>
      </trkpt>
      <trkpt lat="47.50021" lon="3.82317">
        <ele>345</ele>
        <time>2019-04-05T09:20:00Z</time>
      </trkpt>
      <trkpt lat="47.50027" lon="3.82321">
        <ele>346</ele>
        <time>2019-04-05T09:20:10Z</time>
      </trkpt>
      <trkpt lat="47.50032" lon="3.82328">
        <ele>346</ele>
        <time>2019-04-05T09:20:16Z</time>
      </trkpt>
      <trkpt lat="47.50036" lon="3.82331">
        <ele>347</ele>
        <time>2019-04-05T09:20:19Z</time>
      </trkpt>
      <trkpt lat="47.50039" lon="3.82337">
        <ele>347</ele>
        <time>2019-04-05T09:20:24Z</time>
      </trkpt>
      <trkpt lat="47.50044" lon="3.8234">
        <ele>348</ele>
        <time>2019-04-05T09:20:30Z</time>
      </trkpt>
      <trkpt lat="47.50049" lon="3.82345">
        <ele>350</ele>
        <time>2019-04-05T09:20:36Z</time>
      </trkpt>
      <trkpt lat="47.50054" lon="3.8235">
        <ele>348</ele>
        <time>2019-04-05T09:20:42Z</time>
      </trkpt>
      <trkpt lat="47.50057" lon="3.82356">
        <ele>349</ele>
        <time>2019-04-05T09:20:49Z</time>
      </trkpt>
      <trkpt lat="47.50062" lon="3.82358">
        <ele>350</ele>
        <time>2019-04-05T09:20:53Z</time>
      </trkpt>
      <trkpt lat="47.50067" lon="3.8236">
        <ele>350</ele>
        <time>2019-04-05T09:20:57Z</time>
      </trkpt>
      <trkpt lat="47.50073" lon="3.82362">
        <ele>351</ele>
        <time>2019-04-05T09:21:01Z</time>
      </trkpt>
      <trkpt lat="47.5008" lon="3.82368">
        <ele>354</ele>
        <time>2019-04-05T09:21:06Z</time>
      </trkpt>
      <trkpt lat="47.50085" lon="3.82373">
        <ele>354</ele>
        <time>2019-04-05T09:21:10Z</time>
      </trkpt>
      <trkpt lat="47.50091" lon="3.82376">
        <ele>354</ele>
        <time>2019-04-05T09:21:15Z</time>
      </trkpt>
      <trkpt lat="47.50096" lon="3.82378">
        <ele>354</ele>
        <time>2019-04-05T09:21:19Z</time>
      </trkpt>
      <trkpt lat="47.50101" lon="3.82379">
        <ele>354</ele>
        <time>2019-04-05T09:21:23Z</time>
      </trkpt>
      <trkpt lat="47.50106" lon="3.8238">
        <ele>353</ele>
        <time>2019-04-05T09:21:28Z</time>
      </trkpt>
      <trkpt lat="47.50111" lon="3.82379">
        <ele>354</ele>
        <time>2019-04-05T09:21:33Z</time>
      </trkpt>
      <trkpt lat="47.50116" lon="3.8238">
        <ele>352</ele>
        <time>2019-04-05T09:21:38Z</time>
      </trkpt>
      <trkpt lat="47.50121" lon="3.82384">
        <ele>352</ele>
        <time>2019-04-05T09:21:42Z</time>
      </trkpt>
      <trkpt lat="47.50127" lon="3.82383">
        <ele>352</ele>
        <time>2019-04-05T09:21:46Z</time>
      </trkpt>
      <trkpt lat="47.50129" lon="3.82383">
        <ele>351</ele>
        <time>2019-04-05T09:21:48Z</time>
      </trkpt>
      <trkpt lat="47.50133" lon="3.82385">
        <ele>351</ele>
        <time>2019-04-05T09:21:51Z</time>
      </trkpt>
      <trkpt lat="47.50139" lon="3.82386">
        <ele>349</ele>
        <time>2019-04-05T09:21:56Z</time>
      </trkpt>
      <trkpt lat="47.50141" lon="3.82387">
        <ele>347</ele>
        <time>2019-04-05T09:21:59Z</time>
      </trkpt>
      <trkpt lat="47.50145" lon="3.82387">
        <ele>346</ele>
        <time>2019-04-05T09:22:03Z</time>
      </trkpt>
      <trkpt lat="47.50148" lon="3.82387">
        <ele>344</ele>
        <time>2019-04-05T09:22:06Z</time>
      </trkpt>
      <trkpt lat="47.50153" lon="3.82387">
        <ele>344</ele>
        <time>2019-04-05T09:22:11Z</time>
      </trkpt>
      <trkpt lat="47.50158" lon="3.82387">
        <ele>343</ele>
        <time>2019-04-05T09:22:16Z</time>
      </trkpt>
      <trkpt lat="47.50163" lon="3.82388">
        <ele>342</ele>
        <time>2019-04-05T09:22:20Z</time>
      </trkpt>
      <trkpt lat="47.50167" lon="3.82389">
        <ele>338</ele>
        <time>2019-04-05T09:22:24Z</time>
      </trkpt>
      <trkpt lat="47.5017" lon="3.82389">
        <ele>338</ele>
        <time>2019-04-05T09:22:27Z</time>
      </trkpt>
      <trkpt lat="47.50174" lon="3.8239">
        <ele>336</ele>
        <time>2019-04-05T09:22:32Z</time>
      </trkpt>
      <trkpt lat="47.50178" lon="3.82388">
        <ele>336</ele>
        <time>2019-04-05T09:22:37Z</time>
      </trkpt>
      <trkpt lat="47.50184" lon="3.8239">
        <ele>335</ele>
        <time>2019-04-05T09:22:42Z</time>
      </trkpt>
      <trkpt lat="47.50186" lon="3.82391">
        <ele>335</ele>
        <time>2019-04-05T09:22:44Z</time>
      </trkpt>
      <trkpt lat="47.50191" lon="3.82393">
        <ele>333</ele>
        <time>2019-04-05T09:22:49Z</time>
      </trkpt>
      <trkpt lat="47.50196" lon="3.82394">
        <ele>332</ele>
        <time>2019-04-05T09:22:54Z</time>
      </trkpt>
      <trkpt lat="47.50199" lon="3.82394">
        <ele>332</ele>
        <time>2019-04-05T09:22:56Z</time>
      </trkpt>
      <trkpt lat="47.50204" lon="3.82396">
        <ele>331</ele>
        <time>2019-04-05T09:23:00Z</time>
      </trkpt>
      <trkpt lat="47.50207" lon="3.82397">
        <ele>331</ele>
        <time>2019-04-05T09:23:04Z</time>
      </trkpt>
      <trkpt lat="47.50213" lon="3.82401">
        <ele>331</ele>
        <time>2019-04-05T09:23:08Z</time>
      </trkpt>
      <trkpt lat="47.50218" lon="3.82403">
        <ele>332</ele>
        <time>2019-04-05T09:23:12Z</time>
      </trkpt>
      <trkpt lat="47.50223" lon="3.82406">
        <ele>330</ele>
        <time>2019-04-05T09:23:18Z</time>
      </trkpt>
      <trkpt lat="47.50229" lon="3.82407">
        <ele>330</ele>
        <time>2019-04-05T09:23:24Z</time>
      </trkpt>
      <trkpt lat="47.50233" lon="3.8241">
        <ele>328</ele>
        <time>2019-04-05T09:23:27Z</time>
      </trkpt>
      <trkpt lat="47.50237" lon="3.82414">
        <ele>327</ele>
        <time>2019-04-05T09:23:32Z</time>
      </trkpt>
      <trkpt lat="47.50241" lon="3.82414">
        <ele>327</ele>
        <time>2019-04-05T09:23:39Z</time>
      </trkpt>
      <trkpt lat="47.50245" lon="3.82414">
        <ele>326</ele>
        <time>2019-04-05T09:23:42Z</time>
      </trkpt>
      <trkpt lat="47.5025" lon="3.82416">
        <ele>326</ele>
        <time>2019-04-05T09:23:48Z</time>
      </trkpt>
      <trkpt lat="47.50253" lon="3.82416">
        <ele>326</ele>
        <time>2019-04-05T09:23:50Z</time>
      </trkpt>
      <trkpt lat="47.50259" lon="3.82419">
        <ele>325</ele>
        <time>2019-04-05T09:23:54Z</time>
      </trkpt>
      <trkpt lat="47.50263" lon="3.8242">
        <ele>323</ele>
        <time>2019-04-05T09:23:57Z</time>
      </trkpt>
      <trkpt lat="47.5027" lon="3.82422">
        <ele>322</ele>
        <time>2019-04-05T09:24:03Z</time>
      </trkpt>
      <trkpt lat="47.50274" lon="3.82425">
        <ele>321</ele>
        <time>2019-04-05T09:24:07Z</time>
      </trkpt>
      <trkpt lat="47.50277" lon="3.82426">
        <ele>321</ele>
        <time>2019-04-05T09:24:09Z</time>
      </trkpt>
      <trkpt lat="47.50282" lon="3.82428">
        <ele>323</ele>
        <time>2019-04-05T09:24:13Z</time>
      </trkpt>
      <trkpt lat="47.50287" lon="3.82427">
        <ele>322</ele>
        <time>2019-04-05T09:24:18Z</time>
      </trkpt>
      <trkpt lat="47.5029" lon="3.82426">
        <ele>321</ele>
        <time>2019-04-05T09:24:22Z</time>
      </trkpt>
      <trkpt lat="47.50294" lon="3.82425">
        <ele>321</ele>
        <time>2019-04-05T09:24:25Z</time>
      </trkpt>
      <trkpt lat="47.50299" lon="3.82427">
        <ele>320</ele>
        <time>2019-04-05T09:24:28Z</time>
      </trkpt>
      <trkpt lat="47.50303" lon="3.82428">
        <ele>319</ele>
        <time>2019-04-05T09:24:32Z</time>
      </trkpt>
      <trkpt lat="47.50308" lon="3.82429">
        <ele>316</ele>
        <time>2019-04-05T09:24:38Z</time>
      </trkpt>
      <trkpt lat="47.50313" lon="3.82432">
        <ele>316</ele>
        <time>2019-04-05T09:24:43Z</time>
      </trkpt>
      <trkpt lat="47.50318" lon="3.82432">
        <ele>316</ele>
        <time>2019-04-05T09:24:48Z</time>
      </trkpt>
      <trkpt lat="47.50324" lon="3.82437">
        <ele>317</ele>
        <time>2019-04-05T09:24:56Z</time>
      </trkpt>
      <trkpt lat="47.50329" lon="3.8244">
        <ele>316</ele>
        <time>2019-04-05T09:25:02Z</time>
      </trkpt>
      <trkpt lat="47.50334" lon="3.8244">
        <ele>315</ele>
        <time>2019-04-05T09:25:07Z</time>
      </trkpt>
      <trkpt lat="47.50339" lon="3.8244">
        <ele>315</ele>
        <time>2019-04-05T09:25:12Z</time>
      </trkpt>
      <trkpt lat="47.50344" lon="3.82442">
        <ele>315</ele>
        <time>2019-04-05T09:25:16Z</time>
      </trkpt>
      <trkpt lat="47.50349" lon="3.82446">
        <ele>310</ele>
        <time>2019-04-05T09:25:21Z</time>
      </trkpt>
      <trkpt lat="47.50353" lon="3.8245">
        <ele>309</ele>
        <time>2019-04-05T09:25:25Z</time>
      </trkpt>
      <trkpt lat="47.50356" lon="3.82453">
        <ele>309</ele>
        <time>2019-04-05T09:25:28Z</time>
      </trkpt>
      <trkpt lat="47.5036" lon="3.82456">
        <ele>308</ele>
        <time>2019-04-05T09:25:31Z</time>
      </trkpt>
      <trkpt lat="47.50364" lon="3.82459">
        <ele>308</ele>
        <time>2019-04-05T09:25:34Z</time>
      </trkpt>
      <trkpt lat="47.50372" lon="3.82462">
        <ele>309</ele>
        <time>2019-04-05T09:25:39Z</time>
      </trkpt>
      <trkpt lat="47.50376" lon="3.82467">
        <ele>308</ele>
        <time>2019-04-05T09:25:44Z</time>
      </trkpt>
      <trkpt lat="47.5038" lon="3.8247">
        <ele>306</ele>
        <time>2019-04-05T09:25:52Z</time>
      </trkpt>
      <trkpt lat="47.50384" lon="3.82473">
        <ele>305</ele>
        <time>2019-04-05T09:25:56Z</time>
      </trkpt>
      <trkpt lat="47.5039" lon="3.82475">
        <ele>306</ele>
        <time>2019-04-05T09:26:01Z</time>
      </trkpt>
      <trkpt lat="47.50394" lon="3.82478">
        <ele>306</ele>
        <time>2019-04-05T09:26:03Z</time>
      </trkpt>
      <trkpt lat="47.50401" lon="3.82482">
        <ele>306</ele>
        <time>2019-04-05T09:26:11Z</time>
      </trkpt>
      <trkpt lat="47.50406" lon="3.82486">
        <ele>305</ele>
        <time>2019-04-05T09:26:15Z</time>
      </trkpt>
      <trkpt lat="47.50412" lon="3.82491">
        <ele>305</ele>
        <time>2019-04-05T09:26:19Z</time>
      </trkpt>
      <trkpt lat="47.50418" lon="3.82494">
        <ele>305</ele>
        <time>2019-04-05T09:26:25Z</time>
      </trkpt>
      <trkpt lat="47.50423" lon="3.82497">
        <ele>305</ele>
        <time>2019-04-05T09:26:28Z</time>
      </trkpt>
      <trkpt lat="47.50428" lon="3.82501">
        <ele>305</ele>
        <time>2019-04-05T09:26:30Z</time>
      </trkpt>
      <trkpt lat="47.50433" lon="3.82502">
        <ele>305</ele>
        <time>2019-04-05T09:26:34Z</time>
      </trkpt>
      <trkpt lat="47.5044" lon="3.82505">
        <ele>304</ele>
        <time>2019-04-05T09:26:39Z</time>
      </trkpt>
      <trkpt lat="47.50446" lon="3.82508">
        <ele>304</ele>
        <time>2019-04-05T09:26:44Z</time>
      </trkpt>
      <trkpt lat="47.50451" lon="3.8251">
        <ele>303</ele>
        <time>2019-04-05T09:26:47Z</time>
      </trkpt>
      <trkpt lat="47.50456" lon="3.82512">
        <ele>303</ele>
        <time>2019-04-05T09:26:51Z</time>
      </trkpt>
      <trkpt lat="47.5046" lon="3.82515">
        <ele>302</ele>
        <time>2019-04-05T09:26:55Z</time>
      </trkpt>
      <trkpt lat="47.50465" lon="3.82518">
        <ele>302</ele>
        <time>2019-04-05T09:26:59Z</time>
      </trkpt>
      <trkpt lat="47.5047" lon="3.8252">
        <ele>302</ele>
        <time>2019-04-05T09:27:06Z</time>
      </trkpt>
      <trkpt lat="47.50474" lon="3.82521">
        <ele>303</ele>
        <time>2019-04-05T09:27:09Z</time>
      </trkpt>
      <trkpt lat="47.50476" lon="3.82521">
        <ele>303</ele>
        <time>2019-04-05T09:27:11Z</time>
      </trkpt>
      <trkpt lat="47.5048" lon="3.82522">
        <ele>304</ele>
        <time>2019-04-05T09:27:13Z</time>
      </trkpt>
      <trkpt lat="47.50487" lon="3.82525">
        <ele>303</ele>
        <time>2019-04-05T09:27:19Z</time>
      </trkpt>
      <trkpt lat="47.50491" lon="3.82526">
        <ele>303</ele>
        <time>2019-04-05T09:27:21Z</time>
      </trkpt>
      <trkpt lat="47.50498" lon="3.82528">
        <ele>301</ele>
        <time>2019-04-05T09:27:29Z</time>
      </trkpt>
      <trkpt lat="47.50502" lon="3.82534">
        <ele>301</ele>
        <time>2019-04-05T09:27:34Z</time>
      </trkpt>
      <trkpt lat="47.50506" lon="3.82537">
        <ele>300</ele>
        <time>2019-04-05T09:27:38Z</time>
      </trkpt>
      <trkpt lat="47.50509" lon="3.82539">
        <ele>301</ele>
        <time>2019-04-05T09:27:40Z</time>
      </trkpt>
      <trkpt lat="47.50513" lon="3.8254">
        <ele>299</ele>
        <time>2019-04-05T09:27:43Z</time>
      </trkpt>
      <trkpt lat="47.50518" lon="3.82542">
        <ele>296</ele>
        <time>2019-04-05T09:27:50Z</time>
      </trkpt>
      <trkpt lat="47.50521" lon="3.82547">
        <ele>296</ele>
        <time>2019-04-05T09:27:54Z</time>
      </trkpt>
      <trkpt lat="47.50524" lon="3.82551">
        <ele>296</ele>
        <time>2019-04-05T09:27:56Z</time>
      </trkpt>
      <trkpt lat="47.50525" lon="3.82554">
        <ele>295</ele>
        <time>2019-04-05T09:27:59Z</time>
      </trkpt>
      <trkpt lat="47.5053" lon="3.8256">
        <ele>295</ele>
        <time>2019-04-05T09:28:05Z</time>
      </trkpt>
      <trkpt lat="47.50536" lon="3.82561">
        <ele>294</ele>
        <time>2019-04-05T09:28:10Z</time>
      </trkpt>
      <trkpt lat="47.5054" lon="3.82567">
        <ele>291</ele>
        <time>2019-04-05T09:28:15Z</time>
      </trkpt>
      <trkpt lat="47.50546" lon="3.8257">
        <ele>290</ele>
        <time>2019-04-05T09:28:21Z</time>
      </trkpt>
      <trkpt lat="47.50551" lon="3.82573">
        <ele>290</ele>
        <time>2019-04-05T09:28:24Z</time>
      </trkpt>
      <trkpt lat="47.50553" lon="3.82575">
        <ele>289</ele>
        <time>2019-04-05T09:28:26Z</time>
      </trkpt>
      <trkpt lat="47.50557" lon="3.82579">
        <ele>289</ele>
        <time>2019-04-05T09:28:31Z</time>
      </trkpt>
      <trkpt lat="47.5056" lon="3.82582">
        <ele>289</ele>
        <time>2019-04-05T09:28:34Z</time>
      </trkpt>
      <trkpt lat="47.50562" lon="3.82585">
        <ele>288</ele>
        <time>2019-04-05T09:28:37Z</time>
      </trkpt>
      <trkpt lat="47.50567" lon="3.82589">
        <ele>288</ele>
        <time>2019-04-05T09:28:43Z</time>
      </trkpt>
      <trkpt lat="47.50571" lon="3.82595">
        <ele>286</ele>
        <time>2019-04-05T09:28:48Z</time>
      </trkpt>
      <trkpt lat="47.50574" lon="3.82598">
        <ele>285</ele>
        <time>2019-04-05T09:28:51Z</time>
      </trkpt>
      <trkpt lat="47.50577" lon="3.82603">
        <ele>284</ele>
        <time>2019-04-05T09:28:55Z</time>
      </trkpt>
      <trkpt lat="47.50579" lon="3.82609">
        <ele>283</ele>
        <time>2019-04-05T09:29:01Z</time>
      </trkpt>
      <trkpt lat="47.50581" lon="3.82617">
        <ele>281</ele>
        <time>2019-04-05T09:29:07Z</time>
      </trkpt>
      <trkpt lat="47.50584" lon="3.82624">
        <ele>281</ele>
        <time>2019-04-05T09:29:12Z</time>
      </trkpt>
      <trkpt lat="47.50586" lon="3.82631">
        <ele>280</ele>
        <time>2019-04-05T09:29:17Z</time>
      </trkpt>
      <trkpt lat="47.50589" lon="3.82636">
        <ele>280</ele>
        <time>2019-04-05T09:29:22Z</time>
      </trkpt>
      <trkpt lat="47.50591" lon="3.82641">
        <ele>280</ele>
        <time>2019-04-05T09:29:27Z</time>
      </trkpt>
      <trkpt lat="47.50593" lon="3.82647">
        <ele>279</ele>
        <time>2019-04-05T09:29:31Z</time>
      </trkpt>
      <trkpt lat="47.50597" lon="3.82652">
        <ele>279</ele>
        <time>2019-04-05T09:29:36Z</time>
      </trkpt>
      <trkpt lat="47.50599" lon="3.82663">
        <ele>281</ele>
        <time>2019-04-05T09:29:43Z</time>
      </trkpt>
      <trkpt lat="47.50599" lon="3.82669">
        <ele>280</ele>
        <time>2019-04-05T09:29:48Z</time>
      </trkpt>
      <trkpt lat="47.506" lon="3.82676">
        <ele>276</ele>
        <time>2019-04-05T09:29:57Z</time>
      </trkpt>
      <trkpt lat="47.50601" lon="3.82683">
        <ele>275</ele>
        <time>2019-04-05T09:30:01Z</time>
      </trkpt>
      <trkpt lat="47.50601" lon="3.82687">
        <ele>274</ele>
        <time>2019-04-05T09:30:03Z</time>
      </trkpt>
      <trkpt lat="47.50602" lon="3.82692">
        <ele>274</ele>
        <time>2019-04-05T09:30:05Z</time>
      </trkpt>
      <trkpt lat="47.50603" lon="3.82698">
        <ele>273</ele>
        <time>2019-04-05T09:30:09Z</time>
      </trkpt>
      <trkpt lat="47.50604" lon="3.82703">
        <ele>273</ele>
        <time>2019-04-05T09:30:11Z</time>
      </trkpt>
      <trkpt lat="47.50604" lon="3.82713">
        <ele>272</ele>
        <time>2019-04-05T09:30:17Z</time>
      </trkpt>
      <trkpt lat="47.50604" lon="3.82716">
        <ele>272</ele>
        <time>2019-04-05T09:30:19Z</time>
      </trkpt>
      <trkpt lat="47.50606" lon="3.82723">
        <ele>272</ele>
        <time>2019-04-05T09:30:26Z</time>
      </trkpt>
      <trkpt lat="47.50606" lon="3.82732">
        <ele>270</ele>
        <time>2019-04-05T09:30:31Z</time>
      </trkpt>
      <trkpt lat="47.50607" lon="3.82736">
        <ele>269</ele>
        <time>2019-04-05T09:30:33Z</time>
      </trkpt>
      <trkpt lat="47.50608" lon="3.82744">
        <ele>267</ele>
        <time>2019-04-05T09:30:36Z</time>
      </trkpt>
      <trkpt lat="47.50608" lon="3.82751">
        <ele>266</ele>
        <time>2019-04-05T09:30:41Z</time>
      </trkpt>
      <trkpt lat="47.50608" lon="3.82757">
        <ele>264</ele>
        <time>2019-04-05T09:30:44Z</time>
      </trkpt>
      <trkpt lat="47.50608" lon="3.82761">
        <ele>264</ele>
        <time>2019-04-05T09:30:46Z</time>
      </trkpt>
      <trkpt lat="47.50608" lon="3.82765">
        <ele>263</ele>
        <time>2019-04-05T09:30:48Z</time>
      </trkpt>
      <trkpt lat="47.50606" lon="3.82771">
        <ele>262</ele>
        <time>2019-04-05T09:30:52Z</time>
      </trkpt>
      <trkpt lat="47.50603" lon="3.82776">
        <ele>260</ele>
        <time>2019-04-05T09:30:55Z</time>
      </trkpt>
      <trkpt lat="47.50601" lon="3.82783">
        <ele>260</ele>
        <time>2019-04-05T09:31:00Z</time>
      </trkpt>
      <trkpt lat="47.50601" lon="3.82791">
        <ele>258</ele>
        <time>2019-04-05T09:31:04Z</time>
      </trkpt>
      <trkpt lat="47.50601" lon="3.82794">
        <ele>258</ele>
        <time>2019-04-05T09:31:06Z</time>
      </trkpt>
      <trkpt lat="47.50603" lon="3.82801">
        <ele>257</ele>
        <time>2019-04-05T09:31:10Z</time>
      </trkpt>
      <trkpt lat="47.50603" lon="3.8281">
        <ele>256</ele>
        <time>2019-04-05T09:31:14Z</time>
      </trkpt>
      <trkpt lat="47.50603" lon="3.82817">
        <ele>256</ele>
        <time>2019-04-05T09:31:18Z</time>
      </trkpt>
      <trkpt lat="47.50604" lon="3.82826">
        <ele>257</ele>
        <time>2019-04-05T09:31:26Z</time>
      </trkpt>
      <trkpt lat="47.50605" lon="3.82827">
        <ele>256</ele>
        <time>2019-04-05T09:31:34Z</time>
      </trkpt>
      <trkpt lat="47.50596" lon="3.82829">
        <ele>260</ele>
        <time>2019-04-05T09:34:37Z</time>
      </trkpt>
      <trkpt lat="47.50594" lon="3.82837">
        <ele>261</ele>
        <time>2019-04-05T09:34:44Z</time>
      </trkpt>
      <trkpt lat="47.50591" lon="3.82841">
        <ele>262</ele>
        <time>2019-04-05T09:34:48Z</time>
      </trkpt>
      <trkpt lat="47.50587" lon="3.82845">
        <ele>263</ele>
        <time>2019-04-05T09:34:52Z</time>
      </trkpt>
      <trkpt lat="47.50583" lon="3.82849">
        <ele>264</ele>
        <time>2019-04-05T09:34:56Z</time>
      </trkpt>
      <trkpt lat="47.50579" lon="3.82855">
        <ele>265</ele>
        <time>2019-04-05T09:35:00Z</time>
      </trkpt>
      <trkpt lat="47.50575" lon="3.8286">
        <ele>267</ele>
        <time>2019-04-05T09:35:05Z</time>
      </trkpt>
      <trkpt lat="47.50572" lon="3.82864">
        <ele>267</ele>
        <time>2019-04-05T09:35:08Z</time>
      </trkpt>
      <trkpt lat="47.5057" lon="3.82866">
        <ele>268</ele>
        <time>2019-04-05T09:35:10Z</time>
      </trkpt>
      <trkpt lat="47.50567" lon="3.82872">
        <ele>269</ele>
        <time>2019-04-05T09:35:12Z</time>
      </trkpt>
      <trkpt lat="47.50563" lon="3.82879">
        <ele>270</ele>
        <time>2019-04-05T09:35:18Z</time>
      </trkpt>
      <trkpt lat="47.5056" lon="3.82885">
        <ele>271</ele>
        <time>2019-04-05T09:35:21Z</time>
      </trkpt>
      <trkpt lat="47.50556" lon="3.82892">
        <ele>272</ele>
        <time>2019-04-05T09:35:24Z</time>
      </trkpt>
      <trkpt lat="47.50555" lon="3.82895">
        <ele>272</ele>
        <time>2019-04-05T09:35:26Z</time>
      </trkpt>
      <trkpt lat="47.50553" lon="3.82901">
        <ele>272</ele>
        <time>2019-04-05T09:35:30Z</time>
      </trkpt>
      <trkpt lat="47.50551" lon="3.82909">
        <ele>271</ele>
        <time>2019-04-05T09:35:33Z</time>
      </trkpt>
      <trkpt lat="47.5055" lon="3.82912">
        <ele>272</ele>
        <time>2019-04-05T09:35:35Z</time>
      </trkpt>
      <trkpt lat="47.50548" lon="3.8292">
        <ele>272</ele>
        <time>2019-04-05T09:35:39Z</time>
      </trkpt>
      <trkpt lat="47.50545" lon="3.82926">
        <ele>273</ele>
        <time>2019-04-05T09:35:45Z</time>
      </trkpt>
      <trkpt lat="47.50543" lon="3.82934">
        <ele>274</ele>
        <time>2019-04-05T09:35:49Z</time>
      </trkpt>
      <trkpt lat="47.50539" lon="3.82939">
        <ele>274</ele>
        <time>2019-04-05T09:35:53Z</time>
      </trkpt>
      <trkpt lat="47.50535" lon="3.82944">
        <ele>274</ele>
        <time>2019-04-05T09:35:57Z</time>
      </trkpt>
      <trkpt lat="47.50532" lon="3.82952">
        <ele>274</ele>
        <time>2019-04-05T09:36:01Z</time>
      </trkpt>
      <trkpt lat="47.5053" lon="3.82957">
        <ele>275</ele>
        <time>2019-04-05T09:36:04Z</time>
      </trkpt>
      <trkpt lat="47.50528" lon="3.82962">
        <ele>275</ele>
        <time>2019-04-05T09:36:07Z</time>
      </trkpt>
      <trkpt lat="47.50523" lon="3.82967">
        <ele>277</ele>
        <time>2019-04-05T09:36:11Z</time>
      </trkpt>
      <trkpt lat="47.50518" lon="3.82973">
        <ele>277</ele>
        <time>2019-04-05T09:36:16Z</time>
      </trkpt>
      <trkpt lat="47.50516" lon="3.8298">
        <ele>278</ele>
        <time>2019-04-05T09:36:20Z</time>
      </trkpt>
      <trkpt lat="47.50511" lon="3.82986">
        <ele>277</ele>
        <time>2019-04-05T09:36:24Z</time>
      </trkpt>
      <trkpt lat="47.50507" lon="3.82992">
        <ele>279</ele>
        <time>2019-04-05T09:36:31Z</time>
      </trkpt>
      <trkpt lat="47.50503" lon="3.82998">
        <ele>280</ele>
        <time>2019-04-05T09:36:37Z</time>
      </trkpt>
      <trkpt lat="47.50499" lon="3.83003">
        <ele>280</ele>
        <time>2019-04-05T09:36:40Z</time>
      </trkpt>
      <trkpt lat="47.50495" lon="3.8301">
        <ele>279</ele>
        <time>2019-04-05T09:36:49Z</time>
      </trkpt>
      <trkpt lat="47.50491" lon="3.83014">
        <ele>282</ele>
        <time>2019-04-05T09:36:54Z</time>
      </trkpt>
      <trkpt lat="47.50488" lon="3.83016">
        <ele>282</ele>
        <time>2019-04-05T09:36:58Z</time>
      </trkpt>
      <trkpt lat="47.50484" lon="3.83021">
        <ele>282</ele>
        <time>2019-04-05T09:37:02Z</time>
      </trkpt>
      <trkpt lat="47.50481" lon="3.83025">
        <ele>282</ele>
        <time>2019-04-05T09:37:06Z</time>
      </trkpt>
      <trkpt lat="47.5048" lon="3.83028">
        <ele>282</ele>
        <time>2019-04-05T09:37:08Z</time>
      </trkpt>
      <trkpt lat="47.50475" lon="3.83033">
        <ele>282</ele>
        <time>2019-04-05T09:37:12Z</time>
      </trkpt>
      <trkpt lat="47.5047" lon="3.83036">
        <ele>282</ele>
        <time>2019-04-05T09:37:15Z</time>
      </trkpt>
      <trkpt lat="47.50465" lon="3.83041">
        <ele>284</ele>
        <time>2019-04-05T09:37:21Z</time>
      </trkpt>
      <trkpt lat="47.50463" lon="3.83044">
        <ele>285</ele>
        <time>2019-04-05T09:37:25Z</time>
      </trkpt>
      <trkpt lat="47.5046" lon="3.83046">
        <ele>286</ele>
        <time>2019-04-05T09:37:28Z</time>
      </trkpt>
      <trkpt lat="47.50457" lon="3.83049">
        <ele>287</ele>
        <time>2019-04-05T09:37:32Z</time>
      </trkpt>
      <trkpt lat="47.50455" lon="3.83051">
        <ele>286</ele>
        <time>2019-04-05T09:37:36Z</time>
      </trkpt>
      <trkpt lat="47.5045" lon="3.83054">
        <ele>287</ele>
        <time>2019-04-05T09:37:41Z</time>
      </trkpt>
      <trkpt lat="47.50447" lon="3.83059">
        <ele>289</ele>
        <time>2019-04-05T09:37:49Z</time>
      </trkpt>
      <trkpt lat="47.50445" lon="3.83065">
        <ele>290</ele>
        <time>2019-04-05T09:37:55Z</time>
      </trkpt>
      <trkpt lat="47.50441" lon="3.8307">
        <ele>291</ele>
        <time>2019-04-05T09:38:00Z</time>
      </trkpt>
      <trkpt lat="47.50439" lon="3.83073">
        <ele>291</ele>
        <time>2019-04-05T09:38:03Z</time>
      </trkpt>
      <trkpt lat="47.50436" lon="3.8308">
        <ele>291</ele>
        <time>2019-04-05T09:38:09Z</time>
      </trkpt>
      <trkpt lat="47.50432" lon="3.83084">
        <ele>292</ele>
        <time>2019-04-05T09:38:14Z</time>
      </trkpt>
      <trkpt lat="47.50431" lon="3.83091">
        <ele>292</ele>
        <time>2019-04-05T09:38:19Z</time>
      </trkpt>
      <trkpt lat="47.50428" lon="3.83096">
        <ele>291</ele>
        <time>2019-04-05T09:38:24Z</time>
      </trkpt>
      <trkpt lat="47.50422" lon="3.83101">
        <ele>293</ele>
        <time>2019-04-05T09:38:29Z</time>
      </trkpt>
      <trkpt lat="47.5042" lon="3.83108">
        <ele>293</ele>
        <time>2019-04-05T09:38:34Z</time>
      </trkpt>
      <trkpt lat="47.50417" lon="3.83115">
        <ele>292</ele>
        <time>2019-04-05T09:38:40Z</time>
      </trkpt>
      <trkpt lat="47.50416" lon="3.83122">
        <ele>291</ele>
        <time>2019-04-05T09:38:45Z</time>
      </trkpt>
      <trkpt lat="47.50415" lon="3.83126">
        <ele>291</ele>
        <time>2019-04-05T09:38:46Z</time>
      </trkpt>
      <trkpt lat="47.50411" lon="3.8313">
        <ele>292</ele>
        <time>2019-04-05T09:38:50Z</time>
      </trkpt>
      <trkpt lat="47.50407" lon="3.83137">
        <ele>293</ele>
        <time>2019-04-05T09:38:56Z</time>
      </trkpt>
      <trkpt lat="47.50405" lon="3.83142">
        <ele>292</ele>
        <time>2019-04-05T09:39:00Z</time>
      </trkpt>
      <trkpt lat="47.504" lon="3.83146">
        <ele>295</ele>
        <time>2019-04-05T09:39:05Z</time>
      </trkpt>
      <trkpt lat="47.50397" lon="3.8315">
        <ele>298</ele>
        <time>2019-04-05T09:39:12Z</time>
      </trkpt>
      <trkpt lat="47.50395" lon="3.83152">
        <ele>298</ele>
        <time>2019-04-05T09:39:15Z</time>
      </trkpt>
      <trkpt lat="47.5039" lon="3.83157">
        <ele>295</ele>
        <time>2019-04-05T09:39:20Z</time>
      </trkpt>
      <trkpt lat="47.50386" lon="3.83165">
        <ele>291</ele>
        <time>2019-04-05T09:39:25Z</time>
      </trkpt>
      <trkpt lat="47.50385" lon="3.83168">
        <ele>291</ele>
        <time>2019-04-05T09:39:28Z</time>
      </trkpt>
      <trkpt lat="47.50382" lon="3.83175">
        <ele>288</ele>
        <time>2019-04-05T09:39:32Z</time>
      </trkpt>
      <trkpt lat="47.5038" lon="3.83182">
        <ele>287</ele>
        <time>2019-04-05T09:39:37Z</time>
      </trkpt>
      <trkpt lat="47.50377" lon="3.83187">
        <ele>286</ele>
        <time>2019-04-05T09:39:40Z</time>
      </trkpt>
      <trkpt lat="47.50373" lon="3.83197">
        <ele>285</ele>
        <time>2019-04-05T09:39:48Z</time>
      </trkpt>
      <trkpt lat="47.5037" lon="3.83201">
        <ele>288</ele>
        <time>2019-04-05T09:39:52Z</time>
      </trkpt>
      <trkpt lat="47.50366" lon="3.83207">
        <ele>288</ele>
        <time>2019-04-05T09:39:56Z</time>
      </trkpt>
      <trkpt lat="47.50362" lon="3.8321">
        <ele>289</ele>
        <time>2019-04-05T09:40:02Z</time>
      </trkpt>
      <trkpt lat="47.50359" lon="3.83216">
        <ele>290</ele>
        <time>2019-04-05T09:40:06Z</time>
      </trkpt>
      <trkpt lat="47.50356" lon="3.83222">
        <ele>290</ele>
        <time>2019-04-05T09:40:10Z</time>
      </trkpt>
      <trkpt lat="47.50352" lon="3.83227">
        <ele>291</ele>
        <time>2019-04-05T09:40:14Z</time>
      </trkpt>
      <trkpt lat="47.5035" lon="3.8323">
        <ele>291</ele>
        <time>2019-04-05T09:40:17Z</time>
      </trkpt>
      <trkpt lat="47.50345" lon="3.83238">
        <ele>291</ele>
        <time>2019-04-05T09:40:22Z</time>
      </trkpt>
      <trkpt lat="47.5034" lon="3.83241">
        <ele>291</ele>
        <time>2019-04-05T09:40:26Z</time>
      </trkpt>
      <trkpt lat="47.50336" lon="3.83246">
        <ele>291</ele>
        <time>2019-04-05T09:40:31Z</time>
      </trkpt>
      <trkpt lat="47.50333" lon="3.83249">
        <ele>292</ele>
        <time>2019-04-05T09:40:33Z</time>
      </trkpt>
      <trkpt lat="47.50329" lon="3.83255">
        <ele>292</ele>
        <time>2019-04-05T09:40:38Z</time>
      </trkpt>
      <trkpt lat="47.50326" lon="3.83261">
        <ele>292</ele>
        <time>2019-04-05T09:40:42Z</time>
      </trkpt>
      <trkpt lat="47.5032" lon="3.8327">
        <ele>291</ele>
        <time>2019-04-05T09:40:46Z</time>
      </trkpt>
      <trkpt lat="47.50316" lon="3.83277">
        <ele>289</ele>
        <time>2019-04-05T09:40:50Z</time>
      </trkpt>
      <trkpt lat="47.50315" lon="3.83281">
        <ele>289</ele>
        <time>2019-04-05T09:40:52Z</time>
      </trkpt>
      <trkpt lat="47.50312" lon="3.8329">
        <ele>290</ele>
        <time>2019-04-05T09:41:00Z</time>
      </trkpt>
      <trkpt lat="47.50311" lon="3.83295">
        <ele>290</ele>
        <time>2019-04-05T09:41:02Z</time>
      </trkpt>
      <trkpt lat="47.50309" lon="3.83301">
        <ele>290</ele>
        <time>2019-04-05T09:41:05Z</time>
      </trkpt>
      <trkpt lat="47.50308" lon="3.83307">
        <ele>290</ele>
        <time>2019-04-05T09:41:08Z</time>
      </trkpt>
      <trkpt lat="47.50307" lon="3.83311">
        <ele>290</ele>
        <time>2019-04-05T09:41:10Z</time>
      </trkpt>
      <trkpt lat="47.50303" lon="3.83319">
        <ele>290</ele>
        <time>2019-04-05T09:41:17Z</time>
      </trkpt>
      <trkpt lat="47.503" lon="3.83324">
        <ele>290</ele>
        <time>2019-04-05T09:41:21Z</time>
      </trkpt>
      <trkpt lat="47.50298" lon="3.83329">
        <ele>292</ele>
        <time>2019-04-05T09:41:26Z</time>
      </trkpt>
      <trkpt lat="47.50296" lon="3.83334">
        <ele>293</ele>
        <time>2019-04-05T09:41:31Z</time>
      </trkpt>
      <trkpt lat="47.50294" lon="3.83338">
        <ele>293</ele>
        <time>2019-04-05T09:41:35Z</time>
      </trkpt>
      <trkpt lat="47.50293" lon="3.83341">
        <ele>293</ele>
        <time>2019-04-05T09:41:36Z</time>
      </trkpt>
      <trkpt lat="47.50289" lon="3.83351">
        <ele>290</ele>
        <time>2019-04-05T09:41:43Z</time>
      </trkpt>
      <trkpt lat="47.50286" lon="3.83357">
        <ele>290</ele>
        <time>2019-04-05T09:41:46Z</time>
      </trkpt>
      <trkpt lat="47.50284" lon="3.8336">
        <ele>291</ele>
        <time>2019-04-05T09:41:48Z</time>
      </trkpt>
      <trkpt lat="47.50281" lon="3.83365">
        <ele>291</ele>
        <time>2019-04-05T09:41:51Z</time>
      </trkpt>
      <trkpt lat="47.50276" lon="3.83372">
        <ele>292</ele>
        <time>2019-04-05T09:41:57Z</time>
      </trkpt>
      <trkpt lat="47.50274" lon="3.8338">
        <ele>293</ele>
        <time>2019-04-05T09:42:03Z</time>
      </trkpt>
      <trkpt lat="47.50271" lon="3.83387">
        <ele>293</ele>
        <time>2019-04-05T09:42:08Z</time>
      </trkpt>
      <trkpt lat="47.5027" lon="3.83394">
        <ele>292</ele>
        <time>2019-04-05T09:42:12Z</time>
      </trkpt>
      <trkpt lat="47.50266" lon="3.83399">
        <ele>292</ele>
        <time>2019-04-05T09:42:17Z</time>
      </trkpt>
      <trkpt lat="47.50262" lon="3.83403">
        <ele>292</ele>
        <time>2019-04-05T09:42:21Z</time>
      </trkpt>
      <trkpt lat="47.50259" lon="3.83408">
        <ele>291</ele>
        <time>2019-04-05T09:42:24Z</time>
      </trkpt>
      <trkpt lat="47.50255" lon="3.83412">
        <ele>289</ele>
        <time>2019-04-05T09:42:28Z</time>
      </trkpt>
      <trkpt lat="47.50252" lon="3.8342">
        <ele>291</ele>
        <time>2019-04-05T09:42:34Z</time>
      </trkpt>
      <trkpt lat="47.50245" lon="3.83426">
        <ele>292</ele>
        <time>2019-04-05T09:42:39Z</time>
      </trkpt>
      <trkpt lat="47.50241" lon="3.8343">
        <ele>293</ele>
        <time>2019-04-05T09:42:44Z</time>
      </trkpt>
      <trkpt lat="47.50239" lon="3.83432">
        <ele>293</ele>
        <time>2019-04-05T09:42:46Z</time>
      </trkpt>
      <trkpt lat="47.50235" lon="3.83437">
        <ele>291</ele>
        <time>2019-04-05T09:42:51Z</time>
      </trkpt>
      <trkpt lat="47.50231" lon="3.83441">
        <ele>288</ele>
        <time>2019-04-05T09:42:55Z</time>
      </trkpt>
      <trkpt lat="47.50228" lon="3.83445">
        <ele>287</ele>
        <time>2019-04-05T09:42:58Z</time>
      </trkpt>
      <trkpt lat="47.50226" lon="3.83448">
        <ele>287</ele>
        <time>2019-04-05T09:43:00Z</time>
      </trkpt>
      <trkpt lat="47.50221" lon="3.83456">
        <ele>287</ele>
        <time>2019-04-05T09:43:07Z</time>
      </trkpt>
      <trkpt lat="47.50216" lon="3.83459">
        <ele>288</ele>
        <time>2019-04-05T09:43:12Z</time>
      </trkpt>
      <trkpt lat="47.50214" lon="3.83461">
        <ele>288</ele>
        <time>2019-04-05T09:43:14Z</time>
      </trkpt>
      <trkpt lat="47.5021" lon="3.83466">
        <ele>289</ele>
        <time>2019-04-05T09:43:18Z</time>
      </trkpt>
      <trkpt lat="47.50208" lon="3.83472">
        <ele>289</ele>
        <time>2019-04-05T09:43:23Z</time>
      </trkpt>
      <trkpt lat="47.50204" lon="3.83477">
        <ele>292</ele>
        <time>2019-04-05T09:43:31Z</time>
      </trkpt>
      <trkpt lat="47.502" lon="3.83481">
        <ele>292</ele>
        <time>2019-04-05T09:43:35Z</time>
      </trkpt>
      <trkpt lat="47.50195" lon="3.83485">
        <ele>291</ele>
        <time>2019-04-05T09:43:39Z</time>
      </trkpt>
      <trkpt lat="47.50193" lon="3.83487">
        <ele>292</ele>
        <time>2019-04-05T09:43:41Z</time>
      </trkpt>
      <trkpt lat="47.50188" lon="3.8349">
        <ele>294</ele>
        <time>2019-04-05T09:43:46Z</time>
      </trkpt>
      <trkpt lat="47.50183" lon="3.83493">
        <ele>294</ele>
        <time>2019-04-05T09:43:49Z</time>
      </trkpt>
      <trkpt lat="47.5018" lon="3.83494">
        <ele>294</ele>
        <time>2019-04-05T09:43:51Z</time>
      </trkpt>
      <trkpt lat="47.50175" lon="3.83494">
        <ele>293</ele>
        <time>2019-04-05T09:43:54Z</time>
      </trkpt>
      <trkpt lat="47.50171" lon="3.83499">
        <ele>293</ele>
        <time>2019-04-05T09:43:57Z</time>
      </trkpt>
      <trkpt lat="47.50167" lon="3.83506">
        <ele>292</ele>
        <time>2019-04-05T09:44:01Z</time>
      </trkpt>
      <trkpt lat="47.50162" lon="3.8351">
        <ele>291</ele>
        <time>2019-04-05T09:44:05Z</time>
      </trkpt>
      <trkpt lat="47.50157" lon="3.83521">
        <ele>291</ele>
        <time>2019-04-05T09:44:11Z</time>
      </trkpt>
      <trkpt lat="47.50156" lon="3.83524">
        <ele>290</ele>
        <time>2019-04-05T09:44:13Z</time>
      </trkpt>
      <trkpt lat="47.50155" lon="3.83527">
        <ele>289</ele>
        <time>2019-04-05T09:44:15Z</time>
      </trkpt>
      <trkpt lat="47.50152" lon="3.83535">
        <ele>288</ele>
        <time>2019-04-05T09:44:20Z</time>
      </trkpt>
      <trkpt lat="47.50151" lon="3.83544">
        <ele>286</ele>
        <time>2019-04-05T09:44:27Z</time>
      </trkpt>
      <trkpt lat="47.50149" lon="3.83551">
        <ele>286</ele>
        <time>2019-04-05T09:44:31Z</time>
      </trkpt>
      <trkpt lat="47.50148" lon="3.83556">
        <ele>286</ele>
        <time>2019-04-05T09:44:34Z</time>
      </trkpt>
      <trkpt lat="47.50145" lon="3.83564">
        <ele>287</ele>
        <time>2019-04-05T09:44:39Z</time>
      </trkpt>
      <trkpt lat="47.50142" lon="3.83569">
        <ele>286</ele>
        <time>2019-04-05T09:44:43Z</time>
      </trkpt>
      <trkpt lat="47.50139" lon="3.83571">
        <ele>286</ele>
        <time>2019-04-05T09:44:45Z</time>
      </trkpt>
      <trkpt lat="47.50136" lon="3.83576">
        <ele>284</ele>
        <time>2019-04-05T09:44:50Z</time>
      </trkpt>
      <trkpt lat="47.50135" lon="3.8358">
        <ele>284</ele>
        <time>2019-04-05T09:44:53Z</time>
      </trkpt>
      <trkpt lat="47.50133" lon="3.83582">
        <ele>284</ele>
        <time>2019-04-05T09:44:55Z</time>
      </trkpt>
      <trkpt lat="47.50131" lon="3.83586">
        <ele>283</ele>
        <time>2019-04-05T09:44:57Z</time>
      </trkpt>
      <trkpt lat="47.50129" lon="3.83592">
        <ele>282</ele>
        <time>2019-04-05T09:45:01Z</time>
      </trkpt>
      <trkpt lat="47.50126" lon="3.83597">
        <ele>282</ele>
        <time>2019-04-05T09:45:04Z</time>
      </trkpt>
      <trkpt lat="47.50122" lon="3.83603">
        <ele>282</ele>
        <time>2019-04-05T09:45:10Z</time>
      </trkpt>
      <trkpt lat="47.50119" lon="3.83605">
        <ele>281</ele>
        <time>2019-04-05T09:45:13Z</time>
      </trkpt>
      <trkpt lat="47.50115" lon="3.83609">
        <ele>280</ele>
        <time>2019-04-05T09:45:17Z</time>
      </trkpt>
      <trkpt lat="47.50112" lon="3.8361">
        <ele>279</ele>
        <time>2019-04-05T09:45:19Z</time>
      </trkpt>
      <trkpt lat="47.50108" lon="3.83615">
        <ele>278</ele>
        <time>2019-04-05T09:45:23Z</time>
      </trkpt>
      <trkpt lat="47.50106" lon="3.83618">
        <ele>279</ele>
        <time>2019-04-05T09:45:25Z</time>
      </trkpt>
      <trkpt lat="47.50104" lon="3.8362">
        <ele>278</ele>
        <time>2019-04-05T09:45:27Z</time>
      </trkpt>
      <trkpt lat="47.50103" lon="3.83623">
        <ele>277</ele>
        <time>2019-04-05T09:45:29Z</time>
      </trkpt>
      <trkpt lat="47.50099" lon="3.83627">
        <ele>277</ele>
        <time>2019-04-05T09:45:33Z</time>
      </trkpt>
      <trkpt lat="47.50097" lon="3.8363">
        <ele>277</ele>
        <time>2019-04-05T09:45:35Z</time>
      </trkpt>
      <trkpt lat="47.50094" lon="3.83637">
        <ele>275</ele>
        <time>2019-04-05T09:45:40Z</time>
      </trkpt>
      <trkpt lat="47.50091" lon="3.83641">
        <ele>276</ele>
        <time>2019-04-05T09:45:43Z</time>
      </trkpt>
      <trkpt lat="47.50089" lon="3.83647">
        <ele>274</ele>
        <time>2019-04-05T09:45:47Z</time>
      </trkpt>
      <trkpt lat="47.50085" lon="3.83655">
        <ele>274</ele>
        <time>2019-04-05T09:45:53Z</time>
      </trkpt>
      <trkpt lat="47.5008" lon="3.83658">
        <ele>274</ele>
        <time>2019-04-05T09:45:58Z</time>
      </trkpt>
      <trkpt lat="47.50076" lon="3.83664">
        <ele>274</ele>
        <time>2019-04-05T09:46:02Z</time>
      </trkpt>
      <trkpt lat="47.50074" lon="3.83667">
        <ele>274</ele>
        <time>2019-04-05T09:46:05Z</time>
      </trkpt>
      <trkpt lat="47.50068" lon="3.83668">
        <ele>273</ele>
        <time>2019-04-05T09:46:12Z</time>
      </trkpt>
      <trkpt lat="47.50063" lon="3.83669">
        <ele>273</ele>
        <time>2019-04-05T09:46:17Z</time>
      </trkpt>
      <trkpt lat="47.50059" lon="3.8367">
        <ele>273</ele>
        <time>2019-04-05T09:46:20Z</time>
      </trkpt>
      <trkpt lat="47.50056" lon="3.83671">
        <ele>273</ele>
        <time>2019-04-05T09:46:22Z</time>
      </trkpt>
      <trkpt lat="47.50054" lon="3.83672">
        <ele>273</ele>
        <time>2019-04-05T09:46:24Z</time>
      </trkpt>
      <trkpt lat="47.5005" lon="3.83673">
        <ele>272</ele>
        <time>2019-04-05T09:46:27Z</time>
      </trkpt>
      <trkpt lat="47.50048" lon="3.83674">
        <ele>272</ele>
        <time>2019-04-05T09:46:29Z</time>
      </trkpt>
      <trkpt lat="47.50042" lon="3.83675">
        <ele>272</ele>
        <time>2019-04-05T09:46:34Z</time>
      </trkpt>
      <trkpt lat="47.5004" lon="3.83675">
        <ele>272</ele>
        <time>2019-04-05T09:46:36Z</time>
      </trkpt>
      <trkpt lat="47.50037" lon="3.83674">
        <ele>270</ele>
        <time>2019-04-05T09:46:39Z</time>
      </trkpt>
      <trkpt lat="47.50033" lon="3.83674">
        <ele>271</ele>
        <time>2019-04-05T09:46:42Z</time>
      </trkpt>
      <trkpt lat="47.50028" lon="3.83675">
        <ele>272</ele>
        <time>2019-04-05T09:46:47Z</time>
      </trkpt>
      <trkpt lat="47.50025" lon="3.83676">
        <ele>272</ele>
        <time>2019-04-05T09:46:49Z</time>
      </trkpt>
      <trkpt lat="47.5002" lon="3.83679">
        <ele>272</ele>
        <time>2019-04-05T09:46:53Z</time>
      </trkpt>
      <trkpt lat="47.50015" lon="3.8368">
        <ele>273</ele>
        <time>2019-04-05T09:46:57Z</time>
      </trkpt>
      <trkpt lat="47.50009" lon="3.83682">
        <ele>272</ele>
        <time>2019-04-05T09:47:02Z</time>
      </trkpt>
      <trkpt lat="47.50001" lon="3.83686">
        <ele>274</ele>
        <time>2019-04-05T09:47:09Z</time>
      </trkpt>
      <trkpt lat="47.49996" lon="3.83688">
        <ele>275</ele>
        <time>2019-04-05T09:47:13Z</time>
      </trkpt>
      <trkpt lat="47.49991" lon="3.83692">
        <ele>275</ele>
        <time>2019-04-05T09:47:18Z</time>
      </trkpt>
      <trkpt lat="47.49986" lon="3.83693">
        <ele>275</ele>
        <time>2019-04-05T09:47:23Z</time>
      </trkpt>
      <trkpt lat="47.49983" lon="3.83695">
        <ele>276</ele>
        <time>2019-04-05T09:47:26Z</time>
      </trkpt>
      <trkpt lat="47.4998" lon="3.83696">
        <ele>276</ele>
        <time>2019-04-05T09:47:30Z</time>
      </trkpt>
      <trkpt lat="47.49977" lon="3.83697">
        <ele>274</ele>
        <time>2019-04-05T09:47:32Z</time>
      </trkpt>
      <trkpt lat="47.49975" lon="3.83698">
        <ele>274</ele>
        <time>2019-04-05T09:47:34Z</time>
      </trkpt>
      <trkpt lat="47.4997" lon="3.83698">
        <ele>275</ele>
        <time>2019-04-05T09:47:37Z</time>
      </trkpt>
      <trkpt lat="47.49965" lon="3.837">
        <ele>276</ele>
        <time>2019-04-05T09:47:41Z</time>
      </trkpt>
      <trkpt lat="47.4996" lon="3.83701">
        <ele>275</ele>
        <time>2019-04-05T09:47:45Z</time>
      </trkpt>
      <trkpt lat="47.49956" lon="3.83704">
        <ele>274</ele>
        <time>2019-04-05T09:47:49Z</time>
      </trkpt>
      <trkpt lat="47.49951" lon="3.83705">
        <ele>274</ele>
        <time>2019-04-05T09:47:54Z</time>
      </trkpt>
      <trkpt lat="47.49947" lon="3.83706">
        <ele>274</ele>
        <time>2019-04-05T09:47:56Z</time>
      </trkpt>
      <trkpt lat="47.49942" lon="3.83705">
        <ele>274</ele>
        <time>2019-04-05T09:48:01Z</time>
      </trkpt>
      <trkpt lat="47.49939" lon="3.83704">
        <ele>274</ele>
        <time>2019-04-05T09:48:03Z</time>
      </trkpt>
      <trkpt lat="47.49936" lon="3.83704">
        <ele>275</ele>
        <time>2019-04-05T09:48:05Z</time>
      </trkpt>
      <trkpt lat="47.49934" lon="3.83703">
        <ele>274</ele>
        <time>2019-04-05T09:48:08Z</time>
      </trkpt>
      <trkpt lat="47.4993" lon="3.83702">
        <ele>274</ele>
        <time>2019-04-05T09:48:12Z</time>
      </trkpt>
      <trkpt lat="47.49927" lon="3.837">
        <ele>274</ele>
        <time>2019-04-05T09:48:15Z</time>
      </trkpt>
      <trkpt lat="47.49923" lon="3.83699">
        <ele>273</ele>
        <time>2019-04-05T09:48:18Z</time>
      </trkpt>
      <trkpt lat="47.49921" lon="3.83699">
        <ele>272</ele>
        <time>2019-04-05T09:48:24Z</time>
      </trkpt>
      <trkpt lat="47.4992" lon="3.83698">
        <ele>271</ele>
        <time>2019-04-05T09:48:33Z</time>
      </trkpt>
      <trkpt lat="47.49916" lon="3.83697">
        <ele>273</ele>
        <time>2019-04-05T09:48:38Z</time>
      </trkpt>
      <trkpt lat="47.49911" lon="3.83697">
        <ele>273</ele>
        <time>2019-04-05T09:48:43Z</time>
      </trkpt>
      <trkpt lat="47.49908" lon="3.83697">
        <ele>273</ele>
        <time>2019-04-05T09:48:45Z</time>
      </trkpt>
      <trkpt lat="47.49906" lon="3.83697">
        <ele>273</ele>
        <time>2019-04-05T09:48:48Z</time>
      </trkpt>
      <trkpt lat="47.49901" lon="3.83699">
        <ele>274</ele>
        <time>2019-04-05T09:48:53Z</time>
      </trkpt>
      <trkpt lat="47.49896" lon="3.83702">
        <ele>273</ele>
        <time>2019-04-05T09:48:57Z</time>
      </trkpt>
      <trkpt lat="47.49891" lon="3.83705">
        <ele>272</ele>
        <time>2019-04-05T09:49:02Z</time>
      </trkpt>
      <trkpt lat="47.49886" lon="3.83708">
        <ele>271</ele>
        <time>2019-04-05T09:49:06Z</time>
      </trkpt>
      <trkpt lat="47.49881" lon="3.83711">
        <ele>271</ele>
        <time>2019-04-05T09:49:10Z</time>
      </trkpt>
      <trkpt lat="47.49875" lon="3.83716">
        <ele>270</ele>
        <time>2019-04-05T09:49:17Z</time>
      </trkpt>
      <trkpt lat="47.4987" lon="3.8372">
        <ele>269</ele>
        <time>2019-04-05T09:49:21Z</time>
      </trkpt>
      <trkpt lat="47.49868" lon="3.83722">
        <ele>269</ele>
        <time>2019-04-05T09:49:23Z</time>
      </trkpt>
      <trkpt lat="47.49866" lon="3.83723">
        <ele>268</ele>
        <time>2019-04-05T09:49:25Z</time>
      </trkpt>
      <trkpt lat="47.4986" lon="3.83727">
        <ele>266</ele>
        <time>2019-04-05T09:49:30Z</time>
      </trkpt>
      <trkpt lat="47.49855" lon="3.83732">
        <ele>266</ele>
        <time>2019-04-05T09:49:34Z</time>
      </trkpt>
      <trkpt lat="47.49854" lon="3.83734">
        <ele>266</ele>
        <time>2019-04-05T09:49:36Z</time>
      </trkpt>
      <trkpt lat="47.49847" lon="3.83737">
        <ele>265</ele>
        <time>2019-04-05T09:49:41Z</time>
      </trkpt>
      <trkpt lat="47.49842" lon="3.83741">
        <ele>265</ele>
        <time>2019-04-05T09:49:45Z</time>
      </trkpt>
      <trkpt lat="47.49837" lon="3.83743">
        <ele>265</ele>
        <time>2019-04-05T09:49:48Z</time>
      </trkpt>
      <trkpt lat="47.49832" lon="3.83745">
        <ele>265</ele>
        <time>2019-04-05T09:49:52Z</time>
      </trkpt>
      <trkpt lat="47.49829" lon="3.83746">
        <ele>265</ele>
        <time>2019-04-05T09:49:55Z</time>
      </trkpt>
      <trkpt lat="47.49824" lon="3.83749">
        <ele>266</ele>
        <time>2019-04-05T09:50:00Z</time>
      </trkpt>
      <trkpt lat="47.49818" lon="3.8375">
        <ele>267</ele>
        <time>2019-04-05T09:50:04Z</time>
      </trkpt>
      <trkpt lat="47.49815" lon="3.83751">
        <ele>266</ele>
        <time>2019-04-05T09:50:06Z</time>
      </trkpt>
      <trkpt lat="47.4981" lon="3.83753">
        <ele>267</ele>
        <time>2019-04-05T09:50:10Z</time>
      </trkpt>
      <trkpt lat="47.49808" lon="3.83755">
        <ele>266</ele>
        <time>2019-04-05T09:50:12Z</time>
      </trkpt>
      <trkpt lat="47.49805" lon="3.83757">
        <ele>267</ele>
        <time>2019-04-05T09:50:15Z</time>
      </trkpt>
      <trkpt lat="47.49801" lon="3.83758">
        <ele>266</ele>
        <time>2019-04-05T09:50:18Z</time>
      </trkpt>
      <trkpt lat="47.49796" lon="3.8376">
        <ele>266</ele>
        <time>2019-04-05T09:50:22Z</time>
      </trkpt>
      <trkpt lat="47.49794" lon="3.83761">
        <ele>266</ele>
        <time>2019-04-05T09:50:24Z</time>
      </trkpt>
      <trkpt lat="47.4979" lon="3.83765">
        <ele>264</ele>
        <time>2019-04-05T09:50:28Z</time>
      </trkpt>
      <trkpt lat="47.49787" lon="3.83767">
        <ele>264</ele>
        <time>2019-04-05T09:50:31Z</time>
      </trkpt>
      <trkpt lat="47.49785" lon="3.8377">
        <ele>264</ele>
        <time>2019-04-05T09:50:34Z</time>
      </trkpt>
      <trkpt lat="47.49782" lon="3.83777">
        <ele>262</ele>
        <time>2019-04-05T09:50:40Z</time>
      </trkpt>
      <trkpt lat="47.49781" lon="3.83784">
        <ele>260</ele>
        <time>2019-04-05T09:50:45Z</time>
      </trkpt>
      <trkpt lat="47.49781" lon="3.83788">
        <ele>260</ele>
        <time>2019-04-05T09:50:47Z</time>
      </trkpt>
      <trkpt lat="47.4978" lon="3.83793">
        <ele>260</ele>
        <time>2019-04-05T09:50:50Z</time>
      </trkpt>
      <trkpt lat="47.4978" lon="3.838">
        <ele>259</ele>
        <time>2019-04-05T09:50:55Z</time>
      </trkpt>
      <trkpt lat="47.49783" lon="3.83807">
        <ele>259</ele>
        <time>2019-04-05T09:51:01Z</time>
      </trkpt>
      <trkpt lat="47.49784" lon="3.83811">
        <ele>259</ele>
        <time>2019-04-05T09:51:04Z</time>
      </trkpt>
      <trkpt lat="47.49785" lon="3.83816">
        <ele>258</ele>
        <time>2019-04-05T09:51:08Z</time>
      </trkpt>
      <trkpt lat="47.49787" lon="3.83819">
        <ele>258</ele>
        <time>2019-04-05T09:51:11Z</time>
      </trkpt>
      <trkpt lat="47.49788" lon="3.83827">
        <ele>257</ele>
        <time>2019-04-05T09:51:16Z</time>
      </trkpt>
      <trkpt lat="47.49789" lon="3.8383">
        <ele>257</ele>
        <time>2019-04-05T09:51:18Z</time>
      </trkpt>
      <trkpt lat="47.4979" lon="3.83834">
        <ele>256</ele>
        <time>2019-04-05T09:51:21Z</time>
      </trkpt>
      <trkpt lat="47.49791" lon="3.83838">
        <ele>256</ele>
        <time>2019-04-05T09:51:24Z</time>
      </trkpt>
      <trkpt lat="47.49792" lon="3.83843">
        <ele>256</ele>
        <time>2019-04-05T09:51:29Z</time>
      </trkpt>
      <trkpt lat="47.49793" lon="3.83847">
        <ele>255</ele>
        <time>2019-04-05T09:51:32Z</time>
      </trkpt>
      <trkpt lat="47.49794" lon="3.83854">
        <ele>254</ele>
        <time>2019-04-05T09:51:38Z</time>
      </trkpt>
      <trkpt lat="47.49795" lon="3.83862">
        <ele>253</ele>
        <time>2019-04-05T09:51:44Z</time>
      </trkpt>
      <trkpt lat="47.49797" lon="3.8387">
        <ele>252</ele>
        <time>2019-04-05T09:51:48Z</time>
      </trkpt>
      <trkpt lat="47.49797" lon="3.83877">
        <ele>250</ele>
        <time>2019-04-05T09:51:53Z</time>
      </trkpt>
      <trkpt lat="47.49798" lon="3.83881">
        <ele>248</ele>
        <time>2019-04-05T09:51:55Z</time>
      </trkpt>
      <trkpt lat="47.49798" lon="3.83888">
        <ele>248</ele>
        <time>2019-04-05T09:52:00Z</time>
      </trkpt>
      <trkpt lat="47.49797" lon="3.83894">
        <ele>247</ele>
        <time>2019-04-05T09:52:06Z</time>
      </trkpt>
      <trkpt lat="47.49796" lon="3.83901">
        <ele>246</ele>
        <time>2019-04-05T09:52:11Z</time>
      </trkpt>
      <trkpt lat="47.49798" lon="3.83909">
        <ele>245</ele>
        <time>2019-04-05T09:52:17Z</time>
      </trkpt>
      <trkpt lat="47.49799" lon="3.83913">
        <ele>246</ele>
        <time>2019-04-05T09:52:20Z</time>
      </trkpt>
      <trkpt lat="47.49799" lon="3.83917">
        <ele>246</ele>
        <time>2019-04-05T09:52:22Z</time>
      </trkpt>
      <trkpt lat="47.49801" lon="3.83924">
        <ele>246</ele>
        <time>2019-04-05T09:52:27Z</time>
      </trkpt>
      <trkpt lat="47.49801" lon="3.83928">
        <ele>246</ele>
        <time>2019-04-05T09:52:30Z</time>
      </trkpt>
      <trkpt lat="47.49802" lon="3.83932">
        <ele>246</ele>
        <time>2019-04-05T09:52:32Z</time>
      </trkpt>
      <trkpt lat="47.49805" lon="3.83938">
        <ele>245</ele>
        <time>2019-04-05T09:52:36Z</time>
      </trkpt>
      <trkpt lat="47.49806" lon="3.83943">
        <ele>244</ele>
        <time>2019-04-05T09:52:40Z</time>
      </trkpt>
      <trkpt lat="47.49808" lon="3.83951">
        <ele>246</ele>
        <time>2019-04-05T09:52:45Z</time>
      </trkpt>
      <trkpt lat="47.49811" lon="3.83957">
        <ele>246</ele>
        <time>2019-04-05T09:52:49Z</time>
      </trkpt>
      <trkpt lat="47.49814" lon="3.83963">
        <ele>246</ele>
        <time>2019-04-05T09:52:54Z</time>
      </trkpt>
      <trkpt lat="47.49817" lon="3.83969">
        <ele>243</ele>
        <time>2019-04-05T09:52:59Z</time>
      </trkpt>
      <trkpt lat="47.49818" lon="3.83972">
        <ele>242</ele>
        <time>2019-04-05T09:53:01Z</time>
      </trkpt>
      <trkpt lat="47.4982" lon="3.8398">
        <ele>239</ele>
        <time>2019-04-05T09:53:06Z</time>
      </trkpt>
      <trkpt lat="47.49822" lon="3.83985">
        <ele>239</ele>
        <time>2019-04-05T09:53:10Z</time>
      </trkpt>
      <trkpt lat="47.49823" lon="3.8399">
        <ele>239</ele>
        <time>2019-04-05T09:53:13Z</time>
      </trkpt>
      <trkpt lat="47.49825" lon="3.83993">
        <ele>238</ele>
        <time>2019-04-05T09:53:16Z</time>
      </trkpt>
      <trkpt lat="47.49826" lon="3.84001">
        <ele>237</ele>
        <time>2019-04-05T09:53:21Z</time>
      </trkpt>
      <trkpt lat="47.49826" lon="3.84009">
        <ele>235</ele>
        <time>2019-04-05T09:53:28Z</time>
      </trkpt>
      <trkpt lat="47.49827" lon="3.84017">
        <ele>235</ele>
        <time>2019-04-05T09:53:33Z</time>
      </trkpt>
      <trkpt lat="47.49827" lon="3.84023">
        <ele>235</ele>
        <time>2019-04-05T09:53:36Z</time>
      </trkpt>
      <trkpt lat="47.49829" lon="3.84032">
        <ele>234</ele>
        <time>2019-04-05T09:53:41Z</time>
      </trkpt>
      <trkpt lat="47.4983" lon="3.84039">
        <ele>232</ele>
        <time>2019-04-05T09:53:44Z</time>
      </trkpt>
      <trkpt lat="47.49831" lon="3.84048">
        <ele>234</ele>
        <time>2019-04-05T09:53:49Z</time>
      </trkpt>
      <trkpt lat="47.49831" lon="3.84052">
        <ele>234</ele>
        <time>2019-04-05T09:53:52Z</time>
      </trkpt>
      <trkpt lat="47.49832" lon="3.84059">
        <ele>234</ele>
        <time>2019-04-05T09:53:57Z</time>
      </trkpt>
      <trkpt lat="47.49832" lon="3.84067">
        <ele>236</ele>
        <time>2019-04-05T09:54:02Z</time>
      </trkpt>
      <trkpt lat="47.49835" lon="3.84072">
        <ele>234</ele>
        <time>2019-04-05T09:54:05Z</time>
      </trkpt>
      <trkpt lat="47.49834" lon="3.84079">
        <ele>233</ele>
        <time>2019-04-05T09:54:14Z</time>
      </trkpt>
      <trkpt lat="47.49835" lon="3.84087">
        <ele>229</ele>
        <time>2019-04-05T09:54:24Z</time>
      </trkpt>
      <trkpt lat="47.49836" lon="3.84091">
        <ele>227</ele>
        <time>2019-04-05T09:54:26Z</time>
      </trkpt>
      <trkpt lat="47.49833" lon="3.84097">
        <ele>229</ele>
        <time>2019-04-05T09:54:38Z</time>
      </trkpt>
      <trkpt lat="47.49834" lon="3.84105">
        <ele>230</ele>
        <time>2019-04-05T09:54:42Z</time>
      </trkpt>
      <trkpt lat="47.49834" lon="3.84108">
        <ele>229</ele>
        <time>2019-04-05T09:54:44Z</time>
      </trkpt>
      <trkpt lat="47.49835" lon="3.84113">
        <ele>230</ele>
        <time>2019-04-05T09:54:47Z</time>
      </trkpt>
      <trkpt lat="47.49836" lon="3.8412">
        <ele>230</ele>
        <time>2019-04-05T09:54:52Z</time>
      </trkpt>
      <trkpt lat="47.49835" lon="3.84128">
        <ele>230</ele>
        <time>2019-04-05T09:54:57Z</time>
      </trkpt>
      <trkpt lat="47.49835" lon="3.84133">
        <ele>230</ele>
        <time>2019-04-05T09:55:00Z</time>
      </trkpt>
      <trkpt lat="47.49834" lon="3.84141">
        <ele>229</ele>
        <time>2019-04-05T09:55:05Z</time>
      </trkpt>
      <trkpt lat="47.49833" lon="3.84149">
        <ele>230</ele>
        <time>2019-04-05T09:55:11Z</time>
      </trkpt>
      <trkpt lat="47.49832" lon="3.84157">
        <ele>228</ele>
        <time>2019-04-05T09:55:16Z</time>
      </trkpt>
      <trkpt lat="47.49832" lon="3.8416">
        <ele>228</ele>
        <time>2019-04-05T09:55:18Z</time>
      </trkpt>
      <trkpt lat="47.49831" lon="3.84168">
        <ele>228</ele>
        <time>2019-04-05T09:55:22Z</time>
      </trkpt>
      <trkpt lat="47.49831" lon="3.84176">
        <ele>227</ele>
        <time>2019-04-05T09:55:27Z</time>
      </trkpt>
      <trkpt lat="47.4983" lon="3.84181">
        <ele>226</ele>
        <time>2019-04-05T09:55:30Z</time>
      </trkpt>
      <trkpt lat="47.49829" lon="3.84186">
        <ele>225</ele>
        <time>2019-04-05T09:55:32Z</time>
      </trkpt>
      <trkpt lat="47.49828" lon="3.84191">
        <ele>226</ele>
        <time>2019-04-05T09:55:35Z</time>
      </trkpt>
      <trkpt lat="47.49828" lon="3.84198">
        <ele>224</ele>
        <time>2019-04-05T09:55:39Z</time>
      </trkpt>
      <trkpt lat="47.49827" lon="3.84206">
        <ele>223</ele>
        <time>2019-04-05T09:55:43Z</time>
      </trkpt>
      <trkpt lat="47.49826" lon="3.84211">
        <ele>222</ele>
        <time>2019-04-05T09:55:45Z</time>
      </trkpt>
      <trkpt lat="47.49825" lon="3.8422">
        <ele>223</ele>
        <time>2019-04-05T09:55:51Z</time>
      </trkpt>
      <trkpt lat="47.49824" lon="3.84224">
        <ele>222</ele>
        <time>2019-04-05T09:55:53Z</time>
      </trkpt>
      <trkpt lat="47.49823" lon="3.8423">
        <ele>221</ele>
        <time>2019-04-05T09:55:57Z</time>
      </trkpt>
      <trkpt lat="47.49824" lon="3.84237">
        <ele>221</ele>
        <time>2019-04-05T09:56:02Z</time>
      </trkpt>
      <trkpt lat="47.49822" lon="3.84244">
        <ele>221</ele>
        <time>2019-04-05T09:56:06Z</time>
      </trkpt>
      <trkpt lat="47.49822" lon="3.84248">
        <ele>220</ele>
        <time>2019-04-05T09:56:08Z</time>
      </trkpt>
      <trkpt lat="47.4982" lon="3.84256">
        <ele>219</ele>
        <time>2019-04-05T09:56:13Z</time>
      </trkpt>
      <trkpt lat="47.49819" lon="3.84263">
        <ele>219</ele>
        <time>2019-04-05T09:56:16Z</time>
      </trkpt>
      <trkpt lat="47.49817" lon="3.84269">
        <ele>218</ele>
        <time>2019-04-05T09:56:20Z</time>
      </trkpt>
      <trkpt lat="47.49816" lon="3.84272">
        <ele>218</ele>
        <time>2019-04-05T09:56:22Z</time>
      </trkpt>
      <trkpt lat="47.49813" lon="3.84278">
        <ele>219</ele>
        <time>2019-04-05T09:56:27Z</time>
      </trkpt>
      <trkpt lat="47.49811" lon="3.84286">
        <ele>219</ele>
        <time>2019-04-05T09:56:31Z</time>
      </trkpt>
      <trkpt lat="47.4981" lon="3.84289">
        <ele>220</ele>
        <time>2019-04-05T09:56:33Z</time>
      </trkpt>
      <trkpt lat="47.49807" lon="3.84297">
        <ele>220</ele>
        <time>2019-04-05T09:56:38Z</time>
      </trkpt>
      <trkpt lat="47.49804" lon="3.84304">
        <ele>219</ele>
        <time>2019-04-05T09:56:42Z</time>
      </trkpt>
      <trkpt lat="47.49803" lon="3.84309">
        <ele>219</ele>
        <time>2019-04-05T09:56:45Z</time>
      </trkpt>
      <trkpt lat="47.49801" lon="3.84312">
        <ele>218</ele>
        <time>2019-04-05T09:56:47Z</time>
      </trkpt>
      <trkpt lat="47.498" lon="3.84316">
        <ele>218</ele>
        <time>2019-04-05T09:56:50Z</time>
      </trkpt>
      <trkpt lat="47.49797" lon="3.84321">
        <ele>216</ele>
        <time>2019-04-05T09:56:53Z</time>
      </trkpt>
      <trkpt lat="47.49795" lon="3.84328">
        <ele>215</ele>
        <time>2019-04-05T09:56:58Z</time>
      </trkpt>
      <trkpt lat="47.49794" lon="3.84335">
        <ele>215</ele>
        <time>2019-04-05T09:57:02Z</time>
      </trkpt>
      <trkpt lat="47.49794" lon="3.84342">
        <ele>214</ele>
        <time>2019-04-05T09:57:06Z</time>
      </trkpt>
      <trkpt lat="47.49794" lon="3.84345">
        <ele>214</ele>
        <time>2019-04-05T09:57:08Z</time>
      </trkpt>
      <trkpt lat="47.49793" lon="3.84351">
        <ele>214</ele>
        <time>2019-04-05T09:57:11Z</time>
      </trkpt>
      <trkpt lat="47.49793" lon="3.84356">
        <ele>214</ele>
        <time>2019-04-05T09:57:13Z</time>
      </trkpt>
      <trkpt lat="47.49793" lon="3.84364">
        <ele>214</ele>
        <time>2019-04-05T09:57:17Z</time>
      </trkpt>
      <trkpt lat="47.49792" lon="3.84371">
        <ele>212</ele>
        <time>2019-04-05T09:57:20Z</time>
      </trkpt>
      <trkpt lat="47.49791" lon="3.84378">
        <ele>211</ele>
        <time>2019-04-05T09:57:24Z</time>
      </trkpt>
      <trkpt lat="47.4979" lon="3.84383">
        <ele>211</ele>
        <time>2019-04-05T09:57:27Z</time>
      </trkpt>
      <trkpt lat="47.49789" lon="3.84388">
        <ele>210</ele>
        <time>2019-04-05T09:57:30Z</time>
      </trkpt>
      <trkpt lat="47.49787" lon="3.84395">
        <ele>210</ele>
        <time>2019-04-05T09:57:34Z</time>
      </trkpt>
      <trkpt lat="47.49785" lon="3.84402">
        <ele>209</ele>
        <time>2019-04-05T09:57:38Z</time>
      </trkpt>
      <trkpt lat="47.49783" lon="3.84408">
        <ele>210</ele>
        <time>2019-04-05T09:57:42Z</time>
      </trkpt>
      <trkpt lat="47.49779" lon="3.84415">
        <ele>209</ele>
        <time>2019-04-05T09:57:47Z</time>
      </trkpt>
      <trkpt lat="47.49777" lon="3.8442">
        <ele>209</ele>
        <time>2019-04-05T09:57:50Z</time>
      </trkpt>
      <trkpt lat="47.49774" lon="3.84425">
        <ele>210</ele>
        <time>2019-04-05T09:57:54Z</time>
      </trkpt>
      <trkpt lat="47.49772" lon="3.84429">
        <ele>210</ele>
        <time>2019-04-05T09:57:56Z</time>
      </trkpt>
      <trkpt lat="47.49768" lon="3.84434">
        <ele>208</ele>
        <time>2019-04-05T09:58:00Z</time>
      </trkpt>
      <trkpt lat="47.49766" lon="3.84436">
        <ele>208</ele>
        <time>2019-04-05T09:58:02Z</time>
      </trkpt>
      <trkpt lat="47.49764" lon="3.84438">
        <ele>208</ele>
        <time>2019-04-05T09:58:04Z</time>
      </trkpt>
      <trkpt lat="47.49762" lon="3.84441">
        <ele>207</ele>
        <time>2019-04-05T09:58:06Z</time>
      </trkpt>
      <trkpt lat="47.49758" lon="3.84447">
        <ele>208</ele>
        <time>2019-04-05T09:58:12Z</time>
      </trkpt>
      <trkpt lat="47.49754" lon="3.84451">
        <ele>209</ele>
        <time>2019-04-05T09:58:17Z</time>
      </trkpt>
      <trkpt lat="47.49752" lon="3.84453">
        <ele>209</ele>
        <time>2019-04-05T09:58:20Z</time>
      </trkpt>
      <trkpt lat="47.49747" lon="3.84457">
        <ele>210</ele>
        <time>2019-04-05T09:58:25Z</time>
      </trkpt>
      <trkpt lat="47.49745" lon="3.84462">
        <ele>210</ele>
        <time>2019-04-05T09:58:29Z</time>
      </trkpt>
      <trkpt lat="47.49742" lon="3.84469">
        <ele>210</ele>
        <time>2019-04-05T09:58:34Z</time>
      </trkpt>
      <trkpt lat="47.49741" lon="3.84478">
        <ele>209</ele>
        <time>2019-04-05T09:58:38Z</time>
      </trkpt>
      <trkpt lat="47.49741" lon="3.84486">
        <ele>208</ele>
        <time>2019-04-05T09:58:41Z</time>
      </trkpt>
      <trkpt lat="47.4974" lon="3.84493">
        <ele>207</ele>
        <time>2019-04-05T09:58:45Z</time>
      </trkpt>
      <trkpt lat="47.49739" lon="3.84501">
        <ele>207</ele>
        <time>2019-04-05T09:58:50Z</time>
      </trkpt>
      <trkpt lat="47.49739" lon="3.84508">
        <ele>206</ele>
        <time>2019-04-05T09:58:54Z</time>
      </trkpt>
      <trkpt lat="47.49739" lon="3.84515">
        <ele>206</ele>
        <time>2019-04-05T09:58:58Z</time>
      </trkpt>
      <trkpt lat="47.49739" lon="3.8452">
        <ele>206</ele>
        <time>2019-04-05T09:59:01Z</time>
      </trkpt>
      <trkpt lat="47.49739" lon="3.84528">
        <ele>205</ele>
        <time>2019-04-05T09:59:06Z</time>
      </trkpt>
      <trkpt lat="47.49739" lon="3.84532">
        <ele>204</ele>
        <time>2019-04-05T09:59:08Z</time>
      </trkpt>
      <trkpt lat="47.49739" lon="3.84539">
        <ele>204</ele>
        <time>2019-04-05T09:59:12Z</time>
      </trkpt>
      <trkpt lat="47.49739" lon="3.84545">
        <ele>204</ele>
        <time>2019-04-05T09:59:15Z</time>
      </trkpt>
      <trkpt lat="47.49739" lon="3.84549">
        <ele>204</ele>
        <time>2019-04-05T09:59:17Z</time>
      </trkpt>
      <trkpt lat="47.49739" lon="3.84555">
        <ele>203</ele>
        <time>2019-04-05T09:59:21Z</time>
      </trkpt>
      <trkpt lat="47.49741" lon="3.84561">
        <ele>203</ele>
        <time>2019-04-05T09:59:25Z</time>
      </trkpt>
      <trkpt lat="47.49742" lon="3.84569">
        <ele>202</ele>
        <time>2019-04-05T09:59:31Z</time>
      </trkpt>
      <trkpt lat="47.49743" lon="3.84577">
        <ele>201</ele>
        <time>2019-04-05T09:59:36Z</time>
      </trkpt>
      <trkpt lat="47.49744" lon="3.84584">
        <ele>201</ele>
        <time>2019-04-05T09:59:39Z</time>
      </trkpt>
      <trkpt lat="47.49744" lon="3.84588">
        <ele>201</ele>
        <time>2019-04-05T09:59:41Z</time>
      </trkpt>
      <trkpt lat="47.49744" lon="3.84592">
        <ele>201</ele>
        <time>2019-04-05T09:59:43Z</time>
      </trkpt>
      <trkpt lat="47.49744" lon="3.84597">
        <ele>201</ele>
        <time>2019-04-05T09:59:46Z</time>
      </trkpt>
      <trkpt lat="47.49746" lon="3.84604">
        <ele>199</ele>
        <time>2019-04-05T09:59:51Z</time>
      </trkpt>
      <trkpt lat="47.49746" lon="3.84604">
        <ele>199</ele>
        <time>2019-04-05T09:59:59Z</time>
      </trkpt>
      <trkpt lat="47.49746" lon="3.84604">
        <ele>199</ele>
        <time>2019-04-05T10:00:00Z</time>
      </trkpt>
      <trkpt lat="47.49748" lon="3.8461">
        <ele>198</ele>
        <time>2019-04-05T10:01:13Z</time>
      </trkpt>
      <trkpt lat="47.49749" lon="3.84617">
        <ele>193</ele>
        <time>2019-04-05T10:01:29Z</time>
      </trkpt>
      <trkpt lat="47.4975" lon="3.84621">
        <ele>194</ele>
        <time>2019-04-05T10:01:33Z</time>
      </trkpt>
      <trkpt lat="47.4975" lon="3.84625">
        <ele>194</ele>
        <time>2019-04-05T10:01:35Z</time>
      </trkpt>
      <trkpt lat="47.4975" lon="3.84631">
        <ele>196</ele>
        <time>2019-04-05T10:01:39Z</time>
      </trkpt>
      <trkpt lat="47.4975" lon="3.84637">
        <ele>196</ele>
        <time>2019-04-05T10:01:42Z</time>
      </trkpt>
      <trkpt lat="47.4975" lon="3.84642">
        <ele>197</ele>
        <time>2019-04-05T10:01:45Z</time>
      </trkpt>
      <trkpt lat="47.49752" lon="3.84649">
        <ele>198</ele>
        <time>2019-04-05T10:01:49Z</time>
      </trkpt>
      <trkpt lat="47.49753" lon="3.84654">
        <ele>199</ele>
        <time>2019-04-05T10:01:52Z</time>
      </trkpt>
      <trkpt lat="47.49753" lon="3.84661">
        <ele>198</ele>
        <time>2019-04-05T10:01:56Z</time>
      </trkpt>
      <trkpt lat="47.49754" lon="3.84668">
        <ele>197</ele>
        <time>2019-04-05T10:02:00Z</time>
      </trkpt>
      <trkpt lat="47.49754" lon="3.84673">
        <ele>195</ele>
        <time>2019-04-05T10:02:03Z</time>
      </trkpt>
      <trkpt lat="47.49755" lon="3.84678">
        <ele>195</ele>
        <time>2019-04-05T10:02:05Z</time>
      </trkpt>
      <trkpt lat="47.49755" lon="3.84681">
        <ele>196</ele>
        <time>2019-04-05T10:02:07Z</time>
      </trkpt>
      <trkpt lat="47.49756" lon="3.84685">
        <ele>196</ele>
        <time>2019-04-05T10:02:09Z</time>
      </trkpt>
      <trkpt lat="47.49756" lon="3.8469">
        <ele>196</ele>
        <time>2019-04-05T10:02:12Z</time>
      </trkpt>
      <trkpt lat="47.49757" lon="3.84693">
        <ele>197</ele>
        <time>2019-04-05T10:02:14Z</time>
      </trkpt>
      <trkpt lat="47.49757" lon="3.84697">
        <ele>197</ele>
        <time>2019-04-05T10:02:16Z</time>
      </trkpt>
      <trkpt lat="47.49758" lon="3.84703">
        <ele>197</ele>
        <time>2019-04-05T10:02:20Z</time>
      </trkpt>
      <trkpt lat="47.49758" lon="3.84707">
        <ele>197</ele>
        <time>2019-04-05T10:02:22Z</time>
      </trkpt>
      <trkpt lat="47.49758" lon="3.84712">
        <ele>197</ele>
        <time>2019-04-05T10:02:25Z</time>
      </trkpt>
      <trkpt lat="47.49759" lon="3.84719">
        <ele>197</ele>
        <time>2019-04-05T10:02:30Z</time>
      </trkpt>
      <trkpt lat="47.4976" lon="3.84723">
        <ele>197</ele>
        <time>2019-04-05T10:02:32Z</time>
      </trkpt>
      <trkpt lat="47.4976" lon="3.84727">
        <ele>197</ele>
        <time>2019-04-05T10:02:34Z</time>
      </trkpt>
      <trkpt lat="47.49761" lon="3.84735">
        <ele>197</ele>
        <time>2019-04-05T10:02:38Z</time>
      </trkpt>
      <trkpt lat="47.49761" lon="3.84741">
        <ele>197</ele>
        <time>2019-04-05T10:02:41Z</time>
      </trkpt>
      <trkpt lat="47.49761" lon="3.84748">
        <ele>198</ele>
        <time>2019-04-05T10:02:45Z</time>
      </trkpt>
      <trkpt lat="47.49762" lon="3.84758">
        <ele>198</ele>
        <time>2019-04-05T10:02:50Z</time>
      </trkpt>
      <trkpt lat="47.49763" lon="3.84768">
        <ele>199</ele>
        <time>2019-04-05T10:02:55Z</time>
      </trkpt>
      <trkpt lat="47.49764" lon="3.84772">
        <ele>199</ele>
        <time>2019-04-05T10:02:57Z</time>
      </trkpt>
      <trkpt lat="47.49764" lon="3.84775">
        <ele>200</ele>
        <time>2019-04-05T10:02:59Z</time>
      </trkpt>
      <trkpt lat="47.49765" lon="3.84779">
        <ele>200</ele>
        <time>2019-04-05T10:03:01Z</time>
      </trkpt>
      <trkpt lat="47.49766" lon="3.84787">
        <ele>200</ele>
        <time>2019-04-05T10:03:05Z</time>
      </trkpt>
      <trkpt lat="47.49767" lon="3.8479">
        <ele>201</ele>
        <time>2019-04-05T10:03:07Z</time>
      </trkpt>
      <trkpt lat="47.49767" lon="3.84794">
        <ele>201</ele>
        <time>2019-04-05T10:03:09Z</time>
      </trkpt>
      <trkpt lat="47.49772" lon="3.84799">
        <ele>203</ele>
        <time>2019-04-05T10:03:15Z</time>
      </trkpt>
      <trkpt lat="47.49778" lon="3.84798">
        <ele>203</ele>
        <time>2019-04-05T10:03:21Z</time>
      </trkpt>
      <trkpt lat="47.49784" lon="3.84799">
        <ele>202</ele>
        <time>2019-04-05T10:03:25Z</time>
      </trkpt>
      <trkpt lat="47.49789" lon="3.84802">
        <ele>201</ele>
        <time>2019-04-05T10:03:27Z</time>
      </trkpt>
      <trkpt lat="47.49793" lon="3.84807">
        <ele>200</ele>
        <time>2019-04-05T10:03:31Z</time>
      </trkpt>
      <trkpt lat="47.49797" lon="3.8481">
        <ele>200</ele>
        <time>2019-04-05T10:03:35Z</time>
      </trkpt>
      <trkpt lat="47.49802" lon="3.84815">
        <ele>199</ele>
        <time>2019-04-05T10:03:42Z</time>
      </trkpt>
      <trkpt lat="47.49803" lon="3.84817">
        <ele>198</ele>
        <time>2019-04-05T10:03:46Z</time>
      </trkpt>
      <trkpt lat="47.49805" lon="3.84824">
        <ele>198</ele>
        <time>2019-04-05T10:03:51Z</time>
      </trkpt>
      <trkpt lat="47.49805" lon="3.84824">
        <ele>198</ele>
        <time>2019-04-05T10:03:59Z</time>
      </trkpt>
      <trkpt lat="47.49805" lon="3.84824">
        <ele>198</ele>
        <time>2019-04-05T10:04:00Z</time>
      </trkpt>
      <trkpt lat="47.49808" lon="3.84854">
        <ele>197</ele>
        <time>2019-04-05T10:05:15Z</time>
      </trkpt>
      <trkpt lat="47.49809" lon="3.84858">
        <ele>198</ele>
        <time>2019-04-05T10:05:20Z</time>
      </trkpt>
      <trkpt lat="47.49811" lon="3.84865">
        <ele>196</ele>
        <time>2019-04-05T10:05:27Z</time>
      </trkpt>
      <trkpt lat="47.49811" lon="3.84872">
        <ele>194</ele>
        <time>2019-04-05T10:05:37Z</time>
      </trkpt>
      <trkpt lat="47.49813" lon="3.84879">
        <ele>196</ele>
        <time>2019-04-05T10:05:56Z</time>
      </trkpt>
      <trkpt lat="47.49813" lon="3.84883">
        <ele>196</ele>
        <time>2019-04-05T10:05:58Z</time>
      </trkpt>
      <trkpt lat="47.49815" lon="3.84888">
        <ele>194</ele>
        <time>2019-04-05T10:06:20Z</time>
      </trkpt>
      <trkpt lat="47.49815" lon="3.84896">
        <ele>192</ele>
        <time>2019-04-05T10:06:28Z</time>
      </trkpt>
      <trkpt lat="47.49816" lon="3.84903">
        <ele>192</ele>
        <time>2019-04-05T10:06:33Z</time>
      </trkpt>
      <trkpt lat="47.49816" lon="3.84909">
        <ele>192</ele>
        <time>2019-04-05T10:06:36Z</time>
      </trkpt>
      <trkpt lat="47.49816" lon="3.84914">
        <ele>192</ele>
        <time>2019-04-05T10:06:39Z</time>
      </trkpt>
      <trkpt lat="47.49816" lon="3.84919">
        <ele>192</ele>
        <time>2019-04-05T10:06:42Z</time>
      </trkpt>
      <trkpt lat="47.49817" lon="3.84922">
        <ele>191</ele>
        <time>2019-04-05T10:06:51Z</time>
      </trkpt>
      <trkpt lat="47.49818" lon="3.84929">
        <ele>192</ele>
        <time>2019-04-05T10:08:56Z</time>
      </trkpt>
      <trkpt lat="47.49819" lon="3.84935">
        <ele>191</ele>
        <time>2019-04-05T10:08:59Z</time>
      </trkpt>
      <trkpt lat="47.49819" lon="3.84941">
        <ele>190</ele>
        <time>2019-04-05T10:09:03Z</time>
      </trkpt>
      <trkpt lat="47.49818" lon="3.8495">
        <ele>190</ele>
        <time>2019-04-05T10:09:09Z</time>
      </trkpt>
      <trkpt lat="47.49819" lon="3.84958">
        <ele>190</ele>
        <time>2019-04-05T10:09:13Z</time>
      </trkpt>
      <trkpt lat="47.49819" lon="3.84961">
        <ele>191</ele>
        <time>2019-04-05T10:09:15Z</time>
      </trkpt>
      <trkpt lat="47.4982" lon="3.84967">
        <ele>192</ele>
        <time>2019-04-05T10:09:18Z</time>
      </trkpt>
      <trkpt lat="47.4982" lon="3.8497">
        <ele>191</ele>
        <time>2019-04-05T10:09:20Z</time>
      </trkpt>
      <trkpt lat="47.4982" lon="3.84976">
        <ele>191</ele>
        <time>2019-04-05T10:09:22Z</time>
      </trkpt>
      <trkpt lat="47.4982" lon="3.84979">
        <ele>191</ele>
        <time>2019-04-05T10:09:24Z</time>
      </trkpt>
      <trkpt lat="47.4982" lon="3.84986">
        <ele>191</ele>
        <time>2019-04-05T10:09:28Z</time>
      </trkpt>
      <trkpt lat="47.49821" lon="3.84992">
        <ele>190</ele>
        <time>2019-04-05T10:09:32Z</time>
      </trkpt>
      <trkpt lat="47.49821" lon="3.84997">
        <ele>191</ele>
        <time>2019-04-05T10:09:35Z</time>
      </trkpt>
      <trkpt lat="47.49821" lon="3.85002">
        <ele>191</ele>
        <time>2019-04-05T10:09:38Z</time>
      </trkpt>
      <trkpt lat="47.49819" lon="3.85007">
        <ele>193</ele>
        <time>2019-04-05T10:09:46Z</time>
      </trkpt>
      <trkpt lat="47.49828" lon="3.84992">
        <ele>199</ele>
        <time>2019-04-05T10:13:07Z</time>
      </trkpt>
      <trkpt lat="47.49827" lon="3.84985">
        <ele>197</ele>
        <time>2019-04-05T10:13:10Z</time>
      </trkpt>
      <trkpt lat="47.49827" lon="3.84981">
        <ele>196</ele>
        <time>2019-04-05T10:13:12Z</time>
      </trkpt>
      <trkpt lat="47.49826" lon="3.84973">
        <ele>197</ele>
        <time>2019-04-05T10:13:16Z</time>
      </trkpt>
      <trkpt lat="47.49825" lon="3.84967">
        <ele>197</ele>
        <time>2019-04-05T10:13:19Z</time>
      </trkpt>
      <trkpt lat="47.49826" lon="3.84961">
        <ele>196</ele>
        <time>2019-04-05T10:13:23Z</time>
      </trkpt>
      <trkpt lat="47.49825" lon="3.84953">
        <ele>196</ele>
        <time>2019-04-05T10:13:27Z</time>
      </trkpt>
      <trkpt lat="47.49824" lon="3.84947">
        <ele>195</ele>
        <time>2019-04-05T10:13:31Z</time>
      </trkpt>
      <trkpt lat="47.49824" lon="3.84939">
        <ele>193</ele>
        <time>2019-04-05T10:13:36Z</time>
      </trkpt>
      <trkpt lat="47.49823" lon="3.8493">
        <ele>193</ele>
        <time>2019-04-05T10:13:40Z</time>
      </trkpt>
      <trkpt lat="47.49823" lon="3.84927">
        <ele>193</ele>
        <time>2019-04-05T10:13:42Z</time>
      </trkpt>
      <trkpt lat="47.49822" lon="3.84921">
        <ele>192</ele>
        <time>2019-04-05T10:13:45Z</time>
      </trkpt>
      <trkpt lat="47.49821" lon="3.84915">
        <ele>192</ele>
        <time>2019-04-05T10:13:48Z</time>
      </trkpt>
      <trkpt lat="47.4982" lon="3.84911">
        <ele>192</ele>
        <time>2019-04-05T10:13:50Z</time>
      </trkpt>
      <trkpt lat="47.4982" lon="3.84907">
        <ele>192</ele>
        <time>2019-04-05T10:13:52Z</time>
      </trkpt>
      <trkpt lat="47.49819" lon="3.84903">
        <ele>192</ele>
        <time>2019-04-05T10:13:54Z</time>
      </trkpt>
      <trkpt lat="47.49819" lon="3.84899">
        <ele>192</ele>
        <time>2019-04-05T10:13:56Z</time>
      </trkpt>
      <trkpt lat="47.49818" lon="3.84892">
        <ele>192</ele>
        <time>2019-04-05T10:13:59Z</time>
      </trkpt>
      <trkpt lat="47.49818" lon="3.84889">
        <ele>193</ele>
        <time>2019-04-05T10:14:01Z</time>
      </trkpt>
      <trkpt lat="47.49817" lon="3.8488">
        <ele>194</ele>
        <time>2019-04-05T10:14:06Z</time>
      </trkpt>
      <trkpt lat="47.49816" lon="3.84875">
        <ele>194</ele>
        <time>2019-04-05T10:14:09Z</time>
      </trkpt>
      <trkpt lat="47.49815" lon="3.8487">
        <ele>193</ele>
        <time>2019-04-05T10:14:12Z</time>
      </trkpt>
      <trkpt lat="47.49815" lon="3.84862">
        <ele>194</ele>
        <time>2019-04-05T10:14:16Z</time>
      </trkpt>
      <trkpt lat="47.49815" lon="3.84858">
        <ele>194</ele>
        <time>2019-04-05T10:14:19Z</time>
      </trkpt>
      <trkpt lat="47.49816" lon="3.8485">
        <ele>193</ele>
        <time>2019-04-05T10:14:24Z</time>
      </trkpt>
      <trkpt lat="47.49816" lon="3.84846">
        <ele>191</ele>
        <time>2019-04-05T10:14:27Z</time>
      </trkpt>
      <trkpt lat="47.49816" lon="3.84838">
        <ele>191</ele>
        <time>2019-04-05T10:14:31Z</time>
      </trkpt>
      <trkpt lat="47.49817" lon="3.84832">
        <ele>190</ele>
        <time>2019-04-05T10:14:35Z</time>
      </trkpt>
      <trkpt lat="47.49822" lon="3.84826">
        <ele>191</ele>
        <time>2019-04-05T10:14:41Z</time>
      </trkpt>
      <trkpt lat="47.49826" lon="3.84824">
        <ele>193</ele>
        <time>2019-04-05T10:14:46Z</time>
      </trkpt>
      <trkpt lat="47.4983" lon="3.8482">
        <ele>191</ele>
        <time>2019-04-05T10:14:50Z</time>
      </trkpt>
      <trkpt lat="47.49832" lon="3.84817">
        <ele>192</ele>
        <time>2019-04-05T10:14:53Z</time>
      </trkpt>
      <trkpt lat="47.49837" lon="3.84813">
        <ele>192</ele>
        <time>2019-04-05T10:14:56Z</time>
      </trkpt>
      <trkpt lat="47.49839" lon="3.8481">
        <ele>191</ele>
        <time>2019-04-05T10:14:59Z</time>
      </trkpt>
      <trkpt lat="47.49841" lon="3.84808">
        <ele>191</ele>
        <time>2019-04-05T10:15:01Z</time>
      </trkpt>
      <trkpt lat="47.49846" lon="3.84804">
        <ele>193</ele>
        <time>2019-04-05T10:15:06Z</time>
      </trkpt>
      <trkpt lat="47.4985" lon="3.848">
        <ele>191</ele>
        <time>2019-04-05T10:15:14Z</time>
      </trkpt>
      <trkpt lat="47.4985" lon="3.848">
        <ele>191</ele>
        <time>2019-04-05T10:21:49Z</time>
      </trkpt>
      <trkpt lat="47.49851" lon="3.84787">
        <ele>198</ele>
        <time>2019-04-05T10:33:11Z</time>
      </trkpt>
      <trkpt lat="47.49843" lon="3.84787">
        <ele>199</ele>
        <time>2019-04-05T10:33:18Z</time>
      </trkpt>
      <trkpt lat="47.49839" lon="3.84786">
        <ele>199</ele>
        <time>2019-04-05T10:33:21Z</time>
      </trkpt>
      <trkpt lat="47.49836" lon="3.84786">
        <ele>199</ele>
        <time>2019-04-05T10:33:24Z</time>
      </trkpt>
      <trkpt lat="47.49834" lon="3.84787">
        <ele>199</ele>
        <time>2019-04-05T10:33:34Z</time>
      </trkpt>
      <trkpt lat="47.49834" lon="3.84801">
        <ele>199</ele>
        <time>2019-04-05T10:34:54Z</time>
      </trkpt>
      <trkpt lat="47.4983" lon="3.84804">
        <ele>199</ele>
        <time>2019-04-05T10:34:57Z</time>
      </trkpt>
      <trkpt lat="47.49825" lon="3.84806">
        <ele>198</ele>
        <time>2019-04-05T10:35:02Z</time>
      </trkpt>
      <trkpt lat="47.4982" lon="3.84808">
        <ele>197</ele>
        <time>2019-04-05T10:35:05Z</time>
      </trkpt>
      <trkpt lat="47.49817" lon="3.84809">
        <ele>198</ele>
        <time>2019-04-05T10:35:07Z</time>
      </trkpt>
      <trkpt lat="47.49815" lon="3.8481">
        <ele>200</ele>
        <time>2019-04-05T10:35:10Z</time>
      </trkpt>
      <trkpt lat="47.49812" lon="3.84811">
        <ele>201</ele>
        <time>2019-04-05T10:35:12Z</time>
      </trkpt>
      <trkpt lat="47.49811" lon="3.8482">
        <ele>200</ele>
        <time>2019-04-05T10:35:21Z</time>
      </trkpt>
      <trkpt lat="47.4981" lon="3.84824">
        <ele>200</ele>
        <time>2019-04-05T10:35:23Z</time>
      </trkpt>
      <trkpt lat="47.49809" lon="3.84832">
        <ele>201</ele>
        <time>2019-04-05T10:35:27Z</time>
      </trkpt>
      <trkpt lat="47.49809" lon="3.84841">
        <ele>199</ele>
        <time>2019-04-05T10:35:31Z</time>
      </trkpt>
      <trkpt lat="47.49808" lon="3.84846">
        <ele>197</ele>
        <time>2019-04-05T10:35:33Z</time>
      </trkpt>
      <trkpt lat="47.49808" lon="3.84851">
        <ele>195</ele>
        <time>2019-04-05T10:35:35Z</time>
      </trkpt>
      <trkpt lat="47.49809" lon="3.84857">
        <ele>195</ele>
        <time>2019-04-05T10:35:38Z</time>
      </trkpt>
      <trkpt lat="47.49808" lon="3.84864">
        <ele>194</ele>
        <time>2019-04-05T10:35:42Z</time>
      </trkpt>
      <trkpt lat="47.4981" lon="3.8487">
        <ele>195</ele>
        <time>2019-04-05T10:35:44Z</time>
      </trkpt>
      <trkpt lat="47.49812" lon="3.84876">
        <ele>194</ele>
        <time>2019-04-05T10:35:49Z</time>
      </trkpt>
      <trkpt lat="47.49813" lon="3.84884">
        <ele>193</ele>
        <time>2019-04-05T10:35:54Z</time>
      </trkpt>
      <trkpt lat="47.49814" lon="3.84888">
        <ele>193</ele>
        <time>2019-04-05T10:35:56Z</time>
      </trkpt>
      <trkpt lat="47.49815" lon="3.84896">
        <ele>194</ele>
        <time>2019-04-05T10:36:01Z</time>
      </trkpt>
      <trkpt lat="47.49816" lon="3.84903">
        <ele>193</ele>
        <time>2019-04-05T10:36:06Z</time>
      </trkpt>
      <trkpt lat="47.49817" lon="3.84908">
        <ele>192</ele>
        <time>2019-04-05T10:36:09Z</time>
      </trkpt>
      <trkpt lat="47.49818" lon="3.84912">
        <ele>192</ele>
        <time>2019-04-05T10:36:12Z</time>
      </trkpt>
      <trkpt lat="47.49818" lon="3.84916">
        <ele>191</ele>
        <time>2019-04-05T10:36:16Z</time>
      </trkpt>
      <trkpt lat="47.49818" lon="3.84922">
        <ele>190</ele>
        <time>2019-04-05T10:36:20Z</time>
      </trkpt>
      <trkpt lat="47.49819" lon="3.84926">
        <ele>191</ele>
        <time>2019-04-05T10:36:22Z</time>
      </trkpt>
      <trkpt lat="47.49819" lon="3.84931">
        <ele>190</ele>
        <time>2019-04-05T10:36:25Z</time>
      </trkpt>
      <trkpt lat="47.49819" lon="3.84935">
        <ele>190</ele>
        <time>2019-04-05T10:36:27Z</time>
      </trkpt>
      <trkpt lat="47.49819" lon="3.84939">
        <ele>190</ele>
        <time>2019-04-05T10:36:30Z</time>
      </trkpt>
      <trkpt lat="47.49819" lon="3.84943">
        <ele>190</ele>
        <time>2019-04-05T10:36:32Z</time>
      </trkpt>
      <trkpt lat="47.4982" lon="3.84951">
        <ele>191</ele>
        <time>2019-04-05T10:36:36Z</time>
      </trkpt>
      <trkpt lat="47.4982" lon="3.84956">
        <ele>192</ele>
        <time>2019-04-05T10:36:39Z</time>
      </trkpt>
      <trkpt lat="47.49819" lon="3.84964">
        <ele>194</ele>
        <time>2019-04-05T10:36:43Z</time>
      </trkpt>
      <trkpt lat="47.49818" lon="3.8497">
        <ele>194</ele>
        <time>2019-04-05T10:36:46Z</time>
      </trkpt>
      <trkpt lat="47.49819" lon="3.84977">
        <ele>195</ele>
        <time>2019-04-05T10:36:50Z</time>
      </trkpt>
      <trkpt lat="47.49818" lon="3.84984">
        <ele>196</ele>
        <time>2019-04-05T10:36:54Z</time>
      </trkpt>
      <trkpt lat="47.4982" lon="3.84991">
        <ele>197</ele>
        <time>2019-04-05T10:36:59Z</time>
      </trkpt>
      <trkpt lat="47.49818" lon="3.84998">
        <ele>198</ele>
        <time>2019-04-05T10:37:03Z</time>
      </trkpt>
      <trkpt lat="47.49818" lon="3.85005">
        <ele>199</ele>
        <time>2019-04-05T10:37:07Z</time>
      </trkpt>
      <trkpt lat="47.49821" lon="3.8501">
        <ele>200</ele>
        <time>2019-04-05T10:37:17Z</time>
      </trkpt>
      <trkpt lat="47.49825" lon="3.84999">
        <ele>202</ele>
        <time>2019-04-05T10:37:26Z</time>
      </trkpt>
      <trkpt lat="47.49827" lon="3.8499">
        <ele>203</ele>
        <time>2019-04-05T10:37:31Z</time>
      </trkpt>
      <trkpt lat="47.49826" lon="3.84983">
        <ele>202</ele>
        <time>2019-04-05T10:37:36Z</time>
      </trkpt>
      <trkpt lat="47.49826" lon="3.84976">
        <ele>203</ele>
        <time>2019-04-05T10:37:44Z</time>
      </trkpt>
      <trkpt lat="47.49826" lon="3.8497">
        <ele>202</ele>
        <time>2019-04-05T10:37:48Z</time>
      </trkpt>
      <trkpt lat="47.49825" lon="3.84964">
        <ele>202</ele>
        <time>2019-04-05T10:37:51Z</time>
      </trkpt>
      <trkpt lat="47.49825" lon="3.84957">
        <ele>201</ele>
        <time>2019-04-05T10:37:55Z</time>
      </trkpt>
      <trkpt lat="47.49825" lon="3.84954">
        <ele>201</ele>
        <time>2019-04-05T10:37:57Z</time>
      </trkpt>
      <trkpt lat="47.49823" lon="3.84947">
        <ele>201</ele>
        <time>2019-04-05T10:38:00Z</time>
      </trkpt>
      <trkpt lat="47.4982" lon="3.84941">
        <ele>198</ele>
        <time>2019-04-05T10:38:03Z</time>
      </trkpt>
      <trkpt lat="47.4982" lon="3.84934">
        <ele>197</ele>
        <time>2019-04-05T10:38:08Z</time>
      </trkpt>
      <trkpt lat="47.49818" lon="3.84927">
        <ele>196</ele>
        <time>2019-04-05T10:38:13Z</time>
      </trkpt>
      <trkpt lat="47.49818" lon="3.84923">
        <ele>196</ele>
        <time>2019-04-05T10:38:16Z</time>
      </trkpt>
      <trkpt lat="47.49818" lon="3.84919">
        <ele>196</ele>
        <time>2019-04-05T10:38:18Z</time>
      </trkpt>
      <trkpt lat="47.49817" lon="3.84913">
        <ele>196</ele>
        <time>2019-04-05T10:38:22Z</time>
      </trkpt>
      <trkpt lat="47.49817" lon="3.84913">
        <ele>196</ele>
        <time>2019-04-05T10:38:30Z</time>
      </trkpt>
      <trkpt lat="47.49816" lon="3.84908">
        <ele>196</ele>
        <time>2019-04-05T10:38:35Z</time>
      </trkpt>
      <trkpt lat="47.49816" lon="3.84908">
        <ele>196</ele>
        <time>2019-04-05T10:38:42Z</time>
      </trkpt>
      <trkpt lat="47.49816" lon="3.84908">
        <ele>196</ele>
        <time>2019-04-05T10:38:43Z</time>
      </trkpt>
      <trkpt lat="47.49814" lon="3.84887">
        <ele>198</ele>
        <time>2019-04-05T10:40:18Z</time>
      </trkpt>
      <trkpt lat="47.49813" lon="3.84881">
        <ele>195</ele>
        <time>2019-04-05T10:40:27Z</time>
      </trkpt>
      <trkpt lat="47.49812" lon="3.84877">
        <ele>194</ele>
        <time>2019-04-05T10:40:30Z</time>
      </trkpt>
      <trkpt lat="47.49812" lon="3.84873">
        <ele>195</ele>
        <time>2019-04-05T10:40:33Z</time>
      </trkpt>
      <trkpt lat="47.49813" lon="3.84866">
        <ele>197</ele>
        <time>2019-04-05T10:40:45Z</time>
      </trkpt>
      <trkpt lat="47.49811" lon="3.84859">
        <ele>197</ele>
        <time>2019-04-05T10:40:54Z</time>
      </trkpt>
      <trkpt lat="47.49809" lon="3.84852">
        <ele>198</ele>
        <time>2019-04-05T10:41:00Z</time>
      </trkpt>
      <trkpt lat="47.49808" lon="3.84845">
        <ele>196</ele>
        <time>2019-04-05T10:41:13Z</time>
      </trkpt>
      <trkpt lat="47.49808" lon="3.84838">
        <ele>196</ele>
        <time>2019-04-05T10:41:18Z</time>
      </trkpt>
      <trkpt lat="47.49809" lon="3.84834">
        <ele>195</ele>
        <time>2019-04-05T10:41:21Z</time>
      </trkpt>
      <trkpt lat="47.49809" lon="3.84834">
        <ele>195</ele>
        <time>2019-04-05T10:41:30Z</time>
      </trkpt>
      <trkpt lat="47.49809" lon="3.84834">
        <ele>195</ele>
        <time>2019-04-05T10:41:31Z</time>
      </trkpt>
      <trkpt lat="47.49812" lon="3.84828">
        <ele>196</ele>
        <time>2019-04-05T10:41:45Z</time>
      </trkpt>
      <trkpt lat="47.49816" lon="3.84825">
        <ele>195</ele>
        <time>2019-04-05T10:41:56Z</time>
      </trkpt>
      <trkpt lat="47.49819" lon="3.84824">
        <ele>197</ele>
        <time>2019-04-05T10:41:59Z</time>
      </trkpt>
      <trkpt lat="47.49822" lon="3.84822">
        <ele>197</ele>
        <time>2019-04-05T10:42:06Z</time>
      </trkpt>
      <trkpt lat="47.49826" lon="3.84816">
        <ele>199</ele>
        <time>2019-04-05T10:42:12Z</time>
      </trkpt>
      <trkpt lat="47.49827" lon="3.84813">
        <ele>199</ele>
        <time>2019-04-05T10:42:14Z</time>
      </trkpt>
      <trkpt lat="47.4983" lon="3.84809">
        <ele>199</ele>
        <time>2019-04-05T10:42:18Z</time>
      </trkpt>
      <trkpt lat="47.49835" lon="3.84805">
        <ele>199</ele>
        <time>2019-04-05T10:42:25Z</time>
      </trkpt>
      <trkpt lat="47.4984" lon="3.84802">
        <ele>198</ele>
        <time>2019-04-05T10:42:30Z</time>
      </trkpt>
      <trkpt lat="47.49842" lon="3.848">
        <ele>198</ele>
        <time>2019-04-05T10:42:32Z</time>
      </trkpt>
      <trkpt lat="47.49845" lon="3.84798">
        <ele>199</ele>
        <time>2019-04-05T10:42:35Z</time>
      </trkpt>
      <trkpt lat="47.49847" lon="3.84797">
        <ele>199</ele>
        <time>2019-04-05T10:42:37Z</time>
      </trkpt>
      <trkpt lat="47.4985" lon="3.84795">
        <ele>199</ele>
        <time>2019-04-05T10:42:40Z</time>
      </trkpt>
      <trkpt lat="47.49853" lon="3.84794">
        <ele>199</ele>
        <time>2019-04-05T10:42:44Z</time>
      </trkpt>
      <trkpt lat="47.49852" lon="3.84794">
        <ele>198</ele>
        <time>2019-04-05T10:42:54Z</time>
      </trkpt>
      <trkpt lat="47.49837" lon="3.84802">
        <ele>191</ele>
        <time>2019-04-05T10:50:22Z</time>
      </trkpt>
      <trkpt lat="47.49833" lon="3.84804">
        <ele>192</ele>
        <time>2019-04-05T10:50:30Z</time>
      </trkpt>
      <trkpt lat="47.49831" lon="3.84804">
        <ele>192</ele>
        <time>2019-04-05T10:50:36Z</time>
      </trkpt>
      <trkpt lat="47.49826" lon="3.84807">
        <ele>192</ele>
        <time>2019-04-05T10:50:42Z</time>
      </trkpt>
      <trkpt lat="47.49822" lon="3.84807">
        <ele>192</ele>
        <time>2019-04-05T10:51:05Z</time>
      </trkpt>
      <trkpt lat="47.49819" lon="3.84808">
        <ele>190</ele>
        <time>2019-04-05T10:51:09Z</time>
      </trkpt>
      <trkpt lat="47.49816" lon="3.84809">
        <ele>187</ele>
        <time>2019-04-05T10:51:12Z</time>
      </trkpt>
      <trkpt lat="47.49811" lon="3.84808">
        <ele>185</ele>
        <time>2019-04-05T10:51:18Z</time>
      </trkpt>
      <trkpt lat="47.49806" lon="3.84804">
        <ele>186</ele>
        <time>2019-04-05T10:51:24Z</time>
      </trkpt>
      <trkpt lat="47.49802" lon="3.84802">
        <ele>188</ele>
        <time>2019-04-05T10:51:28Z</time>
      </trkpt>
      <trkpt lat="47.49799" lon="3.84798">
        <ele>192</ele>
        <time>2019-04-05T10:51:34Z</time>
      </trkpt>
      <trkpt lat="47.49793" lon="3.84795">
        <ele>194</ele>
        <time>2019-04-05T10:51:39Z</time>
      </trkpt>
      <trkpt lat="47.49789" lon="3.84793">
        <ele>195</ele>
        <time>2019-04-05T10:51:42Z</time>
      </trkpt>
      <trkpt lat="47.49784" lon="3.84794">
        <ele>196</ele>
        <time>2019-04-05T10:51:46Z</time>
      </trkpt>
      <trkpt lat="47.49777" lon="3.84793">
        <ele>197</ele>
        <time>2019-04-05T10:51:50Z</time>
      </trkpt>
      <trkpt lat="47.49774" lon="3.84793">
        <ele>198</ele>
        <time>2019-04-05T10:51:52Z</time>
      </trkpt>
      <trkpt lat="47.49769" lon="3.84793">
        <ele>199</ele>
        <time>2019-04-05T10:51:56Z</time>
      </trkpt>
      <trkpt lat="47.49764" lon="3.84795">
        <ele>198</ele>
        <time>2019-04-05T10:52:01Z</time>
      </trkpt>
      <trkpt lat="47.49761" lon="3.84796">
        <ele>199</ele>
        <time>2019-04-05T10:52:03Z</time>
      </trkpt>
      <trkpt lat="47.49758" lon="3.84797">
        <ele>198</ele>
        <time>2019-04-05T10:52:05Z</time>
      </trkpt>
      <trkpt lat="47.49753" lon="3.84799">
        <ele>199</ele>
        <time>2019-04-05T10:52:08Z</time>
      </trkpt>
      <trkpt lat="47.49748" lon="3.84804">
        <ele>199</ele>
        <time>2019-04-05T10:52:12Z</time>
      </trkpt>
      <trkpt lat="47.49743" lon="3.84807">
        <ele>199</ele>
        <time>2019-04-05T10:52:17Z</time>
      </trkpt>
      <trkpt lat="47.49739" lon="3.84809">
        <ele>199</ele>
        <time>2019-04-05T10:52:21Z</time>
      </trkpt>
      <trkpt lat="47.49734" lon="3.84812">
        <ele>199</ele>
        <time>2019-04-05T10:52:25Z</time>
      </trkpt>
      <trkpt lat="47.49731" lon="3.84814">
        <ele>199</ele>
        <time>2019-04-05T10:52:28Z</time>
      </trkpt>
      <trkpt lat="47.49724" lon="3.84819">
        <ele>201</ele>
        <time>2019-04-05T10:52:34Z</time>
      </trkpt>
      <trkpt lat="47.4972" lon="3.84822">
        <ele>201</ele>
        <time>2019-04-05T10:52:37Z</time>
      </trkpt>
      <trkpt lat="47.49715" lon="3.84827">
        <ele>200</ele>
        <time>2019-04-05T10:52:42Z</time>
      </trkpt>
      <trkpt lat="47.49712" lon="3.84833">
        <ele>198</ele>
        <time>2019-04-05T10:52:46Z</time>
      </trkpt>
      <trkpt lat="47.49708" lon="3.84838">
        <ele>199</ele>
        <time>2019-04-05T10:52:50Z</time>
      </trkpt>
      <trkpt lat="47.49704" lon="3.84843">
        <ele>199</ele>
        <time>2019-04-05T10:52:54Z</time>
      </trkpt>
      <trkpt lat="47.49702" lon="3.84845">
        <ele>198</ele>
        <time>2019-04-05T10:52:56Z</time>
      </trkpt>
      <trkpt lat="47.497" lon="3.84848">
        <ele>198</ele>
        <time>2019-04-05T10:52:58Z</time>
      </trkpt>
      <trkpt lat="47.49695" lon="3.84854">
        <ele>198</ele>
        <time>2019-04-05T10:53:04Z</time>
      </trkpt>
      <trkpt lat="47.49691" lon="3.84861">
        <ele>198</ele>
        <time>2019-04-05T10:53:09Z</time>
      </trkpt>
      <trkpt lat="47.49687" lon="3.84865">
        <ele>199</ele>
        <time>2019-04-05T10:53:13Z</time>
      </trkpt>
      <trkpt lat="47.49684" lon="3.8487">
        <ele>199</ele>
        <time>2019-04-05T10:53:18Z</time>
      </trkpt>
      <trkpt lat="47.49682" lon="3.84874">
        <ele>199</ele>
        <time>2019-04-05T10:53:21Z</time>
      </trkpt>
      <trkpt lat="47.49679" lon="3.8488">
        <ele>199</ele>
        <time>2019-04-05T10:53:26Z</time>
      </trkpt>
      <trkpt lat="47.49677" lon="3.84883">
        <ele>199</ele>
        <time>2019-04-05T10:53:28Z</time>
      </trkpt>
      <trkpt lat="47.49674" lon="3.84889">
        <ele>198</ele>
        <time>2019-04-05T10:53:33Z</time>
      </trkpt>
      <trkpt lat="47.49669" lon="3.84894">
        <ele>198</ele>
        <time>2019-04-05T10:53:38Z</time>
      </trkpt>
      <trkpt lat="47.49666" lon="3.84897">
        <ele>198</ele>
        <time>2019-04-05T10:53:42Z</time>
      </trkpt>
      <trkpt lat="47.49664" lon="3.849">
        <ele>198</ele>
        <time>2019-04-05T10:53:44Z</time>
      </trkpt>
      <trkpt lat="47.4966" lon="3.84904">
        <ele>198</ele>
        <time>2019-04-05T10:53:48Z</time>
      </trkpt>
      <trkpt lat="47.49659" lon="3.84907">
        <ele>198</ele>
        <time>2019-04-05T10:53:50Z</time>
      </trkpt>
      <trkpt lat="47.49655" lon="3.84913">
        <ele>198</ele>
        <time>2019-04-05T10:53:55Z</time>
      </trkpt>
      <trkpt lat="47.49653" lon="3.84916">
        <ele>197</ele>
        <time>2019-04-05T10:53:57Z</time>
      </trkpt>
      <trkpt lat="47.49651" lon="3.84919">
        <ele>197</ele>
        <time>2019-04-05T10:53:59Z</time>
      </trkpt>
      <trkpt lat="47.49649" lon="3.84921">
        <ele>197</ele>
        <time>2019-04-05T10:54:01Z</time>
      </trkpt>
      <trkpt lat="47.49648" lon="3.84925">
        <ele>198</ele>
        <time>2019-04-05T10:54:04Z</time>
      </trkpt>
      <trkpt lat="47.49646" lon="3.84927">
        <ele>199</ele>
        <time>2019-04-05T10:54:06Z</time>
      </trkpt>
      <trkpt lat="47.49644" lon="3.84931">
        <ele>199</ele>
        <time>2019-04-05T10:54:08Z</time>
      </trkpt>
      <trkpt lat="47.49643" lon="3.84933">
        <ele>198</ele>
        <time>2019-04-05T10:54:10Z</time>
      </trkpt>
      <trkpt lat="47.4964" lon="3.8494">
        <ele>198</ele>
        <time>2019-04-05T10:54:15Z</time>
      </trkpt>
      <trkpt lat="47.49637" lon="3.84945">
        <ele>199</ele>
        <time>2019-04-05T10:54:19Z</time>
      </trkpt>
      <trkpt lat="47.49635" lon="3.84952">
        <ele>198</ele>
        <time>2019-04-05T10:54:22Z</time>
      </trkpt>
      <trkpt lat="47.49632" lon="3.84958">
        <ele>197</ele>
        <time>2019-04-05T10:54:26Z</time>
      </trkpt>
      <trkpt lat="47.49631" lon="3.84961">
        <ele>197</ele>
        <time>2019-04-05T10:54:28Z</time>
      </trkpt>
      <trkpt lat="47.49628" lon="3.84967">
        <ele>196</ele>
        <time>2019-04-05T10:54:31Z</time>
      </trkpt>
      <trkpt lat="47.49627" lon="3.8497">
        <ele>197</ele>
        <time>2019-04-05T10:54:33Z</time>
      </trkpt>
      <trkpt lat="47.49626" lon="3.84976">
        <ele>196</ele>
        <time>2019-04-05T10:54:36Z</time>
      </trkpt>
      <trkpt lat="47.49624" lon="3.84979">
        <ele>197</ele>
        <time>2019-04-05T10:54:39Z</time>
      </trkpt>
      <trkpt lat="47.49623" lon="3.84982">
        <ele>197</ele>
        <time>2019-04-05T10:54:41Z</time>
      </trkpt>
      <trkpt lat="47.49621" lon="3.84989">
        <ele>197</ele>
        <time>2019-04-05T10:54:45Z</time>
      </trkpt>
      <trkpt lat="47.4962" lon="3.84993">
        <ele>197</ele>
        <time>2019-04-05T10:54:48Z</time>
      </trkpt>
      <trkpt lat="47.49619" lon="3.84998">
        <ele>196</ele>
        <time>2019-04-05T10:54:51Z</time>
      </trkpt>
      <trkpt lat="47.49619" lon="3.85005">
        <ele>196</ele>
        <time>2019-04-05T10:54:56Z</time>
      </trkpt>
      <trkpt lat="47.49618" lon="3.85014">
        <ele>195</ele>
        <time>2019-04-05T10:55:03Z</time>
      </trkpt>
      <trkpt lat="47.49618" lon="3.85014">
        <ele>195</ele>
        <time>2019-04-05T10:55:11Z</time>
      </trkpt>
      <trkpt lat="47.49615" lon="3.85025">
        <ele>195</ele>
        <time>2019-04-05T10:55:14Z</time>
      </trkpt>
      <trkpt lat="47.49614" lon="3.8503">
        <ele>195</ele>
        <time>2019-04-05T10:55:18Z</time>
      </trkpt>
      <trkpt lat="47.49613" lon="3.85034">
        <ele>195</ele>
        <time>2019-04-05T10:55:21Z</time>
      </trkpt>
      <trkpt lat="47.49613" lon="3.85038">
        <ele>195</ele>
        <time>2019-04-05T10:55:23Z</time>
      </trkpt>
      <trkpt lat="47.49612" lon="3.85042">
        <ele>195</ele>
        <time>2019-04-05T10:55:25Z</time>
      </trkpt>
      <trkpt lat="47.49611" lon="3.8505">
        <ele>195</ele>
        <time>2019-04-05T10:55:30Z</time>
      </trkpt>
      <trkpt lat="47.4961" lon="3.85058">
        <ele>195</ele>
        <time>2019-04-05T10:55:34Z</time>
      </trkpt>
      <trkpt lat="47.49609" lon="3.85063">
        <ele>195</ele>
        <time>2019-04-05T10:55:37Z</time>
      </trkpt>
      <trkpt lat="47.49609" lon="3.85067">
        <ele>196</ele>
        <time>2019-04-05T10:55:39Z</time>
      </trkpt>
      <trkpt lat="47.49609" lon="3.85074">
        <ele>195</ele>
        <time>2019-04-05T10:55:43Z</time>
      </trkpt>
      <trkpt lat="47.49607" lon="3.85083">
        <ele>194</ele>
        <time>2019-04-05T10:55:48Z</time>
      </trkpt>
      <trkpt lat="47.49607" lon="3.85086">
        <ele>195</ele>
        <time>2019-04-05T10:55:50Z</time>
      </trkpt>
      <trkpt lat="47.49605" lon="3.85092">
        <ele>195</ele>
        <time>2019-04-05T10:55:53Z</time>
      </trkpt>
      <trkpt lat="47.49606" lon="3.85094">
        <ele>194</ele>
        <time>2019-04-05T10:56:02Z</time>
      </trkpt>
      <trkpt lat="47.49602" lon="3.85103">
        <ele>194</ele>
        <time>2019-04-05T10:56:16Z</time>
      </trkpt>
      <trkpt lat="47.496" lon="3.85111">
        <ele>194</ele>
        <time>2019-04-05T10:56:21Z</time>
      </trkpt>
      <trkpt lat="47.49599" lon="3.85117">
        <ele>195</ele>
        <time>2019-04-05T10:56:25Z</time>
      </trkpt>
      <trkpt lat="47.49597" lon="3.85122">
        <ele>196</ele>
        <time>2019-04-05T10:56:28Z</time>
      </trkpt>
      <trkpt lat="47.49596" lon="3.85129">
        <ele>195</ele>
        <time>2019-04-05T10:56:32Z</time>
      </trkpt>
      <trkpt lat="47.49596" lon="3.85133">
        <ele>195</ele>
        <time>2019-04-05T10:56:34Z</time>
      </trkpt>
      <trkpt lat="47.49596" lon="3.8514">
        <ele>197</ele>
        <time>2019-04-05T10:56:38Z</time>
      </trkpt>
      <trkpt lat="47.49594" lon="3.85147">
        <ele>197</ele>
        <time>2019-04-05T10:56:43Z</time>
      </trkpt>
      <trkpt lat="47.49592" lon="3.85155">
        <ele>196</ele>
        <time>2019-04-05T10:56:46Z</time>
      </trkpt>
      <trkpt lat="47.49592" lon="3.85162">
        <ele>195</ele>
        <time>2019-04-05T10:56:51Z</time>
      </trkpt>
      <trkpt lat="47.49591" lon="3.8517">
        <ele>197</ele>
        <time>2019-04-05T10:56:55Z</time>
      </trkpt>
      <trkpt lat="47.49591" lon="3.85174">
        <ele>197</ele>
        <time>2019-04-05T10:56:57Z</time>
      </trkpt>
      <trkpt lat="47.49591" lon="3.85179">
        <ele>197</ele>
        <time>2019-04-05T10:57:00Z</time>
      </trkpt>
      <trkpt lat="47.4959" lon="3.85184">
        <ele>196</ele>
        <time>2019-04-05T10:57:03Z</time>
      </trkpt>
      <trkpt lat="47.49589" lon="3.85192">
        <ele>195</ele>
        <time>2019-04-05T10:57:08Z</time>
      </trkpt>
      <trkpt lat="47.49589" lon="3.85196">
        <ele>195</ele>
        <time>2019-04-05T10:57:10Z</time>
      </trkpt>
      <trkpt lat="47.49588" lon="3.85201">
        <ele>193</ele>
        <time>2019-04-05T10:57:12Z</time>
      </trkpt>
      <trkpt lat="47.49587" lon="3.85209">
        <ele>193</ele>
        <time>2019-04-05T10:57:16Z</time>
      </trkpt>
      <trkpt lat="47.49588" lon="3.85216">
        <ele>192</ele>
        <time>2019-04-05T10:57:21Z</time>
      </trkpt>
      <trkpt lat="47.49587" lon="3.85217">
        <ele>191</ele>
        <time>2019-04-05T10:57:30Z</time>
      </trkpt>
      <trkpt lat="47.49585" lon="3.85223">
        <ele>192</ele>
        <time>2019-04-05T10:57:35Z</time>
      </trkpt>
      <trkpt lat="47.49584" lon="3.85232">
        <ele>193</ele>
        <time>2019-04-05T10:57:40Z</time>
      </trkpt>
      <trkpt lat="47.49583" lon="3.85238">
        <ele>194</ele>
        <time>2019-04-05T10:57:45Z</time>
      </trkpt>
      <trkpt lat="47.49581" lon="3.85242">
        <ele>193</ele>
        <time>2019-04-05T10:57:47Z</time>
      </trkpt>
      <trkpt lat="47.49581" lon="3.8525">
        <ele>194</ele>
        <time>2019-04-05T10:57:51Z</time>
      </trkpt>
      <trkpt lat="47.49579" lon="3.85257">
        <ele>193</ele>
        <time>2019-04-05T10:57:55Z</time>
      </trkpt>
      <trkpt lat="47.49578" lon="3.85261">
        <ele>192</ele>
        <time>2019-04-05T10:57:57Z</time>
      </trkpt>
      <trkpt lat="47.49578" lon="3.85265">
        <ele>192</ele>
        <time>2019-04-05T10:58:00Z</time>
      </trkpt>
      <trkpt lat="47.49576" lon="3.85274">
        <ele>192</ele>
        <time>2019-04-05T10:58:04Z</time>
      </trkpt>
      <trkpt lat="47.49576" lon="3.85278">
        <ele>193</ele>
        <time>2019-04-05T10:58:06Z</time>
      </trkpt>
      <trkpt lat="47.49575" lon="3.85282">
        <ele>193</ele>
        <time>2019-04-05T10:58:08Z</time>
      </trkpt>
      <trkpt lat="47.49574" lon="3.85286">
        <ele>193</ele>
        <time>2019-04-05T10:58:11Z</time>
      </trkpt>
      <trkpt lat="47.49573" lon="3.85292">
        <ele>193</ele>
        <time>2019-04-05T10:58:15Z</time>
      </trkpt>
      <trkpt lat="47.49574" lon="3.85299">
        <ele>192</ele>
        <time>2019-04-05T10:58:20Z</time>
      </trkpt>
      <trkpt lat="47.49572" lon="3.85306">
        <ele>192</ele>
        <time>2019-04-05T10:58:25Z</time>
      </trkpt>
      <trkpt lat="47.49569" lon="3.85314">
        <ele>193</ele>
        <time>2019-04-05T10:58:29Z</time>
      </trkpt>
      <trkpt lat="47.49571" lon="3.85318">
        <ele>192</ele>
        <time>2019-04-05T10:58:37Z</time>
      </trkpt>
      <trkpt lat="47.49564" lon="3.85333">
        <ele>182</ele>
        <time>2019-04-05T11:01:41Z</time>
      </trkpt>
      <trkpt lat="47.49558" lon="3.85331">
        <ele>183</ele>
        <time>2019-04-05T11:01:45Z</time>
      </trkpt>
      <trkpt lat="47.49553" lon="3.85334">
        <ele>185</ele>
        <time>2019-04-05T11:01:49Z</time>
      </trkpt>
      <trkpt lat="47.49551" lon="3.85335">
        <ele>186</ele>
        <time>2019-04-05T11:01:51Z</time>
      </trkpt>
      <trkpt lat="47.49548" lon="3.8534">
        <ele>189</ele>
        <time>2019-04-05T11:01:55Z</time>
      </trkpt>
      <trkpt lat="47.49545" lon="3.85347">
        <ele>189</ele>
        <time>2019-04-05T11:01:59Z</time>
      </trkpt>
      <trkpt lat="47.49541" lon="3.85353">
        <ele>190</ele>
        <time>2019-04-05T11:02:03Z</time>
      </trkpt>
      <trkpt lat="47.49539" lon="3.85359">
        <ele>190</ele>
        <time>2019-04-05T11:02:07Z</time>
      </trkpt>
      <trkpt lat="47.49538" lon="3.85366">
        <ele>189</ele>
        <time>2019-04-05T11:02:11Z</time>
      </trkpt>
      <trkpt lat="47.49535" lon="3.85372">
        <ele>188</ele>
        <time>2019-04-05T11:02:17Z</time>
      </trkpt>
      <trkpt lat="47.49532" lon="3.85379">
        <ele>190</ele>
        <time>2019-04-05T11:02:23Z</time>
      </trkpt>
      <trkpt lat="47.49531" lon="3.85383">
        <ele>189</ele>
        <time>2019-04-05T11:02:26Z</time>
      </trkpt>
      <trkpt lat="47.49529" lon="3.85391">
        <ele>192</ele>
        <time>2019-04-05T11:02:33Z</time>
      </trkpt>
      <trkpt lat="47.49526" lon="3.854">
        <ele>191</ele>
        <time>2019-04-05T11:02:38Z</time>
      </trkpt>
      <trkpt lat="47.49525" lon="3.85404">
        <ele>193</ele>
        <time>2019-04-05T11:02:41Z</time>
      </trkpt>
      <trkpt lat="47.49522" lon="3.85409">
        <ele>193</ele>
        <time>2019-04-05T11:02:45Z</time>
      </trkpt>
      <trkpt lat="47.49519" lon="3.85415">
        <ele>193</ele>
        <time>2019-04-05T11:02:50Z</time>
      </trkpt>
      <trkpt lat="47.49518" lon="3.85421">
        <ele>192</ele>
        <time>2019-04-05T11:02:54Z</time>
      </trkpt>
      <trkpt lat="47.49516" lon="3.85426">
        <ele>192</ele>
        <time>2019-04-05T11:02:57Z</time>
      </trkpt>
      <trkpt lat="47.49515" lon="3.8543">
        <ele>193</ele>
        <time>2019-04-05T11:03:00Z</time>
      </trkpt>
      <trkpt lat="47.49513" lon="3.85436">
        <ele>193</ele>
        <time>2019-04-05T11:03:05Z</time>
      </trkpt>
      <trkpt lat="47.49511" lon="3.85439">
        <ele>193</ele>
        <time>2019-04-05T11:03:07Z</time>
      </trkpt>
      <trkpt lat="47.49509" lon="3.85445">
        <ele>192</ele>
        <time>2019-04-05T11:03:11Z</time>
      </trkpt>
      <trkpt lat="47.49506" lon="3.85452">
        <ele>191</ele>
        <time>2019-04-05T11:03:16Z</time>
      </trkpt>
      <trkpt lat="47.49504" lon="3.85458">
        <ele>189</ele>
        <time>2019-04-05T11:03:20Z</time>
      </trkpt>
      <trkpt lat="47.49501" lon="3.85464">
        <ele>190</ele>
        <time>2019-04-05T11:03:23Z</time>
      </trkpt>
      <trkpt lat="47.49499" lon="3.85471">
        <ele>190</ele>
        <time>2019-04-05T11:03:28Z</time>
      </trkpt>
      <trkpt lat="47.49495" lon="3.85476">
        <ele>191</ele>
        <time>2019-04-05T11:03:32Z</time>
      </trkpt>
      <trkpt lat="47.49493" lon="3.85483">
        <ele>191</ele>
        <time>2019-04-05T11:03:37Z</time>
      </trkpt>
      <trkpt lat="47.49491" lon="3.85491">
        <ele>191</ele>
        <time>2019-04-05T11:03:42Z</time>
      </trkpt>
      <trkpt lat="47.4949" lon="3.85494">
        <ele>191</ele>
        <time>2019-04-05T11:03:44Z</time>
      </trkpt>
      <trkpt lat="47.49487" lon="3.855">
        <ele>191</ele>
        <time>2019-04-05T11:03:48Z</time>
      </trkpt>
      <trkpt lat="47.49485" lon="3.85508">
        <ele>192</ele>
        <time>2019-04-05T11:03:54Z</time>
      </trkpt>
      <trkpt lat="47.49482" lon="3.85513">
        <ele>193</ele>
        <time>2019-04-05T11:04:00Z</time>
      </trkpt>
      <trkpt lat="47.4948" lon="3.8552">
        <ele>194</ele>
        <time>2019-04-05T11:04:04Z</time>
      </trkpt>
      <trkpt lat="47.49477" lon="3.85527">
        <ele>194</ele>
        <time>2019-04-05T11:04:09Z</time>
      </trkpt>
      <trkpt lat="47.49475" lon="3.85532">
        <ele>194</ele>
        <time>2019-04-05T11:04:13Z</time>
      </trkpt>
      <trkpt lat="47.49473" lon="3.85537">
        <ele>194</ele>
        <time>2019-04-05T11:04:16Z</time>
      </trkpt>
      <trkpt lat="47.4947" lon="3.85542">
        <ele>194</ele>
        <time>2019-04-05T11:04:21Z</time>
      </trkpt>
      <trkpt lat="47.49468" lon="3.85544">
        <ele>194</ele>
        <time>2019-04-05T11:04:24Z</time>
      </trkpt>
      <trkpt lat="47.49466" lon="3.85547">
        <ele>194</ele>
        <time>2019-04-05T11:04:26Z</time>
      </trkpt>
      <trkpt lat="47.49463" lon="3.85554">
        <ele>194</ele>
        <time>2019-04-05T11:04:31Z</time>
      </trkpt>
      <trkpt lat="47.49461" lon="3.85559">
        <ele>193</ele>
        <time>2019-04-05T11:04:34Z</time>
      </trkpt>
      <trkpt lat="47.49458" lon="3.85565">
        <ele>195</ele>
        <time>2019-04-05T11:04:38Z</time>
      </trkpt>
      <trkpt lat="47.49455" lon="3.85571">
        <ele>195</ele>
        <time>2019-04-05T11:04:43Z</time>
      </trkpt>
      <trkpt lat="47.49453" lon="3.85577">
        <ele>196</ele>
        <time>2019-04-05T11:04:47Z</time>
      </trkpt>
      <trkpt lat="47.49451" lon="3.85585">
        <ele>196</ele>
        <time>2019-04-05T11:04:52Z</time>
      </trkpt>
      <trkpt lat="47.4945" lon="3.85593">
        <ele>197</ele>
        <time>2019-04-05T11:04:56Z</time>
      </trkpt>
      <trkpt lat="47.49446" lon="3.85599">
        <ele>197</ele>
        <time>2019-04-05T11:05:00Z</time>
      </trkpt>
      <trkpt lat="47.49444" lon="3.85605">
        <ele>197</ele>
        <time>2019-04-05T11:05:03Z</time>
      </trkpt>
      <trkpt lat="47.49439" lon="3.8561">
        <ele>197</ele>
        <time>2019-04-05T11:05:09Z</time>
      </trkpt>
      <trkpt lat="47.49437" lon="3.85613">
        <ele>197</ele>
        <time>2019-04-05T11:05:11Z</time>
      </trkpt>
      <trkpt lat="47.49436" lon="3.85615">
        <ele>197</ele>
        <time>2019-04-05T11:05:13Z</time>
      </trkpt>
      <trkpt lat="47.49433" lon="3.85618">
        <ele>197</ele>
        <time>2019-04-05T11:05:16Z</time>
      </trkpt>
      <trkpt lat="47.49428" lon="3.85621">
        <ele>198</ele>
        <time>2019-04-05T11:05:21Z</time>
      </trkpt>
      <trkpt lat="47.49423" lon="3.85624">
        <ele>199</ele>
        <time>2019-04-05T11:05:26Z</time>
      </trkpt>
      <trkpt lat="47.4942" lon="3.85626">
        <ele>199</ele>
        <time>2019-04-05T11:05:29Z</time>
      </trkpt>
      <trkpt lat="47.49415" lon="3.85627">
        <ele>198</ele>
        <time>2019-04-05T11:05:33Z</time>
      </trkpt>
      <trkpt lat="47.49412" lon="3.85627">
        <ele>198</ele>
        <time>2019-04-05T11:05:37Z</time>
      </trkpt>
      <trkpt lat="47.49406" lon="3.85626">
        <ele>199</ele>
        <time>2019-04-05T11:05:42Z</time>
      </trkpt>
      <trkpt lat="47.49404" lon="3.85626">
        <ele>200</ele>
        <time>2019-04-05T11:05:44Z</time>
      </trkpt>
      <trkpt lat="47.49397" lon="3.85625">
        <ele>201</ele>
        <time>2019-04-05T11:05:49Z</time>
      </trkpt>
      <trkpt lat="47.49392" lon="3.85626">
        <ele>201</ele>
        <time>2019-04-05T11:05:53Z</time>
      </trkpt>
      <trkpt lat="47.49387" lon="3.85624">
        <ele>201</ele>
        <time>2019-04-05T11:05:58Z</time>
      </trkpt>
      <trkpt lat="47.49383" lon="3.85624">
        <ele>201</ele>
        <time>2019-04-05T11:06:01Z</time>
      </trkpt>
      <trkpt lat="47.49378" lon="3.85624">
        <ele>202</ele>
        <time>2019-04-05T11:06:06Z</time>
      </trkpt>
      <trkpt lat="47.49373" lon="3.85624">
        <ele>202</ele>
        <time>2019-04-05T11:06:10Z</time>
      </trkpt>
      <trkpt lat="47.4937" lon="3.85623">
        <ele>203</ele>
        <time>2019-04-05T11:06:12Z</time>
      </trkpt>
      <trkpt lat="47.49368" lon="3.85623">
        <ele>203</ele>
        <time>2019-04-05T11:06:14Z</time>
      </trkpt>
      <trkpt lat="47.49364" lon="3.85622">
        <ele>202</ele>
        <time>2019-04-05T11:06:16Z</time>
      </trkpt>
      <trkpt lat="47.49359" lon="3.85621">
        <ele>202</ele>
        <time>2019-04-05T11:06:21Z</time>
      </trkpt>
      <trkpt lat="47.49352" lon="3.85621">
        <ele>202</ele>
        <time>2019-04-05T11:06:26Z</time>
      </trkpt>
      <trkpt lat="47.49347" lon="3.85622">
        <ele>202</ele>
        <time>2019-04-05T11:06:31Z</time>
      </trkpt>
      <trkpt lat="47.4934" lon="3.85621">
        <ele>202</ele>
        <time>2019-04-05T11:06:36Z</time>
      </trkpt>
      <trkpt lat="47.49338" lon="3.8562">
        <ele>202</ele>
        <time>2019-04-05T11:06:39Z</time>
      </trkpt>
      <trkpt lat="47.49333" lon="3.85621">
        <ele>202</ele>
        <time>2019-04-05T11:06:43Z</time>
      </trkpt>
      <trkpt lat="47.49329" lon="3.85621">
        <ele>203</ele>
        <time>2019-04-05T11:06:47Z</time>
      </trkpt>
      <trkpt lat="47.49325" lon="3.85622">
        <ele>201</ele>
        <time>2019-04-05T11:06:50Z</time>
      </trkpt>
      <trkpt lat="47.49323" lon="3.85622">
        <ele>201</ele>
        <time>2019-04-05T11:06:52Z</time>
      </trkpt>
      <trkpt lat="47.49319" lon="3.85621">
        <ele>201</ele>
        <time>2019-04-05T11:06:55Z</time>
      </trkpt>
      <trkpt lat="47.49317" lon="3.85621">
        <ele>202</ele>
        <time>2019-04-05T11:06:57Z</time>
      </trkpt>
      <trkpt lat="47.49312" lon="3.85621">
        <ele>202</ele>
        <time>2019-04-05T11:07:01Z</time>
      </trkpt>
      <trkpt lat="47.49308" lon="3.85621">
        <ele>203</ele>
        <time>2019-04-05T11:07:04Z</time>
      </trkpt>
      <trkpt lat="47.49304" lon="3.85621">
        <ele>204</ele>
        <time>2019-04-05T11:07:07Z</time>
      </trkpt>
      <trkpt lat="47.49297" lon="3.8562">
        <ele>203</ele>
        <time>2019-04-05T11:07:13Z</time>
      </trkpt>
      <trkpt lat="47.49291" lon="3.8562">
        <ele>203</ele>
        <time>2019-04-05T11:07:17Z</time>
      </trkpt>
      <trkpt lat="47.49288" lon="3.8562">
        <ele>204</ele>
        <time>2019-04-05T11:07:20Z</time>
      </trkpt>
      <trkpt lat="47.49284" lon="3.8562">
        <ele>206</ele>
        <time>2019-04-05T11:07:23Z</time>
      </trkpt>
      <trkpt lat="47.49279" lon="3.85621">
        <ele>205</ele>
        <time>2019-04-05T11:07:27Z</time>
      </trkpt>
      <trkpt lat="47.49273" lon="3.8562">
        <ele>206</ele>
        <time>2019-04-05T11:07:31Z</time>
      </trkpt>
      <trkpt lat="47.49269" lon="3.8562">
        <ele>206</ele>
        <time>2019-04-05T11:07:35Z</time>
      </trkpt>
      <trkpt lat="47.49264" lon="3.8562">
        <ele>207</ele>
        <time>2019-04-05T11:07:39Z</time>
      </trkpt>
      <trkpt lat="47.49261" lon="3.8562">
        <ele>207</ele>
        <time>2019-04-05T11:07:41Z</time>
      </trkpt>
      <trkpt lat="47.49258" lon="3.8562">
        <ele>208</ele>
        <time>2019-04-05T11:07:43Z</time>
      </trkpt>
      <trkpt lat="47.49252" lon="3.8562">
        <ele>206</ele>
        <time>2019-04-05T11:07:48Z</time>
      </trkpt>
      <trkpt lat="47.49249" lon="3.8562">
        <ele>207</ele>
        <time>2019-04-05T11:07:51Z</time>
      </trkpt>
      <trkpt lat="47.49245" lon="3.85621">
        <ele>207</ele>
        <time>2019-04-05T11:07:53Z</time>
      </trkpt>
      <trkpt lat="47.49243" lon="3.85621">
        <ele>207</ele>
        <time>2019-04-05T11:07:55Z</time>
      </trkpt>
      <trkpt lat="47.4924" lon="3.85621">
        <ele>208</ele>
        <time>2019-04-05T11:07:57Z</time>
      </trkpt>
      <trkpt lat="47.49234" lon="3.85623">
        <ele>208</ele>
        <time>2019-04-05T11:08:02Z</time>
      </trkpt>
      <trkpt lat="47.4923" lon="3.85625">
        <ele>209</ele>
        <time>2019-04-05T11:08:05Z</time>
      </trkpt>
      <trkpt lat="47.49225" lon="3.85626">
        <ele>209</ele>
        <time>2019-04-05T11:08:09Z</time>
      </trkpt>
      <trkpt lat="47.49221" lon="3.85626">
        <ele>210</ele>
        <time>2019-04-05T11:08:12Z</time>
      </trkpt>
      <trkpt lat="47.49216" lon="3.8563">
        <ele>209</ele>
        <time>2019-04-05T11:08:16Z</time>
      </trkpt>
      <trkpt lat="47.4921" lon="3.85632">
        <ele>209</ele>
        <time>2019-04-05T11:08:20Z</time>
      </trkpt>
      <trkpt lat="47.49205" lon="3.85634">
        <ele>209</ele>
        <time>2019-04-05T11:08:25Z</time>
      </trkpt>
      <trkpt lat="47.49203" lon="3.85636">
        <ele>210</ele>
        <time>2019-04-05T11:08:27Z</time>
      </trkpt>
      <trkpt lat="47.492" lon="3.85637">
        <ele>209</ele>
        <time>2019-04-05T11:08:29Z</time>
      </trkpt>
      <trkpt lat="47.49198" lon="3.85638">
        <ele>209</ele>
        <time>2019-04-05T11:08:31Z</time>
      </trkpt>
      <trkpt lat="47.49195" lon="3.8564">
        <ele>209</ele>
        <time>2019-04-05T11:08:34Z</time>
      </trkpt>
      <trkpt lat="47.49192" lon="3.85641">
        <ele>210</ele>
        <time>2019-04-05T11:08:36Z</time>
      </trkpt>
      <trkpt lat="47.49189" lon="3.85643">
        <ele>210</ele>
        <time>2019-04-05T11:08:39Z</time>
      </trkpt>
      <trkpt lat="47.49186" lon="3.85644">
        <ele>210</ele>
        <time>2019-04-05T11:08:41Z</time>
      </trkpt>
      <trkpt lat="47.49184" lon="3.85645">
        <ele>210</ele>
        <time>2019-04-05T11:08:43Z</time>
      </trkpt>
      <trkpt lat="47.49179" lon="3.85648">
        <ele>210</ele>
        <time>2019-04-05T11:08:46Z</time>
      </trkpt>
      <trkpt lat="47.49177" lon="3.8565">
        <ele>210</ele>
        <time>2019-04-05T11:08:48Z</time>
      </trkpt>
      <trkpt lat="47.49175" lon="3.85652">
        <ele>210</ele>
        <time>2019-04-05T11:08:50Z</time>
      </trkpt>
      <trkpt lat="47.49171" lon="3.85655">
        <ele>211</ele>
        <time>2019-04-05T11:08:55Z</time>
      </trkpt>
      <trkpt lat="47.49165" lon="3.85659">
        <ele>213</ele>
        <time>2019-04-05T11:09:02Z</time>
      </trkpt>
      <trkpt lat="47.4916" lon="3.85666">
        <ele>214</ele>
        <time>2019-04-05T11:09:07Z</time>
      </trkpt>
      <trkpt lat="47.49157" lon="3.85671">
        <ele>213</ele>
        <time>2019-04-05T11:09:10Z</time>
      </trkpt>
      <trkpt lat="47.49153" lon="3.85677">
        <ele>213</ele>
        <time>2019-04-05T11:09:15Z</time>
      </trkpt>
      <trkpt lat="47.49149" lon="3.85681">
        <ele>212</ele>
        <time>2019-04-05T11:09:18Z</time>
      </trkpt>
      <trkpt lat="47.49145" lon="3.85684">
        <ele>212</ele>
        <time>2019-04-05T11:09:22Z</time>
      </trkpt>
      <trkpt lat="47.49141" lon="3.85689">
        <ele>214</ele>
        <time>2019-04-05T11:09:26Z</time>
      </trkpt>
      <trkpt lat="47.49138" lon="3.85695">
        <ele>214</ele>
        <time>2019-04-05T11:09:30Z</time>
      </trkpt>
      <trkpt lat="47.49134" lon="3.85699">
        <ele>214</ele>
        <time>2019-04-05T11:09:33Z</time>
      </trkpt>
      <trkpt lat="47.49133" lon="3.85701">
        <ele>214</ele>
        <time>2019-04-05T11:09:35Z</time>
      </trkpt>
      <trkpt lat="47.49129" lon="3.85705">
        <ele>214</ele>
        <time>2019-04-05T11:09:38Z</time>
      </trkpt>
      <trkpt lat="47.49125" lon="3.85712">
        <ele>213</ele>
        <time>2019-04-05T11:09:43Z</time>
      </trkpt>
      <trkpt lat="47.49122" lon="3.85717">
        <ele>213</ele>
        <time>2019-04-05T11:09:46Z</time>
      </trkpt>
      <trkpt lat="47.49117" lon="3.85722">
        <ele>213</ele>
        <time>2019-04-05T11:09:51Z</time>
      </trkpt>
      <trkpt lat="47.49113" lon="3.85725">
        <ele>214</ele>
        <time>2019-04-05T11:09:55Z</time>
      </trkpt>
      <trkpt lat="47.49111" lon="3.85728">
        <ele>214</ele>
        <time>2019-04-05T11:09:57Z</time>
      </trkpt>
      <trkpt lat="47.49108" lon="3.85733">
        <ele>214</ele>
        <time>2019-04-05T11:10:01Z</time>
      </trkpt>
      <trkpt lat="47.49106" lon="3.85735">
        <ele>214</ele>
        <time>2019-04-05T11:10:03Z</time>
      </trkpt>
      <trkpt lat="47.49103" lon="3.85739">
        <ele>213</ele>
        <time>2019-04-05T11:10:06Z</time>
      </trkpt>
      <trkpt lat="47.49099" lon="3.85745">
        <ele>214</ele>
        <time>2019-04-05T11:10:10Z</time>
      </trkpt>
      <trkpt lat="47.49095" lon="3.8575">
        <ele>215</ele>
        <time>2019-04-05T11:10:14Z</time>
      </trkpt>
      <trkpt lat="47.49091" lon="3.85755">
        <ele>215</ele>
        <time>2019-04-05T11:10:19Z</time>
      </trkpt>
      <trkpt lat="47.49087" lon="3.85759">
        <ele>213</ele>
        <time>2019-04-05T11:10:23Z</time>
      </trkpt>
      <trkpt lat="47.49085" lon="3.85762">
        <ele>213</ele>
        <time>2019-04-05T11:10:25Z</time>
      </trkpt>
      <trkpt lat="47.49081" lon="3.85767">
        <ele>212</ele>
        <time>2019-04-05T11:10:29Z</time>
      </trkpt>
      <trkpt lat="47.4908" lon="3.85771">
        <ele>211</ele>
        <time>2019-04-05T11:10:31Z</time>
      </trkpt>
      <trkpt lat="47.49076" lon="3.85774">
        <ele>211</ele>
        <time>2019-04-05T11:10:35Z</time>
      </trkpt>
      <trkpt lat="47.49072" lon="3.85778">
        <ele>211</ele>
        <time>2019-04-05T11:10:38Z</time>
      </trkpt>
      <trkpt lat="47.49068" lon="3.85783">
        <ele>213</ele>
        <time>2019-04-05T11:10:42Z</time>
      </trkpt>
      <trkpt lat="47.49064" lon="3.85787">
        <ele>213</ele>
        <time>2019-04-05T11:10:47Z</time>
      </trkpt>
      <trkpt lat="47.4906" lon="3.85791">
        <ele>214</ele>
        <time>2019-04-05T11:10:51Z</time>
      </trkpt>
      <trkpt lat="47.49056" lon="3.85795">
        <ele>214</ele>
        <time>2019-04-05T11:10:55Z</time>
      </trkpt>
      <trkpt lat="47.49053" lon="3.85799">
        <ele>215</ele>
        <time>2019-04-05T11:10:58Z</time>
      </trkpt>
      <trkpt lat="47.49051" lon="3.85802">
        <ele>213</ele>
        <time>2019-04-05T11:11:01Z</time>
      </trkpt>
      <trkpt lat="47.49047" lon="3.85808">
        <ele>214</ele>
        <time>2019-04-05T11:11:05Z</time>
      </trkpt>
      <trkpt lat="47.49045" lon="3.85812">
        <ele>215</ele>
        <time>2019-04-05T11:11:08Z</time>
      </trkpt>
      <trkpt lat="47.49041" lon="3.85816">
        <ele>215</ele>
        <time>2019-04-05T11:11:11Z</time>
      </trkpt>
      <trkpt lat="47.4904" lon="3.85818">
        <ele>215</ele>
        <time>2019-04-05T11:11:13Z</time>
      </trkpt>
      <trkpt lat="47.49036" lon="3.85822">
        <ele>215</ele>
        <time>2019-04-05T11:11:16Z</time>
      </trkpt>
      <trkpt lat="47.49032" lon="3.85827">
        <ele>216</ele>
        <time>2019-04-05T11:11:21Z</time>
      </trkpt>
      <trkpt lat="47.49031" lon="3.8583">
        <ele>216</ele>
        <time>2019-04-05T11:11:23Z</time>
      </trkpt>
      <trkpt lat="47.49029" lon="3.85834">
        <ele>216</ele>
        <time>2019-04-05T11:11:26Z</time>
      </trkpt>
      <trkpt lat="47.49025" lon="3.85838">
        <ele>218</ele>
        <time>2019-04-05T11:11:31Z</time>
      </trkpt>
      <trkpt lat="47.49025" lon="3.85846">
        <ele>218</ele>
        <time>2019-04-05T11:11:38Z</time>
      </trkpt>
      <trkpt lat="47.49029" lon="3.85851">
        <ele>220</ele>
        <time>2019-04-05T11:11:44Z</time>
      </trkpt>
      <trkpt lat="47.49032" lon="3.85857">
        <ele>221</ele>
        <time>2019-04-05T11:11:48Z</time>
      </trkpt>
      <trkpt lat="47.49035" lon="3.85862">
        <ele>219</ele>
        <time>2019-04-05T11:11:52Z</time>
      </trkpt>
      <trkpt lat="47.49035" lon="3.85869">
        <ele>218</ele>
        <time>2019-04-05T11:11:58Z</time>
      </trkpt>
      <trkpt lat="47.49037" lon="3.8587">
        <ele>218</ele>
        <time>2019-04-05T11:12:06Z</time>
      </trkpt>
      <trkpt lat="47.49027" lon="3.85845">
        <ele>217</ele>
        <time>2019-04-05T11:14:30Z</time>
      </trkpt>
      <trkpt lat="47.49019" lon="3.85848">
        <ele>217</ele>
        <time>2019-04-05T11:14:43Z</time>
      </trkpt>
      <trkpt lat="47.49016" lon="3.85855">
        <ele>217</ele>
        <time>2019-04-05T11:15:00Z</time>
      </trkpt>
      <trkpt lat="47.49012" lon="3.85859">
        <ele>218</ele>
        <time>2019-04-05T11:15:05Z</time>
      </trkpt>
      <trkpt lat="47.49009" lon="3.85862">
        <ele>218</ele>
        <time>2019-04-05T11:15:09Z</time>
      </trkpt>
      <trkpt lat="47.49004" lon="3.85866">
        <ele>217</ele>
        <time>2019-04-05T11:15:13Z</time>
      </trkpt>
      <trkpt lat="47.49002" lon="3.85872">
        <ele>216</ele>
        <time>2019-04-05T11:15:18Z</time>
      </trkpt>
      <trkpt lat="47.48998" lon="3.8588">
        <ele>218</ele>
        <time>2019-04-05T11:15:25Z</time>
      </trkpt>
      <trkpt lat="47.48995" lon="3.85885">
        <ele>218</ele>
        <time>2019-04-05T11:15:29Z</time>
      </trkpt>
      <trkpt lat="47.48993" lon="3.85887">
        <ele>219</ele>
        <time>2019-04-05T11:15:31Z</time>
      </trkpt>
      <trkpt lat="47.48988" lon="3.85892">
        <ele>219</ele>
        <time>2019-04-05T11:15:36Z</time>
      </trkpt>
      <trkpt lat="47.48985" lon="3.85897">
        <ele>218</ele>
        <time>2019-04-05T11:15:40Z</time>
      </trkpt>
      <trkpt lat="47.48983" lon="3.859">
        <ele>218</ele>
        <time>2019-04-05T11:15:42Z</time>
      </trkpt>
      <trkpt lat="47.4898" lon="3.85908">
        <ele>219</ele>
        <time>2019-04-05T11:15:48Z</time>
      </trkpt>
      <trkpt lat="47.48977" lon="3.85915">
        <ele>221</ele>
        <time>2019-04-05T11:15:52Z</time>
      </trkpt>
      <trkpt lat="47.48976" lon="3.85924">
        <ele>221</ele>
        <time>2019-04-05T11:15:57Z</time>
      </trkpt>
      <trkpt lat="47.48977" lon="3.85932">
        <ele>220</ele>
        <time>2019-04-05T11:16:01Z</time>
      </trkpt>
      <trkpt lat="47.48976" lon="3.85941">
        <ele>219</ele>
        <time>2019-04-05T11:16:05Z</time>
      </trkpt>
      <trkpt lat="47.48974" lon="3.85947">
        <ele>220</ele>
        <time>2019-04-05T11:16:09Z</time>
      </trkpt>
      <trkpt lat="47.48969" lon="3.8595">
        <ele>220</ele>
        <time>2019-04-05T11:16:13Z</time>
      </trkpt>
      <trkpt lat="47.48967" lon="3.85958">
        <ele>222</ele>
        <time>2019-04-05T11:16:17Z</time>
      </trkpt>
      <trkpt lat="47.48966" lon="3.85966">
        <ele>221</ele>
        <time>2019-04-05T11:16:21Z</time>
      </trkpt>
      <trkpt lat="47.48964" lon="3.85973">
        <ele>222</ele>
        <time>2019-04-05T11:16:25Z</time>
      </trkpt>
      <trkpt lat="47.48963" lon="3.85977">
        <ele>222</ele>
        <time>2019-04-05T11:16:28Z</time>
      </trkpt>
      <trkpt lat="47.48962" lon="3.85982">
        <ele>221</ele>
        <time>2019-04-05T11:16:32Z</time>
      </trkpt>
      <trkpt lat="47.48962" lon="3.85989">
        <ele>220</ele>
        <time>2019-04-05T11:16:36Z</time>
      </trkpt>
      <trkpt lat="47.48963" lon="3.85995">
        <ele>221</ele>
        <time>2019-04-05T11:16:40Z</time>
      </trkpt>
      <trkpt lat="47.48963" lon="3.86">
        <ele>221</ele>
        <time>2019-04-05T11:16:42Z</time>
      </trkpt>
      <trkpt lat="47.48964" lon="3.86004">
        <ele>221</ele>
        <time>2019-04-05T11:16:44Z</time>
      </trkpt>
      <trkpt lat="47.48964" lon="3.86013">
        <ele>219</ele>
        <time>2019-04-05T11:16:48Z</time>
      </trkpt>
      <trkpt lat="47.48964" lon="3.86016">
        <ele>219</ele>
        <time>2019-04-05T11:16:50Z</time>
      </trkpt>
      <trkpt lat="47.48964" lon="3.86024">
        <ele>219</ele>
        <time>2019-04-05T11:16:54Z</time>
      </trkpt>
      <trkpt lat="47.48964" lon="3.86028">
        <ele>219</ele>
        <time>2019-04-05T11:16:57Z</time>
      </trkpt>
      <trkpt lat="47.48964" lon="3.86033">
        <ele>219</ele>
        <time>2019-04-05T11:17:00Z</time>
      </trkpt>
      <trkpt lat="47.48966" lon="3.86041">
        <ele>220</ele>
        <time>2019-04-05T11:17:04Z</time>
      </trkpt>
      <trkpt lat="47.48965" lon="3.86047">
        <ele>220</ele>
        <time>2019-04-05T11:17:08Z</time>
      </trkpt>
      <trkpt lat="47.48965" lon="3.86054">
        <ele>221</ele>
        <time>2019-04-05T11:17:12Z</time>
      </trkpt>
      <trkpt lat="47.48967" lon="3.86061">
        <ele>219</ele>
        <time>2019-04-05T11:17:16Z</time>
      </trkpt>
      <trkpt lat="47.48966" lon="3.86068">
        <ele>219</ele>
        <time>2019-04-05T11:17:20Z</time>
      </trkpt>
      <trkpt lat="47.48967" lon="3.86075">
        <ele>218</ele>
        <time>2019-04-05T11:17:25Z</time>
      </trkpt>
      <trkpt lat="47.4897" lon="3.86085">
        <ele>217</ele>
        <time>2019-04-05T11:17:31Z</time>
      </trkpt>
      <trkpt lat="47.48971" lon="3.86094">
        <ele>216</ele>
        <time>2019-04-05T11:17:36Z</time>
      </trkpt>
      <trkpt lat="47.4897" lon="3.86102">
        <ele>217</ele>
        <time>2019-04-05T11:17:40Z</time>
      </trkpt>
      <trkpt lat="47.4897" lon="3.86105">
        <ele>217</ele>
        <time>2019-04-05T11:17:43Z</time>
      </trkpt>
      <trkpt lat="47.4897" lon="3.86111">
        <ele>219</ele>
        <time>2019-04-05T11:17:46Z</time>
      </trkpt>
      <trkpt lat="47.48971" lon="3.86119">
        <ele>219</ele>
        <time>2019-04-05T11:17:51Z</time>
      </trkpt>
      <trkpt lat="47.48971" lon="3.86124">
        <ele>219</ele>
        <time>2019-04-05T11:17:54Z</time>
      </trkpt>
      <trkpt lat="47.48968" lon="3.86129">
        <ele>220</ele>
        <time>2019-04-05T11:17:58Z</time>
      </trkpt>
      <trkpt lat="47.48965" lon="3.86136">
        <ele>221</ele>
        <time>2019-04-05T11:18:03Z</time>
      </trkpt>
      <trkpt lat="47.48966" lon="3.86143">
        <ele>222</ele>
        <time>2019-04-05T11:18:08Z</time>
      </trkpt>
      <trkpt lat="47.48968" lon="3.8615">
        <ele>221</ele>
        <time>2019-04-05T11:18:12Z</time>
      </trkpt>
      <trkpt lat="47.48968" lon="3.86153">
        <ele>221</ele>
        <time>2019-04-05T11:18:15Z</time>
      </trkpt>
      <trkpt lat="47.48968" lon="3.86159">
        <ele>221</ele>
        <time>2019-04-05T11:18:23Z</time>
      </trkpt>
      <trkpt lat="47.48971" lon="3.86151">
        <ele>228</ele>
        <time>2019-04-05T11:21:21Z</time>
      </trkpt>
      <trkpt lat="47.48967" lon="3.86159">
        <ele>227</ele>
        <time>2019-04-05T11:21:49Z</time>
      </trkpt>
      <trkpt lat="47.48967" lon="3.86166">
        <ele>224</ele>
        <time>2019-04-05T11:21:52Z</time>
      </trkpt>
      <trkpt lat="47.48965" lon="3.86174">
        <ele>224</ele>
        <time>2019-04-05T11:21:56Z</time>
      </trkpt>
      <trkpt lat="47.48964" lon="3.86183">
        <ele>225</ele>
        <time>2019-04-05T11:22:02Z</time>
      </trkpt>
      <trkpt lat="47.48964" lon="3.86187">
        <ele>225</ele>
        <time>2019-04-05T11:22:04Z</time>
      </trkpt>
      <trkpt lat="47.48962" lon="3.86194">
        <ele>224</ele>
        <time>2019-04-05T11:22:10Z</time>
      </trkpt>
      <trkpt lat="47.48962" lon="3.86194">
        <ele>224</ele>
        <time>2019-04-05T11:22:22Z</time>
      </trkpt>
      <trkpt lat="47.48962" lon="3.86201">
        <ele>226</ele>
        <time>2019-04-05T11:22:34Z</time>
      </trkpt>
      <trkpt lat="47.48964" lon="3.86208">
        <ele>225</ele>
        <time>2019-04-05T11:22:39Z</time>
      </trkpt>
      <trkpt lat="47.48967" lon="3.86214">
        <ele>220</ele>
        <time>2019-04-05T11:22:47Z</time>
      </trkpt>
      <trkpt lat="47.48968" lon="3.86222">
        <ele>220</ele>
        <time>2019-04-05T11:22:55Z</time>
      </trkpt>
      <trkpt lat="47.48969" lon="3.86229">
        <ele>222</ele>
        <time>2019-04-05T11:23:00Z</time>
      </trkpt>
      <trkpt lat="47.48967" lon="3.86237">
        <ele>223</ele>
        <time>2019-04-05T11:23:04Z</time>
      </trkpt>
      <trkpt lat="47.48966" lon="3.8624">
        <ele>221</ele>
        <time>2019-04-05T11:23:06Z</time>
      </trkpt>
      <trkpt lat="47.48967" lon="3.86246">
        <ele>221</ele>
        <time>2019-04-05T11:23:10Z</time>
      </trkpt>
      <trkpt lat="47.4897" lon="3.86252">
        <ele>220</ele>
        <time>2019-04-05T11:23:14Z</time>
      </trkpt>
      <trkpt lat="47.48972" lon="3.86259">
        <ele>218</ele>
        <time>2019-04-05T11:23:18Z</time>
      </trkpt>
      <trkpt lat="47.48976" lon="3.86264">
        <ele>219</ele>
        <time>2019-04-05T11:23:23Z</time>
      </trkpt>
      <trkpt lat="47.48978" lon="3.8627">
        <ele>217</ele>
        <time>2019-04-05T11:23:28Z</time>
      </trkpt>
      <trkpt lat="47.48983" lon="3.86276">
        <ele>216</ele>
        <time>2019-04-05T11:23:34Z</time>
      </trkpt>
      <trkpt lat="47.48984" lon="3.86282">
        <ele>215</ele>
        <time>2019-04-05T11:23:39Z</time>
      </trkpt>
      <trkpt lat="47.48986" lon="3.86289">
        <ele>214</ele>
        <time>2019-04-05T11:23:44Z</time>
      </trkpt>
      <trkpt lat="47.48985" lon="3.86296">
        <ele>214</ele>
        <time>2019-04-05T11:23:48Z</time>
      </trkpt>
      <trkpt lat="47.48987" lon="3.86302">
        <ele>214</ele>
        <time>2019-04-05T11:23:53Z</time>
      </trkpt>
      <trkpt lat="47.48987" lon="3.8631">
        <ele>215</ele>
        <time>2019-04-05T11:23:57Z</time>
      </trkpt>
      <trkpt lat="47.48991" lon="3.86318">
        <ele>212</ele>
        <time>2019-04-05T11:24:03Z</time>
      </trkpt>
      <trkpt lat="47.48993" lon="3.86325">
        <ele>212</ele>
        <time>2019-04-05T11:24:07Z</time>
      </trkpt>
      <trkpt lat="47.48997" lon="3.86331">
        <ele>212</ele>
        <time>2019-04-05T11:24:12Z</time>
      </trkpt>
      <trkpt lat="47.48997" lon="3.86338">
        <ele>210</ele>
        <time>2019-04-05T11:24:17Z</time>
      </trkpt>
      <trkpt lat="47.48999" lon="3.86344">
        <ele>211</ele>
        <time>2019-04-05T11:24:21Z</time>
      </trkpt>
      <trkpt lat="47.49002" lon="3.8635">
        <ele>209</ele>
        <time>2019-04-05T11:24:26Z</time>
      </trkpt>
      <trkpt lat="47.49003" lon="3.86358">
        <ele>208</ele>
        <time>2019-04-05T11:24:32Z</time>
      </trkpt>
      <trkpt lat="47.49001" lon="3.86365">
        <ele>206</ele>
        <time>2019-04-05T11:24:36Z</time>
      </trkpt>
      <trkpt lat="47.49003" lon="3.86372">
        <ele>204</ele>
        <time>2019-04-05T11:24:45Z</time>
      </trkpt>
      <trkpt lat="47.48998" lon="3.86374">
        <ele>206</ele>
        <time>2019-04-05T11:25:03Z</time>
      </trkpt>
      <trkpt lat="47.48995" lon="3.86382">
        <ele>207</ele>
        <time>2019-04-05T11:25:10Z</time>
      </trkpt>
      <trkpt lat="47.48993" lon="3.8639">
        <ele>206</ele>
        <time>2019-04-05T11:25:16Z</time>
      </trkpt>
      <trkpt lat="47.48989" lon="3.86397">
        <ele>207</ele>
        <time>2019-04-05T11:25:22Z</time>
      </trkpt>
      <trkpt lat="47.48988" lon="3.86402">
        <ele>209</ele>
        <time>2019-04-05T11:25:30Z</time>
      </trkpt>
      <trkpt lat="47.48988" lon="3.8641">
        <ele>209</ele>
        <time>2019-04-05T11:25:34Z</time>
      </trkpt>
      <trkpt lat="47.48987" lon="3.86417">
        <ele>209</ele>
        <time>2019-04-05T11:25:39Z</time>
      </trkpt>
      <trkpt lat="47.48987" lon="3.8642">
        <ele>208</ele>
        <time>2019-04-05T11:25:41Z</time>
      </trkpt>
      <trkpt lat="47.48985" lon="3.86427">
        <ele>207</ele>
        <time>2019-04-05T11:25:45Z</time>
      </trkpt>
      <trkpt lat="47.48983" lon="3.8643">
        <ele>206</ele>
        <time>2019-04-05T11:25:48Z</time>
      </trkpt>
      <trkpt lat="47.48982" lon="3.86438">
        <ele>204</ele>
        <time>2019-04-05T11:25:53Z</time>
      </trkpt>
      <trkpt lat="47.48981" lon="3.86441">
        <ele>203</ele>
        <time>2019-04-05T11:25:55Z</time>
      </trkpt>
      <trkpt lat="47.4898" lon="3.86445">
        <ele>203</ele>
        <time>2019-04-05T11:25:57Z</time>
      </trkpt>
      <trkpt lat="47.48979" lon="3.8645">
        <ele>203</ele>
        <time>2019-04-05T11:26:00Z</time>
      </trkpt>
      <trkpt lat="47.48978" lon="3.86455">
        <ele>203</ele>
        <time>2019-04-05T11:26:03Z</time>
      </trkpt>
      <trkpt lat="47.48977" lon="3.8646">
        <ele>204</ele>
        <time>2019-04-05T11:26:06Z</time>
      </trkpt>
      <trkpt lat="47.48976" lon="3.86465">
        <ele>203</ele>
        <time>2019-04-05T11:26:10Z</time>
      </trkpt>
      <trkpt lat="47.48976" lon="3.86465">
        <ele>204</ele>
        <time>2019-04-05T11:26:19Z</time>
      </trkpt>
      <trkpt lat="47.48973" lon="3.86474">
        <ele>205</ele>
        <time>2019-04-05T11:26:31Z</time>
      </trkpt>
      <trkpt lat="47.48972" lon="3.86477">
        <ele>206</ele>
        <time>2019-04-05T11:26:34Z</time>
      </trkpt>
      <trkpt lat="47.48969" lon="3.86484">
        <ele>208</ele>
        <time>2019-04-05T11:26:40Z</time>
      </trkpt>
      <trkpt lat="47.48967" lon="3.86492">
        <ele>208</ele>
        <time>2019-04-05T11:26:45Z</time>
      </trkpt>
      <trkpt lat="47.48966" lon="3.86498">
        <ele>209</ele>
        <time>2019-04-05T11:26:50Z</time>
      </trkpt>
      <trkpt lat="47.48964" lon="3.86507">
        <ele>210</ele>
        <time>2019-04-05T11:26:55Z</time>
      </trkpt>
      <trkpt lat="47.48961" lon="3.86513">
        <ele>213</ele>
        <time>2019-04-05T11:26:59Z</time>
      </trkpt>
      <trkpt lat="47.48957" lon="3.86519">
        <ele>214</ele>
        <time>2019-04-05T11:27:03Z</time>
      </trkpt>
      <trkpt lat="47.48953" lon="3.86528">
        <ele>215</ele>
        <time>2019-04-05T11:27:09Z</time>
      </trkpt>
      <trkpt lat="47.48951" lon="3.86532">
        <ele>214</ele>
        <time>2019-04-05T11:27:13Z</time>
      </trkpt>
      <trkpt lat="47.48949" lon="3.8654">
        <ele>213</ele>
        <time>2019-04-05T11:27:19Z</time>
      </trkpt>
      <trkpt lat="47.48945" lon="3.86544">
        <ele>213</ele>
        <time>2019-04-05T11:27:26Z</time>
      </trkpt>
      <trkpt lat="47.48942" lon="3.86551">
        <ele>211</ele>
        <time>2019-04-05T11:27:32Z</time>
      </trkpt>
      <trkpt lat="47.4894" lon="3.86558">
        <ele>211</ele>
        <time>2019-04-05T11:27:36Z</time>
      </trkpt>
      <trkpt lat="47.48939" lon="3.86567">
        <ele>211</ele>
        <time>2019-04-05T11:27:41Z</time>
      </trkpt>
      <trkpt lat="47.48934" lon="3.86571">
        <ele>211</ele>
        <time>2019-04-05T11:27:48Z</time>
      </trkpt>
      <trkpt lat="47.4893" lon="3.86577">
        <ele>209</ele>
        <time>2019-04-05T11:27:55Z</time>
      </trkpt>
      <trkpt lat="47.48927" lon="3.86585">
        <ele>211</ele>
        <time>2019-04-05T11:28:01Z</time>
      </trkpt>
      <trkpt lat="47.48924" lon="3.86592">
        <ele>212</ele>
        <time>2019-04-05T11:28:05Z</time>
      </trkpt>
      <trkpt lat="47.4892" lon="3.86597">
        <ele>213</ele>
        <time>2019-04-05T11:28:09Z</time>
      </trkpt>
      <trkpt lat="47.48917" lon="3.86605">
        <ele>213</ele>
        <time>2019-04-05T11:28:13Z</time>
      </trkpt>
      <trkpt lat="47.48916" lon="3.86609">
        <ele>213</ele>
        <time>2019-04-05T11:28:16Z</time>
      </trkpt>
      <trkpt lat="47.48915" lon="3.86613">
        <ele>212</ele>
        <time>2019-04-05T11:28:18Z</time>
      </trkpt>
      <trkpt lat="47.48914" lon="3.86617">
        <ele>212</ele>
        <time>2019-04-05T11:28:20Z</time>
      </trkpt>
      <trkpt lat="47.48911" lon="3.86625">
        <ele>214</ele>
        <time>2019-04-05T11:28:28Z</time>
      </trkpt>
      <trkpt lat="47.48908" lon="3.8663">
        <ele>215</ele>
        <time>2019-04-05T11:28:32Z</time>
      </trkpt>
      <trkpt lat="47.48903" lon="3.86634">
        <ele>217</ele>
        <time>2019-04-05T11:28:37Z</time>
      </trkpt>
      <trkpt lat="47.48901" lon="3.86644">
        <ele>216</ele>
        <time>2019-04-05T11:28:44Z</time>
      </trkpt>
      <trkpt lat="47.48897" lon="3.86649">
        <ele>215</ele>
        <time>2019-04-05T11:28:49Z</time>
      </trkpt>
      <trkpt lat="47.48895" lon="3.86658">
        <ele>215</ele>
        <time>2019-04-05T11:28:54Z</time>
      </trkpt>
      <trkpt lat="47.48895" lon="3.86666">
        <ele>215</ele>
        <time>2019-04-05T11:29:02Z</time>
      </trkpt>
      <trkpt lat="47.48894" lon="3.86674">
        <ele>216</ele>
        <time>2019-04-05T11:29:07Z</time>
      </trkpt>
      <trkpt lat="47.48891" lon="3.86682">
        <ele>218</ele>
        <time>2019-04-05T11:29:15Z</time>
      </trkpt>
      <trkpt lat="47.4889" lon="3.8669">
        <ele>217</ele>
        <time>2019-04-05T11:29:19Z</time>
      </trkpt>
      <trkpt lat="47.48887" lon="3.86696">
        <ele>216</ele>
        <time>2019-04-05T11:29:22Z</time>
      </trkpt>
      <trkpt lat="47.48887" lon="3.86696">
        <ele>216</ele>
        <time>2019-04-05T11:29:28Z</time>
      </trkpt>
      <trkpt lat="47.48887" lon="3.86696">
        <ele>216</ele>
        <time>2019-04-05T11:29:30Z</time>
      </trkpt>
      <trkpt lat="47.48884" lon="3.86703">
        <ele>216</ele>
        <time>2019-04-05T11:29:32Z</time>
      </trkpt>
      <trkpt lat="47.48879" lon="3.86706">
        <ele>217</ele>
        <time>2019-04-05T11:29:36Z</time>
      </trkpt>
      <trkpt lat="47.48877" lon="3.86713">
        <ele>217</ele>
        <time>2019-04-05T11:29:40Z</time>
      </trkpt>
      <trkpt lat="47.48873" lon="3.86717">
        <ele>217</ele>
        <time>2019-04-05T11:29:43Z</time>
      </trkpt>
      <trkpt lat="47.48869" lon="3.86722">
        <ele>217</ele>
        <time>2019-04-05T11:29:46Z</time>
      </trkpt>
      <trkpt lat="47.48867" lon="3.86725">
        <ele>217</ele>
        <time>2019-04-05T11:29:49Z</time>
      </trkpt>
      <trkpt lat="47.48866" lon="3.86733">
        <ele>218</ele>
        <time>2019-04-05T11:29:54Z</time>
      </trkpt>
      <trkpt lat="47.48863" lon="3.8674">
        <ele>218</ele>
        <time>2019-04-05T11:29:59Z</time>
      </trkpt>
      <trkpt lat="47.48861" lon="3.86746">
        <ele>219</ele>
        <time>2019-04-05T11:30:02Z</time>
      </trkpt>
      <trkpt lat="47.48857" lon="3.86753">
        <ele>222</ele>
        <time>2019-04-05T11:30:12Z</time>
      </trkpt>
      <trkpt lat="47.48854" lon="3.86758">
        <ele>219</ele>
        <time>2019-04-05T11:30:21Z</time>
      </trkpt>
      <trkpt lat="47.4885" lon="3.86763">
        <ele>220</ele>
        <time>2019-04-05T11:30:35Z</time>
      </trkpt>
      <trkpt lat="47.48848" lon="3.86765">
        <ele>220</ele>
        <time>2019-04-05T11:30:38Z</time>
      </trkpt>
      <trkpt lat="47.48846" lon="3.86769">
        <ele>217</ele>
        <time>2019-04-05T11:30:42Z</time>
      </trkpt>
      <trkpt lat="47.48842" lon="3.86773">
        <ele>214</ele>
        <time>2019-04-05T11:30:48Z</time>
      </trkpt>
      <trkpt lat="47.48838" lon="3.86777">
        <ele>214</ele>
        <time>2019-04-05T11:30:52Z</time>
      </trkpt>
      <trkpt lat="47.48834" lon="3.86782">
        <ele>214</ele>
        <time>2019-04-05T11:30:59Z</time>
      </trkpt>
      <trkpt lat="47.48829" lon="3.86785">
        <ele>216</ele>
        <time>2019-04-05T11:31:05Z</time>
      </trkpt>
      <trkpt lat="47.48824" lon="3.86788">
        <ele>215</ele>
        <time>2019-04-05T11:31:09Z</time>
      </trkpt>
      <trkpt lat="47.48819" lon="3.86791">
        <ele>213</ele>
        <time>2019-04-05T11:31:14Z</time>
      </trkpt>
      <trkpt lat="47.48815" lon="3.86796">
        <ele>214</ele>
        <time>2019-04-05T11:31:18Z</time>
      </trkpt>
      <trkpt lat="47.48811" lon="3.86802">
        <ele>214</ele>
        <time>2019-04-05T11:31:22Z</time>
      </trkpt>
      <trkpt lat="47.48807" lon="3.86806">
        <ele>215</ele>
        <time>2019-04-05T11:31:27Z</time>
      </trkpt>
      <trkpt lat="47.48802" lon="3.86813">
        <ele>217</ele>
        <time>2019-04-05T11:31:33Z</time>
      </trkpt>
      <trkpt lat="47.48799" lon="3.86817">
        <ele>219</ele>
        <time>2019-04-05T11:31:36Z</time>
      </trkpt>
      <trkpt lat="47.48794" lon="3.86823">
        <ele>220</ele>
        <time>2019-04-05T11:31:41Z</time>
      </trkpt>
      <trkpt lat="47.48792" lon="3.86826">
        <ele>221</ele>
        <time>2019-04-05T11:31:43Z</time>
      </trkpt>
      <trkpt lat="47.48788" lon="3.86833">
        <ele>222</ele>
        <time>2019-04-05T11:31:47Z</time>
      </trkpt>
      <trkpt lat="47.48786" lon="3.86836">
        <ele>222</ele>
        <time>2019-04-05T11:31:49Z</time>
      </trkpt>
      <trkpt lat="47.48785" lon="3.86839">
        <ele>222</ele>
        <time>2019-04-05T11:31:53Z</time>
      </trkpt>
      <trkpt lat="47.48782" lon="3.86843">
        <ele>222</ele>
        <time>2019-04-05T11:32:01Z</time>
      </trkpt>
      <trkpt lat="47.4878" lon="3.86849">
        <ele>224</ele>
        <time>2019-04-05T11:32:06Z</time>
      </trkpt>
      <trkpt lat="47.48774" lon="3.86854">
        <ele>224</ele>
        <time>2019-04-05T11:32:11Z</time>
      </trkpt>
      <trkpt lat="47.48772" lon="3.86862">
        <ele>224</ele>
        <time>2019-04-05T11:32:17Z</time>
      </trkpt>
      <trkpt lat="47.48769" lon="3.86869">
        <ele>223</ele>
        <time>2019-04-05T11:32:22Z</time>
      </trkpt>
      <trkpt lat="47.48768" lon="3.86872">
        <ele>223</ele>
        <time>2019-04-05T11:32:25Z</time>
      </trkpt>
      <trkpt lat="47.48766" lon="3.86877">
        <ele>225</ele>
        <time>2019-04-05T11:32:30Z</time>
      </trkpt>
      <trkpt lat="47.48764" lon="3.8688">
        <ele>226</ele>
        <time>2019-04-05T11:32:33Z</time>
      </trkpt>
      <trkpt lat="47.48761" lon="3.86887">
        <ele>228</ele>
        <time>2019-04-05T11:32:39Z</time>
      </trkpt>
      <trkpt lat="47.4876" lon="3.86896">
        <ele>227</ele>
        <time>2019-04-05T11:32:45Z</time>
      </trkpt>
      <trkpt lat="47.4876" lon="3.869">
        <ele>227</ele>
        <time>2019-04-05T11:32:49Z</time>
      </trkpt>
      <trkpt lat="47.48756" lon="3.86907">
        <ele>226</ele>
        <time>2019-04-05T11:32:53Z</time>
      </trkpt>
      <trkpt lat="47.48751" lon="3.86913">
        <ele>226</ele>
        <time>2019-04-05T11:32:58Z</time>
      </trkpt>
      <trkpt lat="47.48748" lon="3.86922">
        <ele>227</ele>
        <time>2019-04-05T11:33:03Z</time>
      </trkpt>
      <trkpt lat="47.48745" lon="3.86928">
        <ele>229</ele>
        <time>2019-04-05T11:33:07Z</time>
      </trkpt>
      <trkpt lat="47.48743" lon="3.86932">
        <ele>228</ele>
        <time>2019-04-05T11:33:10Z</time>
      </trkpt>
      <trkpt lat="47.48741" lon="3.86935">
        <ele>228</ele>
        <time>2019-04-05T11:33:12Z</time>
      </trkpt>
      <trkpt lat="47.48738" lon="3.86943">
        <ele>226</ele>
        <time>2019-04-05T11:33:17Z</time>
      </trkpt>
      <trkpt lat="47.48739" lon="3.8695">
        <ele>223</ele>
        <time>2019-04-05T11:33:23Z</time>
      </trkpt>
      <trkpt lat="47.48736" lon="3.86959">
        <ele>221</ele>
        <time>2019-04-05T11:33:31Z</time>
      </trkpt>
      <trkpt lat="47.48734" lon="3.86965">
        <ele>220</ele>
        <time>2019-04-05T11:33:36Z</time>
      </trkpt>
      <trkpt lat="47.48733" lon="3.86973">
        <ele>221</ele>
        <time>2019-04-05T11:33:41Z</time>
      </trkpt>
      <trkpt lat="47.4873" lon="3.86981">
        <ele>221</ele>
        <time>2019-04-05T11:33:45Z</time>
      </trkpt>
      <trkpt lat="47.48727" lon="3.86989">
        <ele>222</ele>
        <time>2019-04-05T11:33:49Z</time>
      </trkpt>
      <trkpt lat="47.48725" lon="3.86997">
        <ele>222</ele>
        <time>2019-04-05T11:33:52Z</time>
      </trkpt>
      <trkpt lat="47.48724" lon="3.87001">
        <ele>220</ele>
        <time>2019-04-05T11:33:55Z</time>
      </trkpt>
      <trkpt lat="47.48722" lon="3.8701">
        <ele>220</ele>
        <time>2019-04-05T11:33:59Z</time>
      </trkpt>
      <trkpt lat="47.48721" lon="3.87017">
        <ele>219</ele>
        <time>2019-04-05T11:34:02Z</time>
      </trkpt>
      <trkpt lat="47.48718" lon="3.87024">
        <ele>219</ele>
        <time>2019-04-05T11:34:07Z</time>
      </trkpt>
      <trkpt lat="47.48716" lon="3.87027">
        <ele>218</ele>
        <time>2019-04-05T11:34:09Z</time>
      </trkpt>
      <trkpt lat="47.48714" lon="3.87033">
        <ele>218</ele>
        <time>2019-04-05T11:34:13Z</time>
      </trkpt>
      <trkpt lat="47.48711" lon="3.87043">
        <ele>218</ele>
        <time>2019-04-05T11:34:18Z</time>
      </trkpt>
      <trkpt lat="47.48711" lon="3.87043">
        <ele>218</ele>
        <time>2019-04-05T11:34:25Z</time>
      </trkpt>
      <trkpt lat="47.48712" lon="3.87049">
        <ele>214</ele>
        <time>2019-04-05T11:34:27Z</time>
      </trkpt>
      <trkpt lat="47.48713" lon="3.8707">
        <ele>206</ele>
        <time>2019-04-05T11:36:15Z</time>
      </trkpt>
      <trkpt lat="47.48708" lon="3.87076">
        <ele>207</ele>
        <time>2019-04-05T11:36:23Z</time>
      </trkpt>
      <trkpt lat="47.48705" lon="3.87083">
        <ele>209</ele>
        <time>2019-04-05T11:36:29Z</time>
      </trkpt>
      <trkpt lat="47.48705" lon="3.87083">
        <ele>209</ele>
        <time>2019-04-05T11:36:37Z</time>
      </trkpt>
      <trkpt lat="47.48702" lon="3.87091">
        <ele>210</ele>
        <time>2019-04-05T11:36:39Z</time>
      </trkpt>
      <trkpt lat="47.487" lon="3.87097">
        <ele>214</ele>
        <time>2019-04-05T11:36:42Z</time>
      </trkpt>
      <trkpt lat="47.48701" lon="3.87108">
        <ele>215</ele>
        <time>2019-04-05T11:36:49Z</time>
      </trkpt>
      <trkpt lat="47.48698" lon="3.87114">
        <ele>216</ele>
        <time>2019-04-05T11:36:53Z</time>
      </trkpt>
      <trkpt lat="47.48694" lon="3.87116">
        <ele>216</ele>
        <time>2019-04-05T11:36:59Z</time>
      </trkpt>
      <trkpt lat="47.4869" lon="3.87124">
        <ele>217</ele>
        <time>2019-04-05T11:37:04Z</time>
      </trkpt>
      <trkpt lat="47.48688" lon="3.87129">
        <ele>218</ele>
        <time>2019-04-05T11:37:06Z</time>
      </trkpt>
      <trkpt lat="47.48687" lon="3.87136">
        <ele>217</ele>
        <time>2019-04-05T11:37:10Z</time>
      </trkpt>
      <trkpt lat="47.48684" lon="3.87142">
        <ele>216</ele>
        <time>2019-04-05T11:37:13Z</time>
      </trkpt>
      <trkpt lat="47.48682" lon="3.87147">
        <ele>216</ele>
        <time>2019-04-05T11:37:16Z</time>
      </trkpt>
      <trkpt lat="47.4868" lon="3.87156">
        <ele>218</ele>
        <time>2019-04-05T11:37:23Z</time>
      </trkpt>
      <trkpt lat="47.48681" lon="3.87163">
        <ele>214</ele>
        <time>2019-04-05T11:37:30Z</time>
      </trkpt>
      <trkpt lat="47.48678" lon="3.8717">
        <ele>216</ele>
        <time>2019-04-05T11:37:35Z</time>
      </trkpt>
      <trkpt lat="47.48673" lon="3.87175">
        <ele>217</ele>
        <time>2019-04-05T11:37:42Z</time>
      </trkpt>
      <trkpt lat="47.48671" lon="3.87184">
        <ele>217</ele>
        <time>2019-04-05T11:37:46Z</time>
      </trkpt>
      <trkpt lat="47.4867" lon="3.87188">
        <ele>219</ele>
        <time>2019-04-05T11:37:49Z</time>
      </trkpt>
      <trkpt lat="47.48666" lon="3.87193">
        <ele>220</ele>
        <time>2019-04-05T11:37:53Z</time>
      </trkpt>
      <trkpt lat="47.48663" lon="3.87198">
        <ele>221</ele>
        <time>2019-04-05T11:37:57Z</time>
      </trkpt>
      <trkpt lat="47.48659" lon="3.87204">
        <ele>220</ele>
        <time>2019-04-05T11:38:00Z</time>
      </trkpt>
      <trkpt lat="47.48658" lon="3.87208">
        <ele>220</ele>
        <time>2019-04-05T11:38:02Z</time>
      </trkpt>
      <trkpt lat="47.48655" lon="3.87212">
        <ele>221</ele>
        <time>2019-04-05T11:38:05Z</time>
      </trkpt>
      <trkpt lat="47.48656" lon="3.87219">
        <ele>220</ele>
        <time>2019-04-05T11:38:11Z</time>
      </trkpt>
      <trkpt lat="47.48656" lon="3.87219">
        <ele>220</ele>
        <time>2019-04-05T11:38:18Z</time>
      </trkpt>
      <trkpt lat="47.48656" lon="3.87225">
        <ele>221</ele>
        <time>2019-04-05T11:38:20Z</time>
      </trkpt>
      <trkpt lat="47.48655" lon="3.87235">
        <ele>221</ele>
        <time>2019-04-05T11:38:29Z</time>
      </trkpt>
      <trkpt lat="47.48654" lon="3.87241">
        <ele>221</ele>
        <time>2019-04-05T11:38:32Z</time>
      </trkpt>
      <trkpt lat="47.48654" lon="3.87245">
        <ele>218</ele>
        <time>2019-04-05T11:38:35Z</time>
      </trkpt>
      <trkpt lat="47.48653" lon="3.87251">
        <ele>218</ele>
        <time>2019-04-05T11:38:40Z</time>
      </trkpt>
      <trkpt lat="47.48651" lon="3.87257">
        <ele>219</ele>
        <time>2019-04-05T11:38:43Z</time>
      </trkpt>
      <trkpt lat="47.48648" lon="3.87264">
        <ele>220</ele>
        <time>2019-04-05T11:38:47Z</time>
      </trkpt>
      <trkpt lat="47.48647" lon="3.87271">
        <ele>218</ele>
        <time>2019-04-05T11:38:53Z</time>
      </trkpt>
      <trkpt lat="47.48645" lon="3.87281">
        <ele>220</ele>
        <time>2019-04-05T11:38:58Z</time>
      </trkpt>
      <trkpt lat="47.48643" lon="3.87288">
        <ele>218</ele>
        <time>2019-04-05T11:39:03Z</time>
      </trkpt>
      <trkpt lat="47.48645" lon="3.87296">
        <ele>219</ele>
        <time>2019-04-05T11:39:09Z</time>
      </trkpt>
      <trkpt lat="47.48644" lon="3.87302">
        <ele>220</ele>
        <time>2019-04-05T11:39:13Z</time>
      </trkpt>
      <trkpt lat="47.48643" lon="3.87306">
        <ele>220</ele>
        <time>2019-04-05T11:39:17Z</time>
      </trkpt>
      <trkpt lat="47.48646" lon="3.87312">
        <ele>219</ele>
        <time>2019-04-05T11:39:22Z</time>
      </trkpt>
      <trkpt lat="47.48645" lon="3.87319">
        <ele>219</ele>
        <time>2019-04-05T11:39:26Z</time>
      </trkpt>
      <trkpt lat="47.48644" lon="3.87326">
        <ele>217</ele>
        <time>2019-04-05T11:39:31Z</time>
      </trkpt>
      <trkpt lat="47.48644" lon="3.87326">
        <ele>217</ele>
        <time>2019-04-05T11:39:39Z</time>
      </trkpt>
      <trkpt lat="47.48644" lon="3.87326">
        <ele>217</ele>
        <time>2019-04-05T11:39:40Z</time>
      </trkpt>
      <trkpt lat="47.4864" lon="3.8733">
        <ele>214</ele>
        <time>2019-04-05T11:39:42Z</time>
      </trkpt>
      <trkpt lat="47.48637" lon="3.87336">
        <ele>211</ele>
        <time>2019-04-05T11:39:47Z</time>
      </trkpt>
      <trkpt lat="47.48639" lon="3.87343">
        <ele>210</ele>
        <time>2019-04-05T11:39:53Z</time>
      </trkpt>
      <trkpt lat="47.48642" lon="3.87352">
        <ele>208</ele>
        <time>2019-04-05T11:39:58Z</time>
      </trkpt>
      <trkpt lat="47.48643" lon="3.87356">
        <ele>208</ele>
        <time>2019-04-05T11:40:01Z</time>
      </trkpt>
      <trkpt lat="47.48646" lon="3.87362">
        <ele>208</ele>
        <time>2019-04-05T11:40:06Z</time>
      </trkpt>
      <trkpt lat="47.48644" lon="3.8737">
        <ele>211</ele>
        <time>2019-04-05T11:40:14Z</time>
      </trkpt>
      <trkpt lat="47.48646" lon="3.87376">
        <ele>214</ele>
        <time>2019-04-05T11:40:21Z</time>
      </trkpt>
      <trkpt lat="47.48648" lon="3.87381">
        <ele>215</ele>
        <time>2019-04-05T11:40:25Z</time>
      </trkpt>
      <trkpt lat="47.48647" lon="3.87388">
        <ele>219</ele>
        <time>2019-04-05T11:40:33Z</time>
      </trkpt>
      <trkpt lat="47.4865" lon="3.87395">
        <ele>218</ele>
        <time>2019-04-05T11:40:37Z</time>
      </trkpt>
      <trkpt lat="47.48649" lon="3.87404">
        <ele>219</ele>
        <time>2019-04-05T11:40:44Z</time>
      </trkpt>
      <trkpt lat="47.48649" lon="3.87412">
        <ele>220</ele>
        <time>2019-04-05T11:40:50Z</time>
      </trkpt>
      <trkpt lat="47.48649" lon="3.8742">
        <ele>221</ele>
        <time>2019-04-05T11:40:55Z</time>
      </trkpt>
      <trkpt lat="47.48646" lon="3.87429">
        <ele>220</ele>
        <time>2019-04-05T11:41:01Z</time>
      </trkpt>
      <trkpt lat="47.48647" lon="3.87436">
        <ele>219</ele>
        <time>2019-04-05T11:41:04Z</time>
      </trkpt>
      <trkpt lat="47.48647" lon="3.87442">
        <ele>218</ele>
        <time>2019-04-05T11:41:08Z</time>
      </trkpt>
      <trkpt lat="47.48647" lon="3.87449">
        <ele>217</ele>
        <time>2019-04-05T11:41:12Z</time>
      </trkpt>
      <trkpt lat="47.48649" lon="3.87456">
        <ele>217</ele>
        <time>2019-04-05T11:41:15Z</time>
      </trkpt>
      <trkpt lat="47.48648" lon="3.87463">
        <ele>219</ele>
        <time>2019-04-05T11:41:20Z</time>
      </trkpt>
      <trkpt lat="47.48647" lon="3.8747">
        <ele>220</ele>
        <time>2019-04-05T11:41:23Z</time>
      </trkpt>
      <trkpt lat="47.48646" lon="3.87475">
        <ele>219</ele>
        <time>2019-04-05T11:41:25Z</time>
      </trkpt>
      <trkpt lat="47.48646" lon="3.87483">
        <ele>219</ele>
        <time>2019-04-05T11:41:29Z</time>
      </trkpt>
      <trkpt lat="47.48645" lon="3.87486">
        <ele>218</ele>
        <time>2019-04-05T11:41:31Z</time>
      </trkpt>
      <trkpt lat="47.48644" lon="3.87495">
        <ele>219</ele>
        <time>2019-04-05T11:41:36Z</time>
      </trkpt>
      <trkpt lat="47.48645" lon="3.87505">
        <ele>219</ele>
        <time>2019-04-05T11:41:42Z</time>
      </trkpt>
      <trkpt lat="47.48647" lon="3.87511">
        <ele>218</ele>
        <time>2019-04-05T11:41:46Z</time>
      </trkpt>
      <trkpt lat="47.48647" lon="3.8751">
        <ele>215</ele>
        <time>2019-04-05T11:41:55Z</time>
      </trkpt>
      <trkpt lat="47.4864" lon="3.87515">
        <ele>218</ele>
        <time>2019-04-05T11:42:00Z</time>
      </trkpt>
      <trkpt lat="47.4864" lon="3.87523">
        <ele>214</ele>
        <time>2019-04-05T11:42:04Z</time>
      </trkpt>
      <trkpt lat="47.48635" lon="3.87531">
        <ele>218</ele>
        <time>2019-04-05T11:42:10Z</time>
      </trkpt>
      <trkpt lat="47.48632" lon="3.87537">
        <ele>216</ele>
        <time>2019-04-05T11:42:13Z</time>
      </trkpt>
      <trkpt lat="47.48629" lon="3.87543">
        <ele>216</ele>
        <time>2019-04-05T11:42:16Z</time>
      </trkpt>
      <trkpt lat="47.48627" lon="3.87546">
        <ele>217</ele>
        <time>2019-04-05T11:42:17Z</time>
      </trkpt>
      <trkpt lat="47.48626" lon="3.8755">
        <ele>217</ele>
        <time>2019-04-05T11:42:20Z</time>
      </trkpt>
      <trkpt lat="47.48623" lon="3.87554">
        <ele>218</ele>
        <time>2019-04-05T11:42:24Z</time>
      </trkpt>
      <trkpt lat="47.48619" lon="3.87561">
        <ele>217</ele>
        <time>2019-04-05T11:42:28Z</time>
      </trkpt>
      <trkpt lat="47.48616" lon="3.87567">
        <ele>217</ele>
        <time>2019-04-05T11:42:31Z</time>
      </trkpt>
      <trkpt lat="47.48619" lon="3.87574">
        <ele>216</ele>
        <time>2019-04-05T11:42:35Z</time>
      </trkpt>
      <trkpt lat="47.4862" lon="3.8758">
        <ele>212</ele>
        <time>2019-04-05T11:42:46Z</time>
      </trkpt>
      <trkpt lat="47.48623" lon="3.87588">
        <ele>204</ele>
        <time>2019-04-05T11:52:16Z</time>
      </trkpt>
      <trkpt lat="47.48614" lon="3.87592">
        <ele>202</ele>
        <time>2019-04-05T11:52:25Z</time>
      </trkpt>
      <trkpt lat="47.48611" lon="3.87596">
        <ele>202</ele>
        <time>2019-04-05T11:52:29Z</time>
      </trkpt>
      <trkpt lat="47.4861" lon="3.87604">
        <ele>202</ele>
        <time>2019-04-05T11:52:36Z</time>
      </trkpt>
      <trkpt lat="47.48607" lon="3.87611">
        <ele>204</ele>
        <time>2019-04-05T11:52:43Z</time>
      </trkpt>
      <trkpt lat="47.48605" lon="3.87614">
        <ele>205</ele>
        <time>2019-04-05T11:52:46Z</time>
      </trkpt>
      <trkpt lat="47.48605" lon="3.87621">
        <ele>205</ele>
        <time>2019-04-05T11:52:51Z</time>
      </trkpt>
      <trkpt lat="47.48606" lon="3.87625">
        <ele>206</ele>
        <time>2019-04-05T11:52:54Z</time>
      </trkpt>
      <trkpt lat="47.48608" lon="3.87632">
        <ele>207</ele>
        <time>2019-04-05T11:52:58Z</time>
      </trkpt>
      <trkpt lat="47.48609" lon="3.87639">
        <ele>209</ele>
        <time>2019-04-05T11:53:02Z</time>
      </trkpt>
      <trkpt lat="47.48609" lon="3.87647">
        <ele>208</ele>
        <time>2019-04-05T11:53:06Z</time>
      </trkpt>
      <trkpt lat="47.48607" lon="3.87655">
        <ele>207</ele>
        <time>2019-04-05T11:53:12Z</time>
      </trkpt>
      <trkpt lat="47.48606" lon="3.8766">
        <ele>206</ele>
        <time>2019-04-05T11:53:16Z</time>
      </trkpt>
      <trkpt lat="47.48606" lon="3.87668">
        <ele>205</ele>
        <time>2019-04-05T11:53:23Z</time>
      </trkpt>
      <trkpt lat="47.48604" lon="3.87675">
        <ele>207</ele>
        <time>2019-04-05T11:53:28Z</time>
      </trkpt>
      <trkpt lat="47.48603" lon="3.87681">
        <ele>208</ele>
        <time>2019-04-05T11:53:32Z</time>
      </trkpt>
      <trkpt lat="47.486" lon="3.87687">
        <ele>208</ele>
        <time>2019-04-05T11:53:37Z</time>
      </trkpt>
      <trkpt lat="47.48596" lon="3.87693">
        <ele>209</ele>
        <time>2019-04-05T11:53:41Z</time>
      </trkpt>
      <trkpt lat="47.48593" lon="3.87701">
        <ele>208</ele>
        <time>2019-04-05T11:53:45Z</time>
      </trkpt>
      <trkpt lat="47.48593" lon="3.87708">
        <ele>209</ele>
        <time>2019-04-05T11:53:50Z</time>
      </trkpt>
      <trkpt lat="47.48597" lon="3.87718">
        <ele>210</ele>
        <time>2019-04-05T11:53:57Z</time>
      </trkpt>
      <trkpt lat="47.48598" lon="3.87725">
        <ele>212</ele>
        <time>2019-04-05T11:54:02Z</time>
      </trkpt>
      <trkpt lat="47.48595" lon="3.87731">
        <ele>213</ele>
        <time>2019-04-05T11:54:06Z</time>
      </trkpt>
      <trkpt lat="47.48594" lon="3.87742">
        <ele>211</ele>
        <time>2019-04-05T11:54:14Z</time>
      </trkpt>
      <trkpt lat="47.48595" lon="3.87748">
        <ele>210</ele>
        <time>2019-04-05T11:54:21Z</time>
      </trkpt>
      <trkpt lat="47.48592" lon="3.87755">
        <ele>211</ele>
        <time>2019-04-05T11:54:28Z</time>
      </trkpt>
      <trkpt lat="47.48589" lon="3.87761">
        <ele>210</ele>
        <time>2019-04-05T11:54:35Z</time>
      </trkpt>
      <trkpt lat="47.48587" lon="3.87765">
        <ele>209</ele>
        <time>2019-04-05T11:54:39Z</time>
      </trkpt>
      <trkpt lat="47.48585" lon="3.87771">
        <ele>210</ele>
        <time>2019-04-05T11:54:44Z</time>
      </trkpt>
      <trkpt lat="47.48581" lon="3.87777">
        <ele>210</ele>
        <time>2019-04-05T11:54:49Z</time>
      </trkpt>
      <trkpt lat="47.48577" lon="3.8778">
        <ele>210</ele>
        <time>2019-04-05T11:54:55Z</time>
      </trkpt>
      <trkpt lat="47.48576" lon="3.87786">
        <ele>210</ele>
        <time>2019-04-05T11:55:02Z</time>
      </trkpt>
      <trkpt lat="47.48575" lon="3.87791">
        <ele>208</ele>
        <time>2019-04-05T11:55:07Z</time>
      </trkpt>
      <trkpt lat="47.48571" lon="3.87796">
        <ele>211</ele>
        <time>2019-04-05T11:55:14Z</time>
      </trkpt>
      <trkpt lat="47.48568" lon="3.87802">
        <ele>211</ele>
        <time>2019-04-05T11:55:22Z</time>
      </trkpt>
      <trkpt lat="47.48566" lon="3.87806">
        <ele>213</ele>
        <time>2019-04-05T11:55:32Z</time>
      </trkpt>
      <trkpt lat="47.48563" lon="3.87814">
        <ele>215</ele>
        <time>2019-04-05T11:55:38Z</time>
      </trkpt>
      <trkpt lat="47.4856" lon="3.8782">
        <ele>215</ele>
        <time>2019-04-05T11:55:43Z</time>
      </trkpt>
      <trkpt lat="47.4856" lon="3.8782">
        <ele>215</ele>
        <time>2019-04-05T11:55:50Z</time>
      </trkpt>
      <trkpt lat="47.48559" lon="3.87827">
        <ele>215</ele>
        <time>2019-04-05T11:55:51Z</time>
      </trkpt>
      <trkpt lat="47.48557" lon="3.87834">
        <ele>214</ele>
        <time>2019-04-05T11:55:55Z</time>
      </trkpt>
      <trkpt lat="47.48555" lon="3.87839">
        <ele>213</ele>
        <time>2019-04-05T11:55:59Z</time>
      </trkpt>
      <trkpt lat="47.48552" lon="3.87847">
        <ele>212</ele>
        <time>2019-04-05T11:56:07Z</time>
      </trkpt>
      <trkpt lat="47.48548" lon="3.87852">
        <ele>212</ele>
        <time>2019-04-05T11:56:13Z</time>
      </trkpt>
      <trkpt lat="47.48547" lon="3.87855">
        <ele>212</ele>
        <time>2019-04-05T11:56:16Z</time>
      </trkpt>
      <trkpt lat="47.48547" lon="3.87855">
        <ele>212</ele>
        <time>2019-04-05T11:56:23Z</time>
      </trkpt>
      <trkpt lat="47.48547" lon="3.87855">
        <ele>212</ele>
        <time>2019-04-05T11:56:25Z</time>
      </trkpt>
      <trkpt lat="47.48544" lon="3.87865">
        <ele>214</ele>
        <time>2019-04-05T11:56:28Z</time>
      </trkpt>
      <trkpt lat="47.48542" lon="3.87872">
        <ele>215</ele>
        <time>2019-04-05T11:56:36Z</time>
      </trkpt>
      <trkpt lat="47.48538" lon="3.87877">
        <ele>214</ele>
        <time>2019-04-05T11:56:40Z</time>
      </trkpt>
      <trkpt lat="47.48538" lon="3.87877">
        <ele>214</ele>
        <time>2019-04-05T11:56:47Z</time>
      </trkpt>
      <trkpt lat="47.48533" lon="3.87883">
        <ele>216</ele>
        <time>2019-04-05T11:56:49Z</time>
      </trkpt>
      <trkpt lat="47.48531" lon="3.87886">
        <ele>216</ele>
        <time>2019-04-05T11:56:53Z</time>
      </trkpt>
      <trkpt lat="47.48531" lon="3.87886">
        <ele>216</ele>
        <time>2019-04-05T11:57:00Z</time>
      </trkpt>
      <trkpt lat="47.48531" lon="3.87886">
        <ele>216</ele>
        <time>2019-04-05T11:57:01Z</time>
      </trkpt>
      <trkpt lat="47.48528" lon="3.87893">
        <ele>220</ele>
        <time>2019-04-05T11:57:09Z</time>
      </trkpt>
      <trkpt lat="47.48527" lon="3.87897">
        <ele>220</ele>
        <time>2019-04-05T11:57:13Z</time>
      </trkpt>
      <trkpt lat="47.48523" lon="3.87902">
        <ele>222</ele>
        <time>2019-04-05T11:57:20Z</time>
      </trkpt>
      <trkpt lat="47.48521" lon="3.8791">
        <ele>224</ele>
        <time>2019-04-05T11:57:27Z</time>
      </trkpt>
      <trkpt lat="47.48518" lon="3.87915">
        <ele>226</ele>
        <time>2019-04-05T11:57:32Z</time>
      </trkpt>
      <trkpt lat="47.48515" lon="3.87919">
        <ele>224</ele>
        <time>2019-04-05T11:57:39Z</time>
      </trkpt>
      <trkpt lat="47.48512" lon="3.87924">
        <ele>222</ele>
        <time>2019-04-05T11:57:54Z</time>
      </trkpt>
      <trkpt lat="47.48508" lon="3.87926">
        <ele>222</ele>
        <time>2019-04-05T11:57:58Z</time>
      </trkpt>
      <trkpt lat="47.48503" lon="3.87932">
        <ele>220</ele>
        <time>2019-04-05T11:58:02Z</time>
      </trkpt>
      <trkpt lat="47.485" lon="3.87936">
        <ele>220</ele>
        <time>2019-04-05T11:58:06Z</time>
      </trkpt>
      <trkpt lat="47.48498" lon="3.87939">
        <ele>220</ele>
        <time>2019-04-05T11:58:08Z</time>
      </trkpt>
      <trkpt lat="47.48496" lon="3.87941">
        <ele>220</ele>
        <time>2019-04-05T11:58:10Z</time>
      </trkpt>
      <trkpt lat="47.48493" lon="3.87946">
        <ele>221</ele>
        <time>2019-04-05T11:58:16Z</time>
      </trkpt>
      <trkpt lat="47.48488" lon="3.8795">
        <ele>223</ele>
        <time>2019-04-05T11:58:24Z</time>
      </trkpt>
      <trkpt lat="47.48484" lon="3.87957">
        <ele>224</ele>
        <time>2019-04-05T11:58:29Z</time>
      </trkpt>
      <trkpt lat="47.48482" lon="3.87965">
        <ele>223</ele>
        <time>2019-04-05T11:58:33Z</time>
      </trkpt>
      <trkpt lat="47.4848" lon="3.87971">
        <ele>223</ele>
        <time>2019-04-05T11:58:37Z</time>
      </trkpt>
      <trkpt lat="47.48477" lon="3.87978">
        <ele>224</ele>
        <time>2019-04-05T11:58:40Z</time>
      </trkpt>
      <trkpt lat="47.48476" lon="3.87982">
        <ele>224</ele>
        <time>2019-04-05T11:58:42Z</time>
      </trkpt>
      <trkpt lat="47.48474" lon="3.87989">
        <ele>226</ele>
        <time>2019-04-05T11:58:49Z</time>
      </trkpt>
      <trkpt lat="47.48472" lon="3.87996">
        <ele>226</ele>
        <time>2019-04-05T11:58:56Z</time>
      </trkpt>
      <trkpt lat="47.48469" lon="3.88002">
        <ele>225</ele>
        <time>2019-04-05T11:58:59Z</time>
      </trkpt>
      <trkpt lat="47.48468" lon="3.88009">
        <ele>226</ele>
        <time>2019-04-05T11:59:05Z</time>
      </trkpt>
      <trkpt lat="47.48469" lon="3.88019">
        <ele>227</ele>
        <time>2019-04-05T11:59:13Z</time>
      </trkpt>
      <trkpt lat="47.4847" lon="3.88024">
        <ele>225</ele>
        <time>2019-04-05T11:59:16Z</time>
      </trkpt>
      <trkpt lat="47.48466" lon="3.88034">
        <ele>224</ele>
        <time>2019-04-05T11:59:21Z</time>
      </trkpt>
      <trkpt lat="47.48464" lon="3.88038">
        <ele>224</ele>
        <time>2019-04-05T11:59:24Z</time>
      </trkpt>
      <trkpt lat="47.48463" lon="3.88046">
        <ele>221</ele>
        <time>2019-04-05T11:59:28Z</time>
      </trkpt>
      <trkpt lat="47.48462" lon="3.88052">
        <ele>219</ele>
        <time>2019-04-05T11:59:32Z</time>
      </trkpt>
      <trkpt lat="47.48464" lon="3.88059">
        <ele>219</ele>
        <time>2019-04-05T11:59:35Z</time>
      </trkpt>
      <trkpt lat="47.48467" lon="3.8807">
        <ele>219</ele>
        <time>2019-04-05T11:59:41Z</time>
      </trkpt>
      <trkpt lat="47.48467" lon="3.88077">
        <ele>217</ele>
        <time>2019-04-05T11:59:44Z</time>
      </trkpt>
      <trkpt lat="47.48467" lon="3.88082">
        <ele>216</ele>
        <time>2019-04-05T11:59:47Z</time>
      </trkpt>
      <trkpt lat="47.48469" lon="3.88088">
        <ele>218</ele>
        <time>2019-04-05T11:59:52Z</time>
      </trkpt>
      <trkpt lat="47.48467" lon="3.881">
        <ele>218</ele>
        <time>2019-04-05T11:59:58Z</time>
      </trkpt>
      <trkpt lat="47.48467" lon="3.88107">
        <ele>220</ele>
        <time>2019-04-05T12:00:03Z</time>
      </trkpt>
      <trkpt lat="47.48469" lon="3.88116">
        <ele>219</ele>
        <time>2019-04-05T12:00:08Z</time>
      </trkpt>
      <trkpt lat="47.48468" lon="3.88123">
        <ele>220</ele>
        <time>2019-04-05T12:00:12Z</time>
      </trkpt>
      <trkpt lat="47.48469" lon="3.88131">
        <ele>223</ele>
        <time>2019-04-05T12:00:19Z</time>
      </trkpt>
      <trkpt lat="47.48466" lon="3.88138">
        <ele>223</ele>
        <time>2019-04-05T12:00:24Z</time>
      </trkpt>
      <trkpt lat="47.48467" lon="3.88148">
        <ele>224</ele>
        <time>2019-04-05T12:00:30Z</time>
      </trkpt>
      <trkpt lat="47.48466" lon="3.88159">
        <ele>224</ele>
        <time>2019-04-05T12:00:34Z</time>
      </trkpt>
      <trkpt lat="47.48464" lon="3.88165">
        <ele>222</ele>
        <time>2019-04-05T12:00:37Z</time>
      </trkpt>
      <trkpt lat="47.48463" lon="3.88174">
        <ele>222</ele>
        <time>2019-04-05T12:00:42Z</time>
      </trkpt>
      <trkpt lat="47.48464" lon="3.88181">
        <ele>222</ele>
        <time>2019-04-05T12:00:46Z</time>
      </trkpt>
      <trkpt lat="47.48465" lon="3.88188">
        <ele>221</ele>
        <time>2019-04-05T12:00:52Z</time>
      </trkpt>
      <trkpt lat="47.48464" lon="3.88195">
        <ele>221</ele>
        <time>2019-04-05T12:00:57Z</time>
      </trkpt>
      <trkpt lat="47.48464" lon="3.88203">
        <ele>222</ele>
        <time>2019-04-05T12:01:01Z</time>
      </trkpt>
      <trkpt lat="47.48466" lon="3.8821">
        <ele>222</ele>
        <time>2019-04-05T12:01:06Z</time>
      </trkpt>
      <trkpt lat="47.48467" lon="3.88217">
        <ele>221</ele>
        <time>2019-04-05T12:01:11Z</time>
      </trkpt>
      <trkpt lat="47.48465" lon="3.88224">
        <ele>219</ele>
        <time>2019-04-05T12:01:16Z</time>
      </trkpt>
      <trkpt lat="47.48465" lon="3.88224">
        <ele>219</ele>
        <time>2019-04-05T12:01:24Z</time>
      </trkpt>
      <trkpt lat="47.48463" lon="3.88232">
        <ele>217</ele>
        <time>2019-04-05T12:01:27Z</time>
      </trkpt>
      <trkpt lat="47.48459" lon="3.88236">
        <ele>216</ele>
        <time>2019-04-05T12:01:33Z</time>
      </trkpt>
      <trkpt lat="47.48456" lon="3.88242">
        <ele>216</ele>
        <time>2019-04-05T12:01:40Z</time>
      </trkpt>
      <trkpt lat="47.48453" lon="3.88247">
        <ele>217</ele>
        <time>2019-04-05T12:01:45Z</time>
      </trkpt>
      <trkpt lat="47.48448" lon="3.8825">
        <ele>219</ele>
        <time>2019-04-05T12:01:48Z</time>
      </trkpt>
      <trkpt lat="47.48444" lon="3.88257">
        <ele>219</ele>
        <time>2019-04-05T12:01:53Z</time>
      </trkpt>
      <trkpt lat="47.48439" lon="3.88258">
        <ele>221</ele>
        <time>2019-04-05T12:01:59Z</time>
      </trkpt>
      <trkpt lat="47.48434" lon="3.88261">
        <ele>220</ele>
        <time>2019-04-05T12:02:03Z</time>
      </trkpt>
      <trkpt lat="47.48431" lon="3.88263">
        <ele>221</ele>
        <time>2019-04-05T12:02:08Z</time>
      </trkpt>
      <trkpt lat="47.48426" lon="3.88264">
        <ele>217</ele>
        <time>2019-04-05T12:02:19Z</time>
      </trkpt>
      <trkpt lat="47.48419" lon="3.88261">
        <ele>217</ele>
        <time>2019-04-05T12:02:25Z</time>
      </trkpt>
      <trkpt lat="47.48414" lon="3.8826">
        <ele>217</ele>
        <time>2019-04-05T12:02:32Z</time>
      </trkpt>
      <trkpt lat="47.4841" lon="3.88264">
        <ele>216</ele>
        <time>2019-04-05T12:02:38Z</time>
      </trkpt>
      <trkpt lat="47.48405" lon="3.88264">
        <ele>218</ele>
        <time>2019-04-05T12:02:43Z</time>
      </trkpt>
      <trkpt lat="47.48399" lon="3.88265">
        <ele>217</ele>
        <time>2019-04-05T12:02:48Z</time>
      </trkpt>
      <trkpt lat="47.48397" lon="3.88265">
        <ele>217</ele>
        <time>2019-04-05T12:02:51Z</time>
      </trkpt>
      <trkpt lat="47.48392" lon="3.88269">
        <ele>216</ele>
        <time>2019-04-05T12:02:57Z</time>
      </trkpt>
      <trkpt lat="47.4839" lon="3.88271">
        <ele>216</ele>
        <time>2019-04-05T12:02:59Z</time>
      </trkpt>
      <trkpt lat="47.48384" lon="3.88275">
        <ele>218</ele>
        <time>2019-04-05T12:03:04Z</time>
      </trkpt>
      <trkpt lat="47.48381" lon="3.88278">
        <ele>218</ele>
        <time>2019-04-05T12:03:08Z</time>
      </trkpt>
      <trkpt lat="47.48381" lon="3.8828">
        <ele>220</ele>
        <time>2019-04-05T12:03:18Z</time>
      </trkpt>
      <trkpt lat="47.48376" lon="3.88277">
        <ele>220</ele>
        <time>2019-04-05T12:03:23Z</time>
      </trkpt>
      <trkpt lat="47.48371" lon="3.88276">
        <ele>221</ele>
        <time>2019-04-05T12:03:30Z</time>
      </trkpt>
      <trkpt lat="47.48365" lon="3.8828">
        <ele>221</ele>
        <time>2019-04-05T12:03:34Z</time>
      </trkpt>
      <trkpt lat="47.48359" lon="3.88282">
        <ele>219</ele>
        <time>2019-04-05T12:03:38Z</time>
      </trkpt>
      <trkpt lat="47.48359" lon="3.88282">
        <ele>219</ele>
        <time>2019-04-05T12:03:47Z</time>
      </trkpt>
      <trkpt lat="47.48354" lon="3.88281">
        <ele>219</ele>
        <time>2019-04-05T12:03:49Z</time>
      </trkpt>
      <trkpt lat="47.48352" lon="3.8828">
        <ele>221</ele>
        <time>2019-04-05T12:03:52Z</time>
      </trkpt>
      <trkpt lat="47.48346" lon="3.88282">
        <ele>220</ele>
        <time>2019-04-05T12:03:56Z</time>
      </trkpt>
      <trkpt lat="47.48341" lon="3.88281">
        <ele>218</ele>
        <time>2019-04-05T12:04:00Z</time>
      </trkpt>
      <trkpt lat="47.48338" lon="3.88281">
        <ele>217</ele>
        <time>2019-04-05T12:04:02Z</time>
      </trkpt>
      <trkpt lat="47.48333" lon="3.88282">
        <ele>218</ele>
        <time>2019-04-05T12:04:06Z</time>
      </trkpt>
      <trkpt lat="47.48327" lon="3.88281">
        <ele>217</ele>
        <time>2019-04-05T12:04:15Z</time>
      </trkpt>
      <trkpt lat="47.4832" lon="3.88278">
        <ele>214</ele>
        <time>2019-04-05T12:04:23Z</time>
      </trkpt>
      <trkpt lat="47.48316" lon="3.8828">
        <ele>213</ele>
        <time>2019-04-05T12:04:27Z</time>
      </trkpt>
      <trkpt lat="47.4831" lon="3.88278">
        <ele>214</ele>
        <time>2019-04-05T12:04:32Z</time>
      </trkpt>
      <trkpt lat="47.48306" lon="3.88278">
        <ele>216</ele>
        <time>2019-04-05T12:04:37Z</time>
      </trkpt>
      <trkpt lat="47.48303" lon="3.88278">
        <ele>216</ele>
        <time>2019-04-05T12:04:40Z</time>
      </trkpt>
      <trkpt lat="47.48297" lon="3.88281">
        <ele>214</ele>
        <time>2019-04-05T12:04:44Z</time>
      </trkpt>
      <trkpt lat="47.48293" lon="3.8828">
        <ele>211</ele>
        <time>2019-04-05T12:04:50Z</time>
      </trkpt>
      <trkpt lat="47.4829" lon="3.8828">
        <ele>212</ele>
        <time>2019-04-05T12:04:51Z</time>
      </trkpt>
      <trkpt lat="47.48286" lon="3.8828">
        <ele>212</ele>
        <time>2019-04-05T12:04:57Z</time>
      </trkpt>
      <trkpt lat="47.48281" lon="3.88283">
        <ele>212</ele>
        <time>2019-04-05T12:05:00Z</time>
      </trkpt>
      <trkpt lat="47.48277" lon="3.88284">
        <ele>214</ele>
        <time>2019-04-05T12:05:05Z</time>
      </trkpt>
      <trkpt lat="47.48274" lon="3.88285">
        <ele>214</ele>
        <time>2019-04-05T12:05:07Z</time>
      </trkpt>
      <trkpt lat="47.48271" lon="3.88286">
        <ele>213</ele>
        <time>2019-04-05T12:05:09Z</time>
      </trkpt>
      <trkpt lat="47.48269" lon="3.88286">
        <ele>213</ele>
        <time>2019-04-05T12:05:11Z</time>
      </trkpt>
      <trkpt lat="47.48265" lon="3.88287">
        <ele>211</ele>
        <time>2019-04-05T12:05:14Z</time>
      </trkpt>
      <trkpt lat="47.48262" lon="3.88288">
        <ele>213</ele>
        <time>2019-04-05T12:05:18Z</time>
      </trkpt>
      <trkpt lat="47.48254" lon="3.88292">
        <ele>213</ele>
        <time>2019-04-05T12:05:23Z</time>
      </trkpt>
      <trkpt lat="47.4825" lon="3.88291">
        <ele>213</ele>
        <time>2019-04-05T12:05:27Z</time>
      </trkpt>
      <trkpt lat="47.48247" lon="3.8829">
        <ele>215</ele>
        <time>2019-04-05T12:05:30Z</time>
      </trkpt>
      <trkpt lat="47.48242" lon="3.88292">
        <ele>217</ele>
        <time>2019-04-05T12:05:35Z</time>
      </trkpt>
      <trkpt lat="47.48242" lon="3.88292">
        <ele>217</ele>
        <time>2019-04-05T12:05:43Z</time>
      </trkpt>
      <trkpt lat="47.48242" lon="3.88292">
        <ele>217</ele>
        <time>2019-04-05T12:05:44Z</time>
      </trkpt>
      <trkpt lat="47.48236" lon="3.88293">
        <ele>221</ele>
        <time>2019-04-05T12:05:46Z</time>
      </trkpt>
      <trkpt lat="47.48233" lon="3.88294">
        <ele>221</ele>
        <time>2019-04-05T12:05:48Z</time>
      </trkpt>
      <trkpt lat="47.48228" lon="3.88297">
        <ele>217</ele>
        <time>2019-04-05T12:05:54Z</time>
      </trkpt>
      <trkpt lat="47.48221" lon="3.883">
        <ele>219</ele>
        <time>2019-04-05T12:06:03Z</time>
      </trkpt>
      <trkpt lat="47.48217" lon="3.88304">
        <ele>220</ele>
        <time>2019-04-05T12:06:07Z</time>
      </trkpt>
      <trkpt lat="47.48214" lon="3.88306">
        <ele>219</ele>
        <time>2019-04-05T12:06:08Z</time>
      </trkpt>
      <trkpt lat="47.48212" lon="3.88308">
        <ele>218</ele>
        <time>2019-04-05T12:06:10Z</time>
      </trkpt>
      <trkpt lat="47.48208" lon="3.88313">
        <ele>217</ele>
        <time>2019-04-05T12:06:15Z</time>
      </trkpt>
      <trkpt lat="47.48203" lon="3.88317">
        <ele>217</ele>
        <time>2019-04-05T12:06:18Z</time>
      </trkpt>
      <trkpt lat="47.48198" lon="3.88323">
        <ele>217</ele>
        <time>2019-04-05T12:06:22Z</time>
      </trkpt>
      <trkpt lat="47.48195" lon="3.88328">
        <ele>218</ele>
        <time>2019-04-05T12:06:26Z</time>
      </trkpt>
      <trkpt lat="47.48192" lon="3.88331">
        <ele>219</ele>
        <time>2019-04-05T12:06:28Z</time>
      </trkpt>
      <trkpt lat="47.48189" lon="3.88336">
        <ele>217</ele>
        <time>2019-04-05T12:06:31Z</time>
      </trkpt>
      <trkpt lat="47.48187" lon="3.88338">
        <ele>217</ele>
        <time>2019-04-05T12:06:33Z</time>
      </trkpt>
      <trkpt lat="47.48184" lon="3.8834">
        <ele>219</ele>
        <time>2019-04-05T12:06:41Z</time>
      </trkpt>
      <trkpt lat="47.48181" lon="3.88347">
        <ele>219</ele>
        <time>2019-04-05T12:06:45Z</time>
      </trkpt>
      <trkpt lat="47.48179" lon="3.88354">
        <ele>219</ele>
        <time>2019-04-05T12:06:49Z</time>
      </trkpt>
      <trkpt lat="47.48175" lon="3.88358">
        <ele>220</ele>
        <time>2019-04-05T12:06:53Z</time>
      </trkpt>
      <trkpt lat="47.48172" lon="3.88361">
        <ele>219</ele>
        <time>2019-04-05T12:06:56Z</time>
      </trkpt>
      <trkpt lat="47.48168" lon="3.88367">
        <ele>219</ele>
        <time>2019-04-05T12:07:01Z</time>
      </trkpt>
      <trkpt lat="47.48167" lon="3.88371">
        <ele>218</ele>
        <time>2019-04-05T12:07:02Z</time>
      </trkpt>
      <trkpt lat="47.48164" lon="3.88378">
        <ele>218</ele>
        <time>2019-04-05T12:07:08Z</time>
      </trkpt>
      <trkpt lat="47.48162" lon="3.88384">
        <ele>219</ele>
        <time>2019-04-05T12:07:12Z</time>
      </trkpt>
      <trkpt lat="47.48159" lon="3.88389">
        <ele>219</ele>
        <time>2019-04-05T12:07:18Z</time>
      </trkpt>
      <trkpt lat="47.48156" lon="3.88393">
        <ele>220</ele>
        <time>2019-04-05T12:07:22Z</time>
      </trkpt>
      <trkpt lat="47.48153" lon="3.88397">
        <ele>220</ele>
        <time>2019-04-05T12:07:26Z</time>
      </trkpt>
      <trkpt lat="47.4815" lon="3.88404">
        <ele>221</ele>
        <time>2019-04-05T12:07:30Z</time>
      </trkpt>
      <trkpt lat="47.48148" lon="3.88408">
        <ele>220</ele>
        <time>2019-04-05T12:07:32Z</time>
      </trkpt>
      <trkpt lat="47.48145" lon="3.88412">
        <ele>219</ele>
        <time>2019-04-05T12:07:37Z</time>
      </trkpt>
      <trkpt lat="47.48145" lon="3.88412">
        <ele>219</ele>
        <time>2019-04-05T12:07:44Z</time>
      </trkpt>
      <trkpt lat="47.48145" lon="3.88412">
        <ele>219</ele>
        <time>2019-04-05T12:07:45Z</time>
      </trkpt>
      <trkpt lat="47.48141" lon="3.88417">
        <ele>217</ele>
        <time>2019-04-05T12:07:53Z</time>
      </trkpt>
      <trkpt lat="47.48137" lon="3.88421">
        <ele>220</ele>
        <time>2019-04-05T12:08:02Z</time>
      </trkpt>
      <trkpt lat="47.48132" lon="3.88425">
        <ele>218</ele>
        <time>2019-04-05T12:08:09Z</time>
      </trkpt>
      <trkpt lat="47.48129" lon="3.88428">
        <ele>220</ele>
        <time>2019-04-05T12:08:12Z</time>
      </trkpt>
      <trkpt lat="47.48125" lon="3.88431">
        <ele>222</ele>
        <time>2019-04-05T12:08:16Z</time>
      </trkpt>
      <trkpt lat="47.48122" lon="3.88434">
        <ele>224</ele>
        <time>2019-04-05T12:08:25Z</time>
      </trkpt>
      <trkpt lat="47.48118" lon="3.88437">
        <ele>225</ele>
        <time>2019-04-05T12:08:32Z</time>
      </trkpt>
      <trkpt lat="47.48114" lon="3.88443">
        <ele>228</ele>
        <time>2019-04-05T12:08:49Z</time>
      </trkpt>
      <trkpt lat="47.48113" lon="3.8845">
        <ele>229</ele>
        <time>2019-04-05T12:08:58Z</time>
      </trkpt>
      <trkpt lat="47.48111" lon="3.88456">
        <ele>228</ele>
        <time>2019-04-05T12:09:03Z</time>
      </trkpt>
      <trkpt lat="47.48106" lon="3.88458">
        <ele>230</ele>
        <time>2019-04-05T12:09:12Z</time>
      </trkpt>
      <trkpt lat="47.48102" lon="3.88462">
        <ele>231</ele>
        <time>2019-04-05T12:09:22Z</time>
      </trkpt>
      <trkpt lat="47.48098" lon="3.88466">
        <ele>231</ele>
        <time>2019-04-05T12:09:28Z</time>
      </trkpt>
      <trkpt lat="47.48094" lon="3.88472">
        <ele>232</ele>
        <time>2019-04-05T12:09:37Z</time>
      </trkpt>
      <trkpt lat="47.48092" lon="3.88475">
        <ele>231</ele>
        <time>2019-04-05T12:09:40Z</time>
      </trkpt>
      <trkpt lat="47.48089" lon="3.88482">
        <ele>232</ele>
        <time>2019-04-05T12:09:47Z</time>
      </trkpt>
      <trkpt lat="47.48086" lon="3.88488">
        <ele>232</ele>
        <time>2019-04-05T12:09:59Z</time>
      </trkpt>
      <trkpt lat="47.48084" lon="3.88495">
        <ele>232</ele>
        <time>2019-04-05T12:10:08Z</time>
      </trkpt>
      <trkpt lat="47.48084" lon="3.88504">
        <ele>231</ele>
        <time>2019-04-05T12:10:13Z</time>
      </trkpt>
      <trkpt lat="47.4808" lon="3.88508">
        <ele>228</ele>
        <time>2019-04-05T12:10:19Z</time>
      </trkpt>
      <trkpt lat="47.48077" lon="3.88514">
        <ele>227</ele>
        <time>2019-04-05T12:10:23Z</time>
      </trkpt>
      <trkpt lat="47.48077" lon="3.88523">
        <ele>226</ele>
        <time>2019-04-05T12:10:28Z</time>
      </trkpt>
      <trkpt lat="47.48074" lon="3.88529">
        <ele>226</ele>
        <time>2019-04-05T12:10:33Z</time>
      </trkpt>
      <trkpt lat="47.48073" lon="3.88532">
        <ele>226</ele>
        <time>2019-04-05T12:10:35Z</time>
      </trkpt>
      <trkpt lat="47.48075" lon="3.88538">
        <ele>226</ele>
        <time>2019-04-05T12:10:40Z</time>
      </trkpt>
      <trkpt lat="47.48075" lon="3.88546">
        <ele>226</ele>
        <time>2019-04-05T12:10:48Z</time>
      </trkpt>
      <trkpt lat="47.48075" lon="3.88553">
        <ele>225</ele>
        <time>2019-04-05T12:10:55Z</time>
      </trkpt>
      <trkpt lat="47.48076" lon="3.88558">
        <ele>224</ele>
        <time>2019-04-05T12:11:01Z</time>
      </trkpt>
      <trkpt lat="47.48075" lon="3.88565">
        <ele>225</ele>
        <time>2019-04-05T12:11:08Z</time>
      </trkpt>
      <trkpt lat="47.48075" lon="3.88573">
        <ele>224</ele>
        <time>2019-04-05T12:11:14Z</time>
      </trkpt>
      <trkpt lat="47.48073" lon="3.88579">
        <ele>227</ele>
        <time>2019-04-05T12:11:19Z</time>
      </trkpt>
      <trkpt lat="47.48072" lon="3.88586">
        <ele>226</ele>
        <time>2019-04-05T12:11:24Z</time>
      </trkpt>
      <trkpt lat="47.4807" lon="3.88593">
        <ele>226</ele>
        <time>2019-04-05T12:11:28Z</time>
      </trkpt>
      <trkpt lat="47.48073" lon="3.88599">
        <ele>224</ele>
        <time>2019-04-05T12:11:36Z</time>
      </trkpt>
      <trkpt lat="47.48075" lon="3.88605">
        <ele>224</ele>
        <time>2019-04-05T12:11:42Z</time>
      </trkpt>
      <trkpt lat="47.48075" lon="3.88613">
        <ele>226</ele>
        <time>2019-04-05T12:11:47Z</time>
      </trkpt>
      <trkpt lat="47.48078" lon="3.88619">
        <ele>226</ele>
        <time>2019-04-05T12:11:50Z</time>
      </trkpt>
      <trkpt lat="47.4808" lon="3.88624">
        <ele>225</ele>
        <time>2019-04-05T12:11:54Z</time>
      </trkpt>
      <trkpt lat="47.4808" lon="3.88624">
        <ele>225</ele>
        <time>2019-04-05T12:12:02Z</time>
      </trkpt>
      <trkpt lat="47.4808" lon="3.88624">
        <ele>225</ele>
        <time>2019-04-05T12:12:03Z</time>
      </trkpt>
      <trkpt lat="47.48079" lon="3.88632">
        <ele>225</ele>
        <time>2019-04-05T12:12:06Z</time>
      </trkpt>
      <trkpt lat="47.48079" lon="3.88635">
        <ele>225</ele>
        <time>2019-04-05T12:12:09Z</time>
      </trkpt>
      <trkpt lat="47.48078" lon="3.88639">
        <ele>224</ele>
        <time>2019-04-05T12:12:14Z</time>
      </trkpt>
      <trkpt lat="47.4808" lon="3.88647">
        <ele>224</ele>
        <time>2019-04-05T12:12:21Z</time>
      </trkpt>
      <trkpt lat="47.48081" lon="3.88651">
        <ele>222</ele>
        <time>2019-04-05T12:12:24Z</time>
      </trkpt>
      <trkpt lat="47.48079" lon="3.88658">
        <ele>221</ele>
        <time>2019-04-05T12:12:29Z</time>
      </trkpt>
      <trkpt lat="47.48081" lon="3.88664">
        <ele>220</ele>
        <time>2019-04-05T12:12:38Z</time>
      </trkpt>
      <trkpt lat="47.48083" lon="3.88672">
        <ele>221</ele>
        <time>2019-04-05T12:12:43Z</time>
      </trkpt>
      <trkpt lat="47.48081" lon="3.88679">
        <ele>221</ele>
        <time>2019-04-05T12:12:48Z</time>
      </trkpt>
      <trkpt lat="47.48084" lon="3.88686">
        <ele>222</ele>
        <time>2019-04-05T12:12:56Z</time>
      </trkpt>
      <trkpt lat="47.48084" lon="3.88695">
        <ele>221</ele>
        <time>2019-04-05T12:13:01Z</time>
      </trkpt>
      <trkpt lat="47.48082" lon="3.88703">
        <ele>219</ele>
        <time>2019-04-05T12:13:05Z</time>
      </trkpt>
      <trkpt lat="47.48083" lon="3.8871">
        <ele>218</ele>
        <time>2019-04-05T12:13:09Z</time>
      </trkpt>
      <trkpt lat="47.4808" lon="3.88718">
        <ele>219</ele>
        <time>2019-04-05T12:13:15Z</time>
      </trkpt>
      <trkpt lat="47.48079" lon="3.88719">
        <ele>217</ele>
        <time>2019-04-05T12:13:24Z</time>
      </trkpt>
      <trkpt lat="47.4808" lon="3.88726">
        <ele>219</ele>
        <time>2019-04-05T12:13:33Z</time>
      </trkpt>
      <trkpt lat="47.48081" lon="3.88733">
        <ele>222</ele>
        <time>2019-04-05T12:13:54Z</time>
      </trkpt>
      <trkpt lat="47.48083" lon="3.88739">
        <ele>220</ele>
        <time>2019-04-05T12:14:00Z</time>
      </trkpt>
      <trkpt lat="47.48084" lon="3.88747">
        <ele>217</ele>
        <time>2019-04-05T12:14:11Z</time>
      </trkpt>
      <trkpt lat="47.48086" lon="3.88752">
        <ele>220</ele>
        <time>2019-04-05T12:14:20Z</time>
      </trkpt>
      <trkpt lat="47.48085" lon="3.8876">
        <ele>217</ele>
        <time>2019-04-05T12:14:33Z</time>
      </trkpt>
      <trkpt lat="47.48083" lon="3.88766">
        <ele>217</ele>
        <time>2019-04-05T12:14:37Z</time>
      </trkpt>
      <trkpt lat="47.48083" lon="3.88773">
        <ele>218</ele>
        <time>2019-04-05T12:14:43Z</time>
      </trkpt>
      <trkpt lat="47.48086" lon="3.88781">
        <ele>220</ele>
        <time>2019-04-05T12:14:52Z</time>
      </trkpt>
      <trkpt lat="47.48088" lon="3.88787">
        <ele>221</ele>
        <time>2019-04-05T12:14:56Z</time>
      </trkpt>
      <trkpt lat="47.48089" lon="3.88792">
        <ele>222</ele>
        <time>2019-04-05T12:14:59Z</time>
      </trkpt>
      <trkpt lat="47.4809" lon="3.88799">
        <ele>224</ele>
        <time>2019-04-05T12:15:04Z</time>
      </trkpt>
      <trkpt lat="47.48089" lon="3.88807">
        <ele>225</ele>
        <time>2019-04-05T12:15:10Z</time>
      </trkpt>
      <trkpt lat="47.48096" lon="3.88811">
        <ele>219</ele>
        <time>2019-04-05T12:15:19Z</time>
      </trkpt>
      <trkpt lat="47.48092" lon="3.88821">
        <ele>222</ele>
        <time>2019-04-05T12:15:29Z</time>
      </trkpt>
      <trkpt lat="47.48093" lon="3.88827">
        <ele>222</ele>
        <time>2019-04-05T12:15:32Z</time>
      </trkpt>
      <trkpt lat="47.48089" lon="3.88833">
        <ele>223</ele>
        <time>2019-04-05T12:15:35Z</time>
      </trkpt>
      <trkpt lat="47.48088" lon="3.88841">
        <ele>225</ele>
        <time>2019-04-05T12:15:41Z</time>
      </trkpt>
      <trkpt lat="47.48089" lon="3.88848">
        <ele>224</ele>
        <time>2019-04-05T12:15:45Z</time>
      </trkpt>
      <trkpt lat="47.48093" lon="3.88855">
        <ele>225</ele>
        <time>2019-04-05T12:15:52Z</time>
      </trkpt>
      <trkpt lat="47.48092" lon="3.88862">
        <ele>226</ele>
        <time>2019-04-05T12:15:55Z</time>
      </trkpt>
      <trkpt lat="47.48093" lon="3.88864">
        <ele>226</ele>
        <time>2019-04-05T12:16:06Z</time>
      </trkpt>
      <trkpt lat="47.48093" lon="3.88877">
        <ele>230</ele>
        <time>2019-04-05T12:16:36Z</time>
      </trkpt>
      <trkpt lat="47.48097" lon="3.88882">
        <ele>230</ele>
        <time>2019-04-05T12:16:45Z</time>
      </trkpt>
      <trkpt lat="47.48096" lon="3.88889">
        <ele>230</ele>
        <time>2019-04-05T12:16:50Z</time>
      </trkpt>
      <trkpt lat="47.481" lon="3.88895">
        <ele>228</ele>
        <time>2019-04-05T12:16:56Z</time>
      </trkpt>
      <trkpt lat="47.48098" lon="3.88905">
        <ele>228</ele>
        <time>2019-04-05T12:17:05Z</time>
      </trkpt>
      <trkpt lat="47.48096" lon="3.88926">
        <ele>220</ele>
        <time>2019-04-05T12:18:08Z</time>
      </trkpt>
      <trkpt lat="47.48095" lon="3.88934">
        <ele>219</ele>
        <time>2019-04-05T12:18:14Z</time>
      </trkpt>
      <trkpt lat="47.48091" lon="3.88943">
        <ele>218</ele>
        <time>2019-04-05T12:18:22Z</time>
      </trkpt>
      <trkpt lat="47.4809" lon="3.88951">
        <ele>218</ele>
        <time>2019-04-05T12:18:27Z</time>
      </trkpt>
      <trkpt lat="47.48091" lon="3.88959">
        <ele>218</ele>
        <time>2019-04-05T12:18:34Z</time>
      </trkpt>
      <trkpt lat="47.48094" lon="3.88965">
        <ele>219</ele>
        <time>2019-04-05T12:18:41Z</time>
      </trkpt>
      <trkpt lat="47.48097" lon="3.88971">
        <ele>220</ele>
        <time>2019-04-05T12:18:57Z</time>
      </trkpt>
      <trkpt lat="47.48096" lon="3.88978">
        <ele>219</ele>
        <time>2019-04-05T12:19:08Z</time>
      </trkpt>
      <trkpt lat="47.48094" lon="3.88984">
        <ele>220</ele>
        <time>2019-04-05T12:19:13Z</time>
      </trkpt>
      <trkpt lat="47.48095" lon="3.88991">
        <ele>219</ele>
        <time>2019-04-05T12:19:14Z</time>
      </trkpt>
      <trkpt lat="47.48099" lon="3.88996">
        <ele>215</ele>
        <time>2019-04-05T12:19:23Z</time>
      </trkpt>
      <trkpt lat="47.481" lon="3.89003">
        <ele>216</ele>
        <time>2019-04-05T12:19:28Z</time>
      </trkpt>
      <trkpt lat="47.48103" lon="3.89009">
        <ele>219</ele>
        <time>2019-04-05T12:19:37Z</time>
      </trkpt>
      <trkpt lat="47.48103" lon="3.89009">
        <ele>219</ele>
        <time>2019-04-05T12:21:40Z</time>
      </trkpt>
      <trkpt lat="47.48093" lon="3.89037">
        <ele>222</ele>
        <time>2019-04-05T12:21:41Z</time>
      </trkpt>
      <trkpt lat="47.48093" lon="3.89044">
        <ele>223</ele>
        <time>2019-04-05T12:21:50Z</time>
      </trkpt>
      <trkpt lat="47.48093" lon="3.89051">
        <ele>223</ele>
        <time>2019-04-05T12:21:56Z</time>
      </trkpt>
      <trkpt lat="47.48093" lon="3.89058">
        <ele>221</ele>
        <time>2019-04-05T12:22:07Z</time>
      </trkpt>
      <trkpt lat="47.48093" lon="3.89066">
        <ele>223</ele>
        <time>2019-04-05T12:22:13Z</time>
      </trkpt>
      <trkpt lat="47.48092" lon="3.8907">
        <ele>222</ele>
        <time>2019-04-05T12:22:17Z</time>
      </trkpt>
      <trkpt lat="47.48092" lon="3.89076">
        <ele>222</ele>
        <time>2019-04-05T12:22:22Z</time>
      </trkpt>
      <trkpt lat="47.48095" lon="3.89084">
        <ele>223</ele>
        <time>2019-04-05T12:22:28Z</time>
      </trkpt>
      <trkpt lat="47.48096" lon="3.89092">
        <ele>224</ele>
        <time>2019-04-05T12:22:35Z</time>
      </trkpt>
      <trkpt lat="47.48092" lon="3.89096">
        <ele>225</ele>
        <time>2019-04-05T12:22:41Z</time>
      </trkpt>
      <trkpt lat="47.48091" lon="3.89103">
        <ele>226</ele>
        <time>2019-04-05T12:22:47Z</time>
      </trkpt>
      <trkpt lat="47.48091" lon="3.89111">
        <ele>225</ele>
        <time>2019-04-05T12:22:52Z</time>
      </trkpt>
      <trkpt lat="47.48089" lon="3.89117">
        <ele>225</ele>
        <time>2019-04-05T12:22:57Z</time>
      </trkpt>
      <trkpt lat="47.48088" lon="3.89122">
        <ele>227</ele>
        <time>2019-04-05T12:23:03Z</time>
      </trkpt>
      <trkpt lat="47.48086" lon="3.89128">
        <ele>228</ele>
        <time>2019-04-05T12:23:06Z</time>
      </trkpt>
      <trkpt lat="47.48086" lon="3.89136">
        <ele>229</ele>
        <time>2019-04-05T12:23:13Z</time>
      </trkpt>
      <trkpt lat="47.48088" lon="3.89143">
        <ele>231</ele>
        <time>2019-04-05T12:23:20Z</time>
      </trkpt>
      <trkpt lat="47.48088" lon="3.89152">
        <ele>230</ele>
        <time>2019-04-05T12:23:25Z</time>
      </trkpt>
      <trkpt lat="47.48089" lon="3.89159">
        <ele>230</ele>
        <time>2019-04-05T12:23:32Z</time>
      </trkpt>
      <trkpt lat="47.4809" lon="3.89163">
        <ele>230</ele>
        <time>2019-04-05T12:23:34Z</time>
      </trkpt>
      <trkpt lat="47.48091" lon="3.8917">
        <ele>229</ele>
        <time>2019-04-05T12:23:37Z</time>
      </trkpt>
      <trkpt lat="47.48092" lon="3.89173">
        <ele>228</ele>
        <time>2019-04-05T12:23:39Z</time>
      </trkpt>
      <trkpt lat="47.48089" lon="3.8918">
        <ele>228</ele>
        <time>2019-04-05T12:23:43Z</time>
      </trkpt>
      <trkpt lat="47.48087" lon="3.89186">
        <ele>229</ele>
        <time>2019-04-05T12:23:47Z</time>
      </trkpt>
      <trkpt lat="47.48087" lon="3.89193">
        <ele>226</ele>
        <time>2019-04-05T12:23:55Z</time>
      </trkpt>
      <trkpt lat="47.48088" lon="3.89201">
        <ele>228</ele>
        <time>2019-04-05T12:23:59Z</time>
      </trkpt>
      <trkpt lat="47.48089" lon="3.89206">
        <ele>230</ele>
        <time>2019-04-05T12:24:02Z</time>
      </trkpt>
      <trkpt lat="47.4809" lon="3.89213">
        <ele>230</ele>
        <time>2019-04-05T12:24:05Z</time>
      </trkpt>
      <trkpt lat="47.48092" lon="3.89219">
        <ele>229</ele>
        <time>2019-04-05T12:24:09Z</time>
      </trkpt>
      <trkpt lat="47.48093" lon="3.89222">
        <ele>229</ele>
        <time>2019-04-05T12:24:14Z</time>
      </trkpt>
      <trkpt lat="47.48092" lon="3.89229">
        <ele>228</ele>
        <time>2019-04-05T12:24:21Z</time>
      </trkpt>
      <trkpt lat="47.48092" lon="3.89234">
        <ele>228</ele>
        <time>2019-04-05T12:24:24Z</time>
      </trkpt>
      <trkpt lat="47.48091" lon="3.89239">
        <ele>227</ele>
        <time>2019-04-05T12:24:31Z</time>
      </trkpt>
      <trkpt lat="47.48094" lon="3.89246">
        <ele>228</ele>
        <time>2019-04-05T12:24:38Z</time>
      </trkpt>
      <trkpt lat="47.48098" lon="3.89252">
        <ele>226</ele>
        <time>2019-04-05T12:24:44Z</time>
      </trkpt>
      <trkpt lat="47.48099" lon="3.8926">
        <ele>228</ele>
        <time>2019-04-05T12:24:50Z</time>
      </trkpt>
      <trkpt lat="47.481" lon="3.89268">
        <ele>228</ele>
        <time>2019-04-05T12:24:55Z</time>
      </trkpt>
      <trkpt lat="47.48104" lon="3.89277">
        <ele>227</ele>
        <time>2019-04-05T12:25:00Z</time>
      </trkpt>
      <trkpt lat="47.48107" lon="3.89283">
        <ele>228</ele>
        <time>2019-04-05T12:25:03Z</time>
      </trkpt>
      <trkpt lat="47.48106" lon="3.8929">
        <ele>225</ele>
        <time>2019-04-05T12:25:10Z</time>
      </trkpt>
      <trkpt lat="47.48109" lon="3.89294">
        <ele>224</ele>
        <time>2019-04-05T12:25:16Z</time>
      </trkpt>
      <trkpt lat="47.48113" lon="3.89298">
        <ele>226</ele>
        <time>2019-04-05T12:25:22Z</time>
      </trkpt>
      <trkpt lat="47.48114" lon="3.89306">
        <ele>224</ele>
        <time>2019-04-05T12:25:29Z</time>
      </trkpt>
      <trkpt lat="47.48116" lon="3.89311">
        <ele>225</ele>
        <time>2019-04-05T12:25:32Z</time>
      </trkpt>
      <trkpt lat="47.48117" lon="3.89317">
        <ele>224</ele>
        <time>2019-04-05T12:25:36Z</time>
      </trkpt>
      <trkpt lat="47.4812" lon="3.89324">
        <ele>222</ele>
        <time>2019-04-05T12:25:41Z</time>
      </trkpt>
      <trkpt lat="47.48121" lon="3.89327">
        <ele>221</ele>
        <time>2019-04-05T12:25:44Z</time>
      </trkpt>
      <trkpt lat="47.48126" lon="3.89333">
        <ele>221</ele>
        <time>2019-04-05T12:25:49Z</time>
      </trkpt>
      <trkpt lat="47.48129" lon="3.89338">
        <ele>223</ele>
        <time>2019-04-05T12:25:52Z</time>
      </trkpt>
      <trkpt lat="47.48131" lon="3.89341">
        <ele>222</ele>
        <time>2019-04-05T12:25:59Z</time>
      </trkpt>
      <trkpt lat="47.48133" lon="3.89343">
        <ele>221</ele>
        <time>2019-04-05T12:26:05Z</time>
      </trkpt>
      <trkpt lat="47.48135" lon="3.8935">
        <ele>224</ele>
        <time>2019-04-05T12:26:09Z</time>
      </trkpt>
      <trkpt lat="47.48141" lon="3.89356">
        <ele>223</ele>
        <time>2019-04-05T12:26:13Z</time>
      </trkpt>
      <trkpt lat="47.48144" lon="3.89363">
        <ele>221</ele>
        <time>2019-04-05T12:26:16Z</time>
      </trkpt>
      <trkpt lat="47.48145" lon="3.89367">
        <ele>221</ele>
        <time>2019-04-05T12:26:21Z</time>
      </trkpt>
      <trkpt lat="47.48147" lon="3.8937">
        <ele>221</ele>
        <time>2019-04-05T12:26:23Z</time>
      </trkpt>
      <trkpt lat="47.48152" lon="3.89377">
        <ele>219</ele>
        <time>2019-04-05T12:26:29Z</time>
      </trkpt>
      <trkpt lat="47.48157" lon="3.89383">
        <ele>220</ele>
        <time>2019-04-05T12:26:34Z</time>
      </trkpt>
      <trkpt lat="47.48162" lon="3.89387">
        <ele>220</ele>
        <time>2019-04-05T12:26:40Z</time>
      </trkpt>
      <trkpt lat="47.48165" lon="3.89391">
        <ele>220</ele>
        <time>2019-04-05T12:26:44Z</time>
      </trkpt>
      <trkpt lat="47.48172" lon="3.89395">
        <ele>222</ele>
        <time>2019-04-05T12:26:48Z</time>
      </trkpt>
      <trkpt lat="47.48176" lon="3.89396">
        <ele>221</ele>
        <time>2019-04-05T12:26:51Z</time>
      </trkpt>
      <trkpt lat="47.4818" lon="3.89401">
        <ele>222</ele>
        <time>2019-04-05T12:26:54Z</time>
      </trkpt>
      <trkpt lat="47.48183" lon="3.89405">
        <ele>222</ele>
        <time>2019-04-05T12:27:04Z</time>
      </trkpt>
      <trkpt lat="47.48187" lon="3.8941">
        <ele>222</ele>
        <time>2019-04-05T12:27:08Z</time>
      </trkpt>
      <trkpt lat="47.4819" lon="3.89415">
        <ele>223</ele>
        <time>2019-04-05T12:27:12Z</time>
      </trkpt>
      <trkpt lat="47.48194" lon="3.89421">
        <ele>223</ele>
        <time>2019-04-05T12:27:17Z</time>
      </trkpt>
      <trkpt lat="47.482" lon="3.89421">
        <ele>225</ele>
        <time>2019-04-05T12:27:22Z</time>
      </trkpt>
      <trkpt lat="47.48204" lon="3.89425">
        <ele>225</ele>
        <time>2019-04-05T12:27:27Z</time>
      </trkpt>
      <trkpt lat="47.48208" lon="3.89431">
        <ele>227</ele>
        <time>2019-04-05T12:27:33Z</time>
      </trkpt>
      <trkpt lat="47.48211" lon="3.89435">
        <ele>227</ele>
        <time>2019-04-05T12:27:42Z</time>
      </trkpt>
      <trkpt lat="47.48214" lon="3.8944">
        <ele>229</ele>
        <time>2019-04-05T12:27:45Z</time>
      </trkpt>
      <trkpt lat="47.48218" lon="3.89445">
        <ele>228</ele>
        <time>2019-04-05T12:27:50Z</time>
      </trkpt>
      <trkpt lat="47.48222" lon="3.89449">
        <ele>229</ele>
        <time>2019-04-05T12:27:54Z</time>
      </trkpt>
      <trkpt lat="47.48227" lon="3.89452">
        <ele>230</ele>
        <time>2019-04-05T12:27:59Z</time>
      </trkpt>
      <trkpt lat="47.48233" lon="3.89452">
        <ele>228</ele>
        <time>2019-04-05T12:28:04Z</time>
      </trkpt>
      <trkpt lat="47.48236" lon="3.89459">
        <ele>230</ele>
        <time>2019-04-05T12:28:11Z</time>
      </trkpt>
      <trkpt lat="47.48239" lon="3.89465">
        <ele>230</ele>
        <time>2019-04-05T12:28:17Z</time>
      </trkpt>
      <trkpt lat="47.48248" lon="3.89466">
        <ele>231</ele>
        <time>2019-04-05T12:28:24Z</time>
      </trkpt>
      <trkpt lat="47.48253" lon="3.89472">
        <ele>232</ele>
        <time>2019-04-05T12:28:30Z</time>
      </trkpt>
      <trkpt lat="47.48257" lon="3.89475">
        <ele>232</ele>
        <time>2019-04-05T12:28:38Z</time>
      </trkpt>
      <trkpt lat="47.48259" lon="3.89481">
        <ele>231</ele>
        <time>2019-04-05T12:28:47Z</time>
      </trkpt>
      <trkpt lat="47.48265" lon="3.89483">
        <ele>231</ele>
        <time>2019-04-05T12:28:59Z</time>
      </trkpt>
      <trkpt lat="47.48268" lon="3.8949">
        <ele>234</ele>
        <time>2019-04-05T12:29:04Z</time>
      </trkpt>
      <trkpt lat="47.48273" lon="3.89495">
        <ele>234</ele>
        <time>2019-04-05T12:29:09Z</time>
      </trkpt>
      <trkpt lat="47.48275" lon="3.89498">
        <ele>234</ele>
        <time>2019-04-05T12:29:13Z</time>
      </trkpt>
      <trkpt lat="47.48279" lon="3.89502">
        <ele>234</ele>
        <time>2019-04-05T12:29:21Z</time>
      </trkpt>
      <trkpt lat="47.48283" lon="3.89506">
        <ele>232</ele>
        <time>2019-04-05T12:29:26Z</time>
      </trkpt>
      <trkpt lat="47.48285" lon="3.89509">
        <ele>234</ele>
        <time>2019-04-05T12:29:30Z</time>
      </trkpt>
      <trkpt lat="47.48286" lon="3.89516">
        <ele>233</ele>
        <time>2019-04-05T12:29:35Z</time>
      </trkpt>
      <trkpt lat="47.48291" lon="3.8952">
        <ele>233</ele>
        <time>2019-04-05T12:29:40Z</time>
      </trkpt>
      <trkpt lat="47.48293" lon="3.89526">
        <ele>233</ele>
        <time>2019-04-05T12:29:47Z</time>
      </trkpt>
      <trkpt lat="47.48297" lon="3.89532">
        <ele>235</ele>
        <time>2019-04-05T12:29:52Z</time>
      </trkpt>
      <trkpt lat="47.48299" lon="3.89538">
        <ele>237</ele>
        <time>2019-04-05T12:30:00Z</time>
      </trkpt>
      <trkpt lat="47.48303" lon="3.89546">
        <ele>238</ele>
        <time>2019-04-05T12:30:08Z</time>
      </trkpt>
      <trkpt lat="47.48307" lon="3.89551">
        <ele>240</ele>
        <time>2019-04-05T12:30:13Z</time>
      </trkpt>
      <trkpt lat="47.4831" lon="3.89558">
        <ele>239</ele>
        <time>2019-04-05T12:30:19Z</time>
      </trkpt>
      <trkpt lat="47.48311" lon="3.89565">
        <ele>241</ele>
        <time>2019-04-05T12:30:24Z</time>
      </trkpt>
      <trkpt lat="47.48314" lon="3.89572">
        <ele>242</ele>
        <time>2019-04-05T12:30:30Z</time>
      </trkpt>
      <trkpt lat="47.48317" lon="3.89579">
        <ele>242</ele>
        <time>2019-04-05T12:30:35Z</time>
      </trkpt>
      <trkpt lat="47.48321" lon="3.89584">
        <ele>241</ele>
        <time>2019-04-05T12:30:42Z</time>
      </trkpt>
      <trkpt lat="47.48325" lon="3.89587">
        <ele>241</ele>
        <time>2019-04-05T12:30:46Z</time>
      </trkpt>
      <trkpt lat="47.48328" lon="3.89593">
        <ele>242</ele>
        <time>2019-04-05T12:30:51Z</time>
      </trkpt>
      <trkpt lat="47.48331" lon="3.89596">
        <ele>242</ele>
        <time>2019-04-05T12:30:56Z</time>
      </trkpt>
      <trkpt lat="47.48332" lon="3.89603">
        <ele>241</ele>
        <time>2019-04-05T12:31:03Z</time>
      </trkpt>
      <trkpt lat="47.48337" lon="3.8961">
        <ele>240</ele>
        <time>2019-04-05T12:31:08Z</time>
      </trkpt>
      <trkpt lat="47.48338" lon="3.89612">
        <ele>238</ele>
        <time>2019-04-05T12:31:10Z</time>
      </trkpt>
      <trkpt lat="47.48338" lon="3.89612">
        <ele>238</ele>
        <time>2019-04-05T12:31:17Z</time>
      </trkpt>
      <trkpt lat="47.48341" lon="3.89618">
        <ele>236</ele>
        <time>2019-04-05T12:31:18Z</time>
      </trkpt>
      <trkpt lat="47.48342" lon="3.89623">
        <ele>234</ele>
        <time>2019-04-05T12:31:24Z</time>
      </trkpt>
      <trkpt lat="47.48343" lon="3.89631">
        <ele>232</ele>
        <time>2019-04-05T12:31:30Z</time>
      </trkpt>
      <trkpt lat="47.48344" lon="3.89638">
        <ele>233</ele>
        <time>2019-04-05T12:31:38Z</time>
      </trkpt>
      <trkpt lat="47.48344" lon="3.89645">
        <ele>234</ele>
        <time>2019-04-05T12:31:45Z</time>
      </trkpt>
      <trkpt lat="47.48344" lon="3.89654">
        <ele>237</ele>
        <time>2019-04-05T12:31:51Z</time>
      </trkpt>
      <trkpt lat="47.48343" lon="3.89663">
        <ele>237</ele>
        <time>2019-04-05T12:31:57Z</time>
      </trkpt>
      <trkpt lat="47.48346" lon="3.8967">
        <ele>238</ele>
        <time>2019-04-05T12:32:03Z</time>
      </trkpt>
      <trkpt lat="47.48346" lon="3.89678">
        <ele>234</ele>
        <time>2019-04-05T12:32:09Z</time>
      </trkpt>
      <trkpt lat="47.48343" lon="3.89685">
        <ele>235</ele>
        <time>2019-04-05T12:32:14Z</time>
      </trkpt>
      <trkpt lat="47.48341" lon="3.89691">
        <ele>235</ele>
        <time>2019-04-05T12:32:18Z</time>
      </trkpt>
      <trkpt lat="47.48339" lon="3.89696">
        <ele>234</ele>
        <time>2019-04-05T12:32:21Z</time>
      </trkpt>
      <trkpt lat="47.48338" lon="3.897">
        <ele>233</ele>
        <time>2019-04-05T12:32:24Z</time>
      </trkpt>
      <trkpt lat="47.48338" lon="3.89708">
        <ele>229</ele>
        <time>2019-04-05T12:32:32Z</time>
      </trkpt>
      <trkpt lat="47.48338" lon="3.89715">
        <ele>231</ele>
        <time>2019-04-05T12:32:37Z</time>
      </trkpt>
      <trkpt lat="47.48337" lon="3.89722">
        <ele>232</ele>
        <time>2019-04-05T12:32:41Z</time>
      </trkpt>
      <trkpt lat="47.48338" lon="3.89729">
        <ele>230</ele>
        <time>2019-04-05T12:32:45Z</time>
      </trkpt>
      <trkpt lat="47.48338" lon="3.89736">
        <ele>232</ele>
        <time>2019-04-05T12:32:52Z</time>
      </trkpt>
      <trkpt lat="47.48334" lon="3.89743">
        <ele>232</ele>
        <time>2019-04-05T12:32:57Z</time>
      </trkpt>
      <trkpt lat="47.48333" lon="3.89745">
        <ele>232</ele>
        <time>2019-04-05T12:33:00Z</time>
      </trkpt>
      <trkpt lat="47.48329" lon="3.8975">
        <ele>230</ele>
        <time>2019-04-05T12:33:05Z</time>
      </trkpt>
      <trkpt lat="47.48326" lon="3.89758">
        <ele>230</ele>
        <time>2019-04-05T12:33:09Z</time>
      </trkpt>
      <trkpt lat="47.48322" lon="3.89761">
        <ele>230</ele>
        <time>2019-04-05T12:33:15Z</time>
      </trkpt>
      <trkpt lat="47.48319" lon="3.89768">
        <ele>230</ele>
        <time>2019-04-05T12:33:19Z</time>
      </trkpt>
      <trkpt lat="47.48317" lon="3.8977">
        <ele>231</ele>
        <time>2019-04-05T12:33:25Z</time>
      </trkpt>
      <trkpt lat="47.48315" lon="3.89774">
        <ele>232</ele>
        <time>2019-04-05T12:33:31Z</time>
      </trkpt>
      <trkpt lat="47.48313" lon="3.89777">
        <ele>234</ele>
        <time>2019-04-05T12:33:36Z</time>
      </trkpt>
      <trkpt lat="47.4831" lon="3.89783">
        <ele>235</ele>
        <time>2019-04-05T12:33:40Z</time>
      </trkpt>
      <trkpt lat="47.48303" lon="3.89785">
        <ele>234</ele>
        <time>2019-04-05T12:33:44Z</time>
      </trkpt>
      <trkpt lat="47.48302" lon="3.89793">
        <ele>238</ele>
        <time>2019-04-05T12:33:50Z</time>
      </trkpt>
      <trkpt lat="47.48301" lon="3.89802">
        <ele>238</ele>
        <time>2019-04-05T12:33:54Z</time>
      </trkpt>
      <trkpt lat="47.48297" lon="3.89807">
        <ele>236</ele>
        <time>2019-04-05T12:33:57Z</time>
      </trkpt>
      <trkpt lat="47.48293" lon="3.89813">
        <ele>237</ele>
        <time>2019-04-05T12:34:01Z</time>
      </trkpt>
      <trkpt lat="47.4829" lon="3.89819">
        <ele>237</ele>
        <time>2019-04-05T12:34:06Z</time>
      </trkpt>
      <trkpt lat="47.48284" lon="3.89823">
        <ele>238</ele>
        <time>2019-04-05T12:34:11Z</time>
      </trkpt>
      <trkpt lat="47.48279" lon="3.89826">
        <ele>238</ele>
        <time>2019-04-05T12:34:15Z</time>
      </trkpt>
      <trkpt lat="47.48274" lon="3.89828">
        <ele>239</ele>
        <time>2019-04-05T12:34:18Z</time>
      </trkpt>
      <trkpt lat="47.4827" lon="3.89832">
        <ele>238</ele>
        <time>2019-04-05T12:34:21Z</time>
      </trkpt>
      <trkpt lat="47.48268" lon="3.89834">
        <ele>238</ele>
        <time>2019-04-05T12:34:23Z</time>
      </trkpt>
      <trkpt lat="47.48265" lon="3.89836">
        <ele>238</ele>
        <time>2019-04-05T12:34:28Z</time>
      </trkpt>
      <trkpt lat="47.48262" lon="3.89842">
        <ele>237</ele>
        <time>2019-04-05T12:34:32Z</time>
      </trkpt>
      <trkpt lat="47.48259" lon="3.89848">
        <ele>235</ele>
        <time>2019-04-05T12:34:36Z</time>
      </trkpt>
      <trkpt lat="47.48261" lon="3.89854">
        <ele>235</ele>
        <time>2019-04-05T12:34:43Z</time>
      </trkpt>
      <trkpt lat="47.48256" lon="3.89861">
        <ele>236</ele>
        <time>2019-04-05T12:34:51Z</time>
      </trkpt>
      <trkpt lat="47.4825" lon="3.89861">
        <ele>235</ele>
        <time>2019-04-05T12:34:55Z</time>
      </trkpt>
      <trkpt lat="47.48247" lon="3.89867">
        <ele>235</ele>
        <time>2019-04-05T12:34:59Z</time>
      </trkpt>
      <trkpt lat="47.48244" lon="3.89873">
        <ele>234</ele>
        <time>2019-04-05T12:35:03Z</time>
      </trkpt>
      <trkpt lat="47.48241" lon="3.89877">
        <ele>232</ele>
        <time>2019-04-05T12:35:07Z</time>
      </trkpt>
      <trkpt lat="47.48237" lon="3.89883">
        <ele>232</ele>
        <time>2019-04-05T12:35:15Z</time>
      </trkpt>
      <trkpt lat="47.48236" lon="3.8989">
        <ele>233</ele>
        <time>2019-04-05T12:35:20Z</time>
      </trkpt>
      <trkpt lat="47.48233" lon="3.89896">
        <ele>233</ele>
        <time>2019-04-05T12:35:24Z</time>
      </trkpt>
      <trkpt lat="47.48228" lon="3.89899">
        <ele>233</ele>
        <time>2019-04-05T12:35:28Z</time>
      </trkpt>
      <trkpt lat="47.48222" lon="3.89904">
        <ele>233</ele>
        <time>2019-04-05T12:35:35Z</time>
      </trkpt>
      <trkpt lat="47.4822" lon="3.89905">
        <ele>231</ele>
        <time>2019-04-05T12:35:37Z</time>
      </trkpt>
      <trkpt lat="47.48215" lon="3.89907">
        <ele>231</ele>
        <time>2019-04-05T12:35:43Z</time>
      </trkpt>
      <trkpt lat="47.48212" lon="3.89908">
        <ele>230</ele>
        <time>2019-04-05T12:35:47Z</time>
      </trkpt>
      <trkpt lat="47.48208" lon="3.89912">
        <ele>234</ele>
        <time>2019-04-05T12:35:52Z</time>
      </trkpt>
      <trkpt lat="47.48202" lon="3.89915">
        <ele>232</ele>
        <time>2019-04-05T12:35:58Z</time>
      </trkpt>
      <trkpt lat="47.482" lon="3.89917">
        <ele>233</ele>
        <time>2019-04-05T12:36:00Z</time>
      </trkpt>
      <trkpt lat="47.48198" lon="3.89918">
        <ele>233</ele>
        <time>2019-04-05T12:36:02Z</time>
      </trkpt>
      <trkpt lat="47.48193" lon="3.89926">
        <ele>230</ele>
        <time>2019-04-05T12:36:12Z</time>
      </trkpt>
      <trkpt lat="47.48187" lon="3.89932">
        <ele>229</ele>
        <time>2019-04-05T12:36:17Z</time>
      </trkpt>
      <trkpt lat="47.48182" lon="3.89935">
        <ele>228</ele>
        <time>2019-04-05T12:36:20Z</time>
      </trkpt>
      <trkpt lat="47.48176" lon="3.89937">
        <ele>229</ele>
        <time>2019-04-05T12:36:27Z</time>
      </trkpt>
      <trkpt lat="47.48171" lon="3.89941">
        <ele>230</ele>
        <time>2019-04-05T12:36:32Z</time>
      </trkpt>
      <trkpt lat="47.48166" lon="3.89942">
        <ele>229</ele>
        <time>2019-04-05T12:36:36Z</time>
      </trkpt>
      <trkpt lat="47.48161" lon="3.8995">
        <ele>231</ele>
        <time>2019-04-05T12:36:43Z</time>
      </trkpt>
      <trkpt lat="47.48158" lon="3.89953">
        <ele>232</ele>
        <time>2019-04-05T12:36:46Z</time>
      </trkpt>
      <trkpt lat="47.48155" lon="3.89956">
        <ele>231</ele>
        <time>2019-04-05T12:36:48Z</time>
      </trkpt>
      <trkpt lat="47.4815" lon="3.89963">
        <ele>234</ele>
        <time>2019-04-05T12:36:53Z</time>
      </trkpt>
      <trkpt lat="47.48146" lon="3.89969">
        <ele>233</ele>
        <time>2019-04-05T12:36:58Z</time>
      </trkpt>
      <trkpt lat="47.48141" lon="3.89967">
        <ele>231</ele>
        <time>2019-04-05T12:37:04Z</time>
      </trkpt>
      <trkpt lat="47.48137" lon="3.89969">
        <ele>232</ele>
        <time>2019-04-05T12:37:08Z</time>
      </trkpt>
      <trkpt lat="47.48134" lon="3.89971">
        <ele>232</ele>
        <time>2019-04-05T12:37:11Z</time>
      </trkpt>
      <trkpt lat="47.48132" lon="3.89972">
        <ele>233</ele>
        <time>2019-04-05T12:37:14Z</time>
      </trkpt>
      <trkpt lat="47.48127" lon="3.89974">
        <ele>235</ele>
        <time>2019-04-05T12:37:19Z</time>
      </trkpt>
      <trkpt lat="47.48121" lon="3.89977">
        <ele>236</ele>
        <time>2019-04-05T12:37:23Z</time>
      </trkpt>
      <trkpt lat="47.48118" lon="3.89982">
        <ele>237</ele>
        <time>2019-04-05T12:37:26Z</time>
      </trkpt>
      <trkpt lat="47.48115" lon="3.89987">
        <ele>237</ele>
        <time>2019-04-05T12:37:32Z</time>
      </trkpt>
      <trkpt lat="47.48113" lon="3.89991">
        <ele>238</ele>
        <time>2019-04-05T12:37:36Z</time>
      </trkpt>
      <trkpt lat="47.4811" lon="3.89995">
        <ele>239</ele>
        <time>2019-04-05T12:37:39Z</time>
      </trkpt>
      <trkpt lat="47.48106" lon="3.89999">
        <ele>240</ele>
        <time>2019-04-05T12:37:43Z</time>
      </trkpt>
      <trkpt lat="47.48103" lon="3.90004">
        <ele>241</ele>
        <time>2019-04-05T12:37:50Z</time>
      </trkpt>
      <trkpt lat="47.481" lon="3.90007">
        <ele>240</ele>
        <time>2019-04-05T12:37:53Z</time>
      </trkpt>
      <trkpt lat="47.48097" lon="3.90013">
        <ele>241</ele>
        <time>2019-04-05T12:37:57Z</time>
      </trkpt>
      <trkpt lat="47.48091" lon="3.90021">
        <ele>242</ele>
        <time>2019-04-05T12:38:02Z</time>
      </trkpt>
      <trkpt lat="47.48088" lon="3.90028">
        <ele>243</ele>
        <time>2019-04-05T12:38:06Z</time>
      </trkpt>
      <trkpt lat="47.48086" lon="3.90034">
        <ele>244</ele>
        <time>2019-04-05T12:38:10Z</time>
      </trkpt>
      <trkpt lat="47.48085" lon="3.9004">
        <ele>244</ele>
        <time>2019-04-05T12:38:13Z</time>
      </trkpt>
      <trkpt lat="47.48088" lon="3.90047">
        <ele>244</ele>
        <time>2019-04-05T12:38:16Z</time>
      </trkpt>
      <trkpt lat="47.48089" lon="3.9005">
        <ele>243</ele>
        <time>2019-04-05T12:38:18Z</time>
      </trkpt>
      <trkpt lat="47.48091" lon="3.90058">
        <ele>239</ele>
        <time>2019-04-05T12:38:24Z</time>
      </trkpt>
      <trkpt lat="47.4809" lon="3.90066">
        <ele>241</ele>
        <time>2019-04-05T12:38:29Z</time>
      </trkpt>
      <trkpt lat="47.48089" lon="3.9007">
        <ele>242</ele>
        <time>2019-04-05T12:38:33Z</time>
      </trkpt>
      <trkpt lat="47.48089" lon="3.90077">
        <ele>240</ele>
        <time>2019-04-05T12:38:39Z</time>
      </trkpt>
      <trkpt lat="47.48089" lon="3.90084">
        <ele>240</ele>
        <time>2019-04-05T12:38:43Z</time>
      </trkpt>
      <trkpt lat="47.48088" lon="3.90091">
        <ele>240</ele>
        <time>2019-04-05T12:38:47Z</time>
      </trkpt>
      <trkpt lat="47.48091" lon="3.90099">
        <ele>239</ele>
        <time>2019-04-05T12:38:50Z</time>
      </trkpt>
      <trkpt lat="47.48092" lon="3.90106">
        <ele>237</ele>
        <time>2019-04-05T12:38:53Z</time>
      </trkpt>
      <trkpt lat="47.48093" lon="3.9011">
        <ele>235</ele>
        <time>2019-04-05T12:38:55Z</time>
      </trkpt>
      <trkpt lat="47.48093" lon="3.90114">
        <ele>237</ele>
        <time>2019-04-05T12:39:04Z</time>
      </trkpt>
      <trkpt lat="47.48093" lon="3.90119">
        <ele>238</ele>
        <time>2019-04-05T12:39:07Z</time>
      </trkpt>
      <trkpt lat="47.48094" lon="3.90123">
        <ele>236</ele>
        <time>2019-04-05T12:39:10Z</time>
      </trkpt>
      <trkpt lat="47.48094" lon="3.90127">
        <ele>237</ele>
        <time>2019-04-05T12:39:13Z</time>
      </trkpt>
      <trkpt lat="47.48097" lon="3.90134">
        <ele>238</ele>
        <time>2019-04-05T12:39:18Z</time>
      </trkpt>
      <trkpt lat="47.48099" lon="3.90143">
        <ele>235</ele>
        <time>2019-04-05T12:39:22Z</time>
      </trkpt>
      <trkpt lat="47.481" lon="3.90147">
        <ele>236</ele>
        <time>2019-04-05T12:39:25Z</time>
      </trkpt>
      <trkpt lat="47.48103" lon="3.90153">
        <ele>234</ele>
        <time>2019-04-05T12:39:33Z</time>
      </trkpt>
      <trkpt lat="47.48106" lon="3.90148">
        <ele>229</ele>
        <time>2019-04-05T12:39:43Z</time>
      </trkpt>
      <trkpt lat="47.48112" lon="3.90158">
        <ele>231</ele>
        <time>2019-04-05T12:45:15Z</time>
      </trkpt>
      <trkpt lat="47.48111" lon="3.90165">
        <ele>232</ele>
        <time>2019-04-05T12:45:25Z</time>
      </trkpt>
      <trkpt lat="47.48115" lon="3.90169">
        <ele>232</ele>
        <time>2019-04-05T12:45:34Z</time>
      </trkpt>
      <trkpt lat="47.48118" lon="3.90174">
        <ele>234</ele>
        <time>2019-04-05T12:45:40Z</time>
      </trkpt>
      <trkpt lat="47.48121" lon="3.90181">
        <ele>234</ele>
        <time>2019-04-05T12:45:44Z</time>
      </trkpt>
      <trkpt lat="47.48124" lon="3.90187">
        <ele>235</ele>
        <time>2019-04-05T12:45:49Z</time>
      </trkpt>
      <trkpt lat="47.48127" lon="3.90192">
        <ele>235</ele>
        <time>2019-04-05T12:45:54Z</time>
      </trkpt>
      <trkpt lat="47.48131" lon="3.90195">
        <ele>235</ele>
        <time>2019-04-05T12:45:58Z</time>
      </trkpt>
      <trkpt lat="47.48135" lon="3.90201">
        <ele>238</ele>
        <time>2019-04-05T12:46:03Z</time>
      </trkpt>
      <trkpt lat="47.48138" lon="3.90205">
        <ele>238</ele>
        <time>2019-04-05T12:46:07Z</time>
      </trkpt>
      <trkpt lat="47.48142" lon="3.90211">
        <ele>240</ele>
        <time>2019-04-05T12:46:11Z</time>
      </trkpt>
      <trkpt lat="47.48147" lon="3.90219">
        <ele>241</ele>
        <time>2019-04-05T12:46:19Z</time>
      </trkpt>
      <trkpt lat="47.48151" lon="3.90224">
        <ele>242</ele>
        <time>2019-04-05T12:46:22Z</time>
      </trkpt>
      <trkpt lat="47.48153" lon="3.90227">
        <ele>243</ele>
        <time>2019-04-05T12:46:24Z</time>
      </trkpt>
      <trkpt lat="47.48158" lon="3.90232">
        <ele>241</ele>
        <time>2019-04-05T12:46:28Z</time>
      </trkpt>
      <trkpt lat="47.48161" lon="3.90239">
        <ele>243</ele>
        <time>2019-04-05T12:46:35Z</time>
      </trkpt>
      <trkpt lat="47.48165" lon="3.90245">
        <ele>244</ele>
        <time>2019-04-05T12:46:39Z</time>
      </trkpt>
      <trkpt lat="47.48167" lon="3.90248">
        <ele>245</ele>
        <time>2019-04-05T12:46:42Z</time>
      </trkpt>
      <trkpt lat="47.48172" lon="3.90252">
        <ele>246</ele>
        <time>2019-04-05T12:46:46Z</time>
      </trkpt>
      <trkpt lat="47.48176" lon="3.90258">
        <ele>248</ele>
        <time>2019-04-05T12:46:52Z</time>
      </trkpt>
      <trkpt lat="47.4818" lon="3.90262">
        <ele>247</ele>
        <time>2019-04-05T12:46:57Z</time>
      </trkpt>
      <trkpt lat="47.48188" lon="3.90266">
        <ele>245</ele>
        <time>2019-04-05T12:47:06Z</time>
      </trkpt>
      <trkpt lat="47.48193" lon="3.90269">
        <ele>244</ele>
        <time>2019-04-05T12:47:10Z</time>
      </trkpt>
      <trkpt lat="47.48197" lon="3.90271">
        <ele>243</ele>
        <time>2019-04-05T12:47:13Z</time>
      </trkpt>
      <trkpt lat="47.48201" lon="3.90273">
        <ele>244</ele>
        <time>2019-04-05T12:47:16Z</time>
      </trkpt>
      <trkpt lat="47.48205" lon="3.90276">
        <ele>244</ele>
        <time>2019-04-05T12:47:20Z</time>
      </trkpt>
      <trkpt lat="47.48209" lon="3.90278">
        <ele>243</ele>
        <time>2019-04-05T12:47:25Z</time>
      </trkpt>
      <trkpt lat="47.48214" lon="3.90281">
        <ele>242</ele>
        <time>2019-04-05T12:47:29Z</time>
      </trkpt>
      <trkpt lat="47.48219" lon="3.90283">
        <ele>241</ele>
        <time>2019-04-05T12:47:33Z</time>
      </trkpt>
      <trkpt lat="47.48223" lon="3.90286">
        <ele>240</ele>
        <time>2019-04-05T12:47:37Z</time>
      </trkpt>
      <trkpt lat="47.48229" lon="3.90285">
        <ele>241</ele>
        <time>2019-04-05T12:47:43Z</time>
      </trkpt>
      <trkpt lat="47.48234" lon="3.90287">
        <ele>240</ele>
        <time>2019-04-05T12:47:47Z</time>
      </trkpt>
      <trkpt lat="47.48238" lon="3.90287">
        <ele>240</ele>
        <time>2019-04-05T12:47:51Z</time>
      </trkpt>
      <trkpt lat="47.48244" lon="3.9029">
        <ele>239</ele>
        <time>2019-04-05T12:47:57Z</time>
      </trkpt>
      <trkpt lat="47.48248" lon="3.90291">
        <ele>239</ele>
        <time>2019-04-05T12:48:00Z</time>
      </trkpt>
      <trkpt lat="47.48252" lon="3.90293">
        <ele>238</ele>
        <time>2019-04-05T12:48:04Z</time>
      </trkpt>
      <trkpt lat="47.48255" lon="3.90295">
        <ele>238</ele>
        <time>2019-04-05T12:48:08Z</time>
      </trkpt>
      <trkpt lat="47.4826" lon="3.90299">
        <ele>237</ele>
        <time>2019-04-05T12:48:12Z</time>
      </trkpt>
      <trkpt lat="47.48264" lon="3.90302">
        <ele>235</ele>
        <time>2019-04-05T12:48:16Z</time>
      </trkpt>
      <trkpt lat="47.48269" lon="3.90308">
        <ele>234</ele>
        <time>2019-04-05T12:48:20Z</time>
      </trkpt>
      <trkpt lat="47.48271" lon="3.90311">
        <ele>234</ele>
        <time>2019-04-05T12:48:22Z</time>
      </trkpt>
      <trkpt lat="47.48274" lon="3.90316">
        <ele>234</ele>
        <time>2019-04-05T12:48:26Z</time>
      </trkpt>
      <trkpt lat="47.48278" lon="3.9032">
        <ele>233</ele>
        <time>2019-04-05T12:48:30Z</time>
      </trkpt>
      <trkpt lat="47.48281" lon="3.90323">
        <ele>234</ele>
        <time>2019-04-05T12:48:33Z</time>
      </trkpt>
      <trkpt lat="47.48284" lon="3.90326">
        <ele>235</ele>
        <time>2019-04-05T12:48:36Z</time>
      </trkpt>
      <trkpt lat="47.4829" lon="3.90329">
        <ele>235</ele>
        <time>2019-04-05T12:48:41Z</time>
      </trkpt>
      <trkpt lat="47.48294" lon="3.90332">
        <ele>234</ele>
        <time>2019-04-05T12:48:45Z</time>
      </trkpt>
      <trkpt lat="47.48299" lon="3.90334">
        <ele>233</ele>
        <time>2019-04-05T12:48:50Z</time>
      </trkpt>
      <trkpt lat="47.48305" lon="3.90333">
        <ele>234</ele>
        <time>2019-04-05T12:48:54Z</time>
      </trkpt>
      <trkpt lat="47.48309" lon="3.9033">
        <ele>232</ele>
        <time>2019-04-05T12:48:58Z</time>
      </trkpt>
      <trkpt lat="47.48312" lon="3.90324">
        <ele>232</ele>
        <time>2019-04-05T12:49:01Z</time>
      </trkpt>
      <trkpt lat="47.48313" lon="3.90321">
        <ele>231</ele>
        <time>2019-04-05T12:49:03Z</time>
      </trkpt>
      <trkpt lat="47.48316" lon="3.90314">
        <ele>233</ele>
        <time>2019-04-05T12:49:07Z</time>
      </trkpt>
      <trkpt lat="47.48318" lon="3.90304">
        <ele>233</ele>
        <time>2019-04-05T12:49:13Z</time>
      </trkpt>
      <trkpt lat="47.48319" lon="3.90294">
        <ele>234</ele>
        <time>2019-04-05T12:49:19Z</time>
      </trkpt>
      <trkpt lat="47.4832" lon="3.90287">
        <ele>235</ele>
        <time>2019-04-05T12:49:24Z</time>
      </trkpt>
      <trkpt lat="47.48328" lon="3.90289">
        <ele>231</ele>
        <time>2019-04-05T12:49:32Z</time>
      </trkpt>
      <trkpt lat="47.48333" lon="3.90293">
        <ele>231</ele>
        <time>2019-04-05T12:49:37Z</time>
      </trkpt>
      <trkpt lat="47.48337" lon="3.90296">
        <ele>231</ele>
        <time>2019-04-05T12:49:41Z</time>
      </trkpt>
      <trkpt lat="47.48341" lon="3.90299">
        <ele>231</ele>
        <time>2019-04-05T12:49:45Z</time>
      </trkpt>
      <trkpt lat="47.48343" lon="3.90301">
        <ele>232</ele>
        <time>2019-04-05T12:49:47Z</time>
      </trkpt>
      <trkpt lat="47.48347" lon="3.90305">
        <ele>230</ele>
        <time>2019-04-05T12:49:51Z</time>
      </trkpt>
      <trkpt lat="47.4835" lon="3.90307">
        <ele>231</ele>
        <time>2019-04-05T12:49:53Z</time>
      </trkpt>
      <trkpt lat="47.48352" lon="3.90309">
        <ele>231</ele>
        <time>2019-04-05T12:49:55Z</time>
      </trkpt>
      <trkpt lat="47.48357" lon="3.9031">
        <ele>233</ele>
        <time>2019-04-05T12:50:00Z</time>
      </trkpt>
      <trkpt lat="47.48359" lon="3.90311">
        <ele>232</ele>
        <time>2019-04-05T12:50:04Z</time>
      </trkpt>
      <trkpt lat="47.48364" lon="3.90314">
        <ele>232</ele>
        <time>2019-04-05T12:50:10Z</time>
      </trkpt>
      <trkpt lat="47.48366" lon="3.90315">
        <ele>233</ele>
        <time>2019-04-05T12:50:13Z</time>
      </trkpt>
      <trkpt lat="47.4837" lon="3.90322">
        <ele>232</ele>
        <time>2019-04-05T12:50:18Z</time>
      </trkpt>
      <trkpt lat="47.48374" lon="3.90327">
        <ele>232</ele>
        <time>2019-04-05T12:50:23Z</time>
      </trkpt>
      <trkpt lat="47.48376" lon="3.90334">
        <ele>231</ele>
        <time>2019-04-05T12:50:28Z</time>
      </trkpt>
      <trkpt lat="47.48378" lon="3.90341">
        <ele>232</ele>
        <time>2019-04-05T12:50:33Z</time>
      </trkpt>
      <trkpt lat="47.4838" lon="3.90344">
        <ele>233</ele>
        <time>2019-04-05T12:50:35Z</time>
      </trkpt>
      <trkpt lat="47.48382" lon="3.9035">
        <ele>233</ele>
        <time>2019-04-05T12:50:42Z</time>
      </trkpt>
      <trkpt lat="47.48385" lon="3.90355">
        <ele>229</ele>
        <time>2019-04-05T12:50:46Z</time>
      </trkpt>
      <trkpt lat="47.48388" lon="3.90364">
        <ele>228</ele>
        <time>2019-04-05T12:50:49Z</time>
      </trkpt>
      <trkpt lat="47.48389" lon="3.90373">
        <ele>230</ele>
        <time>2019-04-05T12:50:52Z</time>
      </trkpt>
      <trkpt lat="47.48388" lon="3.9038">
        <ele>230</ele>
        <time>2019-04-05T12:50:58Z</time>
      </trkpt>
      <trkpt lat="47.48388" lon="3.90384">
        <ele>229</ele>
        <time>2019-04-05T12:51:02Z</time>
      </trkpt>
      <trkpt lat="47.48388" lon="3.90387">
        <ele>227</ele>
        <time>2019-04-05T12:51:05Z</time>
      </trkpt>
      <trkpt lat="47.48387" lon="3.9039">
        <ele>226</ele>
        <time>2019-04-05T12:51:08Z</time>
      </trkpt>
      <trkpt lat="47.48388" lon="3.90397">
        <ele>228</ele>
        <time>2019-04-05T12:51:13Z</time>
      </trkpt>
      <trkpt lat="47.48387" lon="3.90406">
        <ele>227</ele>
        <time>2019-04-05T12:51:18Z</time>
      </trkpt>
      <trkpt lat="47.48386" lon="3.90415">
        <ele>225</ele>
        <time>2019-04-05T12:51:22Z</time>
      </trkpt>
      <trkpt lat="47.48387" lon="3.90423">
        <ele>227</ele>
        <time>2019-04-05T12:51:26Z</time>
      </trkpt>
      <trkpt lat="47.48388" lon="3.90427">
        <ele>227</ele>
        <time>2019-04-05T12:51:29Z</time>
      </trkpt>
      <trkpt lat="47.48386" lon="3.90433">
        <ele>227</ele>
        <time>2019-04-05T12:51:34Z</time>
      </trkpt>
      <trkpt lat="47.48388" lon="3.9044">
        <ele>230</ele>
        <time>2019-04-05T12:51:39Z</time>
      </trkpt>
      <trkpt lat="47.48388" lon="3.90446">
        <ele>230</ele>
        <time>2019-04-05T12:51:42Z</time>
      </trkpt>
      <trkpt lat="47.48388" lon="3.90453">
        <ele>230</ele>
        <time>2019-04-05T12:51:45Z</time>
      </trkpt>
      <trkpt lat="47.48388" lon="3.9046">
        <ele>229</ele>
        <time>2019-04-05T12:51:48Z</time>
      </trkpt>
      <trkpt lat="47.4839" lon="3.90467">
        <ele>231</ele>
        <time>2019-04-05T12:51:54Z</time>
      </trkpt>
      <trkpt lat="47.4839" lon="3.90475">
        <ele>232</ele>
        <time>2019-04-05T12:51:59Z</time>
      </trkpt>
      <trkpt lat="47.48392" lon="3.90484">
        <ele>233</ele>
        <time>2019-04-05T12:52:04Z</time>
      </trkpt>
      <trkpt lat="47.48387" lon="3.90491">
        <ele>234</ele>
        <time>2019-04-05T12:52:09Z</time>
      </trkpt>
      <trkpt lat="47.48386" lon="3.90498">
        <ele>235</ele>
        <time>2019-04-05T12:52:13Z</time>
      </trkpt>
      <trkpt lat="47.48389" lon="3.90504">
        <ele>236</ele>
        <time>2019-04-05T12:52:17Z</time>
      </trkpt>
      <trkpt lat="47.48389" lon="3.90511">
        <ele>237</ele>
        <time>2019-04-05T12:52:22Z</time>
      </trkpt>
      <trkpt lat="47.48389" lon="3.90518">
        <ele>237</ele>
        <time>2019-04-05T12:52:26Z</time>
      </trkpt>
      <trkpt lat="47.48392" lon="3.90526">
        <ele>239</ele>
        <time>2019-04-05T12:52:30Z</time>
      </trkpt>
      <trkpt lat="47.48391" lon="3.90534">
        <ele>239</ele>
        <time>2019-04-05T12:52:36Z</time>
      </trkpt>
      <trkpt lat="47.48387" lon="3.90542">
        <ele>241</ele>
        <time>2019-04-05T12:52:41Z</time>
      </trkpt>
      <trkpt lat="47.48386" lon="3.90548">
        <ele>241</ele>
        <time>2019-04-05T12:52:45Z</time>
      </trkpt>
      <trkpt lat="47.48381" lon="3.90553">
        <ele>243</ele>
        <time>2019-04-05T12:52:50Z</time>
      </trkpt>
      <trkpt lat="47.48378" lon="3.90558">
        <ele>245</ele>
        <time>2019-04-05T12:52:53Z</time>
      </trkpt>
      <trkpt lat="47.48374" lon="3.90562">
        <ele>244</ele>
        <time>2019-04-05T12:52:57Z</time>
      </trkpt>
      <trkpt lat="47.48371" lon="3.90567">
        <ele>245</ele>
        <time>2019-04-05T12:53:01Z</time>
      </trkpt>
      <trkpt lat="47.4837" lon="3.9057">
        <ele>246</ele>
        <time>2019-04-05T12:53:03Z</time>
      </trkpt>
      <trkpt lat="47.48364" lon="3.90573">
        <ele>247</ele>
        <time>2019-04-05T12:53:07Z</time>
      </trkpt>
      <trkpt lat="47.48359" lon="3.90573">
        <ele>249</ele>
        <time>2019-04-05T12:53:11Z</time>
      </trkpt>
      <trkpt lat="47.48355" lon="3.90577">
        <ele>250</ele>
        <time>2019-04-05T12:53:16Z</time>
      </trkpt>
      <trkpt lat="47.48352" lon="3.90581">
        <ele>250</ele>
        <time>2019-04-05T12:53:19Z</time>
      </trkpt>
      <trkpt lat="47.48347" lon="3.90586">
        <ele>251</ele>
        <time>2019-04-05T12:53:23Z</time>
      </trkpt>
      <trkpt lat="47.48345" lon="3.90589">
        <ele>251</ele>
        <time>2019-04-05T12:53:25Z</time>
      </trkpt>
      <trkpt lat="47.48342" lon="3.90593">
        <ele>251</ele>
        <time>2019-04-05T12:53:29Z</time>
      </trkpt>
      <trkpt lat="47.48338" lon="3.90598">
        <ele>252</ele>
        <time>2019-04-05T12:53:33Z</time>
      </trkpt>
      <trkpt lat="47.48334" lon="3.906">
        <ele>252</ele>
        <time>2019-04-05T12:53:37Z</time>
      </trkpt>
      <trkpt lat="47.4833" lon="3.90606">
        <ele>253</ele>
        <time>2019-04-05T12:53:41Z</time>
      </trkpt>
      <trkpt lat="47.48326" lon="3.90612">
        <ele>253</ele>
        <time>2019-04-05T12:53:46Z</time>
      </trkpt>
      <trkpt lat="47.48319" lon="3.90614">
        <ele>253</ele>
        <time>2019-04-05T12:53:50Z</time>
      </trkpt>
      <trkpt lat="47.48314" lon="3.90616">
        <ele>253</ele>
        <time>2019-04-05T12:53:54Z</time>
      </trkpt>
      <trkpt lat="47.4831" lon="3.9062">
        <ele>253</ele>
        <time>2019-04-05T12:53:57Z</time>
      </trkpt>
      <trkpt lat="47.48306" lon="3.90623">
        <ele>253</ele>
        <time>2019-04-05T12:54:00Z</time>
      </trkpt>
      <trkpt lat="47.48312" lon="3.90624">
        <ele>251</ele>
        <time>2019-04-05T12:54:10Z</time>
      </trkpt>
      <trkpt lat="47.48322" lon="3.90615">
        <ele>251</ele>
        <time>2019-04-05T12:54:19Z</time>
      </trkpt>
      <trkpt lat="47.48326" lon="3.90618">
        <ele>251</ele>
        <time>2019-04-05T12:54:29Z</time>
      </trkpt>
      <trkpt lat="47.4833" lon="3.90624">
        <ele>251</ele>
        <time>2019-04-05T12:54:33Z</time>
      </trkpt>
      <trkpt lat="47.48331" lon="3.90627">
        <ele>251</ele>
        <time>2019-04-05T12:54:36Z</time>
      </trkpt>
      <trkpt lat="47.48334" lon="3.90631">
        <ele>252</ele>
        <time>2019-04-05T12:54:41Z</time>
      </trkpt>
      <trkpt lat="47.48335" lon="3.90635">
        <ele>256</ele>
        <time>2019-04-05T12:54:49Z</time>
      </trkpt>
      <trkpt lat="47.48337" lon="3.90639">
        <ele>258</ele>
        <time>2019-04-05T12:54:54Z</time>
      </trkpt>
      <trkpt lat="47.48339" lon="3.90646">
        <ele>260</ele>
        <time>2019-04-05T12:55:04Z</time>
      </trkpt>
      <trkpt lat="47.48341" lon="3.90652">
        <ele>260</ele>
        <time>2019-04-05T12:55:10Z</time>
      </trkpt>
      <trkpt lat="47.48344" lon="3.90657">
        <ele>259</ele>
        <time>2019-04-05T12:55:15Z</time>
      </trkpt>
      <trkpt lat="47.4835" lon="3.90659">
        <ele>259</ele>
        <time>2019-04-05T12:55:23Z</time>
      </trkpt>
      <trkpt lat="47.48353" lon="3.90659">
        <ele>260</ele>
        <time>2019-04-05T12:55:26Z</time>
      </trkpt>
      <trkpt lat="47.48356" lon="3.90664">
        <ele>258</ele>
        <time>2019-04-05T12:56:41Z</time>
      </trkpt>
      <trkpt lat="47.48359" lon="3.90667">
        <ele>259</ele>
        <time>2019-04-05T12:57:17Z</time>
      </trkpt>
      <trkpt lat="47.48362" lon="3.90681">
        <ele>262</ele>
        <time>2019-04-05T12:57:48Z</time>
      </trkpt>
      <trkpt lat="47.48362" lon="3.90689">
        <ele>265</ele>
        <time>2019-04-05T12:57:55Z</time>
      </trkpt>
      <trkpt lat="47.48363" lon="3.90694">
        <ele>266</ele>
        <time>2019-04-05T12:57:58Z</time>
      </trkpt>
      <trkpt lat="47.48363" lon="3.90699">
        <ele>267</ele>
        <time>2019-04-05T12:58:01Z</time>
      </trkpt>
      <trkpt lat="47.48365" lon="3.90705">
        <ele>270</ele>
        <time>2019-04-05T12:58:06Z</time>
      </trkpt>
      <trkpt lat="47.48369" lon="3.90709">
        <ele>270</ele>
        <time>2019-04-05T12:58:10Z</time>
      </trkpt>
      <trkpt lat="47.48374" lon="3.90712">
        <ele>271</ele>
        <time>2019-04-05T12:58:14Z</time>
      </trkpt>
      <trkpt lat="47.48379" lon="3.90712">
        <ele>273</ele>
        <time>2019-04-05T12:58:18Z</time>
      </trkpt>
      <trkpt lat="47.48383" lon="3.90709">
        <ele>276</ele>
        <time>2019-04-05T12:58:22Z</time>
      </trkpt>
      <trkpt lat="47.48388" lon="3.90709">
        <ele>278</ele>
        <time>2019-04-05T12:58:29Z</time>
      </trkpt>
      <trkpt lat="47.48391" lon="3.90712">
        <ele>280</ele>
        <time>2019-04-05T12:58:40Z</time>
      </trkpt>
      <trkpt lat="47.48392" lon="3.90721">
        <ele>280</ele>
        <time>2019-04-05T12:58:46Z</time>
      </trkpt>
      <trkpt lat="47.48392" lon="3.90725">
        <ele>278</ele>
        <time>2019-04-05T12:58:49Z</time>
      </trkpt>
      <trkpt lat="47.48392" lon="3.90728">
        <ele>278</ele>
        <time>2019-04-05T12:58:53Z</time>
      </trkpt>
      <trkpt lat="47.4839" lon="3.90736">
        <ele>279</ele>
        <time>2019-04-05T12:58:57Z</time>
      </trkpt>
      <trkpt lat="47.48391" lon="3.90743">
        <ele>281</ele>
        <time>2019-04-05T12:59:01Z</time>
      </trkpt>
      <trkpt lat="47.48391" lon="3.90747">
        <ele>281</ele>
        <time>2019-04-05T12:59:03Z</time>
      </trkpt>
      <trkpt lat="47.48392" lon="3.90756">
        <ele>283</ele>
        <time>2019-04-05T12:59:07Z</time>
      </trkpt>
      <trkpt lat="47.48396" lon="3.90762">
        <ele>285</ele>
        <time>2019-04-05T12:59:12Z</time>
      </trkpt>
      <trkpt lat="47.48397" lon="3.9077">
        <ele>288</ele>
        <time>2019-04-05T12:59:17Z</time>
      </trkpt>
      <trkpt lat="47.484" lon="3.90775">
        <ele>290</ele>
        <time>2019-04-05T12:59:21Z</time>
      </trkpt>
      <trkpt lat="47.48405" lon="3.90776">
        <ele>290</ele>
        <time>2019-04-05T12:59:25Z</time>
      </trkpt>
      <trkpt lat="47.4841" lon="3.90774">
        <ele>293</ele>
        <time>2019-04-05T12:59:30Z</time>
      </trkpt>
      <trkpt lat="47.48415" lon="3.90774">
        <ele>293</ele>
        <time>2019-04-05T12:59:34Z</time>
      </trkpt>
      <trkpt lat="47.48419" lon="3.90771">
        <ele>294</ele>
        <time>2019-04-05T12:59:37Z</time>
      </trkpt>
      <trkpt lat="47.48423" lon="3.90765">
        <ele>293</ele>
        <time>2019-04-05T12:59:41Z</time>
      </trkpt>
      <trkpt lat="47.48426" lon="3.90761">
        <ele>293</ele>
        <time>2019-04-05T12:59:46Z</time>
      </trkpt>
      <trkpt lat="47.48423" lon="3.90783">
        <ele>293</ele>
        <time>2019-04-05T13:00:30Z</time>
      </trkpt>
      <trkpt lat="47.4842" lon="3.90789">
        <ele>293</ele>
        <time>2019-04-05T13:00:37Z</time>
      </trkpt>
      <trkpt lat="47.48421" lon="3.90799">
        <ele>294</ele>
        <time>2019-04-05T13:00:43Z</time>
      </trkpt>
      <trkpt lat="47.48424" lon="3.90805">
        <ele>293</ele>
        <time>2019-04-05T13:00:48Z</time>
      </trkpt>
      <trkpt lat="47.48428" lon="3.90811">
        <ele>294</ele>
        <time>2019-04-05T13:00:54Z</time>
      </trkpt>
      <trkpt lat="47.48434" lon="3.90812">
        <ele>295</ele>
        <time>2019-04-05T13:00:59Z</time>
      </trkpt>
      <trkpt lat="47.48439" lon="3.90812">
        <ele>295</ele>
        <time>2019-04-05T13:01:04Z</time>
      </trkpt>
      <trkpt lat="47.48442" lon="3.90812">
        <ele>296</ele>
        <time>2019-04-05T13:01:07Z</time>
      </trkpt>
      <trkpt lat="47.48444" lon="3.90811">
        <ele>296</ele>
        <time>2019-04-05T13:01:16Z</time>
      </trkpt>
      <trkpt lat="47.48449" lon="3.90808">
        <ele>294</ele>
        <time>2019-04-05T13:02:07Z</time>
      </trkpt>
      <trkpt lat="47.48451" lon="3.90806">
        <ele>294</ele>
        <time>2019-04-05T13:02:10Z</time>
      </trkpt>
      <trkpt lat="47.48453" lon="3.90801">
        <ele>295</ele>
        <time>2019-04-05T13:02:15Z</time>
      </trkpt>
      <trkpt lat="47.48457" lon="3.90796">
        <ele>297</ele>
        <time>2019-04-05T13:02:19Z</time>
      </trkpt>
      <trkpt lat="47.48459" lon="3.9079">
        <ele>298</ele>
        <time>2019-04-05T13:02:23Z</time>
      </trkpt>
      <trkpt lat="47.4846" lon="3.90784">
        <ele>298</ele>
        <time>2019-04-05T13:02:27Z</time>
      </trkpt>
      <trkpt lat="47.48461" lon="3.9078">
        <ele>298</ele>
        <time>2019-04-05T13:02:31Z</time>
      </trkpt>
      <trkpt lat="47.48462" lon="3.90776">
        <ele>298</ele>
        <time>2019-04-05T13:02:34Z</time>
      </trkpt>
      <trkpt lat="47.48463" lon="3.90772">
        <ele>298</ele>
        <time>2019-04-05T13:02:37Z</time>
      </trkpt>
      <trkpt lat="47.48465" lon="3.90766">
        <ele>297</ele>
        <time>2019-04-05T13:02:43Z</time>
      </trkpt>
      <trkpt lat="47.48468" lon="3.9076">
        <ele>300</ele>
        <time>2019-04-05T13:02:52Z</time>
      </trkpt>
      <trkpt lat="47.48473" lon="3.90756">
        <ele>299</ele>
        <time>2019-04-05T13:02:56Z</time>
      </trkpt>
      <trkpt lat="47.48476" lon="3.90753">
        <ele>300</ele>
        <time>2019-04-05T13:02:59Z</time>
      </trkpt>
      <trkpt lat="47.48481" lon="3.90753">
        <ele>301</ele>
        <time>2019-04-05T13:03:04Z</time>
      </trkpt>
      <trkpt lat="47.48483" lon="3.90753">
        <ele>301</ele>
        <time>2019-04-05T13:03:06Z</time>
      </trkpt>
      <trkpt lat="47.48488" lon="3.90752">
        <ele>302</ele>
        <time>2019-04-05T13:03:10Z</time>
      </trkpt>
      <trkpt lat="47.48493" lon="3.90754">
        <ele>303</ele>
        <time>2019-04-05T13:03:14Z</time>
      </trkpt>
      <trkpt lat="47.48499" lon="3.90752">
        <ele>305</ele>
        <time>2019-04-05T13:03:20Z</time>
      </trkpt>
      <trkpt lat="47.48503" lon="3.90749">
        <ele>305</ele>
        <time>2019-04-05T13:03:24Z</time>
      </trkpt>
      <trkpt lat="47.48508" lon="3.90747">
        <ele>306</ele>
        <time>2019-04-05T13:03:29Z</time>
      </trkpt>
      <trkpt lat="47.48512" lon="3.90742">
        <ele>306</ele>
        <time>2019-04-05T13:03:33Z</time>
      </trkpt>
      <trkpt lat="47.48517" lon="3.9074">
        <ele>305</ele>
        <time>2019-04-05T13:03:37Z</time>
      </trkpt>
      <trkpt lat="47.48522" lon="3.90738">
        <ele>304</ele>
        <time>2019-04-05T13:03:41Z</time>
      </trkpt>
      <trkpt lat="47.48526" lon="3.90739">
        <ele>303</ele>
        <time>2019-04-05T13:03:45Z</time>
      </trkpt>
      <trkpt lat="47.48529" lon="3.90736">
        <ele>304</ele>
        <time>2019-04-05T13:03:53Z</time>
      </trkpt>
      <trkpt lat="47.48535" lon="3.9074">
        <ele>304</ele>
        <time>2019-04-05T13:04:07Z</time>
      </trkpt>
      <trkpt lat="47.48541" lon="3.90741">
        <ele>306</ele>
        <time>2019-04-05T13:04:15Z</time>
      </trkpt>
      <trkpt lat="47.48546" lon="3.90739">
        <ele>308</ele>
        <time>2019-04-05T13:04:19Z</time>
      </trkpt>
      <trkpt lat="47.48553" lon="3.90738">
        <ele>308</ele>
        <time>2019-04-05T13:04:24Z</time>
      </trkpt>
      <trkpt lat="47.4856" lon="3.90734">
        <ele>309</ele>
        <time>2019-04-05T13:04:30Z</time>
      </trkpt>
      <trkpt lat="47.48564" lon="3.90731">
        <ele>309</ele>
        <time>2019-04-05T13:04:34Z</time>
      </trkpt>
      <trkpt lat="47.48569" lon="3.90729">
        <ele>308</ele>
        <time>2019-04-05T13:04:39Z</time>
      </trkpt>
      <trkpt lat="47.48573" lon="3.90727">
        <ele>309</ele>
        <time>2019-04-05T13:04:44Z</time>
      </trkpt>
      <trkpt lat="47.48578" lon="3.9073">
        <ele>309</ele>
        <time>2019-04-05T13:04:48Z</time>
      </trkpt>
      <trkpt lat="47.48583" lon="3.90735">
        <ele>308</ele>
        <time>2019-04-05T13:04:52Z</time>
      </trkpt>
      <trkpt lat="47.48585" lon="3.90737">
        <ele>308</ele>
        <time>2019-04-05T13:04:55Z</time>
      </trkpt>
      <trkpt lat="47.4859" lon="3.90739">
        <ele>311</ele>
        <time>2019-04-05T13:05:01Z</time>
      </trkpt>
      <trkpt lat="47.4859" lon="3.90739">
        <ele>311</ele>
        <time>2019-04-05T13:05:10Z</time>
      </trkpt>
      <trkpt lat="47.4859" lon="3.90739">
        <ele>311</ele>
        <time>2019-04-05T13:05:12Z</time>
      </trkpt>
      <trkpt lat="47.48607" lon="3.90727">
        <ele>313</ele>
        <time>2019-04-05T13:08:31Z</time>
      </trkpt>
      <trkpt lat="47.4861" lon="3.90724">
        <ele>314</ele>
        <time>2019-04-05T13:08:37Z</time>
      </trkpt>
      <trkpt lat="47.48614" lon="3.90706">
        <ele>318</ele>
        <time>2019-04-05T13:09:01Z</time>
      </trkpt>
      <trkpt lat="47.48614" lon="3.90706">
        <ele>318</ele>
        <time>2019-04-05T13:14:27Z</time>
      </trkpt>
      <trkpt lat="47.48626" lon="3.90727">
        <ele>310</ele>
        <time>2019-04-05T13:19:29Z</time>
      </trkpt>
      <trkpt lat="47.48631" lon="3.90716">
        <ele>311</ele>
        <time>2019-04-05T13:19:43Z</time>
      </trkpt>
      <trkpt lat="47.48636" lon="3.90713">
        <ele>311</ele>
        <time>2019-04-05T13:19:48Z</time>
      </trkpt>
      <trkpt lat="47.48641" lon="3.90714">
        <ele>313</ele>
        <time>2019-04-05T13:19:55Z</time>
      </trkpt>
      <trkpt lat="47.48646" lon="3.90715">
        <ele>314</ele>
        <time>2019-04-05T13:20:02Z</time>
      </trkpt>
      <trkpt lat="47.48651" lon="3.90715">
        <ele>315</ele>
        <time>2019-04-05T13:20:08Z</time>
      </trkpt>
      <trkpt lat="47.48655" lon="3.90703">
        <ele>316</ele>
        <time>2019-04-05T13:20:17Z</time>
      </trkpt>
      <trkpt lat="47.48647" lon="3.90667">
        <ele>317</ele>
        <time>2019-04-05T13:20:26Z</time>
      </trkpt>
      <trkpt lat="47.48624" lon="3.90715">
        <ele>322</ele>
        <time>2019-04-05T13:22:37Z</time>
      </trkpt>
      <trkpt lat="47.48669" lon="3.90677">
        <ele>253</ele>
        <time>2019-04-05T13:24:14Z</time>
      </trkpt>
      <trkpt lat="47.48669" lon="3.90677">
        <ele>253</ele>
        <time>2019-04-05T13:26:24Z</time>
      </trkpt>
      <trkpt lat="47.48671" lon="3.90719">
        <ele>323</ele>
        <time>2019-04-05T13:26:31Z</time>
      </trkpt>
      <trkpt lat="47.48678" lon="3.90721">
        <ele>319</ele>
        <time>2019-04-05T13:26:34Z</time>
      </trkpt>
      <trkpt lat="47.48681" lon="3.90722">
        <ele>318</ele>
        <time>2019-04-05T13:26:39Z</time>
      </trkpt>
      <trkpt lat="47.48686" lon="3.90725">
        <ele>311</ele>
        <time>2019-04-05T13:26:44Z</time>
      </trkpt>
      <trkpt lat="47.48691" lon="3.90726">
        <ele>312</ele>
        <time>2019-04-05T13:26:49Z</time>
      </trkpt>
      <trkpt lat="47.48693" lon="3.90726">
        <ele>312</ele>
        <time>2019-04-05T13:26:51Z</time>
      </trkpt>
      <trkpt lat="47.48696" lon="3.90726">
        <ele>313</ele>
        <time>2019-04-05T13:26:54Z</time>
      </trkpt>
      <trkpt lat="47.48704" lon="3.90726">
        <ele>314</ele>
        <time>2019-04-05T13:27:01Z</time>
      </trkpt>
      <trkpt lat="47.48708" lon="3.90726">
        <ele>314</ele>
        <time>2019-04-05T13:27:04Z</time>
      </trkpt>
      <trkpt lat="47.4871" lon="3.90726">
        <ele>315</ele>
        <time>2019-04-05T13:27:06Z</time>
      </trkpt>
      <trkpt lat="47.48716" lon="3.90726">
        <ele>316</ele>
        <time>2019-04-05T13:27:10Z</time>
      </trkpt>
      <trkpt lat="47.48722" lon="3.90725">
        <ele>315</ele>
        <time>2019-04-05T13:27:14Z</time>
      </trkpt>
      <trkpt lat="47.48728" lon="3.90727">
        <ele>313</ele>
        <time>2019-04-05T13:27:17Z</time>
      </trkpt>
      <trkpt lat="47.48734" lon="3.90726">
        <ele>314</ele>
        <time>2019-04-05T13:27:22Z</time>
      </trkpt>
      <trkpt lat="47.48739" lon="3.90727">
        <ele>316</ele>
        <time>2019-04-05T13:27:29Z</time>
      </trkpt>
      <trkpt lat="47.48742" lon="3.90727">
        <ele>316</ele>
        <time>2019-04-05T13:27:32Z</time>
      </trkpt>
      <trkpt lat="47.48747" lon="3.90726">
        <ele>318</ele>
        <time>2019-04-05T13:27:36Z</time>
      </trkpt>
      <trkpt lat="47.48752" lon="3.90726">
        <ele>318</ele>
        <time>2019-04-05T13:27:41Z</time>
      </trkpt>
      <trkpt lat="47.48758" lon="3.90726">
        <ele>318</ele>
        <time>2019-04-05T13:27:46Z</time>
      </trkpt>
      <trkpt lat="47.48766" lon="3.90728">
        <ele>318</ele>
        <time>2019-04-05T13:27:52Z</time>
      </trkpt>
      <trkpt lat="47.48769" lon="3.90729">
        <ele>316</ele>
        <time>2019-04-05T13:27:55Z</time>
      </trkpt>
      <trkpt lat="47.48774" lon="3.9073">
        <ele>316</ele>
        <time>2019-04-05T13:28:00Z</time>
      </trkpt>
      <trkpt lat="47.48779" lon="3.90729">
        <ele>316</ele>
        <time>2019-04-05T13:28:04Z</time>
      </trkpt>
      <trkpt lat="47.48787" lon="3.9073">
        <ele>318</ele>
        <time>2019-04-05T13:28:10Z</time>
      </trkpt>
      <trkpt lat="47.48791" lon="3.90731">
        <ele>318</ele>
        <time>2019-04-05T13:28:13Z</time>
      </trkpt>
      <trkpt lat="47.48794" lon="3.90732">
        <ele>317</ele>
        <time>2019-04-05T13:28:16Z</time>
      </trkpt>
      <trkpt lat="47.48798" lon="3.90733">
        <ele>317</ele>
        <time>2019-04-05T13:28:19Z</time>
      </trkpt>
      <trkpt lat="47.48803" lon="3.90737">
        <ele>318</ele>
        <time>2019-04-05T13:28:22Z</time>
      </trkpt>
      <trkpt lat="47.48807" lon="3.9074">
        <ele>317</ele>
        <time>2019-04-05T13:28:25Z</time>
      </trkpt>
      <trkpt lat="47.48814" lon="3.90742">
        <ele>316</ele>
        <time>2019-04-05T13:28:29Z</time>
      </trkpt>
      <trkpt lat="47.4882" lon="3.90744">
        <ele>315</ele>
        <time>2019-04-05T13:28:33Z</time>
      </trkpt>
      <trkpt lat="47.48823" lon="3.90745">
        <ele>315</ele>
        <time>2019-04-05T13:28:36Z</time>
      </trkpt>
      <trkpt lat="47.48827" lon="3.90746">
        <ele>313</ele>
        <time>2019-04-05T13:28:40Z</time>
      </trkpt>
      <trkpt lat="47.4883" lon="3.90747">
        <ele>313</ele>
        <time>2019-04-05T13:28:42Z</time>
      </trkpt>
      <trkpt lat="47.48834" lon="3.90747">
        <ele>312</ele>
        <time>2019-04-05T13:28:45Z</time>
      </trkpt>
      <trkpt lat="47.48839" lon="3.90747">
        <ele>311</ele>
        <time>2019-04-05T13:28:51Z</time>
      </trkpt>
      <trkpt lat="47.48843" lon="3.90751">
        <ele>310</ele>
        <time>2019-04-05T13:28:55Z</time>
      </trkpt>
      <trkpt lat="47.48848" lon="3.90754">
        <ele>310</ele>
        <time>2019-04-05T13:29:00Z</time>
      </trkpt>
      <trkpt lat="47.48854" lon="3.90762">
        <ele>308</ele>
        <time>2019-04-05T13:29:05Z</time>
      </trkpt>
      <trkpt lat="47.48857" lon="3.90766">
        <ele>309</ele>
        <time>2019-04-05T13:29:08Z</time>
      </trkpt>
      <trkpt lat="47.48861" lon="3.9077">
        <ele>309</ele>
        <time>2019-04-05T13:29:13Z</time>
      </trkpt>
      <trkpt lat="47.48864" lon="3.90776">
        <ele>308</ele>
        <time>2019-04-05T13:29:18Z</time>
      </trkpt>
      <trkpt lat="47.48866" lon="3.90779">
        <ele>308</ele>
        <time>2019-04-05T13:29:20Z</time>
      </trkpt>
      <trkpt lat="47.4887" lon="3.90784">
        <ele>307</ele>
        <time>2019-04-05T13:29:24Z</time>
      </trkpt>
      <trkpt lat="47.48877" lon="3.90788">
        <ele>307</ele>
        <time>2019-04-05T13:29:30Z</time>
      </trkpt>
      <trkpt lat="47.48881" lon="3.90794">
        <ele>306</ele>
        <time>2019-04-05T13:29:37Z</time>
      </trkpt>
      <trkpt lat="47.48885" lon="3.90799">
        <ele>307</ele>
        <time>2019-04-05T13:29:42Z</time>
      </trkpt>
      <trkpt lat="47.48888" lon="3.90804">
        <ele>308</ele>
        <time>2019-04-05T13:29:46Z</time>
      </trkpt>
      <trkpt lat="47.48894" lon="3.90808">
        <ele>308</ele>
        <time>2019-04-05T13:29:52Z</time>
      </trkpt>
      <trkpt lat="47.48896" lon="3.9081">
        <ele>308</ele>
        <time>2019-04-05T13:29:54Z</time>
      </trkpt>
      <trkpt lat="47.48899" lon="3.90812">
        <ele>308</ele>
        <time>2019-04-05T13:29:58Z</time>
      </trkpt>
      <trkpt lat="47.48905" lon="3.90813">
        <ele>309</ele>
        <time>2019-04-05T13:30:03Z</time>
      </trkpt>
      <trkpt lat="47.48907" lon="3.90814">
        <ele>309</ele>
        <time>2019-04-05T13:30:05Z</time>
      </trkpt>
      <trkpt lat="47.48914" lon="3.90815">
        <ele>310</ele>
        <time>2019-04-05T13:30:09Z</time>
      </trkpt>
      <trkpt lat="47.48919" lon="3.90815">
        <ele>312</ele>
        <time>2019-04-05T13:30:13Z</time>
      </trkpt>
      <trkpt lat="47.48924" lon="3.90812">
        <ele>313</ele>
        <time>2019-04-05T13:30:16Z</time>
      </trkpt>
      <trkpt lat="47.48929" lon="3.90809">
        <ele>316</ele>
        <time>2019-04-05T13:30:21Z</time>
      </trkpt>
      <trkpt lat="47.48934" lon="3.90806">
        <ele>316</ele>
        <time>2019-04-05T13:30:25Z</time>
      </trkpt>
      <trkpt lat="47.4894" lon="3.90808">
        <ele>314</ele>
        <time>2019-04-05T13:30:29Z</time>
      </trkpt>
      <trkpt lat="47.48943" lon="3.90813">
        <ele>310</ele>
        <time>2019-04-05T13:30:32Z</time>
      </trkpt>
      <trkpt lat="47.48947" lon="3.90817">
        <ele>309</ele>
        <time>2019-04-05T13:30:39Z</time>
      </trkpt>
      <trkpt lat="47.48952" lon="3.90817">
        <ele>309</ele>
        <time>2019-04-05T13:30:44Z</time>
      </trkpt>
      <trkpt lat="47.48958" lon="3.9082">
        <ele>307</ele>
        <time>2019-04-05T13:30:50Z</time>
      </trkpt>
      <trkpt lat="47.48963" lon="3.90821">
        <ele>305</ele>
        <time>2019-04-05T13:30:59Z</time>
      </trkpt>
      <trkpt lat="47.48967" lon="3.90815">
        <ele>305</ele>
        <time>2019-04-05T13:31:06Z</time>
      </trkpt>
      <trkpt lat="47.48971" lon="3.90811">
        <ele>304</ele>
        <time>2019-04-05T13:31:28Z</time>
      </trkpt>
      <trkpt lat="47.48975" lon="3.90809">
        <ele>307</ele>
        <time>2019-04-05T13:32:07Z</time>
      </trkpt>
      <trkpt lat="47.48975" lon="3.90809">
        <ele>307</ele>
        <time>2019-04-05T13:41:45Z</time>
      </trkpt>
      <trkpt lat="47.48975" lon="3.90809">
        <ele>307</ele>
        <time>2019-04-05T13:57:12Z</time>
      </trkpt>
      <trkpt lat="47.48977" lon="3.90797">
        <ele>322</ele>
        <time>2019-04-05T14:02:57Z</time>
      </trkpt>
      <trkpt lat="47.48978" lon="3.90794">
        <ele>322</ele>
        <time>2019-04-05T14:02:59Z</time>
      </trkpt>
      <trkpt lat="47.48982" lon="3.90789">
        <ele>322</ele>
        <time>2019-04-05T14:03:02Z</time>
      </trkpt>
      <trkpt lat="47.48986" lon="3.90779">
        <ele>323</ele>
        <time>2019-04-05T14:03:05Z</time>
      </trkpt>
      <trkpt lat="47.48988" lon="3.90775">
        <ele>324</ele>
        <time>2019-04-05T14:03:07Z</time>
      </trkpt>
      <trkpt lat="47.48989" lon="3.90771">
        <ele>324</ele>
        <time>2019-04-05T14:03:09Z</time>
      </trkpt>
      <trkpt lat="47.48987" lon="3.9076">
        <ele>324</ele>
        <time>2019-04-05T14:03:11Z</time>
      </trkpt>
      <trkpt lat="47.48991" lon="3.90747">
        <ele>326</ele>
        <time>2019-04-05T14:03:21Z</time>
      </trkpt>
      <trkpt lat="47.48991" lon="3.90747">
        <ele>326</ele>
        <time>2019-04-05T14:03:29Z</time>
      </trkpt>
      <trkpt lat="47.48991" lon="3.90747">
        <ele>326</ele>
        <time>2019-04-05T14:03:34Z</time>
      </trkpt>
      <trkpt lat="47.48986" lon="3.90766">
        <ele>335</ele>
        <time>2019-04-05T14:03:37Z</time>
      </trkpt>
      <trkpt lat="47.48984" lon="3.90773">
        <ele>335</ele>
        <time>2019-04-05T14:03:40Z</time>
      </trkpt>
      <trkpt lat="47.4898" lon="3.90778">
        <ele>333</ele>
        <time>2019-04-05T14:03:57Z</time>
      </trkpt>
      <trkpt lat="47.48977" lon="3.90784">
        <ele>333</ele>
        <time>2019-04-05T14:04:06Z</time>
      </trkpt>
      <trkpt lat="47.48973" lon="3.90787">
        <ele>330</ele>
        <time>2019-04-05T14:04:12Z</time>
      </trkpt>
      <trkpt lat="47.4897" lon="3.9079">
        <ele>327</ele>
        <time>2019-04-05T14:04:15Z</time>
      </trkpt>
      <trkpt lat="47.48968" lon="3.90799">
        <ele>320</ele>
        <time>2019-04-05T14:04:22Z</time>
      </trkpt>
      <trkpt lat="47.48967" lon="3.90808">
        <ele>315</ele>
        <time>2019-04-05T14:04:32Z</time>
      </trkpt>
      <trkpt lat="47.48966" lon="3.90811">
        <ele>311</ele>
        <time>2019-04-05T14:04:38Z</time>
      </trkpt>
      <trkpt lat="47.48964" lon="3.90821">
        <ele>311</ele>
        <time>2019-04-05T14:04:47Z</time>
      </trkpt>
      <trkpt lat="47.48964" lon="3.90828">
        <ele>310</ele>
        <time>2019-04-05T14:04:51Z</time>
      </trkpt>
      <trkpt lat="47.48964" lon="3.90835">
        <ele>311</ele>
        <time>2019-04-05T14:04:55Z</time>
      </trkpt>
      <trkpt lat="47.48962" lon="3.90842">
        <ele>312</ele>
        <time>2019-04-05T14:05:00Z</time>
      </trkpt>
      <trkpt lat="47.48963" lon="3.90849">
        <ele>314</ele>
        <time>2019-04-05T14:05:05Z</time>
      </trkpt>
      <trkpt lat="47.48962" lon="3.90853">
        <ele>314</ele>
        <time>2019-04-05T14:05:07Z</time>
      </trkpt>
      <trkpt lat="47.48964" lon="3.90863">
        <ele>314</ele>
        <time>2019-04-05T14:05:12Z</time>
      </trkpt>
      <trkpt lat="47.48962" lon="3.90871">
        <ele>315</ele>
        <time>2019-04-05T14:05:15Z</time>
      </trkpt>
      <trkpt lat="47.48965" lon="3.90878">
        <ele>315</ele>
        <time>2019-04-05T14:05:18Z</time>
      </trkpt>
      <trkpt lat="47.48967" lon="3.90883">
        <ele>314</ele>
        <time>2019-04-05T14:05:20Z</time>
      </trkpt>
      <trkpt lat="47.48969" lon="3.90888">
        <ele>314</ele>
        <time>2019-04-05T14:05:22Z</time>
      </trkpt>
      <trkpt lat="47.4897" lon="3.90892">
        <ele>313</ele>
        <time>2019-04-05T14:05:24Z</time>
      </trkpt>
      <trkpt lat="47.48971" lon="3.90899">
        <ele>311</ele>
        <time>2019-04-05T14:05:28Z</time>
      </trkpt>
      <trkpt lat="47.48973" lon="3.90907">
        <ele>309</ele>
        <time>2019-04-05T14:05:32Z</time>
      </trkpt>
      <trkpt lat="47.48974" lon="3.90914">
        <ele>309</ele>
        <time>2019-04-05T14:05:36Z</time>
      </trkpt>
      <trkpt lat="47.48976" lon="3.90921">
        <ele>309</ele>
        <time>2019-04-05T14:05:40Z</time>
      </trkpt>
      <trkpt lat="47.48979" lon="3.90927">
        <ele>310</ele>
        <time>2019-04-05T14:05:44Z</time>
      </trkpt>
      <trkpt lat="47.48982" lon="3.90933">
        <ele>309</ele>
        <time>2019-04-05T14:05:48Z</time>
      </trkpt>
      <trkpt lat="47.48984" lon="3.90936">
        <ele>310</ele>
        <time>2019-04-05T14:05:50Z</time>
      </trkpt>
      <trkpt lat="47.48986" lon="3.9094">
        <ele>310</ele>
        <time>2019-04-05T14:05:53Z</time>
      </trkpt>
      <trkpt lat="47.48989" lon="3.90947">
        <ele>309</ele>
        <time>2019-04-05T14:05:58Z</time>
      </trkpt>
      <trkpt lat="47.48995" lon="3.90949">
        <ele>308</ele>
        <time>2019-04-05T14:06:04Z</time>
      </trkpt>
      <trkpt lat="47.48998" lon="3.90954">
        <ele>308</ele>
        <time>2019-04-05T14:06:08Z</time>
      </trkpt>
      <trkpt lat="47.49001" lon="3.90961">
        <ele>305</ele>
        <time>2019-04-05T14:06:13Z</time>
      </trkpt>
      <trkpt lat="47.49006" lon="3.90966">
        <ele>304</ele>
        <time>2019-04-05T14:06:19Z</time>
      </trkpt>
      <trkpt lat="47.49009" lon="3.90972">
        <ele>299</ele>
        <time>2019-04-05T14:06:25Z</time>
      </trkpt>
      <trkpt lat="47.49011" lon="3.90975">
        <ele>299</ele>
        <time>2019-04-05T14:06:27Z</time>
      </trkpt>
      <trkpt lat="47.49016" lon="3.90978">
        <ele>301</ele>
        <time>2019-04-05T14:06:32Z</time>
      </trkpt>
      <trkpt lat="47.49021" lon="3.90979">
        <ele>301</ele>
        <time>2019-04-05T14:06:36Z</time>
      </trkpt>
      <trkpt lat="47.49027" lon="3.90981">
        <ele>302</ele>
        <time>2019-04-05T14:06:41Z</time>
      </trkpt>
      <trkpt lat="47.49032" lon="3.90983">
        <ele>300</ele>
        <time>2019-04-05T14:06:46Z</time>
      </trkpt>
      <trkpt lat="47.49036" lon="3.90985">
        <ele>302</ele>
        <time>2019-04-05T14:06:50Z</time>
      </trkpt>
      <trkpt lat="47.49043" lon="3.90984">
        <ele>304</ele>
        <time>2019-04-05T14:06:55Z</time>
      </trkpt>
      <trkpt lat="47.49048" lon="3.90985">
        <ele>306</ele>
        <time>2019-04-05T14:07:00Z</time>
      </trkpt>
      <trkpt lat="47.49051" lon="3.90985">
        <ele>306</ele>
        <time>2019-04-05T14:07:02Z</time>
      </trkpt>
      <trkpt lat="47.49053" lon="3.90985">
        <ele>306</ele>
        <time>2019-04-05T14:07:05Z</time>
      </trkpt>
      <trkpt lat="47.49058" lon="3.90986">
        <ele>307</ele>
        <time>2019-04-05T14:07:08Z</time>
      </trkpt>
      <trkpt lat="47.49061" lon="3.90986">
        <ele>306</ele>
        <time>2019-04-05T14:07:10Z</time>
      </trkpt>
      <trkpt lat="47.49066" lon="3.90983">
        <ele>306</ele>
        <time>2019-04-05T14:07:15Z</time>
      </trkpt>
      <trkpt lat="47.49071" lon="3.90981">
        <ele>307</ele>
        <time>2019-04-05T14:07:20Z</time>
      </trkpt>
      <trkpt lat="47.49076" lon="3.9098">
        <ele>307</ele>
        <time>2019-04-05T14:07:25Z</time>
      </trkpt>
      <trkpt lat="47.49079" lon="3.9098">
        <ele>307</ele>
        <time>2019-04-05T14:07:27Z</time>
      </trkpt>
      <trkpt lat="47.49082" lon="3.90979">
        <ele>307</ele>
        <time>2019-04-05T14:07:29Z</time>
      </trkpt>
      <trkpt lat="47.49085" lon="3.90979">
        <ele>308</ele>
        <time>2019-04-05T14:07:32Z</time>
      </trkpt>
      <trkpt lat="47.49091" lon="3.9098">
        <ele>307</ele>
        <time>2019-04-05T14:07:36Z</time>
      </trkpt>
      <trkpt lat="47.49093" lon="3.90981">
        <ele>307</ele>
        <time>2019-04-05T14:07:39Z</time>
      </trkpt>
      <trkpt lat="47.49099" lon="3.9098">
        <ele>306</ele>
        <time>2019-04-05T14:07:45Z</time>
      </trkpt>
      <trkpt lat="47.49104" lon="3.90974">
        <ele>303</ele>
        <time>2019-04-05T14:07:51Z</time>
      </trkpt>
      <trkpt lat="47.49109" lon="3.90973">
        <ele>303</ele>
        <time>2019-04-05T14:07:55Z</time>
      </trkpt>
      <trkpt lat="47.49111" lon="3.90973">
        <ele>303</ele>
        <time>2019-04-05T14:07:57Z</time>
      </trkpt>
      <trkpt lat="47.49117" lon="3.90971">
        <ele>302</ele>
        <time>2019-04-05T14:08:01Z</time>
      </trkpt>
      <trkpt lat="47.49123" lon="3.90971">
        <ele>301</ele>
        <time>2019-04-05T14:08:06Z</time>
      </trkpt>
      <trkpt lat="47.49129" lon="3.9097">
        <ele>302</ele>
        <time>2019-04-05T14:08:13Z</time>
      </trkpt>
      <trkpt lat="47.49134" lon="3.9097">
        <ele>300</ele>
        <time>2019-04-05T14:08:18Z</time>
      </trkpt>
      <trkpt lat="47.49138" lon="3.9097">
        <ele>300</ele>
        <time>2019-04-05T14:08:21Z</time>
      </trkpt>
      <trkpt lat="47.49143" lon="3.90968">
        <ele>300</ele>
        <time>2019-04-05T14:08:26Z</time>
      </trkpt>
      <trkpt lat="47.49148" lon="3.90968">
        <ele>300</ele>
        <time>2019-04-05T14:08:30Z</time>
      </trkpt>
      <trkpt lat="47.49155" lon="3.90967">
        <ele>300</ele>
        <time>2019-04-05T14:08:37Z</time>
      </trkpt>
      <trkpt lat="47.49158" lon="3.90967">
        <ele>301</ele>
        <time>2019-04-05T14:08:40Z</time>
      </trkpt>
      <trkpt lat="47.4916" lon="3.90966">
        <ele>301</ele>
        <time>2019-04-05T14:08:43Z</time>
      </trkpt>
      <trkpt lat="47.49163" lon="3.90966">
        <ele>300</ele>
        <time>2019-04-05T14:08:45Z</time>
      </trkpt>
      <trkpt lat="47.49168" lon="3.90966">
        <ele>301</ele>
        <time>2019-04-05T14:08:50Z</time>
      </trkpt>
      <trkpt lat="47.49171" lon="3.90965">
        <ele>301</ele>
        <time>2019-04-05T14:08:52Z</time>
      </trkpt>
      <trkpt lat="47.49176" lon="3.90967">
        <ele>302</ele>
        <time>2019-04-05T14:08:57Z</time>
      </trkpt>
      <trkpt lat="47.49179" lon="3.90968">
        <ele>303</ele>
        <time>2019-04-05T14:08:59Z</time>
      </trkpt>
      <trkpt lat="47.49184" lon="3.90966">
        <ele>303</ele>
        <time>2019-04-05T14:09:03Z</time>
      </trkpt>
      <trkpt lat="47.49188" lon="3.90966">
        <ele>302</ele>
        <time>2019-04-05T14:09:05Z</time>
      </trkpt>
      <trkpt lat="47.49192" lon="3.90961">
        <ele>300</ele>
        <time>2019-04-05T14:09:10Z</time>
      </trkpt>
      <trkpt lat="47.49195" lon="3.90955">
        <ele>302</ele>
        <time>2019-04-05T14:09:16Z</time>
      </trkpt>
      <trkpt lat="47.49199" lon="3.90952">
        <ele>301</ele>
        <time>2019-04-05T14:09:20Z</time>
      </trkpt>
      <trkpt lat="47.49201" lon="3.90951">
        <ele>300</ele>
        <time>2019-04-05T14:09:26Z</time>
      </trkpt>
      <trkpt lat="47.49206" lon="3.90952">
        <ele>301</ele>
        <time>2019-04-05T14:09:34Z</time>
      </trkpt>
      <trkpt lat="47.49211" lon="3.90955">
        <ele>300</ele>
        <time>2019-04-05T14:09:38Z</time>
      </trkpt>
      <trkpt lat="47.49215" lon="3.90958">
        <ele>300</ele>
        <time>2019-04-05T14:09:42Z</time>
      </trkpt>
      <trkpt lat="47.49221" lon="3.90959">
        <ele>299</ele>
        <time>2019-04-05T14:09:47Z</time>
      </trkpt>
      <trkpt lat="47.49226" lon="3.90961">
        <ele>300</ele>
        <time>2019-04-05T14:09:53Z</time>
      </trkpt>
      <trkpt lat="47.49231" lon="3.90961">
        <ele>301</ele>
        <time>2019-04-05T14:09:56Z</time>
      </trkpt>
      <trkpt lat="47.49236" lon="3.90963">
        <ele>302</ele>
        <time>2019-04-05T14:09:59Z</time>
      </trkpt>
      <trkpt lat="47.4924" lon="3.90966">
        <ele>304</ele>
        <time>2019-04-05T14:10:03Z</time>
      </trkpt>
      <trkpt lat="47.49246" lon="3.90968">
        <ele>306</ele>
        <time>2019-04-05T14:10:09Z</time>
      </trkpt>
      <trkpt lat="47.49251" lon="3.90972">
        <ele>308</ele>
        <time>2019-04-05T14:10:14Z</time>
      </trkpt>
      <trkpt lat="47.49258" lon="3.90977">
        <ele>306</ele>
        <time>2019-04-05T14:10:20Z</time>
      </trkpt>
      <trkpt lat="47.49263" lon="3.9098">
        <ele>305</ele>
        <time>2019-04-05T14:10:24Z</time>
      </trkpt>
      <trkpt lat="47.49267" lon="3.90985">
        <ele>305</ele>
        <time>2019-04-05T14:10:28Z</time>
      </trkpt>
      <trkpt lat="47.49271" lon="3.90989">
        <ele>306</ele>
        <time>2019-04-05T14:10:32Z</time>
      </trkpt>
      <trkpt lat="47.49273" lon="3.90991">
        <ele>306</ele>
        <time>2019-04-05T14:10:34Z</time>
      </trkpt>
      <trkpt lat="47.49275" lon="3.90993">
        <ele>307</ele>
        <time>2019-04-05T14:10:38Z</time>
      </trkpt>
      <trkpt lat="47.49279" lon="3.90998">
        <ele>309</ele>
        <time>2019-04-05T14:10:43Z</time>
      </trkpt>
      <trkpt lat="47.49282" lon="3.90999">
        <ele>309</ele>
        <time>2019-04-05T14:10:46Z</time>
      </trkpt>
      <trkpt lat="47.49284" lon="3.90999">
        <ele>308</ele>
        <time>2019-04-05T14:10:54Z</time>
      </trkpt>
      <trkpt lat="47.49288" lon="3.91005">
        <ele>308</ele>
        <time>2019-04-05T14:11:22Z</time>
      </trkpt>
      <trkpt lat="47.49291" lon="3.91009">
        <ele>305</ele>
        <time>2019-04-05T14:11:25Z</time>
      </trkpt>
      <trkpt lat="47.49296" lon="3.91012">
        <ele>305</ele>
        <time>2019-04-05T14:11:28Z</time>
      </trkpt>
      <trkpt lat="47.493" lon="3.91016">
        <ele>305</ele>
        <time>2019-04-05T14:11:32Z</time>
      </trkpt>
      <trkpt lat="47.49307" lon="3.9102">
        <ele>305</ele>
        <time>2019-04-05T14:11:38Z</time>
      </trkpt>
      <trkpt lat="47.49312" lon="3.91026">
        <ele>305</ele>
        <time>2019-04-05T14:11:43Z</time>
      </trkpt>
      <trkpt lat="47.49319" lon="3.9103">
        <ele>305</ele>
        <time>2019-04-05T14:11:48Z</time>
      </trkpt>
      <trkpt lat="47.49324" lon="3.91034">
        <ele>306</ele>
        <time>2019-04-05T14:11:52Z</time>
      </trkpt>
      <trkpt lat="47.49328" lon="3.91037">
        <ele>307</ele>
        <time>2019-04-05T14:11:56Z</time>
      </trkpt>
      <trkpt lat="47.49334" lon="3.91041">
        <ele>306</ele>
        <time>2019-04-05T14:12:01Z</time>
      </trkpt>
      <trkpt lat="47.49339" lon="3.91048">
        <ele>305</ele>
        <time>2019-04-05T14:12:06Z</time>
      </trkpt>
      <trkpt lat="47.49343" lon="3.91054">
        <ele>303</ele>
        <time>2019-04-05T14:12:11Z</time>
      </trkpt>
      <trkpt lat="47.49347" lon="3.91058">
        <ele>303</ele>
        <time>2019-04-05T14:12:15Z</time>
      </trkpt>
      <trkpt lat="47.49351" lon="3.91061">
        <ele>304</ele>
        <time>2019-04-05T14:12:19Z</time>
      </trkpt>
      <trkpt lat="47.49354" lon="3.91063">
        <ele>304</ele>
        <time>2019-04-05T14:12:21Z</time>
      </trkpt>
      <trkpt lat="47.49357" lon="3.91065">
        <ele>304</ele>
        <time>2019-04-05T14:12:23Z</time>
      </trkpt>
      <trkpt lat="47.4936" lon="3.91068">
        <ele>304</ele>
        <time>2019-04-05T14:12:26Z</time>
      </trkpt>
      <trkpt lat="47.49367" lon="3.91071">
        <ele>303</ele>
        <time>2019-04-05T14:12:31Z</time>
      </trkpt>
      <trkpt lat="47.49369" lon="3.91073">
        <ele>302</ele>
        <time>2019-04-05T14:12:33Z</time>
      </trkpt>
      <trkpt lat="47.49374" lon="3.91077">
        <ele>303</ele>
        <time>2019-04-05T14:12:37Z</time>
      </trkpt>
      <trkpt lat="47.49378" lon="3.9108">
        <ele>302</ele>
        <time>2019-04-05T14:12:40Z</time>
      </trkpt>
      <trkpt lat="47.49382" lon="3.91084">
        <ele>301</ele>
        <time>2019-04-05T14:12:44Z</time>
      </trkpt>
      <trkpt lat="47.49384" lon="3.91087">
        <ele>303</ele>
        <time>2019-04-05T14:12:46Z</time>
      </trkpt>
      <trkpt lat="47.49388" lon="3.91091">
        <ele>302</ele>
        <time>2019-04-05T14:12:49Z</time>
      </trkpt>
      <trkpt lat="47.4939" lon="3.91093">
        <ele>303</ele>
        <time>2019-04-05T14:12:52Z</time>
      </trkpt>
      <trkpt lat="47.49392" lon="3.91095">
        <ele>303</ele>
        <time>2019-04-05T14:12:54Z</time>
      </trkpt>
      <trkpt lat="47.49396" lon="3.911">
        <ele>303</ele>
        <time>2019-04-05T14:12:58Z</time>
      </trkpt>
      <trkpt lat="47.49404" lon="3.91104">
        <ele>304</ele>
        <time>2019-04-05T14:13:04Z</time>
      </trkpt>
      <trkpt lat="47.4941" lon="3.91106">
        <ele>303</ele>
        <time>2019-04-05T14:13:08Z</time>
      </trkpt>
      <trkpt lat="47.49414" lon="3.91113">
        <ele>303</ele>
        <time>2019-04-05T14:13:12Z</time>
      </trkpt>
      <trkpt lat="47.49416" lon="3.91116">
        <ele>303</ele>
        <time>2019-04-05T14:13:14Z</time>
      </trkpt>
      <trkpt lat="47.49418" lon="3.9112">
        <ele>303</ele>
        <time>2019-04-05T14:13:17Z</time>
      </trkpt>
      <trkpt lat="47.49422" lon="3.91125">
        <ele>301</ele>
        <time>2019-04-05T14:13:21Z</time>
      </trkpt>
      <trkpt lat="47.4943" lon="3.91131">
        <ele>299</ele>
        <time>2019-04-05T14:13:27Z</time>
      </trkpt>
      <trkpt lat="47.49433" lon="3.91135">
        <ele>298</ele>
        <time>2019-04-05T14:13:31Z</time>
      </trkpt>
      <trkpt lat="47.49436" lon="3.91137">
        <ele>298</ele>
        <time>2019-04-05T14:13:34Z</time>
      </trkpt>
      <trkpt lat="47.49441" lon="3.9114">
        <ele>298</ele>
        <time>2019-04-05T14:13:38Z</time>
      </trkpt>
      <trkpt lat="47.49445" lon="3.91144">
        <ele>298</ele>
        <time>2019-04-05T14:13:42Z</time>
      </trkpt>
      <trkpt lat="47.49448" lon="3.91146">
        <ele>297</ele>
        <time>2019-04-05T14:13:44Z</time>
      </trkpt>
      <trkpt lat="47.49453" lon="3.91151">
        <ele>297</ele>
        <time>2019-04-05T14:13:50Z</time>
      </trkpt>
      <trkpt lat="47.49456" lon="3.91153">
        <ele>298</ele>
        <time>2019-04-05T14:13:53Z</time>
      </trkpt>
      <trkpt lat="47.49462" lon="3.91159">
        <ele>298</ele>
        <time>2019-04-05T14:14:00Z</time>
      </trkpt>
      <trkpt lat="47.49467" lon="3.9116">
        <ele>299</ele>
        <time>2019-04-05T14:14:04Z</time>
      </trkpt>
      <trkpt lat="47.49471" lon="3.91165">
        <ele>299</ele>
        <time>2019-04-05T14:14:08Z</time>
      </trkpt>
      <trkpt lat="47.49476" lon="3.91168">
        <ele>299</ele>
        <time>2019-04-05T14:14:14Z</time>
      </trkpt>
      <trkpt lat="47.49478" lon="3.91169">
        <ele>300</ele>
        <time>2019-04-05T14:14:16Z</time>
      </trkpt>
      <trkpt lat="47.49484" lon="3.91176">
        <ele>300</ele>
        <time>2019-04-05T14:14:22Z</time>
      </trkpt>
      <trkpt lat="47.49486" lon="3.91178">
        <ele>300</ele>
        <time>2019-04-05T14:14:24Z</time>
      </trkpt>
      <trkpt lat="47.49491" lon="3.91182">
        <ele>300</ele>
        <time>2019-04-05T14:14:28Z</time>
      </trkpt>
      <trkpt lat="47.49496" lon="3.91187">
        <ele>298</ele>
        <time>2019-04-05T14:14:33Z</time>
      </trkpt>
      <trkpt lat="47.495" lon="3.91191">
        <ele>300</ele>
        <time>2019-04-05T14:14:38Z</time>
      </trkpt>
      <trkpt lat="47.49503" lon="3.91193">
        <ele>300</ele>
        <time>2019-04-05T14:14:40Z</time>
      </trkpt>
      <trkpt lat="47.49508" lon="3.91196">
        <ele>300</ele>
        <time>2019-04-05T14:14:44Z</time>
      </trkpt>
      <trkpt lat="47.49512" lon="3.912">
        <ele>299</ele>
        <time>2019-04-05T14:14:48Z</time>
      </trkpt>
      <trkpt lat="47.49518" lon="3.91203">
        <ele>300</ele>
        <time>2019-04-05T14:14:54Z</time>
      </trkpt>
      <trkpt lat="47.49523" lon="3.91208">
        <ele>300</ele>
        <time>2019-04-05T14:14:58Z</time>
      </trkpt>
      <trkpt lat="47.49528" lon="3.91211">
        <ele>299</ele>
        <time>2019-04-05T14:15:02Z</time>
      </trkpt>
      <trkpt lat="47.49532" lon="3.9121">
        <ele>300</ele>
        <time>2019-04-05T14:15:06Z</time>
      </trkpt>
      <trkpt lat="47.49539" lon="3.91213">
        <ele>298</ele>
        <time>2019-04-05T14:15:12Z</time>
      </trkpt>
      <trkpt lat="47.49542" lon="3.91214">
        <ele>298</ele>
        <time>2019-04-05T14:15:14Z</time>
      </trkpt>
      <trkpt lat="47.49546" lon="3.91219">
        <ele>299</ele>
        <time>2019-04-05T14:15:19Z</time>
      </trkpt>
      <trkpt lat="47.49548" lon="3.91223">
        <ele>299</ele>
        <time>2019-04-05T14:15:22Z</time>
      </trkpt>
      <trkpt lat="47.4955" lon="3.91226">
        <ele>299</ele>
        <time>2019-04-05T14:15:24Z</time>
      </trkpt>
      <trkpt lat="47.49555" lon="3.91227">
        <ele>300</ele>
        <time>2019-04-05T14:15:28Z</time>
      </trkpt>
      <trkpt lat="47.4956" lon="3.91224">
        <ele>301</ele>
        <time>2019-04-05T14:15:31Z</time>
      </trkpt>
      <trkpt lat="47.49567" lon="3.91223">
        <ele>301</ele>
        <time>2019-04-05T14:15:36Z</time>
      </trkpt>
      <trkpt lat="47.4957" lon="3.91222">
        <ele>299</ele>
        <time>2019-04-05T14:15:46Z</time>
      </trkpt>
      <trkpt lat="47.4957" lon="3.91222">
        <ele>249.7</ele>
        <time>2019-04-05T14:16:10Z</time>
      </trkpt>
      <trkpt lat="47.4957" lon="3.91222">
        <ele>249.7</ele>
        <time>2019-04-05T14:16:12Z</time>
      </trkpt>
    </trkseg>
  </trk>
</gpx>